<?xml version="1.0" encoding="UTF-8" standalone="no" ?>
<gpx xmlns="http://www.topografix.com/GPX/1/1" xmlns:xsi="http://www.w3.org/2001/XMLSchema-instance" xsi:schemaLocation="http://www.topografix.com/GPX/1/1 http://www.topografix.com/GPX/1/1/gpx.xsd" version="1.1" creator="VisuGPX - https://www.visugpx.com">
  <metadata>
    <name>Bagnols -Pennafort -Fille d'Isnard</name>
    <desc><![CDATA[avec RA]]></desc>
  </metadata>
  <trk>
    <name><![CDATA[Bouverie_Pas_des_Vaches_Gorges_de_Pennafort RA]]></name>
    <extensions>
      <line xmlns="http://www.topografix.com/GPX/gpx_style/0/2">
        <color>0000FF</color>
        <width>4</width>
      </line>
    </extensions>
    <trkseg>
      <trkpt lat="43.49347" lon="6.64872">
        <ele>47.9</ele>
        <time>2025-10-28T07:21:42.000Z</time>
      </trkpt>
      <trkpt lat="43.49349" lon="6.64872">
        <ele>48</ele>
        <time>2025-10-28T07:21:43.000Z</time>
      </trkpt>
      <trkpt lat="43.49351" lon="6.64871">
        <ele>48</ele>
        <time>2025-10-28T07:21:44.000Z</time>
      </trkpt>
      <trkpt lat="43.49353" lon="6.64871">
        <ele>48</ele>
        <time>2025-10-28T07:21:45.000Z</time>
      </trkpt>
      <trkpt lat="43.49355" lon="6.64871">
        <ele>48.1</ele>
        <time>2025-10-28T07:21:46.000Z</time>
      </trkpt>
      <trkpt lat="43.49356" lon="6.64871">
        <ele>48.1</ele>
        <time>2025-10-28T07:21:47.000Z</time>
      </trkpt>
      <trkpt lat="43.49358" lon="6.6487">
        <ele>48.1</ele>
        <time>2025-10-28T07:21:48.000Z</time>
      </trkpt>
      <trkpt lat="43.4936" lon="6.6487">
        <ele>48.2</ele>
        <time>2025-10-28T07:21:49.000Z</time>
      </trkpt>
      <trkpt lat="43.49362" lon="6.6487">
        <ele>48.2</ele>
        <time>2025-10-28T07:21:50.000Z</time>
      </trkpt>
      <trkpt lat="43.49364" lon="6.6487">
        <ele>48.2</ele>
        <time>2025-10-28T07:21:51.000Z</time>
      </trkpt>
      <trkpt lat="43.49366" lon="6.64869">
        <ele>48.3</ele>
        <time>2025-10-28T07:21:52.000Z</time>
      </trkpt>
      <trkpt lat="43.49367" lon="6.64869">
        <ele>48.3</ele>
        <time>2025-10-28T07:21:53.000Z</time>
      </trkpt>
      <trkpt lat="43.49369" lon="6.64869">
        <ele>48.4</ele>
        <time>2025-10-28T07:21:54.000Z</time>
      </trkpt>
      <trkpt lat="43.49371" lon="6.64869">
        <ele>48.4</ele>
        <time>2025-10-28T07:21:55.000Z</time>
      </trkpt>
      <trkpt lat="43.49373" lon="6.64868">
        <ele>48.4</ele>
        <time>2025-10-28T07:21:56.000Z</time>
      </trkpt>
      <trkpt lat="43.49375" lon="6.64868">
        <ele>48.5</ele>
        <time>2025-10-28T07:21:57.000Z</time>
      </trkpt>
      <trkpt lat="43.49376" lon="6.64868">
        <ele>48.5</ele>
        <time>2025-10-28T07:21:58.000Z</time>
      </trkpt>
      <trkpt lat="43.49378" lon="6.64868">
        <ele>48.5</ele>
        <time>2025-10-28T07:21:59.000Z</time>
      </trkpt>
      <trkpt lat="43.4938" lon="6.64867">
        <ele>48.6</ele>
        <time>2025-10-28T07:22:00.000Z</time>
      </trkpt>
      <trkpt lat="43.49382" lon="6.64867">
        <ele>48.6</ele>
        <time>2025-10-28T07:22:01.000Z</time>
      </trkpt>
      <trkpt lat="43.49384" lon="6.64867">
        <ele>48.6</ele>
        <time>2025-10-28T07:22:02.000Z</time>
      </trkpt>
      <trkpt lat="43.49386" lon="6.64867">
        <ele>48.7</ele>
        <time>2025-10-28T07:22:03.000Z</time>
      </trkpt>
      <trkpt lat="43.49387" lon="6.64866">
        <ele>48.7</ele>
        <time>2025-10-28T07:22:04.000Z</time>
      </trkpt>
      <trkpt lat="43.49389" lon="6.64866">
        <ele>48.7</ele>
        <time>2025-10-28T07:22:05.000Z</time>
      </trkpt>
      <trkpt lat="43.49387" lon="6.64868">
        <ele>48.8</ele>
        <time>2025-10-28T07:22:06.000Z</time>
      </trkpt>
      <trkpt lat="43.49385" lon="6.64868">
        <ele>48.8</ele>
        <time>2025-10-28T07:22:07.000Z</time>
      </trkpt>
      <trkpt lat="43.49384" lon="6.64868">
        <ele>48.8</ele>
        <time>2025-10-28T07:22:08.000Z</time>
      </trkpt>
      <trkpt lat="43.49383" lon="6.64868">
        <ele>48.9</ele>
        <time>2025-10-28T07:22:09.000Z</time>
      </trkpt>
      <trkpt lat="43.49381" lon="6.64868">
        <ele>48.9</ele>
        <time>2025-10-28T07:22:10.000Z</time>
      </trkpt>
      <trkpt lat="43.49379" lon="6.64868">
        <ele>49</ele>
        <time>2025-10-28T07:22:11.000Z</time>
      </trkpt>
      <trkpt lat="43.49377" lon="6.64868">
        <ele>49</ele>
        <time>2025-10-28T07:22:12.000Z</time>
      </trkpt>
      <trkpt lat="43.49377" lon="6.64869">
        <ele>49</ele>
        <time>2025-10-28T07:22:13.000Z</time>
      </trkpt>
      <trkpt lat="43.49375" lon="6.64869">
        <ele>49</ele>
        <time>2025-10-28T07:22:14.000Z</time>
      </trkpt>
      <trkpt lat="43.49374" lon="6.64869">
        <ele>49.1</ele>
        <time>2025-10-28T07:22:15.000Z</time>
      </trkpt>
      <trkpt lat="43.49373" lon="6.64869">
        <ele>49.1</ele>
        <time>2025-10-28T07:22:16.000Z</time>
      </trkpt>
      <trkpt lat="43.49372" lon="6.64869">
        <ele>49.1</ele>
        <time>2025-10-28T07:22:17.000Z</time>
      </trkpt>
      <trkpt lat="43.4937" lon="6.64869">
        <ele>49.2</ele>
        <time>2025-10-28T07:22:18.000Z</time>
      </trkpt>
      <trkpt lat="43.49368" lon="6.64868">
        <ele>49.2</ele>
        <time>2025-10-28T07:22:19.000Z</time>
      </trkpt>
      <trkpt lat="43.49367" lon="6.64867">
        <ele>49.2</ele>
        <time>2025-10-28T07:22:20.000Z</time>
      </trkpt>
      <trkpt lat="43.49367" lon="6.64867">
        <ele>49.2</ele>
        <time>2025-10-28T07:22:21.000Z</time>
      </trkpt>
      <trkpt lat="43.49367" lon="6.64867">
        <ele>49.2</ele>
        <time>2025-10-28T07:22:22.000Z</time>
      </trkpt>
      <trkpt lat="43.49367" lon="6.64866">
        <ele>49.3</ele>
        <time>2025-10-28T07:22:23.000Z</time>
      </trkpt>
      <trkpt lat="43.49367" lon="6.64866">
        <ele>49.3</ele>
        <time>2025-10-28T07:22:24.000Z</time>
      </trkpt>
      <trkpt lat="43.49367" lon="6.64866">
        <ele>49.3</ele>
        <time>2025-10-28T07:22:25.000Z</time>
      </trkpt>
      <trkpt lat="43.49367" lon="6.64865">
        <ele>49.3</ele>
        <time>2025-10-28T07:22:26.000Z</time>
      </trkpt>
      <trkpt lat="43.49366" lon="6.64865">
        <ele>49.3</ele>
        <time>2025-10-28T07:22:27.000Z</time>
      </trkpt>
      <trkpt lat="43.49365" lon="6.64866">
        <ele>49.3</ele>
        <time>2025-10-28T07:22:28.000Z</time>
      </trkpt>
      <trkpt lat="43.49364" lon="6.64866">
        <ele>49.4</ele>
        <time>2025-10-28T07:22:29.000Z</time>
      </trkpt>
      <trkpt lat="43.49363" lon="6.64866">
        <ele>49.4</ele>
        <time>2025-10-28T07:22:30.000Z</time>
      </trkpt>
      <trkpt lat="43.49364" lon="6.64866">
        <ele>49.4</ele>
        <time>2025-10-28T07:22:31.000Z</time>
      </trkpt>
      <trkpt lat="43.49364" lon="6.64866">
        <ele>49.4</ele>
        <time>2025-10-28T07:22:32.000Z</time>
      </trkpt>
      <trkpt lat="43.49365" lon="6.64866">
        <ele>49.4</ele>
        <time>2025-10-28T07:22:33.000Z</time>
      </trkpt>
      <trkpt lat="43.49365" lon="6.64866">
        <ele>49.4</ele>
        <time>2025-10-28T07:22:34.000Z</time>
      </trkpt>
      <trkpt lat="43.49366" lon="6.64866">
        <ele>49.4</ele>
        <time>2025-10-28T07:22:35.000Z</time>
      </trkpt>
      <trkpt lat="43.49366" lon="6.64866">
        <ele>49.4</ele>
        <time>2025-10-28T07:22:36.000Z</time>
      </trkpt>
      <trkpt lat="43.49366" lon="6.64866">
        <ele>49.4</ele>
        <time>2025-10-28T07:22:37.000Z</time>
      </trkpt>
      <trkpt lat="43.49366" lon="6.64867">
        <ele>49.5</ele>
        <time>2025-10-28T07:22:38.000Z</time>
      </trkpt>
      <trkpt lat="43.49366" lon="6.64867">
        <ele>49.5</ele>
        <time>2025-10-28T07:22:39.000Z</time>
      </trkpt>
      <trkpt lat="43.49366" lon="6.64867">
        <ele>49.5</ele>
        <time>2025-10-28T07:22:40.000Z</time>
      </trkpt>
      <trkpt lat="43.49366" lon="6.64867">
        <ele>49.5</ele>
        <time>2025-10-28T07:22:41.000Z</time>
      </trkpt>
      <trkpt lat="43.49366" lon="6.64867">
        <ele>49.5</ele>
        <time>2025-10-28T07:22:42.000Z</time>
      </trkpt>
      <trkpt lat="43.49366" lon="6.64867">
        <ele>49.5</ele>
        <time>2025-10-28T07:22:43.000Z</time>
      </trkpt>
      <trkpt lat="43.49366" lon="6.64867">
        <ele>49.5</ele>
        <time>2025-10-28T07:22:44.000Z</time>
      </trkpt>
      <trkpt lat="43.49366" lon="6.64867">
        <ele>49.5</ele>
        <time>2025-10-28T07:22:45.000Z</time>
      </trkpt>
      <trkpt lat="43.49366" lon="6.64867">
        <ele>49.5</ele>
        <time>2025-10-28T07:22:46.000Z</time>
      </trkpt>
      <trkpt lat="43.49366" lon="6.64866">
        <ele>49.5</ele>
        <time>2025-10-28T07:22:47.000Z</time>
      </trkpt>
      <trkpt lat="43.49366" lon="6.64866">
        <ele>49.5</ele>
        <time>2025-10-28T07:22:48.000Z</time>
      </trkpt>
      <trkpt lat="43.49366" lon="6.64866">
        <ele>49.5</ele>
        <time>2025-10-28T07:22:49.000Z</time>
      </trkpt>
      <trkpt lat="43.49366" lon="6.64866">
        <ele>49.5</ele>
        <time>2025-10-28T07:22:50.000Z</time>
      </trkpt>
      <trkpt lat="43.49366" lon="6.64866">
        <ele>49.5</ele>
        <time>2025-10-28T07:22:51.000Z</time>
      </trkpt>
      <trkpt lat="43.49366" lon="6.64866">
        <ele>49.5</ele>
        <time>2025-10-28T07:22:52.000Z</time>
      </trkpt>
      <trkpt lat="43.49366" lon="6.64866">
        <ele>49.5</ele>
        <time>2025-10-28T07:22:53.000Z</time>
      </trkpt>
      <trkpt lat="43.49366" lon="6.64866">
        <ele>49.5</ele>
        <time>2025-10-28T07:22:54.000Z</time>
      </trkpt>
      <trkpt lat="43.49367" lon="6.64866">
        <ele>49.5</ele>
        <time>2025-10-28T07:22:55.000Z</time>
      </trkpt>
      <trkpt lat="43.49367" lon="6.64866">
        <ele>49.5</ele>
        <time>2025-10-28T07:22:56.000Z</time>
      </trkpt>
      <trkpt lat="43.49368" lon="6.64865">
        <ele>49.5</ele>
        <time>2025-10-28T07:22:57.000Z</time>
      </trkpt>
      <trkpt lat="43.49369" lon="6.64863">
        <ele>49.6</ele>
        <time>2025-10-28T07:22:58.000Z</time>
      </trkpt>
      <trkpt lat="43.49371" lon="6.64861">
        <ele>49.7</ele>
        <time>2025-10-28T07:22:59.000Z</time>
      </trkpt>
      <trkpt lat="43.49373" lon="6.64858">
        <ele>49.7</ele>
        <time>2025-10-28T07:23:00.000Z</time>
      </trkpt>
      <trkpt lat="43.49376" lon="6.64856">
        <ele>49.9</ele>
        <time>2025-10-28T07:23:01.000Z</time>
      </trkpt>
      <trkpt lat="43.49379" lon="6.64854">
        <ele>50</ele>
        <time>2025-10-28T07:23:02.000Z</time>
      </trkpt>
      <trkpt lat="43.49383" lon="6.64852">
        <ele>50.1</ele>
        <time>2025-10-28T07:23:03.000Z</time>
      </trkpt>
      <trkpt lat="43.49387" lon="6.64849">
        <ele>50.3</ele>
        <time>2025-10-28T07:23:04.000Z</time>
      </trkpt>
      <trkpt lat="43.4939" lon="6.64846">
        <ele>50.4</ele>
        <time>2025-10-28T07:23:05.000Z</time>
      </trkpt>
      <trkpt lat="43.49394" lon="6.64842">
        <ele>50.6</ele>
        <time>2025-10-28T07:23:06.000Z</time>
      </trkpt>
      <trkpt lat="43.49397" lon="6.64839">
        <ele>50.7</ele>
        <time>2025-10-28T07:23:07.000Z</time>
      </trkpt>
      <trkpt lat="43.494" lon="6.64834">
        <ele>50.9</ele>
        <time>2025-10-28T07:23:08.000Z</time>
      </trkpt>
      <trkpt lat="43.49402" lon="6.6483">
        <ele>51</ele>
        <time>2025-10-28T07:23:09.000Z</time>
      </trkpt>
      <trkpt lat="43.49404" lon="6.64825">
        <ele>51.2</ele>
        <time>2025-10-28T07:23:10.000Z</time>
      </trkpt>
      <trkpt lat="43.49405" lon="6.64819">
        <ele>51.4</ele>
        <time>2025-10-28T07:23:11.000Z</time>
      </trkpt>
      <trkpt lat="43.49406" lon="6.64815">
        <ele>51.5</ele>
        <time>2025-10-28T07:23:12.000Z</time>
      </trkpt>
      <trkpt lat="43.49406" lon="6.6481">
        <ele>51.7</ele>
        <time>2025-10-28T07:23:13.000Z</time>
      </trkpt>
      <trkpt lat="43.49406" lon="6.64803">
        <ele>51.9</ele>
        <time>2025-10-28T07:23:14.000Z</time>
      </trkpt>
      <trkpt lat="43.49406" lon="6.64798">
        <ele>52.1</ele>
        <time>2025-10-28T07:23:15.000Z</time>
      </trkpt>
      <trkpt lat="43.49407" lon="6.64792">
        <ele>52.2</ele>
        <time>2025-10-28T07:23:16.000Z</time>
      </trkpt>
      <trkpt lat="43.49409" lon="6.64788">
        <ele>52.6</ele>
        <time>2025-10-28T07:23:17.000Z</time>
      </trkpt>
      <trkpt lat="43.4941" lon="6.64783">
        <ele>52.8</ele>
        <time>2025-10-28T07:23:18.000Z</time>
      </trkpt>
      <trkpt lat="43.49413" lon="6.64779">
        <ele>52.9</ele>
        <time>2025-10-28T07:23:19.000Z</time>
      </trkpt>
      <trkpt lat="43.49415" lon="6.64776">
        <ele>53.1</ele>
        <time>2025-10-28T07:23:20.000Z</time>
      </trkpt>
      <trkpt lat="43.49418" lon="6.64773">
        <ele>53.2</ele>
        <time>2025-10-28T07:23:21.000Z</time>
      </trkpt>
      <trkpt lat="43.49421" lon="6.64771">
        <ele>53.4</ele>
        <time>2025-10-28T07:23:22.000Z</time>
      </trkpt>
      <trkpt lat="43.49424" lon="6.64768">
        <ele>53.5</ele>
        <time>2025-10-28T07:23:23.000Z</time>
      </trkpt>
      <trkpt lat="43.49427" lon="6.64765">
        <ele>53.6</ele>
        <time>2025-10-28T07:23:24.000Z</time>
      </trkpt>
      <trkpt lat="43.4943" lon="6.64763">
        <ele>53.6</ele>
        <time>2025-10-28T07:23:25.000Z</time>
      </trkpt>
      <trkpt lat="43.49433" lon="6.6476">
        <ele>53.7</ele>
        <time>2025-10-28T07:23:26.000Z</time>
      </trkpt>
      <trkpt lat="43.49437" lon="6.64758">
        <ele>53.7</ele>
        <time>2025-10-28T07:23:27.000Z</time>
      </trkpt>
      <trkpt lat="43.4944" lon="6.64755">
        <ele>53.7</ele>
        <time>2025-10-28T07:23:28.000Z</time>
      </trkpt>
      <trkpt lat="43.49443" lon="6.64753">
        <ele>53.6</ele>
        <time>2025-10-28T07:23:29.000Z</time>
      </trkpt>
      <trkpt lat="43.49446" lon="6.6475">
        <ele>53.6</ele>
        <time>2025-10-28T07:23:30.000Z</time>
      </trkpt>
      <trkpt lat="43.4945" lon="6.64747">
        <ele>53.5</ele>
        <time>2025-10-28T07:23:31.000Z</time>
      </trkpt>
      <trkpt lat="43.49453" lon="6.64745">
        <ele>53.5</ele>
        <time>2025-10-28T07:23:32.000Z</time>
      </trkpt>
      <trkpt lat="43.49457" lon="6.64742">
        <ele>53.4</ele>
        <time>2025-10-28T07:23:33.000Z</time>
      </trkpt>
      <trkpt lat="43.49461" lon="6.64739">
        <ele>53.4</ele>
        <time>2025-10-28T07:23:34.000Z</time>
      </trkpt>
      <trkpt lat="43.49464" lon="6.64735">
        <ele>53.5</ele>
        <time>2025-10-28T07:23:35.000Z</time>
      </trkpt>
      <trkpt lat="43.49468" lon="6.64731">
        <ele>53.5</ele>
        <time>2025-10-28T07:23:36.000Z</time>
      </trkpt>
      <trkpt lat="43.49471" lon="6.64727">
        <ele>53.7</ele>
        <time>2025-10-28T07:23:37.000Z</time>
      </trkpt>
      <trkpt lat="43.49473" lon="6.64723">
        <ele>53.9</ele>
        <time>2025-10-28T07:23:38.000Z</time>
      </trkpt>
      <trkpt lat="43.49476" lon="6.64719">
        <ele>54.1</ele>
        <time>2025-10-28T07:23:39.000Z</time>
      </trkpt>
      <trkpt lat="43.49478" lon="6.64715">
        <ele>54.2</ele>
        <time>2025-10-28T07:23:40.000Z</time>
      </trkpt>
      <trkpt lat="43.4948" lon="6.64712">
        <ele>54.4</ele>
        <time>2025-10-28T07:23:41.000Z</time>
      </trkpt>
      <trkpt lat="43.49482" lon="6.64708">
        <ele>54.6</ele>
        <time>2025-10-28T07:23:42.000Z</time>
      </trkpt>
      <trkpt lat="43.49484" lon="6.64703">
        <ele>54.8</ele>
        <time>2025-10-28T07:23:43.000Z</time>
      </trkpt>
      <trkpt lat="43.49486" lon="6.64699">
        <ele>55</ele>
        <time>2025-10-28T07:23:44.000Z</time>
      </trkpt>
      <trkpt lat="43.49488" lon="6.64694">
        <ele>55.2</ele>
        <time>2025-10-28T07:23:45.000Z</time>
      </trkpt>
      <trkpt lat="43.4949" lon="6.64689">
        <ele>55.4</ele>
        <time>2025-10-28T07:23:46.000Z</time>
      </trkpt>
      <trkpt lat="43.49492" lon="6.64685">
        <ele>55.6</ele>
        <time>2025-10-28T07:23:47.000Z</time>
      </trkpt>
      <trkpt lat="43.49494" lon="6.64681">
        <ele>55.8</ele>
        <time>2025-10-28T07:23:48.000Z</time>
      </trkpt>
      <trkpt lat="43.49496" lon="6.64676">
        <ele>56</ele>
        <time>2025-10-28T07:23:49.000Z</time>
      </trkpt>
      <trkpt lat="43.49498" lon="6.64672">
        <ele>56.3</ele>
        <time>2025-10-28T07:23:50.000Z</time>
      </trkpt>
      <trkpt lat="43.495" lon="6.64667">
        <ele>56.6</ele>
        <time>2025-10-28T07:23:51.000Z</time>
      </trkpt>
      <trkpt lat="43.49502" lon="6.64663">
        <ele>56.9</ele>
        <time>2025-10-28T07:23:52.000Z</time>
      </trkpt>
      <trkpt lat="43.49503" lon="6.64658">
        <ele>57.1</ele>
        <time>2025-10-28T07:23:53.000Z</time>
      </trkpt>
      <trkpt lat="43.49503" lon="6.64653">
        <ele>57.4</ele>
        <time>2025-10-28T07:23:54.000Z</time>
      </trkpt>
      <trkpt lat="43.49503" lon="6.64647">
        <ele>57.7</ele>
        <time>2025-10-28T07:23:55.000Z</time>
      </trkpt>
      <trkpt lat="43.49503" lon="6.64642">
        <ele>57.9</ele>
        <time>2025-10-28T07:23:56.000Z</time>
      </trkpt>
      <trkpt lat="43.49502" lon="6.64636">
        <ele>58.1</ele>
        <time>2025-10-28T07:23:57.000Z</time>
      </trkpt>
      <trkpt lat="43.495" lon="6.64631">
        <ele>58.3</ele>
        <time>2025-10-28T07:23:58.000Z</time>
      </trkpt>
      <trkpt lat="43.49498" lon="6.64626">
        <ele>58.4</ele>
        <time>2025-10-28T07:23:59.000Z</time>
      </trkpt>
      <trkpt lat="43.49497" lon="6.6462">
        <ele>58.4</ele>
        <time>2025-10-28T07:24:00.000Z</time>
      </trkpt>
      <trkpt lat="43.49495" lon="6.64615">
        <ele>58.4</ele>
        <time>2025-10-28T07:24:01.000Z</time>
      </trkpt>
      <trkpt lat="43.49494" lon="6.6461">
        <ele>58.4</ele>
        <time>2025-10-28T07:24:02.000Z</time>
      </trkpt>
      <trkpt lat="43.49492" lon="6.64605">
        <ele>58.4</ele>
        <time>2025-10-28T07:24:03.000Z</time>
      </trkpt>
      <trkpt lat="43.4949" lon="6.646">
        <ele>58.4</ele>
        <time>2025-10-28T07:24:04.000Z</time>
      </trkpt>
      <trkpt lat="43.49489" lon="6.64595">
        <ele>58.4</ele>
        <time>2025-10-28T07:24:05.000Z</time>
      </trkpt>
      <trkpt lat="43.49488" lon="6.6459">
        <ele>58.4</ele>
        <time>2025-10-28T07:24:06.000Z</time>
      </trkpt>
      <trkpt lat="43.49487" lon="6.64585">
        <ele>58.4</ele>
        <time>2025-10-28T07:24:07.000Z</time>
      </trkpt>
      <trkpt lat="43.49487" lon="6.64579">
        <ele>58.5</ele>
        <time>2025-10-28T07:24:08.000Z</time>
      </trkpt>
      <trkpt lat="43.49488" lon="6.64574">
        <ele>58.5</ele>
        <time>2025-10-28T07:24:09.000Z</time>
      </trkpt>
      <trkpt lat="43.4949" lon="6.64568">
        <ele>58.6</ele>
        <time>2025-10-28T07:24:10.000Z</time>
      </trkpt>
      <trkpt lat="43.49492" lon="6.64563">
        <ele>58.7</ele>
        <time>2025-10-28T07:24:11.000Z</time>
      </trkpt>
      <trkpt lat="43.49495" lon="6.64559">
        <ele>58.8</ele>
        <time>2025-10-28T07:24:12.000Z</time>
      </trkpt>
      <trkpt lat="43.49498" lon="6.64555">
        <ele>58.9</ele>
        <time>2025-10-28T07:24:13.000Z</time>
      </trkpt>
      <trkpt lat="43.495" lon="6.64552">
        <ele>59.1</ele>
        <time>2025-10-28T07:24:14.000Z</time>
      </trkpt>
      <trkpt lat="43.49503" lon="6.64548">
        <ele>59.2</ele>
        <time>2025-10-28T07:24:15.000Z</time>
      </trkpt>
      <trkpt lat="43.49506" lon="6.64545">
        <ele>59.4</ele>
        <time>2025-10-28T07:24:16.000Z</time>
      </trkpt>
      <trkpt lat="43.49509" lon="6.64542">
        <ele>59.6</ele>
        <time>2025-10-28T07:24:17.000Z</time>
      </trkpt>
      <trkpt lat="43.49512" lon="6.64538">
        <ele>59.9</ele>
        <time>2025-10-28T07:24:18.000Z</time>
      </trkpt>
      <trkpt lat="43.49515" lon="6.64535">
        <ele>60.2</ele>
        <time>2025-10-28T07:24:19.000Z</time>
      </trkpt>
      <trkpt lat="43.49518" lon="6.64532">
        <ele>60.5</ele>
        <time>2025-10-28T07:24:20.000Z</time>
      </trkpt>
      <trkpt lat="43.49521" lon="6.64529">
        <ele>60.8</ele>
        <time>2025-10-28T07:24:21.000Z</time>
      </trkpt>
      <trkpt lat="43.49524" lon="6.64527">
        <ele>61.2</ele>
        <time>2025-10-28T07:24:22.000Z</time>
      </trkpt>
      <trkpt lat="43.49527" lon="6.64524">
        <ele>61.6</ele>
        <time>2025-10-28T07:24:23.000Z</time>
      </trkpt>
      <trkpt lat="43.49531" lon="6.64523">
        <ele>62</ele>
        <time>2025-10-28T07:24:24.000Z</time>
      </trkpt>
      <trkpt lat="43.49535" lon="6.64523">
        <ele>62.5</ele>
        <time>2025-10-28T07:24:25.000Z</time>
      </trkpt>
      <trkpt lat="43.49538" lon="6.64522">
        <ele>63</ele>
        <time>2025-10-28T07:24:26.000Z</time>
      </trkpt>
      <trkpt lat="43.49542" lon="6.64522">
        <ele>63.5</ele>
        <time>2025-10-28T07:24:27.000Z</time>
      </trkpt>
      <trkpt lat="43.49546" lon="6.64522">
        <ele>64</ele>
        <time>2025-10-28T07:24:28.000Z</time>
      </trkpt>
      <trkpt lat="43.4955" lon="6.64523">
        <ele>64.5</ele>
        <time>2025-10-28T07:24:29.000Z</time>
      </trkpt>
      <trkpt lat="43.49553" lon="6.64523">
        <ele>64.9</ele>
        <time>2025-10-28T07:24:30.000Z</time>
      </trkpt>
      <trkpt lat="43.49557" lon="6.64523">
        <ele>65.3</ele>
        <time>2025-10-28T07:24:31.000Z</time>
      </trkpt>
      <trkpt lat="43.4956" lon="6.64523">
        <ele>65.7</ele>
        <time>2025-10-28T07:24:32.000Z</time>
      </trkpt>
      <trkpt lat="43.49563" lon="6.64523">
        <ele>66</ele>
        <time>2025-10-28T07:24:33.000Z</time>
      </trkpt>
      <trkpt lat="43.49566" lon="6.6452">
        <ele>66.2</ele>
        <time>2025-10-28T07:24:34.000Z</time>
      </trkpt>
      <trkpt lat="43.49568" lon="6.64516">
        <ele>66</ele>
        <time>2025-10-28T07:24:35.000Z</time>
      </trkpt>
      <trkpt lat="43.4957" lon="6.64511">
        <ele>65.9</ele>
        <time>2025-10-28T07:24:36.000Z</time>
      </trkpt>
      <trkpt lat="43.49571" lon="6.64504">
        <ele>65.7</ele>
        <time>2025-10-28T07:24:37.000Z</time>
      </trkpt>
      <trkpt lat="43.49572" lon="6.64498">
        <ele>65.5</ele>
        <time>2025-10-28T07:24:38.000Z</time>
      </trkpt>
      <trkpt lat="43.49574" lon="6.64491">
        <ele>65.3</ele>
        <time>2025-10-28T07:24:39.000Z</time>
      </trkpt>
      <trkpt lat="43.49575" lon="6.64483">
        <ele>65.2</ele>
        <time>2025-10-28T07:24:40.000Z</time>
      </trkpt>
      <trkpt lat="43.49577" lon="6.64477">
        <ele>65.1</ele>
        <time>2025-10-28T07:24:41.000Z</time>
      </trkpt>
      <trkpt lat="43.49578" lon="6.64469">
        <ele>65.2</ele>
        <time>2025-10-28T07:24:42.000Z</time>
      </trkpt>
      <trkpt lat="43.49579" lon="6.64461">
        <ele>65.4</ele>
        <time>2025-10-28T07:24:43.000Z</time>
      </trkpt>
      <trkpt lat="43.4958" lon="6.64455">
        <ele>65.6</ele>
        <time>2025-10-28T07:24:44.000Z</time>
      </trkpt>
      <trkpt lat="43.49581" lon="6.64449">
        <ele>65.9</ele>
        <time>2025-10-28T07:24:45.000Z</time>
      </trkpt>
      <trkpt lat="43.49581" lon="6.64444">
        <ele>66.2</ele>
        <time>2025-10-28T07:24:46.000Z</time>
      </trkpt>
      <trkpt lat="43.49581" lon="6.64437">
        <ele>66.5</ele>
        <time>2025-10-28T07:24:47.000Z</time>
      </trkpt>
      <trkpt lat="43.49581" lon="6.6443">
        <ele>66.9</ele>
        <time>2025-10-28T07:24:48.000Z</time>
      </trkpt>
      <trkpt lat="43.49581" lon="6.64424">
        <ele>67.2</ele>
        <time>2025-10-28T07:24:49.000Z</time>
      </trkpt>
      <trkpt lat="43.4958" lon="6.64418">
        <ele>67.5</ele>
        <time>2025-10-28T07:24:50.000Z</time>
      </trkpt>
      <trkpt lat="43.49579" lon="6.64412">
        <ele>67.8</ele>
        <time>2025-10-28T07:24:51.000Z</time>
      </trkpt>
      <trkpt lat="43.49578" lon="6.64408">
        <ele>67.9</ele>
        <time>2025-10-28T07:24:52.000Z</time>
      </trkpt>
      <trkpt lat="43.49576" lon="6.64401">
        <ele>68.1</ele>
        <time>2025-10-28T07:24:53.000Z</time>
      </trkpt>
      <trkpt lat="43.49574" lon="6.64396">
        <ele>68.1</ele>
        <time>2025-10-28T07:24:54.000Z</time>
      </trkpt>
      <trkpt lat="43.49572" lon="6.64392">
        <ele>68.1</ele>
        <time>2025-10-28T07:24:55.000Z</time>
      </trkpt>
      <trkpt lat="43.49569" lon="6.64387">
        <ele>68.1</ele>
        <time>2025-10-28T07:24:56.000Z</time>
      </trkpt>
      <trkpt lat="43.49566" lon="6.64381">
        <ele>68</ele>
        <time>2025-10-28T07:24:57.000Z</time>
      </trkpt>
      <trkpt lat="43.49562" lon="6.64376">
        <ele>67.9</ele>
        <time>2025-10-28T07:24:58.000Z</time>
      </trkpt>
      <trkpt lat="43.49558" lon="6.64371">
        <ele>67.8</ele>
        <time>2025-10-28T07:24:59.000Z</time>
      </trkpt>
      <trkpt lat="43.49555" lon="6.64367">
        <ele>67.9</ele>
        <time>2025-10-28T07:25:00.000Z</time>
      </trkpt>
      <trkpt lat="43.49552" lon="6.64362">
        <ele>68</ele>
        <time>2025-10-28T07:25:01.000Z</time>
      </trkpt>
      <trkpt lat="43.49548" lon="6.64357">
        <ele>68.2</ele>
        <time>2025-10-28T07:25:02.000Z</time>
      </trkpt>
      <trkpt lat="43.49543" lon="6.64352">
        <ele>68.5</ele>
        <time>2025-10-28T07:25:03.000Z</time>
      </trkpt>
      <trkpt lat="43.49539" lon="6.64348">
        <ele>68.9</ele>
        <time>2025-10-28T07:25:04.000Z</time>
      </trkpt>
      <trkpt lat="43.49535" lon="6.64344">
        <ele>69.2</ele>
        <time>2025-10-28T07:25:05.000Z</time>
      </trkpt>
      <trkpt lat="43.49531" lon="6.6434">
        <ele>69.5</ele>
        <time>2025-10-28T07:25:06.000Z</time>
      </trkpt>
      <trkpt lat="43.49527" lon="6.64336">
        <ele>69.8</ele>
        <time>2025-10-28T07:25:07.000Z</time>
      </trkpt>
      <trkpt lat="43.49524" lon="6.64331">
        <ele>70</ele>
        <time>2025-10-28T07:25:08.000Z</time>
      </trkpt>
      <trkpt lat="43.49521" lon="6.64326">
        <ele>70.3</ele>
        <time>2025-10-28T07:25:09.000Z</time>
      </trkpt>
      <trkpt lat="43.49518" lon="6.64321">
        <ele>70.5</ele>
        <time>2025-10-28T07:25:10.000Z</time>
      </trkpt>
      <trkpt lat="43.49516" lon="6.64315">
        <ele>70.6</ele>
        <time>2025-10-28T07:25:11.000Z</time>
      </trkpt>
      <trkpt lat="43.49513" lon="6.64309">
        <ele>70.7</ele>
        <time>2025-10-28T07:25:12.000Z</time>
      </trkpt>
      <trkpt lat="43.49512" lon="6.64303">
        <ele>70.8</ele>
        <time>2025-10-28T07:25:13.000Z</time>
      </trkpt>
      <trkpt lat="43.49511" lon="6.64296">
        <ele>70.8</ele>
        <time>2025-10-28T07:25:14.000Z</time>
      </trkpt>
      <trkpt lat="43.49511" lon="6.64289">
        <ele>70.7</ele>
        <time>2025-10-28T07:25:15.000Z</time>
      </trkpt>
      <trkpt lat="43.4951" lon="6.64282">
        <ele>70.5</ele>
        <time>2025-10-28T07:25:16.000Z</time>
      </trkpt>
      <trkpt lat="43.49511" lon="6.64274">
        <ele>70.3</ele>
        <time>2025-10-28T07:25:17.000Z</time>
      </trkpt>
      <trkpt lat="43.49512" lon="6.64266">
        <ele>70.1</ele>
        <time>2025-10-28T07:25:18.000Z</time>
      </trkpt>
      <trkpt lat="43.49514" lon="6.64259">
        <ele>69.9</ele>
        <time>2025-10-28T07:25:19.000Z</time>
      </trkpt>
      <trkpt lat="43.49517" lon="6.64253">
        <ele>69.7</ele>
        <time>2025-10-28T07:25:20.000Z</time>
      </trkpt>
      <trkpt lat="43.49521" lon="6.64247">
        <ele>69.5</ele>
        <time>2025-10-28T07:25:21.000Z</time>
      </trkpt>
      <trkpt lat="43.49525" lon="6.64242">
        <ele>69.2</ele>
        <time>2025-10-28T07:25:22.000Z</time>
      </trkpt>
      <trkpt lat="43.4953" lon="6.64237">
        <ele>69</ele>
        <time>2025-10-28T07:25:23.000Z</time>
      </trkpt>
      <trkpt lat="43.49535" lon="6.64233">
        <ele>68.8</ele>
        <time>2025-10-28T07:25:24.000Z</time>
      </trkpt>
      <trkpt lat="43.4954" lon="6.64228">
        <ele>68.5</ele>
        <time>2025-10-28T07:25:25.000Z</time>
      </trkpt>
      <trkpt lat="43.49545" lon="6.64223">
        <ele>68.2</ele>
        <time>2025-10-28T07:25:26.000Z</time>
      </trkpt>
      <trkpt lat="43.49549" lon="6.64217">
        <ele>67.9</ele>
        <time>2025-10-28T07:25:27.000Z</time>
      </trkpt>
      <trkpt lat="43.49553" lon="6.64211">
        <ele>67.6</ele>
        <time>2025-10-28T07:25:28.000Z</time>
      </trkpt>
      <trkpt lat="43.49556" lon="6.64203">
        <ele>67.3</ele>
        <time>2025-10-28T07:25:29.000Z</time>
      </trkpt>
      <trkpt lat="43.49558" lon="6.64196">
        <ele>67</ele>
        <time>2025-10-28T07:25:30.000Z</time>
      </trkpt>
      <trkpt lat="43.49561" lon="6.64187">
        <ele>66.6</ele>
        <time>2025-10-28T07:25:31.000Z</time>
      </trkpt>
      <trkpt lat="43.49563" lon="6.64179">
        <ele>66.2</ele>
        <time>2025-10-28T07:25:32.000Z</time>
      </trkpt>
      <trkpt lat="43.49565" lon="6.6417">
        <ele>65.9</ele>
        <time>2025-10-28T07:25:33.000Z</time>
      </trkpt>
      <trkpt lat="43.49566" lon="6.64161">
        <ele>65.6</ele>
        <time>2025-10-28T07:25:34.000Z</time>
      </trkpt>
      <trkpt lat="43.49568" lon="6.64152">
        <ele>65.3</ele>
        <time>2025-10-28T07:25:35.000Z</time>
      </trkpt>
      <trkpt lat="43.4957" lon="6.64144">
        <ele>65.1</ele>
        <time>2025-10-28T07:25:36.000Z</time>
      </trkpt>
      <trkpt lat="43.49572" lon="6.64136">
        <ele>65</ele>
        <time>2025-10-28T07:25:37.000Z</time>
      </trkpt>
      <trkpt lat="43.49575" lon="6.64128">
        <ele>64.8</ele>
        <time>2025-10-28T07:25:38.000Z</time>
      </trkpt>
      <trkpt lat="43.49579" lon="6.64122">
        <ele>64.6</ele>
        <time>2025-10-28T07:25:39.000Z</time>
      </trkpt>
      <trkpt lat="43.49584" lon="6.64115">
        <ele>64.4</ele>
        <time>2025-10-28T07:25:40.000Z</time>
      </trkpt>
      <trkpt lat="43.49589" lon="6.64111">
        <ele>64.4</ele>
        <time>2025-10-28T07:25:41.000Z</time>
      </trkpt>
      <trkpt lat="43.49595" lon="6.64107">
        <ele>64.4</ele>
        <time>2025-10-28T07:25:42.000Z</time>
      </trkpt>
      <trkpt lat="43.49602" lon="6.64105">
        <ele>64.4</ele>
        <time>2025-10-28T07:25:43.000Z</time>
      </trkpt>
      <trkpt lat="43.49608" lon="6.64104">
        <ele>64.4</ele>
        <time>2025-10-28T07:25:44.000Z</time>
      </trkpt>
      <trkpt lat="43.49614" lon="6.64104">
        <ele>64.4</ele>
        <time>2025-10-28T07:25:45.000Z</time>
      </trkpt>
      <trkpt lat="43.4962" lon="6.64105">
        <ele>64.4</ele>
        <time>2025-10-28T07:25:46.000Z</time>
      </trkpt>
      <trkpt lat="43.49626" lon="6.64106">
        <ele>64.4</ele>
        <time>2025-10-28T07:25:47.000Z</time>
      </trkpt>
      <trkpt lat="43.49632" lon="6.64109">
        <ele>64.4</ele>
        <time>2025-10-28T07:25:48.000Z</time>
      </trkpt>
      <trkpt lat="43.49638" lon="6.64111">
        <ele>64.4</ele>
        <time>2025-10-28T07:25:49.000Z</time>
      </trkpt>
      <trkpt lat="43.49644" lon="6.64114">
        <ele>64.4</ele>
        <time>2025-10-28T07:25:50.000Z</time>
      </trkpt>
      <trkpt lat="43.4965" lon="6.64118">
        <ele>64.4</ele>
        <time>2025-10-28T07:25:51.000Z</time>
      </trkpt>
      <trkpt lat="43.49656" lon="6.64122">
        <ele>64.3</ele>
        <time>2025-10-28T07:25:52.000Z</time>
      </trkpt>
      <trkpt lat="43.49662" lon="6.64126">
        <ele>64.3</ele>
        <time>2025-10-28T07:25:53.000Z</time>
      </trkpt>
      <trkpt lat="43.49667" lon="6.64131">
        <ele>64.3</ele>
        <time>2025-10-28T07:25:54.000Z</time>
      </trkpt>
      <trkpt lat="43.49672" lon="6.64135">
        <ele>64.3</ele>
        <time>2025-10-28T07:25:55.000Z</time>
      </trkpt>
      <trkpt lat="43.49677" lon="6.64139">
        <ele>64.3</ele>
        <time>2025-10-28T07:25:56.000Z</time>
      </trkpt>
      <trkpt lat="43.49681" lon="6.64142">
        <ele>64.3</ele>
        <time>2025-10-28T07:25:57.000Z</time>
      </trkpt>
      <trkpt lat="43.49686" lon="6.64146">
        <ele>64.3</ele>
        <time>2025-10-28T07:25:58.000Z</time>
      </trkpt>
      <trkpt lat="43.4969" lon="6.64151">
        <ele>64.3</ele>
        <time>2025-10-28T07:25:59.000Z</time>
      </trkpt>
      <trkpt lat="43.49694" lon="6.64156">
        <ele>64.3</ele>
        <time>2025-10-28T07:26:00.000Z</time>
      </trkpt>
      <trkpt lat="43.49698" lon="6.6416">
        <ele>64.2</ele>
        <time>2025-10-28T07:26:01.000Z</time>
      </trkpt>
      <trkpt lat="43.49703" lon="6.64165">
        <ele>64.2</ele>
        <time>2025-10-28T07:26:02.000Z</time>
      </trkpt>
      <trkpt lat="43.49707" lon="6.6417">
        <ele>64.2</ele>
        <time>2025-10-28T07:26:03.000Z</time>
      </trkpt>
      <trkpt lat="43.49711" lon="6.64174">
        <ele>64.2</ele>
        <time>2025-10-28T07:26:04.000Z</time>
      </trkpt>
      <trkpt lat="43.49714" lon="6.64179">
        <ele>64.2</ele>
        <time>2025-10-28T07:26:05.000Z</time>
      </trkpt>
      <trkpt lat="43.49718" lon="6.64183">
        <ele>64.1</ele>
        <time>2025-10-28T07:26:06.000Z</time>
      </trkpt>
      <trkpt lat="43.49722" lon="6.64187">
        <ele>64.1</ele>
        <time>2025-10-28T07:26:07.000Z</time>
      </trkpt>
      <trkpt lat="43.49726" lon="6.6419">
        <ele>64.1</ele>
        <time>2025-10-28T07:26:08.000Z</time>
      </trkpt>
      <trkpt lat="43.4973" lon="6.64194">
        <ele>64.2</ele>
        <time>2025-10-28T07:26:09.000Z</time>
      </trkpt>
      <trkpt lat="43.49734" lon="6.64198">
        <ele>64.2</ele>
        <time>2025-10-28T07:26:10.000Z</time>
      </trkpt>
      <trkpt lat="43.49737" lon="6.64203">
        <ele>64.2</ele>
        <time>2025-10-28T07:26:11.000Z</time>
      </trkpt>
      <trkpt lat="43.49741" lon="6.64206">
        <ele>64.2</ele>
        <time>2025-10-28T07:26:12.000Z</time>
      </trkpt>
      <trkpt lat="43.49745" lon="6.6421">
        <ele>64.3</ele>
        <time>2025-10-28T07:26:13.000Z</time>
      </trkpt>
      <trkpt lat="43.49749" lon="6.64214">
        <ele>64.3</ele>
        <time>2025-10-28T07:26:14.000Z</time>
      </trkpt>
      <trkpt lat="43.49752" lon="6.64217">
        <ele>64.4</ele>
        <time>2025-10-28T07:26:15.000Z</time>
      </trkpt>
      <trkpt lat="43.49756" lon="6.64221">
        <ele>64.4</ele>
        <time>2025-10-28T07:26:16.000Z</time>
      </trkpt>
      <trkpt lat="43.4976" lon="6.64225">
        <ele>64.5</ele>
        <time>2025-10-28T07:26:17.000Z</time>
      </trkpt>
      <trkpt lat="43.49764" lon="6.64229">
        <ele>64.5</ele>
        <time>2025-10-28T07:26:18.000Z</time>
      </trkpt>
      <trkpt lat="43.49769" lon="6.64233">
        <ele>64.6</ele>
        <time>2025-10-28T07:26:19.000Z</time>
      </trkpt>
      <trkpt lat="43.49772" lon="6.64236">
        <ele>64.6</ele>
        <time>2025-10-28T07:26:20.000Z</time>
      </trkpt>
      <trkpt lat="43.49776" lon="6.6424">
        <ele>64.7</ele>
        <time>2025-10-28T07:26:21.000Z</time>
      </trkpt>
      <trkpt lat="43.4978" lon="6.64244">
        <ele>64.8</ele>
        <time>2025-10-28T07:26:22.000Z</time>
      </trkpt>
      <trkpt lat="43.49783" lon="6.64248">
        <ele>64.8</ele>
        <time>2025-10-28T07:26:23.000Z</time>
      </trkpt>
      <trkpt lat="43.49788" lon="6.64252">
        <ele>64.9</ele>
        <time>2025-10-28T07:26:24.000Z</time>
      </trkpt>
      <trkpt lat="43.4979" lon="6.64255">
        <ele>65</ele>
        <time>2025-10-28T07:26:25.000Z</time>
      </trkpt>
      <trkpt lat="43.49794" lon="6.64259">
        <ele>65</ele>
        <time>2025-10-28T07:26:26.000Z</time>
      </trkpt>
      <trkpt lat="43.49799" lon="6.64263">
        <ele>65.1</ele>
        <time>2025-10-28T07:26:27.000Z</time>
      </trkpt>
      <trkpt lat="43.49802" lon="6.64267">
        <ele>65.2</ele>
        <time>2025-10-28T07:26:28.000Z</time>
      </trkpt>
      <trkpt lat="43.49806" lon="6.64271">
        <ele>65.3</ele>
        <time>2025-10-28T07:26:29.000Z</time>
      </trkpt>
      <trkpt lat="43.4981" lon="6.64275">
        <ele>65.3</ele>
        <time>2025-10-28T07:26:30.000Z</time>
      </trkpt>
      <trkpt lat="43.49814" lon="6.64278">
        <ele>65.4</ele>
        <time>2025-10-28T07:26:31.000Z</time>
      </trkpt>
      <trkpt lat="43.4982" lon="6.64282">
        <ele>65.5</ele>
        <time>2025-10-28T07:26:32.000Z</time>
      </trkpt>
      <trkpt lat="43.49825" lon="6.64285">
        <ele>65.6</ele>
        <time>2025-10-28T07:26:33.000Z</time>
      </trkpt>
      <trkpt lat="43.4983" lon="6.64288">
        <ele>65.7</ele>
        <time>2025-10-28T07:26:34.000Z</time>
      </trkpt>
      <trkpt lat="43.49836" lon="6.64292">
        <ele>65.8</ele>
        <time>2025-10-28T07:26:35.000Z</time>
      </trkpt>
      <trkpt lat="43.49842" lon="6.64296">
        <ele>65.9</ele>
        <time>2025-10-28T07:26:36.000Z</time>
      </trkpt>
      <trkpt lat="43.49848" lon="6.643">
        <ele>66</ele>
        <time>2025-10-28T07:26:37.000Z</time>
      </trkpt>
      <trkpt lat="43.49854" lon="6.64304">
        <ele>66.1</ele>
        <time>2025-10-28T07:26:38.000Z</time>
      </trkpt>
      <trkpt lat="43.49859" lon="6.64308">
        <ele>66.2</ele>
        <time>2025-10-28T07:26:39.000Z</time>
      </trkpt>
      <trkpt lat="43.49865" lon="6.64312">
        <ele>66.4</ele>
        <time>2025-10-28T07:26:40.000Z</time>
      </trkpt>
      <trkpt lat="43.49871" lon="6.64315">
        <ele>66.5</ele>
        <time>2025-10-28T07:26:41.000Z</time>
      </trkpt>
      <trkpt lat="43.49877" lon="6.64318">
        <ele>66.6</ele>
        <time>2025-10-28T07:26:42.000Z</time>
      </trkpt>
      <trkpt lat="43.49883" lon="6.6432">
        <ele>66.7</ele>
        <time>2025-10-28T07:26:43.000Z</time>
      </trkpt>
      <trkpt lat="43.49888" lon="6.64323">
        <ele>66.8</ele>
        <time>2025-10-28T07:26:44.000Z</time>
      </trkpt>
      <trkpt lat="43.49894" lon="6.64325">
        <ele>66.9</ele>
        <time>2025-10-28T07:26:45.000Z</time>
      </trkpt>
      <trkpt lat="43.499" lon="6.64327">
        <ele>67</ele>
        <time>2025-10-28T07:26:46.000Z</time>
      </trkpt>
      <trkpt lat="43.49906" lon="6.6433">
        <ele>67</ele>
        <time>2025-10-28T07:26:47.000Z</time>
      </trkpt>
      <trkpt lat="43.49913" lon="6.64332">
        <ele>67.1</ele>
        <time>2025-10-28T07:26:48.000Z</time>
      </trkpt>
      <trkpt lat="43.49919" lon="6.64335">
        <ele>67.3</ele>
        <time>2025-10-28T07:26:49.000Z</time>
      </trkpt>
      <trkpt lat="43.49925" lon="6.64337">
        <ele>67.4</ele>
        <time>2025-10-28T07:26:50.000Z</time>
      </trkpt>
      <trkpt lat="43.49931" lon="6.6434">
        <ele>67.6</ele>
        <time>2025-10-28T07:26:51.000Z</time>
      </trkpt>
      <trkpt lat="43.49937" lon="6.64343">
        <ele>67.8</ele>
        <time>2025-10-28T07:26:52.000Z</time>
      </trkpt>
      <trkpt lat="43.49942" lon="6.64347">
        <ele>68</ele>
        <time>2025-10-28T07:26:53.000Z</time>
      </trkpt>
      <trkpt lat="43.49948" lon="6.6435">
        <ele>68.2</ele>
        <time>2025-10-28T07:26:54.000Z</time>
      </trkpt>
      <trkpt lat="43.49954" lon="6.64352">
        <ele>68.5</ele>
        <time>2025-10-28T07:26:55.000Z</time>
      </trkpt>
      <trkpt lat="43.4996" lon="6.64355">
        <ele>68.7</ele>
        <time>2025-10-28T07:26:56.000Z</time>
      </trkpt>
      <trkpt lat="43.49966" lon="6.64357">
        <ele>69</ele>
        <time>2025-10-28T07:26:57.000Z</time>
      </trkpt>
      <trkpt lat="43.49972" lon="6.64359">
        <ele>69.3</ele>
        <time>2025-10-28T07:26:58.000Z</time>
      </trkpt>
      <trkpt lat="43.49979" lon="6.6436">
        <ele>69.5</ele>
        <time>2025-10-28T07:26:59.000Z</time>
      </trkpt>
      <trkpt lat="43.49985" lon="6.64362">
        <ele>69.9</ele>
        <time>2025-10-28T07:27:00.000Z</time>
      </trkpt>
      <trkpt lat="43.49991" lon="6.64364">
        <ele>70.1</ele>
        <time>2025-10-28T07:27:01.000Z</time>
      </trkpt>
      <trkpt lat="43.49997" lon="6.64366">
        <ele>70.5</ele>
        <time>2025-10-28T07:27:02.000Z</time>
      </trkpt>
      <trkpt lat="43.50002" lon="6.64369">
        <ele>70.8</ele>
        <time>2025-10-28T07:27:03.000Z</time>
      </trkpt>
      <trkpt lat="43.50008" lon="6.64372">
        <ele>71.1</ele>
        <time>2025-10-28T07:27:04.000Z</time>
      </trkpt>
      <trkpt lat="43.50014" lon="6.64374">
        <ele>71.3</ele>
        <time>2025-10-28T07:27:05.000Z</time>
      </trkpt>
      <trkpt lat="43.5002" lon="6.64377">
        <ele>71.6</ele>
        <time>2025-10-28T07:27:06.000Z</time>
      </trkpt>
      <trkpt lat="43.50027" lon="6.64379">
        <ele>71.9</ele>
        <time>2025-10-28T07:27:07.000Z</time>
      </trkpt>
      <trkpt lat="43.50033" lon="6.64381">
        <ele>72.1</ele>
        <time>2025-10-28T07:27:08.000Z</time>
      </trkpt>
      <trkpt lat="43.50039" lon="6.64384">
        <ele>72.3</ele>
        <time>2025-10-28T07:27:09.000Z</time>
      </trkpt>
      <trkpt lat="43.50045" lon="6.64386">
        <ele>72.4</ele>
        <time>2025-10-28T07:27:10.000Z</time>
      </trkpt>
      <trkpt lat="43.50051" lon="6.64389">
        <ele>72.6</ele>
        <time>2025-10-28T07:27:11.000Z</time>
      </trkpt>
      <trkpt lat="43.50056" lon="6.64392">
        <ele>72.7</ele>
        <time>2025-10-28T07:27:12.000Z</time>
      </trkpt>
      <trkpt lat="43.50061" lon="6.64395">
        <ele>72.8</ele>
        <time>2025-10-28T07:27:13.000Z</time>
      </trkpt>
      <trkpt lat="43.50066" lon="6.64399">
        <ele>72.8</ele>
        <time>2025-10-28T07:27:14.000Z</time>
      </trkpt>
      <trkpt lat="43.50069" lon="6.64403">
        <ele>72.9</ele>
        <time>2025-10-28T07:27:15.000Z</time>
      </trkpt>
      <trkpt lat="43.50073" lon="6.64406">
        <ele>73</ele>
        <time>2025-10-28T07:27:16.000Z</time>
      </trkpt>
      <trkpt lat="43.50075" lon="6.6441">
        <ele>73.1</ele>
        <time>2025-10-28T07:27:17.000Z</time>
      </trkpt>
      <trkpt lat="43.50078" lon="6.64415">
        <ele>73.2</ele>
        <time>2025-10-28T07:27:18.000Z</time>
      </trkpt>
      <trkpt lat="43.50079" lon="6.6442">
        <ele>73.4</ele>
        <time>2025-10-28T07:27:19.000Z</time>
      </trkpt>
      <trkpt lat="43.50081" lon="6.64426">
        <ele>73.5</ele>
        <time>2025-10-28T07:27:20.000Z</time>
      </trkpt>
      <trkpt lat="43.50082" lon="6.64433">
        <ele>73.5</ele>
        <time>2025-10-28T07:27:21.000Z</time>
      </trkpt>
      <trkpt lat="43.50084" lon="6.64439">
        <ele>73.6</ele>
        <time>2025-10-28T07:27:22.000Z</time>
      </trkpt>
      <trkpt lat="43.50087" lon="6.64444">
        <ele>73.6</ele>
        <time>2025-10-28T07:27:23.000Z</time>
      </trkpt>
      <trkpt lat="43.50091" lon="6.64448">
        <ele>73.5</ele>
        <time>2025-10-28T07:27:24.000Z</time>
      </trkpt>
      <trkpt lat="43.50095" lon="6.64449">
        <ele>73.4</ele>
        <time>2025-10-28T07:27:25.000Z</time>
      </trkpt>
      <trkpt lat="43.50099" lon="6.64449">
        <ele>73.2</ele>
        <time>2025-10-28T07:27:26.000Z</time>
      </trkpt>
      <trkpt lat="43.50102" lon="6.64448">
        <ele>73</ele>
        <time>2025-10-28T07:27:27.000Z</time>
      </trkpt>
      <trkpt lat="43.50104" lon="6.64447">
        <ele>72.8</ele>
        <time>2025-10-28T07:27:28.000Z</time>
      </trkpt>
      <trkpt lat="43.50107" lon="6.64445">
        <ele>72.7</ele>
        <time>2025-10-28T07:27:29.000Z</time>
      </trkpt>
      <trkpt lat="43.50109" lon="6.64443">
        <ele>72.5</ele>
        <time>2025-10-28T07:27:30.000Z</time>
      </trkpt>
      <trkpt lat="43.50111" lon="6.64439">
        <ele>72.3</ele>
        <time>2025-10-28T07:27:31.000Z</time>
      </trkpt>
      <trkpt lat="43.50112" lon="6.64435">
        <ele>72.1</ele>
        <time>2025-10-28T07:27:32.000Z</time>
      </trkpt>
      <trkpt lat="43.50114" lon="6.64432">
        <ele>72</ele>
        <time>2025-10-28T07:27:33.000Z</time>
      </trkpt>
      <trkpt lat="43.50116" lon="6.64428">
        <ele>71.8</ele>
        <time>2025-10-28T07:27:34.000Z</time>
      </trkpt>
      <trkpt lat="43.50118" lon="6.64425">
        <ele>71.6</ele>
        <time>2025-10-28T07:27:35.000Z</time>
      </trkpt>
      <trkpt lat="43.50119" lon="6.64421">
        <ele>71.4</ele>
        <time>2025-10-28T07:27:36.000Z</time>
      </trkpt>
      <trkpt lat="43.50119" lon="6.64417">
        <ele>71.6</ele>
        <time>2025-10-28T07:27:37.000Z</time>
      </trkpt>
      <trkpt lat="43.50118" lon="6.64413">
        <ele>71.8</ele>
        <time>2025-10-28T07:27:38.000Z</time>
      </trkpt>
      <trkpt lat="43.50117" lon="6.64412">
        <ele>71.9</ele>
        <time>2025-10-28T07:27:39.000Z</time>
      </trkpt>
      <trkpt lat="43.50117" lon="6.64411">
        <ele>71.9</ele>
        <time>2025-10-28T07:27:40.000Z</time>
      </trkpt>
      <trkpt lat="43.50116" lon="6.64411">
        <ele>72</ele>
        <time>2025-10-28T07:27:41.000Z</time>
      </trkpt>
      <trkpt lat="43.50116" lon="6.64411">
        <ele>72</ele>
        <time>2025-10-28T07:27:42.000Z</time>
      </trkpt>
      <trkpt lat="43.50116" lon="6.64411">
        <ele>72</ele>
        <time>2025-10-28T07:27:43.000Z</time>
      </trkpt>
      <trkpt lat="43.50116" lon="6.64411">
        <ele>72</ele>
        <time>2025-10-28T07:27:44.000Z</time>
      </trkpt>
      <trkpt lat="43.50116" lon="6.64411">
        <ele>72</ele>
        <time>2025-10-28T07:27:45.000Z</time>
      </trkpt>
      <trkpt lat="43.50116" lon="6.64411">
        <ele>72.1</ele>
        <time>2025-10-28T07:27:46.000Z</time>
      </trkpt>
      <trkpt lat="43.50116" lon="6.64412">
        <ele>72.1</ele>
        <time>2025-10-28T07:27:47.000Z</time>
      </trkpt>
      <trkpt lat="43.50116" lon="6.64413">
        <ele>72.1</ele>
        <time>2025-10-28T07:27:48.000Z</time>
      </trkpt>
      <trkpt lat="43.50115" lon="6.64413">
        <ele>72.2</ele>
        <time>2025-10-28T07:27:49.000Z</time>
      </trkpt>
      <trkpt lat="43.50114" lon="6.64414">
        <ele>72.3</ele>
        <time>2025-10-28T07:27:50.000Z</time>
      </trkpt>
      <trkpt lat="43.50113" lon="6.64414">
        <ele>72.3</ele>
        <time>2025-10-28T07:27:51.000Z</time>
      </trkpt>
      <trkpt lat="43.50113" lon="6.64415">
        <ele>72.4</ele>
        <time>2025-10-28T07:27:52.000Z</time>
      </trkpt>
      <trkpt lat="43.50112" lon="6.64415">
        <ele>72.5</ele>
        <time>2025-10-28T07:27:53.000Z</time>
      </trkpt>
      <trkpt lat="43.50111" lon="6.64416">
        <ele>72.5</ele>
        <time>2025-10-28T07:27:54.000Z</time>
      </trkpt>
      <trkpt lat="43.50111" lon="6.64415">
        <ele>72.5</ele>
        <time>2025-10-28T07:27:55.000Z</time>
      </trkpt>
      <trkpt lat="43.50111" lon="6.64415">
        <ele>72.6</ele>
        <time>2025-10-28T07:27:56.000Z</time>
      </trkpt>
      <trkpt lat="43.5011" lon="6.64415">
        <ele>72.6</ele>
        <time>2025-10-28T07:27:57.000Z</time>
      </trkpt>
      <trkpt lat="43.5011" lon="6.64415">
        <ele>72.6</ele>
        <time>2025-10-28T07:27:58.000Z</time>
      </trkpt>
      <trkpt lat="43.5011" lon="6.64416">
        <ele>72.6</ele>
        <time>2025-10-28T07:27:59.000Z</time>
      </trkpt>
      <trkpt lat="43.5011" lon="6.64416">
        <ele>72.7</ele>
        <time>2025-10-28T07:28:00.000Z</time>
      </trkpt>
      <trkpt lat="43.5011" lon="6.64417">
        <ele>72.7</ele>
        <time>2025-10-28T07:28:01.000Z</time>
      </trkpt>
      <trkpt lat="43.5011" lon="6.64417">
        <ele>72.7</ele>
        <time>2025-10-28T07:28:02.000Z</time>
      </trkpt>
      <trkpt lat="43.5011" lon="6.64417">
        <ele>72.7</ele>
        <time>2025-10-28T07:28:03.000Z</time>
      </trkpt>
      <trkpt lat="43.5011" lon="6.64417">
        <ele>72.7</ele>
        <time>2025-10-28T07:28:04.000Z</time>
      </trkpt>
      <trkpt lat="43.5011" lon="6.64418">
        <ele>72.8</ele>
        <time>2025-10-28T07:28:05.000Z</time>
      </trkpt>
      <trkpt lat="43.5011" lon="6.64419">
        <ele>72.8</ele>
        <time>2025-10-28T07:28:06.000Z</time>
      </trkpt>
      <trkpt lat="43.5011" lon="6.64419">
        <ele>72.8</ele>
        <time>2025-10-28T07:28:07.000Z</time>
      </trkpt>
      <trkpt lat="43.5011" lon="6.64419">
        <ele>72.8</ele>
        <time>2025-10-28T07:28:08.000Z</time>
      </trkpt>
      <trkpt lat="43.5011" lon="6.64419">
        <ele>72.8</ele>
        <time>2025-10-28T07:28:09.000Z</time>
      </trkpt>
      <trkpt lat="43.5011" lon="6.64419">
        <ele>72.8</ele>
        <time>2025-10-28T07:28:10.000Z</time>
      </trkpt>
      <trkpt lat="43.5011" lon="6.64419">
        <ele>72.8</ele>
        <time>2025-10-28T07:28:11.000Z</time>
      </trkpt>
      <trkpt lat="43.5011" lon="6.64419">
        <ele>72.8</ele>
        <time>2025-10-28T07:28:12.000Z</time>
      </trkpt>
      <trkpt lat="43.5011" lon="6.64419">
        <ele>72.8</ele>
        <time>2025-10-28T07:28:13.000Z</time>
      </trkpt>
      <trkpt lat="43.5011" lon="6.64419">
        <ele>72.8</ele>
        <time>2025-10-28T07:28:14.000Z</time>
      </trkpt>
      <trkpt lat="43.5011" lon="6.64419">
        <ele>72.8</ele>
        <time>2025-10-28T07:28:15.000Z</time>
      </trkpt>
      <trkpt lat="43.5011" lon="6.64419">
        <ele>72.8</ele>
        <time>2025-10-28T07:28:16.000Z</time>
      </trkpt>
      <trkpt lat="43.5011" lon="6.64419">
        <ele>72.8</ele>
        <time>2025-10-28T07:28:17.000Z</time>
      </trkpt>
      <trkpt lat="43.5011" lon="6.64419">
        <ele>72.8</ele>
        <time>2025-10-28T07:28:18.000Z</time>
      </trkpt>
      <trkpt lat="43.5011" lon="6.64419">
        <ele>72.8</ele>
        <time>2025-10-28T07:28:19.000Z</time>
      </trkpt>
      <trkpt lat="43.5011" lon="6.64419">
        <ele>72.8</ele>
        <time>2025-10-28T07:28:20.000Z</time>
      </trkpt>
      <trkpt lat="43.5011" lon="6.64419">
        <ele>72.8</ele>
        <time>2025-10-28T07:28:21.000Z</time>
      </trkpt>
      <trkpt lat="43.5011" lon="6.64419">
        <ele>72.8</ele>
        <time>2025-10-28T07:28:22.000Z</time>
      </trkpt>
      <trkpt lat="43.5011" lon="6.64419">
        <ele>72.8</ele>
        <time>2025-10-28T07:28:23.000Z</time>
      </trkpt>
      <trkpt lat="43.5011" lon="6.64419">
        <ele>72.8</ele>
        <time>2025-10-28T07:28:24.000Z</time>
      </trkpt>
      <trkpt lat="43.5011" lon="6.64419">
        <ele>72.8</ele>
        <time>2025-10-28T07:28:25.000Z</time>
      </trkpt>
      <trkpt lat="43.5011" lon="6.64419">
        <ele>72.8</ele>
        <time>2025-10-28T07:28:26.000Z</time>
      </trkpt>
      <trkpt lat="43.5011" lon="6.64419">
        <ele>72.8</ele>
        <time>2025-10-28T07:28:27.000Z</time>
      </trkpt>
      <trkpt lat="43.5011" lon="6.64419">
        <ele>72.8</ele>
        <time>2025-10-28T07:28:28.000Z</time>
      </trkpt>
      <trkpt lat="43.5011" lon="6.64419">
        <ele>72.8</ele>
        <time>2025-10-28T07:28:29.000Z</time>
      </trkpt>
      <trkpt lat="43.5011" lon="6.64419">
        <ele>72.8</ele>
        <time>2025-10-28T07:28:30.000Z</time>
      </trkpt>
      <trkpt lat="43.5011" lon="6.64418">
        <ele>72.8</ele>
        <time>2025-10-28T07:28:31.000Z</time>
      </trkpt>
      <trkpt lat="43.5011" lon="6.64418">
        <ele>72.8</ele>
        <time>2025-10-28T07:28:32.000Z</time>
      </trkpt>
      <trkpt lat="43.5011" lon="6.64418">
        <ele>72.8</ele>
        <time>2025-10-28T07:28:33.000Z</time>
      </trkpt>
      <trkpt lat="43.5011" lon="6.64418">
        <ele>72.8</ele>
        <time>2025-10-28T07:28:34.000Z</time>
      </trkpt>
      <trkpt lat="43.5011" lon="6.64418">
        <ele>72.8</ele>
        <time>2025-10-28T07:28:35.000Z</time>
      </trkpt>
      <trkpt lat="43.5011" lon="6.64418">
        <ele>72.8</ele>
        <time>2025-10-28T07:28:36.000Z</time>
      </trkpt>
      <trkpt lat="43.5011" lon="6.64418">
        <ele>72.8</ele>
        <time>2025-10-28T07:28:37.000Z</time>
      </trkpt>
      <trkpt lat="43.5011" lon="6.64418">
        <ele>72.8</ele>
        <time>2025-10-28T07:28:38.000Z</time>
      </trkpt>
      <trkpt lat="43.5011" lon="6.64418">
        <ele>72.8</ele>
        <time>2025-10-28T07:28:39.000Z</time>
      </trkpt>
      <trkpt lat="43.5011" lon="6.64418">
        <ele>72.8</ele>
        <time>2025-10-28T07:28:40.000Z</time>
      </trkpt>
      <trkpt lat="43.5011" lon="6.64418">
        <ele>72.8</ele>
        <time>2025-10-28T07:28:41.000Z</time>
      </trkpt>
      <trkpt lat="43.5011" lon="6.64418">
        <ele>72.8</ele>
        <time>2025-10-28T07:28:42.000Z</time>
      </trkpt>
      <trkpt lat="43.5011" lon="6.64418">
        <ele>72.8</ele>
        <time>2025-10-28T07:28:43.000Z</time>
      </trkpt>
      <trkpt lat="43.5011" lon="6.64418">
        <ele>72.8</ele>
        <time>2025-10-28T07:28:44.000Z</time>
      </trkpt>
      <trkpt lat="43.5011" lon="6.64418">
        <ele>72.8</ele>
        <time>2025-10-28T07:28:45.000Z</time>
      </trkpt>
      <trkpt lat="43.5011" lon="6.64418">
        <ele>72.8</ele>
        <time>2025-10-28T07:28:46.000Z</time>
      </trkpt>
      <trkpt lat="43.5011" lon="6.64418">
        <ele>72.8</ele>
        <time>2025-10-28T07:28:47.000Z</time>
      </trkpt>
      <trkpt lat="43.5011" lon="6.64418">
        <ele>72.8</ele>
        <time>2025-10-28T07:28:48.000Z</time>
      </trkpt>
      <trkpt lat="43.5011" lon="6.64417">
        <ele>72.8</ele>
        <time>2025-10-28T07:28:49.000Z</time>
      </trkpt>
      <trkpt lat="43.5011" lon="6.64417">
        <ele>72.8</ele>
        <time>2025-10-28T07:28:50.000Z</time>
      </trkpt>
      <trkpt lat="43.5011" lon="6.64417">
        <ele>72.8</ele>
        <time>2025-10-28T07:28:51.000Z</time>
      </trkpt>
      <trkpt lat="43.5011" lon="6.64417">
        <ele>72.8</ele>
        <time>2025-10-28T07:28:52.000Z</time>
      </trkpt>
      <trkpt lat="43.50109" lon="6.64416">
        <ele>72.8</ele>
        <time>2025-10-28T07:28:53.000Z</time>
      </trkpt>
      <trkpt lat="43.50109" lon="6.64416">
        <ele>72.8</ele>
        <time>2025-10-28T07:28:54.000Z</time>
      </trkpt>
      <trkpt lat="43.50109" lon="6.64416">
        <ele>72.8</ele>
        <time>2025-10-28T07:28:55.000Z</time>
      </trkpt>
      <trkpt lat="43.50109" lon="6.64416">
        <ele>72.8</ele>
        <time>2025-10-28T07:28:56.000Z</time>
      </trkpt>
      <trkpt lat="43.50109" lon="6.64416">
        <ele>72.8</ele>
        <time>2025-10-28T07:28:57.000Z</time>
      </trkpt>
      <trkpt lat="43.50109" lon="6.64416">
        <ele>72.8</ele>
        <time>2025-10-28T07:28:58.000Z</time>
      </trkpt>
      <trkpt lat="43.50109" lon="6.64416">
        <ele>72.8</ele>
        <time>2025-10-28T07:28:59.000Z</time>
      </trkpt>
      <trkpt lat="43.50109" lon="6.64416">
        <ele>72.8</ele>
        <time>2025-10-28T07:29:00.000Z</time>
      </trkpt>
      <trkpt lat="43.50109" lon="6.64416">
        <ele>72.8</ele>
        <time>2025-10-28T07:29:01.000Z</time>
      </trkpt>
      <trkpt lat="43.50109" lon="6.64416">
        <ele>72.8</ele>
        <time>2025-10-28T07:29:02.000Z</time>
      </trkpt>
      <trkpt lat="43.50109" lon="6.64416">
        <ele>72.8</ele>
        <time>2025-10-28T07:29:03.000Z</time>
      </trkpt>
      <trkpt lat="43.50109" lon="6.64416">
        <ele>72.8</ele>
        <time>2025-10-28T07:29:04.000Z</time>
      </trkpt>
      <trkpt lat="43.50109" lon="6.64416">
        <ele>72.8</ele>
        <time>2025-10-28T07:29:05.000Z</time>
      </trkpt>
      <trkpt lat="43.50109" lon="6.64416">
        <ele>72.8</ele>
        <time>2025-10-28T07:29:06.000Z</time>
      </trkpt>
      <trkpt lat="43.50109" lon="6.64416">
        <ele>72.8</ele>
        <time>2025-10-28T07:29:07.000Z</time>
      </trkpt>
      <trkpt lat="43.50109" lon="6.64416">
        <ele>72.8</ele>
        <time>2025-10-28T07:29:08.000Z</time>
      </trkpt>
      <trkpt lat="43.50109" lon="6.64416">
        <ele>72.8</ele>
        <time>2025-10-28T07:29:09.000Z</time>
      </trkpt>
      <trkpt lat="43.50109" lon="6.64416">
        <ele>72.8</ele>
        <time>2025-10-28T07:29:10.000Z</time>
      </trkpt>
      <trkpt lat="43.50109" lon="6.64415">
        <ele>72.8</ele>
        <time>2025-10-28T07:29:11.000Z</time>
      </trkpt>
      <trkpt lat="43.50109" lon="6.64415">
        <ele>72.8</ele>
        <time>2025-10-28T07:29:12.000Z</time>
      </trkpt>
      <trkpt lat="43.50109" lon="6.64415">
        <ele>72.8</ele>
        <time>2025-10-28T07:29:13.000Z</time>
      </trkpt>
      <trkpt lat="43.50109" lon="6.64415">
        <ele>72.8</ele>
        <time>2025-10-28T07:29:14.000Z</time>
      </trkpt>
      <trkpt lat="43.50109" lon="6.64415">
        <ele>72.8</ele>
        <time>2025-10-28T07:29:15.000Z</time>
      </trkpt>
      <trkpt lat="43.50109" lon="6.64415">
        <ele>72.8</ele>
        <time>2025-10-28T07:29:16.000Z</time>
      </trkpt>
      <trkpt lat="43.50109" lon="6.64415">
        <ele>72.8</ele>
        <time>2025-10-28T07:29:17.000Z</time>
      </trkpt>
      <trkpt lat="43.50109" lon="6.64415">
        <ele>72.8</ele>
        <time>2025-10-28T07:29:18.000Z</time>
      </trkpt>
      <trkpt lat="43.50109" lon="6.64414">
        <ele>72.8</ele>
        <time>2025-10-28T07:29:19.000Z</time>
      </trkpt>
      <trkpt lat="43.50109" lon="6.64414">
        <ele>72.8</ele>
        <time>2025-10-28T07:29:20.000Z</time>
      </trkpt>
      <trkpt lat="43.50109" lon="6.64414">
        <ele>72.8</ele>
        <time>2025-10-28T07:29:21.000Z</time>
      </trkpt>
      <trkpt lat="43.50109" lon="6.64414">
        <ele>72.8</ele>
        <time>2025-10-28T07:29:22.000Z</time>
      </trkpt>
      <trkpt lat="43.50109" lon="6.64414">
        <ele>72.8</ele>
        <time>2025-10-28T07:29:23.000Z</time>
      </trkpt>
      <trkpt lat="43.50109" lon="6.64414">
        <ele>72.8</ele>
        <time>2025-10-28T07:29:24.000Z</time>
      </trkpt>
      <trkpt lat="43.50109" lon="6.64414">
        <ele>72.8</ele>
        <time>2025-10-28T07:29:25.000Z</time>
      </trkpt>
      <trkpt lat="43.50109" lon="6.64414">
        <ele>72.8</ele>
        <time>2025-10-28T07:29:26.000Z</time>
      </trkpt>
      <trkpt lat="43.50109" lon="6.64414">
        <ele>72.8</ele>
        <time>2025-10-28T07:29:27.000Z</time>
      </trkpt>
      <trkpt lat="43.50109" lon="6.64414">
        <ele>72.8</ele>
        <time>2025-10-28T07:29:28.000Z</time>
      </trkpt>
      <trkpt lat="43.50109" lon="6.64414">
        <ele>72.8</ele>
        <time>2025-10-28T07:29:29.000Z</time>
      </trkpt>
      <trkpt lat="43.50109" lon="6.64414">
        <ele>72.8</ele>
        <time>2025-10-28T07:29:30.000Z</time>
      </trkpt>
      <trkpt lat="43.50109" lon="6.64414">
        <ele>72.8</ele>
        <time>2025-10-28T07:29:31.000Z</time>
      </trkpt>
      <trkpt lat="43.50109" lon="6.64413">
        <ele>72.8</ele>
        <time>2025-10-28T07:29:32.000Z</time>
      </trkpt>
      <trkpt lat="43.50109" lon="6.64413">
        <ele>72.8</ele>
        <time>2025-10-28T07:29:33.000Z</time>
      </trkpt>
      <trkpt lat="43.50109" lon="6.64413">
        <ele>72.8</ele>
        <time>2025-10-28T07:29:34.000Z</time>
      </trkpt>
      <trkpt lat="43.50109" lon="6.64413">
        <ele>72.8</ele>
        <time>2025-10-28T07:29:35.000Z</time>
      </trkpt>
      <trkpt lat="43.50109" lon="6.64413">
        <ele>72.8</ele>
        <time>2025-10-28T07:29:36.000Z</time>
      </trkpt>
      <trkpt lat="43.50109" lon="6.64413">
        <ele>72.8</ele>
        <time>2025-10-28T07:29:37.000Z</time>
      </trkpt>
      <trkpt lat="43.50109" lon="6.64413">
        <ele>72.8</ele>
        <time>2025-10-28T07:29:38.000Z</time>
      </trkpt>
      <trkpt lat="43.50109" lon="6.64413">
        <ele>72.8</ele>
        <time>2025-10-28T07:29:39.000Z</time>
      </trkpt>
      <trkpt lat="43.50109" lon="6.64413">
        <ele>72.8</ele>
        <time>2025-10-28T07:29:40.000Z</time>
      </trkpt>
      <trkpt lat="43.50109" lon="6.64413">
        <ele>72.8</ele>
        <time>2025-10-28T07:29:41.000Z</time>
      </trkpt>
      <trkpt lat="43.50109" lon="6.64413">
        <ele>72.8</ele>
        <time>2025-10-28T07:29:42.000Z</time>
      </trkpt>
      <trkpt lat="43.50109" lon="6.64413">
        <ele>72.8</ele>
        <time>2025-10-28T07:29:43.000Z</time>
      </trkpt>
      <trkpt lat="43.50109" lon="6.64413">
        <ele>72.8</ele>
        <time>2025-10-28T07:29:44.000Z</time>
      </trkpt>
      <trkpt lat="43.50109" lon="6.64413">
        <ele>72.8</ele>
        <time>2025-10-28T07:29:45.000Z</time>
      </trkpt>
      <trkpt lat="43.50109" lon="6.64413">
        <ele>72.8</ele>
        <time>2025-10-28T07:29:46.000Z</time>
      </trkpt>
      <trkpt lat="43.50109" lon="6.64413">
        <ele>72.8</ele>
        <time>2025-10-28T07:29:47.000Z</time>
      </trkpt>
      <trkpt lat="43.50109" lon="6.64413">
        <ele>72.8</ele>
        <time>2025-10-28T07:29:48.000Z</time>
      </trkpt>
      <trkpt lat="43.50109" lon="6.64413">
        <ele>72.8</ele>
        <time>2025-10-28T07:29:49.000Z</time>
      </trkpt>
      <trkpt lat="43.50109" lon="6.64413">
        <ele>72.8</ele>
        <time>2025-10-28T07:29:50.000Z</time>
      </trkpt>
      <trkpt lat="43.50108" lon="6.64413">
        <ele>72.8</ele>
        <time>2025-10-28T07:29:51.000Z</time>
      </trkpt>
      <trkpt lat="43.50108" lon="6.64413">
        <ele>72.8</ele>
        <time>2025-10-28T07:29:52.000Z</time>
      </trkpt>
      <trkpt lat="43.50108" lon="6.64413">
        <ele>72.8</ele>
        <time>2025-10-28T07:29:53.000Z</time>
      </trkpt>
      <trkpt lat="43.50108" lon="6.64413">
        <ele>72.8</ele>
        <time>2025-10-28T07:29:54.000Z</time>
      </trkpt>
      <trkpt lat="43.50108" lon="6.64413">
        <ele>72.8</ele>
        <time>2025-10-28T07:29:55.000Z</time>
      </trkpt>
      <trkpt lat="43.50108" lon="6.64413">
        <ele>72.8</ele>
        <time>2025-10-28T07:29:56.000Z</time>
      </trkpt>
      <trkpt lat="43.50108" lon="6.64413">
        <ele>72.8</ele>
        <time>2025-10-28T07:29:57.000Z</time>
      </trkpt>
      <trkpt lat="43.50108" lon="6.64413">
        <ele>72.8</ele>
        <time>2025-10-28T07:29:58.000Z</time>
      </trkpt>
      <trkpt lat="43.50108" lon="6.64413">
        <ele>72.8</ele>
        <time>2025-10-28T07:29:59.000Z</time>
      </trkpt>
      <trkpt lat="43.50108" lon="6.64413">
        <ele>72.8</ele>
        <time>2025-10-28T07:30:00.000Z</time>
      </trkpt>
      <trkpt lat="43.50108" lon="6.64413">
        <ele>72.8</ele>
        <time>2025-10-28T07:30:01.000Z</time>
      </trkpt>
      <trkpt lat="43.50108" lon="6.64413">
        <ele>72.8</ele>
        <time>2025-10-28T07:30:02.000Z</time>
      </trkpt>
      <trkpt lat="43.50108" lon="6.64413">
        <ele>72.8</ele>
        <time>2025-10-28T07:30:03.000Z</time>
      </trkpt>
      <trkpt lat="43.50108" lon="6.64413">
        <ele>72.8</ele>
        <time>2025-10-28T07:30:04.000Z</time>
      </trkpt>
      <trkpt lat="43.50108" lon="6.64413">
        <ele>72.8</ele>
        <time>2025-10-28T07:30:05.000Z</time>
      </trkpt>
      <trkpt lat="43.50108" lon="6.64413">
        <ele>72.8</ele>
        <time>2025-10-28T07:30:06.000Z</time>
      </trkpt>
      <trkpt lat="43.50108" lon="6.64413">
        <ele>72.8</ele>
        <time>2025-10-28T07:30:07.000Z</time>
      </trkpt>
      <trkpt lat="43.50108" lon="6.64413">
        <ele>72.8</ele>
        <time>2025-10-28T07:30:08.000Z</time>
      </trkpt>
      <trkpt lat="43.50108" lon="6.64413">
        <ele>72.8</ele>
        <time>2025-10-28T07:30:09.000Z</time>
      </trkpt>
      <trkpt lat="43.50108" lon="6.64413">
        <ele>72.8</ele>
        <time>2025-10-28T07:30:10.000Z</time>
      </trkpt>
      <trkpt lat="43.50108" lon="6.64413">
        <ele>72.8</ele>
        <time>2025-10-28T07:30:11.000Z</time>
      </trkpt>
      <trkpt lat="43.50108" lon="6.64413">
        <ele>72.8</ele>
        <time>2025-10-28T07:30:12.000Z</time>
      </trkpt>
      <trkpt lat="43.50108" lon="6.64414">
        <ele>72.8</ele>
        <time>2025-10-28T07:30:13.000Z</time>
      </trkpt>
      <trkpt lat="43.50108" lon="6.64414">
        <ele>72.8</ele>
        <time>2025-10-28T07:30:14.000Z</time>
      </trkpt>
      <trkpt lat="43.50108" lon="6.64414">
        <ele>72.8</ele>
        <time>2025-10-28T07:30:15.000Z</time>
      </trkpt>
      <trkpt lat="43.50108" lon="6.64414">
        <ele>72.8</ele>
        <time>2025-10-28T07:30:16.000Z</time>
      </trkpt>
      <trkpt lat="43.50108" lon="6.64414">
        <ele>72.8</ele>
        <time>2025-10-28T07:30:17.000Z</time>
      </trkpt>
      <trkpt lat="43.50108" lon="6.64414">
        <ele>72.8</ele>
        <time>2025-10-28T07:30:18.000Z</time>
      </trkpt>
      <trkpt lat="43.50108" lon="6.64414">
        <ele>72.8</ele>
        <time>2025-10-28T07:30:19.000Z</time>
      </trkpt>
      <trkpt lat="43.50108" lon="6.64414">
        <ele>72.8</ele>
        <time>2025-10-28T07:30:20.000Z</time>
      </trkpt>
      <trkpt lat="43.50108" lon="6.64414">
        <ele>72.8</ele>
        <time>2025-10-28T07:30:21.000Z</time>
      </trkpt>
      <trkpt lat="43.50108" lon="6.64414">
        <ele>72.8</ele>
        <time>2025-10-28T07:30:22.000Z</time>
      </trkpt>
      <trkpt lat="43.50108" lon="6.64414">
        <ele>72.8</ele>
        <time>2025-10-28T07:30:23.000Z</time>
      </trkpt>
      <trkpt lat="43.50108" lon="6.64414">
        <ele>72.8</ele>
        <time>2025-10-28T07:30:24.000Z</time>
      </trkpt>
      <trkpt lat="43.50108" lon="6.64414">
        <ele>72.8</ele>
        <time>2025-10-28T07:30:25.000Z</time>
      </trkpt>
      <trkpt lat="43.50108" lon="6.64414">
        <ele>72.8</ele>
        <time>2025-10-28T07:30:26.000Z</time>
      </trkpt>
      <trkpt lat="43.50108" lon="6.64414">
        <ele>72.8</ele>
        <time>2025-10-28T07:30:27.000Z</time>
      </trkpt>
      <trkpt lat="43.50108" lon="6.64414">
        <ele>72.8</ele>
        <time>2025-10-28T07:30:28.000Z</time>
      </trkpt>
      <trkpt lat="43.50108" lon="6.64414">
        <ele>72.8</ele>
        <time>2025-10-28T07:30:29.000Z</time>
      </trkpt>
      <trkpt lat="43.50108" lon="6.64414">
        <ele>72.8</ele>
        <time>2025-10-28T07:30:30.000Z</time>
      </trkpt>
      <trkpt lat="43.50108" lon="6.64414">
        <ele>72.8</ele>
        <time>2025-10-28T07:30:31.000Z</time>
      </trkpt>
      <trkpt lat="43.50108" lon="6.64414">
        <ele>72.8</ele>
        <time>2025-10-28T07:30:32.000Z</time>
      </trkpt>
      <trkpt lat="43.50108" lon="6.64415">
        <ele>72.8</ele>
        <time>2025-10-28T07:30:33.000Z</time>
      </trkpt>
      <trkpt lat="43.50108" lon="6.64415">
        <ele>72.8</ele>
        <time>2025-10-28T07:30:34.000Z</time>
      </trkpt>
      <trkpt lat="43.50108" lon="6.64415">
        <ele>72.8</ele>
        <time>2025-10-28T07:30:35.000Z</time>
      </trkpt>
      <trkpt lat="43.50108" lon="6.64415">
        <ele>72.8</ele>
        <time>2025-10-28T07:30:36.000Z</time>
      </trkpt>
      <trkpt lat="43.50108" lon="6.64415">
        <ele>72.8</ele>
        <time>2025-10-28T07:30:37.000Z</time>
      </trkpt>
      <trkpt lat="43.50109" lon="6.64415">
        <ele>72.8</ele>
        <time>2025-10-28T07:30:38.000Z</time>
      </trkpt>
      <trkpt lat="43.50109" lon="6.64415">
        <ele>72.8</ele>
        <time>2025-10-28T07:30:39.000Z</time>
      </trkpt>
      <trkpt lat="43.50109" lon="6.64415">
        <ele>72.8</ele>
        <time>2025-10-28T07:30:40.000Z</time>
      </trkpt>
      <trkpt lat="43.50109" lon="6.64415">
        <ele>72.8</ele>
        <time>2025-10-28T07:30:41.000Z</time>
      </trkpt>
      <trkpt lat="43.50109" lon="6.64415">
        <ele>72.8</ele>
        <time>2025-10-28T07:30:42.000Z</time>
      </trkpt>
      <trkpt lat="43.50109" lon="6.64415">
        <ele>72.8</ele>
        <time>2025-10-28T07:30:43.000Z</time>
      </trkpt>
      <trkpt lat="43.50109" lon="6.64415">
        <ele>72.8</ele>
        <time>2025-10-28T07:30:44.000Z</time>
      </trkpt>
      <trkpt lat="43.50109" lon="6.64415">
        <ele>72.8</ele>
        <time>2025-10-28T07:30:45.000Z</time>
      </trkpt>
      <trkpt lat="43.50109" lon="6.64415">
        <ele>72.8</ele>
        <time>2025-10-28T07:30:46.000Z</time>
      </trkpt>
      <trkpt lat="43.50109" lon="6.64415">
        <ele>72.8</ele>
        <time>2025-10-28T07:30:47.000Z</time>
      </trkpt>
      <trkpt lat="43.50109" lon="6.64415">
        <ele>72.8</ele>
        <time>2025-10-28T07:30:48.000Z</time>
      </trkpt>
      <trkpt lat="43.50109" lon="6.64415">
        <ele>72.8</ele>
        <time>2025-10-28T07:30:49.000Z</time>
      </trkpt>
      <trkpt lat="43.50109" lon="6.64415">
        <ele>72.8</ele>
        <time>2025-10-28T07:30:50.000Z</time>
      </trkpt>
      <trkpt lat="43.50109" lon="6.64415">
        <ele>72.8</ele>
        <time>2025-10-28T07:30:51.000Z</time>
      </trkpt>
      <trkpt lat="43.50109" lon="6.64415">
        <ele>72.8</ele>
        <time>2025-10-28T07:30:52.000Z</time>
      </trkpt>
      <trkpt lat="43.50109" lon="6.64415">
        <ele>72.8</ele>
        <time>2025-10-28T07:30:53.000Z</time>
      </trkpt>
      <trkpt lat="43.50109" lon="6.64415">
        <ele>72.8</ele>
        <time>2025-10-28T07:30:54.000Z</time>
      </trkpt>
      <trkpt lat="43.50109" lon="6.64415">
        <ele>72.8</ele>
        <time>2025-10-28T07:30:55.000Z</time>
      </trkpt>
      <trkpt lat="43.50109" lon="6.64415">
        <ele>72.8</ele>
        <time>2025-10-28T07:30:56.000Z</time>
      </trkpt>
      <trkpt lat="43.50109" lon="6.64415">
        <ele>72.8</ele>
        <time>2025-10-28T07:30:57.000Z</time>
      </trkpt>
      <trkpt lat="43.50109" lon="6.64415">
        <ele>72.8</ele>
        <time>2025-10-28T07:30:58.000Z</time>
      </trkpt>
      <trkpt lat="43.50109" lon="6.64415">
        <ele>72.8</ele>
        <time>2025-10-28T07:30:59.000Z</time>
      </trkpt>
      <trkpt lat="43.50109" lon="6.64415">
        <ele>72.8</ele>
        <time>2025-10-28T07:31:00.000Z</time>
      </trkpt>
      <trkpt lat="43.50109" lon="6.64415">
        <ele>72.8</ele>
        <time>2025-10-28T07:31:01.000Z</time>
      </trkpt>
      <trkpt lat="43.50109" lon="6.64415">
        <ele>72.8</ele>
        <time>2025-10-28T07:31:02.000Z</time>
      </trkpt>
      <trkpt lat="43.50109" lon="6.64415">
        <ele>72.8</ele>
        <time>2025-10-28T07:31:03.000Z</time>
      </trkpt>
      <trkpt lat="43.50109" lon="6.64415">
        <ele>72.8</ele>
        <time>2025-10-28T07:31:04.000Z</time>
      </trkpt>
      <trkpt lat="43.50109" lon="6.64415">
        <ele>72.8</ele>
        <time>2025-10-28T07:31:05.000Z</time>
      </trkpt>
      <trkpt lat="43.50109" lon="6.64415">
        <ele>72.8</ele>
        <time>2025-10-28T07:31:06.000Z</time>
      </trkpt>
      <trkpt lat="43.50109" lon="6.64415">
        <ele>72.8</ele>
        <time>2025-10-28T07:31:07.000Z</time>
      </trkpt>
      <trkpt lat="43.50108" lon="6.64415">
        <ele>72.8</ele>
        <time>2025-10-28T07:31:08.000Z</time>
      </trkpt>
      <trkpt lat="43.50108" lon="6.64415">
        <ele>72.8</ele>
        <time>2025-10-28T07:31:09.000Z</time>
      </trkpt>
      <trkpt lat="43.50108" lon="6.64415">
        <ele>72.8</ele>
        <time>2025-10-28T07:31:10.000Z</time>
      </trkpt>
      <trkpt lat="43.50108" lon="6.64415">
        <ele>72.8</ele>
        <time>2025-10-28T07:31:11.000Z</time>
      </trkpt>
      <trkpt lat="43.50108" lon="6.64414">
        <ele>72.8</ele>
        <time>2025-10-28T07:31:12.000Z</time>
      </trkpt>
      <trkpt lat="43.50108" lon="6.64414">
        <ele>72.8</ele>
        <time>2025-10-28T07:31:13.000Z</time>
      </trkpt>
      <trkpt lat="43.50108" lon="6.64414">
        <ele>72.8</ele>
        <time>2025-10-28T07:31:14.000Z</time>
      </trkpt>
      <trkpt lat="43.50108" lon="6.64414">
        <ele>72.8</ele>
        <time>2025-10-28T07:31:15.000Z</time>
      </trkpt>
      <trkpt lat="43.50108" lon="6.64414">
        <ele>72.8</ele>
        <time>2025-10-28T07:31:16.000Z</time>
      </trkpt>
      <trkpt lat="43.50108" lon="6.64414">
        <ele>72.8</ele>
        <time>2025-10-28T07:31:17.000Z</time>
      </trkpt>
      <trkpt lat="43.50108" lon="6.64414">
        <ele>72.8</ele>
        <time>2025-10-28T07:31:18.000Z</time>
      </trkpt>
      <trkpt lat="43.50108" lon="6.64414">
        <ele>72.8</ele>
        <time>2025-10-28T07:31:19.000Z</time>
      </trkpt>
      <trkpt lat="43.50108" lon="6.64414">
        <ele>72.8</ele>
        <time>2025-10-28T07:31:20.000Z</time>
      </trkpt>
      <trkpt lat="43.50108" lon="6.64414">
        <ele>72.8</ele>
        <time>2025-10-28T07:31:21.000Z</time>
      </trkpt>
      <trkpt lat="43.50108" lon="6.64413">
        <ele>72.8</ele>
        <time>2025-10-28T07:31:22.000Z</time>
      </trkpt>
      <trkpt lat="43.50108" lon="6.64413">
        <ele>72.8</ele>
        <time>2025-10-28T07:31:23.000Z</time>
      </trkpt>
      <trkpt lat="43.50108" lon="6.64413">
        <ele>72.8</ele>
        <time>2025-10-28T07:31:24.000Z</time>
      </trkpt>
      <trkpt lat="43.50108" lon="6.64413">
        <ele>72.8</ele>
        <time>2025-10-28T07:31:25.000Z</time>
      </trkpt>
      <trkpt lat="43.50108" lon="6.64413">
        <ele>72.8</ele>
        <time>2025-10-28T07:31:26.000Z</time>
      </trkpt>
      <trkpt lat="43.50108" lon="6.64413">
        <ele>72.8</ele>
        <time>2025-10-28T07:31:27.000Z</time>
      </trkpt>
      <trkpt lat="43.50108" lon="6.64413">
        <ele>72.8</ele>
        <time>2025-10-28T07:31:28.000Z</time>
      </trkpt>
      <trkpt lat="43.50108" lon="6.64413">
        <ele>72.8</ele>
        <time>2025-10-28T07:31:29.000Z</time>
      </trkpt>
      <trkpt lat="43.50108" lon="6.64413">
        <ele>72.8</ele>
        <time>2025-10-28T07:31:30.000Z</time>
      </trkpt>
      <trkpt lat="43.50108" lon="6.64413">
        <ele>72.8</ele>
        <time>2025-10-28T07:31:31.000Z</time>
      </trkpt>
      <trkpt lat="43.50108" lon="6.64413">
        <ele>72.8</ele>
        <time>2025-10-28T07:31:32.000Z</time>
      </trkpt>
      <trkpt lat="43.50108" lon="6.64413">
        <ele>72.8</ele>
        <time>2025-10-28T07:31:33.000Z</time>
      </trkpt>
      <trkpt lat="43.50108" lon="6.64413">
        <ele>72.8</ele>
        <time>2025-10-28T07:31:34.000Z</time>
      </trkpt>
      <trkpt lat="43.50108" lon="6.64413">
        <ele>72.8</ele>
        <time>2025-10-28T07:31:35.000Z</time>
      </trkpt>
      <trkpt lat="43.50108" lon="6.64413">
        <ele>72.8</ele>
        <time>2025-10-28T07:31:36.000Z</time>
      </trkpt>
      <trkpt lat="43.50108" lon="6.64413">
        <ele>72.8</ele>
        <time>2025-10-28T07:31:37.000Z</time>
      </trkpt>
      <trkpt lat="43.50108" lon="6.64413">
        <ele>72.8</ele>
        <time>2025-10-28T07:31:38.000Z</time>
      </trkpt>
      <trkpt lat="43.50108" lon="6.64413">
        <ele>72.8</ele>
        <time>2025-10-28T07:31:39.000Z</time>
      </trkpt>
      <trkpt lat="43.50108" lon="6.64413">
        <ele>72.8</ele>
        <time>2025-10-28T07:31:40.000Z</time>
      </trkpt>
      <trkpt lat="43.50108" lon="6.64413">
        <ele>72.8</ele>
        <time>2025-10-28T07:31:41.000Z</time>
      </trkpt>
      <trkpt lat="43.50108" lon="6.64413">
        <ele>72.8</ele>
        <time>2025-10-28T07:31:42.000Z</time>
      </trkpt>
      <trkpt lat="43.50108" lon="6.64413">
        <ele>72.8</ele>
        <time>2025-10-28T07:31:43.000Z</time>
      </trkpt>
      <trkpt lat="43.50108" lon="6.64413">
        <ele>72.8</ele>
        <time>2025-10-28T07:31:44.000Z</time>
      </trkpt>
      <trkpt lat="43.50108" lon="6.64413">
        <ele>72.8</ele>
        <time>2025-10-28T07:31:45.000Z</time>
      </trkpt>
      <trkpt lat="43.50108" lon="6.64413">
        <ele>72.8</ele>
        <time>2025-10-28T07:31:46.000Z</time>
      </trkpt>
      <trkpt lat="43.50108" lon="6.64413">
        <ele>72.8</ele>
        <time>2025-10-28T07:31:47.000Z</time>
      </trkpt>
      <trkpt lat="43.50108" lon="6.64413">
        <ele>72.8</ele>
        <time>2025-10-28T07:31:48.000Z</time>
      </trkpt>
      <trkpt lat="43.50108" lon="6.64413">
        <ele>72.8</ele>
        <time>2025-10-28T07:31:49.000Z</time>
      </trkpt>
      <trkpt lat="43.50108" lon="6.64413">
        <ele>72.8</ele>
        <time>2025-10-28T07:31:50.000Z</time>
      </trkpt>
      <trkpt lat="43.50108" lon="6.64413">
        <ele>72.8</ele>
        <time>2025-10-28T07:31:51.000Z</time>
      </trkpt>
      <trkpt lat="43.50108" lon="6.64413">
        <ele>72.8</ele>
        <time>2025-10-28T07:31:52.000Z</time>
      </trkpt>
      <trkpt lat="43.50108" lon="6.64413">
        <ele>72.8</ele>
        <time>2025-10-28T07:31:53.000Z</time>
      </trkpt>
      <trkpt lat="43.50108" lon="6.64413">
        <ele>72.8</ele>
        <time>2025-10-28T07:31:54.000Z</time>
      </trkpt>
      <trkpt lat="43.50108" lon="6.64413">
        <ele>72.8</ele>
        <time>2025-10-28T07:31:55.000Z</time>
      </trkpt>
      <trkpt lat="43.50108" lon="6.64413">
        <ele>72.8</ele>
        <time>2025-10-28T07:31:56.000Z</time>
      </trkpt>
      <trkpt lat="43.50108" lon="6.64413">
        <ele>72.8</ele>
        <time>2025-10-28T07:31:57.000Z</time>
      </trkpt>
      <trkpt lat="43.50108" lon="6.64413">
        <ele>72.8</ele>
        <time>2025-10-28T07:31:58.000Z</time>
      </trkpt>
      <trkpt lat="43.50108" lon="6.64413">
        <ele>72.8</ele>
        <time>2025-10-28T07:31:59.000Z</time>
      </trkpt>
      <trkpt lat="43.50108" lon="6.64413">
        <ele>72.8</ele>
        <time>2025-10-28T07:32:00.000Z</time>
      </trkpt>
      <trkpt lat="43.50108" lon="6.64413">
        <ele>72.8</ele>
        <time>2025-10-28T07:32:01.000Z</time>
      </trkpt>
      <trkpt lat="43.50108" lon="6.64413">
        <ele>72.8</ele>
        <time>2025-10-28T07:32:02.000Z</time>
      </trkpt>
      <trkpt lat="43.50108" lon="6.64413">
        <ele>72.8</ele>
        <time>2025-10-28T07:32:03.000Z</time>
      </trkpt>
      <trkpt lat="43.50108" lon="6.64413">
        <ele>72.8</ele>
        <time>2025-10-28T07:32:04.000Z</time>
      </trkpt>
      <trkpt lat="43.50108" lon="6.64413">
        <ele>72.8</ele>
        <time>2025-10-28T07:32:05.000Z</time>
      </trkpt>
      <trkpt lat="43.50108" lon="6.64413">
        <ele>72.8</ele>
        <time>2025-10-28T07:32:06.000Z</time>
      </trkpt>
      <trkpt lat="43.50108" lon="6.64413">
        <ele>72.8</ele>
        <time>2025-10-28T07:32:07.000Z</time>
      </trkpt>
      <trkpt lat="43.50108" lon="6.64413">
        <ele>72.8</ele>
        <time>2025-10-28T07:32:08.000Z</time>
      </trkpt>
      <trkpt lat="43.50108" lon="6.64413">
        <ele>72.8</ele>
        <time>2025-10-28T07:32:09.000Z</time>
      </trkpt>
      <trkpt lat="43.50108" lon="6.64413">
        <ele>72.8</ele>
        <time>2025-10-28T07:32:10.000Z</time>
      </trkpt>
      <trkpt lat="43.50108" lon="6.64413">
        <ele>72.8</ele>
        <time>2025-10-28T07:32:11.000Z</time>
      </trkpt>
      <trkpt lat="43.50108" lon="6.64413">
        <ele>72.8</ele>
        <time>2025-10-28T07:32:12.000Z</time>
      </trkpt>
      <trkpt lat="43.50108" lon="6.64413">
        <ele>72.8</ele>
        <time>2025-10-28T07:32:13.000Z</time>
      </trkpt>
      <trkpt lat="43.50108" lon="6.64413">
        <ele>72.8</ele>
        <time>2025-10-28T07:32:14.000Z</time>
      </trkpt>
      <trkpt lat="43.50108" lon="6.64413">
        <ele>72.8</ele>
        <time>2025-10-28T07:32:15.000Z</time>
      </trkpt>
      <trkpt lat="43.50108" lon="6.64413">
        <ele>72.8</ele>
        <time>2025-10-28T07:32:16.000Z</time>
      </trkpt>
      <trkpt lat="43.50108" lon="6.64413">
        <ele>72.8</ele>
        <time>2025-10-28T07:32:17.000Z</time>
      </trkpt>
      <trkpt lat="43.50108" lon="6.64413">
        <ele>72.8</ele>
        <time>2025-10-28T07:32:18.000Z</time>
      </trkpt>
      <trkpt lat="43.50108" lon="6.64413">
        <ele>72.8</ele>
        <time>2025-10-28T07:32:19.000Z</time>
      </trkpt>
      <trkpt lat="43.50108" lon="6.64413">
        <ele>72.8</ele>
        <time>2025-10-28T07:32:20.000Z</time>
      </trkpt>
      <trkpt lat="43.50108" lon="6.64413">
        <ele>72.8</ele>
        <time>2025-10-28T07:32:21.000Z</time>
      </trkpt>
      <trkpt lat="43.50108" lon="6.64413">
        <ele>72.8</ele>
        <time>2025-10-28T07:32:22.000Z</time>
      </trkpt>
      <trkpt lat="43.50108" lon="6.64413">
        <ele>72.8</ele>
        <time>2025-10-28T07:32:23.000Z</time>
      </trkpt>
      <trkpt lat="43.50108" lon="6.64413">
        <ele>72.8</ele>
        <time>2025-10-28T07:32:24.000Z</time>
      </trkpt>
      <trkpt lat="43.50108" lon="6.64413">
        <ele>72.8</ele>
        <time>2025-10-28T07:32:25.000Z</time>
      </trkpt>
      <trkpt lat="43.50108" lon="6.64413">
        <ele>72.8</ele>
        <time>2025-10-28T07:32:26.000Z</time>
      </trkpt>
      <trkpt lat="43.50108" lon="6.64413">
        <ele>72.8</ele>
        <time>2025-10-28T07:32:27.000Z</time>
      </trkpt>
      <trkpt lat="43.50108" lon="6.64413">
        <ele>72.8</ele>
        <time>2025-10-28T07:32:28.000Z</time>
      </trkpt>
      <trkpt lat="43.50108" lon="6.64413">
        <ele>72.8</ele>
        <time>2025-10-28T07:32:29.000Z</time>
      </trkpt>
      <trkpt lat="43.50108" lon="6.64413">
        <ele>72.8</ele>
        <time>2025-10-28T07:32:30.000Z</time>
      </trkpt>
      <trkpt lat="43.50108" lon="6.64413">
        <ele>72.8</ele>
        <time>2025-10-28T07:32:31.000Z</time>
      </trkpt>
      <trkpt lat="43.50108" lon="6.64413">
        <ele>72.8</ele>
        <time>2025-10-28T07:32:32.000Z</time>
      </trkpt>
      <trkpt lat="43.50108" lon="6.64413">
        <ele>72.8</ele>
        <time>2025-10-28T07:32:33.000Z</time>
      </trkpt>
      <trkpt lat="43.50108" lon="6.64413">
        <ele>72.8</ele>
        <time>2025-10-28T07:32:34.000Z</time>
      </trkpt>
      <trkpt lat="43.50108" lon="6.64413">
        <ele>72.8</ele>
        <time>2025-10-28T07:32:35.000Z</time>
      </trkpt>
      <trkpt lat="43.50108" lon="6.64413">
        <ele>72.8</ele>
        <time>2025-10-28T07:32:36.000Z</time>
      </trkpt>
      <trkpt lat="43.50108" lon="6.64413">
        <ele>72.8</ele>
        <time>2025-10-28T07:32:37.000Z</time>
      </trkpt>
      <trkpt lat="43.50108" lon="6.64413">
        <ele>72.8</ele>
        <time>2025-10-28T07:32:38.000Z</time>
      </trkpt>
      <trkpt lat="43.50108" lon="6.64413">
        <ele>72.8</ele>
        <time>2025-10-28T07:32:39.000Z</time>
      </trkpt>
      <trkpt lat="43.50108" lon="6.64413">
        <ele>72.8</ele>
        <time>2025-10-28T07:32:40.000Z</time>
      </trkpt>
      <trkpt lat="43.50108" lon="6.64413">
        <ele>72.8</ele>
        <time>2025-10-28T07:32:41.000Z</time>
      </trkpt>
      <trkpt lat="43.50108" lon="6.64413">
        <ele>72.8</ele>
        <time>2025-10-28T07:32:42.000Z</time>
      </trkpt>
      <trkpt lat="43.50108" lon="6.64413">
        <ele>72.8</ele>
        <time>2025-10-28T07:32:43.000Z</time>
      </trkpt>
      <trkpt lat="43.50108" lon="6.64413">
        <ele>72.8</ele>
        <time>2025-10-28T07:32:44.000Z</time>
      </trkpt>
      <trkpt lat="43.50108" lon="6.64413">
        <ele>72.8</ele>
        <time>2025-10-28T07:32:45.000Z</time>
      </trkpt>
      <trkpt lat="43.50108" lon="6.64413">
        <ele>72.8</ele>
        <time>2025-10-28T07:32:46.000Z</time>
      </trkpt>
      <trkpt lat="43.50108" lon="6.64413">
        <ele>72.8</ele>
        <time>2025-10-28T07:32:47.000Z</time>
      </trkpt>
      <trkpt lat="43.50108" lon="6.64413">
        <ele>72.8</ele>
        <time>2025-10-28T07:32:48.000Z</time>
      </trkpt>
      <trkpt lat="43.50108" lon="6.64413">
        <ele>72.8</ele>
        <time>2025-10-28T07:32:49.000Z</time>
      </trkpt>
      <trkpt lat="43.50108" lon="6.64413">
        <ele>72.8</ele>
        <time>2025-10-28T07:32:50.000Z</time>
      </trkpt>
      <trkpt lat="43.50109" lon="6.64413">
        <ele>72.7</ele>
        <time>2025-10-28T07:32:51.000Z</time>
      </trkpt>
      <trkpt lat="43.5011" lon="6.64413">
        <ele>72.7</ele>
        <time>2025-10-28T07:32:52.000Z</time>
      </trkpt>
      <trkpt lat="43.50111" lon="6.64413">
        <ele>72.7</ele>
        <time>2025-10-28T07:32:53.000Z</time>
      </trkpt>
      <trkpt lat="43.50111" lon="6.64413">
        <ele>72.7</ele>
        <time>2025-10-28T07:32:54.000Z</time>
      </trkpt>
      <trkpt lat="43.50112" lon="6.64414">
        <ele>72.7</ele>
        <time>2025-10-28T07:32:55.000Z</time>
      </trkpt>
      <trkpt lat="43.50112" lon="6.64413">
        <ele>72.6</ele>
        <time>2025-10-28T07:32:56.000Z</time>
      </trkpt>
      <trkpt lat="43.50113" lon="6.64413">
        <ele>72.6</ele>
        <time>2025-10-28T07:32:57.000Z</time>
      </trkpt>
      <trkpt lat="43.50113" lon="6.64413">
        <ele>72.6</ele>
        <time>2025-10-28T07:32:58.000Z</time>
      </trkpt>
      <trkpt lat="43.50114" lon="6.64413">
        <ele>72.6</ele>
        <time>2025-10-28T07:32:59.000Z</time>
      </trkpt>
      <trkpt lat="43.50114" lon="6.64413">
        <ele>72.6</ele>
        <time>2025-10-28T07:33:00.000Z</time>
      </trkpt>
      <trkpt lat="43.50114" lon="6.64413">
        <ele>72.6</ele>
        <time>2025-10-28T07:33:01.000Z</time>
      </trkpt>
      <trkpt lat="43.50114" lon="6.64412">
        <ele>72.6</ele>
        <time>2025-10-28T07:33:02.000Z</time>
      </trkpt>
      <trkpt lat="43.50115" lon="6.64412">
        <ele>72.6</ele>
        <time>2025-10-28T07:33:03.000Z</time>
      </trkpt>
      <trkpt lat="43.50115" lon="6.64413">
        <ele>72.6</ele>
        <time>2025-10-28T07:33:04.000Z</time>
      </trkpt>
      <trkpt lat="43.50115" lon="6.64413">
        <ele>72.6</ele>
        <time>2025-10-28T07:33:05.000Z</time>
      </trkpt>
      <trkpt lat="43.50115" lon="6.64413">
        <ele>72.6</ele>
        <time>2025-10-28T07:33:06.000Z</time>
      </trkpt>
      <trkpt lat="43.50115" lon="6.64413">
        <ele>72.6</ele>
        <time>2025-10-28T07:33:07.000Z</time>
      </trkpt>
      <trkpt lat="43.50115" lon="6.64413">
        <ele>72.6</ele>
        <time>2025-10-28T07:33:08.000Z</time>
      </trkpt>
      <trkpt lat="43.50115" lon="6.64413">
        <ele>72.6</ele>
        <time>2025-10-28T07:33:09.000Z</time>
      </trkpt>
      <trkpt lat="43.50115" lon="6.64413">
        <ele>72.6</ele>
        <time>2025-10-28T07:33:10.000Z</time>
      </trkpt>
      <trkpt lat="43.50115" lon="6.64413">
        <ele>72.6</ele>
        <time>2025-10-28T07:33:11.000Z</time>
      </trkpt>
      <trkpt lat="43.50115" lon="6.64413">
        <ele>72.6</ele>
        <time>2025-10-28T07:33:12.000Z</time>
      </trkpt>
      <trkpt lat="43.50115" lon="6.64413">
        <ele>72.6</ele>
        <time>2025-10-28T07:33:13.000Z</time>
      </trkpt>
      <trkpt lat="43.50115" lon="6.64413">
        <ele>72.6</ele>
        <time>2025-10-28T07:33:14.000Z</time>
      </trkpt>
      <trkpt lat="43.50115" lon="6.64413">
        <ele>72.6</ele>
        <time>2025-10-28T07:33:15.000Z</time>
      </trkpt>
      <trkpt lat="43.50115" lon="6.64413">
        <ele>72.6</ele>
        <time>2025-10-28T07:33:16.000Z</time>
      </trkpt>
      <trkpt lat="43.50115" lon="6.64413">
        <ele>72.6</ele>
        <time>2025-10-28T07:33:17.000Z</time>
      </trkpt>
      <trkpt lat="43.50115" lon="6.64413">
        <ele>72.6</ele>
        <time>2025-10-28T07:33:18.000Z</time>
      </trkpt>
      <trkpt lat="43.50115" lon="6.64413">
        <ele>72.6</ele>
        <time>2025-10-28T07:33:19.000Z</time>
      </trkpt>
      <trkpt lat="43.50115" lon="6.64413">
        <ele>72.5</ele>
        <time>2025-10-28T07:33:20.000Z</time>
      </trkpt>
      <trkpt lat="43.50115" lon="6.64413">
        <ele>72.5</ele>
        <time>2025-10-28T07:33:21.000Z</time>
      </trkpt>
      <trkpt lat="43.50115" lon="6.64413">
        <ele>72.5</ele>
        <time>2025-10-28T07:33:22.000Z</time>
      </trkpt>
      <trkpt lat="43.50115" lon="6.64413">
        <ele>72.5</ele>
        <time>2025-10-28T07:33:23.000Z</time>
      </trkpt>
      <trkpt lat="43.50114" lon="6.64413">
        <ele>72.5</ele>
        <time>2025-10-28T07:33:24.000Z</time>
      </trkpt>
      <trkpt lat="43.50114" lon="6.64413">
        <ele>72.5</ele>
        <time>2025-10-28T07:33:25.000Z</time>
      </trkpt>
      <trkpt lat="43.50114" lon="6.64413">
        <ele>72.5</ele>
        <time>2025-10-28T07:33:26.000Z</time>
      </trkpt>
      <trkpt lat="43.50114" lon="6.64413">
        <ele>72.5</ele>
        <time>2025-10-28T07:33:27.000Z</time>
      </trkpt>
      <trkpt lat="43.50114" lon="6.64413">
        <ele>72.5</ele>
        <time>2025-10-28T07:33:28.000Z</time>
      </trkpt>
      <trkpt lat="43.50114" lon="6.64413">
        <ele>72.5</ele>
        <time>2025-10-28T07:33:29.000Z</time>
      </trkpt>
      <trkpt lat="43.50114" lon="6.64413">
        <ele>72.5</ele>
        <time>2025-10-28T07:33:30.000Z</time>
      </trkpt>
      <trkpt lat="43.50114" lon="6.64413">
        <ele>72.5</ele>
        <time>2025-10-28T07:33:31.000Z</time>
      </trkpt>
      <trkpt lat="43.50114" lon="6.64413">
        <ele>72.5</ele>
        <time>2025-10-28T07:33:32.000Z</time>
      </trkpt>
      <trkpt lat="43.50114" lon="6.64413">
        <ele>72.5</ele>
        <time>2025-10-28T07:33:33.000Z</time>
      </trkpt>
      <trkpt lat="43.50114" lon="6.64413">
        <ele>72.5</ele>
        <time>2025-10-28T07:33:34.000Z</time>
      </trkpt>
      <trkpt lat="43.50114" lon="6.64413">
        <ele>72.5</ele>
        <time>2025-10-28T07:33:35.000Z</time>
      </trkpt>
      <trkpt lat="43.50114" lon="6.64413">
        <ele>72.5</ele>
        <time>2025-10-28T07:33:36.000Z</time>
      </trkpt>
      <trkpt lat="43.50114" lon="6.64413">
        <ele>72.5</ele>
        <time>2025-10-28T07:33:37.000Z</time>
      </trkpt>
      <trkpt lat="43.50114" lon="6.64413">
        <ele>72.5</ele>
        <time>2025-10-28T07:33:38.000Z</time>
      </trkpt>
      <trkpt lat="43.50114" lon="6.64413">
        <ele>72.5</ele>
        <time>2025-10-28T07:33:39.000Z</time>
      </trkpt>
      <trkpt lat="43.50114" lon="6.64413">
        <ele>72.5</ele>
        <time>2025-10-28T07:33:40.000Z</time>
      </trkpt>
      <trkpt lat="43.50114" lon="6.64413">
        <ele>72.5</ele>
        <time>2025-10-28T07:33:41.000Z</time>
      </trkpt>
      <trkpt lat="43.50114" lon="6.64413">
        <ele>72.5</ele>
        <time>2025-10-28T07:33:42.000Z</time>
      </trkpt>
      <trkpt lat="43.50114" lon="6.64413">
        <ele>72.5</ele>
        <time>2025-10-28T07:33:43.000Z</time>
      </trkpt>
      <trkpt lat="43.50114" lon="6.64413">
        <ele>72.5</ele>
        <time>2025-10-28T07:33:44.000Z</time>
      </trkpt>
      <trkpt lat="43.50114" lon="6.64413">
        <ele>72.5</ele>
        <time>2025-10-28T07:33:45.000Z</time>
      </trkpt>
      <trkpt lat="43.50114" lon="6.64413">
        <ele>72.5</ele>
        <time>2025-10-28T07:33:46.000Z</time>
      </trkpt>
      <trkpt lat="43.50114" lon="6.64413">
        <ele>72.5</ele>
        <time>2025-10-28T07:33:47.000Z</time>
      </trkpt>
      <trkpt lat="43.50114" lon="6.64413">
        <ele>72.5</ele>
        <time>2025-10-28T07:33:48.000Z</time>
      </trkpt>
      <trkpt lat="43.50114" lon="6.64413">
        <ele>72.5</ele>
        <time>2025-10-28T07:33:49.000Z</time>
      </trkpt>
      <trkpt lat="43.50114" lon="6.64413">
        <ele>72.5</ele>
        <time>2025-10-28T07:33:50.000Z</time>
      </trkpt>
      <trkpt lat="43.50114" lon="6.64412">
        <ele>72.5</ele>
        <time>2025-10-28T07:33:51.000Z</time>
      </trkpt>
      <trkpt lat="43.50112" lon="6.6441">
        <ele>72.4</ele>
        <time>2025-10-28T07:33:52.000Z</time>
      </trkpt>
      <trkpt lat="43.50111" lon="6.64409">
        <ele>72.4</ele>
        <time>2025-10-28T07:33:53.000Z</time>
      </trkpt>
      <trkpt lat="43.5011" lon="6.64408">
        <ele>72.4</ele>
        <time>2025-10-28T07:33:54.000Z</time>
      </trkpt>
      <trkpt lat="43.5011" lon="6.64406">
        <ele>72.3</ele>
        <time>2025-10-28T07:33:55.000Z</time>
      </trkpt>
      <trkpt lat="43.50109" lon="6.64405">
        <ele>72.3</ele>
        <time>2025-10-28T07:33:56.000Z</time>
      </trkpt>
      <trkpt lat="43.50109" lon="6.64405">
        <ele>72.3</ele>
        <time>2025-10-28T07:33:57.000Z</time>
      </trkpt>
      <trkpt lat="43.50108" lon="6.64404">
        <ele>72.3</ele>
        <time>2025-10-28T07:33:58.000Z</time>
      </trkpt>
      <trkpt lat="43.50108" lon="6.64403">
        <ele>72.3</ele>
        <time>2025-10-28T07:33:59.000Z</time>
      </trkpt>
      <trkpt lat="43.50106" lon="6.64402">
        <ele>72.2</ele>
        <time>2025-10-28T07:34:00.000Z</time>
      </trkpt>
      <trkpt lat="43.50105" lon="6.64401">
        <ele>72.2</ele>
        <time>2025-10-28T07:34:01.000Z</time>
      </trkpt>
      <trkpt lat="43.50103" lon="6.64399">
        <ele>72.1</ele>
        <time>2025-10-28T07:34:02.000Z</time>
      </trkpt>
      <trkpt lat="43.501" lon="6.64398">
        <ele>72.1</ele>
        <time>2025-10-28T07:34:03.000Z</time>
      </trkpt>
      <trkpt lat="43.50098" lon="6.64398">
        <ele>72.2</ele>
        <time>2025-10-28T07:34:04.000Z</time>
      </trkpt>
      <trkpt lat="43.50095" lon="6.644">
        <ele>72.2</ele>
        <time>2025-10-28T07:34:05.000Z</time>
      </trkpt>
      <trkpt lat="43.50093" lon="6.64401">
        <ele>72.2</ele>
        <time>2025-10-28T07:34:06.000Z</time>
      </trkpt>
      <trkpt lat="43.5009" lon="6.64402">
        <ele>72.3</ele>
        <time>2025-10-28T07:34:07.000Z</time>
      </trkpt>
      <trkpt lat="43.50088" lon="6.64403">
        <ele>72.3</ele>
        <time>2025-10-28T07:34:08.000Z</time>
      </trkpt>
      <trkpt lat="43.50086" lon="6.64403">
        <ele>72.3</ele>
        <time>2025-10-28T07:34:09.000Z</time>
      </trkpt>
      <trkpt lat="43.50084" lon="6.64402">
        <ele>72.4</ele>
        <time>2025-10-28T07:34:10.000Z</time>
      </trkpt>
      <trkpt lat="43.50081" lon="6.644">
        <ele>72.4</ele>
        <time>2025-10-28T07:34:11.000Z</time>
      </trkpt>
      <trkpt lat="43.50079" lon="6.64398">
        <ele>72.4</ele>
        <time>2025-10-28T07:34:12.000Z</time>
      </trkpt>
      <trkpt lat="43.50077" lon="6.64396">
        <ele>72.4</ele>
        <time>2025-10-28T07:34:13.000Z</time>
      </trkpt>
      <trkpt lat="43.50075" lon="6.64394">
        <ele>72.4</ele>
        <time>2025-10-28T07:34:14.000Z</time>
      </trkpt>
      <trkpt lat="43.50072" lon="6.64392">
        <ele>72.4</ele>
        <time>2025-10-28T07:34:15.000Z</time>
      </trkpt>
      <trkpt lat="43.5007" lon="6.6439">
        <ele>72.4</ele>
        <time>2025-10-28T07:34:16.000Z</time>
      </trkpt>
      <trkpt lat="43.50068" lon="6.64388">
        <ele>72.4</ele>
        <time>2025-10-28T07:34:17.000Z</time>
      </trkpt>
      <trkpt lat="43.50065" lon="6.64386">
        <ele>72.4</ele>
        <time>2025-10-28T07:34:18.000Z</time>
      </trkpt>
      <trkpt lat="43.50063" lon="6.64384">
        <ele>72.4</ele>
        <time>2025-10-28T07:34:19.000Z</time>
      </trkpt>
      <trkpt lat="43.5006" lon="6.64382">
        <ele>72.3</ele>
        <time>2025-10-28T07:34:20.000Z</time>
      </trkpt>
      <trkpt lat="43.50058" lon="6.64381">
        <ele>72.3</ele>
        <time>2025-10-28T07:34:21.000Z</time>
      </trkpt>
      <trkpt lat="43.50055" lon="6.64379">
        <ele>72.3</ele>
        <time>2025-10-28T07:34:22.000Z</time>
      </trkpt>
      <trkpt lat="43.50052" lon="6.64377">
        <ele>72.2</ele>
        <time>2025-10-28T07:34:23.000Z</time>
      </trkpt>
      <trkpt lat="43.5005" lon="6.64376">
        <ele>72.2</ele>
        <time>2025-10-28T07:34:24.000Z</time>
      </trkpt>
      <trkpt lat="43.50046" lon="6.64375">
        <ele>72.1</ele>
        <time>2025-10-28T07:34:25.000Z</time>
      </trkpt>
      <trkpt lat="43.50043" lon="6.64374">
        <ele>72</ele>
        <time>2025-10-28T07:34:26.000Z</time>
      </trkpt>
      <trkpt lat="43.5004" lon="6.64373">
        <ele>72</ele>
        <time>2025-10-28T07:34:27.000Z</time>
      </trkpt>
      <trkpt lat="43.50038" lon="6.64373">
        <ele>71.9</ele>
        <time>2025-10-28T07:34:28.000Z</time>
      </trkpt>
      <trkpt lat="43.50035" lon="6.64371">
        <ele>71.8</ele>
        <time>2025-10-28T07:34:29.000Z</time>
      </trkpt>
      <trkpt lat="43.50032" lon="6.6437">
        <ele>71.7</ele>
        <time>2025-10-28T07:34:30.000Z</time>
      </trkpt>
      <trkpt lat="43.50029" lon="6.64369">
        <ele>71.6</ele>
        <time>2025-10-28T07:34:31.000Z</time>
      </trkpt>
      <trkpt lat="43.50025" lon="6.64368">
        <ele>71.5</ele>
        <time>2025-10-28T07:34:32.000Z</time>
      </trkpt>
      <trkpt lat="43.50022" lon="6.64367">
        <ele>71.4</ele>
        <time>2025-10-28T07:34:33.000Z</time>
      </trkpt>
      <trkpt lat="43.50018" lon="6.64365">
        <ele>71.3</ele>
        <time>2025-10-28T07:34:34.000Z</time>
      </trkpt>
      <trkpt lat="43.50014" lon="6.64364">
        <ele>71.2</ele>
        <time>2025-10-28T07:34:35.000Z</time>
      </trkpt>
      <trkpt lat="43.50011" lon="6.64363">
        <ele>71.1</ele>
        <time>2025-10-28T07:34:36.000Z</time>
      </trkpt>
      <trkpt lat="43.50008" lon="6.64362">
        <ele>71.1</ele>
        <time>2025-10-28T07:34:37.000Z</time>
      </trkpt>
      <trkpt lat="43.50005" lon="6.6436">
        <ele>70.9</ele>
        <time>2025-10-28T07:34:38.000Z</time>
      </trkpt>
      <trkpt lat="43.50001" lon="6.64358">
        <ele>70.7</ele>
        <time>2025-10-28T07:34:39.000Z</time>
      </trkpt>
      <trkpt lat="43.49998" lon="6.64354">
        <ele>70.5</ele>
        <time>2025-10-28T07:34:40.000Z</time>
      </trkpt>
      <trkpt lat="43.49997" lon="6.64351">
        <ele>70.6</ele>
        <time>2025-10-28T07:34:41.000Z</time>
      </trkpt>
      <trkpt lat="43.49995" lon="6.64345">
        <ele>70.7</ele>
        <time>2025-10-28T07:34:42.000Z</time>
      </trkpt>
      <trkpt lat="43.49995" lon="6.6434">
        <ele>70.6</ele>
        <time>2025-10-28T07:34:43.000Z</time>
      </trkpt>
      <trkpt lat="43.49996" lon="6.64334">
        <ele>70.4</ele>
        <time>2025-10-28T07:34:44.000Z</time>
      </trkpt>
      <trkpt lat="43.49997" lon="6.64328">
        <ele>70.1</ele>
        <time>2025-10-28T07:34:45.000Z</time>
      </trkpt>
      <trkpt lat="43.49999" lon="6.64323">
        <ele>69.9</ele>
        <time>2025-10-28T07:34:46.000Z</time>
      </trkpt>
      <trkpt lat="43.5" lon="6.64318">
        <ele>69.8</ele>
        <time>2025-10-28T07:34:47.000Z</time>
      </trkpt>
      <trkpt lat="43.50002" lon="6.64312">
        <ele>69.6</ele>
        <time>2025-10-28T07:34:48.000Z</time>
      </trkpt>
      <trkpt lat="43.50004" lon="6.64306">
        <ele>69.5</ele>
        <time>2025-10-28T07:34:49.000Z</time>
      </trkpt>
      <trkpt lat="43.50005" lon="6.64301">
        <ele>69.4</ele>
        <time>2025-10-28T07:34:50.000Z</time>
      </trkpt>
      <trkpt lat="43.50006" lon="6.64296">
        <ele>69.4</ele>
        <time>2025-10-28T07:34:51.000Z</time>
      </trkpt>
      <trkpt lat="43.50008" lon="6.6429">
        <ele>69.3</ele>
        <time>2025-10-28T07:34:52.000Z</time>
      </trkpt>
      <trkpt lat="43.50009" lon="6.64285">
        <ele>69.2</ele>
        <time>2025-10-28T07:34:53.000Z</time>
      </trkpt>
      <trkpt lat="43.50011" lon="6.64279">
        <ele>69.1</ele>
        <time>2025-10-28T07:34:54.000Z</time>
      </trkpt>
      <trkpt lat="43.50012" lon="6.64273">
        <ele>69</ele>
        <time>2025-10-28T07:34:55.000Z</time>
      </trkpt>
      <trkpt lat="43.50013" lon="6.64267">
        <ele>68.9</ele>
        <time>2025-10-28T07:34:56.000Z</time>
      </trkpt>
      <trkpt lat="43.50014" lon="6.64261">
        <ele>68.8</ele>
        <time>2025-10-28T07:34:57.000Z</time>
      </trkpt>
      <trkpt lat="43.50013" lon="6.64255">
        <ele>68.6</ele>
        <time>2025-10-28T07:34:58.000Z</time>
      </trkpt>
      <trkpt lat="43.50013" lon="6.64249">
        <ele>68.4</ele>
        <time>2025-10-28T07:34:59.000Z</time>
      </trkpt>
      <trkpt lat="43.50012" lon="6.64243">
        <ele>68.2</ele>
        <time>2025-10-28T07:35:00.000Z</time>
      </trkpt>
      <trkpt lat="43.5001" lon="6.64237">
        <ele>67.9</ele>
        <time>2025-10-28T07:35:01.000Z</time>
      </trkpt>
      <trkpt lat="43.50008" lon="6.64231">
        <ele>67.5</ele>
        <time>2025-10-28T07:35:02.000Z</time>
      </trkpt>
      <trkpt lat="43.50005" lon="6.64225">
        <ele>67.1</ele>
        <time>2025-10-28T07:35:03.000Z</time>
      </trkpt>
      <trkpt lat="43.50001" lon="6.64219">
        <ele>66.6</ele>
        <time>2025-10-28T07:35:04.000Z</time>
      </trkpt>
      <trkpt lat="43.49997" lon="6.64213">
        <ele>66.1</ele>
        <time>2025-10-28T07:35:05.000Z</time>
      </trkpt>
      <trkpt lat="43.49993" lon="6.64207">
        <ele>65.6</ele>
        <time>2025-10-28T07:35:06.000Z</time>
      </trkpt>
      <trkpt lat="43.49988" lon="6.64201">
        <ele>65.1</ele>
        <time>2025-10-28T07:35:07.000Z</time>
      </trkpt>
      <trkpt lat="43.49984" lon="6.64196">
        <ele>64.6</ele>
        <time>2025-10-28T07:35:08.000Z</time>
      </trkpt>
      <trkpt lat="43.49979" lon="6.6419">
        <ele>64.2</ele>
        <time>2025-10-28T07:35:09.000Z</time>
      </trkpt>
      <trkpt lat="43.49975" lon="6.64185">
        <ele>63.9</ele>
        <time>2025-10-28T07:35:10.000Z</time>
      </trkpt>
      <trkpt lat="43.49969" lon="6.64178">
        <ele>63.5</ele>
        <time>2025-10-28T07:35:11.000Z</time>
      </trkpt>
      <trkpt lat="43.49964" lon="6.64173">
        <ele>63.2</ele>
        <time>2025-10-28T07:35:12.000Z</time>
      </trkpt>
      <trkpt lat="43.4996" lon="6.64167">
        <ele>62.9</ele>
        <time>2025-10-28T07:35:13.000Z</time>
      </trkpt>
      <trkpt lat="43.49955" lon="6.64161">
        <ele>62.6</ele>
        <time>2025-10-28T07:35:14.000Z</time>
      </trkpt>
      <trkpt lat="43.49951" lon="6.64154">
        <ele>62.4</ele>
        <time>2025-10-28T07:35:15.000Z</time>
      </trkpt>
      <trkpt lat="43.49947" lon="6.64148">
        <ele>62.2</ele>
        <time>2025-10-28T07:35:16.000Z</time>
      </trkpt>
      <trkpt lat="43.49943" lon="6.64141">
        <ele>62</ele>
        <time>2025-10-28T07:35:17.000Z</time>
      </trkpt>
      <trkpt lat="43.4994" lon="6.64134">
        <ele>61.8</ele>
        <time>2025-10-28T07:35:18.000Z</time>
      </trkpt>
      <trkpt lat="43.49936" lon="6.64127">
        <ele>61.5</ele>
        <time>2025-10-28T07:35:19.000Z</time>
      </trkpt>
      <trkpt lat="43.49933" lon="6.6412">
        <ele>61.3</ele>
        <time>2025-10-28T07:35:20.000Z</time>
      </trkpt>
      <trkpt lat="43.49929" lon="6.64114">
        <ele>60.9</ele>
        <time>2025-10-28T07:35:21.000Z</time>
      </trkpt>
      <trkpt lat="43.49926" lon="6.64107">
        <ele>60.5</ele>
        <time>2025-10-28T07:35:22.000Z</time>
      </trkpt>
      <trkpt lat="43.49923" lon="6.64099">
        <ele>60</ele>
        <time>2025-10-28T07:35:23.000Z</time>
      </trkpt>
      <trkpt lat="43.49919" lon="6.64091">
        <ele>59.4</ele>
        <time>2025-10-28T07:35:24.000Z</time>
      </trkpt>
      <trkpt lat="43.49916" lon="6.64084">
        <ele>58.9</ele>
        <time>2025-10-28T07:35:25.000Z</time>
      </trkpt>
      <trkpt lat="43.49913" lon="6.64075">
        <ele>58.3</ele>
        <time>2025-10-28T07:35:26.000Z</time>
      </trkpt>
      <trkpt lat="43.4991" lon="6.64067">
        <ele>57.8</ele>
        <time>2025-10-28T07:35:27.000Z</time>
      </trkpt>
      <trkpt lat="43.49908" lon="6.64059">
        <ele>57.3</ele>
        <time>2025-10-28T07:35:28.000Z</time>
      </trkpt>
      <trkpt lat="43.49905" lon="6.6405">
        <ele>56.9</ele>
        <time>2025-10-28T07:35:29.000Z</time>
      </trkpt>
      <trkpt lat="43.49902" lon="6.64042">
        <ele>56.5</ele>
        <time>2025-10-28T07:35:30.000Z</time>
      </trkpt>
      <trkpt lat="43.499" lon="6.64035">
        <ele>56.1</ele>
        <time>2025-10-28T07:35:31.000Z</time>
      </trkpt>
      <trkpt lat="43.49898" lon="6.64027">
        <ele>55.8</ele>
        <time>2025-10-28T07:35:32.000Z</time>
      </trkpt>
      <trkpt lat="43.49896" lon="6.6402">
        <ele>55.5</ele>
        <time>2025-10-28T07:35:33.000Z</time>
      </trkpt>
      <trkpt lat="43.49894" lon="6.64013">
        <ele>55.2</ele>
        <time>2025-10-28T07:35:34.000Z</time>
      </trkpt>
      <trkpt lat="43.49892" lon="6.64006">
        <ele>54.9</ele>
        <time>2025-10-28T07:35:35.000Z</time>
      </trkpt>
      <trkpt lat="43.49891" lon="6.63999">
        <ele>54.7</ele>
        <time>2025-10-28T07:35:36.000Z</time>
      </trkpt>
      <trkpt lat="43.49889" lon="6.63992">
        <ele>54.4</ele>
        <time>2025-10-28T07:35:37.000Z</time>
      </trkpt>
      <trkpt lat="43.49887" lon="6.63984">
        <ele>54.2</ele>
        <time>2025-10-28T07:35:38.000Z</time>
      </trkpt>
      <trkpt lat="43.49886" lon="6.63976">
        <ele>54</ele>
        <time>2025-10-28T07:35:39.000Z</time>
      </trkpt>
      <trkpt lat="43.49885" lon="6.63968">
        <ele>53.8</ele>
        <time>2025-10-28T07:35:40.000Z</time>
      </trkpt>
      <trkpt lat="43.49885" lon="6.6396">
        <ele>53.6</ele>
        <time>2025-10-28T07:35:41.000Z</time>
      </trkpt>
      <trkpt lat="43.49885" lon="6.63952">
        <ele>53.5</ele>
        <time>2025-10-28T07:35:42.000Z</time>
      </trkpt>
      <trkpt lat="43.49885" lon="6.63944">
        <ele>53.4</ele>
        <time>2025-10-28T07:35:43.000Z</time>
      </trkpt>
      <trkpt lat="43.49886" lon="6.63937">
        <ele>53.3</ele>
        <time>2025-10-28T07:35:44.000Z</time>
      </trkpt>
      <trkpt lat="43.49887" lon="6.6393">
        <ele>53.2</ele>
        <time>2025-10-28T07:35:45.000Z</time>
      </trkpt>
      <trkpt lat="43.49889" lon="6.63922">
        <ele>53.2</ele>
        <time>2025-10-28T07:35:46.000Z</time>
      </trkpt>
      <trkpt lat="43.49891" lon="6.63915">
        <ele>53.1</ele>
        <time>2025-10-28T07:35:47.000Z</time>
      </trkpt>
      <trkpt lat="43.49893" lon="6.63908">
        <ele>53.1</ele>
        <time>2025-10-28T07:35:48.000Z</time>
      </trkpt>
      <trkpt lat="43.49896" lon="6.63901">
        <ele>53.1</ele>
        <time>2025-10-28T07:35:49.000Z</time>
      </trkpt>
      <trkpt lat="43.49898" lon="6.63895">
        <ele>53.1</ele>
        <time>2025-10-28T07:35:50.000Z</time>
      </trkpt>
      <trkpt lat="43.49899" lon="6.63889">
        <ele>52.8</ele>
        <time>2025-10-28T07:35:51.000Z</time>
      </trkpt>
      <trkpt lat="43.49899" lon="6.63884">
        <ele>52.6</ele>
        <time>2025-10-28T07:35:52.000Z</time>
      </trkpt>
      <trkpt lat="43.49899" lon="6.6388">
        <ele>52.4</ele>
        <time>2025-10-28T07:35:53.000Z</time>
      </trkpt>
      <trkpt lat="43.49897" lon="6.63876">
        <ele>52.3</ele>
        <time>2025-10-28T07:35:54.000Z</time>
      </trkpt>
      <trkpt lat="43.49895" lon="6.63873">
        <ele>52.1</ele>
        <time>2025-10-28T07:35:55.000Z</time>
      </trkpt>
      <trkpt lat="43.49892" lon="6.63869">
        <ele>51.9</ele>
        <time>2025-10-28T07:35:56.000Z</time>
      </trkpt>
      <trkpt lat="43.4989" lon="6.63865">
        <ele>51.8</ele>
        <time>2025-10-28T07:35:57.000Z</time>
      </trkpt>
      <trkpt lat="43.49889" lon="6.6386">
        <ele>51.7</ele>
        <time>2025-10-28T07:35:58.000Z</time>
      </trkpt>
      <trkpt lat="43.49888" lon="6.63854">
        <ele>51.6</ele>
        <time>2025-10-28T07:35:59.000Z</time>
      </trkpt>
      <trkpt lat="43.49888" lon="6.63848">
        <ele>51.6</ele>
        <time>2025-10-28T07:36:00.000Z</time>
      </trkpt>
      <trkpt lat="43.49888" lon="6.63843">
        <ele>51.6</ele>
        <time>2025-10-28T07:36:01.000Z</time>
      </trkpt>
      <trkpt lat="43.49889" lon="6.63837">
        <ele>51.5</ele>
        <time>2025-10-28T07:36:02.000Z</time>
      </trkpt>
      <trkpt lat="43.49891" lon="6.63832">
        <ele>51.5</ele>
        <time>2025-10-28T07:36:03.000Z</time>
      </trkpt>
      <trkpt lat="43.49892" lon="6.63826">
        <ele>51.5</ele>
        <time>2025-10-28T07:36:04.000Z</time>
      </trkpt>
      <trkpt lat="43.49893" lon="6.63821">
        <ele>51.5</ele>
        <time>2025-10-28T07:36:05.000Z</time>
      </trkpt>
      <trkpt lat="43.49893" lon="6.63815">
        <ele>51.5</ele>
        <time>2025-10-28T07:36:06.000Z</time>
      </trkpt>
      <trkpt lat="43.49894" lon="6.6381">
        <ele>51.6</ele>
        <time>2025-10-28T07:36:07.000Z</time>
      </trkpt>
      <trkpt lat="43.49895" lon="6.63804">
        <ele>51.7</ele>
        <time>2025-10-28T07:36:08.000Z</time>
      </trkpt>
      <trkpt lat="43.49896" lon="6.63799">
        <ele>51.8</ele>
        <time>2025-10-28T07:36:09.000Z</time>
      </trkpt>
      <trkpt lat="43.49897" lon="6.63793">
        <ele>51.9</ele>
        <time>2025-10-28T07:36:10.000Z</time>
      </trkpt>
      <trkpt lat="43.49898" lon="6.63788">
        <ele>52.1</ele>
        <time>2025-10-28T07:36:11.000Z</time>
      </trkpt>
      <trkpt lat="43.49899" lon="6.63783">
        <ele>52.3</ele>
        <time>2025-10-28T07:36:12.000Z</time>
      </trkpt>
      <trkpt lat="43.499" lon="6.63778">
        <ele>52.5</ele>
        <time>2025-10-28T07:36:13.000Z</time>
      </trkpt>
      <trkpt lat="43.49902" lon="6.63774">
        <ele>52.6</ele>
        <time>2025-10-28T07:36:14.000Z</time>
      </trkpt>
      <trkpt lat="43.49904" lon="6.6377">
        <ele>52.8</ele>
        <time>2025-10-28T07:36:15.000Z</time>
      </trkpt>
      <trkpt lat="43.49906" lon="6.63766">
        <ele>52.9</ele>
        <time>2025-10-28T07:36:16.000Z</time>
      </trkpt>
      <trkpt lat="43.49908" lon="6.63763">
        <ele>53</ele>
        <time>2025-10-28T07:36:17.000Z</time>
      </trkpt>
      <trkpt lat="43.4991" lon="6.6376">
        <ele>53.1</ele>
        <time>2025-10-28T07:36:18.000Z</time>
      </trkpt>
      <trkpt lat="43.49912" lon="6.63757">
        <ele>53.1</ele>
        <time>2025-10-28T07:36:19.000Z</time>
      </trkpt>
      <trkpt lat="43.49914" lon="6.63755">
        <ele>53.2</ele>
        <time>2025-10-28T07:36:20.000Z</time>
      </trkpt>
      <trkpt lat="43.49916" lon="6.63752">
        <ele>53.2</ele>
        <time>2025-10-28T07:36:21.000Z</time>
      </trkpt>
      <trkpt lat="43.49919" lon="6.63749">
        <ele>53.2</ele>
        <time>2025-10-28T07:36:22.000Z</time>
      </trkpt>
      <trkpt lat="43.49921" lon="6.63745">
        <ele>53.2</ele>
        <time>2025-10-28T07:36:23.000Z</time>
      </trkpt>
      <trkpt lat="43.49923" lon="6.63741">
        <ele>53.2</ele>
        <time>2025-10-28T07:36:24.000Z</time>
      </trkpt>
      <trkpt lat="43.49924" lon="6.63737">
        <ele>53.2</ele>
        <time>2025-10-28T07:36:25.000Z</time>
      </trkpt>
      <trkpt lat="43.49925" lon="6.63733">
        <ele>53.1</ele>
        <time>2025-10-28T07:36:26.000Z</time>
      </trkpt>
      <trkpt lat="43.49926" lon="6.63729">
        <ele>53.1</ele>
        <time>2025-10-28T07:36:27.000Z</time>
      </trkpt>
      <trkpt lat="43.49926" lon="6.63724">
        <ele>53</ele>
        <time>2025-10-28T07:36:28.000Z</time>
      </trkpt>
      <trkpt lat="43.49924" lon="6.6372">
        <ele>52.9</ele>
        <time>2025-10-28T07:36:29.000Z</time>
      </trkpt>
      <trkpt lat="43.49922" lon="6.63717">
        <ele>52.9</ele>
        <time>2025-10-28T07:36:30.000Z</time>
      </trkpt>
      <trkpt lat="43.4992" lon="6.63713">
        <ele>52.8</ele>
        <time>2025-10-28T07:36:31.000Z</time>
      </trkpt>
      <trkpt lat="43.49917" lon="6.6371">
        <ele>52.8</ele>
        <time>2025-10-28T07:36:32.000Z</time>
      </trkpt>
      <trkpt lat="43.49914" lon="6.63707">
        <ele>52.7</ele>
        <time>2025-10-28T07:36:33.000Z</time>
      </trkpt>
      <trkpt lat="43.49911" lon="6.63705">
        <ele>52.7</ele>
        <time>2025-10-28T07:36:34.000Z</time>
      </trkpt>
      <trkpt lat="43.49908" lon="6.63703">
        <ele>52.7</ele>
        <time>2025-10-28T07:36:35.000Z</time>
      </trkpt>
      <trkpt lat="43.49905" lon="6.63702">
        <ele>52.7</ele>
        <time>2025-10-28T07:36:36.000Z</time>
      </trkpt>
      <trkpt lat="43.49901" lon="6.63701">
        <ele>52.6</ele>
        <time>2025-10-28T07:36:37.000Z</time>
      </trkpt>
      <trkpt lat="43.49897" lon="6.63699">
        <ele>52.6</ele>
        <time>2025-10-28T07:36:38.000Z</time>
      </trkpt>
      <trkpt lat="43.49894" lon="6.63698">
        <ele>52.6</ele>
        <time>2025-10-28T07:36:39.000Z</time>
      </trkpt>
      <trkpt lat="43.4989" lon="6.63695">
        <ele>52.6</ele>
        <time>2025-10-28T07:36:40.000Z</time>
      </trkpt>
      <trkpt lat="43.49887" lon="6.63692">
        <ele>52.6</ele>
        <time>2025-10-28T07:36:41.000Z</time>
      </trkpt>
      <trkpt lat="43.49884" lon="6.63689">
        <ele>52.6</ele>
        <time>2025-10-28T07:36:42.000Z</time>
      </trkpt>
      <trkpt lat="43.49882" lon="6.63685">
        <ele>52.5</ele>
        <time>2025-10-28T07:36:43.000Z</time>
      </trkpt>
      <trkpt lat="43.4988" lon="6.6368">
        <ele>52.5</ele>
        <time>2025-10-28T07:36:44.000Z</time>
      </trkpt>
      <trkpt lat="43.49879" lon="6.63674">
        <ele>52.4</ele>
        <time>2025-10-28T07:36:45.000Z</time>
      </trkpt>
      <trkpt lat="43.49878" lon="6.63669">
        <ele>52.4</ele>
        <time>2025-10-28T07:36:46.000Z</time>
      </trkpt>
      <trkpt lat="43.49876" lon="6.63664">
        <ele>52.3</ele>
        <time>2025-10-28T07:36:47.000Z</time>
      </trkpt>
      <trkpt lat="43.49874" lon="6.63659">
        <ele>52.3</ele>
        <time>2025-10-28T07:36:48.000Z</time>
      </trkpt>
      <trkpt lat="43.49872" lon="6.63654">
        <ele>52.2</ele>
        <time>2025-10-28T07:36:49.000Z</time>
      </trkpt>
      <trkpt lat="43.4987" lon="6.63649">
        <ele>52.2</ele>
        <time>2025-10-28T07:36:50.000Z</time>
      </trkpt>
      <trkpt lat="43.49868" lon="6.63644">
        <ele>52.1</ele>
        <time>2025-10-28T07:36:51.000Z</time>
      </trkpt>
      <trkpt lat="43.49866" lon="6.63639">
        <ele>52</ele>
        <time>2025-10-28T07:36:52.000Z</time>
      </trkpt>
      <trkpt lat="43.49864" lon="6.63634">
        <ele>52</ele>
        <time>2025-10-28T07:36:53.000Z</time>
      </trkpt>
      <trkpt lat="43.49861" lon="6.6363">
        <ele>51.9</ele>
        <time>2025-10-28T07:36:54.000Z</time>
      </trkpt>
      <trkpt lat="43.49859" lon="6.63625">
        <ele>51.9</ele>
        <time>2025-10-28T07:36:55.000Z</time>
      </trkpt>
      <trkpt lat="43.49857" lon="6.6362">
        <ele>51.8</ele>
        <time>2025-10-28T07:36:56.000Z</time>
      </trkpt>
      <trkpt lat="43.49855" lon="6.63616">
        <ele>51.8</ele>
        <time>2025-10-28T07:36:57.000Z</time>
      </trkpt>
      <trkpt lat="43.49853" lon="6.63612">
        <ele>51.7</ele>
        <time>2025-10-28T07:36:58.000Z</time>
      </trkpt>
      <trkpt lat="43.49851" lon="6.63607">
        <ele>51.7</ele>
        <time>2025-10-28T07:36:59.000Z</time>
      </trkpt>
      <trkpt lat="43.49849" lon="6.63604">
        <ele>51.7</ele>
        <time>2025-10-28T07:37:00.000Z</time>
      </trkpt>
      <trkpt lat="43.49846" lon="6.63599">
        <ele>51.6</ele>
        <time>2025-10-28T07:37:01.000Z</time>
      </trkpt>
      <trkpt lat="43.49844" lon="6.63596">
        <ele>51.6</ele>
        <time>2025-10-28T07:37:02.000Z</time>
      </trkpt>
      <trkpt lat="43.49841" lon="6.63593">
        <ele>51.6</ele>
        <time>2025-10-28T07:37:03.000Z</time>
      </trkpt>
      <trkpt lat="43.49837" lon="6.63592">
        <ele>51.5</ele>
        <time>2025-10-28T07:37:04.000Z</time>
      </trkpt>
      <trkpt lat="43.49834" lon="6.63591">
        <ele>51.5</ele>
        <time>2025-10-28T07:37:05.000Z</time>
      </trkpt>
      <trkpt lat="43.4983" lon="6.63591">
        <ele>51.4</ele>
        <time>2025-10-28T07:37:06.000Z</time>
      </trkpt>
      <trkpt lat="43.49827" lon="6.6359">
        <ele>51.3</ele>
        <time>2025-10-28T07:37:07.000Z</time>
      </trkpt>
      <trkpt lat="43.49823" lon="6.63587">
        <ele>51.3</ele>
        <time>2025-10-28T07:37:08.000Z</time>
      </trkpt>
      <trkpt lat="43.49819" lon="6.63586">
        <ele>51.2</ele>
        <time>2025-10-28T07:37:09.000Z</time>
      </trkpt>
      <trkpt lat="43.49814" lon="6.63585">
        <ele>51.1</ele>
        <time>2025-10-28T07:37:10.000Z</time>
      </trkpt>
      <trkpt lat="43.4981" lon="6.63584">
        <ele>51</ele>
        <time>2025-10-28T07:37:11.000Z</time>
      </trkpt>
      <trkpt lat="43.49806" lon="6.63582">
        <ele>50.9</ele>
        <time>2025-10-28T07:37:12.000Z</time>
      </trkpt>
      <trkpt lat="43.49801" lon="6.6358">
        <ele>50.8</ele>
        <time>2025-10-28T07:37:13.000Z</time>
      </trkpt>
      <trkpt lat="43.49796" lon="6.63577">
        <ele>50.7</ele>
        <time>2025-10-28T07:37:14.000Z</time>
      </trkpt>
      <trkpt lat="43.49792" lon="6.63574">
        <ele>50.6</ele>
        <time>2025-10-28T07:37:15.000Z</time>
      </trkpt>
      <trkpt lat="43.49788" lon="6.63571">
        <ele>50.5</ele>
        <time>2025-10-28T07:37:16.000Z</time>
      </trkpt>
      <trkpt lat="43.49784" lon="6.63568">
        <ele>50.4</ele>
        <time>2025-10-28T07:37:17.000Z</time>
      </trkpt>
      <trkpt lat="43.4978" lon="6.63564">
        <ele>50.4</ele>
        <time>2025-10-28T07:37:18.000Z</time>
      </trkpt>
      <trkpt lat="43.49777" lon="6.63559">
        <ele>50.3</ele>
        <time>2025-10-28T07:37:19.000Z</time>
      </trkpt>
      <trkpt lat="43.49774" lon="6.63554">
        <ele>50.2</ele>
        <time>2025-10-28T07:37:20.000Z</time>
      </trkpt>
      <trkpt lat="43.49771" lon="6.63549">
        <ele>50.1</ele>
        <time>2025-10-28T07:37:21.000Z</time>
      </trkpt>
      <trkpt lat="43.49768" lon="6.63544">
        <ele>50.1</ele>
        <time>2025-10-28T07:37:22.000Z</time>
      </trkpt>
      <trkpt lat="43.49766" lon="6.63539">
        <ele>50</ele>
        <time>2025-10-28T07:37:23.000Z</time>
      </trkpt>
      <trkpt lat="43.49764" lon="6.63535">
        <ele>49.9</ele>
        <time>2025-10-28T07:37:24.000Z</time>
      </trkpt>
      <trkpt lat="43.49762" lon="6.63532">
        <ele>49.8</ele>
        <time>2025-10-28T07:37:25.000Z</time>
      </trkpt>
      <trkpt lat="43.4976" lon="6.63529">
        <ele>49.8</ele>
        <time>2025-10-28T07:37:26.000Z</time>
      </trkpt>
      <trkpt lat="43.49759" lon="6.63527">
        <ele>49.8</ele>
        <time>2025-10-28T07:37:27.000Z</time>
      </trkpt>
      <trkpt lat="43.49758" lon="6.63524">
        <ele>49.7</ele>
        <time>2025-10-28T07:37:28.000Z</time>
      </trkpt>
      <trkpt lat="43.49756" lon="6.63522">
        <ele>49.7</ele>
        <time>2025-10-28T07:37:29.000Z</time>
      </trkpt>
      <trkpt lat="43.49753" lon="6.63518">
        <ele>49.7</ele>
        <time>2025-10-28T07:37:30.000Z</time>
      </trkpt>
      <trkpt lat="43.49751" lon="6.63515">
        <ele>49.6</ele>
        <time>2025-10-28T07:37:31.000Z</time>
      </trkpt>
      <trkpt lat="43.49749" lon="6.63512">
        <ele>49.6</ele>
        <time>2025-10-28T07:37:32.000Z</time>
      </trkpt>
      <trkpt lat="43.49747" lon="6.6351">
        <ele>49.6</ele>
        <time>2025-10-28T07:37:33.000Z</time>
      </trkpt>
      <trkpt lat="43.49745" lon="6.63507">
        <ele>49.5</ele>
        <time>2025-10-28T07:37:34.000Z</time>
      </trkpt>
      <trkpt lat="43.49743" lon="6.63504">
        <ele>49.5</ele>
        <time>2025-10-28T07:37:35.000Z</time>
      </trkpt>
      <trkpt lat="43.49742" lon="6.63501">
        <ele>49.5</ele>
        <time>2025-10-28T07:37:36.000Z</time>
      </trkpt>
      <trkpt lat="43.49742" lon="6.63498">
        <ele>49.4</ele>
        <time>2025-10-28T07:37:37.000Z</time>
      </trkpt>
      <trkpt lat="43.49742" lon="6.63494">
        <ele>49.4</ele>
        <time>2025-10-28T07:37:38.000Z</time>
      </trkpt>
      <trkpt lat="43.49743" lon="6.6349">
        <ele>49.4</ele>
        <time>2025-10-28T07:37:39.000Z</time>
      </trkpt>
      <trkpt lat="43.49743" lon="6.63487">
        <ele>49.3</ele>
        <time>2025-10-28T07:37:40.000Z</time>
      </trkpt>
      <trkpt lat="43.49742" lon="6.63483">
        <ele>49.3</ele>
        <time>2025-10-28T07:37:41.000Z</time>
      </trkpt>
      <trkpt lat="43.49741" lon="6.63479">
        <ele>49.3</ele>
        <time>2025-10-28T07:37:42.000Z</time>
      </trkpt>
      <trkpt lat="43.49739" lon="6.63474">
        <ele>49.2</ele>
        <time>2025-10-28T07:37:43.000Z</time>
      </trkpt>
      <trkpt lat="43.49737" lon="6.6347">
        <ele>49.2</ele>
        <time>2025-10-28T07:37:44.000Z</time>
      </trkpt>
      <trkpt lat="43.49735" lon="6.63465">
        <ele>49.1</ele>
        <time>2025-10-28T07:37:45.000Z</time>
      </trkpt>
      <trkpt lat="43.49733" lon="6.6346">
        <ele>49.1</ele>
        <time>2025-10-28T07:37:46.000Z</time>
      </trkpt>
      <trkpt lat="43.49731" lon="6.63456">
        <ele>49.1</ele>
        <time>2025-10-28T07:37:47.000Z</time>
      </trkpt>
      <trkpt lat="43.4973" lon="6.63451">
        <ele>49</ele>
        <time>2025-10-28T07:37:48.000Z</time>
      </trkpt>
      <trkpt lat="43.49729" lon="6.63447">
        <ele>49</ele>
        <time>2025-10-28T07:37:49.000Z</time>
      </trkpt>
      <trkpt lat="43.49728" lon="6.63442">
        <ele>49</ele>
        <time>2025-10-28T07:37:50.000Z</time>
      </trkpt>
      <trkpt lat="43.49727" lon="6.63438">
        <ele>49</ele>
        <time>2025-10-28T07:37:51.000Z</time>
      </trkpt>
      <trkpt lat="43.49726" lon="6.63434">
        <ele>48.9</ele>
        <time>2025-10-28T07:37:52.000Z</time>
      </trkpt>
      <trkpt lat="43.49724" lon="6.63432">
        <ele>48.9</ele>
        <time>2025-10-28T07:37:53.000Z</time>
      </trkpt>
      <trkpt lat="43.49722" lon="6.63429">
        <ele>48.8</ele>
        <time>2025-10-28T07:37:54.000Z</time>
      </trkpt>
      <trkpt lat="43.4972" lon="6.63427">
        <ele>48.8</ele>
        <time>2025-10-28T07:37:55.000Z</time>
      </trkpt>
      <trkpt lat="43.49718" lon="6.63424">
        <ele>48.7</ele>
        <time>2025-10-28T07:37:56.000Z</time>
      </trkpt>
      <trkpt lat="43.49716" lon="6.63422">
        <ele>48.7</ele>
        <time>2025-10-28T07:37:57.000Z</time>
      </trkpt>
      <trkpt lat="43.49714" lon="6.63419">
        <ele>48.6</ele>
        <time>2025-10-28T07:37:58.000Z</time>
      </trkpt>
      <trkpt lat="43.49712" lon="6.63416">
        <ele>48.6</ele>
        <time>2025-10-28T07:37:59.000Z</time>
      </trkpt>
      <trkpt lat="43.4971" lon="6.63414">
        <ele>48.5</ele>
        <time>2025-10-28T07:38:00.000Z</time>
      </trkpt>
      <trkpt lat="43.49709" lon="6.63411">
        <ele>48.5</ele>
        <time>2025-10-28T07:38:01.000Z</time>
      </trkpt>
      <trkpt lat="43.49707" lon="6.63409">
        <ele>48.4</ele>
        <time>2025-10-28T07:38:02.000Z</time>
      </trkpt>
      <trkpt lat="43.49705" lon="6.63406">
        <ele>48.3</ele>
        <time>2025-10-28T07:38:03.000Z</time>
      </trkpt>
      <trkpt lat="43.49703" lon="6.63403">
        <ele>48.2</ele>
        <time>2025-10-28T07:38:04.000Z</time>
      </trkpt>
      <trkpt lat="43.49702" lon="6.63401">
        <ele>48.1</ele>
        <time>2025-10-28T07:38:05.000Z</time>
      </trkpt>
      <trkpt lat="43.497" lon="6.63399">
        <ele>48</ele>
        <time>2025-10-28T07:38:06.000Z</time>
      </trkpt>
      <trkpt lat="43.49697" lon="6.63396">
        <ele>47.8</ele>
        <time>2025-10-28T07:38:07.000Z</time>
      </trkpt>
      <trkpt lat="43.49695" lon="6.63394">
        <ele>47.6</ele>
        <time>2025-10-28T07:38:08.000Z</time>
      </trkpt>
      <trkpt lat="43.49692" lon="6.63392">
        <ele>47.3</ele>
        <time>2025-10-28T07:38:09.000Z</time>
      </trkpt>
      <trkpt lat="43.49689" lon="6.63389">
        <ele>47.1</ele>
        <time>2025-10-28T07:38:10.000Z</time>
      </trkpt>
      <trkpt lat="43.49688" lon="6.63387">
        <ele>46.8</ele>
        <time>2025-10-28T07:38:11.000Z</time>
      </trkpt>
      <trkpt lat="43.49685" lon="6.63384">
        <ele>46.4</ele>
        <time>2025-10-28T07:38:12.000Z</time>
      </trkpt>
      <trkpt lat="43.49682" lon="6.63382">
        <ele>46.1</ele>
        <time>2025-10-28T07:38:13.000Z</time>
      </trkpt>
      <trkpt lat="43.4968" lon="6.63379">
        <ele>45.8</ele>
        <time>2025-10-28T07:38:14.000Z</time>
      </trkpt>
      <trkpt lat="43.49677" lon="6.63377">
        <ele>45.5</ele>
        <time>2025-10-28T07:38:15.000Z</time>
      </trkpt>
      <trkpt lat="43.49676" lon="6.63374">
        <ele>45.2</ele>
        <time>2025-10-28T07:38:16.000Z</time>
      </trkpt>
      <trkpt lat="43.49674" lon="6.63371">
        <ele>44.9</ele>
        <time>2025-10-28T07:38:17.000Z</time>
      </trkpt>
      <trkpt lat="43.49672" lon="6.63369">
        <ele>44.7</ele>
        <time>2025-10-28T07:38:18.000Z</time>
      </trkpt>
      <trkpt lat="43.49671" lon="6.63366">
        <ele>44.6</ele>
        <time>2025-10-28T07:38:19.000Z</time>
      </trkpt>
      <trkpt lat="43.49669" lon="6.63364">
        <ele>44.4</ele>
        <time>2025-10-28T07:38:20.000Z</time>
      </trkpt>
      <trkpt lat="43.49667" lon="6.63361">
        <ele>44.2</ele>
        <time>2025-10-28T07:38:21.000Z</time>
      </trkpt>
      <trkpt lat="43.49666" lon="6.63359">
        <ele>44.1</ele>
        <time>2025-10-28T07:38:22.000Z</time>
      </trkpt>
      <trkpt lat="43.49664" lon="6.63357">
        <ele>44</ele>
        <time>2025-10-28T07:38:23.000Z</time>
      </trkpt>
      <trkpt lat="43.49662" lon="6.63354">
        <ele>43.9</ele>
        <time>2025-10-28T07:38:24.000Z</time>
      </trkpt>
      <trkpt lat="43.49661" lon="6.63351">
        <ele>43.8</ele>
        <time>2025-10-28T07:38:25.000Z</time>
      </trkpt>
      <trkpt lat="43.49659" lon="6.63349">
        <ele>43.8</ele>
        <time>2025-10-28T07:38:26.000Z</time>
      </trkpt>
      <trkpt lat="43.49657" lon="6.63347">
        <ele>43.7</ele>
        <time>2025-10-28T07:38:27.000Z</time>
      </trkpt>
      <trkpt lat="43.49655" lon="6.63345">
        <ele>43.7</ele>
        <time>2025-10-28T07:38:28.000Z</time>
      </trkpt>
      <trkpt lat="43.49653" lon="6.63343">
        <ele>43.7</ele>
        <time>2025-10-28T07:38:29.000Z</time>
      </trkpt>
      <trkpt lat="43.49652" lon="6.6334">
        <ele>43.8</ele>
        <time>2025-10-28T07:38:30.000Z</time>
      </trkpt>
      <trkpt lat="43.4965" lon="6.63338">
        <ele>43.8</ele>
        <time>2025-10-28T07:38:31.000Z</time>
      </trkpt>
      <trkpt lat="43.49649" lon="6.63336">
        <ele>43.8</ele>
        <time>2025-10-28T07:38:32.000Z</time>
      </trkpt>
      <trkpt lat="43.49647" lon="6.63335">
        <ele>43.9</ele>
        <time>2025-10-28T07:38:33.000Z</time>
      </trkpt>
      <trkpt lat="43.49646" lon="6.63333">
        <ele>43.9</ele>
        <time>2025-10-28T07:38:34.000Z</time>
      </trkpt>
      <trkpt lat="43.49645" lon="6.63332">
        <ele>44</ele>
        <time>2025-10-28T07:38:35.000Z</time>
      </trkpt>
      <trkpt lat="43.49643" lon="6.63331">
        <ele>44.1</ele>
        <time>2025-10-28T07:38:36.000Z</time>
      </trkpt>
      <trkpt lat="43.49642" lon="6.6333">
        <ele>44.1</ele>
        <time>2025-10-28T07:38:37.000Z</time>
      </trkpt>
      <trkpt lat="43.4964" lon="6.63329">
        <ele>44.2</ele>
        <time>2025-10-28T07:38:38.000Z</time>
      </trkpt>
      <trkpt lat="43.49639" lon="6.63327">
        <ele>44.3</ele>
        <time>2025-10-28T07:38:39.000Z</time>
      </trkpt>
      <trkpt lat="43.49636" lon="6.63324">
        <ele>44.4</ele>
        <time>2025-10-28T07:38:40.000Z</time>
      </trkpt>
      <trkpt lat="43.49634" lon="6.63322">
        <ele>44.5</ele>
        <time>2025-10-28T07:38:41.000Z</time>
      </trkpt>
      <trkpt lat="43.49631" lon="6.63319">
        <ele>44.5</ele>
        <time>2025-10-28T07:38:42.000Z</time>
      </trkpt>
      <trkpt lat="43.49629" lon="6.63317">
        <ele>44.6</ele>
        <time>2025-10-28T07:38:43.000Z</time>
      </trkpt>
      <trkpt lat="43.49627" lon="6.63315">
        <ele>44.6</ele>
        <time>2025-10-28T07:38:44.000Z</time>
      </trkpt>
      <trkpt lat="43.49625" lon="6.63312">
        <ele>44.6</ele>
        <time>2025-10-28T07:38:45.000Z</time>
      </trkpt>
      <trkpt lat="43.49623" lon="6.63309">
        <ele>44.5</ele>
        <time>2025-10-28T07:38:46.000Z</time>
      </trkpt>
      <trkpt lat="43.49621" lon="6.63306">
        <ele>44.5</ele>
        <time>2025-10-28T07:38:47.000Z</time>
      </trkpt>
      <trkpt lat="43.49618" lon="6.63304">
        <ele>44.4</ele>
        <time>2025-10-28T07:38:48.000Z</time>
      </trkpt>
      <trkpt lat="43.49615" lon="6.63302">
        <ele>44.3</ele>
        <time>2025-10-28T07:38:49.000Z</time>
      </trkpt>
      <trkpt lat="43.49612" lon="6.633">
        <ele>44.2</ele>
        <time>2025-10-28T07:38:50.000Z</time>
      </trkpt>
      <trkpt lat="43.49609" lon="6.63299">
        <ele>44.1</ele>
        <time>2025-10-28T07:38:51.000Z</time>
      </trkpt>
      <trkpt lat="43.49606" lon="6.63297">
        <ele>44</ele>
        <time>2025-10-28T07:38:52.000Z</time>
      </trkpt>
      <trkpt lat="43.49603" lon="6.63295">
        <ele>43.9</ele>
        <time>2025-10-28T07:38:53.000Z</time>
      </trkpt>
      <trkpt lat="43.496" lon="6.63293">
        <ele>43.9</ele>
        <time>2025-10-28T07:38:54.000Z</time>
      </trkpt>
      <trkpt lat="43.49597" lon="6.63291">
        <ele>44</ele>
        <time>2025-10-28T07:38:55.000Z</time>
      </trkpt>
      <trkpt lat="43.49595" lon="6.63288">
        <ele>44</ele>
        <time>2025-10-28T07:38:56.000Z</time>
      </trkpt>
      <trkpt lat="43.49592" lon="6.63284">
        <ele>44.2</ele>
        <time>2025-10-28T07:38:57.000Z</time>
      </trkpt>
      <trkpt lat="43.49589" lon="6.6328">
        <ele>44.4</ele>
        <time>2025-10-28T07:38:58.000Z</time>
      </trkpt>
      <trkpt lat="43.49586" lon="6.63276">
        <ele>44.6</ele>
        <time>2025-10-28T07:38:59.000Z</time>
      </trkpt>
      <trkpt lat="43.49584" lon="6.63272">
        <ele>44.8</ele>
        <time>2025-10-28T07:39:00.000Z</time>
      </trkpt>
      <trkpt lat="43.49581" lon="6.63269">
        <ele>45</ele>
        <time>2025-10-28T07:39:01.000Z</time>
      </trkpt>
      <trkpt lat="43.49578" lon="6.63265">
        <ele>45.1</ele>
        <time>2025-10-28T07:39:02.000Z</time>
      </trkpt>
      <trkpt lat="43.49575" lon="6.63261">
        <ele>45.3</ele>
        <time>2025-10-28T07:39:03.000Z</time>
      </trkpt>
      <trkpt lat="43.49573" lon="6.63257">
        <ele>45.1</ele>
        <time>2025-10-28T07:39:04.000Z</time>
      </trkpt>
      <trkpt lat="43.4957" lon="6.63253">
        <ele>45</ele>
        <time>2025-10-28T07:39:05.000Z</time>
      </trkpt>
      <trkpt lat="43.49568" lon="6.63249">
        <ele>44.9</ele>
        <time>2025-10-28T07:39:06.000Z</time>
      </trkpt>
      <trkpt lat="43.49566" lon="6.63245">
        <ele>44.8</ele>
        <time>2025-10-28T07:39:07.000Z</time>
      </trkpt>
      <trkpt lat="43.49564" lon="6.63241">
        <ele>44.7</ele>
        <time>2025-10-28T07:39:08.000Z</time>
      </trkpt>
      <trkpt lat="43.49562" lon="6.63237">
        <ele>44.6</ele>
        <time>2025-10-28T07:39:09.000Z</time>
      </trkpt>
      <trkpt lat="43.4956" lon="6.63233">
        <ele>44.5</ele>
        <time>2025-10-28T07:39:10.000Z</time>
      </trkpt>
      <trkpt lat="43.49557" lon="6.63229">
        <ele>44.3</ele>
        <time>2025-10-28T07:39:11.000Z</time>
      </trkpt>
      <trkpt lat="43.49555" lon="6.63227">
        <ele>44</ele>
        <time>2025-10-28T07:39:12.000Z</time>
      </trkpt>
      <trkpt lat="43.49553" lon="6.63224">
        <ele>44</ele>
        <time>2025-10-28T07:39:13.000Z</time>
      </trkpt>
      <trkpt lat="43.49551" lon="6.63222">
        <ele>43.9</ele>
        <time>2025-10-28T07:39:14.000Z</time>
      </trkpt>
      <trkpt lat="43.49548" lon="6.6322">
        <ele>43.5</ele>
        <time>2025-10-28T07:39:15.000Z</time>
      </trkpt>
      <trkpt lat="43.49546" lon="6.63218">
        <ele>43.4</ele>
        <time>2025-10-28T07:39:16.000Z</time>
      </trkpt>
      <trkpt lat="43.49543" lon="6.63216">
        <ele>43.2</ele>
        <time>2025-10-28T07:39:17.000Z</time>
      </trkpt>
      <trkpt lat="43.4954" lon="6.63214">
        <ele>42.9</ele>
        <time>2025-10-28T07:39:18.000Z</time>
      </trkpt>
      <trkpt lat="43.49537" lon="6.63212">
        <ele>42.8</ele>
        <time>2025-10-28T07:39:19.000Z</time>
      </trkpt>
      <trkpt lat="43.49535" lon="6.6321">
        <ele>42.4</ele>
        <time>2025-10-28T07:39:20.000Z</time>
      </trkpt>
      <trkpt lat="43.49532" lon="6.63208">
        <ele>42.2</ele>
        <time>2025-10-28T07:39:21.000Z</time>
      </trkpt>
      <trkpt lat="43.4953" lon="6.63206">
        <ele>41.9</ele>
        <time>2025-10-28T07:39:22.000Z</time>
      </trkpt>
      <trkpt lat="43.49527" lon="6.63204">
        <ele>41.6</ele>
        <time>2025-10-28T07:39:23.000Z</time>
      </trkpt>
      <trkpt lat="43.49524" lon="6.63202">
        <ele>41.4</ele>
        <time>2025-10-28T07:39:24.000Z</time>
      </trkpt>
      <trkpt lat="43.49522" lon="6.63199">
        <ele>41.1</ele>
        <time>2025-10-28T07:39:25.000Z</time>
      </trkpt>
      <trkpt lat="43.49519" lon="6.63197">
        <ele>40.7</ele>
        <time>2025-10-28T07:39:26.000Z</time>
      </trkpt>
      <trkpt lat="43.49516" lon="6.63195">
        <ele>40.4</ele>
        <time>2025-10-28T07:39:27.000Z</time>
      </trkpt>
      <trkpt lat="43.49513" lon="6.63193">
        <ele>40</ele>
        <time>2025-10-28T07:39:28.000Z</time>
      </trkpt>
      <trkpt lat="43.4951" lon="6.6319">
        <ele>39.7</ele>
        <time>2025-10-28T07:39:29.000Z</time>
      </trkpt>
      <trkpt lat="43.49507" lon="6.63189">
        <ele>39.3</ele>
        <time>2025-10-28T07:39:30.000Z</time>
      </trkpt>
      <trkpt lat="43.49504" lon="6.63187">
        <ele>38.9</ele>
        <time>2025-10-28T07:39:31.000Z</time>
      </trkpt>
      <trkpt lat="43.49501" lon="6.63184">
        <ele>38.5</ele>
        <time>2025-10-28T07:39:32.000Z</time>
      </trkpt>
      <trkpt lat="43.49497" lon="6.63182">
        <ele>38.1</ele>
        <time>2025-10-28T07:39:33.000Z</time>
      </trkpt>
      <trkpt lat="43.49494" lon="6.6318">
        <ele>37.7</ele>
        <time>2025-10-28T07:39:34.000Z</time>
      </trkpt>
      <trkpt lat="43.49491" lon="6.63178">
        <ele>37.4</ele>
        <time>2025-10-28T07:39:35.000Z</time>
      </trkpt>
      <trkpt lat="43.49488" lon="6.63176">
        <ele>37</ele>
        <time>2025-10-28T07:39:36.000Z</time>
      </trkpt>
      <trkpt lat="43.49486" lon="6.63174">
        <ele>36.7</ele>
        <time>2025-10-28T07:39:37.000Z</time>
      </trkpt>
      <trkpt lat="43.49483" lon="6.63172">
        <ele>36.3</ele>
        <time>2025-10-28T07:39:38.000Z</time>
      </trkpt>
      <trkpt lat="43.4948" lon="6.63171">
        <ele>36.3</ele>
        <time>2025-10-28T07:39:39.000Z</time>
      </trkpt>
      <trkpt lat="43.49477" lon="6.63169">
        <ele>36.2</ele>
        <time>2025-10-28T07:39:40.000Z</time>
      </trkpt>
      <trkpt lat="43.49474" lon="6.63168">
        <ele>36.2</ele>
        <time>2025-10-28T07:39:41.000Z</time>
      </trkpt>
      <trkpt lat="43.49471" lon="6.63166">
        <ele>36.2</ele>
        <time>2025-10-28T07:39:42.000Z</time>
      </trkpt>
      <trkpt lat="43.49468" lon="6.63163">
        <ele>36.1</ele>
        <time>2025-10-28T07:39:43.000Z</time>
      </trkpt>
      <trkpt lat="43.49466" lon="6.6316">
        <ele>36.1</ele>
        <time>2025-10-28T07:39:44.000Z</time>
      </trkpt>
      <trkpt lat="43.49463" lon="6.63157">
        <ele>36.1</ele>
        <time>2025-10-28T07:39:45.000Z</time>
      </trkpt>
      <trkpt lat="43.49461" lon="6.63153">
        <ele>36.2</ele>
        <time>2025-10-28T07:39:46.000Z</time>
      </trkpt>
      <trkpt lat="43.49459" lon="6.63149">
        <ele>36.2</ele>
        <time>2025-10-28T07:39:47.000Z</time>
      </trkpt>
      <trkpt lat="43.49457" lon="6.63145">
        <ele>36.3</ele>
        <time>2025-10-28T07:39:48.000Z</time>
      </trkpt>
      <trkpt lat="43.49455" lon="6.63141">
        <ele>36.4</ele>
        <time>2025-10-28T07:39:49.000Z</time>
      </trkpt>
      <trkpt lat="43.49454" lon="6.63137">
        <ele>36.5</ele>
        <time>2025-10-28T07:39:50.000Z</time>
      </trkpt>
      <trkpt lat="43.49454" lon="6.63132">
        <ele>36.7</ele>
        <time>2025-10-28T07:39:51.000Z</time>
      </trkpt>
      <trkpt lat="43.49454" lon="6.63128">
        <ele>36.9</ele>
        <time>2025-10-28T07:39:52.000Z</time>
      </trkpt>
      <trkpt lat="43.49454" lon="6.63123">
        <ele>37.2</ele>
        <time>2025-10-28T07:39:53.000Z</time>
      </trkpt>
      <trkpt lat="43.49455" lon="6.63119">
        <ele>37.4</ele>
        <time>2025-10-28T07:39:54.000Z</time>
      </trkpt>
      <trkpt lat="43.49455" lon="6.63114">
        <ele>37.7</ele>
        <time>2025-10-28T07:39:55.000Z</time>
      </trkpt>
      <trkpt lat="43.49454" lon="6.63109">
        <ele>38.1</ele>
        <time>2025-10-28T07:39:56.000Z</time>
      </trkpt>
      <trkpt lat="43.49454" lon="6.63104">
        <ele>38.4</ele>
        <time>2025-10-28T07:39:57.000Z</time>
      </trkpt>
      <trkpt lat="43.49453" lon="6.63099">
        <ele>38.8</ele>
        <time>2025-10-28T07:39:58.000Z</time>
      </trkpt>
      <trkpt lat="43.49452" lon="6.63095">
        <ele>38.8</ele>
        <time>2025-10-28T07:39:59.000Z</time>
      </trkpt>
      <trkpt lat="43.4945" lon="6.63092">
        <ele>38.7</ele>
        <time>2025-10-28T07:40:00.000Z</time>
      </trkpt>
      <trkpt lat="43.49448" lon="6.63088">
        <ele>38.8</ele>
        <time>2025-10-28T07:40:01.000Z</time>
      </trkpt>
      <trkpt lat="43.49445" lon="6.63085">
        <ele>38.8</ele>
        <time>2025-10-28T07:40:02.000Z</time>
      </trkpt>
      <trkpt lat="43.49443" lon="6.63081">
        <ele>38.9</ele>
        <time>2025-10-28T07:40:03.000Z</time>
      </trkpt>
      <trkpt lat="43.49441" lon="6.63077">
        <ele>39</ele>
        <time>2025-10-28T07:40:04.000Z</time>
      </trkpt>
      <trkpt lat="43.4944" lon="6.63073">
        <ele>39.2</ele>
        <time>2025-10-28T07:40:05.000Z</time>
      </trkpt>
      <trkpt lat="43.49439" lon="6.63069">
        <ele>39.4</ele>
        <time>2025-10-28T07:40:06.000Z</time>
      </trkpt>
      <trkpt lat="43.49438" lon="6.63064">
        <ele>39.6</ele>
        <time>2025-10-28T07:40:07.000Z</time>
      </trkpt>
      <trkpt lat="43.49438" lon="6.6306">
        <ele>39.8</ele>
        <time>2025-10-28T07:40:08.000Z</time>
      </trkpt>
      <trkpt lat="43.49437" lon="6.63056">
        <ele>40.1</ele>
        <time>2025-10-28T07:40:09.000Z</time>
      </trkpt>
      <trkpt lat="43.49436" lon="6.63051">
        <ele>40.4</ele>
        <time>2025-10-28T07:40:10.000Z</time>
      </trkpt>
      <trkpt lat="43.49435" lon="6.63047">
        <ele>40.7</ele>
        <time>2025-10-28T07:40:11.000Z</time>
      </trkpt>
      <trkpt lat="43.49434" lon="6.63043">
        <ele>41</ele>
        <time>2025-10-28T07:40:12.000Z</time>
      </trkpt>
      <trkpt lat="43.49433" lon="6.63039">
        <ele>41.2</ele>
        <time>2025-10-28T07:40:13.000Z</time>
      </trkpt>
      <trkpt lat="43.49432" lon="6.63035">
        <ele>41.4</ele>
        <time>2025-10-28T07:40:14.000Z</time>
      </trkpt>
      <trkpt lat="43.49431" lon="6.63032">
        <ele>41.6</ele>
        <time>2025-10-28T07:40:15.000Z</time>
      </trkpt>
      <trkpt lat="43.49431" lon="6.63028">
        <ele>41.7</ele>
        <time>2025-10-28T07:40:16.000Z</time>
      </trkpt>
      <trkpt lat="43.49431" lon="6.63024">
        <ele>41.8</ele>
        <time>2025-10-28T07:40:17.000Z</time>
      </trkpt>
      <trkpt lat="43.4943" lon="6.6302">
        <ele>41.9</ele>
        <time>2025-10-28T07:40:18.000Z</time>
      </trkpt>
      <trkpt lat="43.4943" lon="6.63016">
        <ele>42</ele>
        <time>2025-10-28T07:40:19.000Z</time>
      </trkpt>
      <trkpt lat="43.4943" lon="6.63011">
        <ele>42.1</ele>
        <time>2025-10-28T07:40:20.000Z</time>
      </trkpt>
      <trkpt lat="43.4943" lon="6.63007">
        <ele>42.1</ele>
        <time>2025-10-28T07:40:21.000Z</time>
      </trkpt>
      <trkpt lat="43.4943" lon="6.63003">
        <ele>42.2</ele>
        <time>2025-10-28T07:40:22.000Z</time>
      </trkpt>
      <trkpt lat="43.49431" lon="6.62999">
        <ele>42.3</ele>
        <time>2025-10-28T07:40:23.000Z</time>
      </trkpt>
      <trkpt lat="43.49431" lon="6.62995">
        <ele>42.3</ele>
        <time>2025-10-28T07:40:24.000Z</time>
      </trkpt>
      <trkpt lat="43.49432" lon="6.62991">
        <ele>42.3</ele>
        <time>2025-10-28T07:40:25.000Z</time>
      </trkpt>
      <trkpt lat="43.49432" lon="6.62988">
        <ele>42.4</ele>
        <time>2025-10-28T07:40:26.000Z</time>
      </trkpt>
      <trkpt lat="43.49432" lon="6.62984">
        <ele>42.4</ele>
        <time>2025-10-28T07:40:27.000Z</time>
      </trkpt>
      <trkpt lat="43.49432" lon="6.6298">
        <ele>42.5</ele>
        <time>2025-10-28T07:40:28.000Z</time>
      </trkpt>
      <trkpt lat="43.49432" lon="6.62975">
        <ele>42.5</ele>
        <time>2025-10-28T07:40:29.000Z</time>
      </trkpt>
      <trkpt lat="43.49433" lon="6.62971">
        <ele>42.6</ele>
        <time>2025-10-28T07:40:30.000Z</time>
      </trkpt>
      <trkpt lat="43.49433" lon="6.62966">
        <ele>42.6</ele>
        <time>2025-10-28T07:40:31.000Z</time>
      </trkpt>
      <trkpt lat="43.49432" lon="6.62962">
        <ele>42.6</ele>
        <time>2025-10-28T07:40:32.000Z</time>
      </trkpt>
      <trkpt lat="43.49433" lon="6.62958">
        <ele>42.7</ele>
        <time>2025-10-28T07:40:33.000Z</time>
      </trkpt>
      <trkpt lat="43.49433" lon="6.62953">
        <ele>42.7</ele>
        <time>2025-10-28T07:40:34.000Z</time>
      </trkpt>
      <trkpt lat="43.49434" lon="6.62949">
        <ele>42.8</ele>
        <time>2025-10-28T07:40:35.000Z</time>
      </trkpt>
      <trkpt lat="43.49434" lon="6.62945">
        <ele>42.8</ele>
        <time>2025-10-28T07:40:36.000Z</time>
      </trkpt>
      <trkpt lat="43.49435" lon="6.62942">
        <ele>42.9</ele>
        <time>2025-10-28T07:40:37.000Z</time>
      </trkpt>
      <trkpt lat="43.49436" lon="6.62938">
        <ele>42.9</ele>
        <time>2025-10-28T07:40:38.000Z</time>
      </trkpt>
      <trkpt lat="43.49437" lon="6.62935">
        <ele>43</ele>
        <time>2025-10-28T07:40:39.000Z</time>
      </trkpt>
      <trkpt lat="43.49438" lon="6.62932">
        <ele>43</ele>
        <time>2025-10-28T07:40:40.000Z</time>
      </trkpt>
      <trkpt lat="43.4944" lon="6.62929">
        <ele>43</ele>
        <time>2025-10-28T07:40:41.000Z</time>
      </trkpt>
      <trkpt lat="43.49442" lon="6.62926">
        <ele>43.1</ele>
        <time>2025-10-28T07:40:42.000Z</time>
      </trkpt>
      <trkpt lat="43.49444" lon="6.62924">
        <ele>43.1</ele>
        <time>2025-10-28T07:40:43.000Z</time>
      </trkpt>
      <trkpt lat="43.49446" lon="6.62921">
        <ele>43.2</ele>
        <time>2025-10-28T07:40:44.000Z</time>
      </trkpt>
      <trkpt lat="43.49448" lon="6.62918">
        <ele>43.2</ele>
        <time>2025-10-28T07:40:45.000Z</time>
      </trkpt>
      <trkpt lat="43.4945" lon="6.62916">
        <ele>43.3</ele>
        <time>2025-10-28T07:40:46.000Z</time>
      </trkpt>
      <trkpt lat="43.49452" lon="6.62913">
        <ele>43.3</ele>
        <time>2025-10-28T07:40:47.000Z</time>
      </trkpt>
      <trkpt lat="43.49454" lon="6.62911">
        <ele>43.3</ele>
        <time>2025-10-28T07:40:48.000Z</time>
      </trkpt>
      <trkpt lat="43.49456" lon="6.62908">
        <ele>43.4</ele>
        <time>2025-10-28T07:40:49.000Z</time>
      </trkpt>
      <trkpt lat="43.49458" lon="6.62905">
        <ele>43.4</ele>
        <time>2025-10-28T07:40:50.000Z</time>
      </trkpt>
      <trkpt lat="43.4946" lon="6.62903">
        <ele>43.4</ele>
        <time>2025-10-28T07:40:51.000Z</time>
      </trkpt>
      <trkpt lat="43.49462" lon="6.62901">
        <ele>43.4</ele>
        <time>2025-10-28T07:40:52.000Z</time>
      </trkpt>
      <trkpt lat="43.49465" lon="6.62898">
        <ele>43.2</ele>
        <time>2025-10-28T07:40:53.000Z</time>
      </trkpt>
      <trkpt lat="43.49467" lon="6.62896">
        <ele>42.9</ele>
        <time>2025-10-28T07:40:54.000Z</time>
      </trkpt>
      <trkpt lat="43.4947" lon="6.62894">
        <ele>42.9</ele>
        <time>2025-10-28T07:40:55.000Z</time>
      </trkpt>
      <trkpt lat="43.49472" lon="6.62891">
        <ele>42.6</ele>
        <time>2025-10-28T07:40:56.000Z</time>
      </trkpt>
      <trkpt lat="43.49473" lon="6.62889">
        <ele>42.6</ele>
        <time>2025-10-28T07:40:57.000Z</time>
      </trkpt>
      <trkpt lat="43.49474" lon="6.62887">
        <ele>42.3</ele>
        <time>2025-10-28T07:40:58.000Z</time>
      </trkpt>
      <trkpt lat="43.49475" lon="6.62885">
        <ele>42.3</ele>
        <time>2025-10-28T07:40:59.000Z</time>
      </trkpt>
      <trkpt lat="43.49476" lon="6.62882">
        <ele>42</ele>
        <time>2025-10-28T07:41:00.000Z</time>
      </trkpt>
      <trkpt lat="43.49477" lon="6.62878">
        <ele>41.7</ele>
        <time>2025-10-28T07:41:01.000Z</time>
      </trkpt>
      <trkpt lat="43.49477" lon="6.62874">
        <ele>41.5</ele>
        <time>2025-10-28T07:41:02.000Z</time>
      </trkpt>
      <trkpt lat="43.49477" lon="6.6287">
        <ele>41.3</ele>
        <time>2025-10-28T07:41:03.000Z</time>
      </trkpt>
      <trkpt lat="43.49478" lon="6.62866">
        <ele>41.2</ele>
        <time>2025-10-28T07:41:04.000Z</time>
      </trkpt>
      <trkpt lat="43.49479" lon="6.62862">
        <ele>41.1</ele>
        <time>2025-10-28T07:41:05.000Z</time>
      </trkpt>
      <trkpt lat="43.49482" lon="6.62859">
        <ele>40.9</ele>
        <time>2025-10-28T07:41:06.000Z</time>
      </trkpt>
      <trkpt lat="43.49486" lon="6.62857">
        <ele>40.7</ele>
        <time>2025-10-28T07:41:07.000Z</time>
      </trkpt>
      <trkpt lat="43.49491" lon="6.62855">
        <ele>40.7</ele>
        <time>2025-10-28T07:41:08.000Z</time>
      </trkpt>
      <trkpt lat="43.49495" lon="6.62853">
        <ele>40.6</ele>
        <time>2025-10-28T07:41:09.000Z</time>
      </trkpt>
      <trkpt lat="43.495" lon="6.62852">
        <ele>40.6</ele>
        <time>2025-10-28T07:41:10.000Z</time>
      </trkpt>
      <trkpt lat="43.49505" lon="6.62851">
        <ele>40.7</ele>
        <time>2025-10-28T07:41:11.000Z</time>
      </trkpt>
      <trkpt lat="43.4951" lon="6.62851">
        <ele>40.8</ele>
        <time>2025-10-28T07:41:12.000Z</time>
      </trkpt>
      <trkpt lat="43.49513" lon="6.62851">
        <ele>40.8</ele>
        <time>2025-10-28T07:41:13.000Z</time>
      </trkpt>
      <trkpt lat="43.49517" lon="6.62851">
        <ele>40.9</ele>
        <time>2025-10-28T07:41:14.000Z</time>
      </trkpt>
      <trkpt lat="43.4952" lon="6.6285">
        <ele>41</ele>
        <time>2025-10-28T07:41:15.000Z</time>
      </trkpt>
      <trkpt lat="43.49523" lon="6.62849">
        <ele>40.8</ele>
        <time>2025-10-28T07:41:16.000Z</time>
      </trkpt>
      <trkpt lat="43.49525" lon="6.62848">
        <ele>40.8</ele>
        <time>2025-10-28T07:41:17.000Z</time>
      </trkpt>
      <trkpt lat="43.49528" lon="6.62847">
        <ele>40.9</ele>
        <time>2025-10-28T07:41:18.000Z</time>
      </trkpt>
      <trkpt lat="43.4953" lon="6.62846">
        <ele>40.9</ele>
        <time>2025-10-28T07:41:19.000Z</time>
      </trkpt>
      <trkpt lat="43.49532" lon="6.62845">
        <ele>40.9</ele>
        <time>2025-10-28T07:41:20.000Z</time>
      </trkpt>
      <trkpt lat="43.49535" lon="6.62844">
        <ele>40.7</ele>
        <time>2025-10-28T07:41:21.000Z</time>
      </trkpt>
      <trkpt lat="43.49538" lon="6.62842">
        <ele>40.7</ele>
        <time>2025-10-28T07:41:22.000Z</time>
      </trkpt>
      <trkpt lat="43.49542" lon="6.62841">
        <ele>40.7</ele>
        <time>2025-10-28T07:41:23.000Z</time>
      </trkpt>
      <trkpt lat="43.49545" lon="6.62841">
        <ele>40.7</ele>
        <time>2025-10-28T07:41:24.000Z</time>
      </trkpt>
      <trkpt lat="43.49548" lon="6.6284">
        <ele>40.4</ele>
        <time>2025-10-28T07:41:25.000Z</time>
      </trkpt>
      <trkpt lat="43.49551" lon="6.6284">
        <ele>40.4</ele>
        <time>2025-10-28T07:41:26.000Z</time>
      </trkpt>
      <trkpt lat="43.49554" lon="6.62839">
        <ele>40.4</ele>
        <time>2025-10-28T07:41:27.000Z</time>
      </trkpt>
      <trkpt lat="43.49559" lon="6.62839">
        <ele>40.3</ele>
        <time>2025-10-28T07:41:28.000Z</time>
      </trkpt>
      <trkpt lat="43.49564" lon="6.62839">
        <ele>40.2</ele>
        <time>2025-10-28T07:41:29.000Z</time>
      </trkpt>
      <trkpt lat="43.4957" lon="6.6284">
        <ele>40.1</ele>
        <time>2025-10-28T07:41:30.000Z</time>
      </trkpt>
      <trkpt lat="43.49575" lon="6.6284">
        <ele>40</ele>
        <time>2025-10-28T07:41:31.000Z</time>
      </trkpt>
      <trkpt lat="43.4958" lon="6.62842">
        <ele>40.2</ele>
        <time>2025-10-28T07:41:32.000Z</time>
      </trkpt>
      <trkpt lat="43.49585" lon="6.62845">
        <ele>40.3</ele>
        <time>2025-10-28T07:41:33.000Z</time>
      </trkpt>
      <trkpt lat="43.4959" lon="6.6285">
        <ele>40.4</ele>
        <time>2025-10-28T07:41:34.000Z</time>
      </trkpt>
      <trkpt lat="43.49593" lon="6.62853">
        <ele>40.7</ele>
        <time>2025-10-28T07:41:35.000Z</time>
      </trkpt>
      <trkpt lat="43.49595" lon="6.62858">
        <ele>40.9</ele>
        <time>2025-10-28T07:41:36.000Z</time>
      </trkpt>
      <trkpt lat="43.49596" lon="6.62862">
        <ele>40.8</ele>
        <time>2025-10-28T07:41:37.000Z</time>
      </trkpt>
      <trkpt lat="43.49598" lon="6.62866">
        <ele>41.5</ele>
        <time>2025-10-28T07:41:38.000Z</time>
      </trkpt>
      <trkpt lat="43.49598" lon="6.62869">
        <ele>41.5</ele>
        <time>2025-10-28T07:41:39.000Z</time>
      </trkpt>
      <trkpt lat="43.49599" lon="6.62874">
        <ele>41.9</ele>
        <time>2025-10-28T07:41:40.000Z</time>
      </trkpt>
      <trkpt lat="43.496" lon="6.62878">
        <ele>42.2</ele>
        <time>2025-10-28T07:41:41.000Z</time>
      </trkpt>
      <trkpt lat="43.49602" lon="6.62883">
        <ele>42.6</ele>
        <time>2025-10-28T07:41:42.000Z</time>
      </trkpt>
      <trkpt lat="43.49603" lon="6.62887">
        <ele>42.9</ele>
        <time>2025-10-28T07:41:43.000Z</time>
      </trkpt>
      <trkpt lat="43.49604" lon="6.6289">
        <ele>43.3</ele>
        <time>2025-10-28T07:41:44.000Z</time>
      </trkpt>
      <trkpt lat="43.49605" lon="6.62893">
        <ele>43.8</ele>
        <time>2025-10-28T07:41:45.000Z</time>
      </trkpt>
      <trkpt lat="43.49606" lon="6.62895">
        <ele>43.6</ele>
        <time>2025-10-28T07:41:46.000Z</time>
      </trkpt>
      <trkpt lat="43.49607" lon="6.62897">
        <ele>44.1</ele>
        <time>2025-10-28T07:41:47.000Z</time>
      </trkpt>
      <trkpt lat="43.49608" lon="6.62898">
        <ele>44.1</ele>
        <time>2025-10-28T07:41:48.000Z</time>
      </trkpt>
      <trkpt lat="43.49609" lon="6.62898">
        <ele>43.9</ele>
        <time>2025-10-28T07:41:49.000Z</time>
      </trkpt>
      <trkpt lat="43.4961" lon="6.62899">
        <ele>43.9</ele>
        <time>2025-10-28T07:41:50.000Z</time>
      </trkpt>
      <trkpt lat="43.49611" lon="6.629">
        <ele>43.9</ele>
        <time>2025-10-28T07:41:51.000Z</time>
      </trkpt>
      <trkpt lat="43.49613" lon="6.62901">
        <ele>44.3</ele>
        <time>2025-10-28T07:41:52.000Z</time>
      </trkpt>
      <trkpt lat="43.49614" lon="6.62902">
        <ele>44.3</ele>
        <time>2025-10-28T07:41:53.000Z</time>
      </trkpt>
      <trkpt lat="43.49616" lon="6.62904">
        <ele>44.1</ele>
        <time>2025-10-28T07:41:54.000Z</time>
      </trkpt>
      <trkpt lat="43.49618" lon="6.62906">
        <ele>44.4</ele>
        <time>2025-10-28T07:41:55.000Z</time>
      </trkpt>
      <trkpt lat="43.49621" lon="6.62909">
        <ele>44.4</ele>
        <time>2025-10-28T07:41:56.000Z</time>
      </trkpt>
      <trkpt lat="43.49623" lon="6.6291">
        <ele>44.7</ele>
        <time>2025-10-28T07:41:57.000Z</time>
      </trkpt>
      <trkpt lat="43.49627" lon="6.62913">
        <ele>44.2</ele>
        <time>2025-10-28T07:41:58.000Z</time>
      </trkpt>
      <trkpt lat="43.49632" lon="6.62915">
        <ele>44.5</ele>
        <time>2025-10-28T07:41:59.000Z</time>
      </trkpt>
      <trkpt lat="43.49637" lon="6.62917">
        <ele>43.9</ele>
        <time>2025-10-28T07:42:00.000Z</time>
      </trkpt>
      <trkpt lat="43.49641" lon="6.62918">
        <ele>44.3</ele>
        <time>2025-10-28T07:42:01.000Z</time>
      </trkpt>
      <trkpt lat="43.49645" lon="6.62918">
        <ele>44</ele>
        <time>2025-10-28T07:42:02.000Z</time>
      </trkpt>
      <trkpt lat="43.49649" lon="6.62918">
        <ele>43.5</ele>
        <time>2025-10-28T07:42:03.000Z</time>
      </trkpt>
      <trkpt lat="43.49652" lon="6.62918">
        <ele>43.3</ele>
        <time>2025-10-28T07:42:04.000Z</time>
      </trkpt>
      <trkpt lat="43.49657" lon="6.62919">
        <ele>43.1</ele>
        <time>2025-10-28T07:42:05.000Z</time>
      </trkpt>
      <trkpt lat="43.49659" lon="6.6292">
        <ele>42.9</ele>
        <time>2025-10-28T07:42:06.000Z</time>
      </trkpt>
      <trkpt lat="43.49663" lon="6.62921">
        <ele>42.8</ele>
        <time>2025-10-28T07:42:07.000Z</time>
      </trkpt>
      <trkpt lat="43.49666" lon="6.62922">
        <ele>42.7</ele>
        <time>2025-10-28T07:42:08.000Z</time>
      </trkpt>
      <trkpt lat="43.49669" lon="6.62923">
        <ele>43.2</ele>
        <time>2025-10-28T07:42:09.000Z</time>
      </trkpt>
      <trkpt lat="43.49671" lon="6.62924">
        <ele>43.2</ele>
        <time>2025-10-28T07:42:10.000Z</time>
      </trkpt>
      <trkpt lat="43.49674" lon="6.62925">
        <ele>43.1</ele>
        <time>2025-10-28T07:42:11.000Z</time>
      </trkpt>
      <trkpt lat="43.49676" lon="6.62926">
        <ele>43.8</ele>
        <time>2025-10-28T07:42:12.000Z</time>
      </trkpt>
      <trkpt lat="43.49679" lon="6.62928">
        <ele>43.7</ele>
        <time>2025-10-28T07:42:13.000Z</time>
      </trkpt>
      <trkpt lat="43.49681" lon="6.62931">
        <ele>44.4</ele>
        <time>2025-10-28T07:42:14.000Z</time>
      </trkpt>
      <trkpt lat="43.49683" lon="6.62933">
        <ele>44.4</ele>
        <time>2025-10-28T07:42:15.000Z</time>
      </trkpt>
      <trkpt lat="43.49685" lon="6.62935">
        <ele>45</ele>
        <time>2025-10-28T07:42:16.000Z</time>
      </trkpt>
      <trkpt lat="43.49687" lon="6.62937">
        <ele>44.9</ele>
        <time>2025-10-28T07:42:17.000Z</time>
      </trkpt>
      <trkpt lat="43.4969" lon="6.62939">
        <ele>44.9</ele>
        <time>2025-10-28T07:42:18.000Z</time>
      </trkpt>
      <trkpt lat="43.49692" lon="6.6294">
        <ele>45.5</ele>
        <time>2025-10-28T07:42:19.000Z</time>
      </trkpt>
      <trkpt lat="43.49694" lon="6.62942">
        <ele>45.5</ele>
        <time>2025-10-28T07:42:20.000Z</time>
      </trkpt>
      <trkpt lat="43.49697" lon="6.62944">
        <ele>46</ele>
        <time>2025-10-28T07:42:21.000Z</time>
      </trkpt>
      <trkpt lat="43.49699" lon="6.62946">
        <ele>45.9</ele>
        <time>2025-10-28T07:42:22.000Z</time>
      </trkpt>
      <trkpt lat="43.49702" lon="6.62949">
        <ele>46.3</ele>
        <time>2025-10-28T07:42:23.000Z</time>
      </trkpt>
      <trkpt lat="43.49705" lon="6.62951">
        <ele>46.3</ele>
        <time>2025-10-28T07:42:24.000Z</time>
      </trkpt>
      <trkpt lat="43.49708" lon="6.62953">
        <ele>46.6</ele>
        <time>2025-10-28T07:42:25.000Z</time>
      </trkpt>
      <trkpt lat="43.49712" lon="6.62956">
        <ele>46.5</ele>
        <time>2025-10-28T07:42:26.000Z</time>
      </trkpt>
      <trkpt lat="43.49714" lon="6.62958">
        <ele>46.8</ele>
        <time>2025-10-28T07:42:27.000Z</time>
      </trkpt>
      <trkpt lat="43.49716" lon="6.6296">
        <ele>46.7</ele>
        <time>2025-10-28T07:42:28.000Z</time>
      </trkpt>
      <trkpt lat="43.49718" lon="6.62962">
        <ele>46.9</ele>
        <time>2025-10-28T07:42:29.000Z</time>
      </trkpt>
      <trkpt lat="43.49721" lon="6.62964">
        <ele>46.7</ele>
        <time>2025-10-28T07:42:30.000Z</time>
      </trkpt>
      <trkpt lat="43.49724" lon="6.62965">
        <ele>46.8</ele>
        <time>2025-10-28T07:42:31.000Z</time>
      </trkpt>
      <trkpt lat="43.49726" lon="6.62967">
        <ele>46.8</ele>
        <time>2025-10-28T07:42:32.000Z</time>
      </trkpt>
      <trkpt lat="43.49729" lon="6.62968">
        <ele>46.7</ele>
        <time>2025-10-28T07:42:33.000Z</time>
      </trkpt>
      <trkpt lat="43.49731" lon="6.62969">
        <ele>46.8</ele>
        <time>2025-10-28T07:42:34.000Z</time>
      </trkpt>
      <trkpt lat="43.49735" lon="6.62971">
        <ele>46.6</ele>
        <time>2025-10-28T07:42:35.000Z</time>
      </trkpt>
      <trkpt lat="43.49738" lon="6.62971">
        <ele>46.5</ele>
        <time>2025-10-28T07:42:36.000Z</time>
      </trkpt>
      <trkpt lat="43.49741" lon="6.62972">
        <ele>46.5</ele>
        <time>2025-10-28T07:42:37.000Z</time>
      </trkpt>
      <trkpt lat="43.49744" lon="6.62973">
        <ele>46.4</ele>
        <time>2025-10-28T07:42:38.000Z</time>
      </trkpt>
      <trkpt lat="43.49747" lon="6.62974">
        <ele>46.6</ele>
        <time>2025-10-28T07:42:39.000Z</time>
      </trkpt>
      <trkpt lat="43.4975" lon="6.62976">
        <ele>46.6</ele>
        <time>2025-10-28T07:42:40.000Z</time>
      </trkpt>
      <trkpt lat="43.49752" lon="6.62978">
        <ele>46.9</ele>
        <time>2025-10-28T07:42:41.000Z</time>
      </trkpt>
      <trkpt lat="43.49754" lon="6.6298">
        <ele>46.9</ele>
        <time>2025-10-28T07:42:42.000Z</time>
      </trkpt>
      <trkpt lat="43.49757" lon="6.62983">
        <ele>47.1</ele>
        <time>2025-10-28T07:42:43.000Z</time>
      </trkpt>
      <trkpt lat="43.4976" lon="6.62985">
        <ele>47.1</ele>
        <time>2025-10-28T07:42:44.000Z</time>
      </trkpt>
      <trkpt lat="43.49763" lon="6.62986">
        <ele>47.1</ele>
        <time>2025-10-28T07:42:45.000Z</time>
      </trkpt>
      <trkpt lat="43.49766" lon="6.62986">
        <ele>47.3</ele>
        <time>2025-10-28T07:42:46.000Z</time>
      </trkpt>
      <trkpt lat="43.4977" lon="6.62986">
        <ele>47.2</ele>
        <time>2025-10-28T07:42:47.000Z</time>
      </trkpt>
      <trkpt lat="43.49774" lon="6.62987">
        <ele>47</ele>
        <time>2025-10-28T07:42:48.000Z</time>
      </trkpt>
      <trkpt lat="43.49777" lon="6.62987">
        <ele>46.9</ele>
        <time>2025-10-28T07:42:49.000Z</time>
      </trkpt>
      <trkpt lat="43.4978" lon="6.62987">
        <ele>46.7</ele>
        <time>2025-10-28T07:42:50.000Z</time>
      </trkpt>
      <trkpt lat="43.49783" lon="6.62988">
        <ele>46.6</ele>
        <time>2025-10-28T07:42:51.000Z</time>
      </trkpt>
      <trkpt lat="43.49786" lon="6.62988">
        <ele>46.5</ele>
        <time>2025-10-28T07:42:52.000Z</time>
      </trkpt>
      <trkpt lat="43.4979" lon="6.62988">
        <ele>46.5</ele>
        <time>2025-10-28T07:42:53.000Z</time>
      </trkpt>
      <trkpt lat="43.49793" lon="6.62988">
        <ele>46.4</ele>
        <time>2025-10-28T07:42:54.000Z</time>
      </trkpt>
      <trkpt lat="43.49795" lon="6.62988">
        <ele>46.4</ele>
        <time>2025-10-28T07:42:55.000Z</time>
      </trkpt>
      <trkpt lat="43.49798" lon="6.62988">
        <ele>46.4</ele>
        <time>2025-10-28T07:42:56.000Z</time>
      </trkpt>
      <trkpt lat="43.49802" lon="6.62988">
        <ele>46.4</ele>
        <time>2025-10-28T07:42:57.000Z</time>
      </trkpt>
      <trkpt lat="43.49805" lon="6.62988">
        <ele>46.4</ele>
        <time>2025-10-28T07:42:58.000Z</time>
      </trkpt>
      <trkpt lat="43.49807" lon="6.62989">
        <ele>46.4</ele>
        <time>2025-10-28T07:42:59.000Z</time>
      </trkpt>
      <trkpt lat="43.49809" lon="6.62989">
        <ele>46.4</ele>
        <time>2025-10-28T07:43:00.000Z</time>
      </trkpt>
      <trkpt lat="43.49812" lon="6.62989">
        <ele>46.4</ele>
        <time>2025-10-28T07:43:01.000Z</time>
      </trkpt>
      <trkpt lat="43.49814" lon="6.6299">
        <ele>46.5</ele>
        <time>2025-10-28T07:43:02.000Z</time>
      </trkpt>
      <trkpt lat="43.49817" lon="6.62991">
        <ele>46.5</ele>
        <time>2025-10-28T07:43:03.000Z</time>
      </trkpt>
      <trkpt lat="43.49819" lon="6.62991">
        <ele>46.7</ele>
        <time>2025-10-28T07:43:04.000Z</time>
      </trkpt>
      <trkpt lat="43.49821" lon="6.62993">
        <ele>46.8</ele>
        <time>2025-10-28T07:43:05.000Z</time>
      </trkpt>
      <trkpt lat="43.49823" lon="6.62994">
        <ele>46.8</ele>
        <time>2025-10-28T07:43:06.000Z</time>
      </trkpt>
      <trkpt lat="43.49826" lon="6.62996">
        <ele>47</ele>
        <time>2025-10-28T07:43:07.000Z</time>
      </trkpt>
      <trkpt lat="43.49828" lon="6.62997">
        <ele>47</ele>
        <time>2025-10-28T07:43:08.000Z</time>
      </trkpt>
      <trkpt lat="43.4983" lon="6.62999">
        <ele>47.1</ele>
        <time>2025-10-28T07:43:09.000Z</time>
      </trkpt>
      <trkpt lat="43.49833" lon="6.63001">
        <ele>47.3</ele>
        <time>2025-10-28T07:43:10.000Z</time>
      </trkpt>
      <trkpt lat="43.49836" lon="6.63004">
        <ele>47.5</ele>
        <time>2025-10-28T07:43:11.000Z</time>
      </trkpt>
      <trkpt lat="43.49839" lon="6.63006">
        <ele>47.6</ele>
        <time>2025-10-28T07:43:12.000Z</time>
      </trkpt>
      <trkpt lat="43.49841" lon="6.63008">
        <ele>47.8</ele>
        <time>2025-10-28T07:43:13.000Z</time>
      </trkpt>
      <trkpt lat="43.49843" lon="6.6301">
        <ele>47.8</ele>
        <time>2025-10-28T07:43:14.000Z</time>
      </trkpt>
      <trkpt lat="43.49846" lon="6.63012">
        <ele>48.1</ele>
        <time>2025-10-28T07:43:15.000Z</time>
      </trkpt>
      <trkpt lat="43.49849" lon="6.63015">
        <ele>48.1</ele>
        <time>2025-10-28T07:43:16.000Z</time>
      </trkpt>
      <trkpt lat="43.4985" lon="6.63017">
        <ele>48.3</ele>
        <time>2025-10-28T07:43:17.000Z</time>
      </trkpt>
      <trkpt lat="43.49853" lon="6.6302">
        <ele>48.4</ele>
        <time>2025-10-28T07:43:18.000Z</time>
      </trkpt>
      <trkpt lat="43.49855" lon="6.63023">
        <ele>48.6</ele>
        <time>2025-10-28T07:43:19.000Z</time>
      </trkpt>
      <trkpt lat="43.49858" lon="6.63026">
        <ele>48.9</ele>
        <time>2025-10-28T07:43:20.000Z</time>
      </trkpt>
      <trkpt lat="43.49861" lon="6.63028">
        <ele>49</ele>
        <time>2025-10-28T07:43:21.000Z</time>
      </trkpt>
      <trkpt lat="43.49862" lon="6.63031">
        <ele>49.1</ele>
        <time>2025-10-28T07:43:22.000Z</time>
      </trkpt>
      <trkpt lat="43.49865" lon="6.63034">
        <ele>49.4</ele>
        <time>2025-10-28T07:43:23.000Z</time>
      </trkpt>
      <trkpt lat="43.49867" lon="6.63036">
        <ele>49.4</ele>
        <time>2025-10-28T07:43:24.000Z</time>
      </trkpt>
      <trkpt lat="43.49869" lon="6.6304">
        <ele>49.6</ele>
        <time>2025-10-28T07:43:25.000Z</time>
      </trkpt>
      <trkpt lat="43.4987" lon="6.63043">
        <ele>49.8</ele>
        <time>2025-10-28T07:43:26.000Z</time>
      </trkpt>
      <trkpt lat="43.49872" lon="6.63046">
        <ele>49.8</ele>
        <time>2025-10-28T07:43:27.000Z</time>
      </trkpt>
      <trkpt lat="43.49874" lon="6.6305">
        <ele>50</ele>
        <time>2025-10-28T07:43:28.000Z</time>
      </trkpt>
      <trkpt lat="43.49875" lon="6.63053">
        <ele>50.1</ele>
        <time>2025-10-28T07:43:29.000Z</time>
      </trkpt>
      <trkpt lat="43.49875" lon="6.63057">
        <ele>50.3</ele>
        <time>2025-10-28T07:43:30.000Z</time>
      </trkpt>
      <trkpt lat="43.49876" lon="6.63061">
        <ele>50.4</ele>
        <time>2025-10-28T07:43:31.000Z</time>
      </trkpt>
      <trkpt lat="43.49877" lon="6.63064">
        <ele>50.6</ele>
        <time>2025-10-28T07:43:32.000Z</time>
      </trkpt>
      <trkpt lat="43.49879" lon="6.63066">
        <ele>50.6</ele>
        <time>2025-10-28T07:43:33.000Z</time>
      </trkpt>
      <trkpt lat="43.49882" lon="6.63067">
        <ele>50.6</ele>
        <time>2025-10-28T07:43:34.000Z</time>
      </trkpt>
      <trkpt lat="43.49884" lon="6.63069">
        <ele>50.8</ele>
        <time>2025-10-28T07:43:35.000Z</time>
      </trkpt>
      <trkpt lat="43.49887" lon="6.63071">
        <ele>50.8</ele>
        <time>2025-10-28T07:43:36.000Z</time>
      </trkpt>
      <trkpt lat="43.4989" lon="6.63074">
        <ele>50.9</ele>
        <time>2025-10-28T07:43:37.000Z</time>
      </trkpt>
      <trkpt lat="43.49892" lon="6.63078">
        <ele>51</ele>
        <time>2025-10-28T07:43:38.000Z</time>
      </trkpt>
      <trkpt lat="43.49894" lon="6.63081">
        <ele>51.2</ele>
        <time>2025-10-28T07:43:39.000Z</time>
      </trkpt>
      <trkpt lat="43.49896" lon="6.63084">
        <ele>51.1</ele>
        <time>2025-10-28T07:43:40.000Z</time>
      </trkpt>
      <trkpt lat="43.49898" lon="6.63089">
        <ele>51.2</ele>
        <time>2025-10-28T07:43:41.000Z</time>
      </trkpt>
      <trkpt lat="43.499" lon="6.63092">
        <ele>51.4</ele>
        <time>2025-10-28T07:43:42.000Z</time>
      </trkpt>
      <trkpt lat="43.49902" lon="6.63096">
        <ele>51.5</ele>
        <time>2025-10-28T07:43:43.000Z</time>
      </trkpt>
      <trkpt lat="43.49903" lon="6.63099">
        <ele>51.6</ele>
        <time>2025-10-28T07:43:44.000Z</time>
      </trkpt>
      <trkpt lat="43.49904" lon="6.63104">
        <ele>51.7</ele>
        <time>2025-10-28T07:43:45.000Z</time>
      </trkpt>
      <trkpt lat="43.49904" lon="6.63109">
        <ele>51.9</ele>
        <time>2025-10-28T07:43:46.000Z</time>
      </trkpt>
      <trkpt lat="43.49904" lon="6.63114">
        <ele>52</ele>
        <time>2025-10-28T07:43:47.000Z</time>
      </trkpt>
      <trkpt lat="43.49904" lon="6.63118">
        <ele>52.1</ele>
        <time>2025-10-28T07:43:48.000Z</time>
      </trkpt>
      <trkpt lat="43.49904" lon="6.63122">
        <ele>52.3</ele>
        <time>2025-10-28T07:43:49.000Z</time>
      </trkpt>
      <trkpt lat="43.49905" lon="6.63126">
        <ele>52.4</ele>
        <time>2025-10-28T07:43:50.000Z</time>
      </trkpt>
      <trkpt lat="43.49905" lon="6.6313">
        <ele>52.5</ele>
        <time>2025-10-28T07:43:51.000Z</time>
      </trkpt>
      <trkpt lat="43.49905" lon="6.63134">
        <ele>52.7</ele>
        <time>2025-10-28T07:43:52.000Z</time>
      </trkpt>
      <trkpt lat="43.49905" lon="6.63137">
        <ele>52.8</ele>
        <time>2025-10-28T07:43:53.000Z</time>
      </trkpt>
      <trkpt lat="43.49906" lon="6.6314">
        <ele>52.8</ele>
        <time>2025-10-28T07:43:54.000Z</time>
      </trkpt>
      <trkpt lat="43.49908" lon="6.63144">
        <ele>52.9</ele>
        <time>2025-10-28T07:43:55.000Z</time>
      </trkpt>
      <trkpt lat="43.49909" lon="6.63148">
        <ele>53.1</ele>
        <time>2025-10-28T07:43:56.000Z</time>
      </trkpt>
      <trkpt lat="43.4991" lon="6.6315">
        <ele>53.2</ele>
        <time>2025-10-28T07:43:57.000Z</time>
      </trkpt>
      <trkpt lat="43.49912" lon="6.63154">
        <ele>53.4</ele>
        <time>2025-10-28T07:43:58.000Z</time>
      </trkpt>
      <trkpt lat="43.49912" lon="6.63159">
        <ele>53.5</ele>
        <time>2025-10-28T07:43:59.000Z</time>
      </trkpt>
      <trkpt lat="43.49913" lon="6.63163">
        <ele>53.7</ele>
        <time>2025-10-28T07:44:00.000Z</time>
      </trkpt>
      <trkpt lat="43.49913" lon="6.63167">
        <ele>53.8</ele>
        <time>2025-10-28T07:44:01.000Z</time>
      </trkpt>
      <trkpt lat="43.49914" lon="6.6317">
        <ele>53.8</ele>
        <time>2025-10-28T07:44:02.000Z</time>
      </trkpt>
      <trkpt lat="43.49914" lon="6.63175">
        <ele>53.9</ele>
        <time>2025-10-28T07:44:03.000Z</time>
      </trkpt>
      <trkpt lat="43.49914" lon="6.63179">
        <ele>54</ele>
        <time>2025-10-28T07:44:04.000Z</time>
      </trkpt>
      <trkpt lat="43.49914" lon="6.63182">
        <ele>54.2</ele>
        <time>2025-10-28T07:44:05.000Z</time>
      </trkpt>
      <trkpt lat="43.49914" lon="6.63186">
        <ele>54.3</ele>
        <time>2025-10-28T07:44:06.000Z</time>
      </trkpt>
      <trkpt lat="43.49914" lon="6.6319">
        <ele>54.5</ele>
        <time>2025-10-28T07:44:07.000Z</time>
      </trkpt>
      <trkpt lat="43.49913" lon="6.63193">
        <ele>54.7</ele>
        <time>2025-10-28T07:44:08.000Z</time>
      </trkpt>
      <trkpt lat="43.49912" lon="6.63198">
        <ele>54.9</ele>
        <time>2025-10-28T07:44:09.000Z</time>
      </trkpt>
      <trkpt lat="43.49912" lon="6.63202">
        <ele>55.1</ele>
        <time>2025-10-28T07:44:10.000Z</time>
      </trkpt>
      <trkpt lat="43.49912" lon="6.63205">
        <ele>55.2</ele>
        <time>2025-10-28T07:44:11.000Z</time>
      </trkpt>
      <trkpt lat="43.49912" lon="6.63209">
        <ele>55.2</ele>
        <time>2025-10-28T07:44:12.000Z</time>
      </trkpt>
      <trkpt lat="43.49912" lon="6.63213">
        <ele>55.4</ele>
        <time>2025-10-28T07:44:13.000Z</time>
      </trkpt>
      <trkpt lat="43.49912" lon="6.63218">
        <ele>55.7</ele>
        <time>2025-10-28T07:44:14.000Z</time>
      </trkpt>
      <trkpt lat="43.49913" lon="6.63222">
        <ele>55.7</ele>
        <time>2025-10-28T07:44:15.000Z</time>
      </trkpt>
      <trkpt lat="43.49913" lon="6.63226">
        <ele>55.9</ele>
        <time>2025-10-28T07:44:16.000Z</time>
      </trkpt>
      <trkpt lat="43.49913" lon="6.6323">
        <ele>56.1</ele>
        <time>2025-10-28T07:44:17.000Z</time>
      </trkpt>
      <trkpt lat="43.49913" lon="6.63234">
        <ele>56.2</ele>
        <time>2025-10-28T07:44:18.000Z</time>
      </trkpt>
      <trkpt lat="43.49913" lon="6.63237">
        <ele>56.4</ele>
        <time>2025-10-28T07:44:19.000Z</time>
      </trkpt>
      <trkpt lat="43.49913" lon="6.6324">
        <ele>56.6</ele>
        <time>2025-10-28T07:44:20.000Z</time>
      </trkpt>
      <trkpt lat="43.49912" lon="6.63243">
        <ele>56.6</ele>
        <time>2025-10-28T07:44:21.000Z</time>
      </trkpt>
      <trkpt lat="43.49912" lon="6.63246">
        <ele>56.8</ele>
        <time>2025-10-28T07:44:22.000Z</time>
      </trkpt>
      <trkpt lat="43.49912" lon="6.63248">
        <ele>56.8</ele>
        <time>2025-10-28T07:44:23.000Z</time>
      </trkpt>
      <trkpt lat="43.49911" lon="6.63251">
        <ele>57</ele>
        <time>2025-10-28T07:44:24.000Z</time>
      </trkpt>
      <trkpt lat="43.49911" lon="6.63254">
        <ele>57.2</ele>
        <time>2025-10-28T07:44:25.000Z</time>
      </trkpt>
      <trkpt lat="43.49911" lon="6.63257">
        <ele>57.4</ele>
        <time>2025-10-28T07:44:26.000Z</time>
      </trkpt>
      <trkpt lat="43.49911" lon="6.6326">
        <ele>57.4</ele>
        <time>2025-10-28T07:44:27.000Z</time>
      </trkpt>
      <trkpt lat="43.49912" lon="6.63262">
        <ele>57.6</ele>
        <time>2025-10-28T07:44:28.000Z</time>
      </trkpt>
      <trkpt lat="43.49914" lon="6.63263">
        <ele>57.5</ele>
        <time>2025-10-28T07:44:29.000Z</time>
      </trkpt>
      <trkpt lat="43.49916" lon="6.63263">
        <ele>57.5</ele>
        <time>2025-10-28T07:44:30.000Z</time>
      </trkpt>
      <trkpt lat="43.49919" lon="6.63261">
        <ele>57.3</ele>
        <time>2025-10-28T07:44:31.000Z</time>
      </trkpt>
      <trkpt lat="43.49921" lon="6.63259">
        <ele>57.2</ele>
        <time>2025-10-28T07:44:32.000Z</time>
      </trkpt>
      <trkpt lat="43.49923" lon="6.63258">
        <ele>57.2</ele>
        <time>2025-10-28T07:44:33.000Z</time>
      </trkpt>
      <trkpt lat="43.49926" lon="6.63256">
        <ele>56.9</ele>
        <time>2025-10-28T07:44:34.000Z</time>
      </trkpt>
      <trkpt lat="43.49929" lon="6.63254">
        <ele>56.9</ele>
        <time>2025-10-28T07:44:35.000Z</time>
      </trkpt>
      <trkpt lat="43.49932" lon="6.63252">
        <ele>56.7</ele>
        <time>2025-10-28T07:44:36.000Z</time>
      </trkpt>
      <trkpt lat="43.49934" lon="6.6325">
        <ele>56.7</ele>
        <time>2025-10-28T07:44:37.000Z</time>
      </trkpt>
      <trkpt lat="43.49936" lon="6.63249">
        <ele>56.6</ele>
        <time>2025-10-28T07:44:38.000Z</time>
      </trkpt>
      <trkpt lat="43.49939" lon="6.63247">
        <ele>56.4</ele>
        <time>2025-10-28T07:44:39.000Z</time>
      </trkpt>
      <trkpt lat="43.49941" lon="6.63245">
        <ele>56.4</ele>
        <time>2025-10-28T07:44:40.000Z</time>
      </trkpt>
      <trkpt lat="43.49943" lon="6.63244">
        <ele>56.4</ele>
        <time>2025-10-28T07:44:41.000Z</time>
      </trkpt>
      <trkpt lat="43.49944" lon="6.63243">
        <ele>56.2</ele>
        <time>2025-10-28T07:44:42.000Z</time>
      </trkpt>
      <trkpt lat="43.49946" lon="6.63242">
        <ele>56.2</ele>
        <time>2025-10-28T07:44:43.000Z</time>
      </trkpt>
      <trkpt lat="43.49948" lon="6.63242">
        <ele>56.2</ele>
        <time>2025-10-28T07:44:44.000Z</time>
      </trkpt>
      <trkpt lat="43.49949" lon="6.63242">
        <ele>56.2</ele>
        <time>2025-10-28T07:44:45.000Z</time>
      </trkpt>
      <trkpt lat="43.49951" lon="6.63242">
        <ele>56.2</ele>
        <time>2025-10-28T07:44:46.000Z</time>
      </trkpt>
      <trkpt lat="43.49953" lon="6.63243">
        <ele>56.2</ele>
        <time>2025-10-28T07:44:47.000Z</time>
      </trkpt>
      <trkpt lat="43.49955" lon="6.63244">
        <ele>56.4</ele>
        <time>2025-10-28T07:44:48.000Z</time>
      </trkpt>
      <trkpt lat="43.49958" lon="6.63246">
        <ele>56.4</ele>
        <time>2025-10-28T07:44:49.000Z</time>
      </trkpt>
      <trkpt lat="43.4996" lon="6.63247">
        <ele>56.4</ele>
        <time>2025-10-28T07:44:50.000Z</time>
      </trkpt>
      <trkpt lat="43.49962" lon="6.63249">
        <ele>56.5</ele>
        <time>2025-10-28T07:44:51.000Z</time>
      </trkpt>
      <trkpt lat="43.49966" lon="6.63252">
        <ele>56.5</ele>
        <time>2025-10-28T07:44:52.000Z</time>
      </trkpt>
      <trkpt lat="43.49969" lon="6.63253">
        <ele>56.7</ele>
        <time>2025-10-28T07:44:53.000Z</time>
      </trkpt>
      <trkpt lat="43.49973" lon="6.63254">
        <ele>56.7</ele>
        <time>2025-10-28T07:44:54.000Z</time>
      </trkpt>
      <trkpt lat="43.49978" lon="6.63254">
        <ele>56.7</ele>
        <time>2025-10-28T07:44:55.000Z</time>
      </trkpt>
      <trkpt lat="43.49983" lon="6.63253">
        <ele>56.7</ele>
        <time>2025-10-28T07:44:56.000Z</time>
      </trkpt>
      <trkpt lat="43.49988" lon="6.63252">
        <ele>56.6</ele>
        <time>2025-10-28T07:44:57.000Z</time>
      </trkpt>
      <trkpt lat="43.49995" lon="6.63252">
        <ele>56.7</ele>
        <time>2025-10-28T07:44:58.000Z</time>
      </trkpt>
      <trkpt lat="43.50001" lon="6.63253">
        <ele>56.9</ele>
        <time>2025-10-28T07:44:59.000Z</time>
      </trkpt>
      <trkpt lat="43.50006" lon="6.63254">
        <ele>56.9</ele>
        <time>2025-10-28T07:45:00.000Z</time>
      </trkpt>
      <trkpt lat="43.50012" lon="6.63255">
        <ele>57</ele>
        <time>2025-10-28T07:45:01.000Z</time>
      </trkpt>
      <trkpt lat="43.50017" lon="6.63254">
        <ele>57</ele>
        <time>2025-10-28T07:45:02.000Z</time>
      </trkpt>
      <trkpt lat="43.50021" lon="6.63254">
        <ele>57.1</ele>
        <time>2025-10-28T07:45:03.000Z</time>
      </trkpt>
      <trkpt lat="43.50025" lon="6.63252">
        <ele>57</ele>
        <time>2025-10-28T07:45:04.000Z</time>
      </trkpt>
      <trkpt lat="43.50028" lon="6.6325">
        <ele>57</ele>
        <time>2025-10-28T07:45:05.000Z</time>
      </trkpt>
      <trkpt lat="43.5003" lon="6.63247">
        <ele>57</ele>
        <time>2025-10-28T07:45:06.000Z</time>
      </trkpt>
      <trkpt lat="43.50032" lon="6.63243">
        <ele>56.9</ele>
        <time>2025-10-28T07:45:07.000Z</time>
      </trkpt>
      <trkpt lat="43.50033" lon="6.6324">
        <ele>56.8</ele>
        <time>2025-10-28T07:45:08.000Z</time>
      </trkpt>
      <trkpt lat="43.50035" lon="6.63236">
        <ele>56.8</ele>
        <time>2025-10-28T07:45:09.000Z</time>
      </trkpt>
      <trkpt lat="43.50036" lon="6.6323">
        <ele>56.7</ele>
        <time>2025-10-28T07:45:10.000Z</time>
      </trkpt>
      <trkpt lat="43.50037" lon="6.63225">
        <ele>56.6</ele>
        <time>2025-10-28T07:45:11.000Z</time>
      </trkpt>
      <trkpt lat="43.50038" lon="6.63221">
        <ele>56.5</ele>
        <time>2025-10-28T07:45:12.000Z</time>
      </trkpt>
      <trkpt lat="43.50039" lon="6.63217">
        <ele>56.5</ele>
        <time>2025-10-28T07:45:13.000Z</time>
      </trkpt>
      <trkpt lat="43.50039" lon="6.63212">
        <ele>56.4</ele>
        <time>2025-10-28T07:45:14.000Z</time>
      </trkpt>
      <trkpt lat="43.5004" lon="6.63205">
        <ele>56.3</ele>
        <time>2025-10-28T07:45:15.000Z</time>
      </trkpt>
      <trkpt lat="43.50041" lon="6.63201">
        <ele>56.2</ele>
        <time>2025-10-28T07:45:16.000Z</time>
      </trkpt>
      <trkpt lat="43.50041" lon="6.63195">
        <ele>56</ele>
        <time>2025-10-28T07:45:17.000Z</time>
      </trkpt>
      <trkpt lat="43.50041" lon="6.63189">
        <ele>55.9</ele>
        <time>2025-10-28T07:45:18.000Z</time>
      </trkpt>
      <trkpt lat="43.50041" lon="6.63182">
        <ele>55.7</ele>
        <time>2025-10-28T07:45:19.000Z</time>
      </trkpt>
      <trkpt lat="43.5004" lon="6.63175">
        <ele>55.5</ele>
        <time>2025-10-28T07:45:20.000Z</time>
      </trkpt>
      <trkpt lat="43.5004" lon="6.63169">
        <ele>55.4</ele>
        <time>2025-10-28T07:45:21.000Z</time>
      </trkpt>
      <trkpt lat="43.50041" lon="6.63164">
        <ele>55.3</ele>
        <time>2025-10-28T07:45:22.000Z</time>
      </trkpt>
      <trkpt lat="43.50042" lon="6.63158">
        <ele>55.2</ele>
        <time>2025-10-28T07:45:23.000Z</time>
      </trkpt>
      <trkpt lat="43.50043" lon="6.63153">
        <ele>55.1</ele>
        <time>2025-10-28T07:45:24.000Z</time>
      </trkpt>
      <trkpt lat="43.50046" lon="6.63147">
        <ele>55</ele>
        <time>2025-10-28T07:45:25.000Z</time>
      </trkpt>
      <trkpt lat="43.50048" lon="6.63143">
        <ele>55</ele>
        <time>2025-10-28T07:45:26.000Z</time>
      </trkpt>
      <trkpt lat="43.5005" lon="6.63138">
        <ele>55</ele>
        <time>2025-10-28T07:45:27.000Z</time>
      </trkpt>
      <trkpt lat="43.50054" lon="6.63133">
        <ele>54.9</ele>
        <time>2025-10-28T07:45:28.000Z</time>
      </trkpt>
      <trkpt lat="43.50056" lon="6.6313">
        <ele>54.9</ele>
        <time>2025-10-28T07:45:29.000Z</time>
      </trkpt>
      <trkpt lat="43.5006" lon="6.63126">
        <ele>54.9</ele>
        <time>2025-10-28T07:45:30.000Z</time>
      </trkpt>
      <trkpt lat="43.50062" lon="6.63124">
        <ele>54.9</ele>
        <time>2025-10-28T07:45:31.000Z</time>
      </trkpt>
      <trkpt lat="43.50066" lon="6.63121">
        <ele>54.9</ele>
        <time>2025-10-28T07:45:32.000Z</time>
      </trkpt>
      <trkpt lat="43.50069" lon="6.63119">
        <ele>54.9</ele>
        <time>2025-10-28T07:45:33.000Z</time>
      </trkpt>
      <trkpt lat="43.50072" lon="6.63116">
        <ele>54.9</ele>
        <time>2025-10-28T07:45:34.000Z</time>
      </trkpt>
      <trkpt lat="43.50074" lon="6.63114">
        <ele>54.9</ele>
        <time>2025-10-28T07:45:35.000Z</time>
      </trkpt>
      <trkpt lat="43.50076" lon="6.63111">
        <ele>54.9</ele>
        <time>2025-10-28T07:45:36.000Z</time>
      </trkpt>
      <trkpt lat="43.5008" lon="6.63108">
        <ele>54.9</ele>
        <time>2025-10-28T07:45:37.000Z</time>
      </trkpt>
      <trkpt lat="43.50083" lon="6.63106">
        <ele>54.9</ele>
        <time>2025-10-28T07:45:38.000Z</time>
      </trkpt>
      <trkpt lat="43.50087" lon="6.63105">
        <ele>54.9</ele>
        <time>2025-10-28T07:45:39.000Z</time>
      </trkpt>
      <trkpt lat="43.50091" lon="6.63104">
        <ele>55</ele>
        <time>2025-10-28T07:45:40.000Z</time>
      </trkpt>
      <trkpt lat="43.50095" lon="6.63103">
        <ele>55.1</ele>
        <time>2025-10-28T07:45:41.000Z</time>
      </trkpt>
      <trkpt lat="43.50098" lon="6.63103">
        <ele>55.1</ele>
        <time>2025-10-28T07:45:42.000Z</time>
      </trkpt>
      <trkpt lat="43.50102" lon="6.63102">
        <ele>55.2</ele>
        <time>2025-10-28T07:45:43.000Z</time>
      </trkpt>
      <trkpt lat="43.50105" lon="6.63102">
        <ele>55.3</ele>
        <time>2025-10-28T07:45:44.000Z</time>
      </trkpt>
      <trkpt lat="43.50109" lon="6.63101">
        <ele>55.4</ele>
        <time>2025-10-28T07:45:45.000Z</time>
      </trkpt>
      <trkpt lat="43.50113" lon="6.631">
        <ele>55.6</ele>
        <time>2025-10-28T07:45:46.000Z</time>
      </trkpt>
      <trkpt lat="43.50117" lon="6.631">
        <ele>55.8</ele>
        <time>2025-10-28T07:45:47.000Z</time>
      </trkpt>
      <trkpt lat="43.5012" lon="6.63099">
        <ele>56</ele>
        <time>2025-10-28T07:45:48.000Z</time>
      </trkpt>
      <trkpt lat="43.50123" lon="6.63099">
        <ele>56.1</ele>
        <time>2025-10-28T07:45:49.000Z</time>
      </trkpt>
      <trkpt lat="43.50127" lon="6.63099">
        <ele>56.4</ele>
        <time>2025-10-28T07:45:50.000Z</time>
      </trkpt>
      <trkpt lat="43.50131" lon="6.631">
        <ele>56.6</ele>
        <time>2025-10-28T07:45:51.000Z</time>
      </trkpt>
      <trkpt lat="43.50134" lon="6.63099">
        <ele>56.8</ele>
        <time>2025-10-28T07:45:52.000Z</time>
      </trkpt>
      <trkpt lat="43.50136" lon="6.63099">
        <ele>57</ele>
        <time>2025-10-28T07:45:53.000Z</time>
      </trkpt>
      <trkpt lat="43.5014" lon="6.63099">
        <ele>57.2</ele>
        <time>2025-10-28T07:45:54.000Z</time>
      </trkpt>
      <trkpt lat="43.50144" lon="6.63099">
        <ele>57.5</ele>
        <time>2025-10-28T07:45:55.000Z</time>
      </trkpt>
      <trkpt lat="43.50147" lon="6.63099">
        <ele>57.8</ele>
        <time>2025-10-28T07:45:56.000Z</time>
      </trkpt>
      <trkpt lat="43.50149" lon="6.63098">
        <ele>57.9</ele>
        <time>2025-10-28T07:45:57.000Z</time>
      </trkpt>
      <trkpt lat="43.50152" lon="6.63098">
        <ele>58.2</ele>
        <time>2025-10-28T07:45:58.000Z</time>
      </trkpt>
      <trkpt lat="43.50155" lon="6.63097">
        <ele>58.4</ele>
        <time>2025-10-28T07:45:59.000Z</time>
      </trkpt>
      <trkpt lat="43.50159" lon="6.63096">
        <ele>58.6</ele>
        <time>2025-10-28T07:46:00.000Z</time>
      </trkpt>
      <trkpt lat="43.50162" lon="6.63095">
        <ele>58.7</ele>
        <time>2025-10-28T07:46:01.000Z</time>
      </trkpt>
      <trkpt lat="43.50165" lon="6.63094">
        <ele>58.9</ele>
        <time>2025-10-28T07:46:02.000Z</time>
      </trkpt>
      <trkpt lat="43.50168" lon="6.63093">
        <ele>59.1</ele>
        <time>2025-10-28T07:46:03.000Z</time>
      </trkpt>
      <trkpt lat="43.50172" lon="6.63092">
        <ele>59.2</ele>
        <time>2025-10-28T07:46:04.000Z</time>
      </trkpt>
      <trkpt lat="43.50175" lon="6.63091">
        <ele>59.4</ele>
        <time>2025-10-28T07:46:05.000Z</time>
      </trkpt>
      <trkpt lat="43.50179" lon="6.63091">
        <ele>59.5</ele>
        <time>2025-10-28T07:46:06.000Z</time>
      </trkpt>
      <trkpt lat="43.50181" lon="6.6309">
        <ele>59.6</ele>
        <time>2025-10-28T07:46:07.000Z</time>
      </trkpt>
      <trkpt lat="43.50185" lon="6.6309">
        <ele>59.7</ele>
        <time>2025-10-28T07:46:08.000Z</time>
      </trkpt>
      <trkpt lat="43.50189" lon="6.63089">
        <ele>59.9</ele>
        <time>2025-10-28T07:46:09.000Z</time>
      </trkpt>
      <trkpt lat="43.50192" lon="6.63089">
        <ele>60</ele>
        <time>2025-10-28T07:46:10.000Z</time>
      </trkpt>
      <trkpt lat="43.50195" lon="6.63088">
        <ele>60.1</ele>
        <time>2025-10-28T07:46:11.000Z</time>
      </trkpt>
      <trkpt lat="43.50198" lon="6.63088">
        <ele>60.2</ele>
        <time>2025-10-28T07:46:12.000Z</time>
      </trkpt>
      <trkpt lat="43.50202" lon="6.63087">
        <ele>60.3</ele>
        <time>2025-10-28T07:46:13.000Z</time>
      </trkpt>
      <trkpt lat="43.50205" lon="6.63086">
        <ele>60.4</ele>
        <time>2025-10-28T07:46:14.000Z</time>
      </trkpt>
      <trkpt lat="43.50207" lon="6.63086">
        <ele>60.5</ele>
        <time>2025-10-28T07:46:15.000Z</time>
      </trkpt>
      <trkpt lat="43.5021" lon="6.63085">
        <ele>60.6</ele>
        <time>2025-10-28T07:46:16.000Z</time>
      </trkpt>
      <trkpt lat="43.50213" lon="6.63085">
        <ele>60.7</ele>
        <time>2025-10-28T07:46:17.000Z</time>
      </trkpt>
      <trkpt lat="43.50216" lon="6.63085">
        <ele>60.9</ele>
        <time>2025-10-28T07:46:18.000Z</time>
      </trkpt>
      <trkpt lat="43.50219" lon="6.63084">
        <ele>61</ele>
        <time>2025-10-28T07:46:19.000Z</time>
      </trkpt>
      <trkpt lat="43.50222" lon="6.63084">
        <ele>61.1</ele>
        <time>2025-10-28T07:46:20.000Z</time>
      </trkpt>
      <trkpt lat="43.50225" lon="6.63083">
        <ele>61.2</ele>
        <time>2025-10-28T07:46:21.000Z</time>
      </trkpt>
      <trkpt lat="43.50228" lon="6.63082">
        <ele>61.4</ele>
        <time>2025-10-28T07:46:22.000Z</time>
      </trkpt>
      <trkpt lat="43.50232" lon="6.63081">
        <ele>61.6</ele>
        <time>2025-10-28T07:46:23.000Z</time>
      </trkpt>
      <trkpt lat="43.50234" lon="6.63081">
        <ele>61.8</ele>
        <time>2025-10-28T07:46:24.000Z</time>
      </trkpt>
      <trkpt lat="43.50237" lon="6.6308">
        <ele>62</ele>
        <time>2025-10-28T07:46:25.000Z</time>
      </trkpt>
      <trkpt lat="43.5024" lon="6.6308">
        <ele>62.1</ele>
        <time>2025-10-28T07:46:26.000Z</time>
      </trkpt>
      <trkpt lat="43.50244" lon="6.63079">
        <ele>62.4</ele>
        <time>2025-10-28T07:46:27.000Z</time>
      </trkpt>
      <trkpt lat="43.50246" lon="6.63078">
        <ele>62.6</ele>
        <time>2025-10-28T07:46:28.000Z</time>
      </trkpt>
      <trkpt lat="43.50249" lon="6.63077">
        <ele>62.7</ele>
        <time>2025-10-28T07:46:29.000Z</time>
      </trkpt>
      <trkpt lat="43.50252" lon="6.63077">
        <ele>62.9</ele>
        <time>2025-10-28T07:46:30.000Z</time>
      </trkpt>
      <trkpt lat="43.50255" lon="6.63076">
        <ele>63.1</ele>
        <time>2025-10-28T07:46:31.000Z</time>
      </trkpt>
      <trkpt lat="43.50258" lon="6.63075">
        <ele>63.2</ele>
        <time>2025-10-28T07:46:32.000Z</time>
      </trkpt>
      <trkpt lat="43.5026" lon="6.63074">
        <ele>63.3</ele>
        <time>2025-10-28T07:46:33.000Z</time>
      </trkpt>
      <trkpt lat="43.50263" lon="6.63074">
        <ele>63.4</ele>
        <time>2025-10-28T07:46:34.000Z</time>
      </trkpt>
      <trkpt lat="43.50267" lon="6.63073">
        <ele>63.5</ele>
        <time>2025-10-28T07:46:35.000Z</time>
      </trkpt>
      <trkpt lat="43.5027" lon="6.63072">
        <ele>63.6</ele>
        <time>2025-10-28T07:46:36.000Z</time>
      </trkpt>
      <trkpt lat="43.50273" lon="6.63071">
        <ele>63.6</ele>
        <time>2025-10-28T07:46:37.000Z</time>
      </trkpt>
      <trkpt lat="43.50276" lon="6.6307">
        <ele>63.7</ele>
        <time>2025-10-28T07:46:38.000Z</time>
      </trkpt>
      <trkpt lat="43.5028" lon="6.63069">
        <ele>63.8</ele>
        <time>2025-10-28T07:46:39.000Z</time>
      </trkpt>
      <trkpt lat="43.50284" lon="6.63068">
        <ele>63.9</ele>
        <time>2025-10-28T07:46:40.000Z</time>
      </trkpt>
      <trkpt lat="43.50287" lon="6.63067">
        <ele>64</ele>
        <time>2025-10-28T07:46:41.000Z</time>
      </trkpt>
      <trkpt lat="43.5029" lon="6.63066">
        <ele>64.2</ele>
        <time>2025-10-28T07:46:42.000Z</time>
      </trkpt>
      <trkpt lat="43.50294" lon="6.63065">
        <ele>64.3</ele>
        <time>2025-10-28T07:46:43.000Z</time>
      </trkpt>
      <trkpt lat="43.50297" lon="6.63064">
        <ele>64.6</ele>
        <time>2025-10-28T07:46:44.000Z</time>
      </trkpt>
      <trkpt lat="43.50302" lon="6.63063">
        <ele>64.9</ele>
        <time>2025-10-28T07:46:45.000Z</time>
      </trkpt>
      <trkpt lat="43.50305" lon="6.63062">
        <ele>65.1</ele>
        <time>2025-10-28T07:46:46.000Z</time>
      </trkpt>
      <trkpt lat="43.50308" lon="6.63062">
        <ele>65.3</ele>
        <time>2025-10-28T07:46:47.000Z</time>
      </trkpt>
      <trkpt lat="43.50312" lon="6.63061">
        <ele>65.7</ele>
        <time>2025-10-28T07:46:48.000Z</time>
      </trkpt>
      <trkpt lat="43.50315" lon="6.6306">
        <ele>66</ele>
        <time>2025-10-28T07:46:49.000Z</time>
      </trkpt>
      <trkpt lat="43.50318" lon="6.63059">
        <ele>66.3</ele>
        <time>2025-10-28T07:46:50.000Z</time>
      </trkpt>
      <trkpt lat="43.50321" lon="6.63058">
        <ele>66.6</ele>
        <time>2025-10-28T07:46:51.000Z</time>
      </trkpt>
      <trkpt lat="43.50324" lon="6.63058">
        <ele>66.9</ele>
        <time>2025-10-28T07:46:52.000Z</time>
      </trkpt>
      <trkpt lat="43.50327" lon="6.63057">
        <ele>67.2</ele>
        <time>2025-10-28T07:46:53.000Z</time>
      </trkpt>
      <trkpt lat="43.50331" lon="6.63057">
        <ele>67.4</ele>
        <time>2025-10-28T07:46:54.000Z</time>
      </trkpt>
      <trkpt lat="43.50334" lon="6.63055">
        <ele>67.6</ele>
        <time>2025-10-28T07:46:55.000Z</time>
      </trkpt>
      <trkpt lat="43.50337" lon="6.63054">
        <ele>67.7</ele>
        <time>2025-10-28T07:46:56.000Z</time>
      </trkpt>
      <trkpt lat="43.50341" lon="6.63053">
        <ele>67.9</ele>
        <time>2025-10-28T07:46:57.000Z</time>
      </trkpt>
      <trkpt lat="43.50343" lon="6.63052">
        <ele>68</ele>
        <time>2025-10-28T07:46:58.000Z</time>
      </trkpt>
      <trkpt lat="43.50346" lon="6.63051">
        <ele>68.1</ele>
        <time>2025-10-28T07:46:59.000Z</time>
      </trkpt>
      <trkpt lat="43.50349" lon="6.6305">
        <ele>68.1</ele>
        <time>2025-10-28T07:47:00.000Z</time>
      </trkpt>
      <trkpt lat="43.50352" lon="6.63049">
        <ele>68.2</ele>
        <time>2025-10-28T07:47:01.000Z</time>
      </trkpt>
      <trkpt lat="43.50356" lon="6.63048">
        <ele>68.2</ele>
        <time>2025-10-28T07:47:02.000Z</time>
      </trkpt>
      <trkpt lat="43.50359" lon="6.63048">
        <ele>68.3</ele>
        <time>2025-10-28T07:47:03.000Z</time>
      </trkpt>
      <trkpt lat="43.50361" lon="6.63047">
        <ele>68.3</ele>
        <time>2025-10-28T07:47:04.000Z</time>
      </trkpt>
      <trkpt lat="43.50364" lon="6.63047">
        <ele>68.3</ele>
        <time>2025-10-28T07:47:05.000Z</time>
      </trkpt>
      <trkpt lat="43.50368" lon="6.63047">
        <ele>68.3</ele>
        <time>2025-10-28T07:47:06.000Z</time>
      </trkpt>
      <trkpt lat="43.50371" lon="6.63046">
        <ele>68.4</ele>
        <time>2025-10-28T07:47:07.000Z</time>
      </trkpt>
      <trkpt lat="43.50375" lon="6.63045">
        <ele>68.4</ele>
        <time>2025-10-28T07:47:08.000Z</time>
      </trkpt>
      <trkpt lat="43.50378" lon="6.63044">
        <ele>68.4</ele>
        <time>2025-10-28T07:47:09.000Z</time>
      </trkpt>
      <trkpt lat="43.50382" lon="6.63043">
        <ele>68.4</ele>
        <time>2025-10-28T07:47:10.000Z</time>
      </trkpt>
      <trkpt lat="43.50386" lon="6.63041">
        <ele>68.4</ele>
        <time>2025-10-28T07:47:11.000Z</time>
      </trkpt>
      <trkpt lat="43.50389" lon="6.6304">
        <ele>68.4</ele>
        <time>2025-10-28T07:47:12.000Z</time>
      </trkpt>
      <trkpt lat="43.50392" lon="6.63039">
        <ele>68.4</ele>
        <time>2025-10-28T07:47:13.000Z</time>
      </trkpt>
      <trkpt lat="43.50395" lon="6.63038">
        <ele>68.4</ele>
        <time>2025-10-28T07:47:14.000Z</time>
      </trkpt>
      <trkpt lat="43.504" lon="6.63037">
        <ele>68.4</ele>
        <time>2025-10-28T07:47:15.000Z</time>
      </trkpt>
      <trkpt lat="43.50404" lon="6.63036">
        <ele>68.5</ele>
        <time>2025-10-28T07:47:16.000Z</time>
      </trkpt>
      <trkpt lat="43.50407" lon="6.63035">
        <ele>68.6</ele>
        <time>2025-10-28T07:47:17.000Z</time>
      </trkpt>
      <trkpt lat="43.5041" lon="6.63034">
        <ele>68.7</ele>
        <time>2025-10-28T07:47:18.000Z</time>
      </trkpt>
      <trkpt lat="43.50415" lon="6.63032">
        <ele>68.8</ele>
        <time>2025-10-28T07:47:19.000Z</time>
      </trkpt>
      <trkpt lat="43.50418" lon="6.63031">
        <ele>69</ele>
        <time>2025-10-28T07:47:20.000Z</time>
      </trkpt>
      <trkpt lat="43.50422" lon="6.6303">
        <ele>69.3</ele>
        <time>2025-10-28T07:47:21.000Z</time>
      </trkpt>
      <trkpt lat="43.50426" lon="6.63029">
        <ele>69.5</ele>
        <time>2025-10-28T07:47:22.000Z</time>
      </trkpt>
      <trkpt lat="43.50428" lon="6.63028">
        <ele>69.6</ele>
        <time>2025-10-28T07:47:23.000Z</time>
      </trkpt>
      <trkpt lat="43.50432" lon="6.63027">
        <ele>69.9</ele>
        <time>2025-10-28T07:47:24.000Z</time>
      </trkpt>
      <trkpt lat="43.50436" lon="6.63026">
        <ele>70.1</ele>
        <time>2025-10-28T07:47:25.000Z</time>
      </trkpt>
      <trkpt lat="43.50438" lon="6.63025">
        <ele>70.2</ele>
        <time>2025-10-28T07:47:26.000Z</time>
      </trkpt>
      <trkpt lat="43.50442" lon="6.63024">
        <ele>70.5</ele>
        <time>2025-10-28T07:47:27.000Z</time>
      </trkpt>
      <trkpt lat="43.50446" lon="6.63023">
        <ele>70.7</ele>
        <time>2025-10-28T07:47:28.000Z</time>
      </trkpt>
      <trkpt lat="43.50449" lon="6.63022">
        <ele>70.9</ele>
        <time>2025-10-28T07:47:29.000Z</time>
      </trkpt>
      <trkpt lat="43.50453" lon="6.63022">
        <ele>71.1</ele>
        <time>2025-10-28T07:47:30.000Z</time>
      </trkpt>
      <trkpt lat="43.50456" lon="6.63022">
        <ele>71.3</ele>
        <time>2025-10-28T07:47:31.000Z</time>
      </trkpt>
      <trkpt lat="43.50459" lon="6.63021">
        <ele>71.4</ele>
        <time>2025-10-28T07:47:32.000Z</time>
      </trkpt>
      <trkpt lat="43.50462" lon="6.6302">
        <ele>71.6</ele>
        <time>2025-10-28T07:47:33.000Z</time>
      </trkpt>
      <trkpt lat="43.50466" lon="6.6302">
        <ele>71.7</ele>
        <time>2025-10-28T07:47:34.000Z</time>
      </trkpt>
      <trkpt lat="43.50468" lon="6.63019">
        <ele>71.8</ele>
        <time>2025-10-28T07:47:35.000Z</time>
      </trkpt>
      <trkpt lat="43.50471" lon="6.63018">
        <ele>71.8</ele>
        <time>2025-10-28T07:47:36.000Z</time>
      </trkpt>
      <trkpt lat="43.50474" lon="6.63017">
        <ele>71.9</ele>
        <time>2025-10-28T07:47:37.000Z</time>
      </trkpt>
      <trkpt lat="43.50478" lon="6.63016">
        <ele>71.9</ele>
        <time>2025-10-28T07:47:38.000Z</time>
      </trkpt>
      <trkpt lat="43.50481" lon="6.63016">
        <ele>71.9</ele>
        <time>2025-10-28T07:47:39.000Z</time>
      </trkpt>
      <trkpt lat="43.50484" lon="6.63015">
        <ele>71.9</ele>
        <time>2025-10-28T07:47:40.000Z</time>
      </trkpt>
      <trkpt lat="43.50487" lon="6.63014">
        <ele>71.8</ele>
        <time>2025-10-28T07:47:41.000Z</time>
      </trkpt>
      <trkpt lat="43.5049" lon="6.63013">
        <ele>71.7</ele>
        <time>2025-10-28T07:47:42.000Z</time>
      </trkpt>
      <trkpt lat="43.50493" lon="6.63012">
        <ele>71.6</ele>
        <time>2025-10-28T07:47:43.000Z</time>
      </trkpt>
      <trkpt lat="43.50497" lon="6.63012">
        <ele>71.5</ele>
        <time>2025-10-28T07:47:44.000Z</time>
      </trkpt>
      <trkpt lat="43.505" lon="6.63012">
        <ele>71.4</ele>
        <time>2025-10-28T07:47:45.000Z</time>
      </trkpt>
      <trkpt lat="43.50504" lon="6.63011">
        <ele>71.3</ele>
        <time>2025-10-28T07:47:46.000Z</time>
      </trkpt>
      <trkpt lat="43.50509" lon="6.6301">
        <ele>71.2</ele>
        <time>2025-10-28T07:47:47.000Z</time>
      </trkpt>
      <trkpt lat="43.50514" lon="6.63009">
        <ele>71.1</ele>
        <time>2025-10-28T07:47:48.000Z</time>
      </trkpt>
      <trkpt lat="43.50518" lon="6.63008">
        <ele>71.2</ele>
        <time>2025-10-28T07:47:49.000Z</time>
      </trkpt>
      <trkpt lat="43.50523" lon="6.63007">
        <ele>71.3</ele>
        <time>2025-10-28T07:47:50.000Z</time>
      </trkpt>
      <trkpt lat="43.50526" lon="6.63007">
        <ele>71.5</ele>
        <time>2025-10-28T07:47:51.000Z</time>
      </trkpt>
      <trkpt lat="43.50529" lon="6.63005">
        <ele>71.7</ele>
        <time>2025-10-28T07:47:52.000Z</time>
      </trkpt>
      <trkpt lat="43.50532" lon="6.63003">
        <ele>71.9</ele>
        <time>2025-10-28T07:47:53.000Z</time>
      </trkpt>
      <trkpt lat="43.50535" lon="6.63002">
        <ele>72.2</ele>
        <time>2025-10-28T07:47:54.000Z</time>
      </trkpt>
      <trkpt lat="43.50538" lon="6.63">
        <ele>72.4</ele>
        <time>2025-10-28T07:47:55.000Z</time>
      </trkpt>
      <trkpt lat="43.50541" lon="6.62999">
        <ele>72.7</ele>
        <time>2025-10-28T07:47:56.000Z</time>
      </trkpt>
      <trkpt lat="43.50545" lon="6.62998">
        <ele>72.9</ele>
        <time>2025-10-28T07:47:57.000Z</time>
      </trkpt>
      <trkpt lat="43.50547" lon="6.62997">
        <ele>73.1</ele>
        <time>2025-10-28T07:47:58.000Z</time>
      </trkpt>
      <trkpt lat="43.50551" lon="6.62996">
        <ele>73.4</ele>
        <time>2025-10-28T07:47:59.000Z</time>
      </trkpt>
      <trkpt lat="43.50554" lon="6.62996">
        <ele>73.6</ele>
        <time>2025-10-28T07:48:00.000Z</time>
      </trkpt>
      <trkpt lat="43.50557" lon="6.62995">
        <ele>73.7</ele>
        <time>2025-10-28T07:48:01.000Z</time>
      </trkpt>
      <trkpt lat="43.50559" lon="6.62995">
        <ele>73.9</ele>
        <time>2025-10-28T07:48:02.000Z</time>
      </trkpt>
      <trkpt lat="43.50562" lon="6.62993">
        <ele>74</ele>
        <time>2025-10-28T07:48:03.000Z</time>
      </trkpt>
      <trkpt lat="43.50565" lon="6.62992">
        <ele>74.2</ele>
        <time>2025-10-28T07:48:04.000Z</time>
      </trkpt>
      <trkpt lat="43.50569" lon="6.62992">
        <ele>74.3</ele>
        <time>2025-10-28T07:48:05.000Z</time>
      </trkpt>
      <trkpt lat="43.50571" lon="6.62991">
        <ele>74.4</ele>
        <time>2025-10-28T07:48:06.000Z</time>
      </trkpt>
      <trkpt lat="43.50575" lon="6.6299">
        <ele>74.5</ele>
        <time>2025-10-28T07:48:07.000Z</time>
      </trkpt>
      <trkpt lat="43.50578" lon="6.62989">
        <ele>74.6</ele>
        <time>2025-10-28T07:48:08.000Z</time>
      </trkpt>
      <trkpt lat="43.50582" lon="6.62988">
        <ele>74.7</ele>
        <time>2025-10-28T07:48:09.000Z</time>
      </trkpt>
      <trkpt lat="43.50585" lon="6.62988">
        <ele>74.8</ele>
        <time>2025-10-28T07:48:10.000Z</time>
      </trkpt>
      <trkpt lat="43.50588" lon="6.62988">
        <ele>74.8</ele>
        <time>2025-10-28T07:48:11.000Z</time>
      </trkpt>
      <trkpt lat="43.50591" lon="6.62987">
        <ele>74.9</ele>
        <time>2025-10-28T07:48:12.000Z</time>
      </trkpt>
      <trkpt lat="43.50594" lon="6.62986">
        <ele>74.9</ele>
        <time>2025-10-28T07:48:13.000Z</time>
      </trkpt>
      <trkpt lat="43.50598" lon="6.62985">
        <ele>74.9</ele>
        <time>2025-10-28T07:48:14.000Z</time>
      </trkpt>
      <trkpt lat="43.50602" lon="6.62984">
        <ele>74.9</ele>
        <time>2025-10-28T07:48:15.000Z</time>
      </trkpt>
      <trkpt lat="43.50606" lon="6.62983">
        <ele>74.9</ele>
        <time>2025-10-28T07:48:16.000Z</time>
      </trkpt>
      <trkpt lat="43.50611" lon="6.62982">
        <ele>75</ele>
        <time>2025-10-28T07:48:17.000Z</time>
      </trkpt>
      <trkpt lat="43.50615" lon="6.62981">
        <ele>75.1</ele>
        <time>2025-10-28T07:48:18.000Z</time>
      </trkpt>
      <trkpt lat="43.50617" lon="6.62981">
        <ele>75.2</ele>
        <time>2025-10-28T07:48:19.000Z</time>
      </trkpt>
      <trkpt lat="43.50621" lon="6.6298">
        <ele>75.3</ele>
        <time>2025-10-28T07:48:20.000Z</time>
      </trkpt>
      <trkpt lat="43.50624" lon="6.62978">
        <ele>75.5</ele>
        <time>2025-10-28T07:48:21.000Z</time>
      </trkpt>
      <trkpt lat="43.50627" lon="6.62977">
        <ele>75.6</ele>
        <time>2025-10-28T07:48:22.000Z</time>
      </trkpt>
      <trkpt lat="43.50631" lon="6.62976">
        <ele>75.8</ele>
        <time>2025-10-28T07:48:23.000Z</time>
      </trkpt>
      <trkpt lat="43.50634" lon="6.62975">
        <ele>75.9</ele>
        <time>2025-10-28T07:48:24.000Z</time>
      </trkpt>
      <trkpt lat="43.50637" lon="6.62975">
        <ele>76.1</ele>
        <time>2025-10-28T07:48:25.000Z</time>
      </trkpt>
      <trkpt lat="43.50641" lon="6.62975">
        <ele>76.4</ele>
        <time>2025-10-28T07:48:26.000Z</time>
      </trkpt>
      <trkpt lat="43.50644" lon="6.62976">
        <ele>76.6</ele>
        <time>2025-10-28T07:48:27.000Z</time>
      </trkpt>
      <trkpt lat="43.50647" lon="6.62977">
        <ele>76.8</ele>
        <time>2025-10-28T07:48:28.000Z</time>
      </trkpt>
      <trkpt lat="43.50651" lon="6.62978">
        <ele>77.1</ele>
        <time>2025-10-28T07:48:29.000Z</time>
      </trkpt>
      <trkpt lat="43.50654" lon="6.62978">
        <ele>77.3</ele>
        <time>2025-10-28T07:48:30.000Z</time>
      </trkpt>
      <trkpt lat="43.50657" lon="6.62979">
        <ele>77.6</ele>
        <time>2025-10-28T07:48:31.000Z</time>
      </trkpt>
      <trkpt lat="43.5066" lon="6.62979">
        <ele>77.8</ele>
        <time>2025-10-28T07:48:32.000Z</time>
      </trkpt>
      <trkpt lat="43.50663" lon="6.6298">
        <ele>78</ele>
        <time>2025-10-28T07:48:33.000Z</time>
      </trkpt>
      <trkpt lat="43.50666" lon="6.6298">
        <ele>78.1</ele>
        <time>2025-10-28T07:48:34.000Z</time>
      </trkpt>
      <trkpt lat="43.50669" lon="6.6298">
        <ele>78.2</ele>
        <time>2025-10-28T07:48:35.000Z</time>
      </trkpt>
      <trkpt lat="43.50673" lon="6.6298">
        <ele>78.3</ele>
        <time>2025-10-28T07:48:36.000Z</time>
      </trkpt>
      <trkpt lat="43.50676" lon="6.6298">
        <ele>78.4</ele>
        <time>2025-10-28T07:48:37.000Z</time>
      </trkpt>
      <trkpt lat="43.50679" lon="6.6298">
        <ele>78.5</ele>
        <time>2025-10-28T07:48:38.000Z</time>
      </trkpt>
      <trkpt lat="43.50682" lon="6.62981">
        <ele>78.6</ele>
        <time>2025-10-28T07:48:39.000Z</time>
      </trkpt>
      <trkpt lat="43.50686" lon="6.62981">
        <ele>78.6</ele>
        <time>2025-10-28T07:48:40.000Z</time>
      </trkpt>
      <trkpt lat="43.50688" lon="6.62982">
        <ele>78.6</ele>
        <time>2025-10-28T07:48:41.000Z</time>
      </trkpt>
      <trkpt lat="43.50693" lon="6.62982">
        <ele>78.6</ele>
        <time>2025-10-28T07:48:42.000Z</time>
      </trkpt>
      <trkpt lat="43.50696" lon="6.62983">
        <ele>78.5</ele>
        <time>2025-10-28T07:48:43.000Z</time>
      </trkpt>
      <trkpt lat="43.507" lon="6.62983">
        <ele>78.5</ele>
        <time>2025-10-28T07:48:44.000Z</time>
      </trkpt>
      <trkpt lat="43.50704" lon="6.62983">
        <ele>78.5</ele>
        <time>2025-10-28T07:48:45.000Z</time>
      </trkpt>
      <trkpt lat="43.50707" lon="6.62984">
        <ele>78.5</ele>
        <time>2025-10-28T07:48:46.000Z</time>
      </trkpt>
      <trkpt lat="43.50712" lon="6.62983">
        <ele>78.6</ele>
        <time>2025-10-28T07:48:47.000Z</time>
      </trkpt>
      <trkpt lat="43.50715" lon="6.62983">
        <ele>78.7</ele>
        <time>2025-10-28T07:48:48.000Z</time>
      </trkpt>
      <trkpt lat="43.50719" lon="6.62984">
        <ele>78.8</ele>
        <time>2025-10-28T07:48:49.000Z</time>
      </trkpt>
      <trkpt lat="43.50722" lon="6.62984">
        <ele>78.9</ele>
        <time>2025-10-28T07:48:50.000Z</time>
      </trkpt>
      <trkpt lat="43.50725" lon="6.62984">
        <ele>79</ele>
        <time>2025-10-28T07:48:51.000Z</time>
      </trkpt>
      <trkpt lat="43.50729" lon="6.62984">
        <ele>79.2</ele>
        <time>2025-10-28T07:48:52.000Z</time>
      </trkpt>
      <trkpt lat="43.50733" lon="6.62984">
        <ele>79.4</ele>
        <time>2025-10-28T07:48:53.000Z</time>
      </trkpt>
      <trkpt lat="43.50737" lon="6.62985">
        <ele>79.5</ele>
        <time>2025-10-28T07:48:54.000Z</time>
      </trkpt>
      <trkpt lat="43.5074" lon="6.62985">
        <ele>79.7</ele>
        <time>2025-10-28T07:48:55.000Z</time>
      </trkpt>
      <trkpt lat="43.50744" lon="6.62986">
        <ele>79.8</ele>
        <time>2025-10-28T07:48:56.000Z</time>
      </trkpt>
      <trkpt lat="43.50748" lon="6.62986">
        <ele>79.9</ele>
        <time>2025-10-28T07:48:57.000Z</time>
      </trkpt>
      <trkpt lat="43.50751" lon="6.62986">
        <ele>80</ele>
        <time>2025-10-28T07:48:58.000Z</time>
      </trkpt>
      <trkpt lat="43.50755" lon="6.62987">
        <ele>80.1</ele>
        <time>2025-10-28T07:48:59.000Z</time>
      </trkpt>
      <trkpt lat="43.50758" lon="6.62987">
        <ele>80.2</ele>
        <time>2025-10-28T07:49:00.000Z</time>
      </trkpt>
      <trkpt lat="43.50762" lon="6.62987">
        <ele>80.3</ele>
        <time>2025-10-28T07:49:01.000Z</time>
      </trkpt>
      <trkpt lat="43.50766" lon="6.62987">
        <ele>80.5</ele>
        <time>2025-10-28T07:49:02.000Z</time>
      </trkpt>
      <trkpt lat="43.5077" lon="6.62988">
        <ele>80.6</ele>
        <time>2025-10-28T07:49:03.000Z</time>
      </trkpt>
      <trkpt lat="43.50772" lon="6.62988">
        <ele>80.7</ele>
        <time>2025-10-28T07:49:04.000Z</time>
      </trkpt>
      <trkpt lat="43.50776" lon="6.62989">
        <ele>80.8</ele>
        <time>2025-10-28T07:49:05.000Z</time>
      </trkpt>
      <trkpt lat="43.5078" lon="6.62989">
        <ele>80.9</ele>
        <time>2025-10-28T07:49:06.000Z</time>
      </trkpt>
      <trkpt lat="43.50783" lon="6.62989">
        <ele>81</ele>
        <time>2025-10-28T07:49:07.000Z</time>
      </trkpt>
      <trkpt lat="43.50786" lon="6.62989">
        <ele>81.1</ele>
        <time>2025-10-28T07:49:08.000Z</time>
      </trkpt>
      <trkpt lat="43.50789" lon="6.62989">
        <ele>81.2</ele>
        <time>2025-10-28T07:49:09.000Z</time>
      </trkpt>
      <trkpt lat="43.50793" lon="6.62988">
        <ele>81.2</ele>
        <time>2025-10-28T07:49:10.000Z</time>
      </trkpt>
      <trkpt lat="43.50796" lon="6.62987">
        <ele>81.3</ele>
        <time>2025-10-28T07:49:11.000Z</time>
      </trkpt>
      <trkpt lat="43.50799" lon="6.62987">
        <ele>81.4</ele>
        <time>2025-10-28T07:49:12.000Z</time>
      </trkpt>
      <trkpt lat="43.50803" lon="6.62987">
        <ele>81.5</ele>
        <time>2025-10-28T07:49:13.000Z</time>
      </trkpt>
      <trkpt lat="43.50807" lon="6.62987">
        <ele>81.6</ele>
        <time>2025-10-28T07:49:14.000Z</time>
      </trkpt>
      <trkpt lat="43.50811" lon="6.62988">
        <ele>81.8</ele>
        <time>2025-10-28T07:49:15.000Z</time>
      </trkpt>
      <trkpt lat="43.50814" lon="6.62988">
        <ele>82</ele>
        <time>2025-10-28T07:49:16.000Z</time>
      </trkpt>
      <trkpt lat="43.50817" lon="6.62987">
        <ele>82.2</ele>
        <time>2025-10-28T07:49:17.000Z</time>
      </trkpt>
      <trkpt lat="43.5082" lon="6.62986">
        <ele>82.4</ele>
        <time>2025-10-28T07:49:18.000Z</time>
      </trkpt>
      <trkpt lat="43.50823" lon="6.62985">
        <ele>82.7</ele>
        <time>2025-10-28T07:49:19.000Z</time>
      </trkpt>
      <trkpt lat="43.50826" lon="6.62984">
        <ele>82.9</ele>
        <time>2025-10-28T07:49:20.000Z</time>
      </trkpt>
      <trkpt lat="43.50829" lon="6.62982">
        <ele>83.2</ele>
        <time>2025-10-28T07:49:21.000Z</time>
      </trkpt>
      <trkpt lat="43.50831" lon="6.62981">
        <ele>83.4</ele>
        <time>2025-10-28T07:49:22.000Z</time>
      </trkpt>
      <trkpt lat="43.50834" lon="6.62981">
        <ele>83.7</ele>
        <time>2025-10-28T07:49:23.000Z</time>
      </trkpt>
      <trkpt lat="43.50837" lon="6.6298">
        <ele>84</ele>
        <time>2025-10-28T07:49:24.000Z</time>
      </trkpt>
      <trkpt lat="43.50839" lon="6.62979">
        <ele>84.2</ele>
        <time>2025-10-28T07:49:25.000Z</time>
      </trkpt>
      <trkpt lat="43.50842" lon="6.62979">
        <ele>84.4</ele>
        <time>2025-10-28T07:49:26.000Z</time>
      </trkpt>
      <trkpt lat="43.50846" lon="6.62978">
        <ele>84.7</ele>
        <time>2025-10-28T07:49:27.000Z</time>
      </trkpt>
      <trkpt lat="43.50849" lon="6.62978">
        <ele>84.9</ele>
        <time>2025-10-28T07:49:28.000Z</time>
      </trkpt>
      <trkpt lat="43.50852" lon="6.62977">
        <ele>85.1</ele>
        <time>2025-10-28T07:49:29.000Z</time>
      </trkpt>
      <trkpt lat="43.50854" lon="6.62977">
        <ele>85.3</ele>
        <time>2025-10-28T07:49:30.000Z</time>
      </trkpt>
      <trkpt lat="43.50858" lon="6.62976">
        <ele>85.4</ele>
        <time>2025-10-28T07:49:31.000Z</time>
      </trkpt>
      <trkpt lat="43.50861" lon="6.62976">
        <ele>85.6</ele>
        <time>2025-10-28T07:49:32.000Z</time>
      </trkpt>
      <trkpt lat="43.50863" lon="6.62976">
        <ele>85.7</ele>
        <time>2025-10-28T07:49:33.000Z</time>
      </trkpt>
      <trkpt lat="43.50866" lon="6.62977">
        <ele>85.7</ele>
        <time>2025-10-28T07:49:34.000Z</time>
      </trkpt>
      <trkpt lat="43.50869" lon="6.62978">
        <ele>85.8</ele>
        <time>2025-10-28T07:49:35.000Z</time>
      </trkpt>
      <trkpt lat="43.50872" lon="6.62978">
        <ele>85.9</ele>
        <time>2025-10-28T07:49:36.000Z</time>
      </trkpt>
      <trkpt lat="43.50876" lon="6.62978">
        <ele>86</ele>
        <time>2025-10-28T07:49:37.000Z</time>
      </trkpt>
      <trkpt lat="43.50879" lon="6.62978">
        <ele>86.1</ele>
        <time>2025-10-28T07:49:38.000Z</time>
      </trkpt>
      <trkpt lat="43.50881" lon="6.62977">
        <ele>86.1</ele>
        <time>2025-10-28T07:49:39.000Z</time>
      </trkpt>
      <trkpt lat="43.50883" lon="6.62977">
        <ele>86.2</ele>
        <time>2025-10-28T07:49:40.000Z</time>
      </trkpt>
      <trkpt lat="43.50886" lon="6.62976">
        <ele>86.3</ele>
        <time>2025-10-28T07:49:41.000Z</time>
      </trkpt>
      <trkpt lat="43.50889" lon="6.62975">
        <ele>86.5</ele>
        <time>2025-10-28T07:49:42.000Z</time>
      </trkpt>
      <trkpt lat="43.50892" lon="6.62975">
        <ele>86.6</ele>
        <time>2025-10-28T07:49:43.000Z</time>
      </trkpt>
      <trkpt lat="43.50895" lon="6.62975">
        <ele>86.7</ele>
        <time>2025-10-28T07:49:44.000Z</time>
      </trkpt>
      <trkpt lat="43.50899" lon="6.62976">
        <ele>87</ele>
        <time>2025-10-28T07:49:45.000Z</time>
      </trkpt>
      <trkpt lat="43.50903" lon="6.62976">
        <ele>87.3</ele>
        <time>2025-10-28T07:49:46.000Z</time>
      </trkpt>
      <trkpt lat="43.50906" lon="6.62977">
        <ele>87.6</ele>
        <time>2025-10-28T07:49:47.000Z</time>
      </trkpt>
      <trkpt lat="43.50909" lon="6.62978">
        <ele>87.9</ele>
        <time>2025-10-28T07:49:48.000Z</time>
      </trkpt>
      <trkpt lat="43.50912" lon="6.62978">
        <ele>88.2</ele>
        <time>2025-10-28T07:49:49.000Z</time>
      </trkpt>
      <trkpt lat="43.50916" lon="6.62979">
        <ele>88.5</ele>
        <time>2025-10-28T07:49:50.000Z</time>
      </trkpt>
      <trkpt lat="43.50919" lon="6.62979">
        <ele>88.8</ele>
        <time>2025-10-28T07:49:51.000Z</time>
      </trkpt>
      <trkpt lat="43.50922" lon="6.6298">
        <ele>89</ele>
        <time>2025-10-28T07:49:52.000Z</time>
      </trkpt>
      <trkpt lat="43.50925" lon="6.6298">
        <ele>89.2</ele>
        <time>2025-10-28T07:49:53.000Z</time>
      </trkpt>
      <trkpt lat="43.50929" lon="6.6298">
        <ele>89.5</ele>
        <time>2025-10-28T07:49:54.000Z</time>
      </trkpt>
      <trkpt lat="43.50932" lon="6.62981">
        <ele>89.7</ele>
        <time>2025-10-28T07:49:55.000Z</time>
      </trkpt>
      <trkpt lat="43.50935" lon="6.62981">
        <ele>89.8</ele>
        <time>2025-10-28T07:49:56.000Z</time>
      </trkpt>
      <trkpt lat="43.50938" lon="6.62982">
        <ele>90</ele>
        <time>2025-10-28T07:49:57.000Z</time>
      </trkpt>
      <trkpt lat="43.50942" lon="6.62982">
        <ele>90.1</ele>
        <time>2025-10-28T07:49:58.000Z</time>
      </trkpt>
      <trkpt lat="43.50945" lon="6.62983">
        <ele>90.2</ele>
        <time>2025-10-28T07:49:59.000Z</time>
      </trkpt>
      <trkpt lat="43.50948" lon="6.62983">
        <ele>90.3</ele>
        <time>2025-10-28T07:50:00.000Z</time>
      </trkpt>
      <trkpt lat="43.50951" lon="6.62984">
        <ele>90.4</ele>
        <time>2025-10-28T07:50:01.000Z</time>
      </trkpt>
      <trkpt lat="43.50954" lon="6.62984">
        <ele>90.5</ele>
        <time>2025-10-28T07:50:02.000Z</time>
      </trkpt>
      <trkpt lat="43.50958" lon="6.62985">
        <ele>90.6</ele>
        <time>2025-10-28T07:50:03.000Z</time>
      </trkpt>
      <trkpt lat="43.50961" lon="6.62986">
        <ele>90.6</ele>
        <time>2025-10-28T07:50:04.000Z</time>
      </trkpt>
      <trkpt lat="43.50965" lon="6.62988">
        <ele>90.7</ele>
        <time>2025-10-28T07:50:05.000Z</time>
      </trkpt>
      <trkpt lat="43.50968" lon="6.62989">
        <ele>90.8</ele>
        <time>2025-10-28T07:50:06.000Z</time>
      </trkpt>
      <trkpt lat="43.50972" lon="6.6299">
        <ele>90.9</ele>
        <time>2025-10-28T07:50:07.000Z</time>
      </trkpt>
      <trkpt lat="43.50976" lon="6.6299">
        <ele>91</ele>
        <time>2025-10-28T07:50:08.000Z</time>
      </trkpt>
      <trkpt lat="43.5098" lon="6.62991">
        <ele>91.1</ele>
        <time>2025-10-28T07:50:09.000Z</time>
      </trkpt>
      <trkpt lat="43.50983" lon="6.62992">
        <ele>91.2</ele>
        <time>2025-10-28T07:50:10.000Z</time>
      </trkpt>
      <trkpt lat="43.50986" lon="6.62993">
        <ele>91.4</ele>
        <time>2025-10-28T07:50:11.000Z</time>
      </trkpt>
      <trkpt lat="43.50991" lon="6.62994">
        <ele>91.6</ele>
        <time>2025-10-28T07:50:12.000Z</time>
      </trkpt>
      <trkpt lat="43.50994" lon="6.62995">
        <ele>91.8</ele>
        <time>2025-10-28T07:50:13.000Z</time>
      </trkpt>
      <trkpt lat="43.50998" lon="6.62996">
        <ele>92</ele>
        <time>2025-10-28T07:50:14.000Z</time>
      </trkpt>
      <trkpt lat="43.51001" lon="6.62998">
        <ele>92.2</ele>
        <time>2025-10-28T07:50:15.000Z</time>
      </trkpt>
      <trkpt lat="43.51005" lon="6.62998">
        <ele>92.4</ele>
        <time>2025-10-28T07:50:16.000Z</time>
      </trkpt>
      <trkpt lat="43.51008" lon="6.62999">
        <ele>92.7</ele>
        <time>2025-10-28T07:50:17.000Z</time>
      </trkpt>
      <trkpt lat="43.51012" lon="6.62999">
        <ele>93</ele>
        <time>2025-10-28T07:50:18.000Z</time>
      </trkpt>
      <trkpt lat="43.51015" lon="6.63">
        <ele>93.3</ele>
        <time>2025-10-28T07:50:19.000Z</time>
      </trkpt>
      <trkpt lat="43.5102" lon="6.63">
        <ele>93.7</ele>
        <time>2025-10-28T07:50:20.000Z</time>
      </trkpt>
      <trkpt lat="43.51023" lon="6.63001">
        <ele>94.1</ele>
        <time>2025-10-28T07:50:21.000Z</time>
      </trkpt>
      <trkpt lat="43.51026" lon="6.63001">
        <ele>94.5</ele>
        <time>2025-10-28T07:50:22.000Z</time>
      </trkpt>
      <trkpt lat="43.51029" lon="6.63001">
        <ele>94.8</ele>
        <time>2025-10-28T07:50:23.000Z</time>
      </trkpt>
      <trkpt lat="43.51032" lon="6.63001">
        <ele>95.1</ele>
        <time>2025-10-28T07:50:24.000Z</time>
      </trkpt>
      <trkpt lat="43.51036" lon="6.63002">
        <ele>95.5</ele>
        <time>2025-10-28T07:50:25.000Z</time>
      </trkpt>
      <trkpt lat="43.51039" lon="6.63002">
        <ele>95.9</ele>
        <time>2025-10-28T07:50:26.000Z</time>
      </trkpt>
      <trkpt lat="43.51042" lon="6.63003">
        <ele>96.1</ele>
        <time>2025-10-28T07:50:27.000Z</time>
      </trkpt>
      <trkpt lat="43.51045" lon="6.63003">
        <ele>96.4</ele>
        <time>2025-10-28T07:50:28.000Z</time>
      </trkpt>
      <trkpt lat="43.51049" lon="6.63003">
        <ele>96.7</ele>
        <time>2025-10-28T07:50:29.000Z</time>
      </trkpt>
      <trkpt lat="43.51052" lon="6.63003">
        <ele>96.9</ele>
        <time>2025-10-28T07:50:30.000Z</time>
      </trkpt>
      <trkpt lat="43.51055" lon="6.63003">
        <ele>97.1</ele>
        <time>2025-10-28T07:50:31.000Z</time>
      </trkpt>
      <trkpt lat="43.51059" lon="6.63003">
        <ele>97.4</ele>
        <time>2025-10-28T07:50:32.000Z</time>
      </trkpt>
      <trkpt lat="43.51061" lon="6.63004">
        <ele>97.6</ele>
        <time>2025-10-28T07:50:33.000Z</time>
      </trkpt>
      <trkpt lat="43.51065" lon="6.63004">
        <ele>97.8</ele>
        <time>2025-10-28T07:50:34.000Z</time>
      </trkpt>
      <trkpt lat="43.51068" lon="6.63005">
        <ele>98.1</ele>
        <time>2025-10-28T07:50:35.000Z</time>
      </trkpt>
      <trkpt lat="43.51071" lon="6.63006">
        <ele>98.3</ele>
        <time>2025-10-28T07:50:36.000Z</time>
      </trkpt>
      <trkpt lat="43.51073" lon="6.63006">
        <ele>98.4</ele>
        <time>2025-10-28T07:50:37.000Z</time>
      </trkpt>
      <trkpt lat="43.51077" lon="6.63007">
        <ele>98.7</ele>
        <time>2025-10-28T07:50:38.000Z</time>
      </trkpt>
      <trkpt lat="43.5108" lon="6.63008">
        <ele>98.9</ele>
        <time>2025-10-28T07:50:39.000Z</time>
      </trkpt>
      <trkpt lat="43.51082" lon="6.63009">
        <ele>99.1</ele>
        <time>2025-10-28T07:50:40.000Z</time>
      </trkpt>
      <trkpt lat="43.51085" lon="6.6301">
        <ele>99.3</ele>
        <time>2025-10-28T07:50:41.000Z</time>
      </trkpt>
      <trkpt lat="43.51088" lon="6.63012">
        <ele>99.5</ele>
        <time>2025-10-28T07:50:42.000Z</time>
      </trkpt>
      <trkpt lat="43.51091" lon="6.63013">
        <ele>99.7</ele>
        <time>2025-10-28T07:50:43.000Z</time>
      </trkpt>
      <trkpt lat="43.51094" lon="6.63014">
        <ele>99.8</ele>
        <time>2025-10-28T07:50:44.000Z</time>
      </trkpt>
      <trkpt lat="43.51097" lon="6.63013">
        <ele>100</ele>
        <time>2025-10-28T07:50:45.000Z</time>
      </trkpt>
      <trkpt lat="43.51099" lon="6.63013">
        <ele>100.1</ele>
        <time>2025-10-28T07:50:46.000Z</time>
      </trkpt>
      <trkpt lat="43.51102" lon="6.63012">
        <ele>100.2</ele>
        <time>2025-10-28T07:50:47.000Z</time>
      </trkpt>
      <trkpt lat="43.51106" lon="6.6301">
        <ele>100.4</ele>
        <time>2025-10-28T07:50:48.000Z</time>
      </trkpt>
      <trkpt lat="43.51109" lon="6.63008">
        <ele>100.6</ele>
        <time>2025-10-28T07:50:49.000Z</time>
      </trkpt>
      <trkpt lat="43.51111" lon="6.63006">
        <ele>100.7</ele>
        <time>2025-10-28T07:50:50.000Z</time>
      </trkpt>
      <trkpt lat="43.51115" lon="6.63004">
        <ele>101</ele>
        <time>2025-10-28T07:50:51.000Z</time>
      </trkpt>
      <trkpt lat="43.51118" lon="6.63002">
        <ele>101.2</ele>
        <time>2025-10-28T07:50:52.000Z</time>
      </trkpt>
      <trkpt lat="43.51121" lon="6.63001">
        <ele>101.5</ele>
        <time>2025-10-28T07:50:53.000Z</time>
      </trkpt>
      <trkpt lat="43.51124" lon="6.62999">
        <ele>101.7</ele>
        <time>2025-10-28T07:50:54.000Z</time>
      </trkpt>
      <trkpt lat="43.51127" lon="6.62998">
        <ele>102</ele>
        <time>2025-10-28T07:50:55.000Z</time>
      </trkpt>
      <trkpt lat="43.51131" lon="6.62996">
        <ele>102.4</ele>
        <time>2025-10-28T07:50:56.000Z</time>
      </trkpt>
      <trkpt lat="43.51135" lon="6.62995">
        <ele>102.8</ele>
        <time>2025-10-28T07:50:57.000Z</time>
      </trkpt>
      <trkpt lat="43.51137" lon="6.62993">
        <ele>103.1</ele>
        <time>2025-10-28T07:50:58.000Z</time>
      </trkpt>
      <trkpt lat="43.5114" lon="6.62992">
        <ele>103.4</ele>
        <time>2025-10-28T07:50:59.000Z</time>
      </trkpt>
      <trkpt lat="43.51143" lon="6.6299">
        <ele>103.8</ele>
        <time>2025-10-28T07:51:00.000Z</time>
      </trkpt>
      <trkpt lat="43.51146" lon="6.62988">
        <ele>104.2</ele>
        <time>2025-10-28T07:51:01.000Z</time>
      </trkpt>
      <trkpt lat="43.51148" lon="6.62986">
        <ele>104.5</ele>
        <time>2025-10-28T07:51:02.000Z</time>
      </trkpt>
      <trkpt lat="43.51151" lon="6.62983">
        <ele>104.8</ele>
        <time>2025-10-28T07:51:03.000Z</time>
      </trkpt>
      <trkpt lat="43.51153" lon="6.62979">
        <ele>105.2</ele>
        <time>2025-10-28T07:51:04.000Z</time>
      </trkpt>
      <trkpt lat="43.51155" lon="6.62976">
        <ele>105.5</ele>
        <time>2025-10-28T07:51:05.000Z</time>
      </trkpt>
      <trkpt lat="43.51158" lon="6.62972">
        <ele>105.8</ele>
        <time>2025-10-28T07:51:06.000Z</time>
      </trkpt>
      <trkpt lat="43.5116" lon="6.62969">
        <ele>106.1</ele>
        <time>2025-10-28T07:51:07.000Z</time>
      </trkpt>
      <trkpt lat="43.51162" lon="6.62967">
        <ele>106.3</ele>
        <time>2025-10-28T07:51:08.000Z</time>
      </trkpt>
      <trkpt lat="43.51165" lon="6.62964">
        <ele>106.6</ele>
        <time>2025-10-28T07:51:09.000Z</time>
      </trkpt>
      <trkpt lat="43.51168" lon="6.62961">
        <ele>106.9</ele>
        <time>2025-10-28T07:51:10.000Z</time>
      </trkpt>
      <trkpt lat="43.5117" lon="6.62959">
        <ele>107.1</ele>
        <time>2025-10-28T07:51:11.000Z</time>
      </trkpt>
      <trkpt lat="43.51172" lon="6.62956">
        <ele>107.3</ele>
        <time>2025-10-28T07:51:12.000Z</time>
      </trkpt>
      <trkpt lat="43.51175" lon="6.62954">
        <ele>107.5</ele>
        <time>2025-10-28T07:51:13.000Z</time>
      </trkpt>
      <trkpt lat="43.51178" lon="6.62952">
        <ele>107.8</ele>
        <time>2025-10-28T07:51:14.000Z</time>
      </trkpt>
      <trkpt lat="43.51181" lon="6.62949">
        <ele>108.1</ele>
        <time>2025-10-28T07:51:15.000Z</time>
      </trkpt>
      <trkpt lat="43.51184" lon="6.62947">
        <ele>108.3</ele>
        <time>2025-10-28T07:51:16.000Z</time>
      </trkpt>
      <trkpt lat="43.51186" lon="6.62946">
        <ele>108.4</ele>
        <time>2025-10-28T07:51:17.000Z</time>
      </trkpt>
      <trkpt lat="43.51189" lon="6.62943">
        <ele>108.7</ele>
        <time>2025-10-28T07:51:18.000Z</time>
      </trkpt>
      <trkpt lat="43.51192" lon="6.62941">
        <ele>108.9</ele>
        <time>2025-10-28T07:51:19.000Z</time>
      </trkpt>
      <trkpt lat="43.51194" lon="6.6294">
        <ele>109</ele>
        <time>2025-10-28T07:51:20.000Z</time>
      </trkpt>
      <trkpt lat="43.51197" lon="6.62938">
        <ele>109.1</ele>
        <time>2025-10-28T07:51:21.000Z</time>
      </trkpt>
      <trkpt lat="43.512" lon="6.62937">
        <ele>109.3</ele>
        <time>2025-10-28T07:51:22.000Z</time>
      </trkpt>
      <trkpt lat="43.51203" lon="6.62934">
        <ele>109.5</ele>
        <time>2025-10-28T07:51:23.000Z</time>
      </trkpt>
      <trkpt lat="43.51206" lon="6.62932">
        <ele>109.6</ele>
        <time>2025-10-28T07:51:24.000Z</time>
      </trkpt>
      <trkpt lat="43.51209" lon="6.62929">
        <ele>109.9</ele>
        <time>2025-10-28T07:51:25.000Z</time>
      </trkpt>
      <trkpt lat="43.51212" lon="6.62926">
        <ele>110.1</ele>
        <time>2025-10-28T07:51:26.000Z</time>
      </trkpt>
      <trkpt lat="43.51214" lon="6.62923">
        <ele>110.4</ele>
        <time>2025-10-28T07:51:27.000Z</time>
      </trkpt>
      <trkpt lat="43.51217" lon="6.6292">
        <ele>110.7</ele>
        <time>2025-10-28T07:51:28.000Z</time>
      </trkpt>
      <trkpt lat="43.51221" lon="6.62917">
        <ele>111</ele>
        <time>2025-10-28T07:51:29.000Z</time>
      </trkpt>
      <trkpt lat="43.51224" lon="6.62915">
        <ele>111.2</ele>
        <time>2025-10-28T07:51:30.000Z</time>
      </trkpt>
      <trkpt lat="43.51226" lon="6.62912">
        <ele>111.5</ele>
        <time>2025-10-28T07:51:31.000Z</time>
      </trkpt>
      <trkpt lat="43.51229" lon="6.62909">
        <ele>111.7</ele>
        <time>2025-10-28T07:51:32.000Z</time>
      </trkpt>
      <trkpt lat="43.51232" lon="6.62905">
        <ele>111.9</ele>
        <time>2025-10-28T07:51:33.000Z</time>
      </trkpt>
      <trkpt lat="43.51234" lon="6.62904">
        <ele>112</ele>
        <time>2025-10-28T07:51:34.000Z</time>
      </trkpt>
      <trkpt lat="43.51237" lon="6.62901">
        <ele>112.2</ele>
        <time>2025-10-28T07:51:35.000Z</time>
      </trkpt>
      <trkpt lat="43.51239" lon="6.62899">
        <ele>112.3</ele>
        <time>2025-10-28T07:51:36.000Z</time>
      </trkpt>
      <trkpt lat="43.51242" lon="6.62896">
        <ele>112.4</ele>
        <time>2025-10-28T07:51:37.000Z</time>
      </trkpt>
      <trkpt lat="43.51245" lon="6.62893">
        <ele>112.5</ele>
        <time>2025-10-28T07:51:38.000Z</time>
      </trkpt>
      <trkpt lat="43.51247" lon="6.62891">
        <ele>112.6</ele>
        <time>2025-10-28T07:51:39.000Z</time>
      </trkpt>
      <trkpt lat="43.5125" lon="6.62888">
        <ele>112.7</ele>
        <time>2025-10-28T07:51:40.000Z</time>
      </trkpt>
      <trkpt lat="43.51253" lon="6.62885">
        <ele>112.8</ele>
        <time>2025-10-28T07:51:41.000Z</time>
      </trkpt>
      <trkpt lat="43.51256" lon="6.62882">
        <ele>113</ele>
        <time>2025-10-28T07:51:42.000Z</time>
      </trkpt>
      <trkpt lat="43.51259" lon="6.6288">
        <ele>113.1</ele>
        <time>2025-10-28T07:51:43.000Z</time>
      </trkpt>
      <trkpt lat="43.51262" lon="6.62877">
        <ele>113.2</ele>
        <time>2025-10-28T07:51:44.000Z</time>
      </trkpt>
      <trkpt lat="43.51265" lon="6.62874">
        <ele>113.3</ele>
        <time>2025-10-28T07:51:45.000Z</time>
      </trkpt>
      <trkpt lat="43.51268" lon="6.62872">
        <ele>113.4</ele>
        <time>2025-10-28T07:51:46.000Z</time>
      </trkpt>
      <trkpt lat="43.51272" lon="6.62869">
        <ele>113.6</ele>
        <time>2025-10-28T07:51:47.000Z</time>
      </trkpt>
      <trkpt lat="43.51275" lon="6.62866">
        <ele>113.7</ele>
        <time>2025-10-28T07:51:48.000Z</time>
      </trkpt>
      <trkpt lat="43.51277" lon="6.62864">
        <ele>113.7</ele>
        <time>2025-10-28T07:51:49.000Z</time>
      </trkpt>
      <trkpt lat="43.5128" lon="6.62861">
        <ele>113.8</ele>
        <time>2025-10-28T07:51:50.000Z</time>
      </trkpt>
      <trkpt lat="43.51283" lon="6.62858">
        <ele>113.9</ele>
        <time>2025-10-28T07:51:51.000Z</time>
      </trkpt>
      <trkpt lat="43.51285" lon="6.62856">
        <ele>113.9</ele>
        <time>2025-10-28T07:51:52.000Z</time>
      </trkpt>
      <trkpt lat="43.51287" lon="6.62853">
        <ele>113.9</ele>
        <time>2025-10-28T07:51:53.000Z</time>
      </trkpt>
      <trkpt lat="43.51289" lon="6.62851">
        <ele>113.9</ele>
        <time>2025-10-28T07:51:54.000Z</time>
      </trkpt>
      <trkpt lat="43.51292" lon="6.62847">
        <ele>114</ele>
        <time>2025-10-28T07:51:55.000Z</time>
      </trkpt>
      <trkpt lat="43.51293" lon="6.62846">
        <ele>113.9</ele>
        <time>2025-10-28T07:51:56.000Z</time>
      </trkpt>
      <trkpt lat="43.51294" lon="6.62844">
        <ele>113.8</ele>
        <time>2025-10-28T07:51:57.000Z</time>
      </trkpt>
      <trkpt lat="43.51294" lon="6.62843">
        <ele>113.8</ele>
        <time>2025-10-28T07:51:58.000Z</time>
      </trkpt>
      <trkpt lat="43.51295" lon="6.62843">
        <ele>113.8</ele>
        <time>2025-10-28T07:51:59.000Z</time>
      </trkpt>
      <trkpt lat="43.51295" lon="6.62843">
        <ele>113.8</ele>
        <time>2025-10-28T07:52:00.000Z</time>
      </trkpt>
      <trkpt lat="43.51295" lon="6.62843">
        <ele>113.8</ele>
        <time>2025-10-28T07:52:01.000Z</time>
      </trkpt>
      <trkpt lat="43.51294" lon="6.62843">
        <ele>113.8</ele>
        <time>2025-10-28T07:52:02.000Z</time>
      </trkpt>
      <trkpt lat="43.51294" lon="6.62844">
        <ele>113.7</ele>
        <time>2025-10-28T07:52:03.000Z</time>
      </trkpt>
      <trkpt lat="43.51294" lon="6.62844">
        <ele>113.7</ele>
        <time>2025-10-28T07:52:04.000Z</time>
      </trkpt>
      <trkpt lat="43.51294" lon="6.62844">
        <ele>113.7</ele>
        <time>2025-10-28T07:52:05.000Z</time>
      </trkpt>
      <trkpt lat="43.51294" lon="6.62844">
        <ele>113.7</ele>
        <time>2025-10-28T07:52:06.000Z</time>
      </trkpt>
      <trkpt lat="43.51294" lon="6.62844">
        <ele>113.7</ele>
        <time>2025-10-28T07:52:07.000Z</time>
      </trkpt>
      <trkpt lat="43.51294" lon="6.62844">
        <ele>113.7</ele>
        <time>2025-10-28T07:52:08.000Z</time>
      </trkpt>
      <trkpt lat="43.51294" lon="6.62844">
        <ele>113.7</ele>
        <time>2025-10-28T07:52:09.000Z</time>
      </trkpt>
      <trkpt lat="43.51294" lon="6.62844">
        <ele>113.7</ele>
        <time>2025-10-28T07:52:10.000Z</time>
      </trkpt>
      <trkpt lat="43.51294" lon="6.62844">
        <ele>113.7</ele>
        <time>2025-10-28T07:52:11.000Z</time>
      </trkpt>
      <trkpt lat="43.51294" lon="6.62844">
        <ele>113.7</ele>
        <time>2025-10-28T07:52:12.000Z</time>
      </trkpt>
      <trkpt lat="43.51294" lon="6.62844">
        <ele>113.7</ele>
        <time>2025-10-28T07:52:13.000Z</time>
      </trkpt>
      <trkpt lat="43.51294" lon="6.62844">
        <ele>113.7</ele>
        <time>2025-10-28T07:52:14.000Z</time>
      </trkpt>
      <trkpt lat="43.51294" lon="6.62844">
        <ele>113.7</ele>
        <time>2025-10-28T07:52:15.000Z</time>
      </trkpt>
      <trkpt lat="43.51294" lon="6.62844">
        <ele>113.7</ele>
        <time>2025-10-28T07:52:16.000Z</time>
      </trkpt>
      <trkpt lat="43.51294" lon="6.62844">
        <ele>113.7</ele>
        <time>2025-10-28T07:52:17.000Z</time>
      </trkpt>
      <trkpt lat="43.51294" lon="6.62844">
        <ele>113.7</ele>
        <time>2025-10-28T07:52:18.000Z</time>
      </trkpt>
      <trkpt lat="43.51294" lon="6.62844">
        <ele>113.7</ele>
        <time>2025-10-28T07:52:19.000Z</time>
      </trkpt>
      <trkpt lat="43.51294" lon="6.62844">
        <ele>113.7</ele>
        <time>2025-10-28T07:52:20.000Z</time>
      </trkpt>
      <trkpt lat="43.51294" lon="6.62844">
        <ele>113.7</ele>
        <time>2025-10-28T07:52:21.000Z</time>
      </trkpt>
      <trkpt lat="43.51294" lon="6.62844">
        <ele>113.7</ele>
        <time>2025-10-28T07:52:22.000Z</time>
      </trkpt>
      <trkpt lat="43.51294" lon="6.62844">
        <ele>113.7</ele>
        <time>2025-10-28T07:52:23.000Z</time>
      </trkpt>
      <trkpt lat="43.51294" lon="6.62844">
        <ele>113.7</ele>
        <time>2025-10-28T07:52:24.000Z</time>
      </trkpt>
      <trkpt lat="43.51294" lon="6.62845">
        <ele>113.7</ele>
        <time>2025-10-28T07:52:25.000Z</time>
      </trkpt>
      <trkpt lat="43.51293" lon="6.62845">
        <ele>113.7</ele>
        <time>2025-10-28T07:52:26.000Z</time>
      </trkpt>
      <trkpt lat="43.51293" lon="6.62845">
        <ele>113.6</ele>
        <time>2025-10-28T07:52:27.000Z</time>
      </trkpt>
      <trkpt lat="43.51293" lon="6.62845">
        <ele>113.6</ele>
        <time>2025-10-28T07:52:28.000Z</time>
      </trkpt>
      <trkpt lat="43.51293" lon="6.62845">
        <ele>113.6</ele>
        <time>2025-10-28T07:52:29.000Z</time>
      </trkpt>
      <trkpt lat="43.51292" lon="6.62845">
        <ele>113.6</ele>
        <time>2025-10-28T07:52:30.000Z</time>
      </trkpt>
      <trkpt lat="43.51292" lon="6.62845">
        <ele>113.6</ele>
        <time>2025-10-28T07:52:31.000Z</time>
      </trkpt>
      <trkpt lat="43.51292" lon="6.62845">
        <ele>113.6</ele>
        <time>2025-10-28T07:52:32.000Z</time>
      </trkpt>
      <trkpt lat="43.51292" lon="6.62845">
        <ele>113.6</ele>
        <time>2025-10-28T07:52:33.000Z</time>
      </trkpt>
      <trkpt lat="43.51292" lon="6.62845">
        <ele>113.6</ele>
        <time>2025-10-28T07:52:34.000Z</time>
      </trkpt>
      <trkpt lat="43.51292" lon="6.62845">
        <ele>113.6</ele>
        <time>2025-10-28T07:52:35.000Z</time>
      </trkpt>
      <trkpt lat="43.51292" lon="6.62845">
        <ele>113.6</ele>
        <time>2025-10-28T07:52:36.000Z</time>
      </trkpt>
      <trkpt lat="43.51292" lon="6.62845">
        <ele>113.6</ele>
        <time>2025-10-28T07:52:37.000Z</time>
      </trkpt>
      <trkpt lat="43.51292" lon="6.62845">
        <ele>113.6</ele>
        <time>2025-10-28T07:52:38.000Z</time>
      </trkpt>
      <trkpt lat="43.51292" lon="6.62845">
        <ele>113.6</ele>
        <time>2025-10-28T07:52:39.000Z</time>
      </trkpt>
      <trkpt lat="43.51292" lon="6.62845">
        <ele>113.6</ele>
        <time>2025-10-28T07:52:40.000Z</time>
      </trkpt>
      <trkpt lat="43.51292" lon="6.62845">
        <ele>113.6</ele>
        <time>2025-10-28T07:52:41.000Z</time>
      </trkpt>
      <trkpt lat="43.51292" lon="6.62845">
        <ele>113.6</ele>
        <time>2025-10-28T07:52:42.000Z</time>
      </trkpt>
      <trkpt lat="43.51292" lon="6.62845">
        <ele>113.6</ele>
        <time>2025-10-28T07:52:43.000Z</time>
      </trkpt>
      <trkpt lat="43.51292" lon="6.62845">
        <ele>113.6</ele>
        <time>2025-10-28T07:52:44.000Z</time>
      </trkpt>
      <trkpt lat="43.51292" lon="6.62845">
        <ele>113.6</ele>
        <time>2025-10-28T07:52:45.000Z</time>
      </trkpt>
      <trkpt lat="43.51291" lon="6.62845">
        <ele>113.6</ele>
        <time>2025-10-28T07:52:46.000Z</time>
      </trkpt>
      <trkpt lat="43.51291" lon="6.62845">
        <ele>113.6</ele>
        <time>2025-10-28T07:52:47.000Z</time>
      </trkpt>
      <trkpt lat="43.51291" lon="6.62845">
        <ele>113.6</ele>
        <time>2025-10-28T07:52:48.000Z</time>
      </trkpt>
      <trkpt lat="43.51291" lon="6.62845">
        <ele>113.6</ele>
        <time>2025-10-28T07:52:49.000Z</time>
      </trkpt>
      <trkpt lat="43.51291" lon="6.62845">
        <ele>113.5</ele>
        <time>2025-10-28T07:52:50.000Z</time>
      </trkpt>
      <trkpt lat="43.51291" lon="6.62845">
        <ele>113.5</ele>
        <time>2025-10-28T07:52:51.000Z</time>
      </trkpt>
      <trkpt lat="43.51291" lon="6.62845">
        <ele>113.5</ele>
        <time>2025-10-28T07:52:52.000Z</time>
      </trkpt>
      <trkpt lat="43.51291" lon="6.62845">
        <ele>113.5</ele>
        <time>2025-10-28T07:52:53.000Z</time>
      </trkpt>
      <trkpt lat="43.51291" lon="6.62845">
        <ele>113.5</ele>
        <time>2025-10-28T07:52:54.000Z</time>
      </trkpt>
      <trkpt lat="43.51291" lon="6.62845">
        <ele>113.5</ele>
        <time>2025-10-28T07:52:55.000Z</time>
      </trkpt>
      <trkpt lat="43.51291" lon="6.62845">
        <ele>113.5</ele>
        <time>2025-10-28T07:52:56.000Z</time>
      </trkpt>
      <trkpt lat="43.51291" lon="6.62845">
        <ele>113.5</ele>
        <time>2025-10-28T07:52:57.000Z</time>
      </trkpt>
      <trkpt lat="43.51291" lon="6.62845">
        <ele>113.5</ele>
        <time>2025-10-28T07:52:58.000Z</time>
      </trkpt>
      <trkpt lat="43.51291" lon="6.62845">
        <ele>113.5</ele>
        <time>2025-10-28T07:52:59.000Z</time>
      </trkpt>
      <trkpt lat="43.51291" lon="6.62845">
        <ele>113.5</ele>
        <time>2025-10-28T07:53:00.000Z</time>
      </trkpt>
      <trkpt lat="43.51291" lon="6.62845">
        <ele>113.5</ele>
        <time>2025-10-28T07:53:01.000Z</time>
      </trkpt>
      <trkpt lat="43.51291" lon="6.62845">
        <ele>113.5</ele>
        <time>2025-10-28T07:53:02.000Z</time>
      </trkpt>
      <trkpt lat="43.51291" lon="6.62845">
        <ele>113.5</ele>
        <time>2025-10-28T07:53:03.000Z</time>
      </trkpt>
      <trkpt lat="43.51291" lon="6.62845">
        <ele>113.5</ele>
        <time>2025-10-28T07:53:04.000Z</time>
      </trkpt>
      <trkpt lat="43.51291" lon="6.62845">
        <ele>113.5</ele>
        <time>2025-10-28T07:53:05.000Z</time>
      </trkpt>
      <trkpt lat="43.51291" lon="6.62845">
        <ele>113.5</ele>
        <time>2025-10-28T07:53:06.000Z</time>
      </trkpt>
      <trkpt lat="43.51291" lon="6.62845">
        <ele>113.5</ele>
        <time>2025-10-28T07:53:07.000Z</time>
      </trkpt>
      <trkpt lat="43.5129" lon="6.62845">
        <ele>113.5</ele>
        <time>2025-10-28T07:53:08.000Z</time>
      </trkpt>
      <trkpt lat="43.5129" lon="6.62845">
        <ele>113.5</ele>
        <time>2025-10-28T07:53:09.000Z</time>
      </trkpt>
      <trkpt lat="43.5129" lon="6.62845">
        <ele>113.5</ele>
        <time>2025-10-28T07:53:10.000Z</time>
      </trkpt>
      <trkpt lat="43.5129" lon="6.62845">
        <ele>113.5</ele>
        <time>2025-10-28T07:53:11.000Z</time>
      </trkpt>
      <trkpt lat="43.5129" lon="6.62845">
        <ele>113.5</ele>
        <time>2025-10-28T07:53:12.000Z</time>
      </trkpt>
      <trkpt lat="43.5129" lon="6.62845">
        <ele>113.5</ele>
        <time>2025-10-28T07:53:13.000Z</time>
      </trkpt>
      <trkpt lat="43.5129" lon="6.62845">
        <ele>113.5</ele>
        <time>2025-10-28T07:53:14.000Z</time>
      </trkpt>
      <trkpt lat="43.5129" lon="6.62845">
        <ele>113.5</ele>
        <time>2025-10-28T07:53:15.000Z</time>
      </trkpt>
      <trkpt lat="43.5129" lon="6.62845">
        <ele>113.5</ele>
        <time>2025-10-28T07:53:16.000Z</time>
      </trkpt>
      <trkpt lat="43.5129" lon="6.62845">
        <ele>113.5</ele>
        <time>2025-10-28T07:53:17.000Z</time>
      </trkpt>
      <trkpt lat="43.5129" lon="6.62845">
        <ele>113.4</ele>
        <time>2025-10-28T07:53:18.000Z</time>
      </trkpt>
      <trkpt lat="43.5129" lon="6.62846">
        <ele>113.4</ele>
        <time>2025-10-28T07:53:19.000Z</time>
      </trkpt>
      <trkpt lat="43.5129" lon="6.62846">
        <ele>113.4</ele>
        <time>2025-10-28T07:53:20.000Z</time>
      </trkpt>
      <trkpt lat="43.5129" lon="6.62846">
        <ele>113.4</ele>
        <time>2025-10-28T07:53:21.000Z</time>
      </trkpt>
      <trkpt lat="43.5129" lon="6.62846">
        <ele>113.4</ele>
        <time>2025-10-28T07:53:22.000Z</time>
      </trkpt>
      <trkpt lat="43.5129" lon="6.62846">
        <ele>113.4</ele>
        <time>2025-10-28T07:53:23.000Z</time>
      </trkpt>
      <trkpt lat="43.5129" lon="6.62846">
        <ele>113.4</ele>
        <time>2025-10-28T07:53:24.000Z</time>
      </trkpt>
      <trkpt lat="43.5129" lon="6.62846">
        <ele>113.4</ele>
        <time>2025-10-28T07:53:25.000Z</time>
      </trkpt>
      <trkpt lat="43.5129" lon="6.62846">
        <ele>113.4</ele>
        <time>2025-10-28T07:53:26.000Z</time>
      </trkpt>
      <trkpt lat="43.5129" lon="6.62846">
        <ele>113.4</ele>
        <time>2025-10-28T07:53:27.000Z</time>
      </trkpt>
      <trkpt lat="43.5129" lon="6.62846">
        <ele>113.4</ele>
        <time>2025-10-28T07:53:28.000Z</time>
      </trkpt>
      <trkpt lat="43.5129" lon="6.62846">
        <ele>113.4</ele>
        <time>2025-10-28T07:53:29.000Z</time>
      </trkpt>
      <trkpt lat="43.5129" lon="6.62846">
        <ele>113.4</ele>
        <time>2025-10-28T07:53:30.000Z</time>
      </trkpt>
      <trkpt lat="43.5129" lon="6.62846">
        <ele>113.4</ele>
        <time>2025-10-28T07:53:31.000Z</time>
      </trkpt>
      <trkpt lat="43.5129" lon="6.62846">
        <ele>113.4</ele>
        <time>2025-10-28T07:53:32.000Z</time>
      </trkpt>
      <trkpt lat="43.5129" lon="6.62846">
        <ele>113.4</ele>
        <time>2025-10-28T07:53:33.000Z</time>
      </trkpt>
      <trkpt lat="43.5129" lon="6.62846">
        <ele>113.4</ele>
        <time>2025-10-28T07:53:34.000Z</time>
      </trkpt>
      <trkpt lat="43.5129" lon="6.62846">
        <ele>113.4</ele>
        <time>2025-10-28T07:53:35.000Z</time>
      </trkpt>
      <trkpt lat="43.5129" lon="6.62846">
        <ele>113.4</ele>
        <time>2025-10-28T07:53:36.000Z</time>
      </trkpt>
      <trkpt lat="43.5129" lon="6.62847">
        <ele>113.4</ele>
        <time>2025-10-28T07:53:37.000Z</time>
      </trkpt>
      <trkpt lat="43.5129" lon="6.62847">
        <ele>113.4</ele>
        <time>2025-10-28T07:53:38.000Z</time>
      </trkpt>
      <trkpt lat="43.5129" lon="6.62847">
        <ele>113.4</ele>
        <time>2025-10-28T07:53:39.000Z</time>
      </trkpt>
      <trkpt lat="43.5129" lon="6.62847">
        <ele>113.4</ele>
        <time>2025-10-28T07:53:40.000Z</time>
      </trkpt>
      <trkpt lat="43.5129" lon="6.62847">
        <ele>113.4</ele>
        <time>2025-10-28T07:53:41.000Z</time>
      </trkpt>
      <trkpt lat="43.5129" lon="6.62847">
        <ele>113.4</ele>
        <time>2025-10-28T07:53:42.000Z</time>
      </trkpt>
      <trkpt lat="43.5129" lon="6.62847">
        <ele>113.4</ele>
        <time>2025-10-28T07:53:43.000Z</time>
      </trkpt>
      <trkpt lat="43.5129" lon="6.62847">
        <ele>113.4</ele>
        <time>2025-10-28T07:53:44.000Z</time>
      </trkpt>
      <trkpt lat="43.5129" lon="6.62847">
        <ele>113.4</ele>
        <time>2025-10-28T07:53:45.000Z</time>
      </trkpt>
      <trkpt lat="43.5129" lon="6.62847">
        <ele>113.4</ele>
        <time>2025-10-28T07:53:46.000Z</time>
      </trkpt>
      <trkpt lat="43.5129" lon="6.62847">
        <ele>113.4</ele>
        <time>2025-10-28T07:53:47.000Z</time>
      </trkpt>
      <trkpt lat="43.5129" lon="6.62847">
        <ele>113.4</ele>
        <time>2025-10-28T07:53:48.000Z</time>
      </trkpt>
      <trkpt lat="43.5129" lon="6.62847">
        <ele>113.4</ele>
        <time>2025-10-28T07:53:49.000Z</time>
      </trkpt>
      <trkpt lat="43.5129" lon="6.62847">
        <ele>113.4</ele>
        <time>2025-10-28T07:53:50.000Z</time>
      </trkpt>
      <trkpt lat="43.5129" lon="6.62847">
        <ele>113.4</ele>
        <time>2025-10-28T07:53:51.000Z</time>
      </trkpt>
      <trkpt lat="43.5129" lon="6.62847">
        <ele>113.4</ele>
        <time>2025-10-28T07:53:52.000Z</time>
      </trkpt>
      <trkpt lat="43.51291" lon="6.62847">
        <ele>113.3</ele>
        <time>2025-10-28T07:53:53.000Z</time>
      </trkpt>
      <trkpt lat="43.51291" lon="6.62847">
        <ele>113.3</ele>
        <time>2025-10-28T07:53:54.000Z</time>
      </trkpt>
      <trkpt lat="43.51291" lon="6.62847">
        <ele>113.3</ele>
        <time>2025-10-28T07:53:55.000Z</time>
      </trkpt>
      <trkpt lat="43.51291" lon="6.62847">
        <ele>113.3</ele>
        <time>2025-10-28T07:53:56.000Z</time>
      </trkpt>
      <trkpt lat="43.51291" lon="6.62847">
        <ele>113.3</ele>
        <time>2025-10-28T07:53:57.000Z</time>
      </trkpt>
      <trkpt lat="43.51291" lon="6.62847">
        <ele>113.3</ele>
        <time>2025-10-28T07:53:58.000Z</time>
      </trkpt>
      <trkpt lat="43.51291" lon="6.62847">
        <ele>113.3</ele>
        <time>2025-10-28T07:53:59.000Z</time>
      </trkpt>
      <trkpt lat="43.51292" lon="6.62847">
        <ele>113.3</ele>
        <time>2025-10-28T07:54:00.000Z</time>
      </trkpt>
      <trkpt lat="43.51292" lon="6.62847">
        <ele>113.3</ele>
        <time>2025-10-28T07:54:01.000Z</time>
      </trkpt>
      <trkpt lat="43.51292" lon="6.62847">
        <ele>113.3</ele>
        <time>2025-10-28T07:54:02.000Z</time>
      </trkpt>
      <trkpt lat="43.51292" lon="6.62847">
        <ele>113.3</ele>
        <time>2025-10-28T07:54:03.000Z</time>
      </trkpt>
      <trkpt lat="43.51292" lon="6.62847">
        <ele>113.3</ele>
        <time>2025-10-28T07:54:04.000Z</time>
      </trkpt>
      <trkpt lat="43.51292" lon="6.62847">
        <ele>113.3</ele>
        <time>2025-10-28T07:54:05.000Z</time>
      </trkpt>
      <trkpt lat="43.51292" lon="6.62847">
        <ele>113.3</ele>
        <time>2025-10-28T07:54:06.000Z</time>
      </trkpt>
      <trkpt lat="43.51292" lon="6.62847">
        <ele>113.3</ele>
        <time>2025-10-28T07:54:07.000Z</time>
      </trkpt>
      <trkpt lat="43.51292" lon="6.62847">
        <ele>113.3</ele>
        <time>2025-10-28T07:54:08.000Z</time>
      </trkpt>
      <trkpt lat="43.51292" lon="6.62847">
        <ele>113.3</ele>
        <time>2025-10-28T07:54:09.000Z</time>
      </trkpt>
      <trkpt lat="43.51292" lon="6.62847">
        <ele>113.3</ele>
        <time>2025-10-28T07:54:10.000Z</time>
      </trkpt>
      <trkpt lat="43.51292" lon="6.62847">
        <ele>113.3</ele>
        <time>2025-10-28T07:54:11.000Z</time>
      </trkpt>
      <trkpt lat="43.51291" lon="6.62847">
        <ele>113.3</ele>
        <time>2025-10-28T07:54:12.000Z</time>
      </trkpt>
      <trkpt lat="43.51291" lon="6.62847">
        <ele>113.3</ele>
        <time>2025-10-28T07:54:13.000Z</time>
      </trkpt>
      <trkpt lat="43.51291" lon="6.62847">
        <ele>113.3</ele>
        <time>2025-10-28T07:54:14.000Z</time>
      </trkpt>
      <trkpt lat="43.51291" lon="6.62847">
        <ele>113.3</ele>
        <time>2025-10-28T07:54:15.000Z</time>
      </trkpt>
      <trkpt lat="43.51291" lon="6.62847">
        <ele>113.3</ele>
        <time>2025-10-28T07:54:16.000Z</time>
      </trkpt>
      <trkpt lat="43.51291" lon="6.62847">
        <ele>113.3</ele>
        <time>2025-10-28T07:54:17.000Z</time>
      </trkpt>
      <trkpt lat="43.51291" lon="6.62847">
        <ele>113.3</ele>
        <time>2025-10-28T07:54:18.000Z</time>
      </trkpt>
      <trkpt lat="43.51291" lon="6.62847">
        <ele>113.3</ele>
        <time>2025-10-28T07:54:19.000Z</time>
      </trkpt>
      <trkpt lat="43.51291" lon="6.62847">
        <ele>113.3</ele>
        <time>2025-10-28T07:54:20.000Z</time>
      </trkpt>
      <trkpt lat="43.51291" lon="6.62847">
        <ele>113.2</ele>
        <time>2025-10-28T07:54:21.000Z</time>
      </trkpt>
      <trkpt lat="43.51291" lon="6.62847">
        <ele>113.2</ele>
        <time>2025-10-28T07:54:22.000Z</time>
      </trkpt>
      <trkpt lat="43.51291" lon="6.62847">
        <ele>113.2</ele>
        <time>2025-10-28T07:54:23.000Z</time>
      </trkpt>
      <trkpt lat="43.51291" lon="6.62847">
        <ele>113.2</ele>
        <time>2025-10-28T07:54:24.000Z</time>
      </trkpt>
      <trkpt lat="43.51291" lon="6.62847">
        <ele>113.2</ele>
        <time>2025-10-28T07:54:25.000Z</time>
      </trkpt>
      <trkpt lat="43.51291" lon="6.62847">
        <ele>113.2</ele>
        <time>2025-10-28T07:54:26.000Z</time>
      </trkpt>
      <trkpt lat="43.51291" lon="6.62847">
        <ele>113.2</ele>
        <time>2025-10-28T07:54:27.000Z</time>
      </trkpt>
      <trkpt lat="43.51291" lon="6.62847">
        <ele>113.2</ele>
        <time>2025-10-28T07:54:28.000Z</time>
      </trkpt>
      <trkpt lat="43.51291" lon="6.62847">
        <ele>113.2</ele>
        <time>2025-10-28T07:54:29.000Z</time>
      </trkpt>
      <trkpt lat="43.51291" lon="6.62847">
        <ele>113.2</ele>
        <time>2025-10-28T07:54:30.000Z</time>
      </trkpt>
      <trkpt lat="43.51291" lon="6.62847">
        <ele>113.2</ele>
        <time>2025-10-28T07:54:31.000Z</time>
      </trkpt>
      <trkpt lat="43.51291" lon="6.62847">
        <ele>113.2</ele>
        <time>2025-10-28T07:54:32.000Z</time>
      </trkpt>
      <trkpt lat="43.51291" lon="6.62847">
        <ele>113.2</ele>
        <time>2025-10-28T07:54:33.000Z</time>
      </trkpt>
      <trkpt lat="43.51291" lon="6.62847">
        <ele>113.2</ele>
        <time>2025-10-28T07:54:34.000Z</time>
      </trkpt>
      <trkpt lat="43.51291" lon="6.62847">
        <ele>113.2</ele>
        <time>2025-10-28T07:54:35.000Z</time>
      </trkpt>
      <trkpt lat="43.51291" lon="6.62847">
        <ele>113.2</ele>
        <time>2025-10-28T07:54:36.000Z</time>
      </trkpt>
      <trkpt lat="43.51291" lon="6.62847">
        <ele>113.2</ele>
        <time>2025-10-28T07:54:37.000Z</time>
      </trkpt>
      <trkpt lat="43.51291" lon="6.62847">
        <ele>113.2</ele>
        <time>2025-10-28T07:54:38.000Z</time>
      </trkpt>
      <trkpt lat="43.51291" lon="6.62847">
        <ele>113.2</ele>
        <time>2025-10-28T07:54:39.000Z</time>
      </trkpt>
      <trkpt lat="43.51291" lon="6.62847">
        <ele>113.2</ele>
        <time>2025-10-28T07:54:40.000Z</time>
      </trkpt>
      <trkpt lat="43.51291" lon="6.62847">
        <ele>113.2</ele>
        <time>2025-10-28T07:54:41.000Z</time>
      </trkpt>
      <trkpt lat="43.51291" lon="6.62847">
        <ele>113.2</ele>
        <time>2025-10-28T07:54:42.000Z</time>
      </trkpt>
      <trkpt lat="43.51291" lon="6.62848">
        <ele>113.2</ele>
        <time>2025-10-28T07:54:43.000Z</time>
      </trkpt>
      <trkpt lat="43.51291" lon="6.62848">
        <ele>113.2</ele>
        <time>2025-10-28T07:54:44.000Z</time>
      </trkpt>
      <trkpt lat="43.51291" lon="6.62848">
        <ele>113.2</ele>
        <time>2025-10-28T07:54:45.000Z</time>
      </trkpt>
      <trkpt lat="43.51291" lon="6.62848">
        <ele>113.2</ele>
        <time>2025-10-28T07:54:46.000Z</time>
      </trkpt>
      <trkpt lat="43.5129" lon="6.62848">
        <ele>113.2</ele>
        <time>2025-10-28T07:54:47.000Z</time>
      </trkpt>
      <trkpt lat="43.5129" lon="6.62848">
        <ele>113.2</ele>
        <time>2025-10-28T07:54:48.000Z</time>
      </trkpt>
      <trkpt lat="43.5129" lon="6.62848">
        <ele>113.2</ele>
        <time>2025-10-28T07:54:49.000Z</time>
      </trkpt>
      <trkpt lat="43.5129" lon="6.62848">
        <ele>113.2</ele>
        <time>2025-10-28T07:54:50.000Z</time>
      </trkpt>
      <trkpt lat="43.5129" lon="6.62848">
        <ele>113.2</ele>
        <time>2025-10-28T07:54:51.000Z</time>
      </trkpt>
      <trkpt lat="43.5129" lon="6.62848">
        <ele>113.2</ele>
        <time>2025-10-28T07:54:52.000Z</time>
      </trkpt>
      <trkpt lat="43.5129" lon="6.62848">
        <ele>113.2</ele>
        <time>2025-10-28T07:54:53.000Z</time>
      </trkpt>
      <trkpt lat="43.5129" lon="6.62848">
        <ele>113.2</ele>
        <time>2025-10-28T07:54:54.000Z</time>
      </trkpt>
      <trkpt lat="43.5129" lon="6.62848">
        <ele>113.2</ele>
        <time>2025-10-28T07:54:55.000Z</time>
      </trkpt>
      <trkpt lat="43.5129" lon="6.62847">
        <ele>113.2</ele>
        <time>2025-10-28T07:54:56.000Z</time>
      </trkpt>
      <trkpt lat="43.5129" lon="6.62847">
        <ele>113.2</ele>
        <time>2025-10-28T07:54:57.000Z</time>
      </trkpt>
      <trkpt lat="43.5129" lon="6.62847">
        <ele>113.2</ele>
        <time>2025-10-28T07:54:58.000Z</time>
      </trkpt>
      <trkpt lat="43.5129" lon="6.62847">
        <ele>113.2</ele>
        <time>2025-10-28T07:54:59.000Z</time>
      </trkpt>
      <trkpt lat="43.5129" lon="6.62847">
        <ele>113.2</ele>
        <time>2025-10-28T07:55:00.000Z</time>
      </trkpt>
      <trkpt lat="43.5129" lon="6.62847">
        <ele>113.2</ele>
        <time>2025-10-28T07:55:01.000Z</time>
      </trkpt>
      <trkpt lat="43.5129" lon="6.62847">
        <ele>113.2</ele>
        <time>2025-10-28T07:55:02.000Z</time>
      </trkpt>
      <trkpt lat="43.5129" lon="6.62847">
        <ele>113.2</ele>
        <time>2025-10-28T07:55:03.000Z</time>
      </trkpt>
      <trkpt lat="43.5129" lon="6.62847">
        <ele>113.2</ele>
        <time>2025-10-28T07:55:04.000Z</time>
      </trkpt>
      <trkpt lat="43.5129" lon="6.62847">
        <ele>113.2</ele>
        <time>2025-10-28T07:55:05.000Z</time>
      </trkpt>
      <trkpt lat="43.5129" lon="6.62847">
        <ele>113.2</ele>
        <time>2025-10-28T07:55:06.000Z</time>
      </trkpt>
      <trkpt lat="43.5129" lon="6.62847">
        <ele>113.2</ele>
        <time>2025-10-28T07:55:07.000Z</time>
      </trkpt>
      <trkpt lat="43.5129" lon="6.62847">
        <ele>113.2</ele>
        <time>2025-10-28T07:55:08.000Z</time>
      </trkpt>
      <trkpt lat="43.5129" lon="6.62847">
        <ele>113.2</ele>
        <time>2025-10-28T07:55:09.000Z</time>
      </trkpt>
      <trkpt lat="43.5129" lon="6.62847">
        <ele>113.2</ele>
        <time>2025-10-28T07:55:10.000Z</time>
      </trkpt>
      <trkpt lat="43.5129" lon="6.62847">
        <ele>113.2</ele>
        <time>2025-10-28T07:55:11.000Z</time>
      </trkpt>
      <trkpt lat="43.5129" lon="6.62847">
        <ele>113.2</ele>
        <time>2025-10-28T07:55:12.000Z</time>
      </trkpt>
      <trkpt lat="43.5129" lon="6.62847">
        <ele>113.2</ele>
        <time>2025-10-28T07:55:13.000Z</time>
      </trkpt>
      <trkpt lat="43.5129" lon="6.62847">
        <ele>113.2</ele>
        <time>2025-10-28T07:55:14.000Z</time>
      </trkpt>
      <trkpt lat="43.5129" lon="6.62847">
        <ele>113.2</ele>
        <time>2025-10-28T07:55:15.000Z</time>
      </trkpt>
      <trkpt lat="43.5129" lon="6.62847">
        <ele>113.2</ele>
        <time>2025-10-28T07:55:16.000Z</time>
      </trkpt>
      <trkpt lat="43.5129" lon="6.62847">
        <ele>113.2</ele>
        <time>2025-10-28T07:55:17.000Z</time>
      </trkpt>
      <trkpt lat="43.5129" lon="6.62847">
        <ele>113.2</ele>
        <time>2025-10-28T07:55:18.000Z</time>
      </trkpt>
      <trkpt lat="43.5129" lon="6.62847">
        <ele>113.2</ele>
        <time>2025-10-28T07:55:19.000Z</time>
      </trkpt>
      <trkpt lat="43.5129" lon="6.62847">
        <ele>113.2</ele>
        <time>2025-10-28T07:55:20.000Z</time>
      </trkpt>
      <trkpt lat="43.5129" lon="6.62847">
        <ele>113.2</ele>
        <time>2025-10-28T07:55:21.000Z</time>
      </trkpt>
      <trkpt lat="43.5129" lon="6.62847">
        <ele>113.2</ele>
        <time>2025-10-28T07:55:22.000Z</time>
      </trkpt>
      <trkpt lat="43.5129" lon="6.62847">
        <ele>113.2</ele>
        <time>2025-10-28T07:55:23.000Z</time>
      </trkpt>
      <trkpt lat="43.5129" lon="6.62847">
        <ele>113.2</ele>
        <time>2025-10-28T07:55:24.000Z</time>
      </trkpt>
      <trkpt lat="43.5129" lon="6.62847">
        <ele>113.2</ele>
        <time>2025-10-28T07:55:25.000Z</time>
      </trkpt>
      <trkpt lat="43.5129" lon="6.62847">
        <ele>113.2</ele>
        <time>2025-10-28T07:55:26.000Z</time>
      </trkpt>
      <trkpt lat="43.5129" lon="6.62847">
        <ele>113.2</ele>
        <time>2025-10-28T07:55:27.000Z</time>
      </trkpt>
      <trkpt lat="43.5129" lon="6.62847">
        <ele>113.2</ele>
        <time>2025-10-28T07:55:28.000Z</time>
      </trkpt>
      <trkpt lat="43.5129" lon="6.62847">
        <ele>113.2</ele>
        <time>2025-10-28T07:55:29.000Z</time>
      </trkpt>
      <trkpt lat="43.5129" lon="6.62847">
        <ele>113.2</ele>
        <time>2025-10-28T07:55:30.000Z</time>
      </trkpt>
      <trkpt lat="43.5129" lon="6.62847">
        <ele>113.2</ele>
        <time>2025-10-28T07:55:31.000Z</time>
      </trkpt>
      <trkpt lat="43.51291" lon="6.62846">
        <ele>113.1</ele>
        <time>2025-10-28T07:55:32.000Z</time>
      </trkpt>
      <trkpt lat="43.51293" lon="6.62844">
        <ele>113</ele>
        <time>2025-10-28T07:55:33.000Z</time>
      </trkpt>
      <trkpt lat="43.51296" lon="6.62841">
        <ele>112.8</ele>
        <time>2025-10-28T07:55:34.000Z</time>
      </trkpt>
      <trkpt lat="43.51299" lon="6.62837">
        <ele>112.6</ele>
        <time>2025-10-28T07:55:35.000Z</time>
      </trkpt>
      <trkpt lat="43.51302" lon="6.62834">
        <ele>112.5</ele>
        <time>2025-10-28T07:55:36.000Z</time>
      </trkpt>
      <trkpt lat="43.51306" lon="6.6283">
        <ele>112.3</ele>
        <time>2025-10-28T07:55:37.000Z</time>
      </trkpt>
      <trkpt lat="43.5131" lon="6.62826">
        <ele>112.1</ele>
        <time>2025-10-28T07:55:38.000Z</time>
      </trkpt>
      <trkpt lat="43.51314" lon="6.62822">
        <ele>111.9</ele>
        <time>2025-10-28T07:55:39.000Z</time>
      </trkpt>
      <trkpt lat="43.51319" lon="6.62818">
        <ele>111.8</ele>
        <time>2025-10-28T07:55:40.000Z</time>
      </trkpt>
      <trkpt lat="43.51323" lon="6.62814">
        <ele>111.6</ele>
        <time>2025-10-28T07:55:41.000Z</time>
      </trkpt>
      <trkpt lat="43.51327" lon="6.6281">
        <ele>111.4</ele>
        <time>2025-10-28T07:55:42.000Z</time>
      </trkpt>
      <trkpt lat="43.51332" lon="6.62806">
        <ele>111.2</ele>
        <time>2025-10-28T07:55:43.000Z</time>
      </trkpt>
      <trkpt lat="43.51335" lon="6.62802">
        <ele>111</ele>
        <time>2025-10-28T07:55:44.000Z</time>
      </trkpt>
      <trkpt lat="43.51339" lon="6.62798">
        <ele>110.8</ele>
        <time>2025-10-28T07:55:45.000Z</time>
      </trkpt>
      <trkpt lat="43.51342" lon="6.62793">
        <ele>110.6</ele>
        <time>2025-10-28T07:55:46.000Z</time>
      </trkpt>
      <trkpt lat="43.51345" lon="6.62788">
        <ele>110.3</ele>
        <time>2025-10-28T07:55:47.000Z</time>
      </trkpt>
      <trkpt lat="43.51348" lon="6.62782">
        <ele>110.1</ele>
        <time>2025-10-28T07:55:48.000Z</time>
      </trkpt>
      <trkpt lat="43.5135" lon="6.62776">
        <ele>109.9</ele>
        <time>2025-10-28T07:55:49.000Z</time>
      </trkpt>
      <trkpt lat="43.51351" lon="6.62769">
        <ele>109.7</ele>
        <time>2025-10-28T07:55:50.000Z</time>
      </trkpt>
      <trkpt lat="43.51352" lon="6.62762">
        <ele>109.5</ele>
        <time>2025-10-28T07:55:51.000Z</time>
      </trkpt>
      <trkpt lat="43.51354" lon="6.62755">
        <ele>109.3</ele>
        <time>2025-10-28T07:55:52.000Z</time>
      </trkpt>
      <trkpt lat="43.51356" lon="6.6275">
        <ele>109.2</ele>
        <time>2025-10-28T07:55:53.000Z</time>
      </trkpt>
      <trkpt lat="43.51359" lon="6.62745">
        <ele>109.1</ele>
        <time>2025-10-28T07:55:54.000Z</time>
      </trkpt>
      <trkpt lat="43.51361" lon="6.62741">
        <ele>108.9</ele>
        <time>2025-10-28T07:55:55.000Z</time>
      </trkpt>
      <trkpt lat="43.51363" lon="6.62738">
        <ele>108.8</ele>
        <time>2025-10-28T07:55:56.000Z</time>
      </trkpt>
      <trkpt lat="43.51365" lon="6.62734">
        <ele>108.7</ele>
        <time>2025-10-28T07:55:57.000Z</time>
      </trkpt>
      <trkpt lat="43.51368" lon="6.62732">
        <ele>108.6</ele>
        <time>2025-10-28T07:55:58.000Z</time>
      </trkpt>
      <trkpt lat="43.51371" lon="6.6273">
        <ele>108.5</ele>
        <time>2025-10-28T07:55:59.000Z</time>
      </trkpt>
      <trkpt lat="43.51375" lon="6.6273">
        <ele>108.3</ele>
        <time>2025-10-28T07:56:00.000Z</time>
      </trkpt>
      <trkpt lat="43.51379" lon="6.62731">
        <ele>108.2</ele>
        <time>2025-10-28T07:56:01.000Z</time>
      </trkpt>
      <trkpt lat="43.51383" lon="6.62733">
        <ele>108</ele>
        <time>2025-10-28T07:56:02.000Z</time>
      </trkpt>
      <trkpt lat="43.51388" lon="6.62735">
        <ele>107.9</ele>
        <time>2025-10-28T07:56:03.000Z</time>
      </trkpt>
      <trkpt lat="43.51391" lon="6.62737">
        <ele>107.9</ele>
        <time>2025-10-28T07:56:04.000Z</time>
      </trkpt>
      <trkpt lat="43.51394" lon="6.62739">
        <ele>107.8</ele>
        <time>2025-10-28T07:56:05.000Z</time>
      </trkpt>
      <trkpt lat="43.51397" lon="6.62742">
        <ele>107.8</ele>
        <time>2025-10-28T07:56:06.000Z</time>
      </trkpt>
      <trkpt lat="43.51399" lon="6.62747">
        <ele>107.9</ele>
        <time>2025-10-28T07:56:07.000Z</time>
      </trkpt>
      <trkpt lat="43.514" lon="6.62752">
        <ele>108</ele>
        <time>2025-10-28T07:56:08.000Z</time>
      </trkpt>
      <trkpt lat="43.51401" lon="6.62759">
        <ele>108.1</ele>
        <time>2025-10-28T07:56:09.000Z</time>
      </trkpt>
      <trkpt lat="43.51401" lon="6.62765">
        <ele>108.2</ele>
        <time>2025-10-28T07:56:10.000Z</time>
      </trkpt>
      <trkpt lat="43.51401" lon="6.62772">
        <ele>108.4</ele>
        <time>2025-10-28T07:56:11.000Z</time>
      </trkpt>
      <trkpt lat="43.51402" lon="6.62779">
        <ele>108.6</ele>
        <time>2025-10-28T07:56:12.000Z</time>
      </trkpt>
      <trkpt lat="43.51402" lon="6.62786">
        <ele>108.8</ele>
        <time>2025-10-28T07:56:13.000Z</time>
      </trkpt>
      <trkpt lat="43.51403" lon="6.62792">
        <ele>109.1</ele>
        <time>2025-10-28T07:56:14.000Z</time>
      </trkpt>
      <trkpt lat="43.51404" lon="6.62799">
        <ele>109.3</ele>
        <time>2025-10-28T07:56:15.000Z</time>
      </trkpt>
      <trkpt lat="43.51405" lon="6.62806">
        <ele>109.6</ele>
        <time>2025-10-28T07:56:16.000Z</time>
      </trkpt>
      <trkpt lat="43.51406" lon="6.62811">
        <ele>109.8</ele>
        <time>2025-10-28T07:56:17.000Z</time>
      </trkpt>
      <trkpt lat="43.51407" lon="6.62816">
        <ele>110</ele>
        <time>2025-10-28T07:56:18.000Z</time>
      </trkpt>
      <trkpt lat="43.51409" lon="6.62821">
        <ele>110.2</ele>
        <time>2025-10-28T07:56:19.000Z</time>
      </trkpt>
      <trkpt lat="43.5141" lon="6.62826">
        <ele>110.4</ele>
        <time>2025-10-28T07:56:20.000Z</time>
      </trkpt>
      <trkpt lat="43.51412" lon="6.6283">
        <ele>110.6</ele>
        <time>2025-10-28T07:56:21.000Z</time>
      </trkpt>
      <trkpt lat="43.51414" lon="6.62834">
        <ele>110.7</ele>
        <time>2025-10-28T07:56:22.000Z</time>
      </trkpt>
      <trkpt lat="43.51415" lon="6.62839">
        <ele>110.9</ele>
        <time>2025-10-28T07:56:23.000Z</time>
      </trkpt>
      <trkpt lat="43.51416" lon="6.62844">
        <ele>111</ele>
        <time>2025-10-28T07:56:24.000Z</time>
      </trkpt>
      <trkpt lat="43.51417" lon="6.62849">
        <ele>111.2</ele>
        <time>2025-10-28T07:56:25.000Z</time>
      </trkpt>
      <trkpt lat="43.51419" lon="6.62854">
        <ele>111.4</ele>
        <time>2025-10-28T07:56:26.000Z</time>
      </trkpt>
      <trkpt lat="43.5142" lon="6.62859">
        <ele>111.5</ele>
        <time>2025-10-28T07:56:27.000Z</time>
      </trkpt>
      <trkpt lat="43.51422" lon="6.62863">
        <ele>111.7</ele>
        <time>2025-10-28T07:56:28.000Z</time>
      </trkpt>
      <trkpt lat="43.51423" lon="6.62867">
        <ele>111.8</ele>
        <time>2025-10-28T07:56:29.000Z</time>
      </trkpt>
      <trkpt lat="43.51425" lon="6.62872">
        <ele>112</ele>
        <time>2025-10-28T07:56:30.000Z</time>
      </trkpt>
      <trkpt lat="43.51426" lon="6.62876">
        <ele>112.1</ele>
        <time>2025-10-28T07:56:31.000Z</time>
      </trkpt>
      <trkpt lat="43.51428" lon="6.62881">
        <ele>112.3</ele>
        <time>2025-10-28T07:56:32.000Z</time>
      </trkpt>
      <trkpt lat="43.51429" lon="6.62885">
        <ele>112.4</ele>
        <time>2025-10-28T07:56:33.000Z</time>
      </trkpt>
      <trkpt lat="43.51431" lon="6.62889">
        <ele>112.6</ele>
        <time>2025-10-28T07:56:34.000Z</time>
      </trkpt>
      <trkpt lat="43.51434" lon="6.62893">
        <ele>112.7</ele>
        <time>2025-10-28T07:56:35.000Z</time>
      </trkpt>
      <trkpt lat="43.51436" lon="6.62897">
        <ele>112.9</ele>
        <time>2025-10-28T07:56:36.000Z</time>
      </trkpt>
      <trkpt lat="43.51439" lon="6.62901">
        <ele>113.1</ele>
        <time>2025-10-28T07:56:37.000Z</time>
      </trkpt>
      <trkpt lat="43.51441" lon="6.62905">
        <ele>113.3</ele>
        <time>2025-10-28T07:56:38.000Z</time>
      </trkpt>
      <trkpt lat="43.51443" lon="6.6291">
        <ele>113.5</ele>
        <time>2025-10-28T07:56:39.000Z</time>
      </trkpt>
      <trkpt lat="43.51445" lon="6.62914">
        <ele>113.6</ele>
        <time>2025-10-28T07:56:40.000Z</time>
      </trkpt>
      <trkpt lat="43.51447" lon="6.62918">
        <ele>113.8</ele>
        <time>2025-10-28T07:56:41.000Z</time>
      </trkpt>
      <trkpt lat="43.5145" lon="6.62923">
        <ele>114</ele>
        <time>2025-10-28T07:56:42.000Z</time>
      </trkpt>
      <trkpt lat="43.51452" lon="6.62926">
        <ele>114.2</ele>
        <time>2025-10-28T07:56:43.000Z</time>
      </trkpt>
      <trkpt lat="43.51455" lon="6.6293">
        <ele>114.3</ele>
        <time>2025-10-28T07:56:44.000Z</time>
      </trkpt>
      <trkpt lat="43.51458" lon="6.62933">
        <ele>114.5</ele>
        <time>2025-10-28T07:56:45.000Z</time>
      </trkpt>
      <trkpt lat="43.51461" lon="6.62935">
        <ele>114.6</ele>
        <time>2025-10-28T07:56:46.000Z</time>
      </trkpt>
      <trkpt lat="43.51463" lon="6.62938">
        <ele>114.7</ele>
        <time>2025-10-28T07:56:47.000Z</time>
      </trkpt>
      <trkpt lat="43.51466" lon="6.62941">
        <ele>114.8</ele>
        <time>2025-10-28T07:56:48.000Z</time>
      </trkpt>
      <trkpt lat="43.51468" lon="6.62944">
        <ele>114.9</ele>
        <time>2025-10-28T07:56:49.000Z</time>
      </trkpt>
      <trkpt lat="43.51471" lon="6.62947">
        <ele>115.1</ele>
        <time>2025-10-28T07:56:50.000Z</time>
      </trkpt>
      <trkpt lat="43.51474" lon="6.62951">
        <ele>115.2</ele>
        <time>2025-10-28T07:56:51.000Z</time>
      </trkpt>
      <trkpt lat="43.51477" lon="6.62954">
        <ele>115.3</ele>
        <time>2025-10-28T07:56:52.000Z</time>
      </trkpt>
      <trkpt lat="43.5148" lon="6.62957">
        <ele>115.5</ele>
        <time>2025-10-28T07:56:53.000Z</time>
      </trkpt>
      <trkpt lat="43.51484" lon="6.6296">
        <ele>115.6</ele>
        <time>2025-10-28T07:56:54.000Z</time>
      </trkpt>
      <trkpt lat="43.51487" lon="6.62963">
        <ele>115.8</ele>
        <time>2025-10-28T07:56:55.000Z</time>
      </trkpt>
      <trkpt lat="43.5149" lon="6.62966">
        <ele>116</ele>
        <time>2025-10-28T07:56:56.000Z</time>
      </trkpt>
      <trkpt lat="43.51493" lon="6.6297">
        <ele>116.2</ele>
        <time>2025-10-28T07:56:57.000Z</time>
      </trkpt>
      <trkpt lat="43.51497" lon="6.62973">
        <ele>116.5</ele>
        <time>2025-10-28T07:56:58.000Z</time>
      </trkpt>
      <trkpt lat="43.515" lon="6.62976">
        <ele>116.7</ele>
        <time>2025-10-28T07:56:59.000Z</time>
      </trkpt>
      <trkpt lat="43.51503" lon="6.6298">
        <ele>116.9</ele>
        <time>2025-10-28T07:57:00.000Z</time>
      </trkpt>
      <trkpt lat="43.51506" lon="6.62983">
        <ele>117.2</ele>
        <time>2025-10-28T07:57:01.000Z</time>
      </trkpt>
      <trkpt lat="43.51508" lon="6.62986">
        <ele>117.4</ele>
        <time>2025-10-28T07:57:02.000Z</time>
      </trkpt>
      <trkpt lat="43.51511" lon="6.62989">
        <ele>117.6</ele>
        <time>2025-10-28T07:57:03.000Z</time>
      </trkpt>
      <trkpt lat="43.51513" lon="6.62992">
        <ele>117.7</ele>
        <time>2025-10-28T07:57:04.000Z</time>
      </trkpt>
      <trkpt lat="43.51516" lon="6.62996">
        <ele>117.9</ele>
        <time>2025-10-28T07:57:05.000Z</time>
      </trkpt>
      <trkpt lat="43.51518" lon="6.62999">
        <ele>118</ele>
        <time>2025-10-28T07:57:06.000Z</time>
      </trkpt>
      <trkpt lat="43.51521" lon="6.63003">
        <ele>118.1</ele>
        <time>2025-10-28T07:57:07.000Z</time>
      </trkpt>
      <trkpt lat="43.51523" lon="6.63006">
        <ele>118.1</ele>
        <time>2025-10-28T07:57:08.000Z</time>
      </trkpt>
      <trkpt lat="43.51526" lon="6.6301">
        <ele>118.2</ele>
        <time>2025-10-28T07:57:09.000Z</time>
      </trkpt>
      <trkpt lat="43.51529" lon="6.63013">
        <ele>118.3</ele>
        <time>2025-10-28T07:57:10.000Z</time>
      </trkpt>
      <trkpt lat="43.51532" lon="6.63016">
        <ele>118.4</ele>
        <time>2025-10-28T07:57:11.000Z</time>
      </trkpt>
      <trkpt lat="43.51535" lon="6.63018">
        <ele>118.5</ele>
        <time>2025-10-28T07:57:12.000Z</time>
      </trkpt>
      <trkpt lat="43.51538" lon="6.6302">
        <ele>118.6</ele>
        <time>2025-10-28T07:57:13.000Z</time>
      </trkpt>
      <trkpt lat="43.51541" lon="6.63021">
        <ele>118.6</ele>
        <time>2025-10-28T07:57:14.000Z</time>
      </trkpt>
      <trkpt lat="43.51545" lon="6.63021">
        <ele>118.7</ele>
        <time>2025-10-28T07:57:15.000Z</time>
      </trkpt>
      <trkpt lat="43.51548" lon="6.6302">
        <ele>118.8</ele>
        <time>2025-10-28T07:57:16.000Z</time>
      </trkpt>
      <trkpt lat="43.51551" lon="6.6302">
        <ele>118.9</ele>
        <time>2025-10-28T07:57:17.000Z</time>
      </trkpt>
      <trkpt lat="43.51553" lon="6.63019">
        <ele>119</ele>
        <time>2025-10-28T07:57:18.000Z</time>
      </trkpt>
      <trkpt lat="43.51557" lon="6.6302">
        <ele>119</ele>
        <time>2025-10-28T07:57:19.000Z</time>
      </trkpt>
      <trkpt lat="43.5156" lon="6.63021">
        <ele>119</ele>
        <time>2025-10-28T07:57:20.000Z</time>
      </trkpt>
      <trkpt lat="43.51564" lon="6.63023">
        <ele>119.1</ele>
        <time>2025-10-28T07:57:21.000Z</time>
      </trkpt>
      <trkpt lat="43.51568" lon="6.63024">
        <ele>119.1</ele>
        <time>2025-10-28T07:57:22.000Z</time>
      </trkpt>
      <trkpt lat="43.51572" lon="6.63025">
        <ele>119.2</ele>
        <time>2025-10-28T07:57:23.000Z</time>
      </trkpt>
      <trkpt lat="43.51576" lon="6.63025">
        <ele>119.3</ele>
        <time>2025-10-28T07:57:24.000Z</time>
      </trkpt>
      <trkpt lat="43.51579" lon="6.63023">
        <ele>119.3</ele>
        <time>2025-10-28T07:57:25.000Z</time>
      </trkpt>
      <trkpt lat="43.51582" lon="6.63021">
        <ele>119.4</ele>
        <time>2025-10-28T07:57:26.000Z</time>
      </trkpt>
      <trkpt lat="43.51585" lon="6.63018">
        <ele>119.4</ele>
        <time>2025-10-28T07:57:27.000Z</time>
      </trkpt>
      <trkpt lat="43.51588" lon="6.63014">
        <ele>119.4</ele>
        <time>2025-10-28T07:57:28.000Z</time>
      </trkpt>
      <trkpt lat="43.5159" lon="6.6301">
        <ele>119.5</ele>
        <time>2025-10-28T07:57:29.000Z</time>
      </trkpt>
      <trkpt lat="43.51593" lon="6.63005">
        <ele>119.5</ele>
        <time>2025-10-28T07:57:30.000Z</time>
      </trkpt>
      <trkpt lat="43.51594" lon="6.63001">
        <ele>119.6</ele>
        <time>2025-10-28T07:57:31.000Z</time>
      </trkpt>
      <trkpt lat="43.51596" lon="6.62996">
        <ele>119.7</ele>
        <time>2025-10-28T07:57:32.000Z</time>
      </trkpt>
      <trkpt lat="43.51598" lon="6.62991">
        <ele>119.8</ele>
        <time>2025-10-28T07:57:33.000Z</time>
      </trkpt>
      <trkpt lat="43.51599" lon="6.62987">
        <ele>119.9</ele>
        <time>2025-10-28T07:57:34.000Z</time>
      </trkpt>
      <trkpt lat="43.51601" lon="6.62982">
        <ele>120</ele>
        <time>2025-10-28T07:57:35.000Z</time>
      </trkpt>
      <trkpt lat="43.51603" lon="6.62977">
        <ele>120.1</ele>
        <time>2025-10-28T07:57:36.000Z</time>
      </trkpt>
      <trkpt lat="43.51604" lon="6.62972">
        <ele>120.2</ele>
        <time>2025-10-28T07:57:37.000Z</time>
      </trkpt>
      <trkpt lat="43.51606" lon="6.62968">
        <ele>120.3</ele>
        <time>2025-10-28T07:57:38.000Z</time>
      </trkpt>
      <trkpt lat="43.51608" lon="6.62963">
        <ele>120.4</ele>
        <time>2025-10-28T07:57:39.000Z</time>
      </trkpt>
      <trkpt lat="43.5161" lon="6.62958">
        <ele>120.6</ele>
        <time>2025-10-28T07:57:40.000Z</time>
      </trkpt>
      <trkpt lat="43.51612" lon="6.62954">
        <ele>120.7</ele>
        <time>2025-10-28T07:57:41.000Z</time>
      </trkpt>
      <trkpt lat="43.51614" lon="6.62949">
        <ele>120.9</ele>
        <time>2025-10-28T07:57:42.000Z</time>
      </trkpt>
      <trkpt lat="43.51616" lon="6.62944">
        <ele>121</ele>
        <time>2025-10-28T07:57:43.000Z</time>
      </trkpt>
      <trkpt lat="43.51618" lon="6.62939">
        <ele>121.2</ele>
        <time>2025-10-28T07:57:44.000Z</time>
      </trkpt>
      <trkpt lat="43.5162" lon="6.62934">
        <ele>121.4</ele>
        <time>2025-10-28T07:57:45.000Z</time>
      </trkpt>
      <trkpt lat="43.51622" lon="6.62929">
        <ele>121.6</ele>
        <time>2025-10-28T07:57:46.000Z</time>
      </trkpt>
      <trkpt lat="43.51624" lon="6.62925">
        <ele>121.8</ele>
        <time>2025-10-28T07:57:47.000Z</time>
      </trkpt>
      <trkpt lat="43.51625" lon="6.6292">
        <ele>122</ele>
        <time>2025-10-28T07:57:48.000Z</time>
      </trkpt>
      <trkpt lat="43.51627" lon="6.62915">
        <ele>122.2</ele>
        <time>2025-10-28T07:57:49.000Z</time>
      </trkpt>
      <trkpt lat="43.51628" lon="6.6291">
        <ele>122.4</ele>
        <time>2025-10-28T07:57:50.000Z</time>
      </trkpt>
      <trkpt lat="43.5163" lon="6.62905">
        <ele>122.6</ele>
        <time>2025-10-28T07:57:51.000Z</time>
      </trkpt>
      <trkpt lat="43.51631" lon="6.629">
        <ele>122.8</ele>
        <time>2025-10-28T07:57:52.000Z</time>
      </trkpt>
      <trkpt lat="43.51632" lon="6.62895">
        <ele>122.9</ele>
        <time>2025-10-28T07:57:53.000Z</time>
      </trkpt>
      <trkpt lat="43.51633" lon="6.62891">
        <ele>123.1</ele>
        <time>2025-10-28T07:57:54.000Z</time>
      </trkpt>
      <trkpt lat="43.51635" lon="6.62886">
        <ele>123.3</ele>
        <time>2025-10-28T07:57:55.000Z</time>
      </trkpt>
      <trkpt lat="43.51636" lon="6.62881">
        <ele>123.5</ele>
        <time>2025-10-28T07:57:56.000Z</time>
      </trkpt>
      <trkpt lat="43.51637" lon="6.62876">
        <ele>123.7</ele>
        <time>2025-10-28T07:57:57.000Z</time>
      </trkpt>
      <trkpt lat="43.51639" lon="6.62872">
        <ele>123.8</ele>
        <time>2025-10-28T07:57:58.000Z</time>
      </trkpt>
      <trkpt lat="43.5164" lon="6.62867">
        <ele>124</ele>
        <time>2025-10-28T07:57:59.000Z</time>
      </trkpt>
      <trkpt lat="43.51642" lon="6.62863">
        <ele>124.2</ele>
        <time>2025-10-28T07:58:00.000Z</time>
      </trkpt>
      <trkpt lat="43.51643" lon="6.62858">
        <ele>124.3</ele>
        <time>2025-10-28T07:58:01.000Z</time>
      </trkpt>
      <trkpt lat="43.51644" lon="6.62853">
        <ele>124.5</ele>
        <time>2025-10-28T07:58:02.000Z</time>
      </trkpt>
      <trkpt lat="43.51646" lon="6.62849">
        <ele>124.6</ele>
        <time>2025-10-28T07:58:03.000Z</time>
      </trkpt>
      <trkpt lat="43.51647" lon="6.62844">
        <ele>124.8</ele>
        <time>2025-10-28T07:58:04.000Z</time>
      </trkpt>
      <trkpt lat="43.51648" lon="6.62839">
        <ele>124.9</ele>
        <time>2025-10-28T07:58:05.000Z</time>
      </trkpt>
      <trkpt lat="43.51649" lon="6.62834">
        <ele>125</ele>
        <time>2025-10-28T07:58:06.000Z</time>
      </trkpt>
      <trkpt lat="43.5165" lon="6.62829">
        <ele>125</ele>
        <time>2025-10-28T07:58:07.000Z</time>
      </trkpt>
      <trkpt lat="43.51651" lon="6.62824">
        <ele>125</ele>
        <time>2025-10-28T07:58:08.000Z</time>
      </trkpt>
      <trkpt lat="43.51652" lon="6.62819">
        <ele>124.9</ele>
        <time>2025-10-28T07:58:09.000Z</time>
      </trkpt>
      <trkpt lat="43.51653" lon="6.62813">
        <ele>124.8</ele>
        <time>2025-10-28T07:58:10.000Z</time>
      </trkpt>
      <trkpt lat="43.51654" lon="6.62808">
        <ele>124.7</ele>
        <time>2025-10-28T07:58:11.000Z</time>
      </trkpt>
      <trkpt lat="43.51655" lon="6.62802">
        <ele>124.6</ele>
        <time>2025-10-28T07:58:12.000Z</time>
      </trkpt>
      <trkpt lat="43.51657" lon="6.62795">
        <ele>124.4</ele>
        <time>2025-10-28T07:58:13.000Z</time>
      </trkpt>
      <trkpt lat="43.51658" lon="6.6279">
        <ele>124.3</ele>
        <time>2025-10-28T07:58:14.000Z</time>
      </trkpt>
      <trkpt lat="43.51659" lon="6.62784">
        <ele>124.2</ele>
        <time>2025-10-28T07:58:15.000Z</time>
      </trkpt>
      <trkpt lat="43.51661" lon="6.62778">
        <ele>124.1</ele>
        <time>2025-10-28T07:58:16.000Z</time>
      </trkpt>
      <trkpt lat="43.51663" lon="6.62772">
        <ele>124</ele>
        <time>2025-10-28T07:58:17.000Z</time>
      </trkpt>
      <trkpt lat="43.51665" lon="6.62766">
        <ele>124</ele>
        <time>2025-10-28T07:58:18.000Z</time>
      </trkpt>
      <trkpt lat="43.51667" lon="6.6276">
        <ele>123.9</ele>
        <time>2025-10-28T07:58:19.000Z</time>
      </trkpt>
      <trkpt lat="43.51669" lon="6.62754">
        <ele>123.9</ele>
        <time>2025-10-28T07:58:20.000Z</time>
      </trkpt>
      <trkpt lat="43.51671" lon="6.62748">
        <ele>123.9</ele>
        <time>2025-10-28T07:58:21.000Z</time>
      </trkpt>
      <trkpt lat="43.51673" lon="6.62742">
        <ele>123.9</ele>
        <time>2025-10-28T07:58:22.000Z</time>
      </trkpt>
      <trkpt lat="43.51674" lon="6.62736">
        <ele>123.9</ele>
        <time>2025-10-28T07:58:23.000Z</time>
      </trkpt>
      <trkpt lat="43.51675" lon="6.6273">
        <ele>123.9</ele>
        <time>2025-10-28T07:58:24.000Z</time>
      </trkpt>
      <trkpt lat="43.51675" lon="6.62725">
        <ele>123.8</ele>
        <time>2025-10-28T07:58:25.000Z</time>
      </trkpt>
      <trkpt lat="43.51676" lon="6.6272">
        <ele>123.7</ele>
        <time>2025-10-28T07:58:26.000Z</time>
      </trkpt>
      <trkpt lat="43.51676" lon="6.62714">
        <ele>123.6</ele>
        <time>2025-10-28T07:58:27.000Z</time>
      </trkpt>
      <trkpt lat="43.51677" lon="6.62708">
        <ele>123.4</ele>
        <time>2025-10-28T07:58:28.000Z</time>
      </trkpt>
      <trkpt lat="43.51677" lon="6.62702">
        <ele>123.2</ele>
        <time>2025-10-28T07:58:29.000Z</time>
      </trkpt>
      <trkpt lat="43.51678" lon="6.62696">
        <ele>123</ele>
        <time>2025-10-28T07:58:30.000Z</time>
      </trkpt>
      <trkpt lat="43.51679" lon="6.62689">
        <ele>122.9</ele>
        <time>2025-10-28T07:58:31.000Z</time>
      </trkpt>
      <trkpt lat="43.5168" lon="6.62682">
        <ele>122.7</ele>
        <time>2025-10-28T07:58:32.000Z</time>
      </trkpt>
      <trkpt lat="43.51682" lon="6.62676">
        <ele>122.6</ele>
        <time>2025-10-28T07:58:33.000Z</time>
      </trkpt>
      <trkpt lat="43.51683" lon="6.62669">
        <ele>122.5</ele>
        <time>2025-10-28T07:58:34.000Z</time>
      </trkpt>
      <trkpt lat="43.51686" lon="6.62662">
        <ele>122.5</ele>
        <time>2025-10-28T07:58:35.000Z</time>
      </trkpt>
      <trkpt lat="43.51688" lon="6.62656">
        <ele>122.5</ele>
        <time>2025-10-28T07:58:36.000Z</time>
      </trkpt>
      <trkpt lat="43.51691" lon="6.6265">
        <ele>122.5</ele>
        <time>2025-10-28T07:58:37.000Z</time>
      </trkpt>
      <trkpt lat="43.51694" lon="6.62645">
        <ele>122.5</ele>
        <time>2025-10-28T07:58:38.000Z</time>
      </trkpt>
      <trkpt lat="43.51696" lon="6.62639">
        <ele>122.6</ele>
        <time>2025-10-28T07:58:39.000Z</time>
      </trkpt>
      <trkpt lat="43.51698" lon="6.62635">
        <ele>122.6</ele>
        <time>2025-10-28T07:58:40.000Z</time>
      </trkpt>
      <trkpt lat="43.517" lon="6.6263">
        <ele>123.2</ele>
        <time>2025-10-28T07:58:41.000Z</time>
      </trkpt>
      <trkpt lat="43.51701" lon="6.62627">
        <ele>123.7</ele>
        <time>2025-10-28T07:58:42.000Z</time>
      </trkpt>
      <trkpt lat="43.51703" lon="6.62624">
        <ele>124.2</ele>
        <time>2025-10-28T07:58:43.000Z</time>
      </trkpt>
      <trkpt lat="43.51705" lon="6.62621">
        <ele>124.7</ele>
        <time>2025-10-28T07:58:44.000Z</time>
      </trkpt>
      <trkpt lat="43.51707" lon="6.62618">
        <ele>125.2</ele>
        <time>2025-10-28T07:58:45.000Z</time>
      </trkpt>
      <trkpt lat="43.51709" lon="6.62617">
        <ele>125.6</ele>
        <time>2025-10-28T07:58:46.000Z</time>
      </trkpt>
      <trkpt lat="43.51712" lon="6.62615">
        <ele>126.1</ele>
        <time>2025-10-28T07:58:47.000Z</time>
      </trkpt>
      <trkpt lat="43.51714" lon="6.62614">
        <ele>126.5</ele>
        <time>2025-10-28T07:58:48.000Z</time>
      </trkpt>
      <trkpt lat="43.51717" lon="6.62614">
        <ele>126.9</ele>
        <time>2025-10-28T07:58:49.000Z</time>
      </trkpt>
      <trkpt lat="43.5172" lon="6.62613">
        <ele>127.3</ele>
        <time>2025-10-28T07:58:50.000Z</time>
      </trkpt>
      <trkpt lat="43.51723" lon="6.62613">
        <ele>127.7</ele>
        <time>2025-10-28T07:58:51.000Z</time>
      </trkpt>
      <trkpt lat="43.51726" lon="6.62613">
        <ele>128.2</ele>
        <time>2025-10-28T07:58:52.000Z</time>
      </trkpt>
      <trkpt lat="43.51729" lon="6.62613">
        <ele>128.6</ele>
        <time>2025-10-28T07:58:53.000Z</time>
      </trkpt>
      <trkpt lat="43.51732" lon="6.62612">
        <ele>129.1</ele>
        <time>2025-10-28T07:58:54.000Z</time>
      </trkpt>
      <trkpt lat="43.51735" lon="6.62612">
        <ele>129.5</ele>
        <time>2025-10-28T07:58:55.000Z</time>
      </trkpt>
      <trkpt lat="43.51738" lon="6.62611">
        <ele>129.9</ele>
        <time>2025-10-28T07:58:56.000Z</time>
      </trkpt>
      <trkpt lat="43.51741" lon="6.62611">
        <ele>130.4</ele>
        <time>2025-10-28T07:58:57.000Z</time>
      </trkpt>
      <trkpt lat="43.51744" lon="6.62611">
        <ele>130.8</ele>
        <time>2025-10-28T07:58:58.000Z</time>
      </trkpt>
      <trkpt lat="43.51747" lon="6.6261">
        <ele>131.2</ele>
        <time>2025-10-28T07:58:59.000Z</time>
      </trkpt>
      <trkpt lat="43.51749" lon="6.6261">
        <ele>131.7</ele>
        <time>2025-10-28T07:59:00.000Z</time>
      </trkpt>
      <trkpt lat="43.51752" lon="6.6261">
        <ele>132.2</ele>
        <time>2025-10-28T07:59:01.000Z</time>
      </trkpt>
      <trkpt lat="43.51755" lon="6.62609">
        <ele>132.7</ele>
        <time>2025-10-28T07:59:02.000Z</time>
      </trkpt>
      <trkpt lat="43.51758" lon="6.62609">
        <ele>133.2</ele>
        <time>2025-10-28T07:59:03.000Z</time>
      </trkpt>
      <trkpt lat="43.5176" lon="6.62608">
        <ele>133.7</ele>
        <time>2025-10-28T07:59:04.000Z</time>
      </trkpt>
      <trkpt lat="43.51762" lon="6.62607">
        <ele>134.1</ele>
        <time>2025-10-28T07:59:05.000Z</time>
      </trkpt>
      <trkpt lat="43.51765" lon="6.62605">
        <ele>134.6</ele>
        <time>2025-10-28T07:59:06.000Z</time>
      </trkpt>
      <trkpt lat="43.51767" lon="6.62604">
        <ele>135</ele>
        <time>2025-10-28T07:59:07.000Z</time>
      </trkpt>
      <trkpt lat="43.51769" lon="6.62603">
        <ele>135.4</ele>
        <time>2025-10-28T07:59:08.000Z</time>
      </trkpt>
      <trkpt lat="43.51771" lon="6.62601">
        <ele>135.9</ele>
        <time>2025-10-28T07:59:09.000Z</time>
      </trkpt>
      <trkpt lat="43.51773" lon="6.62599">
        <ele>136.3</ele>
        <time>2025-10-28T07:59:10.000Z</time>
      </trkpt>
      <trkpt lat="43.51775" lon="6.62596">
        <ele>136.7</ele>
        <time>2025-10-28T07:59:11.000Z</time>
      </trkpt>
      <trkpt lat="43.51776" lon="6.62594">
        <ele>137.1</ele>
        <time>2025-10-28T07:59:12.000Z</time>
      </trkpt>
      <trkpt lat="43.51777" lon="6.62591">
        <ele>137.5</ele>
        <time>2025-10-28T07:59:13.000Z</time>
      </trkpt>
      <trkpt lat="43.51778" lon="6.62588">
        <ele>137.9</ele>
        <time>2025-10-28T07:59:14.000Z</time>
      </trkpt>
      <trkpt lat="43.51779" lon="6.62585">
        <ele>138.3</ele>
        <time>2025-10-28T07:59:15.000Z</time>
      </trkpt>
      <trkpt lat="43.5178" lon="6.62582">
        <ele>138.7</ele>
        <time>2025-10-28T07:59:16.000Z</time>
      </trkpt>
      <trkpt lat="43.51781" lon="6.62579">
        <ele>139.1</ele>
        <time>2025-10-28T07:59:17.000Z</time>
      </trkpt>
      <trkpt lat="43.51782" lon="6.62576">
        <ele>139.5</ele>
        <time>2025-10-28T07:59:18.000Z</time>
      </trkpt>
      <trkpt lat="43.51784" lon="6.62574">
        <ele>139.9</ele>
        <time>2025-10-28T07:59:19.000Z</time>
      </trkpt>
      <trkpt lat="43.51785" lon="6.62571">
        <ele>140.4</ele>
        <time>2025-10-28T07:59:20.000Z</time>
      </trkpt>
      <trkpt lat="43.51787" lon="6.62568">
        <ele>140.8</ele>
        <time>2025-10-28T07:59:21.000Z</time>
      </trkpt>
      <trkpt lat="43.51788" lon="6.62566">
        <ele>141.3</ele>
        <time>2025-10-28T07:59:22.000Z</time>
      </trkpt>
      <trkpt lat="43.5179" lon="6.62563">
        <ele>141.8</ele>
        <time>2025-10-28T07:59:23.000Z</time>
      </trkpt>
      <trkpt lat="43.51792" lon="6.6256">
        <ele>142.3</ele>
        <time>2025-10-28T07:59:24.000Z</time>
      </trkpt>
      <trkpt lat="43.51793" lon="6.62558">
        <ele>142.8</ele>
        <time>2025-10-28T07:59:25.000Z</time>
      </trkpt>
      <trkpt lat="43.51795" lon="6.62555">
        <ele>143.3</ele>
        <time>2025-10-28T07:59:26.000Z</time>
      </trkpt>
      <trkpt lat="43.51796" lon="6.62552">
        <ele>143.8</ele>
        <time>2025-10-28T07:59:27.000Z</time>
      </trkpt>
      <trkpt lat="43.51798" lon="6.6255">
        <ele>144.3</ele>
        <time>2025-10-28T07:59:28.000Z</time>
      </trkpt>
      <trkpt lat="43.51799" lon="6.62547">
        <ele>144.8</ele>
        <time>2025-10-28T07:59:29.000Z</time>
      </trkpt>
      <trkpt lat="43.51801" lon="6.62544">
        <ele>145.4</ele>
        <time>2025-10-28T07:59:30.000Z</time>
      </trkpt>
      <trkpt lat="43.51803" lon="6.62542">
        <ele>145.7</ele>
        <time>2025-10-28T07:59:31.000Z</time>
      </trkpt>
      <trkpt lat="43.51804" lon="6.62541">
        <ele>146.1</ele>
        <time>2025-10-28T07:59:32.000Z</time>
      </trkpt>
      <trkpt lat="43.51806" lon="6.6254">
        <ele>146.5</ele>
        <time>2025-10-28T07:59:33.000Z</time>
      </trkpt>
      <trkpt lat="43.51809" lon="6.62539">
        <ele>147</ele>
        <time>2025-10-28T07:59:34.000Z</time>
      </trkpt>
      <trkpt lat="43.51811" lon="6.62539">
        <ele>147.5</ele>
        <time>2025-10-28T07:59:35.000Z</time>
      </trkpt>
      <trkpt lat="43.51814" lon="6.62538">
        <ele>147.9</ele>
        <time>2025-10-28T07:59:36.000Z</time>
      </trkpt>
      <trkpt lat="43.51816" lon="6.62538">
        <ele>148.1</ele>
        <time>2025-10-28T07:59:37.000Z</time>
      </trkpt>
      <trkpt lat="43.51819" lon="6.62537">
        <ele>148.3</ele>
        <time>2025-10-28T07:59:38.000Z</time>
      </trkpt>
      <trkpt lat="43.51822" lon="6.62535">
        <ele>148.5</ele>
        <time>2025-10-28T07:59:39.000Z</time>
      </trkpt>
      <trkpt lat="43.51824" lon="6.62534">
        <ele>148.7</ele>
        <time>2025-10-28T07:59:40.000Z</time>
      </trkpt>
      <trkpt lat="43.51827" lon="6.62532">
        <ele>149</ele>
        <time>2025-10-28T07:59:41.000Z</time>
      </trkpt>
      <trkpt lat="43.51829" lon="6.6253">
        <ele>149.1</ele>
        <time>2025-10-28T07:59:42.000Z</time>
      </trkpt>
      <trkpt lat="43.51831" lon="6.62529">
        <ele>149.4</ele>
        <time>2025-10-28T07:59:43.000Z</time>
      </trkpt>
      <trkpt lat="43.51834" lon="6.62528">
        <ele>149.5</ele>
        <time>2025-10-28T07:59:44.000Z</time>
      </trkpt>
      <trkpt lat="43.51836" lon="6.62527">
        <ele>149.8</ele>
        <time>2025-10-28T07:59:45.000Z</time>
      </trkpt>
      <trkpt lat="43.51838" lon="6.62525">
        <ele>149.9</ele>
        <time>2025-10-28T07:59:46.000Z</time>
      </trkpt>
      <trkpt lat="43.5184" lon="6.62523">
        <ele>150.2</ele>
        <time>2025-10-28T07:59:47.000Z</time>
      </trkpt>
      <trkpt lat="43.51843" lon="6.62521">
        <ele>150.4</ele>
        <time>2025-10-28T07:59:48.000Z</time>
      </trkpt>
      <trkpt lat="43.51844" lon="6.62519">
        <ele>150.6</ele>
        <time>2025-10-28T07:59:49.000Z</time>
      </trkpt>
      <trkpt lat="43.51846" lon="6.62516">
        <ele>150.8</ele>
        <time>2025-10-28T07:59:50.000Z</time>
      </trkpt>
      <trkpt lat="43.51848" lon="6.62513">
        <ele>151</ele>
        <time>2025-10-28T07:59:51.000Z</time>
      </trkpt>
      <trkpt lat="43.5185" lon="6.62511">
        <ele>151.2</ele>
        <time>2025-10-28T07:59:52.000Z</time>
      </trkpt>
      <trkpt lat="43.51852" lon="6.62508">
        <ele>151.4</ele>
        <time>2025-10-28T07:59:53.000Z</time>
      </trkpt>
      <trkpt lat="43.51853" lon="6.62505">
        <ele>151.5</ele>
        <time>2025-10-28T07:59:54.000Z</time>
      </trkpt>
      <trkpt lat="43.51855" lon="6.62502">
        <ele>151.7</ele>
        <time>2025-10-28T07:59:55.000Z</time>
      </trkpt>
      <trkpt lat="43.51857" lon="6.625">
        <ele>151.9</ele>
        <time>2025-10-28T07:59:56.000Z</time>
      </trkpt>
      <trkpt lat="43.51859" lon="6.62497">
        <ele>152</ele>
        <time>2025-10-28T07:59:57.000Z</time>
      </trkpt>
      <trkpt lat="43.51861" lon="6.62494">
        <ele>152.1</ele>
        <time>2025-10-28T07:59:58.000Z</time>
      </trkpt>
      <trkpt lat="43.51862" lon="6.62491">
        <ele>152.3</ele>
        <time>2025-10-28T07:59:59.000Z</time>
      </trkpt>
      <trkpt lat="43.51864" lon="6.62488">
        <ele>152.4</ele>
        <time>2025-10-28T08:00:00.000Z</time>
      </trkpt>
      <trkpt lat="43.51865" lon="6.62485">
        <ele>152.4</ele>
        <time>2025-10-28T08:00:01.000Z</time>
      </trkpt>
      <trkpt lat="43.51866" lon="6.62482">
        <ele>152.5</ele>
        <time>2025-10-28T08:00:02.000Z</time>
      </trkpt>
      <trkpt lat="43.51868" lon="6.62479">
        <ele>152.6</ele>
        <time>2025-10-28T08:00:03.000Z</time>
      </trkpt>
      <trkpt lat="43.5187" lon="6.62476">
        <ele>152.7</ele>
        <time>2025-10-28T08:00:04.000Z</time>
      </trkpt>
      <trkpt lat="43.51872" lon="6.62473">
        <ele>152.8</ele>
        <time>2025-10-28T08:00:05.000Z</time>
      </trkpt>
      <trkpt lat="43.51874" lon="6.6247">
        <ele>152.9</ele>
        <time>2025-10-28T08:00:06.000Z</time>
      </trkpt>
      <trkpt lat="43.51876" lon="6.62468">
        <ele>153</ele>
        <time>2025-10-28T08:00:07.000Z</time>
      </trkpt>
      <trkpt lat="43.51878" lon="6.62465">
        <ele>153</ele>
        <time>2025-10-28T08:00:08.000Z</time>
      </trkpt>
      <trkpt lat="43.5188" lon="6.62462">
        <ele>153.1</ele>
        <time>2025-10-28T08:00:09.000Z</time>
      </trkpt>
      <trkpt lat="43.51883" lon="6.6246">
        <ele>153.1</ele>
        <time>2025-10-28T08:00:10.000Z</time>
      </trkpt>
      <trkpt lat="43.51885" lon="6.62457">
        <ele>153.2</ele>
        <time>2025-10-28T08:00:11.000Z</time>
      </trkpt>
      <trkpt lat="43.51887" lon="6.62455">
        <ele>153.2</ele>
        <time>2025-10-28T08:00:12.000Z</time>
      </trkpt>
      <trkpt lat="43.51889" lon="6.62452">
        <ele>153.2</ele>
        <time>2025-10-28T08:00:13.000Z</time>
      </trkpt>
      <trkpt lat="43.51891" lon="6.6245">
        <ele>153.1</ele>
        <time>2025-10-28T08:00:14.000Z</time>
      </trkpt>
      <trkpt lat="43.51893" lon="6.62447">
        <ele>153.1</ele>
        <time>2025-10-28T08:00:15.000Z</time>
      </trkpt>
      <trkpt lat="43.51895" lon="6.62444">
        <ele>153</ele>
        <time>2025-10-28T08:00:16.000Z</time>
      </trkpt>
      <trkpt lat="43.51898" lon="6.62441">
        <ele>152.8</ele>
        <time>2025-10-28T08:00:17.000Z</time>
      </trkpt>
      <trkpt lat="43.519" lon="6.62438">
        <ele>152.7</ele>
        <time>2025-10-28T08:00:18.000Z</time>
      </trkpt>
      <trkpt lat="43.51902" lon="6.62434">
        <ele>152.5</ele>
        <time>2025-10-28T08:00:19.000Z</time>
      </trkpt>
      <trkpt lat="43.51906" lon="6.62429">
        <ele>152.3</ele>
        <time>2025-10-28T08:00:20.000Z</time>
      </trkpt>
      <trkpt lat="43.51909" lon="6.62425">
        <ele>152.1</ele>
        <time>2025-10-28T08:00:21.000Z</time>
      </trkpt>
      <trkpt lat="43.51913" lon="6.62421">
        <ele>152</ele>
        <time>2025-10-28T08:00:22.000Z</time>
      </trkpt>
      <trkpt lat="43.51917" lon="6.62417">
        <ele>151.8</ele>
        <time>2025-10-28T08:00:23.000Z</time>
      </trkpt>
      <trkpt lat="43.5192" lon="6.62412">
        <ele>151.8</ele>
        <time>2025-10-28T08:00:24.000Z</time>
      </trkpt>
      <trkpt lat="43.51924" lon="6.62407">
        <ele>151.7</ele>
        <time>2025-10-28T08:00:25.000Z</time>
      </trkpt>
      <trkpt lat="43.51927" lon="6.62403">
        <ele>151.7</ele>
        <time>2025-10-28T08:00:26.000Z</time>
      </trkpt>
      <trkpt lat="43.5193" lon="6.62398">
        <ele>151.7</ele>
        <time>2025-10-28T08:00:27.000Z</time>
      </trkpt>
      <trkpt lat="43.51932" lon="6.62393">
        <ele>151.7</ele>
        <time>2025-10-28T08:00:28.000Z</time>
      </trkpt>
      <trkpt lat="43.51934" lon="6.62387">
        <ele>151.7</ele>
        <time>2025-10-28T08:00:29.000Z</time>
      </trkpt>
      <trkpt lat="43.51936" lon="6.62383">
        <ele>151.8</ele>
        <time>2025-10-28T08:00:30.000Z</time>
      </trkpt>
      <trkpt lat="43.51938" lon="6.62378">
        <ele>151.8</ele>
        <time>2025-10-28T08:00:31.000Z</time>
      </trkpt>
      <trkpt lat="43.5194" lon="6.62373">
        <ele>151.8</ele>
        <time>2025-10-28T08:00:32.000Z</time>
      </trkpt>
      <trkpt lat="43.51942" lon="6.62368">
        <ele>151.9</ele>
        <time>2025-10-28T08:00:33.000Z</time>
      </trkpt>
      <trkpt lat="43.51944" lon="6.62362">
        <ele>152</ele>
        <time>2025-10-28T08:00:34.000Z</time>
      </trkpt>
      <trkpt lat="43.51946" lon="6.62357">
        <ele>152.1</ele>
        <time>2025-10-28T08:00:35.000Z</time>
      </trkpt>
      <trkpt lat="43.51948" lon="6.62352">
        <ele>152.2</ele>
        <time>2025-10-28T08:00:36.000Z</time>
      </trkpt>
      <trkpt lat="43.51949" lon="6.62347">
        <ele>152.4</ele>
        <time>2025-10-28T08:00:37.000Z</time>
      </trkpt>
      <trkpt lat="43.51951" lon="6.62342">
        <ele>152.6</ele>
        <time>2025-10-28T08:00:38.000Z</time>
      </trkpt>
      <trkpt lat="43.51953" lon="6.62337">
        <ele>152.7</ele>
        <time>2025-10-28T08:00:39.000Z</time>
      </trkpt>
      <trkpt lat="43.51954" lon="6.62332">
        <ele>152.9</ele>
        <time>2025-10-28T08:00:40.000Z</time>
      </trkpt>
      <trkpt lat="43.51956" lon="6.62328">
        <ele>153.1</ele>
        <time>2025-10-28T08:00:41.000Z</time>
      </trkpt>
      <trkpt lat="43.51958" lon="6.62324">
        <ele>153.3</ele>
        <time>2025-10-28T08:00:42.000Z</time>
      </trkpt>
      <trkpt lat="43.5196" lon="6.6232">
        <ele>153.4</ele>
        <time>2025-10-28T08:00:43.000Z</time>
      </trkpt>
      <trkpt lat="43.51962" lon="6.62316">
        <ele>153.5</ele>
        <time>2025-10-28T08:00:44.000Z</time>
      </trkpt>
      <trkpt lat="43.51964" lon="6.62312">
        <ele>153.5</ele>
        <time>2025-10-28T08:00:45.000Z</time>
      </trkpt>
      <trkpt lat="43.51967" lon="6.62308">
        <ele>153.5</ele>
        <time>2025-10-28T08:00:46.000Z</time>
      </trkpt>
      <trkpt lat="43.5197" lon="6.62304">
        <ele>153.5</ele>
        <time>2025-10-28T08:00:47.000Z</time>
      </trkpt>
      <trkpt lat="43.51972" lon="6.623">
        <ele>153.5</ele>
        <time>2025-10-28T08:00:48.000Z</time>
      </trkpt>
      <trkpt lat="43.51974" lon="6.62295">
        <ele>153.4</ele>
        <time>2025-10-28T08:00:49.000Z</time>
      </trkpt>
      <trkpt lat="43.51976" lon="6.6229">
        <ele>153.3</ele>
        <time>2025-10-28T08:00:50.000Z</time>
      </trkpt>
      <trkpt lat="43.51978" lon="6.62285">
        <ele>153.2</ele>
        <time>2025-10-28T08:00:51.000Z</time>
      </trkpt>
      <trkpt lat="43.5198" lon="6.6228">
        <ele>153.1</ele>
        <time>2025-10-28T08:00:52.000Z</time>
      </trkpt>
      <trkpt lat="43.51982" lon="6.62274">
        <ele>153</ele>
        <time>2025-10-28T08:00:53.000Z</time>
      </trkpt>
      <trkpt lat="43.51984" lon="6.62269">
        <ele>153</ele>
        <time>2025-10-28T08:00:54.000Z</time>
      </trkpt>
      <trkpt lat="43.51985" lon="6.62263">
        <ele>153</ele>
        <time>2025-10-28T08:00:55.000Z</time>
      </trkpt>
      <trkpt lat="43.51987" lon="6.62258">
        <ele>153</ele>
        <time>2025-10-28T08:00:56.000Z</time>
      </trkpt>
      <trkpt lat="43.51989" lon="6.62253">
        <ele>153.1</ele>
        <time>2025-10-28T08:00:57.000Z</time>
      </trkpt>
      <trkpt lat="43.51992" lon="6.62248">
        <ele>153.3</ele>
        <time>2025-10-28T08:00:58.000Z</time>
      </trkpt>
      <trkpt lat="43.51994" lon="6.62243">
        <ele>153.5</ele>
        <time>2025-10-28T08:00:59.000Z</time>
      </trkpt>
      <trkpt lat="43.51997" lon="6.62239">
        <ele>153.7</ele>
        <time>2025-10-28T08:01:00.000Z</time>
      </trkpt>
      <trkpt lat="43.51999" lon="6.62234">
        <ele>154</ele>
        <time>2025-10-28T08:01:01.000Z</time>
      </trkpt>
      <trkpt lat="43.52001" lon="6.6223">
        <ele>154.3</ele>
        <time>2025-10-28T08:01:02.000Z</time>
      </trkpt>
      <trkpt lat="43.52003" lon="6.62225">
        <ele>154.5</ele>
        <time>2025-10-28T08:01:03.000Z</time>
      </trkpt>
      <trkpt lat="43.52005" lon="6.62221">
        <ele>154.7</ele>
        <time>2025-10-28T08:01:04.000Z</time>
      </trkpt>
      <trkpt lat="43.52008" lon="6.62217">
        <ele>154.9</ele>
        <time>2025-10-28T08:01:05.000Z</time>
      </trkpt>
      <trkpt lat="43.52011" lon="6.62213">
        <ele>155.1</ele>
        <time>2025-10-28T08:01:06.000Z</time>
      </trkpt>
      <trkpt lat="43.52014" lon="6.62209">
        <ele>155.3</ele>
        <time>2025-10-28T08:01:07.000Z</time>
      </trkpt>
      <trkpt lat="43.52017" lon="6.62205">
        <ele>155.5</ele>
        <time>2025-10-28T08:01:08.000Z</time>
      </trkpt>
      <trkpt lat="43.5202" lon="6.622">
        <ele>155.6</ele>
        <time>2025-10-28T08:01:09.000Z</time>
      </trkpt>
      <trkpt lat="43.52022" lon="6.62196">
        <ele>155.8</ele>
        <time>2025-10-28T08:01:10.000Z</time>
      </trkpt>
      <trkpt lat="43.52024" lon="6.62192">
        <ele>156</ele>
        <time>2025-10-28T08:01:11.000Z</time>
      </trkpt>
      <trkpt lat="43.52027" lon="6.62189">
        <ele>156.2</ele>
        <time>2025-10-28T08:01:12.000Z</time>
      </trkpt>
      <trkpt lat="43.52029" lon="6.62186">
        <ele>156.4</ele>
        <time>2025-10-28T08:01:13.000Z</time>
      </trkpt>
      <trkpt lat="43.52031" lon="6.62184">
        <ele>156.6</ele>
        <time>2025-10-28T08:01:14.000Z</time>
      </trkpt>
      <trkpt lat="43.52034" lon="6.62182">
        <ele>156.9</ele>
        <time>2025-10-28T08:01:15.000Z</time>
      </trkpt>
      <trkpt lat="43.52037" lon="6.6218">
        <ele>157.1</ele>
        <time>2025-10-28T08:01:16.000Z</time>
      </trkpt>
      <trkpt lat="43.52039" lon="6.62179">
        <ele>157.4</ele>
        <time>2025-10-28T08:01:17.000Z</time>
      </trkpt>
      <trkpt lat="43.52042" lon="6.62178">
        <ele>157.6</ele>
        <time>2025-10-28T08:01:18.000Z</time>
      </trkpt>
      <trkpt lat="43.52045" lon="6.62177">
        <ele>157.9</ele>
        <time>2025-10-28T08:01:19.000Z</time>
      </trkpt>
      <trkpt lat="43.52048" lon="6.62177">
        <ele>158.1</ele>
        <time>2025-10-28T08:01:20.000Z</time>
      </trkpt>
      <trkpt lat="43.52051" lon="6.62177">
        <ele>158.4</ele>
        <time>2025-10-28T08:01:21.000Z</time>
      </trkpt>
      <trkpt lat="43.52054" lon="6.62177">
        <ele>158.6</ele>
        <time>2025-10-28T08:01:22.000Z</time>
      </trkpt>
      <trkpt lat="43.52057" lon="6.62177">
        <ele>158.8</ele>
        <time>2025-10-28T08:01:23.000Z</time>
      </trkpt>
      <trkpt lat="43.5206" lon="6.62178">
        <ele>159</ele>
        <time>2025-10-28T08:01:24.000Z</time>
      </trkpt>
      <trkpt lat="43.52063" lon="6.62177">
        <ele>159.2</ele>
        <time>2025-10-28T08:01:25.000Z</time>
      </trkpt>
      <trkpt lat="43.52067" lon="6.62177">
        <ele>159.3</ele>
        <time>2025-10-28T08:01:26.000Z</time>
      </trkpt>
      <trkpt lat="43.5207" lon="6.62176">
        <ele>159.3</ele>
        <time>2025-10-28T08:01:27.000Z</time>
      </trkpt>
      <trkpt lat="43.52073" lon="6.62174">
        <ele>159.3</ele>
        <time>2025-10-28T08:01:28.000Z</time>
      </trkpt>
      <trkpt lat="43.52076" lon="6.62172">
        <ele>159.3</ele>
        <time>2025-10-28T08:01:29.000Z</time>
      </trkpt>
      <trkpt lat="43.52079" lon="6.62169">
        <ele>159.3</ele>
        <time>2025-10-28T08:01:30.000Z</time>
      </trkpt>
      <trkpt lat="43.52083" lon="6.62166">
        <ele>159.2</ele>
        <time>2025-10-28T08:01:31.000Z</time>
      </trkpt>
      <trkpt lat="43.52086" lon="6.62163">
        <ele>159.2</ele>
        <time>2025-10-28T08:01:32.000Z</time>
      </trkpt>
      <trkpt lat="43.52088" lon="6.6216">
        <ele>159.2</ele>
        <time>2025-10-28T08:01:33.000Z</time>
      </trkpt>
      <trkpt lat="43.52091" lon="6.62156">
        <ele>159.1</ele>
        <time>2025-10-28T08:01:34.000Z</time>
      </trkpt>
      <trkpt lat="43.52094" lon="6.62153">
        <ele>159.1</ele>
        <time>2025-10-28T08:01:35.000Z</time>
      </trkpt>
      <trkpt lat="43.52096" lon="6.62149">
        <ele>159</ele>
        <time>2025-10-28T08:01:36.000Z</time>
      </trkpt>
      <trkpt lat="43.52098" lon="6.62145">
        <ele>158.9</ele>
        <time>2025-10-28T08:01:37.000Z</time>
      </trkpt>
      <trkpt lat="43.521" lon="6.62141">
        <ele>158.8</ele>
        <time>2025-10-28T08:01:38.000Z</time>
      </trkpt>
      <trkpt lat="43.52102" lon="6.62137">
        <ele>158.6</ele>
        <time>2025-10-28T08:01:39.000Z</time>
      </trkpt>
      <trkpt lat="43.52104" lon="6.62132">
        <ele>158.4</ele>
        <time>2025-10-28T08:01:40.000Z</time>
      </trkpt>
      <trkpt lat="43.52105" lon="6.62127">
        <ele>158.3</ele>
        <time>2025-10-28T08:01:41.000Z</time>
      </trkpt>
      <trkpt lat="43.52107" lon="6.62122">
        <ele>158.1</ele>
        <time>2025-10-28T08:01:42.000Z</time>
      </trkpt>
      <trkpt lat="43.52108" lon="6.62117">
        <ele>158</ele>
        <time>2025-10-28T08:01:43.000Z</time>
      </trkpt>
      <trkpt lat="43.52109" lon="6.62112">
        <ele>157.8</ele>
        <time>2025-10-28T08:01:44.000Z</time>
      </trkpt>
      <trkpt lat="43.52109" lon="6.62106">
        <ele>157.6</ele>
        <time>2025-10-28T08:01:45.000Z</time>
      </trkpt>
      <trkpt lat="43.52109" lon="6.62101">
        <ele>157.4</ele>
        <time>2025-10-28T08:01:46.000Z</time>
      </trkpt>
      <trkpt lat="43.5211" lon="6.62095">
        <ele>157.2</ele>
        <time>2025-10-28T08:01:47.000Z</time>
      </trkpt>
      <trkpt lat="43.5211" lon="6.62089">
        <ele>157</ele>
        <time>2025-10-28T08:01:48.000Z</time>
      </trkpt>
      <trkpt lat="43.52111" lon="6.62083">
        <ele>156.8</ele>
        <time>2025-10-28T08:01:49.000Z</time>
      </trkpt>
      <trkpt lat="43.52112" lon="6.62076">
        <ele>156.6</ele>
        <time>2025-10-28T08:01:50.000Z</time>
      </trkpt>
      <trkpt lat="43.52113" lon="6.62069">
        <ele>156.5</ele>
        <time>2025-10-28T08:01:51.000Z</time>
      </trkpt>
      <trkpt lat="43.52114" lon="6.62063">
        <ele>156.5</ele>
        <time>2025-10-28T08:01:52.000Z</time>
      </trkpt>
      <trkpt lat="43.52116" lon="6.62056">
        <ele>156.4</ele>
        <time>2025-10-28T08:01:53.000Z</time>
      </trkpt>
      <trkpt lat="43.52118" lon="6.6205">
        <ele>156.4</ele>
        <time>2025-10-28T08:01:54.000Z</time>
      </trkpt>
      <trkpt lat="43.5212" lon="6.62045">
        <ele>156.4</ele>
        <time>2025-10-28T08:01:55.000Z</time>
      </trkpt>
      <trkpt lat="43.52121" lon="6.62039">
        <ele>156.4</ele>
        <time>2025-10-28T08:01:56.000Z</time>
      </trkpt>
      <trkpt lat="43.52123" lon="6.62035">
        <ele>156.4</ele>
        <time>2025-10-28T08:01:57.000Z</time>
      </trkpt>
      <trkpt lat="43.52125" lon="6.62031">
        <ele>156.4</ele>
        <time>2025-10-28T08:01:58.000Z</time>
      </trkpt>
      <trkpt lat="43.52127" lon="6.62028">
        <ele>156.4</ele>
        <time>2025-10-28T08:01:59.000Z</time>
      </trkpt>
      <trkpt lat="43.52129" lon="6.62024">
        <ele>156.4</ele>
        <time>2025-10-28T08:02:00.000Z</time>
      </trkpt>
      <trkpt lat="43.52131" lon="6.6202">
        <ele>156.4</ele>
        <time>2025-10-28T08:02:01.000Z</time>
      </trkpt>
      <trkpt lat="43.52134" lon="6.62017">
        <ele>156.4</ele>
        <time>2025-10-28T08:02:02.000Z</time>
      </trkpt>
      <trkpt lat="43.52136" lon="6.62014">
        <ele>156.4</ele>
        <time>2025-10-28T08:02:03.000Z</time>
      </trkpt>
      <trkpt lat="43.52139" lon="6.62011">
        <ele>156.4</ele>
        <time>2025-10-28T08:02:04.000Z</time>
      </trkpt>
      <trkpt lat="43.52141" lon="6.62007">
        <ele>156.3</ele>
        <time>2025-10-28T08:02:05.000Z</time>
      </trkpt>
      <trkpt lat="43.52144" lon="6.62004">
        <ele>156.3</ele>
        <time>2025-10-28T08:02:06.000Z</time>
      </trkpt>
      <trkpt lat="43.52147" lon="6.62001">
        <ele>156.3</ele>
        <time>2025-10-28T08:02:07.000Z</time>
      </trkpt>
      <trkpt lat="43.5215" lon="6.61997">
        <ele>156.2</ele>
        <time>2025-10-28T08:02:08.000Z</time>
      </trkpt>
      <trkpt lat="43.52153" lon="6.61994">
        <ele>156.2</ele>
        <time>2025-10-28T08:02:09.000Z</time>
      </trkpt>
      <trkpt lat="43.52155" lon="6.61989">
        <ele>156.1</ele>
        <time>2025-10-28T08:02:10.000Z</time>
      </trkpt>
      <trkpt lat="43.52157" lon="6.61986">
        <ele>156.1</ele>
        <time>2025-10-28T08:02:11.000Z</time>
      </trkpt>
      <trkpt lat="43.52159" lon="6.6198">
        <ele>156</ele>
        <time>2025-10-28T08:02:12.000Z</time>
      </trkpt>
      <trkpt lat="43.52161" lon="6.61975">
        <ele>156</ele>
        <time>2025-10-28T08:02:13.000Z</time>
      </trkpt>
      <trkpt lat="43.52162" lon="6.61969">
        <ele>155.9</ele>
        <time>2025-10-28T08:02:14.000Z</time>
      </trkpt>
      <trkpt lat="43.52163" lon="6.61964">
        <ele>155.9</ele>
        <time>2025-10-28T08:02:15.000Z</time>
      </trkpt>
      <trkpt lat="43.52164" lon="6.6196">
        <ele>155.9</ele>
        <time>2025-10-28T08:02:16.000Z</time>
      </trkpt>
      <trkpt lat="43.52165" lon="6.61957">
        <ele>156</ele>
        <time>2025-10-28T08:02:17.000Z</time>
      </trkpt>
      <trkpt lat="43.52165" lon="6.61954">
        <ele>156</ele>
        <time>2025-10-28T08:02:18.000Z</time>
      </trkpt>
      <trkpt lat="43.52165" lon="6.61951">
        <ele>156</ele>
        <time>2025-10-28T08:02:19.000Z</time>
      </trkpt>
      <trkpt lat="43.52166" lon="6.61949">
        <ele>156.1</ele>
        <time>2025-10-28T08:02:20.000Z</time>
      </trkpt>
      <trkpt lat="43.52166" lon="6.61949">
        <ele>156.1</ele>
        <time>2025-10-28T08:02:21.000Z</time>
      </trkpt>
      <trkpt lat="43.52166" lon="6.61948">
        <ele>156.1</ele>
        <time>2025-10-28T08:02:22.000Z</time>
      </trkpt>
      <trkpt lat="43.52166" lon="6.61948">
        <ele>156.1</ele>
        <time>2025-10-28T08:02:23.000Z</time>
      </trkpt>
      <trkpt lat="43.52166" lon="6.61948">
        <ele>156.1</ele>
        <time>2025-10-28T08:02:24.000Z</time>
      </trkpt>
      <trkpt lat="43.52166" lon="6.61948">
        <ele>156</ele>
        <time>2025-10-28T08:02:25.000Z</time>
      </trkpt>
      <trkpt lat="43.52166" lon="6.61949">
        <ele>155.9</ele>
        <time>2025-10-28T08:02:26.000Z</time>
      </trkpt>
      <trkpt lat="43.52166" lon="6.61949">
        <ele>155.8</ele>
        <time>2025-10-28T08:02:27.000Z</time>
      </trkpt>
      <trkpt lat="43.52166" lon="6.61949">
        <ele>155.7</ele>
        <time>2025-10-28T08:02:28.000Z</time>
      </trkpt>
      <trkpt lat="43.52166" lon="6.61949">
        <ele>155.6</ele>
        <time>2025-10-28T08:02:29.000Z</time>
      </trkpt>
      <trkpt lat="43.52165" lon="6.61949">
        <ele>155.5</ele>
        <time>2025-10-28T08:02:30.000Z</time>
      </trkpt>
      <trkpt lat="43.52165" lon="6.61949">
        <ele>155.4</ele>
        <time>2025-10-28T08:02:31.000Z</time>
      </trkpt>
      <trkpt lat="43.52165" lon="6.61949">
        <ele>155.2</ele>
        <time>2025-10-28T08:02:32.000Z</time>
      </trkpt>
      <trkpt lat="43.52165" lon="6.61949">
        <ele>155.1</ele>
        <time>2025-10-28T08:02:33.000Z</time>
      </trkpt>
      <trkpt lat="43.52165" lon="6.61949">
        <ele>155</ele>
        <time>2025-10-28T08:02:34.000Z</time>
      </trkpt>
      <trkpt lat="43.52165" lon="6.61949">
        <ele>154.9</ele>
        <time>2025-10-28T08:02:35.000Z</time>
      </trkpt>
      <trkpt lat="43.52165" lon="6.61949">
        <ele>154.8</ele>
        <time>2025-10-28T08:02:36.000Z</time>
      </trkpt>
      <trkpt lat="43.52165" lon="6.61949">
        <ele>154.7</ele>
        <time>2025-10-28T08:02:37.000Z</time>
      </trkpt>
      <trkpt lat="43.52165" lon="6.61949">
        <ele>154.6</ele>
        <time>2025-10-28T08:02:38.000Z</time>
      </trkpt>
      <trkpt lat="43.52165" lon="6.61949">
        <ele>154.5</ele>
        <time>2025-10-28T08:02:39.000Z</time>
      </trkpt>
      <trkpt lat="43.52165" lon="6.61949">
        <ele>154.4</ele>
        <time>2025-10-28T08:02:40.000Z</time>
      </trkpt>
      <trkpt lat="43.52165" lon="6.61949">
        <ele>154.3</ele>
        <time>2025-10-28T08:02:41.000Z</time>
      </trkpt>
      <trkpt lat="43.52165" lon="6.61949">
        <ele>154.2</ele>
        <time>2025-10-28T08:02:42.000Z</time>
      </trkpt>
      <trkpt lat="43.52165" lon="6.61949">
        <ele>154.1</ele>
        <time>2025-10-28T08:02:43.000Z</time>
      </trkpt>
      <trkpt lat="43.52165" lon="6.61949">
        <ele>153.9</ele>
        <time>2025-10-28T08:02:44.000Z</time>
      </trkpt>
      <trkpt lat="43.52165" lon="6.61949">
        <ele>153.8</ele>
        <time>2025-10-28T08:02:45.000Z</time>
      </trkpt>
      <trkpt lat="43.52165" lon="6.61949">
        <ele>153.7</ele>
        <time>2025-10-28T08:02:46.000Z</time>
      </trkpt>
      <trkpt lat="43.52165" lon="6.61949">
        <ele>153.6</ele>
        <time>2025-10-28T08:02:47.000Z</time>
      </trkpt>
      <trkpt lat="43.52165" lon="6.61949">
        <ele>153.5</ele>
        <time>2025-10-28T08:02:48.000Z</time>
      </trkpt>
      <trkpt lat="43.52165" lon="6.61949">
        <ele>153.4</ele>
        <time>2025-10-28T08:02:49.000Z</time>
      </trkpt>
      <trkpt lat="43.52165" lon="6.61949">
        <ele>153.3</ele>
        <time>2025-10-28T08:02:50.000Z</time>
      </trkpt>
      <trkpt lat="43.52165" lon="6.61949">
        <ele>153.2</ele>
        <time>2025-10-28T08:02:51.000Z</time>
      </trkpt>
      <trkpt lat="43.52165" lon="6.61949">
        <ele>153.1</ele>
        <time>2025-10-28T08:02:52.000Z</time>
      </trkpt>
      <trkpt lat="43.52165" lon="6.6195">
        <ele>153</ele>
        <time>2025-10-28T08:02:53.000Z</time>
      </trkpt>
      <trkpt lat="43.52165" lon="6.6195">
        <ele>152.9</ele>
        <time>2025-10-28T08:02:54.000Z</time>
      </trkpt>
      <trkpt lat="43.52165" lon="6.6195">
        <ele>152.8</ele>
        <time>2025-10-28T08:02:55.000Z</time>
      </trkpt>
      <trkpt lat="43.52165" lon="6.6195">
        <ele>152.6</ele>
        <time>2025-10-28T08:02:56.000Z</time>
      </trkpt>
      <trkpt lat="43.52165" lon="6.6195">
        <ele>152.5</ele>
        <time>2025-10-28T08:02:57.000Z</time>
      </trkpt>
      <trkpt lat="43.52165" lon="6.6195">
        <ele>152.4</ele>
        <time>2025-10-28T08:02:58.000Z</time>
      </trkpt>
      <trkpt lat="43.52165" lon="6.6195">
        <ele>152.3</ele>
        <time>2025-10-28T08:02:59.000Z</time>
      </trkpt>
      <trkpt lat="43.52165" lon="6.6195">
        <ele>152.2</ele>
        <time>2025-10-28T08:03:00.000Z</time>
      </trkpt>
      <trkpt lat="43.52165" lon="6.6195">
        <ele>152.1</ele>
        <time>2025-10-28T08:03:01.000Z</time>
      </trkpt>
      <trkpt lat="43.52165" lon="6.6195">
        <ele>152</ele>
        <time>2025-10-28T08:03:02.000Z</time>
      </trkpt>
      <trkpt lat="43.52165" lon="6.6195">
        <ele>151.9</ele>
        <time>2025-10-28T08:03:03.000Z</time>
      </trkpt>
      <trkpt lat="43.52165" lon="6.6195">
        <ele>151.8</ele>
        <time>2025-10-28T08:03:04.000Z</time>
      </trkpt>
      <trkpt lat="43.52165" lon="6.6195">
        <ele>151.7</ele>
        <time>2025-10-28T08:03:05.000Z</time>
      </trkpt>
      <trkpt lat="43.52165" lon="6.6195">
        <ele>151.6</ele>
        <time>2025-10-28T08:03:06.000Z</time>
      </trkpt>
      <trkpt lat="43.52165" lon="6.6195">
        <ele>151.5</ele>
        <time>2025-10-28T08:03:07.000Z</time>
      </trkpt>
      <trkpt lat="43.52164" lon="6.61949">
        <ele>151.3</ele>
        <time>2025-10-28T08:03:08.000Z</time>
      </trkpt>
      <trkpt lat="43.52163" lon="6.61949">
        <ele>150.7</ele>
        <time>2025-10-28T08:03:09.000Z</time>
      </trkpt>
      <trkpt lat="43.52163" lon="6.61948">
        <ele>150.6</ele>
        <time>2025-10-28T08:03:10.000Z</time>
      </trkpt>
      <trkpt lat="43.52163" lon="6.61948">
        <ele>150.5</ele>
        <time>2025-10-28T08:03:11.000Z</time>
      </trkpt>
      <trkpt lat="43.52163" lon="6.61948">
        <ele>150.4</ele>
        <time>2025-10-28T08:03:12.000Z</time>
      </trkpt>
      <trkpt lat="43.52163" lon="6.61948">
        <ele>150.3</ele>
        <time>2025-10-28T08:03:13.000Z</time>
      </trkpt>
      <trkpt lat="43.52163" lon="6.61948">
        <ele>150.2</ele>
        <time>2025-10-28T08:03:14.000Z</time>
      </trkpt>
      <trkpt lat="43.52163" lon="6.61948">
        <ele>150.1</ele>
        <time>2025-10-28T08:03:15.000Z</time>
      </trkpt>
      <trkpt lat="43.52163" lon="6.61948">
        <ele>150</ele>
        <time>2025-10-28T08:03:16.000Z</time>
      </trkpt>
      <trkpt lat="43.52163" lon="6.61948">
        <ele>149.9</ele>
        <time>2025-10-28T08:03:17.000Z</time>
      </trkpt>
      <trkpt lat="43.52163" lon="6.61948">
        <ele>149.8</ele>
        <time>2025-10-28T08:03:18.000Z</time>
      </trkpt>
      <trkpt lat="43.52163" lon="6.61948">
        <ele>149.6</ele>
        <time>2025-10-28T08:03:19.000Z</time>
      </trkpt>
      <trkpt lat="43.52163" lon="6.61948">
        <ele>149.5</ele>
        <time>2025-10-28T08:03:20.000Z</time>
      </trkpt>
      <trkpt lat="43.52163" lon="6.61947">
        <ele>149</ele>
        <time>2025-10-28T08:03:21.000Z</time>
      </trkpt>
      <trkpt lat="43.52163" lon="6.61947">
        <ele>148.9</ele>
        <time>2025-10-28T08:03:22.000Z</time>
      </trkpt>
      <trkpt lat="43.52162" lon="6.61947">
        <ele>148.8</ele>
        <time>2025-10-28T08:03:23.000Z</time>
      </trkpt>
      <trkpt lat="43.52162" lon="6.61947">
        <ele>148.7</ele>
        <time>2025-10-28T08:03:24.000Z</time>
      </trkpt>
      <trkpt lat="43.52159" lon="6.61946">
        <ele>148.1</ele>
        <time>2025-10-28T08:03:25.000Z</time>
      </trkpt>
      <trkpt lat="43.52156" lon="6.61946">
        <ele>147.6</ele>
        <time>2025-10-28T08:03:26.000Z</time>
      </trkpt>
      <trkpt lat="43.52152" lon="6.61946">
        <ele>147.1</ele>
        <time>2025-10-28T08:03:27.000Z</time>
      </trkpt>
      <trkpt lat="43.52147" lon="6.61947">
        <ele>146.2</ele>
        <time>2025-10-28T08:03:28.000Z</time>
      </trkpt>
      <trkpt lat="43.52142" lon="6.61948">
        <ele>145.2</ele>
        <time>2025-10-28T08:03:29.000Z</time>
      </trkpt>
      <trkpt lat="43.52137" lon="6.61949">
        <ele>145</ele>
        <time>2025-10-28T08:03:30.000Z</time>
      </trkpt>
      <trkpt lat="43.52131" lon="6.6195">
        <ele>144.2</ele>
        <time>2025-10-28T08:03:31.000Z</time>
      </trkpt>
      <trkpt lat="43.52126" lon="6.61951">
        <ele>143.4</ele>
        <time>2025-10-28T08:03:32.000Z</time>
      </trkpt>
      <trkpt lat="43.52119" lon="6.61952">
        <ele>142.5</ele>
        <time>2025-10-28T08:03:33.000Z</time>
      </trkpt>
      <trkpt lat="43.52116" lon="6.61951">
        <ele>142.1</ele>
        <time>2025-10-28T08:03:34.000Z</time>
      </trkpt>
      <trkpt lat="43.5211" lon="6.6195">
        <ele>141.2</ele>
        <time>2025-10-28T08:03:35.000Z</time>
      </trkpt>
      <trkpt lat="43.52105" lon="6.6195">
        <ele>140.8</ele>
        <time>2025-10-28T08:03:36.000Z</time>
      </trkpt>
      <trkpt lat="43.52098" lon="6.61949">
        <ele>139.6</ele>
        <time>2025-10-28T08:03:37.000Z</time>
      </trkpt>
      <trkpt lat="43.52092" lon="6.61948">
        <ele>138.8</ele>
        <time>2025-10-28T08:03:38.000Z</time>
      </trkpt>
      <trkpt lat="43.52086" lon="6.61947">
        <ele>137.5</ele>
        <time>2025-10-28T08:03:39.000Z</time>
      </trkpt>
      <trkpt lat="43.5208" lon="6.61946">
        <ele>137</ele>
        <time>2025-10-28T08:03:40.000Z</time>
      </trkpt>
      <trkpt lat="43.52073" lon="6.61944">
        <ele>135.7</ele>
        <time>2025-10-28T08:03:41.000Z</time>
      </trkpt>
      <trkpt lat="43.52067" lon="6.61943">
        <ele>134.8</ele>
        <time>2025-10-28T08:03:42.000Z</time>
      </trkpt>
      <trkpt lat="43.52063" lon="6.6194">
        <ele>134.1</ele>
        <time>2025-10-28T08:03:43.000Z</time>
      </trkpt>
      <trkpt lat="43.52058" lon="6.61935">
        <ele>133.3</ele>
        <time>2025-10-28T08:03:44.000Z</time>
      </trkpt>
      <trkpt lat="43.52055" lon="6.61931">
        <ele>132.4</ele>
        <time>2025-10-28T08:03:45.000Z</time>
      </trkpt>
      <trkpt lat="43.5205" lon="6.61926">
        <ele>130.8</ele>
        <time>2025-10-28T08:03:46.000Z</time>
      </trkpt>
      <trkpt lat="43.52045" lon="6.61921">
        <ele>129.6</ele>
        <time>2025-10-28T08:03:47.000Z</time>
      </trkpt>
      <trkpt lat="43.52041" lon="6.61917">
        <ele>128.8</ele>
        <time>2025-10-28T08:03:48.000Z</time>
      </trkpt>
      <trkpt lat="43.52036" lon="6.61912">
        <ele>127.7</ele>
        <time>2025-10-28T08:03:49.000Z</time>
      </trkpt>
      <trkpt lat="43.52031" lon="6.6191">
        <ele>127.3</ele>
        <time>2025-10-28T08:03:50.000Z</time>
      </trkpt>
      <trkpt lat="43.52025" lon="6.61905">
        <ele>125.7</ele>
        <time>2025-10-28T08:03:51.000Z</time>
      </trkpt>
      <trkpt lat="43.5202" lon="6.61901">
        <ele>124.8</ele>
        <time>2025-10-28T08:03:52.000Z</time>
      </trkpt>
      <trkpt lat="43.52015" lon="6.61897">
        <ele>124.5</ele>
        <time>2025-10-28T08:03:53.000Z</time>
      </trkpt>
      <trkpt lat="43.52011" lon="6.61892">
        <ele>123.5</ele>
        <time>2025-10-28T08:03:54.000Z</time>
      </trkpt>
      <trkpt lat="43.52006" lon="6.61888">
        <ele>122.7</ele>
        <time>2025-10-28T08:03:55.000Z</time>
      </trkpt>
      <trkpt lat="43.52001" lon="6.61885">
        <ele>121.5</ele>
        <time>2025-10-28T08:03:56.000Z</time>
      </trkpt>
      <trkpt lat="43.51996" lon="6.61883">
        <ele>120.7</ele>
        <time>2025-10-28T08:03:57.000Z</time>
      </trkpt>
      <trkpt lat="43.51991" lon="6.61882">
        <ele>119.9</ele>
        <time>2025-10-28T08:03:58.000Z</time>
      </trkpt>
      <trkpt lat="43.51986" lon="6.6188">
        <ele>119.3</ele>
        <time>2025-10-28T08:03:59.000Z</time>
      </trkpt>
      <trkpt lat="43.51982" lon="6.61879">
        <ele>118.5</ele>
        <time>2025-10-28T08:04:00.000Z</time>
      </trkpt>
      <trkpt lat="43.51978" lon="6.61877">
        <ele>118.2</ele>
        <time>2025-10-28T08:04:01.000Z</time>
      </trkpt>
      <trkpt lat="43.51973" lon="6.61876">
        <ele>117.7</ele>
        <time>2025-10-28T08:04:02.000Z</time>
      </trkpt>
      <trkpt lat="43.51969" lon="6.61876">
        <ele>117.4</ele>
        <time>2025-10-28T08:04:03.000Z</time>
      </trkpt>
      <trkpt lat="43.51965" lon="6.61875">
        <ele>117.1</ele>
        <time>2025-10-28T08:04:04.000Z</time>
      </trkpt>
      <trkpt lat="43.51961" lon="6.61874">
        <ele>116.1</ele>
        <time>2025-10-28T08:04:05.000Z</time>
      </trkpt>
      <trkpt lat="43.51958" lon="6.61872">
        <ele>115.8</ele>
        <time>2025-10-28T08:04:06.000Z</time>
      </trkpt>
      <trkpt lat="43.51956" lon="6.61869">
        <ele>115.3</ele>
        <time>2025-10-28T08:04:07.000Z</time>
      </trkpt>
      <trkpt lat="43.51956" lon="6.61865">
        <ele>114.7</ele>
        <time>2025-10-28T08:04:08.000Z</time>
      </trkpt>
      <trkpt lat="43.51956" lon="6.6186">
        <ele>114.1</ele>
        <time>2025-10-28T08:04:09.000Z</time>
      </trkpt>
      <trkpt lat="43.51957" lon="6.61854">
        <ele>114.1</ele>
        <time>2025-10-28T08:04:10.000Z</time>
      </trkpt>
      <trkpt lat="43.51958" lon="6.61847">
        <ele>114</ele>
        <time>2025-10-28T08:04:11.000Z</time>
      </trkpt>
      <trkpt lat="43.51959" lon="6.61839">
        <ele>113.9</ele>
        <time>2025-10-28T08:04:12.000Z</time>
      </trkpt>
      <trkpt lat="43.51961" lon="6.61831">
        <ele>113.9</ele>
        <time>2025-10-28T08:04:13.000Z</time>
      </trkpt>
      <trkpt lat="43.51963" lon="6.61822">
        <ele>113.8</ele>
        <time>2025-10-28T08:04:14.000Z</time>
      </trkpt>
      <trkpt lat="43.51965" lon="6.61813">
        <ele>113.7</ele>
        <time>2025-10-28T08:04:15.000Z</time>
      </trkpt>
      <trkpt lat="43.51967" lon="6.61804">
        <ele>113.7</ele>
        <time>2025-10-28T08:04:16.000Z</time>
      </trkpt>
      <trkpt lat="43.51969" lon="6.61796">
        <ele>113.6</ele>
        <time>2025-10-28T08:04:17.000Z</time>
      </trkpt>
      <trkpt lat="43.51971" lon="6.61788">
        <ele>113.6</ele>
        <time>2025-10-28T08:04:18.000Z</time>
      </trkpt>
      <trkpt lat="43.51973" lon="6.6178">
        <ele>113.5</ele>
        <time>2025-10-28T08:04:19.000Z</time>
      </trkpt>
      <trkpt lat="43.51974" lon="6.61772">
        <ele>113.5</ele>
        <time>2025-10-28T08:04:20.000Z</time>
      </trkpt>
      <trkpt lat="43.51976" lon="6.61764">
        <ele>113.5</ele>
        <time>2025-10-28T08:04:21.000Z</time>
      </trkpt>
      <trkpt lat="43.51977" lon="6.61757">
        <ele>113.4</ele>
        <time>2025-10-28T08:04:22.000Z</time>
      </trkpt>
      <trkpt lat="43.51979" lon="6.61749">
        <ele>113.2</ele>
        <time>2025-10-28T08:04:23.000Z</time>
      </trkpt>
      <trkpt lat="43.5198" lon="6.61742">
        <ele>113</ele>
        <time>2025-10-28T08:04:24.000Z</time>
      </trkpt>
      <trkpt lat="43.51982" lon="6.61735">
        <ele>112.8</ele>
        <time>2025-10-28T08:04:25.000Z</time>
      </trkpt>
      <trkpt lat="43.51983" lon="6.61727">
        <ele>112.5</ele>
        <time>2025-10-28T08:04:26.000Z</time>
      </trkpt>
      <trkpt lat="43.51984" lon="6.6172">
        <ele>112.3</ele>
        <time>2025-10-28T08:04:27.000Z</time>
      </trkpt>
      <trkpt lat="43.51986" lon="6.61712">
        <ele>112.1</ele>
        <time>2025-10-28T08:04:28.000Z</time>
      </trkpt>
      <trkpt lat="43.51987" lon="6.61705">
        <ele>111.9</ele>
        <time>2025-10-28T08:04:29.000Z</time>
      </trkpt>
      <trkpt lat="43.51989" lon="6.61697">
        <ele>111.7</ele>
        <time>2025-10-28T08:04:30.000Z</time>
      </trkpt>
      <trkpt lat="43.51991" lon="6.61689">
        <ele>111.5</ele>
        <time>2025-10-28T08:04:31.000Z</time>
      </trkpt>
      <trkpt lat="43.51992" lon="6.61682">
        <ele>111.4</ele>
        <time>2025-10-28T08:04:32.000Z</time>
      </trkpt>
      <trkpt lat="43.51993" lon="6.61674">
        <ele>111.3</ele>
        <time>2025-10-28T08:04:33.000Z</time>
      </trkpt>
      <trkpt lat="43.51994" lon="6.61666">
        <ele>111.1</ele>
        <time>2025-10-28T08:04:34.000Z</time>
      </trkpt>
      <trkpt lat="43.51994" lon="6.61658">
        <ele>111</ele>
        <time>2025-10-28T08:04:35.000Z</time>
      </trkpt>
      <trkpt lat="43.51994" lon="6.61651">
        <ele>110.9</ele>
        <time>2025-10-28T08:04:36.000Z</time>
      </trkpt>
      <trkpt lat="43.51993" lon="6.61643">
        <ele>110.9</ele>
        <time>2025-10-28T08:04:37.000Z</time>
      </trkpt>
      <trkpt lat="43.51992" lon="6.61636">
        <ele>110.8</ele>
        <time>2025-10-28T08:04:38.000Z</time>
      </trkpt>
      <trkpt lat="43.51992" lon="6.61629">
        <ele>110.7</ele>
        <time>2025-10-28T08:04:39.000Z</time>
      </trkpt>
      <trkpt lat="43.51991" lon="6.61622">
        <ele>110.7</ele>
        <time>2025-10-28T08:04:40.000Z</time>
      </trkpt>
      <trkpt lat="43.51991" lon="6.61615">
        <ele>110.6</ele>
        <time>2025-10-28T08:04:41.000Z</time>
      </trkpt>
      <trkpt lat="43.51991" lon="6.61609">
        <ele>110.5</ele>
        <time>2025-10-28T08:04:42.000Z</time>
      </trkpt>
      <trkpt lat="43.5199" lon="6.61602">
        <ele>110.4</ele>
        <time>2025-10-28T08:04:43.000Z</time>
      </trkpt>
      <trkpt lat="43.5199" lon="6.61597">
        <ele>110.3</ele>
        <time>2025-10-28T08:04:44.000Z</time>
      </trkpt>
      <trkpt lat="43.51989" lon="6.6159">
        <ele>110.2</ele>
        <time>2025-10-28T08:04:45.000Z</time>
      </trkpt>
      <trkpt lat="43.51987" lon="6.61584">
        <ele>110.1</ele>
        <time>2025-10-28T08:04:46.000Z</time>
      </trkpt>
      <trkpt lat="43.51985" lon="6.61578">
        <ele>109.9</ele>
        <time>2025-10-28T08:04:47.000Z</time>
      </trkpt>
      <trkpt lat="43.51984" lon="6.61571">
        <ele>109.8</ele>
        <time>2025-10-28T08:04:48.000Z</time>
      </trkpt>
      <trkpt lat="43.51983" lon="6.61565">
        <ele>109.5</ele>
        <time>2025-10-28T08:04:49.000Z</time>
      </trkpt>
      <trkpt lat="43.51984" lon="6.61561">
        <ele>109.4</ele>
        <time>2025-10-28T08:04:50.000Z</time>
      </trkpt>
      <trkpt lat="43.51985" lon="6.61554">
        <ele>109</ele>
        <time>2025-10-28T08:04:51.000Z</time>
      </trkpt>
      <trkpt lat="43.51987" lon="6.61549">
        <ele>108.8</ele>
        <time>2025-10-28T08:04:52.000Z</time>
      </trkpt>
      <trkpt lat="43.51989" lon="6.61545">
        <ele>108.5</ele>
        <time>2025-10-28T08:04:53.000Z</time>
      </trkpt>
      <trkpt lat="43.51991" lon="6.61541">
        <ele>108.3</ele>
        <time>2025-10-28T08:04:54.000Z</time>
      </trkpt>
      <trkpt lat="43.51994" lon="6.61536">
        <ele>108.1</ele>
        <time>2025-10-28T08:04:55.000Z</time>
      </trkpt>
      <trkpt lat="43.51997" lon="6.61531">
        <ele>107.9</ele>
        <time>2025-10-28T08:04:56.000Z</time>
      </trkpt>
      <trkpt lat="43.52001" lon="6.61527">
        <ele>107.9</ele>
        <time>2025-10-28T08:04:57.000Z</time>
      </trkpt>
      <trkpt lat="43.52004" lon="6.61522">
        <ele>107.9</ele>
        <time>2025-10-28T08:04:58.000Z</time>
      </trkpt>
      <trkpt lat="43.52008" lon="6.61517">
        <ele>108</ele>
        <time>2025-10-28T08:04:59.000Z</time>
      </trkpt>
      <trkpt lat="43.5201" lon="6.61512">
        <ele>108.2</ele>
        <time>2025-10-28T08:05:00.000Z</time>
      </trkpt>
      <trkpt lat="43.52014" lon="6.61505">
        <ele>108.6</ele>
        <time>2025-10-28T08:05:01.000Z</time>
      </trkpt>
      <trkpt lat="43.52018" lon="6.615">
        <ele>108.9</ele>
        <time>2025-10-28T08:05:02.000Z</time>
      </trkpt>
      <trkpt lat="43.52021" lon="6.61494">
        <ele>109.3</ele>
        <time>2025-10-28T08:05:03.000Z</time>
      </trkpt>
      <trkpt lat="43.52024" lon="6.61489">
        <ele>109.7</ele>
        <time>2025-10-28T08:05:04.000Z</time>
      </trkpt>
      <trkpt lat="43.52026" lon="6.61484">
        <ele>110</ele>
        <time>2025-10-28T08:05:05.000Z</time>
      </trkpt>
      <trkpt lat="43.52029" lon="6.61479">
        <ele>110.4</ele>
        <time>2025-10-28T08:05:06.000Z</time>
      </trkpt>
      <trkpt lat="43.52031" lon="6.61475">
        <ele>110.7</ele>
        <time>2025-10-28T08:05:07.000Z</time>
      </trkpt>
      <trkpt lat="43.52033" lon="6.61471">
        <ele>111.1</ele>
        <time>2025-10-28T08:05:08.000Z</time>
      </trkpt>
      <trkpt lat="43.52035" lon="6.61467">
        <ele>111.3</ele>
        <time>2025-10-28T08:05:09.000Z</time>
      </trkpt>
      <trkpt lat="43.52037" lon="6.61463">
        <ele>111.6</ele>
        <time>2025-10-28T08:05:10.000Z</time>
      </trkpt>
      <trkpt lat="43.52039" lon="6.61459">
        <ele>111.9</ele>
        <time>2025-10-28T08:05:11.000Z</time>
      </trkpt>
      <trkpt lat="43.5204" lon="6.61455">
        <ele>112.1</ele>
        <time>2025-10-28T08:05:12.000Z</time>
      </trkpt>
      <trkpt lat="43.52042" lon="6.61451">
        <ele>112.4</ele>
        <time>2025-10-28T08:05:13.000Z</time>
      </trkpt>
      <trkpt lat="43.52044" lon="6.61447">
        <ele>112.6</ele>
        <time>2025-10-28T08:05:14.000Z</time>
      </trkpt>
      <trkpt lat="43.52046" lon="6.61444">
        <ele>112.8</ele>
        <time>2025-10-28T08:05:15.000Z</time>
      </trkpt>
      <trkpt lat="43.52049" lon="6.61438">
        <ele>113.1</ele>
        <time>2025-10-28T08:05:16.000Z</time>
      </trkpt>
      <trkpt lat="43.52051" lon="6.61434">
        <ele>113.3</ele>
        <time>2025-10-28T08:05:17.000Z</time>
      </trkpt>
      <trkpt lat="43.52053" lon="6.61429">
        <ele>113.5</ele>
        <time>2025-10-28T08:05:18.000Z</time>
      </trkpt>
      <trkpt lat="43.52055" lon="6.61426">
        <ele>113.6</ele>
        <time>2025-10-28T08:05:19.000Z</time>
      </trkpt>
      <trkpt lat="43.52057" lon="6.6142">
        <ele>113.7</ele>
        <time>2025-10-28T08:05:20.000Z</time>
      </trkpt>
      <trkpt lat="43.5206" lon="6.61415">
        <ele>113.8</ele>
        <time>2025-10-28T08:05:21.000Z</time>
      </trkpt>
      <trkpt lat="43.52062" lon="6.6141">
        <ele>113.8</ele>
        <time>2025-10-28T08:05:22.000Z</time>
      </trkpt>
      <trkpt lat="43.52064" lon="6.61405">
        <ele>113.9</ele>
        <time>2025-10-28T08:05:23.000Z</time>
      </trkpt>
      <trkpt lat="43.52066" lon="6.614">
        <ele>114</ele>
        <time>2025-10-28T08:05:24.000Z</time>
      </trkpt>
      <trkpt lat="43.52068" lon="6.61395">
        <ele>114.1</ele>
        <time>2025-10-28T08:05:25.000Z</time>
      </trkpt>
      <trkpt lat="43.5207" lon="6.6139">
        <ele>114.1</ele>
        <time>2025-10-28T08:05:26.000Z</time>
      </trkpt>
      <trkpt lat="43.52073" lon="6.61385">
        <ele>114.2</ele>
        <time>2025-10-28T08:05:27.000Z</time>
      </trkpt>
      <trkpt lat="43.52075" lon="6.6138">
        <ele>114.2</ele>
        <time>2025-10-28T08:05:28.000Z</time>
      </trkpt>
      <trkpt lat="43.52077" lon="6.61374">
        <ele>114.3</ele>
        <time>2025-10-28T08:05:29.000Z</time>
      </trkpt>
      <trkpt lat="43.52079" lon="6.61369">
        <ele>114.3</ele>
        <time>2025-10-28T08:05:30.000Z</time>
      </trkpt>
      <trkpt lat="43.52081" lon="6.61363">
        <ele>114.4</ele>
        <time>2025-10-28T08:05:31.000Z</time>
      </trkpt>
      <trkpt lat="43.52083" lon="6.61358">
        <ele>114.4</ele>
        <time>2025-10-28T08:05:32.000Z</time>
      </trkpt>
      <trkpt lat="43.52085" lon="6.61352">
        <ele>114.5</ele>
        <time>2025-10-28T08:05:33.000Z</time>
      </trkpt>
      <trkpt lat="43.52087" lon="6.61346">
        <ele>114.6</ele>
        <time>2025-10-28T08:05:34.000Z</time>
      </trkpt>
      <trkpt lat="43.52088" lon="6.61341">
        <ele>114.7</ele>
        <time>2025-10-28T08:05:35.000Z</time>
      </trkpt>
      <trkpt lat="43.5209" lon="6.61336">
        <ele>114.8</ele>
        <time>2025-10-28T08:05:36.000Z</time>
      </trkpt>
      <trkpt lat="43.52091" lon="6.6133">
        <ele>114.9</ele>
        <time>2025-10-28T08:05:37.000Z</time>
      </trkpt>
      <trkpt lat="43.52092" lon="6.61326">
        <ele>115</ele>
        <time>2025-10-28T08:05:38.000Z</time>
      </trkpt>
      <trkpt lat="43.52094" lon="6.61319">
        <ele>115.1</ele>
        <time>2025-10-28T08:05:39.000Z</time>
      </trkpt>
      <trkpt lat="43.52096" lon="6.61314">
        <ele>115.2</ele>
        <time>2025-10-28T08:05:40.000Z</time>
      </trkpt>
      <trkpt lat="43.52097" lon="6.61309">
        <ele>115.3</ele>
        <time>2025-10-28T08:05:41.000Z</time>
      </trkpt>
      <trkpt lat="43.52099" lon="6.61303">
        <ele>115.3</ele>
        <time>2025-10-28T08:05:42.000Z</time>
      </trkpt>
      <trkpt lat="43.521" lon="6.61298">
        <ele>115.4</ele>
        <time>2025-10-28T08:05:43.000Z</time>
      </trkpt>
      <trkpt lat="43.52102" lon="6.61292">
        <ele>115.4</ele>
        <time>2025-10-28T08:05:44.000Z</time>
      </trkpt>
      <trkpt lat="43.52103" lon="6.61287">
        <ele>115.5</ele>
        <time>2025-10-28T08:05:45.000Z</time>
      </trkpt>
      <trkpt lat="43.52105" lon="6.61281">
        <ele>115.6</ele>
        <time>2025-10-28T08:05:46.000Z</time>
      </trkpt>
      <trkpt lat="43.52107" lon="6.61275">
        <ele>115.6</ele>
        <time>2025-10-28T08:05:47.000Z</time>
      </trkpt>
      <trkpt lat="43.52108" lon="6.61271">
        <ele>115.6</ele>
        <time>2025-10-28T08:05:48.000Z</time>
      </trkpt>
      <trkpt lat="43.5211" lon="6.61264">
        <ele>115.7</ele>
        <time>2025-10-28T08:05:49.000Z</time>
      </trkpt>
      <trkpt lat="43.52112" lon="6.61258">
        <ele>115.7</ele>
        <time>2025-10-28T08:05:50.000Z</time>
      </trkpt>
      <trkpt lat="43.52114" lon="6.61252">
        <ele>115.8</ele>
        <time>2025-10-28T08:05:51.000Z</time>
      </trkpt>
      <trkpt lat="43.52116" lon="6.61246">
        <ele>115.8</ele>
        <time>2025-10-28T08:05:52.000Z</time>
      </trkpt>
      <trkpt lat="43.52117" lon="6.6124">
        <ele>115.8</ele>
        <time>2025-10-28T08:05:53.000Z</time>
      </trkpt>
      <trkpt lat="43.52119" lon="6.61234">
        <ele>115.9</ele>
        <time>2025-10-28T08:05:54.000Z</time>
      </trkpt>
      <trkpt lat="43.52121" lon="6.61228">
        <ele>115.9</ele>
        <time>2025-10-28T08:05:55.000Z</time>
      </trkpt>
      <trkpt lat="43.52123" lon="6.61222">
        <ele>116</ele>
        <time>2025-10-28T08:05:56.000Z</time>
      </trkpt>
      <trkpt lat="43.52124" lon="6.61216">
        <ele>116</ele>
        <time>2025-10-28T08:05:57.000Z</time>
      </trkpt>
      <trkpt lat="43.52126" lon="6.6121">
        <ele>116.1</ele>
        <time>2025-10-28T08:05:58.000Z</time>
      </trkpt>
      <trkpt lat="43.52128" lon="6.61204">
        <ele>116.1</ele>
        <time>2025-10-28T08:05:59.000Z</time>
      </trkpt>
      <trkpt lat="43.5213" lon="6.61198">
        <ele>116.2</ele>
        <time>2025-10-28T08:06:00.000Z</time>
      </trkpt>
      <trkpt lat="43.52131" lon="6.61192">
        <ele>116.3</ele>
        <time>2025-10-28T08:06:01.000Z</time>
      </trkpt>
      <trkpt lat="43.52132" lon="6.61187">
        <ele>116.3</ele>
        <time>2025-10-28T08:06:02.000Z</time>
      </trkpt>
      <trkpt lat="43.52133" lon="6.61182">
        <ele>116.4</ele>
        <time>2025-10-28T08:06:03.000Z</time>
      </trkpt>
      <trkpt lat="43.52134" lon="6.61176">
        <ele>116.5</ele>
        <time>2025-10-28T08:06:04.000Z</time>
      </trkpt>
      <trkpt lat="43.52134" lon="6.6117">
        <ele>116.6</ele>
        <time>2025-10-28T08:06:05.000Z</time>
      </trkpt>
      <trkpt lat="43.52132" lon="6.61165">
        <ele>116.7</ele>
        <time>2025-10-28T08:06:06.000Z</time>
      </trkpt>
      <trkpt lat="43.5213" lon="6.61162">
        <ele>116.8</ele>
        <time>2025-10-28T08:06:07.000Z</time>
      </trkpt>
      <trkpt lat="43.52127" lon="6.6116">
        <ele>116.6</ele>
        <time>2025-10-28T08:06:08.000Z</time>
      </trkpt>
      <trkpt lat="43.52123" lon="6.6116">
        <ele>116.4</ele>
        <time>2025-10-28T08:06:09.000Z</time>
      </trkpt>
      <trkpt lat="43.5212" lon="6.61161">
        <ele>116</ele>
        <time>2025-10-28T08:06:10.000Z</time>
      </trkpt>
      <trkpt lat="43.52116" lon="6.61163">
        <ele>115.7</ele>
        <time>2025-10-28T08:06:11.000Z</time>
      </trkpt>
      <trkpt lat="43.52111" lon="6.61165">
        <ele>115.6</ele>
        <time>2025-10-28T08:06:12.000Z</time>
      </trkpt>
      <trkpt lat="43.52107" lon="6.61168">
        <ele>115.2</ele>
        <time>2025-10-28T08:06:13.000Z</time>
      </trkpt>
      <trkpt lat="43.52102" lon="6.61171">
        <ele>115</ele>
        <time>2025-10-28T08:06:14.000Z</time>
      </trkpt>
      <trkpt lat="43.52097" lon="6.61174">
        <ele>114.7</ele>
        <time>2025-10-28T08:06:15.000Z</time>
      </trkpt>
      <trkpt lat="43.52093" lon="6.61177">
        <ele>114.6</ele>
        <time>2025-10-28T08:06:16.000Z</time>
      </trkpt>
      <trkpt lat="43.52089" lon="6.6118">
        <ele>114.3</ele>
        <time>2025-10-28T08:06:17.000Z</time>
      </trkpt>
      <trkpt lat="43.52086" lon="6.61181">
        <ele>114.2</ele>
        <time>2025-10-28T08:06:18.000Z</time>
      </trkpt>
      <trkpt lat="43.52083" lon="6.61183">
        <ele>114.1</ele>
        <time>2025-10-28T08:06:19.000Z</time>
      </trkpt>
      <trkpt lat="43.5208" lon="6.61185">
        <ele>114.1</ele>
        <time>2025-10-28T08:06:20.000Z</time>
      </trkpt>
      <trkpt lat="43.52078" lon="6.61187">
        <ele>114</ele>
        <time>2025-10-28T08:06:21.000Z</time>
      </trkpt>
      <trkpt lat="43.52077" lon="6.61188">
        <ele>114</ele>
        <time>2025-10-28T08:06:22.000Z</time>
      </trkpt>
      <trkpt lat="43.52075" lon="6.61188">
        <ele>113.9</ele>
        <time>2025-10-28T08:06:23.000Z</time>
      </trkpt>
      <trkpt lat="43.52073" lon="6.61188">
        <ele>113.9</ele>
        <time>2025-10-28T08:06:24.000Z</time>
      </trkpt>
      <trkpt lat="43.52072" lon="6.61187">
        <ele>113.9</ele>
        <time>2025-10-28T08:06:25.000Z</time>
      </trkpt>
      <trkpt lat="43.52071" lon="6.61185">
        <ele>113.9</ele>
        <time>2025-10-28T08:06:26.000Z</time>
      </trkpt>
      <trkpt lat="43.5207" lon="6.61183">
        <ele>113.8</ele>
        <time>2025-10-28T08:06:27.000Z</time>
      </trkpt>
      <trkpt lat="43.52069" lon="6.6118">
        <ele>113.9</ele>
        <time>2025-10-28T08:06:28.000Z</time>
      </trkpt>
      <trkpt lat="43.52069" lon="6.61177">
        <ele>113.9</ele>
        <time>2025-10-28T08:06:29.000Z</time>
      </trkpt>
      <trkpt lat="43.52068" lon="6.61174">
        <ele>113.9</ele>
        <time>2025-10-28T08:06:30.000Z</time>
      </trkpt>
      <trkpt lat="43.52068" lon="6.6117">
        <ele>113.9</ele>
        <time>2025-10-28T08:06:31.000Z</time>
      </trkpt>
      <trkpt lat="43.52068" lon="6.61167">
        <ele>113.9</ele>
        <time>2025-10-28T08:06:32.000Z</time>
      </trkpt>
      <trkpt lat="43.52068" lon="6.61163">
        <ele>114</ele>
        <time>2025-10-28T08:06:33.000Z</time>
      </trkpt>
      <trkpt lat="43.52067" lon="6.6116">
        <ele>113.9</ele>
        <time>2025-10-28T08:06:34.000Z</time>
      </trkpt>
      <trkpt lat="43.52066" lon="6.61156">
        <ele>114</ele>
        <time>2025-10-28T08:06:35.000Z</time>
      </trkpt>
      <trkpt lat="43.52065" lon="6.61153">
        <ele>114</ele>
        <time>2025-10-28T08:06:36.000Z</time>
      </trkpt>
      <trkpt lat="43.52064" lon="6.6115">
        <ele>114.1</ele>
        <time>2025-10-28T08:06:37.000Z</time>
      </trkpt>
      <trkpt lat="43.52063" lon="6.61144">
        <ele>114.1</ele>
        <time>2025-10-28T08:06:38.000Z</time>
      </trkpt>
      <trkpt lat="43.52062" lon="6.61139">
        <ele>114.2</ele>
        <time>2025-10-28T08:06:39.000Z</time>
      </trkpt>
      <trkpt lat="43.52062" lon="6.61135">
        <ele>114.2</ele>
        <time>2025-10-28T08:06:40.000Z</time>
      </trkpt>
      <trkpt lat="43.52061" lon="6.6113">
        <ele>114.3</ele>
        <time>2025-10-28T08:06:41.000Z</time>
      </trkpt>
      <trkpt lat="43.52061" lon="6.61127">
        <ele>114.4</ele>
        <time>2025-10-28T08:06:42.000Z</time>
      </trkpt>
      <trkpt lat="43.52061" lon="6.61123">
        <ele>114.5</ele>
        <time>2025-10-28T08:06:43.000Z</time>
      </trkpt>
      <trkpt lat="43.52061" lon="6.61119">
        <ele>114.6</ele>
        <time>2025-10-28T08:06:44.000Z</time>
      </trkpt>
      <trkpt lat="43.52061" lon="6.61115">
        <ele>114.7</ele>
        <time>2025-10-28T08:06:45.000Z</time>
      </trkpt>
      <trkpt lat="43.52061" lon="6.61111">
        <ele>114.7</ele>
        <time>2025-10-28T08:06:46.000Z</time>
      </trkpt>
      <trkpt lat="43.52061" lon="6.61107">
        <ele>114.8</ele>
        <time>2025-10-28T08:06:47.000Z</time>
      </trkpt>
      <trkpt lat="43.52061" lon="6.61103">
        <ele>114.8</ele>
        <time>2025-10-28T08:06:48.000Z</time>
      </trkpt>
      <trkpt lat="43.52061" lon="6.61098">
        <ele>114.9</ele>
        <time>2025-10-28T08:06:49.000Z</time>
      </trkpt>
      <trkpt lat="43.52061" lon="6.61093">
        <ele>115</ele>
        <time>2025-10-28T08:06:50.000Z</time>
      </trkpt>
      <trkpt lat="43.52062" lon="6.61089">
        <ele>115.1</ele>
        <time>2025-10-28T08:06:51.000Z</time>
      </trkpt>
      <trkpt lat="43.52062" lon="6.61085">
        <ele>115.2</ele>
        <time>2025-10-28T08:06:52.000Z</time>
      </trkpt>
      <trkpt lat="43.52062" lon="6.61081">
        <ele>115.2</ele>
        <time>2025-10-28T08:06:53.000Z</time>
      </trkpt>
      <trkpt lat="43.52063" lon="6.61078">
        <ele>115.2</ele>
        <time>2025-10-28T08:06:54.000Z</time>
      </trkpt>
      <trkpt lat="43.52064" lon="6.61075">
        <ele>115.3</ele>
        <time>2025-10-28T08:06:55.000Z</time>
      </trkpt>
      <trkpt lat="43.52065" lon="6.61072">
        <ele>115.4</ele>
        <time>2025-10-28T08:06:56.000Z</time>
      </trkpt>
      <trkpt lat="43.52065" lon="6.61069">
        <ele>115.4</ele>
        <time>2025-10-28T08:06:57.000Z</time>
      </trkpt>
      <trkpt lat="43.52066" lon="6.61066">
        <ele>115.4</ele>
        <time>2025-10-28T08:06:58.000Z</time>
      </trkpt>
      <trkpt lat="43.52067" lon="6.61064">
        <ele>115.5</ele>
        <time>2025-10-28T08:06:59.000Z</time>
      </trkpt>
      <trkpt lat="43.52067" lon="6.61061">
        <ele>115.6</ele>
        <time>2025-10-28T08:07:00.000Z</time>
      </trkpt>
      <trkpt lat="43.52068" lon="6.61059">
        <ele>115.6</ele>
        <time>2025-10-28T08:07:01.000Z</time>
      </trkpt>
      <trkpt lat="43.52069" lon="6.61056">
        <ele>115.6</ele>
        <time>2025-10-28T08:07:02.000Z</time>
      </trkpt>
      <trkpt lat="43.52069" lon="6.61054">
        <ele>115.7</ele>
        <time>2025-10-28T08:07:03.000Z</time>
      </trkpt>
      <trkpt lat="43.5207" lon="6.61052">
        <ele>115.7</ele>
        <time>2025-10-28T08:07:04.000Z</time>
      </trkpt>
      <trkpt lat="43.52071" lon="6.6105">
        <ele>115.8</ele>
        <time>2025-10-28T08:07:05.000Z</time>
      </trkpt>
      <trkpt lat="43.52071" lon="6.61048">
        <ele>115.8</ele>
        <time>2025-10-28T08:07:06.000Z</time>
      </trkpt>
      <trkpt lat="43.52072" lon="6.61046">
        <ele>115.9</ele>
        <time>2025-10-28T08:07:07.000Z</time>
      </trkpt>
      <trkpt lat="43.52072" lon="6.61044">
        <ele>115.9</ele>
        <time>2025-10-28T08:07:08.000Z</time>
      </trkpt>
      <trkpt lat="43.52073" lon="6.61042">
        <ele>115.9</ele>
        <time>2025-10-28T08:07:09.000Z</time>
      </trkpt>
      <trkpt lat="43.52074" lon="6.6104">
        <ele>116.1</ele>
        <time>2025-10-28T08:07:10.000Z</time>
      </trkpt>
      <trkpt lat="43.52075" lon="6.61038">
        <ele>116.1</ele>
        <time>2025-10-28T08:07:11.000Z</time>
      </trkpt>
      <trkpt lat="43.52076" lon="6.61036">
        <ele>116.1</ele>
        <time>2025-10-28T08:07:12.000Z</time>
      </trkpt>
      <trkpt lat="43.52077" lon="6.61034">
        <ele>116.1</ele>
        <time>2025-10-28T08:07:13.000Z</time>
      </trkpt>
      <trkpt lat="43.52077" lon="6.61031">
        <ele>116.3</ele>
        <time>2025-10-28T08:07:14.000Z</time>
      </trkpt>
      <trkpt lat="43.52078" lon="6.61029">
        <ele>116.3</ele>
        <time>2025-10-28T08:07:15.000Z</time>
      </trkpt>
      <trkpt lat="43.52079" lon="6.61027">
        <ele>116.3</ele>
        <time>2025-10-28T08:07:16.000Z</time>
      </trkpt>
      <trkpt lat="43.52079" lon="6.61025">
        <ele>116.3</ele>
        <time>2025-10-28T08:07:17.000Z</time>
      </trkpt>
      <trkpt lat="43.5208" lon="6.61021">
        <ele>116.5</ele>
        <time>2025-10-28T08:07:18.000Z</time>
      </trkpt>
      <trkpt lat="43.52081" lon="6.61019">
        <ele>116.5</ele>
        <time>2025-10-28T08:07:19.000Z</time>
      </trkpt>
      <trkpt lat="43.52082" lon="6.61016">
        <ele>116.4</ele>
        <time>2025-10-28T08:07:20.000Z</time>
      </trkpt>
      <trkpt lat="43.52083" lon="6.61013">
        <ele>116.5</ele>
        <time>2025-10-28T08:07:21.000Z</time>
      </trkpt>
      <trkpt lat="43.52083" lon="6.61011">
        <ele>116.6</ele>
        <time>2025-10-28T08:07:22.000Z</time>
      </trkpt>
      <trkpt lat="43.52084" lon="6.61008">
        <ele>116.6</ele>
        <time>2025-10-28T08:07:23.000Z</time>
      </trkpt>
      <trkpt lat="43.52085" lon="6.61006">
        <ele>116.5</ele>
        <time>2025-10-28T08:07:24.000Z</time>
      </trkpt>
      <trkpt lat="43.52086" lon="6.61004">
        <ele>116.5</ele>
        <time>2025-10-28T08:07:25.000Z</time>
      </trkpt>
      <trkpt lat="43.52086" lon="6.61001">
        <ele>116.6</ele>
        <time>2025-10-28T08:07:26.000Z</time>
      </trkpt>
      <trkpt lat="43.52087" lon="6.60999">
        <ele>116.6</ele>
        <time>2025-10-28T08:07:27.000Z</time>
      </trkpt>
      <trkpt lat="43.52087" lon="6.60997">
        <ele>116.6</ele>
        <time>2025-10-28T08:07:28.000Z</time>
      </trkpt>
      <trkpt lat="43.52088" lon="6.60994">
        <ele>116.5</ele>
        <time>2025-10-28T08:07:29.000Z</time>
      </trkpt>
      <trkpt lat="43.52089" lon="6.60991">
        <ele>116.6</ele>
        <time>2025-10-28T08:07:30.000Z</time>
      </trkpt>
      <trkpt lat="43.5209" lon="6.60988">
        <ele>116.6</ele>
        <time>2025-10-28T08:07:31.000Z</time>
      </trkpt>
      <trkpt lat="43.52091" lon="6.60984">
        <ele>116.5</ele>
        <time>2025-10-28T08:07:32.000Z</time>
      </trkpt>
      <trkpt lat="43.52091" lon="6.60981">
        <ele>116.4</ele>
        <time>2025-10-28T08:07:33.000Z</time>
      </trkpt>
      <trkpt lat="43.52092" lon="6.60978">
        <ele>116.5</ele>
        <time>2025-10-28T08:07:34.000Z</time>
      </trkpt>
      <trkpt lat="43.52093" lon="6.60975">
        <ele>116.5</ele>
        <time>2025-10-28T08:07:35.000Z</time>
      </trkpt>
      <trkpt lat="43.52094" lon="6.60972">
        <ele>116.4</ele>
        <time>2025-10-28T08:07:36.000Z</time>
      </trkpt>
      <trkpt lat="43.52096" lon="6.60968">
        <ele>116.4</ele>
        <time>2025-10-28T08:07:37.000Z</time>
      </trkpt>
      <trkpt lat="43.52097" lon="6.60965">
        <ele>116.4</ele>
        <time>2025-10-28T08:07:38.000Z</time>
      </trkpt>
      <trkpt lat="43.52098" lon="6.60962">
        <ele>116.3</ele>
        <time>2025-10-28T08:07:39.000Z</time>
      </trkpt>
      <trkpt lat="43.52099" lon="6.60959">
        <ele>116.2</ele>
        <time>2025-10-28T08:07:40.000Z</time>
      </trkpt>
      <trkpt lat="43.521" lon="6.60956">
        <ele>116.1</ele>
        <time>2025-10-28T08:07:41.000Z</time>
      </trkpt>
      <trkpt lat="43.52101" lon="6.60953">
        <ele>116.1</ele>
        <time>2025-10-28T08:07:42.000Z</time>
      </trkpt>
      <trkpt lat="43.52102" lon="6.6095">
        <ele>116</ele>
        <time>2025-10-28T08:07:43.000Z</time>
      </trkpt>
      <trkpt lat="43.52103" lon="6.60948">
        <ele>115.9</ele>
        <time>2025-10-28T08:07:44.000Z</time>
      </trkpt>
      <trkpt lat="43.52104" lon="6.60945">
        <ele>115.9</ele>
        <time>2025-10-28T08:07:45.000Z</time>
      </trkpt>
      <trkpt lat="43.52106" lon="6.60942">
        <ele>115.8</ele>
        <time>2025-10-28T08:07:46.000Z</time>
      </trkpt>
      <trkpt lat="43.52107" lon="6.60939">
        <ele>115.7</ele>
        <time>2025-10-28T08:07:47.000Z</time>
      </trkpt>
      <trkpt lat="43.52108" lon="6.60936">
        <ele>115.7</ele>
        <time>2025-10-28T08:07:48.000Z</time>
      </trkpt>
      <trkpt lat="43.52109" lon="6.60934">
        <ele>115.6</ele>
        <time>2025-10-28T08:07:49.000Z</time>
      </trkpt>
      <trkpt lat="43.52111" lon="6.60931">
        <ele>115.6</ele>
        <time>2025-10-28T08:07:50.000Z</time>
      </trkpt>
      <trkpt lat="43.52112" lon="6.60929">
        <ele>115.4</ele>
        <time>2025-10-28T08:07:51.000Z</time>
      </trkpt>
      <trkpt lat="43.52114" lon="6.60927">
        <ele>115.5</ele>
        <time>2025-10-28T08:07:52.000Z</time>
      </trkpt>
      <trkpt lat="43.52116" lon="6.60925">
        <ele>115.2</ele>
        <time>2025-10-28T08:07:53.000Z</time>
      </trkpt>
      <trkpt lat="43.52118" lon="6.60923">
        <ele>115.2</ele>
        <time>2025-10-28T08:07:54.000Z</time>
      </trkpt>
      <trkpt lat="43.52119" lon="6.60921">
        <ele>115</ele>
        <time>2025-10-28T08:07:55.000Z</time>
      </trkpt>
      <trkpt lat="43.5212" lon="6.60919">
        <ele>115</ele>
        <time>2025-10-28T08:07:56.000Z</time>
      </trkpt>
      <trkpt lat="43.5212" lon="6.60917">
        <ele>114.7</ele>
        <time>2025-10-28T08:07:57.000Z</time>
      </trkpt>
      <trkpt lat="43.5212" lon="6.60915">
        <ele>114.8</ele>
        <time>2025-10-28T08:07:58.000Z</time>
      </trkpt>
      <trkpt lat="43.52119" lon="6.60913">
        <ele>114.8</ele>
        <time>2025-10-28T08:07:59.000Z</time>
      </trkpt>
      <trkpt lat="43.52118" lon="6.6091">
        <ele>114.8</ele>
        <time>2025-10-28T08:08:00.000Z</time>
      </trkpt>
      <trkpt lat="43.52116" lon="6.60909">
        <ele>114.8</ele>
        <time>2025-10-28T08:08:01.000Z</time>
      </trkpt>
      <trkpt lat="43.52114" lon="6.60906">
        <ele>114.8</ele>
        <time>2025-10-28T08:08:02.000Z</time>
      </trkpt>
      <trkpt lat="43.52112" lon="6.60904">
        <ele>114.8</ele>
        <time>2025-10-28T08:08:03.000Z</time>
      </trkpt>
      <trkpt lat="43.5211" lon="6.60902">
        <ele>114.8</ele>
        <time>2025-10-28T08:08:04.000Z</time>
      </trkpt>
      <trkpt lat="43.52108" lon="6.609">
        <ele>114.7</ele>
        <time>2025-10-28T08:08:05.000Z</time>
      </trkpt>
      <trkpt lat="43.52106" lon="6.60898">
        <ele>114.7</ele>
        <time>2025-10-28T08:08:06.000Z</time>
      </trkpt>
      <trkpt lat="43.52104" lon="6.60896">
        <ele>114.7</ele>
        <time>2025-10-28T08:08:07.000Z</time>
      </trkpt>
      <trkpt lat="43.52102" lon="6.60893">
        <ele>114.5</ele>
        <time>2025-10-28T08:08:08.000Z</time>
      </trkpt>
      <trkpt lat="43.52102" lon="6.60891">
        <ele>114.5</ele>
        <time>2025-10-28T08:08:09.000Z</time>
      </trkpt>
      <trkpt lat="43.52102" lon="6.60889">
        <ele>114.4</ele>
        <time>2025-10-28T08:08:10.000Z</time>
      </trkpt>
      <trkpt lat="43.52102" lon="6.60887">
        <ele>114.3</ele>
        <time>2025-10-28T08:08:11.000Z</time>
      </trkpt>
      <trkpt lat="43.52102" lon="6.60885">
        <ele>114.2</ele>
        <time>2025-10-28T08:08:12.000Z</time>
      </trkpt>
      <trkpt lat="43.52102" lon="6.60882">
        <ele>114.1</ele>
        <time>2025-10-28T08:08:13.000Z</time>
      </trkpt>
      <trkpt lat="43.52102" lon="6.6088">
        <ele>114</ele>
        <time>2025-10-28T08:08:14.000Z</time>
      </trkpt>
      <trkpt lat="43.52102" lon="6.60878">
        <ele>113.9</ele>
        <time>2025-10-28T08:08:15.000Z</time>
      </trkpt>
      <trkpt lat="43.52101" lon="6.60874">
        <ele>113.7</ele>
        <time>2025-10-28T08:08:16.000Z</time>
      </trkpt>
      <trkpt lat="43.52099" lon="6.60871">
        <ele>113.6</ele>
        <time>2025-10-28T08:08:17.000Z</time>
      </trkpt>
      <trkpt lat="43.52097" lon="6.60865">
        <ele>113.3</ele>
        <time>2025-10-28T08:08:18.000Z</time>
      </trkpt>
      <trkpt lat="43.52095" lon="6.60859">
        <ele>112.9</ele>
        <time>2025-10-28T08:08:19.000Z</time>
      </trkpt>
      <trkpt lat="43.52093" lon="6.60854">
        <ele>112.6</ele>
        <time>2025-10-28T08:08:20.000Z</time>
      </trkpt>
      <trkpt lat="43.52091" lon="6.60849">
        <ele>112.3</ele>
        <time>2025-10-28T08:08:21.000Z</time>
      </trkpt>
      <trkpt lat="43.5209" lon="6.60843">
        <ele>111.8</ele>
        <time>2025-10-28T08:08:22.000Z</time>
      </trkpt>
      <trkpt lat="43.52089" lon="6.60838">
        <ele>111.4</ele>
        <time>2025-10-28T08:08:23.000Z</time>
      </trkpt>
      <trkpt lat="43.52089" lon="6.60833">
        <ele>111</ele>
        <time>2025-10-28T08:08:24.000Z</time>
      </trkpt>
      <trkpt lat="43.52089" lon="6.60829">
        <ele>110.5</ele>
        <time>2025-10-28T08:08:25.000Z</time>
      </trkpt>
      <trkpt lat="43.5209" lon="6.60825">
        <ele>110.1</ele>
        <time>2025-10-28T08:08:26.000Z</time>
      </trkpt>
      <trkpt lat="43.52089" lon="6.60822">
        <ele>109.6</ele>
        <time>2025-10-28T08:08:27.000Z</time>
      </trkpt>
      <trkpt lat="43.52089" lon="6.60817">
        <ele>109</ele>
        <time>2025-10-28T08:08:28.000Z</time>
      </trkpt>
      <trkpt lat="43.52088" lon="6.60813">
        <ele>108.3</ele>
        <time>2025-10-28T08:08:29.000Z</time>
      </trkpt>
      <trkpt lat="43.52088" lon="6.60808">
        <ele>107.6</ele>
        <time>2025-10-28T08:08:30.000Z</time>
      </trkpt>
      <trkpt lat="43.52087" lon="6.60803">
        <ele>106.8</ele>
        <time>2025-10-28T08:08:31.000Z</time>
      </trkpt>
      <trkpt lat="43.52086" lon="6.60796">
        <ele>105.6</ele>
        <time>2025-10-28T08:08:32.000Z</time>
      </trkpt>
      <trkpt lat="43.52085" lon="6.6079">
        <ele>104.6</ele>
        <time>2025-10-28T08:08:33.000Z</time>
      </trkpt>
      <trkpt lat="43.52084" lon="6.60785">
        <ele>103.9</ele>
        <time>2025-10-28T08:08:34.000Z</time>
      </trkpt>
      <trkpt lat="43.52084" lon="6.60781">
        <ele>103.2</ele>
        <time>2025-10-28T08:08:35.000Z</time>
      </trkpt>
      <trkpt lat="43.52084" lon="6.6078">
        <ele>103</ele>
        <time>2025-10-28T08:08:36.000Z</time>
      </trkpt>
      <trkpt lat="43.52084" lon="6.60779">
        <ele>102.8</ele>
        <time>2025-10-28T08:08:37.000Z</time>
      </trkpt>
      <trkpt lat="43.52084" lon="6.60779">
        <ele>102.7</ele>
        <time>2025-10-28T08:08:38.000Z</time>
      </trkpt>
      <trkpt lat="43.52083" lon="6.60779">
        <ele>102.6</ele>
        <time>2025-10-28T08:08:39.000Z</time>
      </trkpt>
      <trkpt lat="43.52083" lon="6.60779">
        <ele>102.5</ele>
        <time>2025-10-28T08:08:40.000Z</time>
      </trkpt>
      <trkpt lat="43.52083" lon="6.60779">
        <ele>102.5</ele>
        <time>2025-10-28T08:08:41.000Z</time>
      </trkpt>
      <trkpt lat="43.52083" lon="6.6078">
        <ele>102.4</ele>
        <time>2025-10-28T08:08:42.000Z</time>
      </trkpt>
      <trkpt lat="43.52082" lon="6.6078">
        <ele>102.3</ele>
        <time>2025-10-28T08:08:43.000Z</time>
      </trkpt>
      <trkpt lat="43.52083" lon="6.6078">
        <ele>102.3</ele>
        <time>2025-10-28T08:08:44.000Z</time>
      </trkpt>
      <trkpt lat="43.52082" lon="6.60781">
        <ele>102.2</ele>
        <time>2025-10-28T08:08:45.000Z</time>
      </trkpt>
      <trkpt lat="43.52082" lon="6.60781">
        <ele>102.1</ele>
        <time>2025-10-28T08:08:46.000Z</time>
      </trkpt>
      <trkpt lat="43.52082" lon="6.60782">
        <ele>102</ele>
        <time>2025-10-28T08:08:47.000Z</time>
      </trkpt>
      <trkpt lat="43.52082" lon="6.60782">
        <ele>101.9</ele>
        <time>2025-10-28T08:08:48.000Z</time>
      </trkpt>
      <trkpt lat="43.52082" lon="6.60783">
        <ele>101.9</ele>
        <time>2025-10-28T08:08:49.000Z</time>
      </trkpt>
      <trkpt lat="43.52082" lon="6.60783">
        <ele>101.9</ele>
        <time>2025-10-28T08:08:50.000Z</time>
      </trkpt>
      <trkpt lat="43.52082" lon="6.60783">
        <ele>101.9</ele>
        <time>2025-10-28T08:08:51.000Z</time>
      </trkpt>
      <trkpt lat="43.52082" lon="6.60783">
        <ele>101.9</ele>
        <time>2025-10-28T08:08:52.000Z</time>
      </trkpt>
      <trkpt lat="43.52082" lon="6.60783">
        <ele>101.9</ele>
        <time>2025-10-28T08:08:53.000Z</time>
      </trkpt>
      <trkpt lat="43.52082" lon="6.60783">
        <ele>101.9</ele>
        <time>2025-10-28T08:08:54.000Z</time>
      </trkpt>
      <trkpt lat="43.52082" lon="6.60783">
        <ele>101.9</ele>
        <time>2025-10-28T08:08:55.000Z</time>
      </trkpt>
      <trkpt lat="43.52082" lon="6.60783">
        <ele>101.9</ele>
        <time>2025-10-28T08:08:56.000Z</time>
      </trkpt>
      <trkpt lat="43.52082" lon="6.60783">
        <ele>101.9</ele>
        <time>2025-10-28T08:08:57.000Z</time>
      </trkpt>
      <trkpt lat="43.52082" lon="6.60783">
        <ele>101.9</ele>
        <time>2025-10-28T08:08:58.000Z</time>
      </trkpt>
      <trkpt lat="43.52082" lon="6.60783">
        <ele>101.9</ele>
        <time>2025-10-28T08:08:59.000Z</time>
      </trkpt>
      <trkpt lat="43.52082" lon="6.60783">
        <ele>101.9</ele>
        <time>2025-10-28T08:09:00.000Z</time>
      </trkpt>
      <trkpt lat="43.52082" lon="6.60783">
        <ele>101.9</ele>
        <time>2025-10-28T08:09:01.000Z</time>
      </trkpt>
      <trkpt lat="43.52082" lon="6.60784">
        <ele>101.8</ele>
        <time>2025-10-28T08:09:02.000Z</time>
      </trkpt>
      <trkpt lat="43.52082" lon="6.60784">
        <ele>101.7</ele>
        <time>2025-10-28T08:09:03.000Z</time>
      </trkpt>
      <trkpt lat="43.52082" lon="6.60784">
        <ele>101.6</ele>
        <time>2025-10-28T08:09:04.000Z</time>
      </trkpt>
      <trkpt lat="43.52082" lon="6.60785">
        <ele>101.5</ele>
        <time>2025-10-28T08:09:05.000Z</time>
      </trkpt>
      <trkpt lat="43.52082" lon="6.60786">
        <ele>101.4</ele>
        <time>2025-10-28T08:09:06.000Z</time>
      </trkpt>
      <trkpt lat="43.52082" lon="6.60787">
        <ele>101.3</ele>
        <time>2025-10-28T08:09:07.000Z</time>
      </trkpt>
      <trkpt lat="43.52082" lon="6.60787">
        <ele>101.2</ele>
        <time>2025-10-28T08:09:08.000Z</time>
      </trkpt>
      <trkpt lat="43.52082" lon="6.60787">
        <ele>101.2</ele>
        <time>2025-10-28T08:09:09.000Z</time>
      </trkpt>
      <trkpt lat="43.52082" lon="6.60787">
        <ele>101.2</ele>
        <time>2025-10-28T08:09:10.000Z</time>
      </trkpt>
      <trkpt lat="43.52082" lon="6.60787">
        <ele>101.2</ele>
        <time>2025-10-28T08:09:11.000Z</time>
      </trkpt>
      <trkpt lat="43.52082" lon="6.60787">
        <ele>101.2</ele>
        <time>2025-10-28T08:09:12.000Z</time>
      </trkpt>
      <trkpt lat="43.52082" lon="6.60787">
        <ele>101.2</ele>
        <time>2025-10-28T08:09:13.000Z</time>
      </trkpt>
      <trkpt lat="43.52082" lon="6.60787">
        <ele>101.2</ele>
        <time>2025-10-28T08:09:14.000Z</time>
      </trkpt>
      <trkpt lat="43.52082" lon="6.60789">
        <ele>101</ele>
        <time>2025-10-28T08:09:15.000Z</time>
      </trkpt>
      <trkpt lat="43.52082" lon="6.60789">
        <ele>100.9</ele>
        <time>2025-10-28T08:09:16.000Z</time>
      </trkpt>
      <trkpt lat="43.52082" lon="6.60789">
        <ele>100.9</ele>
        <time>2025-10-28T08:09:17.000Z</time>
      </trkpt>
      <trkpt lat="43.52082" lon="6.60789">
        <ele>100.9</ele>
        <time>2025-10-28T08:09:18.000Z</time>
      </trkpt>
      <trkpt lat="43.52082" lon="6.60789">
        <ele>100.9</ele>
        <time>2025-10-28T08:09:19.000Z</time>
      </trkpt>
      <trkpt lat="43.52082" lon="6.60789">
        <ele>100.9</ele>
        <time>2025-10-28T08:09:20.000Z</time>
      </trkpt>
      <trkpt lat="43.52082" lon="6.60789">
        <ele>100.9</ele>
        <time>2025-10-28T08:09:21.000Z</time>
      </trkpt>
      <trkpt lat="43.52082" lon="6.60789">
        <ele>100.9</ele>
        <time>2025-10-28T08:09:22.000Z</time>
      </trkpt>
      <trkpt lat="43.52082" lon="6.60789">
        <ele>100.9</ele>
        <time>2025-10-28T08:09:23.000Z</time>
      </trkpt>
      <trkpt lat="43.52082" lon="6.6079">
        <ele>100.9</ele>
        <time>2025-10-28T08:09:24.000Z</time>
      </trkpt>
      <trkpt lat="43.52082" lon="6.6079">
        <ele>100.9</ele>
        <time>2025-10-28T08:09:25.000Z</time>
      </trkpt>
      <trkpt lat="43.52082" lon="6.6079">
        <ele>100.9</ele>
        <time>2025-10-28T08:09:26.000Z</time>
      </trkpt>
      <trkpt lat="43.52082" lon="6.6079">
        <ele>100.9</ele>
        <time>2025-10-28T08:09:27.000Z</time>
      </trkpt>
      <trkpt lat="43.52082" lon="6.6079">
        <ele>100.9</ele>
        <time>2025-10-28T08:09:28.000Z</time>
      </trkpt>
      <trkpt lat="43.52082" lon="6.6079">
        <ele>100.9</ele>
        <time>2025-10-28T08:09:29.000Z</time>
      </trkpt>
      <trkpt lat="43.52082" lon="6.6079">
        <ele>100.9</ele>
        <time>2025-10-28T08:09:30.000Z</time>
      </trkpt>
      <trkpt lat="43.52082" lon="6.6079">
        <ele>100.9</ele>
        <time>2025-10-28T08:09:31.000Z</time>
      </trkpt>
      <trkpt lat="43.52082" lon="6.6079">
        <ele>100.9</ele>
        <time>2025-10-28T08:09:32.000Z</time>
      </trkpt>
      <trkpt lat="43.52082" lon="6.6079">
        <ele>100.9</ele>
        <time>2025-10-28T08:09:33.000Z</time>
      </trkpt>
      <trkpt lat="43.52082" lon="6.6079">
        <ele>100.9</ele>
        <time>2025-10-28T08:09:34.000Z</time>
      </trkpt>
      <trkpt lat="43.52083" lon="6.6079">
        <ele>100.8</ele>
        <time>2025-10-28T08:09:35.000Z</time>
      </trkpt>
      <trkpt lat="43.52083" lon="6.6079">
        <ele>100.8</ele>
        <time>2025-10-28T08:09:36.000Z</time>
      </trkpt>
      <trkpt lat="43.52083" lon="6.6079">
        <ele>100.8</ele>
        <time>2025-10-28T08:09:37.000Z</time>
      </trkpt>
      <trkpt lat="43.52083" lon="6.6079">
        <ele>100.8</ele>
        <time>2025-10-28T08:09:38.000Z</time>
      </trkpt>
      <trkpt lat="43.52083" lon="6.6079">
        <ele>100.8</ele>
        <time>2025-10-28T08:09:39.000Z</time>
      </trkpt>
      <trkpt lat="43.52083" lon="6.6079">
        <ele>100.8</ele>
        <time>2025-10-28T08:09:40.000Z</time>
      </trkpt>
      <trkpt lat="43.52083" lon="6.6079">
        <ele>100.8</ele>
        <time>2025-10-28T08:09:41.000Z</time>
      </trkpt>
      <trkpt lat="43.52083" lon="6.6079">
        <ele>100.8</ele>
        <time>2025-10-28T08:09:42.000Z</time>
      </trkpt>
      <trkpt lat="43.52083" lon="6.6079">
        <ele>100.8</ele>
        <time>2025-10-28T08:09:43.000Z</time>
      </trkpt>
      <trkpt lat="43.52083" lon="6.6079">
        <ele>100.8</ele>
        <time>2025-10-28T08:09:44.000Z</time>
      </trkpt>
      <trkpt lat="43.52083" lon="6.6079">
        <ele>100.8</ele>
        <time>2025-10-28T08:09:45.000Z</time>
      </trkpt>
      <trkpt lat="43.52083" lon="6.6079">
        <ele>100.8</ele>
        <time>2025-10-28T08:09:46.000Z</time>
      </trkpt>
      <trkpt lat="43.52083" lon="6.6079">
        <ele>100.8</ele>
        <time>2025-10-28T08:09:47.000Z</time>
      </trkpt>
      <trkpt lat="43.52083" lon="6.6079">
        <ele>100.8</ele>
        <time>2025-10-28T08:09:48.000Z</time>
      </trkpt>
      <trkpt lat="43.52083" lon="6.6079">
        <ele>100.8</ele>
        <time>2025-10-28T08:09:49.000Z</time>
      </trkpt>
      <trkpt lat="43.52083" lon="6.6079">
        <ele>100.8</ele>
        <time>2025-10-28T08:09:50.000Z</time>
      </trkpt>
      <trkpt lat="43.52083" lon="6.6079">
        <ele>100.7</ele>
        <time>2025-10-28T08:09:51.000Z</time>
      </trkpt>
      <trkpt lat="43.52083" lon="6.6079">
        <ele>100.7</ele>
        <time>2025-10-28T08:09:52.000Z</time>
      </trkpt>
      <trkpt lat="43.52083" lon="6.6079">
        <ele>100.7</ele>
        <time>2025-10-28T08:09:53.000Z</time>
      </trkpt>
      <trkpt lat="43.52083" lon="6.6079">
        <ele>100.7</ele>
        <time>2025-10-28T08:09:54.000Z</time>
      </trkpt>
      <trkpt lat="43.52083" lon="6.60789">
        <ele>100.6</ele>
        <time>2025-10-28T08:09:55.000Z</time>
      </trkpt>
      <trkpt lat="43.52085" lon="6.60786">
        <ele>100.2</ele>
        <time>2025-10-28T08:09:56.000Z</time>
      </trkpt>
      <trkpt lat="43.52085" lon="6.60782">
        <ele>99.8</ele>
        <time>2025-10-28T08:09:57.000Z</time>
      </trkpt>
      <trkpt lat="43.52086" lon="6.60777">
        <ele>99.3</ele>
        <time>2025-10-28T08:09:58.000Z</time>
      </trkpt>
      <trkpt lat="43.52086" lon="6.60771">
        <ele>98.8</ele>
        <time>2025-10-28T08:09:59.000Z</time>
      </trkpt>
      <trkpt lat="43.52087" lon="6.60765">
        <ele>98.4</ele>
        <time>2025-10-28T08:10:00.000Z</time>
      </trkpt>
      <trkpt lat="43.52088" lon="6.60755">
        <ele>98.2</ele>
        <time>2025-10-28T08:10:01.000Z</time>
      </trkpt>
      <trkpt lat="43.52089" lon="6.60747">
        <ele>98.1</ele>
        <time>2025-10-28T08:10:02.000Z</time>
      </trkpt>
      <trkpt lat="43.5209" lon="6.6074">
        <ele>98.2</ele>
        <time>2025-10-28T08:10:03.000Z</time>
      </trkpt>
      <trkpt lat="43.5209" lon="6.60734">
        <ele>98.2</ele>
        <time>2025-10-28T08:10:04.000Z</time>
      </trkpt>
      <trkpt lat="43.52091" lon="6.60728">
        <ele>98.2</ele>
        <time>2025-10-28T08:10:05.000Z</time>
      </trkpt>
      <trkpt lat="43.52091" lon="6.60724">
        <ele>98.1</ele>
        <time>2025-10-28T08:10:06.000Z</time>
      </trkpt>
      <trkpt lat="43.52092" lon="6.6072">
        <ele>98.1</ele>
        <time>2025-10-28T08:10:07.000Z</time>
      </trkpt>
      <trkpt lat="43.52092" lon="6.60716">
        <ele>98</ele>
        <time>2025-10-28T08:10:08.000Z</time>
      </trkpt>
      <trkpt lat="43.52092" lon="6.60713">
        <ele>97.9</ele>
        <time>2025-10-28T08:10:09.000Z</time>
      </trkpt>
      <trkpt lat="43.52092" lon="6.60712">
        <ele>97.9</ele>
        <time>2025-10-28T08:10:10.000Z</time>
      </trkpt>
      <trkpt lat="43.52092" lon="6.60711">
        <ele>97.8</ele>
        <time>2025-10-28T08:10:11.000Z</time>
      </trkpt>
      <trkpt lat="43.52092" lon="6.60711">
        <ele>97.8</ele>
        <time>2025-10-28T08:10:12.000Z</time>
      </trkpt>
      <trkpt lat="43.52093" lon="6.60711">
        <ele>97.8</ele>
        <time>2025-10-28T08:10:13.000Z</time>
      </trkpt>
      <trkpt lat="43.52093" lon="6.60711">
        <ele>97.8</ele>
        <time>2025-10-28T08:10:14.000Z</time>
      </trkpt>
      <trkpt lat="43.52093" lon="6.60711">
        <ele>97.8</ele>
        <time>2025-10-28T08:10:15.000Z</time>
      </trkpt>
      <trkpt lat="43.52092" lon="6.6071">
        <ele>97.8</ele>
        <time>2025-10-28T08:10:16.000Z</time>
      </trkpt>
      <trkpt lat="43.52092" lon="6.60709">
        <ele>97.8</ele>
        <time>2025-10-28T08:10:17.000Z</time>
      </trkpt>
      <trkpt lat="43.52091" lon="6.60707">
        <ele>97.7</ele>
        <time>2025-10-28T08:10:18.000Z</time>
      </trkpt>
      <trkpt lat="43.52089" lon="6.60705">
        <ele>97.6</ele>
        <time>2025-10-28T08:10:19.000Z</time>
      </trkpt>
      <trkpt lat="43.52088" lon="6.60703">
        <ele>97.5</ele>
        <time>2025-10-28T08:10:20.000Z</time>
      </trkpt>
      <trkpt lat="43.52086" lon="6.607">
        <ele>97.4</ele>
        <time>2025-10-28T08:10:21.000Z</time>
      </trkpt>
      <trkpt lat="43.52085" lon="6.60698">
        <ele>97.4</ele>
        <time>2025-10-28T08:10:22.000Z</time>
      </trkpt>
      <trkpt lat="43.52085" lon="6.60695">
        <ele>97.3</ele>
        <time>2025-10-28T08:10:23.000Z</time>
      </trkpt>
      <trkpt lat="43.52085" lon="6.60693">
        <ele>97.3</ele>
        <time>2025-10-28T08:10:24.000Z</time>
      </trkpt>
      <trkpt lat="43.52085" lon="6.60691">
        <ele>97.2</ele>
        <time>2025-10-28T08:10:25.000Z</time>
      </trkpt>
      <trkpt lat="43.52085" lon="6.6069">
        <ele>97.2</ele>
        <time>2025-10-28T08:10:26.000Z</time>
      </trkpt>
      <trkpt lat="43.52085" lon="6.60689">
        <ele>97.2</ele>
        <time>2025-10-28T08:10:27.000Z</time>
      </trkpt>
      <trkpt lat="43.52085" lon="6.60689">
        <ele>97.2</ele>
        <time>2025-10-28T08:10:28.000Z</time>
      </trkpt>
      <trkpt lat="43.52085" lon="6.60689">
        <ele>97.2</ele>
        <time>2025-10-28T08:10:29.000Z</time>
      </trkpt>
      <trkpt lat="43.52085" lon="6.60689">
        <ele>97.2</ele>
        <time>2025-10-28T08:10:30.000Z</time>
      </trkpt>
      <trkpt lat="43.52085" lon="6.60688">
        <ele>97.2</ele>
        <time>2025-10-28T08:10:31.000Z</time>
      </trkpt>
      <trkpt lat="43.52085" lon="6.60686">
        <ele>97.2</ele>
        <time>2025-10-28T08:10:32.000Z</time>
      </trkpt>
      <trkpt lat="43.52086" lon="6.60685">
        <ele>97.1</ele>
        <time>2025-10-28T08:10:33.000Z</time>
      </trkpt>
      <trkpt lat="43.52087" lon="6.60683">
        <ele>97.1</ele>
        <time>2025-10-28T08:10:34.000Z</time>
      </trkpt>
      <trkpt lat="43.52088" lon="6.60681">
        <ele>97.1</ele>
        <time>2025-10-28T08:10:35.000Z</time>
      </trkpt>
      <trkpt lat="43.52088" lon="6.60678">
        <ele>97.1</ele>
        <time>2025-10-28T08:10:36.000Z</time>
      </trkpt>
      <trkpt lat="43.52087" lon="6.60675">
        <ele>97.2</ele>
        <time>2025-10-28T08:10:37.000Z</time>
      </trkpt>
      <trkpt lat="43.52087" lon="6.60671">
        <ele>97.2</ele>
        <time>2025-10-28T08:10:38.000Z</time>
      </trkpt>
      <trkpt lat="43.52088" lon="6.60667">
        <ele>97.3</ele>
        <time>2025-10-28T08:10:39.000Z</time>
      </trkpt>
      <trkpt lat="43.52089" lon="6.60663">
        <ele>97.5</ele>
        <time>2025-10-28T08:10:40.000Z</time>
      </trkpt>
      <trkpt lat="43.5209" lon="6.60661">
        <ele>97.6</ele>
        <time>2025-10-28T08:10:41.000Z</time>
      </trkpt>
      <trkpt lat="43.52091" lon="6.6066">
        <ele>97.6</ele>
        <time>2025-10-28T08:10:42.000Z</time>
      </trkpt>
      <trkpt lat="43.52091" lon="6.6066">
        <ele>97.7</ele>
        <time>2025-10-28T08:10:43.000Z</time>
      </trkpt>
      <trkpt lat="43.52091" lon="6.60659">
        <ele>97.7</ele>
        <time>2025-10-28T08:10:44.000Z</time>
      </trkpt>
      <trkpt lat="43.52092" lon="6.60659">
        <ele>97.7</ele>
        <time>2025-10-28T08:10:45.000Z</time>
      </trkpt>
      <trkpt lat="43.52092" lon="6.60659">
        <ele>97.7</ele>
        <time>2025-10-28T08:10:46.000Z</time>
      </trkpt>
      <trkpt lat="43.52092" lon="6.60659">
        <ele>97.8</ele>
        <time>2025-10-28T08:10:47.000Z</time>
      </trkpt>
      <trkpt lat="43.52092" lon="6.60658">
        <ele>97.8</ele>
        <time>2025-10-28T08:10:48.000Z</time>
      </trkpt>
      <trkpt lat="43.52092" lon="6.60656">
        <ele>97.9</ele>
        <time>2025-10-28T08:10:49.000Z</time>
      </trkpt>
      <trkpt lat="43.52091" lon="6.60653">
        <ele>98.1</ele>
        <time>2025-10-28T08:10:50.000Z</time>
      </trkpt>
      <trkpt lat="43.52089" lon="6.60651">
        <ele>98.4</ele>
        <time>2025-10-28T08:10:51.000Z</time>
      </trkpt>
      <trkpt lat="43.52087" lon="6.60649">
        <ele>98.6</ele>
        <time>2025-10-28T08:10:52.000Z</time>
      </trkpt>
      <trkpt lat="43.52085" lon="6.60647">
        <ele>98.9</ele>
        <time>2025-10-28T08:10:53.000Z</time>
      </trkpt>
      <trkpt lat="43.52083" lon="6.60645">
        <ele>99.1</ele>
        <time>2025-10-28T08:10:54.000Z</time>
      </trkpt>
      <trkpt lat="43.52083" lon="6.60643">
        <ele>99.2</ele>
        <time>2025-10-28T08:10:55.000Z</time>
      </trkpt>
      <trkpt lat="43.52083" lon="6.60642">
        <ele>99.3</ele>
        <time>2025-10-28T08:10:56.000Z</time>
      </trkpt>
      <trkpt lat="43.52084" lon="6.60641">
        <ele>99.4</ele>
        <time>2025-10-28T08:10:57.000Z</time>
      </trkpt>
      <trkpt lat="43.52085" lon="6.60641">
        <ele>99.5</ele>
        <time>2025-10-28T08:10:58.000Z</time>
      </trkpt>
      <trkpt lat="43.52086" lon="6.60641">
        <ele>99.5</ele>
        <time>2025-10-28T08:10:59.000Z</time>
      </trkpt>
      <trkpt lat="43.52086" lon="6.60641">
        <ele>99.6</ele>
        <time>2025-10-28T08:11:00.000Z</time>
      </trkpt>
      <trkpt lat="43.52086" lon="6.6064">
        <ele>99.6</ele>
        <time>2025-10-28T08:11:01.000Z</time>
      </trkpt>
      <trkpt lat="43.52087" lon="6.6064">
        <ele>99.6</ele>
        <time>2025-10-28T08:11:02.000Z</time>
      </trkpt>
      <trkpt lat="43.52088" lon="6.60639">
        <ele>99.7</ele>
        <time>2025-10-28T08:11:03.000Z</time>
      </trkpt>
      <trkpt lat="43.52088" lon="6.60638">
        <ele>99.7</ele>
        <time>2025-10-28T08:11:04.000Z</time>
      </trkpt>
      <trkpt lat="43.52089" lon="6.60637">
        <ele>99.8</ele>
        <time>2025-10-28T08:11:05.000Z</time>
      </trkpt>
      <trkpt lat="43.5209" lon="6.60636">
        <ele>99.9</ele>
        <time>2025-10-28T08:11:06.000Z</time>
      </trkpt>
      <trkpt lat="43.5209" lon="6.60634">
        <ele>99.9</ele>
        <time>2025-10-28T08:11:07.000Z</time>
      </trkpt>
      <trkpt lat="43.52091" lon="6.60632">
        <ele>100</ele>
        <time>2025-10-28T08:11:08.000Z</time>
      </trkpt>
      <trkpt lat="43.52092" lon="6.6063">
        <ele>100</ele>
        <time>2025-10-28T08:11:09.000Z</time>
      </trkpt>
      <trkpt lat="43.52092" lon="6.60628">
        <ele>100.1</ele>
        <time>2025-10-28T08:11:10.000Z</time>
      </trkpt>
      <trkpt lat="43.52092" lon="6.60625">
        <ele>100.2</ele>
        <time>2025-10-28T08:11:11.000Z</time>
      </trkpt>
      <trkpt lat="43.52091" lon="6.60622">
        <ele>100.2</ele>
        <time>2025-10-28T08:11:12.000Z</time>
      </trkpt>
      <trkpt lat="43.5209" lon="6.60619">
        <ele>100.3</ele>
        <time>2025-10-28T08:11:13.000Z</time>
      </trkpt>
      <trkpt lat="43.52089" lon="6.60616">
        <ele>100.4</ele>
        <time>2025-10-28T08:11:14.000Z</time>
      </trkpt>
      <trkpt lat="43.52089" lon="6.60613">
        <ele>100.5</ele>
        <time>2025-10-28T08:11:15.000Z</time>
      </trkpt>
      <trkpt lat="43.5209" lon="6.6061">
        <ele>100.5</ele>
        <time>2025-10-28T08:11:16.000Z</time>
      </trkpt>
      <trkpt lat="43.5209" lon="6.60606">
        <ele>100.6</ele>
        <time>2025-10-28T08:11:17.000Z</time>
      </trkpt>
      <trkpt lat="43.5209" lon="6.60602">
        <ele>100.7</ele>
        <time>2025-10-28T08:11:18.000Z</time>
      </trkpt>
      <trkpt lat="43.5209" lon="6.60599">
        <ele>100.8</ele>
        <time>2025-10-28T08:11:19.000Z</time>
      </trkpt>
      <trkpt lat="43.5209" lon="6.60595">
        <ele>100.9</ele>
        <time>2025-10-28T08:11:20.000Z</time>
      </trkpt>
      <trkpt lat="43.52089" lon="6.60591">
        <ele>101</ele>
        <time>2025-10-28T08:11:21.000Z</time>
      </trkpt>
      <trkpt lat="43.52089" lon="6.60587">
        <ele>101</ele>
        <time>2025-10-28T08:11:22.000Z</time>
      </trkpt>
      <trkpt lat="43.52087" lon="6.60584">
        <ele>101.1</ele>
        <time>2025-10-28T08:11:23.000Z</time>
      </trkpt>
      <trkpt lat="43.52086" lon="6.60581">
        <ele>101.2</ele>
        <time>2025-10-28T08:11:24.000Z</time>
      </trkpt>
      <trkpt lat="43.52086" lon="6.60579">
        <ele>101.3</ele>
        <time>2025-10-28T08:11:25.000Z</time>
      </trkpt>
      <trkpt lat="43.52087" lon="6.60576">
        <ele>101.3</ele>
        <time>2025-10-28T08:11:26.000Z</time>
      </trkpt>
      <trkpt lat="43.52088" lon="6.60573">
        <ele>101.4</ele>
        <time>2025-10-28T08:11:27.000Z</time>
      </trkpt>
      <trkpt lat="43.52091" lon="6.6057">
        <ele>101.5</ele>
        <time>2025-10-28T08:11:28.000Z</time>
      </trkpt>
      <trkpt lat="43.52093" lon="6.60567">
        <ele>101.6</ele>
        <time>2025-10-28T08:11:29.000Z</time>
      </trkpt>
      <trkpt lat="43.52094" lon="6.60562">
        <ele>101.7</ele>
        <time>2025-10-28T08:11:30.000Z</time>
      </trkpt>
      <trkpt lat="43.52096" lon="6.60558">
        <ele>101.8</ele>
        <time>2025-10-28T08:11:31.000Z</time>
      </trkpt>
      <trkpt lat="43.52098" lon="6.60554">
        <ele>102</ele>
        <time>2025-10-28T08:11:32.000Z</time>
      </trkpt>
      <trkpt lat="43.521" lon="6.60549">
        <ele>102.1</ele>
        <time>2025-10-28T08:11:33.000Z</time>
      </trkpt>
      <trkpt lat="43.52103" lon="6.60545">
        <ele>102.3</ele>
        <time>2025-10-28T08:11:34.000Z</time>
      </trkpt>
      <trkpt lat="43.52106" lon="6.60541">
        <ele>102.5</ele>
        <time>2025-10-28T08:11:35.000Z</time>
      </trkpt>
      <trkpt lat="43.52108" lon="6.60538">
        <ele>102.6</ele>
        <time>2025-10-28T08:11:36.000Z</time>
      </trkpt>
      <trkpt lat="43.52113" lon="6.60534">
        <ele>102.9</ele>
        <time>2025-10-28T08:11:37.000Z</time>
      </trkpt>
      <trkpt lat="43.52116" lon="6.6053">
        <ele>103.1</ele>
        <time>2025-10-28T08:11:38.000Z</time>
      </trkpt>
      <trkpt lat="43.52119" lon="6.60526">
        <ele>103.2</ele>
        <time>2025-10-28T08:11:39.000Z</time>
      </trkpt>
      <trkpt lat="43.52121" lon="6.60523">
        <ele>103.4</ele>
        <time>2025-10-28T08:11:40.000Z</time>
      </trkpt>
      <trkpt lat="43.52124" lon="6.6052">
        <ele>103.5</ele>
        <time>2025-10-28T08:11:41.000Z</time>
      </trkpt>
      <trkpt lat="43.52126" lon="6.60517">
        <ele>103.6</ele>
        <time>2025-10-28T08:11:42.000Z</time>
      </trkpt>
      <trkpt lat="43.52128" lon="6.60513">
        <ele>103.7</ele>
        <time>2025-10-28T08:11:43.000Z</time>
      </trkpt>
      <trkpt lat="43.52129" lon="6.6051">
        <ele>103.8</ele>
        <time>2025-10-28T08:11:44.000Z</time>
      </trkpt>
      <trkpt lat="43.5213" lon="6.60506">
        <ele>103.8</ele>
        <time>2025-10-28T08:11:45.000Z</time>
      </trkpt>
      <trkpt lat="43.52131" lon="6.60503">
        <ele>103.9</ele>
        <time>2025-10-28T08:11:46.000Z</time>
      </trkpt>
      <trkpt lat="43.52134" lon="6.605">
        <ele>104</ele>
        <time>2025-10-28T08:11:47.000Z</time>
      </trkpt>
      <trkpt lat="43.52136" lon="6.60497">
        <ele>104.1</ele>
        <time>2025-10-28T08:11:48.000Z</time>
      </trkpt>
      <trkpt lat="43.52139" lon="6.60494">
        <ele>104.1</ele>
        <time>2025-10-28T08:11:49.000Z</time>
      </trkpt>
      <trkpt lat="43.52141" lon="6.6049">
        <ele>104.2</ele>
        <time>2025-10-28T08:11:50.000Z</time>
      </trkpt>
      <trkpt lat="43.52143" lon="6.60486">
        <ele>104.2</ele>
        <time>2025-10-28T08:11:51.000Z</time>
      </trkpt>
      <trkpt lat="43.52145" lon="6.60482">
        <ele>104.1</ele>
        <time>2025-10-28T08:11:52.000Z</time>
      </trkpt>
      <trkpt lat="43.52147" lon="6.60478">
        <ele>104.1</ele>
        <time>2025-10-28T08:11:53.000Z</time>
      </trkpt>
      <trkpt lat="43.52148" lon="6.60473">
        <ele>104</ele>
        <time>2025-10-28T08:11:54.000Z</time>
      </trkpt>
      <trkpt lat="43.52149" lon="6.60468">
        <ele>104</ele>
        <time>2025-10-28T08:11:55.000Z</time>
      </trkpt>
      <trkpt lat="43.52149" lon="6.60462">
        <ele>103.9</ele>
        <time>2025-10-28T08:11:56.000Z</time>
      </trkpt>
      <trkpt lat="43.5215" lon="6.60456">
        <ele>103.8</ele>
        <time>2025-10-28T08:11:57.000Z</time>
      </trkpt>
      <trkpt lat="43.5215" lon="6.6045">
        <ele>103.7</ele>
        <time>2025-10-28T08:11:58.000Z</time>
      </trkpt>
      <trkpt lat="43.5215" lon="6.60444">
        <ele>103.6</ele>
        <time>2025-10-28T08:11:59.000Z</time>
      </trkpt>
      <trkpt lat="43.52151" lon="6.60439">
        <ele>103.6</ele>
        <time>2025-10-28T08:12:00.000Z</time>
      </trkpt>
      <trkpt lat="43.52152" lon="6.60434">
        <ele>103.5</ele>
        <time>2025-10-28T08:12:01.000Z</time>
      </trkpt>
      <trkpt lat="43.52154" lon="6.60429">
        <ele>103.5</ele>
        <time>2025-10-28T08:12:02.000Z</time>
      </trkpt>
      <trkpt lat="43.52156" lon="6.60425">
        <ele>103.5</ele>
        <time>2025-10-28T08:12:03.000Z</time>
      </trkpt>
      <trkpt lat="43.52158" lon="6.60421">
        <ele>103.4</ele>
        <time>2025-10-28T08:12:04.000Z</time>
      </trkpt>
      <trkpt lat="43.52159" lon="6.60416">
        <ele>103.4</ele>
        <time>2025-10-28T08:12:05.000Z</time>
      </trkpt>
      <trkpt lat="43.52159" lon="6.60412">
        <ele>103.3</ele>
        <time>2025-10-28T08:12:06.000Z</time>
      </trkpt>
      <trkpt lat="43.52158" lon="6.60408">
        <ele>103.3</ele>
        <time>2025-10-28T08:12:07.000Z</time>
      </trkpt>
      <trkpt lat="43.52156" lon="6.60404">
        <ele>103.3</ele>
        <time>2025-10-28T08:12:08.000Z</time>
      </trkpt>
      <trkpt lat="43.52156" lon="6.60401">
        <ele>103.3</ele>
        <time>2025-10-28T08:12:09.000Z</time>
      </trkpt>
      <trkpt lat="43.52156" lon="6.60397">
        <ele>103.3</ele>
        <time>2025-10-28T08:12:10.000Z</time>
      </trkpt>
      <trkpt lat="43.52156" lon="6.60393">
        <ele>103.3</ele>
        <time>2025-10-28T08:12:11.000Z</time>
      </trkpt>
      <trkpt lat="43.52158" lon="6.60388">
        <ele>103.3</ele>
        <time>2025-10-28T08:12:12.000Z</time>
      </trkpt>
      <trkpt lat="43.5216" lon="6.60383">
        <ele>103.3</ele>
        <time>2025-10-28T08:12:13.000Z</time>
      </trkpt>
      <trkpt lat="43.52161" lon="6.60378">
        <ele>103.3</ele>
        <time>2025-10-28T08:12:14.000Z</time>
      </trkpt>
      <trkpt lat="43.52163" lon="6.60373">
        <ele>103.4</ele>
        <time>2025-10-28T08:12:15.000Z</time>
      </trkpt>
      <trkpt lat="43.52164" lon="6.60368">
        <ele>103.4</ele>
        <time>2025-10-28T08:12:16.000Z</time>
      </trkpt>
      <trkpt lat="43.52165" lon="6.60363">
        <ele>103.5</ele>
        <time>2025-10-28T08:12:17.000Z</time>
      </trkpt>
      <trkpt lat="43.52165" lon="6.60357">
        <ele>103.6</ele>
        <time>2025-10-28T08:12:18.000Z</time>
      </trkpt>
      <trkpt lat="43.52165" lon="6.60351">
        <ele>103.6</ele>
        <time>2025-10-28T08:12:19.000Z</time>
      </trkpt>
      <trkpt lat="43.52165" lon="6.60345">
        <ele>103.7</ele>
        <time>2025-10-28T08:12:20.000Z</time>
      </trkpt>
      <trkpt lat="43.52164" lon="6.60339">
        <ele>103.8</ele>
        <time>2025-10-28T08:12:21.000Z</time>
      </trkpt>
      <trkpt lat="43.52163" lon="6.60333">
        <ele>103.8</ele>
        <time>2025-10-28T08:12:22.000Z</time>
      </trkpt>
      <trkpt lat="43.52163" lon="6.60326">
        <ele>103.9</ele>
        <time>2025-10-28T08:12:23.000Z</time>
      </trkpt>
      <trkpt lat="43.52163" lon="6.6032">
        <ele>104</ele>
        <time>2025-10-28T08:12:24.000Z</time>
      </trkpt>
      <trkpt lat="43.52164" lon="6.60314">
        <ele>104.1</ele>
        <time>2025-10-28T08:12:25.000Z</time>
      </trkpt>
      <trkpt lat="43.52165" lon="6.60307">
        <ele>104.2</ele>
        <time>2025-10-28T08:12:26.000Z</time>
      </trkpt>
      <trkpt lat="43.52166" lon="6.60301">
        <ele>104.2</ele>
        <time>2025-10-28T08:12:27.000Z</time>
      </trkpt>
      <trkpt lat="43.52166" lon="6.60295">
        <ele>104.3</ele>
        <time>2025-10-28T08:12:28.000Z</time>
      </trkpt>
      <trkpt lat="43.52164" lon="6.60291">
        <ele>104.3</ele>
        <time>2025-10-28T08:12:29.000Z</time>
      </trkpt>
      <trkpt lat="43.52161" lon="6.60289">
        <ele>104.3</ele>
        <time>2025-10-28T08:12:30.000Z</time>
      </trkpt>
      <trkpt lat="43.52157" lon="6.60288">
        <ele>104.3</ele>
        <time>2025-10-28T08:12:31.000Z</time>
      </trkpt>
      <trkpt lat="43.52152" lon="6.60288">
        <ele>104.3</ele>
        <time>2025-10-28T08:12:32.000Z</time>
      </trkpt>
      <trkpt lat="43.52147" lon="6.60288">
        <ele>104.2</ele>
        <time>2025-10-28T08:12:33.000Z</time>
      </trkpt>
      <trkpt lat="43.52142" lon="6.60289">
        <ele>104.2</ele>
        <time>2025-10-28T08:12:34.000Z</time>
      </trkpt>
      <trkpt lat="43.52138" lon="6.6029">
        <ele>104.1</ele>
        <time>2025-10-28T08:12:35.000Z</time>
      </trkpt>
      <trkpt lat="43.52133" lon="6.60291">
        <ele>104.1</ele>
        <time>2025-10-28T08:12:36.000Z</time>
      </trkpt>
      <trkpt lat="43.52128" lon="6.60292">
        <ele>104.1</ele>
        <time>2025-10-28T08:12:37.000Z</time>
      </trkpt>
      <trkpt lat="43.52124" lon="6.60292">
        <ele>104.1</ele>
        <time>2025-10-28T08:12:38.000Z</time>
      </trkpt>
      <trkpt lat="43.52119" lon="6.60293">
        <ele>104.1</ele>
        <time>2025-10-28T08:12:39.000Z</time>
      </trkpt>
      <trkpt lat="43.52115" lon="6.60294">
        <ele>104.2</ele>
        <time>2025-10-28T08:12:40.000Z</time>
      </trkpt>
      <trkpt lat="43.52111" lon="6.60295">
        <ele>104.2</ele>
        <time>2025-10-28T08:12:41.000Z</time>
      </trkpt>
      <trkpt lat="43.52107" lon="6.60295">
        <ele>104.2</ele>
        <time>2025-10-28T08:12:42.000Z</time>
      </trkpt>
      <trkpt lat="43.52103" lon="6.60295">
        <ele>104.3</ele>
        <time>2025-10-28T08:12:43.000Z</time>
      </trkpt>
      <trkpt lat="43.52099" lon="6.60296">
        <ele>104.3</ele>
        <time>2025-10-28T08:12:44.000Z</time>
      </trkpt>
      <trkpt lat="43.52095" lon="6.60297">
        <ele>104.3</ele>
        <time>2025-10-28T08:12:45.000Z</time>
      </trkpt>
      <trkpt lat="43.52091" lon="6.60297">
        <ele>104.4</ele>
        <time>2025-10-28T08:12:46.000Z</time>
      </trkpt>
      <trkpt lat="43.52086" lon="6.60298">
        <ele>104.4</ele>
        <time>2025-10-28T08:12:47.000Z</time>
      </trkpt>
      <trkpt lat="43.52082" lon="6.60298">
        <ele>104.5</ele>
        <time>2025-10-28T08:12:48.000Z</time>
      </trkpt>
      <trkpt lat="43.52078" lon="6.60299">
        <ele>104.6</ele>
        <time>2025-10-28T08:12:49.000Z</time>
      </trkpt>
      <trkpt lat="43.52074" lon="6.603">
        <ele>104.6</ele>
        <time>2025-10-28T08:12:50.000Z</time>
      </trkpt>
      <trkpt lat="43.5207" lon="6.603">
        <ele>104.7</ele>
        <time>2025-10-28T08:12:51.000Z</time>
      </trkpt>
      <trkpt lat="43.52065" lon="6.60301">
        <ele>104.9</ele>
        <time>2025-10-28T08:12:52.000Z</time>
      </trkpt>
      <trkpt lat="43.52061" lon="6.60302">
        <ele>105</ele>
        <time>2025-10-28T08:12:53.000Z</time>
      </trkpt>
      <trkpt lat="43.52057" lon="6.60302">
        <ele>105.1</ele>
        <time>2025-10-28T08:12:54.000Z</time>
      </trkpt>
      <trkpt lat="43.52054" lon="6.60303">
        <ele>105.3</ele>
        <time>2025-10-28T08:12:55.000Z</time>
      </trkpt>
      <trkpt lat="43.5205" lon="6.60304">
        <ele>105.4</ele>
        <time>2025-10-28T08:12:56.000Z</time>
      </trkpt>
      <trkpt lat="43.52046" lon="6.60305">
        <ele>105.6</ele>
        <time>2025-10-28T08:12:57.000Z</time>
      </trkpt>
      <trkpt lat="43.52042" lon="6.60305">
        <ele>105.8</ele>
        <time>2025-10-28T08:12:58.000Z</time>
      </trkpt>
      <trkpt lat="43.52038" lon="6.60306">
        <ele>105.9</ele>
        <time>2025-10-28T08:12:59.000Z</time>
      </trkpt>
      <trkpt lat="43.52034" lon="6.60307">
        <ele>106.1</ele>
        <time>2025-10-28T08:13:00.000Z</time>
      </trkpt>
      <trkpt lat="43.52029" lon="6.60308">
        <ele>106.3</ele>
        <time>2025-10-28T08:13:01.000Z</time>
      </trkpt>
      <trkpt lat="43.52025" lon="6.60309">
        <ele>106.5</ele>
        <time>2025-10-28T08:13:02.000Z</time>
      </trkpt>
      <trkpt lat="43.52021" lon="6.60309">
        <ele>106.6</ele>
        <time>2025-10-28T08:13:03.000Z</time>
      </trkpt>
      <trkpt lat="43.52016" lon="6.6031">
        <ele>106.7</ele>
        <time>2025-10-28T08:13:04.000Z</time>
      </trkpt>
      <trkpt lat="43.52012" lon="6.60311">
        <ele>106.8</ele>
        <time>2025-10-28T08:13:05.000Z</time>
      </trkpt>
      <trkpt lat="43.52007" lon="6.60312">
        <ele>106.8</ele>
        <time>2025-10-28T08:13:06.000Z</time>
      </trkpt>
      <trkpt lat="43.52003" lon="6.60313">
        <ele>106.7</ele>
        <time>2025-10-28T08:13:07.000Z</time>
      </trkpt>
      <trkpt lat="43.51998" lon="6.60314">
        <ele>106.6</ele>
        <time>2025-10-28T08:13:08.000Z</time>
      </trkpt>
      <trkpt lat="43.51993" lon="6.60314">
        <ele>106.5</ele>
        <time>2025-10-28T08:13:09.000Z</time>
      </trkpt>
      <trkpt lat="43.51988" lon="6.60315">
        <ele>106.4</ele>
        <time>2025-10-28T08:13:10.000Z</time>
      </trkpt>
      <trkpt lat="43.51982" lon="6.60316">
        <ele>106.2</ele>
        <time>2025-10-28T08:13:11.000Z</time>
      </trkpt>
      <trkpt lat="43.51977" lon="6.60317">
        <ele>106</ele>
        <time>2025-10-28T08:13:12.000Z</time>
      </trkpt>
      <trkpt lat="43.51972" lon="6.60318">
        <ele>105.8</ele>
        <time>2025-10-28T08:13:13.000Z</time>
      </trkpt>
      <trkpt lat="43.51966" lon="6.60319">
        <ele>105.6</ele>
        <time>2025-10-28T08:13:14.000Z</time>
      </trkpt>
      <trkpt lat="43.51961" lon="6.6032">
        <ele>105.4</ele>
        <time>2025-10-28T08:13:15.000Z</time>
      </trkpt>
      <trkpt lat="43.51955" lon="6.60321">
        <ele>105.2</ele>
        <time>2025-10-28T08:13:16.000Z</time>
      </trkpt>
      <trkpt lat="43.5195" lon="6.60322">
        <ele>105</ele>
        <time>2025-10-28T08:13:17.000Z</time>
      </trkpt>
      <trkpt lat="43.51945" lon="6.60323">
        <ele>104.8</ele>
        <time>2025-10-28T08:13:18.000Z</time>
      </trkpt>
      <trkpt lat="43.51941" lon="6.60323">
        <ele>104.6</ele>
        <time>2025-10-28T08:13:19.000Z</time>
      </trkpt>
      <trkpt lat="43.51936" lon="6.60324">
        <ele>104.4</ele>
        <time>2025-10-28T08:13:20.000Z</time>
      </trkpt>
      <trkpt lat="43.51931" lon="6.60324">
        <ele>104.2</ele>
        <time>2025-10-28T08:13:21.000Z</time>
      </trkpt>
      <trkpt lat="43.51927" lon="6.60325">
        <ele>103.9</ele>
        <time>2025-10-28T08:13:22.000Z</time>
      </trkpt>
      <trkpt lat="43.51922" lon="6.60325">
        <ele>103.7</ele>
        <time>2025-10-28T08:13:23.000Z</time>
      </trkpt>
      <trkpt lat="43.51916" lon="6.60326">
        <ele>103.4</ele>
        <time>2025-10-28T08:13:24.000Z</time>
      </trkpt>
      <trkpt lat="43.51912" lon="6.60326">
        <ele>103.2</ele>
        <time>2025-10-28T08:13:25.000Z</time>
      </trkpt>
      <trkpt lat="43.51908" lon="6.60326">
        <ele>103</ele>
        <time>2025-10-28T08:13:26.000Z</time>
      </trkpt>
      <trkpt lat="43.51903" lon="6.60325">
        <ele>102.7</ele>
        <time>2025-10-28T08:13:27.000Z</time>
      </trkpt>
      <trkpt lat="43.51899" lon="6.60325">
        <ele>102.4</ele>
        <time>2025-10-28T08:13:28.000Z</time>
      </trkpt>
      <trkpt lat="43.51895" lon="6.60325">
        <ele>102.1</ele>
        <time>2025-10-28T08:13:29.000Z</time>
      </trkpt>
      <trkpt lat="43.51892" lon="6.60326">
        <ele>101.8</ele>
        <time>2025-10-28T08:13:30.000Z</time>
      </trkpt>
      <trkpt lat="43.51889" lon="6.60326">
        <ele>101.6</ele>
        <time>2025-10-28T08:13:31.000Z</time>
      </trkpt>
      <trkpt lat="43.51886" lon="6.60326">
        <ele>101.3</ele>
        <time>2025-10-28T08:13:32.000Z</time>
      </trkpt>
      <trkpt lat="43.51884" lon="6.60326">
        <ele>101</ele>
        <time>2025-10-28T08:13:33.000Z</time>
      </trkpt>
      <trkpt lat="43.51882" lon="6.60326">
        <ele>100.7</ele>
        <time>2025-10-28T08:13:34.000Z</time>
      </trkpt>
      <trkpt lat="43.5188" lon="6.60326">
        <ele>100.5</ele>
        <time>2025-10-28T08:13:35.000Z</time>
      </trkpt>
      <trkpt lat="43.51878" lon="6.60327">
        <ele>100.2</ele>
        <time>2025-10-28T08:13:36.000Z</time>
      </trkpt>
      <trkpt lat="43.51876" lon="6.60327">
        <ele>99.9</ele>
        <time>2025-10-28T08:13:37.000Z</time>
      </trkpt>
      <trkpt lat="43.51873" lon="6.60328">
        <ele>99.5</ele>
        <time>2025-10-28T08:13:38.000Z</time>
      </trkpt>
      <trkpt lat="43.5187" lon="6.60328">
        <ele>99</ele>
        <time>2025-10-28T08:13:39.000Z</time>
      </trkpt>
      <trkpt lat="43.51867" lon="6.60328">
        <ele>98.6</ele>
        <time>2025-10-28T08:13:40.000Z</time>
      </trkpt>
      <trkpt lat="43.51864" lon="6.60329">
        <ele>98.1</ele>
        <time>2025-10-28T08:13:41.000Z</time>
      </trkpt>
      <trkpt lat="43.5186" lon="6.6033">
        <ele>97.6</ele>
        <time>2025-10-28T08:13:42.000Z</time>
      </trkpt>
      <trkpt lat="43.51857" lon="6.6033">
        <ele>97.2</ele>
        <time>2025-10-28T08:13:43.000Z</time>
      </trkpt>
      <trkpt lat="43.51855" lon="6.60331">
        <ele>96.8</ele>
        <time>2025-10-28T08:13:44.000Z</time>
      </trkpt>
      <trkpt lat="43.51851" lon="6.60332">
        <ele>96.3</ele>
        <time>2025-10-28T08:13:45.000Z</time>
      </trkpt>
      <trkpt lat="43.51847" lon="6.60333">
        <ele>95.9</ele>
        <time>2025-10-28T08:13:46.000Z</time>
      </trkpt>
      <trkpt lat="43.51844" lon="6.60334">
        <ele>95.4</ele>
        <time>2025-10-28T08:13:47.000Z</time>
      </trkpt>
      <trkpt lat="43.5184" lon="6.60335">
        <ele>95</ele>
        <time>2025-10-28T08:13:48.000Z</time>
      </trkpt>
      <trkpt lat="43.51837" lon="6.60336">
        <ele>94.6</ele>
        <time>2025-10-28T08:13:49.000Z</time>
      </trkpt>
      <trkpt lat="43.51833" lon="6.60336">
        <ele>94.3</ele>
        <time>2025-10-28T08:13:50.000Z</time>
      </trkpt>
      <trkpt lat="43.51829" lon="6.60336">
        <ele>93.9</ele>
        <time>2025-10-28T08:13:51.000Z</time>
      </trkpt>
      <trkpt lat="43.51825" lon="6.60336">
        <ele>93.6</ele>
        <time>2025-10-28T08:13:52.000Z</time>
      </trkpt>
      <trkpt lat="43.51821" lon="6.60335">
        <ele>93.4</ele>
        <time>2025-10-28T08:13:53.000Z</time>
      </trkpt>
      <trkpt lat="43.51818" lon="6.60335">
        <ele>93.2</ele>
        <time>2025-10-28T08:13:54.000Z</time>
      </trkpt>
      <trkpt lat="43.51814" lon="6.60336">
        <ele>93</ele>
        <time>2025-10-28T08:13:55.000Z</time>
      </trkpt>
      <trkpt lat="43.51811" lon="6.60336">
        <ele>92.8</ele>
        <time>2025-10-28T08:13:56.000Z</time>
      </trkpt>
      <trkpt lat="43.51808" lon="6.60337">
        <ele>92.7</ele>
        <time>2025-10-28T08:13:57.000Z</time>
      </trkpt>
      <trkpt lat="43.51805" lon="6.60337">
        <ele>92.5</ele>
        <time>2025-10-28T08:13:58.000Z</time>
      </trkpt>
      <trkpt lat="43.51803" lon="6.60336">
        <ele>92.4</ele>
        <time>2025-10-28T08:13:59.000Z</time>
      </trkpt>
      <trkpt lat="43.518" lon="6.60335">
        <ele>92.2</ele>
        <time>2025-10-28T08:14:00.000Z</time>
      </trkpt>
      <trkpt lat="43.51797" lon="6.60333">
        <ele>92.1</ele>
        <time>2025-10-28T08:14:01.000Z</time>
      </trkpt>
      <trkpt lat="43.51795" lon="6.60333">
        <ele>92</ele>
        <time>2025-10-28T08:14:02.000Z</time>
      </trkpt>
      <trkpt lat="43.51793" lon="6.60335">
        <ele>91.9</ele>
        <time>2025-10-28T08:14:03.000Z</time>
      </trkpt>
      <trkpt lat="43.5179" lon="6.60336">
        <ele>91.8</ele>
        <time>2025-10-28T08:14:04.000Z</time>
      </trkpt>
      <trkpt lat="43.51789" lon="6.60338">
        <ele>91.7</ele>
        <time>2025-10-28T08:14:05.000Z</time>
      </trkpt>
      <trkpt lat="43.51787" lon="6.60339">
        <ele>91.6</ele>
        <time>2025-10-28T08:14:06.000Z</time>
      </trkpt>
      <trkpt lat="43.51785" lon="6.6034">
        <ele>91.5</ele>
        <time>2025-10-28T08:14:07.000Z</time>
      </trkpt>
      <trkpt lat="43.51783" lon="6.60341">
        <ele>91.4</ele>
        <time>2025-10-28T08:14:08.000Z</time>
      </trkpt>
      <trkpt lat="43.51781" lon="6.60342">
        <ele>91.3</ele>
        <time>2025-10-28T08:14:09.000Z</time>
      </trkpt>
      <trkpt lat="43.51777" lon="6.60341">
        <ele>91.2</ele>
        <time>2025-10-28T08:14:10.000Z</time>
      </trkpt>
      <trkpt lat="43.51774" lon="6.60341">
        <ele>91</ele>
        <time>2025-10-28T08:14:11.000Z</time>
      </trkpt>
      <trkpt lat="43.5177" lon="6.6034">
        <ele>90.9</ele>
        <time>2025-10-28T08:14:12.000Z</time>
      </trkpt>
      <trkpt lat="43.51766" lon="6.60338">
        <ele>90.8</ele>
        <time>2025-10-28T08:14:13.000Z</time>
      </trkpt>
      <trkpt lat="43.51763" lon="6.60336">
        <ele>90.6</ele>
        <time>2025-10-28T08:14:14.000Z</time>
      </trkpt>
      <trkpt lat="43.51759" lon="6.60332">
        <ele>90.5</ele>
        <time>2025-10-28T08:14:15.000Z</time>
      </trkpt>
      <trkpt lat="43.51756" lon="6.60329">
        <ele>90.4</ele>
        <time>2025-10-28T08:14:16.000Z</time>
      </trkpt>
      <trkpt lat="43.51754" lon="6.60325">
        <ele>90.4</ele>
        <time>2025-10-28T08:14:17.000Z</time>
      </trkpt>
      <trkpt lat="43.51752" lon="6.6032">
        <ele>90.3</ele>
        <time>2025-10-28T08:14:18.000Z</time>
      </trkpt>
      <trkpt lat="43.5175" lon="6.60313">
        <ele>90.2</ele>
        <time>2025-10-28T08:14:19.000Z</time>
      </trkpt>
      <trkpt lat="43.51749" lon="6.60306">
        <ele>90.2</ele>
        <time>2025-10-28T08:14:20.000Z</time>
      </trkpt>
      <trkpt lat="43.51748" lon="6.603">
        <ele>90.2</ele>
        <time>2025-10-28T08:14:21.000Z</time>
      </trkpt>
      <trkpt lat="43.51747" lon="6.60294">
        <ele>90.2</ele>
        <time>2025-10-28T08:14:22.000Z</time>
      </trkpt>
      <trkpt lat="43.51746" lon="6.60289">
        <ele>90.1</ele>
        <time>2025-10-28T08:14:23.000Z</time>
      </trkpt>
      <trkpt lat="43.51744" lon="6.60283">
        <ele>90.1</ele>
        <time>2025-10-28T08:14:24.000Z</time>
      </trkpt>
      <trkpt lat="43.5174" lon="6.60278">
        <ele>90.1</ele>
        <time>2025-10-28T08:14:25.000Z</time>
      </trkpt>
      <trkpt lat="43.51737" lon="6.60275">
        <ele>90</ele>
        <time>2025-10-28T08:14:26.000Z</time>
      </trkpt>
      <trkpt lat="43.51731" lon="6.6027">
        <ele>89.9</ele>
        <time>2025-10-28T08:14:27.000Z</time>
      </trkpt>
      <trkpt lat="43.51728" lon="6.60266">
        <ele>89.9</ele>
        <time>2025-10-28T08:14:28.000Z</time>
      </trkpt>
      <trkpt lat="43.51722" lon="6.60261">
        <ele>89.8</ele>
        <time>2025-10-28T08:14:29.000Z</time>
      </trkpt>
      <trkpt lat="43.51717" lon="6.60256">
        <ele>89.7</ele>
        <time>2025-10-28T08:14:30.000Z</time>
      </trkpt>
      <trkpt lat="43.51713" lon="6.60253">
        <ele>89.7</ele>
        <time>2025-10-28T08:14:31.000Z</time>
      </trkpt>
      <trkpt lat="43.51709" lon="6.60248">
        <ele>89.7</ele>
        <time>2025-10-28T08:14:32.000Z</time>
      </trkpt>
      <trkpt lat="43.51705" lon="6.60243">
        <ele>89.6</ele>
        <time>2025-10-28T08:14:33.000Z</time>
      </trkpt>
      <trkpt lat="43.51702" lon="6.60241">
        <ele>89.6</ele>
        <time>2025-10-28T08:14:34.000Z</time>
      </trkpt>
      <trkpt lat="43.51699" lon="6.6024">
        <ele>89.6</ele>
        <time>2025-10-28T08:14:35.000Z</time>
      </trkpt>
      <trkpt lat="43.51697" lon="6.60239">
        <ele>89.5</ele>
        <time>2025-10-28T08:14:36.000Z</time>
      </trkpt>
      <trkpt lat="43.51694" lon="6.6024">
        <ele>89.5</ele>
        <time>2025-10-28T08:14:37.000Z</time>
      </trkpt>
      <trkpt lat="43.5169" lon="6.60242">
        <ele>89.4</ele>
        <time>2025-10-28T08:14:38.000Z</time>
      </trkpt>
      <trkpt lat="43.51686" lon="6.60243">
        <ele>89.3</ele>
        <time>2025-10-28T08:14:39.000Z</time>
      </trkpt>
      <trkpt lat="43.51682" lon="6.60244">
        <ele>89.3</ele>
        <time>2025-10-28T08:14:40.000Z</time>
      </trkpt>
      <trkpt lat="43.51678" lon="6.60243">
        <ele>89.2</ele>
        <time>2025-10-28T08:14:41.000Z</time>
      </trkpt>
      <trkpt lat="43.51676" lon="6.60241">
        <ele>89.1</ele>
        <time>2025-10-28T08:14:42.000Z</time>
      </trkpt>
      <trkpt lat="43.51671" lon="6.60238">
        <ele>89</ele>
        <time>2025-10-28T08:14:43.000Z</time>
      </trkpt>
      <trkpt lat="43.51667" lon="6.60235">
        <ele>88.9</ele>
        <time>2025-10-28T08:14:44.000Z</time>
      </trkpt>
      <trkpt lat="43.51663" lon="6.60232">
        <ele>88.9</ele>
        <time>2025-10-28T08:14:45.000Z</time>
      </trkpt>
      <trkpt lat="43.51659" lon="6.60229">
        <ele>88.8</ele>
        <time>2025-10-28T08:14:46.000Z</time>
      </trkpt>
      <trkpt lat="43.51656" lon="6.60226">
        <ele>88.7</ele>
        <time>2025-10-28T08:14:47.000Z</time>
      </trkpt>
      <trkpt lat="43.51652" lon="6.60226">
        <ele>88.6</ele>
        <time>2025-10-28T08:14:48.000Z</time>
      </trkpt>
      <trkpt lat="43.5165" lon="6.60228">
        <ele>88.6</ele>
        <time>2025-10-28T08:14:49.000Z</time>
      </trkpt>
      <trkpt lat="43.51647" lon="6.6023">
        <ele>88.5</ele>
        <time>2025-10-28T08:14:50.000Z</time>
      </trkpt>
      <trkpt lat="43.51644" lon="6.60232">
        <ele>88.5</ele>
        <time>2025-10-28T08:14:51.000Z</time>
      </trkpt>
      <trkpt lat="43.51641" lon="6.60234">
        <ele>88.4</ele>
        <time>2025-10-28T08:14:52.000Z</time>
      </trkpt>
      <trkpt lat="43.51637" lon="6.60235">
        <ele>88.3</ele>
        <time>2025-10-28T08:14:53.000Z</time>
      </trkpt>
      <trkpt lat="43.51634" lon="6.60235">
        <ele>88.2</ele>
        <time>2025-10-28T08:14:54.000Z</time>
      </trkpt>
      <trkpt lat="43.5163" lon="6.60236">
        <ele>88.1</ele>
        <time>2025-10-28T08:14:55.000Z</time>
      </trkpt>
      <trkpt lat="43.51628" lon="6.60237">
        <ele>88</ele>
        <time>2025-10-28T08:14:56.000Z</time>
      </trkpt>
      <trkpt lat="43.51624" lon="6.6024">
        <ele>87.8</ele>
        <time>2025-10-28T08:14:57.000Z</time>
      </trkpt>
      <trkpt lat="43.51621" lon="6.60244">
        <ele>87.7</ele>
        <time>2025-10-28T08:14:58.000Z</time>
      </trkpt>
      <trkpt lat="43.51618" lon="6.60248">
        <ele>87.6</ele>
        <time>2025-10-28T08:14:59.000Z</time>
      </trkpt>
      <trkpt lat="43.51615" lon="6.60253">
        <ele>87.5</ele>
        <time>2025-10-28T08:15:00.000Z</time>
      </trkpt>
      <trkpt lat="43.51613" lon="6.60257">
        <ele>87.4</ele>
        <time>2025-10-28T08:15:01.000Z</time>
      </trkpt>
      <trkpt lat="43.5161" lon="6.60259">
        <ele>87.3</ele>
        <time>2025-10-28T08:15:02.000Z</time>
      </trkpt>
      <trkpt lat="43.51607" lon="6.60259">
        <ele>87.2</ele>
        <time>2025-10-28T08:15:03.000Z</time>
      </trkpt>
      <trkpt lat="43.51605" lon="6.60258">
        <ele>87.2</ele>
        <time>2025-10-28T08:15:04.000Z</time>
      </trkpt>
      <trkpt lat="43.51602" lon="6.60256">
        <ele>87</ele>
        <time>2025-10-28T08:15:05.000Z</time>
      </trkpt>
      <trkpt lat="43.516" lon="6.60254">
        <ele>87</ele>
        <time>2025-10-28T08:15:06.000Z</time>
      </trkpt>
      <trkpt lat="43.51597" lon="6.60251">
        <ele>86.8</ele>
        <time>2025-10-28T08:15:07.000Z</time>
      </trkpt>
      <trkpt lat="43.51594" lon="6.6025">
        <ele>86.7</ele>
        <time>2025-10-28T08:15:08.000Z</time>
      </trkpt>
      <trkpt lat="43.51591" lon="6.60251">
        <ele>86.6</ele>
        <time>2025-10-28T08:15:09.000Z</time>
      </trkpt>
      <trkpt lat="43.51588" lon="6.60253">
        <ele>86.5</ele>
        <time>2025-10-28T08:15:10.000Z</time>
      </trkpt>
      <trkpt lat="43.51585" lon="6.60255">
        <ele>86.5</ele>
        <time>2025-10-28T08:15:11.000Z</time>
      </trkpt>
      <trkpt lat="43.51582" lon="6.60257">
        <ele>86.4</ele>
        <time>2025-10-28T08:15:12.000Z</time>
      </trkpt>
      <trkpt lat="43.51579" lon="6.6026">
        <ele>86.3</ele>
        <time>2025-10-28T08:15:13.000Z</time>
      </trkpt>
      <trkpt lat="43.51577" lon="6.60262">
        <ele>86.2</ele>
        <time>2025-10-28T08:15:14.000Z</time>
      </trkpt>
      <trkpt lat="43.51574" lon="6.60265">
        <ele>86.2</ele>
        <time>2025-10-28T08:15:15.000Z</time>
      </trkpt>
      <trkpt lat="43.5157" lon="6.60268">
        <ele>86.1</ele>
        <time>2025-10-28T08:15:16.000Z</time>
      </trkpt>
      <trkpt lat="43.51566" lon="6.6027">
        <ele>86</ele>
        <time>2025-10-28T08:15:17.000Z</time>
      </trkpt>
      <trkpt lat="43.51563" lon="6.60272">
        <ele>86</ele>
        <time>2025-10-28T08:15:18.000Z</time>
      </trkpt>
      <trkpt lat="43.5156" lon="6.60273">
        <ele>86</ele>
        <time>2025-10-28T08:15:19.000Z</time>
      </trkpt>
      <trkpt lat="43.51557" lon="6.60275">
        <ele>86</ele>
        <time>2025-10-28T08:15:20.000Z</time>
      </trkpt>
      <trkpt lat="43.51555" lon="6.60276">
        <ele>86</ele>
        <time>2025-10-28T08:15:21.000Z</time>
      </trkpt>
      <trkpt lat="43.51555" lon="6.60276">
        <ele>86</ele>
        <time>2025-10-28T08:15:22.000Z</time>
      </trkpt>
      <trkpt lat="43.51555" lon="6.60277">
        <ele>86</ele>
        <time>2025-10-28T08:15:23.000Z</time>
      </trkpt>
      <trkpt lat="43.51555" lon="6.60277">
        <ele>86</ele>
        <time>2025-10-28T08:15:24.000Z</time>
      </trkpt>
      <trkpt lat="43.51555" lon="6.60277">
        <ele>86</ele>
        <time>2025-10-28T08:15:25.000Z</time>
      </trkpt>
      <trkpt lat="43.51555" lon="6.60276">
        <ele>86</ele>
        <time>2025-10-28T08:15:26.000Z</time>
      </trkpt>
      <trkpt lat="43.51555" lon="6.60276">
        <ele>86</ele>
        <time>2025-10-28T08:15:27.000Z</time>
      </trkpt>
      <trkpt lat="43.51555" lon="6.60275">
        <ele>86</ele>
        <time>2025-10-28T08:15:28.000Z</time>
      </trkpt>
      <trkpt lat="43.51556" lon="6.60275">
        <ele>86</ele>
        <time>2025-10-28T08:15:29.000Z</time>
      </trkpt>
      <trkpt lat="43.51556" lon="6.60275">
        <ele>86</ele>
        <time>2025-10-28T08:15:30.000Z</time>
      </trkpt>
      <trkpt lat="43.51556" lon="6.60275">
        <ele>86</ele>
        <time>2025-10-28T08:15:31.000Z</time>
      </trkpt>
      <trkpt lat="43.51556" lon="6.60275">
        <ele>86</ele>
        <time>2025-10-28T08:15:32.000Z</time>
      </trkpt>
      <trkpt lat="43.51556" lon="6.60275">
        <ele>86</ele>
        <time>2025-10-28T08:15:33.000Z</time>
      </trkpt>
      <trkpt lat="43.51556" lon="6.60274">
        <ele>86</ele>
        <time>2025-10-28T08:15:34.000Z</time>
      </trkpt>
      <trkpt lat="43.51556" lon="6.60274">
        <ele>86</ele>
        <time>2025-10-28T08:15:35.000Z</time>
      </trkpt>
      <trkpt lat="43.51556" lon="6.60274">
        <ele>86</ele>
        <time>2025-10-28T08:15:36.000Z</time>
      </trkpt>
      <trkpt lat="43.51556" lon="6.60274">
        <ele>86</ele>
        <time>2025-10-28T08:15:37.000Z</time>
      </trkpt>
      <trkpt lat="43.51556" lon="6.60274">
        <ele>86</ele>
        <time>2025-10-28T08:15:38.000Z</time>
      </trkpt>
      <trkpt lat="43.51556" lon="6.60274">
        <ele>86</ele>
        <time>2025-10-28T08:15:39.000Z</time>
      </trkpt>
      <trkpt lat="43.51556" lon="6.60274">
        <ele>86</ele>
        <time>2025-10-28T08:15:40.000Z</time>
      </trkpt>
      <trkpt lat="43.51556" lon="6.60274">
        <ele>86</ele>
        <time>2025-10-28T08:15:41.000Z</time>
      </trkpt>
      <trkpt lat="43.51556" lon="6.60274">
        <ele>86</ele>
        <time>2025-10-28T08:15:42.000Z</time>
      </trkpt>
      <trkpt lat="43.51556" lon="6.60274">
        <ele>86</ele>
        <time>2025-10-28T08:15:43.000Z</time>
      </trkpt>
      <trkpt lat="43.51556" lon="6.60274">
        <ele>86</ele>
        <time>2025-10-28T08:15:44.000Z</time>
      </trkpt>
      <trkpt lat="43.51556" lon="6.60274">
        <ele>86</ele>
        <time>2025-10-28T08:15:45.000Z</time>
      </trkpt>
      <trkpt lat="43.51556" lon="6.60274">
        <ele>86</ele>
        <time>2025-10-28T08:15:46.000Z</time>
      </trkpt>
      <trkpt lat="43.51556" lon="6.60274">
        <ele>86</ele>
        <time>2025-10-28T08:15:47.000Z</time>
      </trkpt>
      <trkpt lat="43.51556" lon="6.60274">
        <ele>86</ele>
        <time>2025-10-28T08:15:48.000Z</time>
      </trkpt>
      <trkpt lat="43.51556" lon="6.60274">
        <ele>86</ele>
        <time>2025-10-28T08:15:49.000Z</time>
      </trkpt>
      <trkpt lat="43.51556" lon="6.60273">
        <ele>86</ele>
        <time>2025-10-28T08:15:50.000Z</time>
      </trkpt>
      <trkpt lat="43.51556" lon="6.60273">
        <ele>86</ele>
        <time>2025-10-28T08:15:51.000Z</time>
      </trkpt>
      <trkpt lat="43.51556" lon="6.60273">
        <ele>86</ele>
        <time>2025-10-28T08:15:52.000Z</time>
      </trkpt>
      <trkpt lat="43.51556" lon="6.60273">
        <ele>86</ele>
        <time>2025-10-28T08:15:53.000Z</time>
      </trkpt>
      <trkpt lat="43.51556" lon="6.60273">
        <ele>86</ele>
        <time>2025-10-28T08:15:54.000Z</time>
      </trkpt>
      <trkpt lat="43.51556" lon="6.60273">
        <ele>86</ele>
        <time>2025-10-28T08:15:55.000Z</time>
      </trkpt>
      <trkpt lat="43.51556" lon="6.60273">
        <ele>86</ele>
        <time>2025-10-28T08:15:56.000Z</time>
      </trkpt>
      <trkpt lat="43.51556" lon="6.60273">
        <ele>86</ele>
        <time>2025-10-28T08:15:57.000Z</time>
      </trkpt>
      <trkpt lat="43.51556" lon="6.60273">
        <ele>86</ele>
        <time>2025-10-28T08:15:58.000Z</time>
      </trkpt>
      <trkpt lat="43.51556" lon="6.60272">
        <ele>86</ele>
        <time>2025-10-28T08:15:59.000Z</time>
      </trkpt>
      <trkpt lat="43.51556" lon="6.60272">
        <ele>86</ele>
        <time>2025-10-28T08:16:00.000Z</time>
      </trkpt>
      <trkpt lat="43.51556" lon="6.60272">
        <ele>86</ele>
        <time>2025-10-28T08:16:01.000Z</time>
      </trkpt>
      <trkpt lat="43.51556" lon="6.60272">
        <ele>86</ele>
        <time>2025-10-28T08:16:02.000Z</time>
      </trkpt>
      <trkpt lat="43.51556" lon="6.60272">
        <ele>86</ele>
        <time>2025-10-28T08:16:03.000Z</time>
      </trkpt>
      <trkpt lat="43.51556" lon="6.60272">
        <ele>86</ele>
        <time>2025-10-28T08:16:04.000Z</time>
      </trkpt>
      <trkpt lat="43.51556" lon="6.60272">
        <ele>86</ele>
        <time>2025-10-28T08:16:05.000Z</time>
      </trkpt>
      <trkpt lat="43.51556" lon="6.60272">
        <ele>86</ele>
        <time>2025-10-28T08:16:06.000Z</time>
      </trkpt>
      <trkpt lat="43.51556" lon="6.60272">
        <ele>86</ele>
        <time>2025-10-28T08:16:07.000Z</time>
      </trkpt>
      <trkpt lat="43.51556" lon="6.60272">
        <ele>86</ele>
        <time>2025-10-28T08:16:08.000Z</time>
      </trkpt>
      <trkpt lat="43.51556" lon="6.60272">
        <ele>86</ele>
        <time>2025-10-28T08:16:09.000Z</time>
      </trkpt>
      <trkpt lat="43.51555" lon="6.60272">
        <ele>86</ele>
        <time>2025-10-28T08:16:10.000Z</time>
      </trkpt>
      <trkpt lat="43.51553" lon="6.60273">
        <ele>86</ele>
        <time>2025-10-28T08:16:11.000Z</time>
      </trkpt>
      <trkpt lat="43.5155" lon="6.60273">
        <ele>86</ele>
        <time>2025-10-28T08:16:12.000Z</time>
      </trkpt>
      <trkpt lat="43.51548" lon="6.60272">
        <ele>86</ele>
        <time>2025-10-28T08:16:13.000Z</time>
      </trkpt>
      <trkpt lat="43.51545" lon="6.60271">
        <ele>86.1</ele>
        <time>2025-10-28T08:16:14.000Z</time>
      </trkpt>
      <trkpt lat="43.51543" lon="6.60268">
        <ele>86.1</ele>
        <time>2025-10-28T08:16:15.000Z</time>
      </trkpt>
      <trkpt lat="43.51541" lon="6.60265">
        <ele>86.2</ele>
        <time>2025-10-28T08:16:16.000Z</time>
      </trkpt>
      <trkpt lat="43.51539" lon="6.60261">
        <ele>86.3</ele>
        <time>2025-10-28T08:16:17.000Z</time>
      </trkpt>
      <trkpt lat="43.51537" lon="6.60258">
        <ele>86.3</ele>
        <time>2025-10-28T08:16:18.000Z</time>
      </trkpt>
      <trkpt lat="43.51535" lon="6.60253">
        <ele>86.4</ele>
        <time>2025-10-28T08:16:19.000Z</time>
      </trkpt>
      <trkpt lat="43.51535" lon="6.60248">
        <ele>86.6</ele>
        <time>2025-10-28T08:16:20.000Z</time>
      </trkpt>
      <trkpt lat="43.51534" lon="6.60243">
        <ele>86.7</ele>
        <time>2025-10-28T08:16:21.000Z</time>
      </trkpt>
      <trkpt lat="43.51533" lon="6.60239">
        <ele>86.8</ele>
        <time>2025-10-28T08:16:22.000Z</time>
      </trkpt>
      <trkpt lat="43.51532" lon="6.60234">
        <ele>86.9</ele>
        <time>2025-10-28T08:16:23.000Z</time>
      </trkpt>
      <trkpt lat="43.51529" lon="6.60228">
        <ele>87.1</ele>
        <time>2025-10-28T08:16:24.000Z</time>
      </trkpt>
      <trkpt lat="43.51526" lon="6.60224">
        <ele>87.3</ele>
        <time>2025-10-28T08:16:25.000Z</time>
      </trkpt>
      <trkpt lat="43.51524" lon="6.6022">
        <ele>87.5</ele>
        <time>2025-10-28T08:16:26.000Z</time>
      </trkpt>
      <trkpt lat="43.51521" lon="6.60216">
        <ele>87.7</ele>
        <time>2025-10-28T08:16:27.000Z</time>
      </trkpt>
      <trkpt lat="43.51518" lon="6.60212">
        <ele>87.8</ele>
        <time>2025-10-28T08:16:28.000Z</time>
      </trkpt>
      <trkpt lat="43.51516" lon="6.60207">
        <ele>88</ele>
        <time>2025-10-28T08:16:29.000Z</time>
      </trkpt>
      <trkpt lat="43.51514" lon="6.60202">
        <ele>88.1</ele>
        <time>2025-10-28T08:16:30.000Z</time>
      </trkpt>
      <trkpt lat="43.51512" lon="6.60197">
        <ele>88.3</ele>
        <time>2025-10-28T08:16:31.000Z</time>
      </trkpt>
      <trkpt lat="43.5151" lon="6.60193">
        <ele>88.4</ele>
        <time>2025-10-28T08:16:32.000Z</time>
      </trkpt>
      <trkpt lat="43.51507" lon="6.60189">
        <ele>88.5</ele>
        <time>2025-10-28T08:16:33.000Z</time>
      </trkpt>
      <trkpt lat="43.51503" lon="6.60186">
        <ele>88.5</ele>
        <time>2025-10-28T08:16:34.000Z</time>
      </trkpt>
      <trkpt lat="43.51499" lon="6.60184">
        <ele>88.5</ele>
        <time>2025-10-28T08:16:35.000Z</time>
      </trkpt>
      <trkpt lat="43.51496" lon="6.60184">
        <ele>88.5</ele>
        <time>2025-10-28T08:16:36.000Z</time>
      </trkpt>
      <trkpt lat="43.51493" lon="6.60186">
        <ele>88.5</ele>
        <time>2025-10-28T08:16:37.000Z</time>
      </trkpt>
      <trkpt lat="43.51489" lon="6.60189">
        <ele>88.4</ele>
        <time>2025-10-28T08:16:38.000Z</time>
      </trkpt>
      <trkpt lat="43.51486" lon="6.60192">
        <ele>88.3</ele>
        <time>2025-10-28T08:16:39.000Z</time>
      </trkpt>
      <trkpt lat="43.51481" lon="6.60195">
        <ele>88.2</ele>
        <time>2025-10-28T08:16:40.000Z</time>
      </trkpt>
      <trkpt lat="43.51477" lon="6.60197">
        <ele>88</ele>
        <time>2025-10-28T08:16:41.000Z</time>
      </trkpt>
      <trkpt lat="43.51472" lon="6.60198">
        <ele>87.9</ele>
        <time>2025-10-28T08:16:42.000Z</time>
      </trkpt>
      <trkpt lat="43.51468" lon="6.60198">
        <ele>87.8</ele>
        <time>2025-10-28T08:16:43.000Z</time>
      </trkpt>
      <trkpt lat="43.51464" lon="6.60196">
        <ele>87.6</ele>
        <time>2025-10-28T08:16:44.000Z</time>
      </trkpt>
      <trkpt lat="43.5146" lon="6.60193">
        <ele>87.5</ele>
        <time>2025-10-28T08:16:45.000Z</time>
      </trkpt>
      <trkpt lat="43.51456" lon="6.60189">
        <ele>87.3</ele>
        <time>2025-10-28T08:16:46.000Z</time>
      </trkpt>
      <trkpt lat="43.51453" lon="6.60185">
        <ele>87.1</ele>
        <time>2025-10-28T08:16:47.000Z</time>
      </trkpt>
      <trkpt lat="43.5145" lon="6.6018">
        <ele>86.9</ele>
        <time>2025-10-28T08:16:48.000Z</time>
      </trkpt>
      <trkpt lat="43.51448" lon="6.60176">
        <ele>86.8</ele>
        <time>2025-10-28T08:16:49.000Z</time>
      </trkpt>
      <trkpt lat="43.51444" lon="6.60174">
        <ele>86.6</ele>
        <time>2025-10-28T08:16:50.000Z</time>
      </trkpt>
      <trkpt lat="43.5144" lon="6.60173">
        <ele>86.5</ele>
        <time>2025-10-28T08:16:51.000Z</time>
      </trkpt>
      <trkpt lat="43.51436" lon="6.60172">
        <ele>86.4</ele>
        <time>2025-10-28T08:16:52.000Z</time>
      </trkpt>
      <trkpt lat="43.51431" lon="6.60171">
        <ele>86.3</ele>
        <time>2025-10-28T08:16:53.000Z</time>
      </trkpt>
      <trkpt lat="43.51427" lon="6.60171">
        <ele>86.2</ele>
        <time>2025-10-28T08:16:54.000Z</time>
      </trkpt>
      <trkpt lat="43.51423" lon="6.60169">
        <ele>86.2</ele>
        <time>2025-10-28T08:16:55.000Z</time>
      </trkpt>
      <trkpt lat="43.5142" lon="6.60167">
        <ele>86.2</ele>
        <time>2025-10-28T08:16:56.000Z</time>
      </trkpt>
      <trkpt lat="43.51418" lon="6.60164">
        <ele>86.1</ele>
        <time>2025-10-28T08:16:57.000Z</time>
      </trkpt>
      <trkpt lat="43.51417" lon="6.6016">
        <ele>86.1</ele>
        <time>2025-10-28T08:16:58.000Z</time>
      </trkpt>
      <trkpt lat="43.51417" lon="6.60157">
        <ele>86.1</ele>
        <time>2025-10-28T08:16:59.000Z</time>
      </trkpt>
      <trkpt lat="43.51418" lon="6.60153">
        <ele>86</ele>
        <time>2025-10-28T08:17:00.000Z</time>
      </trkpt>
      <trkpt lat="43.51417" lon="6.60149">
        <ele>86</ele>
        <time>2025-10-28T08:17:01.000Z</time>
      </trkpt>
      <trkpt lat="43.51416" lon="6.60146">
        <ele>86</ele>
        <time>2025-10-28T08:17:02.000Z</time>
      </trkpt>
      <trkpt lat="43.51415" lon="6.60143">
        <ele>86</ele>
        <time>2025-10-28T08:17:03.000Z</time>
      </trkpt>
      <trkpt lat="43.51415" lon="6.6014">
        <ele>86</ele>
        <time>2025-10-28T08:17:04.000Z</time>
      </trkpt>
      <trkpt lat="43.51415" lon="6.60137">
        <ele>86</ele>
        <time>2025-10-28T08:17:05.000Z</time>
      </trkpt>
      <trkpt lat="43.51414" lon="6.60133">
        <ele>86</ele>
        <time>2025-10-28T08:17:06.000Z</time>
      </trkpt>
      <trkpt lat="43.51413" lon="6.60129">
        <ele>86</ele>
        <time>2025-10-28T08:17:07.000Z</time>
      </trkpt>
      <trkpt lat="43.51411" lon="6.60126">
        <ele>86</ele>
        <time>2025-10-28T08:17:08.000Z</time>
      </trkpt>
      <trkpt lat="43.51408" lon="6.60124">
        <ele>86</ele>
        <time>2025-10-28T08:17:09.000Z</time>
      </trkpt>
      <trkpt lat="43.51405" lon="6.60122">
        <ele>86</ele>
        <time>2025-10-28T08:17:10.000Z</time>
      </trkpt>
      <trkpt lat="43.51402" lon="6.60122">
        <ele>86</ele>
        <time>2025-10-28T08:17:11.000Z</time>
      </trkpt>
      <trkpt lat="43.514" lon="6.60123">
        <ele>86.1</ele>
        <time>2025-10-28T08:17:12.000Z</time>
      </trkpt>
      <trkpt lat="43.51398" lon="6.60125">
        <ele>86.1</ele>
        <time>2025-10-28T08:17:13.000Z</time>
      </trkpt>
      <trkpt lat="43.51396" lon="6.60125">
        <ele>86.2</ele>
        <time>2025-10-28T08:17:14.000Z</time>
      </trkpt>
      <trkpt lat="43.51393" lon="6.60125">
        <ele>86.2</ele>
        <time>2025-10-28T08:17:15.000Z</time>
      </trkpt>
      <trkpt lat="43.51391" lon="6.60123">
        <ele>86.3</ele>
        <time>2025-10-28T08:17:16.000Z</time>
      </trkpt>
      <trkpt lat="43.51389" lon="6.6012">
        <ele>86.4</ele>
        <time>2025-10-28T08:17:17.000Z</time>
      </trkpt>
      <trkpt lat="43.51388" lon="6.60117">
        <ele>86.5</ele>
        <time>2025-10-28T08:17:18.000Z</time>
      </trkpt>
      <trkpt lat="43.51387" lon="6.60114">
        <ele>86.7</ele>
        <time>2025-10-28T08:17:19.000Z</time>
      </trkpt>
      <trkpt lat="43.51385" lon="6.60111">
        <ele>86.8</ele>
        <time>2025-10-28T08:17:20.000Z</time>
      </trkpt>
      <trkpt lat="43.51383" lon="6.60109">
        <ele>87</ele>
        <time>2025-10-28T08:17:21.000Z</time>
      </trkpt>
      <trkpt lat="43.5138" lon="6.60107">
        <ele>87.2</ele>
        <time>2025-10-28T08:17:22.000Z</time>
      </trkpt>
      <trkpt lat="43.51378" lon="6.60105">
        <ele>87.4</ele>
        <time>2025-10-28T08:17:23.000Z</time>
      </trkpt>
      <trkpt lat="43.51376" lon="6.60103">
        <ele>87.7</ele>
        <time>2025-10-28T08:17:24.000Z</time>
      </trkpt>
      <trkpt lat="43.51373" lon="6.60101">
        <ele>87.9</ele>
        <time>2025-10-28T08:17:25.000Z</time>
      </trkpt>
      <trkpt lat="43.5137" lon="6.601">
        <ele>88.1</ele>
        <time>2025-10-28T08:17:26.000Z</time>
      </trkpt>
      <trkpt lat="43.51367" lon="6.60099">
        <ele>88.3</ele>
        <time>2025-10-28T08:17:27.000Z</time>
      </trkpt>
      <trkpt lat="43.51364" lon="6.60097">
        <ele>88.5</ele>
        <time>2025-10-28T08:17:28.000Z</time>
      </trkpt>
      <trkpt lat="43.51361" lon="6.60094">
        <ele>88.6</ele>
        <time>2025-10-28T08:17:29.000Z</time>
      </trkpt>
      <trkpt lat="43.51359" lon="6.6009">
        <ele>88.8</ele>
        <time>2025-10-28T08:17:30.000Z</time>
      </trkpt>
      <trkpt lat="43.51358" lon="6.60085">
        <ele>88.9</ele>
        <time>2025-10-28T08:17:31.000Z</time>
      </trkpt>
      <trkpt lat="43.51357" lon="6.60081">
        <ele>89</ele>
        <time>2025-10-28T08:17:32.000Z</time>
      </trkpt>
      <trkpt lat="43.51357" lon="6.60076">
        <ele>89.1</ele>
        <time>2025-10-28T08:17:33.000Z</time>
      </trkpt>
      <trkpt lat="43.51357" lon="6.60071">
        <ele>89.2</ele>
        <time>2025-10-28T08:17:34.000Z</time>
      </trkpt>
      <trkpt lat="43.51357" lon="6.60067">
        <ele>89.3</ele>
        <time>2025-10-28T08:17:35.000Z</time>
      </trkpt>
      <trkpt lat="43.51357" lon="6.60062">
        <ele>89.5</ele>
        <time>2025-10-28T08:17:36.000Z</time>
      </trkpt>
      <trkpt lat="43.51358" lon="6.60058">
        <ele>89.6</ele>
        <time>2025-10-28T08:17:37.000Z</time>
      </trkpt>
      <trkpt lat="43.51358" lon="6.60054">
        <ele>89.7</ele>
        <time>2025-10-28T08:17:38.000Z</time>
      </trkpt>
      <trkpt lat="43.51359" lon="6.60049">
        <ele>89.8</ele>
        <time>2025-10-28T08:17:39.000Z</time>
      </trkpt>
      <trkpt lat="43.5136" lon="6.60046">
        <ele>89.8</ele>
        <time>2025-10-28T08:17:40.000Z</time>
      </trkpt>
      <trkpt lat="43.51362" lon="6.60043">
        <ele>89.9</ele>
        <time>2025-10-28T08:17:41.000Z</time>
      </trkpt>
      <trkpt lat="43.51363" lon="6.6004">
        <ele>90</ele>
        <time>2025-10-28T08:17:42.000Z</time>
      </trkpt>
      <trkpt lat="43.51365" lon="6.60037">
        <ele>90</ele>
        <time>2025-10-28T08:17:43.000Z</time>
      </trkpt>
      <trkpt lat="43.51367" lon="6.60035">
        <ele>90.1</ele>
        <time>2025-10-28T08:17:44.000Z</time>
      </trkpt>
      <trkpt lat="43.51369" lon="6.60033">
        <ele>90.2</ele>
        <time>2025-10-28T08:17:45.000Z</time>
      </trkpt>
      <trkpt lat="43.51371" lon="6.60032">
        <ele>90.2</ele>
        <time>2025-10-28T08:17:46.000Z</time>
      </trkpt>
      <trkpt lat="43.51374" lon="6.6003">
        <ele>90.3</ele>
        <time>2025-10-28T08:17:47.000Z</time>
      </trkpt>
      <trkpt lat="43.51376" lon="6.60027">
        <ele>90.3</ele>
        <time>2025-10-28T08:17:48.000Z</time>
      </trkpt>
      <trkpt lat="43.51379" lon="6.60025">
        <ele>90.3</ele>
        <time>2025-10-28T08:17:49.000Z</time>
      </trkpt>
      <trkpt lat="43.51381" lon="6.60022">
        <ele>90.4</ele>
        <time>2025-10-28T08:17:50.000Z</time>
      </trkpt>
      <trkpt lat="43.51384" lon="6.60019">
        <ele>90.4</ele>
        <time>2025-10-28T08:17:51.000Z</time>
      </trkpt>
      <trkpt lat="43.51387" lon="6.60016">
        <ele>90.5</ele>
        <time>2025-10-28T08:17:52.000Z</time>
      </trkpt>
      <trkpt lat="43.5139" lon="6.60013">
        <ele>90.5</ele>
        <time>2025-10-28T08:17:53.000Z</time>
      </trkpt>
      <trkpt lat="43.51393" lon="6.60009">
        <ele>90.6</ele>
        <time>2025-10-28T08:17:54.000Z</time>
      </trkpt>
      <trkpt lat="43.51396" lon="6.60005">
        <ele>90.7</ele>
        <time>2025-10-28T08:17:55.000Z</time>
      </trkpt>
      <trkpt lat="43.514" lon="6.60002">
        <ele>90.7</ele>
        <time>2025-10-28T08:17:56.000Z</time>
      </trkpt>
      <trkpt lat="43.51403" lon="6.59998">
        <ele>90.8</ele>
        <time>2025-10-28T08:17:57.000Z</time>
      </trkpt>
      <trkpt lat="43.51407" lon="6.59995">
        <ele>90.9</ele>
        <time>2025-10-28T08:17:58.000Z</time>
      </trkpt>
      <trkpt lat="43.51412" lon="6.59992">
        <ele>90.9</ele>
        <time>2025-10-28T08:17:59.000Z</time>
      </trkpt>
      <trkpt lat="43.51416" lon="6.5999">
        <ele>91</ele>
        <time>2025-10-28T08:18:00.000Z</time>
      </trkpt>
      <trkpt lat="43.51421" lon="6.59988">
        <ele>91.1</ele>
        <time>2025-10-28T08:18:01.000Z</time>
      </trkpt>
      <trkpt lat="43.51426" lon="6.59987">
        <ele>91.2</ele>
        <time>2025-10-28T08:18:02.000Z</time>
      </trkpt>
      <trkpt lat="43.51431" lon="6.59988">
        <ele>91.3</ele>
        <time>2025-10-28T08:18:03.000Z</time>
      </trkpt>
      <trkpt lat="43.51436" lon="6.59989">
        <ele>91.4</ele>
        <time>2025-10-28T08:18:04.000Z</time>
      </trkpt>
      <trkpt lat="43.51441" lon="6.59991">
        <ele>91.5</ele>
        <time>2025-10-28T08:18:05.000Z</time>
      </trkpt>
      <trkpt lat="43.51446" lon="6.59994">
        <ele>91.7</ele>
        <time>2025-10-28T08:18:06.000Z</time>
      </trkpt>
      <trkpt lat="43.5145" lon="6.59998">
        <ele>91.8</ele>
        <time>2025-10-28T08:18:07.000Z</time>
      </trkpt>
      <trkpt lat="43.51455" lon="6.60002">
        <ele>92</ele>
        <time>2025-10-28T08:18:08.000Z</time>
      </trkpt>
      <trkpt lat="43.51459" lon="6.60006">
        <ele>92.1</ele>
        <time>2025-10-28T08:18:09.000Z</time>
      </trkpt>
      <trkpt lat="43.51463" lon="6.60011">
        <ele>92.3</ele>
        <time>2025-10-28T08:18:10.000Z</time>
      </trkpt>
      <trkpt lat="43.51467" lon="6.60016">
        <ele>92.5</ele>
        <time>2025-10-28T08:18:11.000Z</time>
      </trkpt>
      <trkpt lat="43.51471" lon="6.60021">
        <ele>92.8</ele>
        <time>2025-10-28T08:18:12.000Z</time>
      </trkpt>
      <trkpt lat="43.51475" lon="6.60025">
        <ele>93</ele>
        <time>2025-10-28T08:18:13.000Z</time>
      </trkpt>
      <trkpt lat="43.51479" lon="6.6003">
        <ele>93.2</ele>
        <time>2025-10-28T08:18:14.000Z</time>
      </trkpt>
      <trkpt lat="43.51483" lon="6.60035">
        <ele>93.4</ele>
        <time>2025-10-28T08:18:15.000Z</time>
      </trkpt>
      <trkpt lat="43.51487" lon="6.6004">
        <ele>93.6</ele>
        <time>2025-10-28T08:18:16.000Z</time>
      </trkpt>
      <trkpt lat="43.51491" lon="6.60045">
        <ele>93.7</ele>
        <time>2025-10-28T08:18:17.000Z</time>
      </trkpt>
      <trkpt lat="43.51495" lon="6.60049">
        <ele>93.8</ele>
        <time>2025-10-28T08:18:18.000Z</time>
      </trkpt>
      <trkpt lat="43.51499" lon="6.60054">
        <ele>93.9</ele>
        <time>2025-10-28T08:18:19.000Z</time>
      </trkpt>
      <trkpt lat="43.51503" lon="6.60058">
        <ele>93.9</ele>
        <time>2025-10-28T08:18:20.000Z</time>
      </trkpt>
      <trkpt lat="43.51508" lon="6.60062">
        <ele>93.9</ele>
        <time>2025-10-28T08:18:21.000Z</time>
      </trkpt>
      <trkpt lat="43.51513" lon="6.60065">
        <ele>93.9</ele>
        <time>2025-10-28T08:18:22.000Z</time>
      </trkpt>
      <trkpt lat="43.51518" lon="6.60067">
        <ele>93.7</ele>
        <time>2025-10-28T08:18:23.000Z</time>
      </trkpt>
      <trkpt lat="43.51523" lon="6.60069">
        <ele>93.5</ele>
        <time>2025-10-28T08:18:24.000Z</time>
      </trkpt>
      <trkpt lat="43.51529" lon="6.6007">
        <ele>93.2</ele>
        <time>2025-10-28T08:18:25.000Z</time>
      </trkpt>
      <trkpt lat="43.51535" lon="6.60071">
        <ele>92.8</ele>
        <time>2025-10-28T08:18:26.000Z</time>
      </trkpt>
      <trkpt lat="43.51541" lon="6.60072">
        <ele>92.5</ele>
        <time>2025-10-28T08:18:27.000Z</time>
      </trkpt>
      <trkpt lat="43.51548" lon="6.60072">
        <ele>92.1</ele>
        <time>2025-10-28T08:18:28.000Z</time>
      </trkpt>
      <trkpt lat="43.51553" lon="6.60072">
        <ele>91.9</ele>
        <time>2025-10-28T08:18:29.000Z</time>
      </trkpt>
      <trkpt lat="43.5156" lon="6.60073">
        <ele>91.5</ele>
        <time>2025-10-28T08:18:30.000Z</time>
      </trkpt>
      <trkpt lat="43.51568" lon="6.60073">
        <ele>91.2</ele>
        <time>2025-10-28T08:18:31.000Z</time>
      </trkpt>
      <trkpt lat="43.51575" lon="6.60072">
        <ele>91</ele>
        <time>2025-10-28T08:18:32.000Z</time>
      </trkpt>
      <trkpt lat="43.5158" lon="6.60072">
        <ele>90.8</ele>
        <time>2025-10-28T08:18:33.000Z</time>
      </trkpt>
      <trkpt lat="43.51589" lon="6.60072">
        <ele>90.7</ele>
        <time>2025-10-28T08:18:34.000Z</time>
      </trkpt>
      <trkpt lat="43.51596" lon="6.60072">
        <ele>90.6</ele>
        <time>2025-10-28T08:18:35.000Z</time>
      </trkpt>
      <trkpt lat="43.51602" lon="6.60072">
        <ele>90.5</ele>
        <time>2025-10-28T08:18:36.000Z</time>
      </trkpt>
      <trkpt lat="43.51608" lon="6.60071">
        <ele>90.4</ele>
        <time>2025-10-28T08:18:37.000Z</time>
      </trkpt>
      <trkpt lat="43.51614" lon="6.60072">
        <ele>90.4</ele>
        <time>2025-10-28T08:18:38.000Z</time>
      </trkpt>
      <trkpt lat="43.51621" lon="6.60072">
        <ele>90.4</ele>
        <time>2025-10-28T08:18:39.000Z</time>
      </trkpt>
      <trkpt lat="43.51627" lon="6.60072">
        <ele>90.3</ele>
        <time>2025-10-28T08:18:40.000Z</time>
      </trkpt>
      <trkpt lat="43.51634" lon="6.60073">
        <ele>90.3</ele>
        <time>2025-10-28T08:18:41.000Z</time>
      </trkpt>
      <trkpt lat="43.51641" lon="6.60073">
        <ele>90.3</ele>
        <time>2025-10-28T08:18:42.000Z</time>
      </trkpt>
      <trkpt lat="43.51647" lon="6.60073">
        <ele>90.3</ele>
        <time>2025-10-28T08:18:43.000Z</time>
      </trkpt>
      <trkpt lat="43.51654" lon="6.60073">
        <ele>90.2</ele>
        <time>2025-10-28T08:18:44.000Z</time>
      </trkpt>
      <trkpt lat="43.5166" lon="6.60073">
        <ele>90.2</ele>
        <time>2025-10-28T08:18:45.000Z</time>
      </trkpt>
      <trkpt lat="43.51667" lon="6.60073">
        <ele>90.2</ele>
        <time>2025-10-28T08:18:46.000Z</time>
      </trkpt>
      <trkpt lat="43.51673" lon="6.60073">
        <ele>90.3</ele>
        <time>2025-10-28T08:18:47.000Z</time>
      </trkpt>
      <trkpt lat="43.51678" lon="6.60073">
        <ele>90.3</ele>
        <time>2025-10-28T08:18:48.000Z</time>
      </trkpt>
      <trkpt lat="43.51686" lon="6.60074">
        <ele>90.4</ele>
        <time>2025-10-28T08:18:49.000Z</time>
      </trkpt>
      <trkpt lat="43.51691" lon="6.60074">
        <ele>90.5</ele>
        <time>2025-10-28T08:18:50.000Z</time>
      </trkpt>
      <trkpt lat="43.51697" lon="6.60073">
        <ele>90.6</ele>
        <time>2025-10-28T08:18:51.000Z</time>
      </trkpt>
      <trkpt lat="43.51702" lon="6.60073">
        <ele>90.7</ele>
        <time>2025-10-28T08:18:52.000Z</time>
      </trkpt>
      <trkpt lat="43.51706" lon="6.60073">
        <ele>90.7</ele>
        <time>2025-10-28T08:18:53.000Z</time>
      </trkpt>
      <trkpt lat="43.5171" lon="6.60072">
        <ele>90.7</ele>
        <time>2025-10-28T08:18:54.000Z</time>
      </trkpt>
      <trkpt lat="43.51714" lon="6.60071">
        <ele>90.7</ele>
        <time>2025-10-28T08:18:55.000Z</time>
      </trkpt>
      <trkpt lat="43.51717" lon="6.60068">
        <ele>90.7</ele>
        <time>2025-10-28T08:18:56.000Z</time>
      </trkpt>
      <trkpt lat="43.5172" lon="6.60065">
        <ele>90.7</ele>
        <time>2025-10-28T08:18:57.000Z</time>
      </trkpt>
      <trkpt lat="43.51723" lon="6.60061">
        <ele>90.7</ele>
        <time>2025-10-28T08:18:58.000Z</time>
      </trkpt>
      <trkpt lat="43.51728" lon="6.60056">
        <ele>90.8</ele>
        <time>2025-10-28T08:18:59.000Z</time>
      </trkpt>
      <trkpt lat="43.51733" lon="6.60051">
        <ele>90.9</ele>
        <time>2025-10-28T08:19:00.000Z</time>
      </trkpt>
      <trkpt lat="43.51737" lon="6.60046">
        <ele>91</ele>
        <time>2025-10-28T08:19:01.000Z</time>
      </trkpt>
      <trkpt lat="43.51741" lon="6.6004">
        <ele>91.1</ele>
        <time>2025-10-28T08:19:02.000Z</time>
      </trkpt>
      <trkpt lat="43.51745" lon="6.60035">
        <ele>91.2</ele>
        <time>2025-10-28T08:19:03.000Z</time>
      </trkpt>
      <trkpt lat="43.51749" lon="6.6003">
        <ele>91.3</ele>
        <time>2025-10-28T08:19:04.000Z</time>
      </trkpt>
      <trkpt lat="43.51753" lon="6.60025">
        <ele>91.5</ele>
        <time>2025-10-28T08:19:05.000Z</time>
      </trkpt>
      <trkpt lat="43.51757" lon="6.6002">
        <ele>91.6</ele>
        <time>2025-10-28T08:19:06.000Z</time>
      </trkpt>
      <trkpt lat="43.5176" lon="6.60017">
        <ele>91.7</ele>
        <time>2025-10-28T08:19:07.000Z</time>
      </trkpt>
      <trkpt lat="43.51764" lon="6.60011">
        <ele>91.8</ele>
        <time>2025-10-28T08:19:08.000Z</time>
      </trkpt>
      <trkpt lat="43.51767" lon="6.60005">
        <ele>91.9</ele>
        <time>2025-10-28T08:19:09.000Z</time>
      </trkpt>
      <trkpt lat="43.5177" lon="6.59999">
        <ele>92</ele>
        <time>2025-10-28T08:19:10.000Z</time>
      </trkpt>
      <trkpt lat="43.51772" lon="6.59992">
        <ele>92.1</ele>
        <time>2025-10-28T08:19:11.000Z</time>
      </trkpt>
      <trkpt lat="43.51773" lon="6.59986">
        <ele>92.2</ele>
        <time>2025-10-28T08:19:12.000Z</time>
      </trkpt>
      <trkpt lat="43.51773" lon="6.59979">
        <ele>92.2</ele>
        <time>2025-10-28T08:19:13.000Z</time>
      </trkpt>
      <trkpt lat="43.51773" lon="6.59972">
        <ele>92.2</ele>
        <time>2025-10-28T08:19:14.000Z</time>
      </trkpt>
      <trkpt lat="43.51774" lon="6.59965">
        <ele>92.2</ele>
        <time>2025-10-28T08:19:15.000Z</time>
      </trkpt>
      <trkpt lat="43.51774" lon="6.59958">
        <ele>92.2</ele>
        <time>2025-10-28T08:19:16.000Z</time>
      </trkpt>
      <trkpt lat="43.51775" lon="6.59951">
        <ele>92.2</ele>
        <time>2025-10-28T08:19:17.000Z</time>
      </trkpt>
      <trkpt lat="43.51775" lon="6.59944">
        <ele>92.1</ele>
        <time>2025-10-28T08:19:18.000Z</time>
      </trkpt>
      <trkpt lat="43.51776" lon="6.59937">
        <ele>92</ele>
        <time>2025-10-28T08:19:19.000Z</time>
      </trkpt>
      <trkpt lat="43.51777" lon="6.59929">
        <ele>92</ele>
        <time>2025-10-28T08:19:20.000Z</time>
      </trkpt>
      <trkpt lat="43.51777" lon="6.59922">
        <ele>91.9</ele>
        <time>2025-10-28T08:19:21.000Z</time>
      </trkpt>
      <trkpt lat="43.51776" lon="6.59914">
        <ele>91.8</ele>
        <time>2025-10-28T08:19:22.000Z</time>
      </trkpt>
      <trkpt lat="43.51776" lon="6.59907">
        <ele>91.7</ele>
        <time>2025-10-28T08:19:23.000Z</time>
      </trkpt>
      <trkpt lat="43.51775" lon="6.59899">
        <ele>91.6</ele>
        <time>2025-10-28T08:19:24.000Z</time>
      </trkpt>
      <trkpt lat="43.51775" lon="6.59892">
        <ele>91.5</ele>
        <time>2025-10-28T08:19:25.000Z</time>
      </trkpt>
      <trkpt lat="43.51776" lon="6.59885">
        <ele>91.4</ele>
        <time>2025-10-28T08:19:26.000Z</time>
      </trkpt>
      <trkpt lat="43.51777" lon="6.59877">
        <ele>91.3</ele>
        <time>2025-10-28T08:19:27.000Z</time>
      </trkpt>
      <trkpt lat="43.51779" lon="6.5987">
        <ele>91.3</ele>
        <time>2025-10-28T08:19:28.000Z</time>
      </trkpt>
      <trkpt lat="43.51781" lon="6.59862">
        <ele>91.1</ele>
        <time>2025-10-28T08:19:29.000Z</time>
      </trkpt>
      <trkpt lat="43.51783" lon="6.59854">
        <ele>91</ele>
        <time>2025-10-28T08:19:30.000Z</time>
      </trkpt>
      <trkpt lat="43.51784" lon="6.59846">
        <ele>90.9</ele>
        <time>2025-10-28T08:19:31.000Z</time>
      </trkpt>
      <trkpt lat="43.51784" lon="6.59838">
        <ele>90.9</ele>
        <time>2025-10-28T08:19:32.000Z</time>
      </trkpt>
      <trkpt lat="43.51784" lon="6.59831">
        <ele>90.8</ele>
        <time>2025-10-28T08:19:33.000Z</time>
      </trkpt>
      <trkpt lat="43.51783" lon="6.59823">
        <ele>90.7</ele>
        <time>2025-10-28T08:19:34.000Z</time>
      </trkpt>
      <trkpt lat="43.51782" lon="6.59815">
        <ele>90.7</ele>
        <time>2025-10-28T08:19:35.000Z</time>
      </trkpt>
      <trkpt lat="43.5178" lon="6.59808">
        <ele>90.6</ele>
        <time>2025-10-28T08:19:36.000Z</time>
      </trkpt>
      <trkpt lat="43.51779" lon="6.598">
        <ele>90.6</ele>
        <time>2025-10-28T08:19:37.000Z</time>
      </trkpt>
      <trkpt lat="43.51777" lon="6.59793">
        <ele>90.6</ele>
        <time>2025-10-28T08:19:38.000Z</time>
      </trkpt>
      <trkpt lat="43.51777" lon="6.59785">
        <ele>90.6</ele>
        <time>2025-10-28T08:19:39.000Z</time>
      </trkpt>
      <trkpt lat="43.51776" lon="6.59777">
        <ele>90.6</ele>
        <time>2025-10-28T08:19:40.000Z</time>
      </trkpt>
      <trkpt lat="43.51776" lon="6.59768">
        <ele>90.6</ele>
        <time>2025-10-28T08:19:41.000Z</time>
      </trkpt>
      <trkpt lat="43.51776" lon="6.59759">
        <ele>90.6</ele>
        <time>2025-10-28T08:19:42.000Z</time>
      </trkpt>
      <trkpt lat="43.51775" lon="6.59751">
        <ele>90.5</ele>
        <time>2025-10-28T08:19:43.000Z</time>
      </trkpt>
      <trkpt lat="43.51775" lon="6.59742">
        <ele>90.5</ele>
        <time>2025-10-28T08:19:44.000Z</time>
      </trkpt>
      <trkpt lat="43.51774" lon="6.59735">
        <ele>90.4</ele>
        <time>2025-10-28T08:19:45.000Z</time>
      </trkpt>
      <trkpt lat="43.51772" lon="6.59725">
        <ele>90.4</ele>
        <time>2025-10-28T08:19:46.000Z</time>
      </trkpt>
      <trkpt lat="43.51771" lon="6.59717">
        <ele>90.3</ele>
        <time>2025-10-28T08:19:47.000Z</time>
      </trkpt>
      <trkpt lat="43.51769" lon="6.59709">
        <ele>90.2</ele>
        <time>2025-10-28T08:19:48.000Z</time>
      </trkpt>
      <trkpt lat="43.51767" lon="6.597">
        <ele>90.1</ele>
        <time>2025-10-28T08:19:49.000Z</time>
      </trkpt>
      <trkpt lat="43.51765" lon="6.59692">
        <ele>90</ele>
        <time>2025-10-28T08:19:50.000Z</time>
      </trkpt>
      <trkpt lat="43.51762" lon="6.59684">
        <ele>89.9</ele>
        <time>2025-10-28T08:19:51.000Z</time>
      </trkpt>
      <trkpt lat="43.5176" lon="6.59676">
        <ele>89.8</ele>
        <time>2025-10-28T08:19:52.000Z</time>
      </trkpt>
      <trkpt lat="43.51756" lon="6.59669">
        <ele>89.6</ele>
        <time>2025-10-28T08:19:53.000Z</time>
      </trkpt>
      <trkpt lat="43.51753" lon="6.59662">
        <ele>89.4</ele>
        <time>2025-10-28T08:19:54.000Z</time>
      </trkpt>
      <trkpt lat="43.51749" lon="6.59654">
        <ele>89.2</ele>
        <time>2025-10-28T08:19:55.000Z</time>
      </trkpt>
      <trkpt lat="43.51745" lon="6.59647">
        <ele>89</ele>
        <time>2025-10-28T08:19:56.000Z</time>
      </trkpt>
      <trkpt lat="43.51742" lon="6.59639">
        <ele>88.8</ele>
        <time>2025-10-28T08:19:57.000Z</time>
      </trkpt>
      <trkpt lat="43.51739" lon="6.59633">
        <ele>88.5</ele>
        <time>2025-10-28T08:19:58.000Z</time>
      </trkpt>
      <trkpt lat="43.51734" lon="6.59624">
        <ele>88.2</ele>
        <time>2025-10-28T08:19:59.000Z</time>
      </trkpt>
      <trkpt lat="43.5173" lon="6.59616">
        <ele>87.8</ele>
        <time>2025-10-28T08:20:00.000Z</time>
      </trkpt>
      <trkpt lat="43.51725" lon="6.59609">
        <ele>87.5</ele>
        <time>2025-10-28T08:20:01.000Z</time>
      </trkpt>
      <trkpt lat="43.51719" lon="6.59603">
        <ele>87.2</ele>
        <time>2025-10-28T08:20:02.000Z</time>
      </trkpt>
      <trkpt lat="43.51714" lon="6.59596">
        <ele>86.8</ele>
        <time>2025-10-28T08:20:03.000Z</time>
      </trkpt>
      <trkpt lat="43.51709" lon="6.59591">
        <ele>86.5</ele>
        <time>2025-10-28T08:20:04.000Z</time>
      </trkpt>
      <trkpt lat="43.51703" lon="6.59583">
        <ele>86.1</ele>
        <time>2025-10-28T08:20:05.000Z</time>
      </trkpt>
      <trkpt lat="43.51698" lon="6.59576">
        <ele>85.8</ele>
        <time>2025-10-28T08:20:06.000Z</time>
      </trkpt>
      <trkpt lat="43.51692" lon="6.5957">
        <ele>85.5</ele>
        <time>2025-10-28T08:20:07.000Z</time>
      </trkpt>
      <trkpt lat="43.51686" lon="6.59565">
        <ele>85.2</ele>
        <time>2025-10-28T08:20:08.000Z</time>
      </trkpt>
      <trkpt lat="43.5168" lon="6.59561">
        <ele>84.9</ele>
        <time>2025-10-28T08:20:09.000Z</time>
      </trkpt>
      <trkpt lat="43.51672" lon="6.59559">
        <ele>84.6</ele>
        <time>2025-10-28T08:20:10.000Z</time>
      </trkpt>
      <trkpt lat="43.51665" lon="6.59557">
        <ele>84.2</ele>
        <time>2025-10-28T08:20:11.000Z</time>
      </trkpt>
      <trkpt lat="43.51657" lon="6.59554">
        <ele>83.8</ele>
        <time>2025-10-28T08:20:12.000Z</time>
      </trkpt>
      <trkpt lat="43.51649" lon="6.59551">
        <ele>83.4</ele>
        <time>2025-10-28T08:20:13.000Z</time>
      </trkpt>
      <trkpt lat="43.51643" lon="6.59547">
        <ele>83</ele>
        <time>2025-10-28T08:20:14.000Z</time>
      </trkpt>
      <trkpt lat="43.51636" lon="6.59542">
        <ele>82.6</ele>
        <time>2025-10-28T08:20:15.000Z</time>
      </trkpt>
      <trkpt lat="43.5163" lon="6.59536">
        <ele>82.2</ele>
        <time>2025-10-28T08:20:16.000Z</time>
      </trkpt>
      <trkpt lat="43.51625" lon="6.59531">
        <ele>82</ele>
        <time>2025-10-28T08:20:17.000Z</time>
      </trkpt>
      <trkpt lat="43.51619" lon="6.59524">
        <ele>81.7</ele>
        <time>2025-10-28T08:20:18.000Z</time>
      </trkpt>
      <trkpt lat="43.51615" lon="6.59518">
        <ele>81.5</ele>
        <time>2025-10-28T08:20:19.000Z</time>
      </trkpt>
      <trkpt lat="43.51613" lon="6.59512">
        <ele>81.4</ele>
        <time>2025-10-28T08:20:20.000Z</time>
      </trkpt>
      <trkpt lat="43.5161" lon="6.59506">
        <ele>81.3</ele>
        <time>2025-10-28T08:20:21.000Z</time>
      </trkpt>
      <trkpt lat="43.51607" lon="6.59502">
        <ele>81.2</ele>
        <time>2025-10-28T08:20:22.000Z</time>
      </trkpt>
      <trkpt lat="43.51605" lon="6.59498">
        <ele>81.1</ele>
        <time>2025-10-28T08:20:23.000Z</time>
      </trkpt>
      <trkpt lat="43.51601" lon="6.59493">
        <ele>81.1</ele>
        <time>2025-10-28T08:20:24.000Z</time>
      </trkpt>
      <trkpt lat="43.51597" lon="6.59488">
        <ele>81</ele>
        <time>2025-10-28T08:20:25.000Z</time>
      </trkpt>
      <trkpt lat="43.51593" lon="6.59483">
        <ele>81</ele>
        <time>2025-10-28T08:20:26.000Z</time>
      </trkpt>
      <trkpt lat="43.51588" lon="6.59478">
        <ele>80.9</ele>
        <time>2025-10-28T08:20:27.000Z</time>
      </trkpt>
      <trkpt lat="43.51584" lon="6.59474">
        <ele>80.9</ele>
        <time>2025-10-28T08:20:28.000Z</time>
      </trkpt>
      <trkpt lat="43.51579" lon="6.59469">
        <ele>80.9</ele>
        <time>2025-10-28T08:20:29.000Z</time>
      </trkpt>
      <trkpt lat="43.51574" lon="6.59464">
        <ele>80.8</ele>
        <time>2025-10-28T08:20:30.000Z</time>
      </trkpt>
      <trkpt lat="43.5157" lon="6.5946">
        <ele>80.8</ele>
        <time>2025-10-28T08:20:31.000Z</time>
      </trkpt>
      <trkpt lat="43.51565" lon="6.59456">
        <ele>80.7</ele>
        <time>2025-10-28T08:20:32.000Z</time>
      </trkpt>
      <trkpt lat="43.51561" lon="6.59452">
        <ele>80.7</ele>
        <time>2025-10-28T08:20:33.000Z</time>
      </trkpt>
      <trkpt lat="43.51556" lon="6.59447">
        <ele>80.6</ele>
        <time>2025-10-28T08:20:34.000Z</time>
      </trkpt>
      <trkpt lat="43.51552" lon="6.59443">
        <ele>80.6</ele>
        <time>2025-10-28T08:20:35.000Z</time>
      </trkpt>
      <trkpt lat="43.51548" lon="6.59439">
        <ele>80.5</ele>
        <time>2025-10-28T08:20:36.000Z</time>
      </trkpt>
      <trkpt lat="43.51543" lon="6.59435">
        <ele>80.5</ele>
        <time>2025-10-28T08:20:37.000Z</time>
      </trkpt>
      <trkpt lat="43.51537" lon="6.5943">
        <ele>80.4</ele>
        <time>2025-10-28T08:20:38.000Z</time>
      </trkpt>
      <trkpt lat="43.51532" lon="6.59426">
        <ele>80.4</ele>
        <time>2025-10-28T08:20:39.000Z</time>
      </trkpt>
      <trkpt lat="43.51528" lon="6.59422">
        <ele>80.4</ele>
        <time>2025-10-28T08:20:40.000Z</time>
      </trkpt>
      <trkpt lat="43.51523" lon="6.59417">
        <ele>80.3</ele>
        <time>2025-10-28T08:20:41.000Z</time>
      </trkpt>
      <trkpt lat="43.5152" lon="6.59412">
        <ele>80.3</ele>
        <time>2025-10-28T08:20:42.000Z</time>
      </trkpt>
      <trkpt lat="43.51515" lon="6.59405">
        <ele>80.3</ele>
        <time>2025-10-28T08:20:43.000Z</time>
      </trkpt>
      <trkpt lat="43.51511" lon="6.59398">
        <ele>80.4</ele>
        <time>2025-10-28T08:20:44.000Z</time>
      </trkpt>
      <trkpt lat="43.51508" lon="6.59392">
        <ele>80.4</ele>
        <time>2025-10-28T08:20:45.000Z</time>
      </trkpt>
      <trkpt lat="43.51504" lon="6.59385">
        <ele>80.4</ele>
        <time>2025-10-28T08:20:46.000Z</time>
      </trkpt>
      <trkpt lat="43.515" lon="6.59378">
        <ele>80.5</ele>
        <time>2025-10-28T08:20:47.000Z</time>
      </trkpt>
      <trkpt lat="43.51497" lon="6.59371">
        <ele>80.6</ele>
        <time>2025-10-28T08:20:48.000Z</time>
      </trkpt>
      <trkpt lat="43.51493" lon="6.59365">
        <ele>80.6</ele>
        <time>2025-10-28T08:20:49.000Z</time>
      </trkpt>
      <trkpt lat="43.5149" lon="6.59359">
        <ele>80.7</ele>
        <time>2025-10-28T08:20:50.000Z</time>
      </trkpt>
      <trkpt lat="43.51485" lon="6.59353">
        <ele>80.7</ele>
        <time>2025-10-28T08:20:51.000Z</time>
      </trkpt>
      <trkpt lat="43.51481" lon="6.59347">
        <ele>80.8</ele>
        <time>2025-10-28T08:20:52.000Z</time>
      </trkpt>
      <trkpt lat="43.51476" lon="6.59341">
        <ele>80.8</ele>
        <time>2025-10-28T08:20:53.000Z</time>
      </trkpt>
      <trkpt lat="43.51471" lon="6.59335">
        <ele>80.8</ele>
        <time>2025-10-28T08:20:54.000Z</time>
      </trkpt>
      <trkpt lat="43.51466" lon="6.59329">
        <ele>80.8</ele>
        <time>2025-10-28T08:20:55.000Z</time>
      </trkpt>
      <trkpt lat="43.51461" lon="6.59323">
        <ele>80.8</ele>
        <time>2025-10-28T08:20:56.000Z</time>
      </trkpt>
      <trkpt lat="43.51456" lon="6.59317">
        <ele>80.7</ele>
        <time>2025-10-28T08:20:57.000Z</time>
      </trkpt>
      <trkpt lat="43.51451" lon="6.5931">
        <ele>80.5</ele>
        <time>2025-10-28T08:20:58.000Z</time>
      </trkpt>
      <trkpt lat="43.51446" lon="6.59303">
        <ele>80.3</ele>
        <time>2025-10-28T08:20:59.000Z</time>
      </trkpt>
      <trkpt lat="43.51442" lon="6.59296">
        <ele>80</ele>
        <time>2025-10-28T08:21:00.000Z</time>
      </trkpt>
      <trkpt lat="43.51438" lon="6.59289">
        <ele>79.7</ele>
        <time>2025-10-28T08:21:01.000Z</time>
      </trkpt>
      <trkpt lat="43.51433" lon="6.59283">
        <ele>79.4</ele>
        <time>2025-10-28T08:21:02.000Z</time>
      </trkpt>
      <trkpt lat="43.51429" lon="6.59277">
        <ele>79</ele>
        <time>2025-10-28T08:21:03.000Z</time>
      </trkpt>
      <trkpt lat="43.51424" lon="6.59272">
        <ele>78.7</ele>
        <time>2025-10-28T08:21:04.000Z</time>
      </trkpt>
      <trkpt lat="43.51419" lon="6.59268">
        <ele>78.4</ele>
        <time>2025-10-28T08:21:05.000Z</time>
      </trkpt>
      <trkpt lat="43.51414" lon="6.59265">
        <ele>78.1</ele>
        <time>2025-10-28T08:21:06.000Z</time>
      </trkpt>
      <trkpt lat="43.5141" lon="6.59263">
        <ele>77.9</ele>
        <time>2025-10-28T08:21:07.000Z</time>
      </trkpt>
      <trkpt lat="43.51408" lon="6.59261">
        <ele>77.8</ele>
        <time>2025-10-28T08:21:08.000Z</time>
      </trkpt>
      <trkpt lat="43.51407" lon="6.5926">
        <ele>77.7</ele>
        <time>2025-10-28T08:21:09.000Z</time>
      </trkpt>
      <trkpt lat="43.51406" lon="6.59259">
        <ele>77.7</ele>
        <time>2025-10-28T08:21:10.000Z</time>
      </trkpt>
      <trkpt lat="43.51406" lon="6.59259">
        <ele>77.7</ele>
        <time>2025-10-28T08:21:11.000Z</time>
      </trkpt>
      <trkpt lat="43.51406" lon="6.59259">
        <ele>77.7</ele>
        <time>2025-10-28T08:21:12.000Z</time>
      </trkpt>
      <trkpt lat="43.51407" lon="6.59259">
        <ele>77.7</ele>
        <time>2025-10-28T08:21:13.000Z</time>
      </trkpt>
      <trkpt lat="43.51407" lon="6.5926">
        <ele>77.7</ele>
        <time>2025-10-28T08:21:14.000Z</time>
      </trkpt>
      <trkpt lat="43.51407" lon="6.5926">
        <ele>77.6</ele>
        <time>2025-10-28T08:21:15.000Z</time>
      </trkpt>
      <trkpt lat="43.51407" lon="6.5926">
        <ele>77.6</ele>
        <time>2025-10-28T08:21:16.000Z</time>
      </trkpt>
      <trkpt lat="43.51407" lon="6.5926">
        <ele>77.6</ele>
        <time>2025-10-28T08:21:17.000Z</time>
      </trkpt>
      <trkpt lat="43.51407" lon="6.5926">
        <ele>77.6</ele>
        <time>2025-10-28T08:21:18.000Z</time>
      </trkpt>
      <trkpt lat="43.51408" lon="6.5926">
        <ele>77.6</ele>
        <time>2025-10-28T08:21:19.000Z</time>
      </trkpt>
      <trkpt lat="43.51408" lon="6.59261">
        <ele>77.6</ele>
        <time>2025-10-28T08:21:20.000Z</time>
      </trkpt>
      <trkpt lat="43.51408" lon="6.59261">
        <ele>77.6</ele>
        <time>2025-10-28T08:21:21.000Z</time>
      </trkpt>
      <trkpt lat="43.51408" lon="6.59261">
        <ele>77.6</ele>
        <time>2025-10-28T08:21:22.000Z</time>
      </trkpt>
      <trkpt lat="43.51408" lon="6.59261">
        <ele>77.6</ele>
        <time>2025-10-28T08:21:23.000Z</time>
      </trkpt>
      <trkpt lat="43.51408" lon="6.59261">
        <ele>77.6</ele>
        <time>2025-10-28T08:21:24.000Z</time>
      </trkpt>
      <trkpt lat="43.51409" lon="6.59261">
        <ele>77.6</ele>
        <time>2025-10-28T08:21:25.000Z</time>
      </trkpt>
      <trkpt lat="43.51409" lon="6.59262">
        <ele>77.5</ele>
        <time>2025-10-28T08:21:26.000Z</time>
      </trkpt>
      <trkpt lat="43.51409" lon="6.59262">
        <ele>77.5</ele>
        <time>2025-10-28T08:21:27.000Z</time>
      </trkpt>
      <trkpt lat="43.51409" lon="6.59262">
        <ele>77.5</ele>
        <time>2025-10-28T08:21:28.000Z</time>
      </trkpt>
      <trkpt lat="43.51409" lon="6.59262">
        <ele>77.5</ele>
        <time>2025-10-28T08:21:29.000Z</time>
      </trkpt>
      <trkpt lat="43.51409" lon="6.59262">
        <ele>77.5</ele>
        <time>2025-10-28T08:21:30.000Z</time>
      </trkpt>
      <trkpt lat="43.5141" lon="6.59262">
        <ele>77.5</ele>
        <time>2025-10-28T08:21:31.000Z</time>
      </trkpt>
      <trkpt lat="43.5141" lon="6.59263">
        <ele>77.5</ele>
        <time>2025-10-28T08:21:32.000Z</time>
      </trkpt>
      <trkpt lat="43.5141" lon="6.59263">
        <ele>77.5</ele>
        <time>2025-10-28T08:21:33.000Z</time>
      </trkpt>
      <trkpt lat="43.5141" lon="6.59263">
        <ele>77.5</ele>
        <time>2025-10-28T08:21:34.000Z</time>
      </trkpt>
      <trkpt lat="43.5141" lon="6.59263">
        <ele>77.5</ele>
        <time>2025-10-28T08:21:35.000Z</time>
      </trkpt>
      <trkpt lat="43.5141" lon="6.59263">
        <ele>77.4</ele>
        <time>2025-10-28T08:21:36.000Z</time>
      </trkpt>
      <trkpt lat="43.51411" lon="6.59263">
        <ele>77.4</ele>
        <time>2025-10-28T08:21:37.000Z</time>
      </trkpt>
      <trkpt lat="43.51411" lon="6.59264">
        <ele>77.4</ele>
        <time>2025-10-28T08:21:38.000Z</time>
      </trkpt>
      <trkpt lat="43.51411" lon="6.59264">
        <ele>77.4</ele>
        <time>2025-10-28T08:21:39.000Z</time>
      </trkpt>
      <trkpt lat="43.51411" lon="6.59264">
        <ele>77.4</ele>
        <time>2025-10-28T08:21:40.000Z</time>
      </trkpt>
      <trkpt lat="43.51411" lon="6.59264">
        <ele>77.4</ele>
        <time>2025-10-28T08:21:41.000Z</time>
      </trkpt>
      <trkpt lat="43.51411" lon="6.59264">
        <ele>77.4</ele>
        <time>2025-10-28T08:21:42.000Z</time>
      </trkpt>
      <trkpt lat="43.51412" lon="6.59264">
        <ele>77.4</ele>
        <time>2025-10-28T08:21:43.000Z</time>
      </trkpt>
      <trkpt lat="43.51412" lon="6.59265">
        <ele>77.4</ele>
        <time>2025-10-28T08:21:44.000Z</time>
      </trkpt>
      <trkpt lat="43.51412" lon="6.59265">
        <ele>77.4</ele>
        <time>2025-10-28T08:21:45.000Z</time>
      </trkpt>
      <trkpt lat="43.51412" lon="6.59265">
        <ele>77.4</ele>
        <time>2025-10-28T08:21:46.000Z</time>
      </trkpt>
      <trkpt lat="43.51412" lon="6.59265">
        <ele>77.3</ele>
        <time>2025-10-28T08:21:47.000Z</time>
      </trkpt>
      <trkpt lat="43.51412" lon="6.59265">
        <ele>77.3</ele>
        <time>2025-10-28T08:21:48.000Z</time>
      </trkpt>
      <trkpt lat="43.51413" lon="6.59265">
        <ele>77.3</ele>
        <time>2025-10-28T08:21:49.000Z</time>
      </trkpt>
      <trkpt lat="43.51413" lon="6.59266">
        <ele>77.3</ele>
        <time>2025-10-28T08:21:50.000Z</time>
      </trkpt>
      <trkpt lat="43.51413" lon="6.59266">
        <ele>77.3</ele>
        <time>2025-10-28T08:21:51.000Z</time>
      </trkpt>
      <trkpt lat="43.51413" lon="6.59266">
        <ele>77.3</ele>
        <time>2025-10-28T08:21:52.000Z</time>
      </trkpt>
      <trkpt lat="43.51413" lon="6.59266">
        <ele>77.3</ele>
        <time>2025-10-28T08:21:53.000Z</time>
      </trkpt>
      <trkpt lat="43.51413" lon="6.59266">
        <ele>77.3</ele>
        <time>2025-10-28T08:21:54.000Z</time>
      </trkpt>
      <trkpt lat="43.51414" lon="6.59266">
        <ele>77.3</ele>
        <time>2025-10-28T08:21:55.000Z</time>
      </trkpt>
      <trkpt lat="43.51414" lon="6.59267">
        <ele>77.3</ele>
        <time>2025-10-28T08:21:56.000Z</time>
      </trkpt>
      <trkpt lat="43.51414" lon="6.59267">
        <ele>77.2</ele>
        <time>2025-10-28T08:21:57.000Z</time>
      </trkpt>
      <trkpt lat="43.51414" lon="6.59267">
        <ele>77.2</ele>
        <time>2025-10-28T08:21:58.000Z</time>
      </trkpt>
      <trkpt lat="43.51414" lon="6.59267">
        <ele>77.2</ele>
        <time>2025-10-28T08:21:59.000Z</time>
      </trkpt>
      <trkpt lat="43.51414" lon="6.59267">
        <ele>77.2</ele>
        <time>2025-10-28T08:22:00.000Z</time>
      </trkpt>
      <trkpt lat="43.51415" lon="6.59267">
        <ele>77.2</ele>
        <time>2025-10-28T08:22:01.000Z</time>
      </trkpt>
      <trkpt lat="43.51415" lon="6.59268">
        <ele>77.2</ele>
        <time>2025-10-28T08:22:02.000Z</time>
      </trkpt>
      <trkpt lat="43.51415" lon="6.59268">
        <ele>77.2</ele>
        <time>2025-10-28T08:22:03.000Z</time>
      </trkpt>
      <trkpt lat="43.51415" lon="6.59268">
        <ele>77.2</ele>
        <time>2025-10-28T08:22:04.000Z</time>
      </trkpt>
      <trkpt lat="43.51415" lon="6.59268">
        <ele>77.2</ele>
        <time>2025-10-28T08:22:05.000Z</time>
      </trkpt>
      <trkpt lat="43.51415" lon="6.59268">
        <ele>77.2</ele>
        <time>2025-10-28T08:22:06.000Z</time>
      </trkpt>
      <trkpt lat="43.51416" lon="6.59268">
        <ele>77.2</ele>
        <time>2025-10-28T08:22:07.000Z</time>
      </trkpt>
      <trkpt lat="43.51416" lon="6.59269">
        <ele>77.1</ele>
        <time>2025-10-28T08:22:08.000Z</time>
      </trkpt>
      <trkpt lat="43.51416" lon="6.59269">
        <ele>77.1</ele>
        <time>2025-10-28T08:22:09.000Z</time>
      </trkpt>
      <trkpt lat="43.51416" lon="6.59269">
        <ele>77.1</ele>
        <time>2025-10-28T08:22:10.000Z</time>
      </trkpt>
      <trkpt lat="43.51416" lon="6.59269">
        <ele>77.1</ele>
        <time>2025-10-28T08:22:11.000Z</time>
      </trkpt>
      <trkpt lat="43.51416" lon="6.59269">
        <ele>77.1</ele>
        <time>2025-10-28T08:22:12.000Z</time>
      </trkpt>
      <trkpt lat="43.51417" lon="6.59269">
        <ele>77.1</ele>
        <time>2025-10-28T08:22:13.000Z</time>
      </trkpt>
      <trkpt lat="43.51417" lon="6.5927">
        <ele>77.1</ele>
        <time>2025-10-28T08:22:14.000Z</time>
      </trkpt>
      <trkpt lat="43.51417" lon="6.5927">
        <ele>77.1</ele>
        <time>2025-10-28T08:22:15.000Z</time>
      </trkpt>
      <trkpt lat="43.51417" lon="6.5927">
        <ele>77.1</ele>
        <time>2025-10-28T08:22:16.000Z</time>
      </trkpt>
      <trkpt lat="43.51417" lon="6.5927">
        <ele>77.1</ele>
        <time>2025-10-28T08:22:17.000Z</time>
      </trkpt>
      <trkpt lat="43.51417" lon="6.5927">
        <ele>77</ele>
        <time>2025-10-28T08:22:18.000Z</time>
      </trkpt>
      <trkpt lat="43.51418" lon="6.5927">
        <ele>77</ele>
        <time>2025-10-28T08:22:19.000Z</time>
      </trkpt>
      <trkpt lat="43.51418" lon="6.59271">
        <ele>77</ele>
        <time>2025-10-28T08:22:20.000Z</time>
      </trkpt>
      <trkpt lat="43.51418" lon="6.59271">
        <ele>77</ele>
        <time>2025-10-28T08:22:21.000Z</time>
      </trkpt>
      <trkpt lat="43.51418" lon="6.59271">
        <ele>77</ele>
        <time>2025-10-28T08:22:22.000Z</time>
      </trkpt>
      <trkpt lat="43.51418" lon="6.59271">
        <ele>77</ele>
        <time>2025-10-28T08:22:23.000Z</time>
      </trkpt>
      <trkpt lat="43.51418" lon="6.59271">
        <ele>77</ele>
        <time>2025-10-28T08:22:24.000Z</time>
      </trkpt>
      <trkpt lat="43.51419" lon="6.59272">
        <ele>77</ele>
        <time>2025-10-28T08:22:25.000Z</time>
      </trkpt>
      <trkpt lat="43.51419" lon="6.59272">
        <ele>77</ele>
        <time>2025-10-28T08:22:26.000Z</time>
      </trkpt>
      <trkpt lat="43.51419" lon="6.59272">
        <ele>77</ele>
        <time>2025-10-28T08:22:27.000Z</time>
      </trkpt>
      <trkpt lat="43.51419" lon="6.59272">
        <ele>77</ele>
        <time>2025-10-28T08:22:28.000Z</time>
      </trkpt>
      <trkpt lat="43.51419" lon="6.59272">
        <ele>76.9</ele>
        <time>2025-10-28T08:22:29.000Z</time>
      </trkpt>
      <trkpt lat="43.51419" lon="6.59272">
        <ele>76.9</ele>
        <time>2025-10-28T08:22:30.000Z</time>
      </trkpt>
      <trkpt lat="43.5142" lon="6.59273">
        <ele>76.9</ele>
        <time>2025-10-28T08:22:31.000Z</time>
      </trkpt>
      <trkpt lat="43.5142" lon="6.59273">
        <ele>76.9</ele>
        <time>2025-10-28T08:22:32.000Z</time>
      </trkpt>
      <trkpt lat="43.5142" lon="6.59273">
        <ele>76.9</ele>
        <time>2025-10-28T08:22:33.000Z</time>
      </trkpt>
      <trkpt lat="43.5142" lon="6.59273">
        <ele>76.9</ele>
        <time>2025-10-28T08:22:34.000Z</time>
      </trkpt>
      <trkpt lat="43.5142" lon="6.59273">
        <ele>76.9</ele>
        <time>2025-10-28T08:22:35.000Z</time>
      </trkpt>
      <trkpt lat="43.5142" lon="6.59273">
        <ele>76.9</ele>
        <time>2025-10-28T08:22:36.000Z</time>
      </trkpt>
      <trkpt lat="43.51421" lon="6.59274">
        <ele>76.9</ele>
        <time>2025-10-28T08:22:37.000Z</time>
      </trkpt>
      <trkpt lat="43.51421" lon="6.59274">
        <ele>76.9</ele>
        <time>2025-10-28T08:22:38.000Z</time>
      </trkpt>
      <trkpt lat="43.51421" lon="6.59274">
        <ele>76.9</ele>
        <time>2025-10-28T08:22:39.000Z</time>
      </trkpt>
      <trkpt lat="43.51421" lon="6.59274">
        <ele>76.8</ele>
        <time>2025-10-28T08:22:40.000Z</time>
      </trkpt>
      <trkpt lat="43.51421" lon="6.59274">
        <ele>76.8</ele>
        <time>2025-10-28T08:22:41.000Z</time>
      </trkpt>
      <trkpt lat="43.51421" lon="6.59274">
        <ele>76.8</ele>
        <time>2025-10-28T08:22:42.000Z</time>
      </trkpt>
      <trkpt lat="43.51422" lon="6.59275">
        <ele>76.8</ele>
        <time>2025-10-28T08:22:43.000Z</time>
      </trkpt>
      <trkpt lat="43.51422" lon="6.59275">
        <ele>76.8</ele>
        <time>2025-10-28T08:22:44.000Z</time>
      </trkpt>
      <trkpt lat="43.51422" lon="6.59275">
        <ele>76.8</ele>
        <time>2025-10-28T08:22:45.000Z</time>
      </trkpt>
      <trkpt lat="43.51422" lon="6.59275">
        <ele>76.8</ele>
        <time>2025-10-28T08:22:46.000Z</time>
      </trkpt>
      <trkpt lat="43.51422" lon="6.59275">
        <ele>76.8</ele>
        <time>2025-10-28T08:22:47.000Z</time>
      </trkpt>
      <trkpt lat="43.51422" lon="6.59275">
        <ele>76.8</ele>
        <time>2025-10-28T08:22:48.000Z</time>
      </trkpt>
      <trkpt lat="43.51423" lon="6.59276">
        <ele>76.8</ele>
        <time>2025-10-28T08:22:49.000Z</time>
      </trkpt>
      <trkpt lat="43.51423" lon="6.59276">
        <ele>76.7</ele>
        <time>2025-10-28T08:22:50.000Z</time>
      </trkpt>
      <trkpt lat="43.51423" lon="6.59276">
        <ele>76.7</ele>
        <time>2025-10-28T08:22:51.000Z</time>
      </trkpt>
      <trkpt lat="43.51423" lon="6.59276">
        <ele>76.7</ele>
        <time>2025-10-28T08:22:52.000Z</time>
      </trkpt>
      <trkpt lat="43.51423" lon="6.59276">
        <ele>76.7</ele>
        <time>2025-10-28T08:22:53.000Z</time>
      </trkpt>
      <trkpt lat="43.51423" lon="6.59276">
        <ele>76.7</ele>
        <time>2025-10-28T08:22:54.000Z</time>
      </trkpt>
      <trkpt lat="43.51424" lon="6.59277">
        <ele>76.7</ele>
        <time>2025-10-28T08:22:55.000Z</time>
      </trkpt>
      <trkpt lat="43.51424" lon="6.59277">
        <ele>76.7</ele>
        <time>2025-10-28T08:22:56.000Z</time>
      </trkpt>
      <trkpt lat="43.51424" lon="6.59277">
        <ele>76.7</ele>
        <time>2025-10-28T08:22:57.000Z</time>
      </trkpt>
      <trkpt lat="43.51424" lon="6.59277">
        <ele>76.7</ele>
        <time>2025-10-28T08:22:58.000Z</time>
      </trkpt>
      <trkpt lat="43.51424" lon="6.59277">
        <ele>76.7</ele>
        <time>2025-10-28T08:22:59.000Z</time>
      </trkpt>
      <trkpt lat="43.51424" lon="6.59277">
        <ele>76.7</ele>
        <time>2025-10-28T08:23:00.000Z</time>
      </trkpt>
      <trkpt lat="43.51425" lon="6.59278">
        <ele>76.6</ele>
        <time>2025-10-28T08:23:01.000Z</time>
      </trkpt>
      <trkpt lat="43.51425" lon="6.59278">
        <ele>76.6</ele>
        <time>2025-10-28T08:23:02.000Z</time>
      </trkpt>
      <trkpt lat="43.51425" lon="6.59278">
        <ele>76.6</ele>
        <time>2025-10-28T08:23:03.000Z</time>
      </trkpt>
      <trkpt lat="43.51425" lon="6.59278">
        <ele>76.6</ele>
        <time>2025-10-28T08:23:04.000Z</time>
      </trkpt>
      <trkpt lat="43.51425" lon="6.59278">
        <ele>76.6</ele>
        <time>2025-10-28T08:23:05.000Z</time>
      </trkpt>
      <trkpt lat="43.51425" lon="6.59278">
        <ele>76.6</ele>
        <time>2025-10-28T08:23:06.000Z</time>
      </trkpt>
      <trkpt lat="43.51426" lon="6.59279">
        <ele>76.6</ele>
        <time>2025-10-28T08:23:07.000Z</time>
      </trkpt>
      <trkpt lat="43.51426" lon="6.59279">
        <ele>76.6</ele>
        <time>2025-10-28T08:23:08.000Z</time>
      </trkpt>
      <trkpt lat="43.51426" lon="6.59279">
        <ele>76.6</ele>
        <time>2025-10-28T08:23:09.000Z</time>
      </trkpt>
      <trkpt lat="43.51426" lon="6.59279">
        <ele>76.6</ele>
        <time>2025-10-28T08:23:10.000Z</time>
      </trkpt>
      <trkpt lat="43.51426" lon="6.59279">
        <ele>76.6</ele>
        <time>2025-10-28T08:23:11.000Z</time>
      </trkpt>
      <trkpt lat="43.51427" lon="6.59279">
        <ele>76.6</ele>
        <time>2025-10-28T08:23:12.000Z</time>
      </trkpt>
      <trkpt lat="43.51427" lon="6.5928">
        <ele>76.6</ele>
        <time>2025-10-28T08:23:13.000Z</time>
      </trkpt>
      <trkpt lat="43.51427" lon="6.5928">
        <ele>76.5</ele>
        <time>2025-10-28T08:23:14.000Z</time>
      </trkpt>
      <trkpt lat="43.51427" lon="6.5928">
        <ele>76.5</ele>
        <time>2025-10-28T08:23:15.000Z</time>
      </trkpt>
      <trkpt lat="43.51427" lon="6.5928">
        <ele>76.5</ele>
        <time>2025-10-28T08:23:16.000Z</time>
      </trkpt>
      <trkpt lat="43.51427" lon="6.5928">
        <ele>76.5</ele>
        <time>2025-10-28T08:23:17.000Z</time>
      </trkpt>
      <trkpt lat="43.51428" lon="6.5928">
        <ele>76.5</ele>
        <time>2025-10-28T08:23:18.000Z</time>
      </trkpt>
      <trkpt lat="43.51428" lon="6.59281">
        <ele>76.5</ele>
        <time>2025-10-28T08:23:19.000Z</time>
      </trkpt>
      <trkpt lat="43.51428" lon="6.59281">
        <ele>76.5</ele>
        <time>2025-10-28T08:23:20.000Z</time>
      </trkpt>
      <trkpt lat="43.51428" lon="6.59281">
        <ele>76.5</ele>
        <time>2025-10-28T08:23:21.000Z</time>
      </trkpt>
      <trkpt lat="43.51428" lon="6.59281">
        <ele>76.5</ele>
        <time>2025-10-28T08:23:22.000Z</time>
      </trkpt>
      <trkpt lat="43.51428" lon="6.59281">
        <ele>76.5</ele>
        <time>2025-10-28T08:23:23.000Z</time>
      </trkpt>
      <trkpt lat="43.51429" lon="6.59281">
        <ele>76.5</ele>
        <time>2025-10-28T08:23:24.000Z</time>
      </trkpt>
      <trkpt lat="43.51429" lon="6.59282">
        <ele>76.5</ele>
        <time>2025-10-28T08:23:25.000Z</time>
      </trkpt>
      <trkpt lat="43.51429" lon="6.59282">
        <ele>76.5</ele>
        <time>2025-10-28T08:23:26.000Z</time>
      </trkpt>
      <trkpt lat="43.51429" lon="6.59282">
        <ele>76.4</ele>
        <time>2025-10-28T08:23:27.000Z</time>
      </trkpt>
      <trkpt lat="43.51429" lon="6.59282">
        <ele>76.4</ele>
        <time>2025-10-28T08:23:28.000Z</time>
      </trkpt>
      <trkpt lat="43.51429" lon="6.59282">
        <ele>76.4</ele>
        <time>2025-10-28T08:23:29.000Z</time>
      </trkpt>
      <trkpt lat="43.5143" lon="6.59282">
        <ele>76.4</ele>
        <time>2025-10-28T08:23:30.000Z</time>
      </trkpt>
      <trkpt lat="43.5143" lon="6.59283">
        <ele>76.4</ele>
        <time>2025-10-28T08:23:31.000Z</time>
      </trkpt>
      <trkpt lat="43.5143" lon="6.59283">
        <ele>76.4</ele>
        <time>2025-10-28T08:23:32.000Z</time>
      </trkpt>
      <trkpt lat="43.5143" lon="6.59283">
        <ele>76.4</ele>
        <time>2025-10-28T08:23:33.000Z</time>
      </trkpt>
      <trkpt lat="43.5143" lon="6.59283">
        <ele>76.4</ele>
        <time>2025-10-28T08:23:34.000Z</time>
      </trkpt>
      <trkpt lat="43.5143" lon="6.59283">
        <ele>76.4</ele>
        <time>2025-10-28T08:23:35.000Z</time>
      </trkpt>
      <trkpt lat="43.51431" lon="6.59283">
        <ele>76.4</ele>
        <time>2025-10-28T08:23:36.000Z</time>
      </trkpt>
      <trkpt lat="43.51431" lon="6.59284">
        <ele>76.4</ele>
        <time>2025-10-28T08:23:37.000Z</time>
      </trkpt>
      <trkpt lat="43.51431" lon="6.59284">
        <ele>76.4</ele>
        <time>2025-10-28T08:23:38.000Z</time>
      </trkpt>
      <trkpt lat="43.51431" lon="6.59284">
        <ele>76.4</ele>
        <time>2025-10-28T08:23:39.000Z</time>
      </trkpt>
      <trkpt lat="43.51431" lon="6.59284">
        <ele>76.3</ele>
        <time>2025-10-28T08:23:40.000Z</time>
      </trkpt>
      <trkpt lat="43.51431" lon="6.59284">
        <ele>76.3</ele>
        <time>2025-10-28T08:23:41.000Z</time>
      </trkpt>
      <trkpt lat="43.51432" lon="6.59285">
        <ele>76.3</ele>
        <time>2025-10-28T08:23:42.000Z</time>
      </trkpt>
      <trkpt lat="43.51432" lon="6.59285">
        <ele>76.3</ele>
        <time>2025-10-28T08:23:43.000Z</time>
      </trkpt>
      <trkpt lat="43.51432" lon="6.59285">
        <ele>76.3</ele>
        <time>2025-10-28T08:23:44.000Z</time>
      </trkpt>
      <trkpt lat="43.51432" lon="6.59285">
        <ele>76.3</ele>
        <time>2025-10-28T08:23:45.000Z</time>
      </trkpt>
      <trkpt lat="43.51432" lon="6.59285">
        <ele>76.3</ele>
        <time>2025-10-28T08:23:46.000Z</time>
      </trkpt>
      <trkpt lat="43.51432" lon="6.59285">
        <ele>76.3</ele>
        <time>2025-10-28T08:23:47.000Z</time>
      </trkpt>
      <trkpt lat="43.51433" lon="6.59286">
        <ele>76.3</ele>
        <time>2025-10-28T08:23:48.000Z</time>
      </trkpt>
      <trkpt lat="43.51433" lon="6.59286">
        <ele>76.3</ele>
        <time>2025-10-28T08:23:49.000Z</time>
      </trkpt>
      <trkpt lat="43.51433" lon="6.59286">
        <ele>76.3</ele>
        <time>2025-10-28T08:23:50.000Z</time>
      </trkpt>
      <trkpt lat="43.51433" lon="6.59286">
        <ele>76.3</ele>
        <time>2025-10-28T08:23:51.000Z</time>
      </trkpt>
      <trkpt lat="43.51433" lon="6.59286">
        <ele>76.3</ele>
        <time>2025-10-28T08:23:52.000Z</time>
      </trkpt>
      <trkpt lat="43.51433" lon="6.59286">
        <ele>76.3</ele>
        <time>2025-10-28T08:23:53.000Z</time>
      </trkpt>
      <trkpt lat="43.51434" lon="6.59287">
        <ele>76.2</ele>
        <time>2025-10-28T08:23:54.000Z</time>
      </trkpt>
      <trkpt lat="43.51434" lon="6.59287">
        <ele>76.2</ele>
        <time>2025-10-28T08:23:55.000Z</time>
      </trkpt>
      <trkpt lat="43.51434" lon="6.59287">
        <ele>76.2</ele>
        <time>2025-10-28T08:23:56.000Z</time>
      </trkpt>
      <trkpt lat="43.51434" lon="6.59287">
        <ele>76.2</ele>
        <time>2025-10-28T08:23:57.000Z</time>
      </trkpt>
      <trkpt lat="43.51434" lon="6.59287">
        <ele>76.2</ele>
        <time>2025-10-28T08:23:58.000Z</time>
      </trkpt>
      <trkpt lat="43.51434" lon="6.59287">
        <ele>76.2</ele>
        <time>2025-10-28T08:23:59.000Z</time>
      </trkpt>
      <trkpt lat="43.51435" lon="6.59288">
        <ele>76.2</ele>
        <time>2025-10-28T08:24:00.000Z</time>
      </trkpt>
      <trkpt lat="43.51435" lon="6.59288">
        <ele>76.2</ele>
        <time>2025-10-28T08:24:01.000Z</time>
      </trkpt>
      <trkpt lat="43.51435" lon="6.59288">
        <ele>76.2</ele>
        <time>2025-10-28T08:24:02.000Z</time>
      </trkpt>
      <trkpt lat="43.51435" lon="6.59288">
        <ele>76.2</ele>
        <time>2025-10-28T08:24:03.000Z</time>
      </trkpt>
      <trkpt lat="43.51439" lon="6.59293">
        <ele>76.4</ele>
        <time>2025-10-28T08:24:04.000Z</time>
      </trkpt>
      <trkpt lat="43.51441" lon="6.59297">
        <ele>76.5</ele>
        <time>2025-10-28T08:24:05.000Z</time>
      </trkpt>
      <trkpt lat="43.51444" lon="6.59302">
        <ele>76.8</ele>
        <time>2025-10-28T08:24:06.000Z</time>
      </trkpt>
      <trkpt lat="43.51448" lon="6.59308">
        <ele>77.1</ele>
        <time>2025-10-28T08:24:07.000Z</time>
      </trkpt>
      <trkpt lat="43.51451" lon="6.59314">
        <ele>77.3</ele>
        <time>2025-10-28T08:24:08.000Z</time>
      </trkpt>
      <trkpt lat="43.51455" lon="6.59319">
        <ele>77.5</ele>
        <time>2025-10-28T08:24:09.000Z</time>
      </trkpt>
      <trkpt lat="43.51458" lon="6.59324">
        <ele>77.8</ele>
        <time>2025-10-28T08:24:10.000Z</time>
      </trkpt>
      <trkpt lat="43.51461" lon="6.59328">
        <ele>78</ele>
        <time>2025-10-28T08:24:11.000Z</time>
      </trkpt>
      <trkpt lat="43.51466" lon="6.59334">
        <ele>78.4</ele>
        <time>2025-10-28T08:24:12.000Z</time>
      </trkpt>
      <trkpt lat="43.5147" lon="6.59339">
        <ele>78.7</ele>
        <time>2025-10-28T08:24:13.000Z</time>
      </trkpt>
      <trkpt lat="43.51474" lon="6.59344">
        <ele>79</ele>
        <time>2025-10-28T08:24:14.000Z</time>
      </trkpt>
      <trkpt lat="43.51477" lon="6.59349">
        <ele>79.3</ele>
        <time>2025-10-28T08:24:15.000Z</time>
      </trkpt>
      <trkpt lat="43.51481" lon="6.59353">
        <ele>79.6</ele>
        <time>2025-10-28T08:24:16.000Z</time>
      </trkpt>
      <trkpt lat="43.51486" lon="6.59358">
        <ele>79.9</ele>
        <time>2025-10-28T08:24:17.000Z</time>
      </trkpt>
      <trkpt lat="43.5149" lon="6.59364">
        <ele>80.2</ele>
        <time>2025-10-28T08:24:18.000Z</time>
      </trkpt>
      <trkpt lat="43.51493" lon="6.59368">
        <ele>80.4</ele>
        <time>2025-10-28T08:24:19.000Z</time>
      </trkpt>
      <trkpt lat="43.51496" lon="6.59373">
        <ele>80.5</ele>
        <time>2025-10-28T08:24:20.000Z</time>
      </trkpt>
      <trkpt lat="43.51499" lon="6.59378">
        <ele>80.7</ele>
        <time>2025-10-28T08:24:21.000Z</time>
      </trkpt>
      <trkpt lat="43.51503" lon="6.59385">
        <ele>80.8</ele>
        <time>2025-10-28T08:24:22.000Z</time>
      </trkpt>
      <trkpt lat="43.51506" lon="6.5939">
        <ele>80.8</ele>
        <time>2025-10-28T08:24:23.000Z</time>
      </trkpt>
      <trkpt lat="43.51508" lon="6.59395">
        <ele>80.8</ele>
        <time>2025-10-28T08:24:24.000Z</time>
      </trkpt>
      <trkpt lat="43.51511" lon="6.59401">
        <ele>80.8</ele>
        <time>2025-10-28T08:24:25.000Z</time>
      </trkpt>
      <trkpt lat="43.51515" lon="6.59408">
        <ele>80.8</ele>
        <time>2025-10-28T08:24:26.000Z</time>
      </trkpt>
      <trkpt lat="43.51519" lon="6.59414">
        <ele>80.8</ele>
        <time>2025-10-28T08:24:27.000Z</time>
      </trkpt>
      <trkpt lat="43.51523" lon="6.5942">
        <ele>80.7</ele>
        <time>2025-10-28T08:24:28.000Z</time>
      </trkpt>
      <trkpt lat="43.51527" lon="6.59425">
        <ele>80.7</ele>
        <time>2025-10-28T08:24:29.000Z</time>
      </trkpt>
      <trkpt lat="43.51531" lon="6.5943">
        <ele>80.6</ele>
        <time>2025-10-28T08:24:30.000Z</time>
      </trkpt>
      <trkpt lat="43.51537" lon="6.59436">
        <ele>80.5</ele>
        <time>2025-10-28T08:24:31.000Z</time>
      </trkpt>
      <trkpt lat="43.51543" lon="6.59441">
        <ele>80.4</ele>
        <time>2025-10-28T08:24:32.000Z</time>
      </trkpt>
      <trkpt lat="43.51549" lon="6.59445">
        <ele>80.4</ele>
        <time>2025-10-28T08:24:33.000Z</time>
      </trkpt>
      <trkpt lat="43.51553" lon="6.59449">
        <ele>80.4</ele>
        <time>2025-10-28T08:24:34.000Z</time>
      </trkpt>
      <trkpt lat="43.51558" lon="6.59454">
        <ele>80.3</ele>
        <time>2025-10-28T08:24:35.000Z</time>
      </trkpt>
      <trkpt lat="43.51565" lon="6.5946">
        <ele>80.3</ele>
        <time>2025-10-28T08:24:36.000Z</time>
      </trkpt>
      <trkpt lat="43.5157" lon="6.59465">
        <ele>80.4</ele>
        <time>2025-10-28T08:24:37.000Z</time>
      </trkpt>
      <trkpt lat="43.51574" lon="6.59469">
        <ele>80.4</ele>
        <time>2025-10-28T08:24:38.000Z</time>
      </trkpt>
      <trkpt lat="43.51579" lon="6.59474">
        <ele>80.4</ele>
        <time>2025-10-28T08:24:39.000Z</time>
      </trkpt>
      <trkpt lat="43.51585" lon="6.59481">
        <ele>80.5</ele>
        <time>2025-10-28T08:24:40.000Z</time>
      </trkpt>
      <trkpt lat="43.5159" lon="6.59486">
        <ele>80.6</ele>
        <time>2025-10-28T08:24:41.000Z</time>
      </trkpt>
      <trkpt lat="43.51595" lon="6.59492">
        <ele>80.6</ele>
        <time>2025-10-28T08:24:42.000Z</time>
      </trkpt>
      <trkpt lat="43.516" lon="6.59497">
        <ele>80.7</ele>
        <time>2025-10-28T08:24:43.000Z</time>
      </trkpt>
      <trkpt lat="43.51604" lon="6.59503">
        <ele>80.8</ele>
        <time>2025-10-28T08:24:44.000Z</time>
      </trkpt>
      <trkpt lat="43.51609" lon="6.59508">
        <ele>80.8</ele>
        <time>2025-10-28T08:24:45.000Z</time>
      </trkpt>
      <trkpt lat="43.51612" lon="6.59513">
        <ele>80.9</ele>
        <time>2025-10-28T08:24:46.000Z</time>
      </trkpt>
      <trkpt lat="43.51615" lon="6.59518">
        <ele>80.9</ele>
        <time>2025-10-28T08:24:47.000Z</time>
      </trkpt>
      <trkpt lat="43.51617" lon="6.59523">
        <ele>80.9</ele>
        <time>2025-10-28T08:24:48.000Z</time>
      </trkpt>
      <trkpt lat="43.5162" lon="6.59529">
        <ele>81</ele>
        <time>2025-10-28T08:24:49.000Z</time>
      </trkpt>
      <trkpt lat="43.51623" lon="6.59536">
        <ele>81</ele>
        <time>2025-10-28T08:24:50.000Z</time>
      </trkpt>
      <trkpt lat="43.51627" lon="6.59541">
        <ele>81.1</ele>
        <time>2025-10-28T08:24:51.000Z</time>
      </trkpt>
      <trkpt lat="43.51631" lon="6.59546">
        <ele>81.2</ele>
        <time>2025-10-28T08:24:52.000Z</time>
      </trkpt>
      <trkpt lat="43.51636" lon="6.59551">
        <ele>81.3</ele>
        <time>2025-10-28T08:24:53.000Z</time>
      </trkpt>
      <trkpt lat="43.51639" lon="6.59554">
        <ele>81.4</ele>
        <time>2025-10-28T08:24:54.000Z</time>
      </trkpt>
      <trkpt lat="43.51645" lon="6.59559">
        <ele>81.6</ele>
        <time>2025-10-28T08:24:55.000Z</time>
      </trkpt>
      <trkpt lat="43.5165" lon="6.59563">
        <ele>81.7</ele>
        <time>2025-10-28T08:24:56.000Z</time>
      </trkpt>
      <trkpt lat="43.51655" lon="6.59566">
        <ele>82</ele>
        <time>2025-10-28T08:24:57.000Z</time>
      </trkpt>
      <trkpt lat="43.5166" lon="6.59568">
        <ele>82.2</ele>
        <time>2025-10-28T08:24:58.000Z</time>
      </trkpt>
      <trkpt lat="43.51666" lon="6.5957">
        <ele>82.5</ele>
        <time>2025-10-28T08:24:59.000Z</time>
      </trkpt>
      <trkpt lat="43.51671" lon="6.59571">
        <ele>82.8</ele>
        <time>2025-10-28T08:25:00.000Z</time>
      </trkpt>
      <trkpt lat="43.51677" lon="6.59572">
        <ele>83.2</ele>
        <time>2025-10-28T08:25:01.000Z</time>
      </trkpt>
      <trkpt lat="43.51681" lon="6.59573">
        <ele>83.4</ele>
        <time>2025-10-28T08:25:02.000Z</time>
      </trkpt>
      <trkpt lat="43.51687" lon="6.59576">
        <ele>83.8</ele>
        <time>2025-10-28T08:25:03.000Z</time>
      </trkpt>
      <trkpt lat="43.51692" lon="6.5958">
        <ele>84.1</ele>
        <time>2025-10-28T08:25:04.000Z</time>
      </trkpt>
      <trkpt lat="43.51697" lon="6.59584">
        <ele>84.4</ele>
        <time>2025-10-28T08:25:05.000Z</time>
      </trkpt>
      <trkpt lat="43.51701" lon="6.59588">
        <ele>84.7</ele>
        <time>2025-10-28T08:25:06.000Z</time>
      </trkpt>
      <trkpt lat="43.51705" lon="6.59594">
        <ele>85</ele>
        <time>2025-10-28T08:25:07.000Z</time>
      </trkpt>
      <trkpt lat="43.51708" lon="6.59598">
        <ele>85.2</ele>
        <time>2025-10-28T08:25:08.000Z</time>
      </trkpt>
      <trkpt lat="43.51713" lon="6.59605">
        <ele>85.5</ele>
        <time>2025-10-28T08:25:09.000Z</time>
      </trkpt>
      <trkpt lat="43.51718" lon="6.5961">
        <ele>85.8</ele>
        <time>2025-10-28T08:25:10.000Z</time>
      </trkpt>
      <trkpt lat="43.51722" lon="6.59615">
        <ele>86.1</ele>
        <time>2025-10-28T08:25:11.000Z</time>
      </trkpt>
      <trkpt lat="43.51727" lon="6.59621">
        <ele>86.3</ele>
        <time>2025-10-28T08:25:12.000Z</time>
      </trkpt>
      <trkpt lat="43.51731" lon="6.59626">
        <ele>86.6</ele>
        <time>2025-10-28T08:25:13.000Z</time>
      </trkpt>
      <trkpt lat="43.51734" lon="6.59632">
        <ele>86.9</ele>
        <time>2025-10-28T08:25:14.000Z</time>
      </trkpt>
      <trkpt lat="43.51738" lon="6.59639">
        <ele>87.3</ele>
        <time>2025-10-28T08:25:15.000Z</time>
      </trkpt>
      <trkpt lat="43.51741" lon="6.59645">
        <ele>87.5</ele>
        <time>2025-10-28T08:25:16.000Z</time>
      </trkpt>
      <trkpt lat="43.51744" lon="6.59652">
        <ele>87.8</ele>
        <time>2025-10-28T08:25:17.000Z</time>
      </trkpt>
      <trkpt lat="43.51747" lon="6.59658">
        <ele>88.1</ele>
        <time>2025-10-28T08:25:18.000Z</time>
      </trkpt>
      <trkpt lat="43.5175" lon="6.59665">
        <ele>88.4</ele>
        <time>2025-10-28T08:25:19.000Z</time>
      </trkpt>
      <trkpt lat="43.51753" lon="6.59671">
        <ele>88.7</ele>
        <time>2025-10-28T08:25:20.000Z</time>
      </trkpt>
      <trkpt lat="43.51756" lon="6.59677">
        <ele>88.9</ele>
        <time>2025-10-28T08:25:21.000Z</time>
      </trkpt>
      <trkpt lat="43.51759" lon="6.59684">
        <ele>89.1</ele>
        <time>2025-10-28T08:25:22.000Z</time>
      </trkpt>
      <trkpt lat="43.51762" lon="6.59691">
        <ele>89.3</ele>
        <time>2025-10-28T08:25:23.000Z</time>
      </trkpt>
      <trkpt lat="43.51764" lon="6.59698">
        <ele>89.5</ele>
        <time>2025-10-28T08:25:24.000Z</time>
      </trkpt>
      <trkpt lat="43.51766" lon="6.59705">
        <ele>89.7</ele>
        <time>2025-10-28T08:25:25.000Z</time>
      </trkpt>
      <trkpt lat="43.51768" lon="6.59712">
        <ele>89.8</ele>
        <time>2025-10-28T08:25:26.000Z</time>
      </trkpt>
      <trkpt lat="43.5177" lon="6.59718">
        <ele>89.9</ele>
        <time>2025-10-28T08:25:27.000Z</time>
      </trkpt>
      <trkpt lat="43.51772" lon="6.59727">
        <ele>90.1</ele>
        <time>2025-10-28T08:25:28.000Z</time>
      </trkpt>
      <trkpt lat="43.51773" lon="6.59735">
        <ele>90.2</ele>
        <time>2025-10-28T08:25:29.000Z</time>
      </trkpt>
      <trkpt lat="43.51775" lon="6.59743">
        <ele>90.3</ele>
        <time>2025-10-28T08:25:30.000Z</time>
      </trkpt>
      <trkpt lat="43.51775" lon="6.59751">
        <ele>90.3</ele>
        <time>2025-10-28T08:25:31.000Z</time>
      </trkpt>
      <trkpt lat="43.51776" lon="6.59757">
        <ele>90.4</ele>
        <time>2025-10-28T08:25:32.000Z</time>
      </trkpt>
      <trkpt lat="43.51776" lon="6.59767">
        <ele>90.4</ele>
        <time>2025-10-28T08:25:33.000Z</time>
      </trkpt>
      <trkpt lat="43.51776" lon="6.59775">
        <ele>90.5</ele>
        <time>2025-10-28T08:25:34.000Z</time>
      </trkpt>
      <trkpt lat="43.51776" lon="6.59783">
        <ele>90.6</ele>
        <time>2025-10-28T08:25:35.000Z</time>
      </trkpt>
      <trkpt lat="43.51776" lon="6.59791">
        <ele>90.6</ele>
        <time>2025-10-28T08:25:36.000Z</time>
      </trkpt>
      <trkpt lat="43.51777" lon="6.59799">
        <ele>90.6</ele>
        <time>2025-10-28T08:25:37.000Z</time>
      </trkpt>
      <trkpt lat="43.51777" lon="6.59807">
        <ele>90.6</ele>
        <time>2025-10-28T08:25:38.000Z</time>
      </trkpt>
      <trkpt lat="43.51778" lon="6.59815">
        <ele>90.6</ele>
        <time>2025-10-28T08:25:39.000Z</time>
      </trkpt>
      <trkpt lat="43.51779" lon="6.59821">
        <ele>90.6</ele>
        <time>2025-10-28T08:25:40.000Z</time>
      </trkpt>
      <trkpt lat="43.51782" lon="6.5983">
        <ele>90.6</ele>
        <time>2025-10-28T08:25:41.000Z</time>
      </trkpt>
      <trkpt lat="43.51783" lon="6.59838">
        <ele>90.7</ele>
        <time>2025-10-28T08:25:42.000Z</time>
      </trkpt>
      <trkpt lat="43.51783" lon="6.59846">
        <ele>90.7</ele>
        <time>2025-10-28T08:25:43.000Z</time>
      </trkpt>
      <trkpt lat="43.51783" lon="6.59854">
        <ele>90.8</ele>
        <time>2025-10-28T08:25:44.000Z</time>
      </trkpt>
      <trkpt lat="43.51783" lon="6.59862">
        <ele>90.9</ele>
        <time>2025-10-28T08:25:45.000Z</time>
      </trkpt>
      <trkpt lat="43.51781" lon="6.59868">
        <ele>91</ele>
        <time>2025-10-28T08:25:46.000Z</time>
      </trkpt>
      <trkpt lat="43.51779" lon="6.59877">
        <ele>91.1</ele>
        <time>2025-10-28T08:25:47.000Z</time>
      </trkpt>
      <trkpt lat="43.51777" lon="6.59884">
        <ele>91.2</ele>
        <time>2025-10-28T08:25:48.000Z</time>
      </trkpt>
      <trkpt lat="43.51775" lon="6.59891">
        <ele>91.3</ele>
        <time>2025-10-28T08:25:49.000Z</time>
      </trkpt>
      <trkpt lat="43.51774" lon="6.59897">
        <ele>91.4</ele>
        <time>2025-10-28T08:25:50.000Z</time>
      </trkpt>
      <trkpt lat="43.51773" lon="6.59905">
        <ele>91.5</ele>
        <time>2025-10-28T08:25:51.000Z</time>
      </trkpt>
      <trkpt lat="43.51773" lon="6.59914">
        <ele>91.6</ele>
        <time>2025-10-28T08:25:52.000Z</time>
      </trkpt>
      <trkpt lat="43.51774" lon="6.59921">
        <ele>91.7</ele>
        <time>2025-10-28T08:25:53.000Z</time>
      </trkpt>
      <trkpt lat="43.51774" lon="6.59928">
        <ele>91.8</ele>
        <time>2025-10-28T08:25:54.000Z</time>
      </trkpt>
      <trkpt lat="43.51774" lon="6.59934">
        <ele>91.9</ele>
        <time>2025-10-28T08:25:55.000Z</time>
      </trkpt>
      <trkpt lat="43.51774" lon="6.59941">
        <ele>92</ele>
        <time>2025-10-28T08:25:56.000Z</time>
      </trkpt>
      <trkpt lat="43.51774" lon="6.59948">
        <ele>92.1</ele>
        <time>2025-10-28T08:25:57.000Z</time>
      </trkpt>
      <trkpt lat="43.51773" lon="6.59957">
        <ele>92.2</ele>
        <time>2025-10-28T08:25:58.000Z</time>
      </trkpt>
      <trkpt lat="43.51772" lon="6.59963">
        <ele>92.2</ele>
        <time>2025-10-28T08:25:59.000Z</time>
      </trkpt>
      <trkpt lat="43.51772" lon="6.5997">
        <ele>92.2</ele>
        <time>2025-10-28T08:26:00.000Z</time>
      </trkpt>
      <trkpt lat="43.51771" lon="6.59976">
        <ele>92.2</ele>
        <time>2025-10-28T08:26:01.000Z</time>
      </trkpt>
      <trkpt lat="43.51771" lon="6.59983">
        <ele>92.2</ele>
        <time>2025-10-28T08:26:02.000Z</time>
      </trkpt>
      <trkpt lat="43.5177" lon="6.59991">
        <ele>92.1</ele>
        <time>2025-10-28T08:26:03.000Z</time>
      </trkpt>
      <trkpt lat="43.51769" lon="6.59996">
        <ele>92.1</ele>
        <time>2025-10-28T08:26:04.000Z</time>
      </trkpt>
      <trkpt lat="43.51768" lon="6.60003">
        <ele>92</ele>
        <time>2025-10-28T08:26:05.000Z</time>
      </trkpt>
      <trkpt lat="43.51767" lon="6.60009">
        <ele>91.9</ele>
        <time>2025-10-28T08:26:06.000Z</time>
      </trkpt>
      <trkpt lat="43.51764" lon="6.60017">
        <ele>91.8</ele>
        <time>2025-10-28T08:26:07.000Z</time>
      </trkpt>
      <trkpt lat="43.5176" lon="6.60022">
        <ele>91.6</ele>
        <time>2025-10-28T08:26:08.000Z</time>
      </trkpt>
      <trkpt lat="43.51757" lon="6.60026">
        <ele>91.5</ele>
        <time>2025-10-28T08:26:09.000Z</time>
      </trkpt>
      <trkpt lat="43.51752" lon="6.60031">
        <ele>91.4</ele>
        <time>2025-10-28T08:26:10.000Z</time>
      </trkpt>
      <trkpt lat="43.51748" lon="6.60036">
        <ele>91.2</ele>
        <time>2025-10-28T08:26:11.000Z</time>
      </trkpt>
      <trkpt lat="43.51742" lon="6.60042">
        <ele>91</ele>
        <time>2025-10-28T08:26:12.000Z</time>
      </trkpt>
      <trkpt lat="43.51739" lon="6.60046">
        <ele>90.9</ele>
        <time>2025-10-28T08:26:13.000Z</time>
      </trkpt>
      <trkpt lat="43.51734" lon="6.60052">
        <ele>90.8</ele>
        <time>2025-10-28T08:26:14.000Z</time>
      </trkpt>
      <trkpt lat="43.5173" lon="6.60057">
        <ele>90.7</ele>
        <time>2025-10-28T08:26:15.000Z</time>
      </trkpt>
      <trkpt lat="43.51724" lon="6.60063">
        <ele>90.7</ele>
        <time>2025-10-28T08:26:16.000Z</time>
      </trkpt>
      <trkpt lat="43.51719" lon="6.60067">
        <ele>90.7</ele>
        <time>2025-10-28T08:26:17.000Z</time>
      </trkpt>
      <trkpt lat="43.51716" lon="6.6007">
        <ele>90.7</ele>
        <time>2025-10-28T08:26:18.000Z</time>
      </trkpt>
      <trkpt lat="43.51713" lon="6.60073">
        <ele>90.7</ele>
        <time>2025-10-28T08:26:19.000Z</time>
      </trkpt>
      <trkpt lat="43.51712" lon="6.60077">
        <ele>90.7</ele>
        <time>2025-10-28T08:26:20.000Z</time>
      </trkpt>
      <trkpt lat="43.51712" lon="6.6008">
        <ele>90.9</ele>
        <time>2025-10-28T08:26:21.000Z</time>
      </trkpt>
      <trkpt lat="43.51713" lon="6.60082">
        <ele>90.9</ele>
        <time>2025-10-28T08:26:22.000Z</time>
      </trkpt>
      <trkpt lat="43.51716" lon="6.60083">
        <ele>91</ele>
        <time>2025-10-28T08:26:23.000Z</time>
      </trkpt>
      <trkpt lat="43.51719" lon="6.60084">
        <ele>91.1</ele>
        <time>2025-10-28T08:26:24.000Z</time>
      </trkpt>
      <trkpt lat="43.51723" lon="6.60083">
        <ele>91.2</ele>
        <time>2025-10-28T08:26:25.000Z</time>
      </trkpt>
      <trkpt lat="43.51727" lon="6.60083">
        <ele>91.4</ele>
        <time>2025-10-28T08:26:26.000Z</time>
      </trkpt>
      <trkpt lat="43.51732" lon="6.60083">
        <ele>91.6</ele>
        <time>2025-10-28T08:26:27.000Z</time>
      </trkpt>
      <trkpt lat="43.51736" lon="6.60083">
        <ele>91.8</ele>
        <time>2025-10-28T08:26:28.000Z</time>
      </trkpt>
      <trkpt lat="43.51741" lon="6.60083">
        <ele>92.1</ele>
        <time>2025-10-28T08:26:29.000Z</time>
      </trkpt>
      <trkpt lat="43.51746" lon="6.60083">
        <ele>92.4</ele>
        <time>2025-10-28T08:26:30.000Z</time>
      </trkpt>
      <trkpt lat="43.51751" lon="6.60083">
        <ele>92.8</ele>
        <time>2025-10-28T08:26:31.000Z</time>
      </trkpt>
      <trkpt lat="43.51756" lon="6.60083">
        <ele>93.2</ele>
        <time>2025-10-28T08:26:32.000Z</time>
      </trkpt>
      <trkpt lat="43.51762" lon="6.60083">
        <ele>93.7</ele>
        <time>2025-10-28T08:26:33.000Z</time>
      </trkpt>
      <trkpt lat="43.51766" lon="6.60083">
        <ele>94</ele>
        <time>2025-10-28T08:26:34.000Z</time>
      </trkpt>
      <trkpt lat="43.51771" lon="6.60083">
        <ele>94.5</ele>
        <time>2025-10-28T08:26:35.000Z</time>
      </trkpt>
      <trkpt lat="43.51776" lon="6.60083">
        <ele>94.9</ele>
        <time>2025-10-28T08:26:36.000Z</time>
      </trkpt>
      <trkpt lat="43.51781" lon="6.60083">
        <ele>95.4</ele>
        <time>2025-10-28T08:26:37.000Z</time>
      </trkpt>
      <trkpt lat="43.51787" lon="6.60083">
        <ele>96</ele>
        <time>2025-10-28T08:26:38.000Z</time>
      </trkpt>
      <trkpt lat="43.51791" lon="6.60083">
        <ele>96.5</ele>
        <time>2025-10-28T08:26:39.000Z</time>
      </trkpt>
      <trkpt lat="43.51796" lon="6.60084">
        <ele>97</ele>
        <time>2025-10-28T08:26:40.000Z</time>
      </trkpt>
      <trkpt lat="43.51802" lon="6.60085">
        <ele>97.6</ele>
        <time>2025-10-28T08:26:41.000Z</time>
      </trkpt>
      <trkpt lat="43.51807" lon="6.60085">
        <ele>98.1</ele>
        <time>2025-10-28T08:26:42.000Z</time>
      </trkpt>
      <trkpt lat="43.51811" lon="6.60085">
        <ele>98.5</ele>
        <time>2025-10-28T08:26:43.000Z</time>
      </trkpt>
      <trkpt lat="43.51816" lon="6.60086">
        <ele>98.9</ele>
        <time>2025-10-28T08:26:44.000Z</time>
      </trkpt>
      <trkpt lat="43.51821" lon="6.60086">
        <ele>99.4</ele>
        <time>2025-10-28T08:26:45.000Z</time>
      </trkpt>
      <trkpt lat="43.51826" lon="6.60086">
        <ele>99.8</ele>
        <time>2025-10-28T08:26:46.000Z</time>
      </trkpt>
      <trkpt lat="43.51832" lon="6.60086">
        <ele>100.3</ele>
        <time>2025-10-28T08:26:47.000Z</time>
      </trkpt>
      <trkpt lat="43.51836" lon="6.60087">
        <ele>100.5</ele>
        <time>2025-10-28T08:26:48.000Z</time>
      </trkpt>
      <trkpt lat="43.51841" lon="6.60087">
        <ele>100.9</ele>
        <time>2025-10-28T08:26:49.000Z</time>
      </trkpt>
      <trkpt lat="43.51847" lon="6.60086">
        <ele>101.2</ele>
        <time>2025-10-28T08:26:50.000Z</time>
      </trkpt>
      <trkpt lat="43.5185" lon="6.60086">
        <ele>101.5</ele>
        <time>2025-10-28T08:26:51.000Z</time>
      </trkpt>
      <trkpt lat="43.51855" lon="6.60086">
        <ele>101.8</ele>
        <time>2025-10-28T08:26:52.000Z</time>
      </trkpt>
      <trkpt lat="43.51861" lon="6.60085">
        <ele>102.1</ele>
        <time>2025-10-28T08:26:53.000Z</time>
      </trkpt>
      <trkpt lat="43.51866" lon="6.60085">
        <ele>102.5</ele>
        <time>2025-10-28T08:26:54.000Z</time>
      </trkpt>
      <trkpt lat="43.51871" lon="6.60084">
        <ele>102.8</ele>
        <time>2025-10-28T08:26:55.000Z</time>
      </trkpt>
      <trkpt lat="43.51876" lon="6.60082">
        <ele>103.1</ele>
        <time>2025-10-28T08:26:56.000Z</time>
      </trkpt>
      <trkpt lat="43.5188" lon="6.6008">
        <ele>103.3</ele>
        <time>2025-10-28T08:26:57.000Z</time>
      </trkpt>
      <trkpt lat="43.51885" lon="6.60078">
        <ele>103.5</ele>
        <time>2025-10-28T08:26:58.000Z</time>
      </trkpt>
      <trkpt lat="43.51889" lon="6.60076">
        <ele>103.7</ele>
        <time>2025-10-28T08:26:59.000Z</time>
      </trkpt>
      <trkpt lat="43.51894" lon="6.60074">
        <ele>103.7</ele>
        <time>2025-10-28T08:27:00.000Z</time>
      </trkpt>
      <trkpt lat="43.51899" lon="6.60072">
        <ele>103.8</ele>
        <time>2025-10-28T08:27:01.000Z</time>
      </trkpt>
      <trkpt lat="43.51904" lon="6.6007">
        <ele>103.8</ele>
        <time>2025-10-28T08:27:02.000Z</time>
      </trkpt>
      <trkpt lat="43.5191" lon="6.60069">
        <ele>103.9</ele>
        <time>2025-10-28T08:27:03.000Z</time>
      </trkpt>
      <trkpt lat="43.51915" lon="6.60068">
        <ele>103.9</ele>
        <time>2025-10-28T08:27:04.000Z</time>
      </trkpt>
      <trkpt lat="43.5192" lon="6.60068">
        <ele>104</ele>
        <time>2025-10-28T08:27:05.000Z</time>
      </trkpt>
      <trkpt lat="43.51925" lon="6.60067">
        <ele>104</ele>
        <time>2025-10-28T08:27:06.000Z</time>
      </trkpt>
      <trkpt lat="43.51931" lon="6.60068">
        <ele>104.1</ele>
        <time>2025-10-28T08:27:07.000Z</time>
      </trkpt>
      <trkpt lat="43.51935" lon="6.60069">
        <ele>104.1</ele>
        <time>2025-10-28T08:27:08.000Z</time>
      </trkpt>
      <trkpt lat="43.51939" lon="6.60071">
        <ele>104.2</ele>
        <time>2025-10-28T08:27:09.000Z</time>
      </trkpt>
      <trkpt lat="43.51944" lon="6.60076">
        <ele>104.3</ele>
        <time>2025-10-28T08:27:10.000Z</time>
      </trkpt>
      <trkpt lat="43.51948" lon="6.6008">
        <ele>104.4</ele>
        <time>2025-10-28T08:27:11.000Z</time>
      </trkpt>
      <trkpt lat="43.51951" lon="6.60085">
        <ele>104.5</ele>
        <time>2025-10-28T08:27:12.000Z</time>
      </trkpt>
      <trkpt lat="43.51954" lon="6.60088">
        <ele>104.5</ele>
        <time>2025-10-28T08:27:13.000Z</time>
      </trkpt>
      <trkpt lat="43.51958" lon="6.60093">
        <ele>104.6</ele>
        <time>2025-10-28T08:27:14.000Z</time>
      </trkpt>
      <trkpt lat="43.51964" lon="6.60098">
        <ele>104.8</ele>
        <time>2025-10-28T08:27:15.000Z</time>
      </trkpt>
      <trkpt lat="43.51967" lon="6.60101">
        <ele>104.9</ele>
        <time>2025-10-28T08:27:16.000Z</time>
      </trkpt>
      <trkpt lat="43.51971" lon="6.60105">
        <ele>105.1</ele>
        <time>2025-10-28T08:27:17.000Z</time>
      </trkpt>
      <trkpt lat="43.51976" lon="6.60109">
        <ele>105.3</ele>
        <time>2025-10-28T08:27:18.000Z</time>
      </trkpt>
      <trkpt lat="43.5198" lon="6.60113">
        <ele>105.5</ele>
        <time>2025-10-28T08:27:19.000Z</time>
      </trkpt>
      <trkpt lat="43.51984" lon="6.60118">
        <ele>105.7</ele>
        <time>2025-10-28T08:27:20.000Z</time>
      </trkpt>
      <trkpt lat="43.51987" lon="6.60123">
        <ele>105.9</ele>
        <time>2025-10-28T08:27:21.000Z</time>
      </trkpt>
      <trkpt lat="43.51989" lon="6.60127">
        <ele>106.1</ele>
        <time>2025-10-28T08:27:22.000Z</time>
      </trkpt>
      <trkpt lat="43.51992" lon="6.60131">
        <ele>106.3</ele>
        <time>2025-10-28T08:27:23.000Z</time>
      </trkpt>
      <trkpt lat="43.51995" lon="6.60136">
        <ele>106.6</ele>
        <time>2025-10-28T08:27:24.000Z</time>
      </trkpt>
      <trkpt lat="43.51997" lon="6.6014">
        <ele>106.7</ele>
        <time>2025-10-28T08:27:25.000Z</time>
      </trkpt>
      <trkpt lat="43.51999" lon="6.60146">
        <ele>107</ele>
        <time>2025-10-28T08:27:26.000Z</time>
      </trkpt>
      <trkpt lat="43.52001" lon="6.60151">
        <ele>107.2</ele>
        <time>2025-10-28T08:27:27.000Z</time>
      </trkpt>
      <trkpt lat="43.52003" lon="6.60156">
        <ele>107.4</ele>
        <time>2025-10-28T08:27:28.000Z</time>
      </trkpt>
      <trkpt lat="43.52006" lon="6.60163">
        <ele>107.7</ele>
        <time>2025-10-28T08:27:29.000Z</time>
      </trkpt>
      <trkpt lat="43.52008" lon="6.60168">
        <ele>108</ele>
        <time>2025-10-28T08:27:30.000Z</time>
      </trkpt>
      <trkpt lat="43.52011" lon="6.60173">
        <ele>108.2</ele>
        <time>2025-10-28T08:27:31.000Z</time>
      </trkpt>
      <trkpt lat="43.52013" lon="6.60176">
        <ele>108.5</ele>
        <time>2025-10-28T08:27:32.000Z</time>
      </trkpt>
      <trkpt lat="43.52016" lon="6.60181">
        <ele>108.7</ele>
        <time>2025-10-28T08:27:33.000Z</time>
      </trkpt>
      <trkpt lat="43.52021" lon="6.60185">
        <ele>109.1</ele>
        <time>2025-10-28T08:27:34.000Z</time>
      </trkpt>
      <trkpt lat="43.52023" lon="6.60187">
        <ele>109.2</ele>
        <time>2025-10-28T08:27:35.000Z</time>
      </trkpt>
      <trkpt lat="43.52027" lon="6.60188">
        <ele>109.4</ele>
        <time>2025-10-28T08:27:36.000Z</time>
      </trkpt>
      <trkpt lat="43.52031" lon="6.6019">
        <ele>109.7</ele>
        <time>2025-10-28T08:27:37.000Z</time>
      </trkpt>
      <trkpt lat="43.52034" lon="6.6019">
        <ele>109.9</ele>
        <time>2025-10-28T08:27:38.000Z</time>
      </trkpt>
      <trkpt lat="43.52039" lon="6.6019">
        <ele>110</ele>
        <time>2025-10-28T08:27:39.000Z</time>
      </trkpt>
      <trkpt lat="43.52043" lon="6.60189">
        <ele>110.2</ele>
        <time>2025-10-28T08:27:40.000Z</time>
      </trkpt>
      <trkpt lat="43.52047" lon="6.60188">
        <ele>110.3</ele>
        <time>2025-10-28T08:27:41.000Z</time>
      </trkpt>
      <trkpt lat="43.52051" lon="6.60187">
        <ele>110.4</ele>
        <time>2025-10-28T08:27:42.000Z</time>
      </trkpt>
      <trkpt lat="43.52055" lon="6.60188">
        <ele>110.5</ele>
        <time>2025-10-28T08:27:43.000Z</time>
      </trkpt>
      <trkpt lat="43.52061" lon="6.60188">
        <ele>110.6</ele>
        <time>2025-10-28T08:27:44.000Z</time>
      </trkpt>
      <trkpt lat="43.52066" lon="6.60189">
        <ele>110.7</ele>
        <time>2025-10-28T08:27:45.000Z</time>
      </trkpt>
      <trkpt lat="43.52069" lon="6.6019">
        <ele>110.7</ele>
        <time>2025-10-28T08:27:46.000Z</time>
      </trkpt>
      <trkpt lat="43.52074" lon="6.60191">
        <ele>110.6</ele>
        <time>2025-10-28T08:27:47.000Z</time>
      </trkpt>
      <trkpt lat="43.52078" lon="6.60192">
        <ele>110.4</ele>
        <time>2025-10-28T08:27:48.000Z</time>
      </trkpt>
      <trkpt lat="43.52084" lon="6.60192">
        <ele>110.2</ele>
        <time>2025-10-28T08:27:49.000Z</time>
      </trkpt>
      <trkpt lat="43.52088" lon="6.60192">
        <ele>109.9</ele>
        <time>2025-10-28T08:27:50.000Z</time>
      </trkpt>
      <trkpt lat="43.52093" lon="6.60192">
        <ele>109.5</ele>
        <time>2025-10-28T08:27:51.000Z</time>
      </trkpt>
      <trkpt lat="43.52098" lon="6.60191">
        <ele>109.2</ele>
        <time>2025-10-28T08:27:52.000Z</time>
      </trkpt>
      <trkpt lat="43.52104" lon="6.6019">
        <ele>108.7</ele>
        <time>2025-10-28T08:27:53.000Z</time>
      </trkpt>
      <trkpt lat="43.52109" lon="6.60189">
        <ele>108.4</ele>
        <time>2025-10-28T08:27:54.000Z</time>
      </trkpt>
      <trkpt lat="43.52115" lon="6.60188">
        <ele>108.1</ele>
        <time>2025-10-28T08:27:55.000Z</time>
      </trkpt>
      <trkpt lat="43.5212" lon="6.60188">
        <ele>107.9</ele>
        <time>2025-10-28T08:27:56.000Z</time>
      </trkpt>
      <trkpt lat="43.52125" lon="6.60186">
        <ele>107.8</ele>
        <time>2025-10-28T08:27:57.000Z</time>
      </trkpt>
      <trkpt lat="43.52131" lon="6.60185">
        <ele>107.6</ele>
        <time>2025-10-28T08:27:58.000Z</time>
      </trkpt>
      <trkpt lat="43.52136" lon="6.60184">
        <ele>107.5</ele>
        <time>2025-10-28T08:27:59.000Z</time>
      </trkpt>
      <trkpt lat="43.52141" lon="6.60183">
        <ele>107.3</ele>
        <time>2025-10-28T08:28:00.000Z</time>
      </trkpt>
      <trkpt lat="43.52146" lon="6.60183">
        <ele>107.2</ele>
        <time>2025-10-28T08:28:01.000Z</time>
      </trkpt>
      <trkpt lat="43.52151" lon="6.60182">
        <ele>107.1</ele>
        <time>2025-10-28T08:28:02.000Z</time>
      </trkpt>
      <trkpt lat="43.52157" lon="6.60182">
        <ele>107.1</ele>
        <time>2025-10-28T08:28:03.000Z</time>
      </trkpt>
      <trkpt lat="43.52162" lon="6.60183">
        <ele>107</ele>
        <time>2025-10-28T08:28:04.000Z</time>
      </trkpt>
      <trkpt lat="43.52165" lon="6.60183">
        <ele>107</ele>
        <time>2025-10-28T08:28:05.000Z</time>
      </trkpt>
      <trkpt lat="43.5217" lon="6.60183">
        <ele>106.9</ele>
        <time>2025-10-28T08:28:06.000Z</time>
      </trkpt>
      <trkpt lat="43.52174" lon="6.60183">
        <ele>106.9</ele>
        <time>2025-10-28T08:28:07.000Z</time>
      </trkpt>
      <trkpt lat="43.52178" lon="6.60183">
        <ele>106.9</ele>
        <time>2025-10-28T08:28:08.000Z</time>
      </trkpt>
      <trkpt lat="43.52184" lon="6.60183">
        <ele>106.9</ele>
        <time>2025-10-28T08:28:09.000Z</time>
      </trkpt>
      <trkpt lat="43.52188" lon="6.60184">
        <ele>107</ele>
        <time>2025-10-28T08:28:10.000Z</time>
      </trkpt>
      <trkpt lat="43.52192" lon="6.60185">
        <ele>107</ele>
        <time>2025-10-28T08:28:11.000Z</time>
      </trkpt>
      <trkpt lat="43.52197" lon="6.60186">
        <ele>107.1</ele>
        <time>2025-10-28T08:28:12.000Z</time>
      </trkpt>
      <trkpt lat="43.52203" lon="6.60187">
        <ele>107.3</ele>
        <time>2025-10-28T08:28:13.000Z</time>
      </trkpt>
      <trkpt lat="43.52207" lon="6.60188">
        <ele>107.4</ele>
        <time>2025-10-28T08:28:14.000Z</time>
      </trkpt>
      <trkpt lat="43.52213" lon="6.60189">
        <ele>107.5</ele>
        <time>2025-10-28T08:28:15.000Z</time>
      </trkpt>
      <trkpt lat="43.52218" lon="6.6019">
        <ele>107.7</ele>
        <time>2025-10-28T08:28:16.000Z</time>
      </trkpt>
      <trkpt lat="43.52224" lon="6.60191">
        <ele>107.9</ele>
        <time>2025-10-28T08:28:17.000Z</time>
      </trkpt>
      <trkpt lat="43.52228" lon="6.60193">
        <ele>108.1</ele>
        <time>2025-10-28T08:28:18.000Z</time>
      </trkpt>
      <trkpt lat="43.52233" lon="6.60194">
        <ele>108.3</ele>
        <time>2025-10-28T08:28:19.000Z</time>
      </trkpt>
      <trkpt lat="43.52238" lon="6.60195">
        <ele>108.5</ele>
        <time>2025-10-28T08:28:20.000Z</time>
      </trkpt>
      <trkpt lat="43.52243" lon="6.60196">
        <ele>108.7</ele>
        <time>2025-10-28T08:28:21.000Z</time>
      </trkpt>
      <trkpt lat="43.52247" lon="6.60198">
        <ele>108.9</ele>
        <time>2025-10-28T08:28:22.000Z</time>
      </trkpt>
      <trkpt lat="43.52252" lon="6.60199">
        <ele>109.1</ele>
        <time>2025-10-28T08:28:23.000Z</time>
      </trkpt>
      <trkpt lat="43.52256" lon="6.60201">
        <ele>109.2</ele>
        <time>2025-10-28T08:28:24.000Z</time>
      </trkpt>
      <trkpt lat="43.5226" lon="6.60203">
        <ele>109.4</ele>
        <time>2025-10-28T08:28:25.000Z</time>
      </trkpt>
      <trkpt lat="43.52264" lon="6.60206">
        <ele>109.6</ele>
        <time>2025-10-28T08:28:26.000Z</time>
      </trkpt>
      <trkpt lat="43.52269" lon="6.60209">
        <ele>109.9</ele>
        <time>2025-10-28T08:28:27.000Z</time>
      </trkpt>
      <trkpt lat="43.52273" lon="6.60212">
        <ele>110.1</ele>
        <time>2025-10-28T08:28:28.000Z</time>
      </trkpt>
      <trkpt lat="43.52276" lon="6.60214">
        <ele>110.2</ele>
        <time>2025-10-28T08:28:29.000Z</time>
      </trkpt>
      <trkpt lat="43.52281" lon="6.60215">
        <ele>110.4</ele>
        <time>2025-10-28T08:28:30.000Z</time>
      </trkpt>
      <trkpt lat="43.52285" lon="6.60215">
        <ele>110.6</ele>
        <time>2025-10-28T08:28:31.000Z</time>
      </trkpt>
      <trkpt lat="43.5229" lon="6.60214">
        <ele>110.8</ele>
        <time>2025-10-28T08:28:32.000Z</time>
      </trkpt>
      <trkpt lat="43.52296" lon="6.60214">
        <ele>111</ele>
        <time>2025-10-28T08:28:33.000Z</time>
      </trkpt>
      <trkpt lat="43.523" lon="6.60213">
        <ele>111.1</ele>
        <time>2025-10-28T08:28:34.000Z</time>
      </trkpt>
      <trkpt lat="43.52304" lon="6.60212">
        <ele>111.3</ele>
        <time>2025-10-28T08:28:35.000Z</time>
      </trkpt>
      <trkpt lat="43.52309" lon="6.60211">
        <ele>111.5</ele>
        <time>2025-10-28T08:28:36.000Z</time>
      </trkpt>
      <trkpt lat="43.52314" lon="6.60209">
        <ele>111.7</ele>
        <time>2025-10-28T08:28:37.000Z</time>
      </trkpt>
      <trkpt lat="43.52319" lon="6.60207">
        <ele>112</ele>
        <time>2025-10-28T08:28:38.000Z</time>
      </trkpt>
      <trkpt lat="43.52323" lon="6.60204">
        <ele>112.3</ele>
        <time>2025-10-28T08:28:39.000Z</time>
      </trkpt>
      <trkpt lat="43.52328" lon="6.60201">
        <ele>112.7</ele>
        <time>2025-10-28T08:28:40.000Z</time>
      </trkpt>
      <trkpt lat="43.52332" lon="6.60198">
        <ele>113.1</ele>
        <time>2025-10-28T08:28:41.000Z</time>
      </trkpt>
      <trkpt lat="43.52337" lon="6.60194">
        <ele>113.5</ele>
        <time>2025-10-28T08:28:42.000Z</time>
      </trkpt>
      <trkpt lat="43.5234" lon="6.60192">
        <ele>113.8</ele>
        <time>2025-10-28T08:28:43.000Z</time>
      </trkpt>
      <trkpt lat="43.52344" lon="6.60189">
        <ele>114.2</ele>
        <time>2025-10-28T08:28:44.000Z</time>
      </trkpt>
      <trkpt lat="43.52348" lon="6.60186">
        <ele>114.6</ele>
        <time>2025-10-28T08:28:45.000Z</time>
      </trkpt>
      <trkpt lat="43.52352" lon="6.60182">
        <ele>115</ele>
        <time>2025-10-28T08:28:46.000Z</time>
      </trkpt>
      <trkpt lat="43.52356" lon="6.60179">
        <ele>115.3</ele>
        <time>2025-10-28T08:28:47.000Z</time>
      </trkpt>
      <trkpt lat="43.52358" lon="6.60176">
        <ele>115.5</ele>
        <time>2025-10-28T08:28:48.000Z</time>
      </trkpt>
      <trkpt lat="43.52361" lon="6.60173">
        <ele>115.7</ele>
        <time>2025-10-28T08:28:49.000Z</time>
      </trkpt>
      <trkpt lat="43.52363" lon="6.60171">
        <ele>116</ele>
        <time>2025-10-28T08:28:50.000Z</time>
      </trkpt>
      <trkpt lat="43.52365" lon="6.60169">
        <ele>115.9</ele>
        <time>2025-10-28T08:28:51.000Z</time>
      </trkpt>
      <trkpt lat="43.52367" lon="6.60166">
        <ele>115.9</ele>
        <time>2025-10-28T08:28:52.000Z</time>
      </trkpt>
      <trkpt lat="43.52368" lon="6.60165">
        <ele>115.9</ele>
        <time>2025-10-28T08:28:53.000Z</time>
      </trkpt>
      <trkpt lat="43.52369" lon="6.60163">
        <ele>115.9</ele>
        <time>2025-10-28T08:28:54.000Z</time>
      </trkpt>
      <trkpt lat="43.52371" lon="6.60162">
        <ele>115.8</ele>
        <time>2025-10-28T08:28:55.000Z</time>
      </trkpt>
      <trkpt lat="43.52372" lon="6.60161">
        <ele>115.8</ele>
        <time>2025-10-28T08:28:56.000Z</time>
      </trkpt>
      <trkpt lat="43.52374" lon="6.60159">
        <ele>115.7</ele>
        <time>2025-10-28T08:28:57.000Z</time>
      </trkpt>
      <trkpt lat="43.52376" lon="6.60158">
        <ele>115.6</ele>
        <time>2025-10-28T08:28:58.000Z</time>
      </trkpt>
      <trkpt lat="43.52379" lon="6.60157">
        <ele>115.5</ele>
        <time>2025-10-28T08:28:59.000Z</time>
      </trkpt>
      <trkpt lat="43.52383" lon="6.60155">
        <ele>115.3</ele>
        <time>2025-10-28T08:29:00.000Z</time>
      </trkpt>
      <trkpt lat="43.52387" lon="6.60153">
        <ele>115.1</ele>
        <time>2025-10-28T08:29:01.000Z</time>
      </trkpt>
      <trkpt lat="43.52392" lon="6.60151">
        <ele>115</ele>
        <time>2025-10-28T08:29:02.000Z</time>
      </trkpt>
      <trkpt lat="43.52397" lon="6.60148">
        <ele>114.9</ele>
        <time>2025-10-28T08:29:03.000Z</time>
      </trkpt>
      <trkpt lat="43.52401" lon="6.60145">
        <ele>114.8</ele>
        <time>2025-10-28T08:29:04.000Z</time>
      </trkpt>
      <trkpt lat="43.52404" lon="6.6014">
        <ele>114.8</ele>
        <time>2025-10-28T08:29:05.000Z</time>
      </trkpt>
      <trkpt lat="43.52405" lon="6.60134">
        <ele>114.8</ele>
        <time>2025-10-28T08:29:06.000Z</time>
      </trkpt>
      <trkpt lat="43.52405" lon="6.60128">
        <ele>114.9</ele>
        <time>2025-10-28T08:29:07.000Z</time>
      </trkpt>
      <trkpt lat="43.52403" lon="6.60124">
        <ele>115</ele>
        <time>2025-10-28T08:29:08.000Z</time>
      </trkpt>
      <trkpt lat="43.52401" lon="6.60119">
        <ele>115.2</ele>
        <time>2025-10-28T08:29:09.000Z</time>
      </trkpt>
      <trkpt lat="43.52397" lon="6.60114">
        <ele>115.4</ele>
        <time>2025-10-28T08:29:10.000Z</time>
      </trkpt>
      <trkpt lat="43.52392" lon="6.6011">
        <ele>115.9</ele>
        <time>2025-10-28T08:29:11.000Z</time>
      </trkpt>
      <trkpt lat="43.52388" lon="6.60108">
        <ele>116.3</ele>
        <time>2025-10-28T08:29:12.000Z</time>
      </trkpt>
      <trkpt lat="43.52384" lon="6.60106">
        <ele>116.5</ele>
        <time>2025-10-28T08:29:13.000Z</time>
      </trkpt>
      <trkpt lat="43.5238" lon="6.60103">
        <ele>116.9</ele>
        <time>2025-10-28T08:29:14.000Z</time>
      </trkpt>
      <trkpt lat="43.52375" lon="6.60099">
        <ele>117.1</ele>
        <time>2025-10-28T08:29:15.000Z</time>
      </trkpt>
      <trkpt lat="43.52372" lon="6.60095">
        <ele>117.2</ele>
        <time>2025-10-28T08:29:16.000Z</time>
      </trkpt>
      <trkpt lat="43.52369" lon="6.6009">
        <ele>117.1</ele>
        <time>2025-10-28T08:29:17.000Z</time>
      </trkpt>
      <trkpt lat="43.52367" lon="6.60083">
        <ele>117</ele>
        <time>2025-10-28T08:29:18.000Z</time>
      </trkpt>
      <trkpt lat="43.52365" lon="6.60078">
        <ele>116.8</ele>
        <time>2025-10-28T08:29:19.000Z</time>
      </trkpt>
      <trkpt lat="43.52364" lon="6.60069">
        <ele>116.4</ele>
        <time>2025-10-28T08:29:20.000Z</time>
      </trkpt>
      <trkpt lat="43.52363" lon="6.60061">
        <ele>116</ele>
        <time>2025-10-28T08:29:21.000Z</time>
      </trkpt>
      <trkpt lat="43.52362" lon="6.60054">
        <ele>115.6</ele>
        <time>2025-10-28T08:29:22.000Z</time>
      </trkpt>
      <trkpt lat="43.52362" lon="6.60046">
        <ele>115.2</ele>
        <time>2025-10-28T08:29:23.000Z</time>
      </trkpt>
      <trkpt lat="43.52363" lon="6.60038">
        <ele>114.8</ele>
        <time>2025-10-28T08:29:24.000Z</time>
      </trkpt>
      <trkpt lat="43.52364" lon="6.6003">
        <ele>114.3</ele>
        <time>2025-10-28T08:29:25.000Z</time>
      </trkpt>
      <trkpt lat="43.52366" lon="6.60022">
        <ele>113.7</ele>
        <time>2025-10-28T08:29:26.000Z</time>
      </trkpt>
      <trkpt lat="43.52368" lon="6.60013">
        <ele>113.2</ele>
        <time>2025-10-28T08:29:27.000Z</time>
      </trkpt>
      <trkpt lat="43.52369" lon="6.60006">
        <ele>112.8</ele>
        <time>2025-10-28T08:29:28.000Z</time>
      </trkpt>
      <trkpt lat="43.52369" lon="6.59998">
        <ele>112.4</ele>
        <time>2025-10-28T08:29:29.000Z</time>
      </trkpt>
      <trkpt lat="43.52368" lon="6.59989">
        <ele>112</ele>
        <time>2025-10-28T08:29:30.000Z</time>
      </trkpt>
      <trkpt lat="43.52365" lon="6.59984">
        <ele>111.8</ele>
        <time>2025-10-28T08:29:31.000Z</time>
      </trkpt>
      <trkpt lat="43.52361" lon="6.59979">
        <ele>111.6</ele>
        <time>2025-10-28T08:29:32.000Z</time>
      </trkpt>
      <trkpt lat="43.52358" lon="6.59975">
        <ele>111.4</ele>
        <time>2025-10-28T08:29:33.000Z</time>
      </trkpt>
      <trkpt lat="43.52354" lon="6.5997">
        <ele>111.1</ele>
        <time>2025-10-28T08:29:34.000Z</time>
      </trkpt>
      <trkpt lat="43.5235" lon="6.59964">
        <ele>110.9</ele>
        <time>2025-10-28T08:29:35.000Z</time>
      </trkpt>
      <trkpt lat="43.52346" lon="6.59957">
        <ele>110.6</ele>
        <time>2025-10-28T08:29:36.000Z</time>
      </trkpt>
      <trkpt lat="43.52343" lon="6.59951">
        <ele>110.4</ele>
        <time>2025-10-28T08:29:37.000Z</time>
      </trkpt>
      <trkpt lat="43.52339" lon="6.59946">
        <ele>110.2</ele>
        <time>2025-10-28T08:29:38.000Z</time>
      </trkpt>
      <trkpt lat="43.52335" lon="6.5994">
        <ele>110</ele>
        <time>2025-10-28T08:29:39.000Z</time>
      </trkpt>
      <trkpt lat="43.5233" lon="6.59934">
        <ele>109.8</ele>
        <time>2025-10-28T08:29:40.000Z</time>
      </trkpt>
      <trkpt lat="43.52327" lon="6.59929">
        <ele>109.5</ele>
        <time>2025-10-28T08:29:41.000Z</time>
      </trkpt>
      <trkpt lat="43.52324" lon="6.59924">
        <ele>109.1</ele>
        <time>2025-10-28T08:29:42.000Z</time>
      </trkpt>
      <trkpt lat="43.5232" lon="6.59917">
        <ele>108.6</ele>
        <time>2025-10-28T08:29:43.000Z</time>
      </trkpt>
      <trkpt lat="43.52317" lon="6.59908">
        <ele>107.9</ele>
        <time>2025-10-28T08:29:44.000Z</time>
      </trkpt>
      <trkpt lat="43.52315" lon="6.599">
        <ele>107.2</ele>
        <time>2025-10-28T08:29:45.000Z</time>
      </trkpt>
      <trkpt lat="43.52314" lon="6.59891">
        <ele>106.5</ele>
        <time>2025-10-28T08:29:46.000Z</time>
      </trkpt>
      <trkpt lat="43.52312" lon="6.59881">
        <ele>105.8</ele>
        <time>2025-10-28T08:29:47.000Z</time>
      </trkpt>
      <trkpt lat="43.52312" lon="6.5987">
        <ele>105.1</ele>
        <time>2025-10-28T08:29:48.000Z</time>
      </trkpt>
      <trkpt lat="43.52311" lon="6.59859">
        <ele>104.5</ele>
        <time>2025-10-28T08:29:49.000Z</time>
      </trkpt>
      <trkpt lat="43.52309" lon="6.59848">
        <ele>103.7</ele>
        <time>2025-10-28T08:29:50.000Z</time>
      </trkpt>
      <trkpt lat="43.52308" lon="6.59837">
        <ele>102.9</ele>
        <time>2025-10-28T08:29:51.000Z</time>
      </trkpt>
      <trkpt lat="43.52307" lon="6.59827">
        <ele>102.1</ele>
        <time>2025-10-28T08:29:52.000Z</time>
      </trkpt>
      <trkpt lat="43.52305" lon="6.59815">
        <ele>101.2</ele>
        <time>2025-10-28T08:29:53.000Z</time>
      </trkpt>
      <trkpt lat="43.52304" lon="6.59802">
        <ele>100.5</ele>
        <time>2025-10-28T08:29:54.000Z</time>
      </trkpt>
      <trkpt lat="43.52303" lon="6.59786">
        <ele>99.8</ele>
        <time>2025-10-28T08:29:55.000Z</time>
      </trkpt>
      <trkpt lat="43.52303" lon="6.59773">
        <ele>99.2</ele>
        <time>2025-10-28T08:29:56.000Z</time>
      </trkpt>
      <trkpt lat="43.52301" lon="6.5976">
        <ele>98.7</ele>
        <time>2025-10-28T08:29:57.000Z</time>
      </trkpt>
      <trkpt lat="43.52299" lon="6.5975">
        <ele>98.3</ele>
        <time>2025-10-28T08:29:58.000Z</time>
      </trkpt>
      <trkpt lat="43.52297" lon="6.59738">
        <ele>97.8</ele>
        <time>2025-10-28T08:29:59.000Z</time>
      </trkpt>
      <trkpt lat="43.52295" lon="6.59724">
        <ele>97.2</ele>
        <time>2025-10-28T08:30:00.000Z</time>
      </trkpt>
      <trkpt lat="43.52294" lon="6.59714">
        <ele>96.8</ele>
        <time>2025-10-28T08:30:01.000Z</time>
      </trkpt>
      <trkpt lat="43.52294" lon="6.59704">
        <ele>96.5</ele>
        <time>2025-10-28T08:30:02.000Z</time>
      </trkpt>
      <trkpt lat="43.52296" lon="6.59695">
        <ele>96.2</ele>
        <time>2025-10-28T08:30:03.000Z</time>
      </trkpt>
      <trkpt lat="43.52297" lon="6.59688">
        <ele>96.1</ele>
        <time>2025-10-28T08:30:04.000Z</time>
      </trkpt>
      <trkpt lat="43.523" lon="6.59677">
        <ele>96</ele>
        <time>2025-10-28T08:30:05.000Z</time>
      </trkpt>
      <trkpt lat="43.523" lon="6.59668">
        <ele>95.9</ele>
        <time>2025-10-28T08:30:06.000Z</time>
      </trkpt>
      <trkpt lat="43.52299" lon="6.5966">
        <ele>95.8</ele>
        <time>2025-10-28T08:30:07.000Z</time>
      </trkpt>
      <trkpt lat="43.52297" lon="6.59652">
        <ele>95.7</ele>
        <time>2025-10-28T08:30:08.000Z</time>
      </trkpt>
      <trkpt lat="43.52295" lon="6.59645">
        <ele>95.5</ele>
        <time>2025-10-28T08:30:09.000Z</time>
      </trkpt>
      <trkpt lat="43.52293" lon="6.59638">
        <ele>95.3</ele>
        <time>2025-10-28T08:30:10.000Z</time>
      </trkpt>
      <trkpt lat="43.52291" lon="6.59631">
        <ele>95</ele>
        <time>2025-10-28T08:30:11.000Z</time>
      </trkpt>
      <trkpt lat="43.52288" lon="6.59624">
        <ele>94.8</ele>
        <time>2025-10-28T08:30:12.000Z</time>
      </trkpt>
      <trkpt lat="43.52286" lon="6.59617">
        <ele>94.6</ele>
        <time>2025-10-28T08:30:13.000Z</time>
      </trkpt>
      <trkpt lat="43.52282" lon="6.59611">
        <ele>94.4</ele>
        <time>2025-10-28T08:30:14.000Z</time>
      </trkpt>
      <trkpt lat="43.52279" lon="6.59604">
        <ele>94.2</ele>
        <time>2025-10-28T08:30:15.000Z</time>
      </trkpt>
      <trkpt lat="43.52275" lon="6.59598">
        <ele>94</ele>
        <time>2025-10-28T08:30:16.000Z</time>
      </trkpt>
      <trkpt lat="43.52272" lon="6.59592">
        <ele>93.8</ele>
        <time>2025-10-28T08:30:17.000Z</time>
      </trkpt>
      <trkpt lat="43.52268" lon="6.59585">
        <ele>93.6</ele>
        <time>2025-10-28T08:30:18.000Z</time>
      </trkpt>
      <trkpt lat="43.52265" lon="6.5958">
        <ele>93.4</ele>
        <time>2025-10-28T08:30:19.000Z</time>
      </trkpt>
      <trkpt lat="43.52262" lon="6.59572">
        <ele>93.1</ele>
        <time>2025-10-28T08:30:20.000Z</time>
      </trkpt>
      <trkpt lat="43.52259" lon="6.59566">
        <ele>92.8</ele>
        <time>2025-10-28T08:30:21.000Z</time>
      </trkpt>
      <trkpt lat="43.52257" lon="6.59559">
        <ele>92.6</ele>
        <time>2025-10-28T08:30:22.000Z</time>
      </trkpt>
      <trkpt lat="43.52255" lon="6.59554">
        <ele>92.4</ele>
        <time>2025-10-28T08:30:23.000Z</time>
      </trkpt>
      <trkpt lat="43.52254" lon="6.59548">
        <ele>92.1</ele>
        <time>2025-10-28T08:30:24.000Z</time>
      </trkpt>
      <trkpt lat="43.52252" lon="6.5954">
        <ele>91.8</ele>
        <time>2025-10-28T08:30:25.000Z</time>
      </trkpt>
      <trkpt lat="43.5225" lon="6.59535">
        <ele>91.6</ele>
        <time>2025-10-28T08:30:26.000Z</time>
      </trkpt>
      <trkpt lat="43.52248" lon="6.59529">
        <ele>91.3</ele>
        <time>2025-10-28T08:30:27.000Z</time>
      </trkpt>
      <trkpt lat="43.52247" lon="6.59524">
        <ele>91</ele>
        <time>2025-10-28T08:30:28.000Z</time>
      </trkpt>
      <trkpt lat="43.52245" lon="6.59516">
        <ele>90.7</ele>
        <time>2025-10-28T08:30:29.000Z</time>
      </trkpt>
      <trkpt lat="43.52243" lon="6.59507">
        <ele>90.2</ele>
        <time>2025-10-28T08:30:30.000Z</time>
      </trkpt>
      <trkpt lat="43.52242" lon="6.59499">
        <ele>89.7</ele>
        <time>2025-10-28T08:30:31.000Z</time>
      </trkpt>
      <trkpt lat="43.52241" lon="6.59491">
        <ele>89.2</ele>
        <time>2025-10-28T08:30:32.000Z</time>
      </trkpt>
      <trkpt lat="43.5224" lon="6.59482">
        <ele>88.6</ele>
        <time>2025-10-28T08:30:33.000Z</time>
      </trkpt>
      <trkpt lat="43.52238" lon="6.59473">
        <ele>88</ele>
        <time>2025-10-28T08:30:34.000Z</time>
      </trkpt>
      <trkpt lat="43.52237" lon="6.59463">
        <ele>87.3</ele>
        <time>2025-10-28T08:30:35.000Z</time>
      </trkpt>
      <trkpt lat="43.52236" lon="6.59453">
        <ele>86.6</ele>
        <time>2025-10-28T08:30:36.000Z</time>
      </trkpt>
      <trkpt lat="43.52235" lon="6.59442">
        <ele>85.9</ele>
        <time>2025-10-28T08:30:37.000Z</time>
      </trkpt>
      <trkpt lat="43.52233" lon="6.59431">
        <ele>85.1</ele>
        <time>2025-10-28T08:30:38.000Z</time>
      </trkpt>
      <trkpt lat="43.52232" lon="6.5942">
        <ele>84.5</ele>
        <time>2025-10-28T08:30:39.000Z</time>
      </trkpt>
      <trkpt lat="43.52231" lon="6.59409">
        <ele>83.9</ele>
        <time>2025-10-28T08:30:40.000Z</time>
      </trkpt>
      <trkpt lat="43.52231" lon="6.59399">
        <ele>83.4</ele>
        <time>2025-10-28T08:30:41.000Z</time>
      </trkpt>
      <trkpt lat="43.52231" lon="6.59389">
        <ele>82.9</ele>
        <time>2025-10-28T08:30:42.000Z</time>
      </trkpt>
      <trkpt lat="43.52231" lon="6.59381">
        <ele>82.4</ele>
        <time>2025-10-28T08:30:43.000Z</time>
      </trkpt>
      <trkpt lat="43.52233" lon="6.59373">
        <ele>82.1</ele>
        <time>2025-10-28T08:30:44.000Z</time>
      </trkpt>
      <trkpt lat="43.52235" lon="6.59365">
        <ele>81.9</ele>
        <time>2025-10-28T08:30:45.000Z</time>
      </trkpt>
      <trkpt lat="43.52237" lon="6.59357">
        <ele>81.8</ele>
        <time>2025-10-28T08:30:46.000Z</time>
      </trkpt>
      <trkpt lat="43.52237" lon="6.5935">
        <ele>81.9</ele>
        <time>2025-10-28T08:30:47.000Z</time>
      </trkpt>
      <trkpt lat="43.52236" lon="6.59344">
        <ele>82</ele>
        <time>2025-10-28T08:30:48.000Z</time>
      </trkpt>
      <trkpt lat="43.52234" lon="6.59339">
        <ele>82.3</ele>
        <time>2025-10-28T08:30:49.000Z</time>
      </trkpt>
      <trkpt lat="43.52231" lon="6.59335">
        <ele>82.5</ele>
        <time>2025-10-28T08:30:50.000Z</time>
      </trkpt>
      <trkpt lat="43.52227" lon="6.59333">
        <ele>82.8</ele>
        <time>2025-10-28T08:30:51.000Z</time>
      </trkpt>
      <trkpt lat="43.52222" lon="6.59332">
        <ele>83.1</ele>
        <time>2025-10-28T08:30:52.000Z</time>
      </trkpt>
      <trkpt lat="43.52218" lon="6.59331">
        <ele>83.4</ele>
        <time>2025-10-28T08:30:53.000Z</time>
      </trkpt>
      <trkpt lat="43.52213" lon="6.59329">
        <ele>83.7</ele>
        <time>2025-10-28T08:30:54.000Z</time>
      </trkpt>
      <trkpt lat="43.52208" lon="6.59327">
        <ele>84</ele>
        <time>2025-10-28T08:30:55.000Z</time>
      </trkpt>
      <trkpt lat="43.52205" lon="6.59326">
        <ele>84.2</ele>
        <time>2025-10-28T08:30:56.000Z</time>
      </trkpt>
      <trkpt lat="43.52201" lon="6.59322">
        <ele>84.4</ele>
        <time>2025-10-28T08:30:57.000Z</time>
      </trkpt>
      <trkpt lat="43.52199" lon="6.59319">
        <ele>84.6</ele>
        <time>2025-10-28T08:30:58.000Z</time>
      </trkpt>
      <trkpt lat="43.52196" lon="6.59314">
        <ele>84.7</ele>
        <time>2025-10-28T08:30:59.000Z</time>
      </trkpt>
      <trkpt lat="43.52194" lon="6.59309">
        <ele>84.8</ele>
        <time>2025-10-28T08:31:00.000Z</time>
      </trkpt>
      <trkpt lat="43.52193" lon="6.59305">
        <ele>84.8</ele>
        <time>2025-10-28T08:31:01.000Z</time>
      </trkpt>
      <trkpt lat="43.52191" lon="6.59302">
        <ele>84.9</ele>
        <time>2025-10-28T08:31:02.000Z</time>
      </trkpt>
      <trkpt lat="43.5219" lon="6.59297">
        <ele>84.9</ele>
        <time>2025-10-28T08:31:03.000Z</time>
      </trkpt>
      <trkpt lat="43.52189" lon="6.59293">
        <ele>85</ele>
        <time>2025-10-28T08:31:04.000Z</time>
      </trkpt>
      <trkpt lat="43.52189" lon="6.59289">
        <ele>85.1</ele>
        <time>2025-10-28T08:31:05.000Z</time>
      </trkpt>
      <trkpt lat="43.52188" lon="6.59284">
        <ele>85.1</ele>
        <time>2025-10-28T08:31:06.000Z</time>
      </trkpt>
      <trkpt lat="43.52188" lon="6.59281">
        <ele>85.2</ele>
        <time>2025-10-28T08:31:07.000Z</time>
      </trkpt>
      <trkpt lat="43.52187" lon="6.59275">
        <ele>85.2</ele>
        <time>2025-10-28T08:31:08.000Z</time>
      </trkpt>
      <trkpt lat="43.52186" lon="6.5927">
        <ele>85.3</ele>
        <time>2025-10-28T08:31:09.000Z</time>
      </trkpt>
      <trkpt lat="43.52185" lon="6.59265">
        <ele>85.4</ele>
        <time>2025-10-28T08:31:10.000Z</time>
      </trkpt>
      <trkpt lat="43.52184" lon="6.59261">
        <ele>85.4</ele>
        <time>2025-10-28T08:31:11.000Z</time>
      </trkpt>
      <trkpt lat="43.52184" lon="6.59255">
        <ele>85.5</ele>
        <time>2025-10-28T08:31:12.000Z</time>
      </trkpt>
      <trkpt lat="43.52183" lon="6.5925">
        <ele>85.6</ele>
        <time>2025-10-28T08:31:13.000Z</time>
      </trkpt>
      <trkpt lat="43.52183" lon="6.59243">
        <ele>85.7</ele>
        <time>2025-10-28T08:31:14.000Z</time>
      </trkpt>
      <trkpt lat="43.52182" lon="6.59236">
        <ele>85.7</ele>
        <time>2025-10-28T08:31:15.000Z</time>
      </trkpt>
      <trkpt lat="43.52182" lon="6.5923">
        <ele>85.8</ele>
        <time>2025-10-28T08:31:16.000Z</time>
      </trkpt>
      <trkpt lat="43.52182" lon="6.59225">
        <ele>85.9</ele>
        <time>2025-10-28T08:31:17.000Z</time>
      </trkpt>
      <trkpt lat="43.52183" lon="6.59218">
        <ele>86</ele>
        <time>2025-10-28T08:31:18.000Z</time>
      </trkpt>
      <trkpt lat="43.52184" lon="6.59212">
        <ele>86.2</ele>
        <time>2025-10-28T08:31:19.000Z</time>
      </trkpt>
      <trkpt lat="43.52184" lon="6.59204">
        <ele>86.4</ele>
        <time>2025-10-28T08:31:20.000Z</time>
      </trkpt>
      <trkpt lat="43.52185" lon="6.59198">
        <ele>86.6</ele>
        <time>2025-10-28T08:31:21.000Z</time>
      </trkpt>
      <trkpt lat="43.52185" lon="6.59193">
        <ele>86.7</ele>
        <time>2025-10-28T08:31:22.000Z</time>
      </trkpt>
      <trkpt lat="43.52185" lon="6.59185">
        <ele>87</ele>
        <time>2025-10-28T08:31:23.000Z</time>
      </trkpt>
      <trkpt lat="43.52184" lon="6.59179">
        <ele>87.2</ele>
        <time>2025-10-28T08:31:24.000Z</time>
      </trkpt>
      <trkpt lat="43.52183" lon="6.59172">
        <ele>87.5</ele>
        <time>2025-10-28T08:31:25.000Z</time>
      </trkpt>
      <trkpt lat="43.52182" lon="6.59167">
        <ele>87.8</ele>
        <time>2025-10-28T08:31:26.000Z</time>
      </trkpt>
      <trkpt lat="43.52181" lon="6.59162">
        <ele>88</ele>
        <time>2025-10-28T08:31:27.000Z</time>
      </trkpt>
      <trkpt lat="43.5218" lon="6.59156">
        <ele>88.3</ele>
        <time>2025-10-28T08:31:28.000Z</time>
      </trkpt>
      <trkpt lat="43.52178" lon="6.59149">
        <ele>88.7</ele>
        <time>2025-10-28T08:31:29.000Z</time>
      </trkpt>
      <trkpt lat="43.52176" lon="6.59144">
        <ele>89</ele>
        <time>2025-10-28T08:31:30.000Z</time>
      </trkpt>
      <trkpt lat="43.52175" lon="6.59138">
        <ele>89.2</ele>
        <time>2025-10-28T08:31:31.000Z</time>
      </trkpt>
      <trkpt lat="43.52175" lon="6.59134">
        <ele>89.4</ele>
        <time>2025-10-28T08:31:32.000Z</time>
      </trkpt>
      <trkpt lat="43.52174" lon="6.59128">
        <ele>89.6</ele>
        <time>2025-10-28T08:31:33.000Z</time>
      </trkpt>
      <trkpt lat="43.52173" lon="6.59122">
        <ele>89.8</ele>
        <time>2025-10-28T08:31:34.000Z</time>
      </trkpt>
      <trkpt lat="43.52173" lon="6.59115">
        <ele>90</ele>
        <time>2025-10-28T08:31:35.000Z</time>
      </trkpt>
      <trkpt lat="43.52174" lon="6.59109">
        <ele>90.2</ele>
        <time>2025-10-28T08:31:36.000Z</time>
      </trkpt>
      <trkpt lat="43.52174" lon="6.59104">
        <ele>90.2</ele>
        <time>2025-10-28T08:31:37.000Z</time>
      </trkpt>
      <trkpt lat="43.52175" lon="6.59098">
        <ele>90.3</ele>
        <time>2025-10-28T08:31:38.000Z</time>
      </trkpt>
      <trkpt lat="43.52176" lon="6.59091">
        <ele>90.2</ele>
        <time>2025-10-28T08:31:39.000Z</time>
      </trkpt>
      <trkpt lat="43.52177" lon="6.59085">
        <ele>90.1</ele>
        <time>2025-10-28T08:31:40.000Z</time>
      </trkpt>
      <trkpt lat="43.52178" lon="6.5908">
        <ele>90</ele>
        <time>2025-10-28T08:31:41.000Z</time>
      </trkpt>
      <trkpt lat="43.52179" lon="6.59073">
        <ele>89.7</ele>
        <time>2025-10-28T08:31:42.000Z</time>
      </trkpt>
      <trkpt lat="43.5218" lon="6.59066">
        <ele>89.5</ele>
        <time>2025-10-28T08:31:43.000Z</time>
      </trkpt>
      <trkpt lat="43.52181" lon="6.59059">
        <ele>89.2</ele>
        <time>2025-10-28T08:31:44.000Z</time>
      </trkpt>
      <trkpt lat="43.52182" lon="6.59051">
        <ele>88.9</ele>
        <time>2025-10-28T08:31:45.000Z</time>
      </trkpt>
      <trkpt lat="43.52182" lon="6.59043">
        <ele>88.6</ele>
        <time>2025-10-28T08:31:46.000Z</time>
      </trkpt>
      <trkpt lat="43.52183" lon="6.59035">
        <ele>88.4</ele>
        <time>2025-10-28T08:31:47.000Z</time>
      </trkpt>
      <trkpt lat="43.52184" lon="6.59027">
        <ele>88.1</ele>
        <time>2025-10-28T08:31:48.000Z</time>
      </trkpt>
      <trkpt lat="43.52185" lon="6.59019">
        <ele>87.7</ele>
        <time>2025-10-28T08:31:49.000Z</time>
      </trkpt>
      <trkpt lat="43.52186" lon="6.59011">
        <ele>87.3</ele>
        <time>2025-10-28T08:31:50.000Z</time>
      </trkpt>
      <trkpt lat="43.52186" lon="6.59002">
        <ele>86.9</ele>
        <time>2025-10-28T08:31:51.000Z</time>
      </trkpt>
      <trkpt lat="43.52187" lon="6.58993">
        <ele>86.4</ele>
        <time>2025-10-28T08:31:52.000Z</time>
      </trkpt>
      <trkpt lat="43.52188" lon="6.58984">
        <ele>85.9</ele>
        <time>2025-10-28T08:31:53.000Z</time>
      </trkpt>
      <trkpt lat="43.52188" lon="6.58974">
        <ele>85.5</ele>
        <time>2025-10-28T08:31:54.000Z</time>
      </trkpt>
      <trkpt lat="43.52189" lon="6.58965">
        <ele>85</ele>
        <time>2025-10-28T08:31:55.000Z</time>
      </trkpt>
      <trkpt lat="43.52189" lon="6.58955">
        <ele>84.5</ele>
        <time>2025-10-28T08:31:56.000Z</time>
      </trkpt>
      <trkpt lat="43.52187" lon="6.58945">
        <ele>84</ele>
        <time>2025-10-28T08:31:57.000Z</time>
      </trkpt>
      <trkpt lat="43.52184" lon="6.58936">
        <ele>83.5</ele>
        <time>2025-10-28T08:31:58.000Z</time>
      </trkpt>
      <trkpt lat="43.52181" lon="6.58927">
        <ele>82.9</ele>
        <time>2025-10-28T08:31:59.000Z</time>
      </trkpt>
      <trkpt lat="43.52177" lon="6.58919">
        <ele>82.3</ele>
        <time>2025-10-28T08:32:00.000Z</time>
      </trkpt>
      <trkpt lat="43.52173" lon="6.58909">
        <ele>81.7</ele>
        <time>2025-10-28T08:32:01.000Z</time>
      </trkpt>
      <trkpt lat="43.52169" lon="6.589">
        <ele>81</ele>
        <time>2025-10-28T08:32:02.000Z</time>
      </trkpt>
      <trkpt lat="43.52164" lon="6.58891">
        <ele>80.4</ele>
        <time>2025-10-28T08:32:03.000Z</time>
      </trkpt>
      <trkpt lat="43.5216" lon="6.58882">
        <ele>79.7</ele>
        <time>2025-10-28T08:32:04.000Z</time>
      </trkpt>
      <trkpt lat="43.52155" lon="6.58872">
        <ele>79</ele>
        <time>2025-10-28T08:32:05.000Z</time>
      </trkpt>
      <trkpt lat="43.5215" lon="6.58862">
        <ele>78.3</ele>
        <time>2025-10-28T08:32:06.000Z</time>
      </trkpt>
      <trkpt lat="43.52145" lon="6.58852">
        <ele>77.7</ele>
        <time>2025-10-28T08:32:07.000Z</time>
      </trkpt>
      <trkpt lat="43.5214" lon="6.58842">
        <ele>77.2</ele>
        <time>2025-10-28T08:32:08.000Z</time>
      </trkpt>
      <trkpt lat="43.52135" lon="6.58832">
        <ele>76.9</ele>
        <time>2025-10-28T08:32:09.000Z</time>
      </trkpt>
      <trkpt lat="43.5213" lon="6.58821">
        <ele>76.8</ele>
        <time>2025-10-28T08:32:10.000Z</time>
      </trkpt>
      <trkpt lat="43.52126" lon="6.58811">
        <ele>76.7</ele>
        <time>2025-10-28T08:32:11.000Z</time>
      </trkpt>
      <trkpt lat="43.52124" lon="6.588">
        <ele>76.8</ele>
        <time>2025-10-28T08:32:12.000Z</time>
      </trkpt>
      <trkpt lat="43.52121" lon="6.5879">
        <ele>77</ele>
        <time>2025-10-28T08:32:13.000Z</time>
      </trkpt>
      <trkpt lat="43.5212" lon="6.5878">
        <ele>77.3</ele>
        <time>2025-10-28T08:32:14.000Z</time>
      </trkpt>
      <trkpt lat="43.52118" lon="6.5877">
        <ele>77.5</ele>
        <time>2025-10-28T08:32:15.000Z</time>
      </trkpt>
      <trkpt lat="43.52117" lon="6.58763">
        <ele>77.7</ele>
        <time>2025-10-28T08:32:16.000Z</time>
      </trkpt>
      <trkpt lat="43.52116" lon="6.58755">
        <ele>77.9</ele>
        <time>2025-10-28T08:32:17.000Z</time>
      </trkpt>
      <trkpt lat="43.52115" lon="6.58747">
        <ele>78</ele>
        <time>2025-10-28T08:32:18.000Z</time>
      </trkpt>
      <trkpt lat="43.52114" lon="6.58739">
        <ele>77.9</ele>
        <time>2025-10-28T08:32:19.000Z</time>
      </trkpt>
      <trkpt lat="43.52112" lon="6.58729">
        <ele>77.8</ele>
        <time>2025-10-28T08:32:20.000Z</time>
      </trkpt>
      <trkpt lat="43.52112" lon="6.58723">
        <ele>77.7</ele>
        <time>2025-10-28T08:32:21.000Z</time>
      </trkpt>
      <trkpt lat="43.5211" lon="6.58716">
        <ele>77.4</ele>
        <time>2025-10-28T08:32:22.000Z</time>
      </trkpt>
      <trkpt lat="43.52109" lon="6.58708">
        <ele>77.2</ele>
        <time>2025-10-28T08:32:23.000Z</time>
      </trkpt>
      <trkpt lat="43.52107" lon="6.587">
        <ele>76.9</ele>
        <time>2025-10-28T08:32:24.000Z</time>
      </trkpt>
      <trkpt lat="43.52105" lon="6.58693">
        <ele>76.5</ele>
        <time>2025-10-28T08:32:25.000Z</time>
      </trkpt>
      <trkpt lat="43.52103" lon="6.58685">
        <ele>76</ele>
        <time>2025-10-28T08:32:26.000Z</time>
      </trkpt>
      <trkpt lat="43.52099" lon="6.58677">
        <ele>75.6</ele>
        <time>2025-10-28T08:32:27.000Z</time>
      </trkpt>
      <trkpt lat="43.52096" lon="6.58669">
        <ele>75.2</ele>
        <time>2025-10-28T08:32:28.000Z</time>
      </trkpt>
      <trkpt lat="43.52091" lon="6.58662">
        <ele>74.8</ele>
        <time>2025-10-28T08:32:29.000Z</time>
      </trkpt>
      <trkpt lat="43.52087" lon="6.58655">
        <ele>74.4</ele>
        <time>2025-10-28T08:32:30.000Z</time>
      </trkpt>
      <trkpt lat="43.52083" lon="6.58647">
        <ele>74.2</ele>
        <time>2025-10-28T08:32:31.000Z</time>
      </trkpt>
      <trkpt lat="43.5208" lon="6.58639">
        <ele>74</ele>
        <time>2025-10-28T08:32:32.000Z</time>
      </trkpt>
      <trkpt lat="43.52078" lon="6.58631">
        <ele>73.9</ele>
        <time>2025-10-28T08:32:33.000Z</time>
      </trkpt>
      <trkpt lat="43.52078" lon="6.58623">
        <ele>73.8</ele>
        <time>2025-10-28T08:32:34.000Z</time>
      </trkpt>
      <trkpt lat="43.52079" lon="6.58615">
        <ele>73.7</ele>
        <time>2025-10-28T08:32:35.000Z</time>
      </trkpt>
      <trkpt lat="43.5208" lon="6.58606">
        <ele>73.5</ele>
        <time>2025-10-28T08:32:36.000Z</time>
      </trkpt>
      <trkpt lat="43.52081" lon="6.58598">
        <ele>73.3</ele>
        <time>2025-10-28T08:32:37.000Z</time>
      </trkpt>
      <trkpt lat="43.52082" lon="6.58589">
        <ele>73.1</ele>
        <time>2025-10-28T08:32:38.000Z</time>
      </trkpt>
      <trkpt lat="43.52081" lon="6.58581">
        <ele>73.1</ele>
        <time>2025-10-28T08:32:39.000Z</time>
      </trkpt>
      <trkpt lat="43.52079" lon="6.58573">
        <ele>73.1</ele>
        <time>2025-10-28T08:32:40.000Z</time>
      </trkpt>
      <trkpt lat="43.52075" lon="6.58567">
        <ele>73.2</ele>
        <time>2025-10-28T08:32:41.000Z</time>
      </trkpt>
      <trkpt lat="43.52071" lon="6.58561">
        <ele>73.4</ele>
        <time>2025-10-28T08:32:42.000Z</time>
      </trkpt>
      <trkpt lat="43.52068" lon="6.58555">
        <ele>73.6</ele>
        <time>2025-10-28T08:32:43.000Z</time>
      </trkpt>
      <trkpt lat="43.52065" lon="6.58549">
        <ele>73.9</ele>
        <time>2025-10-28T08:32:44.000Z</time>
      </trkpt>
      <trkpt lat="43.52064" lon="6.58543">
        <ele>74.1</ele>
        <time>2025-10-28T08:32:45.000Z</time>
      </trkpt>
      <trkpt lat="43.52064" lon="6.58537">
        <ele>74.3</ele>
        <time>2025-10-28T08:32:46.000Z</time>
      </trkpt>
      <trkpt lat="43.52065" lon="6.5853">
        <ele>74.4</ele>
        <time>2025-10-28T08:32:47.000Z</time>
      </trkpt>
      <trkpt lat="43.52067" lon="6.58524">
        <ele>74.6</ele>
        <time>2025-10-28T08:32:48.000Z</time>
      </trkpt>
      <trkpt lat="43.52069" lon="6.58518">
        <ele>74.8</ele>
        <time>2025-10-28T08:32:49.000Z</time>
      </trkpt>
      <trkpt lat="43.52072" lon="6.58512">
        <ele>75</ele>
        <time>2025-10-28T08:32:50.000Z</time>
      </trkpt>
      <trkpt lat="43.52074" lon="6.58506">
        <ele>75.2</ele>
        <time>2025-10-28T08:32:51.000Z</time>
      </trkpt>
      <trkpt lat="43.52076" lon="6.585">
        <ele>75.4</ele>
        <time>2025-10-28T08:32:52.000Z</time>
      </trkpt>
      <trkpt lat="43.52078" lon="6.58494">
        <ele>75.5</ele>
        <time>2025-10-28T08:32:53.000Z</time>
      </trkpt>
      <trkpt lat="43.52079" lon="6.58487">
        <ele>75.6</ele>
        <time>2025-10-28T08:32:54.000Z</time>
      </trkpt>
      <trkpt lat="43.52081" lon="6.58481">
        <ele>75.6</ele>
        <time>2025-10-28T08:32:55.000Z</time>
      </trkpt>
      <trkpt lat="43.52083" lon="6.58476">
        <ele>75.7</ele>
        <time>2025-10-28T08:32:56.000Z</time>
      </trkpt>
      <trkpt lat="43.52085" lon="6.5847">
        <ele>75.7</ele>
        <time>2025-10-28T08:32:57.000Z</time>
      </trkpt>
      <trkpt lat="43.52087" lon="6.58464">
        <ele>75.6</ele>
        <time>2025-10-28T08:32:58.000Z</time>
      </trkpt>
      <trkpt lat="43.5209" lon="6.58459">
        <ele>75.6</ele>
        <time>2025-10-28T08:32:59.000Z</time>
      </trkpt>
      <trkpt lat="43.52093" lon="6.58454">
        <ele>75.4</ele>
        <time>2025-10-28T08:33:00.000Z</time>
      </trkpt>
      <trkpt lat="43.52095" lon="6.58449">
        <ele>75.3</ele>
        <time>2025-10-28T08:33:01.000Z</time>
      </trkpt>
      <trkpt lat="43.52098" lon="6.58445">
        <ele>75.2</ele>
        <time>2025-10-28T08:33:02.000Z</time>
      </trkpt>
      <trkpt lat="43.52101" lon="6.58442">
        <ele>75</ele>
        <time>2025-10-28T08:33:03.000Z</time>
      </trkpt>
      <trkpt lat="43.52104" lon="6.58439">
        <ele>74.8</ele>
        <time>2025-10-28T08:33:04.000Z</time>
      </trkpt>
      <trkpt lat="43.52108" lon="6.58437">
        <ele>74.7</ele>
        <time>2025-10-28T08:33:05.000Z</time>
      </trkpt>
      <trkpt lat="43.52112" lon="6.58435">
        <ele>74.5</ele>
        <time>2025-10-28T08:33:06.000Z</time>
      </trkpt>
      <trkpt lat="43.52117" lon="6.58433">
        <ele>74.5</ele>
        <time>2025-10-28T08:33:07.000Z</time>
      </trkpt>
      <trkpt lat="43.52122" lon="6.58431">
        <ele>74.7</ele>
        <time>2025-10-28T08:33:08.000Z</time>
      </trkpt>
      <trkpt lat="43.52126" lon="6.58428">
        <ele>74.8</ele>
        <time>2025-10-28T08:33:09.000Z</time>
      </trkpt>
      <trkpt lat="43.5213" lon="6.58426">
        <ele>75</ele>
        <time>2025-10-28T08:33:10.000Z</time>
      </trkpt>
      <trkpt lat="43.52133" lon="6.58423">
        <ele>75.3</ele>
        <time>2025-10-28T08:33:11.000Z</time>
      </trkpt>
      <trkpt lat="43.52137" lon="6.5842">
        <ele>75.6</ele>
        <time>2025-10-28T08:33:12.000Z</time>
      </trkpt>
      <trkpt lat="43.52141" lon="6.58418">
        <ele>76</ele>
        <time>2025-10-28T08:33:13.000Z</time>
      </trkpt>
      <trkpt lat="43.52145" lon="6.58416">
        <ele>76.4</ele>
        <time>2025-10-28T08:33:14.000Z</time>
      </trkpt>
      <trkpt lat="43.52148" lon="6.58414">
        <ele>76.7</ele>
        <time>2025-10-28T08:33:15.000Z</time>
      </trkpt>
      <trkpt lat="43.52152" lon="6.5841">
        <ele>77.2</ele>
        <time>2025-10-28T08:33:16.000Z</time>
      </trkpt>
      <trkpt lat="43.52156" lon="6.58408">
        <ele>77.5</ele>
        <time>2025-10-28T08:33:17.000Z</time>
      </trkpt>
      <trkpt lat="43.52159" lon="6.58406">
        <ele>77.9</ele>
        <time>2025-10-28T08:33:18.000Z</time>
      </trkpt>
      <trkpt lat="43.52163" lon="6.58404">
        <ele>78.3</ele>
        <time>2025-10-28T08:33:19.000Z</time>
      </trkpt>
      <trkpt lat="43.52166" lon="6.58402">
        <ele>78.6</ele>
        <time>2025-10-28T08:33:20.000Z</time>
      </trkpt>
      <trkpt lat="43.5217" lon="6.584">
        <ele>79</ele>
        <time>2025-10-28T08:33:21.000Z</time>
      </trkpt>
      <trkpt lat="43.52173" lon="6.58399">
        <ele>79.2</ele>
        <time>2025-10-28T08:33:22.000Z</time>
      </trkpt>
      <trkpt lat="43.52177" lon="6.58398">
        <ele>79.6</ele>
        <time>2025-10-28T08:33:23.000Z</time>
      </trkpt>
      <trkpt lat="43.5218" lon="6.58397">
        <ele>79.9</ele>
        <time>2025-10-28T08:33:24.000Z</time>
      </trkpt>
      <trkpt lat="43.52183" lon="6.58396">
        <ele>80.2</ele>
        <time>2025-10-28T08:33:25.000Z</time>
      </trkpt>
      <trkpt lat="43.52187" lon="6.58394">
        <ele>80.5</ele>
        <time>2025-10-28T08:33:26.000Z</time>
      </trkpt>
      <trkpt lat="43.52191" lon="6.58392">
        <ele>80.8</ele>
        <time>2025-10-28T08:33:27.000Z</time>
      </trkpt>
      <trkpt lat="43.52195" lon="6.5839">
        <ele>81.1</ele>
        <time>2025-10-28T08:33:28.000Z</time>
      </trkpt>
      <trkpt lat="43.52198" lon="6.58388">
        <ele>81.4</ele>
        <time>2025-10-28T08:33:29.000Z</time>
      </trkpt>
      <trkpt lat="43.52201" lon="6.58385">
        <ele>81.7</ele>
        <time>2025-10-28T08:33:30.000Z</time>
      </trkpt>
      <trkpt lat="43.52204" lon="6.58383">
        <ele>82.1</ele>
        <time>2025-10-28T08:33:31.000Z</time>
      </trkpt>
      <trkpt lat="43.52208" lon="6.58379">
        <ele>82.5</ele>
        <time>2025-10-28T08:33:32.000Z</time>
      </trkpt>
      <trkpt lat="43.52211" lon="6.58376">
        <ele>82.9</ele>
        <time>2025-10-28T08:33:33.000Z</time>
      </trkpt>
      <trkpt lat="43.52215" lon="6.58373">
        <ele>83.3</ele>
        <time>2025-10-28T08:33:34.000Z</time>
      </trkpt>
      <trkpt lat="43.52218" lon="6.5837">
        <ele>83.7</ele>
        <time>2025-10-28T08:33:35.000Z</time>
      </trkpt>
      <trkpt lat="43.52221" lon="6.58368">
        <ele>84.1</ele>
        <time>2025-10-28T08:33:36.000Z</time>
      </trkpt>
      <trkpt lat="43.52224" lon="6.58365">
        <ele>84.4</ele>
        <time>2025-10-28T08:33:37.000Z</time>
      </trkpt>
      <trkpt lat="43.52227" lon="6.58364">
        <ele>84.8</ele>
        <time>2025-10-28T08:33:38.000Z</time>
      </trkpt>
      <trkpt lat="43.5223" lon="6.58363">
        <ele>85.1</ele>
        <time>2025-10-28T08:33:39.000Z</time>
      </trkpt>
      <trkpt lat="43.52234" lon="6.58363">
        <ele>85.4</ele>
        <time>2025-10-28T08:33:40.000Z</time>
      </trkpt>
      <trkpt lat="43.52238" lon="6.58362">
        <ele>85.8</ele>
        <time>2025-10-28T08:33:41.000Z</time>
      </trkpt>
      <trkpt lat="43.52241" lon="6.58362">
        <ele>86.1</ele>
        <time>2025-10-28T08:33:42.000Z</time>
      </trkpt>
      <trkpt lat="43.52245" lon="6.58362">
        <ele>86.4</ele>
        <time>2025-10-28T08:33:43.000Z</time>
      </trkpt>
      <trkpt lat="43.52248" lon="6.58362">
        <ele>86.8</ele>
        <time>2025-10-28T08:33:44.000Z</time>
      </trkpt>
      <trkpt lat="43.52252" lon="6.58361">
        <ele>87.1</ele>
        <time>2025-10-28T08:33:45.000Z</time>
      </trkpt>
      <trkpt lat="43.52256" lon="6.58361">
        <ele>87.4</ele>
        <time>2025-10-28T08:33:46.000Z</time>
      </trkpt>
      <trkpt lat="43.52259" lon="6.58361">
        <ele>87.7</ele>
        <time>2025-10-28T08:33:47.000Z</time>
      </trkpt>
      <trkpt lat="43.52263" lon="6.5836">
        <ele>88.1</ele>
        <time>2025-10-28T08:33:48.000Z</time>
      </trkpt>
      <trkpt lat="43.52267" lon="6.5836">
        <ele>88.4</ele>
        <time>2025-10-28T08:33:49.000Z</time>
      </trkpt>
      <trkpt lat="43.5227" lon="6.5836">
        <ele>88.7</ele>
        <time>2025-10-28T08:33:50.000Z</time>
      </trkpt>
      <trkpt lat="43.52274" lon="6.5836">
        <ele>89</ele>
        <time>2025-10-28T08:33:51.000Z</time>
      </trkpt>
      <trkpt lat="43.52278" lon="6.58361">
        <ele>89.3</ele>
        <time>2025-10-28T08:33:52.000Z</time>
      </trkpt>
      <trkpt lat="43.52281" lon="6.58361">
        <ele>89.7</ele>
        <time>2025-10-28T08:33:53.000Z</time>
      </trkpt>
      <trkpt lat="43.52285" lon="6.58361">
        <ele>90</ele>
        <time>2025-10-28T08:33:54.000Z</time>
      </trkpt>
      <trkpt lat="43.52288" lon="6.58362">
        <ele>90.3</ele>
        <time>2025-10-28T08:33:55.000Z</time>
      </trkpt>
      <trkpt lat="43.52292" lon="6.58362">
        <ele>90.6</ele>
        <time>2025-10-28T08:33:56.000Z</time>
      </trkpt>
      <trkpt lat="43.52296" lon="6.58363">
        <ele>90.9</ele>
        <time>2025-10-28T08:33:57.000Z</time>
      </trkpt>
      <trkpt lat="43.52299" lon="6.58365">
        <ele>91.2</ele>
        <time>2025-10-28T08:33:58.000Z</time>
      </trkpt>
      <trkpt lat="43.52302" lon="6.58368">
        <ele>91.5</ele>
        <time>2025-10-28T08:33:59.000Z</time>
      </trkpt>
      <trkpt lat="43.52305" lon="6.5837">
        <ele>91.9</ele>
        <time>2025-10-28T08:34:00.000Z</time>
      </trkpt>
      <trkpt lat="43.52308" lon="6.58373">
        <ele>92.2</ele>
        <time>2025-10-28T08:34:01.000Z</time>
      </trkpt>
      <trkpt lat="43.5231" lon="6.58376">
        <ele>92.5</ele>
        <time>2025-10-28T08:34:02.000Z</time>
      </trkpt>
      <trkpt lat="43.52313" lon="6.58378">
        <ele>92.8</ele>
        <time>2025-10-28T08:34:03.000Z</time>
      </trkpt>
      <trkpt lat="43.52316" lon="6.5838">
        <ele>93.1</ele>
        <time>2025-10-28T08:34:04.000Z</time>
      </trkpt>
      <trkpt lat="43.5232" lon="6.58382">
        <ele>93.5</ele>
        <time>2025-10-28T08:34:05.000Z</time>
      </trkpt>
      <trkpt lat="43.52323" lon="6.58384">
        <ele>93.8</ele>
        <time>2025-10-28T08:34:06.000Z</time>
      </trkpt>
      <trkpt lat="43.52326" lon="6.58386">
        <ele>94.1</ele>
        <time>2025-10-28T08:34:07.000Z</time>
      </trkpt>
      <trkpt lat="43.52329" lon="6.58387">
        <ele>94.4</ele>
        <time>2025-10-28T08:34:08.000Z</time>
      </trkpt>
      <trkpt lat="43.52332" lon="6.58389">
        <ele>94.7</ele>
        <time>2025-10-28T08:34:09.000Z</time>
      </trkpt>
      <trkpt lat="43.52337" lon="6.58391">
        <ele>95.2</ele>
        <time>2025-10-28T08:34:10.000Z</time>
      </trkpt>
      <trkpt lat="43.5234" lon="6.58393">
        <ele>95.5</ele>
        <time>2025-10-28T08:34:11.000Z</time>
      </trkpt>
      <trkpt lat="43.52342" lon="6.58395">
        <ele>95.7</ele>
        <time>2025-10-28T08:34:12.000Z</time>
      </trkpt>
      <trkpt lat="43.52345" lon="6.58398">
        <ele>96.1</ele>
        <time>2025-10-28T08:34:13.000Z</time>
      </trkpt>
      <trkpt lat="43.52349" lon="6.58401">
        <ele>96.5</ele>
        <time>2025-10-28T08:34:14.000Z</time>
      </trkpt>
      <trkpt lat="43.52352" lon="6.58404">
        <ele>96.8</ele>
        <time>2025-10-28T08:34:15.000Z</time>
      </trkpt>
      <trkpt lat="43.52356" lon="6.58406">
        <ele>97.1</ele>
        <time>2025-10-28T08:34:16.000Z</time>
      </trkpt>
      <trkpt lat="43.52359" lon="6.58408">
        <ele>97.4</ele>
        <time>2025-10-28T08:34:17.000Z</time>
      </trkpt>
      <trkpt lat="43.52362" lon="6.58409">
        <ele>97.7</ele>
        <time>2025-10-28T08:34:18.000Z</time>
      </trkpt>
      <trkpt lat="43.52366" lon="6.58409">
        <ele>98</ele>
        <time>2025-10-28T08:34:19.000Z</time>
      </trkpt>
      <trkpt lat="43.52369" lon="6.58409">
        <ele>98.3</ele>
        <time>2025-10-28T08:34:20.000Z</time>
      </trkpt>
      <trkpt lat="43.52373" lon="6.58409">
        <ele>98.6</ele>
        <time>2025-10-28T08:34:21.000Z</time>
      </trkpt>
      <trkpt lat="43.52376" lon="6.58408">
        <ele>98.9</ele>
        <time>2025-10-28T08:34:22.000Z</time>
      </trkpt>
      <trkpt lat="43.5238" lon="6.58407">
        <ele>99.2</ele>
        <time>2025-10-28T08:34:23.000Z</time>
      </trkpt>
      <trkpt lat="43.52383" lon="6.58405">
        <ele>99.5</ele>
        <time>2025-10-28T08:34:24.000Z</time>
      </trkpt>
      <trkpt lat="43.52387" lon="6.58403">
        <ele>99.8</ele>
        <time>2025-10-28T08:34:25.000Z</time>
      </trkpt>
      <trkpt lat="43.5239" lon="6.58401">
        <ele>100.2</ele>
        <time>2025-10-28T08:34:26.000Z</time>
      </trkpt>
      <trkpt lat="43.52393" lon="6.58399">
        <ele>100.5</ele>
        <time>2025-10-28T08:34:27.000Z</time>
      </trkpt>
      <trkpt lat="43.52397" lon="6.58397">
        <ele>100.9</ele>
        <time>2025-10-28T08:34:28.000Z</time>
      </trkpt>
      <trkpt lat="43.524" lon="6.58394">
        <ele>101.3</ele>
        <time>2025-10-28T08:34:29.000Z</time>
      </trkpt>
      <trkpt lat="43.52403" lon="6.58392">
        <ele>101.7</ele>
        <time>2025-10-28T08:34:30.000Z</time>
      </trkpt>
      <trkpt lat="43.52407" lon="6.58389">
        <ele>102.2</ele>
        <time>2025-10-28T08:34:31.000Z</time>
      </trkpt>
      <trkpt lat="43.5241" lon="6.58386">
        <ele>102.6</ele>
        <time>2025-10-28T08:34:32.000Z</time>
      </trkpt>
      <trkpt lat="43.52413" lon="6.58384">
        <ele>103</ele>
        <time>2025-10-28T08:34:33.000Z</time>
      </trkpt>
      <trkpt lat="43.52416" lon="6.58382">
        <ele>103.3</ele>
        <time>2025-10-28T08:34:34.000Z</time>
      </trkpt>
      <trkpt lat="43.52419" lon="6.5838">
        <ele>103.8</ele>
        <time>2025-10-28T08:34:35.000Z</time>
      </trkpt>
      <trkpt lat="43.52423" lon="6.58379">
        <ele>104.2</ele>
        <time>2025-10-28T08:34:36.000Z</time>
      </trkpt>
      <trkpt lat="43.52426" lon="6.58378">
        <ele>104.6</ele>
        <time>2025-10-28T08:34:37.000Z</time>
      </trkpt>
      <trkpt lat="43.52429" lon="6.58375">
        <ele>105</ele>
        <time>2025-10-28T08:34:38.000Z</time>
      </trkpt>
      <trkpt lat="43.52432" lon="6.58373">
        <ele>105.4</ele>
        <time>2025-10-28T08:34:39.000Z</time>
      </trkpt>
      <trkpt lat="43.52435" lon="6.58371">
        <ele>105.8</ele>
        <time>2025-10-28T08:34:40.000Z</time>
      </trkpt>
      <trkpt lat="43.52439" lon="6.58368">
        <ele>106.3</ele>
        <time>2025-10-28T08:34:41.000Z</time>
      </trkpt>
      <trkpt lat="43.52442" lon="6.58366">
        <ele>106.6</ele>
        <time>2025-10-28T08:34:42.000Z</time>
      </trkpt>
      <trkpt lat="43.52443" lon="6.58365">
        <ele>106.9</ele>
        <time>2025-10-28T08:34:43.000Z</time>
      </trkpt>
      <trkpt lat="43.52446" lon="6.58362">
        <ele>107.2</ele>
        <time>2025-10-28T08:34:44.000Z</time>
      </trkpt>
      <trkpt lat="43.52449" lon="6.5836">
        <ele>107.6</ele>
        <time>2025-10-28T08:34:45.000Z</time>
      </trkpt>
      <trkpt lat="43.52451" lon="6.58358">
        <ele>107.9</ele>
        <time>2025-10-28T08:34:46.000Z</time>
      </trkpt>
      <trkpt lat="43.52454" lon="6.58356">
        <ele>108.2</ele>
        <time>2025-10-28T08:34:47.000Z</time>
      </trkpt>
      <trkpt lat="43.52457" lon="6.58354">
        <ele>108.6</ele>
        <time>2025-10-28T08:34:48.000Z</time>
      </trkpt>
      <trkpt lat="43.52459" lon="6.58352">
        <ele>108.9</ele>
        <time>2025-10-28T08:34:49.000Z</time>
      </trkpt>
      <trkpt lat="43.52462" lon="6.58351">
        <ele>109.3</ele>
        <time>2025-10-28T08:34:50.000Z</time>
      </trkpt>
      <trkpt lat="43.52466" lon="6.58349">
        <ele>109.7</ele>
        <time>2025-10-28T08:34:51.000Z</time>
      </trkpt>
      <trkpt lat="43.52468" lon="6.58348">
        <ele>110</ele>
        <time>2025-10-28T08:34:52.000Z</time>
      </trkpt>
      <trkpt lat="43.52471" lon="6.58347">
        <ele>110.4</ele>
        <time>2025-10-28T08:34:53.000Z</time>
      </trkpt>
      <trkpt lat="43.52475" lon="6.58346">
        <ele>110.8</ele>
        <time>2025-10-28T08:34:54.000Z</time>
      </trkpt>
      <trkpt lat="43.52477" lon="6.58346">
        <ele>111.1</ele>
        <time>2025-10-28T08:34:55.000Z</time>
      </trkpt>
      <trkpt lat="43.5248" lon="6.58346">
        <ele>111.5</ele>
        <time>2025-10-28T08:34:56.000Z</time>
      </trkpt>
      <trkpt lat="43.52483" lon="6.58345">
        <ele>111.8</ele>
        <time>2025-10-28T08:34:57.000Z</time>
      </trkpt>
      <trkpt lat="43.52486" lon="6.58345">
        <ele>112.1</ele>
        <time>2025-10-28T08:34:58.000Z</time>
      </trkpt>
      <trkpt lat="43.52489" lon="6.58344">
        <ele>112.5</ele>
        <time>2025-10-28T08:34:59.000Z</time>
      </trkpt>
      <trkpt lat="43.52492" lon="6.58344">
        <ele>112.8</ele>
        <time>2025-10-28T08:35:00.000Z</time>
      </trkpt>
      <trkpt lat="43.52495" lon="6.58343">
        <ele>113.2</ele>
        <time>2025-10-28T08:35:01.000Z</time>
      </trkpt>
      <trkpt lat="43.52497" lon="6.58342">
        <ele>113.5</ele>
        <time>2025-10-28T08:35:02.000Z</time>
      </trkpt>
      <trkpt lat="43.525" lon="6.58341">
        <ele>113.8</ele>
        <time>2025-10-28T08:35:03.000Z</time>
      </trkpt>
      <trkpt lat="43.52503" lon="6.5834">
        <ele>114.2</ele>
        <time>2025-10-28T08:35:04.000Z</time>
      </trkpt>
      <trkpt lat="43.52506" lon="6.58339">
        <ele>114.5</ele>
        <time>2025-10-28T08:35:05.000Z</time>
      </trkpt>
      <trkpt lat="43.52509" lon="6.58336">
        <ele>114.9</ele>
        <time>2025-10-28T08:35:06.000Z</time>
      </trkpt>
      <trkpt lat="43.52511" lon="6.58335">
        <ele>115.2</ele>
        <time>2025-10-28T08:35:07.000Z</time>
      </trkpt>
      <trkpt lat="43.52514" lon="6.58332">
        <ele>115.5</ele>
        <time>2025-10-28T08:35:08.000Z</time>
      </trkpt>
      <trkpt lat="43.52516" lon="6.58329">
        <ele>115.9</ele>
        <time>2025-10-28T08:35:09.000Z</time>
      </trkpt>
      <trkpt lat="43.52519" lon="6.58326">
        <ele>116.2</ele>
        <time>2025-10-28T08:35:10.000Z</time>
      </trkpt>
      <trkpt lat="43.52521" lon="6.58324">
        <ele>116.5</ele>
        <time>2025-10-28T08:35:11.000Z</time>
      </trkpt>
      <trkpt lat="43.52524" lon="6.58321">
        <ele>116.9</ele>
        <time>2025-10-28T08:35:12.000Z</time>
      </trkpt>
      <trkpt lat="43.52526" lon="6.58319">
        <ele>117.3</ele>
        <time>2025-10-28T08:35:13.000Z</time>
      </trkpt>
      <trkpt lat="43.52529" lon="6.58317">
        <ele>117.7</ele>
        <time>2025-10-28T08:35:14.000Z</time>
      </trkpt>
      <trkpt lat="43.52532" lon="6.58315">
        <ele>118.1</ele>
        <time>2025-10-28T08:35:15.000Z</time>
      </trkpt>
      <trkpt lat="43.52534" lon="6.58313">
        <ele>118.4</ele>
        <time>2025-10-28T08:35:16.000Z</time>
      </trkpt>
      <trkpt lat="43.52537" lon="6.58312">
        <ele>118.8</ele>
        <time>2025-10-28T08:35:17.000Z</time>
      </trkpt>
      <trkpt lat="43.5254" lon="6.58311">
        <ele>119.2</ele>
        <time>2025-10-28T08:35:18.000Z</time>
      </trkpt>
      <trkpt lat="43.52543" lon="6.5831">
        <ele>119.6</ele>
        <time>2025-10-28T08:35:19.000Z</time>
      </trkpt>
      <trkpt lat="43.52546" lon="6.5831">
        <ele>120</ele>
        <time>2025-10-28T08:35:20.000Z</time>
      </trkpt>
      <trkpt lat="43.52549" lon="6.5831">
        <ele>120.3</ele>
        <time>2025-10-28T08:35:21.000Z</time>
      </trkpt>
      <trkpt lat="43.52552" lon="6.58311">
        <ele>120.7</ele>
        <time>2025-10-28T08:35:22.000Z</time>
      </trkpt>
      <trkpt lat="43.52554" lon="6.58312">
        <ele>121</ele>
        <time>2025-10-28T08:35:23.000Z</time>
      </trkpt>
      <trkpt lat="43.52556" lon="6.58314">
        <ele>121.2</ele>
        <time>2025-10-28T08:35:24.000Z</time>
      </trkpt>
      <trkpt lat="43.52559" lon="6.58316">
        <ele>121.5</ele>
        <time>2025-10-28T08:35:25.000Z</time>
      </trkpt>
      <trkpt lat="43.52561" lon="6.58317">
        <ele>121.8</ele>
        <time>2025-10-28T08:35:26.000Z</time>
      </trkpt>
      <trkpt lat="43.52563" lon="6.5832">
        <ele>122</ele>
        <time>2025-10-28T08:35:27.000Z</time>
      </trkpt>
      <trkpt lat="43.52566" lon="6.58321">
        <ele>122.3</ele>
        <time>2025-10-28T08:35:28.000Z</time>
      </trkpt>
      <trkpt lat="43.52567" lon="6.58323">
        <ele>122.5</ele>
        <time>2025-10-28T08:35:29.000Z</time>
      </trkpt>
      <trkpt lat="43.52571" lon="6.58324">
        <ele>122.8</ele>
        <time>2025-10-28T08:35:30.000Z</time>
      </trkpt>
      <trkpt lat="43.52573" lon="6.58324">
        <ele>123</ele>
        <time>2025-10-28T08:35:31.000Z</time>
      </trkpt>
      <trkpt lat="43.52576" lon="6.58324">
        <ele>123.3</ele>
        <time>2025-10-28T08:35:32.000Z</time>
      </trkpt>
      <trkpt lat="43.52579" lon="6.58324">
        <ele>123.6</ele>
        <time>2025-10-28T08:35:33.000Z</time>
      </trkpt>
      <trkpt lat="43.52582" lon="6.58323">
        <ele>123.8</ele>
        <time>2025-10-28T08:35:34.000Z</time>
      </trkpt>
      <trkpt lat="43.52585" lon="6.58322">
        <ele>124.1</ele>
        <time>2025-10-28T08:35:35.000Z</time>
      </trkpt>
      <trkpt lat="43.52587" lon="6.58321">
        <ele>124.4</ele>
        <time>2025-10-28T08:35:36.000Z</time>
      </trkpt>
      <trkpt lat="43.5259" lon="6.5832">
        <ele>124.7</ele>
        <time>2025-10-28T08:35:37.000Z</time>
      </trkpt>
      <trkpt lat="43.52593" lon="6.58318">
        <ele>125</ele>
        <time>2025-10-28T08:35:38.000Z</time>
      </trkpt>
      <trkpt lat="43.52597" lon="6.58317">
        <ele>125.4</ele>
        <time>2025-10-28T08:35:39.000Z</time>
      </trkpt>
      <trkpt lat="43.52599" lon="6.58316">
        <ele>125.6</ele>
        <time>2025-10-28T08:35:40.000Z</time>
      </trkpt>
      <trkpt lat="43.52602" lon="6.58316">
        <ele>126</ele>
        <time>2025-10-28T08:35:41.000Z</time>
      </trkpt>
      <trkpt lat="43.52605" lon="6.58315">
        <ele>126.3</ele>
        <time>2025-10-28T08:35:42.000Z</time>
      </trkpt>
      <trkpt lat="43.52608" lon="6.58315">
        <ele>126.7</ele>
        <time>2025-10-28T08:35:43.000Z</time>
      </trkpt>
      <trkpt lat="43.52611" lon="6.58315">
        <ele>127</ele>
        <time>2025-10-28T08:35:44.000Z</time>
      </trkpt>
      <trkpt lat="43.52614" lon="6.58314">
        <ele>127.4</ele>
        <time>2025-10-28T08:35:45.000Z</time>
      </trkpt>
      <trkpt lat="43.52617" lon="6.58314">
        <ele>127.7</ele>
        <time>2025-10-28T08:35:46.000Z</time>
      </trkpt>
      <trkpt lat="43.5262" lon="6.58315">
        <ele>128.1</ele>
        <time>2025-10-28T08:35:47.000Z</time>
      </trkpt>
      <trkpt lat="43.52622" lon="6.58315">
        <ele>128.4</ele>
        <time>2025-10-28T08:35:48.000Z</time>
      </trkpt>
      <trkpt lat="43.52626" lon="6.58315">
        <ele>128.9</ele>
        <time>2025-10-28T08:35:49.000Z</time>
      </trkpt>
      <trkpt lat="43.52629" lon="6.58315">
        <ele>129.3</ele>
        <time>2025-10-28T08:35:50.000Z</time>
      </trkpt>
      <trkpt lat="43.52633" lon="6.58315">
        <ele>129.7</ele>
        <time>2025-10-28T08:35:51.000Z</time>
      </trkpt>
      <trkpt lat="43.52636" lon="6.58316">
        <ele>130.1</ele>
        <time>2025-10-28T08:35:52.000Z</time>
      </trkpt>
      <trkpt lat="43.52639" lon="6.58316">
        <ele>130.5</ele>
        <time>2025-10-28T08:35:53.000Z</time>
      </trkpt>
      <trkpt lat="43.52642" lon="6.58317">
        <ele>130.9</ele>
        <time>2025-10-28T08:35:54.000Z</time>
      </trkpt>
      <trkpt lat="43.52645" lon="6.58318">
        <ele>131.3</ele>
        <time>2025-10-28T08:35:55.000Z</time>
      </trkpt>
      <trkpt lat="43.52648" lon="6.5832">
        <ele>131.6</ele>
        <time>2025-10-28T08:35:56.000Z</time>
      </trkpt>
      <trkpt lat="43.52651" lon="6.58321">
        <ele>132</ele>
        <time>2025-10-28T08:35:57.000Z</time>
      </trkpt>
      <trkpt lat="43.52653" lon="6.58323">
        <ele>132.2</ele>
        <time>2025-10-28T08:35:58.000Z</time>
      </trkpt>
      <trkpt lat="43.52657" lon="6.58325">
        <ele>132.6</ele>
        <time>2025-10-28T08:35:59.000Z</time>
      </trkpt>
      <trkpt lat="43.5266" lon="6.58326">
        <ele>132.9</ele>
        <time>2025-10-28T08:36:00.000Z</time>
      </trkpt>
      <trkpt lat="43.52663" lon="6.58327">
        <ele>133.2</ele>
        <time>2025-10-28T08:36:01.000Z</time>
      </trkpt>
      <trkpt lat="43.52666" lon="6.58329">
        <ele>133.4</ele>
        <time>2025-10-28T08:36:02.000Z</time>
      </trkpt>
      <trkpt lat="43.52669" lon="6.58331">
        <ele>133.7</ele>
        <time>2025-10-28T08:36:03.000Z</time>
      </trkpt>
      <trkpt lat="43.52672" lon="6.58333">
        <ele>133.9</ele>
        <time>2025-10-28T08:36:04.000Z</time>
      </trkpt>
      <trkpt lat="43.52675" lon="6.58334">
        <ele>134</ele>
        <time>2025-10-28T08:36:05.000Z</time>
      </trkpt>
      <trkpt lat="43.52678" lon="6.58336">
        <ele>134.2</ele>
        <time>2025-10-28T08:36:06.000Z</time>
      </trkpt>
      <trkpt lat="43.52681" lon="6.58336">
        <ele>134.3</ele>
        <time>2025-10-28T08:36:07.000Z</time>
      </trkpt>
      <trkpt lat="43.52684" lon="6.58337">
        <ele>134.3</ele>
        <time>2025-10-28T08:36:08.000Z</time>
      </trkpt>
      <trkpt lat="43.52687" lon="6.58337">
        <ele>134.4</ele>
        <time>2025-10-28T08:36:09.000Z</time>
      </trkpt>
      <trkpt lat="43.52689" lon="6.58338">
        <ele>134.4</ele>
        <time>2025-10-28T08:36:10.000Z</time>
      </trkpt>
      <trkpt lat="43.52691" lon="6.58338">
        <ele>134.4</ele>
        <time>2025-10-28T08:36:11.000Z</time>
      </trkpt>
      <trkpt lat="43.52693" lon="6.58338">
        <ele>134.5</ele>
        <time>2025-10-28T08:36:12.000Z</time>
      </trkpt>
      <trkpt lat="43.52695" lon="6.58338">
        <ele>134.5</ele>
        <time>2025-10-28T08:36:13.000Z</time>
      </trkpt>
      <trkpt lat="43.52697" lon="6.58338">
        <ele>134.5</ele>
        <time>2025-10-28T08:36:14.000Z</time>
      </trkpt>
      <trkpt lat="43.52699" lon="6.58337">
        <ele>134.5</ele>
        <time>2025-10-28T08:36:15.000Z</time>
      </trkpt>
      <trkpt lat="43.52702" lon="6.58337">
        <ele>134.5</ele>
        <time>2025-10-28T08:36:16.000Z</time>
      </trkpt>
      <trkpt lat="43.52705" lon="6.58336">
        <ele>134.4</ele>
        <time>2025-10-28T08:36:17.000Z</time>
      </trkpt>
      <trkpt lat="43.52708" lon="6.58334">
        <ele>134.4</ele>
        <time>2025-10-28T08:36:18.000Z</time>
      </trkpt>
      <trkpt lat="43.52711" lon="6.58333">
        <ele>134.4</ele>
        <time>2025-10-28T08:36:19.000Z</time>
      </trkpt>
      <trkpt lat="43.52715" lon="6.58332">
        <ele>134.3</ele>
        <time>2025-10-28T08:36:20.000Z</time>
      </trkpt>
      <trkpt lat="43.52718" lon="6.58331">
        <ele>134.2</ele>
        <time>2025-10-28T08:36:21.000Z</time>
      </trkpt>
      <trkpt lat="43.52722" lon="6.5833">
        <ele>134.2</ele>
        <time>2025-10-28T08:36:22.000Z</time>
      </trkpt>
      <trkpt lat="43.52726" lon="6.5833">
        <ele>134.1</ele>
        <time>2025-10-28T08:36:23.000Z</time>
      </trkpt>
      <trkpt lat="43.52731" lon="6.58331">
        <ele>134</ele>
        <time>2025-10-28T08:36:24.000Z</time>
      </trkpt>
      <trkpt lat="43.52735" lon="6.58332">
        <ele>133.9</ele>
        <time>2025-10-28T08:36:25.000Z</time>
      </trkpt>
      <trkpt lat="43.52739" lon="6.58333">
        <ele>133.9</ele>
        <time>2025-10-28T08:36:26.000Z</time>
      </trkpt>
      <trkpt lat="43.52743" lon="6.58334">
        <ele>133.9</ele>
        <time>2025-10-28T08:36:27.000Z</time>
      </trkpt>
      <trkpt lat="43.52747" lon="6.58336">
        <ele>134</ele>
        <time>2025-10-28T08:36:28.000Z</time>
      </trkpt>
      <trkpt lat="43.52751" lon="6.58337">
        <ele>134.1</ele>
        <time>2025-10-28T08:36:29.000Z</time>
      </trkpt>
      <trkpt lat="43.52755" lon="6.58338">
        <ele>134.2</ele>
        <time>2025-10-28T08:36:30.000Z</time>
      </trkpt>
      <trkpt lat="43.52759" lon="6.58339">
        <ele>134.3</ele>
        <time>2025-10-28T08:36:31.000Z</time>
      </trkpt>
      <trkpt lat="43.52763" lon="6.5834">
        <ele>134.4</ele>
        <time>2025-10-28T08:36:32.000Z</time>
      </trkpt>
      <trkpt lat="43.52767" lon="6.58341">
        <ele>134.4</ele>
        <time>2025-10-28T08:36:33.000Z</time>
      </trkpt>
      <trkpt lat="43.52771" lon="6.58342">
        <ele>134.4</ele>
        <time>2025-10-28T08:36:34.000Z</time>
      </trkpt>
      <trkpt lat="43.52775" lon="6.58344">
        <ele>134.5</ele>
        <time>2025-10-28T08:36:35.000Z</time>
      </trkpt>
      <trkpt lat="43.52779" lon="6.58345">
        <ele>134.5</ele>
        <time>2025-10-28T08:36:36.000Z</time>
      </trkpt>
      <trkpt lat="43.52782" lon="6.58347">
        <ele>134.6</ele>
        <time>2025-10-28T08:36:37.000Z</time>
      </trkpt>
      <trkpt lat="43.52786" lon="6.58349">
        <ele>134.6</ele>
        <time>2025-10-28T08:36:38.000Z</time>
      </trkpt>
      <trkpt lat="43.52789" lon="6.58351">
        <ele>134.7</ele>
        <time>2025-10-28T08:36:39.000Z</time>
      </trkpt>
      <trkpt lat="43.52792" lon="6.58354">
        <ele>134.9</ele>
        <time>2025-10-28T08:36:40.000Z</time>
      </trkpt>
      <trkpt lat="43.52795" lon="6.58358">
        <ele>135.2</ele>
        <time>2025-10-28T08:36:41.000Z</time>
      </trkpt>
      <trkpt lat="43.52798" lon="6.58363">
        <ele>135.5</ele>
        <time>2025-10-28T08:36:42.000Z</time>
      </trkpt>
      <trkpt lat="43.528" lon="6.58368">
        <ele>135.9</ele>
        <time>2025-10-28T08:36:43.000Z</time>
      </trkpt>
      <trkpt lat="43.52802" lon="6.58371">
        <ele>136.1</ele>
        <time>2025-10-28T08:36:44.000Z</time>
      </trkpt>
      <trkpt lat="43.52803" lon="6.58376">
        <ele>136.5</ele>
        <time>2025-10-28T08:36:45.000Z</time>
      </trkpt>
      <trkpt lat="43.52804" lon="6.58382">
        <ele>136.9</ele>
        <time>2025-10-28T08:36:46.000Z</time>
      </trkpt>
      <trkpt lat="43.52805" lon="6.58387">
        <ele>137.3</ele>
        <time>2025-10-28T08:36:47.000Z</time>
      </trkpt>
      <trkpt lat="43.52806" lon="6.58392">
        <ele>137.7</ele>
        <time>2025-10-28T08:36:48.000Z</time>
      </trkpt>
      <trkpt lat="43.52808" lon="6.58396">
        <ele>138.2</ele>
        <time>2025-10-28T08:36:49.000Z</time>
      </trkpt>
      <trkpt lat="43.52809" lon="6.58401">
        <ele>138.7</ele>
        <time>2025-10-28T08:36:50.000Z</time>
      </trkpt>
      <trkpt lat="43.5281" lon="6.58405">
        <ele>139.1</ele>
        <time>2025-10-28T08:36:51.000Z</time>
      </trkpt>
      <trkpt lat="43.52812" lon="6.58409">
        <ele>139.6</ele>
        <time>2025-10-28T08:36:52.000Z</time>
      </trkpt>
      <trkpt lat="43.52813" lon="6.58413">
        <ele>140</ele>
        <time>2025-10-28T08:36:53.000Z</time>
      </trkpt>
      <trkpt lat="43.52815" lon="6.58417">
        <ele>140.5</ele>
        <time>2025-10-28T08:36:54.000Z</time>
      </trkpt>
      <trkpt lat="43.52817" lon="6.58421">
        <ele>140.9</ele>
        <time>2025-10-28T08:36:55.000Z</time>
      </trkpt>
      <trkpt lat="43.52819" lon="6.58424">
        <ele>141.3</ele>
        <time>2025-10-28T08:36:56.000Z</time>
      </trkpt>
      <trkpt lat="43.52821" lon="6.58427">
        <ele>141.6</ele>
        <time>2025-10-28T08:36:57.000Z</time>
      </trkpt>
      <trkpt lat="43.52823" lon="6.5843">
        <ele>141.9</ele>
        <time>2025-10-28T08:36:58.000Z</time>
      </trkpt>
      <trkpt lat="43.52826" lon="6.58433">
        <ele>142.2</ele>
        <time>2025-10-28T08:36:59.000Z</time>
      </trkpt>
      <trkpt lat="43.52828" lon="6.58436">
        <ele>142.5</ele>
        <time>2025-10-28T08:37:00.000Z</time>
      </trkpt>
      <trkpt lat="43.52831" lon="6.58439">
        <ele>142.7</ele>
        <time>2025-10-28T08:37:01.000Z</time>
      </trkpt>
      <trkpt lat="43.52834" lon="6.58441">
        <ele>143</ele>
        <time>2025-10-28T08:37:02.000Z</time>
      </trkpt>
      <trkpt lat="43.52836" lon="6.58444">
        <ele>143.2</ele>
        <time>2025-10-28T08:37:03.000Z</time>
      </trkpt>
      <trkpt lat="43.52839" lon="6.58447">
        <ele>143.5</ele>
        <time>2025-10-28T08:37:04.000Z</time>
      </trkpt>
      <trkpt lat="43.52842" lon="6.5845">
        <ele>143.7</ele>
        <time>2025-10-28T08:37:05.000Z</time>
      </trkpt>
      <trkpt lat="43.52845" lon="6.58453">
        <ele>144</ele>
        <time>2025-10-28T08:37:06.000Z</time>
      </trkpt>
      <trkpt lat="43.52848" lon="6.58456">
        <ele>144.2</ele>
        <time>2025-10-28T08:37:07.000Z</time>
      </trkpt>
      <trkpt lat="43.52851" lon="6.58459">
        <ele>144.5</ele>
        <time>2025-10-28T08:37:08.000Z</time>
      </trkpt>
      <trkpt lat="43.52854" lon="6.58462">
        <ele>144.7</ele>
        <time>2025-10-28T08:37:09.000Z</time>
      </trkpt>
      <trkpt lat="43.52857" lon="6.58464">
        <ele>145</ele>
        <time>2025-10-28T08:37:10.000Z</time>
      </trkpt>
      <trkpt lat="43.52861" lon="6.58468">
        <ele>145.3</ele>
        <time>2025-10-28T08:37:11.000Z</time>
      </trkpt>
      <trkpt lat="43.52864" lon="6.58471">
        <ele>145.6</ele>
        <time>2025-10-28T08:37:12.000Z</time>
      </trkpt>
      <trkpt lat="43.52868" lon="6.58474">
        <ele>145.9</ele>
        <time>2025-10-28T08:37:13.000Z</time>
      </trkpt>
      <trkpt lat="43.52871" lon="6.58477">
        <ele>146.2</ele>
        <time>2025-10-28T08:37:14.000Z</time>
      </trkpt>
      <trkpt lat="43.52874" lon="6.58481">
        <ele>146.5</ele>
        <time>2025-10-28T08:37:15.000Z</time>
      </trkpt>
      <trkpt lat="43.52877" lon="6.58484">
        <ele>146.8</ele>
        <time>2025-10-28T08:37:16.000Z</time>
      </trkpt>
      <trkpt lat="43.5288" lon="6.58488">
        <ele>147.2</ele>
        <time>2025-10-28T08:37:17.000Z</time>
      </trkpt>
      <trkpt lat="43.52883" lon="6.58491">
        <ele>147.6</ele>
        <time>2025-10-28T08:37:18.000Z</time>
      </trkpt>
      <trkpt lat="43.52886" lon="6.58494">
        <ele>147.9</ele>
        <time>2025-10-28T08:37:19.000Z</time>
      </trkpt>
      <trkpt lat="43.52889" lon="6.58498">
        <ele>148.3</ele>
        <time>2025-10-28T08:37:20.000Z</time>
      </trkpt>
      <trkpt lat="43.52892" lon="6.58501">
        <ele>148.7</ele>
        <time>2025-10-28T08:37:21.000Z</time>
      </trkpt>
      <trkpt lat="43.52895" lon="6.58504">
        <ele>149.1</ele>
        <time>2025-10-28T08:37:22.000Z</time>
      </trkpt>
      <trkpt lat="43.52897" lon="6.58507">
        <ele>149.4</ele>
        <time>2025-10-28T08:37:23.000Z</time>
      </trkpt>
      <trkpt lat="43.529" lon="6.5851">
        <ele>149.8</ele>
        <time>2025-10-28T08:37:24.000Z</time>
      </trkpt>
      <trkpt lat="43.52903" lon="6.58513">
        <ele>150.2</ele>
        <time>2025-10-28T08:37:25.000Z</time>
      </trkpt>
      <trkpt lat="43.52905" lon="6.58517">
        <ele>150.5</ele>
        <time>2025-10-28T08:37:26.000Z</time>
      </trkpt>
      <trkpt lat="43.52907" lon="6.5852">
        <ele>150.9</ele>
        <time>2025-10-28T08:37:27.000Z</time>
      </trkpt>
      <trkpt lat="43.52909" lon="6.58524">
        <ele>151.2</ele>
        <time>2025-10-28T08:37:28.000Z</time>
      </trkpt>
      <trkpt lat="43.52912" lon="6.58528">
        <ele>151.6</ele>
        <time>2025-10-28T08:37:29.000Z</time>
      </trkpt>
      <trkpt lat="43.52914" lon="6.58531">
        <ele>152</ele>
        <time>2025-10-28T08:37:30.000Z</time>
      </trkpt>
      <trkpt lat="43.52917" lon="6.58533">
        <ele>152.3</ele>
        <time>2025-10-28T08:37:31.000Z</time>
      </trkpt>
      <trkpt lat="43.5292" lon="6.58536">
        <ele>152.7</ele>
        <time>2025-10-28T08:37:32.000Z</time>
      </trkpt>
      <trkpt lat="43.52923" lon="6.58538">
        <ele>153.1</ele>
        <time>2025-10-28T08:37:33.000Z</time>
      </trkpt>
      <trkpt lat="43.52926" lon="6.58541">
        <ele>153.5</ele>
        <time>2025-10-28T08:37:34.000Z</time>
      </trkpt>
      <trkpt lat="43.52929" lon="6.58543">
        <ele>153.8</ele>
        <time>2025-10-28T08:37:35.000Z</time>
      </trkpt>
      <trkpt lat="43.52932" lon="6.58545">
        <ele>154.2</ele>
        <time>2025-10-28T08:37:36.000Z</time>
      </trkpt>
      <trkpt lat="43.52935" lon="6.58547">
        <ele>154.6</ele>
        <time>2025-10-28T08:37:37.000Z</time>
      </trkpt>
      <trkpt lat="43.52937" lon="6.58549">
        <ele>154.9</ele>
        <time>2025-10-28T08:37:38.000Z</time>
      </trkpt>
      <trkpt lat="43.5294" lon="6.58552">
        <ele>155.3</ele>
        <time>2025-10-28T08:37:39.000Z</time>
      </trkpt>
      <trkpt lat="43.52943" lon="6.58555">
        <ele>155.7</ele>
        <time>2025-10-28T08:37:40.000Z</time>
      </trkpt>
      <trkpt lat="43.52945" lon="6.58557">
        <ele>156.1</ele>
        <time>2025-10-28T08:37:41.000Z</time>
      </trkpt>
      <trkpt lat="43.52947" lon="6.58559">
        <ele>156.5</ele>
        <time>2025-10-28T08:37:42.000Z</time>
      </trkpt>
      <trkpt lat="43.52949" lon="6.58562">
        <ele>157</ele>
        <time>2025-10-28T08:37:43.000Z</time>
      </trkpt>
      <trkpt lat="43.52951" lon="6.58565">
        <ele>157.4</ele>
        <time>2025-10-28T08:37:44.000Z</time>
      </trkpt>
      <trkpt lat="43.52953" lon="6.58567">
        <ele>157.8</ele>
        <time>2025-10-28T08:37:45.000Z</time>
      </trkpt>
      <trkpt lat="43.52955" lon="6.5857">
        <ele>158.3</ele>
        <time>2025-10-28T08:37:46.000Z</time>
      </trkpt>
      <trkpt lat="43.52957" lon="6.58573">
        <ele>158.7</ele>
        <time>2025-10-28T08:37:47.000Z</time>
      </trkpt>
      <trkpt lat="43.52959" lon="6.58575">
        <ele>159.1</ele>
        <time>2025-10-28T08:37:48.000Z</time>
      </trkpt>
      <trkpt lat="43.52961" lon="6.58578">
        <ele>159.5</ele>
        <time>2025-10-28T08:37:49.000Z</time>
      </trkpt>
      <trkpt lat="43.52963" lon="6.58581">
        <ele>159.9</ele>
        <time>2025-10-28T08:37:50.000Z</time>
      </trkpt>
      <trkpt lat="43.52964" lon="6.58584">
        <ele>160.3</ele>
        <time>2025-10-28T08:37:51.000Z</time>
      </trkpt>
      <trkpt lat="43.52966" lon="6.58587">
        <ele>160.6</ele>
        <time>2025-10-28T08:37:52.000Z</time>
      </trkpt>
      <trkpt lat="43.52967" lon="6.5859">
        <ele>161</ele>
        <time>2025-10-28T08:37:53.000Z</time>
      </trkpt>
      <trkpt lat="43.52969" lon="6.58593">
        <ele>161.4</ele>
        <time>2025-10-28T08:37:54.000Z</time>
      </trkpt>
      <trkpt lat="43.52972" lon="6.58596">
        <ele>161.9</ele>
        <time>2025-10-28T08:37:55.000Z</time>
      </trkpt>
      <trkpt lat="43.52973" lon="6.58599">
        <ele>162.2</ele>
        <time>2025-10-28T08:37:56.000Z</time>
      </trkpt>
      <trkpt lat="43.52975" lon="6.58601">
        <ele>162.6</ele>
        <time>2025-10-28T08:37:57.000Z</time>
      </trkpt>
      <trkpt lat="43.52977" lon="6.58603">
        <ele>162.9</ele>
        <time>2025-10-28T08:37:58.000Z</time>
      </trkpt>
      <trkpt lat="43.52979" lon="6.58605">
        <ele>163.3</ele>
        <time>2025-10-28T08:37:59.000Z</time>
      </trkpt>
      <trkpt lat="43.52982" lon="6.58608">
        <ele>163.7</ele>
        <time>2025-10-28T08:38:00.000Z</time>
      </trkpt>
      <trkpt lat="43.52984" lon="6.5861">
        <ele>164.1</ele>
        <time>2025-10-28T08:38:01.000Z</time>
      </trkpt>
      <trkpt lat="43.52986" lon="6.58612">
        <ele>164.5</ele>
        <time>2025-10-28T08:38:02.000Z</time>
      </trkpt>
      <trkpt lat="43.52988" lon="6.58615">
        <ele>164.9</ele>
        <time>2025-10-28T08:38:03.000Z</time>
      </trkpt>
      <trkpt lat="43.5299" lon="6.58617">
        <ele>165.3</ele>
        <time>2025-10-28T08:38:04.000Z</time>
      </trkpt>
      <trkpt lat="43.52992" lon="6.5862">
        <ele>165.7</ele>
        <time>2025-10-28T08:38:05.000Z</time>
      </trkpt>
      <trkpt lat="43.52994" lon="6.58622">
        <ele>166.1</ele>
        <time>2025-10-28T08:38:06.000Z</time>
      </trkpt>
      <trkpt lat="43.52997" lon="6.58625">
        <ele>166.4</ele>
        <time>2025-10-28T08:38:07.000Z</time>
      </trkpt>
      <trkpt lat="43.52999" lon="6.58627">
        <ele>166.9</ele>
        <time>2025-10-28T08:38:08.000Z</time>
      </trkpt>
      <trkpt lat="43.53002" lon="6.58629">
        <ele>167.2</ele>
        <time>2025-10-28T08:38:09.000Z</time>
      </trkpt>
      <trkpt lat="43.53004" lon="6.58632">
        <ele>167.6</ele>
        <time>2025-10-28T08:38:10.000Z</time>
      </trkpt>
      <trkpt lat="43.53006" lon="6.58634">
        <ele>167.9</ele>
        <time>2025-10-28T08:38:11.000Z</time>
      </trkpt>
      <trkpt lat="43.53009" lon="6.58635">
        <ele>168.3</ele>
        <time>2025-10-28T08:38:12.000Z</time>
      </trkpt>
      <trkpt lat="43.53012" lon="6.58637">
        <ele>168.7</ele>
        <time>2025-10-28T08:38:13.000Z</time>
      </trkpt>
      <trkpt lat="43.53014" lon="6.58639">
        <ele>169</ele>
        <time>2025-10-28T08:38:14.000Z</time>
      </trkpt>
      <trkpt lat="43.53017" lon="6.5864">
        <ele>169.4</ele>
        <time>2025-10-28T08:38:15.000Z</time>
      </trkpt>
      <trkpt lat="43.5302" lon="6.58641">
        <ele>169.8</ele>
        <time>2025-10-28T08:38:16.000Z</time>
      </trkpt>
      <trkpt lat="43.53023" lon="6.58643">
        <ele>170.2</ele>
        <time>2025-10-28T08:38:17.000Z</time>
      </trkpt>
      <trkpt lat="43.53025" lon="6.58644">
        <ele>170.5</ele>
        <time>2025-10-28T08:38:18.000Z</time>
      </trkpt>
      <trkpt lat="43.53028" lon="6.58646">
        <ele>170.9</ele>
        <time>2025-10-28T08:38:19.000Z</time>
      </trkpt>
      <trkpt lat="43.5303" lon="6.58648">
        <ele>171.3</ele>
        <time>2025-10-28T08:38:20.000Z</time>
      </trkpt>
      <trkpt lat="43.53032" lon="6.5865">
        <ele>171.6</ele>
        <time>2025-10-28T08:38:21.000Z</time>
      </trkpt>
      <trkpt lat="43.53034" lon="6.58653">
        <ele>171.9</ele>
        <time>2025-10-28T08:38:22.000Z</time>
      </trkpt>
      <trkpt lat="43.53037" lon="6.58655">
        <ele>172.2</ele>
        <time>2025-10-28T08:38:23.000Z</time>
      </trkpt>
      <trkpt lat="43.53039" lon="6.58658">
        <ele>172.5</ele>
        <time>2025-10-28T08:38:24.000Z</time>
      </trkpt>
      <trkpt lat="43.53041" lon="6.5866">
        <ele>172.8</ele>
        <time>2025-10-28T08:38:25.000Z</time>
      </trkpt>
      <trkpt lat="43.53042" lon="6.58663">
        <ele>173.1</ele>
        <time>2025-10-28T08:38:26.000Z</time>
      </trkpt>
      <trkpt lat="43.53044" lon="6.58665">
        <ele>173.3</ele>
        <time>2025-10-28T08:38:27.000Z</time>
      </trkpt>
      <trkpt lat="43.53047" lon="6.58669">
        <ele>173.6</ele>
        <time>2025-10-28T08:38:28.000Z</time>
      </trkpt>
      <trkpt lat="43.53048" lon="6.58671">
        <ele>173.8</ele>
        <time>2025-10-28T08:38:29.000Z</time>
      </trkpt>
      <trkpt lat="43.5305" lon="6.58674">
        <ele>174.1</ele>
        <time>2025-10-28T08:38:30.000Z</time>
      </trkpt>
      <trkpt lat="43.53052" lon="6.58676">
        <ele>174.3</ele>
        <time>2025-10-28T08:38:31.000Z</time>
      </trkpt>
      <trkpt lat="43.53053" lon="6.58679">
        <ele>174.6</ele>
        <time>2025-10-28T08:38:32.000Z</time>
      </trkpt>
      <trkpt lat="43.53055" lon="6.58683">
        <ele>174.9</ele>
        <time>2025-10-28T08:38:33.000Z</time>
      </trkpt>
      <trkpt lat="43.53057" lon="6.58686">
        <ele>175.1</ele>
        <time>2025-10-28T08:38:34.000Z</time>
      </trkpt>
      <trkpt lat="43.53058" lon="6.58689">
        <ele>175.4</ele>
        <time>2025-10-28T08:38:35.000Z</time>
      </trkpt>
      <trkpt lat="43.5306" lon="6.58692">
        <ele>175.7</ele>
        <time>2025-10-28T08:38:36.000Z</time>
      </trkpt>
      <trkpt lat="43.53062" lon="6.58694">
        <ele>176</ele>
        <time>2025-10-28T08:38:37.000Z</time>
      </trkpt>
      <trkpt lat="43.53064" lon="6.58697">
        <ele>176.3</ele>
        <time>2025-10-28T08:38:38.000Z</time>
      </trkpt>
      <trkpt lat="43.53066" lon="6.587">
        <ele>176.6</ele>
        <time>2025-10-28T08:38:39.000Z</time>
      </trkpt>
      <trkpt lat="43.53067" lon="6.58702">
        <ele>176.9</ele>
        <time>2025-10-28T08:38:40.000Z</time>
      </trkpt>
      <trkpt lat="43.53069" lon="6.58705">
        <ele>177.2</ele>
        <time>2025-10-28T08:38:41.000Z</time>
      </trkpt>
      <trkpt lat="43.53071" lon="6.58707">
        <ele>177.5</ele>
        <time>2025-10-28T08:38:42.000Z</time>
      </trkpt>
      <trkpt lat="43.53073" lon="6.58709">
        <ele>177.8</ele>
        <time>2025-10-28T08:38:43.000Z</time>
      </trkpt>
      <trkpt lat="43.53075" lon="6.58712">
        <ele>178.1</ele>
        <time>2025-10-28T08:38:44.000Z</time>
      </trkpt>
      <trkpt lat="43.53077" lon="6.58714">
        <ele>178.5</ele>
        <time>2025-10-28T08:38:45.000Z</time>
      </trkpt>
      <trkpt lat="43.53079" lon="6.58717">
        <ele>178.8</ele>
        <time>2025-10-28T08:38:46.000Z</time>
      </trkpt>
      <trkpt lat="43.53081" lon="6.5872">
        <ele>179.2</ele>
        <time>2025-10-28T08:38:47.000Z</time>
      </trkpt>
      <trkpt lat="43.53082" lon="6.58723">
        <ele>179.5</ele>
        <time>2025-10-28T08:38:48.000Z</time>
      </trkpt>
      <trkpt lat="43.53084" lon="6.58726">
        <ele>179.9</ele>
        <time>2025-10-28T08:38:49.000Z</time>
      </trkpt>
      <trkpt lat="43.53086" lon="6.58729">
        <ele>180.2</ele>
        <time>2025-10-28T08:38:50.000Z</time>
      </trkpt>
      <trkpt lat="43.53088" lon="6.58732">
        <ele>180.6</ele>
        <time>2025-10-28T08:38:51.000Z</time>
      </trkpt>
      <trkpt lat="43.5309" lon="6.58734">
        <ele>181</ele>
        <time>2025-10-28T08:38:52.000Z</time>
      </trkpt>
      <trkpt lat="43.53093" lon="6.58737">
        <ele>181.4</ele>
        <time>2025-10-28T08:38:53.000Z</time>
      </trkpt>
      <trkpt lat="43.53095" lon="6.58739">
        <ele>181.7</ele>
        <time>2025-10-28T08:38:54.000Z</time>
      </trkpt>
      <trkpt lat="43.53097" lon="6.58741">
        <ele>182</ele>
        <time>2025-10-28T08:38:55.000Z</time>
      </trkpt>
      <trkpt lat="43.53099" lon="6.58743">
        <ele>182.3</ele>
        <time>2025-10-28T08:38:56.000Z</time>
      </trkpt>
      <trkpt lat="43.53102" lon="6.58745">
        <ele>182.7</ele>
        <time>2025-10-28T08:38:57.000Z</time>
      </trkpt>
      <trkpt lat="43.53104" lon="6.58747">
        <ele>183</ele>
        <time>2025-10-28T08:38:58.000Z</time>
      </trkpt>
      <trkpt lat="43.53106" lon="6.58748">
        <ele>183.3</ele>
        <time>2025-10-28T08:38:59.000Z</time>
      </trkpt>
      <trkpt lat="43.53109" lon="6.5875">
        <ele>183.6</ele>
        <time>2025-10-28T08:39:00.000Z</time>
      </trkpt>
      <trkpt lat="43.53111" lon="6.58752">
        <ele>183.9</ele>
        <time>2025-10-28T08:39:01.000Z</time>
      </trkpt>
      <trkpt lat="43.53114" lon="6.58754">
        <ele>184.2</ele>
        <time>2025-10-28T08:39:02.000Z</time>
      </trkpt>
      <trkpt lat="43.53116" lon="6.58756">
        <ele>184.5</ele>
        <time>2025-10-28T08:39:03.000Z</time>
      </trkpt>
      <trkpt lat="43.53119" lon="6.58758">
        <ele>184.9</ele>
        <time>2025-10-28T08:39:04.000Z</time>
      </trkpt>
      <trkpt lat="43.53121" lon="6.5876">
        <ele>185.2</ele>
        <time>2025-10-28T08:39:05.000Z</time>
      </trkpt>
      <trkpt lat="43.53124" lon="6.58761">
        <ele>185.5</ele>
        <time>2025-10-28T08:39:06.000Z</time>
      </trkpt>
      <trkpt lat="43.53127" lon="6.58763">
        <ele>185.9</ele>
        <time>2025-10-28T08:39:07.000Z</time>
      </trkpt>
      <trkpt lat="43.5313" lon="6.58764">
        <ele>186.2</ele>
        <time>2025-10-28T08:39:08.000Z</time>
      </trkpt>
      <trkpt lat="43.53132" lon="6.58765">
        <ele>186.5</ele>
        <time>2025-10-28T08:39:09.000Z</time>
      </trkpt>
      <trkpt lat="43.53135" lon="6.58767">
        <ele>186.8</ele>
        <time>2025-10-28T08:39:10.000Z</time>
      </trkpt>
      <trkpt lat="43.53137" lon="6.58769">
        <ele>187.1</ele>
        <time>2025-10-28T08:39:11.000Z</time>
      </trkpt>
      <trkpt lat="43.5314" lon="6.58771">
        <ele>187.4</ele>
        <time>2025-10-28T08:39:12.000Z</time>
      </trkpt>
      <trkpt lat="43.53142" lon="6.58773">
        <ele>187.7</ele>
        <time>2025-10-28T08:39:13.000Z</time>
      </trkpt>
      <trkpt lat="43.53144" lon="6.58776">
        <ele>188</ele>
        <time>2025-10-28T08:39:14.000Z</time>
      </trkpt>
      <trkpt lat="43.53146" lon="6.58778">
        <ele>188.3</ele>
        <time>2025-10-28T08:39:15.000Z</time>
      </trkpt>
      <trkpt lat="43.53149" lon="6.58781">
        <ele>188.6</ele>
        <time>2025-10-28T08:39:16.000Z</time>
      </trkpt>
      <trkpt lat="43.53151" lon="6.58784">
        <ele>188.9</ele>
        <time>2025-10-28T08:39:17.000Z</time>
      </trkpt>
      <trkpt lat="43.53153" lon="6.58787">
        <ele>189.2</ele>
        <time>2025-10-28T08:39:18.000Z</time>
      </trkpt>
      <trkpt lat="43.53155" lon="6.5879">
        <ele>189.4</ele>
        <time>2025-10-28T08:39:19.000Z</time>
      </trkpt>
      <trkpt lat="43.53157" lon="6.58793">
        <ele>189.7</ele>
        <time>2025-10-28T08:39:20.000Z</time>
      </trkpt>
      <trkpt lat="43.53158" lon="6.58795">
        <ele>189.9</ele>
        <time>2025-10-28T08:39:21.000Z</time>
      </trkpt>
      <trkpt lat="43.5316" lon="6.58798">
        <ele>190.2</ele>
        <time>2025-10-28T08:39:22.000Z</time>
      </trkpt>
      <trkpt lat="43.53162" lon="6.58801">
        <ele>190.4</ele>
        <time>2025-10-28T08:39:23.000Z</time>
      </trkpt>
      <trkpt lat="43.53165" lon="6.58803">
        <ele>190.7</ele>
        <time>2025-10-28T08:39:24.000Z</time>
      </trkpt>
      <trkpt lat="43.53168" lon="6.58805">
        <ele>191</ele>
        <time>2025-10-28T08:39:25.000Z</time>
      </trkpt>
      <trkpt lat="43.53171" lon="6.58807">
        <ele>191.3</ele>
        <time>2025-10-28T08:39:26.000Z</time>
      </trkpt>
      <trkpt lat="43.53174" lon="6.58809">
        <ele>191.5</ele>
        <time>2025-10-28T08:39:27.000Z</time>
      </trkpt>
      <trkpt lat="43.53176" lon="6.58811">
        <ele>191.8</ele>
        <time>2025-10-28T08:39:28.000Z</time>
      </trkpt>
      <trkpt lat="43.53179" lon="6.58813">
        <ele>192.1</ele>
        <time>2025-10-28T08:39:29.000Z</time>
      </trkpt>
      <trkpt lat="43.53182" lon="6.58815">
        <ele>192.3</ele>
        <time>2025-10-28T08:39:30.000Z</time>
      </trkpt>
      <trkpt lat="43.53184" lon="6.58817">
        <ele>192.6</ele>
        <time>2025-10-28T08:39:31.000Z</time>
      </trkpt>
      <trkpt lat="43.53187" lon="6.58818">
        <ele>192.8</ele>
        <time>2025-10-28T08:39:32.000Z</time>
      </trkpt>
      <trkpt lat="43.53189" lon="6.5882">
        <ele>193.1</ele>
        <time>2025-10-28T08:39:33.000Z</time>
      </trkpt>
      <trkpt lat="43.53192" lon="6.58822">
        <ele>193.3</ele>
        <time>2025-10-28T08:39:34.000Z</time>
      </trkpt>
      <trkpt lat="43.53194" lon="6.58823">
        <ele>193.5</ele>
        <time>2025-10-28T08:39:35.000Z</time>
      </trkpt>
      <trkpt lat="43.53197" lon="6.58825">
        <ele>193.7</ele>
        <time>2025-10-28T08:39:36.000Z</time>
      </trkpt>
      <trkpt lat="43.53199" lon="6.58826">
        <ele>193.9</ele>
        <time>2025-10-28T08:39:37.000Z</time>
      </trkpt>
      <trkpt lat="43.53202" lon="6.58828">
        <ele>194.1</ele>
        <time>2025-10-28T08:39:38.000Z</time>
      </trkpt>
      <trkpt lat="43.53204" lon="6.58829">
        <ele>194.3</ele>
        <time>2025-10-28T08:39:39.000Z</time>
      </trkpt>
      <trkpt lat="43.53207" lon="6.58831">
        <ele>194.5</ele>
        <time>2025-10-28T08:39:40.000Z</time>
      </trkpt>
      <trkpt lat="43.53209" lon="6.58833">
        <ele>194.8</ele>
        <time>2025-10-28T08:39:41.000Z</time>
      </trkpt>
      <trkpt lat="43.53212" lon="6.58835">
        <ele>195</ele>
        <time>2025-10-28T08:39:42.000Z</time>
      </trkpt>
      <trkpt lat="43.53214" lon="6.58838">
        <ele>195.2</ele>
        <time>2025-10-28T08:39:43.000Z</time>
      </trkpt>
      <trkpt lat="43.53217" lon="6.5884">
        <ele>195.5</ele>
        <time>2025-10-28T08:39:44.000Z</time>
      </trkpt>
      <trkpt lat="43.53219" lon="6.58842">
        <ele>195.7</ele>
        <time>2025-10-28T08:39:45.000Z</time>
      </trkpt>
      <trkpt lat="43.53222" lon="6.58844">
        <ele>195.9</ele>
        <time>2025-10-28T08:39:46.000Z</time>
      </trkpt>
      <trkpt lat="43.53225" lon="6.58847">
        <ele>196.2</ele>
        <time>2025-10-28T08:39:47.000Z</time>
      </trkpt>
      <trkpt lat="43.53227" lon="6.58849">
        <ele>196.4</ele>
        <time>2025-10-28T08:39:48.000Z</time>
      </trkpt>
      <trkpt lat="43.5323" lon="6.58851">
        <ele>196.7</ele>
        <time>2025-10-28T08:39:49.000Z</time>
      </trkpt>
      <trkpt lat="43.53233" lon="6.58853">
        <ele>196.9</ele>
        <time>2025-10-28T08:39:50.000Z</time>
      </trkpt>
      <trkpt lat="43.53236" lon="6.58855">
        <ele>197.2</ele>
        <time>2025-10-28T08:39:51.000Z</time>
      </trkpt>
      <trkpt lat="43.53238" lon="6.58857">
        <ele>197.4</ele>
        <time>2025-10-28T08:39:52.000Z</time>
      </trkpt>
      <trkpt lat="43.53241" lon="6.58859">
        <ele>197.6</ele>
        <time>2025-10-28T08:39:53.000Z</time>
      </trkpt>
      <trkpt lat="43.53244" lon="6.58861">
        <ele>197.9</ele>
        <time>2025-10-28T08:39:54.000Z</time>
      </trkpt>
      <trkpt lat="43.53247" lon="6.58863">
        <ele>198.1</ele>
        <time>2025-10-28T08:39:55.000Z</time>
      </trkpt>
      <trkpt lat="43.5325" lon="6.58865">
        <ele>198.3</ele>
        <time>2025-10-28T08:39:56.000Z</time>
      </trkpt>
      <trkpt lat="43.53253" lon="6.58866">
        <ele>198.6</ele>
        <time>2025-10-28T08:39:57.000Z</time>
      </trkpt>
      <trkpt lat="43.53256" lon="6.58868">
        <ele>198.8</ele>
        <time>2025-10-28T08:39:58.000Z</time>
      </trkpt>
      <trkpt lat="43.53258" lon="6.5887">
        <ele>199</ele>
        <time>2025-10-28T08:39:59.000Z</time>
      </trkpt>
      <trkpt lat="43.53261" lon="6.58873">
        <ele>199.2</ele>
        <time>2025-10-28T08:40:00.000Z</time>
      </trkpt>
      <trkpt lat="43.53263" lon="6.58875">
        <ele>199.5</ele>
        <time>2025-10-28T08:40:01.000Z</time>
      </trkpt>
      <trkpt lat="43.53265" lon="6.58877">
        <ele>199.7</ele>
        <time>2025-10-28T08:40:02.000Z</time>
      </trkpt>
      <trkpt lat="43.53268" lon="6.5888">
        <ele>199.9</ele>
        <time>2025-10-28T08:40:03.000Z</time>
      </trkpt>
      <trkpt lat="43.53271" lon="6.58881">
        <ele>200.1</ele>
        <time>2025-10-28T08:40:04.000Z</time>
      </trkpt>
      <trkpt lat="43.53273" lon="6.58883">
        <ele>200.4</ele>
        <time>2025-10-28T08:40:05.000Z</time>
      </trkpt>
      <trkpt lat="43.53276" lon="6.58885">
        <ele>200.6</ele>
        <time>2025-10-28T08:40:06.000Z</time>
      </trkpt>
      <trkpt lat="43.53279" lon="6.58886">
        <ele>200.9</ele>
        <time>2025-10-28T08:40:07.000Z</time>
      </trkpt>
      <trkpt lat="43.53282" lon="6.58888">
        <ele>201.1</ele>
        <time>2025-10-28T08:40:08.000Z</time>
      </trkpt>
      <trkpt lat="43.53285" lon="6.58889">
        <ele>201.4</ele>
        <time>2025-10-28T08:40:09.000Z</time>
      </trkpt>
      <trkpt lat="43.53288" lon="6.58891">
        <ele>201.7</ele>
        <time>2025-10-28T08:40:10.000Z</time>
      </trkpt>
      <trkpt lat="43.53291" lon="6.58892">
        <ele>202</ele>
        <time>2025-10-28T08:40:11.000Z</time>
      </trkpt>
      <trkpt lat="43.53294" lon="6.58894">
        <ele>202.3</ele>
        <time>2025-10-28T08:40:12.000Z</time>
      </trkpt>
      <trkpt lat="43.53297" lon="6.58895">
        <ele>202.6</ele>
        <time>2025-10-28T08:40:13.000Z</time>
      </trkpt>
      <trkpt lat="43.533" lon="6.58897">
        <ele>202.9</ele>
        <time>2025-10-28T08:40:14.000Z</time>
      </trkpt>
      <trkpt lat="43.53303" lon="6.58898">
        <ele>203.2</ele>
        <time>2025-10-28T08:40:15.000Z</time>
      </trkpt>
      <trkpt lat="43.53305" lon="6.589">
        <ele>203.5</ele>
        <time>2025-10-28T08:40:16.000Z</time>
      </trkpt>
      <trkpt lat="43.53308" lon="6.58901">
        <ele>203.8</ele>
        <time>2025-10-28T08:40:17.000Z</time>
      </trkpt>
      <trkpt lat="43.53311" lon="6.58903">
        <ele>204.1</ele>
        <time>2025-10-28T08:40:18.000Z</time>
      </trkpt>
      <trkpt lat="43.53314" lon="6.58905">
        <ele>204.4</ele>
        <time>2025-10-28T08:40:19.000Z</time>
      </trkpt>
      <trkpt lat="43.53317" lon="6.58906">
        <ele>204.6</ele>
        <time>2025-10-28T08:40:20.000Z</time>
      </trkpt>
      <trkpt lat="43.5332" lon="6.58908">
        <ele>205</ele>
        <time>2025-10-28T08:40:21.000Z</time>
      </trkpt>
      <trkpt lat="43.53323" lon="6.58909">
        <ele>205.2</ele>
        <time>2025-10-28T08:40:22.000Z</time>
      </trkpt>
      <trkpt lat="43.53326" lon="6.58911">
        <ele>205.5</ele>
        <time>2025-10-28T08:40:23.000Z</time>
      </trkpt>
      <trkpt lat="43.53329" lon="6.58913">
        <ele>205.8</ele>
        <time>2025-10-28T08:40:24.000Z</time>
      </trkpt>
      <trkpt lat="43.53332" lon="6.58914">
        <ele>206.1</ele>
        <time>2025-10-28T08:40:25.000Z</time>
      </trkpt>
      <trkpt lat="43.53335" lon="6.58916">
        <ele>206.5</ele>
        <time>2025-10-28T08:40:26.000Z</time>
      </trkpt>
      <trkpt lat="43.53338" lon="6.58919">
        <ele>206.8</ele>
        <time>2025-10-28T08:40:27.000Z</time>
      </trkpt>
      <trkpt lat="43.53341" lon="6.58921">
        <ele>207</ele>
        <time>2025-10-28T08:40:28.000Z</time>
      </trkpt>
      <trkpt lat="43.53343" lon="6.58922">
        <ele>207.3</ele>
        <time>2025-10-28T08:40:29.000Z</time>
      </trkpt>
      <trkpt lat="43.53344" lon="6.58923">
        <ele>207.4</ele>
        <time>2025-10-28T08:40:30.000Z</time>
      </trkpt>
      <trkpt lat="43.53345" lon="6.58923">
        <ele>207.5</ele>
        <time>2025-10-28T08:40:31.000Z</time>
      </trkpt>
      <trkpt lat="43.53345" lon="6.58923">
        <ele>207.5</ele>
        <time>2025-10-28T08:40:32.000Z</time>
      </trkpt>
      <trkpt lat="43.53345" lon="6.58924">
        <ele>207.6</ele>
        <time>2025-10-28T08:40:33.000Z</time>
      </trkpt>
      <trkpt lat="43.53345" lon="6.58924">
        <ele>207.6</ele>
        <time>2025-10-28T08:40:34.000Z</time>
      </trkpt>
      <trkpt lat="43.53344" lon="6.58925">
        <ele>207.7</ele>
        <time>2025-10-28T08:40:35.000Z</time>
      </trkpt>
      <trkpt lat="43.53344" lon="6.58925">
        <ele>207.7</ele>
        <time>2025-10-28T08:40:36.000Z</time>
      </trkpt>
      <trkpt lat="43.53344" lon="6.58925">
        <ele>207.7</ele>
        <time>2025-10-28T08:40:37.000Z</time>
      </trkpt>
      <trkpt lat="43.53344" lon="6.58926">
        <ele>207.8</ele>
        <time>2025-10-28T08:40:38.000Z</time>
      </trkpt>
      <trkpt lat="43.53344" lon="6.58926">
        <ele>207.8</ele>
        <time>2025-10-28T08:40:39.000Z</time>
      </trkpt>
      <trkpt lat="43.53345" lon="6.58925">
        <ele>207.8</ele>
        <time>2025-10-28T08:40:40.000Z</time>
      </trkpt>
      <trkpt lat="43.53345" lon="6.58924">
        <ele>207.9</ele>
        <time>2025-10-28T08:40:41.000Z</time>
      </trkpt>
      <trkpt lat="43.53345" lon="6.58924">
        <ele>207.9</ele>
        <time>2025-10-28T08:40:42.000Z</time>
      </trkpt>
      <trkpt lat="43.53346" lon="6.58925">
        <ele>208</ele>
        <time>2025-10-28T08:40:43.000Z</time>
      </trkpt>
      <trkpt lat="43.53347" lon="6.58926">
        <ele>208.1</ele>
        <time>2025-10-28T08:40:44.000Z</time>
      </trkpt>
      <trkpt lat="43.53348" lon="6.58927">
        <ele>208.3</ele>
        <time>2025-10-28T08:40:45.000Z</time>
      </trkpt>
      <trkpt lat="43.53351" lon="6.5893">
        <ele>208.7</ele>
        <time>2025-10-28T08:40:46.000Z</time>
      </trkpt>
      <trkpt lat="43.53353" lon="6.58932">
        <ele>208.9</ele>
        <time>2025-10-28T08:40:47.000Z</time>
      </trkpt>
      <trkpt lat="43.53357" lon="6.58935">
        <ele>209.4</ele>
        <time>2025-10-28T08:40:48.000Z</time>
      </trkpt>
      <trkpt lat="43.5336" lon="6.58937">
        <ele>209.8</ele>
        <time>2025-10-28T08:40:49.000Z</time>
      </trkpt>
      <trkpt lat="43.53364" lon="6.58939">
        <ele>210.3</ele>
        <time>2025-10-28T08:40:50.000Z</time>
      </trkpt>
      <trkpt lat="43.53367" lon="6.5894">
        <ele>210.6</ele>
        <time>2025-10-28T08:40:51.000Z</time>
      </trkpt>
      <trkpt lat="43.53371" lon="6.58942">
        <ele>211.1</ele>
        <time>2025-10-28T08:40:52.000Z</time>
      </trkpt>
      <trkpt lat="43.53374" lon="6.58944">
        <ele>211.5</ele>
        <time>2025-10-28T08:40:53.000Z</time>
      </trkpt>
      <trkpt lat="43.53377" lon="6.58946">
        <ele>211.9</ele>
        <time>2025-10-28T08:40:54.000Z</time>
      </trkpt>
      <trkpt lat="43.5338" lon="6.58948">
        <ele>212.4</ele>
        <time>2025-10-28T08:40:55.000Z</time>
      </trkpt>
      <trkpt lat="43.53383" lon="6.5895">
        <ele>212.8</ele>
        <time>2025-10-28T08:40:56.000Z</time>
      </trkpt>
      <trkpt lat="43.53386" lon="6.58953">
        <ele>213.2</ele>
        <time>2025-10-28T08:40:57.000Z</time>
      </trkpt>
      <trkpt lat="43.53389" lon="6.58956">
        <ele>213.6</ele>
        <time>2025-10-28T08:40:58.000Z</time>
      </trkpt>
      <trkpt lat="43.53392" lon="6.58959">
        <ele>214</ele>
        <time>2025-10-28T08:40:59.000Z</time>
      </trkpt>
      <trkpt lat="43.53395" lon="6.58962">
        <ele>214.3</ele>
        <time>2025-10-28T08:41:00.000Z</time>
      </trkpt>
      <trkpt lat="43.53397" lon="6.58964">
        <ele>214.7</ele>
        <time>2025-10-28T08:41:01.000Z</time>
      </trkpt>
      <trkpt lat="43.53401" lon="6.58967">
        <ele>215.1</ele>
        <time>2025-10-28T08:41:02.000Z</time>
      </trkpt>
      <trkpt lat="43.53403" lon="6.58969">
        <ele>215.4</ele>
        <time>2025-10-28T08:41:03.000Z</time>
      </trkpt>
      <trkpt lat="43.53407" lon="6.58972">
        <ele>215.9</ele>
        <time>2025-10-28T08:41:04.000Z</time>
      </trkpt>
      <trkpt lat="43.5341" lon="6.58975">
        <ele>216.3</ele>
        <time>2025-10-28T08:41:05.000Z</time>
      </trkpt>
      <trkpt lat="43.53412" lon="6.58977">
        <ele>216.7</ele>
        <time>2025-10-28T08:41:06.000Z</time>
      </trkpt>
      <trkpt lat="43.53415" lon="6.58979">
        <ele>217</ele>
        <time>2025-10-28T08:41:07.000Z</time>
      </trkpt>
      <trkpt lat="43.53418" lon="6.58981">
        <ele>217.4</ele>
        <time>2025-10-28T08:41:08.000Z</time>
      </trkpt>
      <trkpt lat="43.53421" lon="6.58983">
        <ele>217.8</ele>
        <time>2025-10-28T08:41:09.000Z</time>
      </trkpt>
      <trkpt lat="43.53424" lon="6.58985">
        <ele>218.2</ele>
        <time>2025-10-28T08:41:10.000Z</time>
      </trkpt>
      <trkpt lat="43.53427" lon="6.58987">
        <ele>218.5</ele>
        <time>2025-10-28T08:41:11.000Z</time>
      </trkpt>
      <trkpt lat="43.53429" lon="6.58989">
        <ele>218.8</ele>
        <time>2025-10-28T08:41:12.000Z</time>
      </trkpt>
      <trkpt lat="43.53433" lon="6.58991">
        <ele>219.3</ele>
        <time>2025-10-28T08:41:13.000Z</time>
      </trkpt>
      <trkpt lat="43.53436" lon="6.58993">
        <ele>219.7</ele>
        <time>2025-10-28T08:41:14.000Z</time>
      </trkpt>
      <trkpt lat="43.53439" lon="6.58994">
        <ele>220.1</ele>
        <time>2025-10-28T08:41:15.000Z</time>
      </trkpt>
      <trkpt lat="43.53442" lon="6.58996">
        <ele>220.5</ele>
        <time>2025-10-28T08:41:16.000Z</time>
      </trkpt>
      <trkpt lat="43.53445" lon="6.58997">
        <ele>220.9</ele>
        <time>2025-10-28T08:41:17.000Z</time>
      </trkpt>
      <trkpt lat="43.53448" lon="6.58999">
        <ele>221.3</ele>
        <time>2025-10-28T08:41:18.000Z</time>
      </trkpt>
      <trkpt lat="43.53452" lon="6.59001">
        <ele>221.9</ele>
        <time>2025-10-28T08:41:19.000Z</time>
      </trkpt>
      <trkpt lat="43.53455" lon="6.59003">
        <ele>222.4</ele>
        <time>2025-10-28T08:41:20.000Z</time>
      </trkpt>
      <trkpt lat="43.53458" lon="6.59004">
        <ele>222.8</ele>
        <time>2025-10-28T08:41:21.000Z</time>
      </trkpt>
      <trkpt lat="43.5346" lon="6.59005">
        <ele>223.1</ele>
        <time>2025-10-28T08:41:22.000Z</time>
      </trkpt>
      <trkpt lat="43.53462" lon="6.59007">
        <ele>223.5</ele>
        <time>2025-10-28T08:41:23.000Z</time>
      </trkpt>
      <trkpt lat="43.53464" lon="6.59009">
        <ele>223.8</ele>
        <time>2025-10-28T08:41:24.000Z</time>
      </trkpt>
      <trkpt lat="43.53466" lon="6.59011">
        <ele>224.1</ele>
        <time>2025-10-28T08:41:25.000Z</time>
      </trkpt>
      <trkpt lat="43.53467" lon="6.59014">
        <ele>224.4</ele>
        <time>2025-10-28T08:41:26.000Z</time>
      </trkpt>
      <trkpt lat="43.53469" lon="6.59017">
        <ele>224.7</ele>
        <time>2025-10-28T08:41:27.000Z</time>
      </trkpt>
      <trkpt lat="43.5347" lon="6.5902">
        <ele>225.1</ele>
        <time>2025-10-28T08:41:28.000Z</time>
      </trkpt>
      <trkpt lat="43.53471" lon="6.59022">
        <ele>225.4</ele>
        <time>2025-10-28T08:41:29.000Z</time>
      </trkpt>
      <trkpt lat="43.53473" lon="6.59025">
        <ele>225.7</ele>
        <time>2025-10-28T08:41:30.000Z</time>
      </trkpt>
      <trkpt lat="43.53475" lon="6.59028">
        <ele>226.1</ele>
        <time>2025-10-28T08:41:31.000Z</time>
      </trkpt>
      <trkpt lat="43.53477" lon="6.5903">
        <ele>226.4</ele>
        <time>2025-10-28T08:41:32.000Z</time>
      </trkpt>
      <trkpt lat="43.53479" lon="6.59032">
        <ele>226.7</ele>
        <time>2025-10-28T08:41:33.000Z</time>
      </trkpt>
      <trkpt lat="43.5348" lon="6.59034">
        <ele>227</ele>
        <time>2025-10-28T08:41:34.000Z</time>
      </trkpt>
      <trkpt lat="43.53482" lon="6.59035">
        <ele>227.3</ele>
        <time>2025-10-28T08:41:35.000Z</time>
      </trkpt>
      <trkpt lat="43.53484" lon="6.59037">
        <ele>227.6</ele>
        <time>2025-10-28T08:41:36.000Z</time>
      </trkpt>
      <trkpt lat="43.53487" lon="6.59039">
        <ele>227.9</ele>
        <time>2025-10-28T08:41:37.000Z</time>
      </trkpt>
      <trkpt lat="43.53488" lon="6.59041">
        <ele>228.2</ele>
        <time>2025-10-28T08:41:38.000Z</time>
      </trkpt>
      <trkpt lat="43.53491" lon="6.59043">
        <ele>228.5</ele>
        <time>2025-10-28T08:41:39.000Z</time>
      </trkpt>
      <trkpt lat="43.53493" lon="6.59045">
        <ele>228.9</ele>
        <time>2025-10-28T08:41:40.000Z</time>
      </trkpt>
      <trkpt lat="43.53495" lon="6.59046">
        <ele>229.2</ele>
        <time>2025-10-28T08:41:41.000Z</time>
      </trkpt>
      <trkpt lat="43.53497" lon="6.59048">
        <ele>229.6</ele>
        <time>2025-10-28T08:41:42.000Z</time>
      </trkpt>
      <trkpt lat="43.535" lon="6.5905">
        <ele>230</ele>
        <time>2025-10-28T08:41:43.000Z</time>
      </trkpt>
      <trkpt lat="43.53502" lon="6.59051">
        <ele>230.3</ele>
        <time>2025-10-28T08:41:44.000Z</time>
      </trkpt>
      <trkpt lat="43.53505" lon="6.59053">
        <ele>230.8</ele>
        <time>2025-10-28T08:41:45.000Z</time>
      </trkpt>
      <trkpt lat="43.53507" lon="6.59054">
        <ele>231.3</ele>
        <time>2025-10-28T08:41:46.000Z</time>
      </trkpt>
      <trkpt lat="43.53509" lon="6.59056">
        <ele>231.6</ele>
        <time>2025-10-28T08:41:47.000Z</time>
      </trkpt>
      <trkpt lat="43.53512" lon="6.59058">
        <ele>232.1</ele>
        <time>2025-10-28T08:41:48.000Z</time>
      </trkpt>
      <trkpt lat="43.53514" lon="6.5906">
        <ele>232.5</ele>
        <time>2025-10-28T08:41:49.000Z</time>
      </trkpt>
      <trkpt lat="43.53516" lon="6.59062">
        <ele>233</ele>
        <time>2025-10-28T08:41:50.000Z</time>
      </trkpt>
      <trkpt lat="43.53519" lon="6.59063">
        <ele>233.5</ele>
        <time>2025-10-28T08:41:51.000Z</time>
      </trkpt>
      <trkpt lat="43.5352" lon="6.59064">
        <ele>233.8</ele>
        <time>2025-10-28T08:41:52.000Z</time>
      </trkpt>
      <trkpt lat="43.53523" lon="6.59065">
        <ele>234.2</ele>
        <time>2025-10-28T08:41:53.000Z</time>
      </trkpt>
      <trkpt lat="43.53526" lon="6.59067">
        <ele>234.7</ele>
        <time>2025-10-28T08:41:54.000Z</time>
      </trkpt>
      <trkpt lat="43.53528" lon="6.59068">
        <ele>235.1</ele>
        <time>2025-10-28T08:41:55.000Z</time>
      </trkpt>
      <trkpt lat="43.5353" lon="6.59069">
        <ele>235.5</ele>
        <time>2025-10-28T08:41:56.000Z</time>
      </trkpt>
      <trkpt lat="43.53532" lon="6.5907">
        <ele>235.9</ele>
        <time>2025-10-28T08:41:57.000Z</time>
      </trkpt>
      <trkpt lat="43.53534" lon="6.59072">
        <ele>236.2</ele>
        <time>2025-10-28T08:41:58.000Z</time>
      </trkpt>
      <trkpt lat="43.53535" lon="6.59073">
        <ele>236.5</ele>
        <time>2025-10-28T08:41:59.000Z</time>
      </trkpt>
      <trkpt lat="43.53537" lon="6.59074">
        <ele>236.9</ele>
        <time>2025-10-28T08:42:00.000Z</time>
      </trkpt>
      <trkpt lat="43.53539" lon="6.59076">
        <ele>237.3</ele>
        <time>2025-10-28T08:42:01.000Z</time>
      </trkpt>
      <trkpt lat="43.53541" lon="6.59077">
        <ele>237.7</ele>
        <time>2025-10-28T08:42:02.000Z</time>
      </trkpt>
      <trkpt lat="43.53544" lon="6.59079">
        <ele>238.1</ele>
        <time>2025-10-28T08:42:03.000Z</time>
      </trkpt>
      <trkpt lat="43.53545" lon="6.5908">
        <ele>238.4</ele>
        <time>2025-10-28T08:42:04.000Z</time>
      </trkpt>
      <trkpt lat="43.53548" lon="6.59081">
        <ele>238.9</ele>
        <time>2025-10-28T08:42:05.000Z</time>
      </trkpt>
      <trkpt lat="43.5355" lon="6.59082">
        <ele>239.3</ele>
        <time>2025-10-28T08:42:06.000Z</time>
      </trkpt>
      <trkpt lat="43.53553" lon="6.59083">
        <ele>239.7</ele>
        <time>2025-10-28T08:42:07.000Z</time>
      </trkpt>
      <trkpt lat="43.53555" lon="6.59085">
        <ele>240.2</ele>
        <time>2025-10-28T08:42:08.000Z</time>
      </trkpt>
      <trkpt lat="43.53557" lon="6.59086">
        <ele>240.5</ele>
        <time>2025-10-28T08:42:09.000Z</time>
      </trkpt>
      <trkpt lat="43.5356" lon="6.59088">
        <ele>241</ele>
        <time>2025-10-28T08:42:10.000Z</time>
      </trkpt>
      <trkpt lat="43.53562" lon="6.59089">
        <ele>241.3</ele>
        <time>2025-10-28T08:42:11.000Z</time>
      </trkpt>
      <trkpt lat="43.53564" lon="6.5909">
        <ele>241.7</ele>
        <time>2025-10-28T08:42:12.000Z</time>
      </trkpt>
      <trkpt lat="43.53566" lon="6.59092">
        <ele>242.1</ele>
        <time>2025-10-28T08:42:13.000Z</time>
      </trkpt>
      <trkpt lat="43.53568" lon="6.59093">
        <ele>242.4</ele>
        <time>2025-10-28T08:42:14.000Z</time>
      </trkpt>
      <trkpt lat="43.5357" lon="6.59094">
        <ele>242.8</ele>
        <time>2025-10-28T08:42:15.000Z</time>
      </trkpt>
      <trkpt lat="43.53572" lon="6.59096">
        <ele>243.1</ele>
        <time>2025-10-28T08:42:16.000Z</time>
      </trkpt>
      <trkpt lat="43.53573" lon="6.59099">
        <ele>243.4</ele>
        <time>2025-10-28T08:42:17.000Z</time>
      </trkpt>
      <trkpt lat="43.53575" lon="6.59101">
        <ele>243.8</ele>
        <time>2025-10-28T08:42:18.000Z</time>
      </trkpt>
      <trkpt lat="43.53576" lon="6.59103">
        <ele>244.1</ele>
        <time>2025-10-28T08:42:19.000Z</time>
      </trkpt>
      <trkpt lat="43.53579" lon="6.59105">
        <ele>244.6</ele>
        <time>2025-10-28T08:42:20.000Z</time>
      </trkpt>
      <trkpt lat="43.53581" lon="6.59107">
        <ele>245</ele>
        <time>2025-10-28T08:42:21.000Z</time>
      </trkpt>
      <trkpt lat="43.53584" lon="6.59108">
        <ele>245.4</ele>
        <time>2025-10-28T08:42:22.000Z</time>
      </trkpt>
      <trkpt lat="43.53586" lon="6.59109">
        <ele>245.8</ele>
        <time>2025-10-28T08:42:23.000Z</time>
      </trkpt>
      <trkpt lat="43.53588" lon="6.5911">
        <ele>246.1</ele>
        <time>2025-10-28T08:42:24.000Z</time>
      </trkpt>
      <trkpt lat="43.53591" lon="6.59111">
        <ele>246.6</ele>
        <time>2025-10-28T08:42:25.000Z</time>
      </trkpt>
      <trkpt lat="43.53593" lon="6.59113">
        <ele>247</ele>
        <time>2025-10-28T08:42:26.000Z</time>
      </trkpt>
      <trkpt lat="43.53595" lon="6.59115">
        <ele>247.4</ele>
        <time>2025-10-28T08:42:27.000Z</time>
      </trkpt>
      <trkpt lat="43.53597" lon="6.59117">
        <ele>247.8</ele>
        <time>2025-10-28T08:42:28.000Z</time>
      </trkpt>
      <trkpt lat="43.53599" lon="6.59119">
        <ele>248.1</ele>
        <time>2025-10-28T08:42:29.000Z</time>
      </trkpt>
      <trkpt lat="43.536" lon="6.5912">
        <ele>248.4</ele>
        <time>2025-10-28T08:42:30.000Z</time>
      </trkpt>
      <trkpt lat="43.53603" lon="6.59123">
        <ele>248.9</ele>
        <time>2025-10-28T08:42:31.000Z</time>
      </trkpt>
      <trkpt lat="43.53604" lon="6.59126">
        <ele>249.3</ele>
        <time>2025-10-28T08:42:32.000Z</time>
      </trkpt>
      <trkpt lat="43.53606" lon="6.59128">
        <ele>249.7</ele>
        <time>2025-10-28T08:42:33.000Z</time>
      </trkpt>
      <trkpt lat="43.53608" lon="6.5913">
        <ele>250</ele>
        <time>2025-10-28T08:42:34.000Z</time>
      </trkpt>
      <trkpt lat="43.5361" lon="6.59133">
        <ele>250.5</ele>
        <time>2025-10-28T08:42:35.000Z</time>
      </trkpt>
      <trkpt lat="43.53611" lon="6.59135">
        <ele>250.8</ele>
        <time>2025-10-28T08:42:36.000Z</time>
      </trkpt>
      <trkpt lat="43.53613" lon="6.59137">
        <ele>251.2</ele>
        <time>2025-10-28T08:42:37.000Z</time>
      </trkpt>
      <trkpt lat="43.53616" lon="6.5914">
        <ele>251.6</ele>
        <time>2025-10-28T08:42:38.000Z</time>
      </trkpt>
      <trkpt lat="43.53618" lon="6.59141">
        <ele>252</ele>
        <time>2025-10-28T08:42:39.000Z</time>
      </trkpt>
      <trkpt lat="43.5362" lon="6.59143">
        <ele>252.4</ele>
        <time>2025-10-28T08:42:40.000Z</time>
      </trkpt>
      <trkpt lat="43.53622" lon="6.59144">
        <ele>252.7</ele>
        <time>2025-10-28T08:42:41.000Z</time>
      </trkpt>
      <trkpt lat="43.53624" lon="6.59146">
        <ele>253.1</ele>
        <time>2025-10-28T08:42:42.000Z</time>
      </trkpt>
      <trkpt lat="43.53626" lon="6.59147">
        <ele>253.5</ele>
        <time>2025-10-28T08:42:43.000Z</time>
      </trkpt>
      <trkpt lat="43.53628" lon="6.59149">
        <ele>253.9</ele>
        <time>2025-10-28T08:42:44.000Z</time>
      </trkpt>
      <trkpt lat="43.53629" lon="6.5915">
        <ele>254.2</ele>
        <time>2025-10-28T08:42:45.000Z</time>
      </trkpt>
      <trkpt lat="43.53631" lon="6.59153">
        <ele>254.6</ele>
        <time>2025-10-28T08:42:46.000Z</time>
      </trkpt>
      <trkpt lat="43.53632" lon="6.59156">
        <ele>255</ele>
        <time>2025-10-28T08:42:47.000Z</time>
      </trkpt>
      <trkpt lat="43.53632" lon="6.59158">
        <ele>255.3</ele>
        <time>2025-10-28T08:42:48.000Z</time>
      </trkpt>
      <trkpt lat="43.53631" lon="6.59161">
        <ele>255.6</ele>
        <time>2025-10-28T08:42:49.000Z</time>
      </trkpt>
      <trkpt lat="43.5363" lon="6.59164">
        <ele>256.1</ele>
        <time>2025-10-28T08:42:50.000Z</time>
      </trkpt>
      <trkpt lat="43.53629" lon="6.59165">
        <ele>256.4</ele>
        <time>2025-10-28T08:42:51.000Z</time>
      </trkpt>
      <trkpt lat="43.53628" lon="6.59168">
        <ele>256.8</ele>
        <time>2025-10-28T08:42:52.000Z</time>
      </trkpt>
      <trkpt lat="43.53627" lon="6.59171">
        <ele>257.2</ele>
        <time>2025-10-28T08:42:53.000Z</time>
      </trkpt>
      <trkpt lat="43.53626" lon="6.59173">
        <ele>257.5</ele>
        <time>2025-10-28T08:42:54.000Z</time>
      </trkpt>
      <trkpt lat="43.53624" lon="6.59176">
        <ele>257.9</ele>
        <time>2025-10-28T08:42:55.000Z</time>
      </trkpt>
      <trkpt lat="43.53624" lon="6.59178">
        <ele>258.2</ele>
        <time>2025-10-28T08:42:56.000Z</time>
      </trkpt>
      <trkpt lat="43.53622" lon="6.59181">
        <ele>258.6</ele>
        <time>2025-10-28T08:42:57.000Z</time>
      </trkpt>
      <trkpt lat="43.53621" lon="6.59184">
        <ele>259</ele>
        <time>2025-10-28T08:42:58.000Z</time>
      </trkpt>
      <trkpt lat="43.5362" lon="6.59187">
        <ele>259.4</ele>
        <time>2025-10-28T08:42:59.000Z</time>
      </trkpt>
      <trkpt lat="43.53618" lon="6.59189">
        <ele>259.8</ele>
        <time>2025-10-28T08:43:00.000Z</time>
      </trkpt>
      <trkpt lat="43.53617" lon="6.59191">
        <ele>260.1</ele>
        <time>2025-10-28T08:43:01.000Z</time>
      </trkpt>
      <trkpt lat="43.53615" lon="6.59194">
        <ele>260.5</ele>
        <time>2025-10-28T08:43:02.000Z</time>
      </trkpt>
      <trkpt lat="43.53613" lon="6.59196">
        <ele>260.8</ele>
        <time>2025-10-28T08:43:03.000Z</time>
      </trkpt>
      <trkpt lat="43.53611" lon="6.59199">
        <ele>261.2</ele>
        <time>2025-10-28T08:43:04.000Z</time>
      </trkpt>
      <trkpt lat="43.53609" lon="6.592">
        <ele>261.4</ele>
        <time>2025-10-28T08:43:05.000Z</time>
      </trkpt>
      <trkpt lat="43.53607" lon="6.59203">
        <ele>261.8</ele>
        <time>2025-10-28T08:43:06.000Z</time>
      </trkpt>
      <trkpt lat="43.53606" lon="6.59204">
        <ele>262</ele>
        <time>2025-10-28T08:43:07.000Z</time>
      </trkpt>
      <trkpt lat="43.53603" lon="6.59206">
        <ele>262.4</ele>
        <time>2025-10-28T08:43:08.000Z</time>
      </trkpt>
      <trkpt lat="43.53601" lon="6.59207">
        <ele>262.7</ele>
        <time>2025-10-28T08:43:09.000Z</time>
      </trkpt>
      <trkpt lat="43.53598" lon="6.59208">
        <ele>263</ele>
        <time>2025-10-28T08:43:10.000Z</time>
      </trkpt>
      <trkpt lat="43.53596" lon="6.59209">
        <ele>263.3</ele>
        <time>2025-10-28T08:43:11.000Z</time>
      </trkpt>
      <trkpt lat="43.53593" lon="6.59209">
        <ele>263.7</ele>
        <time>2025-10-28T08:43:12.000Z</time>
      </trkpt>
      <trkpt lat="43.5359" lon="6.59209">
        <ele>264.1</ele>
        <time>2025-10-28T08:43:13.000Z</time>
      </trkpt>
      <trkpt lat="43.53588" lon="6.59209">
        <ele>264.4</ele>
        <time>2025-10-28T08:43:14.000Z</time>
      </trkpt>
      <trkpt lat="43.53585" lon="6.59209">
        <ele>264.7</ele>
        <time>2025-10-28T08:43:15.000Z</time>
      </trkpt>
      <trkpt lat="43.53583" lon="6.59209">
        <ele>265.1</ele>
        <time>2025-10-28T08:43:16.000Z</time>
      </trkpt>
      <trkpt lat="43.5358" lon="6.5921">
        <ele>265.4</ele>
        <time>2025-10-28T08:43:17.000Z</time>
      </trkpt>
      <trkpt lat="43.53578" lon="6.59209">
        <ele>265.7</ele>
        <time>2025-10-28T08:43:18.000Z</time>
      </trkpt>
      <trkpt lat="43.53575" lon="6.5921">
        <ele>266.1</ele>
        <time>2025-10-28T08:43:19.000Z</time>
      </trkpt>
      <trkpt lat="43.53572" lon="6.5921">
        <ele>266.5</ele>
        <time>2025-10-28T08:43:20.000Z</time>
      </trkpt>
      <trkpt lat="43.5357" lon="6.5921">
        <ele>266.9</ele>
        <time>2025-10-28T08:43:21.000Z</time>
      </trkpt>
      <trkpt lat="43.53568" lon="6.59211">
        <ele>267.2</ele>
        <time>2025-10-28T08:43:22.000Z</time>
      </trkpt>
      <trkpt lat="43.53566" lon="6.59212">
        <ele>267.5</ele>
        <time>2025-10-28T08:43:23.000Z</time>
      </trkpt>
      <trkpt lat="43.53564" lon="6.59213">
        <ele>267.8</ele>
        <time>2025-10-28T08:43:24.000Z</time>
      </trkpt>
      <trkpt lat="43.53563" lon="6.59215">
        <ele>268</ele>
        <time>2025-10-28T08:43:25.000Z</time>
      </trkpt>
      <trkpt lat="43.53563" lon="6.59216">
        <ele>268.1</ele>
        <time>2025-10-28T08:43:26.000Z</time>
      </trkpt>
      <trkpt lat="43.53563" lon="6.59216">
        <ele>268.1</ele>
        <time>2025-10-28T08:43:27.000Z</time>
      </trkpt>
      <trkpt lat="43.53563" lon="6.59216">
        <ele>268.2</ele>
        <time>2025-10-28T08:43:28.000Z</time>
      </trkpt>
      <trkpt lat="43.53563" lon="6.59216">
        <ele>268.2</ele>
        <time>2025-10-28T08:43:29.000Z</time>
      </trkpt>
      <trkpt lat="43.53563" lon="6.59216">
        <ele>268.2</ele>
        <time>2025-10-28T08:43:30.000Z</time>
      </trkpt>
      <trkpt lat="43.53563" lon="6.59216">
        <ele>268.2</ele>
        <time>2025-10-28T08:43:31.000Z</time>
      </trkpt>
      <trkpt lat="43.53563" lon="6.59217">
        <ele>268.3</ele>
        <time>2025-10-28T08:43:32.000Z</time>
      </trkpt>
      <trkpt lat="43.53563" lon="6.59217">
        <ele>268.3</ele>
        <time>2025-10-28T08:43:33.000Z</time>
      </trkpt>
      <trkpt lat="43.53563" lon="6.59218">
        <ele>268.4</ele>
        <time>2025-10-28T08:43:34.000Z</time>
      </trkpt>
      <trkpt lat="43.53564" lon="6.59218">
        <ele>268.5</ele>
        <time>2025-10-28T08:43:35.000Z</time>
      </trkpt>
      <trkpt lat="43.53564" lon="6.59219">
        <ele>268.6</ele>
        <time>2025-10-28T08:43:36.000Z</time>
      </trkpt>
      <trkpt lat="43.53564" lon="6.5922">
        <ele>268.7</ele>
        <time>2025-10-28T08:43:37.000Z</time>
      </trkpt>
      <trkpt lat="43.53565" lon="6.59222">
        <ele>268.9</ele>
        <time>2025-10-28T08:43:38.000Z</time>
      </trkpt>
      <trkpt lat="43.53567" lon="6.59224">
        <ele>269.2</ele>
        <time>2025-10-28T08:43:39.000Z</time>
      </trkpt>
      <trkpt lat="43.53568" lon="6.59226">
        <ele>269.5</ele>
        <time>2025-10-28T08:43:40.000Z</time>
      </trkpt>
      <trkpt lat="43.5357" lon="6.59227">
        <ele>269.8</ele>
        <time>2025-10-28T08:43:41.000Z</time>
      </trkpt>
      <trkpt lat="43.53572" lon="6.59229">
        <ele>270.1</ele>
        <time>2025-10-28T08:43:42.000Z</time>
      </trkpt>
      <trkpt lat="43.53574" lon="6.59231">
        <ele>270.4</ele>
        <time>2025-10-28T08:43:43.000Z</time>
      </trkpt>
      <trkpt lat="43.53576" lon="6.59233">
        <ele>270.8</ele>
        <time>2025-10-28T08:43:44.000Z</time>
      </trkpt>
      <trkpt lat="43.53578" lon="6.59235">
        <ele>271.1</ele>
        <time>2025-10-28T08:43:45.000Z</time>
      </trkpt>
      <trkpt lat="43.53579" lon="6.59238">
        <ele>271.5</ele>
        <time>2025-10-28T08:43:46.000Z</time>
      </trkpt>
      <trkpt lat="43.53582" lon="6.5924">
        <ele>271.8</ele>
        <time>2025-10-28T08:43:47.000Z</time>
      </trkpt>
      <trkpt lat="43.53584" lon="6.59241">
        <ele>272.2</ele>
        <time>2025-10-28T08:43:48.000Z</time>
      </trkpt>
      <trkpt lat="43.53586" lon="6.59243">
        <ele>272.6</ele>
        <time>2025-10-28T08:43:49.000Z</time>
      </trkpt>
      <trkpt lat="43.53588" lon="6.59244">
        <ele>272.9</ele>
        <time>2025-10-28T08:43:50.000Z</time>
      </trkpt>
      <trkpt lat="43.5359" lon="6.59246">
        <ele>273.2</ele>
        <time>2025-10-28T08:43:51.000Z</time>
      </trkpt>
      <trkpt lat="43.53591" lon="6.59247">
        <ele>273.4</ele>
        <time>2025-10-28T08:43:52.000Z</time>
      </trkpt>
      <trkpt lat="43.53592" lon="6.59249">
        <ele>273.7</ele>
        <time>2025-10-28T08:43:53.000Z</time>
      </trkpt>
      <trkpt lat="43.53593" lon="6.5925">
        <ele>273.9</ele>
        <time>2025-10-28T08:43:54.000Z</time>
      </trkpt>
      <trkpt lat="43.53594" lon="6.59252">
        <ele>274.1</ele>
        <time>2025-10-28T08:43:55.000Z</time>
      </trkpt>
      <trkpt lat="43.53596" lon="6.59253">
        <ele>274.5</ele>
        <time>2025-10-28T08:43:56.000Z</time>
      </trkpt>
      <trkpt lat="43.53597" lon="6.59255">
        <ele>274.8</ele>
        <time>2025-10-28T08:43:57.000Z</time>
      </trkpt>
      <trkpt lat="43.53599" lon="6.59257">
        <ele>275.2</ele>
        <time>2025-10-28T08:43:58.000Z</time>
      </trkpt>
      <trkpt lat="43.536" lon="6.5926">
        <ele>275.5</ele>
        <time>2025-10-28T08:43:59.000Z</time>
      </trkpt>
      <trkpt lat="43.53601" lon="6.59262">
        <ele>275.9</ele>
        <time>2025-10-28T08:44:00.000Z</time>
      </trkpt>
      <trkpt lat="43.53601" lon="6.59265">
        <ele>276.2</ele>
        <time>2025-10-28T08:44:01.000Z</time>
      </trkpt>
      <trkpt lat="43.53602" lon="6.59266">
        <ele>276.3</ele>
        <time>2025-10-28T08:44:02.000Z</time>
      </trkpt>
      <trkpt lat="43.53602" lon="6.59267">
        <ele>276.3</ele>
        <time>2025-10-28T08:44:03.000Z</time>
      </trkpt>
      <trkpt lat="43.53602" lon="6.59267">
        <ele>276.3</ele>
        <time>2025-10-28T08:44:04.000Z</time>
      </trkpt>
      <trkpt lat="43.53602" lon="6.59267">
        <ele>276.4</ele>
        <time>2025-10-28T08:44:05.000Z</time>
      </trkpt>
      <trkpt lat="43.53602" lon="6.59268">
        <ele>276.4</ele>
        <time>2025-10-28T08:44:06.000Z</time>
      </trkpt>
      <trkpt lat="43.53602" lon="6.59267">
        <ele>276.4</ele>
        <time>2025-10-28T08:44:07.000Z</time>
      </trkpt>
      <trkpt lat="43.53602" lon="6.59267">
        <ele>276.4</ele>
        <time>2025-10-28T08:44:08.000Z</time>
      </trkpt>
      <trkpt lat="43.53602" lon="6.59267">
        <ele>276.4</ele>
        <time>2025-10-28T08:44:09.000Z</time>
      </trkpt>
      <trkpt lat="43.53602" lon="6.59267">
        <ele>276.4</ele>
        <time>2025-10-28T08:44:10.000Z</time>
      </trkpt>
      <trkpt lat="43.53602" lon="6.59267">
        <ele>276.4</ele>
        <time>2025-10-28T08:44:11.000Z</time>
      </trkpt>
      <trkpt lat="43.53602" lon="6.59267">
        <ele>276.4</ele>
        <time>2025-10-28T08:44:12.000Z</time>
      </trkpt>
      <trkpt lat="43.53602" lon="6.59267">
        <ele>276.5</ele>
        <time>2025-10-28T08:44:13.000Z</time>
      </trkpt>
      <trkpt lat="43.53602" lon="6.59267">
        <ele>276.5</ele>
        <time>2025-10-28T08:44:14.000Z</time>
      </trkpt>
      <trkpt lat="43.53602" lon="6.59267">
        <ele>276.5</ele>
        <time>2025-10-28T08:44:15.000Z</time>
      </trkpt>
      <trkpt lat="43.53602" lon="6.59267">
        <ele>276.5</ele>
        <time>2025-10-28T08:44:16.000Z</time>
      </trkpt>
      <trkpt lat="43.53602" lon="6.59267">
        <ele>276.5</ele>
        <time>2025-10-28T08:44:17.000Z</time>
      </trkpt>
      <trkpt lat="43.53602" lon="6.59267">
        <ele>276.5</ele>
        <time>2025-10-28T08:44:18.000Z</time>
      </trkpt>
      <trkpt lat="43.53602" lon="6.59267">
        <ele>276.5</ele>
        <time>2025-10-28T08:44:19.000Z</time>
      </trkpt>
      <trkpt lat="43.53602" lon="6.59267">
        <ele>276.5</ele>
        <time>2025-10-28T08:44:20.000Z</time>
      </trkpt>
      <trkpt lat="43.53602" lon="6.59267">
        <ele>276.5</ele>
        <time>2025-10-28T08:44:21.000Z</time>
      </trkpt>
      <trkpt lat="43.53602" lon="6.59267">
        <ele>276.5</ele>
        <time>2025-10-28T08:44:22.000Z</time>
      </trkpt>
      <trkpt lat="43.53602" lon="6.59267">
        <ele>276.5</ele>
        <time>2025-10-28T08:44:23.000Z</time>
      </trkpt>
      <trkpt lat="43.53602" lon="6.59267">
        <ele>276.5</ele>
        <time>2025-10-28T08:44:24.000Z</time>
      </trkpt>
      <trkpt lat="43.53602" lon="6.59267">
        <ele>276.5</ele>
        <time>2025-10-28T08:44:25.000Z</time>
      </trkpt>
      <trkpt lat="43.53602" lon="6.59267">
        <ele>276.5</ele>
        <time>2025-10-28T08:44:26.000Z</time>
      </trkpt>
      <trkpt lat="43.53602" lon="6.59267">
        <ele>276.5</ele>
        <time>2025-10-28T08:44:27.000Z</time>
      </trkpt>
      <trkpt lat="43.53602" lon="6.59267">
        <ele>276.5</ele>
        <time>2025-10-28T08:44:28.000Z</time>
      </trkpt>
      <trkpt lat="43.53602" lon="6.59267">
        <ele>276.5</ele>
        <time>2025-10-28T08:44:29.000Z</time>
      </trkpt>
      <trkpt lat="43.53602" lon="6.59267">
        <ele>276.5</ele>
        <time>2025-10-28T08:44:30.000Z</time>
      </trkpt>
      <trkpt lat="43.53602" lon="6.59267">
        <ele>276.5</ele>
        <time>2025-10-28T08:44:31.000Z</time>
      </trkpt>
      <trkpt lat="43.53602" lon="6.59267">
        <ele>276.5</ele>
        <time>2025-10-28T08:44:32.000Z</time>
      </trkpt>
      <trkpt lat="43.53602" lon="6.59267">
        <ele>276.5</ele>
        <time>2025-10-28T08:44:33.000Z</time>
      </trkpt>
      <trkpt lat="43.53602" lon="6.59266">
        <ele>276.5</ele>
        <time>2025-10-28T08:44:34.000Z</time>
      </trkpt>
      <trkpt lat="43.53602" lon="6.59266">
        <ele>276.5</ele>
        <time>2025-10-28T08:44:35.000Z</time>
      </trkpt>
      <trkpt lat="43.53603" lon="6.59266">
        <ele>276.5</ele>
        <time>2025-10-28T08:44:36.000Z</time>
      </trkpt>
      <trkpt lat="43.53603" lon="6.59266">
        <ele>276.5</ele>
        <time>2025-10-28T08:44:37.000Z</time>
      </trkpt>
      <trkpt lat="43.53603" lon="6.59266">
        <ele>276.5</ele>
        <time>2025-10-28T08:44:38.000Z</time>
      </trkpt>
      <trkpt lat="43.53603" lon="6.59266">
        <ele>276.6</ele>
        <time>2025-10-28T08:44:39.000Z</time>
      </trkpt>
      <trkpt lat="43.53603" lon="6.59266">
        <ele>276.6</ele>
        <time>2025-10-28T08:44:40.000Z</time>
      </trkpt>
      <trkpt lat="43.53603" lon="6.59266">
        <ele>276.6</ele>
        <time>2025-10-28T08:44:41.000Z</time>
      </trkpt>
      <trkpt lat="43.53603" lon="6.59265">
        <ele>276.6</ele>
        <time>2025-10-28T08:44:42.000Z</time>
      </trkpt>
      <trkpt lat="43.53603" lon="6.59265">
        <ele>276.6</ele>
        <time>2025-10-28T08:44:43.000Z</time>
      </trkpt>
      <trkpt lat="43.53603" lon="6.59265">
        <ele>276.6</ele>
        <time>2025-10-28T08:44:44.000Z</time>
      </trkpt>
      <trkpt lat="43.53603" lon="6.59265">
        <ele>276.6</ele>
        <time>2025-10-28T08:44:45.000Z</time>
      </trkpt>
      <trkpt lat="43.53603" lon="6.59265">
        <ele>276.6</ele>
        <time>2025-10-28T08:44:46.000Z</time>
      </trkpt>
      <trkpt lat="43.53603" lon="6.59265">
        <ele>276.6</ele>
        <time>2025-10-28T08:44:47.000Z</time>
      </trkpt>
      <trkpt lat="43.53603" lon="6.59265">
        <ele>276.6</ele>
        <time>2025-10-28T08:44:48.000Z</time>
      </trkpt>
      <trkpt lat="43.53603" lon="6.59265">
        <ele>276.6</ele>
        <time>2025-10-28T08:44:49.000Z</time>
      </trkpt>
      <trkpt lat="43.53603" lon="6.59265">
        <ele>276.6</ele>
        <time>2025-10-28T08:44:50.000Z</time>
      </trkpt>
      <trkpt lat="43.53603" lon="6.59265">
        <ele>276.6</ele>
        <time>2025-10-28T08:44:51.000Z</time>
      </trkpt>
      <trkpt lat="43.53603" lon="6.59265">
        <ele>276.6</ele>
        <time>2025-10-28T08:44:52.000Z</time>
      </trkpt>
      <trkpt lat="43.53603" lon="6.59265">
        <ele>276.6</ele>
        <time>2025-10-28T08:44:53.000Z</time>
      </trkpt>
      <trkpt lat="43.53603" lon="6.59265">
        <ele>276.6</ele>
        <time>2025-10-28T08:44:54.000Z</time>
      </trkpt>
      <trkpt lat="43.53603" lon="6.59265">
        <ele>276.6</ele>
        <time>2025-10-28T08:44:55.000Z</time>
      </trkpt>
      <trkpt lat="43.53603" lon="6.59265">
        <ele>276.6</ele>
        <time>2025-10-28T08:44:56.000Z</time>
      </trkpt>
      <trkpt lat="43.53603" lon="6.59265">
        <ele>276.6</ele>
        <time>2025-10-28T08:44:57.000Z</time>
      </trkpt>
      <trkpt lat="43.53603" lon="6.59265">
        <ele>276.6</ele>
        <time>2025-10-28T08:44:58.000Z</time>
      </trkpt>
      <trkpt lat="43.53603" lon="6.59265">
        <ele>276.6</ele>
        <time>2025-10-28T08:44:59.000Z</time>
      </trkpt>
      <trkpt lat="43.53603" lon="6.59265">
        <ele>276.6</ele>
        <time>2025-10-28T08:45:00.000Z</time>
      </trkpt>
      <trkpt lat="43.53603" lon="6.59265">
        <ele>276.6</ele>
        <time>2025-10-28T08:45:01.000Z</time>
      </trkpt>
      <trkpt lat="43.53603" lon="6.59265">
        <ele>276.6</ele>
        <time>2025-10-28T08:45:02.000Z</time>
      </trkpt>
      <trkpt lat="43.53603" lon="6.59265">
        <ele>276.7</ele>
        <time>2025-10-28T08:45:03.000Z</time>
      </trkpt>
      <trkpt lat="43.53603" lon="6.59265">
        <ele>276.7</ele>
        <time>2025-10-28T08:45:04.000Z</time>
      </trkpt>
      <trkpt lat="43.53602" lon="6.59265">
        <ele>276.7</ele>
        <time>2025-10-28T08:45:05.000Z</time>
      </trkpt>
      <trkpt lat="43.53602" lon="6.59265">
        <ele>276.7</ele>
        <time>2025-10-28T08:45:06.000Z</time>
      </trkpt>
      <trkpt lat="43.53602" lon="6.59265">
        <ele>276.7</ele>
        <time>2025-10-28T08:45:07.000Z</time>
      </trkpt>
      <trkpt lat="43.53602" lon="6.59265">
        <ele>276.7</ele>
        <time>2025-10-28T08:45:08.000Z</time>
      </trkpt>
      <trkpt lat="43.53602" lon="6.59265">
        <ele>276.7</ele>
        <time>2025-10-28T08:45:09.000Z</time>
      </trkpt>
      <trkpt lat="43.53602" lon="6.59265">
        <ele>276.7</ele>
        <time>2025-10-28T08:45:10.000Z</time>
      </trkpt>
      <trkpt lat="43.53602" lon="6.59265">
        <ele>276.7</ele>
        <time>2025-10-28T08:45:11.000Z</time>
      </trkpt>
      <trkpt lat="43.53602" lon="6.59265">
        <ele>276.7</ele>
        <time>2025-10-28T08:45:12.000Z</time>
      </trkpt>
      <trkpt lat="43.53602" lon="6.59265">
        <ele>276.7</ele>
        <time>2025-10-28T08:45:13.000Z</time>
      </trkpt>
      <trkpt lat="43.53602" lon="6.59265">
        <ele>276.7</ele>
        <time>2025-10-28T08:45:14.000Z</time>
      </trkpt>
      <trkpt lat="43.53602" lon="6.59265">
        <ele>276.7</ele>
        <time>2025-10-28T08:45:15.000Z</time>
      </trkpt>
      <trkpt lat="43.53602" lon="6.59266">
        <ele>276.7</ele>
        <time>2025-10-28T08:45:16.000Z</time>
      </trkpt>
      <trkpt lat="43.53602" lon="6.59266">
        <ele>276.7</ele>
        <time>2025-10-28T08:45:17.000Z</time>
      </trkpt>
      <trkpt lat="43.53602" lon="6.59266">
        <ele>276.7</ele>
        <time>2025-10-28T08:45:18.000Z</time>
      </trkpt>
      <trkpt lat="43.53602" lon="6.59266">
        <ele>276.7</ele>
        <time>2025-10-28T08:45:19.000Z</time>
      </trkpt>
      <trkpt lat="43.53602" lon="6.59266">
        <ele>276.7</ele>
        <time>2025-10-28T08:45:20.000Z</time>
      </trkpt>
      <trkpt lat="43.53602" lon="6.59266">
        <ele>276.7</ele>
        <time>2025-10-28T08:45:21.000Z</time>
      </trkpt>
      <trkpt lat="43.53602" lon="6.59266">
        <ele>276.7</ele>
        <time>2025-10-28T08:45:22.000Z</time>
      </trkpt>
      <trkpt lat="43.53602" lon="6.59266">
        <ele>276.7</ele>
        <time>2025-10-28T08:45:23.000Z</time>
      </trkpt>
      <trkpt lat="43.53602" lon="6.59266">
        <ele>276.7</ele>
        <time>2025-10-28T08:45:24.000Z</time>
      </trkpt>
      <trkpt lat="43.53602" lon="6.59266">
        <ele>276.7</ele>
        <time>2025-10-28T08:45:25.000Z</time>
      </trkpt>
      <trkpt lat="43.53602" lon="6.59266">
        <ele>276.7</ele>
        <time>2025-10-28T08:45:26.000Z</time>
      </trkpt>
      <trkpt lat="43.53602" lon="6.59266">
        <ele>276.7</ele>
        <time>2025-10-28T08:45:27.000Z</time>
      </trkpt>
      <trkpt lat="43.53602" lon="6.59266">
        <ele>276.7</ele>
        <time>2025-10-28T08:45:28.000Z</time>
      </trkpt>
      <trkpt lat="43.53602" lon="6.59266">
        <ele>276.8</ele>
        <time>2025-10-28T08:45:29.000Z</time>
      </trkpt>
      <trkpt lat="43.53602" lon="6.59266">
        <ele>276.8</ele>
        <time>2025-10-28T08:45:30.000Z</time>
      </trkpt>
      <trkpt lat="43.53602" lon="6.59266">
        <ele>276.8</ele>
        <time>2025-10-28T08:45:31.000Z</time>
      </trkpt>
      <trkpt lat="43.53602" lon="6.59266">
        <ele>276.8</ele>
        <time>2025-10-28T08:45:32.000Z</time>
      </trkpt>
      <trkpt lat="43.53602" lon="6.59266">
        <ele>276.8</ele>
        <time>2025-10-28T08:45:33.000Z</time>
      </trkpt>
      <trkpt lat="43.53602" lon="6.59266">
        <ele>276.8</ele>
        <time>2025-10-28T08:45:34.000Z</time>
      </trkpt>
      <trkpt lat="43.53602" lon="6.59266">
        <ele>276.8</ele>
        <time>2025-10-28T08:45:35.000Z</time>
      </trkpt>
      <trkpt lat="43.53602" lon="6.59266">
        <ele>276.8</ele>
        <time>2025-10-28T08:45:36.000Z</time>
      </trkpt>
      <trkpt lat="43.53602" lon="6.59266">
        <ele>276.8</ele>
        <time>2025-10-28T08:45:37.000Z</time>
      </trkpt>
      <trkpt lat="43.53602" lon="6.59266">
        <ele>276.8</ele>
        <time>2025-10-28T08:45:38.000Z</time>
      </trkpt>
      <trkpt lat="43.53602" lon="6.59266">
        <ele>276.8</ele>
        <time>2025-10-28T08:45:39.000Z</time>
      </trkpt>
      <trkpt lat="43.53602" lon="6.59266">
        <ele>276.8</ele>
        <time>2025-10-28T08:45:40.000Z</time>
      </trkpt>
      <trkpt lat="43.53602" lon="6.59266">
        <ele>276.8</ele>
        <time>2025-10-28T08:45:41.000Z</time>
      </trkpt>
      <trkpt lat="43.53602" lon="6.59266">
        <ele>276.8</ele>
        <time>2025-10-28T08:45:42.000Z</time>
      </trkpt>
      <trkpt lat="43.53602" lon="6.59266">
        <ele>276.8</ele>
        <time>2025-10-28T08:45:43.000Z</time>
      </trkpt>
      <trkpt lat="43.53602" lon="6.59266">
        <ele>276.8</ele>
        <time>2025-10-28T08:45:44.000Z</time>
      </trkpt>
      <trkpt lat="43.53602" lon="6.59266">
        <ele>276.8</ele>
        <time>2025-10-28T08:45:45.000Z</time>
      </trkpt>
      <trkpt lat="43.53602" lon="6.59266">
        <ele>276.8</ele>
        <time>2025-10-28T08:45:46.000Z</time>
      </trkpt>
      <trkpt lat="43.53602" lon="6.59266">
        <ele>276.8</ele>
        <time>2025-10-28T08:45:47.000Z</time>
      </trkpt>
      <trkpt lat="43.53604" lon="6.5927">
        <ele>277</ele>
        <time>2025-10-28T08:45:48.000Z</time>
      </trkpt>
      <trkpt lat="43.53605" lon="6.59273">
        <ele>277.3</ele>
        <time>2025-10-28T08:45:49.000Z</time>
      </trkpt>
      <trkpt lat="43.53607" lon="6.59276">
        <ele>277.4</ele>
        <time>2025-10-28T08:45:50.000Z</time>
      </trkpt>
      <trkpt lat="43.53609" lon="6.59279">
        <ele>277.6</ele>
        <time>2025-10-28T08:45:51.000Z</time>
      </trkpt>
      <trkpt lat="43.53611" lon="6.59281">
        <ele>277.7</ele>
        <time>2025-10-28T08:45:52.000Z</time>
      </trkpt>
      <trkpt lat="43.53613" lon="6.59282">
        <ele>277.8</ele>
        <time>2025-10-28T08:45:53.000Z</time>
      </trkpt>
      <trkpt lat="43.53615" lon="6.59282">
        <ele>277.9</ele>
        <time>2025-10-28T08:45:54.000Z</time>
      </trkpt>
      <trkpt lat="43.53616" lon="6.59283">
        <ele>277.9</ele>
        <time>2025-10-28T08:45:55.000Z</time>
      </trkpt>
      <trkpt lat="43.53617" lon="6.59283">
        <ele>278</ele>
        <time>2025-10-28T08:45:56.000Z</time>
      </trkpt>
      <trkpt lat="43.53617" lon="6.59283">
        <ele>278</ele>
        <time>2025-10-28T08:45:57.000Z</time>
      </trkpt>
      <trkpt lat="43.53618" lon="6.59283">
        <ele>278</ele>
        <time>2025-10-28T08:45:58.000Z</time>
      </trkpt>
      <trkpt lat="43.53619" lon="6.59282">
        <ele>278</ele>
        <time>2025-10-28T08:45:59.000Z</time>
      </trkpt>
      <trkpt lat="43.53619" lon="6.59282">
        <ele>278</ele>
        <time>2025-10-28T08:46:00.000Z</time>
      </trkpt>
      <trkpt lat="43.5362" lon="6.59282">
        <ele>278</ele>
        <time>2025-10-28T08:46:01.000Z</time>
      </trkpt>
      <trkpt lat="43.5362" lon="6.59282">
        <ele>278</ele>
        <time>2025-10-28T08:46:02.000Z</time>
      </trkpt>
      <trkpt lat="43.53621" lon="6.59281">
        <ele>278</ele>
        <time>2025-10-28T08:46:03.000Z</time>
      </trkpt>
      <trkpt lat="43.53621" lon="6.59281">
        <ele>278</ele>
        <time>2025-10-28T08:46:04.000Z</time>
      </trkpt>
      <trkpt lat="43.53622" lon="6.59281">
        <ele>278</ele>
        <time>2025-10-28T08:46:05.000Z</time>
      </trkpt>
      <trkpt lat="43.53622" lon="6.59281">
        <ele>278</ele>
        <time>2025-10-28T08:46:06.000Z</time>
      </trkpt>
      <trkpt lat="43.53623" lon="6.59281">
        <ele>278</ele>
        <time>2025-10-28T08:46:07.000Z</time>
      </trkpt>
      <trkpt lat="43.53623" lon="6.5928">
        <ele>278</ele>
        <time>2025-10-28T08:46:08.000Z</time>
      </trkpt>
      <trkpt lat="43.53624" lon="6.5928">
        <ele>278</ele>
        <time>2025-10-28T08:46:09.000Z</time>
      </trkpt>
      <trkpt lat="43.53624" lon="6.5928">
        <ele>278</ele>
        <time>2025-10-28T08:46:10.000Z</time>
      </trkpt>
      <trkpt lat="43.53625" lon="6.5928">
        <ele>278</ele>
        <time>2025-10-28T08:46:11.000Z</time>
      </trkpt>
      <trkpt lat="43.53625" lon="6.5928">
        <ele>278</ele>
        <time>2025-10-28T08:46:12.000Z</time>
      </trkpt>
      <trkpt lat="43.53626" lon="6.59279">
        <ele>278</ele>
        <time>2025-10-28T08:46:13.000Z</time>
      </trkpt>
      <trkpt lat="43.53626" lon="6.59279">
        <ele>278</ele>
        <time>2025-10-28T08:46:14.000Z</time>
      </trkpt>
      <trkpt lat="43.53627" lon="6.59279">
        <ele>278</ele>
        <time>2025-10-28T08:46:15.000Z</time>
      </trkpt>
      <trkpt lat="43.53627" lon="6.59279">
        <ele>278</ele>
        <time>2025-10-28T08:46:16.000Z</time>
      </trkpt>
      <trkpt lat="43.53628" lon="6.59278">
        <ele>278</ele>
        <time>2025-10-28T08:46:17.000Z</time>
      </trkpt>
      <trkpt lat="43.53628" lon="6.59278">
        <ele>278</ele>
        <time>2025-10-28T08:46:18.000Z</time>
      </trkpt>
      <trkpt lat="43.53629" lon="6.59278">
        <ele>277.9</ele>
        <time>2025-10-28T08:46:19.000Z</time>
      </trkpt>
      <trkpt lat="43.53629" lon="6.59278">
        <ele>277.9</ele>
        <time>2025-10-28T08:46:20.000Z</time>
      </trkpt>
      <trkpt lat="43.5363" lon="6.59278">
        <ele>277.9</ele>
        <time>2025-10-28T08:46:21.000Z</time>
      </trkpt>
      <trkpt lat="43.5363" lon="6.59277">
        <ele>277.9</ele>
        <time>2025-10-28T08:46:22.000Z</time>
      </trkpt>
      <trkpt lat="43.53631" lon="6.59277">
        <ele>277.9</ele>
        <time>2025-10-28T08:46:23.000Z</time>
      </trkpt>
      <trkpt lat="43.53631" lon="6.59277">
        <ele>277.9</ele>
        <time>2025-10-28T08:46:24.000Z</time>
      </trkpt>
      <trkpt lat="43.53632" lon="6.59277">
        <ele>277.9</ele>
        <time>2025-10-28T08:46:25.000Z</time>
      </trkpt>
      <trkpt lat="43.53632" lon="6.59276">
        <ele>277.9</ele>
        <time>2025-10-28T08:46:26.000Z</time>
      </trkpt>
      <trkpt lat="43.53633" lon="6.59276">
        <ele>277.8</ele>
        <time>2025-10-28T08:46:27.000Z</time>
      </trkpt>
      <trkpt lat="43.53633" lon="6.59276">
        <ele>277.8</ele>
        <time>2025-10-28T08:46:28.000Z</time>
      </trkpt>
      <trkpt lat="43.53634" lon="6.59276">
        <ele>277.8</ele>
        <time>2025-10-28T08:46:29.000Z</time>
      </trkpt>
      <trkpt lat="43.53634" lon="6.59276">
        <ele>277.8</ele>
        <time>2025-10-28T08:46:30.000Z</time>
      </trkpt>
      <trkpt lat="43.53635" lon="6.59275">
        <ele>277.8</ele>
        <time>2025-10-28T08:46:31.000Z</time>
      </trkpt>
      <trkpt lat="43.53635" lon="6.59275">
        <ele>277.8</ele>
        <time>2025-10-28T08:46:32.000Z</time>
      </trkpt>
      <trkpt lat="43.53636" lon="6.59275">
        <ele>277.8</ele>
        <time>2025-10-28T08:46:33.000Z</time>
      </trkpt>
      <trkpt lat="43.53636" lon="6.59275">
        <ele>277.8</ele>
        <time>2025-10-28T08:46:34.000Z</time>
      </trkpt>
      <trkpt lat="43.53637" lon="6.59275">
        <ele>277.7</ele>
        <time>2025-10-28T08:46:35.000Z</time>
      </trkpt>
      <trkpt lat="43.53637" lon="6.59274">
        <ele>277.7</ele>
        <time>2025-10-28T08:46:36.000Z</time>
      </trkpt>
      <trkpt lat="43.53638" lon="6.59274">
        <ele>277.7</ele>
        <time>2025-10-28T08:46:37.000Z</time>
      </trkpt>
      <trkpt lat="43.53638" lon="6.59274">
        <ele>277.7</ele>
        <time>2025-10-28T08:46:38.000Z</time>
      </trkpt>
      <trkpt lat="43.53639" lon="6.59274">
        <ele>277.7</ele>
        <time>2025-10-28T08:46:39.000Z</time>
      </trkpt>
      <trkpt lat="43.53639" lon="6.59273">
        <ele>277.7</ele>
        <time>2025-10-28T08:46:40.000Z</time>
      </trkpt>
      <trkpt lat="43.5364" lon="6.59273">
        <ele>277.7</ele>
        <time>2025-10-28T08:46:41.000Z</time>
      </trkpt>
      <trkpt lat="43.5364" lon="6.59273">
        <ele>277.7</ele>
        <time>2025-10-28T08:46:42.000Z</time>
      </trkpt>
      <trkpt lat="43.53644" lon="6.59272">
        <ele>277.6</ele>
        <time>2025-10-28T08:46:43.000Z</time>
      </trkpt>
      <trkpt lat="43.53648" lon="6.5927">
        <ele>277.6</ele>
        <time>2025-10-28T08:46:44.000Z</time>
      </trkpt>
      <trkpt lat="43.53651" lon="6.5927">
        <ele>277.6</ele>
        <time>2025-10-28T08:46:45.000Z</time>
      </trkpt>
      <trkpt lat="43.53655" lon="6.59269">
        <ele>277.7</ele>
        <time>2025-10-28T08:46:46.000Z</time>
      </trkpt>
      <trkpt lat="43.53658" lon="6.59268">
        <ele>277.7</ele>
        <time>2025-10-28T08:46:47.000Z</time>
      </trkpt>
      <trkpt lat="43.53661" lon="6.59267">
        <ele>277.8</ele>
        <time>2025-10-28T08:46:48.000Z</time>
      </trkpt>
      <trkpt lat="43.53665" lon="6.59266">
        <ele>277.9</ele>
        <time>2025-10-28T08:46:49.000Z</time>
      </trkpt>
      <trkpt lat="43.53667" lon="6.59265">
        <ele>277.9</ele>
        <time>2025-10-28T08:46:50.000Z</time>
      </trkpt>
      <trkpt lat="43.53671" lon="6.59264">
        <ele>278</ele>
        <time>2025-10-28T08:46:51.000Z</time>
      </trkpt>
      <trkpt lat="43.53674" lon="6.59262">
        <ele>278</ele>
        <time>2025-10-28T08:46:52.000Z</time>
      </trkpt>
      <trkpt lat="43.53677" lon="6.5926">
        <ele>278</ele>
        <time>2025-10-28T08:46:53.000Z</time>
      </trkpt>
      <trkpt lat="43.5368" lon="6.59258">
        <ele>277.9</ele>
        <time>2025-10-28T08:46:54.000Z</time>
      </trkpt>
      <trkpt lat="43.53684" lon="6.59256">
        <ele>277.8</ele>
        <time>2025-10-28T08:46:55.000Z</time>
      </trkpt>
      <trkpt lat="43.53687" lon="6.59253">
        <ele>277.7</ele>
        <time>2025-10-28T08:46:56.000Z</time>
      </trkpt>
      <trkpt lat="43.5369" lon="6.5925">
        <ele>277.6</ele>
        <time>2025-10-28T08:46:57.000Z</time>
      </trkpt>
      <trkpt lat="43.53693" lon="6.59247">
        <ele>277.4</ele>
        <time>2025-10-28T08:46:58.000Z</time>
      </trkpt>
      <trkpt lat="43.53696" lon="6.59243">
        <ele>277.1</ele>
        <time>2025-10-28T08:46:59.000Z</time>
      </trkpt>
      <trkpt lat="43.53698" lon="6.5924">
        <ele>276.9</ele>
        <time>2025-10-28T08:47:00.000Z</time>
      </trkpt>
      <trkpt lat="43.537" lon="6.59238">
        <ele>276.7</ele>
        <time>2025-10-28T08:47:01.000Z</time>
      </trkpt>
      <trkpt lat="43.53702" lon="6.59235">
        <ele>276.4</ele>
        <time>2025-10-28T08:47:02.000Z</time>
      </trkpt>
      <trkpt lat="43.53704" lon="6.59233">
        <ele>276.2</ele>
        <time>2025-10-28T08:47:03.000Z</time>
      </trkpt>
      <trkpt lat="43.53706" lon="6.5923">
        <ele>275.9</ele>
        <time>2025-10-28T08:47:04.000Z</time>
      </trkpt>
      <trkpt lat="43.53708" lon="6.59228">
        <ele>275.6</ele>
        <time>2025-10-28T08:47:05.000Z</time>
      </trkpt>
      <trkpt lat="43.5371" lon="6.59225">
        <ele>275.4</ele>
        <time>2025-10-28T08:47:06.000Z</time>
      </trkpt>
      <trkpt lat="43.53712" lon="6.59222">
        <ele>275.1</ele>
        <time>2025-10-28T08:47:07.000Z</time>
      </trkpt>
      <trkpt lat="43.53714" lon="6.59218">
        <ele>274.8</ele>
        <time>2025-10-28T08:47:08.000Z</time>
      </trkpt>
      <trkpt lat="43.53716" lon="6.59215">
        <ele>274.6</ele>
        <time>2025-10-28T08:47:09.000Z</time>
      </trkpt>
      <trkpt lat="43.53719" lon="6.59212">
        <ele>274.3</ele>
        <time>2025-10-28T08:47:10.000Z</time>
      </trkpt>
      <trkpt lat="43.53722" lon="6.59209">
        <ele>274.1</ele>
        <time>2025-10-28T08:47:11.000Z</time>
      </trkpt>
      <trkpt lat="43.53725" lon="6.59208">
        <ele>274</ele>
        <time>2025-10-28T08:47:12.000Z</time>
      </trkpt>
      <trkpt lat="43.53728" lon="6.59208">
        <ele>273.9</ele>
        <time>2025-10-28T08:47:13.000Z</time>
      </trkpt>
      <trkpt lat="43.53731" lon="6.59208">
        <ele>273.7</ele>
        <time>2025-10-28T08:47:14.000Z</time>
      </trkpt>
      <trkpt lat="43.53735" lon="6.59208">
        <ele>273.7</ele>
        <time>2025-10-28T08:47:15.000Z</time>
      </trkpt>
      <trkpt lat="43.53738" lon="6.59208">
        <ele>273.6</ele>
        <time>2025-10-28T08:47:16.000Z</time>
      </trkpt>
      <trkpt lat="43.53742" lon="6.59207">
        <ele>273.6</ele>
        <time>2025-10-28T08:47:17.000Z</time>
      </trkpt>
      <trkpt lat="43.53746" lon="6.59205">
        <ele>273.7</ele>
        <time>2025-10-28T08:47:18.000Z</time>
      </trkpt>
      <trkpt lat="43.53749" lon="6.59203">
        <ele>273.7</ele>
        <time>2025-10-28T08:47:19.000Z</time>
      </trkpt>
      <trkpt lat="43.53753" lon="6.59201">
        <ele>273.9</ele>
        <time>2025-10-28T08:47:20.000Z</time>
      </trkpt>
      <trkpt lat="43.53756" lon="6.59199">
        <ele>274.1</ele>
        <time>2025-10-28T08:47:21.000Z</time>
      </trkpt>
      <trkpt lat="43.5376" lon="6.59197">
        <ele>274.3</ele>
        <time>2025-10-28T08:47:22.000Z</time>
      </trkpt>
      <trkpt lat="43.53762" lon="6.59196">
        <ele>274.5</ele>
        <time>2025-10-28T08:47:23.000Z</time>
      </trkpt>
      <trkpt lat="43.53765" lon="6.59196">
        <ele>274.7</ele>
        <time>2025-10-28T08:47:24.000Z</time>
      </trkpt>
      <trkpt lat="43.53768" lon="6.59196">
        <ele>275</ele>
        <time>2025-10-28T08:47:25.000Z</time>
      </trkpt>
      <trkpt lat="43.53771" lon="6.59196">
        <ele>275.3</ele>
        <time>2025-10-28T08:47:26.000Z</time>
      </trkpt>
      <trkpt lat="43.53774" lon="6.59196">
        <ele>275.7</ele>
        <time>2025-10-28T08:47:27.000Z</time>
      </trkpt>
      <trkpt lat="43.53778" lon="6.59196">
        <ele>276</ele>
        <time>2025-10-28T08:47:28.000Z</time>
      </trkpt>
      <trkpt lat="43.53781" lon="6.59196">
        <ele>276.4</ele>
        <time>2025-10-28T08:47:29.000Z</time>
      </trkpt>
      <trkpt lat="43.53784" lon="6.59196">
        <ele>276.8</ele>
        <time>2025-10-28T08:47:30.000Z</time>
      </trkpt>
      <trkpt lat="43.53787" lon="6.59196">
        <ele>277.1</ele>
        <time>2025-10-28T08:47:31.000Z</time>
      </trkpt>
      <trkpt lat="43.53791" lon="6.59196">
        <ele>277.4</ele>
        <time>2025-10-28T08:47:32.000Z</time>
      </trkpt>
      <trkpt lat="43.53794" lon="6.59197">
        <ele>277.6</ele>
        <time>2025-10-28T08:47:33.000Z</time>
      </trkpt>
      <trkpt lat="43.53796" lon="6.59197">
        <ele>277.9</ele>
        <time>2025-10-28T08:47:34.000Z</time>
      </trkpt>
      <trkpt lat="43.53799" lon="6.59197">
        <ele>278.1</ele>
        <time>2025-10-28T08:47:35.000Z</time>
      </trkpt>
      <trkpt lat="43.53802" lon="6.59197">
        <ele>278.3</ele>
        <time>2025-10-28T08:47:36.000Z</time>
      </trkpt>
      <trkpt lat="43.53804" lon="6.59197">
        <ele>278.5</ele>
        <time>2025-10-28T08:47:37.000Z</time>
      </trkpt>
      <trkpt lat="43.53807" lon="6.59197">
        <ele>278.8</ele>
        <time>2025-10-28T08:47:38.000Z</time>
      </trkpt>
      <trkpt lat="43.5381" lon="6.59198">
        <ele>279</ele>
        <time>2025-10-28T08:47:39.000Z</time>
      </trkpt>
      <trkpt lat="43.53813" lon="6.59198">
        <ele>279.3</ele>
        <time>2025-10-28T08:47:40.000Z</time>
      </trkpt>
      <trkpt lat="43.53816" lon="6.59198">
        <ele>279.6</ele>
        <time>2025-10-28T08:47:41.000Z</time>
      </trkpt>
      <trkpt lat="43.53818" lon="6.59199">
        <ele>279.9</ele>
        <time>2025-10-28T08:47:42.000Z</time>
      </trkpt>
      <trkpt lat="43.5382" lon="6.59199">
        <ele>280.2</ele>
        <time>2025-10-28T08:47:43.000Z</time>
      </trkpt>
      <trkpt lat="43.53822" lon="6.592">
        <ele>280.4</ele>
        <time>2025-10-28T08:47:44.000Z</time>
      </trkpt>
      <trkpt lat="43.53824" lon="6.592">
        <ele>280.7</ele>
        <time>2025-10-28T08:47:45.000Z</time>
      </trkpt>
      <trkpt lat="43.53827" lon="6.59201">
        <ele>280.9</ele>
        <time>2025-10-28T08:47:46.000Z</time>
      </trkpt>
      <trkpt lat="43.53829" lon="6.59201">
        <ele>281.2</ele>
        <time>2025-10-28T08:47:47.000Z</time>
      </trkpt>
      <trkpt lat="43.53831" lon="6.59201">
        <ele>281.4</ele>
        <time>2025-10-28T08:47:48.000Z</time>
      </trkpt>
      <trkpt lat="43.53833" lon="6.59201">
        <ele>281.6</ele>
        <time>2025-10-28T08:47:49.000Z</time>
      </trkpt>
      <trkpt lat="43.53835" lon="6.59201">
        <ele>281.9</ele>
        <time>2025-10-28T08:47:50.000Z</time>
      </trkpt>
      <trkpt lat="43.53838" lon="6.59202">
        <ele>282.1</ele>
        <time>2025-10-28T08:47:51.000Z</time>
      </trkpt>
      <trkpt lat="43.5384" lon="6.59202">
        <ele>282.3</ele>
        <time>2025-10-28T08:47:52.000Z</time>
      </trkpt>
      <trkpt lat="43.53842" lon="6.59202">
        <ele>282.5</ele>
        <time>2025-10-28T08:47:53.000Z</time>
      </trkpt>
      <trkpt lat="43.53845" lon="6.59203">
        <ele>282.8</ele>
        <time>2025-10-28T08:47:54.000Z</time>
      </trkpt>
      <trkpt lat="43.53847" lon="6.59203">
        <ele>283</ele>
        <time>2025-10-28T08:47:55.000Z</time>
      </trkpt>
      <trkpt lat="43.5385" lon="6.59204">
        <ele>283.2</ele>
        <time>2025-10-28T08:47:56.000Z</time>
      </trkpt>
      <trkpt lat="43.53852" lon="6.59204">
        <ele>283.4</ele>
        <time>2025-10-28T08:47:57.000Z</time>
      </trkpt>
      <trkpt lat="43.53854" lon="6.59205">
        <ele>283.6</ele>
        <time>2025-10-28T08:47:58.000Z</time>
      </trkpt>
      <trkpt lat="43.53856" lon="6.59206">
        <ele>283.8</ele>
        <time>2025-10-28T08:47:59.000Z</time>
      </trkpt>
      <trkpt lat="43.53859" lon="6.59207">
        <ele>284</ele>
        <time>2025-10-28T08:48:00.000Z</time>
      </trkpt>
      <trkpt lat="43.53861" lon="6.59207">
        <ele>284.2</ele>
        <time>2025-10-28T08:48:01.000Z</time>
      </trkpt>
      <trkpt lat="43.53863" lon="6.59208">
        <ele>284.4</ele>
        <time>2025-10-28T08:48:02.000Z</time>
      </trkpt>
      <trkpt lat="43.53866" lon="6.59208">
        <ele>284.6</ele>
        <time>2025-10-28T08:48:03.000Z</time>
      </trkpt>
      <trkpt lat="43.53868" lon="6.59209">
        <ele>284.8</ele>
        <time>2025-10-28T08:48:04.000Z</time>
      </trkpt>
      <trkpt lat="43.5387" lon="6.5921">
        <ele>285</ele>
        <time>2025-10-28T08:48:05.000Z</time>
      </trkpt>
      <trkpt lat="43.53873" lon="6.5921">
        <ele>285.2</ele>
        <time>2025-10-28T08:48:06.000Z</time>
      </trkpt>
      <trkpt lat="43.53875" lon="6.59211">
        <ele>285.3</ele>
        <time>2025-10-28T08:48:07.000Z</time>
      </trkpt>
      <trkpt lat="43.53877" lon="6.59211">
        <ele>285.5</ele>
        <time>2025-10-28T08:48:08.000Z</time>
      </trkpt>
      <trkpt lat="43.5388" lon="6.59212">
        <ele>285.7</ele>
        <time>2025-10-28T08:48:09.000Z</time>
      </trkpt>
      <trkpt lat="43.53882" lon="6.59213">
        <ele>285.9</ele>
        <time>2025-10-28T08:48:10.000Z</time>
      </trkpt>
      <trkpt lat="43.53885" lon="6.59214">
        <ele>286.1</ele>
        <time>2025-10-28T08:48:11.000Z</time>
      </trkpt>
      <trkpt lat="43.53887" lon="6.59215">
        <ele>286.3</ele>
        <time>2025-10-28T08:48:12.000Z</time>
      </trkpt>
      <trkpt lat="43.53889" lon="6.59216">
        <ele>286.5</ele>
        <time>2025-10-28T08:48:13.000Z</time>
      </trkpt>
      <trkpt lat="43.53892" lon="6.59216">
        <ele>286.7</ele>
        <time>2025-10-28T08:48:14.000Z</time>
      </trkpt>
      <trkpt lat="43.53894" lon="6.59217">
        <ele>286.9</ele>
        <time>2025-10-28T08:48:15.000Z</time>
      </trkpt>
      <trkpt lat="43.53896" lon="6.59218">
        <ele>287.1</ele>
        <time>2025-10-28T08:48:16.000Z</time>
      </trkpt>
      <trkpt lat="43.53898" lon="6.59217">
        <ele>287.3</ele>
        <time>2025-10-28T08:48:17.000Z</time>
      </trkpt>
      <trkpt lat="43.53901" lon="6.59217">
        <ele>287.5</ele>
        <time>2025-10-28T08:48:18.000Z</time>
      </trkpt>
      <trkpt lat="43.53904" lon="6.59217">
        <ele>287.7</ele>
        <time>2025-10-28T08:48:19.000Z</time>
      </trkpt>
      <trkpt lat="43.53906" lon="6.59217">
        <ele>287.9</ele>
        <time>2025-10-28T08:48:20.000Z</time>
      </trkpt>
      <trkpt lat="43.53909" lon="6.59217">
        <ele>288.1</ele>
        <time>2025-10-28T08:48:21.000Z</time>
      </trkpt>
      <trkpt lat="43.53911" lon="6.59217">
        <ele>288.3</ele>
        <time>2025-10-28T08:48:22.000Z</time>
      </trkpt>
      <trkpt lat="43.53913" lon="6.59217">
        <ele>288.5</ele>
        <time>2025-10-28T08:48:23.000Z</time>
      </trkpt>
      <trkpt lat="43.53916" lon="6.59217">
        <ele>288.7</ele>
        <time>2025-10-28T08:48:24.000Z</time>
      </trkpt>
      <trkpt lat="43.53918" lon="6.59216">
        <ele>288.9</ele>
        <time>2025-10-28T08:48:25.000Z</time>
      </trkpt>
      <trkpt lat="43.53921" lon="6.59217">
        <ele>289.1</ele>
        <time>2025-10-28T08:48:26.000Z</time>
      </trkpt>
      <trkpt lat="43.53923" lon="6.59217">
        <ele>289.3</ele>
        <time>2025-10-28T08:48:27.000Z</time>
      </trkpt>
      <trkpt lat="43.53925" lon="6.59217">
        <ele>289.5</ele>
        <time>2025-10-28T08:48:28.000Z</time>
      </trkpt>
      <trkpt lat="43.53928" lon="6.59217">
        <ele>289.7</ele>
        <time>2025-10-28T08:48:29.000Z</time>
      </trkpt>
      <trkpt lat="43.5393" lon="6.59217">
        <ele>289.9</ele>
        <time>2025-10-28T08:48:30.000Z</time>
      </trkpt>
      <trkpt lat="43.53932" lon="6.59217">
        <ele>290.1</ele>
        <time>2025-10-28T08:48:31.000Z</time>
      </trkpt>
      <trkpt lat="43.53934" lon="6.59218">
        <ele>290.3</ele>
        <time>2025-10-28T08:48:32.000Z</time>
      </trkpt>
      <trkpt lat="43.53937" lon="6.59218">
        <ele>290.5</ele>
        <time>2025-10-28T08:48:33.000Z</time>
      </trkpt>
      <trkpt lat="43.53939" lon="6.59219">
        <ele>290.7</ele>
        <time>2025-10-28T08:48:34.000Z</time>
      </trkpt>
      <trkpt lat="43.53942" lon="6.59219">
        <ele>291</ele>
        <time>2025-10-28T08:48:35.000Z</time>
      </trkpt>
      <trkpt lat="43.53943" lon="6.59221">
        <ele>291.2</ele>
        <time>2025-10-28T08:48:36.000Z</time>
      </trkpt>
      <trkpt lat="43.53945" lon="6.59222">
        <ele>291.4</ele>
        <time>2025-10-28T08:48:37.000Z</time>
      </trkpt>
      <trkpt lat="43.53947" lon="6.59224">
        <ele>291.7</ele>
        <time>2025-10-28T08:48:38.000Z</time>
      </trkpt>
      <trkpt lat="43.53949" lon="6.59225">
        <ele>291.9</ele>
        <time>2025-10-28T08:48:39.000Z</time>
      </trkpt>
      <trkpt lat="43.53951" lon="6.59226">
        <ele>292.1</ele>
        <time>2025-10-28T08:48:40.000Z</time>
      </trkpt>
      <trkpt lat="43.53953" lon="6.59228">
        <ele>292.3</ele>
        <time>2025-10-28T08:48:41.000Z</time>
      </trkpt>
      <trkpt lat="43.53955" lon="6.5923">
        <ele>292.5</ele>
        <time>2025-10-28T08:48:42.000Z</time>
      </trkpt>
      <trkpt lat="43.53957" lon="6.59231">
        <ele>292.7</ele>
        <time>2025-10-28T08:48:43.000Z</time>
      </trkpt>
      <trkpt lat="43.53958" lon="6.59233">
        <ele>292.9</ele>
        <time>2025-10-28T08:48:44.000Z</time>
      </trkpt>
      <trkpt lat="43.5396" lon="6.59234">
        <ele>293</ele>
        <time>2025-10-28T08:48:45.000Z</time>
      </trkpt>
      <trkpt lat="43.53962" lon="6.59234">
        <ele>293.1</ele>
        <time>2025-10-28T08:48:46.000Z</time>
      </trkpt>
      <trkpt lat="43.53963" lon="6.59234">
        <ele>293.2</ele>
        <time>2025-10-28T08:48:47.000Z</time>
      </trkpt>
      <trkpt lat="43.53965" lon="6.59234">
        <ele>293.3</ele>
        <time>2025-10-28T08:48:48.000Z</time>
      </trkpt>
      <trkpt lat="43.53967" lon="6.59235">
        <ele>293.4</ele>
        <time>2025-10-28T08:48:49.000Z</time>
      </trkpt>
      <trkpt lat="43.53968" lon="6.59236">
        <ele>293.5</ele>
        <time>2025-10-28T08:48:50.000Z</time>
      </trkpt>
      <trkpt lat="43.5397" lon="6.59238">
        <ele>293.6</ele>
        <time>2025-10-28T08:48:51.000Z</time>
      </trkpt>
      <trkpt lat="43.53972" lon="6.59241">
        <ele>293.7</ele>
        <time>2025-10-28T08:48:52.000Z</time>
      </trkpt>
      <trkpt lat="43.53974" lon="6.59243">
        <ele>293.7</ele>
        <time>2025-10-28T08:48:53.000Z</time>
      </trkpt>
      <trkpt lat="43.53977" lon="6.59244">
        <ele>293.8</ele>
        <time>2025-10-28T08:48:54.000Z</time>
      </trkpt>
      <trkpt lat="43.53979" lon="6.59246">
        <ele>293.9</ele>
        <time>2025-10-28T08:48:55.000Z</time>
      </trkpt>
      <trkpt lat="43.53981" lon="6.59247">
        <ele>293.9</ele>
        <time>2025-10-28T08:48:56.000Z</time>
      </trkpt>
      <trkpt lat="43.53984" lon="6.59249">
        <ele>294</ele>
        <time>2025-10-28T08:48:57.000Z</time>
      </trkpt>
      <trkpt lat="43.53986" lon="6.5925">
        <ele>294</ele>
        <time>2025-10-28T08:48:58.000Z</time>
      </trkpt>
      <trkpt lat="43.53989" lon="6.59252">
        <ele>294.1</ele>
        <time>2025-10-28T08:48:59.000Z</time>
      </trkpt>
      <trkpt lat="43.53992" lon="6.59253">
        <ele>294.1</ele>
        <time>2025-10-28T08:49:00.000Z</time>
      </trkpt>
      <trkpt lat="43.53995" lon="6.59254">
        <ele>294.2</ele>
        <time>2025-10-28T08:49:01.000Z</time>
      </trkpt>
      <trkpt lat="43.53998" lon="6.59256">
        <ele>294.3</ele>
        <time>2025-10-28T08:49:02.000Z</time>
      </trkpt>
      <trkpt lat="43.54" lon="6.59258">
        <ele>294.4</ele>
        <time>2025-10-28T08:49:03.000Z</time>
      </trkpt>
      <trkpt lat="43.54003" lon="6.5926">
        <ele>294.6</ele>
        <time>2025-10-28T08:49:04.000Z</time>
      </trkpt>
      <trkpt lat="43.54006" lon="6.59262">
        <ele>294.7</ele>
        <time>2025-10-28T08:49:05.000Z</time>
      </trkpt>
      <trkpt lat="43.54009" lon="6.59265">
        <ele>294.8</ele>
        <time>2025-10-28T08:49:06.000Z</time>
      </trkpt>
      <trkpt lat="43.54011" lon="6.59266">
        <ele>295</ele>
        <time>2025-10-28T08:49:07.000Z</time>
      </trkpt>
      <trkpt lat="43.54014" lon="6.59268">
        <ele>295.1</ele>
        <time>2025-10-28T08:49:08.000Z</time>
      </trkpt>
      <trkpt lat="43.54017" lon="6.5927">
        <ele>295.3</ele>
        <time>2025-10-28T08:49:09.000Z</time>
      </trkpt>
      <trkpt lat="43.54019" lon="6.59272">
        <ele>295.4</ele>
        <time>2025-10-28T08:49:10.000Z</time>
      </trkpt>
      <trkpt lat="43.54021" lon="6.59274">
        <ele>295.6</ele>
        <time>2025-10-28T08:49:11.000Z</time>
      </trkpt>
      <trkpt lat="43.54023" lon="6.59277">
        <ele>295.7</ele>
        <time>2025-10-28T08:49:12.000Z</time>
      </trkpt>
      <trkpt lat="43.54025" lon="6.59279">
        <ele>295.9</ele>
        <time>2025-10-28T08:49:13.000Z</time>
      </trkpt>
      <trkpt lat="43.54027" lon="6.59282">
        <ele>296</ele>
        <time>2025-10-28T08:49:14.000Z</time>
      </trkpt>
      <trkpt lat="43.54028" lon="6.59284">
        <ele>296.2</ele>
        <time>2025-10-28T08:49:15.000Z</time>
      </trkpt>
      <trkpt lat="43.5403" lon="6.59286">
        <ele>296.3</ele>
        <time>2025-10-28T08:49:16.000Z</time>
      </trkpt>
      <trkpt lat="43.54031" lon="6.59287">
        <ele>296.4</ele>
        <time>2025-10-28T08:49:17.000Z</time>
      </trkpt>
      <trkpt lat="43.54033" lon="6.59289">
        <ele>296.6</ele>
        <time>2025-10-28T08:49:18.000Z</time>
      </trkpt>
      <trkpt lat="43.54034" lon="6.59291">
        <ele>296.8</ele>
        <time>2025-10-28T08:49:19.000Z</time>
      </trkpt>
      <trkpt lat="43.54036" lon="6.59293">
        <ele>297</ele>
        <time>2025-10-28T08:49:20.000Z</time>
      </trkpt>
      <trkpt lat="43.54037" lon="6.59295">
        <ele>297.2</ele>
        <time>2025-10-28T08:49:21.000Z</time>
      </trkpt>
      <trkpt lat="43.54039" lon="6.59297">
        <ele>297.3</ele>
        <time>2025-10-28T08:49:22.000Z</time>
      </trkpt>
      <trkpt lat="43.5404" lon="6.59298">
        <ele>297.5</ele>
        <time>2025-10-28T08:49:23.000Z</time>
      </trkpt>
      <trkpt lat="43.54042" lon="6.593">
        <ele>297.7</ele>
        <time>2025-10-28T08:49:24.000Z</time>
      </trkpt>
      <trkpt lat="43.54044" lon="6.59302">
        <ele>297.9</ele>
        <time>2025-10-28T08:49:25.000Z</time>
      </trkpt>
      <trkpt lat="43.54046" lon="6.59304">
        <ele>298.1</ele>
        <time>2025-10-28T08:49:26.000Z</time>
      </trkpt>
      <trkpt lat="43.54048" lon="6.59305">
        <ele>298.3</ele>
        <time>2025-10-28T08:49:27.000Z</time>
      </trkpt>
      <trkpt lat="43.5405" lon="6.59307">
        <ele>298.4</ele>
        <time>2025-10-28T08:49:28.000Z</time>
      </trkpt>
      <trkpt lat="43.54052" lon="6.59309">
        <ele>298.6</ele>
        <time>2025-10-28T08:49:29.000Z</time>
      </trkpt>
      <trkpt lat="43.54054" lon="6.59311">
        <ele>298.8</ele>
        <time>2025-10-28T08:49:30.000Z</time>
      </trkpt>
      <trkpt lat="43.54056" lon="6.59312">
        <ele>299</ele>
        <time>2025-10-28T08:49:31.000Z</time>
      </trkpt>
      <trkpt lat="43.54059" lon="6.59314">
        <ele>299.2</ele>
        <time>2025-10-28T08:49:32.000Z</time>
      </trkpt>
      <trkpt lat="43.5406" lon="6.59316">
        <ele>299.4</ele>
        <time>2025-10-28T08:49:33.000Z</time>
      </trkpt>
      <trkpt lat="43.54062" lon="6.59317">
        <ele>299.5</ele>
        <time>2025-10-28T08:49:34.000Z</time>
      </trkpt>
      <trkpt lat="43.54064" lon="6.59319">
        <ele>299.8</ele>
        <time>2025-10-28T08:49:35.000Z</time>
      </trkpt>
      <trkpt lat="43.54065" lon="6.59321">
        <ele>299.9</ele>
        <time>2025-10-28T08:49:36.000Z</time>
      </trkpt>
      <trkpt lat="43.54067" lon="6.59323">
        <ele>300.1</ele>
        <time>2025-10-28T08:49:37.000Z</time>
      </trkpt>
      <trkpt lat="43.54069" lon="6.59324">
        <ele>300.4</ele>
        <time>2025-10-28T08:49:38.000Z</time>
      </trkpt>
      <trkpt lat="43.54071" lon="6.59325">
        <ele>300.6</ele>
        <time>2025-10-28T08:49:39.000Z</time>
      </trkpt>
      <trkpt lat="43.54073" lon="6.59327">
        <ele>300.8</ele>
        <time>2025-10-28T08:49:40.000Z</time>
      </trkpt>
      <trkpt lat="43.54075" lon="6.59328">
        <ele>301.1</ele>
        <time>2025-10-28T08:49:41.000Z</time>
      </trkpt>
      <trkpt lat="43.54076" lon="6.59329">
        <ele>301.3</ele>
        <time>2025-10-28T08:49:42.000Z</time>
      </trkpt>
      <trkpt lat="43.54079" lon="6.5933">
        <ele>301.6</ele>
        <time>2025-10-28T08:49:43.000Z</time>
      </trkpt>
      <trkpt lat="43.54081" lon="6.59331">
        <ele>301.9</ele>
        <time>2025-10-28T08:49:44.000Z</time>
      </trkpt>
      <trkpt lat="43.54083" lon="6.59332">
        <ele>302.1</ele>
        <time>2025-10-28T08:49:45.000Z</time>
      </trkpt>
      <trkpt lat="43.54085" lon="6.59333">
        <ele>302.4</ele>
        <time>2025-10-28T08:49:46.000Z</time>
      </trkpt>
      <trkpt lat="43.54087" lon="6.59333">
        <ele>302.6</ele>
        <time>2025-10-28T08:49:47.000Z</time>
      </trkpt>
      <trkpt lat="43.54089" lon="6.59334">
        <ele>302.8</ele>
        <time>2025-10-28T08:49:48.000Z</time>
      </trkpt>
      <trkpt lat="43.54091" lon="6.59334">
        <ele>303.1</ele>
        <time>2025-10-28T08:49:49.000Z</time>
      </trkpt>
      <trkpt lat="43.54093" lon="6.59335">
        <ele>303.3</ele>
        <time>2025-10-28T08:49:50.000Z</time>
      </trkpt>
      <trkpt lat="43.54095" lon="6.59336">
        <ele>303.6</ele>
        <time>2025-10-28T08:49:51.000Z</time>
      </trkpt>
      <trkpt lat="43.54097" lon="6.59337">
        <ele>303.8</ele>
        <time>2025-10-28T08:49:52.000Z</time>
      </trkpt>
      <trkpt lat="43.54098" lon="6.59338">
        <ele>304.1</ele>
        <time>2025-10-28T08:49:53.000Z</time>
      </trkpt>
      <trkpt lat="43.54101" lon="6.5934">
        <ele>304.4</ele>
        <time>2025-10-28T08:49:54.000Z</time>
      </trkpt>
      <trkpt lat="43.54102" lon="6.59342">
        <ele>304.7</ele>
        <time>2025-10-28T08:49:55.000Z</time>
      </trkpt>
      <trkpt lat="43.54104" lon="6.59344">
        <ele>304.9</ele>
        <time>2025-10-28T08:49:56.000Z</time>
      </trkpt>
      <trkpt lat="43.54105" lon="6.59346">
        <ele>305.1</ele>
        <time>2025-10-28T08:49:57.000Z</time>
      </trkpt>
      <trkpt lat="43.54106" lon="6.59348">
        <ele>305.4</ele>
        <time>2025-10-28T08:49:58.000Z</time>
      </trkpt>
      <trkpt lat="43.54107" lon="6.59351">
        <ele>305.6</ele>
        <time>2025-10-28T08:49:59.000Z</time>
      </trkpt>
      <trkpt lat="43.54109" lon="6.59353">
        <ele>305.9</ele>
        <time>2025-10-28T08:50:00.000Z</time>
      </trkpt>
      <trkpt lat="43.5411" lon="6.59355">
        <ele>306.1</ele>
        <time>2025-10-28T08:50:01.000Z</time>
      </trkpt>
      <trkpt lat="43.54112" lon="6.59357">
        <ele>306.3</ele>
        <time>2025-10-28T08:50:02.000Z</time>
      </trkpt>
      <trkpt lat="43.54114" lon="6.59359">
        <ele>306.6</ele>
        <time>2025-10-28T08:50:03.000Z</time>
      </trkpt>
      <trkpt lat="43.54115" lon="6.59361">
        <ele>306.8</ele>
        <time>2025-10-28T08:50:04.000Z</time>
      </trkpt>
      <trkpt lat="43.54118" lon="6.59363">
        <ele>307.1</ele>
        <time>2025-10-28T08:50:05.000Z</time>
      </trkpt>
      <trkpt lat="43.5412" lon="6.59365">
        <ele>307.3</ele>
        <time>2025-10-28T08:50:06.000Z</time>
      </trkpt>
      <trkpt lat="43.54122" lon="6.59366">
        <ele>307.5</ele>
        <time>2025-10-28T08:50:07.000Z</time>
      </trkpt>
      <trkpt lat="43.54124" lon="6.59367">
        <ele>307.7</ele>
        <time>2025-10-28T08:50:08.000Z</time>
      </trkpt>
      <trkpt lat="43.54127" lon="6.59368">
        <ele>308</ele>
        <time>2025-10-28T08:50:09.000Z</time>
      </trkpt>
      <trkpt lat="43.54129" lon="6.5937">
        <ele>308.2</ele>
        <time>2025-10-28T08:50:10.000Z</time>
      </trkpt>
      <trkpt lat="43.54131" lon="6.59371">
        <ele>308.4</ele>
        <time>2025-10-28T08:50:11.000Z</time>
      </trkpt>
      <trkpt lat="43.54133" lon="6.59373">
        <ele>308.6</ele>
        <time>2025-10-28T08:50:12.000Z</time>
      </trkpt>
      <trkpt lat="43.54134" lon="6.59374">
        <ele>308.7</ele>
        <time>2025-10-28T08:50:13.000Z</time>
      </trkpt>
      <trkpt lat="43.54135" lon="6.59377">
        <ele>308.9</ele>
        <time>2025-10-28T08:50:14.000Z</time>
      </trkpt>
      <trkpt lat="43.54136" lon="6.59379">
        <ele>309.1</ele>
        <time>2025-10-28T08:50:15.000Z</time>
      </trkpt>
      <trkpt lat="43.54136" lon="6.59382">
        <ele>309.2</ele>
        <time>2025-10-28T08:50:16.000Z</time>
      </trkpt>
      <trkpt lat="43.54135" lon="6.59383">
        <ele>309.3</ele>
        <time>2025-10-28T08:50:17.000Z</time>
      </trkpt>
      <trkpt lat="43.54133" lon="6.59384">
        <ele>309.5</ele>
        <time>2025-10-28T08:50:18.000Z</time>
      </trkpt>
      <trkpt lat="43.54131" lon="6.59384">
        <ele>309.6</ele>
        <time>2025-10-28T08:50:19.000Z</time>
      </trkpt>
      <trkpt lat="43.54129" lon="6.59383">
        <ele>309.8</ele>
        <time>2025-10-28T08:50:20.000Z</time>
      </trkpt>
      <trkpt lat="43.54127" lon="6.59382">
        <ele>310</ele>
        <time>2025-10-28T08:50:21.000Z</time>
      </trkpt>
      <trkpt lat="43.54125" lon="6.5938">
        <ele>310.2</ele>
        <time>2025-10-28T08:50:22.000Z</time>
      </trkpt>
      <trkpt lat="43.54122" lon="6.59379">
        <ele>310.5</ele>
        <time>2025-10-28T08:50:23.000Z</time>
      </trkpt>
      <trkpt lat="43.5412" lon="6.59378">
        <ele>310.7</ele>
        <time>2025-10-28T08:50:24.000Z</time>
      </trkpt>
      <trkpt lat="43.54117" lon="6.59378">
        <ele>310.9</ele>
        <time>2025-10-28T08:50:25.000Z</time>
      </trkpt>
      <trkpt lat="43.54114" lon="6.59378">
        <ele>311.1</ele>
        <time>2025-10-28T08:50:26.000Z</time>
      </trkpt>
      <trkpt lat="43.54111" lon="6.59378">
        <ele>311.3</ele>
        <time>2025-10-28T08:50:27.000Z</time>
      </trkpt>
      <trkpt lat="43.54109" lon="6.59378">
        <ele>311.5</ele>
        <time>2025-10-28T08:50:28.000Z</time>
      </trkpt>
      <trkpt lat="43.54106" lon="6.59378">
        <ele>311.7</ele>
        <time>2025-10-28T08:50:29.000Z</time>
      </trkpt>
      <trkpt lat="43.54104" lon="6.59378">
        <ele>311.9</ele>
        <time>2025-10-28T08:50:30.000Z</time>
      </trkpt>
      <trkpt lat="43.54101" lon="6.59378">
        <ele>312.1</ele>
        <time>2025-10-28T08:50:31.000Z</time>
      </trkpt>
      <trkpt lat="43.54099" lon="6.59378">
        <ele>312.3</ele>
        <time>2025-10-28T08:50:32.000Z</time>
      </trkpt>
      <trkpt lat="43.54097" lon="6.59378">
        <ele>312.4</ele>
        <time>2025-10-28T08:50:33.000Z</time>
      </trkpt>
      <trkpt lat="43.54095" lon="6.59378">
        <ele>312.6</ele>
        <time>2025-10-28T08:50:34.000Z</time>
      </trkpt>
      <trkpt lat="43.54093" lon="6.59379">
        <ele>312.8</ele>
        <time>2025-10-28T08:50:35.000Z</time>
      </trkpt>
      <trkpt lat="43.54091" lon="6.59381">
        <ele>313.1</ele>
        <time>2025-10-28T08:50:36.000Z</time>
      </trkpt>
      <trkpt lat="43.5409" lon="6.59383">
        <ele>313.2</ele>
        <time>2025-10-28T08:50:37.000Z</time>
      </trkpt>
      <trkpt lat="43.54089" lon="6.59385">
        <ele>313.4</ele>
        <time>2025-10-28T08:50:38.000Z</time>
      </trkpt>
      <trkpt lat="43.54089" lon="6.59387">
        <ele>313.6</ele>
        <time>2025-10-28T08:50:39.000Z</time>
      </trkpt>
      <trkpt lat="43.5409" lon="6.5939">
        <ele>313.8</ele>
        <time>2025-10-28T08:50:40.000Z</time>
      </trkpt>
      <trkpt lat="43.54091" lon="6.59392">
        <ele>314</ele>
        <time>2025-10-28T08:50:41.000Z</time>
      </trkpt>
      <trkpt lat="43.54093" lon="6.59393">
        <ele>314.3</ele>
        <time>2025-10-28T08:50:42.000Z</time>
      </trkpt>
      <trkpt lat="43.54095" lon="6.59394">
        <ele>314.5</ele>
        <time>2025-10-28T08:50:43.000Z</time>
      </trkpt>
      <trkpt lat="43.54097" lon="6.59395">
        <ele>314.8</ele>
        <time>2025-10-28T08:50:44.000Z</time>
      </trkpt>
      <trkpt lat="43.54099" lon="6.59396">
        <ele>315.1</ele>
        <time>2025-10-28T08:50:45.000Z</time>
      </trkpt>
      <trkpt lat="43.54101" lon="6.59397">
        <ele>315.3</ele>
        <time>2025-10-28T08:50:46.000Z</time>
      </trkpt>
      <trkpt lat="43.54102" lon="6.59397">
        <ele>315.5</ele>
        <time>2025-10-28T08:50:47.000Z</time>
      </trkpt>
      <trkpt lat="43.54104" lon="6.59398">
        <ele>315.8</ele>
        <time>2025-10-28T08:50:48.000Z</time>
      </trkpt>
      <trkpt lat="43.54106" lon="6.59399">
        <ele>316</ele>
        <time>2025-10-28T08:50:49.000Z</time>
      </trkpt>
      <trkpt lat="43.54108" lon="6.594">
        <ele>316.2</ele>
        <time>2025-10-28T08:50:50.000Z</time>
      </trkpt>
      <trkpt lat="43.5411" lon="6.59401">
        <ele>316.5</ele>
        <time>2025-10-28T08:50:51.000Z</time>
      </trkpt>
      <trkpt lat="43.54112" lon="6.59403">
        <ele>316.8</ele>
        <time>2025-10-28T08:50:52.000Z</time>
      </trkpt>
      <trkpt lat="43.54114" lon="6.59404">
        <ele>317</ele>
        <time>2025-10-28T08:50:53.000Z</time>
      </trkpt>
      <trkpt lat="43.54116" lon="6.59405">
        <ele>317.2</ele>
        <time>2025-10-28T08:50:54.000Z</time>
      </trkpt>
      <trkpt lat="43.54118" lon="6.59406">
        <ele>317.5</ele>
        <time>2025-10-28T08:50:55.000Z</time>
      </trkpt>
      <trkpt lat="43.54119" lon="6.59409">
        <ele>317.7</ele>
        <time>2025-10-28T08:50:56.000Z</time>
      </trkpt>
      <trkpt lat="43.54121" lon="6.59411">
        <ele>318</ele>
        <time>2025-10-28T08:50:57.000Z</time>
      </trkpt>
      <trkpt lat="43.54123" lon="6.59413">
        <ele>318.3</ele>
        <time>2025-10-28T08:50:58.000Z</time>
      </trkpt>
      <trkpt lat="43.54124" lon="6.59415">
        <ele>318.5</ele>
        <time>2025-10-28T08:50:59.000Z</time>
      </trkpt>
      <trkpt lat="43.54125" lon="6.59418">
        <ele>318.7</ele>
        <time>2025-10-28T08:51:00.000Z</time>
      </trkpt>
      <trkpt lat="43.54126" lon="6.59421">
        <ele>319</ele>
        <time>2025-10-28T08:51:01.000Z</time>
      </trkpt>
      <trkpt lat="43.54127" lon="6.59423">
        <ele>319.2</ele>
        <time>2025-10-28T08:51:02.000Z</time>
      </trkpt>
      <trkpt lat="43.54128" lon="6.59426">
        <ele>319.4</ele>
        <time>2025-10-28T08:51:03.000Z</time>
      </trkpt>
      <trkpt lat="43.54129" lon="6.59429">
        <ele>319.7</ele>
        <time>2025-10-28T08:51:04.000Z</time>
      </trkpt>
      <trkpt lat="43.54129" lon="6.59431">
        <ele>319.9</ele>
        <time>2025-10-28T08:51:05.000Z</time>
      </trkpt>
      <trkpt lat="43.5413" lon="6.59434">
        <ele>320.2</ele>
        <time>2025-10-28T08:51:06.000Z</time>
      </trkpt>
      <trkpt lat="43.54131" lon="6.59437">
        <ele>320.5</ele>
        <time>2025-10-28T08:51:07.000Z</time>
      </trkpt>
      <trkpt lat="43.54133" lon="6.59439">
        <ele>320.7</ele>
        <time>2025-10-28T08:51:08.000Z</time>
      </trkpt>
      <trkpt lat="43.54134" lon="6.59442">
        <ele>321</ele>
        <time>2025-10-28T08:51:09.000Z</time>
      </trkpt>
      <trkpt lat="43.54135" lon="6.59444">
        <ele>321.2</ele>
        <time>2025-10-28T08:51:10.000Z</time>
      </trkpt>
      <trkpt lat="43.54137" lon="6.59446">
        <ele>321.5</ele>
        <time>2025-10-28T08:51:11.000Z</time>
      </trkpt>
      <trkpt lat="43.54139" lon="6.59447">
        <ele>321.8</ele>
        <time>2025-10-28T08:51:12.000Z</time>
      </trkpt>
      <trkpt lat="43.54141" lon="6.59448">
        <ele>322</ele>
        <time>2025-10-28T08:51:13.000Z</time>
      </trkpt>
      <trkpt lat="43.54143" lon="6.59449">
        <ele>322.3</ele>
        <time>2025-10-28T08:51:14.000Z</time>
      </trkpt>
      <trkpt lat="43.54146" lon="6.59449">
        <ele>322.6</ele>
        <time>2025-10-28T08:51:15.000Z</time>
      </trkpt>
      <trkpt lat="43.54148" lon="6.59449">
        <ele>322.8</ele>
        <time>2025-10-28T08:51:16.000Z</time>
      </trkpt>
      <trkpt lat="43.5415" lon="6.59449">
        <ele>323.1</ele>
        <time>2025-10-28T08:51:17.000Z</time>
      </trkpt>
      <trkpt lat="43.54152" lon="6.59448">
        <ele>323.3</ele>
        <time>2025-10-28T08:51:18.000Z</time>
      </trkpt>
      <trkpt lat="43.54154" lon="6.59447">
        <ele>323.6</ele>
        <time>2025-10-28T08:51:19.000Z</time>
      </trkpt>
      <trkpt lat="43.54156" lon="6.59446">
        <ele>323.8</ele>
        <time>2025-10-28T08:51:20.000Z</time>
      </trkpt>
      <trkpt lat="43.54158" lon="6.59445">
        <ele>324</ele>
        <time>2025-10-28T08:51:21.000Z</time>
      </trkpt>
      <trkpt lat="43.5416" lon="6.59444">
        <ele>324.3</ele>
        <time>2025-10-28T08:51:22.000Z</time>
      </trkpt>
      <trkpt lat="43.54162" lon="6.59443">
        <ele>324.5</ele>
        <time>2025-10-28T08:51:23.000Z</time>
      </trkpt>
      <trkpt lat="43.54164" lon="6.59443">
        <ele>324.7</ele>
        <time>2025-10-28T08:51:24.000Z</time>
      </trkpt>
      <trkpt lat="43.54166" lon="6.59443">
        <ele>324.8</ele>
        <time>2025-10-28T08:51:25.000Z</time>
      </trkpt>
      <trkpt lat="43.54167" lon="6.59443">
        <ele>325</ele>
        <time>2025-10-28T08:51:26.000Z</time>
      </trkpt>
      <trkpt lat="43.54169" lon="6.59443">
        <ele>325.2</ele>
        <time>2025-10-28T08:51:27.000Z</time>
      </trkpt>
      <trkpt lat="43.54171" lon="6.59444">
        <ele>325.4</ele>
        <time>2025-10-28T08:51:28.000Z</time>
      </trkpt>
      <trkpt lat="43.54172" lon="6.59446">
        <ele>325.6</ele>
        <time>2025-10-28T08:51:29.000Z</time>
      </trkpt>
      <trkpt lat="43.54174" lon="6.59448">
        <ele>325.9</ele>
        <time>2025-10-28T08:51:30.000Z</time>
      </trkpt>
      <trkpt lat="43.54176" lon="6.59449">
        <ele>326.1</ele>
        <time>2025-10-28T08:51:31.000Z</time>
      </trkpt>
      <trkpt lat="43.54178" lon="6.59451">
        <ele>326.4</ele>
        <time>2025-10-28T08:51:32.000Z</time>
      </trkpt>
      <trkpt lat="43.54179" lon="6.59453">
        <ele>326.6</ele>
        <time>2025-10-28T08:51:33.000Z</time>
      </trkpt>
      <trkpt lat="43.54181" lon="6.59455">
        <ele>326.8</ele>
        <time>2025-10-28T08:51:34.000Z</time>
      </trkpt>
      <trkpt lat="43.54182" lon="6.59456">
        <ele>327</ele>
        <time>2025-10-28T08:51:35.000Z</time>
      </trkpt>
      <trkpt lat="43.54184" lon="6.59457">
        <ele>327.2</ele>
        <time>2025-10-28T08:51:36.000Z</time>
      </trkpt>
      <trkpt lat="43.54185" lon="6.59459">
        <ele>327.5</ele>
        <time>2025-10-28T08:51:37.000Z</time>
      </trkpt>
      <trkpt lat="43.54187" lon="6.5946">
        <ele>327.7</ele>
        <time>2025-10-28T08:51:38.000Z</time>
      </trkpt>
      <trkpt lat="43.54189" lon="6.59462">
        <ele>328</ele>
        <time>2025-10-28T08:51:39.000Z</time>
      </trkpt>
      <trkpt lat="43.5419" lon="6.59464">
        <ele>328.2</ele>
        <time>2025-10-28T08:51:40.000Z</time>
      </trkpt>
      <trkpt lat="43.5419" lon="6.59466">
        <ele>328.4</ele>
        <time>2025-10-28T08:51:41.000Z</time>
      </trkpt>
      <trkpt lat="43.54191" lon="6.59469">
        <ele>328.7</ele>
        <time>2025-10-28T08:51:42.000Z</time>
      </trkpt>
      <trkpt lat="43.5419" lon="6.59472">
        <ele>328.9</ele>
        <time>2025-10-28T08:51:43.000Z</time>
      </trkpt>
      <trkpt lat="43.54189" lon="6.59474">
        <ele>329.1</ele>
        <time>2025-10-28T08:51:44.000Z</time>
      </trkpt>
      <trkpt lat="43.54188" lon="6.59475">
        <ele>329.3</ele>
        <time>2025-10-28T08:51:45.000Z</time>
      </trkpt>
      <trkpt lat="43.54186" lon="6.59476">
        <ele>329.6</ele>
        <time>2025-10-28T08:51:46.000Z</time>
      </trkpt>
      <trkpt lat="43.54184" lon="6.59476">
        <ele>329.8</ele>
        <time>2025-10-28T08:51:47.000Z</time>
      </trkpt>
      <trkpt lat="43.54182" lon="6.59475">
        <ele>330</ele>
        <time>2025-10-28T08:51:48.000Z</time>
      </trkpt>
      <trkpt lat="43.54179" lon="6.59475">
        <ele>330.3</ele>
        <time>2025-10-28T08:51:49.000Z</time>
      </trkpt>
      <trkpt lat="43.54177" lon="6.59475">
        <ele>330.5</ele>
        <time>2025-10-28T08:51:50.000Z</time>
      </trkpt>
      <trkpt lat="43.54175" lon="6.59474">
        <ele>330.8</ele>
        <time>2025-10-28T08:51:51.000Z</time>
      </trkpt>
      <trkpt lat="43.54172" lon="6.59474">
        <ele>331.1</ele>
        <time>2025-10-28T08:51:52.000Z</time>
      </trkpt>
      <trkpt lat="43.5417" lon="6.59475">
        <ele>331.3</ele>
        <time>2025-10-28T08:51:53.000Z</time>
      </trkpt>
      <trkpt lat="43.54168" lon="6.59476">
        <ele>331.5</ele>
        <time>2025-10-28T08:51:54.000Z</time>
      </trkpt>
      <trkpt lat="43.54166" lon="6.59477">
        <ele>331.7</ele>
        <time>2025-10-28T08:51:55.000Z</time>
      </trkpt>
      <trkpt lat="43.54164" lon="6.59479">
        <ele>332</ele>
        <time>2025-10-28T08:51:56.000Z</time>
      </trkpt>
      <trkpt lat="43.54162" lon="6.59481">
        <ele>332.2</ele>
        <time>2025-10-28T08:51:57.000Z</time>
      </trkpt>
      <trkpt lat="43.5416" lon="6.59484">
        <ele>332.5</ele>
        <time>2025-10-28T08:51:58.000Z</time>
      </trkpt>
      <trkpt lat="43.54159" lon="6.59486">
        <ele>332.7</ele>
        <time>2025-10-28T08:51:59.000Z</time>
      </trkpt>
      <trkpt lat="43.54157" lon="6.59488">
        <ele>333</ele>
        <time>2025-10-28T08:52:00.000Z</time>
      </trkpt>
      <trkpt lat="43.54156" lon="6.59491">
        <ele>333.2</ele>
        <time>2025-10-28T08:52:01.000Z</time>
      </trkpt>
      <trkpt lat="43.54154" lon="6.59493">
        <ele>333.4</ele>
        <time>2025-10-28T08:52:02.000Z</time>
      </trkpt>
      <trkpt lat="43.54153" lon="6.59495">
        <ele>333.6</ele>
        <time>2025-10-28T08:52:03.000Z</time>
      </trkpt>
      <trkpt lat="43.54151" lon="6.59497">
        <ele>333.9</ele>
        <time>2025-10-28T08:52:04.000Z</time>
      </trkpt>
      <trkpt lat="43.54149" lon="6.59499">
        <ele>334.1</ele>
        <time>2025-10-28T08:52:05.000Z</time>
      </trkpt>
      <trkpt lat="43.54147" lon="6.59501">
        <ele>334.3</ele>
        <time>2025-10-28T08:52:06.000Z</time>
      </trkpt>
      <trkpt lat="43.54145" lon="6.59503">
        <ele>334.6</ele>
        <time>2025-10-28T08:52:07.000Z</time>
      </trkpt>
      <trkpt lat="43.54144" lon="6.59505">
        <ele>334.9</ele>
        <time>2025-10-28T08:52:08.000Z</time>
      </trkpt>
      <trkpt lat="43.54142" lon="6.59507">
        <ele>335.1</ele>
        <time>2025-10-28T08:52:09.000Z</time>
      </trkpt>
      <trkpt lat="43.5414" lon="6.59508">
        <ele>335.4</ele>
        <time>2025-10-28T08:52:10.000Z</time>
      </trkpt>
      <trkpt lat="43.54138" lon="6.5951">
        <ele>335.6</ele>
        <time>2025-10-28T08:52:11.000Z</time>
      </trkpt>
      <trkpt lat="43.54137" lon="6.59512">
        <ele>335.9</ele>
        <time>2025-10-28T08:52:12.000Z</time>
      </trkpt>
      <trkpt lat="43.54135" lon="6.59513">
        <ele>336.2</ele>
        <time>2025-10-28T08:52:13.000Z</time>
      </trkpt>
      <trkpt lat="43.54133" lon="6.59515">
        <ele>336.5</ele>
        <time>2025-10-28T08:52:14.000Z</time>
      </trkpt>
      <trkpt lat="43.54131" lon="6.59517">
        <ele>336.8</ele>
        <time>2025-10-28T08:52:15.000Z</time>
      </trkpt>
      <trkpt lat="43.5413" lon="6.59518">
        <ele>337</ele>
        <time>2025-10-28T08:52:16.000Z</time>
      </trkpt>
      <trkpt lat="43.54128" lon="6.59519">
        <ele>337.3</ele>
        <time>2025-10-28T08:52:17.000Z</time>
      </trkpt>
      <trkpt lat="43.54126" lon="6.59521">
        <ele>337.6</ele>
        <time>2025-10-28T08:52:18.000Z</time>
      </trkpt>
      <trkpt lat="43.54124" lon="6.59522">
        <ele>337.9</ele>
        <time>2025-10-28T08:52:19.000Z</time>
      </trkpt>
      <trkpt lat="43.54122" lon="6.59523">
        <ele>338.1</ele>
        <time>2025-10-28T08:52:20.000Z</time>
      </trkpt>
      <trkpt lat="43.54121" lon="6.59524">
        <ele>338.3</ele>
        <time>2025-10-28T08:52:21.000Z</time>
      </trkpt>
      <trkpt lat="43.54119" lon="6.59526">
        <ele>338.6</ele>
        <time>2025-10-28T08:52:22.000Z</time>
      </trkpt>
      <trkpt lat="43.54118" lon="6.59529">
        <ele>338.9</ele>
        <time>2025-10-28T08:52:23.000Z</time>
      </trkpt>
      <trkpt lat="43.54117" lon="6.59531">
        <ele>339.2</ele>
        <time>2025-10-28T08:52:24.000Z</time>
      </trkpt>
      <trkpt lat="43.54117" lon="6.59535">
        <ele>339.5</ele>
        <time>2025-10-28T08:52:25.000Z</time>
      </trkpt>
      <trkpt lat="43.54117" lon="6.59538">
        <ele>339.7</ele>
        <time>2025-10-28T08:52:26.000Z</time>
      </trkpt>
      <trkpt lat="43.54118" lon="6.5954">
        <ele>340</ele>
        <time>2025-10-28T08:52:27.000Z</time>
      </trkpt>
      <trkpt lat="43.5412" lon="6.59542">
        <ele>340.2</ele>
        <time>2025-10-28T08:52:28.000Z</time>
      </trkpt>
      <trkpt lat="43.54123" lon="6.59543">
        <ele>340.5</ele>
        <time>2025-10-28T08:52:29.000Z</time>
      </trkpt>
      <trkpt lat="43.54125" lon="6.59544">
        <ele>340.7</ele>
        <time>2025-10-28T08:52:30.000Z</time>
      </trkpt>
      <trkpt lat="43.54127" lon="6.59544">
        <ele>341</ele>
        <time>2025-10-28T08:52:31.000Z</time>
      </trkpt>
      <trkpt lat="43.5413" lon="6.59544">
        <ele>341.2</ele>
        <time>2025-10-28T08:52:32.000Z</time>
      </trkpt>
      <trkpt lat="43.54133" lon="6.59544">
        <ele>341.5</ele>
        <time>2025-10-28T08:52:33.000Z</time>
      </trkpt>
      <trkpt lat="43.54135" lon="6.59544">
        <ele>341.8</ele>
        <time>2025-10-28T08:52:34.000Z</time>
      </trkpt>
      <trkpt lat="43.54138" lon="6.59545">
        <ele>342.1</ele>
        <time>2025-10-28T08:52:35.000Z</time>
      </trkpt>
      <trkpt lat="43.5414" lon="6.59546">
        <ele>342.3</ele>
        <time>2025-10-28T08:52:36.000Z</time>
      </trkpt>
      <trkpt lat="43.54142" lon="6.59547">
        <ele>342.5</ele>
        <time>2025-10-28T08:52:37.000Z</time>
      </trkpt>
      <trkpt lat="43.54144" lon="6.59548">
        <ele>342.7</ele>
        <time>2025-10-28T08:52:38.000Z</time>
      </trkpt>
      <trkpt lat="43.54147" lon="6.59549">
        <ele>343</ele>
        <time>2025-10-28T08:52:39.000Z</time>
      </trkpt>
      <trkpt lat="43.54149" lon="6.5955">
        <ele>343.3</ele>
        <time>2025-10-28T08:52:40.000Z</time>
      </trkpt>
      <trkpt lat="43.54151" lon="6.59551">
        <ele>343.5</ele>
        <time>2025-10-28T08:52:41.000Z</time>
      </trkpt>
      <trkpt lat="43.54153" lon="6.59553">
        <ele>343.7</ele>
        <time>2025-10-28T08:52:42.000Z</time>
      </trkpt>
      <trkpt lat="43.54155" lon="6.59554">
        <ele>343.9</ele>
        <time>2025-10-28T08:52:43.000Z</time>
      </trkpt>
      <trkpt lat="43.54157" lon="6.59557">
        <ele>344.2</ele>
        <time>2025-10-28T08:52:44.000Z</time>
      </trkpt>
      <trkpt lat="43.54159" lon="6.59558">
        <ele>344.5</ele>
        <time>2025-10-28T08:52:45.000Z</time>
      </trkpt>
      <trkpt lat="43.54161" lon="6.59561">
        <ele>344.7</ele>
        <time>2025-10-28T08:52:46.000Z</time>
      </trkpt>
      <trkpt lat="43.54162" lon="6.59563">
        <ele>345</ele>
        <time>2025-10-28T08:52:47.000Z</time>
      </trkpt>
      <trkpt lat="43.54164" lon="6.59564">
        <ele>345.2</ele>
        <time>2025-10-28T08:52:48.000Z</time>
      </trkpt>
      <trkpt lat="43.54166" lon="6.59567">
        <ele>345.5</ele>
        <time>2025-10-28T08:52:49.000Z</time>
      </trkpt>
      <trkpt lat="43.54167" lon="6.59569">
        <ele>345.8</ele>
        <time>2025-10-28T08:52:50.000Z</time>
      </trkpt>
      <trkpt lat="43.54169" lon="6.59571">
        <ele>346</ele>
        <time>2025-10-28T08:52:51.000Z</time>
      </trkpt>
      <trkpt lat="43.5417" lon="6.59573">
        <ele>346.3</ele>
        <time>2025-10-28T08:52:52.000Z</time>
      </trkpt>
      <trkpt lat="43.54171" lon="6.59576">
        <ele>346.5</ele>
        <time>2025-10-28T08:52:53.000Z</time>
      </trkpt>
      <trkpt lat="43.54173" lon="6.59578">
        <ele>346.8</ele>
        <time>2025-10-28T08:52:54.000Z</time>
      </trkpt>
      <trkpt lat="43.54175" lon="6.5958">
        <ele>347.1</ele>
        <time>2025-10-28T08:52:55.000Z</time>
      </trkpt>
      <trkpt lat="43.54177" lon="6.59582">
        <ele>347.4</ele>
        <time>2025-10-28T08:52:56.000Z</time>
      </trkpt>
      <trkpt lat="43.54178" lon="6.59583">
        <ele>347.6</ele>
        <time>2025-10-28T08:52:57.000Z</time>
      </trkpt>
      <trkpt lat="43.5418" lon="6.59585">
        <ele>347.8</ele>
        <time>2025-10-28T08:52:58.000Z</time>
      </trkpt>
      <trkpt lat="43.54182" lon="6.59588">
        <ele>348.1</ele>
        <time>2025-10-28T08:52:59.000Z</time>
      </trkpt>
      <trkpt lat="43.54183" lon="6.5959">
        <ele>348.4</ele>
        <time>2025-10-28T08:53:00.000Z</time>
      </trkpt>
      <trkpt lat="43.54184" lon="6.59592">
        <ele>348.6</ele>
        <time>2025-10-28T08:53:01.000Z</time>
      </trkpt>
      <trkpt lat="43.54184" lon="6.59594">
        <ele>348.8</ele>
        <time>2025-10-28T08:53:02.000Z</time>
      </trkpt>
      <trkpt lat="43.54184" lon="6.59596">
        <ele>349</ele>
        <time>2025-10-28T08:53:03.000Z</time>
      </trkpt>
      <trkpt lat="43.54183" lon="6.59598">
        <ele>349.2</ele>
        <time>2025-10-28T08:53:04.000Z</time>
      </trkpt>
      <trkpt lat="43.54181" lon="6.59599">
        <ele>349.4</ele>
        <time>2025-10-28T08:53:05.000Z</time>
      </trkpt>
      <trkpt lat="43.54178" lon="6.59599">
        <ele>349.7</ele>
        <time>2025-10-28T08:53:06.000Z</time>
      </trkpt>
      <trkpt lat="43.54176" lon="6.59598">
        <ele>349.9</ele>
        <time>2025-10-28T08:53:07.000Z</time>
      </trkpt>
      <trkpt lat="43.54174" lon="6.59597">
        <ele>350.1</ele>
        <time>2025-10-28T08:53:08.000Z</time>
      </trkpt>
      <trkpt lat="43.54171" lon="6.59596">
        <ele>350.5</ele>
        <time>2025-10-28T08:53:09.000Z</time>
      </trkpt>
      <trkpt lat="43.54169" lon="6.59595">
        <ele>350.7</ele>
        <time>2025-10-28T08:53:10.000Z</time>
      </trkpt>
      <trkpt lat="43.54166" lon="6.59595">
        <ele>351</ele>
        <time>2025-10-28T08:53:11.000Z</time>
      </trkpt>
      <trkpt lat="43.54164" lon="6.59595">
        <ele>351.2</ele>
        <time>2025-10-28T08:53:12.000Z</time>
      </trkpt>
      <trkpt lat="43.54162" lon="6.59595">
        <ele>351.5</ele>
        <time>2025-10-28T08:53:13.000Z</time>
      </trkpt>
      <trkpt lat="43.54159" lon="6.59594">
        <ele>351.7</ele>
        <time>2025-10-28T08:53:14.000Z</time>
      </trkpt>
      <trkpt lat="43.54157" lon="6.59595">
        <ele>351.9</ele>
        <time>2025-10-28T08:53:15.000Z</time>
      </trkpt>
      <trkpt lat="43.54156" lon="6.59595">
        <ele>352.1</ele>
        <time>2025-10-28T08:53:16.000Z</time>
      </trkpt>
      <trkpt lat="43.54153" lon="6.59595">
        <ele>352.4</ele>
        <time>2025-10-28T08:53:17.000Z</time>
      </trkpt>
      <trkpt lat="43.54151" lon="6.59596">
        <ele>352.6</ele>
        <time>2025-10-28T08:53:18.000Z</time>
      </trkpt>
      <trkpt lat="43.54149" lon="6.59596">
        <ele>352.8</ele>
        <time>2025-10-28T08:53:19.000Z</time>
      </trkpt>
      <trkpt lat="43.54147" lon="6.59596">
        <ele>353.1</ele>
        <time>2025-10-28T08:53:20.000Z</time>
      </trkpt>
      <trkpt lat="43.54145" lon="6.59597">
        <ele>353.4</ele>
        <time>2025-10-28T08:53:21.000Z</time>
      </trkpt>
      <trkpt lat="43.54143" lon="6.59598">
        <ele>353.6</ele>
        <time>2025-10-28T08:53:22.000Z</time>
      </trkpt>
      <trkpt lat="43.54141" lon="6.59599">
        <ele>353.9</ele>
        <time>2025-10-28T08:53:23.000Z</time>
      </trkpt>
      <trkpt lat="43.5414" lon="6.596">
        <ele>354.2</ele>
        <time>2025-10-28T08:53:24.000Z</time>
      </trkpt>
      <trkpt lat="43.54137" lon="6.59601">
        <ele>354.5</ele>
        <time>2025-10-28T08:53:25.000Z</time>
      </trkpt>
      <trkpt lat="43.54135" lon="6.59601">
        <ele>354.8</ele>
        <time>2025-10-28T08:53:26.000Z</time>
      </trkpt>
      <trkpt lat="43.54133" lon="6.59602">
        <ele>355.1</ele>
        <time>2025-10-28T08:53:27.000Z</time>
      </trkpt>
      <trkpt lat="43.54132" lon="6.59603">
        <ele>355.3</ele>
        <time>2025-10-28T08:53:28.000Z</time>
      </trkpt>
      <trkpt lat="43.54131" lon="6.59603">
        <ele>355.5</ele>
        <time>2025-10-28T08:53:29.000Z</time>
      </trkpt>
      <trkpt lat="43.54129" lon="6.59605">
        <ele>355.8</ele>
        <time>2025-10-28T08:53:30.000Z</time>
      </trkpt>
      <trkpt lat="43.54127" lon="6.59606">
        <ele>356</ele>
        <time>2025-10-28T08:53:31.000Z</time>
      </trkpt>
      <trkpt lat="43.54125" lon="6.59607">
        <ele>356.3</ele>
        <time>2025-10-28T08:53:32.000Z</time>
      </trkpt>
      <trkpt lat="43.54124" lon="6.59608">
        <ele>356.6</ele>
        <time>2025-10-28T08:53:33.000Z</time>
      </trkpt>
      <trkpt lat="43.54122" lon="6.5961">
        <ele>356.9</ele>
        <time>2025-10-28T08:53:34.000Z</time>
      </trkpt>
      <trkpt lat="43.54121" lon="6.59612">
        <ele>357.1</ele>
        <time>2025-10-28T08:53:35.000Z</time>
      </trkpt>
      <trkpt lat="43.5412" lon="6.59615">
        <ele>357.5</ele>
        <time>2025-10-28T08:53:36.000Z</time>
      </trkpt>
      <trkpt lat="43.5412" lon="6.59618">
        <ele>357.7</ele>
        <time>2025-10-28T08:53:37.000Z</time>
      </trkpt>
      <trkpt lat="43.5412" lon="6.5962">
        <ele>357.9</ele>
        <time>2025-10-28T08:53:38.000Z</time>
      </trkpt>
      <trkpt lat="43.54122" lon="6.59622">
        <ele>358.2</ele>
        <time>2025-10-28T08:53:39.000Z</time>
      </trkpt>
      <trkpt lat="43.54124" lon="6.59623">
        <ele>358.4</ele>
        <time>2025-10-28T08:53:40.000Z</time>
      </trkpt>
      <trkpt lat="43.54126" lon="6.59624">
        <ele>358.6</ele>
        <time>2025-10-28T08:53:41.000Z</time>
      </trkpt>
      <trkpt lat="43.54128" lon="6.59625">
        <ele>358.9</ele>
        <time>2025-10-28T08:53:42.000Z</time>
      </trkpt>
      <trkpt lat="43.54131" lon="6.59625">
        <ele>359.1</ele>
        <time>2025-10-28T08:53:43.000Z</time>
      </trkpt>
      <trkpt lat="43.54133" lon="6.59625">
        <ele>359.4</ele>
        <time>2025-10-28T08:53:44.000Z</time>
      </trkpt>
      <trkpt lat="43.54136" lon="6.59626">
        <ele>359.6</ele>
        <time>2025-10-28T08:53:45.000Z</time>
      </trkpt>
      <trkpt lat="43.54138" lon="6.59626">
        <ele>359.8</ele>
        <time>2025-10-28T08:53:46.000Z</time>
      </trkpt>
      <trkpt lat="43.5414" lon="6.59626">
        <ele>360</ele>
        <time>2025-10-28T08:53:47.000Z</time>
      </trkpt>
      <trkpt lat="43.54142" lon="6.59627">
        <ele>360.2</ele>
        <time>2025-10-28T08:53:48.000Z</time>
      </trkpt>
      <trkpt lat="43.54145" lon="6.59628">
        <ele>360.4</ele>
        <time>2025-10-28T08:53:49.000Z</time>
      </trkpt>
      <trkpt lat="43.54147" lon="6.59629">
        <ele>360.7</ele>
        <time>2025-10-28T08:53:50.000Z</time>
      </trkpt>
      <trkpt lat="43.5415" lon="6.59631">
        <ele>360.9</ele>
        <time>2025-10-28T08:53:51.000Z</time>
      </trkpt>
      <trkpt lat="43.54152" lon="6.59632">
        <ele>361.1</ele>
        <time>2025-10-28T08:53:52.000Z</time>
      </trkpt>
      <trkpt lat="43.54153" lon="6.59634">
        <ele>361.3</ele>
        <time>2025-10-28T08:53:53.000Z</time>
      </trkpt>
      <trkpt lat="43.54155" lon="6.59636">
        <ele>361.5</ele>
        <time>2025-10-28T08:53:54.000Z</time>
      </trkpt>
      <trkpt lat="43.54157" lon="6.59638">
        <ele>361.7</ele>
        <time>2025-10-28T08:53:55.000Z</time>
      </trkpt>
      <trkpt lat="43.54159" lon="6.5964">
        <ele>361.9</ele>
        <time>2025-10-28T08:53:56.000Z</time>
      </trkpt>
      <trkpt lat="43.5416" lon="6.59642">
        <ele>362.2</ele>
        <time>2025-10-28T08:53:57.000Z</time>
      </trkpt>
      <trkpt lat="43.54162" lon="6.59643">
        <ele>362.3</ele>
        <time>2025-10-28T08:53:58.000Z</time>
      </trkpt>
      <trkpt lat="43.54164" lon="6.59645">
        <ele>362.6</ele>
        <time>2025-10-28T08:53:59.000Z</time>
      </trkpt>
      <trkpt lat="43.54166" lon="6.59647">
        <ele>362.8</ele>
        <time>2025-10-28T08:54:00.000Z</time>
      </trkpt>
      <trkpt lat="43.54168" lon="6.59649">
        <ele>363</ele>
        <time>2025-10-28T08:54:01.000Z</time>
      </trkpt>
      <trkpt lat="43.5417" lon="6.59651">
        <ele>363.3</ele>
        <time>2025-10-28T08:54:02.000Z</time>
      </trkpt>
      <trkpt lat="43.54171" lon="6.59653">
        <ele>363.5</ele>
        <time>2025-10-28T08:54:03.000Z</time>
      </trkpt>
      <trkpt lat="43.54173" lon="6.59655">
        <ele>363.7</ele>
        <time>2025-10-28T08:54:04.000Z</time>
      </trkpt>
      <trkpt lat="43.54174" lon="6.59657">
        <ele>363.9</ele>
        <time>2025-10-28T08:54:05.000Z</time>
      </trkpt>
      <trkpt lat="43.54176" lon="6.5966">
        <ele>364.1</ele>
        <time>2025-10-28T08:54:06.000Z</time>
      </trkpt>
      <trkpt lat="43.54177" lon="6.59662">
        <ele>364.3</ele>
        <time>2025-10-28T08:54:07.000Z</time>
      </trkpt>
      <trkpt lat="43.54179" lon="6.59664">
        <ele>364.5</ele>
        <time>2025-10-28T08:54:08.000Z</time>
      </trkpt>
      <trkpt lat="43.5418" lon="6.59665">
        <ele>364.7</ele>
        <time>2025-10-28T08:54:09.000Z</time>
      </trkpt>
      <trkpt lat="43.54182" lon="6.59668">
        <ele>364.9</ele>
        <time>2025-10-28T08:54:10.000Z</time>
      </trkpt>
      <trkpt lat="43.54183" lon="6.5967">
        <ele>365.2</ele>
        <time>2025-10-28T08:54:11.000Z</time>
      </trkpt>
      <trkpt lat="43.54185" lon="6.59673">
        <ele>365.4</ele>
        <time>2025-10-28T08:54:12.000Z</time>
      </trkpt>
      <trkpt lat="43.54186" lon="6.59676">
        <ele>365.7</ele>
        <time>2025-10-28T08:54:13.000Z</time>
      </trkpt>
      <trkpt lat="43.54187" lon="6.59678">
        <ele>365.9</ele>
        <time>2025-10-28T08:54:14.000Z</time>
      </trkpt>
      <trkpt lat="43.54188" lon="6.5968">
        <ele>366.1</ele>
        <time>2025-10-28T08:54:15.000Z</time>
      </trkpt>
      <trkpt lat="43.5419" lon="6.59684">
        <ele>366.4</ele>
        <time>2025-10-28T08:54:16.000Z</time>
      </trkpt>
      <trkpt lat="43.5419" lon="6.59686">
        <ele>366.5</ele>
        <time>2025-10-28T08:54:17.000Z</time>
      </trkpt>
      <trkpt lat="43.54191" lon="6.59688">
        <ele>366.7</ele>
        <time>2025-10-28T08:54:18.000Z</time>
      </trkpt>
      <trkpt lat="43.54192" lon="6.59691">
        <ele>366.9</ele>
        <time>2025-10-28T08:54:19.000Z</time>
      </trkpt>
      <trkpt lat="43.54193" lon="6.59694">
        <ele>367.1</ele>
        <time>2025-10-28T08:54:20.000Z</time>
      </trkpt>
      <trkpt lat="43.54194" lon="6.59698">
        <ele>367.4</ele>
        <time>2025-10-28T08:54:21.000Z</time>
      </trkpt>
      <trkpt lat="43.54195" lon="6.597">
        <ele>367.7</ele>
        <time>2025-10-28T08:54:22.000Z</time>
      </trkpt>
      <trkpt lat="43.54196" lon="6.59703">
        <ele>367.9</ele>
        <time>2025-10-28T08:54:23.000Z</time>
      </trkpt>
      <trkpt lat="43.54197" lon="6.59704">
        <ele>368</ele>
        <time>2025-10-28T08:54:24.000Z</time>
      </trkpt>
      <trkpt lat="43.54198" lon="6.59706">
        <ele>368.2</ele>
        <time>2025-10-28T08:54:25.000Z</time>
      </trkpt>
      <trkpt lat="43.542" lon="6.59708">
        <ele>368.4</ele>
        <time>2025-10-28T08:54:26.000Z</time>
      </trkpt>
      <trkpt lat="43.54201" lon="6.5971">
        <ele>368.6</ele>
        <time>2025-10-28T08:54:27.000Z</time>
      </trkpt>
      <trkpt lat="43.54203" lon="6.59713">
        <ele>368.8</ele>
        <time>2025-10-28T08:54:28.000Z</time>
      </trkpt>
      <trkpt lat="43.54205" lon="6.59714">
        <ele>369</ele>
        <time>2025-10-28T08:54:29.000Z</time>
      </trkpt>
      <trkpt lat="43.54207" lon="6.59717">
        <ele>369.3</ele>
        <time>2025-10-28T08:54:30.000Z</time>
      </trkpt>
      <trkpt lat="43.54209" lon="6.5972">
        <ele>369.5</ele>
        <time>2025-10-28T08:54:31.000Z</time>
      </trkpt>
      <trkpt lat="43.54211" lon="6.59722">
        <ele>369.8</ele>
        <time>2025-10-28T08:54:32.000Z</time>
      </trkpt>
      <trkpt lat="43.54213" lon="6.59723">
        <ele>370</ele>
        <time>2025-10-28T08:54:33.000Z</time>
      </trkpt>
      <trkpt lat="43.54214" lon="6.59725">
        <ele>370.1</ele>
        <time>2025-10-28T08:54:34.000Z</time>
      </trkpt>
      <trkpt lat="43.54216" lon="6.59726">
        <ele>370.3</ele>
        <time>2025-10-28T08:54:35.000Z</time>
      </trkpt>
      <trkpt lat="43.54218" lon="6.59728">
        <ele>370.6</ele>
        <time>2025-10-28T08:54:36.000Z</time>
      </trkpt>
      <trkpt lat="43.54219" lon="6.5973">
        <ele>370.8</ele>
        <time>2025-10-28T08:54:37.000Z</time>
      </trkpt>
      <trkpt lat="43.54221" lon="6.59732">
        <ele>371</ele>
        <time>2025-10-28T08:54:38.000Z</time>
      </trkpt>
      <trkpt lat="43.54223" lon="6.59734">
        <ele>371.2</ele>
        <time>2025-10-28T08:54:39.000Z</time>
      </trkpt>
      <trkpt lat="43.54225" lon="6.59736">
        <ele>371.4</ele>
        <time>2025-10-28T08:54:40.000Z</time>
      </trkpt>
      <trkpt lat="43.54227" lon="6.59738">
        <ele>371.6</ele>
        <time>2025-10-28T08:54:41.000Z</time>
      </trkpt>
      <trkpt lat="43.54229" lon="6.5974">
        <ele>371.9</ele>
        <time>2025-10-28T08:54:42.000Z</time>
      </trkpt>
      <trkpt lat="43.5423" lon="6.59742">
        <ele>372.1</ele>
        <time>2025-10-28T08:54:43.000Z</time>
      </trkpt>
      <trkpt lat="43.54232" lon="6.59743">
        <ele>372.3</ele>
        <time>2025-10-28T08:54:44.000Z</time>
      </trkpt>
      <trkpt lat="43.54233" lon="6.59745">
        <ele>372.5</ele>
        <time>2025-10-28T08:54:45.000Z</time>
      </trkpt>
      <trkpt lat="43.54235" lon="6.59748">
        <ele>372.7</ele>
        <time>2025-10-28T08:54:46.000Z</time>
      </trkpt>
      <trkpt lat="43.54237" lon="6.5975">
        <ele>373</ele>
        <time>2025-10-28T08:54:47.000Z</time>
      </trkpt>
      <trkpt lat="43.54239" lon="6.59752">
        <ele>373.3</ele>
        <time>2025-10-28T08:54:48.000Z</time>
      </trkpt>
      <trkpt lat="43.5424" lon="6.59753">
        <ele>373.5</ele>
        <time>2025-10-28T08:54:49.000Z</time>
      </trkpt>
      <trkpt lat="43.54242" lon="6.59755">
        <ele>373.7</ele>
        <time>2025-10-28T08:54:50.000Z</time>
      </trkpt>
      <trkpt lat="43.54243" lon="6.59757">
        <ele>374</ele>
        <time>2025-10-28T08:54:51.000Z</time>
      </trkpt>
      <trkpt lat="43.54245" lon="6.59759">
        <ele>374.2</ele>
        <time>2025-10-28T08:54:52.000Z</time>
      </trkpt>
      <trkpt lat="43.54247" lon="6.59762">
        <ele>374.5</ele>
        <time>2025-10-28T08:54:53.000Z</time>
      </trkpt>
      <trkpt lat="43.54249" lon="6.59764">
        <ele>374.8</ele>
        <time>2025-10-28T08:54:54.000Z</time>
      </trkpt>
      <trkpt lat="43.5425" lon="6.59765">
        <ele>375</ele>
        <time>2025-10-28T08:54:55.000Z</time>
      </trkpt>
      <trkpt lat="43.54252" lon="6.59767">
        <ele>375.2</ele>
        <time>2025-10-28T08:54:56.000Z</time>
      </trkpt>
      <trkpt lat="43.54254" lon="6.59769">
        <ele>375.5</ele>
        <time>2025-10-28T08:54:57.000Z</time>
      </trkpt>
      <trkpt lat="43.54256" lon="6.59772">
        <ele>375.8</ele>
        <time>2025-10-28T08:54:58.000Z</time>
      </trkpt>
      <trkpt lat="43.54258" lon="6.59773">
        <ele>376</ele>
        <time>2025-10-28T08:54:59.000Z</time>
      </trkpt>
      <trkpt lat="43.5426" lon="6.59775">
        <ele>376.3</ele>
        <time>2025-10-28T08:55:00.000Z</time>
      </trkpt>
      <trkpt lat="43.54262" lon="6.59777">
        <ele>376.6</ele>
        <time>2025-10-28T08:55:01.000Z</time>
      </trkpt>
      <trkpt lat="43.54264" lon="6.5978">
        <ele>376.8</ele>
        <time>2025-10-28T08:55:02.000Z</time>
      </trkpt>
      <trkpt lat="43.54266" lon="6.59782">
        <ele>377.1</ele>
        <time>2025-10-28T08:55:03.000Z</time>
      </trkpt>
      <trkpt lat="43.54269" lon="6.59785">
        <ele>377.5</ele>
        <time>2025-10-28T08:55:04.000Z</time>
      </trkpt>
      <trkpt lat="43.5427" lon="6.59787">
        <ele>377.7</ele>
        <time>2025-10-28T08:55:05.000Z</time>
      </trkpt>
      <trkpt lat="43.54272" lon="6.5979">
        <ele>378</ele>
        <time>2025-10-28T08:55:06.000Z</time>
      </trkpt>
      <trkpt lat="43.54274" lon="6.59792">
        <ele>378.3</ele>
        <time>2025-10-28T08:55:07.000Z</time>
      </trkpt>
      <trkpt lat="43.54275" lon="6.59796">
        <ele>378.7</ele>
        <time>2025-10-28T08:55:08.000Z</time>
      </trkpt>
      <trkpt lat="43.54277" lon="6.59798">
        <ele>378.9</ele>
        <time>2025-10-28T08:55:09.000Z</time>
      </trkpt>
      <trkpt lat="43.54278" lon="6.59801">
        <ele>379.2</ele>
        <time>2025-10-28T08:55:10.000Z</time>
      </trkpt>
      <trkpt lat="43.5428" lon="6.59804">
        <ele>379.4</ele>
        <time>2025-10-28T08:55:11.000Z</time>
      </trkpt>
      <trkpt lat="43.54281" lon="6.59807">
        <ele>379.6</ele>
        <time>2025-10-28T08:55:12.000Z</time>
      </trkpt>
      <trkpt lat="43.54283" lon="6.5981">
        <ele>379.9</ele>
        <time>2025-10-28T08:55:13.000Z</time>
      </trkpt>
      <trkpt lat="43.54285" lon="6.59813">
        <ele>380.1</ele>
        <time>2025-10-28T08:55:14.000Z</time>
      </trkpt>
      <trkpt lat="43.54286" lon="6.59815">
        <ele>380.2</ele>
        <time>2025-10-28T08:55:15.000Z</time>
      </trkpt>
      <trkpt lat="43.54288" lon="6.59818">
        <ele>380.4</ele>
        <time>2025-10-28T08:55:16.000Z</time>
      </trkpt>
      <trkpt lat="43.5429" lon="6.59821">
        <ele>380.6</ele>
        <time>2025-10-28T08:55:17.000Z</time>
      </trkpt>
      <trkpt lat="43.54292" lon="6.59825">
        <ele>380.9</ele>
        <time>2025-10-28T08:55:18.000Z</time>
      </trkpt>
      <trkpt lat="43.54295" lon="6.59829">
        <ele>381.1</ele>
        <time>2025-10-28T08:55:19.000Z</time>
      </trkpt>
      <trkpt lat="43.54297" lon="6.59832">
        <ele>381.3</ele>
        <time>2025-10-28T08:55:20.000Z</time>
      </trkpt>
      <trkpt lat="43.54298" lon="6.59835">
        <ele>381.5</ele>
        <time>2025-10-28T08:55:21.000Z</time>
      </trkpt>
      <trkpt lat="43.543" lon="6.59839">
        <ele>381.8</ele>
        <time>2025-10-28T08:55:22.000Z</time>
      </trkpt>
      <trkpt lat="43.54302" lon="6.59843">
        <ele>382.2</ele>
        <time>2025-10-28T08:55:23.000Z</time>
      </trkpt>
      <trkpt lat="43.54303" lon="6.59847">
        <ele>382.5</ele>
        <time>2025-10-28T08:55:24.000Z</time>
      </trkpt>
      <trkpt lat="43.54305" lon="6.5985">
        <ele>382.8</ele>
        <time>2025-10-28T08:55:25.000Z</time>
      </trkpt>
      <trkpt lat="43.54306" lon="6.59853">
        <ele>383</ele>
        <time>2025-10-28T08:55:26.000Z</time>
      </trkpt>
      <trkpt lat="43.54307" lon="6.59856">
        <ele>383.3</ele>
        <time>2025-10-28T08:55:27.000Z</time>
      </trkpt>
      <trkpt lat="43.54308" lon="6.59859">
        <ele>383.6</ele>
        <time>2025-10-28T08:55:28.000Z</time>
      </trkpt>
      <trkpt lat="43.54308" lon="6.59863">
        <ele>383.9</ele>
        <time>2025-10-28T08:55:29.000Z</time>
      </trkpt>
      <trkpt lat="43.54309" lon="6.59867">
        <ele>384.2</ele>
        <time>2025-10-28T08:55:30.000Z</time>
      </trkpt>
      <trkpt lat="43.5431" lon="6.59869">
        <ele>384.4</ele>
        <time>2025-10-28T08:55:31.000Z</time>
      </trkpt>
      <trkpt lat="43.54311" lon="6.59872">
        <ele>384.6</ele>
        <time>2025-10-28T08:55:32.000Z</time>
      </trkpt>
      <trkpt lat="43.54312" lon="6.59876">
        <ele>384.8</ele>
        <time>2025-10-28T08:55:33.000Z</time>
      </trkpt>
      <trkpt lat="43.54313" lon="6.59879">
        <ele>384.9</ele>
        <time>2025-10-28T08:55:34.000Z</time>
      </trkpt>
      <trkpt lat="43.54314" lon="6.59882">
        <ele>385</ele>
        <time>2025-10-28T08:55:35.000Z</time>
      </trkpt>
      <trkpt lat="43.54314" lon="6.59884">
        <ele>385.1</ele>
        <time>2025-10-28T08:55:36.000Z</time>
      </trkpt>
      <trkpt lat="43.54316" lon="6.59887">
        <ele>385.2</ele>
        <time>2025-10-28T08:55:37.000Z</time>
      </trkpt>
      <trkpt lat="43.54317" lon="6.59891">
        <ele>385.2</ele>
        <time>2025-10-28T08:55:38.000Z</time>
      </trkpt>
      <trkpt lat="43.54318" lon="6.59895">
        <ele>385.3</ele>
        <time>2025-10-28T08:55:39.000Z</time>
      </trkpt>
      <trkpt lat="43.5432" lon="6.59898">
        <ele>385.3</ele>
        <time>2025-10-28T08:55:40.000Z</time>
      </trkpt>
      <trkpt lat="43.54321" lon="6.59902">
        <ele>385.3</ele>
        <time>2025-10-28T08:55:41.000Z</time>
      </trkpt>
      <trkpt lat="43.54322" lon="6.59905">
        <ele>385.3</ele>
        <time>2025-10-28T08:55:42.000Z</time>
      </trkpt>
      <trkpt lat="43.54324" lon="6.5991">
        <ele>385.3</ele>
        <time>2025-10-28T08:55:43.000Z</time>
      </trkpt>
      <trkpt lat="43.54325" lon="6.59913">
        <ele>385.3</ele>
        <time>2025-10-28T08:55:44.000Z</time>
      </trkpt>
      <trkpt lat="43.54327" lon="6.59917">
        <ele>385.3</ele>
        <time>2025-10-28T08:55:45.000Z</time>
      </trkpt>
      <trkpt lat="43.54328" lon="6.59919">
        <ele>385.3</ele>
        <time>2025-10-28T08:55:46.000Z</time>
      </trkpt>
      <trkpt lat="43.54329" lon="6.59922">
        <ele>385.3</ele>
        <time>2025-10-28T08:55:47.000Z</time>
      </trkpt>
      <trkpt lat="43.54331" lon="6.59926">
        <ele>385.3</ele>
        <time>2025-10-28T08:55:48.000Z</time>
      </trkpt>
      <trkpt lat="43.54332" lon="6.59929">
        <ele>385.3</ele>
        <time>2025-10-28T08:55:49.000Z</time>
      </trkpt>
      <trkpt lat="43.54333" lon="6.59932">
        <ele>385.3</ele>
        <time>2025-10-28T08:55:50.000Z</time>
      </trkpt>
      <trkpt lat="43.54334" lon="6.59935">
        <ele>385.4</ele>
        <time>2025-10-28T08:55:51.000Z</time>
      </trkpt>
      <trkpt lat="43.54335" lon="6.59938">
        <ele>385.4</ele>
        <time>2025-10-28T08:55:52.000Z</time>
      </trkpt>
      <trkpt lat="43.54335" lon="6.59942">
        <ele>385.3</ele>
        <time>2025-10-28T08:55:53.000Z</time>
      </trkpt>
      <trkpt lat="43.54336" lon="6.59946">
        <ele>385.3</ele>
        <time>2025-10-28T08:55:54.000Z</time>
      </trkpt>
      <trkpt lat="43.54337" lon="6.59949">
        <ele>385.3</ele>
        <time>2025-10-28T08:55:55.000Z</time>
      </trkpt>
      <trkpt lat="43.54338" lon="6.59953">
        <ele>385.2</ele>
        <time>2025-10-28T08:55:56.000Z</time>
      </trkpt>
      <trkpt lat="43.54338" lon="6.59958">
        <ele>385.1</ele>
        <time>2025-10-28T08:55:57.000Z</time>
      </trkpt>
      <trkpt lat="43.54338" lon="6.59962">
        <ele>385</ele>
        <time>2025-10-28T08:55:58.000Z</time>
      </trkpt>
      <trkpt lat="43.54338" lon="6.59967">
        <ele>384.9</ele>
        <time>2025-10-28T08:55:59.000Z</time>
      </trkpt>
      <trkpt lat="43.54338" lon="6.59972">
        <ele>384.8</ele>
        <time>2025-10-28T08:56:00.000Z</time>
      </trkpt>
      <trkpt lat="43.54338" lon="6.59976">
        <ele>384.7</ele>
        <time>2025-10-28T08:56:01.000Z</time>
      </trkpt>
      <trkpt lat="43.54338" lon="6.59981">
        <ele>384.6</ele>
        <time>2025-10-28T08:56:02.000Z</time>
      </trkpt>
      <trkpt lat="43.54338" lon="6.59986">
        <ele>384.4</ele>
        <time>2025-10-28T08:56:03.000Z</time>
      </trkpt>
      <trkpt lat="43.54338" lon="6.59991">
        <ele>384.3</ele>
        <time>2025-10-28T08:56:04.000Z</time>
      </trkpt>
      <trkpt lat="43.54338" lon="6.59996">
        <ele>384.2</ele>
        <time>2025-10-28T08:56:05.000Z</time>
      </trkpt>
      <trkpt lat="43.54338" lon="6.60002">
        <ele>384</ele>
        <time>2025-10-28T08:56:06.000Z</time>
      </trkpt>
      <trkpt lat="43.54337" lon="6.60006">
        <ele>384</ele>
        <time>2025-10-28T08:56:07.000Z</time>
      </trkpt>
      <trkpt lat="43.54336" lon="6.60011">
        <ele>383.9</ele>
        <time>2025-10-28T08:56:08.000Z</time>
      </trkpt>
      <trkpt lat="43.54335" lon="6.60016">
        <ele>383.9</ele>
        <time>2025-10-28T08:56:09.000Z</time>
      </trkpt>
      <trkpt lat="43.54335" lon="6.60021">
        <ele>383.9</ele>
        <time>2025-10-28T08:56:10.000Z</time>
      </trkpt>
      <trkpt lat="43.54334" lon="6.60024">
        <ele>383.9</ele>
        <time>2025-10-28T08:56:11.000Z</time>
      </trkpt>
      <trkpt lat="43.54333" lon="6.60028">
        <ele>383.9</ele>
        <time>2025-10-28T08:56:12.000Z</time>
      </trkpt>
      <trkpt lat="43.54332" lon="6.60032">
        <ele>383.9</ele>
        <time>2025-10-28T08:56:13.000Z</time>
      </trkpt>
      <trkpt lat="43.54331" lon="6.60037">
        <ele>384</ele>
        <time>2025-10-28T08:56:14.000Z</time>
      </trkpt>
      <trkpt lat="43.5433" lon="6.60041">
        <ele>384</ele>
        <time>2025-10-28T08:56:15.000Z</time>
      </trkpt>
      <trkpt lat="43.5433" lon="6.60044">
        <ele>384</ele>
        <time>2025-10-28T08:56:16.000Z</time>
      </trkpt>
      <trkpt lat="43.54329" lon="6.60047">
        <ele>384.1</ele>
        <time>2025-10-28T08:56:17.000Z</time>
      </trkpt>
      <trkpt lat="43.54328" lon="6.60049">
        <ele>384.1</ele>
        <time>2025-10-28T08:56:18.000Z</time>
      </trkpt>
      <trkpt lat="43.54328" lon="6.60052">
        <ele>384.1</ele>
        <time>2025-10-28T08:56:19.000Z</time>
      </trkpt>
      <trkpt lat="43.54327" lon="6.60055">
        <ele>384.1</ele>
        <time>2025-10-28T08:56:20.000Z</time>
      </trkpt>
      <trkpt lat="43.54326" lon="6.60058">
        <ele>384.1</ele>
        <time>2025-10-28T08:56:21.000Z</time>
      </trkpt>
      <trkpt lat="43.54325" lon="6.60059">
        <ele>384.1</ele>
        <time>2025-10-28T08:56:22.000Z</time>
      </trkpt>
      <trkpt lat="43.54325" lon="6.60062">
        <ele>384.2</ele>
        <time>2025-10-28T08:56:23.000Z</time>
      </trkpt>
      <trkpt lat="43.54325" lon="6.60065">
        <ele>384.2</ele>
        <time>2025-10-28T08:56:24.000Z</time>
      </trkpt>
      <trkpt lat="43.54324" lon="6.60068">
        <ele>384.2</ele>
        <time>2025-10-28T08:56:25.000Z</time>
      </trkpt>
      <trkpt lat="43.54324" lon="6.6007">
        <ele>384.2</ele>
        <time>2025-10-28T08:56:26.000Z</time>
      </trkpt>
      <trkpt lat="43.54324" lon="6.60072">
        <ele>384.1</ele>
        <time>2025-10-28T08:56:27.000Z</time>
      </trkpt>
      <trkpt lat="43.54323" lon="6.60076">
        <ele>384.1</ele>
        <time>2025-10-28T08:56:28.000Z</time>
      </trkpt>
      <trkpt lat="43.54322" lon="6.60079">
        <ele>384.1</ele>
        <time>2025-10-28T08:56:29.000Z</time>
      </trkpt>
      <trkpt lat="43.54321" lon="6.60083">
        <ele>384.1</ele>
        <time>2025-10-28T08:56:30.000Z</time>
      </trkpt>
      <trkpt lat="43.54321" lon="6.60086">
        <ele>384.1</ele>
        <time>2025-10-28T08:56:31.000Z</time>
      </trkpt>
      <trkpt lat="43.5432" lon="6.60091">
        <ele>384.1</ele>
        <time>2025-10-28T08:56:32.000Z</time>
      </trkpt>
      <trkpt lat="43.5432" lon="6.60095">
        <ele>384</ele>
        <time>2025-10-28T08:56:33.000Z</time>
      </trkpt>
      <trkpt lat="43.54318" lon="6.60098">
        <ele>384</ele>
        <time>2025-10-28T08:56:34.000Z</time>
      </trkpt>
      <trkpt lat="43.54318" lon="6.60102">
        <ele>384</ele>
        <time>2025-10-28T08:56:35.000Z</time>
      </trkpt>
      <trkpt lat="43.54317" lon="6.60105">
        <ele>384</ele>
        <time>2025-10-28T08:56:36.000Z</time>
      </trkpt>
      <trkpt lat="43.54317" lon="6.60107">
        <ele>384</ele>
        <time>2025-10-28T08:56:37.000Z</time>
      </trkpt>
      <trkpt lat="43.54316" lon="6.60111">
        <ele>383.9</ele>
        <time>2025-10-28T08:56:38.000Z</time>
      </trkpt>
      <trkpt lat="43.54315" lon="6.60114">
        <ele>383.9</ele>
        <time>2025-10-28T08:56:39.000Z</time>
      </trkpt>
      <trkpt lat="43.54314" lon="6.60118">
        <ele>383.9</ele>
        <time>2025-10-28T08:56:40.000Z</time>
      </trkpt>
      <trkpt lat="43.54313" lon="6.60122">
        <ele>383.8</ele>
        <time>2025-10-28T08:56:41.000Z</time>
      </trkpt>
      <trkpt lat="43.54313" lon="6.60126">
        <ele>383.8</ele>
        <time>2025-10-28T08:56:42.000Z</time>
      </trkpt>
      <trkpt lat="43.54312" lon="6.6013">
        <ele>383.8</ele>
        <time>2025-10-28T08:56:43.000Z</time>
      </trkpt>
      <trkpt lat="43.54311" lon="6.60136">
        <ele>383.7</ele>
        <time>2025-10-28T08:56:44.000Z</time>
      </trkpt>
      <trkpt lat="43.5431" lon="6.6014">
        <ele>383.7</ele>
        <time>2025-10-28T08:56:45.000Z</time>
      </trkpt>
      <trkpt lat="43.54309" lon="6.60144">
        <ele>383.6</ele>
        <time>2025-10-28T08:56:46.000Z</time>
      </trkpt>
      <trkpt lat="43.54308" lon="6.60148">
        <ele>383.6</ele>
        <time>2025-10-28T08:56:47.000Z</time>
      </trkpt>
      <trkpt lat="43.54307" lon="6.60152">
        <ele>383.6</ele>
        <time>2025-10-28T08:56:48.000Z</time>
      </trkpt>
      <trkpt lat="43.54306" lon="6.60155">
        <ele>383.5</ele>
        <time>2025-10-28T08:56:49.000Z</time>
      </trkpt>
      <trkpt lat="43.54305" lon="6.60158">
        <ele>383.5</ele>
        <time>2025-10-28T08:56:50.000Z</time>
      </trkpt>
      <trkpt lat="43.54304" lon="6.60162">
        <ele>383.4</ele>
        <time>2025-10-28T08:56:51.000Z</time>
      </trkpt>
      <trkpt lat="43.54303" lon="6.60164">
        <ele>383.4</ele>
        <time>2025-10-28T08:56:52.000Z</time>
      </trkpt>
      <trkpt lat="43.54302" lon="6.60168">
        <ele>383.4</ele>
        <time>2025-10-28T08:56:53.000Z</time>
      </trkpt>
      <trkpt lat="43.54301" lon="6.60171">
        <ele>383.3</ele>
        <time>2025-10-28T08:56:54.000Z</time>
      </trkpt>
      <trkpt lat="43.54301" lon="6.60174">
        <ele>383.2</ele>
        <time>2025-10-28T08:56:55.000Z</time>
      </trkpt>
      <trkpt lat="43.543" lon="6.60178">
        <ele>383.2</ele>
        <time>2025-10-28T08:56:56.000Z</time>
      </trkpt>
      <trkpt lat="43.543" lon="6.60182">
        <ele>383.1</ele>
        <time>2025-10-28T08:56:57.000Z</time>
      </trkpt>
      <trkpt lat="43.54299" lon="6.60186">
        <ele>383</ele>
        <time>2025-10-28T08:56:58.000Z</time>
      </trkpt>
      <trkpt lat="43.54297" lon="6.6019">
        <ele>382.9</ele>
        <time>2025-10-28T08:56:59.000Z</time>
      </trkpt>
      <trkpt lat="43.54295" lon="6.60195">
        <ele>382.8</ele>
        <time>2025-10-28T08:57:00.000Z</time>
      </trkpt>
      <trkpt lat="43.54292" lon="6.602">
        <ele>382.7</ele>
        <time>2025-10-28T08:57:01.000Z</time>
      </trkpt>
      <trkpt lat="43.5429" lon="6.60203">
        <ele>382.7</ele>
        <time>2025-10-28T08:57:02.000Z</time>
      </trkpt>
      <trkpt lat="43.54288" lon="6.60207">
        <ele>382.7</ele>
        <time>2025-10-28T08:57:03.000Z</time>
      </trkpt>
      <trkpt lat="43.54285" lon="6.60211">
        <ele>382.7</ele>
        <time>2025-10-28T08:57:04.000Z</time>
      </trkpt>
      <trkpt lat="43.54282" lon="6.60216">
        <ele>382.7</ele>
        <time>2025-10-28T08:57:05.000Z</time>
      </trkpt>
      <trkpt lat="43.54281" lon="6.6022">
        <ele>382.7</ele>
        <time>2025-10-28T08:57:06.000Z</time>
      </trkpt>
      <trkpt lat="43.5428" lon="6.60223">
        <ele>382.7</ele>
        <time>2025-10-28T08:57:07.000Z</time>
      </trkpt>
      <trkpt lat="43.54279" lon="6.60226">
        <ele>382.7</ele>
        <time>2025-10-28T08:57:08.000Z</time>
      </trkpt>
      <trkpt lat="43.54279" lon="6.6023">
        <ele>382.7</ele>
        <time>2025-10-28T08:57:09.000Z</time>
      </trkpt>
      <trkpt lat="43.54278" lon="6.60234">
        <ele>382.7</ele>
        <time>2025-10-28T08:57:10.000Z</time>
      </trkpt>
      <trkpt lat="43.54277" lon="6.60238">
        <ele>382.7</ele>
        <time>2025-10-28T08:57:11.000Z</time>
      </trkpt>
      <trkpt lat="43.54277" lon="6.60242">
        <ele>382.7</ele>
        <time>2025-10-28T08:57:12.000Z</time>
      </trkpt>
      <trkpt lat="43.54276" lon="6.60245">
        <ele>382.7</ele>
        <time>2025-10-28T08:57:13.000Z</time>
      </trkpt>
      <trkpt lat="43.54275" lon="6.60249">
        <ele>382.7</ele>
        <time>2025-10-28T08:57:14.000Z</time>
      </trkpt>
      <trkpt lat="43.54274" lon="6.60253">
        <ele>382.6</ele>
        <time>2025-10-28T08:57:15.000Z</time>
      </trkpt>
      <trkpt lat="43.54273" lon="6.60256">
        <ele>382.5</ele>
        <time>2025-10-28T08:57:16.000Z</time>
      </trkpt>
      <trkpt lat="43.54271" lon="6.6026">
        <ele>382.3</ele>
        <time>2025-10-28T08:57:17.000Z</time>
      </trkpt>
      <trkpt lat="43.54269" lon="6.60263">
        <ele>382.2</ele>
        <time>2025-10-28T08:57:18.000Z</time>
      </trkpt>
      <trkpt lat="43.54267" lon="6.60267">
        <ele>381.9</ele>
        <time>2025-10-28T08:57:19.000Z</time>
      </trkpt>
      <trkpt lat="43.54265" lon="6.60271">
        <ele>381.7</ele>
        <time>2025-10-28T08:57:20.000Z</time>
      </trkpt>
      <trkpt lat="43.54261" lon="6.60276">
        <ele>381.2</ele>
        <time>2025-10-28T08:57:21.000Z</time>
      </trkpt>
      <trkpt lat="43.54258" lon="6.60282">
        <ele>380.7</ele>
        <time>2025-10-28T08:57:22.000Z</time>
      </trkpt>
      <trkpt lat="43.54256" lon="6.60287">
        <ele>380.2</ele>
        <time>2025-10-28T08:57:23.000Z</time>
      </trkpt>
      <trkpt lat="43.54253" lon="6.60294">
        <ele>379.6</ele>
        <time>2025-10-28T08:57:24.000Z</time>
      </trkpt>
      <trkpt lat="43.5425" lon="6.60302">
        <ele>378.9</ele>
        <time>2025-10-28T08:57:25.000Z</time>
      </trkpt>
      <trkpt lat="43.54248" lon="6.6031">
        <ele>378.3</ele>
        <time>2025-10-28T08:57:26.000Z</time>
      </trkpt>
      <trkpt lat="43.54246" lon="6.60318">
        <ele>377.7</ele>
        <time>2025-10-28T08:57:27.000Z</time>
      </trkpt>
      <trkpt lat="43.54244" lon="6.60326">
        <ele>377.1</ele>
        <time>2025-10-28T08:57:28.000Z</time>
      </trkpt>
      <trkpt lat="43.54241" lon="6.60335">
        <ele>376.5</ele>
        <time>2025-10-28T08:57:29.000Z</time>
      </trkpt>
      <trkpt lat="43.54238" lon="6.60343">
        <ele>375.9</ele>
        <time>2025-10-28T08:57:30.000Z</time>
      </trkpt>
      <trkpt lat="43.54235" lon="6.60351">
        <ele>375.4</ele>
        <time>2025-10-28T08:57:31.000Z</time>
      </trkpt>
      <trkpt lat="43.54233" lon="6.6036">
        <ele>375</ele>
        <time>2025-10-28T08:57:32.000Z</time>
      </trkpt>
      <trkpt lat="43.54231" lon="6.60368">
        <ele>374.7</ele>
        <time>2025-10-28T08:57:33.000Z</time>
      </trkpt>
      <trkpt lat="43.54229" lon="6.60376">
        <ele>374.4</ele>
        <time>2025-10-28T08:57:34.000Z</time>
      </trkpt>
      <trkpt lat="43.54228" lon="6.60383">
        <ele>374.3</ele>
        <time>2025-10-28T08:57:35.000Z</time>
      </trkpt>
      <trkpt lat="43.54225" lon="6.60392">
        <ele>374.2</ele>
        <time>2025-10-28T08:57:36.000Z</time>
      </trkpt>
      <trkpt lat="43.54223" lon="6.60398">
        <ele>374.1</ele>
        <time>2025-10-28T08:57:37.000Z</time>
      </trkpt>
      <trkpt lat="43.5422" lon="6.60405">
        <ele>374</ele>
        <time>2025-10-28T08:57:38.000Z</time>
      </trkpt>
      <trkpt lat="43.54218" lon="6.60411">
        <ele>374</ele>
        <time>2025-10-28T08:57:39.000Z</time>
      </trkpt>
      <trkpt lat="43.54217" lon="6.60416">
        <ele>373.9</ele>
        <time>2025-10-28T08:57:40.000Z</time>
      </trkpt>
      <trkpt lat="43.54216" lon="6.60423">
        <ele>373.9</ele>
        <time>2025-10-28T08:57:41.000Z</time>
      </trkpt>
      <trkpt lat="43.54215" lon="6.6043">
        <ele>373.8</ele>
        <time>2025-10-28T08:57:42.000Z</time>
      </trkpt>
      <trkpt lat="43.54214" lon="6.60436">
        <ele>373.8</ele>
        <time>2025-10-28T08:57:43.000Z</time>
      </trkpt>
      <trkpt lat="43.54214" lon="6.60441">
        <ele>373.7</ele>
        <time>2025-10-28T08:57:44.000Z</time>
      </trkpt>
      <trkpt lat="43.54213" lon="6.60448">
        <ele>373.7</ele>
        <time>2025-10-28T08:57:45.000Z</time>
      </trkpt>
      <trkpt lat="43.54212" lon="6.60455">
        <ele>373.6</ele>
        <time>2025-10-28T08:57:46.000Z</time>
      </trkpt>
      <trkpt lat="43.54211" lon="6.60461">
        <ele>373.6</ele>
        <time>2025-10-28T08:57:47.000Z</time>
      </trkpt>
      <trkpt lat="43.5421" lon="6.60467">
        <ele>373.6</ele>
        <time>2025-10-28T08:57:48.000Z</time>
      </trkpt>
      <trkpt lat="43.54209" lon="6.60473">
        <ele>373.6</ele>
        <time>2025-10-28T08:57:49.000Z</time>
      </trkpt>
      <trkpt lat="43.54207" lon="6.60479">
        <ele>373.6</ele>
        <time>2025-10-28T08:57:50.000Z</time>
      </trkpt>
      <trkpt lat="43.54206" lon="6.60485">
        <ele>373.6</ele>
        <time>2025-10-28T08:57:51.000Z</time>
      </trkpt>
      <trkpt lat="43.54204" lon="6.60491">
        <ele>373.6</ele>
        <time>2025-10-28T08:57:52.000Z</time>
      </trkpt>
      <trkpt lat="43.54203" lon="6.60496">
        <ele>373.6</ele>
        <time>2025-10-28T08:57:53.000Z</time>
      </trkpt>
      <trkpt lat="43.54203" lon="6.60502">
        <ele>373.6</ele>
        <time>2025-10-28T08:57:54.000Z</time>
      </trkpt>
      <trkpt lat="43.54202" lon="6.60507">
        <ele>373.6</ele>
        <time>2025-10-28T08:57:55.000Z</time>
      </trkpt>
      <trkpt lat="43.54202" lon="6.60514">
        <ele>373.6</ele>
        <time>2025-10-28T08:57:56.000Z</time>
      </trkpt>
      <trkpt lat="43.54202" lon="6.60519">
        <ele>373.6</ele>
        <time>2025-10-28T08:57:57.000Z</time>
      </trkpt>
      <trkpt lat="43.54202" lon="6.60525">
        <ele>373.6</ele>
        <time>2025-10-28T08:57:58.000Z</time>
      </trkpt>
      <trkpt lat="43.54202" lon="6.6053">
        <ele>373.5</ele>
        <time>2025-10-28T08:57:59.000Z</time>
      </trkpt>
      <trkpt lat="43.54204" lon="6.60536">
        <ele>373.3</ele>
        <time>2025-10-28T08:58:00.000Z</time>
      </trkpt>
      <trkpt lat="43.54206" lon="6.60543">
        <ele>373.1</ele>
        <time>2025-10-28T08:58:01.000Z</time>
      </trkpt>
      <trkpt lat="43.54208" lon="6.60549">
        <ele>372.8</ele>
        <time>2025-10-28T08:58:02.000Z</time>
      </trkpt>
      <trkpt lat="43.5421" lon="6.60555">
        <ele>372.5</ele>
        <time>2025-10-28T08:58:03.000Z</time>
      </trkpt>
      <trkpt lat="43.54211" lon="6.6056">
        <ele>372.3</ele>
        <time>2025-10-28T08:58:04.000Z</time>
      </trkpt>
      <trkpt lat="43.54213" lon="6.60567">
        <ele>372</ele>
        <time>2025-10-28T08:58:05.000Z</time>
      </trkpt>
      <trkpt lat="43.54214" lon="6.60574">
        <ele>371.7</ele>
        <time>2025-10-28T08:58:06.000Z</time>
      </trkpt>
      <trkpt lat="43.54216" lon="6.60583">
        <ele>371.3</ele>
        <time>2025-10-28T08:58:07.000Z</time>
      </trkpt>
      <trkpt lat="43.54217" lon="6.6059">
        <ele>371.1</ele>
        <time>2025-10-28T08:58:08.000Z</time>
      </trkpt>
      <trkpt lat="43.54217" lon="6.60597">
        <ele>370.9</ele>
        <time>2025-10-28T08:58:09.000Z</time>
      </trkpt>
      <trkpt lat="43.54217" lon="6.60602">
        <ele>370.9</ele>
        <time>2025-10-28T08:58:10.000Z</time>
      </trkpt>
      <trkpt lat="43.54217" lon="6.6061">
        <ele>370.9</ele>
        <time>2025-10-28T08:58:11.000Z</time>
      </trkpt>
      <trkpt lat="43.54217" lon="6.60615">
        <ele>371</ele>
        <time>2025-10-28T08:58:12.000Z</time>
      </trkpt>
      <trkpt lat="43.54216" lon="6.6062">
        <ele>371.1</ele>
        <time>2025-10-28T08:58:13.000Z</time>
      </trkpt>
      <trkpt lat="43.54215" lon="6.60624">
        <ele>371.3</ele>
        <time>2025-10-28T08:58:14.000Z</time>
      </trkpt>
      <trkpt lat="43.54213" lon="6.60627">
        <ele>371.5</ele>
        <time>2025-10-28T08:58:15.000Z</time>
      </trkpt>
      <trkpt lat="43.54211" lon="6.60631">
        <ele>371.7</ele>
        <time>2025-10-28T08:58:16.000Z</time>
      </trkpt>
      <trkpt lat="43.54209" lon="6.60633">
        <ele>371.9</ele>
        <time>2025-10-28T08:58:17.000Z</time>
      </trkpt>
      <trkpt lat="43.54207" lon="6.60637">
        <ele>372.2</ele>
        <time>2025-10-28T08:58:18.000Z</time>
      </trkpt>
      <trkpt lat="43.54204" lon="6.60639">
        <ele>372.5</ele>
        <time>2025-10-28T08:58:19.000Z</time>
      </trkpt>
      <trkpt lat="43.54202" lon="6.6064">
        <ele>372.7</ele>
        <time>2025-10-28T08:58:20.000Z</time>
      </trkpt>
      <trkpt lat="43.542" lon="6.60642">
        <ele>373</ele>
        <time>2025-10-28T08:58:21.000Z</time>
      </trkpt>
      <trkpt lat="43.54198" lon="6.60643">
        <ele>373.2</ele>
        <time>2025-10-28T08:58:22.000Z</time>
      </trkpt>
      <trkpt lat="43.54195" lon="6.60644">
        <ele>373.5</ele>
        <time>2025-10-28T08:58:23.000Z</time>
      </trkpt>
      <trkpt lat="43.54193" lon="6.60645">
        <ele>373.8</ele>
        <time>2025-10-28T08:58:24.000Z</time>
      </trkpt>
      <trkpt lat="43.5419" lon="6.60646">
        <ele>374</ele>
        <time>2025-10-28T08:58:25.000Z</time>
      </trkpt>
      <trkpt lat="43.54188" lon="6.60647">
        <ele>374.2</ele>
        <time>2025-10-28T08:58:26.000Z</time>
      </trkpt>
      <trkpt lat="43.54186" lon="6.60648">
        <ele>374.5</ele>
        <time>2025-10-28T08:58:27.000Z</time>
      </trkpt>
      <trkpt lat="43.54184" lon="6.60648">
        <ele>374.7</ele>
        <time>2025-10-28T08:58:28.000Z</time>
      </trkpt>
      <trkpt lat="43.54183" lon="6.60649">
        <ele>374.8</ele>
        <time>2025-10-28T08:58:29.000Z</time>
      </trkpt>
      <trkpt lat="43.54182" lon="6.60649">
        <ele>374.9</ele>
        <time>2025-10-28T08:58:30.000Z</time>
      </trkpt>
      <trkpt lat="43.54182" lon="6.60649">
        <ele>374.9</ele>
        <time>2025-10-28T08:58:31.000Z</time>
      </trkpt>
      <trkpt lat="43.54182" lon="6.60649">
        <ele>374.9</ele>
        <time>2025-10-28T08:58:32.000Z</time>
      </trkpt>
      <trkpt lat="43.54182" lon="6.60649">
        <ele>374.9</ele>
        <time>2025-10-28T08:58:33.000Z</time>
      </trkpt>
      <trkpt lat="43.54182" lon="6.60649">
        <ele>374.9</ele>
        <time>2025-10-28T08:58:34.000Z</time>
      </trkpt>
      <trkpt lat="43.54183" lon="6.60649">
        <ele>374.9</ele>
        <time>2025-10-28T08:58:35.000Z</time>
      </trkpt>
      <trkpt lat="43.54183" lon="6.60649">
        <ele>374.9</ele>
        <time>2025-10-28T08:58:36.000Z</time>
      </trkpt>
      <trkpt lat="43.54183" lon="6.60649">
        <ele>374.9</ele>
        <time>2025-10-28T08:58:37.000Z</time>
      </trkpt>
      <trkpt lat="43.54183" lon="6.60649">
        <ele>374.9</ele>
        <time>2025-10-28T08:58:38.000Z</time>
      </trkpt>
      <trkpt lat="43.54183" lon="6.60649">
        <ele>374.9</ele>
        <time>2025-10-28T08:58:39.000Z</time>
      </trkpt>
      <trkpt lat="43.54183" lon="6.60649">
        <ele>374.9</ele>
        <time>2025-10-28T08:58:40.000Z</time>
      </trkpt>
      <trkpt lat="43.54183" lon="6.60649">
        <ele>375</ele>
        <time>2025-10-28T08:58:41.000Z</time>
      </trkpt>
      <trkpt lat="43.54182" lon="6.60648">
        <ele>375</ele>
        <time>2025-10-28T08:58:42.000Z</time>
      </trkpt>
      <trkpt lat="43.54182" lon="6.60648">
        <ele>375</ele>
        <time>2025-10-28T08:58:43.000Z</time>
      </trkpt>
      <trkpt lat="43.54182" lon="6.60648">
        <ele>375</ele>
        <time>2025-10-28T08:58:44.000Z</time>
      </trkpt>
      <trkpt lat="43.54182" lon="6.60648">
        <ele>375</ele>
        <time>2025-10-28T08:58:45.000Z</time>
      </trkpt>
      <trkpt lat="43.54182" lon="6.60648">
        <ele>375</ele>
        <time>2025-10-28T08:58:46.000Z</time>
      </trkpt>
      <trkpt lat="43.54182" lon="6.60648">
        <ele>375</ele>
        <time>2025-10-28T08:58:47.000Z</time>
      </trkpt>
      <trkpt lat="43.54182" lon="6.60648">
        <ele>375</ele>
        <time>2025-10-28T08:58:48.000Z</time>
      </trkpt>
      <trkpt lat="43.54182" lon="6.60648">
        <ele>375</ele>
        <time>2025-10-28T08:58:49.000Z</time>
      </trkpt>
      <trkpt lat="43.54182" lon="6.60648">
        <ele>375</ele>
        <time>2025-10-28T08:58:50.000Z</time>
      </trkpt>
      <trkpt lat="43.54182" lon="6.60648">
        <ele>375</ele>
        <time>2025-10-28T08:58:51.000Z</time>
      </trkpt>
      <trkpt lat="43.54182" lon="6.60648">
        <ele>375</ele>
        <time>2025-10-28T08:58:52.000Z</time>
      </trkpt>
      <trkpt lat="43.54183" lon="6.60648">
        <ele>375</ele>
        <time>2025-10-28T08:58:53.000Z</time>
      </trkpt>
      <trkpt lat="43.54183" lon="6.60648">
        <ele>375</ele>
        <time>2025-10-28T08:58:54.000Z</time>
      </trkpt>
      <trkpt lat="43.54183" lon="6.60648">
        <ele>375</ele>
        <time>2025-10-28T08:58:55.000Z</time>
      </trkpt>
      <trkpt lat="43.54183" lon="6.60648">
        <ele>375</ele>
        <time>2025-10-28T08:58:56.000Z</time>
      </trkpt>
      <trkpt lat="43.54183" lon="6.60648">
        <ele>375</ele>
        <time>2025-10-28T08:58:57.000Z</time>
      </trkpt>
      <trkpt lat="43.54183" lon="6.60648">
        <ele>375</ele>
        <time>2025-10-28T08:58:58.000Z</time>
      </trkpt>
      <trkpt lat="43.54183" lon="6.60648">
        <ele>375</ele>
        <time>2025-10-28T08:58:59.000Z</time>
      </trkpt>
      <trkpt lat="43.54183" lon="6.60648">
        <ele>375</ele>
        <time>2025-10-28T08:59:00.000Z</time>
      </trkpt>
      <trkpt lat="43.54183" lon="6.60648">
        <ele>375</ele>
        <time>2025-10-28T08:59:01.000Z</time>
      </trkpt>
      <trkpt lat="43.54183" lon="6.60648">
        <ele>375.1</ele>
        <time>2025-10-28T08:59:02.000Z</time>
      </trkpt>
      <trkpt lat="43.54183" lon="6.60648">
        <ele>375.1</ele>
        <time>2025-10-28T08:59:03.000Z</time>
      </trkpt>
      <trkpt lat="43.54183" lon="6.60648">
        <ele>375.1</ele>
        <time>2025-10-28T08:59:04.000Z</time>
      </trkpt>
      <trkpt lat="43.54183" lon="6.60648">
        <ele>375.1</ele>
        <time>2025-10-28T08:59:05.000Z</time>
      </trkpt>
      <trkpt lat="43.54183" lon="6.60648">
        <ele>375.1</ele>
        <time>2025-10-28T08:59:06.000Z</time>
      </trkpt>
      <trkpt lat="43.54183" lon="6.60648">
        <ele>375.1</ele>
        <time>2025-10-28T08:59:07.000Z</time>
      </trkpt>
      <trkpt lat="43.54183" lon="6.60648">
        <ele>375.1</ele>
        <time>2025-10-28T08:59:08.000Z</time>
      </trkpt>
      <trkpt lat="43.54183" lon="6.60648">
        <ele>375.1</ele>
        <time>2025-10-28T08:59:09.000Z</time>
      </trkpt>
      <trkpt lat="43.54183" lon="6.60648">
        <ele>375.1</ele>
        <time>2025-10-28T08:59:10.000Z</time>
      </trkpt>
      <trkpt lat="43.54183" lon="6.60648">
        <ele>375</ele>
        <time>2025-10-28T08:59:11.000Z</time>
      </trkpt>
      <trkpt lat="43.54183" lon="6.60648">
        <ele>375</ele>
        <time>2025-10-28T08:59:12.000Z</time>
      </trkpt>
      <trkpt lat="43.54183" lon="6.60648">
        <ele>375</ele>
        <time>2025-10-28T08:59:13.000Z</time>
      </trkpt>
      <trkpt lat="43.54183" lon="6.60648">
        <ele>375</ele>
        <time>2025-10-28T08:59:14.000Z</time>
      </trkpt>
      <trkpt lat="43.54183" lon="6.60648">
        <ele>375</ele>
        <time>2025-10-28T08:59:15.000Z</time>
      </trkpt>
      <trkpt lat="43.54183" lon="6.60648">
        <ele>375</ele>
        <time>2025-10-28T08:59:16.000Z</time>
      </trkpt>
      <trkpt lat="43.54183" lon="6.60648">
        <ele>375</ele>
        <time>2025-10-28T08:59:17.000Z</time>
      </trkpt>
      <trkpt lat="43.54183" lon="6.60648">
        <ele>375</ele>
        <time>2025-10-28T08:59:18.000Z</time>
      </trkpt>
      <trkpt lat="43.54183" lon="6.60648">
        <ele>375</ele>
        <time>2025-10-28T08:59:19.000Z</time>
      </trkpt>
      <trkpt lat="43.54183" lon="6.60648">
        <ele>375</ele>
        <time>2025-10-28T08:59:20.000Z</time>
      </trkpt>
      <trkpt lat="43.54183" lon="6.60648">
        <ele>375</ele>
        <time>2025-10-28T08:59:21.000Z</time>
      </trkpt>
      <trkpt lat="43.54183" lon="6.60648">
        <ele>375</ele>
        <time>2025-10-28T08:59:22.000Z</time>
      </trkpt>
      <trkpt lat="43.54183" lon="6.60648">
        <ele>375</ele>
        <time>2025-10-28T08:59:23.000Z</time>
      </trkpt>
      <trkpt lat="43.54183" lon="6.60648">
        <ele>375</ele>
        <time>2025-10-28T08:59:24.000Z</time>
      </trkpt>
      <trkpt lat="43.54183" lon="6.60648">
        <ele>375</ele>
        <time>2025-10-28T08:59:25.000Z</time>
      </trkpt>
      <trkpt lat="43.54183" lon="6.60648">
        <ele>375</ele>
        <time>2025-10-28T08:59:26.000Z</time>
      </trkpt>
      <trkpt lat="43.54183" lon="6.60648">
        <ele>375</ele>
        <time>2025-10-28T08:59:27.000Z</time>
      </trkpt>
      <trkpt lat="43.54183" lon="6.60648">
        <ele>375</ele>
        <time>2025-10-28T08:59:28.000Z</time>
      </trkpt>
      <trkpt lat="43.54183" lon="6.60648">
        <ele>375</ele>
        <time>2025-10-28T08:59:29.000Z</time>
      </trkpt>
      <trkpt lat="43.54183" lon="6.60648">
        <ele>375</ele>
        <time>2025-10-28T08:59:30.000Z</time>
      </trkpt>
      <trkpt lat="43.54183" lon="6.60648">
        <ele>375</ele>
        <time>2025-10-28T08:59:31.000Z</time>
      </trkpt>
      <trkpt lat="43.54183" lon="6.60648">
        <ele>375</ele>
        <time>2025-10-28T08:59:32.000Z</time>
      </trkpt>
      <trkpt lat="43.54183" lon="6.60648">
        <ele>375</ele>
        <time>2025-10-28T08:59:33.000Z</time>
      </trkpt>
      <trkpt lat="43.54183" lon="6.60648">
        <ele>375</ele>
        <time>2025-10-28T08:59:34.000Z</time>
      </trkpt>
      <trkpt lat="43.54183" lon="6.60648">
        <ele>375</ele>
        <time>2025-10-28T08:59:35.000Z</time>
      </trkpt>
      <trkpt lat="43.54183" lon="6.60648">
        <ele>375</ele>
        <time>2025-10-28T08:59:36.000Z</time>
      </trkpt>
      <trkpt lat="43.54183" lon="6.60648">
        <ele>374.9</ele>
        <time>2025-10-28T08:59:37.000Z</time>
      </trkpt>
      <trkpt lat="43.54183" lon="6.60648">
        <ele>374.9</ele>
        <time>2025-10-28T08:59:38.000Z</time>
      </trkpt>
      <trkpt lat="43.54183" lon="6.60648">
        <ele>374.9</ele>
        <time>2025-10-28T08:59:39.000Z</time>
      </trkpt>
      <trkpt lat="43.54183" lon="6.60648">
        <ele>374.9</ele>
        <time>2025-10-28T08:59:40.000Z</time>
      </trkpt>
      <trkpt lat="43.54183" lon="6.60647">
        <ele>374.9</ele>
        <time>2025-10-28T08:59:41.000Z</time>
      </trkpt>
      <trkpt lat="43.54183" lon="6.60647">
        <ele>374.9</ele>
        <time>2025-10-28T08:59:42.000Z</time>
      </trkpt>
      <trkpt lat="43.54183" lon="6.60647">
        <ele>374.9</ele>
        <time>2025-10-28T08:59:43.000Z</time>
      </trkpt>
      <trkpt lat="43.54183" lon="6.60647">
        <ele>374.9</ele>
        <time>2025-10-28T08:59:44.000Z</time>
      </trkpt>
      <trkpt lat="43.54183" lon="6.60647">
        <ele>374.9</ele>
        <time>2025-10-28T08:59:45.000Z</time>
      </trkpt>
      <trkpt lat="43.54183" lon="6.60647">
        <ele>374.9</ele>
        <time>2025-10-28T08:59:46.000Z</time>
      </trkpt>
      <trkpt lat="43.54183" lon="6.60647">
        <ele>374.9</ele>
        <time>2025-10-28T08:59:47.000Z</time>
      </trkpt>
      <trkpt lat="43.54183" lon="6.60647">
        <ele>374.9</ele>
        <time>2025-10-28T08:59:48.000Z</time>
      </trkpt>
      <trkpt lat="43.54183" lon="6.60647">
        <ele>374.9</ele>
        <time>2025-10-28T08:59:49.000Z</time>
      </trkpt>
      <trkpt lat="43.54183" lon="6.60647">
        <ele>374.9</ele>
        <time>2025-10-28T08:59:50.000Z</time>
      </trkpt>
      <trkpt lat="43.54183" lon="6.60647">
        <ele>374.9</ele>
        <time>2025-10-28T08:59:51.000Z</time>
      </trkpt>
      <trkpt lat="43.54183" lon="6.60647">
        <ele>374.9</ele>
        <time>2025-10-28T08:59:52.000Z</time>
      </trkpt>
      <trkpt lat="43.54183" lon="6.60647">
        <ele>374.9</ele>
        <time>2025-10-28T08:59:53.000Z</time>
      </trkpt>
      <trkpt lat="43.54183" lon="6.60647">
        <ele>374.9</ele>
        <time>2025-10-28T08:59:54.000Z</time>
      </trkpt>
      <trkpt lat="43.54183" lon="6.60647">
        <ele>374.9</ele>
        <time>2025-10-28T08:59:55.000Z</time>
      </trkpt>
      <trkpt lat="43.54183" lon="6.60647">
        <ele>374.9</ele>
        <time>2025-10-28T08:59:56.000Z</time>
      </trkpt>
      <trkpt lat="43.54183" lon="6.60647">
        <ele>374.9</ele>
        <time>2025-10-28T08:59:57.000Z</time>
      </trkpt>
      <trkpt lat="43.54183" lon="6.60647">
        <ele>374.9</ele>
        <time>2025-10-28T08:59:58.000Z</time>
      </trkpt>
      <trkpt lat="43.54183" lon="6.60647">
        <ele>374.9</ele>
        <time>2025-10-28T08:59:59.000Z</time>
      </trkpt>
      <trkpt lat="43.54183" lon="6.60647">
        <ele>374.8</ele>
        <time>2025-10-28T09:00:00.000Z</time>
      </trkpt>
      <trkpt lat="43.54183" lon="6.60647">
        <ele>374.8</ele>
        <time>2025-10-28T09:00:01.000Z</time>
      </trkpt>
      <trkpt lat="43.54183" lon="6.60647">
        <ele>374.8</ele>
        <time>2025-10-28T09:00:02.000Z</time>
      </trkpt>
      <trkpt lat="43.54183" lon="6.60647">
        <ele>374.8</ele>
        <time>2025-10-28T09:00:03.000Z</time>
      </trkpt>
      <trkpt lat="43.54183" lon="6.60647">
        <ele>374.8</ele>
        <time>2025-10-28T09:00:04.000Z</time>
      </trkpt>
      <trkpt lat="43.54183" lon="6.60647">
        <ele>374.8</ele>
        <time>2025-10-28T09:00:05.000Z</time>
      </trkpt>
      <trkpt lat="43.54183" lon="6.60647">
        <ele>374.8</ele>
        <time>2025-10-28T09:00:06.000Z</time>
      </trkpt>
      <trkpt lat="43.54183" lon="6.60647">
        <ele>374.8</ele>
        <time>2025-10-28T09:00:07.000Z</time>
      </trkpt>
      <trkpt lat="43.54183" lon="6.60647">
        <ele>374.8</ele>
        <time>2025-10-28T09:00:08.000Z</time>
      </trkpt>
      <trkpt lat="43.54183" lon="6.60647">
        <ele>374.8</ele>
        <time>2025-10-28T09:00:09.000Z</time>
      </trkpt>
      <trkpt lat="43.54183" lon="6.60647">
        <ele>374.8</ele>
        <time>2025-10-28T09:00:10.000Z</time>
      </trkpt>
      <trkpt lat="43.54183" lon="6.60647">
        <ele>374.8</ele>
        <time>2025-10-28T09:00:11.000Z</time>
      </trkpt>
      <trkpt lat="43.54183" lon="6.60647">
        <ele>374.8</ele>
        <time>2025-10-28T09:00:12.000Z</time>
      </trkpt>
      <trkpt lat="43.54183" lon="6.60647">
        <ele>374.8</ele>
        <time>2025-10-28T09:00:13.000Z</time>
      </trkpt>
      <trkpt lat="43.54183" lon="6.60647">
        <ele>374.8</ele>
        <time>2025-10-28T09:00:14.000Z</time>
      </trkpt>
      <trkpt lat="43.54184" lon="6.60648">
        <ele>374.8</ele>
        <time>2025-10-28T09:00:15.000Z</time>
      </trkpt>
      <trkpt lat="43.54184" lon="6.60648">
        <ele>374.8</ele>
        <time>2025-10-28T09:00:16.000Z</time>
      </trkpt>
      <trkpt lat="43.54184" lon="6.60648">
        <ele>374.7</ele>
        <time>2025-10-28T09:00:17.000Z</time>
      </trkpt>
      <trkpt lat="43.54184" lon="6.60648">
        <ele>374.7</ele>
        <time>2025-10-28T09:00:18.000Z</time>
      </trkpt>
      <trkpt lat="43.54184" lon="6.60648">
        <ele>374.7</ele>
        <time>2025-10-28T09:00:19.000Z</time>
      </trkpt>
      <trkpt lat="43.54184" lon="6.60649">
        <ele>374.7</ele>
        <time>2025-10-28T09:00:20.000Z</time>
      </trkpt>
      <trkpt lat="43.54184" lon="6.60649">
        <ele>374.6</ele>
        <time>2025-10-28T09:00:21.000Z</time>
      </trkpt>
      <trkpt lat="43.54184" lon="6.60649">
        <ele>374.6</ele>
        <time>2025-10-28T09:00:22.000Z</time>
      </trkpt>
      <trkpt lat="43.54184" lon="6.60649">
        <ele>374.5</ele>
        <time>2025-10-28T09:00:23.000Z</time>
      </trkpt>
      <trkpt lat="43.54185" lon="6.60649">
        <ele>374.5</ele>
        <time>2025-10-28T09:00:24.000Z</time>
      </trkpt>
      <trkpt lat="43.54185" lon="6.60649">
        <ele>374.4</ele>
        <time>2025-10-28T09:00:25.000Z</time>
      </trkpt>
      <trkpt lat="43.54185" lon="6.60649">
        <ele>374.3</ele>
        <time>2025-10-28T09:00:26.000Z</time>
      </trkpt>
      <trkpt lat="43.54186" lon="6.60649">
        <ele>374.2</ele>
        <time>2025-10-28T09:00:27.000Z</time>
      </trkpt>
      <trkpt lat="43.54188" lon="6.6065">
        <ele>373.8</ele>
        <time>2025-10-28T09:00:28.000Z</time>
      </trkpt>
      <trkpt lat="43.54191" lon="6.6065">
        <ele>373.4</ele>
        <time>2025-10-28T09:00:29.000Z</time>
      </trkpt>
      <trkpt lat="43.54193" lon="6.6065">
        <ele>373</ele>
        <time>2025-10-28T09:00:30.000Z</time>
      </trkpt>
      <trkpt lat="43.54196" lon="6.60649">
        <ele>372.4</ele>
        <time>2025-10-28T09:00:31.000Z</time>
      </trkpt>
      <trkpt lat="43.54199" lon="6.60648">
        <ele>371.8</ele>
        <time>2025-10-28T09:00:32.000Z</time>
      </trkpt>
      <trkpt lat="43.54203" lon="6.60647">
        <ele>371.2</ele>
        <time>2025-10-28T09:00:33.000Z</time>
      </trkpt>
      <trkpt lat="43.54206" lon="6.60647">
        <ele>370.5</ele>
        <time>2025-10-28T09:00:34.000Z</time>
      </trkpt>
      <trkpt lat="43.54209" lon="6.60646">
        <ele>369.9</ele>
        <time>2025-10-28T09:00:35.000Z</time>
      </trkpt>
      <trkpt lat="43.54213" lon="6.60645">
        <ele>369.1</ele>
        <time>2025-10-28T09:00:36.000Z</time>
      </trkpt>
      <trkpt lat="43.54216" lon="6.60643">
        <ele>368.5</ele>
        <time>2025-10-28T09:00:37.000Z</time>
      </trkpt>
      <trkpt lat="43.54219" lon="6.60641">
        <ele>367.9</ele>
        <time>2025-10-28T09:00:38.000Z</time>
      </trkpt>
      <trkpt lat="43.54222" lon="6.60638">
        <ele>367.4</ele>
        <time>2025-10-28T09:00:39.000Z</time>
      </trkpt>
      <trkpt lat="43.54225" lon="6.60635">
        <ele>366.9</ele>
        <time>2025-10-28T09:00:40.000Z</time>
      </trkpt>
      <trkpt lat="43.54228" lon="6.60632">
        <ele>366.4</ele>
        <time>2025-10-28T09:00:41.000Z</time>
      </trkpt>
      <trkpt lat="43.54231" lon="6.60628">
        <ele>366</ele>
        <time>2025-10-28T09:00:42.000Z</time>
      </trkpt>
      <trkpt lat="43.54234" lon="6.60625">
        <ele>365.6</ele>
        <time>2025-10-28T09:00:43.000Z</time>
      </trkpt>
      <trkpt lat="43.54237" lon="6.60621">
        <ele>365.2</ele>
        <time>2025-10-28T09:00:44.000Z</time>
      </trkpt>
      <trkpt lat="43.54241" lon="6.60619">
        <ele>364.9</ele>
        <time>2025-10-28T09:00:45.000Z</time>
      </trkpt>
      <trkpt lat="43.54245" lon="6.60617">
        <ele>364.5</ele>
        <time>2025-10-28T09:00:46.000Z</time>
      </trkpt>
      <trkpt lat="43.54248" lon="6.60615">
        <ele>364.2</ele>
        <time>2025-10-28T09:00:47.000Z</time>
      </trkpt>
      <trkpt lat="43.5425" lon="6.60614">
        <ele>364</ele>
        <time>2025-10-28T09:00:48.000Z</time>
      </trkpt>
      <trkpt lat="43.54253" lon="6.60612">
        <ele>363.7</ele>
        <time>2025-10-28T09:00:49.000Z</time>
      </trkpt>
      <trkpt lat="43.54255" lon="6.6061">
        <ele>363.5</ele>
        <time>2025-10-28T09:00:50.000Z</time>
      </trkpt>
      <trkpt lat="43.54257" lon="6.60608">
        <ele>363.2</ele>
        <time>2025-10-28T09:00:51.000Z</time>
      </trkpt>
      <trkpt lat="43.5426" lon="6.60607">
        <ele>362.9</ele>
        <time>2025-10-28T09:00:52.000Z</time>
      </trkpt>
      <trkpt lat="43.54262" lon="6.60606">
        <ele>362.6</ele>
        <time>2025-10-28T09:00:53.000Z</time>
      </trkpt>
      <trkpt lat="43.54264" lon="6.60605">
        <ele>362.2</ele>
        <time>2025-10-28T09:00:54.000Z</time>
      </trkpt>
      <trkpt lat="43.54267" lon="6.60603">
        <ele>361.7</ele>
        <time>2025-10-28T09:00:55.000Z</time>
      </trkpt>
      <trkpt lat="43.5427" lon="6.60602">
        <ele>361.1</ele>
        <time>2025-10-28T09:00:56.000Z</time>
      </trkpt>
      <trkpt lat="43.54273" lon="6.606">
        <ele>360.6</ele>
        <time>2025-10-28T09:00:57.000Z</time>
      </trkpt>
      <trkpt lat="43.54276" lon="6.60598">
        <ele>360</ele>
        <time>2025-10-28T09:00:58.000Z</time>
      </trkpt>
      <trkpt lat="43.54278" lon="6.60597">
        <ele>359.6</ele>
        <time>2025-10-28T09:00:59.000Z</time>
      </trkpt>
      <trkpt lat="43.54281" lon="6.60596">
        <ele>359.2</ele>
        <time>2025-10-28T09:01:00.000Z</time>
      </trkpt>
      <trkpt lat="43.54284" lon="6.60595">
        <ele>358.7</ele>
        <time>2025-10-28T09:01:01.000Z</time>
      </trkpt>
      <trkpt lat="43.54288" lon="6.60594">
        <ele>358.3</ele>
        <time>2025-10-28T09:01:02.000Z</time>
      </trkpt>
      <trkpt lat="43.54291" lon="6.60592">
        <ele>357.8</ele>
        <time>2025-10-28T09:01:03.000Z</time>
      </trkpt>
      <trkpt lat="43.54295" lon="6.6059">
        <ele>357.3</ele>
        <time>2025-10-28T09:01:04.000Z</time>
      </trkpt>
      <trkpt lat="43.54299" lon="6.60587">
        <ele>356.9</ele>
        <time>2025-10-28T09:01:05.000Z</time>
      </trkpt>
      <trkpt lat="43.54303" lon="6.60584">
        <ele>356.5</ele>
        <time>2025-10-28T09:01:06.000Z</time>
      </trkpt>
      <trkpt lat="43.54307" lon="6.60581">
        <ele>356</ele>
        <time>2025-10-28T09:01:07.000Z</time>
      </trkpt>
      <trkpt lat="43.5431" lon="6.60578">
        <ele>355.5</ele>
        <time>2025-10-28T09:01:08.000Z</time>
      </trkpt>
      <trkpt lat="43.54311" lon="6.60574">
        <ele>355.1</ele>
        <time>2025-10-28T09:01:09.000Z</time>
      </trkpt>
      <trkpt lat="43.54313" lon="6.60569">
        <ele>354.7</ele>
        <time>2025-10-28T09:01:10.000Z</time>
      </trkpt>
      <trkpt lat="43.54313" lon="6.60565">
        <ele>354.3</ele>
        <time>2025-10-28T09:01:11.000Z</time>
      </trkpt>
      <trkpt lat="43.54314" lon="6.6056">
        <ele>353.9</ele>
        <time>2025-10-28T09:01:12.000Z</time>
      </trkpt>
      <trkpt lat="43.54314" lon="6.60555">
        <ele>353.5</ele>
        <time>2025-10-28T09:01:13.000Z</time>
      </trkpt>
      <trkpt lat="43.54314" lon="6.60549">
        <ele>353.1</ele>
        <time>2025-10-28T09:01:14.000Z</time>
      </trkpt>
      <trkpt lat="43.54313" lon="6.60543">
        <ele>352.7</ele>
        <time>2025-10-28T09:01:15.000Z</time>
      </trkpt>
      <trkpt lat="43.54313" lon="6.60538">
        <ele>352.4</ele>
        <time>2025-10-28T09:01:16.000Z</time>
      </trkpt>
      <trkpt lat="43.54313" lon="6.60532">
        <ele>352.2</ele>
        <time>2025-10-28T09:01:17.000Z</time>
      </trkpt>
      <trkpt lat="43.54313" lon="6.60527">
        <ele>352</ele>
        <time>2025-10-28T09:01:18.000Z</time>
      </trkpt>
      <trkpt lat="43.54312" lon="6.60521">
        <ele>351.9</ele>
        <time>2025-10-28T09:01:19.000Z</time>
      </trkpt>
      <trkpt lat="43.54311" lon="6.60516">
        <ele>351.7</ele>
        <time>2025-10-28T09:01:20.000Z</time>
      </trkpt>
      <trkpt lat="43.5431" lon="6.60512">
        <ele>351.6</ele>
        <time>2025-10-28T09:01:21.000Z</time>
      </trkpt>
      <trkpt lat="43.54308" lon="6.60507">
        <ele>351.5</ele>
        <time>2025-10-28T09:01:22.000Z</time>
      </trkpt>
      <trkpt lat="43.54307" lon="6.60504">
        <ele>351.3</ele>
        <time>2025-10-28T09:01:23.000Z</time>
      </trkpt>
      <trkpt lat="43.54306" lon="6.60499">
        <ele>351.1</ele>
        <time>2025-10-28T09:01:24.000Z</time>
      </trkpt>
      <trkpt lat="43.54305" lon="6.60494">
        <ele>350.8</ele>
        <time>2025-10-28T09:01:25.000Z</time>
      </trkpt>
      <trkpt lat="43.54304" lon="6.60488">
        <ele>350.4</ele>
        <time>2025-10-28T09:01:26.000Z</time>
      </trkpt>
      <trkpt lat="43.54303" lon="6.60482">
        <ele>350.1</ele>
        <time>2025-10-28T09:01:27.000Z</time>
      </trkpt>
      <trkpt lat="43.54301" lon="6.60477">
        <ele>349.7</ele>
        <time>2025-10-28T09:01:28.000Z</time>
      </trkpt>
      <trkpt lat="43.54298" lon="6.60472">
        <ele>349.4</ele>
        <time>2025-10-28T09:01:29.000Z</time>
      </trkpt>
      <trkpt lat="43.54296" lon="6.60467">
        <ele>349.1</ele>
        <time>2025-10-28T09:01:30.000Z</time>
      </trkpt>
      <trkpt lat="43.54294" lon="6.60463">
        <ele>348.8</ele>
        <time>2025-10-28T09:01:31.000Z</time>
      </trkpt>
      <trkpt lat="43.54292" lon="6.60458">
        <ele>348.5</ele>
        <time>2025-10-28T09:01:32.000Z</time>
      </trkpt>
      <trkpt lat="43.54291" lon="6.60453">
        <ele>348.2</ele>
        <time>2025-10-28T09:01:33.000Z</time>
      </trkpt>
      <trkpt lat="43.5429" lon="6.60449">
        <ele>347.9</ele>
        <time>2025-10-28T09:01:34.000Z</time>
      </trkpt>
      <trkpt lat="43.54289" lon="6.60443">
        <ele>347.6</ele>
        <time>2025-10-28T09:01:35.000Z</time>
      </trkpt>
      <trkpt lat="43.54289" lon="6.6044">
        <ele>347.4</ele>
        <time>2025-10-28T09:01:36.000Z</time>
      </trkpt>
      <trkpt lat="43.5429" lon="6.60435">
        <ele>347.2</ele>
        <time>2025-10-28T09:01:37.000Z</time>
      </trkpt>
      <trkpt lat="43.5429" lon="6.6043">
        <ele>347</ele>
        <time>2025-10-28T09:01:38.000Z</time>
      </trkpt>
      <trkpt lat="43.54291" lon="6.60424">
        <ele>346.7</ele>
        <time>2025-10-28T09:01:39.000Z</time>
      </trkpt>
      <trkpt lat="43.54292" lon="6.60419">
        <ele>346.5</ele>
        <time>2025-10-28T09:01:40.000Z</time>
      </trkpt>
      <trkpt lat="43.54292" lon="6.60417">
        <ele>346.3</ele>
        <time>2025-10-28T09:01:41.000Z</time>
      </trkpt>
      <trkpt lat="43.54293" lon="6.60415">
        <ele>346.2</ele>
        <time>2025-10-28T09:01:42.000Z</time>
      </trkpt>
      <trkpt lat="43.54293" lon="6.60414">
        <ele>346.2</ele>
        <time>2025-10-28T09:01:43.000Z</time>
      </trkpt>
      <trkpt lat="43.54293" lon="6.60414">
        <ele>346.1</ele>
        <time>2025-10-28T09:01:44.000Z</time>
      </trkpt>
      <trkpt lat="43.54294" lon="6.60414">
        <ele>346.1</ele>
        <time>2025-10-28T09:01:45.000Z</time>
      </trkpt>
      <trkpt lat="43.54294" lon="6.60414">
        <ele>346.1</ele>
        <time>2025-10-28T09:01:46.000Z</time>
      </trkpt>
      <trkpt lat="43.54294" lon="6.60414">
        <ele>346</ele>
        <time>2025-10-28T09:01:47.000Z</time>
      </trkpt>
      <trkpt lat="43.54295" lon="6.60414">
        <ele>345.9</ele>
        <time>2025-10-28T09:01:48.000Z</time>
      </trkpt>
      <trkpt lat="43.54296" lon="6.60413">
        <ele>345.8</ele>
        <time>2025-10-28T09:01:49.000Z</time>
      </trkpt>
      <trkpt lat="43.54297" lon="6.60413">
        <ele>345.7</ele>
        <time>2025-10-28T09:01:50.000Z</time>
      </trkpt>
      <trkpt lat="43.54298" lon="6.60411">
        <ele>345.6</ele>
        <time>2025-10-28T09:01:51.000Z</time>
      </trkpt>
      <trkpt lat="43.54298" lon="6.60411">
        <ele>345.4</ele>
        <time>2025-10-28T09:01:52.000Z</time>
      </trkpt>
      <trkpt lat="43.54299" lon="6.60409">
        <ele>345.3</ele>
        <time>2025-10-28T09:01:53.000Z</time>
      </trkpt>
      <trkpt lat="43.543" lon="6.60409">
        <ele>345.2</ele>
        <time>2025-10-28T09:01:54.000Z</time>
      </trkpt>
      <trkpt lat="43.543" lon="6.60407">
        <ele>345</ele>
        <time>2025-10-28T09:01:55.000Z</time>
      </trkpt>
      <trkpt lat="43.543" lon="6.60406">
        <ele>344.9</ele>
        <time>2025-10-28T09:01:56.000Z</time>
      </trkpt>
      <trkpt lat="43.543" lon="6.60405">
        <ele>344.8</ele>
        <time>2025-10-28T09:01:57.000Z</time>
      </trkpt>
      <trkpt lat="43.54301" lon="6.60404">
        <ele>344.7</ele>
        <time>2025-10-28T09:01:58.000Z</time>
      </trkpt>
      <trkpt lat="43.54301" lon="6.60404">
        <ele>344.6</ele>
        <time>2025-10-28T09:01:59.000Z</time>
      </trkpt>
      <trkpt lat="43.54301" lon="6.60404">
        <ele>344.6</ele>
        <time>2025-10-28T09:02:00.000Z</time>
      </trkpt>
      <trkpt lat="43.54301" lon="6.60403">
        <ele>344.5</ele>
        <time>2025-10-28T09:02:01.000Z</time>
      </trkpt>
      <trkpt lat="43.54301" lon="6.60403">
        <ele>344.5</ele>
        <time>2025-10-28T09:02:02.000Z</time>
      </trkpt>
      <trkpt lat="43.54301" lon="6.60403">
        <ele>344.4</ele>
        <time>2025-10-28T09:02:03.000Z</time>
      </trkpt>
      <trkpt lat="43.54301" lon="6.60403">
        <ele>344.4</ele>
        <time>2025-10-28T09:02:04.000Z</time>
      </trkpt>
      <trkpt lat="43.54301" lon="6.60402">
        <ele>344.4</ele>
        <time>2025-10-28T09:02:05.000Z</time>
      </trkpt>
      <trkpt lat="43.54301" lon="6.60402">
        <ele>344.3</ele>
        <time>2025-10-28T09:02:06.000Z</time>
      </trkpt>
      <trkpt lat="43.54301" lon="6.60402">
        <ele>344.3</ele>
        <time>2025-10-28T09:02:07.000Z</time>
      </trkpt>
      <trkpt lat="43.54301" lon="6.60402">
        <ele>344.3</ele>
        <time>2025-10-28T09:02:08.000Z</time>
      </trkpt>
      <trkpt lat="43.543" lon="6.60401">
        <ele>344.2</ele>
        <time>2025-10-28T09:02:09.000Z</time>
      </trkpt>
      <trkpt lat="43.543" lon="6.60401">
        <ele>344.1</ele>
        <time>2025-10-28T09:02:10.000Z</time>
      </trkpt>
      <trkpt lat="43.543" lon="6.604">
        <ele>344.1</ele>
        <time>2025-10-28T09:02:11.000Z</time>
      </trkpt>
      <trkpt lat="43.543" lon="6.604">
        <ele>344</ele>
        <time>2025-10-28T09:02:12.000Z</time>
      </trkpt>
      <trkpt lat="43.543" lon="6.60399">
        <ele>343.9</ele>
        <time>2025-10-28T09:02:13.000Z</time>
      </trkpt>
      <trkpt lat="43.543" lon="6.60399">
        <ele>343.9</ele>
        <time>2025-10-28T09:02:14.000Z</time>
      </trkpt>
      <trkpt lat="43.543" lon="6.60399">
        <ele>343.8</ele>
        <time>2025-10-28T09:02:15.000Z</time>
      </trkpt>
      <trkpt lat="43.543" lon="6.604">
        <ele>343.7</ele>
        <time>2025-10-28T09:02:16.000Z</time>
      </trkpt>
      <trkpt lat="43.54301" lon="6.60402">
        <ele>343.5</ele>
        <time>2025-10-28T09:02:17.000Z</time>
      </trkpt>
      <trkpt lat="43.54301" lon="6.60402">
        <ele>343.3</ele>
        <time>2025-10-28T09:02:18.000Z</time>
      </trkpt>
      <trkpt lat="43.54302" lon="6.60402">
        <ele>343.3</ele>
        <time>2025-10-28T09:02:19.000Z</time>
      </trkpt>
      <trkpt lat="43.54303" lon="6.60402">
        <ele>343.1</ele>
        <time>2025-10-28T09:02:20.000Z</time>
      </trkpt>
      <trkpt lat="43.54303" lon="6.60402">
        <ele>343</ele>
        <time>2025-10-28T09:02:21.000Z</time>
      </trkpt>
      <trkpt lat="43.54304" lon="6.60402">
        <ele>342.9</ele>
        <time>2025-10-28T09:02:22.000Z</time>
      </trkpt>
      <trkpt lat="43.54304" lon="6.60402">
        <ele>342.8</ele>
        <time>2025-10-28T09:02:23.000Z</time>
      </trkpt>
      <trkpt lat="43.54304" lon="6.60402">
        <ele>342.8</ele>
        <time>2025-10-28T09:02:24.000Z</time>
      </trkpt>
      <trkpt lat="43.54304" lon="6.60402">
        <ele>342.8</ele>
        <time>2025-10-28T09:02:25.000Z</time>
      </trkpt>
      <trkpt lat="43.54304" lon="6.60402">
        <ele>342.7</ele>
        <time>2025-10-28T09:02:26.000Z</time>
      </trkpt>
      <trkpt lat="43.54304" lon="6.60403">
        <ele>342.7</ele>
        <time>2025-10-28T09:02:27.000Z</time>
      </trkpt>
      <trkpt lat="43.54304" lon="6.60403">
        <ele>342.6</ele>
        <time>2025-10-28T09:02:28.000Z</time>
      </trkpt>
      <trkpt lat="43.54304" lon="6.60403">
        <ele>342.5</ele>
        <time>2025-10-28T09:02:29.000Z</time>
      </trkpt>
      <trkpt lat="43.54304" lon="6.60403">
        <ele>342.5</ele>
        <time>2025-10-28T09:02:30.000Z</time>
      </trkpt>
      <trkpt lat="43.54304" lon="6.60403">
        <ele>342.5</ele>
        <time>2025-10-28T09:02:31.000Z</time>
      </trkpt>
      <trkpt lat="43.54304" lon="6.60403">
        <ele>342.5</ele>
        <time>2025-10-28T09:02:32.000Z</time>
      </trkpt>
      <trkpt lat="43.54304" lon="6.60403">
        <ele>342.5</ele>
        <time>2025-10-28T09:02:33.000Z</time>
      </trkpt>
      <trkpt lat="43.54304" lon="6.60403">
        <ele>342.5</ele>
        <time>2025-10-28T09:02:34.000Z</time>
      </trkpt>
      <trkpt lat="43.54304" lon="6.60403">
        <ele>342.5</ele>
        <time>2025-10-28T09:02:35.000Z</time>
      </trkpt>
      <trkpt lat="43.54304" lon="6.60403">
        <ele>342.5</ele>
        <time>2025-10-28T09:02:36.000Z</time>
      </trkpt>
      <trkpt lat="43.54304" lon="6.60403">
        <ele>342.5</ele>
        <time>2025-10-28T09:02:37.000Z</time>
      </trkpt>
      <trkpt lat="43.54304" lon="6.60403">
        <ele>342.5</ele>
        <time>2025-10-28T09:02:38.000Z</time>
      </trkpt>
      <trkpt lat="43.54304" lon="6.60403">
        <ele>342.5</ele>
        <time>2025-10-28T09:02:39.000Z</time>
      </trkpt>
      <trkpt lat="43.54304" lon="6.60403">
        <ele>342.5</ele>
        <time>2025-10-28T09:02:40.000Z</time>
      </trkpt>
      <trkpt lat="43.54304" lon="6.60403">
        <ele>342.5</ele>
        <time>2025-10-28T09:02:41.000Z</time>
      </trkpt>
      <trkpt lat="43.54304" lon="6.60403">
        <ele>342.5</ele>
        <time>2025-10-28T09:02:42.000Z</time>
      </trkpt>
      <trkpt lat="43.54304" lon="6.60403">
        <ele>342.5</ele>
        <time>2025-10-28T09:02:43.000Z</time>
      </trkpt>
      <trkpt lat="43.54304" lon="6.60402">
        <ele>342.4</ele>
        <time>2025-10-28T09:02:44.000Z</time>
      </trkpt>
      <trkpt lat="43.54304" lon="6.60402">
        <ele>342.4</ele>
        <time>2025-10-28T09:02:45.000Z</time>
      </trkpt>
      <trkpt lat="43.54304" lon="6.60402">
        <ele>342.4</ele>
        <time>2025-10-28T09:02:46.000Z</time>
      </trkpt>
      <trkpt lat="43.54304" lon="6.60402">
        <ele>342.4</ele>
        <time>2025-10-28T09:02:47.000Z</time>
      </trkpt>
      <trkpt lat="43.54304" lon="6.60402">
        <ele>342.4</ele>
        <time>2025-10-28T09:02:48.000Z</time>
      </trkpt>
      <trkpt lat="43.54304" lon="6.60402">
        <ele>342.4</ele>
        <time>2025-10-28T09:02:49.000Z</time>
      </trkpt>
      <trkpt lat="43.54304" lon="6.60402">
        <ele>342.4</ele>
        <time>2025-10-28T09:02:50.000Z</time>
      </trkpt>
      <trkpt lat="43.54304" lon="6.60402">
        <ele>342.4</ele>
        <time>2025-10-28T09:02:51.000Z</time>
      </trkpt>
      <trkpt lat="43.54304" lon="6.60402">
        <ele>342.4</ele>
        <time>2025-10-28T09:02:52.000Z</time>
      </trkpt>
      <trkpt lat="43.54303" lon="6.60402">
        <ele>342.3</ele>
        <time>2025-10-28T09:02:53.000Z</time>
      </trkpt>
      <trkpt lat="43.54303" lon="6.60402">
        <ele>342.3</ele>
        <time>2025-10-28T09:02:54.000Z</time>
      </trkpt>
      <trkpt lat="43.54303" lon="6.60401">
        <ele>342.3</ele>
        <time>2025-10-28T09:02:55.000Z</time>
      </trkpt>
      <trkpt lat="43.54303" lon="6.60401">
        <ele>342.3</ele>
        <time>2025-10-28T09:02:56.000Z</time>
      </trkpt>
      <trkpt lat="43.54303" lon="6.60401">
        <ele>342.3</ele>
        <time>2025-10-28T09:02:57.000Z</time>
      </trkpt>
      <trkpt lat="43.54303" lon="6.60401">
        <ele>342.3</ele>
        <time>2025-10-28T09:02:58.000Z</time>
      </trkpt>
      <trkpt lat="43.54303" lon="6.60401">
        <ele>342.3</ele>
        <time>2025-10-28T09:02:59.000Z</time>
      </trkpt>
      <trkpt lat="43.54303" lon="6.60401">
        <ele>342.3</ele>
        <time>2025-10-28T09:03:00.000Z</time>
      </trkpt>
      <trkpt lat="43.54303" lon="6.60401">
        <ele>342.3</ele>
        <time>2025-10-28T09:03:01.000Z</time>
      </trkpt>
      <trkpt lat="43.54303" lon="6.60401">
        <ele>342.3</ele>
        <time>2025-10-28T09:03:02.000Z</time>
      </trkpt>
      <trkpt lat="43.54303" lon="6.60401">
        <ele>342.3</ele>
        <time>2025-10-28T09:03:03.000Z</time>
      </trkpt>
      <trkpt lat="43.54303" lon="6.60401">
        <ele>342.2</ele>
        <time>2025-10-28T09:03:04.000Z</time>
      </trkpt>
      <trkpt lat="43.54303" lon="6.60401">
        <ele>342.2</ele>
        <time>2025-10-28T09:03:05.000Z</time>
      </trkpt>
      <trkpt lat="43.54303" lon="6.60401">
        <ele>342.2</ele>
        <time>2025-10-28T09:03:06.000Z</time>
      </trkpt>
      <trkpt lat="43.54303" lon="6.60401">
        <ele>342.2</ele>
        <time>2025-10-28T09:03:07.000Z</time>
      </trkpt>
      <trkpt lat="43.54303" lon="6.60401">
        <ele>342.2</ele>
        <time>2025-10-28T09:03:08.000Z</time>
      </trkpt>
      <trkpt lat="43.54303" lon="6.604">
        <ele>342.2</ele>
        <time>2025-10-28T09:03:09.000Z</time>
      </trkpt>
      <trkpt lat="43.54303" lon="6.604">
        <ele>342.1</ele>
        <time>2025-10-28T09:03:10.000Z</time>
      </trkpt>
      <trkpt lat="43.54303" lon="6.604">
        <ele>342.1</ele>
        <time>2025-10-28T09:03:11.000Z</time>
      </trkpt>
      <trkpt lat="43.54303" lon="6.604">
        <ele>342.1</ele>
        <time>2025-10-28T09:03:12.000Z</time>
      </trkpt>
      <trkpt lat="43.54303" lon="6.604">
        <ele>342.1</ele>
        <time>2025-10-28T09:03:13.000Z</time>
      </trkpt>
      <trkpt lat="43.54303" lon="6.604">
        <ele>342.1</ele>
        <time>2025-10-28T09:03:14.000Z</time>
      </trkpt>
      <trkpt lat="43.54302" lon="6.604">
        <ele>342.1</ele>
        <time>2025-10-28T09:03:15.000Z</time>
      </trkpt>
      <trkpt lat="43.54302" lon="6.604">
        <ele>342.1</ele>
        <time>2025-10-28T09:03:16.000Z</time>
      </trkpt>
      <trkpt lat="43.54302" lon="6.604">
        <ele>342.1</ele>
        <time>2025-10-28T09:03:17.000Z</time>
      </trkpt>
      <trkpt lat="43.54302" lon="6.604">
        <ele>342.1</ele>
        <time>2025-10-28T09:03:18.000Z</time>
      </trkpt>
      <trkpt lat="43.54302" lon="6.604">
        <ele>342</ele>
        <time>2025-10-28T09:03:19.000Z</time>
      </trkpt>
      <trkpt lat="43.54302" lon="6.604">
        <ele>342</ele>
        <time>2025-10-28T09:03:20.000Z</time>
      </trkpt>
      <trkpt lat="43.54302" lon="6.604">
        <ele>342</ele>
        <time>2025-10-28T09:03:21.000Z</time>
      </trkpt>
      <trkpt lat="43.54302" lon="6.604">
        <ele>342</ele>
        <time>2025-10-28T09:03:22.000Z</time>
      </trkpt>
      <trkpt lat="43.54302" lon="6.604">
        <ele>342</ele>
        <time>2025-10-28T09:03:23.000Z</time>
      </trkpt>
      <trkpt lat="43.54302" lon="6.604">
        <ele>342</ele>
        <time>2025-10-28T09:03:24.000Z</time>
      </trkpt>
      <trkpt lat="43.54302" lon="6.604">
        <ele>342</ele>
        <time>2025-10-28T09:03:25.000Z</time>
      </trkpt>
      <trkpt lat="43.54302" lon="6.604">
        <ele>342</ele>
        <time>2025-10-28T09:03:26.000Z</time>
      </trkpt>
      <trkpt lat="43.54302" lon="6.604">
        <ele>342</ele>
        <time>2025-10-28T09:03:27.000Z</time>
      </trkpt>
      <trkpt lat="43.54303" lon="6.604">
        <ele>342</ele>
        <time>2025-10-28T09:03:28.000Z</time>
      </trkpt>
      <trkpt lat="43.54303" lon="6.60399">
        <ele>341.9</ele>
        <time>2025-10-28T09:03:29.000Z</time>
      </trkpt>
      <trkpt lat="43.54304" lon="6.60399">
        <ele>341.8</ele>
        <time>2025-10-28T09:03:30.000Z</time>
      </trkpt>
      <trkpt lat="43.54306" lon="6.60399">
        <ele>341.6</ele>
        <time>2025-10-28T09:03:31.000Z</time>
      </trkpt>
      <trkpt lat="43.54307" lon="6.60399">
        <ele>341.5</ele>
        <time>2025-10-28T09:03:32.000Z</time>
      </trkpt>
      <trkpt lat="43.5431" lon="6.60398">
        <ele>341.3</ele>
        <time>2025-10-28T09:03:33.000Z</time>
      </trkpt>
      <trkpt lat="43.54312" lon="6.60396">
        <ele>341.1</ele>
        <time>2025-10-28T09:03:34.000Z</time>
      </trkpt>
      <trkpt lat="43.54315" lon="6.60394">
        <ele>340.9</ele>
        <time>2025-10-28T09:03:35.000Z</time>
      </trkpt>
      <trkpt lat="43.54318" lon="6.60392">
        <ele>340.8</ele>
        <time>2025-10-28T09:03:36.000Z</time>
      </trkpt>
      <trkpt lat="43.54321" lon="6.6039">
        <ele>340.8</ele>
        <time>2025-10-28T09:03:37.000Z</time>
      </trkpt>
      <trkpt lat="43.54324" lon="6.60387">
        <ele>340.7</ele>
        <time>2025-10-28T09:03:38.000Z</time>
      </trkpt>
      <trkpt lat="43.54327" lon="6.60384">
        <ele>340.6</ele>
        <time>2025-10-28T09:03:39.000Z</time>
      </trkpt>
      <trkpt lat="43.5433" lon="6.6038">
        <ele>340.5</ele>
        <time>2025-10-28T09:03:40.000Z</time>
      </trkpt>
      <trkpt lat="43.54333" lon="6.60376">
        <ele>340.3</ele>
        <time>2025-10-28T09:03:41.000Z</time>
      </trkpt>
      <trkpt lat="43.54336" lon="6.60373">
        <ele>340.2</ele>
        <time>2025-10-28T09:03:42.000Z</time>
      </trkpt>
      <trkpt lat="43.54339" lon="6.60368">
        <ele>339.8</ele>
        <time>2025-10-28T09:03:43.000Z</time>
      </trkpt>
      <trkpt lat="43.54341" lon="6.60365">
        <ele>339.5</ele>
        <time>2025-10-28T09:03:44.000Z</time>
      </trkpt>
      <trkpt lat="43.54344" lon="6.60361">
        <ele>339.2</ele>
        <time>2025-10-28T09:03:45.000Z</time>
      </trkpt>
      <trkpt lat="43.54346" lon="6.60357">
        <ele>338.8</ele>
        <time>2025-10-28T09:03:46.000Z</time>
      </trkpt>
      <trkpt lat="43.54349" lon="6.60355">
        <ele>338.4</ele>
        <time>2025-10-28T09:03:47.000Z</time>
      </trkpt>
      <trkpt lat="43.54351" lon="6.60354">
        <ele>338.1</ele>
        <time>2025-10-28T09:03:48.000Z</time>
      </trkpt>
      <trkpt lat="43.54354" lon="6.60354">
        <ele>337.7</ele>
        <time>2025-10-28T09:03:49.000Z</time>
      </trkpt>
      <trkpt lat="43.54356" lon="6.60355">
        <ele>337.3</ele>
        <time>2025-10-28T09:03:50.000Z</time>
      </trkpt>
      <trkpt lat="43.54358" lon="6.60357">
        <ele>337</ele>
        <time>2025-10-28T09:03:51.000Z</time>
      </trkpt>
      <trkpt lat="43.5436" lon="6.60358">
        <ele>336.6</ele>
        <time>2025-10-28T09:03:52.000Z</time>
      </trkpt>
      <trkpt lat="43.54363" lon="6.6036">
        <ele>336.2</ele>
        <time>2025-10-28T09:03:53.000Z</time>
      </trkpt>
      <trkpt lat="43.54366" lon="6.6036">
        <ele>335.8</ele>
        <time>2025-10-28T09:03:54.000Z</time>
      </trkpt>
      <trkpt lat="43.54369" lon="6.60361">
        <ele>335.4</ele>
        <time>2025-10-28T09:03:55.000Z</time>
      </trkpt>
      <trkpt lat="43.54371" lon="6.60361">
        <ele>334.9</ele>
        <time>2025-10-28T09:03:56.000Z</time>
      </trkpt>
      <trkpt lat="43.54375" lon="6.6036">
        <ele>334.4</ele>
        <time>2025-10-28T09:03:57.000Z</time>
      </trkpt>
      <trkpt lat="43.54377" lon="6.60359">
        <ele>334.1</ele>
        <time>2025-10-28T09:03:58.000Z</time>
      </trkpt>
      <trkpt lat="43.54379" lon="6.60358">
        <ele>333.7</ele>
        <time>2025-10-28T09:03:59.000Z</time>
      </trkpt>
      <trkpt lat="43.54381" lon="6.60357">
        <ele>333.3</ele>
        <time>2025-10-28T09:04:00.000Z</time>
      </trkpt>
      <trkpt lat="43.54383" lon="6.60357">
        <ele>333</ele>
        <time>2025-10-28T09:04:01.000Z</time>
      </trkpt>
      <trkpt lat="43.54386" lon="6.60358">
        <ele>332.6</ele>
        <time>2025-10-28T09:04:02.000Z</time>
      </trkpt>
      <trkpt lat="43.54388" lon="6.60359">
        <ele>332.2</ele>
        <time>2025-10-28T09:04:03.000Z</time>
      </trkpt>
      <trkpt lat="43.54389" lon="6.60359">
        <ele>332</ele>
        <time>2025-10-28T09:04:04.000Z</time>
      </trkpt>
      <trkpt lat="43.5439" lon="6.6036">
        <ele>331.9</ele>
        <time>2025-10-28T09:04:05.000Z</time>
      </trkpt>
      <trkpt lat="43.5439" lon="6.6036">
        <ele>331.8</ele>
        <time>2025-10-28T09:04:06.000Z</time>
      </trkpt>
      <trkpt lat="43.5439" lon="6.6036">
        <ele>331.8</ele>
        <time>2025-10-28T09:04:07.000Z</time>
      </trkpt>
      <trkpt lat="43.5439" lon="6.6036">
        <ele>331.7</ele>
        <time>2025-10-28T09:04:08.000Z</time>
      </trkpt>
      <trkpt lat="43.54391" lon="6.60361">
        <ele>331.6</ele>
        <time>2025-10-28T09:04:09.000Z</time>
      </trkpt>
      <trkpt lat="43.54391" lon="6.60361">
        <ele>331.5</ele>
        <time>2025-10-28T09:04:10.000Z</time>
      </trkpt>
      <trkpt lat="43.54392" lon="6.60362">
        <ele>331.3</ele>
        <time>2025-10-28T09:04:11.000Z</time>
      </trkpt>
      <trkpt lat="43.54393" lon="6.60362">
        <ele>331.1</ele>
        <time>2025-10-28T09:04:12.000Z</time>
      </trkpt>
      <trkpt lat="43.54394" lon="6.60363">
        <ele>331</ele>
        <time>2025-10-28T09:04:13.000Z</time>
      </trkpt>
      <trkpt lat="43.54395" lon="6.60363">
        <ele>330.8</ele>
        <time>2025-10-28T09:04:14.000Z</time>
      </trkpt>
      <trkpt lat="43.54395" lon="6.60364">
        <ele>330.6</ele>
        <time>2025-10-28T09:04:15.000Z</time>
      </trkpt>
      <trkpt lat="43.54396" lon="6.60364">
        <ele>330.5</ele>
        <time>2025-10-28T09:04:16.000Z</time>
      </trkpt>
      <trkpt lat="43.54396" lon="6.60365">
        <ele>330.4</ele>
        <time>2025-10-28T09:04:17.000Z</time>
      </trkpt>
      <trkpt lat="43.54397" lon="6.60366">
        <ele>330.2</ele>
        <time>2025-10-28T09:04:18.000Z</time>
      </trkpt>
      <trkpt lat="43.54397" lon="6.60367">
        <ele>330.1</ele>
        <time>2025-10-28T09:04:19.000Z</time>
      </trkpt>
      <trkpt lat="43.54399" lon="6.60367">
        <ele>329.8</ele>
        <time>2025-10-28T09:04:20.000Z</time>
      </trkpt>
      <trkpt lat="43.544" lon="6.60368">
        <ele>329.5</ele>
        <time>2025-10-28T09:04:21.000Z</time>
      </trkpt>
      <trkpt lat="43.54402" lon="6.60368">
        <ele>329.2</ele>
        <time>2025-10-28T09:04:22.000Z</time>
      </trkpt>
      <trkpt lat="43.54403" lon="6.60367">
        <ele>328.9</ele>
        <time>2025-10-28T09:04:23.000Z</time>
      </trkpt>
      <trkpt lat="43.54404" lon="6.60367">
        <ele>328.8</ele>
        <time>2025-10-28T09:04:24.000Z</time>
      </trkpt>
      <trkpt lat="43.54405" lon="6.60366">
        <ele>328.6</ele>
        <time>2025-10-28T09:04:25.000Z</time>
      </trkpt>
      <trkpt lat="43.54406" lon="6.60366">
        <ele>328.4</ele>
        <time>2025-10-28T09:04:26.000Z</time>
      </trkpt>
      <trkpt lat="43.54408" lon="6.60365">
        <ele>328</ele>
        <time>2025-10-28T09:04:27.000Z</time>
      </trkpt>
      <trkpt lat="43.54409" lon="6.60364">
        <ele>327.7</ele>
        <time>2025-10-28T09:04:28.000Z</time>
      </trkpt>
      <trkpt lat="43.54411" lon="6.60363">
        <ele>327.2</ele>
        <time>2025-10-28T09:04:29.000Z</time>
      </trkpt>
      <trkpt lat="43.54414" lon="6.60363">
        <ele>326.7</ele>
        <time>2025-10-28T09:04:30.000Z</time>
      </trkpt>
      <trkpt lat="43.54416" lon="6.60365">
        <ele>326.3</ele>
        <time>2025-10-28T09:04:31.000Z</time>
      </trkpt>
      <trkpt lat="43.54418" lon="6.60367">
        <ele>325.9</ele>
        <time>2025-10-28T09:04:32.000Z</time>
      </trkpt>
      <trkpt lat="43.5442" lon="6.6037">
        <ele>325.4</ele>
        <time>2025-10-28T09:04:33.000Z</time>
      </trkpt>
      <trkpt lat="43.54422" lon="6.60373">
        <ele>324.9</ele>
        <time>2025-10-28T09:04:34.000Z</time>
      </trkpt>
      <trkpt lat="43.54424" lon="6.60377">
        <ele>324.1</ele>
        <time>2025-10-28T09:04:35.000Z</time>
      </trkpt>
      <trkpt lat="43.54426" lon="6.60381">
        <ele>323.4</ele>
        <time>2025-10-28T09:04:36.000Z</time>
      </trkpt>
      <trkpt lat="43.54428" lon="6.60384">
        <ele>322.9</ele>
        <time>2025-10-28T09:04:37.000Z</time>
      </trkpt>
      <trkpt lat="43.54431" lon="6.60386">
        <ele>322.1</ele>
        <time>2025-10-28T09:04:38.000Z</time>
      </trkpt>
      <trkpt lat="43.54433" lon="6.60387">
        <ele>321.4</ele>
        <time>2025-10-28T09:04:39.000Z</time>
      </trkpt>
      <trkpt lat="43.54436" lon="6.60386">
        <ele>320.8</ele>
        <time>2025-10-28T09:04:40.000Z</time>
      </trkpt>
      <trkpt lat="43.54438" lon="6.60384">
        <ele>320.1</ele>
        <time>2025-10-28T09:04:41.000Z</time>
      </trkpt>
      <trkpt lat="43.54439" lon="6.60381">
        <ele>319.5</ele>
        <time>2025-10-28T09:04:42.000Z</time>
      </trkpt>
      <trkpt lat="43.5444" lon="6.60378">
        <ele>318.9</ele>
        <time>2025-10-28T09:04:43.000Z</time>
      </trkpt>
      <trkpt lat="43.54441" lon="6.60375">
        <ele>318.3</ele>
        <time>2025-10-28T09:04:44.000Z</time>
      </trkpt>
      <trkpt lat="43.54442" lon="6.60371">
        <ele>317.6</ele>
        <time>2025-10-28T09:04:45.000Z</time>
      </trkpt>
      <trkpt lat="43.54443" lon="6.60368">
        <ele>316.9</ele>
        <time>2025-10-28T09:04:46.000Z</time>
      </trkpt>
      <trkpt lat="43.54443" lon="6.60364">
        <ele>316.3</ele>
        <time>2025-10-28T09:04:47.000Z</time>
      </trkpt>
      <trkpt lat="43.54444" lon="6.60361">
        <ele>315.6</ele>
        <time>2025-10-28T09:04:48.000Z</time>
      </trkpt>
      <trkpt lat="43.54444" lon="6.60357">
        <ele>314.9</ele>
        <time>2025-10-28T09:04:49.000Z</time>
      </trkpt>
      <trkpt lat="43.54445" lon="6.60353">
        <ele>314.2</ele>
        <time>2025-10-28T09:04:50.000Z</time>
      </trkpt>
      <trkpt lat="43.54446" lon="6.6035">
        <ele>313.7</ele>
        <time>2025-10-28T09:04:51.000Z</time>
      </trkpt>
      <trkpt lat="43.54447" lon="6.60347">
        <ele>313.3</ele>
        <time>2025-10-28T09:04:52.000Z</time>
      </trkpt>
      <trkpt lat="43.54447" lon="6.60345">
        <ele>312.9</ele>
        <time>2025-10-28T09:04:53.000Z</time>
      </trkpt>
      <trkpt lat="43.54448" lon="6.60343">
        <ele>312.6</ele>
        <time>2025-10-28T09:04:54.000Z</time>
      </trkpt>
      <trkpt lat="43.54449" lon="6.60342">
        <ele>312.3</ele>
        <time>2025-10-28T09:04:55.000Z</time>
      </trkpt>
      <trkpt lat="43.5445" lon="6.6034">
        <ele>312</ele>
        <time>2025-10-28T09:04:56.000Z</time>
      </trkpt>
      <trkpt lat="43.54451" lon="6.60339">
        <ele>311.6</ele>
        <time>2025-10-28T09:04:57.000Z</time>
      </trkpt>
      <trkpt lat="43.54453" lon="6.60337">
        <ele>311.2</ele>
        <time>2025-10-28T09:04:58.000Z</time>
      </trkpt>
      <trkpt lat="43.54455" lon="6.60334">
        <ele>310.7</ele>
        <time>2025-10-28T09:04:59.000Z</time>
      </trkpt>
      <trkpt lat="43.54457" lon="6.60332">
        <ele>310.2</ele>
        <time>2025-10-28T09:05:00.000Z</time>
      </trkpt>
      <trkpt lat="43.54459" lon="6.60329">
        <ele>309.6</ele>
        <time>2025-10-28T09:05:01.000Z</time>
      </trkpt>
      <trkpt lat="43.54461" lon="6.60326">
        <ele>309.1</ele>
        <time>2025-10-28T09:05:02.000Z</time>
      </trkpt>
      <trkpt lat="43.54463" lon="6.60323">
        <ele>308.7</ele>
        <time>2025-10-28T09:05:03.000Z</time>
      </trkpt>
      <trkpt lat="43.54464" lon="6.6032">
        <ele>308.2</ele>
        <time>2025-10-28T09:05:04.000Z</time>
      </trkpt>
      <trkpt lat="43.54465" lon="6.60317">
        <ele>307.8</ele>
        <time>2025-10-28T09:05:05.000Z</time>
      </trkpt>
      <trkpt lat="43.54467" lon="6.60314">
        <ele>307.3</ele>
        <time>2025-10-28T09:05:06.000Z</time>
      </trkpt>
      <trkpt lat="43.54468" lon="6.6031">
        <ele>306.9</ele>
        <time>2025-10-28T09:05:07.000Z</time>
      </trkpt>
      <trkpt lat="43.54469" lon="6.60307">
        <ele>306.3</ele>
        <time>2025-10-28T09:05:08.000Z</time>
      </trkpt>
      <trkpt lat="43.5447" lon="6.60304">
        <ele>305.8</ele>
        <time>2025-10-28T09:05:09.000Z</time>
      </trkpt>
      <trkpt lat="43.54471" lon="6.603">
        <ele>305.2</ele>
        <time>2025-10-28T09:05:10.000Z</time>
      </trkpt>
      <trkpt lat="43.54471" lon="6.60296">
        <ele>304.7</ele>
        <time>2025-10-28T09:05:11.000Z</time>
      </trkpt>
      <trkpt lat="43.54471" lon="6.60291">
        <ele>304</ele>
        <time>2025-10-28T09:05:12.000Z</time>
      </trkpt>
      <trkpt lat="43.5447" lon="6.60287">
        <ele>303.5</ele>
        <time>2025-10-28T09:05:13.000Z</time>
      </trkpt>
      <trkpt lat="43.5447" lon="6.60283">
        <ele>303</ele>
        <time>2025-10-28T09:05:14.000Z</time>
      </trkpt>
      <trkpt lat="43.54469" lon="6.60279">
        <ele>302.4</ele>
        <time>2025-10-28T09:05:15.000Z</time>
      </trkpt>
      <trkpt lat="43.54468" lon="6.60275">
        <ele>301.9</ele>
        <time>2025-10-28T09:05:16.000Z</time>
      </trkpt>
      <trkpt lat="43.54467" lon="6.60271">
        <ele>301.3</ele>
        <time>2025-10-28T09:05:17.000Z</time>
      </trkpt>
      <trkpt lat="43.54467" lon="6.60267">
        <ele>300.9</ele>
        <time>2025-10-28T09:05:18.000Z</time>
      </trkpt>
      <trkpt lat="43.54466" lon="6.60263">
        <ele>300.5</ele>
        <time>2025-10-28T09:05:19.000Z</time>
      </trkpt>
      <trkpt lat="43.54467" lon="6.60259">
        <ele>300.1</ele>
        <time>2025-10-28T09:05:20.000Z</time>
      </trkpt>
      <trkpt lat="43.54468" lon="6.60255">
        <ele>299.6</ele>
        <time>2025-10-28T09:05:21.000Z</time>
      </trkpt>
      <trkpt lat="43.54469" lon="6.60252">
        <ele>299.2</ele>
        <time>2025-10-28T09:05:22.000Z</time>
      </trkpt>
      <trkpt lat="43.54471" lon="6.60249">
        <ele>298.7</ele>
        <time>2025-10-28T09:05:23.000Z</time>
      </trkpt>
      <trkpt lat="43.54473" lon="6.60246">
        <ele>298.2</ele>
        <time>2025-10-28T09:05:24.000Z</time>
      </trkpt>
      <trkpt lat="43.54475" lon="6.60244">
        <ele>297.8</ele>
        <time>2025-10-28T09:05:25.000Z</time>
      </trkpt>
      <trkpt lat="43.54477" lon="6.60241">
        <ele>297.3</ele>
        <time>2025-10-28T09:05:26.000Z</time>
      </trkpt>
      <trkpt lat="43.54478" lon="6.60239">
        <ele>297</ele>
        <time>2025-10-28T09:05:27.000Z</time>
      </trkpt>
      <trkpt lat="43.54479" lon="6.60237">
        <ele>296.6</ele>
        <time>2025-10-28T09:05:28.000Z</time>
      </trkpt>
      <trkpt lat="43.5448" lon="6.60235">
        <ele>296.3</ele>
        <time>2025-10-28T09:05:29.000Z</time>
      </trkpt>
      <trkpt lat="43.54481" lon="6.60233">
        <ele>296</ele>
        <time>2025-10-28T09:05:30.000Z</time>
      </trkpt>
      <trkpt lat="43.54482" lon="6.60232">
        <ele>295.8</ele>
        <time>2025-10-28T09:05:31.000Z</time>
      </trkpt>
      <trkpt lat="43.54483" lon="6.60231">
        <ele>295.6</ele>
        <time>2025-10-28T09:05:32.000Z</time>
      </trkpt>
      <trkpt lat="43.54483" lon="6.6023">
        <ele>295.4</ele>
        <time>2025-10-28T09:05:33.000Z</time>
      </trkpt>
      <trkpt lat="43.54484" lon="6.60229">
        <ele>295.2</ele>
        <time>2025-10-28T09:05:34.000Z</time>
      </trkpt>
      <trkpt lat="43.54484" lon="6.60228">
        <ele>294.9</ele>
        <time>2025-10-28T09:05:35.000Z</time>
      </trkpt>
      <trkpt lat="43.54485" lon="6.60226">
        <ele>294.7</ele>
        <time>2025-10-28T09:05:36.000Z</time>
      </trkpt>
      <trkpt lat="43.54486" lon="6.60225">
        <ele>294.4</ele>
        <time>2025-10-28T09:05:37.000Z</time>
      </trkpt>
      <trkpt lat="43.54487" lon="6.60224">
        <ele>294.1</ele>
        <time>2025-10-28T09:05:38.000Z</time>
      </trkpt>
      <trkpt lat="43.54488" lon="6.60222">
        <ele>293.8</ele>
        <time>2025-10-28T09:05:39.000Z</time>
      </trkpt>
      <trkpt lat="43.54489" lon="6.60221">
        <ele>293.4</ele>
        <time>2025-10-28T09:05:40.000Z</time>
      </trkpt>
      <trkpt lat="43.5449" lon="6.60218">
        <ele>292.9</ele>
        <time>2025-10-28T09:05:41.000Z</time>
      </trkpt>
      <trkpt lat="43.54491" lon="6.60216">
        <ele>292.4</ele>
        <time>2025-10-28T09:05:42.000Z</time>
      </trkpt>
      <trkpt lat="43.54491" lon="6.60214">
        <ele>292.1</ele>
        <time>2025-10-28T09:05:43.000Z</time>
      </trkpt>
      <trkpt lat="43.54491" lon="6.60212">
        <ele>291.7</ele>
        <time>2025-10-28T09:05:44.000Z</time>
      </trkpt>
      <trkpt lat="43.54491" lon="6.60211">
        <ele>291.5</ele>
        <time>2025-10-28T09:05:45.000Z</time>
      </trkpt>
      <trkpt lat="43.54491" lon="6.6021">
        <ele>291.4</ele>
        <time>2025-10-28T09:05:46.000Z</time>
      </trkpt>
      <trkpt lat="43.54491" lon="6.6021">
        <ele>291.4</ele>
        <time>2025-10-28T09:05:47.000Z</time>
      </trkpt>
      <trkpt lat="43.54491" lon="6.6021">
        <ele>291.4</ele>
        <time>2025-10-28T09:05:48.000Z</time>
      </trkpt>
      <trkpt lat="43.54491" lon="6.6021">
        <ele>291.3</ele>
        <time>2025-10-28T09:05:49.000Z</time>
      </trkpt>
      <trkpt lat="43.54492" lon="6.60209">
        <ele>291.2</ele>
        <time>2025-10-28T09:05:50.000Z</time>
      </trkpt>
      <trkpt lat="43.54492" lon="6.60208">
        <ele>290.8</ele>
        <time>2025-10-28T09:05:51.000Z</time>
      </trkpt>
      <trkpt lat="43.54493" lon="6.60204">
        <ele>290.2</ele>
        <time>2025-10-28T09:05:52.000Z</time>
      </trkpt>
      <trkpt lat="43.54494" lon="6.60202">
        <ele>289.7</ele>
        <time>2025-10-28T09:05:53.000Z</time>
      </trkpt>
      <trkpt lat="43.54495" lon="6.60197">
        <ele>288.9</ele>
        <time>2025-10-28T09:05:54.000Z</time>
      </trkpt>
      <trkpt lat="43.54497" lon="6.60194">
        <ele>288.2</ele>
        <time>2025-10-28T09:05:55.000Z</time>
      </trkpt>
      <trkpt lat="43.54498" lon="6.6019">
        <ele>287.6</ele>
        <time>2025-10-28T09:05:56.000Z</time>
      </trkpt>
      <trkpt lat="43.54498" lon="6.60187">
        <ele>287.1</ele>
        <time>2025-10-28T09:05:57.000Z</time>
      </trkpt>
      <trkpt lat="43.54499" lon="6.60184">
        <ele>286.6</ele>
        <time>2025-10-28T09:05:58.000Z</time>
      </trkpt>
      <trkpt lat="43.545" lon="6.60181">
        <ele>286.1</ele>
        <time>2025-10-28T09:05:59.000Z</time>
      </trkpt>
      <trkpt lat="43.54501" lon="6.60177">
        <ele>285.5</ele>
        <time>2025-10-28T09:06:00.000Z</time>
      </trkpt>
      <trkpt lat="43.54502" lon="6.60174">
        <ele>285.1</ele>
        <time>2025-10-28T09:06:01.000Z</time>
      </trkpt>
      <trkpt lat="43.54503" lon="6.60173">
        <ele>284.8</ele>
        <time>2025-10-28T09:06:02.000Z</time>
      </trkpt>
      <trkpt lat="43.54504" lon="6.6017">
        <ele>284.5</ele>
        <time>2025-10-28T09:06:03.000Z</time>
      </trkpt>
      <trkpt lat="43.54504" lon="6.60168">
        <ele>284.3</ele>
        <time>2025-10-28T09:06:04.000Z</time>
      </trkpt>
      <trkpt lat="43.54505" lon="6.60166">
        <ele>284</ele>
        <time>2025-10-28T09:06:05.000Z</time>
      </trkpt>
      <trkpt lat="43.54506" lon="6.60164">
        <ele>283.7</ele>
        <time>2025-10-28T09:06:06.000Z</time>
      </trkpt>
      <trkpt lat="43.54507" lon="6.60163">
        <ele>283.4</ele>
        <time>2025-10-28T09:06:07.000Z</time>
      </trkpt>
      <trkpt lat="43.54508" lon="6.6016">
        <ele>283</ele>
        <time>2025-10-28T09:06:08.000Z</time>
      </trkpt>
      <trkpt lat="43.54509" lon="6.60159">
        <ele>282.8</ele>
        <time>2025-10-28T09:06:09.000Z</time>
      </trkpt>
      <trkpt lat="43.54509" lon="6.60158">
        <ele>282.7</ele>
        <time>2025-10-28T09:06:10.000Z</time>
      </trkpt>
      <trkpt lat="43.5451" lon="6.60157">
        <ele>282.6</ele>
        <time>2025-10-28T09:06:11.000Z</time>
      </trkpt>
      <trkpt lat="43.5451" lon="6.60156">
        <ele>282.4</ele>
        <time>2025-10-28T09:06:12.000Z</time>
      </trkpt>
      <trkpt lat="43.5451" lon="6.60155">
        <ele>282.3</ele>
        <time>2025-10-28T09:06:13.000Z</time>
      </trkpt>
      <trkpt lat="43.5451" lon="6.60155">
        <ele>282.3</ele>
        <time>2025-10-28T09:06:14.000Z</time>
      </trkpt>
      <trkpt lat="43.5451" lon="6.60154">
        <ele>282.3</ele>
        <time>2025-10-28T09:06:15.000Z</time>
      </trkpt>
      <trkpt lat="43.5451" lon="6.60154">
        <ele>282.2</ele>
        <time>2025-10-28T09:06:16.000Z</time>
      </trkpt>
      <trkpt lat="43.5451" lon="6.60154">
        <ele>282.2</ele>
        <time>2025-10-28T09:06:17.000Z</time>
      </trkpt>
      <trkpt lat="43.5451" lon="6.60154">
        <ele>282.1</ele>
        <time>2025-10-28T09:06:18.000Z</time>
      </trkpt>
      <trkpt lat="43.54511" lon="6.60154">
        <ele>282.1</ele>
        <time>2025-10-28T09:06:19.000Z</time>
      </trkpt>
      <trkpt lat="43.54511" lon="6.60153">
        <ele>282</ele>
        <time>2025-10-28T09:06:20.000Z</time>
      </trkpt>
      <trkpt lat="43.54511" lon="6.60152">
        <ele>281.8</ele>
        <time>2025-10-28T09:06:21.000Z</time>
      </trkpt>
      <trkpt lat="43.54512" lon="6.60151">
        <ele>281.6</ele>
        <time>2025-10-28T09:06:22.000Z</time>
      </trkpt>
      <trkpt lat="43.54512" lon="6.6015">
        <ele>281.6</ele>
        <time>2025-10-28T09:06:23.000Z</time>
      </trkpt>
      <trkpt lat="43.54512" lon="6.6015">
        <ele>281.5</ele>
        <time>2025-10-28T09:06:24.000Z</time>
      </trkpt>
      <trkpt lat="43.54512" lon="6.60149">
        <ele>281.4</ele>
        <time>2025-10-28T09:06:25.000Z</time>
      </trkpt>
      <trkpt lat="43.54513" lon="6.60149">
        <ele>281.4</ele>
        <time>2025-10-28T09:06:26.000Z</time>
      </trkpt>
      <trkpt lat="43.54512" lon="6.60148">
        <ele>281.2</ele>
        <time>2025-10-28T09:06:27.000Z</time>
      </trkpt>
      <trkpt lat="43.54513" lon="6.60148">
        <ele>281.1</ele>
        <time>2025-10-28T09:06:28.000Z</time>
      </trkpt>
      <trkpt lat="43.54513" lon="6.60147">
        <ele>281.1</ele>
        <time>2025-10-28T09:06:29.000Z</time>
      </trkpt>
      <trkpt lat="43.54513" lon="6.60147">
        <ele>281</ele>
        <time>2025-10-28T09:06:30.000Z</time>
      </trkpt>
      <trkpt lat="43.54513" lon="6.60146">
        <ele>280.9</ele>
        <time>2025-10-28T09:06:31.000Z</time>
      </trkpt>
      <trkpt lat="43.54514" lon="6.60144">
        <ele>280.7</ele>
        <time>2025-10-28T09:06:32.000Z</time>
      </trkpt>
      <trkpt lat="43.54514" lon="6.60142">
        <ele>280.4</ele>
        <time>2025-10-28T09:06:33.000Z</time>
      </trkpt>
      <trkpt lat="43.54515" lon="6.60141">
        <ele>280.2</ele>
        <time>2025-10-28T09:06:34.000Z</time>
      </trkpt>
      <trkpt lat="43.54515" lon="6.60139">
        <ele>280</ele>
        <time>2025-10-28T09:06:35.000Z</time>
      </trkpt>
      <trkpt lat="43.54516" lon="6.60138">
        <ele>279.9</ele>
        <time>2025-10-28T09:06:36.000Z</time>
      </trkpt>
      <trkpt lat="43.54516" lon="6.60138">
        <ele>279.8</ele>
        <time>2025-10-28T09:06:37.000Z</time>
      </trkpt>
      <trkpt lat="43.54516" lon="6.60138">
        <ele>279.8</ele>
        <time>2025-10-28T09:06:38.000Z</time>
      </trkpt>
      <trkpt lat="43.54516" lon="6.60138">
        <ele>279.7</ele>
        <time>2025-10-28T09:06:39.000Z</time>
      </trkpt>
      <trkpt lat="43.54516" lon="6.60138">
        <ele>279.7</ele>
        <time>2025-10-28T09:06:40.000Z</time>
      </trkpt>
      <trkpt lat="43.54517" lon="6.60138">
        <ele>279.6</ele>
        <time>2025-10-28T09:06:41.000Z</time>
      </trkpt>
      <trkpt lat="43.54517" lon="6.60139">
        <ele>279.6</ele>
        <time>2025-10-28T09:06:42.000Z</time>
      </trkpt>
      <trkpt lat="43.54517" lon="6.60139">
        <ele>279.5</ele>
        <time>2025-10-28T09:06:43.000Z</time>
      </trkpt>
      <trkpt lat="43.54517" lon="6.60139">
        <ele>279.5</ele>
        <time>2025-10-28T09:06:44.000Z</time>
      </trkpt>
      <trkpt lat="43.54517" lon="6.60139">
        <ele>279.4</ele>
        <time>2025-10-28T09:06:45.000Z</time>
      </trkpt>
      <trkpt lat="43.54517" lon="6.60139">
        <ele>279.4</ele>
        <time>2025-10-28T09:06:46.000Z</time>
      </trkpt>
      <trkpt lat="43.54517" lon="6.60139">
        <ele>279.3</ele>
        <time>2025-10-28T09:06:47.000Z</time>
      </trkpt>
      <trkpt lat="43.54517" lon="6.60138">
        <ele>279.3</ele>
        <time>2025-10-28T09:06:48.000Z</time>
      </trkpt>
      <trkpt lat="43.54516" lon="6.60137">
        <ele>279</ele>
        <time>2025-10-28T09:06:49.000Z</time>
      </trkpt>
      <trkpt lat="43.54515" lon="6.60136">
        <ele>278.8</ele>
        <time>2025-10-28T09:06:50.000Z</time>
      </trkpt>
      <trkpt lat="43.54515" lon="6.60136">
        <ele>278.8</ele>
        <time>2025-10-28T09:06:51.000Z</time>
      </trkpt>
      <trkpt lat="43.54515" lon="6.60136">
        <ele>278.8</ele>
        <time>2025-10-28T09:06:52.000Z</time>
      </trkpt>
      <trkpt lat="43.54515" lon="6.60136">
        <ele>278.8</ele>
        <time>2025-10-28T09:06:53.000Z</time>
      </trkpt>
      <trkpt lat="43.54515" lon="6.60136">
        <ele>278.7</ele>
        <time>2025-10-28T09:06:54.000Z</time>
      </trkpt>
      <trkpt lat="43.54516" lon="6.60135">
        <ele>278.5</ele>
        <time>2025-10-28T09:06:55.000Z</time>
      </trkpt>
      <trkpt lat="43.54516" lon="6.60134">
        <ele>278.3</ele>
        <time>2025-10-28T09:06:56.000Z</time>
      </trkpt>
      <trkpt lat="43.54517" lon="6.60132">
        <ele>278.1</ele>
        <time>2025-10-28T09:06:57.000Z</time>
      </trkpt>
      <trkpt lat="43.54517" lon="6.60131">
        <ele>277.9</ele>
        <time>2025-10-28T09:06:58.000Z</time>
      </trkpt>
      <trkpt lat="43.54517" lon="6.6013">
        <ele>277.8</ele>
        <time>2025-10-28T09:06:59.000Z</time>
      </trkpt>
      <trkpt lat="43.54518" lon="6.6013">
        <ele>277.8</ele>
        <time>2025-10-28T09:07:00.000Z</time>
      </trkpt>
      <trkpt lat="43.54518" lon="6.60129">
        <ele>277.6</ele>
        <time>2025-10-28T09:07:01.000Z</time>
      </trkpt>
      <trkpt lat="43.54518" lon="6.60129">
        <ele>277.5</ele>
        <time>2025-10-28T09:07:02.000Z</time>
      </trkpt>
      <trkpt lat="43.54518" lon="6.60128">
        <ele>277.5</ele>
        <time>2025-10-28T09:07:03.000Z</time>
      </trkpt>
      <trkpt lat="43.54518" lon="6.60129">
        <ele>277.5</ele>
        <time>2025-10-28T09:07:04.000Z</time>
      </trkpt>
      <trkpt lat="43.54518" lon="6.60129">
        <ele>277.4</ele>
        <time>2025-10-28T09:07:05.000Z</time>
      </trkpt>
      <trkpt lat="43.54518" lon="6.60129">
        <ele>277.4</ele>
        <time>2025-10-28T09:07:06.000Z</time>
      </trkpt>
      <trkpt lat="43.54518" lon="6.60129">
        <ele>277.4</ele>
        <time>2025-10-28T09:07:07.000Z</time>
      </trkpt>
      <trkpt lat="43.54518" lon="6.60129">
        <ele>277.3</ele>
        <time>2025-10-28T09:07:08.000Z</time>
      </trkpt>
      <trkpt lat="43.54518" lon="6.60129">
        <ele>277.3</ele>
        <time>2025-10-28T09:07:09.000Z</time>
      </trkpt>
      <trkpt lat="43.54518" lon="6.60129">
        <ele>277.2</ele>
        <time>2025-10-28T09:07:10.000Z</time>
      </trkpt>
      <trkpt lat="43.54517" lon="6.60129">
        <ele>277.1</ele>
        <time>2025-10-28T09:07:11.000Z</time>
      </trkpt>
      <trkpt lat="43.54517" lon="6.60129">
        <ele>277.1</ele>
        <time>2025-10-28T09:07:12.000Z</time>
      </trkpt>
      <trkpt lat="43.54517" lon="6.60129">
        <ele>277.1</ele>
        <time>2025-10-28T09:07:13.000Z</time>
      </trkpt>
      <trkpt lat="43.54517" lon="6.60129">
        <ele>277.1</ele>
        <time>2025-10-28T09:07:14.000Z</time>
      </trkpt>
      <trkpt lat="43.54517" lon="6.60129">
        <ele>277.1</ele>
        <time>2025-10-28T09:07:15.000Z</time>
      </trkpt>
      <trkpt lat="43.54517" lon="6.60129">
        <ele>277.1</ele>
        <time>2025-10-28T09:07:16.000Z</time>
      </trkpt>
      <trkpt lat="43.54517" lon="6.60129">
        <ele>277.1</ele>
        <time>2025-10-28T09:07:17.000Z</time>
      </trkpt>
      <trkpt lat="43.54517" lon="6.60129">
        <ele>277.1</ele>
        <time>2025-10-28T09:07:18.000Z</time>
      </trkpt>
      <trkpt lat="43.54517" lon="6.60129">
        <ele>277.1</ele>
        <time>2025-10-28T09:07:19.000Z</time>
      </trkpt>
      <trkpt lat="43.54517" lon="6.60129">
        <ele>277.1</ele>
        <time>2025-10-28T09:07:20.000Z</time>
      </trkpt>
      <trkpt lat="43.54518" lon="6.60129">
        <ele>277.1</ele>
        <time>2025-10-28T09:07:21.000Z</time>
      </trkpt>
      <trkpt lat="43.54518" lon="6.60129">
        <ele>277</ele>
        <time>2025-10-28T09:07:22.000Z</time>
      </trkpt>
      <trkpt lat="43.54519" lon="6.60127">
        <ele>276.7</ele>
        <time>2025-10-28T09:07:23.000Z</time>
      </trkpt>
      <trkpt lat="43.54519" lon="6.60126">
        <ele>276.6</ele>
        <time>2025-10-28T09:07:24.000Z</time>
      </trkpt>
      <trkpt lat="43.5452" lon="6.60126">
        <ele>276.4</ele>
        <time>2025-10-28T09:07:25.000Z</time>
      </trkpt>
      <trkpt lat="43.5452" lon="6.60124">
        <ele>276.2</ele>
        <time>2025-10-28T09:07:26.000Z</time>
      </trkpt>
      <trkpt lat="43.54521" lon="6.60123">
        <ele>275.9</ele>
        <time>2025-10-28T09:07:27.000Z</time>
      </trkpt>
      <trkpt lat="43.54522" lon="6.60122">
        <ele>275.6</ele>
        <time>2025-10-28T09:07:28.000Z</time>
      </trkpt>
      <trkpt lat="43.54523" lon="6.60121">
        <ele>275.4</ele>
        <time>2025-10-28T09:07:29.000Z</time>
      </trkpt>
      <trkpt lat="43.54524" lon="6.60121">
        <ele>275.2</ele>
        <time>2025-10-28T09:07:30.000Z</time>
      </trkpt>
      <trkpt lat="43.54525" lon="6.6012">
        <ele>275</ele>
        <time>2025-10-28T09:07:31.000Z</time>
      </trkpt>
      <trkpt lat="43.54525" lon="6.6012">
        <ele>275</ele>
        <time>2025-10-28T09:07:32.000Z</time>
      </trkpt>
      <trkpt lat="43.54525" lon="6.6012">
        <ele>274.9</ele>
        <time>2025-10-28T09:07:33.000Z</time>
      </trkpt>
      <trkpt lat="43.54525" lon="6.6012">
        <ele>274.9</ele>
        <time>2025-10-28T09:07:34.000Z</time>
      </trkpt>
      <trkpt lat="43.54526" lon="6.6012">
        <ele>274.8</ele>
        <time>2025-10-28T09:07:35.000Z</time>
      </trkpt>
      <trkpt lat="43.54526" lon="6.6012">
        <ele>274.7</ele>
        <time>2025-10-28T09:07:36.000Z</time>
      </trkpt>
      <trkpt lat="43.54527" lon="6.6012">
        <ele>274.6</ele>
        <time>2025-10-28T09:07:37.000Z</time>
      </trkpt>
      <trkpt lat="43.54527" lon="6.6012">
        <ele>274.4</ele>
        <time>2025-10-28T09:07:38.000Z</time>
      </trkpt>
      <trkpt lat="43.54528" lon="6.60121">
        <ele>274.2</ele>
        <time>2025-10-28T09:07:39.000Z</time>
      </trkpt>
      <trkpt lat="43.54528" lon="6.60121">
        <ele>274.1</ele>
        <time>2025-10-28T09:07:40.000Z</time>
      </trkpt>
      <trkpt lat="43.54529" lon="6.60122">
        <ele>274</ele>
        <time>2025-10-28T09:07:41.000Z</time>
      </trkpt>
      <trkpt lat="43.54529" lon="6.60123">
        <ele>273.8</ele>
        <time>2025-10-28T09:07:42.000Z</time>
      </trkpt>
      <trkpt lat="43.5453" lon="6.60124">
        <ele>273.7</ele>
        <time>2025-10-28T09:07:43.000Z</time>
      </trkpt>
      <trkpt lat="43.5453" lon="6.60125">
        <ele>273.5</ele>
        <time>2025-10-28T09:07:44.000Z</time>
      </trkpt>
      <trkpt lat="43.5453" lon="6.60125">
        <ele>273.4</ele>
        <time>2025-10-28T09:07:45.000Z</time>
      </trkpt>
      <trkpt lat="43.5453" lon="6.60126">
        <ele>273.3</ele>
        <time>2025-10-28T09:07:46.000Z</time>
      </trkpt>
      <trkpt lat="43.5453" lon="6.60127">
        <ele>273.2</ele>
        <time>2025-10-28T09:07:47.000Z</time>
      </trkpt>
      <trkpt lat="43.5453" lon="6.60127">
        <ele>273.1</ele>
        <time>2025-10-28T09:07:48.000Z</time>
      </trkpt>
      <trkpt lat="43.5453" lon="6.60128">
        <ele>273.1</ele>
        <time>2025-10-28T09:07:49.000Z</time>
      </trkpt>
      <trkpt lat="43.5453" lon="6.60128">
        <ele>273</ele>
        <time>2025-10-28T09:07:50.000Z</time>
      </trkpt>
      <trkpt lat="43.5453" lon="6.60128">
        <ele>273</ele>
        <time>2025-10-28T09:07:51.000Z</time>
      </trkpt>
      <trkpt lat="43.5453" lon="6.60128">
        <ele>272.9</ele>
        <time>2025-10-28T09:07:52.000Z</time>
      </trkpt>
      <trkpt lat="43.54529" lon="6.60128">
        <ele>272.9</ele>
        <time>2025-10-28T09:07:53.000Z</time>
      </trkpt>
      <trkpt lat="43.54529" lon="6.60128">
        <ele>272.8</ele>
        <time>2025-10-28T09:07:54.000Z</time>
      </trkpt>
      <trkpt lat="43.54529" lon="6.60128">
        <ele>272.8</ele>
        <time>2025-10-28T09:07:55.000Z</time>
      </trkpt>
      <trkpt lat="43.54529" lon="6.60128">
        <ele>272.7</ele>
        <time>2025-10-28T09:07:56.000Z</time>
      </trkpt>
      <trkpt lat="43.54529" lon="6.60128">
        <ele>272.7</ele>
        <time>2025-10-28T09:07:57.000Z</time>
      </trkpt>
      <trkpt lat="43.54529" lon="6.60129">
        <ele>272.6</ele>
        <time>2025-10-28T09:07:58.000Z</time>
      </trkpt>
      <trkpt lat="43.5453" lon="6.6013">
        <ele>272.4</ele>
        <time>2025-10-28T09:07:59.000Z</time>
      </trkpt>
      <trkpt lat="43.5453" lon="6.60132">
        <ele>272.3</ele>
        <time>2025-10-28T09:08:00.000Z</time>
      </trkpt>
      <trkpt lat="43.5453" lon="6.60133">
        <ele>272.1</ele>
        <time>2025-10-28T09:08:01.000Z</time>
      </trkpt>
      <trkpt lat="43.5453" lon="6.60134">
        <ele>271.9</ele>
        <time>2025-10-28T09:08:02.000Z</time>
      </trkpt>
      <trkpt lat="43.54531" lon="6.60135">
        <ele>271.8</ele>
        <time>2025-10-28T09:08:03.000Z</time>
      </trkpt>
      <trkpt lat="43.54531" lon="6.60136">
        <ele>271.6</ele>
        <time>2025-10-28T09:08:04.000Z</time>
      </trkpt>
      <trkpt lat="43.54531" lon="6.60137">
        <ele>271.5</ele>
        <time>2025-10-28T09:08:05.000Z</time>
      </trkpt>
      <trkpt lat="43.54531" lon="6.60138">
        <ele>271.4</ele>
        <time>2025-10-28T09:08:06.000Z</time>
      </trkpt>
      <trkpt lat="43.54531" lon="6.60138">
        <ele>271.3</ele>
        <time>2025-10-28T09:08:07.000Z</time>
      </trkpt>
      <trkpt lat="43.54531" lon="6.60138">
        <ele>271.3</ele>
        <time>2025-10-28T09:08:08.000Z</time>
      </trkpt>
      <trkpt lat="43.54531" lon="6.60139">
        <ele>271.3</ele>
        <time>2025-10-28T09:08:09.000Z</time>
      </trkpt>
      <trkpt lat="43.5453" lon="6.60139">
        <ele>271.3</ele>
        <time>2025-10-28T09:08:10.000Z</time>
      </trkpt>
      <trkpt lat="43.5453" lon="6.60139">
        <ele>271.2</ele>
        <time>2025-10-28T09:08:11.000Z</time>
      </trkpt>
      <trkpt lat="43.5453" lon="6.60139">
        <ele>271.2</ele>
        <time>2025-10-28T09:08:12.000Z</time>
      </trkpt>
      <trkpt lat="43.54531" lon="6.60141">
        <ele>271</ele>
        <time>2025-10-28T09:08:13.000Z</time>
      </trkpt>
      <trkpt lat="43.54531" lon="6.60143">
        <ele>270.7</ele>
        <time>2025-10-28T09:08:14.000Z</time>
      </trkpt>
      <trkpt lat="43.54532" lon="6.60147">
        <ele>270.3</ele>
        <time>2025-10-28T09:08:15.000Z</time>
      </trkpt>
      <trkpt lat="43.54532" lon="6.60151">
        <ele>269.9</ele>
        <time>2025-10-28T09:08:16.000Z</time>
      </trkpt>
      <trkpt lat="43.54533" lon="6.60156">
        <ele>269.4</ele>
        <time>2025-10-28T09:08:17.000Z</time>
      </trkpt>
      <trkpt lat="43.54533" lon="6.60161">
        <ele>268.9</ele>
        <time>2025-10-28T09:08:18.000Z</time>
      </trkpt>
      <trkpt lat="43.54534" lon="6.60164">
        <ele>268.5</ele>
        <time>2025-10-28T09:08:19.000Z</time>
      </trkpt>
      <trkpt lat="43.54535" lon="6.60169">
        <ele>268</ele>
        <time>2025-10-28T09:08:20.000Z</time>
      </trkpt>
      <trkpt lat="43.54536" lon="6.60174">
        <ele>267.4</ele>
        <time>2025-10-28T09:08:21.000Z</time>
      </trkpt>
      <trkpt lat="43.54536" lon="6.60177">
        <ele>267.1</ele>
        <time>2025-10-28T09:08:22.000Z</time>
      </trkpt>
      <trkpt lat="43.54537" lon="6.60179">
        <ele>266.8</ele>
        <time>2025-10-28T09:08:23.000Z</time>
      </trkpt>
      <trkpt lat="43.54538" lon="6.60182">
        <ele>266.4</ele>
        <time>2025-10-28T09:08:24.000Z</time>
      </trkpt>
      <trkpt lat="43.5454" lon="6.60186">
        <ele>265.9</ele>
        <time>2025-10-28T09:08:25.000Z</time>
      </trkpt>
      <trkpt lat="43.54541" lon="6.60188">
        <ele>265.6</ele>
        <time>2025-10-28T09:08:26.000Z</time>
      </trkpt>
      <trkpt lat="43.54543" lon="6.6019">
        <ele>265.3</ele>
        <time>2025-10-28T09:08:27.000Z</time>
      </trkpt>
      <trkpt lat="43.54544" lon="6.60193">
        <ele>265</ele>
        <time>2025-10-28T09:08:28.000Z</time>
      </trkpt>
      <trkpt lat="43.54546" lon="6.60195">
        <ele>264.6</ele>
        <time>2025-10-28T09:08:29.000Z</time>
      </trkpt>
      <trkpt lat="43.54548" lon="6.60197">
        <ele>264.3</ele>
        <time>2025-10-28T09:08:30.000Z</time>
      </trkpt>
      <trkpt lat="43.5455" lon="6.602">
        <ele>263.9</ele>
        <time>2025-10-28T09:08:31.000Z</time>
      </trkpt>
      <trkpt lat="43.54552" lon="6.60202">
        <ele>263.5</ele>
        <time>2025-10-28T09:08:32.000Z</time>
      </trkpt>
      <trkpt lat="43.54554" lon="6.60204">
        <ele>263.2</ele>
        <time>2025-10-28T09:08:33.000Z</time>
      </trkpt>
      <trkpt lat="43.54555" lon="6.60206">
        <ele>262.9</ele>
        <time>2025-10-28T09:08:34.000Z</time>
      </trkpt>
      <trkpt lat="43.54557" lon="6.60209">
        <ele>262.5</ele>
        <time>2025-10-28T09:08:35.000Z</time>
      </trkpt>
      <trkpt lat="43.54559" lon="6.60211">
        <ele>262.2</ele>
        <time>2025-10-28T09:08:36.000Z</time>
      </trkpt>
      <trkpt lat="43.54561" lon="6.60214">
        <ele>261.6</ele>
        <time>2025-10-28T09:08:37.000Z</time>
      </trkpt>
      <trkpt lat="43.54564" lon="6.60216">
        <ele>261</ele>
        <time>2025-10-28T09:08:38.000Z</time>
      </trkpt>
      <trkpt lat="43.54568" lon="6.60219">
        <ele>260.3</ele>
        <time>2025-10-28T09:08:39.000Z</time>
      </trkpt>
      <trkpt lat="43.54571" lon="6.60221">
        <ele>259.7</ele>
        <time>2025-10-28T09:08:40.000Z</time>
      </trkpt>
      <trkpt lat="43.54573" lon="6.60224">
        <ele>259.1</ele>
        <time>2025-10-28T09:08:41.000Z</time>
      </trkpt>
      <trkpt lat="43.54576" lon="6.60228">
        <ele>258.4</ele>
        <time>2025-10-28T09:08:42.000Z</time>
      </trkpt>
      <trkpt lat="43.54579" lon="6.60231">
        <ele>257.7</ele>
        <time>2025-10-28T09:08:43.000Z</time>
      </trkpt>
      <trkpt lat="43.54583" lon="6.60233">
        <ele>257</ele>
        <time>2025-10-28T09:08:44.000Z</time>
      </trkpt>
      <trkpt lat="43.54587" lon="6.60233">
        <ele>256.4</ele>
        <time>2025-10-28T09:08:45.000Z</time>
      </trkpt>
      <trkpt lat="43.54591" lon="6.60232">
        <ele>255.7</ele>
        <time>2025-10-28T09:08:46.000Z</time>
      </trkpt>
      <trkpt lat="43.54594" lon="6.60231">
        <ele>255.1</ele>
        <time>2025-10-28T09:08:47.000Z</time>
      </trkpt>
      <trkpt lat="43.54597" lon="6.60228">
        <ele>254.6</ele>
        <time>2025-10-28T09:08:48.000Z</time>
      </trkpt>
      <trkpt lat="43.54599" lon="6.60225">
        <ele>254.1</ele>
        <time>2025-10-28T09:08:49.000Z</time>
      </trkpt>
      <trkpt lat="43.54599" lon="6.60223">
        <ele>253.8</ele>
        <time>2025-10-28T09:08:50.000Z</time>
      </trkpt>
      <trkpt lat="43.54599" lon="6.6022">
        <ele>253.4</ele>
        <time>2025-10-28T09:08:51.000Z</time>
      </trkpt>
      <trkpt lat="43.54599" lon="6.60216">
        <ele>252.9</ele>
        <time>2025-10-28T09:08:52.000Z</time>
      </trkpt>
      <trkpt lat="43.54599" lon="6.60213">
        <ele>252.6</ele>
        <time>2025-10-28T09:08:53.000Z</time>
      </trkpt>
      <trkpt lat="43.54599" lon="6.6021">
        <ele>252.1</ele>
        <time>2025-10-28T09:08:54.000Z</time>
      </trkpt>
      <trkpt lat="43.546" lon="6.60206">
        <ele>251.6</ele>
        <time>2025-10-28T09:08:55.000Z</time>
      </trkpt>
      <trkpt lat="43.54601" lon="6.60202">
        <ele>251</ele>
        <time>2025-10-28T09:08:56.000Z</time>
      </trkpt>
      <trkpt lat="43.54602" lon="6.60197">
        <ele>250.4</ele>
        <time>2025-10-28T09:08:57.000Z</time>
      </trkpt>
      <trkpt lat="43.54601" lon="6.60193">
        <ele>249.9</ele>
        <time>2025-10-28T09:08:58.000Z</time>
      </trkpt>
      <trkpt lat="43.54601" lon="6.6019">
        <ele>249.4</ele>
        <time>2025-10-28T09:08:59.000Z</time>
      </trkpt>
      <trkpt lat="43.54599" lon="6.60187">
        <ele>249</ele>
        <time>2025-10-28T09:09:00.000Z</time>
      </trkpt>
      <trkpt lat="43.54598" lon="6.60184">
        <ele>248.5</ele>
        <time>2025-10-28T09:09:01.000Z</time>
      </trkpt>
      <trkpt lat="43.54596" lon="6.60181">
        <ele>248</ele>
        <time>2025-10-28T09:09:02.000Z</time>
      </trkpt>
      <trkpt lat="43.54595" lon="6.60178">
        <ele>247.6</ele>
        <time>2025-10-28T09:09:03.000Z</time>
      </trkpt>
      <trkpt lat="43.54594" lon="6.60175">
        <ele>247.2</ele>
        <time>2025-10-28T09:09:04.000Z</time>
      </trkpt>
      <trkpt lat="43.54593" lon="6.60173">
        <ele>246.9</ele>
        <time>2025-10-28T09:09:05.000Z</time>
      </trkpt>
      <trkpt lat="43.54593" lon="6.60172">
        <ele>246.8</ele>
        <time>2025-10-28T09:09:06.000Z</time>
      </trkpt>
      <trkpt lat="43.54593" lon="6.60172">
        <ele>246.8</ele>
        <time>2025-10-28T09:09:07.000Z</time>
      </trkpt>
      <trkpt lat="43.54593" lon="6.60171">
        <ele>246.7</ele>
        <time>2025-10-28T09:09:08.000Z</time>
      </trkpt>
      <trkpt lat="43.54593" lon="6.6017">
        <ele>246.5</ele>
        <time>2025-10-28T09:09:09.000Z</time>
      </trkpt>
      <trkpt lat="43.54593" lon="6.60168">
        <ele>246.2</ele>
        <time>2025-10-28T09:09:10.000Z</time>
      </trkpt>
      <trkpt lat="43.54592" lon="6.60166">
        <ele>246</ele>
        <time>2025-10-28T09:09:11.000Z</time>
      </trkpt>
      <trkpt lat="43.54592" lon="6.60165">
        <ele>245.8</ele>
        <time>2025-10-28T09:09:12.000Z</time>
      </trkpt>
      <trkpt lat="43.54592" lon="6.60164">
        <ele>245.7</ele>
        <time>2025-10-28T09:09:13.000Z</time>
      </trkpt>
      <trkpt lat="43.54592" lon="6.60164">
        <ele>245.6</ele>
        <time>2025-10-28T09:09:14.000Z</time>
      </trkpt>
      <trkpt lat="43.54593" lon="6.60163">
        <ele>245.6</ele>
        <time>2025-10-28T09:09:15.000Z</time>
      </trkpt>
      <trkpt lat="43.54593" lon="6.60163">
        <ele>245.5</ele>
        <time>2025-10-28T09:09:16.000Z</time>
      </trkpt>
      <trkpt lat="43.54593" lon="6.60163">
        <ele>245.5</ele>
        <time>2025-10-28T09:09:17.000Z</time>
      </trkpt>
      <trkpt lat="43.54593" lon="6.60163">
        <ele>245.4</ele>
        <time>2025-10-28T09:09:18.000Z</time>
      </trkpt>
      <trkpt lat="43.54593" lon="6.60164">
        <ele>245.4</ele>
        <time>2025-10-28T09:09:19.000Z</time>
      </trkpt>
      <trkpt lat="43.54593" lon="6.60164">
        <ele>245.4</ele>
        <time>2025-10-28T09:09:20.000Z</time>
      </trkpt>
      <trkpt lat="43.54593" lon="6.60164">
        <ele>245.3</ele>
        <time>2025-10-28T09:09:21.000Z</time>
      </trkpt>
      <trkpt lat="43.54593" lon="6.60164">
        <ele>245.3</ele>
        <time>2025-10-28T09:09:22.000Z</time>
      </trkpt>
      <trkpt lat="43.54593" lon="6.60164">
        <ele>245.2</ele>
        <time>2025-10-28T09:09:23.000Z</time>
      </trkpt>
      <trkpt lat="43.54593" lon="6.60164">
        <ele>245.2</ele>
        <time>2025-10-28T09:09:24.000Z</time>
      </trkpt>
      <trkpt lat="43.54594" lon="6.60164">
        <ele>245.1</ele>
        <time>2025-10-28T09:09:25.000Z</time>
      </trkpt>
      <trkpt lat="43.54595" lon="6.60164">
        <ele>244.9</ele>
        <time>2025-10-28T09:09:26.000Z</time>
      </trkpt>
      <trkpt lat="43.54595" lon="6.60164">
        <ele>244.8</ele>
        <time>2025-10-28T09:09:27.000Z</time>
      </trkpt>
      <trkpt lat="43.54596" lon="6.60165">
        <ele>244.6</ele>
        <time>2025-10-28T09:09:28.000Z</time>
      </trkpt>
      <trkpt lat="43.54597" lon="6.60165">
        <ele>244.4</ele>
        <time>2025-10-28T09:09:29.000Z</time>
      </trkpt>
      <trkpt lat="43.54599" lon="6.60166">
        <ele>244</ele>
        <time>2025-10-28T09:09:30.000Z</time>
      </trkpt>
      <trkpt lat="43.54601" lon="6.60166">
        <ele>243.7</ele>
        <time>2025-10-28T09:09:31.000Z</time>
      </trkpt>
      <trkpt lat="43.54603" lon="6.60167">
        <ele>243.4</ele>
        <time>2025-10-28T09:09:32.000Z</time>
      </trkpt>
      <trkpt lat="43.54605" lon="6.60167">
        <ele>243</ele>
        <time>2025-10-28T09:09:33.000Z</time>
      </trkpt>
      <trkpt lat="43.54608" lon="6.60167">
        <ele>242.7</ele>
        <time>2025-10-28T09:09:34.000Z</time>
      </trkpt>
      <trkpt lat="43.5461" lon="6.60167">
        <ele>242.3</ele>
        <time>2025-10-28T09:09:35.000Z</time>
      </trkpt>
      <trkpt lat="43.54612" lon="6.60167">
        <ele>242</ele>
        <time>2025-10-28T09:09:36.000Z</time>
      </trkpt>
      <trkpt lat="43.54615" lon="6.60167">
        <ele>241.7</ele>
        <time>2025-10-28T09:09:37.000Z</time>
      </trkpt>
      <trkpt lat="43.54617" lon="6.60167">
        <ele>241.4</ele>
        <time>2025-10-28T09:09:38.000Z</time>
      </trkpt>
      <trkpt lat="43.54619" lon="6.60168">
        <ele>241.1</ele>
        <time>2025-10-28T09:09:39.000Z</time>
      </trkpt>
      <trkpt lat="43.54621" lon="6.60168">
        <ele>240.9</ele>
        <time>2025-10-28T09:09:40.000Z</time>
      </trkpt>
      <trkpt lat="43.54621" lon="6.60168">
        <ele>240.9</ele>
        <time>2025-10-28T09:09:41.000Z</time>
      </trkpt>
      <trkpt lat="43.54621" lon="6.60168">
        <ele>240.9</ele>
        <time>2025-10-28T09:09:42.000Z</time>
      </trkpt>
      <trkpt lat="43.54621" lon="6.60168">
        <ele>240.8</ele>
        <time>2025-10-28T09:09:43.000Z</time>
      </trkpt>
      <trkpt lat="43.5462" lon="6.60168">
        <ele>240.7</ele>
        <time>2025-10-28T09:09:44.000Z</time>
      </trkpt>
      <trkpt lat="43.5462" lon="6.60168">
        <ele>240.7</ele>
        <time>2025-10-28T09:09:45.000Z</time>
      </trkpt>
      <trkpt lat="43.54619" lon="6.60167">
        <ele>240.6</ele>
        <time>2025-10-28T09:09:46.000Z</time>
      </trkpt>
      <trkpt lat="43.54618" lon="6.60167">
        <ele>240.5</ele>
        <time>2025-10-28T09:09:47.000Z</time>
      </trkpt>
      <trkpt lat="43.54617" lon="6.60168">
        <ele>240.4</ele>
        <time>2025-10-28T09:09:48.000Z</time>
      </trkpt>
      <trkpt lat="43.54616" lon="6.60167">
        <ele>240.3</ele>
        <time>2025-10-28T09:09:49.000Z</time>
      </trkpt>
      <trkpt lat="43.54615" lon="6.60167">
        <ele>240.2</ele>
        <time>2025-10-28T09:09:50.000Z</time>
      </trkpt>
      <trkpt lat="43.54614" lon="6.60167">
        <ele>240.1</ele>
        <time>2025-10-28T09:09:51.000Z</time>
      </trkpt>
      <trkpt lat="43.54612" lon="6.60167">
        <ele>240</ele>
        <time>2025-10-28T09:09:52.000Z</time>
      </trkpt>
      <trkpt lat="43.54611" lon="6.60168">
        <ele>239.9</ele>
        <time>2025-10-28T09:09:53.000Z</time>
      </trkpt>
      <trkpt lat="43.5461" lon="6.60168">
        <ele>239.8</ele>
        <time>2025-10-28T09:09:54.000Z</time>
      </trkpt>
      <trkpt lat="43.54609" lon="6.60168">
        <ele>239.8</ele>
        <time>2025-10-28T09:09:55.000Z</time>
      </trkpt>
      <trkpt lat="43.54608" lon="6.60168">
        <ele>239.7</ele>
        <time>2025-10-28T09:09:56.000Z</time>
      </trkpt>
      <trkpt lat="43.54607" lon="6.60167">
        <ele>239.6</ele>
        <time>2025-10-28T09:09:57.000Z</time>
      </trkpt>
      <trkpt lat="43.54605" lon="6.60167">
        <ele>239.5</ele>
        <time>2025-10-28T09:09:58.000Z</time>
      </trkpt>
      <trkpt lat="43.54604" lon="6.60166">
        <ele>239.4</ele>
        <time>2025-10-28T09:09:59.000Z</time>
      </trkpt>
      <trkpt lat="43.54604" lon="6.60166">
        <ele>239.4</ele>
        <time>2025-10-28T09:10:00.000Z</time>
      </trkpt>
      <trkpt lat="43.54603" lon="6.60165">
        <ele>239.3</ele>
        <time>2025-10-28T09:10:01.000Z</time>
      </trkpt>
      <trkpt lat="43.54602" lon="6.60165">
        <ele>239.3</ele>
        <time>2025-10-28T09:10:02.000Z</time>
      </trkpt>
      <trkpt lat="43.54602" lon="6.60165">
        <ele>239.3</ele>
        <time>2025-10-28T09:10:03.000Z</time>
      </trkpt>
      <trkpt lat="43.54602" lon="6.60165">
        <ele>239.2</ele>
        <time>2025-10-28T09:10:04.000Z</time>
      </trkpt>
      <trkpt lat="43.54601" lon="6.60165">
        <ele>239.2</ele>
        <time>2025-10-28T09:10:05.000Z</time>
      </trkpt>
      <trkpt lat="43.54601" lon="6.60165">
        <ele>239.1</ele>
        <time>2025-10-28T09:10:06.000Z</time>
      </trkpt>
      <trkpt lat="43.546" lon="6.60165">
        <ele>239.1</ele>
        <time>2025-10-28T09:10:07.000Z</time>
      </trkpt>
      <trkpt lat="43.54599" lon="6.60165">
        <ele>239</ele>
        <time>2025-10-28T09:10:08.000Z</time>
      </trkpt>
      <trkpt lat="43.54598" lon="6.60165">
        <ele>239</ele>
        <time>2025-10-28T09:10:09.000Z</time>
      </trkpt>
      <trkpt lat="43.54597" lon="6.60165">
        <ele>238.9</ele>
        <time>2025-10-28T09:10:10.000Z</time>
      </trkpt>
      <trkpt lat="43.54595" lon="6.60163">
        <ele>238.7</ele>
        <time>2025-10-28T09:10:11.000Z</time>
      </trkpt>
      <trkpt lat="43.54594" lon="6.60162">
        <ele>238.5</ele>
        <time>2025-10-28T09:10:12.000Z</time>
      </trkpt>
      <trkpt lat="43.54594" lon="6.60161">
        <ele>238.5</ele>
        <time>2025-10-28T09:10:13.000Z</time>
      </trkpt>
      <trkpt lat="43.54593" lon="6.60161">
        <ele>238.4</ele>
        <time>2025-10-28T09:10:14.000Z</time>
      </trkpt>
      <trkpt lat="43.54594" lon="6.60162">
        <ele>238.3</ele>
        <time>2025-10-28T09:10:15.000Z</time>
      </trkpt>
      <trkpt lat="43.54594" lon="6.60162">
        <ele>238.3</ele>
        <time>2025-10-28T09:10:16.000Z</time>
      </trkpt>
      <trkpt lat="43.54594" lon="6.60162">
        <ele>238.3</ele>
        <time>2025-10-28T09:10:17.000Z</time>
      </trkpt>
      <trkpt lat="43.54595" lon="6.60163">
        <ele>238.2</ele>
        <time>2025-10-28T09:10:18.000Z</time>
      </trkpt>
      <trkpt lat="43.54595" lon="6.60163">
        <ele>238.1</ele>
        <time>2025-10-28T09:10:19.000Z</time>
      </trkpt>
      <trkpt lat="43.54595" lon="6.60163">
        <ele>238.1</ele>
        <time>2025-10-28T09:10:20.000Z</time>
      </trkpt>
      <trkpt lat="43.54595" lon="6.60163">
        <ele>238.1</ele>
        <time>2025-10-28T09:10:21.000Z</time>
      </trkpt>
      <trkpt lat="43.54595" lon="6.60164">
        <ele>238</ele>
        <time>2025-10-28T09:10:22.000Z</time>
      </trkpt>
      <trkpt lat="43.54594" lon="6.60164">
        <ele>237.9</ele>
        <time>2025-10-28T09:10:23.000Z</time>
      </trkpt>
      <trkpt lat="43.54594" lon="6.60164">
        <ele>237.9</ele>
        <time>2025-10-28T09:10:24.000Z</time>
      </trkpt>
      <trkpt lat="43.54594" lon="6.60164">
        <ele>237.8</ele>
        <time>2025-10-28T09:10:25.000Z</time>
      </trkpt>
      <trkpt lat="43.54595" lon="6.60164">
        <ele>237.8</ele>
        <time>2025-10-28T09:10:26.000Z</time>
      </trkpt>
      <trkpt lat="43.54595" lon="6.60164">
        <ele>237.7</ele>
        <time>2025-10-28T09:10:27.000Z</time>
      </trkpt>
      <trkpt lat="43.54595" lon="6.60164">
        <ele>237.7</ele>
        <time>2025-10-28T09:10:28.000Z</time>
      </trkpt>
      <trkpt lat="43.54595" lon="6.60164">
        <ele>237.7</ele>
        <time>2025-10-28T09:10:29.000Z</time>
      </trkpt>
      <trkpt lat="43.54595" lon="6.60164">
        <ele>237.7</ele>
        <time>2025-10-28T09:10:30.000Z</time>
      </trkpt>
      <trkpt lat="43.54595" lon="6.60164">
        <ele>237.7</ele>
        <time>2025-10-28T09:10:31.000Z</time>
      </trkpt>
      <trkpt lat="43.54595" lon="6.60164">
        <ele>237.7</ele>
        <time>2025-10-28T09:10:32.000Z</time>
      </trkpt>
      <trkpt lat="43.54595" lon="6.60164">
        <ele>237.7</ele>
        <time>2025-10-28T09:10:33.000Z</time>
      </trkpt>
      <trkpt lat="43.54595" lon="6.60164">
        <ele>237.7</ele>
        <time>2025-10-28T09:10:34.000Z</time>
      </trkpt>
      <trkpt lat="43.54595" lon="6.60164">
        <ele>237.7</ele>
        <time>2025-10-28T09:10:35.000Z</time>
      </trkpt>
      <trkpt lat="43.54595" lon="6.60164">
        <ele>237.7</ele>
        <time>2025-10-28T09:10:36.000Z</time>
      </trkpt>
      <trkpt lat="43.54595" lon="6.60164">
        <ele>237.7</ele>
        <time>2025-10-28T09:10:37.000Z</time>
      </trkpt>
      <trkpt lat="43.54595" lon="6.60164">
        <ele>237.7</ele>
        <time>2025-10-28T09:10:38.000Z</time>
      </trkpt>
      <trkpt lat="43.54595" lon="6.60164">
        <ele>237.7</ele>
        <time>2025-10-28T09:10:39.000Z</time>
      </trkpt>
      <trkpt lat="43.54595" lon="6.60164">
        <ele>237.7</ele>
        <time>2025-10-28T09:10:40.000Z</time>
      </trkpt>
      <trkpt lat="43.54595" lon="6.60163">
        <ele>237.7</ele>
        <time>2025-10-28T09:10:41.000Z</time>
      </trkpt>
      <trkpt lat="43.54595" lon="6.60163">
        <ele>237.7</ele>
        <time>2025-10-28T09:10:42.000Z</time>
      </trkpt>
      <trkpt lat="43.54595" lon="6.60163">
        <ele>237.7</ele>
        <time>2025-10-28T09:10:43.000Z</time>
      </trkpt>
      <trkpt lat="43.54595" lon="6.60163">
        <ele>237.7</ele>
        <time>2025-10-28T09:10:44.000Z</time>
      </trkpt>
      <trkpt lat="43.54595" lon="6.60163">
        <ele>237.7</ele>
        <time>2025-10-28T09:10:45.000Z</time>
      </trkpt>
      <trkpt lat="43.54595" lon="6.60163">
        <ele>237.7</ele>
        <time>2025-10-28T09:10:46.000Z</time>
      </trkpt>
      <trkpt lat="43.54595" lon="6.60163">
        <ele>237.7</ele>
        <time>2025-10-28T09:10:47.000Z</time>
      </trkpt>
      <trkpt lat="43.54595" lon="6.60163">
        <ele>237.7</ele>
        <time>2025-10-28T09:10:48.000Z</time>
      </trkpt>
      <trkpt lat="43.54595" lon="6.60163">
        <ele>237.7</ele>
        <time>2025-10-28T09:10:49.000Z</time>
      </trkpt>
      <trkpt lat="43.54595" lon="6.60163">
        <ele>237.7</ele>
        <time>2025-10-28T09:10:50.000Z</time>
      </trkpt>
      <trkpt lat="43.54595" lon="6.60163">
        <ele>237.7</ele>
        <time>2025-10-28T09:10:51.000Z</time>
      </trkpt>
      <trkpt lat="43.54595" lon="6.60163">
        <ele>237.7</ele>
        <time>2025-10-28T09:10:52.000Z</time>
      </trkpt>
      <trkpt lat="43.54595" lon="6.60163">
        <ele>237.7</ele>
        <time>2025-10-28T09:10:53.000Z</time>
      </trkpt>
      <trkpt lat="43.54595" lon="6.60163">
        <ele>237.7</ele>
        <time>2025-10-28T09:10:54.000Z</time>
      </trkpt>
      <trkpt lat="43.54595" lon="6.60163">
        <ele>237.7</ele>
        <time>2025-10-28T09:10:55.000Z</time>
      </trkpt>
      <trkpt lat="43.54595" lon="6.60163">
        <ele>237.7</ele>
        <time>2025-10-28T09:10:56.000Z</time>
      </trkpt>
      <trkpt lat="43.54595" lon="6.60163">
        <ele>237.7</ele>
        <time>2025-10-28T09:10:57.000Z</time>
      </trkpt>
      <trkpt lat="43.54595" lon="6.60163">
        <ele>237.6</ele>
        <time>2025-10-28T09:10:58.000Z</time>
      </trkpt>
      <trkpt lat="43.54595" lon="6.60164">
        <ele>237.6</ele>
        <time>2025-10-28T09:10:59.000Z</time>
      </trkpt>
      <trkpt lat="43.54595" lon="6.60164">
        <ele>237.6</ele>
        <time>2025-10-28T09:11:00.000Z</time>
      </trkpt>
      <trkpt lat="43.54595" lon="6.60164">
        <ele>237.6</ele>
        <time>2025-10-28T09:11:01.000Z</time>
      </trkpt>
      <trkpt lat="43.54594" lon="6.60165">
        <ele>237.5</ele>
        <time>2025-10-28T09:11:02.000Z</time>
      </trkpt>
      <trkpt lat="43.54594" lon="6.60165">
        <ele>237.4</ele>
        <time>2025-10-28T09:11:03.000Z</time>
      </trkpt>
      <trkpt lat="43.54594" lon="6.60165">
        <ele>237.4</ele>
        <time>2025-10-28T09:11:04.000Z</time>
      </trkpt>
      <trkpt lat="43.54594" lon="6.60165">
        <ele>237.4</ele>
        <time>2025-10-28T09:11:05.000Z</time>
      </trkpt>
      <trkpt lat="43.54594" lon="6.60165">
        <ele>237.3</ele>
        <time>2025-10-28T09:11:06.000Z</time>
      </trkpt>
      <trkpt lat="43.54594" lon="6.60165">
        <ele>237.3</ele>
        <time>2025-10-28T09:11:07.000Z</time>
      </trkpt>
      <trkpt lat="43.54594" lon="6.60165">
        <ele>237.3</ele>
        <time>2025-10-28T09:11:08.000Z</time>
      </trkpt>
      <trkpt lat="43.54594" lon="6.60165">
        <ele>237.3</ele>
        <time>2025-10-28T09:11:09.000Z</time>
      </trkpt>
      <trkpt lat="43.54594" lon="6.60165">
        <ele>237.3</ele>
        <time>2025-10-28T09:11:10.000Z</time>
      </trkpt>
      <trkpt lat="43.54594" lon="6.60165">
        <ele>237.3</ele>
        <time>2025-10-28T09:11:11.000Z</time>
      </trkpt>
      <trkpt lat="43.54594" lon="6.60165">
        <ele>237.3</ele>
        <time>2025-10-28T09:11:12.000Z</time>
      </trkpt>
      <trkpt lat="43.54594" lon="6.60165">
        <ele>237.3</ele>
        <time>2025-10-28T09:11:13.000Z</time>
      </trkpt>
      <trkpt lat="43.54594" lon="6.60165">
        <ele>237.3</ele>
        <time>2025-10-28T09:11:14.000Z</time>
      </trkpt>
      <trkpt lat="43.54594" lon="6.60166">
        <ele>237.3</ele>
        <time>2025-10-28T09:11:15.000Z</time>
      </trkpt>
      <trkpt lat="43.54594" lon="6.60166">
        <ele>237.3</ele>
        <time>2025-10-28T09:11:16.000Z</time>
      </trkpt>
      <trkpt lat="43.54594" lon="6.60166">
        <ele>237.3</ele>
        <time>2025-10-28T09:11:17.000Z</time>
      </trkpt>
      <trkpt lat="43.54594" lon="6.60166">
        <ele>237.2</ele>
        <time>2025-10-28T09:11:18.000Z</time>
      </trkpt>
      <trkpt lat="43.54596" lon="6.60167">
        <ele>236.9</ele>
        <time>2025-10-28T09:11:19.000Z</time>
      </trkpt>
      <trkpt lat="43.54597" lon="6.60168">
        <ele>236.7</ele>
        <time>2025-10-28T09:11:20.000Z</time>
      </trkpt>
      <trkpt lat="43.54598" lon="6.60169">
        <ele>236.5</ele>
        <time>2025-10-28T09:11:21.000Z</time>
      </trkpt>
      <trkpt lat="43.546" lon="6.60169">
        <ele>236.2</ele>
        <time>2025-10-28T09:11:22.000Z</time>
      </trkpt>
      <trkpt lat="43.54602" lon="6.60169">
        <ele>235.9</ele>
        <time>2025-10-28T09:11:23.000Z</time>
      </trkpt>
      <trkpt lat="43.54603" lon="6.60169">
        <ele>235.7</ele>
        <time>2025-10-28T09:11:24.000Z</time>
      </trkpt>
      <trkpt lat="43.54603" lon="6.60169">
        <ele>235.6</ele>
        <time>2025-10-28T09:11:25.000Z</time>
      </trkpt>
      <trkpt lat="43.54603" lon="6.60169">
        <ele>235.6</ele>
        <time>2025-10-28T09:11:26.000Z</time>
      </trkpt>
      <trkpt lat="43.54604" lon="6.60169">
        <ele>235.5</ele>
        <time>2025-10-28T09:11:27.000Z</time>
      </trkpt>
      <trkpt lat="43.54604" lon="6.60169">
        <ele>235.4</ele>
        <time>2025-10-28T09:11:28.000Z</time>
      </trkpt>
      <trkpt lat="43.54604" lon="6.60169">
        <ele>235.4</ele>
        <time>2025-10-28T09:11:29.000Z</time>
      </trkpt>
      <trkpt lat="43.54604" lon="6.60169">
        <ele>235.4</ele>
        <time>2025-10-28T09:11:30.000Z</time>
      </trkpt>
      <trkpt lat="43.54604" lon="6.60169">
        <ele>235.3</ele>
        <time>2025-10-28T09:11:31.000Z</time>
      </trkpt>
      <trkpt lat="43.54604" lon="6.60168">
        <ele>235.2</ele>
        <time>2025-10-28T09:11:32.000Z</time>
      </trkpt>
      <trkpt lat="43.54604" lon="6.60168">
        <ele>235.1</ele>
        <time>2025-10-28T09:11:33.000Z</time>
      </trkpt>
      <trkpt lat="43.54603" lon="6.60168">
        <ele>235.1</ele>
        <time>2025-10-28T09:11:34.000Z</time>
      </trkpt>
      <trkpt lat="43.54603" lon="6.60168">
        <ele>235</ele>
        <time>2025-10-28T09:11:35.000Z</time>
      </trkpt>
      <trkpt lat="43.54603" lon="6.60168">
        <ele>235</ele>
        <time>2025-10-28T09:11:36.000Z</time>
      </trkpt>
      <trkpt lat="43.54603" lon="6.60168">
        <ele>234.9</ele>
        <time>2025-10-28T09:11:37.000Z</time>
      </trkpt>
      <trkpt lat="43.54603" lon="6.60168">
        <ele>234.9</ele>
        <time>2025-10-28T09:11:38.000Z</time>
      </trkpt>
      <trkpt lat="43.54603" lon="6.60168">
        <ele>234.9</ele>
        <time>2025-10-28T09:11:39.000Z</time>
      </trkpt>
      <trkpt lat="43.54603" lon="6.60168">
        <ele>234.9</ele>
        <time>2025-10-28T09:11:40.000Z</time>
      </trkpt>
      <trkpt lat="43.54603" lon="6.60168">
        <ele>234.9</ele>
        <time>2025-10-28T09:11:41.000Z</time>
      </trkpt>
      <trkpt lat="43.54603" lon="6.60168">
        <ele>234.9</ele>
        <time>2025-10-28T09:11:42.000Z</time>
      </trkpt>
      <trkpt lat="43.54603" lon="6.60168">
        <ele>234.9</ele>
        <time>2025-10-28T09:11:43.000Z</time>
      </trkpt>
      <trkpt lat="43.54603" lon="6.60168">
        <ele>234.9</ele>
        <time>2025-10-28T09:11:44.000Z</time>
      </trkpt>
      <trkpt lat="43.54603" lon="6.60168">
        <ele>234.9</ele>
        <time>2025-10-28T09:11:45.000Z</time>
      </trkpt>
      <trkpt lat="43.54603" lon="6.60168">
        <ele>234.9</ele>
        <time>2025-10-28T09:11:46.000Z</time>
      </trkpt>
      <trkpt lat="43.54603" lon="6.60168">
        <ele>234.9</ele>
        <time>2025-10-28T09:11:47.000Z</time>
      </trkpt>
      <trkpt lat="43.54603" lon="6.60168">
        <ele>234.9</ele>
        <time>2025-10-28T09:11:48.000Z</time>
      </trkpt>
      <trkpt lat="43.54603" lon="6.60168">
        <ele>234.9</ele>
        <time>2025-10-28T09:11:49.000Z</time>
      </trkpt>
      <trkpt lat="43.54603" lon="6.60168">
        <ele>234.9</ele>
        <time>2025-10-28T09:11:50.000Z</time>
      </trkpt>
      <trkpt lat="43.54603" lon="6.60168">
        <ele>234.9</ele>
        <time>2025-10-28T09:11:51.000Z</time>
      </trkpt>
      <trkpt lat="43.54603" lon="6.60168">
        <ele>234.9</ele>
        <time>2025-10-28T09:11:52.000Z</time>
      </trkpt>
      <trkpt lat="43.54603" lon="6.60168">
        <ele>234.9</ele>
        <time>2025-10-28T09:11:53.000Z</time>
      </trkpt>
      <trkpt lat="43.54603" lon="6.60168">
        <ele>234.9</ele>
        <time>2025-10-28T09:11:54.000Z</time>
      </trkpt>
      <trkpt lat="43.54603" lon="6.60168">
        <ele>234.9</ele>
        <time>2025-10-28T09:11:55.000Z</time>
      </trkpt>
      <trkpt lat="43.54603" lon="6.60168">
        <ele>234.9</ele>
        <time>2025-10-28T09:11:56.000Z</time>
      </trkpt>
      <trkpt lat="43.54603" lon="6.60168">
        <ele>234.9</ele>
        <time>2025-10-28T09:11:57.000Z</time>
      </trkpt>
      <trkpt lat="43.54603" lon="6.60168">
        <ele>234.9</ele>
        <time>2025-10-28T09:11:58.000Z</time>
      </trkpt>
      <trkpt lat="43.54603" lon="6.60168">
        <ele>234.9</ele>
        <time>2025-10-28T09:11:59.000Z</time>
      </trkpt>
      <trkpt lat="43.54603" lon="6.60168">
        <ele>234.9</ele>
        <time>2025-10-28T09:12:00.000Z</time>
      </trkpt>
      <trkpt lat="43.54603" lon="6.60168">
        <ele>234.9</ele>
        <time>2025-10-28T09:12:01.000Z</time>
      </trkpt>
      <trkpt lat="43.54603" lon="6.60168">
        <ele>234.9</ele>
        <time>2025-10-28T09:12:02.000Z</time>
      </trkpt>
      <trkpt lat="43.54603" lon="6.60168">
        <ele>234.9</ele>
        <time>2025-10-28T09:12:03.000Z</time>
      </trkpt>
      <trkpt lat="43.54603" lon="6.60167">
        <ele>234.9</ele>
        <time>2025-10-28T09:12:04.000Z</time>
      </trkpt>
      <trkpt lat="43.54603" lon="6.60167">
        <ele>234.9</ele>
        <time>2025-10-28T09:12:05.000Z</time>
      </trkpt>
      <trkpt lat="43.54603" lon="6.60167">
        <ele>234.9</ele>
        <time>2025-10-28T09:12:06.000Z</time>
      </trkpt>
      <trkpt lat="43.54603" lon="6.60167">
        <ele>234.9</ele>
        <time>2025-10-28T09:12:07.000Z</time>
      </trkpt>
      <trkpt lat="43.54603" lon="6.60167">
        <ele>234.8</ele>
        <time>2025-10-28T09:12:08.000Z</time>
      </trkpt>
      <trkpt lat="43.54603" lon="6.60167">
        <ele>234.8</ele>
        <time>2025-10-28T09:12:09.000Z</time>
      </trkpt>
      <trkpt lat="43.54602" lon="6.60167">
        <ele>234.7</ele>
        <time>2025-10-28T09:12:10.000Z</time>
      </trkpt>
      <trkpt lat="43.54602" lon="6.60167">
        <ele>234.7</ele>
        <time>2025-10-28T09:12:11.000Z</time>
      </trkpt>
      <trkpt lat="43.54602" lon="6.60167">
        <ele>234.7</ele>
        <time>2025-10-28T09:12:12.000Z</time>
      </trkpt>
      <trkpt lat="43.54602" lon="6.60167">
        <ele>234.7</ele>
        <time>2025-10-28T09:12:13.000Z</time>
      </trkpt>
      <trkpt lat="43.54602" lon="6.60167">
        <ele>234.7</ele>
        <time>2025-10-28T09:12:14.000Z</time>
      </trkpt>
      <trkpt lat="43.54602" lon="6.60166">
        <ele>234.6</ele>
        <time>2025-10-28T09:12:15.000Z</time>
      </trkpt>
      <trkpt lat="43.54602" lon="6.60166">
        <ele>234.6</ele>
        <time>2025-10-28T09:12:16.000Z</time>
      </trkpt>
      <trkpt lat="43.54602" lon="6.60166">
        <ele>234.6</ele>
        <time>2025-10-28T09:12:17.000Z</time>
      </trkpt>
      <trkpt lat="43.54602" lon="6.60166">
        <ele>234.6</ele>
        <time>2025-10-28T09:12:18.000Z</time>
      </trkpt>
      <trkpt lat="43.54602" lon="6.60166">
        <ele>234.6</ele>
        <time>2025-10-28T09:12:19.000Z</time>
      </trkpt>
      <trkpt lat="43.54602" lon="6.60166">
        <ele>234.6</ele>
        <time>2025-10-28T09:12:20.000Z</time>
      </trkpt>
      <trkpt lat="43.54602" lon="6.60166">
        <ele>234.6</ele>
        <time>2025-10-28T09:12:21.000Z</time>
      </trkpt>
      <trkpt lat="43.54602" lon="6.60166">
        <ele>234.6</ele>
        <time>2025-10-28T09:12:22.000Z</time>
      </trkpt>
      <trkpt lat="43.54603" lon="6.60166">
        <ele>234.5</ele>
        <time>2025-10-28T09:12:23.000Z</time>
      </trkpt>
      <trkpt lat="43.54604" lon="6.60166">
        <ele>234.3</ele>
        <time>2025-10-28T09:12:24.000Z</time>
      </trkpt>
      <trkpt lat="43.54605" lon="6.60166">
        <ele>234.1</ele>
        <time>2025-10-28T09:12:25.000Z</time>
      </trkpt>
      <trkpt lat="43.54606" lon="6.60166">
        <ele>233.8</ele>
        <time>2025-10-28T09:12:26.000Z</time>
      </trkpt>
      <trkpt lat="43.54608" lon="6.60165">
        <ele>233.5</ele>
        <time>2025-10-28T09:12:27.000Z</time>
      </trkpt>
      <trkpt lat="43.54609" lon="6.60165">
        <ele>233.2</ele>
        <time>2025-10-28T09:12:28.000Z</time>
      </trkpt>
      <trkpt lat="43.54611" lon="6.60165">
        <ele>232.8</ele>
        <time>2025-10-28T09:12:29.000Z</time>
      </trkpt>
      <trkpt lat="43.54612" lon="6.60165">
        <ele>232.6</ele>
        <time>2025-10-28T09:12:30.000Z</time>
      </trkpt>
      <trkpt lat="43.54613" lon="6.60165">
        <ele>232.2</ele>
        <time>2025-10-28T09:12:31.000Z</time>
      </trkpt>
      <trkpt lat="43.54615" lon="6.60166">
        <ele>231.9</ele>
        <time>2025-10-28T09:12:32.000Z</time>
      </trkpt>
      <trkpt lat="43.54616" lon="6.60166">
        <ele>231.7</ele>
        <time>2025-10-28T09:12:33.000Z</time>
      </trkpt>
      <trkpt lat="43.54617" lon="6.60166">
        <ele>231.6</ele>
        <time>2025-10-28T09:12:34.000Z</time>
      </trkpt>
      <trkpt lat="43.54617" lon="6.60166">
        <ele>231.4</ele>
        <time>2025-10-28T09:12:35.000Z</time>
      </trkpt>
      <trkpt lat="43.54618" lon="6.60166">
        <ele>231.3</ele>
        <time>2025-10-28T09:12:36.000Z</time>
      </trkpt>
      <trkpt lat="43.54618" lon="6.60166">
        <ele>231.2</ele>
        <time>2025-10-28T09:12:37.000Z</time>
      </trkpt>
      <trkpt lat="43.54618" lon="6.60167">
        <ele>231.2</ele>
        <time>2025-10-28T09:12:38.000Z</time>
      </trkpt>
      <trkpt lat="43.54619" lon="6.60167">
        <ele>231.1</ele>
        <time>2025-10-28T09:12:39.000Z</time>
      </trkpt>
      <trkpt lat="43.54619" lon="6.60167">
        <ele>231</ele>
        <time>2025-10-28T09:12:40.000Z</time>
      </trkpt>
      <trkpt lat="43.54619" lon="6.60168">
        <ele>230.9</ele>
        <time>2025-10-28T09:12:41.000Z</time>
      </trkpt>
      <trkpt lat="43.54618" lon="6.60168">
        <ele>230.8</ele>
        <time>2025-10-28T09:12:42.000Z</time>
      </trkpt>
      <trkpt lat="43.54618" lon="6.60168">
        <ele>230.8</ele>
        <time>2025-10-28T09:12:43.000Z</time>
      </trkpt>
      <trkpt lat="43.54618" lon="6.60168">
        <ele>230.8</ele>
        <time>2025-10-28T09:12:44.000Z</time>
      </trkpt>
      <trkpt lat="43.54618" lon="6.60168">
        <ele>230.8</ele>
        <time>2025-10-28T09:12:45.000Z</time>
      </trkpt>
      <trkpt lat="43.54618" lon="6.60168">
        <ele>230.7</ele>
        <time>2025-10-28T09:12:46.000Z</time>
      </trkpt>
      <trkpt lat="43.54618" lon="6.60168">
        <ele>230.7</ele>
        <time>2025-10-28T09:12:47.000Z</time>
      </trkpt>
      <trkpt lat="43.54618" lon="6.60168">
        <ele>230.7</ele>
        <time>2025-10-28T09:12:48.000Z</time>
      </trkpt>
      <trkpt lat="43.54618" lon="6.60168">
        <ele>230.7</ele>
        <time>2025-10-28T09:12:49.000Z</time>
      </trkpt>
      <trkpt lat="43.54618" lon="6.60168">
        <ele>230.7</ele>
        <time>2025-10-28T09:12:50.000Z</time>
      </trkpt>
      <trkpt lat="43.54618" lon="6.60168">
        <ele>230.7</ele>
        <time>2025-10-28T09:12:51.000Z</time>
      </trkpt>
      <trkpt lat="43.54618" lon="6.60168">
        <ele>230.7</ele>
        <time>2025-10-28T09:12:52.000Z</time>
      </trkpt>
      <trkpt lat="43.54618" lon="6.60168">
        <ele>230.7</ele>
        <time>2025-10-28T09:12:53.000Z</time>
      </trkpt>
      <trkpt lat="43.54618" lon="6.60168">
        <ele>230.7</ele>
        <time>2025-10-28T09:12:54.000Z</time>
      </trkpt>
      <trkpt lat="43.54618" lon="6.60168">
        <ele>230.7</ele>
        <time>2025-10-28T09:12:55.000Z</time>
      </trkpt>
      <trkpt lat="43.54618" lon="6.60168">
        <ele>230.7</ele>
        <time>2025-10-28T09:12:56.000Z</time>
      </trkpt>
      <trkpt lat="43.54618" lon="6.60168">
        <ele>230.7</ele>
        <time>2025-10-28T09:12:57.000Z</time>
      </trkpt>
      <trkpt lat="43.54618" lon="6.60168">
        <ele>230.7</ele>
        <time>2025-10-28T09:12:58.000Z</time>
      </trkpt>
      <trkpt lat="43.54618" lon="6.60168">
        <ele>230.7</ele>
        <time>2025-10-28T09:12:59.000Z</time>
      </trkpt>
      <trkpt lat="43.54618" lon="6.60168">
        <ele>230.7</ele>
        <time>2025-10-28T09:13:00.000Z</time>
      </trkpt>
      <trkpt lat="43.54618" lon="6.60168">
        <ele>230.7</ele>
        <time>2025-10-28T09:13:01.000Z</time>
      </trkpt>
      <trkpt lat="43.54618" lon="6.60168">
        <ele>230.7</ele>
        <time>2025-10-28T09:13:02.000Z</time>
      </trkpt>
      <trkpt lat="43.54618" lon="6.60168">
        <ele>230.7</ele>
        <time>2025-10-28T09:13:03.000Z</time>
      </trkpt>
      <trkpt lat="43.54619" lon="6.60168">
        <ele>230.6</ele>
        <time>2025-10-28T09:13:04.000Z</time>
      </trkpt>
      <trkpt lat="43.54619" lon="6.60168">
        <ele>230.6</ele>
        <time>2025-10-28T09:13:05.000Z</time>
      </trkpt>
      <trkpt lat="43.54619" lon="6.60168">
        <ele>230.6</ele>
        <time>2025-10-28T09:13:06.000Z</time>
      </trkpt>
      <trkpt lat="43.54619" lon="6.60168">
        <ele>230.6</ele>
        <time>2025-10-28T09:13:07.000Z</time>
      </trkpt>
      <trkpt lat="43.54619" lon="6.60168">
        <ele>230.6</ele>
        <time>2025-10-28T09:13:08.000Z</time>
      </trkpt>
      <trkpt lat="43.54619" lon="6.60168">
        <ele>230.5</ele>
        <time>2025-10-28T09:13:09.000Z</time>
      </trkpt>
      <trkpt lat="43.54619" lon="6.60168">
        <ele>230.5</ele>
        <time>2025-10-28T09:13:10.000Z</time>
      </trkpt>
      <trkpt lat="43.5462" lon="6.60168">
        <ele>230.4</ele>
        <time>2025-10-28T09:13:11.000Z</time>
      </trkpt>
      <trkpt lat="43.54621" lon="6.60171">
        <ele>229.9</ele>
        <time>2025-10-28T09:13:12.000Z</time>
      </trkpt>
      <trkpt lat="43.54623" lon="6.60174">
        <ele>229.3</ele>
        <time>2025-10-28T09:13:13.000Z</time>
      </trkpt>
      <trkpt lat="43.54626" lon="6.60177">
        <ele>228.7</ele>
        <time>2025-10-28T09:13:14.000Z</time>
      </trkpt>
      <trkpt lat="43.54627" lon="6.6018">
        <ele>228.1</ele>
        <time>2025-10-28T09:13:15.000Z</time>
      </trkpt>
      <trkpt lat="43.54629" lon="6.60184">
        <ele>227.5</ele>
        <time>2025-10-28T09:13:16.000Z</time>
      </trkpt>
      <trkpt lat="43.54632" lon="6.60189">
        <ele>226.6</ele>
        <time>2025-10-28T09:13:17.000Z</time>
      </trkpt>
      <trkpt lat="43.54634" lon="6.60192">
        <ele>225.9</ele>
        <time>2025-10-28T09:13:18.000Z</time>
      </trkpt>
      <trkpt lat="43.54635" lon="6.60196">
        <ele>225.2</ele>
        <time>2025-10-28T09:13:19.000Z</time>
      </trkpt>
      <trkpt lat="43.54637" lon="6.60199">
        <ele>224.5</ele>
        <time>2025-10-28T09:13:20.000Z</time>
      </trkpt>
      <trkpt lat="43.54639" lon="6.60203">
        <ele>223.8</ele>
        <time>2025-10-28T09:13:21.000Z</time>
      </trkpt>
      <trkpt lat="43.5464" lon="6.60207">
        <ele>223</ele>
        <time>2025-10-28T09:13:22.000Z</time>
      </trkpt>
      <trkpt lat="43.54641" lon="6.6021">
        <ele>222.4</ele>
        <time>2025-10-28T09:13:23.000Z</time>
      </trkpt>
      <trkpt lat="43.54642" lon="6.60213">
        <ele>221.8</ele>
        <time>2025-10-28T09:13:24.000Z</time>
      </trkpt>
      <trkpt lat="43.54644" lon="6.60217">
        <ele>220.9</ele>
        <time>2025-10-28T09:13:25.000Z</time>
      </trkpt>
      <trkpt lat="43.54646" lon="6.6022">
        <ele>220.2</ele>
        <time>2025-10-28T09:13:26.000Z</time>
      </trkpt>
      <trkpt lat="43.54647" lon="6.60223">
        <ele>219.6</ele>
        <time>2025-10-28T09:13:27.000Z</time>
      </trkpt>
      <trkpt lat="43.54649" lon="6.60226">
        <ele>218.8</ele>
        <time>2025-10-28T09:13:28.000Z</time>
      </trkpt>
      <trkpt lat="43.5465" lon="6.6023">
        <ele>218</ele>
        <time>2025-10-28T09:13:29.000Z</time>
      </trkpt>
      <trkpt lat="43.54651" lon="6.60236">
        <ele>216.9</ele>
        <time>2025-10-28T09:13:30.000Z</time>
      </trkpt>
      <trkpt lat="43.54653" lon="6.60239">
        <ele>216.1</ele>
        <time>2025-10-28T09:13:31.000Z</time>
      </trkpt>
      <trkpt lat="43.54655" lon="6.60242">
        <ele>215.3</ele>
        <time>2025-10-28T09:13:32.000Z</time>
      </trkpt>
      <trkpt lat="43.54657" lon="6.60242">
        <ele>214.7</ele>
        <time>2025-10-28T09:13:33.000Z</time>
      </trkpt>
      <trkpt lat="43.54659" lon="6.60242">
        <ele>214.3</ele>
        <time>2025-10-28T09:13:34.000Z</time>
      </trkpt>
      <trkpt lat="43.5466" lon="6.60239">
        <ele>213.8</ele>
        <time>2025-10-28T09:13:35.000Z</time>
      </trkpt>
      <trkpt lat="43.5466" lon="6.60237">
        <ele>213.4</ele>
        <time>2025-10-28T09:13:36.000Z</time>
      </trkpt>
      <trkpt lat="43.5466" lon="6.60233">
        <ele>212.8</ele>
        <time>2025-10-28T09:13:37.000Z</time>
      </trkpt>
      <trkpt lat="43.5466" lon="6.6023">
        <ele>212.2</ele>
        <time>2025-10-28T09:13:38.000Z</time>
      </trkpt>
      <trkpt lat="43.54661" lon="6.60226">
        <ele>211.5</ele>
        <time>2025-10-28T09:13:39.000Z</time>
      </trkpt>
      <trkpt lat="43.54661" lon="6.60222">
        <ele>210.9</ele>
        <time>2025-10-28T09:13:40.000Z</time>
      </trkpt>
      <trkpt lat="43.54662" lon="6.6022">
        <ele>210.3</ele>
        <time>2025-10-28T09:13:41.000Z</time>
      </trkpt>
      <trkpt lat="43.54663" lon="6.60217">
        <ele>209.9</ele>
        <time>2025-10-28T09:13:42.000Z</time>
      </trkpt>
      <trkpt lat="43.54664" lon="6.60215">
        <ele>209.4</ele>
        <time>2025-10-28T09:13:43.000Z</time>
      </trkpt>
      <trkpt lat="43.54665" lon="6.60212">
        <ele>208.8</ele>
        <time>2025-10-28T09:13:44.000Z</time>
      </trkpt>
      <trkpt lat="43.54667" lon="6.6021">
        <ele>208.2</ele>
        <time>2025-10-28T09:13:45.000Z</time>
      </trkpt>
      <trkpt lat="43.54668" lon="6.60208">
        <ele>207.8</ele>
        <time>2025-10-28T09:13:46.000Z</time>
      </trkpt>
      <trkpt lat="43.5467" lon="6.60205">
        <ele>207</ele>
        <time>2025-10-28T09:13:47.000Z</time>
      </trkpt>
      <trkpt lat="43.54672" lon="6.60202">
        <ele>206.1</ele>
        <time>2025-10-28T09:13:48.000Z</time>
      </trkpt>
      <trkpt lat="43.54675" lon="6.60201">
        <ele>205.2</ele>
        <time>2025-10-28T09:13:49.000Z</time>
      </trkpt>
      <trkpt lat="43.54678" lon="6.602">
        <ele>204.4</ele>
        <time>2025-10-28T09:13:50.000Z</time>
      </trkpt>
      <trkpt lat="43.5468" lon="6.60202">
        <ele>203.7</ele>
        <time>2025-10-28T09:13:51.000Z</time>
      </trkpt>
      <trkpt lat="43.54682" lon="6.60205">
        <ele>203</ele>
        <time>2025-10-28T09:13:52.000Z</time>
      </trkpt>
      <trkpt lat="43.54685" lon="6.60209">
        <ele>201.8</ele>
        <time>2025-10-28T09:13:53.000Z</time>
      </trkpt>
      <trkpt lat="43.54687" lon="6.60212">
        <ele>201</ele>
        <time>2025-10-28T09:13:54.000Z</time>
      </trkpt>
      <trkpt lat="43.5469" lon="6.60216">
        <ele>200.1</ele>
        <time>2025-10-28T09:13:55.000Z</time>
      </trkpt>
      <trkpt lat="43.54691" lon="6.60218">
        <ele>199.6</ele>
        <time>2025-10-28T09:13:56.000Z</time>
      </trkpt>
      <trkpt lat="43.54693" lon="6.6022">
        <ele>199.1</ele>
        <time>2025-10-28T09:13:57.000Z</time>
      </trkpt>
      <trkpt lat="43.54693" lon="6.6022">
        <ele>198.9</ele>
        <time>2025-10-28T09:13:58.000Z</time>
      </trkpt>
      <trkpt lat="43.54694" lon="6.60221">
        <ele>198.7</ele>
        <time>2025-10-28T09:13:59.000Z</time>
      </trkpt>
      <trkpt lat="43.54694" lon="6.60221">
        <ele>198.6</ele>
        <time>2025-10-28T09:14:00.000Z</time>
      </trkpt>
      <trkpt lat="43.54695" lon="6.60221">
        <ele>198.4</ele>
        <time>2025-10-28T09:14:01.000Z</time>
      </trkpt>
      <trkpt lat="43.54696" lon="6.60221">
        <ele>198.3</ele>
        <time>2025-10-28T09:14:02.000Z</time>
      </trkpt>
      <trkpt lat="43.54696" lon="6.60221">
        <ele>198.2</ele>
        <time>2025-10-28T09:14:03.000Z</time>
      </trkpt>
      <trkpt lat="43.54696" lon="6.60221">
        <ele>198.2</ele>
        <time>2025-10-28T09:14:04.000Z</time>
      </trkpt>
      <trkpt lat="43.54697" lon="6.60222">
        <ele>198</ele>
        <time>2025-10-28T09:14:05.000Z</time>
      </trkpt>
      <trkpt lat="43.54698" lon="6.60223">
        <ele>197.5</ele>
        <time>2025-10-28T09:14:06.000Z</time>
      </trkpt>
      <trkpt lat="43.547" lon="6.60225">
        <ele>197.2</ele>
        <time>2025-10-28T09:14:07.000Z</time>
      </trkpt>
      <trkpt lat="43.54701" lon="6.60227">
        <ele>196.7</ele>
        <time>2025-10-28T09:14:08.000Z</time>
      </trkpt>
      <trkpt lat="43.54703" lon="6.60229">
        <ele>196.2</ele>
        <time>2025-10-28T09:14:09.000Z</time>
      </trkpt>
      <trkpt lat="43.54706" lon="6.6023">
        <ele>195.5</ele>
        <time>2025-10-28T09:14:10.000Z</time>
      </trkpt>
      <trkpt lat="43.54709" lon="6.60232">
        <ele>194.9</ele>
        <time>2025-10-28T09:14:11.000Z</time>
      </trkpt>
      <trkpt lat="43.54712" lon="6.60232">
        <ele>194.2</ele>
        <time>2025-10-28T09:14:12.000Z</time>
      </trkpt>
      <trkpt lat="43.54715" lon="6.60232">
        <ele>193.7</ele>
        <time>2025-10-28T09:14:13.000Z</time>
      </trkpt>
      <trkpt lat="43.54718" lon="6.60231">
        <ele>192.9</ele>
        <time>2025-10-28T09:14:14.000Z</time>
      </trkpt>
      <trkpt lat="43.54723" lon="6.6023">
        <ele>192</ele>
        <time>2025-10-28T09:14:15.000Z</time>
      </trkpt>
      <trkpt lat="43.54725" lon="6.60228">
        <ele>191.4</ele>
        <time>2025-10-28T09:14:16.000Z</time>
      </trkpt>
      <trkpt lat="43.54729" lon="6.60226">
        <ele>190.6</ele>
        <time>2025-10-28T09:14:17.000Z</time>
      </trkpt>
      <trkpt lat="43.54732" lon="6.60223">
        <ele>189.9</ele>
        <time>2025-10-28T09:14:18.000Z</time>
      </trkpt>
      <trkpt lat="43.54735" lon="6.6022">
        <ele>189.2</ele>
        <time>2025-10-28T09:14:19.000Z</time>
      </trkpt>
      <trkpt lat="43.54738" lon="6.60216">
        <ele>188.3</ele>
        <time>2025-10-28T09:14:20.000Z</time>
      </trkpt>
      <trkpt lat="43.5474" lon="6.60214">
        <ele>187.8</ele>
        <time>2025-10-28T09:14:21.000Z</time>
      </trkpt>
      <trkpt lat="43.54741" lon="6.60213">
        <ele>187.5</ele>
        <time>2025-10-28T09:14:22.000Z</time>
      </trkpt>
      <trkpt lat="43.54742" lon="6.60211">
        <ele>187.3</ele>
        <time>2025-10-28T09:14:23.000Z</time>
      </trkpt>
      <trkpt lat="43.54743" lon="6.60209">
        <ele>186.9</ele>
        <time>2025-10-28T09:14:24.000Z</time>
      </trkpt>
      <trkpt lat="43.54746" lon="6.60206">
        <ele>186.3</ele>
        <time>2025-10-28T09:14:25.000Z</time>
      </trkpt>
      <trkpt lat="43.54749" lon="6.60202">
        <ele>185.7</ele>
        <time>2025-10-28T09:14:26.000Z</time>
      </trkpt>
      <trkpt lat="43.54751" lon="6.60199">
        <ele>185.3</ele>
        <time>2025-10-28T09:14:27.000Z</time>
      </trkpt>
      <trkpt lat="43.54754" lon="6.60195">
        <ele>184.7</ele>
        <time>2025-10-28T09:14:28.000Z</time>
      </trkpt>
      <trkpt lat="43.54758" lon="6.60191">
        <ele>184.1</ele>
        <time>2025-10-28T09:14:29.000Z</time>
      </trkpt>
      <trkpt lat="43.54761" lon="6.60187">
        <ele>183.5</ele>
        <time>2025-10-28T09:14:30.000Z</time>
      </trkpt>
      <trkpt lat="43.54764" lon="6.60183">
        <ele>182.9</ele>
        <time>2025-10-28T09:14:31.000Z</time>
      </trkpt>
      <trkpt lat="43.54767" lon="6.6018">
        <ele>182.5</ele>
        <time>2025-10-28T09:14:32.000Z</time>
      </trkpt>
      <trkpt lat="43.5477" lon="6.60175">
        <ele>181.8</ele>
        <time>2025-10-28T09:14:33.000Z</time>
      </trkpt>
      <trkpt lat="43.54773" lon="6.6017">
        <ele>181.1</ele>
        <time>2025-10-28T09:14:34.000Z</time>
      </trkpt>
      <trkpt lat="43.54776" lon="6.60165">
        <ele>180.4</ele>
        <time>2025-10-28T09:14:35.000Z</time>
      </trkpt>
      <trkpt lat="43.54778" lon="6.6016">
        <ele>179.8</ele>
        <time>2025-10-28T09:14:36.000Z</time>
      </trkpt>
      <trkpt lat="43.5478" lon="6.60155">
        <ele>179</ele>
        <time>2025-10-28T09:14:37.000Z</time>
      </trkpt>
      <trkpt lat="43.54783" lon="6.60148">
        <ele>178</ele>
        <time>2025-10-28T09:14:38.000Z</time>
      </trkpt>
      <trkpt lat="43.54786" lon="6.60142">
        <ele>177.1</ele>
        <time>2025-10-28T09:14:39.000Z</time>
      </trkpt>
      <trkpt lat="43.54788" lon="6.60137">
        <ele>176.3</ele>
        <time>2025-10-28T09:14:40.000Z</time>
      </trkpt>
      <trkpt lat="43.54789" lon="6.60134">
        <ele>175.7</ele>
        <time>2025-10-28T09:14:41.000Z</time>
      </trkpt>
      <trkpt lat="43.54792" lon="6.60129">
        <ele>174.9</ele>
        <time>2025-10-28T09:14:42.000Z</time>
      </trkpt>
      <trkpt lat="43.54794" lon="6.60126">
        <ele>174.3</ele>
        <time>2025-10-28T09:14:43.000Z</time>
      </trkpt>
      <trkpt lat="43.54796" lon="6.60123">
        <ele>173.7</ele>
        <time>2025-10-28T09:14:44.000Z</time>
      </trkpt>
      <trkpt lat="43.54798" lon="6.60121">
        <ele>173.1</ele>
        <time>2025-10-28T09:14:45.000Z</time>
      </trkpt>
      <trkpt lat="43.54801" lon="6.60118">
        <ele>172.3</ele>
        <time>2025-10-28T09:14:46.000Z</time>
      </trkpt>
      <trkpt lat="43.54804" lon="6.60114">
        <ele>171.4</ele>
        <time>2025-10-28T09:14:47.000Z</time>
      </trkpt>
      <trkpt lat="43.54805" lon="6.6011">
        <ele>170.7</ele>
        <time>2025-10-28T09:14:48.000Z</time>
      </trkpt>
      <trkpt lat="43.54806" lon="6.60107">
        <ele>170.1</ele>
        <time>2025-10-28T09:14:49.000Z</time>
      </trkpt>
      <trkpt lat="43.54807" lon="6.60104">
        <ele>169.5</ele>
        <time>2025-10-28T09:14:50.000Z</time>
      </trkpt>
      <trkpt lat="43.54809" lon="6.60101">
        <ele>168.8</ele>
        <time>2025-10-28T09:14:51.000Z</time>
      </trkpt>
      <trkpt lat="43.5481" lon="6.60099">
        <ele>168.3</ele>
        <time>2025-10-28T09:14:52.000Z</time>
      </trkpt>
      <trkpt lat="43.54812" lon="6.60097">
        <ele>167.9</ele>
        <time>2025-10-28T09:14:53.000Z</time>
      </trkpt>
      <trkpt lat="43.54812" lon="6.60096">
        <ele>167.6</ele>
        <time>2025-10-28T09:14:54.000Z</time>
      </trkpt>
      <trkpt lat="43.54814" lon="6.60094">
        <ele>167.1</ele>
        <time>2025-10-28T09:14:55.000Z</time>
      </trkpt>
      <trkpt lat="43.54815" lon="6.60092">
        <ele>166.6</ele>
        <time>2025-10-28T09:14:56.000Z</time>
      </trkpt>
      <trkpt lat="43.54816" lon="6.60089">
        <ele>166.1</ele>
        <time>2025-10-28T09:14:57.000Z</time>
      </trkpt>
      <trkpt lat="43.54818" lon="6.60087">
        <ele>165.5</ele>
        <time>2025-10-28T09:14:58.000Z</time>
      </trkpt>
      <trkpt lat="43.5482" lon="6.60085">
        <ele>165</ele>
        <time>2025-10-28T09:14:59.000Z</time>
      </trkpt>
      <trkpt lat="43.54823" lon="6.60083">
        <ele>164.2</ele>
        <time>2025-10-28T09:15:00.000Z</time>
      </trkpt>
      <trkpt lat="43.54826" lon="6.60082">
        <ele>163.7</ele>
        <time>2025-10-28T09:15:01.000Z</time>
      </trkpt>
      <trkpt lat="43.54828" lon="6.6008">
        <ele>163.1</ele>
        <time>2025-10-28T09:15:02.000Z</time>
      </trkpt>
      <trkpt lat="43.5483" lon="6.60078">
        <ele>162.5</ele>
        <time>2025-10-28T09:15:03.000Z</time>
      </trkpt>
      <trkpt lat="43.54832" lon="6.60076">
        <ele>162.1</ele>
        <time>2025-10-28T09:15:04.000Z</time>
      </trkpt>
      <trkpt lat="43.54834" lon="6.60076">
        <ele>161.9</ele>
        <time>2025-10-28T09:15:05.000Z</time>
      </trkpt>
      <trkpt lat="43.54835" lon="6.60076">
        <ele>161.6</ele>
        <time>2025-10-28T09:15:06.000Z</time>
      </trkpt>
      <trkpt lat="43.54837" lon="6.60076">
        <ele>161.3</ele>
        <time>2025-10-28T09:15:07.000Z</time>
      </trkpt>
      <trkpt lat="43.54839" lon="6.60076">
        <ele>161</ele>
        <time>2025-10-28T09:15:08.000Z</time>
      </trkpt>
      <trkpt lat="43.54841" lon="6.60076">
        <ele>160.6</ele>
        <time>2025-10-28T09:15:09.000Z</time>
      </trkpt>
      <trkpt lat="43.54844" lon="6.60076">
        <ele>160.2</ele>
        <time>2025-10-28T09:15:10.000Z</time>
      </trkpt>
      <trkpt lat="43.54847" lon="6.60076">
        <ele>159.7</ele>
        <time>2025-10-28T09:15:11.000Z</time>
      </trkpt>
      <trkpt lat="43.5485" lon="6.60076">
        <ele>159.3</ele>
        <time>2025-10-28T09:15:12.000Z</time>
      </trkpt>
      <trkpt lat="43.54853" lon="6.60075">
        <ele>158.9</ele>
        <time>2025-10-28T09:15:13.000Z</time>
      </trkpt>
      <trkpt lat="43.54855" lon="6.60073">
        <ele>158.5</ele>
        <time>2025-10-28T09:15:14.000Z</time>
      </trkpt>
      <trkpt lat="43.54856" lon="6.60069">
        <ele>158.1</ele>
        <time>2025-10-28T09:15:15.000Z</time>
      </trkpt>
      <trkpt lat="43.54857" lon="6.60066">
        <ele>157.7</ele>
        <time>2025-10-28T09:15:16.000Z</time>
      </trkpt>
      <trkpt lat="43.54859" lon="6.60062">
        <ele>157.2</ele>
        <time>2025-10-28T09:15:17.000Z</time>
      </trkpt>
      <trkpt lat="43.54862" lon="6.60059">
        <ele>156.7</ele>
        <time>2025-10-28T09:15:18.000Z</time>
      </trkpt>
      <trkpt lat="43.54864" lon="6.60055">
        <ele>156.3</ele>
        <time>2025-10-28T09:15:19.000Z</time>
      </trkpt>
      <trkpt lat="43.54867" lon="6.60052">
        <ele>155.8</ele>
        <time>2025-10-28T09:15:20.000Z</time>
      </trkpt>
      <trkpt lat="43.54869" lon="6.60048">
        <ele>155.4</ele>
        <time>2025-10-28T09:15:21.000Z</time>
      </trkpt>
      <trkpt lat="43.54872" lon="6.60045">
        <ele>154.9</ele>
        <time>2025-10-28T09:15:22.000Z</time>
      </trkpt>
      <trkpt lat="43.54875" lon="6.60041">
        <ele>154.4</ele>
        <time>2025-10-28T09:15:23.000Z</time>
      </trkpt>
      <trkpt lat="43.54878" lon="6.60037">
        <ele>154</ele>
        <time>2025-10-28T09:15:24.000Z</time>
      </trkpt>
      <trkpt lat="43.54881" lon="6.60034">
        <ele>153.5</ele>
        <time>2025-10-28T09:15:25.000Z</time>
      </trkpt>
      <trkpt lat="43.54884" lon="6.60031">
        <ele>153</ele>
        <time>2025-10-28T09:15:26.000Z</time>
      </trkpt>
      <trkpt lat="43.54887" lon="6.6003">
        <ele>152.5</ele>
        <time>2025-10-28T09:15:27.000Z</time>
      </trkpt>
      <trkpt lat="43.5489" lon="6.60029">
        <ele>152</ele>
        <time>2025-10-28T09:15:28.000Z</time>
      </trkpt>
      <trkpt lat="43.54893" lon="6.6003">
        <ele>151.5</ele>
        <time>2025-10-28T09:15:29.000Z</time>
      </trkpt>
      <trkpt lat="43.54894" lon="6.6003">
        <ele>151.3</ele>
        <time>2025-10-28T09:15:30.000Z</time>
      </trkpt>
      <trkpt lat="43.54894" lon="6.6003">
        <ele>151.2</ele>
        <time>2025-10-28T09:15:31.000Z</time>
      </trkpt>
      <trkpt lat="43.54895" lon="6.60031">
        <ele>151.1</ele>
        <time>2025-10-28T09:15:32.000Z</time>
      </trkpt>
      <trkpt lat="43.54895" lon="6.60031">
        <ele>151.1</ele>
        <time>2025-10-28T09:15:33.000Z</time>
      </trkpt>
      <trkpt lat="43.54895" lon="6.60031">
        <ele>151</ele>
        <time>2025-10-28T09:15:34.000Z</time>
      </trkpt>
      <trkpt lat="43.54895" lon="6.60031">
        <ele>151</ele>
        <time>2025-10-28T09:15:35.000Z</time>
      </trkpt>
      <trkpt lat="43.54895" lon="6.60031">
        <ele>150.9</ele>
        <time>2025-10-28T09:15:36.000Z</time>
      </trkpt>
      <trkpt lat="43.54895" lon="6.60032">
        <ele>150.9</ele>
        <time>2025-10-28T09:15:37.000Z</time>
      </trkpt>
      <trkpt lat="43.54895" lon="6.60032">
        <ele>150.9</ele>
        <time>2025-10-28T09:15:38.000Z</time>
      </trkpt>
      <trkpt lat="43.54895" lon="6.60031">
        <ele>150.8</ele>
        <time>2025-10-28T09:15:39.000Z</time>
      </trkpt>
      <trkpt lat="43.54895" lon="6.60031">
        <ele>150.8</ele>
        <time>2025-10-28T09:15:40.000Z</time>
      </trkpt>
      <trkpt lat="43.54895" lon="6.60031">
        <ele>150.8</ele>
        <time>2025-10-28T09:15:41.000Z</time>
      </trkpt>
      <trkpt lat="43.54895" lon="6.60031">
        <ele>150.8</ele>
        <time>2025-10-28T09:15:42.000Z</time>
      </trkpt>
      <trkpt lat="43.54895" lon="6.60031">
        <ele>150.8</ele>
        <time>2025-10-28T09:15:43.000Z</time>
      </trkpt>
      <trkpt lat="43.54895" lon="6.60031">
        <ele>150.8</ele>
        <time>2025-10-28T09:15:44.000Z</time>
      </trkpt>
      <trkpt lat="43.54895" lon="6.60031">
        <ele>150.8</ele>
        <time>2025-10-28T09:15:45.000Z</time>
      </trkpt>
      <trkpt lat="43.54895" lon="6.60031">
        <ele>150.8</ele>
        <time>2025-10-28T09:15:46.000Z</time>
      </trkpt>
      <trkpt lat="43.54895" lon="6.60031">
        <ele>150.8</ele>
        <time>2025-10-28T09:15:47.000Z</time>
      </trkpt>
      <trkpt lat="43.54895" lon="6.60031">
        <ele>150.8</ele>
        <time>2025-10-28T09:15:48.000Z</time>
      </trkpt>
      <trkpt lat="43.54895" lon="6.60031">
        <ele>150.8</ele>
        <time>2025-10-28T09:15:49.000Z</time>
      </trkpt>
      <trkpt lat="43.54895" lon="6.60031">
        <ele>150.8</ele>
        <time>2025-10-28T09:15:50.000Z</time>
      </trkpt>
      <trkpt lat="43.54895" lon="6.60031">
        <ele>150.8</ele>
        <time>2025-10-28T09:15:51.000Z</time>
      </trkpt>
      <trkpt lat="43.54895" lon="6.60031">
        <ele>150.8</ele>
        <time>2025-10-28T09:15:52.000Z</time>
      </trkpt>
      <trkpt lat="43.54895" lon="6.60031">
        <ele>150.8</ele>
        <time>2025-10-28T09:15:53.000Z</time>
      </trkpt>
      <trkpt lat="43.54895" lon="6.60031">
        <ele>150.8</ele>
        <time>2025-10-28T09:15:54.000Z</time>
      </trkpt>
      <trkpt lat="43.54895" lon="6.60031">
        <ele>150.8</ele>
        <time>2025-10-28T09:15:55.000Z</time>
      </trkpt>
      <trkpt lat="43.54895" lon="6.60031">
        <ele>150.8</ele>
        <time>2025-10-28T09:15:56.000Z</time>
      </trkpt>
      <trkpt lat="43.54895" lon="6.60031">
        <ele>150.8</ele>
        <time>2025-10-28T09:15:57.000Z</time>
      </trkpt>
      <trkpt lat="43.54895" lon="6.60031">
        <ele>150.8</ele>
        <time>2025-10-28T09:15:58.000Z</time>
      </trkpt>
      <trkpt lat="43.54895" lon="6.60031">
        <ele>150.8</ele>
        <time>2025-10-28T09:15:59.000Z</time>
      </trkpt>
      <trkpt lat="43.54895" lon="6.60031">
        <ele>150.8</ele>
        <time>2025-10-28T09:16:00.000Z</time>
      </trkpt>
      <trkpt lat="43.54895" lon="6.60031">
        <ele>150.8</ele>
        <time>2025-10-28T09:16:01.000Z</time>
      </trkpt>
      <trkpt lat="43.54895" lon="6.60031">
        <ele>150.8</ele>
        <time>2025-10-28T09:16:02.000Z</time>
      </trkpt>
      <trkpt lat="43.54895" lon="6.60031">
        <ele>150.8</ele>
        <time>2025-10-28T09:16:03.000Z</time>
      </trkpt>
      <trkpt lat="43.54895" lon="6.60031">
        <ele>150.8</ele>
        <time>2025-10-28T09:16:04.000Z</time>
      </trkpt>
      <trkpt lat="43.54895" lon="6.60032">
        <ele>150.8</ele>
        <time>2025-10-28T09:16:05.000Z</time>
      </trkpt>
      <trkpt lat="43.54895" lon="6.60032">
        <ele>150.8</ele>
        <time>2025-10-28T09:16:06.000Z</time>
      </trkpt>
      <trkpt lat="43.54895" lon="6.60032">
        <ele>150.8</ele>
        <time>2025-10-28T09:16:07.000Z</time>
      </trkpt>
      <trkpt lat="43.54895" lon="6.60032">
        <ele>150.8</ele>
        <time>2025-10-28T09:16:08.000Z</time>
      </trkpt>
      <trkpt lat="43.54895" lon="6.60032">
        <ele>150.8</ele>
        <time>2025-10-28T09:16:09.000Z</time>
      </trkpt>
      <trkpt lat="43.54895" lon="6.60032">
        <ele>150.7</ele>
        <time>2025-10-28T09:16:10.000Z</time>
      </trkpt>
      <trkpt lat="43.54895" lon="6.60033">
        <ele>150.6</ele>
        <time>2025-10-28T09:16:11.000Z</time>
      </trkpt>
      <trkpt lat="43.54895" lon="6.60033">
        <ele>150.5</ele>
        <time>2025-10-28T09:16:12.000Z</time>
      </trkpt>
      <trkpt lat="43.54895" lon="6.60033">
        <ele>150.5</ele>
        <time>2025-10-28T09:16:13.000Z</time>
      </trkpt>
      <trkpt lat="43.54895" lon="6.60034">
        <ele>150.5</ele>
        <time>2025-10-28T09:16:14.000Z</time>
      </trkpt>
      <trkpt lat="43.54895" lon="6.60034">
        <ele>150.5</ele>
        <time>2025-10-28T09:16:15.000Z</time>
      </trkpt>
      <trkpt lat="43.54895" lon="6.60034">
        <ele>150.5</ele>
        <time>2025-10-28T09:16:16.000Z</time>
      </trkpt>
      <trkpt lat="43.54895" lon="6.60034">
        <ele>150.5</ele>
        <time>2025-10-28T09:16:17.000Z</time>
      </trkpt>
      <trkpt lat="43.54895" lon="6.60033">
        <ele>150.4</ele>
        <time>2025-10-28T09:16:18.000Z</time>
      </trkpt>
      <trkpt lat="43.54894" lon="6.60033">
        <ele>150.3</ele>
        <time>2025-10-28T09:16:19.000Z</time>
      </trkpt>
      <trkpt lat="43.54894" lon="6.60033">
        <ele>150.3</ele>
        <time>2025-10-28T09:16:20.000Z</time>
      </trkpt>
      <trkpt lat="43.54894" lon="6.60032">
        <ele>150.2</ele>
        <time>2025-10-28T09:16:21.000Z</time>
      </trkpt>
      <trkpt lat="43.54894" lon="6.60032">
        <ele>150.2</ele>
        <time>2025-10-28T09:16:22.000Z</time>
      </trkpt>
      <trkpt lat="43.54894" lon="6.60032">
        <ele>150.2</ele>
        <time>2025-10-28T09:16:23.000Z</time>
      </trkpt>
      <trkpt lat="43.54894" lon="6.60032">
        <ele>150.2</ele>
        <time>2025-10-28T09:16:24.000Z</time>
      </trkpt>
      <trkpt lat="43.54894" lon="6.60032">
        <ele>150.2</ele>
        <time>2025-10-28T09:16:25.000Z</time>
      </trkpt>
      <trkpt lat="43.54894" lon="6.60032">
        <ele>150.2</ele>
        <time>2025-10-28T09:16:26.000Z</time>
      </trkpt>
      <trkpt lat="43.54894" lon="6.60032">
        <ele>150.2</ele>
        <time>2025-10-28T09:16:27.000Z</time>
      </trkpt>
      <trkpt lat="43.54894" lon="6.60032">
        <ele>150.2</ele>
        <time>2025-10-28T09:16:28.000Z</time>
      </trkpt>
      <trkpt lat="43.54894" lon="6.60032">
        <ele>150.2</ele>
        <time>2025-10-28T09:16:29.000Z</time>
      </trkpt>
      <trkpt lat="43.54894" lon="6.60032">
        <ele>150.2</ele>
        <time>2025-10-28T09:16:30.000Z</time>
      </trkpt>
      <trkpt lat="43.54894" lon="6.60032">
        <ele>150.2</ele>
        <time>2025-10-28T09:16:31.000Z</time>
      </trkpt>
      <trkpt lat="43.54894" lon="6.60032">
        <ele>150.1</ele>
        <time>2025-10-28T09:16:32.000Z</time>
      </trkpt>
      <trkpt lat="43.54894" lon="6.60031">
        <ele>150</ele>
        <time>2025-10-28T09:16:33.000Z</time>
      </trkpt>
      <trkpt lat="43.54894" lon="6.60031">
        <ele>150</ele>
        <time>2025-10-28T09:16:34.000Z</time>
      </trkpt>
      <trkpt lat="43.54894" lon="6.60031">
        <ele>150</ele>
        <time>2025-10-28T09:16:35.000Z</time>
      </trkpt>
      <trkpt lat="43.54894" lon="6.60031">
        <ele>150</ele>
        <time>2025-10-28T09:16:36.000Z</time>
      </trkpt>
      <trkpt lat="43.54894" lon="6.60031">
        <ele>150</ele>
        <time>2025-10-28T09:16:37.000Z</time>
      </trkpt>
      <trkpt lat="43.54894" lon="6.60031">
        <ele>150</ele>
        <time>2025-10-28T09:16:38.000Z</time>
      </trkpt>
      <trkpt lat="43.54894" lon="6.60031">
        <ele>150</ele>
        <time>2025-10-28T09:16:39.000Z</time>
      </trkpt>
      <trkpt lat="43.54894" lon="6.60031">
        <ele>150</ele>
        <time>2025-10-28T09:16:40.000Z</time>
      </trkpt>
      <trkpt lat="43.54894" lon="6.60031">
        <ele>150</ele>
        <time>2025-10-28T09:16:41.000Z</time>
      </trkpt>
      <trkpt lat="43.54894" lon="6.60031">
        <ele>149.9</ele>
        <time>2025-10-28T09:16:42.000Z</time>
      </trkpt>
      <trkpt lat="43.54896" lon="6.60033">
        <ele>149.5</ele>
        <time>2025-10-28T09:16:43.000Z</time>
      </trkpt>
      <trkpt lat="43.54897" lon="6.60034">
        <ele>149.1</ele>
        <time>2025-10-28T09:16:44.000Z</time>
      </trkpt>
      <trkpt lat="43.54899" lon="6.60035">
        <ele>148.6</ele>
        <time>2025-10-28T09:16:45.000Z</time>
      </trkpt>
      <trkpt lat="43.54901" lon="6.60036">
        <ele>148.1</ele>
        <time>2025-10-28T09:16:46.000Z</time>
      </trkpt>
      <trkpt lat="43.54903" lon="6.60038">
        <ele>147.6</ele>
        <time>2025-10-28T09:16:47.000Z</time>
      </trkpt>
      <trkpt lat="43.54905" lon="6.60039">
        <ele>147</ele>
        <time>2025-10-28T09:16:48.000Z</time>
      </trkpt>
      <trkpt lat="43.54907" lon="6.60041">
        <ele>146.5</ele>
        <time>2025-10-28T09:16:49.000Z</time>
      </trkpt>
      <trkpt lat="43.54909" lon="6.60042">
        <ele>146</ele>
        <time>2025-10-28T09:16:50.000Z</time>
      </trkpt>
      <trkpt lat="43.54912" lon="6.60043">
        <ele>145.4</ele>
        <time>2025-10-28T09:16:51.000Z</time>
      </trkpt>
      <trkpt lat="43.54914" lon="6.60043">
        <ele>145</ele>
        <time>2025-10-28T09:16:52.000Z</time>
      </trkpt>
      <trkpt lat="43.54916" lon="6.60042">
        <ele>144.5</ele>
        <time>2025-10-28T09:16:53.000Z</time>
      </trkpt>
      <trkpt lat="43.54918" lon="6.60042">
        <ele>144</ele>
        <time>2025-10-28T09:16:54.000Z</time>
      </trkpt>
      <trkpt lat="43.5492" lon="6.60042">
        <ele>143.5</ele>
        <time>2025-10-28T09:16:55.000Z</time>
      </trkpt>
      <trkpt lat="43.54923" lon="6.60042">
        <ele>142.9</ele>
        <time>2025-10-28T09:16:56.000Z</time>
      </trkpt>
      <trkpt lat="43.54926" lon="6.60042">
        <ele>142.3</ele>
        <time>2025-10-28T09:16:57.000Z</time>
      </trkpt>
      <trkpt lat="43.54929" lon="6.60041">
        <ele>141.6</ele>
        <time>2025-10-28T09:16:58.000Z</time>
      </trkpt>
      <trkpt lat="43.54933" lon="6.60041">
        <ele>140.9</ele>
        <time>2025-10-28T09:16:59.000Z</time>
      </trkpt>
      <trkpt lat="43.54936" lon="6.6004">
        <ele>140.2</ele>
        <time>2025-10-28T09:17:00.000Z</time>
      </trkpt>
      <trkpt lat="43.54939" lon="6.6004">
        <ele>139.6</ele>
        <time>2025-10-28T09:17:01.000Z</time>
      </trkpt>
      <trkpt lat="43.54942" lon="6.6004">
        <ele>139</ele>
        <time>2025-10-28T09:17:02.000Z</time>
      </trkpt>
      <trkpt lat="43.54944" lon="6.60041">
        <ele>138.4</ele>
        <time>2025-10-28T09:17:03.000Z</time>
      </trkpt>
      <trkpt lat="43.54946" lon="6.60042">
        <ele>138</ele>
        <time>2025-10-28T09:17:04.000Z</time>
      </trkpt>
      <trkpt lat="43.54947" lon="6.60044">
        <ele>137.5</ele>
        <time>2025-10-28T09:17:05.000Z</time>
      </trkpt>
      <trkpt lat="43.54948" lon="6.60046">
        <ele>137.2</ele>
        <time>2025-10-28T09:17:06.000Z</time>
      </trkpt>
      <trkpt lat="43.54949" lon="6.60049">
        <ele>136.7</ele>
        <time>2025-10-28T09:17:07.000Z</time>
      </trkpt>
      <trkpt lat="43.54948" lon="6.60053">
        <ele>136.1</ele>
        <time>2025-10-28T09:17:08.000Z</time>
      </trkpt>
      <trkpt lat="43.54947" lon="6.60057">
        <ele>135.5</ele>
        <time>2025-10-28T09:17:09.000Z</time>
      </trkpt>
      <trkpt lat="43.54945" lon="6.60061">
        <ele>134.9</ele>
        <time>2025-10-28T09:17:10.000Z</time>
      </trkpt>
      <trkpt lat="43.54943" lon="6.60065">
        <ele>134.3</ele>
        <time>2025-10-28T09:17:11.000Z</time>
      </trkpt>
      <trkpt lat="43.5494" lon="6.60068">
        <ele>133.6</ele>
        <time>2025-10-28T09:17:12.000Z</time>
      </trkpt>
      <trkpt lat="43.54938" lon="6.60072">
        <ele>133</ele>
        <time>2025-10-28T09:17:13.000Z</time>
      </trkpt>
      <trkpt lat="43.54935" lon="6.60075">
        <ele>132.3</ele>
        <time>2025-10-28T09:17:14.000Z</time>
      </trkpt>
      <trkpt lat="43.54933" lon="6.60078">
        <ele>131.7</ele>
        <time>2025-10-28T09:17:15.000Z</time>
      </trkpt>
      <trkpt lat="43.54931" lon="6.6008">
        <ele>131.2</ele>
        <time>2025-10-28T09:17:16.000Z</time>
      </trkpt>
      <trkpt lat="43.54928" lon="6.60082">
        <ele>130.6</ele>
        <time>2025-10-28T09:17:17.000Z</time>
      </trkpt>
      <trkpt lat="43.54926" lon="6.60083">
        <ele>130.2</ele>
        <time>2025-10-28T09:17:18.000Z</time>
      </trkpt>
      <trkpt lat="43.54924" lon="6.60085">
        <ele>129.8</ele>
        <time>2025-10-28T09:17:19.000Z</time>
      </trkpt>
      <trkpt lat="43.54923" lon="6.60086">
        <ele>129.5</ele>
        <time>2025-10-28T09:17:20.000Z</time>
      </trkpt>
      <trkpt lat="43.54923" lon="6.60086">
        <ele>129.4</ele>
        <time>2025-10-28T09:17:21.000Z</time>
      </trkpt>
      <trkpt lat="43.54923" lon="6.60086">
        <ele>129.3</ele>
        <time>2025-10-28T09:17:22.000Z</time>
      </trkpt>
      <trkpt lat="43.54922" lon="6.60087">
        <ele>129.2</ele>
        <time>2025-10-28T09:17:23.000Z</time>
      </trkpt>
      <trkpt lat="43.54921" lon="6.60089">
        <ele>128.8</ele>
        <time>2025-10-28T09:17:24.000Z</time>
      </trkpt>
      <trkpt lat="43.5492" lon="6.60091">
        <ele>128.4</ele>
        <time>2025-10-28T09:17:25.000Z</time>
      </trkpt>
      <trkpt lat="43.54919" lon="6.60094">
        <ele>127.9</ele>
        <time>2025-10-28T09:17:26.000Z</time>
      </trkpt>
      <trkpt lat="43.54917" lon="6.60098">
        <ele>127.2</ele>
        <time>2025-10-28T09:17:27.000Z</time>
      </trkpt>
      <trkpt lat="43.54916" lon="6.60101">
        <ele>126.7</ele>
        <time>2025-10-28T09:17:28.000Z</time>
      </trkpt>
      <trkpt lat="43.54915" lon="6.60104">
        <ele>126.2</ele>
        <time>2025-10-28T09:17:29.000Z</time>
      </trkpt>
      <trkpt lat="43.54913" lon="6.60106">
        <ele>125.7</ele>
        <time>2025-10-28T09:17:30.000Z</time>
      </trkpt>
      <trkpt lat="43.54911" lon="6.6011">
        <ele>125.1</ele>
        <time>2025-10-28T09:17:31.000Z</time>
      </trkpt>
      <trkpt lat="43.5491" lon="6.60113">
        <ele>124.7</ele>
        <time>2025-10-28T09:17:32.000Z</time>
      </trkpt>
      <trkpt lat="43.54909" lon="6.60116">
        <ele>124.3</ele>
        <time>2025-10-28T09:17:33.000Z</time>
      </trkpt>
      <trkpt lat="43.54907" lon="6.60119">
        <ele>123.9</ele>
        <time>2025-10-28T09:17:34.000Z</time>
      </trkpt>
      <trkpt lat="43.54906" lon="6.60123">
        <ele>123.5</ele>
        <time>2025-10-28T09:17:35.000Z</time>
      </trkpt>
      <trkpt lat="43.54904" lon="6.60126">
        <ele>123.1</ele>
        <time>2025-10-28T09:17:36.000Z</time>
      </trkpt>
      <trkpt lat="43.54903" lon="6.60129">
        <ele>122.7</ele>
        <time>2025-10-28T09:17:37.000Z</time>
      </trkpt>
      <trkpt lat="43.54901" lon="6.60133">
        <ele>122.3</ele>
        <time>2025-10-28T09:17:38.000Z</time>
      </trkpt>
      <trkpt lat="43.549" lon="6.60136">
        <ele>121.9</ele>
        <time>2025-10-28T09:17:39.000Z</time>
      </trkpt>
      <trkpt lat="43.54899" lon="6.6014">
        <ele>121.6</ele>
        <time>2025-10-28T09:17:40.000Z</time>
      </trkpt>
      <trkpt lat="43.54898" lon="6.60144">
        <ele>121.3</ele>
        <time>2025-10-28T09:17:41.000Z</time>
      </trkpt>
      <trkpt lat="43.54899" lon="6.60147">
        <ele>121</ele>
        <time>2025-10-28T09:17:42.000Z</time>
      </trkpt>
      <trkpt lat="43.549" lon="6.6015">
        <ele>120.8</ele>
        <time>2025-10-28T09:17:43.000Z</time>
      </trkpt>
      <trkpt lat="43.54901" lon="6.60153">
        <ele>120.6</ele>
        <time>2025-10-28T09:17:44.000Z</time>
      </trkpt>
      <trkpt lat="43.54903" lon="6.60156">
        <ele>120.5</ele>
        <time>2025-10-28T09:17:45.000Z</time>
      </trkpt>
      <trkpt lat="43.54904" lon="6.60158">
        <ele>120.3</ele>
        <time>2025-10-28T09:17:46.000Z</time>
      </trkpt>
      <trkpt lat="43.54905" lon="6.6016">
        <ele>120.2</ele>
        <time>2025-10-28T09:17:47.000Z</time>
      </trkpt>
      <trkpt lat="43.54906" lon="6.60161">
        <ele>120.1</ele>
        <time>2025-10-28T09:17:48.000Z</time>
      </trkpt>
      <trkpt lat="43.54906" lon="6.60162">
        <ele>120.1</ele>
        <time>2025-10-28T09:17:49.000Z</time>
      </trkpt>
      <trkpt lat="43.54906" lon="6.60162">
        <ele>120.1</ele>
        <time>2025-10-28T09:17:50.000Z</time>
      </trkpt>
      <trkpt lat="43.54907" lon="6.60162">
        <ele>120.1</ele>
        <time>2025-10-28T09:17:51.000Z</time>
      </trkpt>
      <trkpt lat="43.54907" lon="6.60161">
        <ele>120.1</ele>
        <time>2025-10-28T09:17:52.000Z</time>
      </trkpt>
      <trkpt lat="43.54907" lon="6.60162">
        <ele>120.1</ele>
        <time>2025-10-28T09:17:53.000Z</time>
      </trkpt>
      <trkpt lat="43.54907" lon="6.60162">
        <ele>120</ele>
        <time>2025-10-28T09:17:54.000Z</time>
      </trkpt>
      <trkpt lat="43.54908" lon="6.60163">
        <ele>120</ele>
        <time>2025-10-28T09:17:55.000Z</time>
      </trkpt>
      <trkpt lat="43.54908" lon="6.60163">
        <ele>120</ele>
        <time>2025-10-28T09:17:56.000Z</time>
      </trkpt>
      <trkpt lat="43.54908" lon="6.60163">
        <ele>120</ele>
        <time>2025-10-28T09:17:57.000Z</time>
      </trkpt>
      <trkpt lat="43.54908" lon="6.60163">
        <ele>120</ele>
        <time>2025-10-28T09:17:58.000Z</time>
      </trkpt>
      <trkpt lat="43.54908" lon="6.60163">
        <ele>120</ele>
        <time>2025-10-28T09:17:59.000Z</time>
      </trkpt>
      <trkpt lat="43.54908" lon="6.60163">
        <ele>120</ele>
        <time>2025-10-28T09:18:00.000Z</time>
      </trkpt>
      <trkpt lat="43.54908" lon="6.60163">
        <ele>120</ele>
        <time>2025-10-28T09:18:01.000Z</time>
      </trkpt>
      <trkpt lat="43.54909" lon="6.60163">
        <ele>119.9</ele>
        <time>2025-10-28T09:18:02.000Z</time>
      </trkpt>
      <trkpt lat="43.54909" lon="6.60164">
        <ele>119.9</ele>
        <time>2025-10-28T09:18:03.000Z</time>
      </trkpt>
      <trkpt lat="43.54909" lon="6.60164">
        <ele>119.9</ele>
        <time>2025-10-28T09:18:04.000Z</time>
      </trkpt>
      <trkpt lat="43.54909" lon="6.60164">
        <ele>119.9</ele>
        <time>2025-10-28T09:18:05.000Z</time>
      </trkpt>
      <trkpt lat="43.54909" lon="6.60164">
        <ele>119.9</ele>
        <time>2025-10-28T09:18:06.000Z</time>
      </trkpt>
      <trkpt lat="43.54909" lon="6.60164">
        <ele>119.9</ele>
        <time>2025-10-28T09:18:07.000Z</time>
      </trkpt>
      <trkpt lat="43.54909" lon="6.60164">
        <ele>119.9</ele>
        <time>2025-10-28T09:18:08.000Z</time>
      </trkpt>
      <trkpt lat="43.54909" lon="6.60164">
        <ele>119.9</ele>
        <time>2025-10-28T09:18:09.000Z</time>
      </trkpt>
      <trkpt lat="43.54909" lon="6.60164">
        <ele>119.9</ele>
        <time>2025-10-28T09:18:10.000Z</time>
      </trkpt>
      <trkpt lat="43.54909" lon="6.60164">
        <ele>119.9</ele>
        <time>2025-10-28T09:18:11.000Z</time>
      </trkpt>
      <trkpt lat="43.54909" lon="6.60164">
        <ele>119.9</ele>
        <time>2025-10-28T09:18:12.000Z</time>
      </trkpt>
      <trkpt lat="43.54909" lon="6.60164">
        <ele>119.9</ele>
        <time>2025-10-28T09:18:13.000Z</time>
      </trkpt>
      <trkpt lat="43.54909" lon="6.60164">
        <ele>119.9</ele>
        <time>2025-10-28T09:18:14.000Z</time>
      </trkpt>
      <trkpt lat="43.54909" lon="6.60164">
        <ele>119.9</ele>
        <time>2025-10-28T09:18:15.000Z</time>
      </trkpt>
      <trkpt lat="43.54909" lon="6.60164">
        <ele>119.9</ele>
        <time>2025-10-28T09:18:16.000Z</time>
      </trkpt>
      <trkpt lat="43.54909" lon="6.60164">
        <ele>119.9</ele>
        <time>2025-10-28T09:18:17.000Z</time>
      </trkpt>
      <trkpt lat="43.54909" lon="6.60164">
        <ele>119.9</ele>
        <time>2025-10-28T09:18:18.000Z</time>
      </trkpt>
      <trkpt lat="43.54909" lon="6.60164">
        <ele>119.9</ele>
        <time>2025-10-28T09:18:19.000Z</time>
      </trkpt>
      <trkpt lat="43.54909" lon="6.60164">
        <ele>119.9</ele>
        <time>2025-10-28T09:18:20.000Z</time>
      </trkpt>
      <trkpt lat="43.54909" lon="6.60164">
        <ele>119.9</ele>
        <time>2025-10-28T09:18:21.000Z</time>
      </trkpt>
      <trkpt lat="43.54909" lon="6.60165">
        <ele>119.9</ele>
        <time>2025-10-28T09:18:22.000Z</time>
      </trkpt>
      <trkpt lat="43.54909" lon="6.60165">
        <ele>119.9</ele>
        <time>2025-10-28T09:18:23.000Z</time>
      </trkpt>
      <trkpt lat="43.54909" lon="6.60165">
        <ele>119.9</ele>
        <time>2025-10-28T09:18:24.000Z</time>
      </trkpt>
      <trkpt lat="43.5491" lon="6.60165">
        <ele>119.9</ele>
        <time>2025-10-28T09:18:25.000Z</time>
      </trkpt>
      <trkpt lat="43.5491" lon="6.60166">
        <ele>119.8</ele>
        <time>2025-10-28T09:18:26.000Z</time>
      </trkpt>
      <trkpt lat="43.5491" lon="6.60166">
        <ele>119.8</ele>
        <time>2025-10-28T09:18:27.000Z</time>
      </trkpt>
      <trkpt lat="43.5491" lon="6.60166">
        <ele>119.8</ele>
        <time>2025-10-28T09:18:28.000Z</time>
      </trkpt>
      <trkpt lat="43.54911" lon="6.60167">
        <ele>119.8</ele>
        <time>2025-10-28T09:18:29.000Z</time>
      </trkpt>
      <trkpt lat="43.54911" lon="6.60167">
        <ele>119.8</ele>
        <time>2025-10-28T09:18:30.000Z</time>
      </trkpt>
      <trkpt lat="43.54912" lon="6.60167">
        <ele>119.8</ele>
        <time>2025-10-28T09:18:31.000Z</time>
      </trkpt>
      <trkpt lat="43.54912" lon="6.60167">
        <ele>119.8</ele>
        <time>2025-10-28T09:18:32.000Z</time>
      </trkpt>
      <trkpt lat="43.54912" lon="6.60167">
        <ele>119.8</ele>
        <time>2025-10-28T09:18:33.000Z</time>
      </trkpt>
      <trkpt lat="43.54913" lon="6.60168">
        <ele>119.8</ele>
        <time>2025-10-28T09:18:34.000Z</time>
      </trkpt>
      <trkpt lat="43.54915" lon="6.60171">
        <ele>119.7</ele>
        <time>2025-10-28T09:18:35.000Z</time>
      </trkpt>
      <trkpt lat="43.54917" lon="6.60174">
        <ele>119.7</ele>
        <time>2025-10-28T09:18:36.000Z</time>
      </trkpt>
      <trkpt lat="43.54918" lon="6.60176">
        <ele>119.7</ele>
        <time>2025-10-28T09:18:37.000Z</time>
      </trkpt>
      <trkpt lat="43.54919" lon="6.60177">
        <ele>119.7</ele>
        <time>2025-10-28T09:18:38.000Z</time>
      </trkpt>
      <trkpt lat="43.5492" lon="6.60178">
        <ele>119.7</ele>
        <time>2025-10-28T09:18:39.000Z</time>
      </trkpt>
      <trkpt lat="43.5492" lon="6.60179">
        <ele>119.7</ele>
        <time>2025-10-28T09:18:40.000Z</time>
      </trkpt>
      <trkpt lat="43.54921" lon="6.60179">
        <ele>119.7</ele>
        <time>2025-10-28T09:18:41.000Z</time>
      </trkpt>
      <trkpt lat="43.54921" lon="6.60179">
        <ele>119.7</ele>
        <time>2025-10-28T09:18:42.000Z</time>
      </trkpt>
      <trkpt lat="43.54922" lon="6.6018">
        <ele>119.7</ele>
        <time>2025-10-28T09:18:43.000Z</time>
      </trkpt>
      <trkpt lat="43.54922" lon="6.60179">
        <ele>119.7</ele>
        <time>2025-10-28T09:18:44.000Z</time>
      </trkpt>
      <trkpt lat="43.54921" lon="6.60178">
        <ele>119.7</ele>
        <time>2025-10-28T09:18:45.000Z</time>
      </trkpt>
      <trkpt lat="43.54921" lon="6.60178">
        <ele>119.7</ele>
        <time>2025-10-28T09:18:46.000Z</time>
      </trkpt>
      <trkpt lat="43.54921" lon="6.60177">
        <ele>119.7</ele>
        <time>2025-10-28T09:18:47.000Z</time>
      </trkpt>
      <trkpt lat="43.54921" lon="6.60178">
        <ele>119.7</ele>
        <time>2025-10-28T09:18:48.000Z</time>
      </trkpt>
      <trkpt lat="43.5492" lon="6.60178">
        <ele>119.7</ele>
        <time>2025-10-28T09:18:49.000Z</time>
      </trkpt>
      <trkpt lat="43.54921" lon="6.60179">
        <ele>119.7</ele>
        <time>2025-10-28T09:18:50.000Z</time>
      </trkpt>
      <trkpt lat="43.54921" lon="6.60179">
        <ele>119.7</ele>
        <time>2025-10-28T09:18:51.000Z</time>
      </trkpt>
      <trkpt lat="43.54922" lon="6.60179">
        <ele>119.7</ele>
        <time>2025-10-28T09:18:52.000Z</time>
      </trkpt>
      <trkpt lat="43.54922" lon="6.60179">
        <ele>119.7</ele>
        <time>2025-10-28T09:18:53.000Z</time>
      </trkpt>
      <trkpt lat="43.54922" lon="6.6018">
        <ele>119.7</ele>
        <time>2025-10-28T09:18:54.000Z</time>
      </trkpt>
      <trkpt lat="43.54921" lon="6.60181">
        <ele>119.8</ele>
        <time>2025-10-28T09:18:55.000Z</time>
      </trkpt>
      <trkpt lat="43.54921" lon="6.60181">
        <ele>119.8</ele>
        <time>2025-10-28T09:18:56.000Z</time>
      </trkpt>
      <trkpt lat="43.5492" lon="6.60181">
        <ele>119.8</ele>
        <time>2025-10-28T09:18:57.000Z</time>
      </trkpt>
      <trkpt lat="43.5492" lon="6.60181">
        <ele>119.8</ele>
        <time>2025-10-28T09:18:58.000Z</time>
      </trkpt>
      <trkpt lat="43.5492" lon="6.60181">
        <ele>119.8</ele>
        <time>2025-10-28T09:18:59.000Z</time>
      </trkpt>
      <trkpt lat="43.5492" lon="6.6018">
        <ele>119.8</ele>
        <time>2025-10-28T09:19:00.000Z</time>
      </trkpt>
      <trkpt lat="43.5492" lon="6.6018">
        <ele>119.8</ele>
        <time>2025-10-28T09:19:01.000Z</time>
      </trkpt>
      <trkpt lat="43.5492" lon="6.6018">
        <ele>119.8</ele>
        <time>2025-10-28T09:19:02.000Z</time>
      </trkpt>
      <trkpt lat="43.54921" lon="6.60179">
        <ele>119.8</ele>
        <time>2025-10-28T09:19:03.000Z</time>
      </trkpt>
      <trkpt lat="43.54921" lon="6.60179">
        <ele>119.8</ele>
        <time>2025-10-28T09:19:04.000Z</time>
      </trkpt>
      <trkpt lat="43.54921" lon="6.60179">
        <ele>119.8</ele>
        <time>2025-10-28T09:19:05.000Z</time>
      </trkpt>
      <trkpt lat="43.54921" lon="6.60179">
        <ele>119.8</ele>
        <time>2025-10-28T09:19:06.000Z</time>
      </trkpt>
      <trkpt lat="43.54921" lon="6.60179">
        <ele>119.8</ele>
        <time>2025-10-28T09:19:07.000Z</time>
      </trkpt>
      <trkpt lat="43.54921" lon="6.60179">
        <ele>119.8</ele>
        <time>2025-10-28T09:19:08.000Z</time>
      </trkpt>
      <trkpt lat="43.54921" lon="6.60179">
        <ele>119.8</ele>
        <time>2025-10-28T09:19:09.000Z</time>
      </trkpt>
      <trkpt lat="43.54921" lon="6.60179">
        <ele>119.8</ele>
        <time>2025-10-28T09:19:10.000Z</time>
      </trkpt>
      <trkpt lat="43.54921" lon="6.60179">
        <ele>119.8</ele>
        <time>2025-10-28T09:19:11.000Z</time>
      </trkpt>
      <trkpt lat="43.54921" lon="6.6018">
        <ele>119.8</ele>
        <time>2025-10-28T09:19:12.000Z</time>
      </trkpt>
      <trkpt lat="43.54921" lon="6.6018">
        <ele>119.8</ele>
        <time>2025-10-28T09:19:13.000Z</time>
      </trkpt>
      <trkpt lat="43.54921" lon="6.6018">
        <ele>119.8</ele>
        <time>2025-10-28T09:19:14.000Z</time>
      </trkpt>
      <trkpt lat="43.54921" lon="6.6018">
        <ele>119.8</ele>
        <time>2025-10-28T09:19:15.000Z</time>
      </trkpt>
      <trkpt lat="43.54921" lon="6.6018">
        <ele>119.8</ele>
        <time>2025-10-28T09:19:16.000Z</time>
      </trkpt>
      <trkpt lat="43.54921" lon="6.6018">
        <ele>119.8</ele>
        <time>2025-10-28T09:19:17.000Z</time>
      </trkpt>
      <trkpt lat="43.54921" lon="6.6018">
        <ele>119.8</ele>
        <time>2025-10-28T09:19:18.000Z</time>
      </trkpt>
      <trkpt lat="43.54921" lon="6.6018">
        <ele>119.8</ele>
        <time>2025-10-28T09:19:19.000Z</time>
      </trkpt>
      <trkpt lat="43.54921" lon="6.6018">
        <ele>119.8</ele>
        <time>2025-10-28T09:19:20.000Z</time>
      </trkpt>
      <trkpt lat="43.54921" lon="6.6018">
        <ele>119.8</ele>
        <time>2025-10-28T09:19:21.000Z</time>
      </trkpt>
      <trkpt lat="43.54921" lon="6.6018">
        <ele>119.8</ele>
        <time>2025-10-28T09:19:22.000Z</time>
      </trkpt>
      <trkpt lat="43.54921" lon="6.6018">
        <ele>119.8</ele>
        <time>2025-10-28T09:19:23.000Z</time>
      </trkpt>
      <trkpt lat="43.54921" lon="6.6018">
        <ele>119.8</ele>
        <time>2025-10-28T09:19:24.000Z</time>
      </trkpt>
      <trkpt lat="43.54921" lon="6.6018">
        <ele>119.8</ele>
        <time>2025-10-28T09:19:25.000Z</time>
      </trkpt>
      <trkpt lat="43.54921" lon="6.6018">
        <ele>119.8</ele>
        <time>2025-10-28T09:19:26.000Z</time>
      </trkpt>
      <trkpt lat="43.54921" lon="6.6018">
        <ele>119.8</ele>
        <time>2025-10-28T09:19:27.000Z</time>
      </trkpt>
      <trkpt lat="43.54921" lon="6.6018">
        <ele>119.8</ele>
        <time>2025-10-28T09:19:28.000Z</time>
      </trkpt>
      <trkpt lat="43.54921" lon="6.6018">
        <ele>119.8</ele>
        <time>2025-10-28T09:19:29.000Z</time>
      </trkpt>
      <trkpt lat="43.54921" lon="6.6018">
        <ele>119.8</ele>
        <time>2025-10-28T09:19:30.000Z</time>
      </trkpt>
      <trkpt lat="43.54921" lon="6.6018">
        <ele>119.8</ele>
        <time>2025-10-28T09:19:31.000Z</time>
      </trkpt>
      <trkpt lat="43.54921" lon="6.6018">
        <ele>119.8</ele>
        <time>2025-10-28T09:19:32.000Z</time>
      </trkpt>
      <trkpt lat="43.54921" lon="6.6018">
        <ele>119.8</ele>
        <time>2025-10-28T09:19:33.000Z</time>
      </trkpt>
      <trkpt lat="43.54921" lon="6.6018">
        <ele>119.8</ele>
        <time>2025-10-28T09:19:34.000Z</time>
      </trkpt>
      <trkpt lat="43.54922" lon="6.6018">
        <ele>119.8</ele>
        <time>2025-10-28T09:19:35.000Z</time>
      </trkpt>
      <trkpt lat="43.54922" lon="6.6018">
        <ele>119.8</ele>
        <time>2025-10-28T09:19:36.000Z</time>
      </trkpt>
      <trkpt lat="43.54922" lon="6.6018">
        <ele>119.8</ele>
        <time>2025-10-28T09:19:37.000Z</time>
      </trkpt>
      <trkpt lat="43.54922" lon="6.6018">
        <ele>119.8</ele>
        <time>2025-10-28T09:19:38.000Z</time>
      </trkpt>
      <trkpt lat="43.54922" lon="6.6018">
        <ele>119.8</ele>
        <time>2025-10-28T09:19:39.000Z</time>
      </trkpt>
      <trkpt lat="43.54922" lon="6.6018">
        <ele>119.8</ele>
        <time>2025-10-28T09:19:40.000Z</time>
      </trkpt>
      <trkpt lat="43.54922" lon="6.6018">
        <ele>119.8</ele>
        <time>2025-10-28T09:19:41.000Z</time>
      </trkpt>
      <trkpt lat="43.54922" lon="6.6018">
        <ele>119.8</ele>
        <time>2025-10-28T09:19:42.000Z</time>
      </trkpt>
      <trkpt lat="43.54922" lon="6.6018">
        <ele>119.8</ele>
        <time>2025-10-28T09:19:43.000Z</time>
      </trkpt>
      <trkpt lat="43.54922" lon="6.6018">
        <ele>119.8</ele>
        <time>2025-10-28T09:19:44.000Z</time>
      </trkpt>
      <trkpt lat="43.54922" lon="6.6018">
        <ele>119.8</ele>
        <time>2025-10-28T09:19:45.000Z</time>
      </trkpt>
      <trkpt lat="43.54922" lon="6.6018">
        <ele>119.8</ele>
        <time>2025-10-28T09:19:46.000Z</time>
      </trkpt>
      <trkpt lat="43.54922" lon="6.6018">
        <ele>119.9</ele>
        <time>2025-10-28T09:19:47.000Z</time>
      </trkpt>
      <trkpt lat="43.54922" lon="6.6018">
        <ele>119.9</ele>
        <time>2025-10-28T09:19:48.000Z</time>
      </trkpt>
      <trkpt lat="43.54922" lon="6.6018">
        <ele>119.9</ele>
        <time>2025-10-28T09:19:49.000Z</time>
      </trkpt>
      <trkpt lat="43.54922" lon="6.6018">
        <ele>119.9</ele>
        <time>2025-10-28T09:19:50.000Z</time>
      </trkpt>
      <trkpt lat="43.54922" lon="6.6018">
        <ele>119.9</ele>
        <time>2025-10-28T09:19:51.000Z</time>
      </trkpt>
      <trkpt lat="43.54923" lon="6.6018">
        <ele>119.9</ele>
        <time>2025-10-28T09:19:52.000Z</time>
      </trkpt>
      <trkpt lat="43.54923" lon="6.6018">
        <ele>119.9</ele>
        <time>2025-10-28T09:19:53.000Z</time>
      </trkpt>
      <trkpt lat="43.54923" lon="6.6018">
        <ele>119.9</ele>
        <time>2025-10-28T09:19:54.000Z</time>
      </trkpt>
      <trkpt lat="43.54923" lon="6.6018">
        <ele>119.9</ele>
        <time>2025-10-28T09:19:55.000Z</time>
      </trkpt>
      <trkpt lat="43.54923" lon="6.6018">
        <ele>119.9</ele>
        <time>2025-10-28T09:19:56.000Z</time>
      </trkpt>
      <trkpt lat="43.54923" lon="6.6018">
        <ele>119.9</ele>
        <time>2025-10-28T09:19:57.000Z</time>
      </trkpt>
      <trkpt lat="43.54923" lon="6.6018">
        <ele>119.9</ele>
        <time>2025-10-28T09:19:58.000Z</time>
      </trkpt>
      <trkpt lat="43.54923" lon="6.6018">
        <ele>119.9</ele>
        <time>2025-10-28T09:19:59.000Z</time>
      </trkpt>
      <trkpt lat="43.54923" lon="6.6018">
        <ele>119.9</ele>
        <time>2025-10-28T09:20:00.000Z</time>
      </trkpt>
      <trkpt lat="43.54923" lon="6.6018">
        <ele>119.9</ele>
        <time>2025-10-28T09:20:01.000Z</time>
      </trkpt>
      <trkpt lat="43.54923" lon="6.6018">
        <ele>119.9</ele>
        <time>2025-10-28T09:20:02.000Z</time>
      </trkpt>
      <trkpt lat="43.54923" lon="6.6018">
        <ele>119.9</ele>
        <time>2025-10-28T09:20:03.000Z</time>
      </trkpt>
      <trkpt lat="43.54923" lon="6.6018">
        <ele>119.9</ele>
        <time>2025-10-28T09:20:04.000Z</time>
      </trkpt>
      <trkpt lat="43.54923" lon="6.6018">
        <ele>119.9</ele>
        <time>2025-10-28T09:20:05.000Z</time>
      </trkpt>
      <trkpt lat="43.54923" lon="6.6018">
        <ele>119.9</ele>
        <time>2025-10-28T09:20:06.000Z</time>
      </trkpt>
      <trkpt lat="43.54923" lon="6.6018">
        <ele>119.9</ele>
        <time>2025-10-28T09:20:07.000Z</time>
      </trkpt>
      <trkpt lat="43.54923" lon="6.6018">
        <ele>119.9</ele>
        <time>2025-10-28T09:20:08.000Z</time>
      </trkpt>
      <trkpt lat="43.54923" lon="6.6018">
        <ele>119.9</ele>
        <time>2025-10-28T09:20:09.000Z</time>
      </trkpt>
      <trkpt lat="43.54923" lon="6.60179">
        <ele>119.9</ele>
        <time>2025-10-28T09:20:10.000Z</time>
      </trkpt>
      <trkpt lat="43.54923" lon="6.60179">
        <ele>119.9</ele>
        <time>2025-10-28T09:20:11.000Z</time>
      </trkpt>
      <trkpt lat="43.54923" lon="6.60179">
        <ele>119.9</ele>
        <time>2025-10-28T09:20:12.000Z</time>
      </trkpt>
      <trkpt lat="43.54923" lon="6.60179">
        <ele>119.9</ele>
        <time>2025-10-28T09:20:13.000Z</time>
      </trkpt>
      <trkpt lat="43.54923" lon="6.60179">
        <ele>119.9</ele>
        <time>2025-10-28T09:20:14.000Z</time>
      </trkpt>
      <trkpt lat="43.54923" lon="6.60179">
        <ele>119.9</ele>
        <time>2025-10-28T09:20:15.000Z</time>
      </trkpt>
      <trkpt lat="43.54923" lon="6.60179">
        <ele>119.9</ele>
        <time>2025-10-28T09:20:16.000Z</time>
      </trkpt>
      <trkpt lat="43.54923" lon="6.60179">
        <ele>119.9</ele>
        <time>2025-10-28T09:20:17.000Z</time>
      </trkpt>
      <trkpt lat="43.54923" lon="6.60179">
        <ele>119.9</ele>
        <time>2025-10-28T09:20:18.000Z</time>
      </trkpt>
      <trkpt lat="43.54923" lon="6.60178">
        <ele>119.9</ele>
        <time>2025-10-28T09:20:19.000Z</time>
      </trkpt>
      <trkpt lat="43.54923" lon="6.60178">
        <ele>119.9</ele>
        <time>2025-10-28T09:20:20.000Z</time>
      </trkpt>
      <trkpt lat="43.54923" lon="6.60178">
        <ele>119.9</ele>
        <time>2025-10-28T09:20:21.000Z</time>
      </trkpt>
      <trkpt lat="43.54923" lon="6.60178">
        <ele>119.9</ele>
        <time>2025-10-28T09:20:22.000Z</time>
      </trkpt>
      <trkpt lat="43.54923" lon="6.60178">
        <ele>119.9</ele>
        <time>2025-10-28T09:20:23.000Z</time>
      </trkpt>
      <trkpt lat="43.54923" lon="6.60177">
        <ele>119.9</ele>
        <time>2025-10-28T09:20:24.000Z</time>
      </trkpt>
      <trkpt lat="43.54923" lon="6.60177">
        <ele>119.9</ele>
        <time>2025-10-28T09:20:25.000Z</time>
      </trkpt>
      <trkpt lat="43.54923" lon="6.60177">
        <ele>119.9</ele>
        <time>2025-10-28T09:20:26.000Z</time>
      </trkpt>
      <trkpt lat="43.54923" lon="6.60177">
        <ele>119.9</ele>
        <time>2025-10-28T09:20:27.000Z</time>
      </trkpt>
      <trkpt lat="43.54923" lon="6.60177">
        <ele>119.9</ele>
        <time>2025-10-28T09:20:28.000Z</time>
      </trkpt>
      <trkpt lat="43.54923" lon="6.60177">
        <ele>119.9</ele>
        <time>2025-10-28T09:20:29.000Z</time>
      </trkpt>
      <trkpt lat="43.54923" lon="6.60177">
        <ele>119.9</ele>
        <time>2025-10-28T09:20:30.000Z</time>
      </trkpt>
      <trkpt lat="43.54923" lon="6.60177">
        <ele>120</ele>
        <time>2025-10-28T09:20:31.000Z</time>
      </trkpt>
      <trkpt lat="43.54923" lon="6.60177">
        <ele>120</ele>
        <time>2025-10-28T09:20:32.000Z</time>
      </trkpt>
      <trkpt lat="43.54923" lon="6.60177">
        <ele>120</ele>
        <time>2025-10-28T09:20:33.000Z</time>
      </trkpt>
      <trkpt lat="43.54923" lon="6.60177">
        <ele>120</ele>
        <time>2025-10-28T09:20:34.000Z</time>
      </trkpt>
      <trkpt lat="43.54923" lon="6.60177">
        <ele>120</ele>
        <time>2025-10-28T09:20:35.000Z</time>
      </trkpt>
      <trkpt lat="43.54923" lon="6.60177">
        <ele>120</ele>
        <time>2025-10-28T09:20:36.000Z</time>
      </trkpt>
      <trkpt lat="43.54923" lon="6.60177">
        <ele>120</ele>
        <time>2025-10-28T09:20:37.000Z</time>
      </trkpt>
      <trkpt lat="43.54923" lon="6.60177">
        <ele>120</ele>
        <time>2025-10-28T09:20:38.000Z</time>
      </trkpt>
      <trkpt lat="43.54923" lon="6.60177">
        <ele>120</ele>
        <time>2025-10-28T09:20:39.000Z</time>
      </trkpt>
      <trkpt lat="43.54923" lon="6.60177">
        <ele>120</ele>
        <time>2025-10-28T09:20:40.000Z</time>
      </trkpt>
      <trkpt lat="43.54923" lon="6.60177">
        <ele>120</ele>
        <time>2025-10-28T09:20:41.000Z</time>
      </trkpt>
      <trkpt lat="43.54923" lon="6.60177">
        <ele>120</ele>
        <time>2025-10-28T09:20:42.000Z</time>
      </trkpt>
      <trkpt lat="43.54923" lon="6.60177">
        <ele>120</ele>
        <time>2025-10-28T09:20:43.000Z</time>
      </trkpt>
      <trkpt lat="43.54923" lon="6.60177">
        <ele>120</ele>
        <time>2025-10-28T09:20:44.000Z</time>
      </trkpt>
      <trkpt lat="43.54922" lon="6.60177">
        <ele>120</ele>
        <time>2025-10-28T09:20:45.000Z</time>
      </trkpt>
      <trkpt lat="43.54922" lon="6.60177">
        <ele>120</ele>
        <time>2025-10-28T09:20:46.000Z</time>
      </trkpt>
      <trkpt lat="43.54922" lon="6.60177">
        <ele>120</ele>
        <time>2025-10-28T09:20:47.000Z</time>
      </trkpt>
      <trkpt lat="43.54922" lon="6.60177">
        <ele>120</ele>
        <time>2025-10-28T09:20:48.000Z</time>
      </trkpt>
      <trkpt lat="43.54922" lon="6.60177">
        <ele>120</ele>
        <time>2025-10-28T09:20:49.000Z</time>
      </trkpt>
      <trkpt lat="43.54922" lon="6.60177">
        <ele>120</ele>
        <time>2025-10-28T09:20:50.000Z</time>
      </trkpt>
      <trkpt lat="43.54922" lon="6.60177">
        <ele>120</ele>
        <time>2025-10-28T09:20:51.000Z</time>
      </trkpt>
      <trkpt lat="43.54922" lon="6.60177">
        <ele>120</ele>
        <time>2025-10-28T09:20:52.000Z</time>
      </trkpt>
      <trkpt lat="43.54922" lon="6.60177">
        <ele>120</ele>
        <time>2025-10-28T09:20:53.000Z</time>
      </trkpt>
      <trkpt lat="43.54922" lon="6.60177">
        <ele>120</ele>
        <time>2025-10-28T09:20:54.000Z</time>
      </trkpt>
      <trkpt lat="43.54922" lon="6.60177">
        <ele>120</ele>
        <time>2025-10-28T09:20:55.000Z</time>
      </trkpt>
      <trkpt lat="43.54922" lon="6.60177">
        <ele>120</ele>
        <time>2025-10-28T09:20:56.000Z</time>
      </trkpt>
      <trkpt lat="43.54922" lon="6.60177">
        <ele>120</ele>
        <time>2025-10-28T09:20:57.000Z</time>
      </trkpt>
      <trkpt lat="43.54922" lon="6.60178">
        <ele>120</ele>
        <time>2025-10-28T09:20:58.000Z</time>
      </trkpt>
      <trkpt lat="43.54922" lon="6.60178">
        <ele>120</ele>
        <time>2025-10-28T09:20:59.000Z</time>
      </trkpt>
      <trkpt lat="43.54922" lon="6.60178">
        <ele>120</ele>
        <time>2025-10-28T09:21:00.000Z</time>
      </trkpt>
      <trkpt lat="43.54922" lon="6.60178">
        <ele>120</ele>
        <time>2025-10-28T09:21:01.000Z</time>
      </trkpt>
      <trkpt lat="43.54922" lon="6.60178">
        <ele>120</ele>
        <time>2025-10-28T09:21:02.000Z</time>
      </trkpt>
      <trkpt lat="43.54922" lon="6.60178">
        <ele>120</ele>
        <time>2025-10-28T09:21:03.000Z</time>
      </trkpt>
      <trkpt lat="43.54922" lon="6.60178">
        <ele>120</ele>
        <time>2025-10-28T09:21:04.000Z</time>
      </trkpt>
      <trkpt lat="43.54922" lon="6.60178">
        <ele>120</ele>
        <time>2025-10-28T09:21:05.000Z</time>
      </trkpt>
      <trkpt lat="43.54921" lon="6.60178">
        <ele>120</ele>
        <time>2025-10-28T09:21:06.000Z</time>
      </trkpt>
      <trkpt lat="43.54921" lon="6.60178">
        <ele>120</ele>
        <time>2025-10-28T09:21:07.000Z</time>
      </trkpt>
      <trkpt lat="43.54921" lon="6.60178">
        <ele>120</ele>
        <time>2025-10-28T09:21:08.000Z</time>
      </trkpt>
      <trkpt lat="43.54921" lon="6.60178">
        <ele>120</ele>
        <time>2025-10-28T09:21:09.000Z</time>
      </trkpt>
      <trkpt lat="43.54921" lon="6.60178">
        <ele>120</ele>
        <time>2025-10-28T09:21:10.000Z</time>
      </trkpt>
      <trkpt lat="43.54921" lon="6.60178">
        <ele>120</ele>
        <time>2025-10-28T09:21:11.000Z</time>
      </trkpt>
      <trkpt lat="43.54921" lon="6.60178">
        <ele>120</ele>
        <time>2025-10-28T09:21:12.000Z</time>
      </trkpt>
      <trkpt lat="43.54922" lon="6.60178">
        <ele>120</ele>
        <time>2025-10-28T09:21:13.000Z</time>
      </trkpt>
      <trkpt lat="43.54924" lon="6.60177">
        <ele>120.1</ele>
        <time>2025-10-28T09:21:14.000Z</time>
      </trkpt>
      <trkpt lat="43.54925" lon="6.60177">
        <ele>120.1</ele>
        <time>2025-10-28T09:21:15.000Z</time>
      </trkpt>
      <trkpt lat="43.54926" lon="6.60177">
        <ele>120.2</ele>
        <time>2025-10-28T09:21:16.000Z</time>
      </trkpt>
      <trkpt lat="43.54926" lon="6.60177">
        <ele>120.2</ele>
        <time>2025-10-28T09:21:17.000Z</time>
      </trkpt>
      <trkpt lat="43.54927" lon="6.60177">
        <ele>120.2</ele>
        <time>2025-10-28T09:21:18.000Z</time>
      </trkpt>
      <trkpt lat="43.54928" lon="6.60177">
        <ele>120.3</ele>
        <time>2025-10-28T09:21:19.000Z</time>
      </trkpt>
      <trkpt lat="43.54928" lon="6.60176">
        <ele>120.3</ele>
        <time>2025-10-28T09:21:20.000Z</time>
      </trkpt>
      <trkpt lat="43.54929" lon="6.60176">
        <ele>120.3</ele>
        <time>2025-10-28T09:21:21.000Z</time>
      </trkpt>
      <trkpt lat="43.5493" lon="6.60176">
        <ele>120.3</ele>
        <time>2025-10-28T09:21:22.000Z</time>
      </trkpt>
      <trkpt lat="43.5493" lon="6.60177">
        <ele>120.4</ele>
        <time>2025-10-28T09:21:23.000Z</time>
      </trkpt>
      <trkpt lat="43.5493" lon="6.60177">
        <ele>120.4</ele>
        <time>2025-10-28T09:21:24.000Z</time>
      </trkpt>
      <trkpt lat="43.54931" lon="6.60177">
        <ele>120.4</ele>
        <time>2025-10-28T09:21:25.000Z</time>
      </trkpt>
      <trkpt lat="43.54931" lon="6.60177">
        <ele>120.4</ele>
        <time>2025-10-28T09:21:26.000Z</time>
      </trkpt>
      <trkpt lat="43.54931" lon="6.60177">
        <ele>120.4</ele>
        <time>2025-10-28T09:21:27.000Z</time>
      </trkpt>
      <trkpt lat="43.54932" lon="6.60177">
        <ele>120.4</ele>
        <time>2025-10-28T09:21:28.000Z</time>
      </trkpt>
      <trkpt lat="43.54932" lon="6.60177">
        <ele>120.4</ele>
        <time>2025-10-28T09:21:29.000Z</time>
      </trkpt>
      <trkpt lat="43.54932" lon="6.60177">
        <ele>120.4</ele>
        <time>2025-10-28T09:21:30.000Z</time>
      </trkpt>
      <trkpt lat="43.54932" lon="6.60177">
        <ele>120.4</ele>
        <time>2025-10-28T09:21:31.000Z</time>
      </trkpt>
      <trkpt lat="43.54932" lon="6.60177">
        <ele>120.4</ele>
        <time>2025-10-28T09:21:32.000Z</time>
      </trkpt>
      <trkpt lat="43.54932" lon="6.60177">
        <ele>120.4</ele>
        <time>2025-10-28T09:21:33.000Z</time>
      </trkpt>
      <trkpt lat="43.54932" lon="6.60177">
        <ele>120.4</ele>
        <time>2025-10-28T09:21:34.000Z</time>
      </trkpt>
      <trkpt lat="43.54932" lon="6.60177">
        <ele>120.4</ele>
        <time>2025-10-28T09:21:35.000Z</time>
      </trkpt>
      <trkpt lat="43.54932" lon="6.60177">
        <ele>120.4</ele>
        <time>2025-10-28T09:21:36.000Z</time>
      </trkpt>
      <trkpt lat="43.54932" lon="6.60177">
        <ele>120.4</ele>
        <time>2025-10-28T09:21:37.000Z</time>
      </trkpt>
      <trkpt lat="43.54932" lon="6.60177">
        <ele>120.4</ele>
        <time>2025-10-28T09:21:38.000Z</time>
      </trkpt>
      <trkpt lat="43.54932" lon="6.60177">
        <ele>120.5</ele>
        <time>2025-10-28T09:21:39.000Z</time>
      </trkpt>
      <trkpt lat="43.54935" lon="6.60176">
        <ele>120.6</ele>
        <time>2025-10-28T09:21:40.000Z</time>
      </trkpt>
      <trkpt lat="43.54938" lon="6.60175">
        <ele>120.7</ele>
        <time>2025-10-28T09:21:41.000Z</time>
      </trkpt>
      <trkpt lat="43.54941" lon="6.60176">
        <ele>120.9</ele>
        <time>2025-10-28T09:21:42.000Z</time>
      </trkpt>
      <trkpt lat="43.54943" lon="6.60178">
        <ele>121.1</ele>
        <time>2025-10-28T09:21:43.000Z</time>
      </trkpt>
      <trkpt lat="43.54944" lon="6.6018">
        <ele>121.3</ele>
        <time>2025-10-28T09:21:44.000Z</time>
      </trkpt>
      <trkpt lat="43.54945" lon="6.60184">
        <ele>121.5</ele>
        <time>2025-10-28T09:21:45.000Z</time>
      </trkpt>
      <trkpt lat="43.54945" lon="6.60188">
        <ele>121.8</ele>
        <time>2025-10-28T09:21:46.000Z</time>
      </trkpt>
      <trkpt lat="43.54945" lon="6.60193">
        <ele>122.1</ele>
        <time>2025-10-28T09:21:47.000Z</time>
      </trkpt>
      <trkpt lat="43.54944" lon="6.60198">
        <ele>122.5</ele>
        <time>2025-10-28T09:21:48.000Z</time>
      </trkpt>
      <trkpt lat="43.54942" lon="6.60204">
        <ele>122.9</ele>
        <time>2025-10-28T09:21:49.000Z</time>
      </trkpt>
      <trkpt lat="43.54941" lon="6.60209">
        <ele>123.2</ele>
        <time>2025-10-28T09:21:50.000Z</time>
      </trkpt>
      <trkpt lat="43.5494" lon="6.60214">
        <ele>123.6</ele>
        <time>2025-10-28T09:21:51.000Z</time>
      </trkpt>
      <trkpt lat="43.54939" lon="6.60218">
        <ele>123.9</ele>
        <time>2025-10-28T09:21:52.000Z</time>
      </trkpt>
      <trkpt lat="43.54938" lon="6.60223">
        <ele>124.3</ele>
        <time>2025-10-28T09:21:53.000Z</time>
      </trkpt>
      <trkpt lat="43.54936" lon="6.60227">
        <ele>124.8</ele>
        <time>2025-10-28T09:21:54.000Z</time>
      </trkpt>
      <trkpt lat="43.54935" lon="6.60232">
        <ele>125.2</ele>
        <time>2025-10-28T09:21:55.000Z</time>
      </trkpt>
      <trkpt lat="43.54934" lon="6.60236">
        <ele>125.6</ele>
        <time>2025-10-28T09:21:56.000Z</time>
      </trkpt>
      <trkpt lat="43.54932" lon="6.60241">
        <ele>126</ele>
        <time>2025-10-28T09:21:57.000Z</time>
      </trkpt>
      <trkpt lat="43.54931" lon="6.60246">
        <ele>126.4</ele>
        <time>2025-10-28T09:21:58.000Z</time>
      </trkpt>
      <trkpt lat="43.54929" lon="6.6025">
        <ele>126.7</ele>
        <time>2025-10-28T09:21:59.000Z</time>
      </trkpt>
      <trkpt lat="43.54928" lon="6.60254">
        <ele>127.1</ele>
        <time>2025-10-28T09:22:00.000Z</time>
      </trkpt>
      <trkpt lat="43.54926" lon="6.60259">
        <ele>127.5</ele>
        <time>2025-10-28T09:22:01.000Z</time>
      </trkpt>
      <trkpt lat="43.54925" lon="6.60263">
        <ele>128</ele>
        <time>2025-10-28T09:22:02.000Z</time>
      </trkpt>
      <trkpt lat="43.54924" lon="6.60267">
        <ele>128.3</ele>
        <time>2025-10-28T09:22:03.000Z</time>
      </trkpt>
      <trkpt lat="43.54923" lon="6.60271">
        <ele>128.7</ele>
        <time>2025-10-28T09:22:04.000Z</time>
      </trkpt>
      <trkpt lat="43.54923" lon="6.60275">
        <ele>129.1</ele>
        <time>2025-10-28T09:22:05.000Z</time>
      </trkpt>
      <trkpt lat="43.54922" lon="6.60278">
        <ele>129.4</ele>
        <time>2025-10-28T09:22:06.000Z</time>
      </trkpt>
      <trkpt lat="43.54922" lon="6.60281">
        <ele>129.7</ele>
        <time>2025-10-28T09:22:07.000Z</time>
      </trkpt>
      <trkpt lat="43.54921" lon="6.60284">
        <ele>130</ele>
        <time>2025-10-28T09:22:08.000Z</time>
      </trkpt>
      <trkpt lat="43.5492" lon="6.60288">
        <ele>130.3</ele>
        <time>2025-10-28T09:22:09.000Z</time>
      </trkpt>
      <trkpt lat="43.54919" lon="6.60291">
        <ele>130.6</ele>
        <time>2025-10-28T09:22:10.000Z</time>
      </trkpt>
      <trkpt lat="43.54918" lon="6.60295">
        <ele>130.9</ele>
        <time>2025-10-28T09:22:11.000Z</time>
      </trkpt>
      <trkpt lat="43.54916" lon="6.60298">
        <ele>131.2</ele>
        <time>2025-10-28T09:22:12.000Z</time>
      </trkpt>
      <trkpt lat="43.54915" lon="6.60302">
        <ele>131.5</ele>
        <time>2025-10-28T09:22:13.000Z</time>
      </trkpt>
      <trkpt lat="43.54914" lon="6.60306">
        <ele>131.8</ele>
        <time>2025-10-28T09:22:14.000Z</time>
      </trkpt>
      <trkpt lat="43.54913" lon="6.6031">
        <ele>132.1</ele>
        <time>2025-10-28T09:22:15.000Z</time>
      </trkpt>
      <trkpt lat="43.54912" lon="6.60314">
        <ele>132.4</ele>
        <time>2025-10-28T09:22:16.000Z</time>
      </trkpt>
      <trkpt lat="43.54911" lon="6.60317">
        <ele>132.6</ele>
        <time>2025-10-28T09:22:17.000Z</time>
      </trkpt>
      <trkpt lat="43.54911" lon="6.60321">
        <ele>132.9</ele>
        <time>2025-10-28T09:22:18.000Z</time>
      </trkpt>
      <trkpt lat="43.5491" lon="6.60325">
        <ele>133.2</ele>
        <time>2025-10-28T09:22:19.000Z</time>
      </trkpt>
      <trkpt lat="43.5491" lon="6.60329">
        <ele>133.5</ele>
        <time>2025-10-28T09:22:20.000Z</time>
      </trkpt>
      <trkpt lat="43.54909" lon="6.60333">
        <ele>133.8</ele>
        <time>2025-10-28T09:22:21.000Z</time>
      </trkpt>
      <trkpt lat="43.5491" lon="6.60337">
        <ele>134.1</ele>
        <time>2025-10-28T09:22:22.000Z</time>
      </trkpt>
      <trkpt lat="43.5491" lon="6.60342">
        <ele>134.4</ele>
        <time>2025-10-28T09:22:23.000Z</time>
      </trkpt>
      <trkpt lat="43.54911" lon="6.60346">
        <ele>134.7</ele>
        <time>2025-10-28T09:22:24.000Z</time>
      </trkpt>
      <trkpt lat="43.54911" lon="6.60351">
        <ele>135</ele>
        <time>2025-10-28T09:22:25.000Z</time>
      </trkpt>
      <trkpt lat="43.54911" lon="6.60357">
        <ele>135.3</ele>
        <time>2025-10-28T09:22:26.000Z</time>
      </trkpt>
      <trkpt lat="43.54911" lon="6.60362">
        <ele>135.6</ele>
        <time>2025-10-28T09:22:27.000Z</time>
      </trkpt>
      <trkpt lat="43.5491" lon="6.60366">
        <ele>135.9</ele>
        <time>2025-10-28T09:22:28.000Z</time>
      </trkpt>
      <trkpt lat="43.5491" lon="6.60371">
        <ele>136.1</ele>
        <time>2025-10-28T09:22:29.000Z</time>
      </trkpt>
      <trkpt lat="43.5491" lon="6.60376">
        <ele>136.3</ele>
        <time>2025-10-28T09:22:30.000Z</time>
      </trkpt>
      <trkpt lat="43.54911" lon="6.6038">
        <ele>136.6</ele>
        <time>2025-10-28T09:22:31.000Z</time>
      </trkpt>
      <trkpt lat="43.54912" lon="6.60384">
        <ele>136.9</ele>
        <time>2025-10-28T09:22:32.000Z</time>
      </trkpt>
      <trkpt lat="43.54913" lon="6.60388">
        <ele>137.2</ele>
        <time>2025-10-28T09:22:33.000Z</time>
      </trkpt>
      <trkpt lat="43.54915" lon="6.60392">
        <ele>137.6</ele>
        <time>2025-10-28T09:22:34.000Z</time>
      </trkpt>
      <trkpt lat="43.54917" lon="6.60396">
        <ele>138</ele>
        <time>2025-10-28T09:22:35.000Z</time>
      </trkpt>
      <trkpt lat="43.54919" lon="6.60399">
        <ele>138.3</ele>
        <time>2025-10-28T09:22:36.000Z</time>
      </trkpt>
      <trkpt lat="43.5492" lon="6.60403">
        <ele>138.7</ele>
        <time>2025-10-28T09:22:37.000Z</time>
      </trkpt>
      <trkpt lat="43.54922" lon="6.60407">
        <ele>139</ele>
        <time>2025-10-28T09:22:38.000Z</time>
      </trkpt>
      <trkpt lat="43.54923" lon="6.6041">
        <ele>139.3</ele>
        <time>2025-10-28T09:22:39.000Z</time>
      </trkpt>
      <trkpt lat="43.54924" lon="6.60413">
        <ele>139.6</ele>
        <time>2025-10-28T09:22:40.000Z</time>
      </trkpt>
      <trkpt lat="43.54925" lon="6.60416">
        <ele>139.9</ele>
        <time>2025-10-28T09:22:41.000Z</time>
      </trkpt>
      <trkpt lat="43.54927" lon="6.60419">
        <ele>140.2</ele>
        <time>2025-10-28T09:22:42.000Z</time>
      </trkpt>
      <trkpt lat="43.54929" lon="6.60421">
        <ele>140.5</ele>
        <time>2025-10-28T09:22:43.000Z</time>
      </trkpt>
      <trkpt lat="43.54932" lon="6.60423">
        <ele>140.8</ele>
        <time>2025-10-28T09:22:44.000Z</time>
      </trkpt>
      <trkpt lat="43.54935" lon="6.60423">
        <ele>141.1</ele>
        <time>2025-10-28T09:22:45.000Z</time>
      </trkpt>
      <trkpt lat="43.54937" lon="6.60422">
        <ele>141.3</ele>
        <time>2025-10-28T09:22:46.000Z</time>
      </trkpt>
      <trkpt lat="43.5494" lon="6.60421">
        <ele>141.6</ele>
        <time>2025-10-28T09:22:47.000Z</time>
      </trkpt>
      <trkpt lat="43.54942" lon="6.60419">
        <ele>141.9</ele>
        <time>2025-10-28T09:22:48.000Z</time>
      </trkpt>
      <trkpt lat="43.54945" lon="6.60417">
        <ele>142.2</ele>
        <time>2025-10-28T09:22:49.000Z</time>
      </trkpt>
      <trkpt lat="43.54947" lon="6.60416">
        <ele>142.5</ele>
        <time>2025-10-28T09:22:50.000Z</time>
      </trkpt>
      <trkpt lat="43.5495" lon="6.60417">
        <ele>142.7</ele>
        <time>2025-10-28T09:22:51.000Z</time>
      </trkpt>
      <trkpt lat="43.54953" lon="6.60418">
        <ele>143</ele>
        <time>2025-10-28T09:22:52.000Z</time>
      </trkpt>
      <trkpt lat="43.54956" lon="6.60419">
        <ele>143.2</ele>
        <time>2025-10-28T09:22:53.000Z</time>
      </trkpt>
      <trkpt lat="43.54959" lon="6.6042">
        <ele>143.5</ele>
        <time>2025-10-28T09:22:54.000Z</time>
      </trkpt>
      <trkpt lat="43.54961" lon="6.60423">
        <ele>143.7</ele>
        <time>2025-10-28T09:22:55.000Z</time>
      </trkpt>
      <trkpt lat="43.54963" lon="6.60426">
        <ele>143.9</ele>
        <time>2025-10-28T09:22:56.000Z</time>
      </trkpt>
      <trkpt lat="43.54964" lon="6.60429">
        <ele>144.2</ele>
        <time>2025-10-28T09:22:57.000Z</time>
      </trkpt>
      <trkpt lat="43.54966" lon="6.60432">
        <ele>144.4</ele>
        <time>2025-10-28T09:22:58.000Z</time>
      </trkpt>
      <trkpt lat="43.54968" lon="6.60434">
        <ele>144.6</ele>
        <time>2025-10-28T09:22:59.000Z</time>
      </trkpt>
      <trkpt lat="43.5497" lon="6.60437">
        <ele>144.8</ele>
        <time>2025-10-28T09:23:00.000Z</time>
      </trkpt>
      <trkpt lat="43.54973" lon="6.60438">
        <ele>145</ele>
        <time>2025-10-28T09:23:01.000Z</time>
      </trkpt>
      <trkpt lat="43.54975" lon="6.60439">
        <ele>145.2</ele>
        <time>2025-10-28T09:23:02.000Z</time>
      </trkpt>
      <trkpt lat="43.54977" lon="6.6044">
        <ele>145.3</ele>
        <time>2025-10-28T09:23:03.000Z</time>
      </trkpt>
      <trkpt lat="43.5498" lon="6.6044">
        <ele>145.5</ele>
        <time>2025-10-28T09:23:04.000Z</time>
      </trkpt>
      <trkpt lat="43.54982" lon="6.6044">
        <ele>145.7</ele>
        <time>2025-10-28T09:23:05.000Z</time>
      </trkpt>
      <trkpt lat="43.54984" lon="6.60441">
        <ele>145.9</ele>
        <time>2025-10-28T09:23:06.000Z</time>
      </trkpt>
      <trkpt lat="43.54987" lon="6.60441">
        <ele>146.1</ele>
        <time>2025-10-28T09:23:07.000Z</time>
      </trkpt>
      <trkpt lat="43.5499" lon="6.60442">
        <ele>146.4</ele>
        <time>2025-10-28T09:23:08.000Z</time>
      </trkpt>
      <trkpt lat="43.54992" lon="6.60442">
        <ele>146.6</ele>
        <time>2025-10-28T09:23:09.000Z</time>
      </trkpt>
      <trkpt lat="43.54994" lon="6.60443">
        <ele>146.9</ele>
        <time>2025-10-28T09:23:10.000Z</time>
      </trkpt>
      <trkpt lat="43.54996" lon="6.60444">
        <ele>147</ele>
        <time>2025-10-28T09:23:11.000Z</time>
      </trkpt>
      <trkpt lat="43.54997" lon="6.60444">
        <ele>147.1</ele>
        <time>2025-10-28T09:23:12.000Z</time>
      </trkpt>
      <trkpt lat="43.54997" lon="6.60444">
        <ele>147.1</ele>
        <time>2025-10-28T09:23:13.000Z</time>
      </trkpt>
      <trkpt lat="43.54997" lon="6.60444">
        <ele>147.2</ele>
        <time>2025-10-28T09:23:14.000Z</time>
      </trkpt>
      <trkpt lat="43.54997" lon="6.60444">
        <ele>147.2</ele>
        <time>2025-10-28T09:23:15.000Z</time>
      </trkpt>
      <trkpt lat="43.54997" lon="6.60444">
        <ele>147.2</ele>
        <time>2025-10-28T09:23:16.000Z</time>
      </trkpt>
      <trkpt lat="43.54997" lon="6.60444">
        <ele>147.2</ele>
        <time>2025-10-28T09:23:17.000Z</time>
      </trkpt>
      <trkpt lat="43.54997" lon="6.60444">
        <ele>147.2</ele>
        <time>2025-10-28T09:23:18.000Z</time>
      </trkpt>
      <trkpt lat="43.54998" lon="6.60444">
        <ele>147.2</ele>
        <time>2025-10-28T09:23:19.000Z</time>
      </trkpt>
      <trkpt lat="43.54998" lon="6.60444">
        <ele>147.2</ele>
        <time>2025-10-28T09:23:20.000Z</time>
      </trkpt>
      <trkpt lat="43.54998" lon="6.60444">
        <ele>147.2</ele>
        <time>2025-10-28T09:23:21.000Z</time>
      </trkpt>
      <trkpt lat="43.54998" lon="6.60443">
        <ele>147.3</ele>
        <time>2025-10-28T09:23:22.000Z</time>
      </trkpt>
      <trkpt lat="43.54998" lon="6.60443">
        <ele>147.3</ele>
        <time>2025-10-28T09:23:23.000Z</time>
      </trkpt>
      <trkpt lat="43.54998" lon="6.60443">
        <ele>147.3</ele>
        <time>2025-10-28T09:23:24.000Z</time>
      </trkpt>
      <trkpt lat="43.54998" lon="6.60443">
        <ele>147.3</ele>
        <time>2025-10-28T09:23:25.000Z</time>
      </trkpt>
      <trkpt lat="43.54998" lon="6.60443">
        <ele>147.3</ele>
        <time>2025-10-28T09:23:26.000Z</time>
      </trkpt>
      <trkpt lat="43.54998" lon="6.60443">
        <ele>147.3</ele>
        <time>2025-10-28T09:23:27.000Z</time>
      </trkpt>
      <trkpt lat="43.54998" lon="6.60443">
        <ele>147.3</ele>
        <time>2025-10-28T09:23:28.000Z</time>
      </trkpt>
      <trkpt lat="43.54998" lon="6.60443">
        <ele>147.3</ele>
        <time>2025-10-28T09:23:29.000Z</time>
      </trkpt>
      <trkpt lat="43.54998" lon="6.60443">
        <ele>147.3</ele>
        <time>2025-10-28T09:23:30.000Z</time>
      </trkpt>
      <trkpt lat="43.54998" lon="6.60443">
        <ele>147.3</ele>
        <time>2025-10-28T09:23:31.000Z</time>
      </trkpt>
      <trkpt lat="43.54998" lon="6.60443">
        <ele>147.3</ele>
        <time>2025-10-28T09:23:32.000Z</time>
      </trkpt>
      <trkpt lat="43.54998" lon="6.60443">
        <ele>147.3</ele>
        <time>2025-10-28T09:23:33.000Z</time>
      </trkpt>
      <trkpt lat="43.54998" lon="6.60443">
        <ele>147.3</ele>
        <time>2025-10-28T09:23:34.000Z</time>
      </trkpt>
      <trkpt lat="43.54998" lon="6.60443">
        <ele>147.3</ele>
        <time>2025-10-28T09:23:35.000Z</time>
      </trkpt>
      <trkpt lat="43.54998" lon="6.60443">
        <ele>147.3</ele>
        <time>2025-10-28T09:23:36.000Z</time>
      </trkpt>
      <trkpt lat="43.54998" lon="6.60443">
        <ele>147.3</ele>
        <time>2025-10-28T09:23:37.000Z</time>
      </trkpt>
      <trkpt lat="43.54998" lon="6.60443">
        <ele>147.3</ele>
        <time>2025-10-28T09:23:38.000Z</time>
      </trkpt>
      <trkpt lat="43.54998" lon="6.60443">
        <ele>147.3</ele>
        <time>2025-10-28T09:23:39.000Z</time>
      </trkpt>
      <trkpt lat="43.54998" lon="6.60443">
        <ele>147.3</ele>
        <time>2025-10-28T09:23:40.000Z</time>
      </trkpt>
      <trkpt lat="43.54998" lon="6.60443">
        <ele>147.3</ele>
        <time>2025-10-28T09:23:41.000Z</time>
      </trkpt>
      <trkpt lat="43.54998" lon="6.60443">
        <ele>147.3</ele>
        <time>2025-10-28T09:23:42.000Z</time>
      </trkpt>
      <trkpt lat="43.54998" lon="6.60443">
        <ele>147.3</ele>
        <time>2025-10-28T09:23:43.000Z</time>
      </trkpt>
      <trkpt lat="43.54998" lon="6.60443">
        <ele>147.3</ele>
        <time>2025-10-28T09:23:44.000Z</time>
      </trkpt>
      <trkpt lat="43.54998" lon="6.60443">
        <ele>147.3</ele>
        <time>2025-10-28T09:23:45.000Z</time>
      </trkpt>
      <trkpt lat="43.54998" lon="6.60443">
        <ele>147.3</ele>
        <time>2025-10-28T09:23:46.000Z</time>
      </trkpt>
      <trkpt lat="43.54998" lon="6.60443">
        <ele>147.3</ele>
        <time>2025-10-28T09:23:47.000Z</time>
      </trkpt>
      <trkpt lat="43.54998" lon="6.60443">
        <ele>147.3</ele>
        <time>2025-10-28T09:23:48.000Z</time>
      </trkpt>
      <trkpt lat="43.54998" lon="6.60443">
        <ele>147.3</ele>
        <time>2025-10-28T09:23:49.000Z</time>
      </trkpt>
      <trkpt lat="43.54998" lon="6.60443">
        <ele>147.3</ele>
        <time>2025-10-28T09:23:50.000Z</time>
      </trkpt>
      <trkpt lat="43.54998" lon="6.60442">
        <ele>147.3</ele>
        <time>2025-10-28T09:23:51.000Z</time>
      </trkpt>
      <trkpt lat="43.54997" lon="6.60442">
        <ele>147.4</ele>
        <time>2025-10-28T09:23:52.000Z</time>
      </trkpt>
      <trkpt lat="43.54997" lon="6.60442">
        <ele>147.4</ele>
        <time>2025-10-28T09:23:53.000Z</time>
      </trkpt>
      <trkpt lat="43.54997" lon="6.60442">
        <ele>147.4</ele>
        <time>2025-10-28T09:23:54.000Z</time>
      </trkpt>
      <trkpt lat="43.54997" lon="6.60442">
        <ele>147.4</ele>
        <time>2025-10-28T09:23:55.000Z</time>
      </trkpt>
      <trkpt lat="43.54997" lon="6.60442">
        <ele>147.4</ele>
        <time>2025-10-28T09:23:56.000Z</time>
      </trkpt>
      <trkpt lat="43.54997" lon="6.60442">
        <ele>147.4</ele>
        <time>2025-10-28T09:23:57.000Z</time>
      </trkpt>
      <trkpt lat="43.54997" lon="6.60442">
        <ele>147.4</ele>
        <time>2025-10-28T09:23:58.000Z</time>
      </trkpt>
      <trkpt lat="43.54997" lon="6.60442">
        <ele>147.4</ele>
        <time>2025-10-28T09:23:59.000Z</time>
      </trkpt>
      <trkpt lat="43.54997" lon="6.60442">
        <ele>147.4</ele>
        <time>2025-10-28T09:24:00.000Z</time>
      </trkpt>
      <trkpt lat="43.54997" lon="6.60442">
        <ele>147.4</ele>
        <time>2025-10-28T09:24:01.000Z</time>
      </trkpt>
      <trkpt lat="43.54997" lon="6.60442">
        <ele>147.4</ele>
        <time>2025-10-28T09:24:02.000Z</time>
      </trkpt>
      <trkpt lat="43.54997" lon="6.60442">
        <ele>147.4</ele>
        <time>2025-10-28T09:24:03.000Z</time>
      </trkpt>
      <trkpt lat="43.54997" lon="6.60442">
        <ele>147.4</ele>
        <time>2025-10-28T09:24:04.000Z</time>
      </trkpt>
      <trkpt lat="43.54997" lon="6.60442">
        <ele>147.4</ele>
        <time>2025-10-28T09:24:05.000Z</time>
      </trkpt>
      <trkpt lat="43.54997" lon="6.60442">
        <ele>147.5</ele>
        <time>2025-10-28T09:24:06.000Z</time>
      </trkpt>
      <trkpt lat="43.54999" lon="6.60442">
        <ele>147.7</ele>
        <time>2025-10-28T09:24:07.000Z</time>
      </trkpt>
      <trkpt lat="43.55002" lon="6.60443">
        <ele>147.9</ele>
        <time>2025-10-28T09:24:08.000Z</time>
      </trkpt>
      <trkpt lat="43.55005" lon="6.60443">
        <ele>148.1</ele>
        <time>2025-10-28T09:24:09.000Z</time>
      </trkpt>
      <trkpt lat="43.55009" lon="6.60444">
        <ele>148.4</ele>
        <time>2025-10-28T09:24:10.000Z</time>
      </trkpt>
      <trkpt lat="43.55012" lon="6.60445">
        <ele>148.7</ele>
        <time>2025-10-28T09:24:11.000Z</time>
      </trkpt>
      <trkpt lat="43.55015" lon="6.60447">
        <ele>149</ele>
        <time>2025-10-28T09:24:12.000Z</time>
      </trkpt>
      <trkpt lat="43.55019" lon="6.60448">
        <ele>149.3</ele>
        <time>2025-10-28T09:24:13.000Z</time>
      </trkpt>
      <trkpt lat="43.55023" lon="6.60449">
        <ele>149.6</ele>
        <time>2025-10-28T09:24:14.000Z</time>
      </trkpt>
      <trkpt lat="43.55027" lon="6.6045">
        <ele>149.9</ele>
        <time>2025-10-28T09:24:15.000Z</time>
      </trkpt>
      <trkpt lat="43.5503" lon="6.60452">
        <ele>150.2</ele>
        <time>2025-10-28T09:24:16.000Z</time>
      </trkpt>
      <trkpt lat="43.55033" lon="6.60453">
        <ele>150.5</ele>
        <time>2025-10-28T09:24:17.000Z</time>
      </trkpt>
      <trkpt lat="43.55036" lon="6.60454">
        <ele>150.7</ele>
        <time>2025-10-28T09:24:18.000Z</time>
      </trkpt>
      <trkpt lat="43.55039" lon="6.60456">
        <ele>151</ele>
        <time>2025-10-28T09:24:19.000Z</time>
      </trkpt>
      <trkpt lat="43.55042" lon="6.60457">
        <ele>151.2</ele>
        <time>2025-10-28T09:24:20.000Z</time>
      </trkpt>
      <trkpt lat="43.55044" lon="6.60458">
        <ele>151.5</ele>
        <time>2025-10-28T09:24:21.000Z</time>
      </trkpt>
      <trkpt lat="43.55047" lon="6.60459">
        <ele>151.7</ele>
        <time>2025-10-28T09:24:22.000Z</time>
      </trkpt>
      <trkpt lat="43.55049" lon="6.6046">
        <ele>151.9</ele>
        <time>2025-10-28T09:24:23.000Z</time>
      </trkpt>
      <trkpt lat="43.55052" lon="6.60461">
        <ele>152.1</ele>
        <time>2025-10-28T09:24:24.000Z</time>
      </trkpt>
      <trkpt lat="43.55054" lon="6.60461">
        <ele>152.4</ele>
        <time>2025-10-28T09:24:25.000Z</time>
      </trkpt>
      <trkpt lat="43.55058" lon="6.60461">
        <ele>152.7</ele>
        <time>2025-10-28T09:24:26.000Z</time>
      </trkpt>
      <trkpt lat="43.55061" lon="6.60461">
        <ele>152.9</ele>
        <time>2025-10-28T09:24:27.000Z</time>
      </trkpt>
      <trkpt lat="43.55065" lon="6.60461">
        <ele>153.2</ele>
        <time>2025-10-28T09:24:28.000Z</time>
      </trkpt>
      <trkpt lat="43.55069" lon="6.60461">
        <ele>153.4</ele>
        <time>2025-10-28T09:24:29.000Z</time>
      </trkpt>
      <trkpt lat="43.55073" lon="6.60461">
        <ele>153.7</ele>
        <time>2025-10-28T09:24:30.000Z</time>
      </trkpt>
      <trkpt lat="43.55077" lon="6.60462">
        <ele>153.8</ele>
        <time>2025-10-28T09:24:31.000Z</time>
      </trkpt>
      <trkpt lat="43.5508" lon="6.60463">
        <ele>154</ele>
        <time>2025-10-28T09:24:32.000Z</time>
      </trkpt>
      <trkpt lat="43.55083" lon="6.60464">
        <ele>154.1</ele>
        <time>2025-10-28T09:24:33.000Z</time>
      </trkpt>
      <trkpt lat="43.55088" lon="6.60466">
        <ele>154.1</ele>
        <time>2025-10-28T09:24:34.000Z</time>
      </trkpt>
      <trkpt lat="43.5509" lon="6.60468">
        <ele>154.1</ele>
        <time>2025-10-28T09:24:35.000Z</time>
      </trkpt>
      <trkpt lat="43.55094" lon="6.6047">
        <ele>154.2</ele>
        <time>2025-10-28T09:24:36.000Z</time>
      </trkpt>
      <trkpt lat="43.55097" lon="6.60472">
        <ele>154.1</ele>
        <time>2025-10-28T09:24:37.000Z</time>
      </trkpt>
      <trkpt lat="43.551" lon="6.60473">
        <ele>154.1</ele>
        <time>2025-10-28T09:24:38.000Z</time>
      </trkpt>
      <trkpt lat="43.55102" lon="6.60475">
        <ele>154.1</ele>
        <time>2025-10-28T09:24:39.000Z</time>
      </trkpt>
      <trkpt lat="43.55103" lon="6.60475">
        <ele>154.1</ele>
        <time>2025-10-28T09:24:40.000Z</time>
      </trkpt>
      <trkpt lat="43.55104" lon="6.60475">
        <ele>154.1</ele>
        <time>2025-10-28T09:24:41.000Z</time>
      </trkpt>
      <trkpt lat="43.55104" lon="6.60475">
        <ele>154.1</ele>
        <time>2025-10-28T09:24:42.000Z</time>
      </trkpt>
      <trkpt lat="43.55104" lon="6.60475">
        <ele>154.1</ele>
        <time>2025-10-28T09:24:43.000Z</time>
      </trkpt>
      <trkpt lat="43.55104" lon="6.60475">
        <ele>154.1</ele>
        <time>2025-10-28T09:24:44.000Z</time>
      </trkpt>
      <trkpt lat="43.55104" lon="6.60475">
        <ele>154.1</ele>
        <time>2025-10-28T09:24:45.000Z</time>
      </trkpt>
      <trkpt lat="43.55104" lon="6.60475">
        <ele>154.1</ele>
        <time>2025-10-28T09:24:46.000Z</time>
      </trkpt>
      <trkpt lat="43.55104" lon="6.60475">
        <ele>154.1</ele>
        <time>2025-10-28T09:24:47.000Z</time>
      </trkpt>
      <trkpt lat="43.55104" lon="6.60475">
        <ele>154.1</ele>
        <time>2025-10-28T09:24:48.000Z</time>
      </trkpt>
      <trkpt lat="43.55104" lon="6.60475">
        <ele>154.1</ele>
        <time>2025-10-28T09:24:49.000Z</time>
      </trkpt>
      <trkpt lat="43.55103" lon="6.60475">
        <ele>154.1</ele>
        <time>2025-10-28T09:24:50.000Z</time>
      </trkpt>
      <trkpt lat="43.55103" lon="6.60475">
        <ele>154.1</ele>
        <time>2025-10-28T09:24:51.000Z</time>
      </trkpt>
      <trkpt lat="43.55103" lon="6.60475">
        <ele>154.1</ele>
        <time>2025-10-28T09:24:52.000Z</time>
      </trkpt>
      <trkpt lat="43.55103" lon="6.60475">
        <ele>154.1</ele>
        <time>2025-10-28T09:24:53.000Z</time>
      </trkpt>
      <trkpt lat="43.55103" lon="6.60475">
        <ele>154.1</ele>
        <time>2025-10-28T09:24:54.000Z</time>
      </trkpt>
      <trkpt lat="43.55103" lon="6.60475">
        <ele>154.1</ele>
        <time>2025-10-28T09:24:55.000Z</time>
      </trkpt>
      <trkpt lat="43.55103" lon="6.60475">
        <ele>154.1</ele>
        <time>2025-10-28T09:24:56.000Z</time>
      </trkpt>
      <trkpt lat="43.55103" lon="6.60475">
        <ele>154.1</ele>
        <time>2025-10-28T09:24:57.000Z</time>
      </trkpt>
      <trkpt lat="43.55103" lon="6.60475">
        <ele>154.1</ele>
        <time>2025-10-28T09:24:58.000Z</time>
      </trkpt>
      <trkpt lat="43.55103" lon="6.60475">
        <ele>154.1</ele>
        <time>2025-10-28T09:24:59.000Z</time>
      </trkpt>
      <trkpt lat="43.55103" lon="6.60475">
        <ele>154.1</ele>
        <time>2025-10-28T09:25:00.000Z</time>
      </trkpt>
      <trkpt lat="43.55103" lon="6.60475">
        <ele>154.1</ele>
        <time>2025-10-28T09:25:01.000Z</time>
      </trkpt>
      <trkpt lat="43.55103" lon="6.60475">
        <ele>154.1</ele>
        <time>2025-10-28T09:25:02.000Z</time>
      </trkpt>
      <trkpt lat="43.55103" lon="6.60475">
        <ele>154.1</ele>
        <time>2025-10-28T09:25:03.000Z</time>
      </trkpt>
      <trkpt lat="43.55103" lon="6.60475">
        <ele>154.1</ele>
        <time>2025-10-28T09:25:04.000Z</time>
      </trkpt>
      <trkpt lat="43.55103" lon="6.60475">
        <ele>154.1</ele>
        <time>2025-10-28T09:25:05.000Z</time>
      </trkpt>
      <trkpt lat="43.55103" lon="6.60475">
        <ele>154.1</ele>
        <time>2025-10-28T09:25:06.000Z</time>
      </trkpt>
      <trkpt lat="43.55103" lon="6.60475">
        <ele>154.1</ele>
        <time>2025-10-28T09:25:07.000Z</time>
      </trkpt>
      <trkpt lat="43.55103" lon="6.60475">
        <ele>154.1</ele>
        <time>2025-10-28T09:25:08.000Z</time>
      </trkpt>
      <trkpt lat="43.55103" lon="6.60475">
        <ele>154.1</ele>
        <time>2025-10-28T09:25:09.000Z</time>
      </trkpt>
      <trkpt lat="43.55103" lon="6.60475">
        <ele>154.1</ele>
        <time>2025-10-28T09:25:10.000Z</time>
      </trkpt>
      <trkpt lat="43.55103" lon="6.60475">
        <ele>154.1</ele>
        <time>2025-10-28T09:25:11.000Z</time>
      </trkpt>
      <trkpt lat="43.55103" lon="6.60475">
        <ele>154.1</ele>
        <time>2025-10-28T09:25:12.000Z</time>
      </trkpt>
      <trkpt lat="43.55103" lon="6.60475">
        <ele>154.1</ele>
        <time>2025-10-28T09:25:13.000Z</time>
      </trkpt>
      <trkpt lat="43.55103" lon="6.60475">
        <ele>154.1</ele>
        <time>2025-10-28T09:25:14.000Z</time>
      </trkpt>
      <trkpt lat="43.55103" lon="6.60475">
        <ele>154.1</ele>
        <time>2025-10-28T09:25:15.000Z</time>
      </trkpt>
      <trkpt lat="43.55103" lon="6.60475">
        <ele>154.1</ele>
        <time>2025-10-28T09:25:16.000Z</time>
      </trkpt>
      <trkpt lat="43.55103" lon="6.60475">
        <ele>154.1</ele>
        <time>2025-10-28T09:25:17.000Z</time>
      </trkpt>
      <trkpt lat="43.55103" lon="6.60475">
        <ele>154.1</ele>
        <time>2025-10-28T09:25:18.000Z</time>
      </trkpt>
      <trkpt lat="43.55103" lon="6.60475">
        <ele>154.1</ele>
        <time>2025-10-28T09:25:19.000Z</time>
      </trkpt>
      <trkpt lat="43.55103" lon="6.60475">
        <ele>154.1</ele>
        <time>2025-10-28T09:25:20.000Z</time>
      </trkpt>
      <trkpt lat="43.55103" lon="6.60475">
        <ele>154.1</ele>
        <time>2025-10-28T09:25:21.000Z</time>
      </trkpt>
      <trkpt lat="43.55103" lon="6.60475">
        <ele>154.1</ele>
        <time>2025-10-28T09:25:22.000Z</time>
      </trkpt>
      <trkpt lat="43.55103" lon="6.60475">
        <ele>154.1</ele>
        <time>2025-10-28T09:25:23.000Z</time>
      </trkpt>
      <trkpt lat="43.55103" lon="6.60475">
        <ele>154.1</ele>
        <time>2025-10-28T09:25:24.000Z</time>
      </trkpt>
      <trkpt lat="43.55104" lon="6.60474">
        <ele>154</ele>
        <time>2025-10-28T09:25:25.000Z</time>
      </trkpt>
      <trkpt lat="43.55104" lon="6.60474">
        <ele>154</ele>
        <time>2025-10-28T09:25:26.000Z</time>
      </trkpt>
      <trkpt lat="43.55104" lon="6.60474">
        <ele>154</ele>
        <time>2025-10-28T09:25:27.000Z</time>
      </trkpt>
      <trkpt lat="43.55104" lon="6.60474">
        <ele>154</ele>
        <time>2025-10-28T09:25:28.000Z</time>
      </trkpt>
      <trkpt lat="43.55104" lon="6.60474">
        <ele>154</ele>
        <time>2025-10-28T09:25:29.000Z</time>
      </trkpt>
      <trkpt lat="43.55104" lon="6.60474">
        <ele>154</ele>
        <time>2025-10-28T09:25:30.000Z</time>
      </trkpt>
      <trkpt lat="43.55106" lon="6.60476">
        <ele>154</ele>
        <time>2025-10-28T09:25:31.000Z</time>
      </trkpt>
      <trkpt lat="43.55109" lon="6.60477">
        <ele>154</ele>
        <time>2025-10-28T09:25:32.000Z</time>
      </trkpt>
      <trkpt lat="43.55113" lon="6.60477">
        <ele>154.1</ele>
        <time>2025-10-28T09:25:33.000Z</time>
      </trkpt>
      <trkpt lat="43.55117" lon="6.60478">
        <ele>154.1</ele>
        <time>2025-10-28T09:25:34.000Z</time>
      </trkpt>
      <trkpt lat="43.55121" lon="6.60479">
        <ele>154.1</ele>
        <time>2025-10-28T09:25:35.000Z</time>
      </trkpt>
      <trkpt lat="43.55125" lon="6.6048">
        <ele>154.2</ele>
        <time>2025-10-28T09:25:36.000Z</time>
      </trkpt>
      <trkpt lat="43.55128" lon="6.60481">
        <ele>154.2</ele>
        <time>2025-10-28T09:25:37.000Z</time>
      </trkpt>
      <trkpt lat="43.55133" lon="6.60482">
        <ele>154.3</ele>
        <time>2025-10-28T09:25:38.000Z</time>
      </trkpt>
      <trkpt lat="43.55137" lon="6.60483">
        <ele>154.3</ele>
        <time>2025-10-28T09:25:39.000Z</time>
      </trkpt>
      <trkpt lat="43.5514" lon="6.60483">
        <ele>154.4</ele>
        <time>2025-10-28T09:25:40.000Z</time>
      </trkpt>
      <trkpt lat="43.55144" lon="6.60484">
        <ele>154.5</ele>
        <time>2025-10-28T09:25:41.000Z</time>
      </trkpt>
      <trkpt lat="43.55148" lon="6.60485">
        <ele>154.6</ele>
        <time>2025-10-28T09:25:42.000Z</time>
      </trkpt>
      <trkpt lat="43.55151" lon="6.60486">
        <ele>154.6</ele>
        <time>2025-10-28T09:25:43.000Z</time>
      </trkpt>
      <trkpt lat="43.55155" lon="6.60487">
        <ele>154.7</ele>
        <time>2025-10-28T09:25:44.000Z</time>
      </trkpt>
      <trkpt lat="43.55159" lon="6.6049">
        <ele>154.9</ele>
        <time>2025-10-28T09:25:45.000Z</time>
      </trkpt>
      <trkpt lat="43.55162" lon="6.60491">
        <ele>155</ele>
        <time>2025-10-28T09:25:46.000Z</time>
      </trkpt>
      <trkpt lat="43.55165" lon="6.60494">
        <ele>155.1</ele>
        <time>2025-10-28T09:25:47.000Z</time>
      </trkpt>
      <trkpt lat="43.55168" lon="6.60496">
        <ele>155.3</ele>
        <time>2025-10-28T09:25:48.000Z</time>
      </trkpt>
      <trkpt lat="43.55171" lon="6.60498">
        <ele>155.4</ele>
        <time>2025-10-28T09:25:49.000Z</time>
      </trkpt>
      <trkpt lat="43.55175" lon="6.605">
        <ele>155.6</ele>
        <time>2025-10-28T09:25:50.000Z</time>
      </trkpt>
      <trkpt lat="43.55178" lon="6.60503">
        <ele>155.9</ele>
        <time>2025-10-28T09:25:51.000Z</time>
      </trkpt>
      <trkpt lat="43.55181" lon="6.60506">
        <ele>156.1</ele>
        <time>2025-10-28T09:25:52.000Z</time>
      </trkpt>
      <trkpt lat="43.55184" lon="6.60509">
        <ele>156.3</ele>
        <time>2025-10-28T09:25:53.000Z</time>
      </trkpt>
      <trkpt lat="43.55187" lon="6.60511">
        <ele>156.6</ele>
        <time>2025-10-28T09:25:54.000Z</time>
      </trkpt>
      <trkpt lat="43.5519" lon="6.60514">
        <ele>156.8</ele>
        <time>2025-10-28T09:25:55.000Z</time>
      </trkpt>
      <trkpt lat="43.55193" lon="6.60517">
        <ele>157.1</ele>
        <time>2025-10-28T09:25:56.000Z</time>
      </trkpt>
      <trkpt lat="43.55196" lon="6.60519">
        <ele>157.4</ele>
        <time>2025-10-28T09:25:57.000Z</time>
      </trkpt>
      <trkpt lat="43.552" lon="6.60522">
        <ele>157.7</ele>
        <time>2025-10-28T09:25:58.000Z</time>
      </trkpt>
      <trkpt lat="43.55203" lon="6.60524">
        <ele>158</ele>
        <time>2025-10-28T09:25:59.000Z</time>
      </trkpt>
      <trkpt lat="43.55207" lon="6.60526">
        <ele>158.3</ele>
        <time>2025-10-28T09:26:00.000Z</time>
      </trkpt>
      <trkpt lat="43.55211" lon="6.60527">
        <ele>158.6</ele>
        <time>2025-10-28T09:26:01.000Z</time>
      </trkpt>
      <trkpt lat="43.55214" lon="6.60528">
        <ele>158.8</ele>
        <time>2025-10-28T09:26:02.000Z</time>
      </trkpt>
      <trkpt lat="43.55218" lon="6.60529">
        <ele>159.1</ele>
        <time>2025-10-28T09:26:03.000Z</time>
      </trkpt>
      <trkpt lat="43.55222" lon="6.6053">
        <ele>159.4</ele>
        <time>2025-10-28T09:26:04.000Z</time>
      </trkpt>
      <trkpt lat="43.55226" lon="6.6053">
        <ele>159.6</ele>
        <time>2025-10-28T09:26:05.000Z</time>
      </trkpt>
      <trkpt lat="43.55229" lon="6.60531">
        <ele>159.9</ele>
        <time>2025-10-28T09:26:06.000Z</time>
      </trkpt>
      <trkpt lat="43.55233" lon="6.60531">
        <ele>160.1</ele>
        <time>2025-10-28T09:26:07.000Z</time>
      </trkpt>
      <trkpt lat="43.55237" lon="6.60532">
        <ele>160.3</ele>
        <time>2025-10-28T09:26:08.000Z</time>
      </trkpt>
      <trkpt lat="43.55241" lon="6.60533">
        <ele>160.5</ele>
        <time>2025-10-28T09:26:09.000Z</time>
      </trkpt>
      <trkpt lat="43.55244" lon="6.60534">
        <ele>160.7</ele>
        <time>2025-10-28T09:26:10.000Z</time>
      </trkpt>
      <trkpt lat="43.55248" lon="6.60535">
        <ele>160.9</ele>
        <time>2025-10-28T09:26:11.000Z</time>
      </trkpt>
      <trkpt lat="43.55251" lon="6.60537">
        <ele>161.1</ele>
        <time>2025-10-28T09:26:12.000Z</time>
      </trkpt>
      <trkpt lat="43.55255" lon="6.60539">
        <ele>161.2</ele>
        <time>2025-10-28T09:26:13.000Z</time>
      </trkpt>
      <trkpt lat="43.55259" lon="6.6054">
        <ele>161.3</ele>
        <time>2025-10-28T09:26:14.000Z</time>
      </trkpt>
      <trkpt lat="43.55263" lon="6.60542">
        <ele>161.4</ele>
        <time>2025-10-28T09:26:15.000Z</time>
      </trkpt>
      <trkpt lat="43.55266" lon="6.60544">
        <ele>161.5</ele>
        <time>2025-10-28T09:26:16.000Z</time>
      </trkpt>
      <trkpt lat="43.5527" lon="6.60546">
        <ele>161.6</ele>
        <time>2025-10-28T09:26:17.000Z</time>
      </trkpt>
      <trkpt lat="43.55273" lon="6.60548">
        <ele>161.7</ele>
        <time>2025-10-28T09:26:18.000Z</time>
      </trkpt>
      <trkpt lat="43.55277" lon="6.60549">
        <ele>161.8</ele>
        <time>2025-10-28T09:26:19.000Z</time>
      </trkpt>
      <trkpt lat="43.5528" lon="6.60551">
        <ele>161.9</ele>
        <time>2025-10-28T09:26:20.000Z</time>
      </trkpt>
      <trkpt lat="43.55284" lon="6.60553">
        <ele>162</ele>
        <time>2025-10-28T09:26:21.000Z</time>
      </trkpt>
      <trkpt lat="43.55288" lon="6.60554">
        <ele>162.1</ele>
        <time>2025-10-28T09:26:22.000Z</time>
      </trkpt>
      <trkpt lat="43.55292" lon="6.60556">
        <ele>162.2</ele>
        <time>2025-10-28T09:26:23.000Z</time>
      </trkpt>
      <trkpt lat="43.55295" lon="6.60558">
        <ele>162.3</ele>
        <time>2025-10-28T09:26:24.000Z</time>
      </trkpt>
      <trkpt lat="43.55299" lon="6.6056">
        <ele>162.4</ele>
        <time>2025-10-28T09:26:25.000Z</time>
      </trkpt>
      <trkpt lat="43.55302" lon="6.60563">
        <ele>162.6</ele>
        <time>2025-10-28T09:26:26.000Z</time>
      </trkpt>
      <trkpt lat="43.55305" lon="6.60566">
        <ele>162.7</ele>
        <time>2025-10-28T09:26:27.000Z</time>
      </trkpt>
      <trkpt lat="43.55308" lon="6.60569">
        <ele>162.8</ele>
        <time>2025-10-28T09:26:28.000Z</time>
      </trkpt>
      <trkpt lat="43.55311" lon="6.60573">
        <ele>163</ele>
        <time>2025-10-28T09:26:29.000Z</time>
      </trkpt>
      <trkpt lat="43.55313" lon="6.60576">
        <ele>163.2</ele>
        <time>2025-10-28T09:26:30.000Z</time>
      </trkpt>
      <trkpt lat="43.55315" lon="6.60581">
        <ele>163.4</ele>
        <time>2025-10-28T09:26:31.000Z</time>
      </trkpt>
      <trkpt lat="43.55318" lon="6.60585">
        <ele>163.6</ele>
        <time>2025-10-28T09:26:32.000Z</time>
      </trkpt>
      <trkpt lat="43.5532" lon="6.60589">
        <ele>163.8</ele>
        <time>2025-10-28T09:26:33.000Z</time>
      </trkpt>
      <trkpt lat="43.55323" lon="6.60593">
        <ele>163.9</ele>
        <time>2025-10-28T09:26:34.000Z</time>
      </trkpt>
      <trkpt lat="43.55325" lon="6.60596">
        <ele>164.1</ele>
        <time>2025-10-28T09:26:35.000Z</time>
      </trkpt>
      <trkpt lat="43.55328" lon="6.60599">
        <ele>164.3</ele>
        <time>2025-10-28T09:26:36.000Z</time>
      </trkpt>
      <trkpt lat="43.55332" lon="6.60601">
        <ele>164.4</ele>
        <time>2025-10-28T09:26:37.000Z</time>
      </trkpt>
      <trkpt lat="43.55335" lon="6.60603">
        <ele>164.6</ele>
        <time>2025-10-28T09:26:38.000Z</time>
      </trkpt>
      <trkpt lat="43.55338" lon="6.60604">
        <ele>164.7</ele>
        <time>2025-10-28T09:26:39.000Z</time>
      </trkpt>
      <trkpt lat="43.55343" lon="6.60605">
        <ele>164.9</ele>
        <time>2025-10-28T09:26:40.000Z</time>
      </trkpt>
      <trkpt lat="43.55346" lon="6.60606">
        <ele>165</ele>
        <time>2025-10-28T09:26:41.000Z</time>
      </trkpt>
      <trkpt lat="43.55349" lon="6.60606">
        <ele>165.1</ele>
        <time>2025-10-28T09:26:42.000Z</time>
      </trkpt>
      <trkpt lat="43.55353" lon="6.60606">
        <ele>165.3</ele>
        <time>2025-10-28T09:26:43.000Z</time>
      </trkpt>
      <trkpt lat="43.55356" lon="6.60606">
        <ele>165.4</ele>
        <time>2025-10-28T09:26:44.000Z</time>
      </trkpt>
      <trkpt lat="43.55361" lon="6.60605">
        <ele>165.5</ele>
        <time>2025-10-28T09:26:45.000Z</time>
      </trkpt>
      <trkpt lat="43.55364" lon="6.60604">
        <ele>165.6</ele>
        <time>2025-10-28T09:26:46.000Z</time>
      </trkpt>
      <trkpt lat="43.55368" lon="6.60603">
        <ele>165.7</ele>
        <time>2025-10-28T09:26:47.000Z</time>
      </trkpt>
      <trkpt lat="43.5537" lon="6.60602">
        <ele>165.7</ele>
        <time>2025-10-28T09:26:48.000Z</time>
      </trkpt>
      <trkpt lat="43.55375" lon="6.60601">
        <ele>165.8</ele>
        <time>2025-10-28T09:26:49.000Z</time>
      </trkpt>
      <trkpt lat="43.55377" lon="6.606">
        <ele>165.9</ele>
        <time>2025-10-28T09:26:50.000Z</time>
      </trkpt>
      <trkpt lat="43.55381" lon="6.60599">
        <ele>165.9</ele>
        <time>2025-10-28T09:26:51.000Z</time>
      </trkpt>
      <trkpt lat="43.55384" lon="6.60598">
        <ele>165.9</ele>
        <time>2025-10-28T09:26:52.000Z</time>
      </trkpt>
      <trkpt lat="43.55388" lon="6.60597">
        <ele>166</ele>
        <time>2025-10-28T09:26:53.000Z</time>
      </trkpt>
      <trkpt lat="43.55392" lon="6.60596">
        <ele>166</ele>
        <time>2025-10-28T09:26:54.000Z</time>
      </trkpt>
      <trkpt lat="43.55395" lon="6.60596">
        <ele>166.1</ele>
        <time>2025-10-28T09:26:55.000Z</time>
      </trkpt>
      <trkpt lat="43.55399" lon="6.60597">
        <ele>166.1</ele>
        <time>2025-10-28T09:26:56.000Z</time>
      </trkpt>
      <trkpt lat="43.55402" lon="6.60597">
        <ele>166.1</ele>
        <time>2025-10-28T09:26:57.000Z</time>
      </trkpt>
      <trkpt lat="43.55406" lon="6.60598">
        <ele>166.2</ele>
        <time>2025-10-28T09:26:58.000Z</time>
      </trkpt>
      <trkpt lat="43.5541" lon="6.606">
        <ele>166.2</ele>
        <time>2025-10-28T09:26:59.000Z</time>
      </trkpt>
      <trkpt lat="43.55413" lon="6.60601">
        <ele>166.2</ele>
        <time>2025-10-28T09:27:00.000Z</time>
      </trkpt>
      <trkpt lat="43.55417" lon="6.60603">
        <ele>166.3</ele>
        <time>2025-10-28T09:27:01.000Z</time>
      </trkpt>
      <trkpt lat="43.5542" lon="6.60605">
        <ele>166.3</ele>
        <time>2025-10-28T09:27:02.000Z</time>
      </trkpt>
      <trkpt lat="43.55424" lon="6.60607">
        <ele>166.4</ele>
        <time>2025-10-28T09:27:03.000Z</time>
      </trkpt>
      <trkpt lat="43.55427" lon="6.6061">
        <ele>166.5</ele>
        <time>2025-10-28T09:27:04.000Z</time>
      </trkpt>
      <trkpt lat="43.55431" lon="6.60612">
        <ele>166.6</ele>
        <time>2025-10-28T09:27:05.000Z</time>
      </trkpt>
      <trkpt lat="43.55434" lon="6.60614">
        <ele>166.7</ele>
        <time>2025-10-28T09:27:06.000Z</time>
      </trkpt>
      <trkpt lat="43.55437" lon="6.60616">
        <ele>166.8</ele>
        <time>2025-10-28T09:27:07.000Z</time>
      </trkpt>
      <trkpt lat="43.5544" lon="6.60618">
        <ele>166.9</ele>
        <time>2025-10-28T09:27:08.000Z</time>
      </trkpt>
      <trkpt lat="43.55444" lon="6.6062">
        <ele>167</ele>
        <time>2025-10-28T09:27:09.000Z</time>
      </trkpt>
      <trkpt lat="43.55447" lon="6.60622">
        <ele>167.1</ele>
        <time>2025-10-28T09:27:10.000Z</time>
      </trkpt>
      <trkpt lat="43.55451" lon="6.60624">
        <ele>167.3</ele>
        <time>2025-10-28T09:27:11.000Z</time>
      </trkpt>
      <trkpt lat="43.55454" lon="6.60625">
        <ele>167.5</ele>
        <time>2025-10-28T09:27:12.000Z</time>
      </trkpt>
      <trkpt lat="43.55457" lon="6.60626">
        <ele>167.7</ele>
        <time>2025-10-28T09:27:13.000Z</time>
      </trkpt>
      <trkpt lat="43.55461" lon="6.60627">
        <ele>167.9</ele>
        <time>2025-10-28T09:27:14.000Z</time>
      </trkpt>
      <trkpt lat="43.55464" lon="6.60628">
        <ele>168.2</ele>
        <time>2025-10-28T09:27:15.000Z</time>
      </trkpt>
      <trkpt lat="43.55467" lon="6.60629">
        <ele>168.4</ele>
        <time>2025-10-28T09:27:16.000Z</time>
      </trkpt>
      <trkpt lat="43.55471" lon="6.6063">
        <ele>168.7</ele>
        <time>2025-10-28T09:27:17.000Z</time>
      </trkpt>
      <trkpt lat="43.55474" lon="6.60631">
        <ele>169.1</ele>
        <time>2025-10-28T09:27:18.000Z</time>
      </trkpt>
      <trkpt lat="43.55477" lon="6.60632">
        <ele>169.4</ele>
        <time>2025-10-28T09:27:19.000Z</time>
      </trkpt>
      <trkpt lat="43.55481" lon="6.60634">
        <ele>169.8</ele>
        <time>2025-10-28T09:27:20.000Z</time>
      </trkpt>
      <trkpt lat="43.55484" lon="6.60635">
        <ele>170.2</ele>
        <time>2025-10-28T09:27:21.000Z</time>
      </trkpt>
      <trkpt lat="43.55487" lon="6.60636">
        <ele>170.6</ele>
        <time>2025-10-28T09:27:22.000Z</time>
      </trkpt>
      <trkpt lat="43.5549" lon="6.60638">
        <ele>171</ele>
        <time>2025-10-28T09:27:23.000Z</time>
      </trkpt>
      <trkpt lat="43.55493" lon="6.60639">
        <ele>171.5</ele>
        <time>2025-10-28T09:27:24.000Z</time>
      </trkpt>
      <trkpt lat="43.55496" lon="6.60641">
        <ele>171.8</ele>
        <time>2025-10-28T09:27:25.000Z</time>
      </trkpt>
      <trkpt lat="43.55499" lon="6.60642">
        <ele>172.2</ele>
        <time>2025-10-28T09:27:26.000Z</time>
      </trkpt>
      <trkpt lat="43.55502" lon="6.60644">
        <ele>172.6</ele>
        <time>2025-10-28T09:27:27.000Z</time>
      </trkpt>
      <trkpt lat="43.55506" lon="6.60645">
        <ele>172.9</ele>
        <time>2025-10-28T09:27:28.000Z</time>
      </trkpt>
      <trkpt lat="43.55509" lon="6.60647">
        <ele>173.3</ele>
        <time>2025-10-28T09:27:29.000Z</time>
      </trkpt>
      <trkpt lat="43.55512" lon="6.60648">
        <ele>173.6</ele>
        <time>2025-10-28T09:27:30.000Z</time>
      </trkpt>
      <trkpt lat="43.55514" lon="6.6065">
        <ele>173.9</ele>
        <time>2025-10-28T09:27:31.000Z</time>
      </trkpt>
      <trkpt lat="43.55517" lon="6.60651">
        <ele>174.2</ele>
        <time>2025-10-28T09:27:32.000Z</time>
      </trkpt>
      <trkpt lat="43.5552" lon="6.60652">
        <ele>174.5</ele>
        <time>2025-10-28T09:27:33.000Z</time>
      </trkpt>
      <trkpt lat="43.55523" lon="6.60654">
        <ele>174.8</ele>
        <time>2025-10-28T09:27:34.000Z</time>
      </trkpt>
      <trkpt lat="43.55526" lon="6.60655">
        <ele>175</ele>
        <time>2025-10-28T09:27:35.000Z</time>
      </trkpt>
      <trkpt lat="43.55529" lon="6.60656">
        <ele>175.2</ele>
        <time>2025-10-28T09:27:36.000Z</time>
      </trkpt>
      <trkpt lat="43.55532" lon="6.60656">
        <ele>175.4</ele>
        <time>2025-10-28T09:27:37.000Z</time>
      </trkpt>
      <trkpt lat="43.55535" lon="6.60657">
        <ele>175.6</ele>
        <time>2025-10-28T09:27:38.000Z</time>
      </trkpt>
      <trkpt lat="43.55538" lon="6.60658">
        <ele>175.7</ele>
        <time>2025-10-28T09:27:39.000Z</time>
      </trkpt>
      <trkpt lat="43.55541" lon="6.60659">
        <ele>175.9</ele>
        <time>2025-10-28T09:27:40.000Z</time>
      </trkpt>
      <trkpt lat="43.55544" lon="6.6066">
        <ele>176</ele>
        <time>2025-10-28T09:27:41.000Z</time>
      </trkpt>
      <trkpt lat="43.55548" lon="6.60661">
        <ele>176.1</ele>
        <time>2025-10-28T09:27:42.000Z</time>
      </trkpt>
      <trkpt lat="43.55551" lon="6.60662">
        <ele>176.1</ele>
        <time>2025-10-28T09:27:43.000Z</time>
      </trkpt>
      <trkpt lat="43.55555" lon="6.60663">
        <ele>176.2</ele>
        <time>2025-10-28T09:27:44.000Z</time>
      </trkpt>
      <trkpt lat="43.55558" lon="6.60664">
        <ele>176.3</ele>
        <time>2025-10-28T09:27:45.000Z</time>
      </trkpt>
      <trkpt lat="43.55562" lon="6.60665">
        <ele>176.4</ele>
        <time>2025-10-28T09:27:46.000Z</time>
      </trkpt>
      <trkpt lat="43.55565" lon="6.60666">
        <ele>176.4</ele>
        <time>2025-10-28T09:27:47.000Z</time>
      </trkpt>
      <trkpt lat="43.55568" lon="6.60666">
        <ele>176.5</ele>
        <time>2025-10-28T09:27:48.000Z</time>
      </trkpt>
      <trkpt lat="43.55572" lon="6.60668">
        <ele>176.6</ele>
        <time>2025-10-28T09:27:49.000Z</time>
      </trkpt>
      <trkpt lat="43.55575" lon="6.60669">
        <ele>176.6</ele>
        <time>2025-10-28T09:27:50.000Z</time>
      </trkpt>
      <trkpt lat="43.55579" lon="6.6067">
        <ele>176.7</ele>
        <time>2025-10-28T09:27:51.000Z</time>
      </trkpt>
      <trkpt lat="43.55582" lon="6.60672">
        <ele>176.8</ele>
        <time>2025-10-28T09:27:52.000Z</time>
      </trkpt>
      <trkpt lat="43.55586" lon="6.60673">
        <ele>176.9</ele>
        <time>2025-10-28T09:27:53.000Z</time>
      </trkpt>
      <trkpt lat="43.55589" lon="6.60675">
        <ele>177</ele>
        <time>2025-10-28T09:27:54.000Z</time>
      </trkpt>
      <trkpt lat="43.55593" lon="6.60676">
        <ele>177.1</ele>
        <time>2025-10-28T09:27:55.000Z</time>
      </trkpt>
      <trkpt lat="43.55596" lon="6.60678">
        <ele>177.2</ele>
        <time>2025-10-28T09:27:56.000Z</time>
      </trkpt>
      <trkpt lat="43.556" lon="6.6068">
        <ele>177.3</ele>
        <time>2025-10-28T09:27:57.000Z</time>
      </trkpt>
      <trkpt lat="43.55604" lon="6.60682">
        <ele>177.4</ele>
        <time>2025-10-28T09:27:58.000Z</time>
      </trkpt>
      <trkpt lat="43.55607" lon="6.60684">
        <ele>177.5</ele>
        <time>2025-10-28T09:27:59.000Z</time>
      </trkpt>
      <trkpt lat="43.5561" lon="6.60687">
        <ele>177.6</ele>
        <time>2025-10-28T09:28:00.000Z</time>
      </trkpt>
      <trkpt lat="43.55613" lon="6.60689">
        <ele>177.8</ele>
        <time>2025-10-28T09:28:01.000Z</time>
      </trkpt>
      <trkpt lat="43.55616" lon="6.60692">
        <ele>177.9</ele>
        <time>2025-10-28T09:28:02.000Z</time>
      </trkpt>
      <trkpt lat="43.55619" lon="6.60695">
        <ele>178.1</ele>
        <time>2025-10-28T09:28:03.000Z</time>
      </trkpt>
      <trkpt lat="43.55622" lon="6.60699">
        <ele>178.3</ele>
        <time>2025-10-28T09:28:04.000Z</time>
      </trkpt>
      <trkpt lat="43.55624" lon="6.60702">
        <ele>178.4</ele>
        <time>2025-10-28T09:28:05.000Z</time>
      </trkpt>
      <trkpt lat="43.55627" lon="6.60706">
        <ele>178.6</ele>
        <time>2025-10-28T09:28:06.000Z</time>
      </trkpt>
      <trkpt lat="43.55629" lon="6.6071">
        <ele>178.8</ele>
        <time>2025-10-28T09:28:07.000Z</time>
      </trkpt>
      <trkpt lat="43.55632" lon="6.60714">
        <ele>178.9</ele>
        <time>2025-10-28T09:28:08.000Z</time>
      </trkpt>
      <trkpt lat="43.55634" lon="6.60718">
        <ele>179.1</ele>
        <time>2025-10-28T09:28:09.000Z</time>
      </trkpt>
      <trkpt lat="43.55636" lon="6.60722">
        <ele>179.3</ele>
        <time>2025-10-28T09:28:10.000Z</time>
      </trkpt>
      <trkpt lat="43.55638" lon="6.60726">
        <ele>179.4</ele>
        <time>2025-10-28T09:28:11.000Z</time>
      </trkpt>
      <trkpt lat="43.55641" lon="6.6073">
        <ele>179.6</ele>
        <time>2025-10-28T09:28:12.000Z</time>
      </trkpt>
      <trkpt lat="43.55643" lon="6.60734">
        <ele>179.8</ele>
        <time>2025-10-28T09:28:13.000Z</time>
      </trkpt>
      <trkpt lat="43.55645" lon="6.60738">
        <ele>180</ele>
        <time>2025-10-28T09:28:14.000Z</time>
      </trkpt>
      <trkpt lat="43.55647" lon="6.60742">
        <ele>180.2</ele>
        <time>2025-10-28T09:28:15.000Z</time>
      </trkpt>
      <trkpt lat="43.5565" lon="6.60747">
        <ele>180.5</ele>
        <time>2025-10-28T09:28:16.000Z</time>
      </trkpt>
      <trkpt lat="43.55652" lon="6.60751">
        <ele>180.7</ele>
        <time>2025-10-28T09:28:17.000Z</time>
      </trkpt>
      <trkpt lat="43.55654" lon="6.60755">
        <ele>181</ele>
        <time>2025-10-28T09:28:18.000Z</time>
      </trkpt>
      <trkpt lat="43.55657" lon="6.60759">
        <ele>181.3</ele>
        <time>2025-10-28T09:28:19.000Z</time>
      </trkpt>
      <trkpt lat="43.55659" lon="6.60763">
        <ele>181.6</ele>
        <time>2025-10-28T09:28:20.000Z</time>
      </trkpt>
      <trkpt lat="43.55661" lon="6.60767">
        <ele>181.9</ele>
        <time>2025-10-28T09:28:21.000Z</time>
      </trkpt>
      <trkpt lat="43.55664" lon="6.60771">
        <ele>182.3</ele>
        <time>2025-10-28T09:28:22.000Z</time>
      </trkpt>
      <trkpt lat="43.55667" lon="6.60774">
        <ele>182.6</ele>
        <time>2025-10-28T09:28:23.000Z</time>
      </trkpt>
      <trkpt lat="43.5567" lon="6.60777">
        <ele>183</ele>
        <time>2025-10-28T09:28:24.000Z</time>
      </trkpt>
      <trkpt lat="43.55673" lon="6.6078">
        <ele>183.4</ele>
        <time>2025-10-28T09:28:25.000Z</time>
      </trkpt>
      <trkpt lat="43.55676" lon="6.60781">
        <ele>183.7</ele>
        <time>2025-10-28T09:28:26.000Z</time>
      </trkpt>
      <trkpt lat="43.5568" lon="6.60783">
        <ele>184</ele>
        <time>2025-10-28T09:28:27.000Z</time>
      </trkpt>
      <trkpt lat="43.55683" lon="6.60783">
        <ele>184.3</ele>
        <time>2025-10-28T09:28:28.000Z</time>
      </trkpt>
      <trkpt lat="43.55686" lon="6.60783">
        <ele>184.7</ele>
        <time>2025-10-28T09:28:29.000Z</time>
      </trkpt>
      <trkpt lat="43.5569" lon="6.60783">
        <ele>184.9</ele>
        <time>2025-10-28T09:28:30.000Z</time>
      </trkpt>
      <trkpt lat="43.55693" lon="6.60783">
        <ele>185.2</ele>
        <time>2025-10-28T09:28:31.000Z</time>
      </trkpt>
      <trkpt lat="43.55696" lon="6.60783">
        <ele>185.4</ele>
        <time>2025-10-28T09:28:32.000Z</time>
      </trkpt>
      <trkpt lat="43.557" lon="6.60783">
        <ele>185.6</ele>
        <time>2025-10-28T09:28:33.000Z</time>
      </trkpt>
      <trkpt lat="43.55703" lon="6.60782">
        <ele>185.8</ele>
        <time>2025-10-28T09:28:34.000Z</time>
      </trkpt>
      <trkpt lat="43.55706" lon="6.60782">
        <ele>186</ele>
        <time>2025-10-28T09:28:35.000Z</time>
      </trkpt>
      <trkpt lat="43.55709" lon="6.60782">
        <ele>186.2</ele>
        <time>2025-10-28T09:28:36.000Z</time>
      </trkpt>
      <trkpt lat="43.55713" lon="6.60783">
        <ele>186.3</ele>
        <time>2025-10-28T09:28:37.000Z</time>
      </trkpt>
      <trkpt lat="43.55717" lon="6.60783">
        <ele>186.5</ele>
        <time>2025-10-28T09:28:38.000Z</time>
      </trkpt>
      <trkpt lat="43.5572" lon="6.60784">
        <ele>186.7</ele>
        <time>2025-10-28T09:28:39.000Z</time>
      </trkpt>
      <trkpt lat="43.55723" lon="6.60784">
        <ele>186.8</ele>
        <time>2025-10-28T09:28:40.000Z</time>
      </trkpt>
      <trkpt lat="43.55727" lon="6.60785">
        <ele>186.9</ele>
        <time>2025-10-28T09:28:41.000Z</time>
      </trkpt>
      <trkpt lat="43.5573" lon="6.60785">
        <ele>187.1</ele>
        <time>2025-10-28T09:28:42.000Z</time>
      </trkpt>
      <trkpt lat="43.55734" lon="6.60786">
        <ele>187.2</ele>
        <time>2025-10-28T09:28:43.000Z</time>
      </trkpt>
      <trkpt lat="43.55737" lon="6.60786">
        <ele>187.4</ele>
        <time>2025-10-28T09:28:44.000Z</time>
      </trkpt>
      <trkpt lat="43.55741" lon="6.60786">
        <ele>187.5</ele>
        <time>2025-10-28T09:28:45.000Z</time>
      </trkpt>
      <trkpt lat="43.55744" lon="6.60787">
        <ele>187.7</ele>
        <time>2025-10-28T09:28:46.000Z</time>
      </trkpt>
      <trkpt lat="43.55748" lon="6.60787">
        <ele>187.8</ele>
        <time>2025-10-28T09:28:47.000Z</time>
      </trkpt>
      <trkpt lat="43.55751" lon="6.60787">
        <ele>188</ele>
        <time>2025-10-28T09:28:48.000Z</time>
      </trkpt>
      <trkpt lat="43.55755" lon="6.60788">
        <ele>188.1</ele>
        <time>2025-10-28T09:28:49.000Z</time>
      </trkpt>
      <trkpt lat="43.55758" lon="6.60788">
        <ele>188.3</ele>
        <time>2025-10-28T09:28:50.000Z</time>
      </trkpt>
      <trkpt lat="43.55762" lon="6.60789">
        <ele>188.5</ele>
        <time>2025-10-28T09:28:51.000Z</time>
      </trkpt>
      <trkpt lat="43.55766" lon="6.6079">
        <ele>188.6</ele>
        <time>2025-10-28T09:28:52.000Z</time>
      </trkpt>
      <trkpt lat="43.55769" lon="6.6079">
        <ele>188.8</ele>
        <time>2025-10-28T09:28:53.000Z</time>
      </trkpt>
      <trkpt lat="43.55773" lon="6.60791">
        <ele>189</ele>
        <time>2025-10-28T09:28:54.000Z</time>
      </trkpt>
      <trkpt lat="43.55776" lon="6.60791">
        <ele>189.1</ele>
        <time>2025-10-28T09:28:55.000Z</time>
      </trkpt>
      <trkpt lat="43.55779" lon="6.60792">
        <ele>189.3</ele>
        <time>2025-10-28T09:28:56.000Z</time>
      </trkpt>
      <trkpt lat="43.55783" lon="6.60792">
        <ele>189.5</ele>
        <time>2025-10-28T09:28:57.000Z</time>
      </trkpt>
      <trkpt lat="43.55786" lon="6.60793">
        <ele>189.6</ele>
        <time>2025-10-28T09:28:58.000Z</time>
      </trkpt>
      <trkpt lat="43.5579" lon="6.60794">
        <ele>189.8</ele>
        <time>2025-10-28T09:28:59.000Z</time>
      </trkpt>
      <trkpt lat="43.55793" lon="6.60794">
        <ele>189.9</ele>
        <time>2025-10-28T09:29:00.000Z</time>
      </trkpt>
      <trkpt lat="43.55796" lon="6.60794">
        <ele>190.1</ele>
        <time>2025-10-28T09:29:01.000Z</time>
      </trkpt>
      <trkpt lat="43.558" lon="6.60795">
        <ele>190.3</ele>
        <time>2025-10-28T09:29:02.000Z</time>
      </trkpt>
      <trkpt lat="43.55803" lon="6.60795">
        <ele>190.5</ele>
        <time>2025-10-28T09:29:03.000Z</time>
      </trkpt>
      <trkpt lat="43.55807" lon="6.60796">
        <ele>190.6</ele>
        <time>2025-10-28T09:29:04.000Z</time>
      </trkpt>
      <trkpt lat="43.5581" lon="6.60796">
        <ele>190.8</ele>
        <time>2025-10-28T09:29:05.000Z</time>
      </trkpt>
      <trkpt lat="43.55813" lon="6.60797">
        <ele>191</ele>
        <time>2025-10-28T09:29:06.000Z</time>
      </trkpt>
      <trkpt lat="43.55816" lon="6.60797">
        <ele>191.2</ele>
        <time>2025-10-28T09:29:07.000Z</time>
      </trkpt>
      <trkpt lat="43.55819" lon="6.60798">
        <ele>191.4</ele>
        <time>2025-10-28T09:29:08.000Z</time>
      </trkpt>
      <trkpt lat="43.55823" lon="6.60798">
        <ele>191.6</ele>
        <time>2025-10-28T09:29:09.000Z</time>
      </trkpt>
      <trkpt lat="43.55826" lon="6.60799">
        <ele>191.8</ele>
        <time>2025-10-28T09:29:10.000Z</time>
      </trkpt>
      <trkpt lat="43.5583" lon="6.60799">
        <ele>192</ele>
        <time>2025-10-28T09:29:11.000Z</time>
      </trkpt>
      <trkpt lat="43.55833" lon="6.608">
        <ele>192.2</ele>
        <time>2025-10-28T09:29:12.000Z</time>
      </trkpt>
      <trkpt lat="43.55837" lon="6.60801">
        <ele>192.4</ele>
        <time>2025-10-28T09:29:13.000Z</time>
      </trkpt>
      <trkpt lat="43.5584" lon="6.60801">
        <ele>192.7</ele>
        <time>2025-10-28T09:29:14.000Z</time>
      </trkpt>
      <trkpt lat="43.55843" lon="6.60802">
        <ele>192.9</ele>
        <time>2025-10-28T09:29:15.000Z</time>
      </trkpt>
      <trkpt lat="43.55847" lon="6.60802">
        <ele>193.1</ele>
        <time>2025-10-28T09:29:16.000Z</time>
      </trkpt>
      <trkpt lat="43.5585" lon="6.60803">
        <ele>193.4</ele>
        <time>2025-10-28T09:29:17.000Z</time>
      </trkpt>
      <trkpt lat="43.55854" lon="6.60803">
        <ele>193.6</ele>
        <time>2025-10-28T09:29:18.000Z</time>
      </trkpt>
      <trkpt lat="43.55857" lon="6.60804">
        <ele>193.9</ele>
        <time>2025-10-28T09:29:19.000Z</time>
      </trkpt>
      <trkpt lat="43.55861" lon="6.60805">
        <ele>194.2</ele>
        <time>2025-10-28T09:29:20.000Z</time>
      </trkpt>
      <trkpt lat="43.55864" lon="6.60805">
        <ele>194.5</ele>
        <time>2025-10-28T09:29:21.000Z</time>
      </trkpt>
      <trkpt lat="43.55867" lon="6.60806">
        <ele>194.7</ele>
        <time>2025-10-28T09:29:22.000Z</time>
      </trkpt>
      <trkpt lat="43.55871" lon="6.60806">
        <ele>195</ele>
        <time>2025-10-28T09:29:23.000Z</time>
      </trkpt>
      <trkpt lat="43.55874" lon="6.60807">
        <ele>195.3</ele>
        <time>2025-10-28T09:29:24.000Z</time>
      </trkpt>
      <trkpt lat="43.55877" lon="6.60807">
        <ele>195.5</ele>
        <time>2025-10-28T09:29:25.000Z</time>
      </trkpt>
      <trkpt lat="43.5588" lon="6.60808">
        <ele>195.8</ele>
        <time>2025-10-28T09:29:26.000Z</time>
      </trkpt>
      <trkpt lat="43.55884" lon="6.60808">
        <ele>196</ele>
        <time>2025-10-28T09:29:27.000Z</time>
      </trkpt>
      <trkpt lat="43.55887" lon="6.60809">
        <ele>196.3</ele>
        <time>2025-10-28T09:29:28.000Z</time>
      </trkpt>
      <trkpt lat="43.5589" lon="6.60809">
        <ele>196.5</ele>
        <time>2025-10-28T09:29:29.000Z</time>
      </trkpt>
      <trkpt lat="43.55893" lon="6.6081">
        <ele>196.6</ele>
        <time>2025-10-28T09:29:30.000Z</time>
      </trkpt>
      <trkpt lat="43.55896" lon="6.60811">
        <ele>196.8</ele>
        <time>2025-10-28T09:29:31.000Z</time>
      </trkpt>
      <trkpt lat="43.55899" lon="6.60812">
        <ele>197</ele>
        <time>2025-10-28T09:29:32.000Z</time>
      </trkpt>
      <trkpt lat="43.55902" lon="6.60813">
        <ele>197.1</ele>
        <time>2025-10-28T09:29:33.000Z</time>
      </trkpt>
      <trkpt lat="43.55906" lon="6.60813">
        <ele>197.3</ele>
        <time>2025-10-28T09:29:34.000Z</time>
      </trkpt>
      <trkpt lat="43.55909" lon="6.60814">
        <ele>197.5</ele>
        <time>2025-10-28T09:29:35.000Z</time>
      </trkpt>
      <trkpt lat="43.55913" lon="6.60815">
        <ele>197.6</ele>
        <time>2025-10-28T09:29:36.000Z</time>
      </trkpt>
      <trkpt lat="43.55916" lon="6.60816">
        <ele>197.8</ele>
        <time>2025-10-28T09:29:37.000Z</time>
      </trkpt>
      <trkpt lat="43.5592" lon="6.60816">
        <ele>198</ele>
        <time>2025-10-28T09:29:38.000Z</time>
      </trkpt>
      <trkpt lat="43.55924" lon="6.60817">
        <ele>198.1</ele>
        <time>2025-10-28T09:29:39.000Z</time>
      </trkpt>
      <trkpt lat="43.55927" lon="6.60817">
        <ele>198.3</ele>
        <time>2025-10-28T09:29:40.000Z</time>
      </trkpt>
      <trkpt lat="43.55931" lon="6.60817">
        <ele>198.5</ele>
        <time>2025-10-28T09:29:41.000Z</time>
      </trkpt>
      <trkpt lat="43.55934" lon="6.60817">
        <ele>198.6</ele>
        <time>2025-10-28T09:29:42.000Z</time>
      </trkpt>
      <trkpt lat="43.55938" lon="6.60817">
        <ele>198.8</ele>
        <time>2025-10-28T09:29:43.000Z</time>
      </trkpt>
      <trkpt lat="43.55941" lon="6.60817">
        <ele>199</ele>
        <time>2025-10-28T09:29:44.000Z</time>
      </trkpt>
      <trkpt lat="43.55945" lon="6.60817">
        <ele>199.2</ele>
        <time>2025-10-28T09:29:45.000Z</time>
      </trkpt>
      <trkpt lat="43.55948" lon="6.60817">
        <ele>199.4</ele>
        <time>2025-10-28T09:29:46.000Z</time>
      </trkpt>
      <trkpt lat="43.55951" lon="6.60816">
        <ele>199.6</ele>
        <time>2025-10-28T09:29:47.000Z</time>
      </trkpt>
      <trkpt lat="43.55955" lon="6.60816">
        <ele>199.7</ele>
        <time>2025-10-28T09:29:48.000Z</time>
      </trkpt>
      <trkpt lat="43.55958" lon="6.60815">
        <ele>199.9</ele>
        <time>2025-10-28T09:29:49.000Z</time>
      </trkpt>
      <trkpt lat="43.55961" lon="6.60814">
        <ele>200.1</ele>
        <time>2025-10-28T09:29:50.000Z</time>
      </trkpt>
      <trkpt lat="43.55965" lon="6.60813">
        <ele>200.3</ele>
        <time>2025-10-28T09:29:51.000Z</time>
      </trkpt>
      <trkpt lat="43.55968" lon="6.60811">
        <ele>200.5</ele>
        <time>2025-10-28T09:29:52.000Z</time>
      </trkpt>
      <trkpt lat="43.55971" lon="6.60809">
        <ele>200.7</ele>
        <time>2025-10-28T09:29:53.000Z</time>
      </trkpt>
      <trkpt lat="43.55974" lon="6.60807">
        <ele>200.8</ele>
        <time>2025-10-28T09:29:54.000Z</time>
      </trkpt>
      <trkpt lat="43.55978" lon="6.60805">
        <ele>201</ele>
        <time>2025-10-28T09:29:55.000Z</time>
      </trkpt>
      <trkpt lat="43.55981" lon="6.60803">
        <ele>201.2</ele>
        <time>2025-10-28T09:29:56.000Z</time>
      </trkpt>
      <trkpt lat="43.55984" lon="6.608">
        <ele>201.4</ele>
        <time>2025-10-28T09:29:57.000Z</time>
      </trkpt>
      <trkpt lat="43.55987" lon="6.60798">
        <ele>201.5</ele>
        <time>2025-10-28T09:29:58.000Z</time>
      </trkpt>
      <trkpt lat="43.55989" lon="6.60795">
        <ele>201.7</ele>
        <time>2025-10-28T09:29:59.000Z</time>
      </trkpt>
      <trkpt lat="43.55992" lon="6.60792">
        <ele>201.8</ele>
        <time>2025-10-28T09:30:00.000Z</time>
      </trkpt>
      <trkpt lat="43.55995" lon="6.60789">
        <ele>201.9</ele>
        <time>2025-10-28T09:30:01.000Z</time>
      </trkpt>
      <trkpt lat="43.55999" lon="6.60787">
        <ele>202.1</ele>
        <time>2025-10-28T09:30:02.000Z</time>
      </trkpt>
      <trkpt lat="43.56002" lon="6.60784">
        <ele>202.2</ele>
        <time>2025-10-28T09:30:03.000Z</time>
      </trkpt>
      <trkpt lat="43.56005" lon="6.60782">
        <ele>202.2</ele>
        <time>2025-10-28T09:30:04.000Z</time>
      </trkpt>
      <trkpt lat="43.56009" lon="6.60781">
        <ele>202.3</ele>
        <time>2025-10-28T09:30:05.000Z</time>
      </trkpt>
      <trkpt lat="43.56013" lon="6.60779">
        <ele>202.4</ele>
        <time>2025-10-28T09:30:06.000Z</time>
      </trkpt>
      <trkpt lat="43.56017" lon="6.60778">
        <ele>202.4</ele>
        <time>2025-10-28T09:30:07.000Z</time>
      </trkpt>
      <trkpt lat="43.56021" lon="6.60777">
        <ele>202.5</ele>
        <time>2025-10-28T09:30:08.000Z</time>
      </trkpt>
      <trkpt lat="43.56025" lon="6.60775">
        <ele>202.6</ele>
        <time>2025-10-28T09:30:09.000Z</time>
      </trkpt>
      <trkpt lat="43.56029" lon="6.60774">
        <ele>202.7</ele>
        <time>2025-10-28T09:30:10.000Z</time>
      </trkpt>
      <trkpt lat="43.56033" lon="6.60772">
        <ele>202.8</ele>
        <time>2025-10-28T09:30:11.000Z</time>
      </trkpt>
      <trkpt lat="43.56036" lon="6.6077">
        <ele>203</ele>
        <time>2025-10-28T09:30:12.000Z</time>
      </trkpt>
      <trkpt lat="43.5604" lon="6.60768">
        <ele>203.2</ele>
        <time>2025-10-28T09:30:13.000Z</time>
      </trkpt>
      <trkpt lat="43.56043" lon="6.60765">
        <ele>203.3</ele>
        <time>2025-10-28T09:30:14.000Z</time>
      </trkpt>
      <trkpt lat="43.56046" lon="6.60762">
        <ele>203.5</ele>
        <time>2025-10-28T09:30:15.000Z</time>
      </trkpt>
      <trkpt lat="43.56049" lon="6.60759">
        <ele>203.7</ele>
        <time>2025-10-28T09:30:16.000Z</time>
      </trkpt>
      <trkpt lat="43.56052" lon="6.60755">
        <ele>203.9</ele>
        <time>2025-10-28T09:30:17.000Z</time>
      </trkpt>
      <trkpt lat="43.56054" lon="6.60752">
        <ele>204.1</ele>
        <time>2025-10-28T09:30:18.000Z</time>
      </trkpt>
      <trkpt lat="43.56057" lon="6.60749">
        <ele>204.3</ele>
        <time>2025-10-28T09:30:19.000Z</time>
      </trkpt>
      <trkpt lat="43.56059" lon="6.60745">
        <ele>204.4</ele>
        <time>2025-10-28T09:30:20.000Z</time>
      </trkpt>
      <trkpt lat="43.56062" lon="6.60742">
        <ele>204.6</ele>
        <time>2025-10-28T09:30:21.000Z</time>
      </trkpt>
      <trkpt lat="43.56064" lon="6.60739">
        <ele>204.8</ele>
        <time>2025-10-28T09:30:22.000Z</time>
      </trkpt>
      <trkpt lat="43.56067" lon="6.60736">
        <ele>205</ele>
        <time>2025-10-28T09:30:23.000Z</time>
      </trkpt>
      <trkpt lat="43.56069" lon="6.60733">
        <ele>205.2</ele>
        <time>2025-10-28T09:30:24.000Z</time>
      </trkpt>
      <trkpt lat="43.56072" lon="6.60731">
        <ele>205.3</ele>
        <time>2025-10-28T09:30:25.000Z</time>
      </trkpt>
      <trkpt lat="43.56075" lon="6.6073">
        <ele>205.4</ele>
        <time>2025-10-28T09:30:26.000Z</time>
      </trkpt>
      <trkpt lat="43.56078" lon="6.60729">
        <ele>205.5</ele>
        <time>2025-10-28T09:30:27.000Z</time>
      </trkpt>
      <trkpt lat="43.56081" lon="6.6073">
        <ele>205.6</ele>
        <time>2025-10-28T09:30:28.000Z</time>
      </trkpt>
      <trkpt lat="43.56084" lon="6.60731">
        <ele>205.7</ele>
        <time>2025-10-28T09:30:29.000Z</time>
      </trkpt>
      <trkpt lat="43.56087" lon="6.60733">
        <ele>205.8</ele>
        <time>2025-10-28T09:30:30.000Z</time>
      </trkpt>
      <trkpt lat="43.5609" lon="6.60736">
        <ele>205.9</ele>
        <time>2025-10-28T09:30:31.000Z</time>
      </trkpt>
      <trkpt lat="43.56093" lon="6.60739">
        <ele>206</ele>
        <time>2025-10-28T09:30:32.000Z</time>
      </trkpt>
      <trkpt lat="43.56096" lon="6.60741">
        <ele>206.1</ele>
        <time>2025-10-28T09:30:33.000Z</time>
      </trkpt>
      <trkpt lat="43.56098" lon="6.60744">
        <ele>206.2</ele>
        <time>2025-10-28T09:30:34.000Z</time>
      </trkpt>
      <trkpt lat="43.56101" lon="6.60745">
        <ele>206.3</ele>
        <time>2025-10-28T09:30:35.000Z</time>
      </trkpt>
      <trkpt lat="43.56103" lon="6.60746">
        <ele>206.3</ele>
        <time>2025-10-28T09:30:36.000Z</time>
      </trkpt>
      <trkpt lat="43.56105" lon="6.60745">
        <ele>206.4</ele>
        <time>2025-10-28T09:30:37.000Z</time>
      </trkpt>
      <trkpt lat="43.56105" lon="6.60743">
        <ele>206.3</ele>
        <time>2025-10-28T09:30:38.000Z</time>
      </trkpt>
      <trkpt lat="43.56104" lon="6.6074">
        <ele>206.3</ele>
        <time>2025-10-28T09:30:39.000Z</time>
      </trkpt>
      <trkpt lat="43.56103" lon="6.60737">
        <ele>206.2</ele>
        <time>2025-10-28T09:30:40.000Z</time>
      </trkpt>
      <trkpt lat="43.561" lon="6.60734">
        <ele>206.1</ele>
        <time>2025-10-28T09:30:41.000Z</time>
      </trkpt>
      <trkpt lat="43.56098" lon="6.6073">
        <ele>206</ele>
        <time>2025-10-28T09:30:42.000Z</time>
      </trkpt>
      <trkpt lat="43.56096" lon="6.60725">
        <ele>205.9</ele>
        <time>2025-10-28T09:30:43.000Z</time>
      </trkpt>
      <trkpt lat="43.56095" lon="6.6072">
        <ele>205.7</ele>
        <time>2025-10-28T09:30:44.000Z</time>
      </trkpt>
      <trkpt lat="43.56094" lon="6.60714">
        <ele>205</ele>
        <time>2025-10-28T09:30:45.000Z</time>
      </trkpt>
      <trkpt lat="43.56092" lon="6.60708">
        <ele>203.9</ele>
        <time>2025-10-28T09:30:46.000Z</time>
      </trkpt>
      <trkpt lat="43.5609" lon="6.60702">
        <ele>202.8</ele>
        <time>2025-10-28T09:30:47.000Z</time>
      </trkpt>
      <trkpt lat="43.56089" lon="6.60697">
        <ele>201.8</ele>
        <time>2025-10-28T09:30:48.000Z</time>
      </trkpt>
      <trkpt lat="43.56089" lon="6.60692">
        <ele>200.8</ele>
        <time>2025-10-28T09:30:49.000Z</time>
      </trkpt>
      <trkpt lat="43.5609" lon="6.60687">
        <ele>200</ele>
        <time>2025-10-28T09:30:50.000Z</time>
      </trkpt>
      <trkpt lat="43.56092" lon="6.60682">
        <ele>199.6</ele>
        <time>2025-10-28T09:30:51.000Z</time>
      </trkpt>
      <trkpt lat="43.56095" lon="6.60678">
        <ele>199.2</ele>
        <time>2025-10-28T09:30:52.000Z</time>
      </trkpt>
      <trkpt lat="43.56098" lon="6.60674">
        <ele>198.8</ele>
        <time>2025-10-28T09:30:53.000Z</time>
      </trkpt>
      <trkpt lat="43.56102" lon="6.6067">
        <ele>198.4</ele>
        <time>2025-10-28T09:30:54.000Z</time>
      </trkpt>
      <trkpt lat="43.56105" lon="6.60666">
        <ele>198</ele>
        <time>2025-10-28T09:30:55.000Z</time>
      </trkpt>
      <trkpt lat="43.56108" lon="6.60661">
        <ele>197.6</ele>
        <time>2025-10-28T09:30:56.000Z</time>
      </trkpt>
      <trkpt lat="43.56111" lon="6.60655">
        <ele>197.2</ele>
        <time>2025-10-28T09:30:57.000Z</time>
      </trkpt>
      <trkpt lat="43.56114" lon="6.60649">
        <ele>196.7</ele>
        <time>2025-10-28T09:30:58.000Z</time>
      </trkpt>
      <trkpt lat="43.56117" lon="6.60642">
        <ele>196.2</ele>
        <time>2025-10-28T09:30:59.000Z</time>
      </trkpt>
      <trkpt lat="43.56119" lon="6.60634">
        <ele>195.6</ele>
        <time>2025-10-28T09:31:00.000Z</time>
      </trkpt>
      <trkpt lat="43.56122" lon="6.60626">
        <ele>194.9</ele>
        <time>2025-10-28T09:31:01.000Z</time>
      </trkpt>
      <trkpt lat="43.56125" lon="6.60618">
        <ele>194.3</ele>
        <time>2025-10-28T09:31:02.000Z</time>
      </trkpt>
      <trkpt lat="43.56128" lon="6.60609">
        <ele>193.8</ele>
        <time>2025-10-28T09:31:03.000Z</time>
      </trkpt>
      <trkpt lat="43.5613" lon="6.60599">
        <ele>193.6</ele>
        <time>2025-10-28T09:31:04.000Z</time>
      </trkpt>
      <trkpt lat="43.56132" lon="6.6059">
        <ele>193.6</ele>
        <time>2025-10-28T09:31:05.000Z</time>
      </trkpt>
      <trkpt lat="43.56132" lon="6.60581">
        <ele>193.7</ele>
        <time>2025-10-28T09:31:06.000Z</time>
      </trkpt>
      <trkpt lat="43.56133" lon="6.60572">
        <ele>193.7</ele>
        <time>2025-10-28T09:31:07.000Z</time>
      </trkpt>
      <trkpt lat="43.56133" lon="6.60563">
        <ele>193.7</ele>
        <time>2025-10-28T09:31:08.000Z</time>
      </trkpt>
      <trkpt lat="43.56133" lon="6.60555">
        <ele>193.6</ele>
        <time>2025-10-28T09:31:09.000Z</time>
      </trkpt>
      <trkpt lat="43.56134" lon="6.60547">
        <ele>193.5</ele>
        <time>2025-10-28T09:31:10.000Z</time>
      </trkpt>
      <trkpt lat="43.56134" lon="6.60539">
        <ele>193.4</ele>
        <time>2025-10-28T09:31:11.000Z</time>
      </trkpt>
      <trkpt lat="43.56135" lon="6.60532">
        <ele>193.2</ele>
        <time>2025-10-28T09:31:12.000Z</time>
      </trkpt>
      <trkpt lat="43.56135" lon="6.60524">
        <ele>193</ele>
        <time>2025-10-28T09:31:13.000Z</time>
      </trkpt>
      <trkpt lat="43.56134" lon="6.60517">
        <ele>192.7</ele>
        <time>2025-10-28T09:31:14.000Z</time>
      </trkpt>
      <trkpt lat="43.56131" lon="6.60512">
        <ele>192.3</ele>
        <time>2025-10-28T09:31:15.000Z</time>
      </trkpt>
      <trkpt lat="43.56126" lon="6.60508">
        <ele>191.9</ele>
        <time>2025-10-28T09:31:16.000Z</time>
      </trkpt>
      <trkpt lat="43.56121" lon="6.60505">
        <ele>191.4</ele>
        <time>2025-10-28T09:31:17.000Z</time>
      </trkpt>
      <trkpt lat="43.56115" lon="6.60502">
        <ele>190.7</ele>
        <time>2025-10-28T09:31:18.000Z</time>
      </trkpt>
      <trkpt lat="43.56109" lon="6.60499">
        <ele>190</ele>
        <time>2025-10-28T09:31:19.000Z</time>
      </trkpt>
      <trkpt lat="43.56103" lon="6.60496">
        <ele>189.2</ele>
        <time>2025-10-28T09:31:20.000Z</time>
      </trkpt>
      <trkpt lat="43.56097" lon="6.60493">
        <ele>188.6</ele>
        <time>2025-10-28T09:31:21.000Z</time>
      </trkpt>
      <trkpt lat="43.5609" lon="6.60492">
        <ele>188.1</ele>
        <time>2025-10-28T09:31:22.000Z</time>
      </trkpt>
      <trkpt lat="43.56084" lon="6.60491">
        <ele>187.5</ele>
        <time>2025-10-28T09:31:23.000Z</time>
      </trkpt>
      <trkpt lat="43.56078" lon="6.60488">
        <ele>187.1</ele>
        <time>2025-10-28T09:31:24.000Z</time>
      </trkpt>
      <trkpt lat="43.56073" lon="6.60483">
        <ele>186.7</ele>
        <time>2025-10-28T09:31:25.000Z</time>
      </trkpt>
      <trkpt lat="43.56068" lon="6.60478">
        <ele>186.3</ele>
        <time>2025-10-28T09:31:26.000Z</time>
      </trkpt>
      <trkpt lat="43.56064" lon="6.60472">
        <ele>185.9</ele>
        <time>2025-10-28T09:31:27.000Z</time>
      </trkpt>
      <trkpt lat="43.5606" lon="6.60467">
        <ele>185.5</ele>
        <time>2025-10-28T09:31:28.000Z</time>
      </trkpt>
      <trkpt lat="43.56054" lon="6.60464">
        <ele>185.1</ele>
        <time>2025-10-28T09:31:29.000Z</time>
      </trkpt>
      <trkpt lat="43.56049" lon="6.60461">
        <ele>184.6</ele>
        <time>2025-10-28T09:31:30.000Z</time>
      </trkpt>
      <trkpt lat="43.56042" lon="6.60459">
        <ele>184.1</ele>
        <time>2025-10-28T09:31:31.000Z</time>
      </trkpt>
      <trkpt lat="43.56036" lon="6.60458">
        <ele>183.6</ele>
        <time>2025-10-28T09:31:32.000Z</time>
      </trkpt>
      <trkpt lat="43.5603" lon="6.60457">
        <ele>183.3</ele>
        <time>2025-10-28T09:31:33.000Z</time>
      </trkpt>
      <trkpt lat="43.56024" lon="6.60457">
        <ele>183</ele>
        <time>2025-10-28T09:31:34.000Z</time>
      </trkpt>
      <trkpt lat="43.56019" lon="6.60456">
        <ele>182.8</ele>
        <time>2025-10-28T09:31:35.000Z</time>
      </trkpt>
      <trkpt lat="43.56014" lon="6.60455">
        <ele>182.7</ele>
        <time>2025-10-28T09:31:36.000Z</time>
      </trkpt>
      <trkpt lat="43.56011" lon="6.60452">
        <ele>182.6</ele>
        <time>2025-10-28T09:31:37.000Z</time>
      </trkpt>
      <trkpt lat="43.56008" lon="6.60449">
        <ele>182.5</ele>
        <time>2025-10-28T09:31:38.000Z</time>
      </trkpt>
      <trkpt lat="43.56006" lon="6.60445">
        <ele>182.4</ele>
        <time>2025-10-28T09:31:39.000Z</time>
      </trkpt>
      <trkpt lat="43.56004" lon="6.60441">
        <ele>182.3</ele>
        <time>2025-10-28T09:31:40.000Z</time>
      </trkpt>
      <trkpt lat="43.56003" lon="6.60437">
        <ele>182.2</ele>
        <time>2025-10-28T09:31:41.000Z</time>
      </trkpt>
      <trkpt lat="43.56003" lon="6.60433">
        <ele>182</ele>
        <time>2025-10-28T09:31:42.000Z</time>
      </trkpt>
      <trkpt lat="43.56002" lon="6.60428">
        <ele>181.8</ele>
        <time>2025-10-28T09:31:43.000Z</time>
      </trkpt>
      <trkpt lat="43.56002" lon="6.60423">
        <ele>181.6</ele>
        <time>2025-10-28T09:31:44.000Z</time>
      </trkpt>
      <trkpt lat="43.56002" lon="6.60418">
        <ele>181.2</ele>
        <time>2025-10-28T09:31:45.000Z</time>
      </trkpt>
      <trkpt lat="43.56002" lon="6.60413">
        <ele>180.9</ele>
        <time>2025-10-28T09:31:46.000Z</time>
      </trkpt>
      <trkpt lat="43.56001" lon="6.60409">
        <ele>180.6</ele>
        <time>2025-10-28T09:31:47.000Z</time>
      </trkpt>
      <trkpt lat="43.56" lon="6.60404">
        <ele>180.2</ele>
        <time>2025-10-28T09:31:48.000Z</time>
      </trkpt>
      <trkpt lat="43.55999" lon="6.604">
        <ele>179.7</ele>
        <time>2025-10-28T09:31:49.000Z</time>
      </trkpt>
      <trkpt lat="43.55997" lon="6.60396">
        <ele>179.2</ele>
        <time>2025-10-28T09:31:50.000Z</time>
      </trkpt>
      <trkpt lat="43.55994" lon="6.60392">
        <ele>178.4</ele>
        <time>2025-10-28T09:31:51.000Z</time>
      </trkpt>
      <trkpt lat="43.55992" lon="6.60387">
        <ele>177.8</ele>
        <time>2025-10-28T09:31:52.000Z</time>
      </trkpt>
      <trkpt lat="43.55989" lon="6.6038">
        <ele>176.7</ele>
        <time>2025-10-28T09:31:53.000Z</time>
      </trkpt>
      <trkpt lat="43.55987" lon="6.60374">
        <ele>175.8</ele>
        <time>2025-10-28T09:31:54.000Z</time>
      </trkpt>
      <trkpt lat="43.55984" lon="6.60368">
        <ele>175</ele>
        <time>2025-10-28T09:31:55.000Z</time>
      </trkpt>
      <trkpt lat="43.55982" lon="6.60361">
        <ele>174.3</ele>
        <time>2025-10-28T09:31:56.000Z</time>
      </trkpt>
      <trkpt lat="43.5598" lon="6.60355">
        <ele>173.6</ele>
        <time>2025-10-28T09:31:57.000Z</time>
      </trkpt>
      <trkpt lat="43.5598" lon="6.60348">
        <ele>173</ele>
        <time>2025-10-28T09:31:58.000Z</time>
      </trkpt>
      <trkpt lat="43.5598" lon="6.60341">
        <ele>172.9</ele>
        <time>2025-10-28T09:31:59.000Z</time>
      </trkpt>
      <trkpt lat="43.5598" lon="6.60334">
        <ele>172.7</ele>
        <time>2025-10-28T09:32:00.000Z</time>
      </trkpt>
      <trkpt lat="43.55981" lon="6.60327">
        <ele>172.6</ele>
        <time>2025-10-28T09:32:01.000Z</time>
      </trkpt>
      <trkpt lat="43.55983" lon="6.6032">
        <ele>172.4</ele>
        <time>2025-10-28T09:32:02.000Z</time>
      </trkpt>
      <trkpt lat="43.55986" lon="6.60313">
        <ele>172.2</ele>
        <time>2025-10-28T09:32:03.000Z</time>
      </trkpt>
      <trkpt lat="43.55989" lon="6.60307">
        <ele>172</ele>
        <time>2025-10-28T09:32:04.000Z</time>
      </trkpt>
      <trkpt lat="43.55992" lon="6.60303">
        <ele>171.9</ele>
        <time>2025-10-28T09:32:05.000Z</time>
      </trkpt>
      <trkpt lat="43.55996" lon="6.60298">
        <ele>171.7</ele>
        <time>2025-10-28T09:32:06.000Z</time>
      </trkpt>
      <trkpt lat="43.56001" lon="6.60293">
        <ele>171.4</ele>
        <time>2025-10-28T09:32:07.000Z</time>
      </trkpt>
      <trkpt lat="43.56006" lon="6.6029">
        <ele>171.1</ele>
        <time>2025-10-28T09:32:08.000Z</time>
      </trkpt>
      <trkpt lat="43.56011" lon="6.60289">
        <ele>170.8</ele>
        <time>2025-10-28T09:32:09.000Z</time>
      </trkpt>
      <trkpt lat="43.56017" lon="6.60288">
        <ele>170.6</ele>
        <time>2025-10-28T09:32:10.000Z</time>
      </trkpt>
      <trkpt lat="43.56022" lon="6.60286">
        <ele>170.4</ele>
        <time>2025-10-28T09:32:11.000Z</time>
      </trkpt>
      <trkpt lat="43.56028" lon="6.60284">
        <ele>170.3</ele>
        <time>2025-10-28T09:32:12.000Z</time>
      </trkpt>
      <trkpt lat="43.56033" lon="6.60282">
        <ele>170.3</ele>
        <time>2025-10-28T09:32:13.000Z</time>
      </trkpt>
      <trkpt lat="43.56038" lon="6.6028">
        <ele>170.3</ele>
        <time>2025-10-28T09:32:14.000Z</time>
      </trkpt>
      <trkpt lat="43.56044" lon="6.60278">
        <ele>170.3</ele>
        <time>2025-10-28T09:32:15.000Z</time>
      </trkpt>
      <trkpt lat="43.56049" lon="6.60276">
        <ele>170.4</ele>
        <time>2025-10-28T09:32:16.000Z</time>
      </trkpt>
      <trkpt lat="43.56054" lon="6.60275">
        <ele>170.5</ele>
        <time>2025-10-28T09:32:17.000Z</time>
      </trkpt>
      <trkpt lat="43.56059" lon="6.60274">
        <ele>170.7</ele>
        <time>2025-10-28T09:32:18.000Z</time>
      </trkpt>
      <trkpt lat="43.56063" lon="6.60271">
        <ele>170.8</ele>
        <time>2025-10-28T09:32:19.000Z</time>
      </trkpt>
      <trkpt lat="43.56066" lon="6.60269">
        <ele>170.6</ele>
        <time>2025-10-28T09:32:20.000Z</time>
      </trkpt>
      <trkpt lat="43.56068" lon="6.60265">
        <ele>170.5</ele>
        <time>2025-10-28T09:32:21.000Z</time>
      </trkpt>
      <trkpt lat="43.56068" lon="6.60262">
        <ele>170.4</ele>
        <time>2025-10-28T09:32:22.000Z</time>
      </trkpt>
      <trkpt lat="43.56068" lon="6.60258">
        <ele>170.4</ele>
        <time>2025-10-28T09:32:23.000Z</time>
      </trkpt>
      <trkpt lat="43.56068" lon="6.60253">
        <ele>170.4</ele>
        <time>2025-10-28T09:32:24.000Z</time>
      </trkpt>
      <trkpt lat="43.56067" lon="6.60248">
        <ele>170.5</ele>
        <time>2025-10-28T09:32:25.000Z</time>
      </trkpt>
      <trkpt lat="43.56066" lon="6.60243">
        <ele>170.7</ele>
        <time>2025-10-28T09:32:26.000Z</time>
      </trkpt>
      <trkpt lat="43.56065" lon="6.60239">
        <ele>170.9</ele>
        <time>2025-10-28T09:32:27.000Z</time>
      </trkpt>
      <trkpt lat="43.56064" lon="6.60235">
        <ele>171.2</ele>
        <time>2025-10-28T09:32:28.000Z</time>
      </trkpt>
      <trkpt lat="43.56063" lon="6.60232">
        <ele>171.4</ele>
        <time>2025-10-28T09:32:29.000Z</time>
      </trkpt>
      <trkpt lat="43.56063" lon="6.60227">
        <ele>171.7</ele>
        <time>2025-10-28T09:32:30.000Z</time>
      </trkpt>
      <trkpt lat="43.56064" lon="6.60223">
        <ele>171.9</ele>
        <time>2025-10-28T09:32:31.000Z</time>
      </trkpt>
      <trkpt lat="43.56065" lon="6.60219">
        <ele>172.2</ele>
        <time>2025-10-28T09:32:32.000Z</time>
      </trkpt>
      <trkpt lat="43.56066" lon="6.60215">
        <ele>172.4</ele>
        <time>2025-10-28T09:32:33.000Z</time>
      </trkpt>
      <trkpt lat="43.56067" lon="6.6021">
        <ele>172.7</ele>
        <time>2025-10-28T09:32:34.000Z</time>
      </trkpt>
      <trkpt lat="43.56068" lon="6.60206">
        <ele>172.9</ele>
        <time>2025-10-28T09:32:35.000Z</time>
      </trkpt>
      <trkpt lat="43.56068" lon="6.60201">
        <ele>173.2</ele>
        <time>2025-10-28T09:32:36.000Z</time>
      </trkpt>
      <trkpt lat="43.56069" lon="6.60197">
        <ele>173.4</ele>
        <time>2025-10-28T09:32:37.000Z</time>
      </trkpt>
      <trkpt lat="43.5607" lon="6.60192">
        <ele>173.5</ele>
        <time>2025-10-28T09:32:38.000Z</time>
      </trkpt>
      <trkpt lat="43.56071" lon="6.60188">
        <ele>173.7</ele>
        <time>2025-10-28T09:32:39.000Z</time>
      </trkpt>
      <trkpt lat="43.56071" lon="6.60184">
        <ele>173.9</ele>
        <time>2025-10-28T09:32:40.000Z</time>
      </trkpt>
      <trkpt lat="43.56071" lon="6.60179">
        <ele>174.1</ele>
        <time>2025-10-28T09:32:41.000Z</time>
      </trkpt>
      <trkpt lat="43.56071" lon="6.60174">
        <ele>174.3</ele>
        <time>2025-10-28T09:32:42.000Z</time>
      </trkpt>
      <trkpt lat="43.56071" lon="6.6017">
        <ele>174.5</ele>
        <time>2025-10-28T09:32:43.000Z</time>
      </trkpt>
      <trkpt lat="43.5607" lon="6.60165">
        <ele>174.6</ele>
        <time>2025-10-28T09:32:44.000Z</time>
      </trkpt>
      <trkpt lat="43.56071" lon="6.6016">
        <ele>174.7</ele>
        <time>2025-10-28T09:32:45.000Z</time>
      </trkpt>
      <trkpt lat="43.56071" lon="6.60156">
        <ele>174.8</ele>
        <time>2025-10-28T09:32:46.000Z</time>
      </trkpt>
      <trkpt lat="43.56071" lon="6.60151">
        <ele>175</ele>
        <time>2025-10-28T09:32:47.000Z</time>
      </trkpt>
      <trkpt lat="43.56071" lon="6.60147">
        <ele>175.1</ele>
        <time>2025-10-28T09:32:48.000Z</time>
      </trkpt>
      <trkpt lat="43.56071" lon="6.60143">
        <ele>175.1</ele>
        <time>2025-10-28T09:32:49.000Z</time>
      </trkpt>
      <trkpt lat="43.56071" lon="6.60138">
        <ele>175.2</ele>
        <time>2025-10-28T09:32:50.000Z</time>
      </trkpt>
      <trkpt lat="43.56072" lon="6.60134">
        <ele>175.3</ele>
        <time>2025-10-28T09:32:51.000Z</time>
      </trkpt>
      <trkpt lat="43.56073" lon="6.6013">
        <ele>175.4</ele>
        <time>2025-10-28T09:32:52.000Z</time>
      </trkpt>
      <trkpt lat="43.56074" lon="6.60126">
        <ele>175.4</ele>
        <time>2025-10-28T09:32:53.000Z</time>
      </trkpt>
      <trkpt lat="43.56075" lon="6.60122">
        <ele>175.4</ele>
        <time>2025-10-28T09:32:54.000Z</time>
      </trkpt>
      <trkpt lat="43.56076" lon="6.60118">
        <ele>175.4</ele>
        <time>2025-10-28T09:32:55.000Z</time>
      </trkpt>
      <trkpt lat="43.56076" lon="6.60113">
        <ele>175.4</ele>
        <time>2025-10-28T09:32:56.000Z</time>
      </trkpt>
      <trkpt lat="43.56077" lon="6.60109">
        <ele>175.3</ele>
        <time>2025-10-28T09:32:57.000Z</time>
      </trkpt>
      <trkpt lat="43.56079" lon="6.60104">
        <ele>175.3</ele>
        <time>2025-10-28T09:32:58.000Z</time>
      </trkpt>
      <trkpt lat="43.56081" lon="6.601">
        <ele>175.3</ele>
        <time>2025-10-28T09:32:59.000Z</time>
      </trkpt>
      <trkpt lat="43.56082" lon="6.60095">
        <ele>175.2</ele>
        <time>2025-10-28T09:33:00.000Z</time>
      </trkpt>
      <trkpt lat="43.56084" lon="6.6009">
        <ele>175.2</ele>
        <time>2025-10-28T09:33:01.000Z</time>
      </trkpt>
      <trkpt lat="43.56086" lon="6.60085">
        <ele>175.1</ele>
        <time>2025-10-28T09:33:02.000Z</time>
      </trkpt>
      <trkpt lat="43.56087" lon="6.60081">
        <ele>175</ele>
        <time>2025-10-28T09:33:03.000Z</time>
      </trkpt>
      <trkpt lat="43.56089" lon="6.60076">
        <ele>175</ele>
        <time>2025-10-28T09:33:04.000Z</time>
      </trkpt>
      <trkpt lat="43.5609" lon="6.60071">
        <ele>174.9</ele>
        <time>2025-10-28T09:33:05.000Z</time>
      </trkpt>
      <trkpt lat="43.56091" lon="6.60067">
        <ele>174.9</ele>
        <time>2025-10-28T09:33:06.000Z</time>
      </trkpt>
      <trkpt lat="43.56092" lon="6.60063">
        <ele>175</ele>
        <time>2025-10-28T09:33:07.000Z</time>
      </trkpt>
      <trkpt lat="43.56093" lon="6.60059">
        <ele>175.3</ele>
        <time>2025-10-28T09:33:08.000Z</time>
      </trkpt>
      <trkpt lat="43.56093" lon="6.60054">
        <ele>175.6</ele>
        <time>2025-10-28T09:33:09.000Z</time>
      </trkpt>
      <trkpt lat="43.56093" lon="6.6005">
        <ele>175.9</ele>
        <time>2025-10-28T09:33:10.000Z</time>
      </trkpt>
      <trkpt lat="43.56093" lon="6.60046">
        <ele>176.1</ele>
        <time>2025-10-28T09:33:11.000Z</time>
      </trkpt>
      <trkpt lat="43.56093" lon="6.60043">
        <ele>176.3</ele>
        <time>2025-10-28T09:33:12.000Z</time>
      </trkpt>
      <trkpt lat="43.56092" lon="6.60039">
        <ele>176.5</ele>
        <time>2025-10-28T09:33:13.000Z</time>
      </trkpt>
      <trkpt lat="43.56093" lon="6.60035">
        <ele>176.7</ele>
        <time>2025-10-28T09:33:14.000Z</time>
      </trkpt>
      <trkpt lat="43.56093" lon="6.60031">
        <ele>176.8</ele>
        <time>2025-10-28T09:33:15.000Z</time>
      </trkpt>
      <trkpt lat="43.56094" lon="6.60027">
        <ele>177</ele>
        <time>2025-10-28T09:33:16.000Z</time>
      </trkpt>
      <trkpt lat="43.56095" lon="6.60024">
        <ele>177.2</ele>
        <time>2025-10-28T09:33:17.000Z</time>
      </trkpt>
      <trkpt lat="43.56096" lon="6.60021">
        <ele>177.4</ele>
        <time>2025-10-28T09:33:18.000Z</time>
      </trkpt>
      <trkpt lat="43.56097" lon="6.60017">
        <ele>177.6</ele>
        <time>2025-10-28T09:33:19.000Z</time>
      </trkpt>
      <trkpt lat="43.56098" lon="6.60014">
        <ele>177.7</ele>
        <time>2025-10-28T09:33:20.000Z</time>
      </trkpt>
      <trkpt lat="43.56099" lon="6.60009">
        <ele>178</ele>
        <time>2025-10-28T09:33:21.000Z</time>
      </trkpt>
      <trkpt lat="43.56099" lon="6.60005">
        <ele>178.2</ele>
        <time>2025-10-28T09:33:22.000Z</time>
      </trkpt>
      <trkpt lat="43.56098" lon="6.60001">
        <ele>178.4</ele>
        <time>2025-10-28T09:33:23.000Z</time>
      </trkpt>
      <trkpt lat="43.56098" lon="6.59997">
        <ele>178.7</ele>
        <time>2025-10-28T09:33:24.000Z</time>
      </trkpt>
      <trkpt lat="43.56097" lon="6.59993">
        <ele>178.9</ele>
        <time>2025-10-28T09:33:25.000Z</time>
      </trkpt>
      <trkpt lat="43.56096" lon="6.59989">
        <ele>179.2</ele>
        <time>2025-10-28T09:33:26.000Z</time>
      </trkpt>
      <trkpt lat="43.56095" lon="6.59985">
        <ele>179.4</ele>
        <time>2025-10-28T09:33:27.000Z</time>
      </trkpt>
      <trkpt lat="43.56094" lon="6.59981">
        <ele>179.7</ele>
        <time>2025-10-28T09:33:28.000Z</time>
      </trkpt>
      <trkpt lat="43.56092" lon="6.59977">
        <ele>180</ele>
        <time>2025-10-28T09:33:29.000Z</time>
      </trkpt>
      <trkpt lat="43.56091" lon="6.59973">
        <ele>180.3</ele>
        <time>2025-10-28T09:33:30.000Z</time>
      </trkpt>
      <trkpt lat="43.5609" lon="6.59969">
        <ele>180.6</ele>
        <time>2025-10-28T09:33:31.000Z</time>
      </trkpt>
      <trkpt lat="43.56089" lon="6.59964">
        <ele>180.9</ele>
        <time>2025-10-28T09:33:32.000Z</time>
      </trkpt>
      <trkpt lat="43.56088" lon="6.59961">
        <ele>181.1</ele>
        <time>2025-10-28T09:33:33.000Z</time>
      </trkpt>
      <trkpt lat="43.56088" lon="6.59958">
        <ele>181.3</ele>
        <time>2025-10-28T09:33:34.000Z</time>
      </trkpt>
      <trkpt lat="43.56087" lon="6.59954">
        <ele>181.5</ele>
        <time>2025-10-28T09:33:35.000Z</time>
      </trkpt>
      <trkpt lat="43.56087" lon="6.5995">
        <ele>181.7</ele>
        <time>2025-10-28T09:33:36.000Z</time>
      </trkpt>
      <trkpt lat="43.56086" lon="6.59945">
        <ele>181.8</ele>
        <time>2025-10-28T09:33:37.000Z</time>
      </trkpt>
      <trkpt lat="43.56086" lon="6.59941">
        <ele>182</ele>
        <time>2025-10-28T09:33:38.000Z</time>
      </trkpt>
      <trkpt lat="43.56085" lon="6.59937">
        <ele>182.1</ele>
        <time>2025-10-28T09:33:39.000Z</time>
      </trkpt>
      <trkpt lat="43.56084" lon="6.59932">
        <ele>182.2</ele>
        <time>2025-10-28T09:33:40.000Z</time>
      </trkpt>
      <trkpt lat="43.56084" lon="6.59928">
        <ele>182.2</ele>
        <time>2025-10-28T09:33:41.000Z</time>
      </trkpt>
      <trkpt lat="43.56083" lon="6.59923">
        <ele>182.3</ele>
        <time>2025-10-28T09:33:42.000Z</time>
      </trkpt>
      <trkpt lat="43.56083" lon="6.59918">
        <ele>182.5</ele>
        <time>2025-10-28T09:33:43.000Z</time>
      </trkpt>
      <trkpt lat="43.56082" lon="6.59914">
        <ele>182.6</ele>
        <time>2025-10-28T09:33:44.000Z</time>
      </trkpt>
      <trkpt lat="43.56081" lon="6.59909">
        <ele>182.7</ele>
        <time>2025-10-28T09:33:45.000Z</time>
      </trkpt>
      <trkpt lat="43.56079" lon="6.59905">
        <ele>182.8</ele>
        <time>2025-10-28T09:33:46.000Z</time>
      </trkpt>
      <trkpt lat="43.56077" lon="6.59902">
        <ele>182.9</ele>
        <time>2025-10-28T09:33:47.000Z</time>
      </trkpt>
      <trkpt lat="43.56075" lon="6.59899">
        <ele>183</ele>
        <time>2025-10-28T09:33:48.000Z</time>
      </trkpt>
      <trkpt lat="43.56073" lon="6.59895">
        <ele>183.1</ele>
        <time>2025-10-28T09:33:49.000Z</time>
      </trkpt>
      <trkpt lat="43.56071" lon="6.59891">
        <ele>183.1</ele>
        <time>2025-10-28T09:33:50.000Z</time>
      </trkpt>
      <trkpt lat="43.56069" lon="6.59886">
        <ele>183.2</ele>
        <time>2025-10-28T09:33:51.000Z</time>
      </trkpt>
      <trkpt lat="43.56067" lon="6.59881">
        <ele>183.3</ele>
        <time>2025-10-28T09:33:52.000Z</time>
      </trkpt>
      <trkpt lat="43.56065" lon="6.59876">
        <ele>183.4</ele>
        <time>2025-10-28T09:33:53.000Z</time>
      </trkpt>
      <trkpt lat="43.56064" lon="6.59872">
        <ele>183.6</ele>
        <time>2025-10-28T09:33:54.000Z</time>
      </trkpt>
      <trkpt lat="43.56063" lon="6.59867">
        <ele>183.5</ele>
        <time>2025-10-28T09:33:55.000Z</time>
      </trkpt>
      <trkpt lat="43.56061" lon="6.59863">
        <ele>183.4</ele>
        <time>2025-10-28T09:33:56.000Z</time>
      </trkpt>
      <trkpt lat="43.5606" lon="6.5986">
        <ele>183.2</ele>
        <time>2025-10-28T09:33:57.000Z</time>
      </trkpt>
      <trkpt lat="43.5606" lon="6.59857">
        <ele>183</ele>
        <time>2025-10-28T09:33:58.000Z</time>
      </trkpt>
      <trkpt lat="43.56059" lon="6.59855">
        <ele>182.9</ele>
        <time>2025-10-28T09:33:59.000Z</time>
      </trkpt>
      <trkpt lat="43.56058" lon="6.59853">
        <ele>182.8</ele>
        <time>2025-10-28T09:34:00.000Z</time>
      </trkpt>
      <trkpt lat="43.56058" lon="6.59852">
        <ele>182.7</ele>
        <time>2025-10-28T09:34:01.000Z</time>
      </trkpt>
      <trkpt lat="43.56057" lon="6.59852">
        <ele>182.7</ele>
        <time>2025-10-28T09:34:02.000Z</time>
      </trkpt>
      <trkpt lat="43.56057" lon="6.59852">
        <ele>182.7</ele>
        <time>2025-10-28T09:34:03.000Z</time>
      </trkpt>
      <trkpt lat="43.56057" lon="6.59852">
        <ele>182.6</ele>
        <time>2025-10-28T09:34:04.000Z</time>
      </trkpt>
      <trkpt lat="43.56056" lon="6.59852">
        <ele>182.6</ele>
        <time>2025-10-28T09:34:05.000Z</time>
      </trkpt>
      <trkpt lat="43.56056" lon="6.59852">
        <ele>182.6</ele>
        <time>2025-10-28T09:34:06.000Z</time>
      </trkpt>
      <trkpt lat="43.56056" lon="6.59852">
        <ele>182.6</ele>
        <time>2025-10-28T09:34:07.000Z</time>
      </trkpt>
      <trkpt lat="43.56056" lon="6.59852">
        <ele>182.5</ele>
        <time>2025-10-28T09:34:08.000Z</time>
      </trkpt>
      <trkpt lat="43.56055" lon="6.59851">
        <ele>182.5</ele>
        <time>2025-10-28T09:34:09.000Z</time>
      </trkpt>
      <trkpt lat="43.56055" lon="6.59851">
        <ele>182.5</ele>
        <time>2025-10-28T09:34:10.000Z</time>
      </trkpt>
      <trkpt lat="43.56055" lon="6.59851">
        <ele>182.5</ele>
        <time>2025-10-28T09:34:11.000Z</time>
      </trkpt>
      <trkpt lat="43.56054" lon="6.59851">
        <ele>182.4</ele>
        <time>2025-10-28T09:34:12.000Z</time>
      </trkpt>
      <trkpt lat="43.56054" lon="6.59851">
        <ele>182.4</ele>
        <time>2025-10-28T09:34:13.000Z</time>
      </trkpt>
      <trkpt lat="43.56054" lon="6.59851">
        <ele>182.4</ele>
        <time>2025-10-28T09:34:14.000Z</time>
      </trkpt>
      <trkpt lat="43.56054" lon="6.59851">
        <ele>182.4</ele>
        <time>2025-10-28T09:34:15.000Z</time>
      </trkpt>
      <trkpt lat="43.56053" lon="6.5985">
        <ele>182.3</ele>
        <time>2025-10-28T09:34:16.000Z</time>
      </trkpt>
      <trkpt lat="43.56053" lon="6.5985">
        <ele>182.3</ele>
        <time>2025-10-28T09:34:17.000Z</time>
      </trkpt>
      <trkpt lat="43.56053" lon="6.5985">
        <ele>182.3</ele>
        <time>2025-10-28T09:34:18.000Z</time>
      </trkpt>
      <trkpt lat="43.56053" lon="6.5985">
        <ele>182.2</ele>
        <time>2025-10-28T09:34:19.000Z</time>
      </trkpt>
      <trkpt lat="43.56052" lon="6.5985">
        <ele>182.2</ele>
        <time>2025-10-28T09:34:20.000Z</time>
      </trkpt>
      <trkpt lat="43.56052" lon="6.5985">
        <ele>182.2</ele>
        <time>2025-10-28T09:34:21.000Z</time>
      </trkpt>
      <trkpt lat="43.56052" lon="6.5985">
        <ele>182.2</ele>
        <time>2025-10-28T09:34:22.000Z</time>
      </trkpt>
      <trkpt lat="43.56051" lon="6.5985">
        <ele>182.1</ele>
        <time>2025-10-28T09:34:23.000Z</time>
      </trkpt>
      <trkpt lat="43.56051" lon="6.59849">
        <ele>182.1</ele>
        <time>2025-10-28T09:34:24.000Z</time>
      </trkpt>
      <trkpt lat="43.56051" lon="6.59849">
        <ele>182.1</ele>
        <time>2025-10-28T09:34:25.000Z</time>
      </trkpt>
      <trkpt lat="43.56051" lon="6.59849">
        <ele>182.1</ele>
        <time>2025-10-28T09:34:26.000Z</time>
      </trkpt>
      <trkpt lat="43.5605" lon="6.59849">
        <ele>182</ele>
        <time>2025-10-28T09:34:27.000Z</time>
      </trkpt>
      <trkpt lat="43.5605" lon="6.59849">
        <ele>182</ele>
        <time>2025-10-28T09:34:28.000Z</time>
      </trkpt>
      <trkpt lat="43.5605" lon="6.59849">
        <ele>182</ele>
        <time>2025-10-28T09:34:29.000Z</time>
      </trkpt>
      <trkpt lat="43.56049" lon="6.59849">
        <ele>182</ele>
        <time>2025-10-28T09:34:30.000Z</time>
      </trkpt>
      <trkpt lat="43.56049" lon="6.59849">
        <ele>181.9</ele>
        <time>2025-10-28T09:34:31.000Z</time>
      </trkpt>
      <trkpt lat="43.56049" lon="6.59848">
        <ele>181.9</ele>
        <time>2025-10-28T09:34:32.000Z</time>
      </trkpt>
      <trkpt lat="43.56049" lon="6.59848">
        <ele>181.9</ele>
        <time>2025-10-28T09:34:33.000Z</time>
      </trkpt>
      <trkpt lat="43.56048" lon="6.59848">
        <ele>181.9</ele>
        <time>2025-10-28T09:34:34.000Z</time>
      </trkpt>
      <trkpt lat="43.56048" lon="6.59848">
        <ele>181.8</ele>
        <time>2025-10-28T09:34:35.000Z</time>
      </trkpt>
      <trkpt lat="43.56048" lon="6.59848">
        <ele>181.8</ele>
        <time>2025-10-28T09:34:36.000Z</time>
      </trkpt>
      <trkpt lat="43.56047" lon="6.59848">
        <ele>181.8</ele>
        <time>2025-10-28T09:34:37.000Z</time>
      </trkpt>
      <trkpt lat="43.56047" lon="6.59848">
        <ele>181.8</ele>
        <time>2025-10-28T09:34:38.000Z</time>
      </trkpt>
      <trkpt lat="43.56047" lon="6.59847">
        <ele>181.7</ele>
        <time>2025-10-28T09:34:39.000Z</time>
      </trkpt>
      <trkpt lat="43.56047" lon="6.59847">
        <ele>181.7</ele>
        <time>2025-10-28T09:34:40.000Z</time>
      </trkpt>
      <trkpt lat="43.56046" lon="6.59847">
        <ele>181.7</ele>
        <time>2025-10-28T09:34:41.000Z</time>
      </trkpt>
      <trkpt lat="43.56046" lon="6.59847">
        <ele>181.7</ele>
        <time>2025-10-28T09:34:42.000Z</time>
      </trkpt>
      <trkpt lat="43.56046" lon="6.59847">
        <ele>181.7</ele>
        <time>2025-10-28T09:34:43.000Z</time>
      </trkpt>
      <trkpt lat="43.56045" lon="6.59847">
        <ele>181.6</ele>
        <time>2025-10-28T09:34:44.000Z</time>
      </trkpt>
      <trkpt lat="43.56045" lon="6.59847">
        <ele>181.6</ele>
        <time>2025-10-28T09:34:45.000Z</time>
      </trkpt>
      <trkpt lat="43.56045" lon="6.59847">
        <ele>181.6</ele>
        <time>2025-10-28T09:34:46.000Z</time>
      </trkpt>
      <trkpt lat="43.56045" lon="6.59846">
        <ele>181.6</ele>
        <time>2025-10-28T09:34:47.000Z</time>
      </trkpt>
      <trkpt lat="43.56044" lon="6.59846">
        <ele>181.6</ele>
        <time>2025-10-28T09:34:48.000Z</time>
      </trkpt>
      <trkpt lat="43.56044" lon="6.59846">
        <ele>181.5</ele>
        <time>2025-10-28T09:34:49.000Z</time>
      </trkpt>
      <trkpt lat="43.56044" lon="6.59846">
        <ele>181.5</ele>
        <time>2025-10-28T09:34:50.000Z</time>
      </trkpt>
      <trkpt lat="43.56044" lon="6.59846">
        <ele>181.5</ele>
        <time>2025-10-28T09:34:51.000Z</time>
      </trkpt>
      <trkpt lat="43.56043" lon="6.59846">
        <ele>181.5</ele>
        <time>2025-10-28T09:34:52.000Z</time>
      </trkpt>
      <trkpt lat="43.56043" lon="6.59846">
        <ele>181.5</ele>
        <time>2025-10-28T09:34:53.000Z</time>
      </trkpt>
      <trkpt lat="43.56043" lon="6.59846">
        <ele>181.5</ele>
        <time>2025-10-28T09:34:54.000Z</time>
      </trkpt>
      <trkpt lat="43.56042" lon="6.59845">
        <ele>181.4</ele>
        <time>2025-10-28T09:34:55.000Z</time>
      </trkpt>
      <trkpt lat="43.56042" lon="6.59845">
        <ele>181.4</ele>
        <time>2025-10-28T09:34:56.000Z</time>
      </trkpt>
      <trkpt lat="43.56042" lon="6.59845">
        <ele>181.4</ele>
        <time>2025-10-28T09:34:57.000Z</time>
      </trkpt>
      <trkpt lat="43.56042" lon="6.59845">
        <ele>181.4</ele>
        <time>2025-10-28T09:34:58.000Z</time>
      </trkpt>
      <trkpt lat="43.56041" lon="6.59845">
        <ele>181.4</ele>
        <time>2025-10-28T09:34:59.000Z</time>
      </trkpt>
      <trkpt lat="43.56041" lon="6.59845">
        <ele>181.4</ele>
        <time>2025-10-28T09:35:00.000Z</time>
      </trkpt>
      <trkpt lat="43.56041" lon="6.59845">
        <ele>181.3</ele>
        <time>2025-10-28T09:35:01.000Z</time>
      </trkpt>
      <trkpt lat="43.5604" lon="6.59844">
        <ele>181.3</ele>
        <time>2025-10-28T09:35:02.000Z</time>
      </trkpt>
      <trkpt lat="43.5604" lon="6.59844">
        <ele>181.3</ele>
        <time>2025-10-28T09:35:03.000Z</time>
      </trkpt>
      <trkpt lat="43.5604" lon="6.59844">
        <ele>181.3</ele>
        <time>2025-10-28T09:35:04.000Z</time>
      </trkpt>
      <trkpt lat="43.5604" lon="6.59844">
        <ele>181.3</ele>
        <time>2025-10-28T09:35:05.000Z</time>
      </trkpt>
      <trkpt lat="43.56039" lon="6.59844">
        <ele>181.3</ele>
        <time>2025-10-28T09:35:06.000Z</time>
      </trkpt>
      <trkpt lat="43.56039" lon="6.59844">
        <ele>181.3</ele>
        <time>2025-10-28T09:35:07.000Z</time>
      </trkpt>
      <trkpt lat="43.56039" lon="6.59844">
        <ele>181.3</ele>
        <time>2025-10-28T09:35:08.000Z</time>
      </trkpt>
      <trkpt lat="43.56038" lon="6.59844">
        <ele>181.3</ele>
        <time>2025-10-28T09:35:09.000Z</time>
      </trkpt>
      <trkpt lat="43.56038" lon="6.59843">
        <ele>181.3</ele>
        <time>2025-10-28T09:35:10.000Z</time>
      </trkpt>
      <trkpt lat="43.56038" lon="6.59843">
        <ele>181.3</ele>
        <time>2025-10-28T09:35:11.000Z</time>
      </trkpt>
      <trkpt lat="43.56038" lon="6.59843">
        <ele>181.3</ele>
        <time>2025-10-28T09:35:12.000Z</time>
      </trkpt>
      <trkpt lat="43.56037" lon="6.59843">
        <ele>181.2</ele>
        <time>2025-10-28T09:35:13.000Z</time>
      </trkpt>
      <trkpt lat="43.56037" lon="6.59843">
        <ele>181.2</ele>
        <time>2025-10-28T09:35:14.000Z</time>
      </trkpt>
      <trkpt lat="43.56037" lon="6.59843">
        <ele>181.2</ele>
        <time>2025-10-28T09:35:15.000Z</time>
      </trkpt>
      <trkpt lat="43.56037" lon="6.59843">
        <ele>181.2</ele>
        <time>2025-10-28T09:35:16.000Z</time>
      </trkpt>
      <trkpt lat="43.56036" lon="6.59843">
        <ele>181.2</ele>
        <time>2025-10-28T09:35:17.000Z</time>
      </trkpt>
      <trkpt lat="43.56036" lon="6.59842">
        <ele>181.2</ele>
        <time>2025-10-28T09:35:18.000Z</time>
      </trkpt>
      <trkpt lat="43.56036" lon="6.59842">
        <ele>181.2</ele>
        <time>2025-10-28T09:35:19.000Z</time>
      </trkpt>
      <trkpt lat="43.56035" lon="6.59842">
        <ele>181.2</ele>
        <time>2025-10-28T09:35:20.000Z</time>
      </trkpt>
      <trkpt lat="43.56035" lon="6.59842">
        <ele>181.2</ele>
        <time>2025-10-28T09:35:21.000Z</time>
      </trkpt>
      <trkpt lat="43.56035" lon="6.59842">
        <ele>181.2</ele>
        <time>2025-10-28T09:35:22.000Z</time>
      </trkpt>
      <trkpt lat="43.56035" lon="6.59842">
        <ele>181.2</ele>
        <time>2025-10-28T09:35:23.000Z</time>
      </trkpt>
      <trkpt lat="43.56031" lon="6.59839">
        <ele>181.3</ele>
        <time>2025-10-28T09:35:24.000Z</time>
      </trkpt>
      <trkpt lat="43.56029" lon="6.59836">
        <ele>181.4</ele>
        <time>2025-10-28T09:35:25.000Z</time>
      </trkpt>
      <trkpt lat="43.56026" lon="6.59832">
        <ele>181.6</ele>
        <time>2025-10-28T09:35:26.000Z</time>
      </trkpt>
      <trkpt lat="43.56024" lon="6.59828">
        <ele>181.9</ele>
        <time>2025-10-28T09:35:27.000Z</time>
      </trkpt>
      <trkpt lat="43.56022" lon="6.59825">
        <ele>182.2</ele>
        <time>2025-10-28T09:35:28.000Z</time>
      </trkpt>
      <trkpt lat="43.56019" lon="6.59822">
        <ele>182.5</ele>
        <time>2025-10-28T09:35:29.000Z</time>
      </trkpt>
      <trkpt lat="43.56017" lon="6.59819">
        <ele>182.9</ele>
        <time>2025-10-28T09:35:30.000Z</time>
      </trkpt>
      <trkpt lat="43.56015" lon="6.59816">
        <ele>183.3</ele>
        <time>2025-10-28T09:35:31.000Z</time>
      </trkpt>
      <trkpt lat="43.56012" lon="6.59813">
        <ele>183.7</ele>
        <time>2025-10-28T09:35:32.000Z</time>
      </trkpt>
      <trkpt lat="43.5601" lon="6.5981">
        <ele>184</ele>
        <time>2025-10-28T09:35:33.000Z</time>
      </trkpt>
      <trkpt lat="43.56008" lon="6.59808">
        <ele>184.4</ele>
        <time>2025-10-28T09:35:34.000Z</time>
      </trkpt>
      <trkpt lat="43.56006" lon="6.59805">
        <ele>184.8</ele>
        <time>2025-10-28T09:35:35.000Z</time>
      </trkpt>
      <trkpt lat="43.56003" lon="6.59803">
        <ele>185.2</ele>
        <time>2025-10-28T09:35:36.000Z</time>
      </trkpt>
      <trkpt lat="43.56001" lon="6.59801">
        <ele>185.5</ele>
        <time>2025-10-28T09:35:37.000Z</time>
      </trkpt>
      <trkpt lat="43.55998" lon="6.598">
        <ele>185.8</ele>
        <time>2025-10-28T09:35:38.000Z</time>
      </trkpt>
      <trkpt lat="43.55996" lon="6.59798">
        <ele>186.1</ele>
        <time>2025-10-28T09:35:39.000Z</time>
      </trkpt>
      <trkpt lat="43.55993" lon="6.59796">
        <ele>186.5</ele>
        <time>2025-10-28T09:35:40.000Z</time>
      </trkpt>
      <trkpt lat="43.55991" lon="6.59794">
        <ele>186.9</ele>
        <time>2025-10-28T09:35:41.000Z</time>
      </trkpt>
      <trkpt lat="43.55988" lon="6.59791">
        <ele>187.2</ele>
        <time>2025-10-28T09:35:42.000Z</time>
      </trkpt>
      <trkpt lat="43.55986" lon="6.59789">
        <ele>187.6</ele>
        <time>2025-10-28T09:35:43.000Z</time>
      </trkpt>
      <trkpt lat="43.55983" lon="6.59786">
        <ele>188.1</ele>
        <time>2025-10-28T09:35:44.000Z</time>
      </trkpt>
      <trkpt lat="43.55981" lon="6.59785">
        <ele>188.4</ele>
        <time>2025-10-28T09:35:45.000Z</time>
      </trkpt>
      <trkpt lat="43.55979" lon="6.59783">
        <ele>188.8</ele>
        <time>2025-10-28T09:35:46.000Z</time>
      </trkpt>
      <trkpt lat="43.55977" lon="6.5978">
        <ele>189.2</ele>
        <time>2025-10-28T09:35:47.000Z</time>
      </trkpt>
      <trkpt lat="43.55975" lon="6.59776">
        <ele>189.6</ele>
        <time>2025-10-28T09:35:48.000Z</time>
      </trkpt>
      <trkpt lat="43.55973" lon="6.59773">
        <ele>190</ele>
        <time>2025-10-28T09:35:49.000Z</time>
      </trkpt>
      <trkpt lat="43.55972" lon="6.5977">
        <ele>190.3</ele>
        <time>2025-10-28T09:35:50.000Z</time>
      </trkpt>
      <trkpt lat="43.5597" lon="6.59766">
        <ele>190.7</ele>
        <time>2025-10-28T09:35:51.000Z</time>
      </trkpt>
      <trkpt lat="43.55968" lon="6.59763">
        <ele>191.1</ele>
        <time>2025-10-28T09:35:52.000Z</time>
      </trkpt>
      <trkpt lat="43.55966" lon="6.5976">
        <ele>191.5</ele>
        <time>2025-10-28T09:35:53.000Z</time>
      </trkpt>
      <trkpt lat="43.55964" lon="6.59758">
        <ele>191.9</ele>
        <time>2025-10-28T09:35:54.000Z</time>
      </trkpt>
      <trkpt lat="43.55961" lon="6.59756">
        <ele>192.3</ele>
        <time>2025-10-28T09:35:55.000Z</time>
      </trkpt>
      <trkpt lat="43.55959" lon="6.59753">
        <ele>192.8</ele>
        <time>2025-10-28T09:35:56.000Z</time>
      </trkpt>
      <trkpt lat="43.55956" lon="6.59751">
        <ele>193.3</ele>
        <time>2025-10-28T09:35:57.000Z</time>
      </trkpt>
      <trkpt lat="43.55954" lon="6.59748">
        <ele>193.8</ele>
        <time>2025-10-28T09:35:58.000Z</time>
      </trkpt>
      <trkpt lat="43.55951" lon="6.59745">
        <ele>194.3</ele>
        <time>2025-10-28T09:35:59.000Z</time>
      </trkpt>
      <trkpt lat="43.5595" lon="6.59743">
        <ele>194.6</ele>
        <time>2025-10-28T09:36:00.000Z</time>
      </trkpt>
      <trkpt lat="43.55948" lon="6.59741">
        <ele>195.1</ele>
        <time>2025-10-28T09:36:01.000Z</time>
      </trkpt>
      <trkpt lat="43.55946" lon="6.59738">
        <ele>195.5</ele>
        <time>2025-10-28T09:36:02.000Z</time>
      </trkpt>
      <trkpt lat="43.55944" lon="6.59735">
        <ele>196</ele>
        <time>2025-10-28T09:36:03.000Z</time>
      </trkpt>
      <trkpt lat="43.55942" lon="6.59733">
        <ele>196.3</ele>
        <time>2025-10-28T09:36:04.000Z</time>
      </trkpt>
      <trkpt lat="43.5594" lon="6.59731">
        <ele>196.6</ele>
        <time>2025-10-28T09:36:05.000Z</time>
      </trkpt>
      <trkpt lat="43.55937" lon="6.59729">
        <ele>197</ele>
        <time>2025-10-28T09:36:06.000Z</time>
      </trkpt>
      <trkpt lat="43.55935" lon="6.59726">
        <ele>197.3</ele>
        <time>2025-10-28T09:36:07.000Z</time>
      </trkpt>
      <trkpt lat="43.55932" lon="6.59723">
        <ele>197.5</ele>
        <time>2025-10-28T09:36:08.000Z</time>
      </trkpt>
      <trkpt lat="43.55931" lon="6.5972">
        <ele>197.8</ele>
        <time>2025-10-28T09:36:09.000Z</time>
      </trkpt>
      <trkpt lat="43.55929" lon="6.59716">
        <ele>198</ele>
        <time>2025-10-28T09:36:10.000Z</time>
      </trkpt>
      <trkpt lat="43.55928" lon="6.59712">
        <ele>198.3</ele>
        <time>2025-10-28T09:36:11.000Z</time>
      </trkpt>
      <trkpt lat="43.55926" lon="6.59709">
        <ele>198.6</ele>
        <time>2025-10-28T09:36:12.000Z</time>
      </trkpt>
      <trkpt lat="43.55925" lon="6.59705">
        <ele>199</ele>
        <time>2025-10-28T09:36:13.000Z</time>
      </trkpt>
      <trkpt lat="43.55923" lon="6.59703">
        <ele>199.3</ele>
        <time>2025-10-28T09:36:14.000Z</time>
      </trkpt>
      <trkpt lat="43.55921" lon="6.597">
        <ele>199.8</ele>
        <time>2025-10-28T09:36:15.000Z</time>
      </trkpt>
      <trkpt lat="43.55918" lon="6.59699">
        <ele>200.2</ele>
        <time>2025-10-28T09:36:16.000Z</time>
      </trkpt>
      <trkpt lat="43.55916" lon="6.59697">
        <ele>200.7</ele>
        <time>2025-10-28T09:36:17.000Z</time>
      </trkpt>
      <trkpt lat="43.55914" lon="6.59695">
        <ele>201.2</ele>
        <time>2025-10-28T09:36:18.000Z</time>
      </trkpt>
      <trkpt lat="43.55911" lon="6.59692">
        <ele>201.7</ele>
        <time>2025-10-28T09:36:19.000Z</time>
      </trkpt>
      <trkpt lat="43.55909" lon="6.5969">
        <ele>202.2</ele>
        <time>2025-10-28T09:36:20.000Z</time>
      </trkpt>
      <trkpt lat="43.55907" lon="6.59688">
        <ele>202.7</ele>
        <time>2025-10-28T09:36:21.000Z</time>
      </trkpt>
      <trkpt lat="43.55904" lon="6.59687">
        <ele>203.2</ele>
        <time>2025-10-28T09:36:22.000Z</time>
      </trkpt>
      <trkpt lat="43.55901" lon="6.59686">
        <ele>203.7</ele>
        <time>2025-10-28T09:36:23.000Z</time>
      </trkpt>
      <trkpt lat="43.55899" lon="6.59686">
        <ele>204.2</ele>
        <time>2025-10-28T09:36:24.000Z</time>
      </trkpt>
      <trkpt lat="43.55896" lon="6.59687">
        <ele>204.7</ele>
        <time>2025-10-28T09:36:25.000Z</time>
      </trkpt>
      <trkpt lat="43.55893" lon="6.59688">
        <ele>205.1</ele>
        <time>2025-10-28T09:36:26.000Z</time>
      </trkpt>
      <trkpt lat="43.55891" lon="6.59689">
        <ele>205.6</ele>
        <time>2025-10-28T09:36:27.000Z</time>
      </trkpt>
      <trkpt lat="43.55888" lon="6.59691">
        <ele>206</ele>
        <time>2025-10-28T09:36:28.000Z</time>
      </trkpt>
      <trkpt lat="43.55885" lon="6.59693">
        <ele>206.5</ele>
        <time>2025-10-28T09:36:29.000Z</time>
      </trkpt>
      <trkpt lat="43.55883" lon="6.59694">
        <ele>206.9</ele>
        <time>2025-10-28T09:36:30.000Z</time>
      </trkpt>
      <trkpt lat="43.5588" lon="6.59696">
        <ele>207.3</ele>
        <time>2025-10-28T09:36:31.000Z</time>
      </trkpt>
      <trkpt lat="43.55877" lon="6.59697">
        <ele>207.6</ele>
        <time>2025-10-28T09:36:32.000Z</time>
      </trkpt>
      <trkpt lat="43.55874" lon="6.59699">
        <ele>207.9</ele>
        <time>2025-10-28T09:36:33.000Z</time>
      </trkpt>
      <trkpt lat="43.55871" lon="6.59699">
        <ele>208.2</ele>
        <time>2025-10-28T09:36:34.000Z</time>
      </trkpt>
      <trkpt lat="43.55869" lon="6.597">
        <ele>208.4</ele>
        <time>2025-10-28T09:36:35.000Z</time>
      </trkpt>
      <trkpt lat="43.55866" lon="6.59701">
        <ele>208.7</ele>
        <time>2025-10-28T09:36:36.000Z</time>
      </trkpt>
      <trkpt lat="43.55863" lon="6.59701">
        <ele>209</ele>
        <time>2025-10-28T09:36:37.000Z</time>
      </trkpt>
      <trkpt lat="43.55861" lon="6.59701">
        <ele>209.2</ele>
        <time>2025-10-28T09:36:38.000Z</time>
      </trkpt>
      <trkpt lat="43.55858" lon="6.59702">
        <ele>209.4</ele>
        <time>2025-10-28T09:36:39.000Z</time>
      </trkpt>
      <trkpt lat="43.55855" lon="6.59702">
        <ele>209.7</ele>
        <time>2025-10-28T09:36:40.000Z</time>
      </trkpt>
      <trkpt lat="43.55852" lon="6.59702">
        <ele>210</ele>
        <time>2025-10-28T09:36:41.000Z</time>
      </trkpt>
      <trkpt lat="43.55849" lon="6.59702">
        <ele>210.3</ele>
        <time>2025-10-28T09:36:42.000Z</time>
      </trkpt>
      <trkpt lat="43.55846" lon="6.59702">
        <ele>210.5</ele>
        <time>2025-10-28T09:36:43.000Z</time>
      </trkpt>
      <trkpt lat="43.55843" lon="6.59703">
        <ele>210.8</ele>
        <time>2025-10-28T09:36:44.000Z</time>
      </trkpt>
      <trkpt lat="43.55841" lon="6.59703">
        <ele>211</ele>
        <time>2025-10-28T09:36:45.000Z</time>
      </trkpt>
      <trkpt lat="43.55838" lon="6.59703">
        <ele>211.2</ele>
        <time>2025-10-28T09:36:46.000Z</time>
      </trkpt>
      <trkpt lat="43.55836" lon="6.59704">
        <ele>211.4</ele>
        <time>2025-10-28T09:36:47.000Z</time>
      </trkpt>
      <trkpt lat="43.55833" lon="6.59705">
        <ele>211.6</ele>
        <time>2025-10-28T09:36:48.000Z</time>
      </trkpt>
      <trkpt lat="43.55831" lon="6.59706">
        <ele>211.7</ele>
        <time>2025-10-28T09:36:49.000Z</time>
      </trkpt>
      <trkpt lat="43.55828" lon="6.59707">
        <ele>211.9</ele>
        <time>2025-10-28T09:36:50.000Z</time>
      </trkpt>
      <trkpt lat="43.55826" lon="6.59707">
        <ele>212</ele>
        <time>2025-10-28T09:36:51.000Z</time>
      </trkpt>
      <trkpt lat="43.55823" lon="6.59708">
        <ele>212.1</ele>
        <time>2025-10-28T09:36:52.000Z</time>
      </trkpt>
      <trkpt lat="43.55821" lon="6.59709">
        <ele>212.2</ele>
        <time>2025-10-28T09:36:53.000Z</time>
      </trkpt>
      <trkpt lat="43.55819" lon="6.59709">
        <ele>212.2</ele>
        <time>2025-10-28T09:36:54.000Z</time>
      </trkpt>
      <trkpt lat="43.55816" lon="6.5971">
        <ele>212.2</ele>
        <time>2025-10-28T09:36:55.000Z</time>
      </trkpt>
      <trkpt lat="43.55814" lon="6.5971">
        <ele>212.2</ele>
        <time>2025-10-28T09:36:56.000Z</time>
      </trkpt>
      <trkpt lat="43.55811" lon="6.5971">
        <ele>212.2</ele>
        <time>2025-10-28T09:36:57.000Z</time>
      </trkpt>
      <trkpt lat="43.55809" lon="6.59709">
        <ele>212.2</ele>
        <time>2025-10-28T09:36:58.000Z</time>
      </trkpt>
      <trkpt lat="43.55808" lon="6.59708">
        <ele>212.1</ele>
        <time>2025-10-28T09:36:59.000Z</time>
      </trkpt>
      <trkpt lat="43.55807" lon="6.59706">
        <ele>212.1</ele>
        <time>2025-10-28T09:37:00.000Z</time>
      </trkpt>
      <trkpt lat="43.55806" lon="6.59704">
        <ele>212</ele>
        <time>2025-10-28T09:37:01.000Z</time>
      </trkpt>
      <trkpt lat="43.55806" lon="6.59702">
        <ele>212</ele>
        <time>2025-10-28T09:37:02.000Z</time>
      </trkpt>
      <trkpt lat="43.55806" lon="6.59701">
        <ele>211.9</ele>
        <time>2025-10-28T09:37:03.000Z</time>
      </trkpt>
      <trkpt lat="43.55806" lon="6.59698">
        <ele>211.9</ele>
        <time>2025-10-28T09:37:04.000Z</time>
      </trkpt>
      <trkpt lat="43.55807" lon="6.59697">
        <ele>212</ele>
        <time>2025-10-28T09:37:05.000Z</time>
      </trkpt>
      <trkpt lat="43.55807" lon="6.59695">
        <ele>212</ele>
        <time>2025-10-28T09:37:06.000Z</time>
      </trkpt>
      <trkpt lat="43.55808" lon="6.59695">
        <ele>212</ele>
        <time>2025-10-28T09:37:07.000Z</time>
      </trkpt>
      <trkpt lat="43.55808" lon="6.59694">
        <ele>212</ele>
        <time>2025-10-28T09:37:08.000Z</time>
      </trkpt>
      <trkpt lat="43.55809" lon="6.59694">
        <ele>212</ele>
        <time>2025-10-28T09:37:09.000Z</time>
      </trkpt>
      <trkpt lat="43.55809" lon="6.59694">
        <ele>212</ele>
        <time>2025-10-28T09:37:10.000Z</time>
      </trkpt>
      <trkpt lat="43.5581" lon="6.59694">
        <ele>212</ele>
        <time>2025-10-28T09:37:11.000Z</time>
      </trkpt>
      <trkpt lat="43.55809" lon="6.59694">
        <ele>212</ele>
        <time>2025-10-28T09:37:12.000Z</time>
      </trkpt>
      <trkpt lat="43.55809" lon="6.59695">
        <ele>212</ele>
        <time>2025-10-28T09:37:13.000Z</time>
      </trkpt>
      <trkpt lat="43.55809" lon="6.59696">
        <ele>212</ele>
        <time>2025-10-28T09:37:14.000Z</time>
      </trkpt>
      <trkpt lat="43.55809" lon="6.59696">
        <ele>212</ele>
        <time>2025-10-28T09:37:15.000Z</time>
      </trkpt>
      <trkpt lat="43.55809" lon="6.59695">
        <ele>212</ele>
        <time>2025-10-28T09:37:16.000Z</time>
      </trkpt>
      <trkpt lat="43.55809" lon="6.59695">
        <ele>212</ele>
        <time>2025-10-28T09:37:17.000Z</time>
      </trkpt>
      <trkpt lat="43.55809" lon="6.59695">
        <ele>212</ele>
        <time>2025-10-28T09:37:18.000Z</time>
      </trkpt>
      <trkpt lat="43.55809" lon="6.59695">
        <ele>212</ele>
        <time>2025-10-28T09:37:19.000Z</time>
      </trkpt>
      <trkpt lat="43.55809" lon="6.59695">
        <ele>212</ele>
        <time>2025-10-28T09:37:20.000Z</time>
      </trkpt>
      <trkpt lat="43.55809" lon="6.59695">
        <ele>212</ele>
        <time>2025-10-28T09:37:21.000Z</time>
      </trkpt>
      <trkpt lat="43.55809" lon="6.59695">
        <ele>212</ele>
        <time>2025-10-28T09:37:22.000Z</time>
      </trkpt>
      <trkpt lat="43.55809" lon="6.59695">
        <ele>212</ele>
        <time>2025-10-28T09:37:23.000Z</time>
      </trkpt>
      <trkpt lat="43.55809" lon="6.59695">
        <ele>212</ele>
        <time>2025-10-28T09:37:24.000Z</time>
      </trkpt>
      <trkpt lat="43.55809" lon="6.59695">
        <ele>212</ele>
        <time>2025-10-28T09:37:25.000Z</time>
      </trkpt>
      <trkpt lat="43.55809" lon="6.59695">
        <ele>212</ele>
        <time>2025-10-28T09:37:26.000Z</time>
      </trkpt>
      <trkpt lat="43.55809" lon="6.59695">
        <ele>212</ele>
        <time>2025-10-28T09:37:27.000Z</time>
      </trkpt>
      <trkpt lat="43.55809" lon="6.59695">
        <ele>212</ele>
        <time>2025-10-28T09:37:28.000Z</time>
      </trkpt>
      <trkpt lat="43.55809" lon="6.59695">
        <ele>212</ele>
        <time>2025-10-28T09:37:29.000Z</time>
      </trkpt>
      <trkpt lat="43.55809" lon="6.59695">
        <ele>212</ele>
        <time>2025-10-28T09:37:30.000Z</time>
      </trkpt>
      <trkpt lat="43.55809" lon="6.59695">
        <ele>212</ele>
        <time>2025-10-28T09:37:31.000Z</time>
      </trkpt>
      <trkpt lat="43.55809" lon="6.59695">
        <ele>212</ele>
        <time>2025-10-28T09:37:32.000Z</time>
      </trkpt>
      <trkpt lat="43.5581" lon="6.59695">
        <ele>212</ele>
        <time>2025-10-28T09:37:33.000Z</time>
      </trkpt>
      <trkpt lat="43.5581" lon="6.59695">
        <ele>212</ele>
        <time>2025-10-28T09:37:34.000Z</time>
      </trkpt>
      <trkpt lat="43.5581" lon="6.59695">
        <ele>212</ele>
        <time>2025-10-28T09:37:35.000Z</time>
      </trkpt>
      <trkpt lat="43.5581" lon="6.59695">
        <ele>212</ele>
        <time>2025-10-28T09:37:36.000Z</time>
      </trkpt>
      <trkpt lat="43.5581" lon="6.59695">
        <ele>212</ele>
        <time>2025-10-28T09:37:37.000Z</time>
      </trkpt>
      <trkpt lat="43.5581" lon="6.59696">
        <ele>212</ele>
        <time>2025-10-28T09:37:38.000Z</time>
      </trkpt>
      <trkpt lat="43.5581" lon="6.59696">
        <ele>212</ele>
        <time>2025-10-28T09:37:39.000Z</time>
      </trkpt>
      <trkpt lat="43.5581" lon="6.59696">
        <ele>212</ele>
        <time>2025-10-28T09:37:40.000Z</time>
      </trkpt>
      <trkpt lat="43.5581" lon="6.59696">
        <ele>212</ele>
        <time>2025-10-28T09:37:41.000Z</time>
      </trkpt>
      <trkpt lat="43.5581" lon="6.59696">
        <ele>212</ele>
        <time>2025-10-28T09:37:42.000Z</time>
      </trkpt>
      <trkpt lat="43.5581" lon="6.59696">
        <ele>212</ele>
        <time>2025-10-28T09:37:43.000Z</time>
      </trkpt>
      <trkpt lat="43.5581" lon="6.59696">
        <ele>212</ele>
        <time>2025-10-28T09:37:44.000Z</time>
      </trkpt>
      <trkpt lat="43.5581" lon="6.59696">
        <ele>212.1</ele>
        <time>2025-10-28T09:37:45.000Z</time>
      </trkpt>
      <trkpt lat="43.5581" lon="6.59696">
        <ele>212.1</ele>
        <time>2025-10-28T09:37:46.000Z</time>
      </trkpt>
      <trkpt lat="43.5581" lon="6.59696">
        <ele>212.1</ele>
        <time>2025-10-28T09:37:47.000Z</time>
      </trkpt>
      <trkpt lat="43.5581" lon="6.59696">
        <ele>212.1</ele>
        <time>2025-10-28T09:37:48.000Z</time>
      </trkpt>
      <trkpt lat="43.5581" lon="6.59696">
        <ele>212.1</ele>
        <time>2025-10-28T09:37:49.000Z</time>
      </trkpt>
      <trkpt lat="43.5581" lon="6.59696">
        <ele>212.1</ele>
        <time>2025-10-28T09:37:50.000Z</time>
      </trkpt>
      <trkpt lat="43.5581" lon="6.59696">
        <ele>212.1</ele>
        <time>2025-10-28T09:37:51.000Z</time>
      </trkpt>
      <trkpt lat="43.5581" lon="6.59696">
        <ele>212.1</ele>
        <time>2025-10-28T09:37:52.000Z</time>
      </trkpt>
      <trkpt lat="43.5581" lon="6.59696">
        <ele>212.1</ele>
        <time>2025-10-28T09:37:53.000Z</time>
      </trkpt>
      <trkpt lat="43.5581" lon="6.59696">
        <ele>212.1</ele>
        <time>2025-10-28T09:37:54.000Z</time>
      </trkpt>
      <trkpt lat="43.5581" lon="6.59696">
        <ele>212.1</ele>
        <time>2025-10-28T09:37:55.000Z</time>
      </trkpt>
      <trkpt lat="43.5581" lon="6.59696">
        <ele>212.1</ele>
        <time>2025-10-28T09:37:56.000Z</time>
      </trkpt>
      <trkpt lat="43.55811" lon="6.59696">
        <ele>212.1</ele>
        <time>2025-10-28T09:37:57.000Z</time>
      </trkpt>
      <trkpt lat="43.55811" lon="6.59696">
        <ele>212.1</ele>
        <time>2025-10-28T09:37:58.000Z</time>
      </trkpt>
      <trkpt lat="43.55811" lon="6.59696">
        <ele>212.1</ele>
        <time>2025-10-28T09:37:59.000Z</time>
      </trkpt>
      <trkpt lat="43.55811" lon="6.59696">
        <ele>212.1</ele>
        <time>2025-10-28T09:38:00.000Z</time>
      </trkpt>
      <trkpt lat="43.55811" lon="6.59696">
        <ele>212.1</ele>
        <time>2025-10-28T09:38:01.000Z</time>
      </trkpt>
      <trkpt lat="43.55811" lon="6.59696">
        <ele>212.1</ele>
        <time>2025-10-28T09:38:02.000Z</time>
      </trkpt>
      <trkpt lat="43.55811" lon="6.59696">
        <ele>212.1</ele>
        <time>2025-10-28T09:38:03.000Z</time>
      </trkpt>
      <trkpt lat="43.55811" lon="6.59696">
        <ele>212.1</ele>
        <time>2025-10-28T09:38:04.000Z</time>
      </trkpt>
      <trkpt lat="43.55811" lon="6.59696">
        <ele>212.1</ele>
        <time>2025-10-28T09:38:05.000Z</time>
      </trkpt>
      <trkpt lat="43.55811" lon="6.59696">
        <ele>212.1</ele>
        <time>2025-10-28T09:38:06.000Z</time>
      </trkpt>
      <trkpt lat="43.55811" lon="6.59696">
        <ele>212.1</ele>
        <time>2025-10-28T09:38:07.000Z</time>
      </trkpt>
      <trkpt lat="43.55811" lon="6.59697">
        <ele>212.1</ele>
        <time>2025-10-28T09:38:08.000Z</time>
      </trkpt>
      <trkpt lat="43.55812" lon="6.59697">
        <ele>212.1</ele>
        <time>2025-10-28T09:38:09.000Z</time>
      </trkpt>
      <trkpt lat="43.55812" lon="6.59697">
        <ele>212.1</ele>
        <time>2025-10-28T09:38:10.000Z</time>
      </trkpt>
      <trkpt lat="43.55812" lon="6.59697">
        <ele>212.1</ele>
        <time>2025-10-28T09:38:11.000Z</time>
      </trkpt>
      <trkpt lat="43.55812" lon="6.59698">
        <ele>212.1</ele>
        <time>2025-10-28T09:38:12.000Z</time>
      </trkpt>
      <trkpt lat="43.55812" lon="6.59698">
        <ele>212.1</ele>
        <time>2025-10-28T09:38:13.000Z</time>
      </trkpt>
      <trkpt lat="43.55812" lon="6.59698">
        <ele>212.1</ele>
        <time>2025-10-28T09:38:14.000Z</time>
      </trkpt>
      <trkpt lat="43.55812" lon="6.59698">
        <ele>212.1</ele>
        <time>2025-10-28T09:38:15.000Z</time>
      </trkpt>
      <trkpt lat="43.55812" lon="6.59698">
        <ele>212.1</ele>
        <time>2025-10-28T09:38:16.000Z</time>
      </trkpt>
      <trkpt lat="43.55813" lon="6.59698">
        <ele>212.1</ele>
        <time>2025-10-28T09:38:17.000Z</time>
      </trkpt>
      <trkpt lat="43.55813" lon="6.59698">
        <ele>212.1</ele>
        <time>2025-10-28T09:38:18.000Z</time>
      </trkpt>
      <trkpt lat="43.55813" lon="6.59698">
        <ele>212.1</ele>
        <time>2025-10-28T09:38:19.000Z</time>
      </trkpt>
      <trkpt lat="43.55814" lon="6.59698">
        <ele>212.1</ele>
        <time>2025-10-28T09:38:20.000Z</time>
      </trkpt>
      <trkpt lat="43.55814" lon="6.59698">
        <ele>212.1</ele>
        <time>2025-10-28T09:38:21.000Z</time>
      </trkpt>
      <trkpt lat="43.55814" lon="6.59698">
        <ele>212.1</ele>
        <time>2025-10-28T09:38:22.000Z</time>
      </trkpt>
      <trkpt lat="43.55814" lon="6.59698">
        <ele>212.1</ele>
        <time>2025-10-28T09:38:23.000Z</time>
      </trkpt>
      <trkpt lat="43.55814" lon="6.59698">
        <ele>212.1</ele>
        <time>2025-10-28T09:38:24.000Z</time>
      </trkpt>
      <trkpt lat="43.55815" lon="6.59698">
        <ele>212.1</ele>
        <time>2025-10-28T09:38:25.000Z</time>
      </trkpt>
      <trkpt lat="43.55815" lon="6.59698">
        <ele>212.1</ele>
        <time>2025-10-28T09:38:26.000Z</time>
      </trkpt>
      <trkpt lat="43.55815" lon="6.59698">
        <ele>212.1</ele>
        <time>2025-10-28T09:38:27.000Z</time>
      </trkpt>
      <trkpt lat="43.55815" lon="6.59698">
        <ele>212.1</ele>
        <time>2025-10-28T09:38:28.000Z</time>
      </trkpt>
      <trkpt lat="43.55815" lon="6.59698">
        <ele>212.1</ele>
        <time>2025-10-28T09:38:29.000Z</time>
      </trkpt>
      <trkpt lat="43.55815" lon="6.59698">
        <ele>212.1</ele>
        <time>2025-10-28T09:38:30.000Z</time>
      </trkpt>
      <trkpt lat="43.55815" lon="6.59698">
        <ele>212.1</ele>
        <time>2025-10-28T09:38:31.000Z</time>
      </trkpt>
      <trkpt lat="43.55815" lon="6.59698">
        <ele>212.1</ele>
        <time>2025-10-28T09:38:32.000Z</time>
      </trkpt>
      <trkpt lat="43.55815" lon="6.59698">
        <ele>212.1</ele>
        <time>2025-10-28T09:38:33.000Z</time>
      </trkpt>
      <trkpt lat="43.55815" lon="6.59698">
        <ele>212.1</ele>
        <time>2025-10-28T09:38:34.000Z</time>
      </trkpt>
      <trkpt lat="43.55815" lon="6.59698">
        <ele>212.1</ele>
        <time>2025-10-28T09:38:35.000Z</time>
      </trkpt>
      <trkpt lat="43.55815" lon="6.59698">
        <ele>212.1</ele>
        <time>2025-10-28T09:38:36.000Z</time>
      </trkpt>
      <trkpt lat="43.55815" lon="6.59698">
        <ele>212.1</ele>
        <time>2025-10-28T09:38:37.000Z</time>
      </trkpt>
      <trkpt lat="43.55815" lon="6.59698">
        <ele>212.1</ele>
        <time>2025-10-28T09:38:38.000Z</time>
      </trkpt>
      <trkpt lat="43.55815" lon="6.59698">
        <ele>212.1</ele>
        <time>2025-10-28T09:38:39.000Z</time>
      </trkpt>
      <trkpt lat="43.55815" lon="6.59698">
        <ele>212.1</ele>
        <time>2025-10-28T09:38:40.000Z</time>
      </trkpt>
      <trkpt lat="43.55815" lon="6.59698">
        <ele>212.1</ele>
        <time>2025-10-28T09:38:41.000Z</time>
      </trkpt>
      <trkpt lat="43.55815" lon="6.59698">
        <ele>212.1</ele>
        <time>2025-10-28T09:38:42.000Z</time>
      </trkpt>
      <trkpt lat="43.55815" lon="6.59697">
        <ele>212.1</ele>
        <time>2025-10-28T09:38:43.000Z</time>
      </trkpt>
      <trkpt lat="43.55815" lon="6.59697">
        <ele>212.1</ele>
        <time>2025-10-28T09:38:44.000Z</time>
      </trkpt>
      <trkpt lat="43.55815" lon="6.59697">
        <ele>212.1</ele>
        <time>2025-10-28T09:38:45.000Z</time>
      </trkpt>
      <trkpt lat="43.55815" lon="6.59697">
        <ele>212.1</ele>
        <time>2025-10-28T09:38:46.000Z</time>
      </trkpt>
      <trkpt lat="43.55815" lon="6.59697">
        <ele>212.1</ele>
        <time>2025-10-28T09:38:47.000Z</time>
      </trkpt>
      <trkpt lat="43.55815" lon="6.59697">
        <ele>212.1</ele>
        <time>2025-10-28T09:38:48.000Z</time>
      </trkpt>
      <trkpt lat="43.55815" lon="6.59697">
        <ele>212.2</ele>
        <time>2025-10-28T09:38:49.000Z</time>
      </trkpt>
      <trkpt lat="43.55815" lon="6.59697">
        <ele>212.2</ele>
        <time>2025-10-28T09:38:50.000Z</time>
      </trkpt>
      <trkpt lat="43.55815" lon="6.59697">
        <ele>212.2</ele>
        <time>2025-10-28T09:38:51.000Z</time>
      </trkpt>
      <trkpt lat="43.55815" lon="6.59697">
        <ele>212.2</ele>
        <time>2025-10-28T09:38:52.000Z</time>
      </trkpt>
      <trkpt lat="43.55815" lon="6.59697">
        <ele>212.2</ele>
        <time>2025-10-28T09:38:53.000Z</time>
      </trkpt>
      <trkpt lat="43.55814" lon="6.59697">
        <ele>212.2</ele>
        <time>2025-10-28T09:38:54.000Z</time>
      </trkpt>
      <trkpt lat="43.55814" lon="6.59697">
        <ele>212.2</ele>
        <time>2025-10-28T09:38:55.000Z</time>
      </trkpt>
      <trkpt lat="43.55814" lon="6.59697">
        <ele>212.2</ele>
        <time>2025-10-28T09:38:56.000Z</time>
      </trkpt>
      <trkpt lat="43.55814" lon="6.59697">
        <ele>212.2</ele>
        <time>2025-10-28T09:38:57.000Z</time>
      </trkpt>
      <trkpt lat="43.55814" lon="6.59697">
        <ele>212.2</ele>
        <time>2025-10-28T09:38:58.000Z</time>
      </trkpt>
      <trkpt lat="43.55813" lon="6.59697">
        <ele>212.2</ele>
        <time>2025-10-28T09:38:59.000Z</time>
      </trkpt>
      <trkpt lat="43.55812" lon="6.59697">
        <ele>212.2</ele>
        <time>2025-10-28T09:39:00.000Z</time>
      </trkpt>
      <trkpt lat="43.55812" lon="6.59698">
        <ele>212.2</ele>
        <time>2025-10-28T09:39:01.000Z</time>
      </trkpt>
      <trkpt lat="43.55812" lon="6.59698">
        <ele>212.2</ele>
        <time>2025-10-28T09:39:02.000Z</time>
      </trkpt>
      <trkpt lat="43.55812" lon="6.59698">
        <ele>212.2</ele>
        <time>2025-10-28T09:39:03.000Z</time>
      </trkpt>
      <trkpt lat="43.55812" lon="6.59698">
        <ele>212.2</ele>
        <time>2025-10-28T09:39:04.000Z</time>
      </trkpt>
      <trkpt lat="43.55811" lon="6.59698">
        <ele>212.2</ele>
        <time>2025-10-28T09:39:05.000Z</time>
      </trkpt>
      <trkpt lat="43.55811" lon="6.59698">
        <ele>212.2</ele>
        <time>2025-10-28T09:39:06.000Z</time>
      </trkpt>
      <trkpt lat="43.55811" lon="6.59698">
        <ele>212.2</ele>
        <time>2025-10-28T09:39:07.000Z</time>
      </trkpt>
      <trkpt lat="43.55811" lon="6.59698">
        <ele>212.2</ele>
        <time>2025-10-28T09:39:08.000Z</time>
      </trkpt>
      <trkpt lat="43.55811" lon="6.59699">
        <ele>212.2</ele>
        <time>2025-10-28T09:39:09.000Z</time>
      </trkpt>
      <trkpt lat="43.55811" lon="6.59699">
        <ele>212.2</ele>
        <time>2025-10-28T09:39:10.000Z</time>
      </trkpt>
      <trkpt lat="43.55811" lon="6.59699">
        <ele>212.2</ele>
        <time>2025-10-28T09:39:11.000Z</time>
      </trkpt>
      <trkpt lat="43.55811" lon="6.59699">
        <ele>212.2</ele>
        <time>2025-10-28T09:39:12.000Z</time>
      </trkpt>
      <trkpt lat="43.55811" lon="6.59699">
        <ele>212.2</ele>
        <time>2025-10-28T09:39:13.000Z</time>
      </trkpt>
      <trkpt lat="43.55811" lon="6.59699">
        <ele>212.2</ele>
        <time>2025-10-28T09:39:14.000Z</time>
      </trkpt>
      <trkpt lat="43.55811" lon="6.59699">
        <ele>212.2</ele>
        <time>2025-10-28T09:39:15.000Z</time>
      </trkpt>
      <trkpt lat="43.55812" lon="6.59698">
        <ele>212.3</ele>
        <time>2025-10-28T09:39:16.000Z</time>
      </trkpt>
      <trkpt lat="43.55814" lon="6.59695">
        <ele>212.3</ele>
        <time>2025-10-28T09:39:17.000Z</time>
      </trkpt>
      <trkpt lat="43.55816" lon="6.59691">
        <ele>212.4</ele>
        <time>2025-10-28T09:39:18.000Z</time>
      </trkpt>
      <trkpt lat="43.55818" lon="6.59687">
        <ele>212.6</ele>
        <time>2025-10-28T09:39:19.000Z</time>
      </trkpt>
      <trkpt lat="43.55821" lon="6.59682">
        <ele>212.8</ele>
        <time>2025-10-28T09:39:20.000Z</time>
      </trkpt>
      <trkpt lat="43.55823" lon="6.59676">
        <ele>213</ele>
        <time>2025-10-28T09:39:21.000Z</time>
      </trkpt>
      <trkpt lat="43.55825" lon="6.59669">
        <ele>213.3</ele>
        <time>2025-10-28T09:39:22.000Z</time>
      </trkpt>
      <trkpt lat="43.55827" lon="6.59663">
        <ele>213.6</ele>
        <time>2025-10-28T09:39:23.000Z</time>
      </trkpt>
      <trkpt lat="43.55829" lon="6.59658">
        <ele>213.9</ele>
        <time>2025-10-28T09:39:24.000Z</time>
      </trkpt>
      <trkpt lat="43.55831" lon="6.59652">
        <ele>214.3</ele>
        <time>2025-10-28T09:39:25.000Z</time>
      </trkpt>
      <trkpt lat="43.55833" lon="6.59647">
        <ele>214.6</ele>
        <time>2025-10-28T09:39:26.000Z</time>
      </trkpt>
      <trkpt lat="43.55835" lon="6.59642">
        <ele>215</ele>
        <time>2025-10-28T09:39:27.000Z</time>
      </trkpt>
      <trkpt lat="43.55836" lon="6.59637">
        <ele>215.3</ele>
        <time>2025-10-28T09:39:28.000Z</time>
      </trkpt>
      <trkpt lat="43.55837" lon="6.59632">
        <ele>215.7</ele>
        <time>2025-10-28T09:39:29.000Z</time>
      </trkpt>
      <trkpt lat="43.55838" lon="6.59627">
        <ele>216.1</ele>
        <time>2025-10-28T09:39:30.000Z</time>
      </trkpt>
      <trkpt lat="43.55839" lon="6.59622">
        <ele>216.4</ele>
        <time>2025-10-28T09:39:31.000Z</time>
      </trkpt>
      <trkpt lat="43.55841" lon="6.59618">
        <ele>216.8</ele>
        <time>2025-10-28T09:39:32.000Z</time>
      </trkpt>
      <trkpt lat="43.55842" lon="6.59613">
        <ele>217.2</ele>
        <time>2025-10-28T09:39:33.000Z</time>
      </trkpt>
      <trkpt lat="43.55844" lon="6.59608">
        <ele>217.6</ele>
        <time>2025-10-28T09:39:34.000Z</time>
      </trkpt>
      <trkpt lat="43.55846" lon="6.59604">
        <ele>217.9</ele>
        <time>2025-10-28T09:39:35.000Z</time>
      </trkpt>
      <trkpt lat="43.55848" lon="6.596">
        <ele>218.3</ele>
        <time>2025-10-28T09:39:36.000Z</time>
      </trkpt>
      <trkpt lat="43.55851" lon="6.59597">
        <ele>218.7</ele>
        <time>2025-10-28T09:39:37.000Z</time>
      </trkpt>
      <trkpt lat="43.55854" lon="6.59594">
        <ele>219</ele>
        <time>2025-10-28T09:39:38.000Z</time>
      </trkpt>
      <trkpt lat="43.55857" lon="6.5959">
        <ele>219.4</ele>
        <time>2025-10-28T09:39:39.000Z</time>
      </trkpt>
      <trkpt lat="43.55859" lon="6.59586">
        <ele>219.7</ele>
        <time>2025-10-28T09:39:40.000Z</time>
      </trkpt>
      <trkpt lat="43.55862" lon="6.59581">
        <ele>220</ele>
        <time>2025-10-28T09:39:41.000Z</time>
      </trkpt>
      <trkpt lat="43.55864" lon="6.59576">
        <ele>220.2</ele>
        <time>2025-10-28T09:39:42.000Z</time>
      </trkpt>
      <trkpt lat="43.55867" lon="6.59571">
        <ele>220.4</ele>
        <time>2025-10-28T09:39:43.000Z</time>
      </trkpt>
      <trkpt lat="43.5587" lon="6.59566">
        <ele>220.6</ele>
        <time>2025-10-28T09:39:44.000Z</time>
      </trkpt>
      <trkpt lat="43.55873" lon="6.59561">
        <ele>220.7</ele>
        <time>2025-10-28T09:39:45.000Z</time>
      </trkpt>
      <trkpt lat="43.55876" lon="6.59556">
        <ele>220.9</ele>
        <time>2025-10-28T09:39:46.000Z</time>
      </trkpt>
      <trkpt lat="43.55878" lon="6.5955">
        <ele>221</ele>
        <time>2025-10-28T09:39:47.000Z</time>
      </trkpt>
      <trkpt lat="43.5588" lon="6.59545">
        <ele>221.2</ele>
        <time>2025-10-28T09:39:48.000Z</time>
      </trkpt>
      <trkpt lat="43.55882" lon="6.59539">
        <ele>221.3</ele>
        <time>2025-10-28T09:39:49.000Z</time>
      </trkpt>
      <trkpt lat="43.55884" lon="6.59534">
        <ele>221.5</ele>
        <time>2025-10-28T09:39:50.000Z</time>
      </trkpt>
      <trkpt lat="43.55886" lon="6.5953">
        <ele>221.6</ele>
        <time>2025-10-28T09:39:51.000Z</time>
      </trkpt>
      <trkpt lat="43.55888" lon="6.59526">
        <ele>221.8</ele>
        <time>2025-10-28T09:39:52.000Z</time>
      </trkpt>
      <trkpt lat="43.55891" lon="6.59521">
        <ele>222</ele>
        <time>2025-10-28T09:39:53.000Z</time>
      </trkpt>
      <trkpt lat="43.55894" lon="6.59516">
        <ele>222.1</ele>
        <time>2025-10-28T09:39:54.000Z</time>
      </trkpt>
      <trkpt lat="43.55897" lon="6.59511">
        <ele>222.3</ele>
        <time>2025-10-28T09:39:55.000Z</time>
      </trkpt>
      <trkpt lat="43.559" lon="6.59506">
        <ele>222.4</ele>
        <time>2025-10-28T09:39:56.000Z</time>
      </trkpt>
      <trkpt lat="43.55903" lon="6.59501">
        <ele>222.5</ele>
        <time>2025-10-28T09:39:57.000Z</time>
      </trkpt>
      <trkpt lat="43.55905" lon="6.59496">
        <ele>222.7</ele>
        <time>2025-10-28T09:39:58.000Z</time>
      </trkpt>
      <trkpt lat="43.55907" lon="6.59491">
        <ele>222.8</ele>
        <time>2025-10-28T09:39:59.000Z</time>
      </trkpt>
      <trkpt lat="43.55909" lon="6.59485">
        <ele>223</ele>
        <time>2025-10-28T09:40:00.000Z</time>
      </trkpt>
      <trkpt lat="43.55911" lon="6.5948">
        <ele>223.1</ele>
        <time>2025-10-28T09:40:01.000Z</time>
      </trkpt>
      <trkpt lat="43.55913" lon="6.59475">
        <ele>223.2</ele>
        <time>2025-10-28T09:40:02.000Z</time>
      </trkpt>
      <trkpt lat="43.55914" lon="6.59469">
        <ele>223.4</ele>
        <time>2025-10-28T09:40:03.000Z</time>
      </trkpt>
      <trkpt lat="43.55915" lon="6.59463">
        <ele>223.5</ele>
        <time>2025-10-28T09:40:04.000Z</time>
      </trkpt>
      <trkpt lat="43.55917" lon="6.59458">
        <ele>223.6</ele>
        <time>2025-10-28T09:40:05.000Z</time>
      </trkpt>
      <trkpt lat="43.55918" lon="6.59452">
        <ele>223.8</ele>
        <time>2025-10-28T09:40:06.000Z</time>
      </trkpt>
      <trkpt lat="43.55919" lon="6.59446">
        <ele>223.9</ele>
        <time>2025-10-28T09:40:07.000Z</time>
      </trkpt>
      <trkpt lat="43.55921" lon="6.59441">
        <ele>224</ele>
        <time>2025-10-28T09:40:08.000Z</time>
      </trkpt>
      <trkpt lat="43.55924" lon="6.59436">
        <ele>224.2</ele>
        <time>2025-10-28T09:40:09.000Z</time>
      </trkpt>
      <trkpt lat="43.55926" lon="6.59431">
        <ele>224.3</ele>
        <time>2025-10-28T09:40:10.000Z</time>
      </trkpt>
      <trkpt lat="43.55929" lon="6.59426">
        <ele>224.4</ele>
        <time>2025-10-28T09:40:11.000Z</time>
      </trkpt>
      <trkpt lat="43.55931" lon="6.59422">
        <ele>224.5</ele>
        <time>2025-10-28T09:40:12.000Z</time>
      </trkpt>
      <trkpt lat="43.55934" lon="6.59417">
        <ele>224.5</ele>
        <time>2025-10-28T09:40:13.000Z</time>
      </trkpt>
      <trkpt lat="43.55937" lon="6.59412">
        <ele>224.6</ele>
        <time>2025-10-28T09:40:14.000Z</time>
      </trkpt>
      <trkpt lat="43.5594" lon="6.59407">
        <ele>224.6</ele>
        <time>2025-10-28T09:40:15.000Z</time>
      </trkpt>
      <trkpt lat="43.55943" lon="6.59403">
        <ele>224.7</ele>
        <time>2025-10-28T09:40:16.000Z</time>
      </trkpt>
      <trkpt lat="43.55947" lon="6.59399">
        <ele>224.7</ele>
        <time>2025-10-28T09:40:17.000Z</time>
      </trkpt>
      <trkpt lat="43.55951" lon="6.59394">
        <ele>224.7</ele>
        <time>2025-10-28T09:40:18.000Z</time>
      </trkpt>
      <trkpt lat="43.55954" lon="6.5939">
        <ele>224.7</ele>
        <time>2025-10-28T09:40:19.000Z</time>
      </trkpt>
      <trkpt lat="43.55958" lon="6.59385">
        <ele>224.7</ele>
        <time>2025-10-28T09:40:20.000Z</time>
      </trkpt>
      <trkpt lat="43.55961" lon="6.59379">
        <ele>224.7</ele>
        <time>2025-10-28T09:40:21.000Z</time>
      </trkpt>
      <trkpt lat="43.55965" lon="6.59374">
        <ele>224.7</ele>
        <time>2025-10-28T09:40:22.000Z</time>
      </trkpt>
      <trkpt lat="43.55968" lon="6.59369">
        <ele>224.7</ele>
        <time>2025-10-28T09:40:23.000Z</time>
      </trkpt>
      <trkpt lat="43.55971" lon="6.59362">
        <ele>224.8</ele>
        <time>2025-10-28T09:40:24.000Z</time>
      </trkpt>
      <trkpt lat="43.55973" lon="6.59356">
        <ele>224.8</ele>
        <time>2025-10-28T09:40:25.000Z</time>
      </trkpt>
      <trkpt lat="43.55975" lon="6.5935">
        <ele>224.8</ele>
        <time>2025-10-28T09:40:26.000Z</time>
      </trkpt>
      <trkpt lat="43.55976" lon="6.59343">
        <ele>224.9</ele>
        <time>2025-10-28T09:40:27.000Z</time>
      </trkpt>
      <trkpt lat="43.55977" lon="6.59336">
        <ele>224.9</ele>
        <time>2025-10-28T09:40:28.000Z</time>
      </trkpt>
      <trkpt lat="43.55978" lon="6.5933">
        <ele>225</ele>
        <time>2025-10-28T09:40:29.000Z</time>
      </trkpt>
      <trkpt lat="43.55978" lon="6.59323">
        <ele>225</ele>
        <time>2025-10-28T09:40:30.000Z</time>
      </trkpt>
      <trkpt lat="43.55978" lon="6.59317">
        <ele>225.1</ele>
        <time>2025-10-28T09:40:31.000Z</time>
      </trkpt>
      <trkpt lat="43.55979" lon="6.59311">
        <ele>225.1</ele>
        <time>2025-10-28T09:40:32.000Z</time>
      </trkpt>
      <trkpt lat="43.5598" lon="6.59305">
        <ele>225.1</ele>
        <time>2025-10-28T09:40:33.000Z</time>
      </trkpt>
      <trkpt lat="43.55983" lon="6.593">
        <ele>225.1</ele>
        <time>2025-10-28T09:40:34.000Z</time>
      </trkpt>
      <trkpt lat="43.55985" lon="6.59294">
        <ele>225.1</ele>
        <time>2025-10-28T09:40:35.000Z</time>
      </trkpt>
      <trkpt lat="43.55987" lon="6.59288">
        <ele>225.1</ele>
        <time>2025-10-28T09:40:36.000Z</time>
      </trkpt>
      <trkpt lat="43.55988" lon="6.59282">
        <ele>225.1</ele>
        <time>2025-10-28T09:40:37.000Z</time>
      </trkpt>
      <trkpt lat="43.55989" lon="6.59275">
        <ele>225.1</ele>
        <time>2025-10-28T09:40:38.000Z</time>
      </trkpt>
      <trkpt lat="43.5599" lon="6.59268">
        <ele>225.2</ele>
        <time>2025-10-28T09:40:39.000Z</time>
      </trkpt>
      <trkpt lat="43.5599" lon="6.5926">
        <ele>225.3</ele>
        <time>2025-10-28T09:40:40.000Z</time>
      </trkpt>
      <trkpt lat="43.5599" lon="6.59253">
        <ele>225.3</ele>
        <time>2025-10-28T09:40:41.000Z</time>
      </trkpt>
      <trkpt lat="43.5599" lon="6.59247">
        <ele>225.4</ele>
        <time>2025-10-28T09:40:42.000Z</time>
      </trkpt>
      <trkpt lat="43.55989" lon="6.59238">
        <ele>225.4</ele>
        <time>2025-10-28T09:40:43.000Z</time>
      </trkpt>
      <trkpt lat="43.55989" lon="6.59231">
        <ele>225.5</ele>
        <time>2025-10-28T09:40:44.000Z</time>
      </trkpt>
      <trkpt lat="43.55989" lon="6.59225">
        <ele>225.6</ele>
        <time>2025-10-28T09:40:45.000Z</time>
      </trkpt>
      <trkpt lat="43.55989" lon="6.59218">
        <ele>225.6</ele>
        <time>2025-10-28T09:40:46.000Z</time>
      </trkpt>
      <trkpt lat="43.55989" lon="6.59209">
        <ele>225.7</ele>
        <time>2025-10-28T09:40:47.000Z</time>
      </trkpt>
      <trkpt lat="43.55988" lon="6.59203">
        <ele>225.8</ele>
        <time>2025-10-28T09:40:48.000Z</time>
      </trkpt>
      <trkpt lat="43.55988" lon="6.59196">
        <ele>225.9</ele>
        <time>2025-10-28T09:40:49.000Z</time>
      </trkpt>
      <trkpt lat="43.55988" lon="6.59189">
        <ele>225.9</ele>
        <time>2025-10-28T09:40:50.000Z</time>
      </trkpt>
      <trkpt lat="43.55988" lon="6.59183">
        <ele>226</ele>
        <time>2025-10-28T09:40:51.000Z</time>
      </trkpt>
      <trkpt lat="43.55988" lon="6.59175">
        <ele>226.1</ele>
        <time>2025-10-28T09:40:52.000Z</time>
      </trkpt>
      <trkpt lat="43.55988" lon="6.5917">
        <ele>226.1</ele>
        <time>2025-10-28T09:40:53.000Z</time>
      </trkpt>
      <trkpt lat="43.55988" lon="6.59163">
        <ele>226.2</ele>
        <time>2025-10-28T09:40:54.000Z</time>
      </trkpt>
      <trkpt lat="43.55987" lon="6.59155">
        <ele>226.3</ele>
        <time>2025-10-28T09:40:55.000Z</time>
      </trkpt>
      <trkpt lat="43.55986" lon="6.59148">
        <ele>226.5</ele>
        <time>2025-10-28T09:40:56.000Z</time>
      </trkpt>
      <trkpt lat="43.55984" lon="6.59141">
        <ele>226.6</ele>
        <time>2025-10-28T09:40:57.000Z</time>
      </trkpt>
      <trkpt lat="43.5598" lon="6.59134">
        <ele>226.7</ele>
        <time>2025-10-28T09:40:58.000Z</time>
      </trkpt>
      <trkpt lat="43.55976" lon="6.59129">
        <ele>226.8</ele>
        <time>2025-10-28T09:40:59.000Z</time>
      </trkpt>
      <trkpt lat="43.55973" lon="6.59126">
        <ele>226.9</ele>
        <time>2025-10-28T09:41:00.000Z</time>
      </trkpt>
      <trkpt lat="43.55969" lon="6.59122">
        <ele>226.9</ele>
        <time>2025-10-28T09:41:01.000Z</time>
      </trkpt>
      <trkpt lat="43.55965" lon="6.59118">
        <ele>227</ele>
        <time>2025-10-28T09:41:02.000Z</time>
      </trkpt>
      <trkpt lat="43.55962" lon="6.59113">
        <ele>227</ele>
        <time>2025-10-28T09:41:03.000Z</time>
      </trkpt>
      <trkpt lat="43.55961" lon="6.59107">
        <ele>227.1</ele>
        <time>2025-10-28T09:41:04.000Z</time>
      </trkpt>
      <trkpt lat="43.5596" lon="6.59101">
        <ele>227.1</ele>
        <time>2025-10-28T09:41:05.000Z</time>
      </trkpt>
      <trkpt lat="43.55961" lon="6.59095">
        <ele>227.1</ele>
        <time>2025-10-28T09:41:06.000Z</time>
      </trkpt>
      <trkpt lat="43.55961" lon="6.59088">
        <ele>227.1</ele>
        <time>2025-10-28T09:41:07.000Z</time>
      </trkpt>
      <trkpt lat="43.55962" lon="6.59081">
        <ele>227.1</ele>
        <time>2025-10-28T09:41:08.000Z</time>
      </trkpt>
      <trkpt lat="43.55961" lon="6.59074">
        <ele>227.1</ele>
        <time>2025-10-28T09:41:09.000Z</time>
      </trkpt>
      <trkpt lat="43.55961" lon="6.59068">
        <ele>227.1</ele>
        <time>2025-10-28T09:41:10.000Z</time>
      </trkpt>
      <trkpt lat="43.5596" lon="6.59062">
        <ele>227.1</ele>
        <time>2025-10-28T09:41:11.000Z</time>
      </trkpt>
      <trkpt lat="43.5596" lon="6.59056">
        <ele>227.1</ele>
        <time>2025-10-28T09:41:12.000Z</time>
      </trkpt>
      <trkpt lat="43.55958" lon="6.59052">
        <ele>227.1</ele>
        <time>2025-10-28T09:41:13.000Z</time>
      </trkpt>
      <trkpt lat="43.55957" lon="6.59048">
        <ele>227.1</ele>
        <time>2025-10-28T09:41:14.000Z</time>
      </trkpt>
      <trkpt lat="43.55956" lon="6.59044">
        <ele>227.1</ele>
        <time>2025-10-28T09:41:15.000Z</time>
      </trkpt>
      <trkpt lat="43.55954" lon="6.5904">
        <ele>227.1</ele>
        <time>2025-10-28T09:41:16.000Z</time>
      </trkpt>
      <trkpt lat="43.55952" lon="6.59036">
        <ele>227.1</ele>
        <time>2025-10-28T09:41:17.000Z</time>
      </trkpt>
      <trkpt lat="43.5595" lon="6.59032">
        <ele>227</ele>
        <time>2025-10-28T09:41:18.000Z</time>
      </trkpt>
      <trkpt lat="43.55949" lon="6.59028">
        <ele>227</ele>
        <time>2025-10-28T09:41:19.000Z</time>
      </trkpt>
      <trkpt lat="43.55948" lon="6.59024">
        <ele>227</ele>
        <time>2025-10-28T09:41:20.000Z</time>
      </trkpt>
      <trkpt lat="43.55947" lon="6.5902">
        <ele>227</ele>
        <time>2025-10-28T09:41:21.000Z</time>
      </trkpt>
      <trkpt lat="43.55945" lon="6.59016">
        <ele>226.9</ele>
        <time>2025-10-28T09:41:22.000Z</time>
      </trkpt>
      <trkpt lat="43.55944" lon="6.59012">
        <ele>226.9</ele>
        <time>2025-10-28T09:41:23.000Z</time>
      </trkpt>
      <trkpt lat="43.55942" lon="6.59009">
        <ele>226.9</ele>
        <time>2025-10-28T09:41:24.000Z</time>
      </trkpt>
      <trkpt lat="43.5594" lon="6.59005">
        <ele>226.8</ele>
        <time>2025-10-28T09:41:25.000Z</time>
      </trkpt>
      <trkpt lat="43.55938" lon="6.59002">
        <ele>226.8</ele>
        <time>2025-10-28T09:41:26.000Z</time>
      </trkpt>
      <trkpt lat="43.55936" lon="6.58998">
        <ele>226.7</ele>
        <time>2025-10-28T09:41:27.000Z</time>
      </trkpt>
      <trkpt lat="43.55934" lon="6.58993">
        <ele>226.7</ele>
        <time>2025-10-28T09:41:28.000Z</time>
      </trkpt>
      <trkpt lat="43.55931" lon="6.58989">
        <ele>226.6</ele>
        <time>2025-10-28T09:41:29.000Z</time>
      </trkpt>
      <trkpt lat="43.55928" lon="6.58985">
        <ele>226.5</ele>
        <time>2025-10-28T09:41:30.000Z</time>
      </trkpt>
      <trkpt lat="43.55926" lon="6.58981">
        <ele>226.4</ele>
        <time>2025-10-28T09:41:31.000Z</time>
      </trkpt>
      <trkpt lat="43.55923" lon="6.58977">
        <ele>226.3</ele>
        <time>2025-10-28T09:41:32.000Z</time>
      </trkpt>
      <trkpt lat="43.55921" lon="6.58974">
        <ele>226.2</ele>
        <time>2025-10-28T09:41:33.000Z</time>
      </trkpt>
      <trkpt lat="43.55919" lon="6.5897">
        <ele>226.1</ele>
        <time>2025-10-28T09:41:34.000Z</time>
      </trkpt>
      <trkpt lat="43.55916" lon="6.58967">
        <ele>226.1</ele>
        <time>2025-10-28T09:41:35.000Z</time>
      </trkpt>
      <trkpt lat="43.55913" lon="6.58963">
        <ele>226</ele>
        <time>2025-10-28T09:41:36.000Z</time>
      </trkpt>
      <trkpt lat="43.5591" lon="6.5896">
        <ele>225.9</ele>
        <time>2025-10-28T09:41:37.000Z</time>
      </trkpt>
      <trkpt lat="43.55906" lon="6.58957">
        <ele>225.8</ele>
        <time>2025-10-28T09:41:38.000Z</time>
      </trkpt>
      <trkpt lat="43.55902" lon="6.58955">
        <ele>225.8</ele>
        <time>2025-10-28T09:41:39.000Z</time>
      </trkpt>
      <trkpt lat="43.55898" lon="6.58953">
        <ele>225.7</ele>
        <time>2025-10-28T09:41:40.000Z</time>
      </trkpt>
      <trkpt lat="43.55894" lon="6.58951">
        <ele>225.6</ele>
        <time>2025-10-28T09:41:41.000Z</time>
      </trkpt>
      <trkpt lat="43.5589" lon="6.58949">
        <ele>225.5</ele>
        <time>2025-10-28T09:41:42.000Z</time>
      </trkpt>
      <trkpt lat="43.55886" lon="6.58948">
        <ele>225.4</ele>
        <time>2025-10-28T09:41:43.000Z</time>
      </trkpt>
      <trkpt lat="43.55883" lon="6.58946">
        <ele>225.3</ele>
        <time>2025-10-28T09:41:44.000Z</time>
      </trkpt>
      <trkpt lat="43.55879" lon="6.58943">
        <ele>225.3</ele>
        <time>2025-10-28T09:41:45.000Z</time>
      </trkpt>
      <trkpt lat="43.55876" lon="6.58939">
        <ele>225.2</ele>
        <time>2025-10-28T09:41:46.000Z</time>
      </trkpt>
      <trkpt lat="43.55874" lon="6.58935">
        <ele>225.1</ele>
        <time>2025-10-28T09:41:47.000Z</time>
      </trkpt>
      <trkpt lat="43.55871" lon="6.58931">
        <ele>225</ele>
        <time>2025-10-28T09:41:48.000Z</time>
      </trkpt>
      <trkpt lat="43.55869" lon="6.58926">
        <ele>224.8</ele>
        <time>2025-10-28T09:41:49.000Z</time>
      </trkpt>
      <trkpt lat="43.55866" lon="6.58921">
        <ele>224.7</ele>
        <time>2025-10-28T09:41:50.000Z</time>
      </trkpt>
      <trkpt lat="43.55863" lon="6.58917">
        <ele>224.6</ele>
        <time>2025-10-28T09:41:51.000Z</time>
      </trkpt>
      <trkpt lat="43.55861" lon="6.58913">
        <ele>224.4</ele>
        <time>2025-10-28T09:41:52.000Z</time>
      </trkpt>
      <trkpt lat="43.55858" lon="6.58908">
        <ele>224.3</ele>
        <time>2025-10-28T09:41:53.000Z</time>
      </trkpt>
      <trkpt lat="43.55855" lon="6.58904">
        <ele>224.2</ele>
        <time>2025-10-28T09:41:54.000Z</time>
      </trkpt>
      <trkpt lat="43.55853" lon="6.589">
        <ele>224</ele>
        <time>2025-10-28T09:41:55.000Z</time>
      </trkpt>
      <trkpt lat="43.5585" lon="6.58895">
        <ele>223.8</ele>
        <time>2025-10-28T09:41:56.000Z</time>
      </trkpt>
      <trkpt lat="43.55847" lon="6.58891">
        <ele>223.7</ele>
        <time>2025-10-28T09:41:57.000Z</time>
      </trkpt>
      <trkpt lat="43.55843" lon="6.58886">
        <ele>223.5</ele>
        <time>2025-10-28T09:41:58.000Z</time>
      </trkpt>
      <trkpt lat="43.5584" lon="6.58881">
        <ele>223.3</ele>
        <time>2025-10-28T09:41:59.000Z</time>
      </trkpt>
      <trkpt lat="43.55836" lon="6.58876">
        <ele>223.1</ele>
        <time>2025-10-28T09:42:00.000Z</time>
      </trkpt>
      <trkpt lat="43.55832" lon="6.58872">
        <ele>222.9</ele>
        <time>2025-10-28T09:42:01.000Z</time>
      </trkpt>
      <trkpt lat="43.55829" lon="6.58867">
        <ele>222.8</ele>
        <time>2025-10-28T09:42:02.000Z</time>
      </trkpt>
      <trkpt lat="43.55826" lon="6.58864">
        <ele>222.7</ele>
        <time>2025-10-28T09:42:03.000Z</time>
      </trkpt>
      <trkpt lat="43.55822" lon="6.58861">
        <ele>222.6</ele>
        <time>2025-10-28T09:42:04.000Z</time>
      </trkpt>
      <trkpt lat="43.55818" lon="6.58859">
        <ele>222.5</ele>
        <time>2025-10-28T09:42:05.000Z</time>
      </trkpt>
      <trkpt lat="43.55814" lon="6.58857">
        <ele>222.4</ele>
        <time>2025-10-28T09:42:06.000Z</time>
      </trkpt>
      <trkpt lat="43.5581" lon="6.58857">
        <ele>222.2</ele>
        <time>2025-10-28T09:42:07.000Z</time>
      </trkpt>
      <trkpt lat="43.55806" lon="6.58856">
        <ele>222.1</ele>
        <time>2025-10-28T09:42:08.000Z</time>
      </trkpt>
      <trkpt lat="43.55801" lon="6.58856">
        <ele>222</ele>
        <time>2025-10-28T09:42:09.000Z</time>
      </trkpt>
      <trkpt lat="43.55797" lon="6.58856">
        <ele>221.9</ele>
        <time>2025-10-28T09:42:10.000Z</time>
      </trkpt>
      <trkpt lat="43.55793" lon="6.58856">
        <ele>221.8</ele>
        <time>2025-10-28T09:42:11.000Z</time>
      </trkpt>
      <trkpt lat="43.5579" lon="6.58857">
        <ele>221.7</ele>
        <time>2025-10-28T09:42:12.000Z</time>
      </trkpt>
      <trkpt lat="43.55787" lon="6.58858">
        <ele>221.6</ele>
        <time>2025-10-28T09:42:13.000Z</time>
      </trkpt>
      <trkpt lat="43.55784" lon="6.5886">
        <ele>221.5</ele>
        <time>2025-10-28T09:42:14.000Z</time>
      </trkpt>
      <trkpt lat="43.55782" lon="6.58861">
        <ele>221.5</ele>
        <time>2025-10-28T09:42:15.000Z</time>
      </trkpt>
      <trkpt lat="43.55781" lon="6.58861">
        <ele>221.5</ele>
        <time>2025-10-28T09:42:16.000Z</time>
      </trkpt>
      <trkpt lat="43.5578" lon="6.58862">
        <ele>221.5</ele>
        <time>2025-10-28T09:42:17.000Z</time>
      </trkpt>
      <trkpt lat="43.5578" lon="6.58862">
        <ele>221.5</ele>
        <time>2025-10-28T09:42:18.000Z</time>
      </trkpt>
      <trkpt lat="43.5578" lon="6.58862">
        <ele>221.5</ele>
        <time>2025-10-28T09:42:19.000Z</time>
      </trkpt>
      <trkpt lat="43.5578" lon="6.58862">
        <ele>221.5</ele>
        <time>2025-10-28T09:42:20.000Z</time>
      </trkpt>
      <trkpt lat="43.5578" lon="6.58862">
        <ele>221.5</ele>
        <time>2025-10-28T09:42:21.000Z</time>
      </trkpt>
      <trkpt lat="43.5578" lon="6.58862">
        <ele>221.5</ele>
        <time>2025-10-28T09:42:22.000Z</time>
      </trkpt>
      <trkpt lat="43.55781" lon="6.58862">
        <ele>221.5</ele>
        <time>2025-10-28T09:42:23.000Z</time>
      </trkpt>
      <trkpt lat="43.55781" lon="6.58863">
        <ele>221.5</ele>
        <time>2025-10-28T09:42:24.000Z</time>
      </trkpt>
      <trkpt lat="43.55781" lon="6.58863">
        <ele>221.5</ele>
        <time>2025-10-28T09:42:25.000Z</time>
      </trkpt>
      <trkpt lat="43.55781" lon="6.58863">
        <ele>221.5</ele>
        <time>2025-10-28T09:42:26.000Z</time>
      </trkpt>
      <trkpt lat="43.55781" lon="6.58863">
        <ele>221.5</ele>
        <time>2025-10-28T09:42:27.000Z</time>
      </trkpt>
      <trkpt lat="43.55782" lon="6.58863">
        <ele>221.5</ele>
        <time>2025-10-28T09:42:28.000Z</time>
      </trkpt>
      <trkpt lat="43.55782" lon="6.58863">
        <ele>221.5</ele>
        <time>2025-10-28T09:42:29.000Z</time>
      </trkpt>
      <trkpt lat="43.55782" lon="6.58863">
        <ele>221.5</ele>
        <time>2025-10-28T09:42:30.000Z</time>
      </trkpt>
      <trkpt lat="43.55782" lon="6.58863">
        <ele>221.5</ele>
        <time>2025-10-28T09:42:31.000Z</time>
      </trkpt>
      <trkpt lat="43.55782" lon="6.58863">
        <ele>221.5</ele>
        <time>2025-10-28T09:42:32.000Z</time>
      </trkpt>
      <trkpt lat="43.55782" lon="6.58863">
        <ele>221.5</ele>
        <time>2025-10-28T09:42:33.000Z</time>
      </trkpt>
      <trkpt lat="43.55782" lon="6.58863">
        <ele>221.5</ele>
        <time>2025-10-28T09:42:34.000Z</time>
      </trkpt>
      <trkpt lat="43.55782" lon="6.58863">
        <ele>221.5</ele>
        <time>2025-10-28T09:42:35.000Z</time>
      </trkpt>
      <trkpt lat="43.55782" lon="6.58863">
        <ele>221.5</ele>
        <time>2025-10-28T09:42:36.000Z</time>
      </trkpt>
      <trkpt lat="43.55782" lon="6.58863">
        <ele>221.5</ele>
        <time>2025-10-28T09:42:37.000Z</time>
      </trkpt>
      <trkpt lat="43.55782" lon="6.58863">
        <ele>221.5</ele>
        <time>2025-10-28T09:42:38.000Z</time>
      </trkpt>
      <trkpt lat="43.55782" lon="6.58863">
        <ele>221.5</ele>
        <time>2025-10-28T09:42:39.000Z</time>
      </trkpt>
      <trkpt lat="43.55782" lon="6.58863">
        <ele>221.5</ele>
        <time>2025-10-28T09:42:40.000Z</time>
      </trkpt>
      <trkpt lat="43.55782" lon="6.58863">
        <ele>221.5</ele>
        <time>2025-10-28T09:42:41.000Z</time>
      </trkpt>
      <trkpt lat="43.55782" lon="6.58863">
        <ele>221.5</ele>
        <time>2025-10-28T09:42:42.000Z</time>
      </trkpt>
      <trkpt lat="43.55782" lon="6.58863">
        <ele>221.4</ele>
        <time>2025-10-28T09:42:43.000Z</time>
      </trkpt>
      <trkpt lat="43.55782" lon="6.58863">
        <ele>221.4</ele>
        <time>2025-10-28T09:42:44.000Z</time>
      </trkpt>
      <trkpt lat="43.55782" lon="6.58863">
        <ele>221.4</ele>
        <time>2025-10-28T09:42:45.000Z</time>
      </trkpt>
      <trkpt lat="43.55781" lon="6.58863">
        <ele>221.4</ele>
        <time>2025-10-28T09:42:46.000Z</time>
      </trkpt>
      <trkpt lat="43.55781" lon="6.58864">
        <ele>221.4</ele>
        <time>2025-10-28T09:42:47.000Z</time>
      </trkpt>
      <trkpt lat="43.55781" lon="6.58864">
        <ele>221.4</ele>
        <time>2025-10-28T09:42:48.000Z</time>
      </trkpt>
      <trkpt lat="43.55781" lon="6.58864">
        <ele>221.4</ele>
        <time>2025-10-28T09:42:49.000Z</time>
      </trkpt>
      <trkpt lat="43.55781" lon="6.58864">
        <ele>221.4</ele>
        <time>2025-10-28T09:42:50.000Z</time>
      </trkpt>
      <trkpt lat="43.55781" lon="6.58864">
        <ele>221.4</ele>
        <time>2025-10-28T09:42:51.000Z</time>
      </trkpt>
      <trkpt lat="43.55781" lon="6.58864">
        <ele>221.4</ele>
        <time>2025-10-28T09:42:52.000Z</time>
      </trkpt>
      <trkpt lat="43.55782" lon="6.58864">
        <ele>221.4</ele>
        <time>2025-10-28T09:42:53.000Z</time>
      </trkpt>
      <trkpt lat="43.55782" lon="6.58864">
        <ele>221.4</ele>
        <time>2025-10-28T09:42:54.000Z</time>
      </trkpt>
      <trkpt lat="43.55782" lon="6.58864">
        <ele>221.4</ele>
        <time>2025-10-28T09:42:55.000Z</time>
      </trkpt>
      <trkpt lat="43.55782" lon="6.58864">
        <ele>221.4</ele>
        <time>2025-10-28T09:42:56.000Z</time>
      </trkpt>
      <trkpt lat="43.55782" lon="6.58865">
        <ele>221.4</ele>
        <time>2025-10-28T09:42:57.000Z</time>
      </trkpt>
      <trkpt lat="43.55782" lon="6.58865">
        <ele>221.4</ele>
        <time>2025-10-28T09:42:58.000Z</time>
      </trkpt>
      <trkpt lat="43.55782" lon="6.58865">
        <ele>221.4</ele>
        <time>2025-10-28T09:42:59.000Z</time>
      </trkpt>
      <trkpt lat="43.55782" lon="6.58865">
        <ele>221.4</ele>
        <time>2025-10-28T09:43:00.000Z</time>
      </trkpt>
      <trkpt lat="43.55782" lon="6.58865">
        <ele>221.4</ele>
        <time>2025-10-28T09:43:01.000Z</time>
      </trkpt>
      <trkpt lat="43.55782" lon="6.58865">
        <ele>221.4</ele>
        <time>2025-10-28T09:43:02.000Z</time>
      </trkpt>
      <trkpt lat="43.55782" lon="6.58865">
        <ele>221.4</ele>
        <time>2025-10-28T09:43:03.000Z</time>
      </trkpt>
      <trkpt lat="43.55782" lon="6.58865">
        <ele>221.4</ele>
        <time>2025-10-28T09:43:04.000Z</time>
      </trkpt>
      <trkpt lat="43.55782" lon="6.58865">
        <ele>221.4</ele>
        <time>2025-10-28T09:43:05.000Z</time>
      </trkpt>
      <trkpt lat="43.55782" lon="6.58865">
        <ele>221.4</ele>
        <time>2025-10-28T09:43:06.000Z</time>
      </trkpt>
      <trkpt lat="43.55782" lon="6.58865">
        <ele>221.4</ele>
        <time>2025-10-28T09:43:07.000Z</time>
      </trkpt>
      <trkpt lat="43.55782" lon="6.58865">
        <ele>221.4</ele>
        <time>2025-10-28T09:43:08.000Z</time>
      </trkpt>
      <trkpt lat="43.55782" lon="6.58865">
        <ele>221.4</ele>
        <time>2025-10-28T09:43:09.000Z</time>
      </trkpt>
      <trkpt lat="43.55782" lon="6.58865">
        <ele>221.4</ele>
        <time>2025-10-28T09:43:10.000Z</time>
      </trkpt>
      <trkpt lat="43.55782" lon="6.58865">
        <ele>221.4</ele>
        <time>2025-10-28T09:43:11.000Z</time>
      </trkpt>
      <trkpt lat="43.55782" lon="6.58865">
        <ele>221.4</ele>
        <time>2025-10-28T09:43:12.000Z</time>
      </trkpt>
      <trkpt lat="43.55783" lon="6.58865">
        <ele>221.4</ele>
        <time>2025-10-28T09:43:13.000Z</time>
      </trkpt>
      <trkpt lat="43.55783" lon="6.58865">
        <ele>221.4</ele>
        <time>2025-10-28T09:43:14.000Z</time>
      </trkpt>
      <trkpt lat="43.55783" lon="6.58865">
        <ele>221.4</ele>
        <time>2025-10-28T09:43:15.000Z</time>
      </trkpt>
      <trkpt lat="43.55783" lon="6.58865">
        <ele>221.4</ele>
        <time>2025-10-28T09:43:16.000Z</time>
      </trkpt>
      <trkpt lat="43.55783" lon="6.58865">
        <ele>221.4</ele>
        <time>2025-10-28T09:43:17.000Z</time>
      </trkpt>
      <trkpt lat="43.55783" lon="6.58865">
        <ele>221.4</ele>
        <time>2025-10-28T09:43:18.000Z</time>
      </trkpt>
      <trkpt lat="43.55783" lon="6.58864">
        <ele>221.4</ele>
        <time>2025-10-28T09:43:19.000Z</time>
      </trkpt>
      <trkpt lat="43.55783" lon="6.58864">
        <ele>221.4</ele>
        <time>2025-10-28T09:43:20.000Z</time>
      </trkpt>
      <trkpt lat="43.55783" lon="6.58864">
        <ele>221.4</ele>
        <time>2025-10-28T09:43:21.000Z</time>
      </trkpt>
      <trkpt lat="43.55783" lon="6.58864">
        <ele>221.4</ele>
        <time>2025-10-28T09:43:22.000Z</time>
      </trkpt>
      <trkpt lat="43.55783" lon="6.58864">
        <ele>221.4</ele>
        <time>2025-10-28T09:43:23.000Z</time>
      </trkpt>
      <trkpt lat="43.55783" lon="6.58864">
        <ele>221.4</ele>
        <time>2025-10-28T09:43:24.000Z</time>
      </trkpt>
      <trkpt lat="43.55783" lon="6.58863">
        <ele>221.4</ele>
        <time>2025-10-28T09:43:25.000Z</time>
      </trkpt>
      <trkpt lat="43.55783" lon="6.58863">
        <ele>221.4</ele>
        <time>2025-10-28T09:43:26.000Z</time>
      </trkpt>
      <trkpt lat="43.55783" lon="6.58863">
        <ele>221.4</ele>
        <time>2025-10-28T09:43:27.000Z</time>
      </trkpt>
      <trkpt lat="43.55783" lon="6.58863">
        <ele>221.4</ele>
        <time>2025-10-28T09:43:28.000Z</time>
      </trkpt>
      <trkpt lat="43.55783" lon="6.58863">
        <ele>221.4</ele>
        <time>2025-10-28T09:43:29.000Z</time>
      </trkpt>
      <trkpt lat="43.55783" lon="6.58863">
        <ele>221.4</ele>
        <time>2025-10-28T09:43:30.000Z</time>
      </trkpt>
      <trkpt lat="43.55783" lon="6.58863">
        <ele>221.4</ele>
        <time>2025-10-28T09:43:31.000Z</time>
      </trkpt>
      <trkpt lat="43.55783" lon="6.58863">
        <ele>221.4</ele>
        <time>2025-10-28T09:43:32.000Z</time>
      </trkpt>
      <trkpt lat="43.55783" lon="6.58863">
        <ele>221.4</ele>
        <time>2025-10-28T09:43:33.000Z</time>
      </trkpt>
      <trkpt lat="43.55783" lon="6.58863">
        <ele>221.4</ele>
        <time>2025-10-28T09:43:34.000Z</time>
      </trkpt>
      <trkpt lat="43.55783" lon="6.58863">
        <ele>221.4</ele>
        <time>2025-10-28T09:43:35.000Z</time>
      </trkpt>
      <trkpt lat="43.55783" lon="6.58863">
        <ele>221.4</ele>
        <time>2025-10-28T09:43:36.000Z</time>
      </trkpt>
      <trkpt lat="43.55783" lon="6.58863">
        <ele>221.4</ele>
        <time>2025-10-28T09:43:37.000Z</time>
      </trkpt>
      <trkpt lat="43.55783" lon="6.58863">
        <ele>221.4</ele>
        <time>2025-10-28T09:43:38.000Z</time>
      </trkpt>
      <trkpt lat="43.55783" lon="6.58863">
        <ele>221.4</ele>
        <time>2025-10-28T09:43:39.000Z</time>
      </trkpt>
      <trkpt lat="43.55783" lon="6.58863">
        <ele>221.4</ele>
        <time>2025-10-28T09:43:40.000Z</time>
      </trkpt>
      <trkpt lat="43.55783" lon="6.58864">
        <ele>221.4</ele>
        <time>2025-10-28T09:43:41.000Z</time>
      </trkpt>
      <trkpt lat="43.55783" lon="6.58864">
        <ele>221.4</ele>
        <time>2025-10-28T09:43:42.000Z</time>
      </trkpt>
      <trkpt lat="43.55783" lon="6.58864">
        <ele>221.4</ele>
        <time>2025-10-28T09:43:43.000Z</time>
      </trkpt>
      <trkpt lat="43.55783" lon="6.58864">
        <ele>221.4</ele>
        <time>2025-10-28T09:43:44.000Z</time>
      </trkpt>
      <trkpt lat="43.55783" lon="6.58864">
        <ele>221.4</ele>
        <time>2025-10-28T09:43:45.000Z</time>
      </trkpt>
      <trkpt lat="43.55783" lon="6.58865">
        <ele>221.4</ele>
        <time>2025-10-28T09:43:46.000Z</time>
      </trkpt>
      <trkpt lat="43.55783" lon="6.58865">
        <ele>221.4</ele>
        <time>2025-10-28T09:43:47.000Z</time>
      </trkpt>
      <trkpt lat="43.55783" lon="6.58865">
        <ele>221.4</ele>
        <time>2025-10-28T09:43:48.000Z</time>
      </trkpt>
      <trkpt lat="43.55783" lon="6.58865">
        <ele>221.4</ele>
        <time>2025-10-28T09:43:49.000Z</time>
      </trkpt>
      <trkpt lat="43.55784" lon="6.58866">
        <ele>221.4</ele>
        <time>2025-10-28T09:43:50.000Z</time>
      </trkpt>
      <trkpt lat="43.55784" lon="6.58866">
        <ele>221.4</ele>
        <time>2025-10-28T09:43:51.000Z</time>
      </trkpt>
      <trkpt lat="43.55784" lon="6.58866">
        <ele>221.4</ele>
        <time>2025-10-28T09:43:52.000Z</time>
      </trkpt>
      <trkpt lat="43.55784" lon="6.58866">
        <ele>221.4</ele>
        <time>2025-10-28T09:43:53.000Z</time>
      </trkpt>
      <trkpt lat="43.55784" lon="6.58866">
        <ele>221.4</ele>
        <time>2025-10-28T09:43:54.000Z</time>
      </trkpt>
      <trkpt lat="43.55784" lon="6.58867">
        <ele>221.4</ele>
        <time>2025-10-28T09:43:55.000Z</time>
      </trkpt>
      <trkpt lat="43.55784" lon="6.58867">
        <ele>221.4</ele>
        <time>2025-10-28T09:43:56.000Z</time>
      </trkpt>
      <trkpt lat="43.55784" lon="6.58867">
        <ele>221.4</ele>
        <time>2025-10-28T09:43:57.000Z</time>
      </trkpt>
      <trkpt lat="43.55784" lon="6.58867">
        <ele>221.4</ele>
        <time>2025-10-28T09:43:58.000Z</time>
      </trkpt>
      <trkpt lat="43.55784" lon="6.58867">
        <ele>221.4</ele>
        <time>2025-10-28T09:43:59.000Z</time>
      </trkpt>
      <trkpt lat="43.55784" lon="6.58867">
        <ele>221.4</ele>
        <time>2025-10-28T09:44:00.000Z</time>
      </trkpt>
      <trkpt lat="43.55784" lon="6.58867">
        <ele>221.4</ele>
        <time>2025-10-28T09:44:01.000Z</time>
      </trkpt>
      <trkpt lat="43.55784" lon="6.58867">
        <ele>221.4</ele>
        <time>2025-10-28T09:44:02.000Z</time>
      </trkpt>
      <trkpt lat="43.55784" lon="6.58867">
        <ele>221.4</ele>
        <time>2025-10-28T09:44:03.000Z</time>
      </trkpt>
      <trkpt lat="43.55784" lon="6.58867">
        <ele>221.4</ele>
        <time>2025-10-28T09:44:04.000Z</time>
      </trkpt>
      <trkpt lat="43.55784" lon="6.58867">
        <ele>221.4</ele>
        <time>2025-10-28T09:44:05.000Z</time>
      </trkpt>
      <trkpt lat="43.55784" lon="6.58867">
        <ele>221.4</ele>
        <time>2025-10-28T09:44:06.000Z</time>
      </trkpt>
      <trkpt lat="43.55784" lon="6.58867">
        <ele>221.4</ele>
        <time>2025-10-28T09:44:07.000Z</time>
      </trkpt>
      <trkpt lat="43.55784" lon="6.58867">
        <ele>221.4</ele>
        <time>2025-10-28T09:44:08.000Z</time>
      </trkpt>
      <trkpt lat="43.55784" lon="6.58867">
        <ele>221.4</ele>
        <time>2025-10-28T09:44:09.000Z</time>
      </trkpt>
      <trkpt lat="43.55784" lon="6.58867">
        <ele>221.4</ele>
        <time>2025-10-28T09:44:10.000Z</time>
      </trkpt>
      <trkpt lat="43.55784" lon="6.58867">
        <ele>221.4</ele>
        <time>2025-10-28T09:44:11.000Z</time>
      </trkpt>
      <trkpt lat="43.55784" lon="6.58867">
        <ele>221.4</ele>
        <time>2025-10-28T09:44:12.000Z</time>
      </trkpt>
      <trkpt lat="43.55784" lon="6.58867">
        <ele>221.4</ele>
        <time>2025-10-28T09:44:13.000Z</time>
      </trkpt>
      <trkpt lat="43.55784" lon="6.58867">
        <ele>221.4</ele>
        <time>2025-10-28T09:44:14.000Z</time>
      </trkpt>
      <trkpt lat="43.55784" lon="6.58867">
        <ele>221.4</ele>
        <time>2025-10-28T09:44:15.000Z</time>
      </trkpt>
      <trkpt lat="43.55784" lon="6.58867">
        <ele>221.4</ele>
        <time>2025-10-28T09:44:16.000Z</time>
      </trkpt>
      <trkpt lat="43.55784" lon="6.58866">
        <ele>221.4</ele>
        <time>2025-10-28T09:44:17.000Z</time>
      </trkpt>
      <trkpt lat="43.55784" lon="6.58866">
        <ele>221.4</ele>
        <time>2025-10-28T09:44:18.000Z</time>
      </trkpt>
      <trkpt lat="43.55784" lon="6.58866">
        <ele>221.4</ele>
        <time>2025-10-28T09:44:19.000Z</time>
      </trkpt>
      <trkpt lat="43.55784" lon="6.58866">
        <ele>221.4</ele>
        <time>2025-10-28T09:44:20.000Z</time>
      </trkpt>
      <trkpt lat="43.55784" lon="6.58866">
        <ele>221.4</ele>
        <time>2025-10-28T09:44:21.000Z</time>
      </trkpt>
      <trkpt lat="43.55783" lon="6.58866">
        <ele>221.4</ele>
        <time>2025-10-28T09:44:22.000Z</time>
      </trkpt>
      <trkpt lat="43.55783" lon="6.58865">
        <ele>221.4</ele>
        <time>2025-10-28T09:44:23.000Z</time>
      </trkpt>
      <trkpt lat="43.55783" lon="6.58865">
        <ele>221.4</ele>
        <time>2025-10-28T09:44:24.000Z</time>
      </trkpt>
      <trkpt lat="43.55782" lon="6.58865">
        <ele>221.4</ele>
        <time>2025-10-28T09:44:25.000Z</time>
      </trkpt>
      <trkpt lat="43.55782" lon="6.58865">
        <ele>221.4</ele>
        <time>2025-10-28T09:44:26.000Z</time>
      </trkpt>
      <trkpt lat="43.55782" lon="6.58864">
        <ele>221.4</ele>
        <time>2025-10-28T09:44:27.000Z</time>
      </trkpt>
      <trkpt lat="43.55782" lon="6.58864">
        <ele>221.4</ele>
        <time>2025-10-28T09:44:28.000Z</time>
      </trkpt>
      <trkpt lat="43.55782" lon="6.58864">
        <ele>221.4</ele>
        <time>2025-10-28T09:44:29.000Z</time>
      </trkpt>
      <trkpt lat="43.55782" lon="6.58864">
        <ele>221.4</ele>
        <time>2025-10-28T09:44:30.000Z</time>
      </trkpt>
      <trkpt lat="43.55782" lon="6.58863">
        <ele>221.4</ele>
        <time>2025-10-28T09:44:31.000Z</time>
      </trkpt>
      <trkpt lat="43.55782" lon="6.58863">
        <ele>221.4</ele>
        <time>2025-10-28T09:44:32.000Z</time>
      </trkpt>
      <trkpt lat="43.55782" lon="6.58863">
        <ele>221.4</ele>
        <time>2025-10-28T09:44:33.000Z</time>
      </trkpt>
      <trkpt lat="43.55782" lon="6.58863">
        <ele>221.4</ele>
        <time>2025-10-28T09:44:34.000Z</time>
      </trkpt>
      <trkpt lat="43.55782" lon="6.58863">
        <ele>221.4</ele>
        <time>2025-10-28T09:44:35.000Z</time>
      </trkpt>
      <trkpt lat="43.55782" lon="6.58863">
        <ele>221.4</ele>
        <time>2025-10-28T09:44:36.000Z</time>
      </trkpt>
      <trkpt lat="43.55782" lon="6.58863">
        <ele>221.4</ele>
        <time>2025-10-28T09:44:37.000Z</time>
      </trkpt>
      <trkpt lat="43.55782" lon="6.58863">
        <ele>221.4</ele>
        <time>2025-10-28T09:44:38.000Z</time>
      </trkpt>
      <trkpt lat="43.55781" lon="6.58863">
        <ele>221.4</ele>
        <time>2025-10-28T09:44:39.000Z</time>
      </trkpt>
      <trkpt lat="43.55781" lon="6.58863">
        <ele>221.4</ele>
        <time>2025-10-28T09:44:40.000Z</time>
      </trkpt>
      <trkpt lat="43.55781" lon="6.58863">
        <ele>221.4</ele>
        <time>2025-10-28T09:44:41.000Z</time>
      </trkpt>
      <trkpt lat="43.55781" lon="6.58863">
        <ele>221.4</ele>
        <time>2025-10-28T09:44:42.000Z</time>
      </trkpt>
      <trkpt lat="43.55781" lon="6.58863">
        <ele>221.4</ele>
        <time>2025-10-28T09:44:43.000Z</time>
      </trkpt>
      <trkpt lat="43.55781" lon="6.58863">
        <ele>221.4</ele>
        <time>2025-10-28T09:44:44.000Z</time>
      </trkpt>
      <trkpt lat="43.55781" lon="6.58863">
        <ele>221.4</ele>
        <time>2025-10-28T09:44:45.000Z</time>
      </trkpt>
      <trkpt lat="43.55782" lon="6.58863">
        <ele>221.4</ele>
        <time>2025-10-28T09:44:46.000Z</time>
      </trkpt>
      <trkpt lat="43.55782" lon="6.58863">
        <ele>221.4</ele>
        <time>2025-10-28T09:44:47.000Z</time>
      </trkpt>
      <trkpt lat="43.55782" lon="6.58863">
        <ele>221.4</ele>
        <time>2025-10-28T09:44:48.000Z</time>
      </trkpt>
      <trkpt lat="43.55782" lon="6.58863">
        <ele>221.4</ele>
        <time>2025-10-28T09:44:49.000Z</time>
      </trkpt>
      <trkpt lat="43.55782" lon="6.58863">
        <ele>221.4</ele>
        <time>2025-10-28T09:44:50.000Z</time>
      </trkpt>
      <trkpt lat="43.55782" lon="6.58863">
        <ele>221.4</ele>
        <time>2025-10-28T09:44:51.000Z</time>
      </trkpt>
      <trkpt lat="43.55782" lon="6.58863">
        <ele>221.4</ele>
        <time>2025-10-28T09:44:52.000Z</time>
      </trkpt>
      <trkpt lat="43.55782" lon="6.58863">
        <ele>221.4</ele>
        <time>2025-10-28T09:44:53.000Z</time>
      </trkpt>
      <trkpt lat="43.55782" lon="6.58863">
        <ele>221.4</ele>
        <time>2025-10-28T09:44:54.000Z</time>
      </trkpt>
      <trkpt lat="43.55782" lon="6.58863">
        <ele>221.4</ele>
        <time>2025-10-28T09:44:55.000Z</time>
      </trkpt>
      <trkpt lat="43.55782" lon="6.58863">
        <ele>221.4</ele>
        <time>2025-10-28T09:44:56.000Z</time>
      </trkpt>
      <trkpt lat="43.55782" lon="6.58863">
        <ele>221.4</ele>
        <time>2025-10-28T09:44:57.000Z</time>
      </trkpt>
      <trkpt lat="43.55782" lon="6.58863">
        <ele>221.4</ele>
        <time>2025-10-28T09:44:58.000Z</time>
      </trkpt>
      <trkpt lat="43.55782" lon="6.58863">
        <ele>221.4</ele>
        <time>2025-10-28T09:44:59.000Z</time>
      </trkpt>
      <trkpt lat="43.55781" lon="6.58863">
        <ele>221.4</ele>
        <time>2025-10-28T09:45:00.000Z</time>
      </trkpt>
      <trkpt lat="43.55781" lon="6.58863">
        <ele>221.4</ele>
        <time>2025-10-28T09:45:01.000Z</time>
      </trkpt>
      <trkpt lat="43.55781" lon="6.58863">
        <ele>221.4</ele>
        <time>2025-10-28T09:45:02.000Z</time>
      </trkpt>
      <trkpt lat="43.55781" lon="6.58864">
        <ele>221.4</ele>
        <time>2025-10-28T09:45:03.000Z</time>
      </trkpt>
      <trkpt lat="43.55781" lon="6.58864">
        <ele>221.4</ele>
        <time>2025-10-28T09:45:04.000Z</time>
      </trkpt>
      <trkpt lat="43.55781" lon="6.58864">
        <ele>221.4</ele>
        <time>2025-10-28T09:45:05.000Z</time>
      </trkpt>
      <trkpt lat="43.55781" lon="6.58864">
        <ele>221.4</ele>
        <time>2025-10-28T09:45:06.000Z</time>
      </trkpt>
      <trkpt lat="43.55781" lon="6.58865">
        <ele>221.4</ele>
        <time>2025-10-28T09:45:07.000Z</time>
      </trkpt>
      <trkpt lat="43.55781" lon="6.58865">
        <ele>221.4</ele>
        <time>2025-10-28T09:45:08.000Z</time>
      </trkpt>
      <trkpt lat="43.55781" lon="6.58865">
        <ele>221.4</ele>
        <time>2025-10-28T09:45:09.000Z</time>
      </trkpt>
      <trkpt lat="43.55781" lon="6.58865">
        <ele>221.4</ele>
        <time>2025-10-28T09:45:10.000Z</time>
      </trkpt>
      <trkpt lat="43.55781" lon="6.58866">
        <ele>221.4</ele>
        <time>2025-10-28T09:45:11.000Z</time>
      </trkpt>
      <trkpt lat="43.55781" lon="6.58866">
        <ele>221.4</ele>
        <time>2025-10-28T09:45:12.000Z</time>
      </trkpt>
      <trkpt lat="43.55781" lon="6.58866">
        <ele>221.4</ele>
        <time>2025-10-28T09:45:13.000Z</time>
      </trkpt>
      <trkpt lat="43.55781" lon="6.58866">
        <ele>221.4</ele>
        <time>2025-10-28T09:45:14.000Z</time>
      </trkpt>
      <trkpt lat="43.55781" lon="6.58866">
        <ele>221.4</ele>
        <time>2025-10-28T09:45:15.000Z</time>
      </trkpt>
      <trkpt lat="43.55781" lon="6.58866">
        <ele>221.4</ele>
        <time>2025-10-28T09:45:16.000Z</time>
      </trkpt>
      <trkpt lat="43.55781" lon="6.58866">
        <ele>221.4</ele>
        <time>2025-10-28T09:45:17.000Z</time>
      </trkpt>
      <trkpt lat="43.55781" lon="6.58866">
        <ele>221.4</ele>
        <time>2025-10-28T09:45:18.000Z</time>
      </trkpt>
      <trkpt lat="43.55781" lon="6.58866">
        <ele>221.4</ele>
        <time>2025-10-28T09:45:19.000Z</time>
      </trkpt>
      <trkpt lat="43.55781" lon="6.58866">
        <ele>221.4</ele>
        <time>2025-10-28T09:45:20.000Z</time>
      </trkpt>
      <trkpt lat="43.55781" lon="6.58866">
        <ele>221.4</ele>
        <time>2025-10-28T09:45:21.000Z</time>
      </trkpt>
      <trkpt lat="43.55781" lon="6.58866">
        <ele>221.4</ele>
        <time>2025-10-28T09:45:22.000Z</time>
      </trkpt>
      <trkpt lat="43.55781" lon="6.58866">
        <ele>221.4</ele>
        <time>2025-10-28T09:45:23.000Z</time>
      </trkpt>
      <trkpt lat="43.55781" lon="6.58866">
        <ele>221.4</ele>
        <time>2025-10-28T09:45:24.000Z</time>
      </trkpt>
      <trkpt lat="43.55781" lon="6.58866">
        <ele>221.4</ele>
        <time>2025-10-28T09:45:25.000Z</time>
      </trkpt>
      <trkpt lat="43.55781" lon="6.58866">
        <ele>221.4</ele>
        <time>2025-10-28T09:45:26.000Z</time>
      </trkpt>
      <trkpt lat="43.55781" lon="6.58866">
        <ele>221.4</ele>
        <time>2025-10-28T09:45:27.000Z</time>
      </trkpt>
      <trkpt lat="43.55781" lon="6.58866">
        <ele>221.4</ele>
        <time>2025-10-28T09:45:28.000Z</time>
      </trkpt>
      <trkpt lat="43.55781" lon="6.58866">
        <ele>221.4</ele>
        <time>2025-10-28T09:45:29.000Z</time>
      </trkpt>
      <trkpt lat="43.55781" lon="6.58866">
        <ele>221.4</ele>
        <time>2025-10-28T09:45:30.000Z</time>
      </trkpt>
      <trkpt lat="43.55781" lon="6.58866">
        <ele>221.4</ele>
        <time>2025-10-28T09:45:31.000Z</time>
      </trkpt>
      <trkpt lat="43.55781" lon="6.58866">
        <ele>221.4</ele>
        <time>2025-10-28T09:45:32.000Z</time>
      </trkpt>
      <trkpt lat="43.55781" lon="6.58866">
        <ele>221.4</ele>
        <time>2025-10-28T09:45:33.000Z</time>
      </trkpt>
      <trkpt lat="43.55781" lon="6.58866">
        <ele>221.4</ele>
        <time>2025-10-28T09:45:34.000Z</time>
      </trkpt>
      <trkpt lat="43.55781" lon="6.58866">
        <ele>221.4</ele>
        <time>2025-10-28T09:45:35.000Z</time>
      </trkpt>
      <trkpt lat="43.55781" lon="6.58866">
        <ele>221.4</ele>
        <time>2025-10-28T09:45:36.000Z</time>
      </trkpt>
      <trkpt lat="43.55781" lon="6.58866">
        <ele>221.4</ele>
        <time>2025-10-28T09:45:37.000Z</time>
      </trkpt>
      <trkpt lat="43.55781" lon="6.58866">
        <ele>221.4</ele>
        <time>2025-10-28T09:45:38.000Z</time>
      </trkpt>
      <trkpt lat="43.55781" lon="6.58865">
        <ele>221.4</ele>
        <time>2025-10-28T09:45:39.000Z</time>
      </trkpt>
      <trkpt lat="43.55781" lon="6.58865">
        <ele>221.4</ele>
        <time>2025-10-28T09:45:40.000Z</time>
      </trkpt>
      <trkpt lat="43.55782" lon="6.58865">
        <ele>221.4</ele>
        <time>2025-10-28T09:45:41.000Z</time>
      </trkpt>
      <trkpt lat="43.55782" lon="6.58865">
        <ele>221.4</ele>
        <time>2025-10-28T09:45:42.000Z</time>
      </trkpt>
      <trkpt lat="43.55782" lon="6.58865">
        <ele>221.4</ele>
        <time>2025-10-28T09:45:43.000Z</time>
      </trkpt>
      <trkpt lat="43.55782" lon="6.58865">
        <ele>221.4</ele>
        <time>2025-10-28T09:45:44.000Z</time>
      </trkpt>
      <trkpt lat="43.55782" lon="6.58865">
        <ele>221.4</ele>
        <time>2025-10-28T09:45:45.000Z</time>
      </trkpt>
      <trkpt lat="43.55782" lon="6.58865">
        <ele>221.4</ele>
        <time>2025-10-28T09:45:46.000Z</time>
      </trkpt>
      <trkpt lat="43.55782" lon="6.58865">
        <ele>221.4</ele>
        <time>2025-10-28T09:45:47.000Z</time>
      </trkpt>
      <trkpt lat="43.55782" lon="6.58865">
        <ele>221.4</ele>
        <time>2025-10-28T09:45:48.000Z</time>
      </trkpt>
      <trkpt lat="43.55782" lon="6.58865">
        <ele>221.4</ele>
        <time>2025-10-28T09:45:49.000Z</time>
      </trkpt>
      <trkpt lat="43.55782" lon="6.58865">
        <ele>221.4</ele>
        <time>2025-10-28T09:45:50.000Z</time>
      </trkpt>
      <trkpt lat="43.55782" lon="6.58865">
        <ele>221.4</ele>
        <time>2025-10-28T09:45:51.000Z</time>
      </trkpt>
      <trkpt lat="43.55782" lon="6.58865">
        <ele>221.4</ele>
        <time>2025-10-28T09:45:52.000Z</time>
      </trkpt>
      <trkpt lat="43.55782" lon="6.58865">
        <ele>221.4</ele>
        <time>2025-10-28T09:45:53.000Z</time>
      </trkpt>
      <trkpt lat="43.55782" lon="6.58865">
        <ele>221.4</ele>
        <time>2025-10-28T09:45:54.000Z</time>
      </trkpt>
      <trkpt lat="43.55782" lon="6.58865">
        <ele>221.4</ele>
        <time>2025-10-28T09:45:55.000Z</time>
      </trkpt>
      <trkpt lat="43.55782" lon="6.58865">
        <ele>221.4</ele>
        <time>2025-10-28T09:45:56.000Z</time>
      </trkpt>
      <trkpt lat="43.55782" lon="6.58865">
        <ele>221.4</ele>
        <time>2025-10-28T09:45:57.000Z</time>
      </trkpt>
      <trkpt lat="43.55782" lon="6.58865">
        <ele>221.4</ele>
        <time>2025-10-28T09:45:58.000Z</time>
      </trkpt>
      <trkpt lat="43.55782" lon="6.58865">
        <ele>221.4</ele>
        <time>2025-10-28T09:45:59.000Z</time>
      </trkpt>
      <trkpt lat="43.55782" lon="6.58865">
        <ele>221.4</ele>
        <time>2025-10-28T09:46:00.000Z</time>
      </trkpt>
      <trkpt lat="43.55782" lon="6.58865">
        <ele>221.4</ele>
        <time>2025-10-28T09:46:01.000Z</time>
      </trkpt>
      <trkpt lat="43.55782" lon="6.58865">
        <ele>221.4</ele>
        <time>2025-10-28T09:46:02.000Z</time>
      </trkpt>
      <trkpt lat="43.55782" lon="6.58865">
        <ele>221.4</ele>
        <time>2025-10-28T09:46:03.000Z</time>
      </trkpt>
      <trkpt lat="43.55782" lon="6.58865">
        <ele>221.4</ele>
        <time>2025-10-28T09:46:04.000Z</time>
      </trkpt>
      <trkpt lat="43.55782" lon="6.58865">
        <ele>221.4</ele>
        <time>2025-10-28T09:46:05.000Z</time>
      </trkpt>
      <trkpt lat="43.55782" lon="6.58865">
        <ele>221.4</ele>
        <time>2025-10-28T09:46:06.000Z</time>
      </trkpt>
      <trkpt lat="43.55782" lon="6.58865">
        <ele>221.4</ele>
        <time>2025-10-28T09:46:07.000Z</time>
      </trkpt>
      <trkpt lat="43.55782" lon="6.58865">
        <ele>221.4</ele>
        <time>2025-10-28T09:46:08.000Z</time>
      </trkpt>
      <trkpt lat="43.55782" lon="6.58865">
        <ele>221.4</ele>
        <time>2025-10-28T09:46:09.000Z</time>
      </trkpt>
      <trkpt lat="43.55782" lon="6.58865">
        <ele>221.4</ele>
        <time>2025-10-28T09:46:10.000Z</time>
      </trkpt>
      <trkpt lat="43.55782" lon="6.58865">
        <ele>221.4</ele>
        <time>2025-10-28T09:46:11.000Z</time>
      </trkpt>
      <trkpt lat="43.55785" lon="6.58864">
        <ele>221.4</ele>
        <time>2025-10-28T09:46:12.000Z</time>
      </trkpt>
      <trkpt lat="43.55785" lon="6.58864">
        <ele>221.4</ele>
        <time>2025-10-28T09:46:13.000Z</time>
      </trkpt>
      <trkpt lat="43.55785" lon="6.58864">
        <ele>221.4</ele>
        <time>2025-10-28T09:46:14.000Z</time>
      </trkpt>
      <trkpt lat="43.55785" lon="6.58864">
        <ele>221.4</ele>
        <time>2025-10-28T09:46:15.000Z</time>
      </trkpt>
      <trkpt lat="43.55785" lon="6.58863">
        <ele>221.4</ele>
        <time>2025-10-28T09:46:16.000Z</time>
      </trkpt>
      <trkpt lat="43.55785" lon="6.58863">
        <ele>221.4</ele>
        <time>2025-10-28T09:46:17.000Z</time>
      </trkpt>
      <trkpt lat="43.55785" lon="6.58863">
        <ele>221.4</ele>
        <time>2025-10-28T09:46:18.000Z</time>
      </trkpt>
      <trkpt lat="43.55785" lon="6.58863">
        <ele>221.4</ele>
        <time>2025-10-28T09:46:19.000Z</time>
      </trkpt>
      <trkpt lat="43.55785" lon="6.58863">
        <ele>221.4</ele>
        <time>2025-10-28T09:46:20.000Z</time>
      </trkpt>
      <trkpt lat="43.55785" lon="6.58863">
        <ele>221.4</ele>
        <time>2025-10-28T09:46:21.000Z</time>
      </trkpt>
      <trkpt lat="43.55785" lon="6.58863">
        <ele>221.4</ele>
        <time>2025-10-28T09:46:22.000Z</time>
      </trkpt>
      <trkpt lat="43.55785" lon="6.58863">
        <ele>221.4</ele>
        <time>2025-10-28T09:46:23.000Z</time>
      </trkpt>
      <trkpt lat="43.55785" lon="6.58863">
        <ele>221.4</ele>
        <time>2025-10-28T09:46:24.000Z</time>
      </trkpt>
      <trkpt lat="43.55785" lon="6.58863">
        <ele>221.4</ele>
        <time>2025-10-28T09:46:25.000Z</time>
      </trkpt>
      <trkpt lat="43.55785" lon="6.58863">
        <ele>221.4</ele>
        <time>2025-10-28T09:46:26.000Z</time>
      </trkpt>
      <trkpt lat="43.55785" lon="6.58863">
        <ele>221.4</ele>
        <time>2025-10-28T09:46:27.000Z</time>
      </trkpt>
      <trkpt lat="43.55785" lon="6.58863">
        <ele>221.4</ele>
        <time>2025-10-28T09:46:28.000Z</time>
      </trkpt>
      <trkpt lat="43.55785" lon="6.58863">
        <ele>221.4</ele>
        <time>2025-10-28T09:46:29.000Z</time>
      </trkpt>
      <trkpt lat="43.55785" lon="6.58863">
        <ele>221.4</ele>
        <time>2025-10-28T09:46:30.000Z</time>
      </trkpt>
      <trkpt lat="43.55785" lon="6.58863">
        <ele>221.4</ele>
        <time>2025-10-28T09:46:31.000Z</time>
      </trkpt>
      <trkpt lat="43.55785" lon="6.58863">
        <ele>221.4</ele>
        <time>2025-10-28T09:46:32.000Z</time>
      </trkpt>
      <trkpt lat="43.55785" lon="6.58863">
        <ele>221.4</ele>
        <time>2025-10-28T09:46:33.000Z</time>
      </trkpt>
      <trkpt lat="43.55785" lon="6.58864">
        <ele>221.4</ele>
        <time>2025-10-28T09:46:34.000Z</time>
      </trkpt>
      <trkpt lat="43.55785" lon="6.58864">
        <ele>221.4</ele>
        <time>2025-10-28T09:46:35.000Z</time>
      </trkpt>
      <trkpt lat="43.55784" lon="6.58864">
        <ele>221.4</ele>
        <time>2025-10-28T09:46:36.000Z</time>
      </trkpt>
      <trkpt lat="43.55784" lon="6.58864">
        <ele>221.4</ele>
        <time>2025-10-28T09:46:37.000Z</time>
      </trkpt>
      <trkpt lat="43.55784" lon="6.58864">
        <ele>221.4</ele>
        <time>2025-10-28T09:46:38.000Z</time>
      </trkpt>
      <trkpt lat="43.55784" lon="6.58864">
        <ele>221.4</ele>
        <time>2025-10-28T09:46:39.000Z</time>
      </trkpt>
      <trkpt lat="43.55784" lon="6.58864">
        <ele>221.4</ele>
        <time>2025-10-28T09:46:40.000Z</time>
      </trkpt>
      <trkpt lat="43.55784" lon="6.58865">
        <ele>221.4</ele>
        <time>2025-10-28T09:46:41.000Z</time>
      </trkpt>
      <trkpt lat="43.55784" lon="6.58865">
        <ele>221.4</ele>
        <time>2025-10-28T09:46:42.000Z</time>
      </trkpt>
      <trkpt lat="43.55784" lon="6.58865">
        <ele>221.4</ele>
        <time>2025-10-28T09:46:43.000Z</time>
      </trkpt>
      <trkpt lat="43.55784" lon="6.58865">
        <ele>221.4</ele>
        <time>2025-10-28T09:46:44.000Z</time>
      </trkpt>
      <trkpt lat="43.55784" lon="6.58865">
        <ele>221.4</ele>
        <time>2025-10-28T09:46:45.000Z</time>
      </trkpt>
      <trkpt lat="43.55784" lon="6.58865">
        <ele>221.4</ele>
        <time>2025-10-28T09:46:46.000Z</time>
      </trkpt>
      <trkpt lat="43.55784" lon="6.58865">
        <ele>221.4</ele>
        <time>2025-10-28T09:46:47.000Z</time>
      </trkpt>
      <trkpt lat="43.55784" lon="6.58865">
        <ele>221.4</ele>
        <time>2025-10-28T09:46:48.000Z</time>
      </trkpt>
      <trkpt lat="43.55784" lon="6.58865">
        <ele>221.4</ele>
        <time>2025-10-28T09:46:49.000Z</time>
      </trkpt>
      <trkpt lat="43.55784" lon="6.58865">
        <ele>221.4</ele>
        <time>2025-10-28T09:46:50.000Z</time>
      </trkpt>
      <trkpt lat="43.55784" lon="6.58865">
        <ele>221.4</ele>
        <time>2025-10-28T09:46:51.000Z</time>
      </trkpt>
      <trkpt lat="43.55784" lon="6.58865">
        <ele>221.4</ele>
        <time>2025-10-28T09:46:52.000Z</time>
      </trkpt>
      <trkpt lat="43.55784" lon="6.58865">
        <ele>221.4</ele>
        <time>2025-10-28T09:46:53.000Z</time>
      </trkpt>
      <trkpt lat="43.55784" lon="6.58865">
        <ele>221.4</ele>
        <time>2025-10-28T09:46:54.000Z</time>
      </trkpt>
      <trkpt lat="43.55784" lon="6.58865">
        <ele>221.4</ele>
        <time>2025-10-28T09:46:55.000Z</time>
      </trkpt>
      <trkpt lat="43.55784" lon="6.58865">
        <ele>221.4</ele>
        <time>2025-10-28T09:46:56.000Z</time>
      </trkpt>
      <trkpt lat="43.55784" lon="6.58865">
        <ele>221.4</ele>
        <time>2025-10-28T09:46:57.000Z</time>
      </trkpt>
      <trkpt lat="43.55784" lon="6.58865">
        <ele>221.4</ele>
        <time>2025-10-28T09:46:58.000Z</time>
      </trkpt>
      <trkpt lat="43.55784" lon="6.58865">
        <ele>221.4</ele>
        <time>2025-10-28T09:46:59.000Z</time>
      </trkpt>
      <trkpt lat="43.55784" lon="6.58865">
        <ele>221.4</ele>
        <time>2025-10-28T09:47:00.000Z</time>
      </trkpt>
      <trkpt lat="43.55784" lon="6.58865">
        <ele>221.4</ele>
        <time>2025-10-28T09:47:01.000Z</time>
      </trkpt>
      <trkpt lat="43.55784" lon="6.58865">
        <ele>221.4</ele>
        <time>2025-10-28T09:47:02.000Z</time>
      </trkpt>
      <trkpt lat="43.55784" lon="6.58865">
        <ele>221.4</ele>
        <time>2025-10-28T09:47:03.000Z</time>
      </trkpt>
      <trkpt lat="43.55784" lon="6.58865">
        <ele>221.4</ele>
        <time>2025-10-28T09:47:04.000Z</time>
      </trkpt>
      <trkpt lat="43.55784" lon="6.58865">
        <ele>221.4</ele>
        <time>2025-10-28T09:47:05.000Z</time>
      </trkpt>
      <trkpt lat="43.55784" lon="6.58865">
        <ele>221.4</ele>
        <time>2025-10-28T09:47:06.000Z</time>
      </trkpt>
      <trkpt lat="43.55784" lon="6.58865">
        <ele>221.4</ele>
        <time>2025-10-28T09:47:07.000Z</time>
      </trkpt>
      <trkpt lat="43.55784" lon="6.58865">
        <ele>221.4</ele>
        <time>2025-10-28T09:47:08.000Z</time>
      </trkpt>
      <trkpt lat="43.55784" lon="6.58865">
        <ele>221.4</ele>
        <time>2025-10-28T09:47:09.000Z</time>
      </trkpt>
      <trkpt lat="43.55784" lon="6.58865">
        <ele>221.4</ele>
        <time>2025-10-28T09:47:10.000Z</time>
      </trkpt>
      <trkpt lat="43.55784" lon="6.58865">
        <ele>221.4</ele>
        <time>2025-10-28T09:47:11.000Z</time>
      </trkpt>
      <trkpt lat="43.55784" lon="6.58866">
        <ele>221.4</ele>
        <time>2025-10-28T09:47:12.000Z</time>
      </trkpt>
      <trkpt lat="43.55784" lon="6.58866">
        <ele>221.4</ele>
        <time>2025-10-28T09:47:13.000Z</time>
      </trkpt>
      <trkpt lat="43.55784" lon="6.58866">
        <ele>221.4</ele>
        <time>2025-10-28T09:47:14.000Z</time>
      </trkpt>
      <trkpt lat="43.55784" lon="6.58866">
        <ele>221.4</ele>
        <time>2025-10-28T09:47:15.000Z</time>
      </trkpt>
      <trkpt lat="43.55784" lon="6.58867">
        <ele>221.5</ele>
        <time>2025-10-28T09:47:16.000Z</time>
      </trkpt>
      <trkpt lat="43.55784" lon="6.58867">
        <ele>221.5</ele>
        <time>2025-10-28T09:47:17.000Z</time>
      </trkpt>
      <trkpt lat="43.55784" lon="6.58867">
        <ele>221.5</ele>
        <time>2025-10-28T09:47:18.000Z</time>
      </trkpt>
      <trkpt lat="43.55784" lon="6.58867">
        <ele>221.5</ele>
        <time>2025-10-28T09:47:19.000Z</time>
      </trkpt>
      <trkpt lat="43.55784" lon="6.58867">
        <ele>221.5</ele>
        <time>2025-10-28T09:47:20.000Z</time>
      </trkpt>
      <trkpt lat="43.55784" lon="6.58867">
        <ele>221.5</ele>
        <time>2025-10-28T09:47:21.000Z</time>
      </trkpt>
      <trkpt lat="43.55784" lon="6.58867">
        <ele>221.5</ele>
        <time>2025-10-28T09:47:22.000Z</time>
      </trkpt>
      <trkpt lat="43.55783" lon="6.58867">
        <ele>221.5</ele>
        <time>2025-10-28T09:47:23.000Z</time>
      </trkpt>
      <trkpt lat="43.55783" lon="6.58867">
        <ele>221.5</ele>
        <time>2025-10-28T09:47:24.000Z</time>
      </trkpt>
      <trkpt lat="43.55783" lon="6.58867">
        <ele>221.5</ele>
        <time>2025-10-28T09:47:25.000Z</time>
      </trkpt>
      <trkpt lat="43.55782" lon="6.58867">
        <ele>221.5</ele>
        <time>2025-10-28T09:47:26.000Z</time>
      </trkpt>
      <trkpt lat="43.55782" lon="6.58867">
        <ele>221.5</ele>
        <time>2025-10-28T09:47:27.000Z</time>
      </trkpt>
      <trkpt lat="43.55782" lon="6.58867">
        <ele>221.5</ele>
        <time>2025-10-28T09:47:28.000Z</time>
      </trkpt>
      <trkpt lat="43.55782" lon="6.58867">
        <ele>221.5</ele>
        <time>2025-10-28T09:47:29.000Z</time>
      </trkpt>
      <trkpt lat="43.55782" lon="6.58867">
        <ele>221.5</ele>
        <time>2025-10-28T09:47:30.000Z</time>
      </trkpt>
      <trkpt lat="43.55782" lon="6.58867">
        <ele>221.5</ele>
        <time>2025-10-28T09:47:31.000Z</time>
      </trkpt>
      <trkpt lat="43.55781" lon="6.58867">
        <ele>221.5</ele>
        <time>2025-10-28T09:47:32.000Z</time>
      </trkpt>
      <trkpt lat="43.55781" lon="6.58867">
        <ele>221.5</ele>
        <time>2025-10-28T09:47:33.000Z</time>
      </trkpt>
      <trkpt lat="43.55781" lon="6.58867">
        <ele>221.5</ele>
        <time>2025-10-28T09:47:34.000Z</time>
      </trkpt>
      <trkpt lat="43.55781" lon="6.58867">
        <ele>221.5</ele>
        <time>2025-10-28T09:47:35.000Z</time>
      </trkpt>
      <trkpt lat="43.55781" lon="6.58867">
        <ele>221.5</ele>
        <time>2025-10-28T09:47:36.000Z</time>
      </trkpt>
      <trkpt lat="43.55781" lon="6.58866">
        <ele>221.5</ele>
        <time>2025-10-28T09:47:37.000Z</time>
      </trkpt>
      <trkpt lat="43.55781" lon="6.58866">
        <ele>221.5</ele>
        <time>2025-10-28T09:47:38.000Z</time>
      </trkpt>
      <trkpt lat="43.55781" lon="6.58865">
        <ele>221.5</ele>
        <time>2025-10-28T09:47:39.000Z</time>
      </trkpt>
      <trkpt lat="43.55781" lon="6.58865">
        <ele>221.5</ele>
        <time>2025-10-28T09:47:40.000Z</time>
      </trkpt>
      <trkpt lat="43.55781" lon="6.58865">
        <ele>221.5</ele>
        <time>2025-10-28T09:47:41.000Z</time>
      </trkpt>
      <trkpt lat="43.55781" lon="6.58865">
        <ele>221.5</ele>
        <time>2025-10-28T09:47:42.000Z</time>
      </trkpt>
      <trkpt lat="43.55781" lon="6.58865">
        <ele>221.5</ele>
        <time>2025-10-28T09:47:43.000Z</time>
      </trkpt>
      <trkpt lat="43.55781" lon="6.58865">
        <ele>221.5</ele>
        <time>2025-10-28T09:47:44.000Z</time>
      </trkpt>
      <trkpt lat="43.55781" lon="6.58865">
        <ele>221.5</ele>
        <time>2025-10-28T09:47:45.000Z</time>
      </trkpt>
      <trkpt lat="43.55781" lon="6.58865">
        <ele>221.5</ele>
        <time>2025-10-28T09:47:46.000Z</time>
      </trkpt>
      <trkpt lat="43.55781" lon="6.58865">
        <ele>221.5</ele>
        <time>2025-10-28T09:47:47.000Z</time>
      </trkpt>
      <trkpt lat="43.55781" lon="6.58865">
        <ele>221.5</ele>
        <time>2025-10-28T09:47:48.000Z</time>
      </trkpt>
      <trkpt lat="43.55781" lon="6.58865">
        <ele>221.5</ele>
        <time>2025-10-28T09:47:49.000Z</time>
      </trkpt>
      <trkpt lat="43.55781" lon="6.58865">
        <ele>221.5</ele>
        <time>2025-10-28T09:47:50.000Z</time>
      </trkpt>
      <trkpt lat="43.55782" lon="6.58865">
        <ele>221.5</ele>
        <time>2025-10-28T09:47:51.000Z</time>
      </trkpt>
      <trkpt lat="43.55782" lon="6.58865">
        <ele>221.5</ele>
        <time>2025-10-28T09:47:52.000Z</time>
      </trkpt>
      <trkpt lat="43.55782" lon="6.58865">
        <ele>221.5</ele>
        <time>2025-10-28T09:47:53.000Z</time>
      </trkpt>
      <trkpt lat="43.55782" lon="6.58865">
        <ele>221.5</ele>
        <time>2025-10-28T09:47:54.000Z</time>
      </trkpt>
      <trkpt lat="43.55782" lon="6.58865">
        <ele>221.5</ele>
        <time>2025-10-28T09:47:55.000Z</time>
      </trkpt>
      <trkpt lat="43.55782" lon="6.58865">
        <ele>221.5</ele>
        <time>2025-10-28T09:47:56.000Z</time>
      </trkpt>
      <trkpt lat="43.55782" lon="6.58865">
        <ele>221.5</ele>
        <time>2025-10-28T09:47:57.000Z</time>
      </trkpt>
      <trkpt lat="43.55782" lon="6.58865">
        <ele>221.5</ele>
        <time>2025-10-28T09:47:58.000Z</time>
      </trkpt>
      <trkpt lat="43.55782" lon="6.58865">
        <ele>221.5</ele>
        <time>2025-10-28T09:47:59.000Z</time>
      </trkpt>
      <trkpt lat="43.55782" lon="6.58865">
        <ele>221.5</ele>
        <time>2025-10-28T09:48:00.000Z</time>
      </trkpt>
      <trkpt lat="43.55782" lon="6.58865">
        <ele>221.5</ele>
        <time>2025-10-28T09:48:01.000Z</time>
      </trkpt>
      <trkpt lat="43.55782" lon="6.58865">
        <ele>221.5</ele>
        <time>2025-10-28T09:48:02.000Z</time>
      </trkpt>
      <trkpt lat="43.55782" lon="6.58865">
        <ele>221.5</ele>
        <time>2025-10-28T09:48:03.000Z</time>
      </trkpt>
      <trkpt lat="43.55782" lon="6.58865">
        <ele>221.5</ele>
        <time>2025-10-28T09:48:04.000Z</time>
      </trkpt>
      <trkpt lat="43.55782" lon="6.58865">
        <ele>221.5</ele>
        <time>2025-10-28T09:48:05.000Z</time>
      </trkpt>
      <trkpt lat="43.55782" lon="6.58865">
        <ele>221.5</ele>
        <time>2025-10-28T09:48:06.000Z</time>
      </trkpt>
      <trkpt lat="43.55782" lon="6.58865">
        <ele>221.5</ele>
        <time>2025-10-28T09:48:07.000Z</time>
      </trkpt>
      <trkpt lat="43.55782" lon="6.58865">
        <ele>221.5</ele>
        <time>2025-10-28T09:48:08.000Z</time>
      </trkpt>
      <trkpt lat="43.55782" lon="6.58865">
        <ele>221.5</ele>
        <time>2025-10-28T09:48:09.000Z</time>
      </trkpt>
      <trkpt lat="43.55782" lon="6.58865">
        <ele>221.5</ele>
        <time>2025-10-28T09:48:10.000Z</time>
      </trkpt>
      <trkpt lat="43.55782" lon="6.58865">
        <ele>221.5</ele>
        <time>2025-10-28T09:48:11.000Z</time>
      </trkpt>
      <trkpt lat="43.55782" lon="6.58865">
        <ele>221.5</ele>
        <time>2025-10-28T09:48:12.000Z</time>
      </trkpt>
      <trkpt lat="43.55782" lon="6.58865">
        <ele>221.5</ele>
        <time>2025-10-28T09:48:13.000Z</time>
      </trkpt>
      <trkpt lat="43.55782" lon="6.58865">
        <ele>221.5</ele>
        <time>2025-10-28T09:48:14.000Z</time>
      </trkpt>
      <trkpt lat="43.55782" lon="6.58865">
        <ele>221.5</ele>
        <time>2025-10-28T09:48:15.000Z</time>
      </trkpt>
      <trkpt lat="43.55782" lon="6.58865">
        <ele>221.5</ele>
        <time>2025-10-28T09:48:16.000Z</time>
      </trkpt>
      <trkpt lat="43.55782" lon="6.58865">
        <ele>221.5</ele>
        <time>2025-10-28T09:48:17.000Z</time>
      </trkpt>
      <trkpt lat="43.55782" lon="6.58865">
        <ele>221.5</ele>
        <time>2025-10-28T09:48:18.000Z</time>
      </trkpt>
      <trkpt lat="43.55782" lon="6.58865">
        <ele>221.5</ele>
        <time>2025-10-28T09:48:19.000Z</time>
      </trkpt>
      <trkpt lat="43.55782" lon="6.58865">
        <ele>221.5</ele>
        <time>2025-10-28T09:48:20.000Z</time>
      </trkpt>
      <trkpt lat="43.55782" lon="6.58865">
        <ele>221.5</ele>
        <time>2025-10-28T09:48:21.000Z</time>
      </trkpt>
      <trkpt lat="43.55782" lon="6.58865">
        <ele>221.5</ele>
        <time>2025-10-28T09:48:22.000Z</time>
      </trkpt>
      <trkpt lat="43.55782" lon="6.58865">
        <ele>221.5</ele>
        <time>2025-10-28T09:48:23.000Z</time>
      </trkpt>
      <trkpt lat="43.55782" lon="6.58865">
        <ele>221.5</ele>
        <time>2025-10-28T09:48:24.000Z</time>
      </trkpt>
      <trkpt lat="43.55782" lon="6.58865">
        <ele>221.5</ele>
        <time>2025-10-28T09:48:25.000Z</time>
      </trkpt>
      <trkpt lat="43.55781" lon="6.58865">
        <ele>221.5</ele>
        <time>2025-10-28T09:48:26.000Z</time>
      </trkpt>
      <trkpt lat="43.55781" lon="6.58865">
        <ele>221.5</ele>
        <time>2025-10-28T09:48:27.000Z</time>
      </trkpt>
      <trkpt lat="43.55781" lon="6.58865">
        <ele>221.5</ele>
        <time>2025-10-28T09:48:28.000Z</time>
      </trkpt>
      <trkpt lat="43.55781" lon="6.58865">
        <ele>221.5</ele>
        <time>2025-10-28T09:48:29.000Z</time>
      </trkpt>
      <trkpt lat="43.55781" lon="6.58866">
        <ele>221.5</ele>
        <time>2025-10-28T09:48:30.000Z</time>
      </trkpt>
      <trkpt lat="43.5578" lon="6.58866">
        <ele>221.5</ele>
        <time>2025-10-28T09:48:31.000Z</time>
      </trkpt>
      <trkpt lat="43.5578" lon="6.58866">
        <ele>221.5</ele>
        <time>2025-10-28T09:48:32.000Z</time>
      </trkpt>
      <trkpt lat="43.55779" lon="6.58867">
        <ele>221.5</ele>
        <time>2025-10-28T09:48:33.000Z</time>
      </trkpt>
      <trkpt lat="43.55778" lon="6.58867">
        <ele>221.5</ele>
        <time>2025-10-28T09:48:34.000Z</time>
      </trkpt>
      <trkpt lat="43.55777" lon="6.58867">
        <ele>221.5</ele>
        <time>2025-10-28T09:48:35.000Z</time>
      </trkpt>
      <trkpt lat="43.55777" lon="6.58867">
        <ele>221.5</ele>
        <time>2025-10-28T09:48:36.000Z</time>
      </trkpt>
      <trkpt lat="43.55776" lon="6.58867">
        <ele>221.5</ele>
        <time>2025-10-28T09:48:37.000Z</time>
      </trkpt>
      <trkpt lat="43.55776" lon="6.58868">
        <ele>221.5</ele>
        <time>2025-10-28T09:48:38.000Z</time>
      </trkpt>
      <trkpt lat="43.55775" lon="6.58869">
        <ele>221.5</ele>
        <time>2025-10-28T09:48:39.000Z</time>
      </trkpt>
      <trkpt lat="43.55775" lon="6.58869">
        <ele>221.5</ele>
        <time>2025-10-28T09:48:40.000Z</time>
      </trkpt>
      <trkpt lat="43.55775" lon="6.58869">
        <ele>221.5</ele>
        <time>2025-10-28T09:48:41.000Z</time>
      </trkpt>
      <trkpt lat="43.55775" lon="6.58869">
        <ele>221.5</ele>
        <time>2025-10-28T09:48:42.000Z</time>
      </trkpt>
      <trkpt lat="43.55775" lon="6.58869">
        <ele>221.5</ele>
        <time>2025-10-28T09:48:43.000Z</time>
      </trkpt>
      <trkpt lat="43.55775" lon="6.58869">
        <ele>221.5</ele>
        <time>2025-10-28T09:48:44.000Z</time>
      </trkpt>
      <trkpt lat="43.55775" lon="6.58869">
        <ele>221.5</ele>
        <time>2025-10-28T09:48:45.000Z</time>
      </trkpt>
      <trkpt lat="43.55775" lon="6.58869">
        <ele>221.5</ele>
        <time>2025-10-28T09:48:46.000Z</time>
      </trkpt>
      <trkpt lat="43.55775" lon="6.58869">
        <ele>221.5</ele>
        <time>2025-10-28T09:48:47.000Z</time>
      </trkpt>
      <trkpt lat="43.55775" lon="6.58869">
        <ele>221.5</ele>
        <time>2025-10-28T09:48:48.000Z</time>
      </trkpt>
      <trkpt lat="43.55775" lon="6.58869">
        <ele>221.5</ele>
        <time>2025-10-28T09:48:49.000Z</time>
      </trkpt>
      <trkpt lat="43.55775" lon="6.58869">
        <ele>221.5</ele>
        <time>2025-10-28T09:48:50.000Z</time>
      </trkpt>
      <trkpt lat="43.55775" lon="6.58869">
        <ele>221.5</ele>
        <time>2025-10-28T09:48:51.000Z</time>
      </trkpt>
      <trkpt lat="43.55775" lon="6.58869">
        <ele>221.5</ele>
        <time>2025-10-28T09:48:52.000Z</time>
      </trkpt>
      <trkpt lat="43.55775" lon="6.58869">
        <ele>221.5</ele>
        <time>2025-10-28T09:48:53.000Z</time>
      </trkpt>
      <trkpt lat="43.55775" lon="6.58869">
        <ele>221.5</ele>
        <time>2025-10-28T09:48:54.000Z</time>
      </trkpt>
      <trkpt lat="43.55775" lon="6.58869">
        <ele>221.5</ele>
        <time>2025-10-28T09:48:55.000Z</time>
      </trkpt>
      <trkpt lat="43.55775" lon="6.58869">
        <ele>221.5</ele>
        <time>2025-10-28T09:48:56.000Z</time>
      </trkpt>
      <trkpt lat="43.55775" lon="6.58869">
        <ele>221.5</ele>
        <time>2025-10-28T09:48:57.000Z</time>
      </trkpt>
      <trkpt lat="43.55775" lon="6.58868">
        <ele>221.5</ele>
        <time>2025-10-28T09:48:58.000Z</time>
      </trkpt>
      <trkpt lat="43.55775" lon="6.58868">
        <ele>221.6</ele>
        <time>2025-10-28T09:48:59.000Z</time>
      </trkpt>
      <trkpt lat="43.55774" lon="6.58868">
        <ele>221.6</ele>
        <time>2025-10-28T09:49:00.000Z</time>
      </trkpt>
      <trkpt lat="43.55774" lon="6.58868">
        <ele>221.6</ele>
        <time>2025-10-28T09:49:01.000Z</time>
      </trkpt>
      <trkpt lat="43.55774" lon="6.58868">
        <ele>221.6</ele>
        <time>2025-10-28T09:49:02.000Z</time>
      </trkpt>
      <trkpt lat="43.55774" lon="6.58868">
        <ele>221.6</ele>
        <time>2025-10-28T09:49:03.000Z</time>
      </trkpt>
      <trkpt lat="43.55774" lon="6.58867">
        <ele>221.6</ele>
        <time>2025-10-28T09:49:04.000Z</time>
      </trkpt>
      <trkpt lat="43.55773" lon="6.58867">
        <ele>221.6</ele>
        <time>2025-10-28T09:49:05.000Z</time>
      </trkpt>
      <trkpt lat="43.55773" lon="6.58867">
        <ele>221.6</ele>
        <time>2025-10-28T09:49:06.000Z</time>
      </trkpt>
      <trkpt lat="43.55773" lon="6.58867">
        <ele>221.6</ele>
        <time>2025-10-28T09:49:07.000Z</time>
      </trkpt>
      <trkpt lat="43.55773" lon="6.58867">
        <ele>221.6</ele>
        <time>2025-10-28T09:49:08.000Z</time>
      </trkpt>
      <trkpt lat="43.55773" lon="6.58867">
        <ele>221.6</ele>
        <time>2025-10-28T09:49:09.000Z</time>
      </trkpt>
      <trkpt lat="43.55773" lon="6.58867">
        <ele>221.6</ele>
        <time>2025-10-28T09:49:10.000Z</time>
      </trkpt>
      <trkpt lat="43.55773" lon="6.58867">
        <ele>221.6</ele>
        <time>2025-10-28T09:49:11.000Z</time>
      </trkpt>
      <trkpt lat="43.55773" lon="6.58867">
        <ele>221.6</ele>
        <time>2025-10-28T09:49:12.000Z</time>
      </trkpt>
      <trkpt lat="43.55773" lon="6.58867">
        <ele>221.6</ele>
        <time>2025-10-28T09:49:13.000Z</time>
      </trkpt>
      <trkpt lat="43.55773" lon="6.58867">
        <ele>221.6</ele>
        <time>2025-10-28T09:49:14.000Z</time>
      </trkpt>
      <trkpt lat="43.55773" lon="6.58867">
        <ele>221.6</ele>
        <time>2025-10-28T09:49:15.000Z</time>
      </trkpt>
      <trkpt lat="43.55774" lon="6.58866">
        <ele>221.6</ele>
        <time>2025-10-28T09:49:16.000Z</time>
      </trkpt>
      <trkpt lat="43.55775" lon="6.58865">
        <ele>221.6</ele>
        <time>2025-10-28T09:49:17.000Z</time>
      </trkpt>
      <trkpt lat="43.55776" lon="6.58865">
        <ele>221.6</ele>
        <time>2025-10-28T09:49:18.000Z</time>
      </trkpt>
      <trkpt lat="43.55776" lon="6.58864">
        <ele>221.6</ele>
        <time>2025-10-28T09:49:19.000Z</time>
      </trkpt>
      <trkpt lat="43.55777" lon="6.58865">
        <ele>221.6</ele>
        <time>2025-10-28T09:49:20.000Z</time>
      </trkpt>
      <trkpt lat="43.55778" lon="6.58864">
        <ele>221.6</ele>
        <time>2025-10-28T09:49:21.000Z</time>
      </trkpt>
      <trkpt lat="43.55779" lon="6.58864">
        <ele>221.7</ele>
        <time>2025-10-28T09:49:22.000Z</time>
      </trkpt>
      <trkpt lat="43.5578" lon="6.58864">
        <ele>221.7</ele>
        <time>2025-10-28T09:49:23.000Z</time>
      </trkpt>
      <trkpt lat="43.5578" lon="6.58864">
        <ele>221.7</ele>
        <time>2025-10-28T09:49:24.000Z</time>
      </trkpt>
      <trkpt lat="43.55781" lon="6.58863">
        <ele>221.7</ele>
        <time>2025-10-28T09:49:25.000Z</time>
      </trkpt>
      <trkpt lat="43.55781" lon="6.58863">
        <ele>221.7</ele>
        <time>2025-10-28T09:49:26.000Z</time>
      </trkpt>
      <trkpt lat="43.55781" lon="6.58863">
        <ele>221.7</ele>
        <time>2025-10-28T09:49:27.000Z</time>
      </trkpt>
      <trkpt lat="43.55781" lon="6.58863">
        <ele>221.7</ele>
        <time>2025-10-28T09:49:28.000Z</time>
      </trkpt>
      <trkpt lat="43.55781" lon="6.58863">
        <ele>221.7</ele>
        <time>2025-10-28T09:49:29.000Z</time>
      </trkpt>
      <trkpt lat="43.55781" lon="6.58863">
        <ele>221.7</ele>
        <time>2025-10-28T09:49:30.000Z</time>
      </trkpt>
      <trkpt lat="43.55781" lon="6.58863">
        <ele>221.7</ele>
        <time>2025-10-28T09:49:31.000Z</time>
      </trkpt>
      <trkpt lat="43.55781" lon="6.58863">
        <ele>221.7</ele>
        <time>2025-10-28T09:49:32.000Z</time>
      </trkpt>
      <trkpt lat="43.55781" lon="6.58863">
        <ele>221.7</ele>
        <time>2025-10-28T09:49:33.000Z</time>
      </trkpt>
      <trkpt lat="43.55781" lon="6.58863">
        <ele>221.7</ele>
        <time>2025-10-28T09:49:34.000Z</time>
      </trkpt>
      <trkpt lat="43.55781" lon="6.58863">
        <ele>221.7</ele>
        <time>2025-10-28T09:49:35.000Z</time>
      </trkpt>
      <trkpt lat="43.55781" lon="6.58863">
        <ele>221.7</ele>
        <time>2025-10-28T09:49:36.000Z</time>
      </trkpt>
      <trkpt lat="43.55781" lon="6.58863">
        <ele>221.7</ele>
        <time>2025-10-28T09:49:37.000Z</time>
      </trkpt>
      <trkpt lat="43.55781" lon="6.58863">
        <ele>221.7</ele>
        <time>2025-10-28T09:49:38.000Z</time>
      </trkpt>
      <trkpt lat="43.55781" lon="6.58863">
        <ele>221.7</ele>
        <time>2025-10-28T09:49:39.000Z</time>
      </trkpt>
      <trkpt lat="43.55781" lon="6.58863">
        <ele>221.7</ele>
        <time>2025-10-28T09:49:40.000Z</time>
      </trkpt>
      <trkpt lat="43.55781" lon="6.58863">
        <ele>221.7</ele>
        <time>2025-10-28T09:49:41.000Z</time>
      </trkpt>
      <trkpt lat="43.55781" lon="6.58863">
        <ele>221.7</ele>
        <time>2025-10-28T09:49:42.000Z</time>
      </trkpt>
      <trkpt lat="43.55781" lon="6.58863">
        <ele>221.7</ele>
        <time>2025-10-28T09:49:43.000Z</time>
      </trkpt>
      <trkpt lat="43.55781" lon="6.58863">
        <ele>221.7</ele>
        <time>2025-10-28T09:49:44.000Z</time>
      </trkpt>
      <trkpt lat="43.55781" lon="6.58862">
        <ele>221.7</ele>
        <time>2025-10-28T09:49:45.000Z</time>
      </trkpt>
      <trkpt lat="43.55781" lon="6.58862">
        <ele>221.7</ele>
        <time>2025-10-28T09:49:46.000Z</time>
      </trkpt>
      <trkpt lat="43.55781" lon="6.58862">
        <ele>221.7</ele>
        <time>2025-10-28T09:49:47.000Z</time>
      </trkpt>
      <trkpt lat="43.55781" lon="6.58862">
        <ele>221.7</ele>
        <time>2025-10-28T09:49:48.000Z</time>
      </trkpt>
      <trkpt lat="43.5578" lon="6.58862">
        <ele>221.7</ele>
        <time>2025-10-28T09:49:49.000Z</time>
      </trkpt>
      <trkpt lat="43.5578" lon="6.58862">
        <ele>221.7</ele>
        <time>2025-10-28T09:49:50.000Z</time>
      </trkpt>
      <trkpt lat="43.5578" lon="6.58862">
        <ele>221.7</ele>
        <time>2025-10-28T09:49:51.000Z</time>
      </trkpt>
      <trkpt lat="43.5578" lon="6.58862">
        <ele>221.7</ele>
        <time>2025-10-28T09:49:52.000Z</time>
      </trkpt>
      <trkpt lat="43.5578" lon="6.58862">
        <ele>221.7</ele>
        <time>2025-10-28T09:49:53.000Z</time>
      </trkpt>
      <trkpt lat="43.5578" lon="6.58862">
        <ele>221.7</ele>
        <time>2025-10-28T09:49:54.000Z</time>
      </trkpt>
      <trkpt lat="43.5578" lon="6.58862">
        <ele>221.7</ele>
        <time>2025-10-28T09:49:55.000Z</time>
      </trkpt>
      <trkpt lat="43.5578" lon="6.58862">
        <ele>221.7</ele>
        <time>2025-10-28T09:49:56.000Z</time>
      </trkpt>
      <trkpt lat="43.5578" lon="6.58862">
        <ele>221.7</ele>
        <time>2025-10-28T09:49:57.000Z</time>
      </trkpt>
      <trkpt lat="43.5578" lon="6.58862">
        <ele>221.7</ele>
        <time>2025-10-28T09:49:58.000Z</time>
      </trkpt>
      <trkpt lat="43.5578" lon="6.58862">
        <ele>221.7</ele>
        <time>2025-10-28T09:49:59.000Z</time>
      </trkpt>
      <trkpt lat="43.5578" lon="6.58862">
        <ele>221.7</ele>
        <time>2025-10-28T09:50:00.000Z</time>
      </trkpt>
      <trkpt lat="43.55781" lon="6.58862">
        <ele>221.7</ele>
        <time>2025-10-28T09:50:01.000Z</time>
      </trkpt>
      <trkpt lat="43.55781" lon="6.58862">
        <ele>221.7</ele>
        <time>2025-10-28T09:50:02.000Z</time>
      </trkpt>
      <trkpt lat="43.55781" lon="6.58862">
        <ele>221.7</ele>
        <time>2025-10-28T09:50:03.000Z</time>
      </trkpt>
      <trkpt lat="43.55781" lon="6.58862">
        <ele>221.7</ele>
        <time>2025-10-28T09:50:04.000Z</time>
      </trkpt>
      <trkpt lat="43.55781" lon="6.58862">
        <ele>221.7</ele>
        <time>2025-10-28T09:50:05.000Z</time>
      </trkpt>
      <trkpt lat="43.55781" lon="6.58863">
        <ele>221.7</ele>
        <time>2025-10-28T09:50:06.000Z</time>
      </trkpt>
      <trkpt lat="43.55781" lon="6.58863">
        <ele>221.7</ele>
        <time>2025-10-28T09:50:07.000Z</time>
      </trkpt>
      <trkpt lat="43.55781" lon="6.58863">
        <ele>221.7</ele>
        <time>2025-10-28T09:50:08.000Z</time>
      </trkpt>
      <trkpt lat="43.55781" lon="6.58863">
        <ele>221.7</ele>
        <time>2025-10-28T09:50:09.000Z</time>
      </trkpt>
      <trkpt lat="43.55781" lon="6.58863">
        <ele>221.6</ele>
        <time>2025-10-28T09:50:10.000Z</time>
      </trkpt>
      <trkpt lat="43.55781" lon="6.58863">
        <ele>221.6</ele>
        <time>2025-10-28T09:50:11.000Z</time>
      </trkpt>
      <trkpt lat="43.55781" lon="6.58864">
        <ele>221.6</ele>
        <time>2025-10-28T09:50:12.000Z</time>
      </trkpt>
      <trkpt lat="43.55781" lon="6.58864">
        <ele>221.6</ele>
        <time>2025-10-28T09:50:13.000Z</time>
      </trkpt>
      <trkpt lat="43.55781" lon="6.58865">
        <ele>221.6</ele>
        <time>2025-10-28T09:50:14.000Z</time>
      </trkpt>
      <trkpt lat="43.55781" lon="6.58865">
        <ele>221.6</ele>
        <time>2025-10-28T09:50:15.000Z</time>
      </trkpt>
      <trkpt lat="43.55781" lon="6.58865">
        <ele>221.5</ele>
        <time>2025-10-28T09:50:16.000Z</time>
      </trkpt>
      <trkpt lat="43.55781" lon="6.58866">
        <ele>221.5</ele>
        <time>2025-10-28T09:50:17.000Z</time>
      </trkpt>
      <trkpt lat="43.55782" lon="6.58866">
        <ele>221.5</ele>
        <time>2025-10-28T09:50:18.000Z</time>
      </trkpt>
      <trkpt lat="43.55782" lon="6.58866">
        <ele>221.5</ele>
        <time>2025-10-28T09:50:19.000Z</time>
      </trkpt>
      <trkpt lat="43.55782" lon="6.58866">
        <ele>221.5</ele>
        <time>2025-10-28T09:50:20.000Z</time>
      </trkpt>
      <trkpt lat="43.55782" lon="6.58866">
        <ele>221.5</ele>
        <time>2025-10-28T09:50:21.000Z</time>
      </trkpt>
      <trkpt lat="43.55782" lon="6.58866">
        <ele>221.5</ele>
        <time>2025-10-28T09:50:22.000Z</time>
      </trkpt>
      <trkpt lat="43.55782" lon="6.58866">
        <ele>221.5</ele>
        <time>2025-10-28T09:50:23.000Z</time>
      </trkpt>
      <trkpt lat="43.55782" lon="6.58867">
        <ele>221.5</ele>
        <time>2025-10-28T09:50:24.000Z</time>
      </trkpt>
      <trkpt lat="43.55782" lon="6.58867">
        <ele>221.5</ele>
        <time>2025-10-28T09:50:25.000Z</time>
      </trkpt>
      <trkpt lat="43.55782" lon="6.58867">
        <ele>221.5</ele>
        <time>2025-10-28T09:50:26.000Z</time>
      </trkpt>
      <trkpt lat="43.55782" lon="6.58867">
        <ele>221.5</ele>
        <time>2025-10-28T09:50:27.000Z</time>
      </trkpt>
      <trkpt lat="43.55782" lon="6.58867">
        <ele>221.5</ele>
        <time>2025-10-28T09:50:28.000Z</time>
      </trkpt>
      <trkpt lat="43.55782" lon="6.58867">
        <ele>221.5</ele>
        <time>2025-10-28T09:50:29.000Z</time>
      </trkpt>
      <trkpt lat="43.55782" lon="6.58867">
        <ele>221.5</ele>
        <time>2025-10-28T09:50:30.000Z</time>
      </trkpt>
      <trkpt lat="43.55782" lon="6.58867">
        <ele>221.5</ele>
        <time>2025-10-28T09:50:31.000Z</time>
      </trkpt>
      <trkpt lat="43.55782" lon="6.58867">
        <ele>221.5</ele>
        <time>2025-10-28T09:50:32.000Z</time>
      </trkpt>
      <trkpt lat="43.55782" lon="6.58867">
        <ele>221.5</ele>
        <time>2025-10-28T09:50:33.000Z</time>
      </trkpt>
      <trkpt lat="43.55782" lon="6.58867">
        <ele>221.5</ele>
        <time>2025-10-28T09:50:34.000Z</time>
      </trkpt>
      <trkpt lat="43.55782" lon="6.58867">
        <ele>221.5</ele>
        <time>2025-10-28T09:50:35.000Z</time>
      </trkpt>
      <trkpt lat="43.55782" lon="6.58867">
        <ele>221.5</ele>
        <time>2025-10-28T09:50:36.000Z</time>
      </trkpt>
      <trkpt lat="43.55782" lon="6.58867">
        <ele>221.4</ele>
        <time>2025-10-28T09:50:37.000Z</time>
      </trkpt>
      <trkpt lat="43.55782" lon="6.58867">
        <ele>221.4</ele>
        <time>2025-10-28T09:50:38.000Z</time>
      </trkpt>
      <trkpt lat="43.55782" lon="6.58867">
        <ele>221.4</ele>
        <time>2025-10-28T09:50:39.000Z</time>
      </trkpt>
      <trkpt lat="43.55782" lon="6.58867">
        <ele>221.4</ele>
        <time>2025-10-28T09:50:40.000Z</time>
      </trkpt>
      <trkpt lat="43.55782" lon="6.58867">
        <ele>221.4</ele>
        <time>2025-10-28T09:50:41.000Z</time>
      </trkpt>
      <trkpt lat="43.55782" lon="6.58867">
        <ele>221.4</ele>
        <time>2025-10-28T09:50:42.000Z</time>
      </trkpt>
      <trkpt lat="43.55782" lon="6.58867">
        <ele>221.4</ele>
        <time>2025-10-28T09:50:43.000Z</time>
      </trkpt>
      <trkpt lat="43.55782" lon="6.58867">
        <ele>221.4</ele>
        <time>2025-10-28T09:50:44.000Z</time>
      </trkpt>
      <trkpt lat="43.55782" lon="6.58867">
        <ele>221.4</ele>
        <time>2025-10-28T09:50:45.000Z</time>
      </trkpt>
      <trkpt lat="43.55782" lon="6.58867">
        <ele>221.4</ele>
        <time>2025-10-28T09:50:46.000Z</time>
      </trkpt>
      <trkpt lat="43.55782" lon="6.58867">
        <ele>221.4</ele>
        <time>2025-10-28T09:50:47.000Z</time>
      </trkpt>
      <trkpt lat="43.55782" lon="6.58867">
        <ele>221.4</ele>
        <time>2025-10-28T09:50:48.000Z</time>
      </trkpt>
      <trkpt lat="43.55782" lon="6.58867">
        <ele>221.4</ele>
        <time>2025-10-28T09:50:49.000Z</time>
      </trkpt>
      <trkpt lat="43.55782" lon="6.58867">
        <ele>221.4</ele>
        <time>2025-10-28T09:50:50.000Z</time>
      </trkpt>
      <trkpt lat="43.55782" lon="6.58867">
        <ele>221.4</ele>
        <time>2025-10-28T09:50:51.000Z</time>
      </trkpt>
      <trkpt lat="43.55782" lon="6.58866">
        <ele>221.4</ele>
        <time>2025-10-28T09:50:52.000Z</time>
      </trkpt>
      <trkpt lat="43.55782" lon="6.58866">
        <ele>221.4</ele>
        <time>2025-10-28T09:50:53.000Z</time>
      </trkpt>
      <trkpt lat="43.55782" lon="6.58866">
        <ele>221.4</ele>
        <time>2025-10-28T09:50:54.000Z</time>
      </trkpt>
      <trkpt lat="43.55782" lon="6.58866">
        <ele>221.4</ele>
        <time>2025-10-28T09:50:55.000Z</time>
      </trkpt>
      <trkpt lat="43.55782" lon="6.58866">
        <ele>221.4</ele>
        <time>2025-10-28T09:50:56.000Z</time>
      </trkpt>
      <trkpt lat="43.55782" lon="6.58866">
        <ele>221.4</ele>
        <time>2025-10-28T09:50:57.000Z</time>
      </trkpt>
      <trkpt lat="43.55782" lon="6.58866">
        <ele>221.4</ele>
        <time>2025-10-28T09:50:58.000Z</time>
      </trkpt>
      <trkpt lat="43.55782" lon="6.58866">
        <ele>221.4</ele>
        <time>2025-10-28T09:50:59.000Z</time>
      </trkpt>
      <trkpt lat="43.55782" lon="6.58866">
        <ele>221.4</ele>
        <time>2025-10-28T09:51:00.000Z</time>
      </trkpt>
      <trkpt lat="43.55782" lon="6.58866">
        <ele>221.4</ele>
        <time>2025-10-28T09:51:01.000Z</time>
      </trkpt>
      <trkpt lat="43.55782" lon="6.58866">
        <ele>221.4</ele>
        <time>2025-10-28T09:51:02.000Z</time>
      </trkpt>
      <trkpt lat="43.55782" lon="6.58866">
        <ele>221.4</ele>
        <time>2025-10-28T09:51:03.000Z</time>
      </trkpt>
      <trkpt lat="43.55782" lon="6.58866">
        <ele>221.4</ele>
        <time>2025-10-28T09:51:04.000Z</time>
      </trkpt>
      <trkpt lat="43.55782" lon="6.58866">
        <ele>221.4</ele>
        <time>2025-10-28T09:51:05.000Z</time>
      </trkpt>
      <trkpt lat="43.55782" lon="6.58866">
        <ele>221.4</ele>
        <time>2025-10-28T09:51:06.000Z</time>
      </trkpt>
      <trkpt lat="43.55782" lon="6.58866">
        <ele>221.4</ele>
        <time>2025-10-28T09:51:07.000Z</time>
      </trkpt>
      <trkpt lat="43.55782" lon="6.58866">
        <ele>221.4</ele>
        <time>2025-10-28T09:51:08.000Z</time>
      </trkpt>
      <trkpt lat="43.55782" lon="6.58866">
        <ele>221.4</ele>
        <time>2025-10-28T09:51:09.000Z</time>
      </trkpt>
      <trkpt lat="43.55782" lon="6.58866">
        <ele>221.4</ele>
        <time>2025-10-28T09:51:10.000Z</time>
      </trkpt>
      <trkpt lat="43.55782" lon="6.58866">
        <ele>221.4</ele>
        <time>2025-10-28T09:51:11.000Z</time>
      </trkpt>
      <trkpt lat="43.55782" lon="6.58866">
        <ele>221.4</ele>
        <time>2025-10-28T09:51:12.000Z</time>
      </trkpt>
      <trkpt lat="43.55782" lon="6.58866">
        <ele>221.3</ele>
        <time>2025-10-28T09:51:13.000Z</time>
      </trkpt>
      <trkpt lat="43.55782" lon="6.58866">
        <ele>221.3</ele>
        <time>2025-10-28T09:51:14.000Z</time>
      </trkpt>
      <trkpt lat="43.55782" lon="6.58865">
        <ele>221.3</ele>
        <time>2025-10-28T09:51:15.000Z</time>
      </trkpt>
      <trkpt lat="43.55782" lon="6.58865">
        <ele>221.3</ele>
        <time>2025-10-28T09:51:16.000Z</time>
      </trkpt>
      <trkpt lat="43.55782" lon="6.58865">
        <ele>221.3</ele>
        <time>2025-10-28T09:51:17.000Z</time>
      </trkpt>
      <trkpt lat="43.55782" lon="6.58865">
        <ele>221.3</ele>
        <time>2025-10-28T09:51:18.000Z</time>
      </trkpt>
      <trkpt lat="43.55782" lon="6.58865">
        <ele>221.3</ele>
        <time>2025-10-28T09:51:19.000Z</time>
      </trkpt>
      <trkpt lat="43.55782" lon="6.58865">
        <ele>221.3</ele>
        <time>2025-10-28T09:51:20.000Z</time>
      </trkpt>
      <trkpt lat="43.55782" lon="6.58865">
        <ele>221.3</ele>
        <time>2025-10-28T09:51:21.000Z</time>
      </trkpt>
      <trkpt lat="43.55782" lon="6.58865">
        <ele>221.3</ele>
        <time>2025-10-28T09:51:22.000Z</time>
      </trkpt>
      <trkpt lat="43.55782" lon="6.58865">
        <ele>221.3</ele>
        <time>2025-10-28T09:51:23.000Z</time>
      </trkpt>
      <trkpt lat="43.55782" lon="6.58865">
        <ele>221.3</ele>
        <time>2025-10-28T09:51:24.000Z</time>
      </trkpt>
      <trkpt lat="43.55782" lon="6.58865">
        <ele>221.3</ele>
        <time>2025-10-28T09:51:25.000Z</time>
      </trkpt>
      <trkpt lat="43.55782" lon="6.58865">
        <ele>221.3</ele>
        <time>2025-10-28T09:51:26.000Z</time>
      </trkpt>
      <trkpt lat="43.55782" lon="6.58865">
        <ele>221.3</ele>
        <time>2025-10-28T09:51:27.000Z</time>
      </trkpt>
      <trkpt lat="43.55782" lon="6.58865">
        <ele>221.3</ele>
        <time>2025-10-28T09:51:28.000Z</time>
      </trkpt>
      <trkpt lat="43.55782" lon="6.58865">
        <ele>221.3</ele>
        <time>2025-10-28T09:51:29.000Z</time>
      </trkpt>
      <trkpt lat="43.55782" lon="6.58865">
        <ele>221.3</ele>
        <time>2025-10-28T09:51:30.000Z</time>
      </trkpt>
      <trkpt lat="43.55781" lon="6.58865">
        <ele>221.3</ele>
        <time>2025-10-28T09:51:31.000Z</time>
      </trkpt>
      <trkpt lat="43.55782" lon="6.58865">
        <ele>221.3</ele>
        <time>2025-10-28T09:51:32.000Z</time>
      </trkpt>
      <trkpt lat="43.55782" lon="6.58865">
        <ele>221.3</ele>
        <time>2025-10-28T09:51:33.000Z</time>
      </trkpt>
      <trkpt lat="43.55782" lon="6.58865">
        <ele>221.3</ele>
        <time>2025-10-28T09:51:34.000Z</time>
      </trkpt>
      <trkpt lat="43.55782" lon="6.58866">
        <ele>221.3</ele>
        <time>2025-10-28T09:51:35.000Z</time>
      </trkpt>
      <trkpt lat="43.55782" lon="6.58866">
        <ele>221.3</ele>
        <time>2025-10-28T09:51:36.000Z</time>
      </trkpt>
      <trkpt lat="43.55782" lon="6.58866">
        <ele>221.3</ele>
        <time>2025-10-28T09:51:37.000Z</time>
      </trkpt>
      <trkpt lat="43.55782" lon="6.58866">
        <ele>221.3</ele>
        <time>2025-10-28T09:51:38.000Z</time>
      </trkpt>
      <trkpt lat="43.55782" lon="6.58866">
        <ele>221.3</ele>
        <time>2025-10-28T09:51:39.000Z</time>
      </trkpt>
      <trkpt lat="43.55782" lon="6.58866">
        <ele>221.3</ele>
        <time>2025-10-28T09:51:40.000Z</time>
      </trkpt>
      <trkpt lat="43.55782" lon="6.58866">
        <ele>221.3</ele>
        <time>2025-10-28T09:51:41.000Z</time>
      </trkpt>
      <trkpt lat="43.55782" lon="6.58866">
        <ele>221.3</ele>
        <time>2025-10-28T09:51:42.000Z</time>
      </trkpt>
      <trkpt lat="43.55782" lon="6.58866">
        <ele>221.3</ele>
        <time>2025-10-28T09:51:43.000Z</time>
      </trkpt>
      <trkpt lat="43.55782" lon="6.58866">
        <ele>221.3</ele>
        <time>2025-10-28T09:51:44.000Z</time>
      </trkpt>
      <trkpt lat="43.55782" lon="6.58866">
        <ele>221.3</ele>
        <time>2025-10-28T09:51:45.000Z</time>
      </trkpt>
      <trkpt lat="43.55782" lon="6.58866">
        <ele>221.3</ele>
        <time>2025-10-28T09:51:46.000Z</time>
      </trkpt>
      <trkpt lat="43.55782" lon="6.58866">
        <ele>221.3</ele>
        <time>2025-10-28T09:51:47.000Z</time>
      </trkpt>
      <trkpt lat="43.55782" lon="6.58866">
        <ele>221.3</ele>
        <time>2025-10-28T09:51:48.000Z</time>
      </trkpt>
      <trkpt lat="43.55782" lon="6.58866">
        <ele>221.3</ele>
        <time>2025-10-28T09:51:49.000Z</time>
      </trkpt>
      <trkpt lat="43.55782" lon="6.58866">
        <ele>221.3</ele>
        <time>2025-10-28T09:51:50.000Z</time>
      </trkpt>
      <trkpt lat="43.55782" lon="6.58866">
        <ele>221.3</ele>
        <time>2025-10-28T09:51:51.000Z</time>
      </trkpt>
      <trkpt lat="43.55782" lon="6.58866">
        <ele>221.3</ele>
        <time>2025-10-28T09:51:52.000Z</time>
      </trkpt>
      <trkpt lat="43.55782" lon="6.58866">
        <ele>221.3</ele>
        <time>2025-10-28T09:51:53.000Z</time>
      </trkpt>
      <trkpt lat="43.55782" lon="6.58866">
        <ele>221.3</ele>
        <time>2025-10-28T09:51:54.000Z</time>
      </trkpt>
      <trkpt lat="43.55782" lon="6.58866">
        <ele>221.3</ele>
        <time>2025-10-28T09:51:55.000Z</time>
      </trkpt>
      <trkpt lat="43.55782" lon="6.58866">
        <ele>221.3</ele>
        <time>2025-10-28T09:51:56.000Z</time>
      </trkpt>
      <trkpt lat="43.55782" lon="6.58866">
        <ele>221.3</ele>
        <time>2025-10-28T09:51:57.000Z</time>
      </trkpt>
      <trkpt lat="43.55782" lon="6.58866">
        <ele>221.3</ele>
        <time>2025-10-28T09:51:58.000Z</time>
      </trkpt>
      <trkpt lat="43.55782" lon="6.58866">
        <ele>221.3</ele>
        <time>2025-10-28T09:51:59.000Z</time>
      </trkpt>
      <trkpt lat="43.55782" lon="6.58866">
        <ele>221.3</ele>
        <time>2025-10-28T09:52:00.000Z</time>
      </trkpt>
      <trkpt lat="43.55782" lon="6.58866">
        <ele>221.3</ele>
        <time>2025-10-28T09:52:01.000Z</time>
      </trkpt>
      <trkpt lat="43.55782" lon="6.58866">
        <ele>221.3</ele>
        <time>2025-10-28T09:52:02.000Z</time>
      </trkpt>
      <trkpt lat="43.55782" lon="6.58866">
        <ele>221.3</ele>
        <time>2025-10-28T09:52:03.000Z</time>
      </trkpt>
      <trkpt lat="43.55782" lon="6.58866">
        <ele>221.3</ele>
        <time>2025-10-28T09:52:04.000Z</time>
      </trkpt>
      <trkpt lat="43.55782" lon="6.58866">
        <ele>221.3</ele>
        <time>2025-10-28T09:52:05.000Z</time>
      </trkpt>
      <trkpt lat="43.55782" lon="6.58866">
        <ele>221.3</ele>
        <time>2025-10-28T09:52:06.000Z</time>
      </trkpt>
      <trkpt lat="43.55782" lon="6.58866">
        <ele>221.3</ele>
        <time>2025-10-28T09:52:07.000Z</time>
      </trkpt>
      <trkpt lat="43.55782" lon="6.58866">
        <ele>221.2</ele>
        <time>2025-10-28T09:52:08.000Z</time>
      </trkpt>
      <trkpt lat="43.55782" lon="6.58866">
        <ele>221.2</ele>
        <time>2025-10-28T09:52:09.000Z</time>
      </trkpt>
      <trkpt lat="43.55782" lon="6.58866">
        <ele>221.2</ele>
        <time>2025-10-28T09:52:10.000Z</time>
      </trkpt>
      <trkpt lat="43.55782" lon="6.58866">
        <ele>221.2</ele>
        <time>2025-10-28T09:52:11.000Z</time>
      </trkpt>
      <trkpt lat="43.55782" lon="6.58866">
        <ele>221.2</ele>
        <time>2025-10-28T09:52:12.000Z</time>
      </trkpt>
      <trkpt lat="43.55782" lon="6.58866">
        <ele>221.2</ele>
        <time>2025-10-28T09:52:13.000Z</time>
      </trkpt>
      <trkpt lat="43.55782" lon="6.58866">
        <ele>221.2</ele>
        <time>2025-10-28T09:52:14.000Z</time>
      </trkpt>
      <trkpt lat="43.55782" lon="6.58866">
        <ele>221.2</ele>
        <time>2025-10-28T09:52:15.000Z</time>
      </trkpt>
      <trkpt lat="43.55782" lon="6.58866">
        <ele>221.2</ele>
        <time>2025-10-28T09:52:16.000Z</time>
      </trkpt>
      <trkpt lat="43.55782" lon="6.58866">
        <ele>221.2</ele>
        <time>2025-10-28T09:52:17.000Z</time>
      </trkpt>
      <trkpt lat="43.55782" lon="6.58866">
        <ele>221.2</ele>
        <time>2025-10-28T09:52:18.000Z</time>
      </trkpt>
      <trkpt lat="43.55782" lon="6.58866">
        <ele>221.2</ele>
        <time>2025-10-28T09:52:19.000Z</time>
      </trkpt>
      <trkpt lat="43.55782" lon="6.58866">
        <ele>221.2</ele>
        <time>2025-10-28T09:52:20.000Z</time>
      </trkpt>
      <trkpt lat="43.55782" lon="6.58866">
        <ele>221.2</ele>
        <time>2025-10-28T09:52:21.000Z</time>
      </trkpt>
      <trkpt lat="43.55782" lon="6.58866">
        <ele>221.2</ele>
        <time>2025-10-28T09:52:22.000Z</time>
      </trkpt>
      <trkpt lat="43.55782" lon="6.58866">
        <ele>221.2</ele>
        <time>2025-10-28T09:52:23.000Z</time>
      </trkpt>
      <trkpt lat="43.55782" lon="6.58866">
        <ele>221.2</ele>
        <time>2025-10-28T09:52:24.000Z</time>
      </trkpt>
      <trkpt lat="43.55782" lon="6.58866">
        <ele>221.2</ele>
        <time>2025-10-28T09:52:25.000Z</time>
      </trkpt>
      <trkpt lat="43.55782" lon="6.58866">
        <ele>221.2</ele>
        <time>2025-10-28T09:52:26.000Z</time>
      </trkpt>
      <trkpt lat="43.55782" lon="6.58866">
        <ele>221.2</ele>
        <time>2025-10-28T09:52:27.000Z</time>
      </trkpt>
      <trkpt lat="43.55782" lon="6.58866">
        <ele>221.2</ele>
        <time>2025-10-28T09:52:28.000Z</time>
      </trkpt>
      <trkpt lat="43.55782" lon="6.58866">
        <ele>221.2</ele>
        <time>2025-10-28T09:52:29.000Z</time>
      </trkpt>
      <trkpt lat="43.55782" lon="6.58866">
        <ele>221.2</ele>
        <time>2025-10-28T09:52:30.000Z</time>
      </trkpt>
      <trkpt lat="43.55782" lon="6.58866">
        <ele>221.2</ele>
        <time>2025-10-28T09:52:31.000Z</time>
      </trkpt>
      <trkpt lat="43.55782" lon="6.58866">
        <ele>221.2</ele>
        <time>2025-10-28T09:52:32.000Z</time>
      </trkpt>
      <trkpt lat="43.55782" lon="6.58866">
        <ele>221.2</ele>
        <time>2025-10-28T09:52:33.000Z</time>
      </trkpt>
      <trkpt lat="43.55782" lon="6.58866">
        <ele>221.2</ele>
        <time>2025-10-28T09:52:34.000Z</time>
      </trkpt>
      <trkpt lat="43.55782" lon="6.58866">
        <ele>221.2</ele>
        <time>2025-10-28T09:52:35.000Z</time>
      </trkpt>
      <trkpt lat="43.55782" lon="6.58866">
        <ele>221.2</ele>
        <time>2025-10-28T09:52:36.000Z</time>
      </trkpt>
      <trkpt lat="43.55782" lon="6.58865">
        <ele>221.2</ele>
        <time>2025-10-28T09:52:37.000Z</time>
      </trkpt>
      <trkpt lat="43.55782" lon="6.58865">
        <ele>221.2</ele>
        <time>2025-10-28T09:52:38.000Z</time>
      </trkpt>
      <trkpt lat="43.55782" lon="6.58865">
        <ele>221.2</ele>
        <time>2025-10-28T09:52:39.000Z</time>
      </trkpt>
      <trkpt lat="43.55782" lon="6.58865">
        <ele>221.2</ele>
        <time>2025-10-28T09:52:40.000Z</time>
      </trkpt>
      <trkpt lat="43.55782" lon="6.58865">
        <ele>221.2</ele>
        <time>2025-10-28T09:52:41.000Z</time>
      </trkpt>
      <trkpt lat="43.55783" lon="6.58861">
        <ele>221</ele>
        <time>2025-10-28T09:52:42.000Z</time>
      </trkpt>
      <trkpt lat="43.55784" lon="6.58855">
        <ele>220.8</ele>
        <time>2025-10-28T09:52:43.000Z</time>
      </trkpt>
      <trkpt lat="43.55785" lon="6.58849">
        <ele>220.6</ele>
        <time>2025-10-28T09:52:44.000Z</time>
      </trkpt>
      <trkpt lat="43.55786" lon="6.58842">
        <ele>220.4</ele>
        <time>2025-10-28T09:52:45.000Z</time>
      </trkpt>
      <trkpt lat="43.55787" lon="6.58836">
        <ele>220.3</ele>
        <time>2025-10-28T09:52:46.000Z</time>
      </trkpt>
      <trkpt lat="43.55787" lon="6.58832">
        <ele>220.3</ele>
        <time>2025-10-28T09:52:47.000Z</time>
      </trkpt>
      <trkpt lat="43.55787" lon="6.58829">
        <ele>220.3</ele>
        <time>2025-10-28T09:52:48.000Z</time>
      </trkpt>
      <trkpt lat="43.55788" lon="6.58826">
        <ele>220.3</ele>
        <time>2025-10-28T09:52:49.000Z</time>
      </trkpt>
      <trkpt lat="43.55788" lon="6.58824">
        <ele>220.3</ele>
        <time>2025-10-28T09:52:50.000Z</time>
      </trkpt>
      <trkpt lat="43.55788" lon="6.58823">
        <ele>220.3</ele>
        <time>2025-10-28T09:52:51.000Z</time>
      </trkpt>
      <trkpt lat="43.55789" lon="6.58822">
        <ele>220.3</ele>
        <time>2025-10-28T09:52:52.000Z</time>
      </trkpt>
      <trkpt lat="43.55789" lon="6.58821">
        <ele>220.4</ele>
        <time>2025-10-28T09:52:53.000Z</time>
      </trkpt>
      <trkpt lat="43.55789" lon="6.58821">
        <ele>220.4</ele>
        <time>2025-10-28T09:52:54.000Z</time>
      </trkpt>
      <trkpt lat="43.5579" lon="6.58821">
        <ele>220.4</ele>
        <time>2025-10-28T09:52:55.000Z</time>
      </trkpt>
      <trkpt lat="43.5579" lon="6.5882">
        <ele>220.4</ele>
        <time>2025-10-28T09:52:56.000Z</time>
      </trkpt>
      <trkpt lat="43.5579" lon="6.58821">
        <ele>220.4</ele>
        <time>2025-10-28T09:52:57.000Z</time>
      </trkpt>
      <trkpt lat="43.5579" lon="6.5882">
        <ele>220.4</ele>
        <time>2025-10-28T09:52:58.000Z</time>
      </trkpt>
      <trkpt lat="43.5579" lon="6.58819">
        <ele>220.4</ele>
        <time>2025-10-28T09:52:59.000Z</time>
      </trkpt>
      <trkpt lat="43.55789" lon="6.58819">
        <ele>220.4</ele>
        <time>2025-10-28T09:53:00.000Z</time>
      </trkpt>
      <trkpt lat="43.55789" lon="6.58818">
        <ele>220.4</ele>
        <time>2025-10-28T09:53:01.000Z</time>
      </trkpt>
      <trkpt lat="43.5579" lon="6.58817">
        <ele>220.5</ele>
        <time>2025-10-28T09:53:02.000Z</time>
      </trkpt>
      <trkpt lat="43.5579" lon="6.58816">
        <ele>220.5</ele>
        <time>2025-10-28T09:53:03.000Z</time>
      </trkpt>
      <trkpt lat="43.55791" lon="6.58815">
        <ele>220.5</ele>
        <time>2025-10-28T09:53:04.000Z</time>
      </trkpt>
      <trkpt lat="43.55791" lon="6.58815">
        <ele>220.5</ele>
        <time>2025-10-28T09:53:05.000Z</time>
      </trkpt>
      <trkpt lat="43.55791" lon="6.58814">
        <ele>220.6</ele>
        <time>2025-10-28T09:53:06.000Z</time>
      </trkpt>
      <trkpt lat="43.55792" lon="6.58814">
        <ele>220.6</ele>
        <time>2025-10-28T09:53:07.000Z</time>
      </trkpt>
      <trkpt lat="43.55792" lon="6.58813">
        <ele>220.6</ele>
        <time>2025-10-28T09:53:08.000Z</time>
      </trkpt>
      <trkpt lat="43.55791" lon="6.58813">
        <ele>220.6</ele>
        <time>2025-10-28T09:53:09.000Z</time>
      </trkpt>
      <trkpt lat="43.55791" lon="6.58812">
        <ele>220.7</ele>
        <time>2025-10-28T09:53:10.000Z</time>
      </trkpt>
      <trkpt lat="43.55789" lon="6.58812">
        <ele>220.7</ele>
        <time>2025-10-28T09:53:11.000Z</time>
      </trkpt>
      <trkpt lat="43.55789" lon="6.58811">
        <ele>220.8</ele>
        <time>2025-10-28T09:53:12.000Z</time>
      </trkpt>
      <trkpt lat="43.55788" lon="6.5881">
        <ele>220.8</ele>
        <time>2025-10-28T09:53:13.000Z</time>
      </trkpt>
      <trkpt lat="43.55788" lon="6.58808">
        <ele>220.9</ele>
        <time>2025-10-28T09:53:14.000Z</time>
      </trkpt>
      <trkpt lat="43.55787" lon="6.58807">
        <ele>220.9</ele>
        <time>2025-10-28T09:53:15.000Z</time>
      </trkpt>
      <trkpt lat="43.55787" lon="6.58804">
        <ele>221</ele>
        <time>2025-10-28T09:53:16.000Z</time>
      </trkpt>
      <trkpt lat="43.55787" lon="6.58801">
        <ele>221.1</ele>
        <time>2025-10-28T09:53:17.000Z</time>
      </trkpt>
      <trkpt lat="43.55786" lon="6.58798">
        <ele>221.2</ele>
        <time>2025-10-28T09:53:18.000Z</time>
      </trkpt>
      <trkpt lat="43.55787" lon="6.58794">
        <ele>221.4</ele>
        <time>2025-10-28T09:53:19.000Z</time>
      </trkpt>
      <trkpt lat="43.55786" lon="6.58791">
        <ele>221.5</ele>
        <time>2025-10-28T09:53:20.000Z</time>
      </trkpt>
      <trkpt lat="43.55786" lon="6.58787">
        <ele>221.6</ele>
        <time>2025-10-28T09:53:21.000Z</time>
      </trkpt>
      <trkpt lat="43.55787" lon="6.58784">
        <ele>221.8</ele>
        <time>2025-10-28T09:53:22.000Z</time>
      </trkpt>
      <trkpt lat="43.55787" lon="6.58781">
        <ele>221.9</ele>
        <time>2025-10-28T09:53:23.000Z</time>
      </trkpt>
      <trkpt lat="43.55788" lon="6.58778">
        <ele>222</ele>
        <time>2025-10-28T09:53:24.000Z</time>
      </trkpt>
      <trkpt lat="43.55789" lon="6.58774">
        <ele>222.2</ele>
        <time>2025-10-28T09:53:25.000Z</time>
      </trkpt>
      <trkpt lat="43.5579" lon="6.58772">
        <ele>222.3</ele>
        <time>2025-10-28T09:53:26.000Z</time>
      </trkpt>
      <trkpt lat="43.55791" lon="6.58769">
        <ele>222.5</ele>
        <time>2025-10-28T09:53:27.000Z</time>
      </trkpt>
      <trkpt lat="43.55793" lon="6.58766">
        <ele>222.7</ele>
        <time>2025-10-28T09:53:28.000Z</time>
      </trkpt>
      <trkpt lat="43.55794" lon="6.58762">
        <ele>223</ele>
        <time>2025-10-28T09:53:29.000Z</time>
      </trkpt>
      <trkpt lat="43.55796" lon="6.58759">
        <ele>223.2</ele>
        <time>2025-10-28T09:53:30.000Z</time>
      </trkpt>
      <trkpt lat="43.55797" lon="6.58756">
        <ele>223.4</ele>
        <time>2025-10-28T09:53:31.000Z</time>
      </trkpt>
      <trkpt lat="43.55799" lon="6.58752">
        <ele>223.8</ele>
        <time>2025-10-28T09:53:32.000Z</time>
      </trkpt>
      <trkpt lat="43.558" lon="6.58749">
        <ele>224.1</ele>
        <time>2025-10-28T09:53:33.000Z</time>
      </trkpt>
      <trkpt lat="43.55801" lon="6.58745">
        <ele>224.4</ele>
        <time>2025-10-28T09:53:34.000Z</time>
      </trkpt>
      <trkpt lat="43.55802" lon="6.58742">
        <ele>224.7</ele>
        <time>2025-10-28T09:53:35.000Z</time>
      </trkpt>
      <trkpt lat="43.55803" lon="6.58739">
        <ele>225</ele>
        <time>2025-10-28T09:53:36.000Z</time>
      </trkpt>
      <trkpt lat="43.55805" lon="6.58736">
        <ele>225.4</ele>
        <time>2025-10-28T09:53:37.000Z</time>
      </trkpt>
      <trkpt lat="43.55807" lon="6.58733">
        <ele>225.7</ele>
        <time>2025-10-28T09:53:38.000Z</time>
      </trkpt>
      <trkpt lat="43.55809" lon="6.5873">
        <ele>226.1</ele>
        <time>2025-10-28T09:53:39.000Z</time>
      </trkpt>
      <trkpt lat="43.55811" lon="6.58727">
        <ele>226.4</ele>
        <time>2025-10-28T09:53:40.000Z</time>
      </trkpt>
      <trkpt lat="43.55813" lon="6.58725">
        <ele>226.7</ele>
        <time>2025-10-28T09:53:41.000Z</time>
      </trkpt>
      <trkpt lat="43.55815" lon="6.58722">
        <ele>227.1</ele>
        <time>2025-10-28T09:53:42.000Z</time>
      </trkpt>
      <trkpt lat="43.55817" lon="6.5872">
        <ele>227.4</ele>
        <time>2025-10-28T09:53:43.000Z</time>
      </trkpt>
      <trkpt lat="43.5582" lon="6.5872">
        <ele>227.7</ele>
        <time>2025-10-28T09:53:44.000Z</time>
      </trkpt>
      <trkpt lat="43.55822" lon="6.5872">
        <ele>228</ele>
        <time>2025-10-28T09:53:45.000Z</time>
      </trkpt>
      <trkpt lat="43.55824" lon="6.5872">
        <ele>228.3</ele>
        <time>2025-10-28T09:53:46.000Z</time>
      </trkpt>
      <trkpt lat="43.55827" lon="6.58721">
        <ele>228.6</ele>
        <time>2025-10-28T09:53:47.000Z</time>
      </trkpt>
      <trkpt lat="43.55829" lon="6.58722">
        <ele>228.9</ele>
        <time>2025-10-28T09:53:48.000Z</time>
      </trkpt>
      <trkpt lat="43.55831" lon="6.58724">
        <ele>229.2</ele>
        <time>2025-10-28T09:53:49.000Z</time>
      </trkpt>
      <trkpt lat="43.55834" lon="6.58725">
        <ele>229.5</ele>
        <time>2025-10-28T09:53:50.000Z</time>
      </trkpt>
      <trkpt lat="43.55836" lon="6.58726">
        <ele>229.8</ele>
        <time>2025-10-28T09:53:51.000Z</time>
      </trkpt>
      <trkpt lat="43.55839" lon="6.58726">
        <ele>230.1</ele>
        <time>2025-10-28T09:53:52.000Z</time>
      </trkpt>
      <trkpt lat="43.55841" lon="6.58727">
        <ele>230.3</ele>
        <time>2025-10-28T09:53:53.000Z</time>
      </trkpt>
      <trkpt lat="43.55844" lon="6.58727">
        <ele>230.6</ele>
        <time>2025-10-28T09:53:54.000Z</time>
      </trkpt>
      <trkpt lat="43.55847" lon="6.58727">
        <ele>230.9</ele>
        <time>2025-10-28T09:53:55.000Z</time>
      </trkpt>
      <trkpt lat="43.55849" lon="6.58726">
        <ele>231.1</ele>
        <time>2025-10-28T09:53:56.000Z</time>
      </trkpt>
      <trkpt lat="43.55851" lon="6.58724">
        <ele>231.3</ele>
        <time>2025-10-28T09:53:57.000Z</time>
      </trkpt>
      <trkpt lat="43.55851" lon="6.58722">
        <ele>231.5</ele>
        <time>2025-10-28T09:53:58.000Z</time>
      </trkpt>
      <trkpt lat="43.5585" lon="6.58719">
        <ele>231.7</ele>
        <time>2025-10-28T09:53:59.000Z</time>
      </trkpt>
      <trkpt lat="43.55849" lon="6.58717">
        <ele>231.9</ele>
        <time>2025-10-28T09:54:00.000Z</time>
      </trkpt>
      <trkpt lat="43.55846" lon="6.58715">
        <ele>232.2</ele>
        <time>2025-10-28T09:54:01.000Z</time>
      </trkpt>
      <trkpt lat="43.55844" lon="6.58712">
        <ele>232.4</ele>
        <time>2025-10-28T09:54:02.000Z</time>
      </trkpt>
      <trkpt lat="43.55842" lon="6.5871">
        <ele>232.7</ele>
        <time>2025-10-28T09:54:03.000Z</time>
      </trkpt>
      <trkpt lat="43.5584" lon="6.58707">
        <ele>233</ele>
        <time>2025-10-28T09:54:04.000Z</time>
      </trkpt>
      <trkpt lat="43.55838" lon="6.58704">
        <ele>233.3</ele>
        <time>2025-10-28T09:54:05.000Z</time>
      </trkpt>
      <trkpt lat="43.55836" lon="6.58702">
        <ele>233.6</ele>
        <time>2025-10-28T09:54:06.000Z</time>
      </trkpt>
      <trkpt lat="43.55833" lon="6.58699">
        <ele>233.9</ele>
        <time>2025-10-28T09:54:07.000Z</time>
      </trkpt>
      <trkpt lat="43.55832" lon="6.58697">
        <ele>234.2</ele>
        <time>2025-10-28T09:54:08.000Z</time>
      </trkpt>
      <trkpt lat="43.5583" lon="6.58695">
        <ele>234.4</ele>
        <time>2025-10-28T09:54:09.000Z</time>
      </trkpt>
      <trkpt lat="43.55828" lon="6.58693">
        <ele>234.7</ele>
        <time>2025-10-28T09:54:10.000Z</time>
      </trkpt>
      <trkpt lat="43.55826" lon="6.5869">
        <ele>235</ele>
        <time>2025-10-28T09:54:11.000Z</time>
      </trkpt>
      <trkpt lat="43.55824" lon="6.58688">
        <ele>235.3</ele>
        <time>2025-10-28T09:54:12.000Z</time>
      </trkpt>
      <trkpt lat="43.55822" lon="6.58686">
        <ele>235.6</ele>
        <time>2025-10-28T09:54:13.000Z</time>
      </trkpt>
      <trkpt lat="43.5582" lon="6.58684">
        <ele>235.9</ele>
        <time>2025-10-28T09:54:14.000Z</time>
      </trkpt>
      <trkpt lat="43.55818" lon="6.58682">
        <ele>236.2</ele>
        <time>2025-10-28T09:54:15.000Z</time>
      </trkpt>
      <trkpt lat="43.55816" lon="6.5868">
        <ele>236.4</ele>
        <time>2025-10-28T09:54:16.000Z</time>
      </trkpt>
      <trkpt lat="43.55814" lon="6.58677">
        <ele>236.7</ele>
        <time>2025-10-28T09:54:17.000Z</time>
      </trkpt>
      <trkpt lat="43.55813" lon="6.58674">
        <ele>237</ele>
        <time>2025-10-28T09:54:18.000Z</time>
      </trkpt>
      <trkpt lat="43.55811" lon="6.58672">
        <ele>237.3</ele>
        <time>2025-10-28T09:54:19.000Z</time>
      </trkpt>
      <trkpt lat="43.55809" lon="6.5867">
        <ele>237.6</ele>
        <time>2025-10-28T09:54:20.000Z</time>
      </trkpt>
      <trkpt lat="43.55807" lon="6.58666">
        <ele>237.9</ele>
        <time>2025-10-28T09:54:21.000Z</time>
      </trkpt>
      <trkpt lat="43.55806" lon="6.58663">
        <ele>238.2</ele>
        <time>2025-10-28T09:54:22.000Z</time>
      </trkpt>
      <trkpt lat="43.55804" lon="6.58661">
        <ele>238.4</ele>
        <time>2025-10-28T09:54:23.000Z</time>
      </trkpt>
      <trkpt lat="43.55802" lon="6.58658">
        <ele>238.5</ele>
        <time>2025-10-28T09:54:24.000Z</time>
      </trkpt>
      <trkpt lat="43.55801" lon="6.58655">
        <ele>238.7</ele>
        <time>2025-10-28T09:54:25.000Z</time>
      </trkpt>
      <trkpt lat="43.55799" lon="6.58652">
        <ele>238.9</ele>
        <time>2025-10-28T09:54:26.000Z</time>
      </trkpt>
      <trkpt lat="43.55797" lon="6.5865">
        <ele>239.2</ele>
        <time>2025-10-28T09:54:27.000Z</time>
      </trkpt>
      <trkpt lat="43.55794" lon="6.58648">
        <ele>239.4</ele>
        <time>2025-10-28T09:54:28.000Z</time>
      </trkpt>
      <trkpt lat="43.55792" lon="6.58647">
        <ele>239.7</ele>
        <time>2025-10-28T09:54:29.000Z</time>
      </trkpt>
      <trkpt lat="43.55789" lon="6.58647">
        <ele>239.9</ele>
        <time>2025-10-28T09:54:30.000Z</time>
      </trkpt>
      <trkpt lat="43.55787" lon="6.58646">
        <ele>240.1</ele>
        <time>2025-10-28T09:54:31.000Z</time>
      </trkpt>
      <trkpt lat="43.55785" lon="6.58647">
        <ele>240.4</ele>
        <time>2025-10-28T09:54:32.000Z</time>
      </trkpt>
      <trkpt lat="43.55782" lon="6.58647">
        <ele>240.6</ele>
        <time>2025-10-28T09:54:33.000Z</time>
      </trkpt>
      <trkpt lat="43.5578" lon="6.58648">
        <ele>240.7</ele>
        <time>2025-10-28T09:54:34.000Z</time>
      </trkpt>
      <trkpt lat="43.55778" lon="6.58649">
        <ele>240.9</ele>
        <time>2025-10-28T09:54:35.000Z</time>
      </trkpt>
      <trkpt lat="43.55776" lon="6.5865">
        <ele>241.1</ele>
        <time>2025-10-28T09:54:36.000Z</time>
      </trkpt>
      <trkpt lat="43.55773" lon="6.58651">
        <ele>241.3</ele>
        <time>2025-10-28T09:54:37.000Z</time>
      </trkpt>
      <trkpt lat="43.55771" lon="6.58651">
        <ele>241.5</ele>
        <time>2025-10-28T09:54:38.000Z</time>
      </trkpt>
      <trkpt lat="43.55768" lon="6.58652">
        <ele>241.7</ele>
        <time>2025-10-28T09:54:39.000Z</time>
      </trkpt>
      <trkpt lat="43.55766" lon="6.58652">
        <ele>241.9</ele>
        <time>2025-10-28T09:54:40.000Z</time>
      </trkpt>
      <trkpt lat="43.55763" lon="6.58652">
        <ele>242.1</ele>
        <time>2025-10-28T09:54:41.000Z</time>
      </trkpt>
      <trkpt lat="43.5576" lon="6.58651">
        <ele>242.3</ele>
        <time>2025-10-28T09:54:42.000Z</time>
      </trkpt>
      <trkpt lat="43.55757" lon="6.58651">
        <ele>242.5</ele>
        <time>2025-10-28T09:54:43.000Z</time>
      </trkpt>
      <trkpt lat="43.55755" lon="6.58651">
        <ele>242.8</ele>
        <time>2025-10-28T09:54:44.000Z</time>
      </trkpt>
      <trkpt lat="43.55752" lon="6.5865">
        <ele>243</ele>
        <time>2025-10-28T09:54:45.000Z</time>
      </trkpt>
      <trkpt lat="43.5575" lon="6.5865">
        <ele>243.3</ele>
        <time>2025-10-28T09:54:46.000Z</time>
      </trkpt>
      <trkpt lat="43.55747" lon="6.5865">
        <ele>243.5</ele>
        <time>2025-10-28T09:54:47.000Z</time>
      </trkpt>
      <trkpt lat="43.55745" lon="6.58649">
        <ele>243.8</ele>
        <time>2025-10-28T09:54:48.000Z</time>
      </trkpt>
      <trkpt lat="43.55743" lon="6.58648">
        <ele>244</ele>
        <time>2025-10-28T09:54:49.000Z</time>
      </trkpt>
      <trkpt lat="43.55742" lon="6.58646">
        <ele>244.2</ele>
        <time>2025-10-28T09:54:50.000Z</time>
      </trkpt>
      <trkpt lat="43.55742" lon="6.58645">
        <ele>244.3</ele>
        <time>2025-10-28T09:54:51.000Z</time>
      </trkpt>
      <trkpt lat="43.55744" lon="6.58644">
        <ele>244.5</ele>
        <time>2025-10-28T09:54:52.000Z</time>
      </trkpt>
      <trkpt lat="43.55746" lon="6.58643">
        <ele>244.7</ele>
        <time>2025-10-28T09:54:53.000Z</time>
      </trkpt>
      <trkpt lat="43.55748" lon="6.58641">
        <ele>245</ele>
        <time>2025-10-28T09:54:54.000Z</time>
      </trkpt>
      <trkpt lat="43.5575" lon="6.5864">
        <ele>245.3</ele>
        <time>2025-10-28T09:54:55.000Z</time>
      </trkpt>
      <trkpt lat="43.55753" lon="6.58639">
        <ele>245.6</ele>
        <time>2025-10-28T09:54:56.000Z</time>
      </trkpt>
      <trkpt lat="43.55756" lon="6.58637">
        <ele>245.9</ele>
        <time>2025-10-28T09:54:57.000Z</time>
      </trkpt>
      <trkpt lat="43.55758" lon="6.58635">
        <ele>246.2</ele>
        <time>2025-10-28T09:54:58.000Z</time>
      </trkpt>
      <trkpt lat="43.55761" lon="6.58634">
        <ele>246.5</ele>
        <time>2025-10-28T09:54:59.000Z</time>
      </trkpt>
      <trkpt lat="43.55764" lon="6.58632">
        <ele>246.8</ele>
        <time>2025-10-28T09:55:00.000Z</time>
      </trkpt>
      <trkpt lat="43.55767" lon="6.5863">
        <ele>247.1</ele>
        <time>2025-10-28T09:55:01.000Z</time>
      </trkpt>
      <trkpt lat="43.5577" lon="6.58628">
        <ele>247.4</ele>
        <time>2025-10-28T09:55:02.000Z</time>
      </trkpt>
      <trkpt lat="43.55772" lon="6.58626">
        <ele>247.7</ele>
        <time>2025-10-28T09:55:03.000Z</time>
      </trkpt>
      <trkpt lat="43.55774" lon="6.58624">
        <ele>248</ele>
        <time>2025-10-28T09:55:04.000Z</time>
      </trkpt>
      <trkpt lat="43.55776" lon="6.58622">
        <ele>248.3</ele>
        <time>2025-10-28T09:55:05.000Z</time>
      </trkpt>
      <trkpt lat="43.55779" lon="6.58621">
        <ele>248.6</ele>
        <time>2025-10-28T09:55:06.000Z</time>
      </trkpt>
      <trkpt lat="43.55781" lon="6.58619">
        <ele>248.8</ele>
        <time>2025-10-28T09:55:07.000Z</time>
      </trkpt>
      <trkpt lat="43.55784" lon="6.58618">
        <ele>249.1</ele>
        <time>2025-10-28T09:55:08.000Z</time>
      </trkpt>
      <trkpt lat="43.55786" lon="6.58617">
        <ele>249.3</ele>
        <time>2025-10-28T09:55:09.000Z</time>
      </trkpt>
      <trkpt lat="43.55789" lon="6.58616">
        <ele>249.6</ele>
        <time>2025-10-28T09:55:10.000Z</time>
      </trkpt>
      <trkpt lat="43.55791" lon="6.58615">
        <ele>249.9</ele>
        <time>2025-10-28T09:55:11.000Z</time>
      </trkpt>
      <trkpt lat="43.55794" lon="6.58614">
        <ele>250.1</ele>
        <time>2025-10-28T09:55:12.000Z</time>
      </trkpt>
      <trkpt lat="43.55797" lon="6.58613">
        <ele>250.4</ele>
        <time>2025-10-28T09:55:13.000Z</time>
      </trkpt>
      <trkpt lat="43.55799" lon="6.58611">
        <ele>250.6</ele>
        <time>2025-10-28T09:55:14.000Z</time>
      </trkpt>
      <trkpt lat="43.558" lon="6.58611">
        <ele>250.7</ele>
        <time>2025-10-28T09:55:15.000Z</time>
      </trkpt>
      <trkpt lat="43.558" lon="6.5861">
        <ele>250.8</ele>
        <time>2025-10-28T09:55:16.000Z</time>
      </trkpt>
      <trkpt lat="43.55801" lon="6.5861">
        <ele>250.8</ele>
        <time>2025-10-28T09:55:17.000Z</time>
      </trkpt>
      <trkpt lat="43.55801" lon="6.58611">
        <ele>250.9</ele>
        <time>2025-10-28T09:55:18.000Z</time>
      </trkpt>
      <trkpt lat="43.55801" lon="6.58611">
        <ele>250.9</ele>
        <time>2025-10-28T09:55:19.000Z</time>
      </trkpt>
      <trkpt lat="43.55801" lon="6.58611">
        <ele>250.9</ele>
        <time>2025-10-28T09:55:20.000Z</time>
      </trkpt>
      <trkpt lat="43.55801" lon="6.58612">
        <ele>251</ele>
        <time>2025-10-28T09:55:21.000Z</time>
      </trkpt>
      <trkpt lat="43.55801" lon="6.58612">
        <ele>251</ele>
        <time>2025-10-28T09:55:22.000Z</time>
      </trkpt>
      <trkpt lat="43.55801" lon="6.58612">
        <ele>251</ele>
        <time>2025-10-28T09:55:23.000Z</time>
      </trkpt>
      <trkpt lat="43.55802" lon="6.58612">
        <ele>251</ele>
        <time>2025-10-28T09:55:24.000Z</time>
      </trkpt>
      <trkpt lat="43.55802" lon="6.58612">
        <ele>251.1</ele>
        <time>2025-10-28T09:55:25.000Z</time>
      </trkpt>
      <trkpt lat="43.55802" lon="6.58612">
        <ele>251.1</ele>
        <time>2025-10-28T09:55:26.000Z</time>
      </trkpt>
      <trkpt lat="43.55802" lon="6.58612">
        <ele>251.1</ele>
        <time>2025-10-28T09:55:27.000Z</time>
      </trkpt>
      <trkpt lat="43.55802" lon="6.58612">
        <ele>251.1</ele>
        <time>2025-10-28T09:55:28.000Z</time>
      </trkpt>
      <trkpt lat="43.55802" lon="6.58612">
        <ele>251.1</ele>
        <time>2025-10-28T09:55:29.000Z</time>
      </trkpt>
      <trkpt lat="43.55802" lon="6.58612">
        <ele>251.1</ele>
        <time>2025-10-28T09:55:30.000Z</time>
      </trkpt>
      <trkpt lat="43.55802" lon="6.58612">
        <ele>251.1</ele>
        <time>2025-10-28T09:55:31.000Z</time>
      </trkpt>
      <trkpt lat="43.55802" lon="6.58612">
        <ele>251.1</ele>
        <time>2025-10-28T09:55:32.000Z</time>
      </trkpt>
      <trkpt lat="43.55802" lon="6.58612">
        <ele>251.1</ele>
        <time>2025-10-28T09:55:33.000Z</time>
      </trkpt>
      <trkpt lat="43.55802" lon="6.58612">
        <ele>251.1</ele>
        <time>2025-10-28T09:55:34.000Z</time>
      </trkpt>
      <trkpt lat="43.55802" lon="6.58612">
        <ele>251.1</ele>
        <time>2025-10-28T09:55:35.000Z</time>
      </trkpt>
      <trkpt lat="43.55802" lon="6.58612">
        <ele>251.1</ele>
        <time>2025-10-28T09:55:36.000Z</time>
      </trkpt>
      <trkpt lat="43.55802" lon="6.58612">
        <ele>251.1</ele>
        <time>2025-10-28T09:55:37.000Z</time>
      </trkpt>
      <trkpt lat="43.55802" lon="6.58612">
        <ele>251.1</ele>
        <time>2025-10-28T09:55:38.000Z</time>
      </trkpt>
      <trkpt lat="43.55802" lon="6.58612">
        <ele>251.2</ele>
        <time>2025-10-28T09:55:39.000Z</time>
      </trkpt>
      <trkpt lat="43.55802" lon="6.58612">
        <ele>251.2</ele>
        <time>2025-10-28T09:55:40.000Z</time>
      </trkpt>
      <trkpt lat="43.55802" lon="6.58612">
        <ele>251.2</ele>
        <time>2025-10-28T09:55:41.000Z</time>
      </trkpt>
      <trkpt lat="43.55802" lon="6.58612">
        <ele>251.2</ele>
        <time>2025-10-28T09:55:42.000Z</time>
      </trkpt>
      <trkpt lat="43.55802" lon="6.58612">
        <ele>251.2</ele>
        <time>2025-10-28T09:55:43.000Z</time>
      </trkpt>
      <trkpt lat="43.55802" lon="6.58612">
        <ele>251.2</ele>
        <time>2025-10-28T09:55:44.000Z</time>
      </trkpt>
      <trkpt lat="43.55802" lon="6.58612">
        <ele>251.2</ele>
        <time>2025-10-28T09:55:45.000Z</time>
      </trkpt>
      <trkpt lat="43.55802" lon="6.58612">
        <ele>251.2</ele>
        <time>2025-10-28T09:55:46.000Z</time>
      </trkpt>
      <trkpt lat="43.55802" lon="6.58613">
        <ele>251.2</ele>
        <time>2025-10-28T09:55:47.000Z</time>
      </trkpt>
      <trkpt lat="43.55802" lon="6.58613">
        <ele>251.2</ele>
        <time>2025-10-28T09:55:48.000Z</time>
      </trkpt>
      <trkpt lat="43.55802" lon="6.58613">
        <ele>251.2</ele>
        <time>2025-10-28T09:55:49.000Z</time>
      </trkpt>
      <trkpt lat="43.55802" lon="6.58613">
        <ele>251.2</ele>
        <time>2025-10-28T09:55:50.000Z</time>
      </trkpt>
      <trkpt lat="43.55802" lon="6.58613">
        <ele>251.2</ele>
        <time>2025-10-28T09:55:51.000Z</time>
      </trkpt>
      <trkpt lat="43.55802" lon="6.58613">
        <ele>251.2</ele>
        <time>2025-10-28T09:55:52.000Z</time>
      </trkpt>
      <trkpt lat="43.55802" lon="6.58613">
        <ele>251.3</ele>
        <time>2025-10-28T09:55:53.000Z</time>
      </trkpt>
      <trkpt lat="43.55802" lon="6.58613">
        <ele>251.3</ele>
        <time>2025-10-28T09:55:54.000Z</time>
      </trkpt>
      <trkpt lat="43.55802" lon="6.58613">
        <ele>251.3</ele>
        <time>2025-10-28T09:55:55.000Z</time>
      </trkpt>
      <trkpt lat="43.55804" lon="6.58613">
        <ele>251.6</ele>
        <time>2025-10-28T09:55:56.000Z</time>
      </trkpt>
      <trkpt lat="43.55807" lon="6.58613">
        <ele>251.9</ele>
        <time>2025-10-28T09:55:57.000Z</time>
      </trkpt>
      <trkpt lat="43.5581" lon="6.58612">
        <ele>252.3</ele>
        <time>2025-10-28T09:55:58.000Z</time>
      </trkpt>
      <trkpt lat="43.55813" lon="6.58612">
        <ele>252.6</ele>
        <time>2025-10-28T09:55:59.000Z</time>
      </trkpt>
      <trkpt lat="43.55816" lon="6.58612">
        <ele>253</ele>
        <time>2025-10-28T09:56:00.000Z</time>
      </trkpt>
      <trkpt lat="43.55819" lon="6.58613">
        <ele>253.5</ele>
        <time>2025-10-28T09:56:01.000Z</time>
      </trkpt>
      <trkpt lat="43.55823" lon="6.58613">
        <ele>253.9</ele>
        <time>2025-10-28T09:56:02.000Z</time>
      </trkpt>
      <trkpt lat="43.55826" lon="6.58614">
        <ele>254.3</ele>
        <time>2025-10-28T09:56:03.000Z</time>
      </trkpt>
      <trkpt lat="43.55829" lon="6.58614">
        <ele>254.8</ele>
        <time>2025-10-28T09:56:04.000Z</time>
      </trkpt>
      <trkpt lat="43.55832" lon="6.58615">
        <ele>255.2</ele>
        <time>2025-10-28T09:56:05.000Z</time>
      </trkpt>
      <trkpt lat="43.55835" lon="6.58615">
        <ele>255.5</ele>
        <time>2025-10-28T09:56:06.000Z</time>
      </trkpt>
      <trkpt lat="43.55838" lon="6.58616">
        <ele>255.9</ele>
        <time>2025-10-28T09:56:07.000Z</time>
      </trkpt>
      <trkpt lat="43.55841" lon="6.58617">
        <ele>256.3</ele>
        <time>2025-10-28T09:56:08.000Z</time>
      </trkpt>
      <trkpt lat="43.55844" lon="6.58618">
        <ele>256.7</ele>
        <time>2025-10-28T09:56:09.000Z</time>
      </trkpt>
      <trkpt lat="43.55847" lon="6.58619">
        <ele>257</ele>
        <time>2025-10-28T09:56:10.000Z</time>
      </trkpt>
      <trkpt lat="43.5585" lon="6.5862">
        <ele>257.3</ele>
        <time>2025-10-28T09:56:11.000Z</time>
      </trkpt>
      <trkpt lat="43.55853" lon="6.58621">
        <ele>257.6</ele>
        <time>2025-10-28T09:56:12.000Z</time>
      </trkpt>
      <trkpt lat="43.55856" lon="6.58622">
        <ele>257.9</ele>
        <time>2025-10-28T09:56:13.000Z</time>
      </trkpt>
      <trkpt lat="43.55859" lon="6.58623">
        <ele>258.3</ele>
        <time>2025-10-28T09:56:14.000Z</time>
      </trkpt>
      <trkpt lat="43.55862" lon="6.58624">
        <ele>258.6</ele>
        <time>2025-10-28T09:56:15.000Z</time>
      </trkpt>
      <trkpt lat="43.55865" lon="6.58625">
        <ele>258.9</ele>
        <time>2025-10-28T09:56:16.000Z</time>
      </trkpt>
      <trkpt lat="43.55867" lon="6.58626">
        <ele>259.3</ele>
        <time>2025-10-28T09:56:17.000Z</time>
      </trkpt>
      <trkpt lat="43.5587" lon="6.58627">
        <ele>259.7</ele>
        <time>2025-10-28T09:56:18.000Z</time>
      </trkpt>
      <trkpt lat="43.55873" lon="6.58628">
        <ele>260.1</ele>
        <time>2025-10-28T09:56:19.000Z</time>
      </trkpt>
      <trkpt lat="43.55876" lon="6.58629">
        <ele>260.5</ele>
        <time>2025-10-28T09:56:20.000Z</time>
      </trkpt>
      <trkpt lat="43.55879" lon="6.58629">
        <ele>260.8</ele>
        <time>2025-10-28T09:56:21.000Z</time>
      </trkpt>
      <trkpt lat="43.55882" lon="6.58629">
        <ele>261.1</ele>
        <time>2025-10-28T09:56:22.000Z</time>
      </trkpt>
      <trkpt lat="43.55885" lon="6.58628">
        <ele>261.4</ele>
        <time>2025-10-28T09:56:23.000Z</time>
      </trkpt>
      <trkpt lat="43.55887" lon="6.58627">
        <ele>261.7</ele>
        <time>2025-10-28T09:56:24.000Z</time>
      </trkpt>
      <trkpt lat="43.5589" lon="6.58625">
        <ele>262.1</ele>
        <time>2025-10-28T09:56:25.000Z</time>
      </trkpt>
      <trkpt lat="43.55893" lon="6.58623">
        <ele>262.4</ele>
        <time>2025-10-28T09:56:26.000Z</time>
      </trkpt>
      <trkpt lat="43.55896" lon="6.58621">
        <ele>262.6</ele>
        <time>2025-10-28T09:56:27.000Z</time>
      </trkpt>
      <trkpt lat="43.55899" lon="6.58619">
        <ele>262.9</ele>
        <time>2025-10-28T09:56:28.000Z</time>
      </trkpt>
      <trkpt lat="43.55903" lon="6.58616">
        <ele>263.2</ele>
        <time>2025-10-28T09:56:29.000Z</time>
      </trkpt>
      <trkpt lat="43.55906" lon="6.58614">
        <ele>263.5</ele>
        <time>2025-10-28T09:56:30.000Z</time>
      </trkpt>
      <trkpt lat="43.55909" lon="6.58613">
        <ele>263.7</ele>
        <time>2025-10-28T09:56:31.000Z</time>
      </trkpt>
      <trkpt lat="43.55912" lon="6.58612">
        <ele>264</ele>
        <time>2025-10-28T09:56:32.000Z</time>
      </trkpt>
      <trkpt lat="43.55915" lon="6.58611">
        <ele>264.2</ele>
        <time>2025-10-28T09:56:33.000Z</time>
      </trkpt>
      <trkpt lat="43.55919" lon="6.58611">
        <ele>264.4</ele>
        <time>2025-10-28T09:56:34.000Z</time>
      </trkpt>
      <trkpt lat="43.55922" lon="6.5861">
        <ele>264.7</ele>
        <time>2025-10-28T09:56:35.000Z</time>
      </trkpt>
      <trkpt lat="43.55925" lon="6.5861">
        <ele>264.8</ele>
        <time>2025-10-28T09:56:36.000Z</time>
      </trkpt>
      <trkpt lat="43.55929" lon="6.5861">
        <ele>265.1</ele>
        <time>2025-10-28T09:56:37.000Z</time>
      </trkpt>
      <trkpt lat="43.55933" lon="6.5861">
        <ele>265.3</ele>
        <time>2025-10-28T09:56:38.000Z</time>
      </trkpt>
      <trkpt lat="43.55937" lon="6.58609">
        <ele>265.6</ele>
        <time>2025-10-28T09:56:39.000Z</time>
      </trkpt>
      <trkpt lat="43.5594" lon="6.58609">
        <ele>265.8</ele>
        <time>2025-10-28T09:56:40.000Z</time>
      </trkpt>
      <trkpt lat="43.55944" lon="6.58607">
        <ele>266</ele>
        <time>2025-10-28T09:56:41.000Z</time>
      </trkpt>
      <trkpt lat="43.55947" lon="6.58605">
        <ele>266.2</ele>
        <time>2025-10-28T09:56:42.000Z</time>
      </trkpt>
      <trkpt lat="43.55951" lon="6.58603">
        <ele>266.4</ele>
        <time>2025-10-28T09:56:43.000Z</time>
      </trkpt>
      <trkpt lat="43.55954" lon="6.58601">
        <ele>266.7</ele>
        <time>2025-10-28T09:56:44.000Z</time>
      </trkpt>
      <trkpt lat="43.55958" lon="6.58598">
        <ele>266.9</ele>
        <time>2025-10-28T09:56:45.000Z</time>
      </trkpt>
      <trkpt lat="43.55961" lon="6.58595">
        <ele>267.1</ele>
        <time>2025-10-28T09:56:46.000Z</time>
      </trkpt>
      <trkpt lat="43.55964" lon="6.58592">
        <ele>267.3</ele>
        <time>2025-10-28T09:56:47.000Z</time>
      </trkpt>
      <trkpt lat="43.55967" lon="6.58588">
        <ele>267.5</ele>
        <time>2025-10-28T09:56:48.000Z</time>
      </trkpt>
      <trkpt lat="43.5597" lon="6.58585">
        <ele>267.7</ele>
        <time>2025-10-28T09:56:49.000Z</time>
      </trkpt>
      <trkpt lat="43.55973" lon="6.58581">
        <ele>268</ele>
        <time>2025-10-28T09:56:50.000Z</time>
      </trkpt>
      <trkpt lat="43.55976" lon="6.58578">
        <ele>268.3</ele>
        <time>2025-10-28T09:56:51.000Z</time>
      </trkpt>
      <trkpt lat="43.55978" lon="6.58575">
        <ele>268.5</ele>
        <time>2025-10-28T09:56:52.000Z</time>
      </trkpt>
      <trkpt lat="43.55982" lon="6.58572">
        <ele>268.9</ele>
        <time>2025-10-28T09:56:53.000Z</time>
      </trkpt>
      <trkpt lat="43.55985" lon="6.58568">
        <ele>269.2</ele>
        <time>2025-10-28T09:56:54.000Z</time>
      </trkpt>
      <trkpt lat="43.55987" lon="6.58565">
        <ele>269.5</ele>
        <time>2025-10-28T09:56:55.000Z</time>
      </trkpt>
      <trkpt lat="43.5599" lon="6.58561">
        <ele>269.9</ele>
        <time>2025-10-28T09:56:56.000Z</time>
      </trkpt>
      <trkpt lat="43.55993" lon="6.58558">
        <ele>270.2</ele>
        <time>2025-10-28T09:56:57.000Z</time>
      </trkpt>
      <trkpt lat="43.55997" lon="6.58555">
        <ele>270.7</ele>
        <time>2025-10-28T09:56:58.000Z</time>
      </trkpt>
      <trkpt lat="43.56" lon="6.58552">
        <ele>271.1</ele>
        <time>2025-10-28T09:56:59.000Z</time>
      </trkpt>
      <trkpt lat="43.56003" lon="6.5855">
        <ele>271.5</ele>
        <time>2025-10-28T09:57:00.000Z</time>
      </trkpt>
      <trkpt lat="43.56005" lon="6.58547">
        <ele>271.9</ele>
        <time>2025-10-28T09:57:01.000Z</time>
      </trkpt>
      <trkpt lat="43.56008" lon="6.58545">
        <ele>272.2</ele>
        <time>2025-10-28T09:57:02.000Z</time>
      </trkpt>
      <trkpt lat="43.56011" lon="6.58543">
        <ele>272.5</ele>
        <time>2025-10-28T09:57:03.000Z</time>
      </trkpt>
      <trkpt lat="43.56014" lon="6.58541">
        <ele>272.9</ele>
        <time>2025-10-28T09:57:04.000Z</time>
      </trkpt>
      <trkpt lat="43.56017" lon="6.58539">
        <ele>273.1</ele>
        <time>2025-10-28T09:57:05.000Z</time>
      </trkpt>
      <trkpt lat="43.5602" lon="6.58537">
        <ele>273.4</ele>
        <time>2025-10-28T09:57:06.000Z</time>
      </trkpt>
      <trkpt lat="43.56023" lon="6.58535">
        <ele>273.7</ele>
        <time>2025-10-28T09:57:07.000Z</time>
      </trkpt>
      <trkpt lat="43.56026" lon="6.58533">
        <ele>274</ele>
        <time>2025-10-28T09:57:08.000Z</time>
      </trkpt>
      <trkpt lat="43.56029" lon="6.58532">
        <ele>274.2</ele>
        <time>2025-10-28T09:57:09.000Z</time>
      </trkpt>
      <trkpt lat="43.56032" lon="6.58531">
        <ele>274.5</ele>
        <time>2025-10-28T09:57:10.000Z</time>
      </trkpt>
      <trkpt lat="43.56035" lon="6.5853">
        <ele>274.8</ele>
        <time>2025-10-28T09:57:11.000Z</time>
      </trkpt>
      <trkpt lat="43.56038" lon="6.58529">
        <ele>275.1</ele>
        <time>2025-10-28T09:57:12.000Z</time>
      </trkpt>
      <trkpt lat="43.56041" lon="6.58528">
        <ele>275.4</ele>
        <time>2025-10-28T09:57:13.000Z</time>
      </trkpt>
      <trkpt lat="43.56044" lon="6.58527">
        <ele>275.6</ele>
        <time>2025-10-28T09:57:14.000Z</time>
      </trkpt>
      <trkpt lat="43.56047" lon="6.58525">
        <ele>275.9</ele>
        <time>2025-10-28T09:57:15.000Z</time>
      </trkpt>
      <trkpt lat="43.5605" lon="6.58523">
        <ele>276.2</ele>
        <time>2025-10-28T09:57:16.000Z</time>
      </trkpt>
      <trkpt lat="43.56052" lon="6.58521">
        <ele>276.4</ele>
        <time>2025-10-28T09:57:17.000Z</time>
      </trkpt>
      <trkpt lat="43.56054" lon="6.58518">
        <ele>276.6</ele>
        <time>2025-10-28T09:57:18.000Z</time>
      </trkpt>
      <trkpt lat="43.56056" lon="6.58516">
        <ele>276.8</ele>
        <time>2025-10-28T09:57:19.000Z</time>
      </trkpt>
      <trkpt lat="43.56059" lon="6.58513">
        <ele>277.1</ele>
        <time>2025-10-28T09:57:20.000Z</time>
      </trkpt>
      <trkpt lat="43.56061" lon="6.58511">
        <ele>277.3</ele>
        <time>2025-10-28T09:57:21.000Z</time>
      </trkpt>
      <trkpt lat="43.56063" lon="6.58508">
        <ele>277.5</ele>
        <time>2025-10-28T09:57:22.000Z</time>
      </trkpt>
      <trkpt lat="43.56064" lon="6.58505">
        <ele>277.6</ele>
        <time>2025-10-28T09:57:23.000Z</time>
      </trkpt>
      <trkpt lat="43.56066" lon="6.58502">
        <ele>277.7</ele>
        <time>2025-10-28T09:57:24.000Z</time>
      </trkpt>
      <trkpt lat="43.56067" lon="6.58498">
        <ele>277.8</ele>
        <time>2025-10-28T09:57:25.000Z</time>
      </trkpt>
      <trkpt lat="43.56069" lon="6.58494">
        <ele>277.9</ele>
        <time>2025-10-28T09:57:26.000Z</time>
      </trkpt>
      <trkpt lat="43.56071" lon="6.58491">
        <ele>278</ele>
        <time>2025-10-28T09:57:27.000Z</time>
      </trkpt>
      <trkpt lat="43.56073" lon="6.58487">
        <ele>278</ele>
        <time>2025-10-28T09:57:28.000Z</time>
      </trkpt>
      <trkpt lat="43.56075" lon="6.58484">
        <ele>278</ele>
        <time>2025-10-28T09:57:29.000Z</time>
      </trkpt>
      <trkpt lat="43.56076" lon="6.58481">
        <ele>278</ele>
        <time>2025-10-28T09:57:30.000Z</time>
      </trkpt>
      <trkpt lat="43.56078" lon="6.58479">
        <ele>278</ele>
        <time>2025-10-28T09:57:31.000Z</time>
      </trkpt>
      <trkpt lat="43.5608" lon="6.58476">
        <ele>278</ele>
        <time>2025-10-28T09:57:32.000Z</time>
      </trkpt>
      <trkpt lat="43.56082" lon="6.58474">
        <ele>278</ele>
        <time>2025-10-28T09:57:33.000Z</time>
      </trkpt>
      <trkpt lat="43.56084" lon="6.58472">
        <ele>278</ele>
        <time>2025-10-28T09:57:34.000Z</time>
      </trkpt>
      <trkpt lat="43.56086" lon="6.5847">
        <ele>278</ele>
        <time>2025-10-28T09:57:35.000Z</time>
      </trkpt>
      <trkpt lat="43.56088" lon="6.58469">
        <ele>278</ele>
        <time>2025-10-28T09:57:36.000Z</time>
      </trkpt>
      <trkpt lat="43.5609" lon="6.58468">
        <ele>278</ele>
        <time>2025-10-28T09:57:37.000Z</time>
      </trkpt>
      <trkpt lat="43.56093" lon="6.58466">
        <ele>278</ele>
        <time>2025-10-28T09:57:38.000Z</time>
      </trkpt>
      <trkpt lat="43.56095" lon="6.58465">
        <ele>278.1</ele>
        <time>2025-10-28T09:57:39.000Z</time>
      </trkpt>
      <trkpt lat="43.56097" lon="6.58464">
        <ele>278.1</ele>
        <time>2025-10-28T09:57:40.000Z</time>
      </trkpt>
      <trkpt lat="43.56099" lon="6.58462">
        <ele>278.1</ele>
        <time>2025-10-28T09:57:41.000Z</time>
      </trkpt>
      <trkpt lat="43.56102" lon="6.58461">
        <ele>278.2</ele>
        <time>2025-10-28T09:57:42.000Z</time>
      </trkpt>
      <trkpt lat="43.56105" lon="6.5846">
        <ele>278.2</ele>
        <time>2025-10-28T09:57:43.000Z</time>
      </trkpt>
      <trkpt lat="43.56108" lon="6.58459">
        <ele>278.3</ele>
        <time>2025-10-28T09:57:44.000Z</time>
      </trkpt>
      <trkpt lat="43.56111" lon="6.58459">
        <ele>278.3</ele>
        <time>2025-10-28T09:57:45.000Z</time>
      </trkpt>
      <trkpt lat="43.56114" lon="6.58458">
        <ele>278.4</ele>
        <time>2025-10-28T09:57:46.000Z</time>
      </trkpt>
      <trkpt lat="43.56117" lon="6.58457">
        <ele>278.4</ele>
        <time>2025-10-28T09:57:47.000Z</time>
      </trkpt>
      <trkpt lat="43.5612" lon="6.58456">
        <ele>278.5</ele>
        <time>2025-10-28T09:57:48.000Z</time>
      </trkpt>
      <trkpt lat="43.56123" lon="6.58454">
        <ele>278.5</ele>
        <time>2025-10-28T09:57:49.000Z</time>
      </trkpt>
      <trkpt lat="43.56125" lon="6.58451">
        <ele>278.6</ele>
        <time>2025-10-28T09:57:50.000Z</time>
      </trkpt>
      <trkpt lat="43.56128" lon="6.58449">
        <ele>278.6</ele>
        <time>2025-10-28T09:57:51.000Z</time>
      </trkpt>
      <trkpt lat="43.56131" lon="6.58444">
        <ele>278.7</ele>
        <time>2025-10-28T09:57:52.000Z</time>
      </trkpt>
      <trkpt lat="43.56134" lon="6.58441">
        <ele>278.8</ele>
        <time>2025-10-28T09:57:53.000Z</time>
      </trkpt>
      <trkpt lat="43.56136" lon="6.58437">
        <ele>278.9</ele>
        <time>2025-10-28T09:57:54.000Z</time>
      </trkpt>
      <trkpt lat="43.56138" lon="6.58433">
        <ele>279</ele>
        <time>2025-10-28T09:57:55.000Z</time>
      </trkpt>
      <trkpt lat="43.5614" lon="6.58429">
        <ele>279.2</ele>
        <time>2025-10-28T09:57:56.000Z</time>
      </trkpt>
      <trkpt lat="43.56142" lon="6.58426">
        <ele>279.4</ele>
        <time>2025-10-28T09:57:57.000Z</time>
      </trkpt>
      <trkpt lat="43.56144" lon="6.58422">
        <ele>279.6</ele>
        <time>2025-10-28T09:57:58.000Z</time>
      </trkpt>
      <trkpt lat="43.56146" lon="6.58419">
        <ele>279.9</ele>
        <time>2025-10-28T09:57:59.000Z</time>
      </trkpt>
      <trkpt lat="43.56148" lon="6.58416">
        <ele>280.1</ele>
        <time>2025-10-28T09:58:00.000Z</time>
      </trkpt>
      <trkpt lat="43.5615" lon="6.58414">
        <ele>280.3</ele>
        <time>2025-10-28T09:58:01.000Z</time>
      </trkpt>
      <trkpt lat="43.56152" lon="6.58411">
        <ele>280.7</ele>
        <time>2025-10-28T09:58:02.000Z</time>
      </trkpt>
      <trkpt lat="43.56154" lon="6.58409">
        <ele>280.9</ele>
        <time>2025-10-28T09:58:03.000Z</time>
      </trkpt>
      <trkpt lat="43.56156" lon="6.58407">
        <ele>281.2</ele>
        <time>2025-10-28T09:58:04.000Z</time>
      </trkpt>
      <trkpt lat="43.56158" lon="6.58406">
        <ele>281.6</ele>
        <time>2025-10-28T09:58:05.000Z</time>
      </trkpt>
      <trkpt lat="43.5616" lon="6.58405">
        <ele>281.9</ele>
        <time>2025-10-28T09:58:06.000Z</time>
      </trkpt>
      <trkpt lat="43.56162" lon="6.58404">
        <ele>282.2</ele>
        <time>2025-10-28T09:58:07.000Z</time>
      </trkpt>
      <trkpt lat="43.56164" lon="6.58403">
        <ele>282.6</ele>
        <time>2025-10-28T09:58:08.000Z</time>
      </trkpt>
      <trkpt lat="43.56167" lon="6.58402">
        <ele>283</ele>
        <time>2025-10-28T09:58:09.000Z</time>
      </trkpt>
      <trkpt lat="43.56168" lon="6.58402">
        <ele>283.3</ele>
        <time>2025-10-28T09:58:10.000Z</time>
      </trkpt>
      <trkpt lat="43.5617" lon="6.58402">
        <ele>283.5</ele>
        <time>2025-10-28T09:58:11.000Z</time>
      </trkpt>
      <trkpt lat="43.56172" lon="6.58402">
        <ele>283.8</ele>
        <time>2025-10-28T09:58:12.000Z</time>
      </trkpt>
      <trkpt lat="43.56174" lon="6.58401">
        <ele>284.2</ele>
        <time>2025-10-28T09:58:13.000Z</time>
      </trkpt>
      <trkpt lat="43.56177" lon="6.58399">
        <ele>284.6</ele>
        <time>2025-10-28T09:58:14.000Z</time>
      </trkpt>
      <trkpt lat="43.56179" lon="6.58397">
        <ele>284.9</ele>
        <time>2025-10-28T09:58:15.000Z</time>
      </trkpt>
      <trkpt lat="43.56181" lon="6.58395">
        <ele>285.1</ele>
        <time>2025-10-28T09:58:16.000Z</time>
      </trkpt>
      <trkpt lat="43.56182" lon="6.58392">
        <ele>285.3</ele>
        <time>2025-10-28T09:58:17.000Z</time>
      </trkpt>
      <trkpt lat="43.56183" lon="6.5839">
        <ele>285.4</ele>
        <time>2025-10-28T09:58:18.000Z</time>
      </trkpt>
      <trkpt lat="43.56185" lon="6.58387">
        <ele>285.6</ele>
        <time>2025-10-28T09:58:19.000Z</time>
      </trkpt>
      <trkpt lat="43.56187" lon="6.58384">
        <ele>285.7</ele>
        <time>2025-10-28T09:58:20.000Z</time>
      </trkpt>
      <trkpt lat="43.56188" lon="6.5838">
        <ele>285.8</ele>
        <time>2025-10-28T09:58:21.000Z</time>
      </trkpt>
      <trkpt lat="43.5619" lon="6.58378">
        <ele>285.8</ele>
        <time>2025-10-28T09:58:22.000Z</time>
      </trkpt>
      <trkpt lat="43.56192" lon="6.58374">
        <ele>285.8</ele>
        <time>2025-10-28T09:58:23.000Z</time>
      </trkpt>
      <trkpt lat="43.56195" lon="6.5837">
        <ele>285.8</ele>
        <time>2025-10-28T09:58:24.000Z</time>
      </trkpt>
      <trkpt lat="43.56197" lon="6.58366">
        <ele>285.8</ele>
        <time>2025-10-28T09:58:25.000Z</time>
      </trkpt>
      <trkpt lat="43.56199" lon="6.58363">
        <ele>285.9</ele>
        <time>2025-10-28T09:58:26.000Z</time>
      </trkpt>
      <trkpt lat="43.56202" lon="6.58359">
        <ele>285.9</ele>
        <time>2025-10-28T09:58:27.000Z</time>
      </trkpt>
      <trkpt lat="43.56203" lon="6.58356">
        <ele>285.9</ele>
        <time>2025-10-28T09:58:28.000Z</time>
      </trkpt>
      <trkpt lat="43.56206" lon="6.58352">
        <ele>285.9</ele>
        <time>2025-10-28T09:58:29.000Z</time>
      </trkpt>
      <trkpt lat="43.56208" lon="6.58348">
        <ele>286</ele>
        <time>2025-10-28T09:58:30.000Z</time>
      </trkpt>
      <trkpt lat="43.56211" lon="6.58344">
        <ele>286</ele>
        <time>2025-10-28T09:58:31.000Z</time>
      </trkpt>
      <trkpt lat="43.56213" lon="6.58341">
        <ele>286.1</ele>
        <time>2025-10-28T09:58:32.000Z</time>
      </trkpt>
      <trkpt lat="43.56216" lon="6.58337">
        <ele>286.2</ele>
        <time>2025-10-28T09:58:33.000Z</time>
      </trkpt>
      <trkpt lat="43.56218" lon="6.58334">
        <ele>286.2</ele>
        <time>2025-10-28T09:58:34.000Z</time>
      </trkpt>
      <trkpt lat="43.56221" lon="6.58329">
        <ele>286.3</ele>
        <time>2025-10-28T09:58:35.000Z</time>
      </trkpt>
      <trkpt lat="43.56223" lon="6.58326">
        <ele>286.4</ele>
        <time>2025-10-28T09:58:36.000Z</time>
      </trkpt>
      <trkpt lat="43.56226" lon="6.58322">
        <ele>286.4</ele>
        <time>2025-10-28T09:58:37.000Z</time>
      </trkpt>
      <trkpt lat="43.56229" lon="6.58319">
        <ele>286.4</ele>
        <time>2025-10-28T09:58:38.000Z</time>
      </trkpt>
      <trkpt lat="43.56232" lon="6.58314">
        <ele>286.4</ele>
        <time>2025-10-28T09:58:39.000Z</time>
      </trkpt>
      <trkpt lat="43.56235" lon="6.5831">
        <ele>286.4</ele>
        <time>2025-10-28T09:58:40.000Z</time>
      </trkpt>
      <trkpt lat="43.56237" lon="6.58306">
        <ele>286.3</ele>
        <time>2025-10-28T09:58:41.000Z</time>
      </trkpt>
      <trkpt lat="43.56239" lon="6.58303">
        <ele>286.2</ele>
        <time>2025-10-28T09:58:42.000Z</time>
      </trkpt>
      <trkpt lat="43.56242" lon="6.58298">
        <ele>286.1</ele>
        <time>2025-10-28T09:58:43.000Z</time>
      </trkpt>
      <trkpt lat="43.56244" lon="6.58292">
        <ele>285.9</ele>
        <time>2025-10-28T09:58:44.000Z</time>
      </trkpt>
      <trkpt lat="43.56247" lon="6.58285">
        <ele>285.7</ele>
        <time>2025-10-28T09:58:45.000Z</time>
      </trkpt>
      <trkpt lat="43.56249" lon="6.58279">
        <ele>285.5</ele>
        <time>2025-10-28T09:58:46.000Z</time>
      </trkpt>
      <trkpt lat="43.56252" lon="6.58273">
        <ele>285.3</ele>
        <time>2025-10-28T09:58:47.000Z</time>
      </trkpt>
      <trkpt lat="43.56254" lon="6.58267">
        <ele>285.1</ele>
        <time>2025-10-28T09:58:48.000Z</time>
      </trkpt>
      <trkpt lat="43.56257" lon="6.58261">
        <ele>284.9</ele>
        <time>2025-10-28T09:58:49.000Z</time>
      </trkpt>
      <trkpt lat="43.56259" lon="6.58255">
        <ele>284.8</ele>
        <time>2025-10-28T09:58:50.000Z</time>
      </trkpt>
      <trkpt lat="43.56261" lon="6.58249">
        <ele>284.8</ele>
        <time>2025-10-28T09:58:51.000Z</time>
      </trkpt>
      <trkpt lat="43.56263" lon="6.58243">
        <ele>284.8</ele>
        <time>2025-10-28T09:58:52.000Z</time>
      </trkpt>
      <trkpt lat="43.56265" lon="6.58237">
        <ele>284.8</ele>
        <time>2025-10-28T09:58:53.000Z</time>
      </trkpt>
      <trkpt lat="43.56267" lon="6.58232">
        <ele>284.9</ele>
        <time>2025-10-28T09:58:54.000Z</time>
      </trkpt>
      <trkpt lat="43.56269" lon="6.58224">
        <ele>285.1</ele>
        <time>2025-10-28T09:58:55.000Z</time>
      </trkpt>
      <trkpt lat="43.56269" lon="6.58217">
        <ele>285.3</ele>
        <time>2025-10-28T09:58:56.000Z</time>
      </trkpt>
      <trkpt lat="43.56269" lon="6.58211">
        <ele>285.4</ele>
        <time>2025-10-28T09:58:57.000Z</time>
      </trkpt>
      <trkpt lat="43.56268" lon="6.58205">
        <ele>285.7</ele>
        <time>2025-10-28T09:58:58.000Z</time>
      </trkpt>
      <trkpt lat="43.56266" lon="6.582">
        <ele>286.1</ele>
        <time>2025-10-28T09:58:59.000Z</time>
      </trkpt>
      <trkpt lat="43.56262" lon="6.58196">
        <ele>286.6</ele>
        <time>2025-10-28T09:59:00.000Z</time>
      </trkpt>
      <trkpt lat="43.56259" lon="6.58193">
        <ele>287.1</ele>
        <time>2025-10-28T09:59:01.000Z</time>
      </trkpt>
      <trkpt lat="43.56256" lon="6.58192">
        <ele>287.5</ele>
        <time>2025-10-28T09:59:02.000Z</time>
      </trkpt>
      <trkpt lat="43.56252" lon="6.5819">
        <ele>288.1</ele>
        <time>2025-10-28T09:59:03.000Z</time>
      </trkpt>
      <trkpt lat="43.56249" lon="6.58189">
        <ele>288.7</ele>
        <time>2025-10-28T09:59:04.000Z</time>
      </trkpt>
      <trkpt lat="43.56245" lon="6.58188">
        <ele>289.3</ele>
        <time>2025-10-28T09:59:05.000Z</time>
      </trkpt>
      <trkpt lat="43.56241" lon="6.58187">
        <ele>289.7</ele>
        <time>2025-10-28T09:59:06.000Z</time>
      </trkpt>
      <trkpt lat="43.56239" lon="6.58186">
        <ele>290.1</ele>
        <time>2025-10-28T09:59:07.000Z</time>
      </trkpt>
      <trkpt lat="43.56235" lon="6.58184">
        <ele>290.5</ele>
        <time>2025-10-28T09:59:08.000Z</time>
      </trkpt>
      <trkpt lat="43.56233" lon="6.58182">
        <ele>290.7</ele>
        <time>2025-10-28T09:59:09.000Z</time>
      </trkpt>
      <trkpt lat="43.5623" lon="6.58181">
        <ele>291</ele>
        <time>2025-10-28T09:59:10.000Z</time>
      </trkpt>
      <trkpt lat="43.56226" lon="6.58179">
        <ele>291.3</ele>
        <time>2025-10-28T09:59:11.000Z</time>
      </trkpt>
      <trkpt lat="43.56223" lon="6.58177">
        <ele>291.5</ele>
        <time>2025-10-28T09:59:12.000Z</time>
      </trkpt>
      <trkpt lat="43.56221" lon="6.58174">
        <ele>291.7</ele>
        <time>2025-10-28T09:59:13.000Z</time>
      </trkpt>
      <trkpt lat="43.5622" lon="6.58171">
        <ele>291.8</ele>
        <time>2025-10-28T09:59:14.000Z</time>
      </trkpt>
      <trkpt lat="43.56221" lon="6.58167">
        <ele>292</ele>
        <time>2025-10-28T09:59:15.000Z</time>
      </trkpt>
      <trkpt lat="43.56223" lon="6.58164">
        <ele>292.2</ele>
        <time>2025-10-28T09:59:16.000Z</time>
      </trkpt>
      <trkpt lat="43.56225" lon="6.58162">
        <ele>292.3</ele>
        <time>2025-10-28T09:59:17.000Z</time>
      </trkpt>
      <trkpt lat="43.56227" lon="6.5816">
        <ele>292.5</ele>
        <time>2025-10-28T09:59:18.000Z</time>
      </trkpt>
      <trkpt lat="43.5623" lon="6.58159">
        <ele>292.7</ele>
        <time>2025-10-28T09:59:19.000Z</time>
      </trkpt>
      <trkpt lat="43.56234" lon="6.58157">
        <ele>293</ele>
        <time>2025-10-28T09:59:20.000Z</time>
      </trkpt>
      <trkpt lat="43.56237" lon="6.58155">
        <ele>293.2</ele>
        <time>2025-10-28T09:59:21.000Z</time>
      </trkpt>
      <trkpt lat="43.56239" lon="6.58153">
        <ele>293.4</ele>
        <time>2025-10-28T09:59:22.000Z</time>
      </trkpt>
      <trkpt lat="43.56242" lon="6.58151">
        <ele>293.6</ele>
        <time>2025-10-28T09:59:23.000Z</time>
      </trkpt>
      <trkpt lat="43.56245" lon="6.58149">
        <ele>293.8</ele>
        <time>2025-10-28T09:59:24.000Z</time>
      </trkpt>
      <trkpt lat="43.56248" lon="6.58146">
        <ele>294.1</ele>
        <time>2025-10-28T09:59:25.000Z</time>
      </trkpt>
      <trkpt lat="43.56249" lon="6.58144">
        <ele>294.2</ele>
        <time>2025-10-28T09:59:26.000Z</time>
      </trkpt>
      <trkpt lat="43.5625" lon="6.58142">
        <ele>294.4</ele>
        <time>2025-10-28T09:59:27.000Z</time>
      </trkpt>
      <trkpt lat="43.5625" lon="6.5814">
        <ele>294.4</ele>
        <time>2025-10-28T09:59:28.000Z</time>
      </trkpt>
      <trkpt lat="43.56251" lon="6.58138">
        <ele>294.6</ele>
        <time>2025-10-28T09:59:29.000Z</time>
      </trkpt>
      <trkpt lat="43.56252" lon="6.58136">
        <ele>294.7</ele>
        <time>2025-10-28T09:59:30.000Z</time>
      </trkpt>
      <trkpt lat="43.56254" lon="6.58135">
        <ele>294.8</ele>
        <time>2025-10-28T09:59:31.000Z</time>
      </trkpt>
      <trkpt lat="43.56256" lon="6.58132">
        <ele>295</ele>
        <time>2025-10-28T09:59:32.000Z</time>
      </trkpt>
      <trkpt lat="43.56259" lon="6.5813">
        <ele>295.2</ele>
        <time>2025-10-28T09:59:33.000Z</time>
      </trkpt>
      <trkpt lat="43.5626" lon="6.58128">
        <ele>295.3</ele>
        <time>2025-10-28T09:59:34.000Z</time>
      </trkpt>
      <trkpt lat="43.56263" lon="6.58125">
        <ele>295.5</ele>
        <time>2025-10-28T09:59:35.000Z</time>
      </trkpt>
      <trkpt lat="43.56266" lon="6.58122">
        <ele>295.7</ele>
        <time>2025-10-28T09:59:36.000Z</time>
      </trkpt>
      <trkpt lat="43.56268" lon="6.58119">
        <ele>295.9</ele>
        <time>2025-10-28T09:59:37.000Z</time>
      </trkpt>
      <trkpt lat="43.5627" lon="6.58116">
        <ele>296</ele>
        <time>2025-10-28T09:59:38.000Z</time>
      </trkpt>
      <trkpt lat="43.56272" lon="6.58114">
        <ele>296.2</ele>
        <time>2025-10-28T09:59:39.000Z</time>
      </trkpt>
      <trkpt lat="43.56274" lon="6.5811">
        <ele>296.3</ele>
        <time>2025-10-28T09:59:40.000Z</time>
      </trkpt>
      <trkpt lat="43.56276" lon="6.58107">
        <ele>296.5</ele>
        <time>2025-10-28T09:59:41.000Z</time>
      </trkpt>
      <trkpt lat="43.56279" lon="6.58104">
        <ele>296.6</ele>
        <time>2025-10-28T09:59:42.000Z</time>
      </trkpt>
      <trkpt lat="43.5628" lon="6.58102">
        <ele>296.6</ele>
        <time>2025-10-28T09:59:43.000Z</time>
      </trkpt>
      <trkpt lat="43.56282" lon="6.58099">
        <ele>296.7</ele>
        <time>2025-10-28T09:59:44.000Z</time>
      </trkpt>
      <trkpt lat="43.56285" lon="6.58096">
        <ele>296.7</ele>
        <time>2025-10-28T09:59:45.000Z</time>
      </trkpt>
      <trkpt lat="43.56287" lon="6.58093">
        <ele>296.6</ele>
        <time>2025-10-28T09:59:46.000Z</time>
      </trkpt>
      <trkpt lat="43.56289" lon="6.58091">
        <ele>296.6</ele>
        <time>2025-10-28T09:59:47.000Z</time>
      </trkpt>
      <trkpt lat="43.56291" lon="6.58089">
        <ele>296.5</ele>
        <time>2025-10-28T09:59:48.000Z</time>
      </trkpt>
      <trkpt lat="43.56294" lon="6.58086">
        <ele>296.4</ele>
        <time>2025-10-28T09:59:49.000Z</time>
      </trkpt>
      <trkpt lat="43.56296" lon="6.58085">
        <ele>296.3</ele>
        <time>2025-10-28T09:59:50.000Z</time>
      </trkpt>
      <trkpt lat="43.56299" lon="6.58081">
        <ele>296.2</ele>
        <time>2025-10-28T09:59:51.000Z</time>
      </trkpt>
      <trkpt lat="43.56301" lon="6.58079">
        <ele>296.1</ele>
        <time>2025-10-28T09:59:52.000Z</time>
      </trkpt>
      <trkpt lat="43.56304" lon="6.58076">
        <ele>296</ele>
        <time>2025-10-28T09:59:53.000Z</time>
      </trkpt>
      <trkpt lat="43.56305" lon="6.58074">
        <ele>295.9</ele>
        <time>2025-10-28T09:59:54.000Z</time>
      </trkpt>
      <trkpt lat="43.56307" lon="6.58073">
        <ele>295.8</ele>
        <time>2025-10-28T09:59:55.000Z</time>
      </trkpt>
      <trkpt lat="43.56308" lon="6.58071">
        <ele>295.7</ele>
        <time>2025-10-28T09:59:56.000Z</time>
      </trkpt>
      <trkpt lat="43.56309" lon="6.58071">
        <ele>295.7</ele>
        <time>2025-10-28T09:59:57.000Z</time>
      </trkpt>
      <trkpt lat="43.56309" lon="6.5807">
        <ele>295.7</ele>
        <time>2025-10-28T09:59:58.000Z</time>
      </trkpt>
      <trkpt lat="43.56309" lon="6.58068">
        <ele>295.6</ele>
        <time>2025-10-28T09:59:59.000Z</time>
      </trkpt>
      <trkpt lat="43.56308" lon="6.58067">
        <ele>295.6</ele>
        <time>2025-10-28T10:00:00.000Z</time>
      </trkpt>
      <trkpt lat="43.56308" lon="6.58066">
        <ele>295.6</ele>
        <time>2025-10-28T10:00:01.000Z</time>
      </trkpt>
      <trkpt lat="43.56307" lon="6.58066">
        <ele>295.6</ele>
        <time>2025-10-28T10:00:02.000Z</time>
      </trkpt>
      <trkpt lat="43.56307" lon="6.58066">
        <ele>295.6</ele>
        <time>2025-10-28T10:00:03.000Z</time>
      </trkpt>
      <trkpt lat="43.56307" lon="6.58066">
        <ele>295.5</ele>
        <time>2025-10-28T10:00:04.000Z</time>
      </trkpt>
      <trkpt lat="43.56307" lon="6.58067">
        <ele>295.5</ele>
        <time>2025-10-28T10:00:05.000Z</time>
      </trkpt>
      <trkpt lat="43.56307" lon="6.58067">
        <ele>295.5</ele>
        <time>2025-10-28T10:00:06.000Z</time>
      </trkpt>
      <trkpt lat="43.56307" lon="6.58067">
        <ele>295.5</ele>
        <time>2025-10-28T10:00:07.000Z</time>
      </trkpt>
      <trkpt lat="43.56307" lon="6.58068">
        <ele>295.5</ele>
        <time>2025-10-28T10:00:08.000Z</time>
      </trkpt>
      <trkpt lat="43.56307" lon="6.58068">
        <ele>295.5</ele>
        <time>2025-10-28T10:00:09.000Z</time>
      </trkpt>
      <trkpt lat="43.56307" lon="6.58068">
        <ele>295.5</ele>
        <time>2025-10-28T10:00:10.000Z</time>
      </trkpt>
      <trkpt lat="43.56307" lon="6.58068">
        <ele>295.5</ele>
        <time>2025-10-28T10:00:11.000Z</time>
      </trkpt>
      <trkpt lat="43.56307" lon="6.58068">
        <ele>295.5</ele>
        <time>2025-10-28T10:00:12.000Z</time>
      </trkpt>
      <trkpt lat="43.56307" lon="6.58068">
        <ele>295.5</ele>
        <time>2025-10-28T10:00:13.000Z</time>
      </trkpt>
      <trkpt lat="43.56307" lon="6.58068">
        <ele>295.5</ele>
        <time>2025-10-28T10:00:14.000Z</time>
      </trkpt>
      <trkpt lat="43.56307" lon="6.58068">
        <ele>295.5</ele>
        <time>2025-10-28T10:00:15.000Z</time>
      </trkpt>
      <trkpt lat="43.56307" lon="6.58068">
        <ele>295.5</ele>
        <time>2025-10-28T10:00:16.000Z</time>
      </trkpt>
      <trkpt lat="43.56307" lon="6.58068">
        <ele>295.5</ele>
        <time>2025-10-28T10:00:17.000Z</time>
      </trkpt>
      <trkpt lat="43.56307" lon="6.58068">
        <ele>295.5</ele>
        <time>2025-10-28T10:00:18.000Z</time>
      </trkpt>
      <trkpt lat="43.56307" lon="6.58068">
        <ele>295.5</ele>
        <time>2025-10-28T10:00:19.000Z</time>
      </trkpt>
      <trkpt lat="43.56307" lon="6.58068">
        <ele>295.5</ele>
        <time>2025-10-28T10:00:20.000Z</time>
      </trkpt>
      <trkpt lat="43.56307" lon="6.58068">
        <ele>295.4</ele>
        <time>2025-10-28T10:00:21.000Z</time>
      </trkpt>
      <trkpt lat="43.56307" lon="6.58068">
        <ele>295.4</ele>
        <time>2025-10-28T10:00:22.000Z</time>
      </trkpt>
      <trkpt lat="43.56307" lon="6.58068">
        <ele>295.4</ele>
        <time>2025-10-28T10:00:23.000Z</time>
      </trkpt>
      <trkpt lat="43.56307" lon="6.58068">
        <ele>295.4</ele>
        <time>2025-10-28T10:00:24.000Z</time>
      </trkpt>
      <trkpt lat="43.56307" lon="6.58068">
        <ele>295.4</ele>
        <time>2025-10-28T10:00:25.000Z</time>
      </trkpt>
      <trkpt lat="43.56307" lon="6.58068">
        <ele>295.4</ele>
        <time>2025-10-28T10:00:26.000Z</time>
      </trkpt>
      <trkpt lat="43.56307" lon="6.58068">
        <ele>295.4</ele>
        <time>2025-10-28T10:00:27.000Z</time>
      </trkpt>
      <trkpt lat="43.56307" lon="6.58068">
        <ele>295.4</ele>
        <time>2025-10-28T10:00:28.000Z</time>
      </trkpt>
      <trkpt lat="43.56307" lon="6.58068">
        <ele>295.4</ele>
        <time>2025-10-28T10:00:29.000Z</time>
      </trkpt>
      <trkpt lat="43.56307" lon="6.58068">
        <ele>295.4</ele>
        <time>2025-10-28T10:00:30.000Z</time>
      </trkpt>
      <trkpt lat="43.56307" lon="6.58068">
        <ele>295.4</ele>
        <time>2025-10-28T10:00:31.000Z</time>
      </trkpt>
      <trkpt lat="43.56307" lon="6.58068">
        <ele>295.4</ele>
        <time>2025-10-28T10:00:32.000Z</time>
      </trkpt>
      <trkpt lat="43.56307" lon="6.58068">
        <ele>295.4</ele>
        <time>2025-10-28T10:00:33.000Z</time>
      </trkpt>
      <trkpt lat="43.56307" lon="6.58068">
        <ele>295.4</ele>
        <time>2025-10-28T10:00:34.000Z</time>
      </trkpt>
      <trkpt lat="43.56307" lon="6.58068">
        <ele>295.4</ele>
        <time>2025-10-28T10:00:35.000Z</time>
      </trkpt>
      <trkpt lat="43.56307" lon="6.58068">
        <ele>295.4</ele>
        <time>2025-10-28T10:00:36.000Z</time>
      </trkpt>
      <trkpt lat="43.56307" lon="6.58068">
        <ele>295.4</ele>
        <time>2025-10-28T10:00:37.000Z</time>
      </trkpt>
      <trkpt lat="43.56307" lon="6.58068">
        <ele>295.4</ele>
        <time>2025-10-28T10:00:38.000Z</time>
      </trkpt>
      <trkpt lat="43.56307" lon="6.58068">
        <ele>295.4</ele>
        <time>2025-10-28T10:00:39.000Z</time>
      </trkpt>
      <trkpt lat="43.56307" lon="6.58068">
        <ele>295.4</ele>
        <time>2025-10-28T10:00:40.000Z</time>
      </trkpt>
      <trkpt lat="43.56307" lon="6.58068">
        <ele>295.4</ele>
        <time>2025-10-28T10:00:41.000Z</time>
      </trkpt>
      <trkpt lat="43.56307" lon="6.58068">
        <ele>295.4</ele>
        <time>2025-10-28T10:00:42.000Z</time>
      </trkpt>
      <trkpt lat="43.56307" lon="6.58068">
        <ele>295.4</ele>
        <time>2025-10-28T10:00:43.000Z</time>
      </trkpt>
      <trkpt lat="43.56307" lon="6.58068">
        <ele>295.4</ele>
        <time>2025-10-28T10:00:44.000Z</time>
      </trkpt>
      <trkpt lat="43.56307" lon="6.58068">
        <ele>295.4</ele>
        <time>2025-10-28T10:00:45.000Z</time>
      </trkpt>
      <trkpt lat="43.56307" lon="6.58068">
        <ele>295.4</ele>
        <time>2025-10-28T10:00:46.000Z</time>
      </trkpt>
      <trkpt lat="43.56307" lon="6.58068">
        <ele>295.4</ele>
        <time>2025-10-28T10:00:47.000Z</time>
      </trkpt>
      <trkpt lat="43.56307" lon="6.58068">
        <ele>295.4</ele>
        <time>2025-10-28T10:00:48.000Z</time>
      </trkpt>
      <trkpt lat="43.56307" lon="6.58068">
        <ele>295.4</ele>
        <time>2025-10-28T10:00:49.000Z</time>
      </trkpt>
      <trkpt lat="43.56307" lon="6.58068">
        <ele>295.4</ele>
        <time>2025-10-28T10:00:50.000Z</time>
      </trkpt>
      <trkpt lat="43.56307" lon="6.58068">
        <ele>295.4</ele>
        <time>2025-10-28T10:00:51.000Z</time>
      </trkpt>
      <trkpt lat="43.56307" lon="6.58068">
        <ele>295.4</ele>
        <time>2025-10-28T10:00:52.000Z</time>
      </trkpt>
      <trkpt lat="43.56307" lon="6.58068">
        <ele>295.4</ele>
        <time>2025-10-28T10:00:53.000Z</time>
      </trkpt>
      <trkpt lat="43.56307" lon="6.58068">
        <ele>295.4</ele>
        <time>2025-10-28T10:00:54.000Z</time>
      </trkpt>
      <trkpt lat="43.56307" lon="6.58068">
        <ele>295.4</ele>
        <time>2025-10-28T10:00:55.000Z</time>
      </trkpt>
      <trkpt lat="43.56306" lon="6.58068">
        <ele>295.4</ele>
        <time>2025-10-28T10:00:56.000Z</time>
      </trkpt>
      <trkpt lat="43.56306" lon="6.58067">
        <ele>295.4</ele>
        <time>2025-10-28T10:00:57.000Z</time>
      </trkpt>
      <trkpt lat="43.56303" lon="6.58063">
        <ele>295.2</ele>
        <time>2025-10-28T10:00:58.000Z</time>
      </trkpt>
      <trkpt lat="43.563" lon="6.5806">
        <ele>295</ele>
        <time>2025-10-28T10:00:59.000Z</time>
      </trkpt>
      <trkpt lat="43.56296" lon="6.58056">
        <ele>294.9</ele>
        <time>2025-10-28T10:01:00.000Z</time>
      </trkpt>
      <trkpt lat="43.56293" lon="6.58052">
        <ele>294.7</ele>
        <time>2025-10-28T10:01:01.000Z</time>
      </trkpt>
      <trkpt lat="43.56289" lon="6.58047">
        <ele>294.5</ele>
        <time>2025-10-28T10:01:02.000Z</time>
      </trkpt>
      <trkpt lat="43.56285" lon="6.58043">
        <ele>294.4</ele>
        <time>2025-10-28T10:01:03.000Z</time>
      </trkpt>
      <trkpt lat="43.56282" lon="6.5804">
        <ele>294.3</ele>
        <time>2025-10-28T10:01:04.000Z</time>
      </trkpt>
      <trkpt lat="43.56278" lon="6.58036">
        <ele>294.2</ele>
        <time>2025-10-28T10:01:05.000Z</time>
      </trkpt>
      <trkpt lat="43.56274" lon="6.58031">
        <ele>294.1</ele>
        <time>2025-10-28T10:01:06.000Z</time>
      </trkpt>
      <trkpt lat="43.56271" lon="6.58026">
        <ele>294</ele>
        <time>2025-10-28T10:01:07.000Z</time>
      </trkpt>
      <trkpt lat="43.56267" lon="6.58022">
        <ele>294</ele>
        <time>2025-10-28T10:01:08.000Z</time>
      </trkpt>
      <trkpt lat="43.56264" lon="6.58018">
        <ele>293.9</ele>
        <time>2025-10-28T10:01:09.000Z</time>
      </trkpt>
      <trkpt lat="43.56261" lon="6.58015">
        <ele>293.9</ele>
        <time>2025-10-28T10:01:10.000Z</time>
      </trkpt>
      <trkpt lat="43.56256" lon="6.5801">
        <ele>293.8</ele>
        <time>2025-10-28T10:01:11.000Z</time>
      </trkpt>
      <trkpt lat="43.56253" lon="6.58005">
        <ele>293.7</ele>
        <time>2025-10-28T10:01:12.000Z</time>
      </trkpt>
      <trkpt lat="43.56249" lon="6.58001">
        <ele>293.6</ele>
        <time>2025-10-28T10:01:13.000Z</time>
      </trkpt>
      <trkpt lat="43.56246" lon="6.57997">
        <ele>293.6</ele>
        <time>2025-10-28T10:01:14.000Z</time>
      </trkpt>
      <trkpt lat="43.56243" lon="6.57993">
        <ele>293.6</ele>
        <time>2025-10-28T10:01:15.000Z</time>
      </trkpt>
      <trkpt lat="43.56239" lon="6.57988">
        <ele>293.5</ele>
        <time>2025-10-28T10:01:16.000Z</time>
      </trkpt>
      <trkpt lat="43.56235" lon="6.57985">
        <ele>293.5</ele>
        <time>2025-10-28T10:01:17.000Z</time>
      </trkpt>
      <trkpt lat="43.56231" lon="6.57982">
        <ele>293.5</ele>
        <time>2025-10-28T10:01:18.000Z</time>
      </trkpt>
      <trkpt lat="43.56228" lon="6.57979">
        <ele>293.5</ele>
        <time>2025-10-28T10:01:19.000Z</time>
      </trkpt>
      <trkpt lat="43.56223" lon="6.57976">
        <ele>293.5</ele>
        <time>2025-10-28T10:01:20.000Z</time>
      </trkpt>
      <trkpt lat="43.56218" lon="6.57972">
        <ele>293.5</ele>
        <time>2025-10-28T10:01:21.000Z</time>
      </trkpt>
      <trkpt lat="43.56214" lon="6.57969">
        <ele>293.5</ele>
        <time>2025-10-28T10:01:22.000Z</time>
      </trkpt>
      <trkpt lat="43.56209" lon="6.57966">
        <ele>293.6</ele>
        <time>2025-10-28T10:01:23.000Z</time>
      </trkpt>
      <trkpt lat="43.56206" lon="6.57965">
        <ele>293.6</ele>
        <time>2025-10-28T10:01:24.000Z</time>
      </trkpt>
      <trkpt lat="43.56202" lon="6.57965">
        <ele>293.6</ele>
        <time>2025-10-28T10:01:25.000Z</time>
      </trkpt>
      <trkpt lat="43.56197" lon="6.57965">
        <ele>293.6</ele>
        <time>2025-10-28T10:01:26.000Z</time>
      </trkpt>
      <trkpt lat="43.56193" lon="6.57966">
        <ele>293.6</ele>
        <time>2025-10-28T10:01:27.000Z</time>
      </trkpt>
      <trkpt lat="43.56188" lon="6.57967">
        <ele>293.6</ele>
        <time>2025-10-28T10:01:28.000Z</time>
      </trkpt>
      <trkpt lat="43.56185" lon="6.57967">
        <ele>293.5</ele>
        <time>2025-10-28T10:01:29.000Z</time>
      </trkpt>
      <trkpt lat="43.5618" lon="6.57968">
        <ele>293.4</ele>
        <time>2025-10-28T10:01:30.000Z</time>
      </trkpt>
      <trkpt lat="43.56174" lon="6.57969">
        <ele>293.3</ele>
        <time>2025-10-28T10:01:31.000Z</time>
      </trkpt>
      <trkpt lat="43.56169" lon="6.57969">
        <ele>292.8</ele>
        <time>2025-10-28T10:01:32.000Z</time>
      </trkpt>
      <trkpt lat="43.56165" lon="6.57969">
        <ele>292.4</ele>
        <time>2025-10-28T10:01:33.000Z</time>
      </trkpt>
      <trkpt lat="43.5616" lon="6.57969">
        <ele>291.9</ele>
        <time>2025-10-28T10:01:34.000Z</time>
      </trkpt>
      <trkpt lat="43.56155" lon="6.57968">
        <ele>291.5</ele>
        <time>2025-10-28T10:01:35.000Z</time>
      </trkpt>
      <trkpt lat="43.56149" lon="6.57966">
        <ele>290.9</ele>
        <time>2025-10-28T10:01:36.000Z</time>
      </trkpt>
      <trkpt lat="43.56145" lon="6.57964">
        <ele>290.4</ele>
        <time>2025-10-28T10:01:37.000Z</time>
      </trkpt>
      <trkpt lat="43.5614" lon="6.57963">
        <ele>289.9</ele>
        <time>2025-10-28T10:01:38.000Z</time>
      </trkpt>
      <trkpt lat="43.56136" lon="6.57964">
        <ele>289.4</ele>
        <time>2025-10-28T10:01:39.000Z</time>
      </trkpt>
      <trkpt lat="43.56131" lon="6.57965">
        <ele>288.7</ele>
        <time>2025-10-28T10:01:40.000Z</time>
      </trkpt>
      <trkpt lat="43.56125" lon="6.57968">
        <ele>287.6</ele>
        <time>2025-10-28T10:01:41.000Z</time>
      </trkpt>
      <trkpt lat="43.5612" lon="6.57971">
        <ele>286.6</ele>
        <time>2025-10-28T10:01:42.000Z</time>
      </trkpt>
      <trkpt lat="43.56115" lon="6.57973">
        <ele>285.9</ele>
        <time>2025-10-28T10:01:43.000Z</time>
      </trkpt>
      <trkpt lat="43.5611" lon="6.57976">
        <ele>285</ele>
        <time>2025-10-28T10:01:44.000Z</time>
      </trkpt>
      <trkpt lat="43.56104" lon="6.57978">
        <ele>284.1</ele>
        <time>2025-10-28T10:01:45.000Z</time>
      </trkpt>
      <trkpt lat="43.561" lon="6.5798">
        <ele>283.6</ele>
        <time>2025-10-28T10:01:46.000Z</time>
      </trkpt>
      <trkpt lat="43.56094" lon="6.5798">
        <ele>282.9</ele>
        <time>2025-10-28T10:01:47.000Z</time>
      </trkpt>
      <trkpt lat="43.56089" lon="6.57981">
        <ele>282.3</ele>
        <time>2025-10-28T10:01:48.000Z</time>
      </trkpt>
      <trkpt lat="43.56084" lon="6.57981">
        <ele>281.8</ele>
        <time>2025-10-28T10:01:49.000Z</time>
      </trkpt>
      <trkpt lat="43.56078" lon="6.5798">
        <ele>281.1</ele>
        <time>2025-10-28T10:01:50.000Z</time>
      </trkpt>
      <trkpt lat="43.56075" lon="6.5798">
        <ele>280.7</ele>
        <time>2025-10-28T10:01:51.000Z</time>
      </trkpt>
      <trkpt lat="43.56069" lon="6.5798">
        <ele>280</ele>
        <time>2025-10-28T10:01:52.000Z</time>
      </trkpt>
      <trkpt lat="43.56066" lon="6.5798">
        <ele>279.4</ele>
        <time>2025-10-28T10:01:53.000Z</time>
      </trkpt>
      <trkpt lat="43.56061" lon="6.57982">
        <ele>278.8</ele>
        <time>2025-10-28T10:01:54.000Z</time>
      </trkpt>
      <trkpt lat="43.56056" lon="6.57985">
        <ele>277.9</ele>
        <time>2025-10-28T10:01:55.000Z</time>
      </trkpt>
      <trkpt lat="43.56051" lon="6.57988">
        <ele>277.2</ele>
        <time>2025-10-28T10:01:56.000Z</time>
      </trkpt>
      <trkpt lat="43.56047" lon="6.57991">
        <ele>276.6</ele>
        <time>2025-10-28T10:01:57.000Z</time>
      </trkpt>
      <trkpt lat="43.56043" lon="6.57993">
        <ele>276</ele>
        <time>2025-10-28T10:01:58.000Z</time>
      </trkpt>
      <trkpt lat="43.56037" lon="6.57996">
        <ele>275.4</ele>
        <time>2025-10-28T10:01:59.000Z</time>
      </trkpt>
      <trkpt lat="43.56032" lon="6.57999">
        <ele>274.7</ele>
        <time>2025-10-28T10:02:00.000Z</time>
      </trkpt>
      <trkpt lat="43.56027" lon="6.58001">
        <ele>274.2</ele>
        <time>2025-10-28T10:02:01.000Z</time>
      </trkpt>
      <trkpt lat="43.56023" lon="6.58004">
        <ele>273.8</ele>
        <time>2025-10-28T10:02:02.000Z</time>
      </trkpt>
      <trkpt lat="43.56018" lon="6.58008">
        <ele>273.4</ele>
        <time>2025-10-28T10:02:03.000Z</time>
      </trkpt>
      <trkpt lat="43.56014" lon="6.58013">
        <ele>272.9</ele>
        <time>2025-10-28T10:02:04.000Z</time>
      </trkpt>
      <trkpt lat="43.56008" lon="6.58019">
        <ele>272.5</ele>
        <time>2025-10-28T10:02:05.000Z</time>
      </trkpt>
      <trkpt lat="43.56003" lon="6.58024">
        <ele>272.2</ele>
        <time>2025-10-28T10:02:06.000Z</time>
      </trkpt>
      <trkpt lat="43.56" lon="6.58028">
        <ele>272.1</ele>
        <time>2025-10-28T10:02:07.000Z</time>
      </trkpt>
      <trkpt lat="43.55995" lon="6.58032">
        <ele>271.9</ele>
        <time>2025-10-28T10:02:08.000Z</time>
      </trkpt>
      <trkpt lat="43.55991" lon="6.58035">
        <ele>271.8</ele>
        <time>2025-10-28T10:02:09.000Z</time>
      </trkpt>
      <trkpt lat="43.55986" lon="6.58038">
        <ele>271.6</ele>
        <time>2025-10-28T10:02:10.000Z</time>
      </trkpt>
      <trkpt lat="43.5598" lon="6.58042">
        <ele>271.5</ele>
        <time>2025-10-28T10:02:11.000Z</time>
      </trkpt>
      <trkpt lat="43.55977" lon="6.58044">
        <ele>271.4</ele>
        <time>2025-10-28T10:02:12.000Z</time>
      </trkpt>
      <trkpt lat="43.55974" lon="6.58048">
        <ele>271.3</ele>
        <time>2025-10-28T10:02:13.000Z</time>
      </trkpt>
      <trkpt lat="43.55971" lon="6.58052">
        <ele>271.2</ele>
        <time>2025-10-28T10:02:14.000Z</time>
      </trkpt>
      <trkpt lat="43.55968" lon="6.58056">
        <ele>271.2</ele>
        <time>2025-10-28T10:02:15.000Z</time>
      </trkpt>
      <trkpt lat="43.55965" lon="6.58062">
        <ele>271.1</ele>
        <time>2025-10-28T10:02:16.000Z</time>
      </trkpt>
      <trkpt lat="43.55962" lon="6.58066">
        <ele>271</ele>
        <time>2025-10-28T10:02:17.000Z</time>
      </trkpt>
      <trkpt lat="43.55959" lon="6.58071">
        <ele>271</ele>
        <time>2025-10-28T10:02:18.000Z</time>
      </trkpt>
      <trkpt lat="43.55955" lon="6.58076">
        <ele>271</ele>
        <time>2025-10-28T10:02:19.000Z</time>
      </trkpt>
      <trkpt lat="43.55951" lon="6.5808">
        <ele>271</ele>
        <time>2025-10-28T10:02:20.000Z</time>
      </trkpt>
      <trkpt lat="43.55947" lon="6.58084">
        <ele>271</ele>
        <time>2025-10-28T10:02:21.000Z</time>
      </trkpt>
      <trkpt lat="43.55943" lon="6.58087">
        <ele>271</ele>
        <time>2025-10-28T10:02:22.000Z</time>
      </trkpt>
      <trkpt lat="43.55939" lon="6.58091">
        <ele>271</ele>
        <time>2025-10-28T10:02:23.000Z</time>
      </trkpt>
      <trkpt lat="43.55934" lon="6.58096">
        <ele>271.1</ele>
        <time>2025-10-28T10:02:24.000Z</time>
      </trkpt>
      <trkpt lat="43.5593" lon="6.58099">
        <ele>271.2</ele>
        <time>2025-10-28T10:02:25.000Z</time>
      </trkpt>
      <trkpt lat="43.55926" lon="6.58103">
        <ele>271.3</ele>
        <time>2025-10-28T10:02:26.000Z</time>
      </trkpt>
      <trkpt lat="43.55923" lon="6.58106">
        <ele>271.4</ele>
        <time>2025-10-28T10:02:27.000Z</time>
      </trkpt>
      <trkpt lat="43.55919" lon="6.5811">
        <ele>271.5</ele>
        <time>2025-10-28T10:02:28.000Z</time>
      </trkpt>
      <trkpt lat="43.55915" lon="6.58114">
        <ele>271.7</ele>
        <time>2025-10-28T10:02:29.000Z</time>
      </trkpt>
      <trkpt lat="43.55911" lon="6.58118">
        <ele>271.8</ele>
        <time>2025-10-28T10:02:30.000Z</time>
      </trkpt>
      <trkpt lat="43.55908" lon="6.58121">
        <ele>271.8</ele>
        <time>2025-10-28T10:02:31.000Z</time>
      </trkpt>
      <trkpt lat="43.55906" lon="6.58125">
        <ele>271.9</ele>
        <time>2025-10-28T10:02:32.000Z</time>
      </trkpt>
      <trkpt lat="43.55903" lon="6.58128">
        <ele>271.9</ele>
        <time>2025-10-28T10:02:33.000Z</time>
      </trkpt>
      <trkpt lat="43.55899" lon="6.58133">
        <ele>271.9</ele>
        <time>2025-10-28T10:02:34.000Z</time>
      </trkpt>
      <trkpt lat="43.55895" lon="6.58136">
        <ele>271.8</ele>
        <time>2025-10-28T10:02:35.000Z</time>
      </trkpt>
      <trkpt lat="43.55893" lon="6.58139">
        <ele>271.7</ele>
        <time>2025-10-28T10:02:36.000Z</time>
      </trkpt>
      <trkpt lat="43.55889" lon="6.58142">
        <ele>271.6</ele>
        <time>2025-10-28T10:02:37.000Z</time>
      </trkpt>
      <trkpt lat="43.55886" lon="6.58146">
        <ele>271.5</ele>
        <time>2025-10-28T10:02:38.000Z</time>
      </trkpt>
      <trkpt lat="43.55882" lon="6.58149">
        <ele>271.3</ele>
        <time>2025-10-28T10:02:39.000Z</time>
      </trkpt>
      <trkpt lat="43.55879" lon="6.58152">
        <ele>271.2</ele>
        <time>2025-10-28T10:02:40.000Z</time>
      </trkpt>
      <trkpt lat="43.55876" lon="6.58155">
        <ele>271</ele>
        <time>2025-10-28T10:02:41.000Z</time>
      </trkpt>
      <trkpt lat="43.55873" lon="6.58158">
        <ele>270.8</ele>
        <time>2025-10-28T10:02:42.000Z</time>
      </trkpt>
      <trkpt lat="43.5587" lon="6.58161">
        <ele>270.6</ele>
        <time>2025-10-28T10:02:43.000Z</time>
      </trkpt>
      <trkpt lat="43.55866" lon="6.58164">
        <ele>270.3</ele>
        <time>2025-10-28T10:02:44.000Z</time>
      </trkpt>
      <trkpt lat="43.55863" lon="6.58167">
        <ele>270</ele>
        <time>2025-10-28T10:02:45.000Z</time>
      </trkpt>
      <trkpt lat="43.5586" lon="6.5817">
        <ele>269.8</ele>
        <time>2025-10-28T10:02:46.000Z</time>
      </trkpt>
      <trkpt lat="43.55855" lon="6.58173">
        <ele>269.5</ele>
        <time>2025-10-28T10:02:47.000Z</time>
      </trkpt>
      <trkpt lat="43.55851" lon="6.58176">
        <ele>269.1</ele>
        <time>2025-10-28T10:02:48.000Z</time>
      </trkpt>
      <trkpt lat="43.55846" lon="6.5818">
        <ele>268.8</ele>
        <time>2025-10-28T10:02:49.000Z</time>
      </trkpt>
      <trkpt lat="43.55841" lon="6.58183">
        <ele>268.5</ele>
        <time>2025-10-28T10:02:50.000Z</time>
      </trkpt>
      <trkpt lat="43.55838" lon="6.58186">
        <ele>268.2</ele>
        <time>2025-10-28T10:02:51.000Z</time>
      </trkpt>
      <trkpt lat="43.55833" lon="6.5819">
        <ele>268</ele>
        <time>2025-10-28T10:02:52.000Z</time>
      </trkpt>
      <trkpt lat="43.55829" lon="6.58194">
        <ele>267.9</ele>
        <time>2025-10-28T10:02:53.000Z</time>
      </trkpt>
      <trkpt lat="43.55825" lon="6.58197">
        <ele>267.9</ele>
        <time>2025-10-28T10:02:54.000Z</time>
      </trkpt>
      <trkpt lat="43.55821" lon="6.58201">
        <ele>267.9</ele>
        <time>2025-10-28T10:02:55.000Z</time>
      </trkpt>
      <trkpt lat="43.55818" lon="6.58202">
        <ele>267.9</ele>
        <time>2025-10-28T10:02:56.000Z</time>
      </trkpt>
      <trkpt lat="43.55815" lon="6.58205">
        <ele>268</ele>
        <time>2025-10-28T10:02:57.000Z</time>
      </trkpt>
      <trkpt lat="43.55811" lon="6.58207">
        <ele>268.1</ele>
        <time>2025-10-28T10:02:58.000Z</time>
      </trkpt>
      <trkpt lat="43.55808" lon="6.58208">
        <ele>268.2</ele>
        <time>2025-10-28T10:02:59.000Z</time>
      </trkpt>
      <trkpt lat="43.55806" lon="6.58209">
        <ele>268.4</ele>
        <time>2025-10-28T10:03:00.000Z</time>
      </trkpt>
      <trkpt lat="43.55803" lon="6.5821">
        <ele>268.5</ele>
        <time>2025-10-28T10:03:01.000Z</time>
      </trkpt>
      <trkpt lat="43.55799" lon="6.58212">
        <ele>268.7</ele>
        <time>2025-10-28T10:03:02.000Z</time>
      </trkpt>
      <trkpt lat="43.55796" lon="6.58213">
        <ele>269</ele>
        <time>2025-10-28T10:03:03.000Z</time>
      </trkpt>
      <trkpt lat="43.55793" lon="6.58215">
        <ele>269.3</ele>
        <time>2025-10-28T10:03:04.000Z</time>
      </trkpt>
      <trkpt lat="43.5579" lon="6.58216">
        <ele>269.5</ele>
        <time>2025-10-28T10:03:05.000Z</time>
      </trkpt>
      <trkpt lat="43.55787" lon="6.58218">
        <ele>269.7</ele>
        <time>2025-10-28T10:03:06.000Z</time>
      </trkpt>
      <trkpt lat="43.55783" lon="6.58218">
        <ele>270</ele>
        <time>2025-10-28T10:03:07.000Z</time>
      </trkpt>
      <trkpt lat="43.5578" lon="6.58219">
        <ele>270.2</ele>
        <time>2025-10-28T10:03:08.000Z</time>
      </trkpt>
      <trkpt lat="43.55777" lon="6.58221">
        <ele>270.4</ele>
        <time>2025-10-28T10:03:09.000Z</time>
      </trkpt>
      <trkpt lat="43.55774" lon="6.58222">
        <ele>270.5</ele>
        <time>2025-10-28T10:03:10.000Z</time>
      </trkpt>
      <trkpt lat="43.5577" lon="6.58224">
        <ele>270.7</ele>
        <time>2025-10-28T10:03:11.000Z</time>
      </trkpt>
      <trkpt lat="43.55767" lon="6.58225">
        <ele>270.9</ele>
        <time>2025-10-28T10:03:12.000Z</time>
      </trkpt>
      <trkpt lat="43.55764" lon="6.58226">
        <ele>271.1</ele>
        <time>2025-10-28T10:03:13.000Z</time>
      </trkpt>
      <trkpt lat="43.5576" lon="6.58228">
        <ele>271.2</ele>
        <time>2025-10-28T10:03:14.000Z</time>
      </trkpt>
      <trkpt lat="43.55757" lon="6.58228">
        <ele>271.4</ele>
        <time>2025-10-28T10:03:15.000Z</time>
      </trkpt>
      <trkpt lat="43.55754" lon="6.58229">
        <ele>271.6</ele>
        <time>2025-10-28T10:03:16.000Z</time>
      </trkpt>
      <trkpt lat="43.5575" lon="6.5823">
        <ele>271.7</ele>
        <time>2025-10-28T10:03:17.000Z</time>
      </trkpt>
      <trkpt lat="43.55746" lon="6.58231">
        <ele>271.8</ele>
        <time>2025-10-28T10:03:18.000Z</time>
      </trkpt>
      <trkpt lat="43.55743" lon="6.58231">
        <ele>272</ele>
        <time>2025-10-28T10:03:19.000Z</time>
      </trkpt>
      <trkpt lat="43.55739" lon="6.58232">
        <ele>272.1</ele>
        <time>2025-10-28T10:03:20.000Z</time>
      </trkpt>
      <trkpt lat="43.55736" lon="6.58232">
        <ele>272.2</ele>
        <time>2025-10-28T10:03:21.000Z</time>
      </trkpt>
      <trkpt lat="43.55733" lon="6.58233">
        <ele>272.3</ele>
        <time>2025-10-28T10:03:22.000Z</time>
      </trkpt>
      <trkpt lat="43.55729" lon="6.58233">
        <ele>272.4</ele>
        <time>2025-10-28T10:03:23.000Z</time>
      </trkpt>
      <trkpt lat="43.55726" lon="6.58233">
        <ele>272.5</ele>
        <time>2025-10-28T10:03:24.000Z</time>
      </trkpt>
      <trkpt lat="43.55722" lon="6.58233">
        <ele>272.5</ele>
        <time>2025-10-28T10:03:25.000Z</time>
      </trkpt>
      <trkpt lat="43.55718" lon="6.58232">
        <ele>272.6</ele>
        <time>2025-10-28T10:03:26.000Z</time>
      </trkpt>
      <trkpt lat="43.55715" lon="6.58231">
        <ele>272.7</ele>
        <time>2025-10-28T10:03:27.000Z</time>
      </trkpt>
      <trkpt lat="43.55711" lon="6.5823">
        <ele>272.7</ele>
        <time>2025-10-28T10:03:28.000Z</time>
      </trkpt>
      <trkpt lat="43.55707" lon="6.58228">
        <ele>272.8</ele>
        <time>2025-10-28T10:03:29.000Z</time>
      </trkpt>
      <trkpt lat="43.55704" lon="6.58226">
        <ele>272.9</ele>
        <time>2025-10-28T10:03:30.000Z</time>
      </trkpt>
      <trkpt lat="43.55701" lon="6.58224">
        <ele>273</ele>
        <time>2025-10-28T10:03:31.000Z</time>
      </trkpt>
      <trkpt lat="43.55698" lon="6.58221">
        <ele>273</ele>
        <time>2025-10-28T10:03:32.000Z</time>
      </trkpt>
      <trkpt lat="43.55695" lon="6.58218">
        <ele>273.1</ele>
        <time>2025-10-28T10:03:33.000Z</time>
      </trkpt>
      <trkpt lat="43.55691" lon="6.58215">
        <ele>273.2</ele>
        <time>2025-10-28T10:03:34.000Z</time>
      </trkpt>
      <trkpt lat="43.55688" lon="6.58212">
        <ele>273.2</ele>
        <time>2025-10-28T10:03:35.000Z</time>
      </trkpt>
      <trkpt lat="43.55685" lon="6.58209">
        <ele>273.1</ele>
        <time>2025-10-28T10:03:36.000Z</time>
      </trkpt>
      <trkpt lat="43.55681" lon="6.58205">
        <ele>273</ele>
        <time>2025-10-28T10:03:37.000Z</time>
      </trkpt>
      <trkpt lat="43.55678" lon="6.58202">
        <ele>272.8</ele>
        <time>2025-10-28T10:03:38.000Z</time>
      </trkpt>
      <trkpt lat="43.55675" lon="6.58199">
        <ele>272.6</ele>
        <time>2025-10-28T10:03:39.000Z</time>
      </trkpt>
      <trkpt lat="43.55672" lon="6.58197">
        <ele>272.4</ele>
        <time>2025-10-28T10:03:40.000Z</time>
      </trkpt>
      <trkpt lat="43.55669" lon="6.58194">
        <ele>272.2</ele>
        <time>2025-10-28T10:03:41.000Z</time>
      </trkpt>
      <trkpt lat="43.55666" lon="6.58191">
        <ele>271.9</ele>
        <time>2025-10-28T10:03:42.000Z</time>
      </trkpt>
      <trkpt lat="43.55662" lon="6.58188">
        <ele>271.6</ele>
        <time>2025-10-28T10:03:43.000Z</time>
      </trkpt>
      <trkpt lat="43.55659" lon="6.58185">
        <ele>271.3</ele>
        <time>2025-10-28T10:03:44.000Z</time>
      </trkpt>
      <trkpt lat="43.55655" lon="6.58183">
        <ele>271.1</ele>
        <time>2025-10-28T10:03:45.000Z</time>
      </trkpt>
      <trkpt lat="43.55651" lon="6.58183">
        <ele>270.8</ele>
        <time>2025-10-28T10:03:46.000Z</time>
      </trkpt>
      <trkpt lat="43.55648" lon="6.58183">
        <ele>270.6</ele>
        <time>2025-10-28T10:03:47.000Z</time>
      </trkpt>
      <trkpt lat="43.55644" lon="6.58183">
        <ele>270.4</ele>
        <time>2025-10-28T10:03:48.000Z</time>
      </trkpt>
      <trkpt lat="43.55639" lon="6.58182">
        <ele>270.2</ele>
        <time>2025-10-28T10:03:49.000Z</time>
      </trkpt>
      <trkpt lat="43.55635" lon="6.58181">
        <ele>270</ele>
        <time>2025-10-28T10:03:50.000Z</time>
      </trkpt>
      <trkpt lat="43.55631" lon="6.5818">
        <ele>269.8</ele>
        <time>2025-10-28T10:03:51.000Z</time>
      </trkpt>
      <trkpt lat="43.55627" lon="6.58178">
        <ele>269.7</ele>
        <time>2025-10-28T10:03:52.000Z</time>
      </trkpt>
      <trkpt lat="43.55622" lon="6.58177">
        <ele>269.6</ele>
        <time>2025-10-28T10:03:53.000Z</time>
      </trkpt>
      <trkpt lat="43.55618" lon="6.58176">
        <ele>269.6</ele>
        <time>2025-10-28T10:03:54.000Z</time>
      </trkpt>
      <trkpt lat="43.55614" lon="6.58175">
        <ele>269.6</ele>
        <time>2025-10-28T10:03:55.000Z</time>
      </trkpt>
      <trkpt lat="43.5561" lon="6.58175">
        <ele>269.6</ele>
        <time>2025-10-28T10:03:56.000Z</time>
      </trkpt>
      <trkpt lat="43.55607" lon="6.58176">
        <ele>269.7</ele>
        <time>2025-10-28T10:03:57.000Z</time>
      </trkpt>
      <trkpt lat="43.55603" lon="6.58176">
        <ele>269.8</ele>
        <time>2025-10-28T10:03:58.000Z</time>
      </trkpt>
      <trkpt lat="43.556" lon="6.58175">
        <ele>269.9</ele>
        <time>2025-10-28T10:03:59.000Z</time>
      </trkpt>
      <trkpt lat="43.55596" lon="6.58174">
        <ele>270.1</ele>
        <time>2025-10-28T10:04:00.000Z</time>
      </trkpt>
      <trkpt lat="43.55592" lon="6.58173">
        <ele>270.3</ele>
        <time>2025-10-28T10:04:01.000Z</time>
      </trkpt>
      <trkpt lat="43.55589" lon="6.58173">
        <ele>270.6</ele>
        <time>2025-10-28T10:04:02.000Z</time>
      </trkpt>
      <trkpt lat="43.55585" lon="6.58173">
        <ele>270.9</ele>
        <time>2025-10-28T10:04:03.000Z</time>
      </trkpt>
      <trkpt lat="43.55582" lon="6.58173">
        <ele>271.2</ele>
        <time>2025-10-28T10:04:04.000Z</time>
      </trkpt>
      <trkpt lat="43.55579" lon="6.58173">
        <ele>271.5</ele>
        <time>2025-10-28T10:04:05.000Z</time>
      </trkpt>
      <trkpt lat="43.55575" lon="6.58174">
        <ele>271.8</ele>
        <time>2025-10-28T10:04:06.000Z</time>
      </trkpt>
      <trkpt lat="43.55572" lon="6.58175">
        <ele>272.2</ele>
        <time>2025-10-28T10:04:07.000Z</time>
      </trkpt>
      <trkpt lat="43.55569" lon="6.58175">
        <ele>272.5</ele>
        <time>2025-10-28T10:04:08.000Z</time>
      </trkpt>
      <trkpt lat="43.55565" lon="6.58176">
        <ele>272.7</ele>
        <time>2025-10-28T10:04:09.000Z</time>
      </trkpt>
      <trkpt lat="43.55562" lon="6.58176">
        <ele>273</ele>
        <time>2025-10-28T10:04:10.000Z</time>
      </trkpt>
      <trkpt lat="43.5556" lon="6.58177">
        <ele>273.1</ele>
        <time>2025-10-28T10:04:11.000Z</time>
      </trkpt>
      <trkpt lat="43.55557" lon="6.58178">
        <ele>273.3</ele>
        <time>2025-10-28T10:04:12.000Z</time>
      </trkpt>
      <trkpt lat="43.55556" lon="6.58178">
        <ele>273.4</ele>
        <time>2025-10-28T10:04:13.000Z</time>
      </trkpt>
      <trkpt lat="43.55554" lon="6.58179">
        <ele>273.4</ele>
        <time>2025-10-28T10:04:14.000Z</time>
      </trkpt>
      <trkpt lat="43.55553" lon="6.58179">
        <ele>273.5</ele>
        <time>2025-10-28T10:04:15.000Z</time>
      </trkpt>
      <trkpt lat="43.55552" lon="6.58179">
        <ele>273.5</ele>
        <time>2025-10-28T10:04:16.000Z</time>
      </trkpt>
      <trkpt lat="43.55552" lon="6.58179">
        <ele>273.5</ele>
        <time>2025-10-28T10:04:17.000Z</time>
      </trkpt>
      <trkpt lat="43.55552" lon="6.58179">
        <ele>273.5</ele>
        <time>2025-10-28T10:04:18.000Z</time>
      </trkpt>
      <trkpt lat="43.55552" lon="6.58179">
        <ele>273.6</ele>
        <time>2025-10-28T10:04:19.000Z</time>
      </trkpt>
      <trkpt lat="43.55552" lon="6.58179">
        <ele>273.6</ele>
        <time>2025-10-28T10:04:20.000Z</time>
      </trkpt>
      <trkpt lat="43.55552" lon="6.58179">
        <ele>273.6</ele>
        <time>2025-10-28T10:04:21.000Z</time>
      </trkpt>
      <trkpt lat="43.55552" lon="6.58179">
        <ele>273.6</ele>
        <time>2025-10-28T10:04:22.000Z</time>
      </trkpt>
      <trkpt lat="43.55552" lon="6.58179">
        <ele>273.6</ele>
        <time>2025-10-28T10:04:23.000Z</time>
      </trkpt>
      <trkpt lat="43.55552" lon="6.58179">
        <ele>273.6</ele>
        <time>2025-10-28T10:04:24.000Z</time>
      </trkpt>
      <trkpt lat="43.55552" lon="6.58179">
        <ele>273.6</ele>
        <time>2025-10-28T10:04:25.000Z</time>
      </trkpt>
      <trkpt lat="43.55552" lon="6.58179">
        <ele>273.6</ele>
        <time>2025-10-28T10:04:26.000Z</time>
      </trkpt>
      <trkpt lat="43.55552" lon="6.5818">
        <ele>273.6</ele>
        <time>2025-10-28T10:04:27.000Z</time>
      </trkpt>
      <trkpt lat="43.55552" lon="6.5818">
        <ele>273.6</ele>
        <time>2025-10-28T10:04:28.000Z</time>
      </trkpt>
      <trkpt lat="43.55551" lon="6.5818">
        <ele>273.6</ele>
        <time>2025-10-28T10:04:29.000Z</time>
      </trkpt>
      <trkpt lat="43.55551" lon="6.5818">
        <ele>273.6</ele>
        <time>2025-10-28T10:04:30.000Z</time>
      </trkpt>
      <trkpt lat="43.55551" lon="6.5818">
        <ele>273.6</ele>
        <time>2025-10-28T10:04:31.000Z</time>
      </trkpt>
      <trkpt lat="43.55551" lon="6.5818">
        <ele>273.6</ele>
        <time>2025-10-28T10:04:32.000Z</time>
      </trkpt>
      <trkpt lat="43.55551" lon="6.5818">
        <ele>273.6</ele>
        <time>2025-10-28T10:04:33.000Z</time>
      </trkpt>
      <trkpt lat="43.55551" lon="6.5818">
        <ele>273.6</ele>
        <time>2025-10-28T10:04:34.000Z</time>
      </trkpt>
      <trkpt lat="43.55551" lon="6.5818">
        <ele>273.6</ele>
        <time>2025-10-28T10:04:35.000Z</time>
      </trkpt>
      <trkpt lat="43.55551" lon="6.5818">
        <ele>273.6</ele>
        <time>2025-10-28T10:04:36.000Z</time>
      </trkpt>
      <trkpt lat="43.55551" lon="6.5818">
        <ele>273.6</ele>
        <time>2025-10-28T10:04:37.000Z</time>
      </trkpt>
      <trkpt lat="43.55551" lon="6.5818">
        <ele>273.6</ele>
        <time>2025-10-28T10:04:38.000Z</time>
      </trkpt>
      <trkpt lat="43.55551" lon="6.5818">
        <ele>273.6</ele>
        <time>2025-10-28T10:04:39.000Z</time>
      </trkpt>
      <trkpt lat="43.55551" lon="6.5818">
        <ele>273.6</ele>
        <time>2025-10-28T10:04:40.000Z</time>
      </trkpt>
      <trkpt lat="43.55551" lon="6.5818">
        <ele>273.6</ele>
        <time>2025-10-28T10:04:41.000Z</time>
      </trkpt>
      <trkpt lat="43.55551" lon="6.5818">
        <ele>273.6</ele>
        <time>2025-10-28T10:04:42.000Z</time>
      </trkpt>
      <trkpt lat="43.55551" lon="6.5818">
        <ele>273.6</ele>
        <time>2025-10-28T10:04:43.000Z</time>
      </trkpt>
      <trkpt lat="43.55551" lon="6.5818">
        <ele>273.6</ele>
        <time>2025-10-28T10:04:44.000Z</time>
      </trkpt>
      <trkpt lat="43.55551" lon="6.5818">
        <ele>273.6</ele>
        <time>2025-10-28T10:04:45.000Z</time>
      </trkpt>
      <trkpt lat="43.55551" lon="6.5818">
        <ele>273.6</ele>
        <time>2025-10-28T10:04:46.000Z</time>
      </trkpt>
      <trkpt lat="43.55552" lon="6.5818">
        <ele>273.6</ele>
        <time>2025-10-28T10:04:47.000Z</time>
      </trkpt>
      <trkpt lat="43.55552" lon="6.5818">
        <ele>273.6</ele>
        <time>2025-10-28T10:04:48.000Z</time>
      </trkpt>
      <trkpt lat="43.55552" lon="6.5818">
        <ele>273.6</ele>
        <time>2025-10-28T10:04:49.000Z</time>
      </trkpt>
      <trkpt lat="43.55552" lon="6.5818">
        <ele>273.6</ele>
        <time>2025-10-28T10:04:50.000Z</time>
      </trkpt>
      <trkpt lat="43.55552" lon="6.5818">
        <ele>273.6</ele>
        <time>2025-10-28T10:04:51.000Z</time>
      </trkpt>
      <trkpt lat="43.55552" lon="6.5818">
        <ele>273.6</ele>
        <time>2025-10-28T10:04:52.000Z</time>
      </trkpt>
      <trkpt lat="43.55552" lon="6.5818">
        <ele>273.6</ele>
        <time>2025-10-28T10:04:53.000Z</time>
      </trkpt>
      <trkpt lat="43.55552" lon="6.5818">
        <ele>273.6</ele>
        <time>2025-10-28T10:04:54.000Z</time>
      </trkpt>
      <trkpt lat="43.55552" lon="6.5818">
        <ele>273.6</ele>
        <time>2025-10-28T10:04:55.000Z</time>
      </trkpt>
      <trkpt lat="43.55552" lon="6.5818">
        <ele>273.6</ele>
        <time>2025-10-28T10:04:56.000Z</time>
      </trkpt>
      <trkpt lat="43.55552" lon="6.5818">
        <ele>273.6</ele>
        <time>2025-10-28T10:04:57.000Z</time>
      </trkpt>
      <trkpt lat="43.55552" lon="6.5818">
        <ele>273.6</ele>
        <time>2025-10-28T10:04:58.000Z</time>
      </trkpt>
      <trkpt lat="43.55552" lon="6.58179">
        <ele>273.6</ele>
        <time>2025-10-28T10:04:59.000Z</time>
      </trkpt>
      <trkpt lat="43.55552" lon="6.58179">
        <ele>273.6</ele>
        <time>2025-10-28T10:05:00.000Z</time>
      </trkpt>
      <trkpt lat="43.55552" lon="6.58179">
        <ele>273.6</ele>
        <time>2025-10-28T10:05:01.000Z</time>
      </trkpt>
      <trkpt lat="43.55552" lon="6.58179">
        <ele>273.6</ele>
        <time>2025-10-28T10:05:02.000Z</time>
      </trkpt>
      <trkpt lat="43.55552" lon="6.58179">
        <ele>273.6</ele>
        <time>2025-10-28T10:05:03.000Z</time>
      </trkpt>
      <trkpt lat="43.55553" lon="6.58179">
        <ele>273.6</ele>
        <time>2025-10-28T10:05:04.000Z</time>
      </trkpt>
      <trkpt lat="43.55553" lon="6.58179">
        <ele>273.6</ele>
        <time>2025-10-28T10:05:05.000Z</time>
      </trkpt>
      <trkpt lat="43.55553" lon="6.58178">
        <ele>273.6</ele>
        <time>2025-10-28T10:05:06.000Z</time>
      </trkpt>
      <trkpt lat="43.55553" lon="6.58178">
        <ele>273.6</ele>
        <time>2025-10-28T10:05:07.000Z</time>
      </trkpt>
      <trkpt lat="43.55553" lon="6.58178">
        <ele>273.6</ele>
        <time>2025-10-28T10:05:08.000Z</time>
      </trkpt>
      <trkpt lat="43.55553" lon="6.58177">
        <ele>273.6</ele>
        <time>2025-10-28T10:05:09.000Z</time>
      </trkpt>
      <trkpt lat="43.55553" lon="6.58177">
        <ele>273.6</ele>
        <time>2025-10-28T10:05:10.000Z</time>
      </trkpt>
      <trkpt lat="43.55553" lon="6.58177">
        <ele>273.6</ele>
        <time>2025-10-28T10:05:11.000Z</time>
      </trkpt>
      <trkpt lat="43.55553" lon="6.58177">
        <ele>273.5</ele>
        <time>2025-10-28T10:05:12.000Z</time>
      </trkpt>
      <trkpt lat="43.55553" lon="6.58177">
        <ele>273.5</ele>
        <time>2025-10-28T10:05:13.000Z</time>
      </trkpt>
      <trkpt lat="43.55553" lon="6.58176">
        <ele>273.5</ele>
        <time>2025-10-28T10:05:14.000Z</time>
      </trkpt>
      <trkpt lat="43.55553" lon="6.58176">
        <ele>273.5</ele>
        <time>2025-10-28T10:05:15.000Z</time>
      </trkpt>
      <trkpt lat="43.55553" lon="6.58176">
        <ele>273.5</ele>
        <time>2025-10-28T10:05:16.000Z</time>
      </trkpt>
      <trkpt lat="43.55553" lon="6.58176">
        <ele>273.5</ele>
        <time>2025-10-28T10:05:17.000Z</time>
      </trkpt>
      <trkpt lat="43.55553" lon="6.58176">
        <ele>273.5</ele>
        <time>2025-10-28T10:05:18.000Z</time>
      </trkpt>
      <trkpt lat="43.55553" lon="6.58176">
        <ele>273.5</ele>
        <time>2025-10-28T10:05:19.000Z</time>
      </trkpt>
      <trkpt lat="43.55553" lon="6.58176">
        <ele>273.5</ele>
        <time>2025-10-28T10:05:20.000Z</time>
      </trkpt>
      <trkpt lat="43.55553" lon="6.58176">
        <ele>273.5</ele>
        <time>2025-10-28T10:05:21.000Z</time>
      </trkpt>
      <trkpt lat="43.55553" lon="6.58176">
        <ele>273.5</ele>
        <time>2025-10-28T10:05:22.000Z</time>
      </trkpt>
      <trkpt lat="43.55553" lon="6.58176">
        <ele>273.5</ele>
        <time>2025-10-28T10:05:23.000Z</time>
      </trkpt>
      <trkpt lat="43.55553" lon="6.58176">
        <ele>273.5</ele>
        <time>2025-10-28T10:05:24.000Z</time>
      </trkpt>
      <trkpt lat="43.55553" lon="6.58176">
        <ele>273.5</ele>
        <time>2025-10-28T10:05:25.000Z</time>
      </trkpt>
      <trkpt lat="43.55553" lon="6.58176">
        <ele>273.5</ele>
        <time>2025-10-28T10:05:26.000Z</time>
      </trkpt>
      <trkpt lat="43.55553" lon="6.58176">
        <ele>273.5</ele>
        <time>2025-10-28T10:05:27.000Z</time>
      </trkpt>
      <trkpt lat="43.55553" lon="6.58176">
        <ele>273.5</ele>
        <time>2025-10-28T10:05:28.000Z</time>
      </trkpt>
      <trkpt lat="43.55553" lon="6.58176">
        <ele>273.5</ele>
        <time>2025-10-28T10:05:29.000Z</time>
      </trkpt>
      <trkpt lat="43.55553" lon="6.58176">
        <ele>273.5</ele>
        <time>2025-10-28T10:05:30.000Z</time>
      </trkpt>
      <trkpt lat="43.55553" lon="6.58176">
        <ele>273.5</ele>
        <time>2025-10-28T10:05:31.000Z</time>
      </trkpt>
      <trkpt lat="43.55553" lon="6.58176">
        <ele>273.5</ele>
        <time>2025-10-28T10:05:32.000Z</time>
      </trkpt>
      <trkpt lat="43.55553" lon="6.58176">
        <ele>273.5</ele>
        <time>2025-10-28T10:05:33.000Z</time>
      </trkpt>
      <trkpt lat="43.55553" lon="6.58176">
        <ele>273.5</ele>
        <time>2025-10-28T10:05:34.000Z</time>
      </trkpt>
      <trkpt lat="43.55553" lon="6.58176">
        <ele>273.5</ele>
        <time>2025-10-28T10:05:35.000Z</time>
      </trkpt>
      <trkpt lat="43.55553" lon="6.58176">
        <ele>273.5</ele>
        <time>2025-10-28T10:05:36.000Z</time>
      </trkpt>
      <trkpt lat="43.55553" lon="6.58176">
        <ele>273.5</ele>
        <time>2025-10-28T10:05:37.000Z</time>
      </trkpt>
      <trkpt lat="43.55553" lon="6.58176">
        <ele>273.5</ele>
        <time>2025-10-28T10:05:38.000Z</time>
      </trkpt>
      <trkpt lat="43.55553" lon="6.58176">
        <ele>273.5</ele>
        <time>2025-10-28T10:05:39.000Z</time>
      </trkpt>
      <trkpt lat="43.55553" lon="6.58176">
        <ele>273.5</ele>
        <time>2025-10-28T10:05:40.000Z</time>
      </trkpt>
      <trkpt lat="43.55553" lon="6.58176">
        <ele>273.5</ele>
        <time>2025-10-28T10:05:41.000Z</time>
      </trkpt>
      <trkpt lat="43.55553" lon="6.58176">
        <ele>273.5</ele>
        <time>2025-10-28T10:05:42.000Z</time>
      </trkpt>
      <trkpt lat="43.55553" lon="6.58176">
        <ele>273.5</ele>
        <time>2025-10-28T10:05:43.000Z</time>
      </trkpt>
      <trkpt lat="43.55553" lon="6.58176">
        <ele>273.5</ele>
        <time>2025-10-28T10:05:44.000Z</time>
      </trkpt>
      <trkpt lat="43.55553" lon="6.58177">
        <ele>273.5</ele>
        <time>2025-10-28T10:05:45.000Z</time>
      </trkpt>
      <trkpt lat="43.55554" lon="6.58177">
        <ele>273.5</ele>
        <time>2025-10-28T10:05:46.000Z</time>
      </trkpt>
      <trkpt lat="43.55554" lon="6.58177">
        <ele>273.5</ele>
        <time>2025-10-28T10:05:47.000Z</time>
      </trkpt>
      <trkpt lat="43.55554" lon="6.58177">
        <ele>273.5</ele>
        <time>2025-10-28T10:05:48.000Z</time>
      </trkpt>
      <trkpt lat="43.55554" lon="6.58177">
        <ele>273.5</ele>
        <time>2025-10-28T10:05:49.000Z</time>
      </trkpt>
      <trkpt lat="43.55554" lon="6.58177">
        <ele>273.5</ele>
        <time>2025-10-28T10:05:50.000Z</time>
      </trkpt>
      <trkpt lat="43.55554" lon="6.58177">
        <ele>273.5</ele>
        <time>2025-10-28T10:05:51.000Z</time>
      </trkpt>
      <trkpt lat="43.55554" lon="6.58177">
        <ele>273.5</ele>
        <time>2025-10-28T10:05:52.000Z</time>
      </trkpt>
      <trkpt lat="43.55554" lon="6.58177">
        <ele>273.5</ele>
        <time>2025-10-28T10:05:53.000Z</time>
      </trkpt>
      <trkpt lat="43.55554" lon="6.58177">
        <ele>273.5</ele>
        <time>2025-10-28T10:05:54.000Z</time>
      </trkpt>
      <trkpt lat="43.55554" lon="6.58177">
        <ele>273.5</ele>
        <time>2025-10-28T10:05:55.000Z</time>
      </trkpt>
      <trkpt lat="43.55554" lon="6.58177">
        <ele>273.5</ele>
        <time>2025-10-28T10:05:56.000Z</time>
      </trkpt>
      <trkpt lat="43.55554" lon="6.58177">
        <ele>273.5</ele>
        <time>2025-10-28T10:05:57.000Z</time>
      </trkpt>
      <trkpt lat="43.55554" lon="6.58177">
        <ele>273.5</ele>
        <time>2025-10-28T10:05:58.000Z</time>
      </trkpt>
      <trkpt lat="43.55554" lon="6.58177">
        <ele>273.5</ele>
        <time>2025-10-28T10:05:59.000Z</time>
      </trkpt>
      <trkpt lat="43.55553" lon="6.58177">
        <ele>273.5</ele>
        <time>2025-10-28T10:06:00.000Z</time>
      </trkpt>
      <trkpt lat="43.55553" lon="6.58177">
        <ele>273.5</ele>
        <time>2025-10-28T10:06:01.000Z</time>
      </trkpt>
      <trkpt lat="43.55553" lon="6.58177">
        <ele>273.5</ele>
        <time>2025-10-28T10:06:02.000Z</time>
      </trkpt>
      <trkpt lat="43.55553" lon="6.58176">
        <ele>273.5</ele>
        <time>2025-10-28T10:06:03.000Z</time>
      </trkpt>
      <trkpt lat="43.55553" lon="6.58176">
        <ele>273.5</ele>
        <time>2025-10-28T10:06:04.000Z</time>
      </trkpt>
      <trkpt lat="43.55553" lon="6.58176">
        <ele>273.5</ele>
        <time>2025-10-28T10:06:05.000Z</time>
      </trkpt>
      <trkpt lat="43.55553" lon="6.58176">
        <ele>273.5</ele>
        <time>2025-10-28T10:06:06.000Z</time>
      </trkpt>
      <trkpt lat="43.55553" lon="6.58176">
        <ele>273.5</ele>
        <time>2025-10-28T10:06:07.000Z</time>
      </trkpt>
      <trkpt lat="43.55552" lon="6.58176">
        <ele>273.5</ele>
        <time>2025-10-28T10:06:08.000Z</time>
      </trkpt>
      <trkpt lat="43.55552" lon="6.58176">
        <ele>273.4</ele>
        <time>2025-10-28T10:06:09.000Z</time>
      </trkpt>
      <trkpt lat="43.55552" lon="6.58176">
        <ele>273.4</ele>
        <time>2025-10-28T10:06:10.000Z</time>
      </trkpt>
      <trkpt lat="43.55552" lon="6.58176">
        <ele>273.4</ele>
        <time>2025-10-28T10:06:11.000Z</time>
      </trkpt>
      <trkpt lat="43.55552" lon="6.58176">
        <ele>273.4</ele>
        <time>2025-10-28T10:06:12.000Z</time>
      </trkpt>
      <trkpt lat="43.55552" lon="6.58176">
        <ele>273.4</ele>
        <time>2025-10-28T10:06:13.000Z</time>
      </trkpt>
      <trkpt lat="43.55552" lon="6.58176">
        <ele>273.4</ele>
        <time>2025-10-28T10:06:14.000Z</time>
      </trkpt>
      <trkpt lat="43.55552" lon="6.58176">
        <ele>273.4</ele>
        <time>2025-10-28T10:06:15.000Z</time>
      </trkpt>
      <trkpt lat="43.55552" lon="6.58176">
        <ele>273.4</ele>
        <time>2025-10-28T10:06:16.000Z</time>
      </trkpt>
      <trkpt lat="43.55552" lon="6.58176">
        <ele>273.4</ele>
        <time>2025-10-28T10:06:17.000Z</time>
      </trkpt>
      <trkpt lat="43.55552" lon="6.58176">
        <ele>273.4</ele>
        <time>2025-10-28T10:06:18.000Z</time>
      </trkpt>
      <trkpt lat="43.55552" lon="6.58176">
        <ele>273.4</ele>
        <time>2025-10-28T10:06:19.000Z</time>
      </trkpt>
      <trkpt lat="43.55552" lon="6.58176">
        <ele>273.4</ele>
        <time>2025-10-28T10:06:20.000Z</time>
      </trkpt>
      <trkpt lat="43.55552" lon="6.58176">
        <ele>273.4</ele>
        <time>2025-10-28T10:06:21.000Z</time>
      </trkpt>
      <trkpt lat="43.55552" lon="6.58176">
        <ele>273.4</ele>
        <time>2025-10-28T10:06:22.000Z</time>
      </trkpt>
      <trkpt lat="43.55551" lon="6.58176">
        <ele>273.4</ele>
        <time>2025-10-28T10:06:23.000Z</time>
      </trkpt>
      <trkpt lat="43.55551" lon="6.58176">
        <ele>273.4</ele>
        <time>2025-10-28T10:06:24.000Z</time>
      </trkpt>
      <trkpt lat="43.55551" lon="6.58176">
        <ele>273.4</ele>
        <time>2025-10-28T10:06:25.000Z</time>
      </trkpt>
      <trkpt lat="43.55551" lon="6.58176">
        <ele>273.4</ele>
        <time>2025-10-28T10:06:26.000Z</time>
      </trkpt>
      <trkpt lat="43.55551" lon="6.58176">
        <ele>273.4</ele>
        <time>2025-10-28T10:06:27.000Z</time>
      </trkpt>
      <trkpt lat="43.55551" lon="6.58176">
        <ele>273.4</ele>
        <time>2025-10-28T10:06:28.000Z</time>
      </trkpt>
      <trkpt lat="43.55551" lon="6.58176">
        <ele>273.4</ele>
        <time>2025-10-28T10:06:29.000Z</time>
      </trkpt>
      <trkpt lat="43.55551" lon="6.58176">
        <ele>273.4</ele>
        <time>2025-10-28T10:06:30.000Z</time>
      </trkpt>
      <trkpt lat="43.55551" lon="6.58176">
        <ele>273.4</ele>
        <time>2025-10-28T10:06:31.000Z</time>
      </trkpt>
      <trkpt lat="43.55551" lon="6.58176">
        <ele>273.4</ele>
        <time>2025-10-28T10:06:32.000Z</time>
      </trkpt>
      <trkpt lat="43.55551" lon="6.58176">
        <ele>273.4</ele>
        <time>2025-10-28T10:06:33.000Z</time>
      </trkpt>
      <trkpt lat="43.55551" lon="6.58176">
        <ele>273.4</ele>
        <time>2025-10-28T10:06:34.000Z</time>
      </trkpt>
      <trkpt lat="43.55551" lon="6.58176">
        <ele>273.4</ele>
        <time>2025-10-28T10:06:35.000Z</time>
      </trkpt>
      <trkpt lat="43.55551" lon="6.58176">
        <ele>273.4</ele>
        <time>2025-10-28T10:06:36.000Z</time>
      </trkpt>
      <trkpt lat="43.55551" lon="6.58176">
        <ele>273.4</ele>
        <time>2025-10-28T10:06:37.000Z</time>
      </trkpt>
      <trkpt lat="43.55551" lon="6.58176">
        <ele>273.4</ele>
        <time>2025-10-28T10:06:38.000Z</time>
      </trkpt>
      <trkpt lat="43.55551" lon="6.58176">
        <ele>273.4</ele>
        <time>2025-10-28T10:06:39.000Z</time>
      </trkpt>
      <trkpt lat="43.55551" lon="6.58176">
        <ele>273.4</ele>
        <time>2025-10-28T10:06:40.000Z</time>
      </trkpt>
      <trkpt lat="43.55551" lon="6.58176">
        <ele>273.4</ele>
        <time>2025-10-28T10:06:41.000Z</time>
      </trkpt>
      <trkpt lat="43.55551" lon="6.58176">
        <ele>273.4</ele>
        <time>2025-10-28T10:06:42.000Z</time>
      </trkpt>
      <trkpt lat="43.55551" lon="6.58176">
        <ele>273.4</ele>
        <time>2025-10-28T10:06:43.000Z</time>
      </trkpt>
      <trkpt lat="43.55551" lon="6.58176">
        <ele>273.4</ele>
        <time>2025-10-28T10:06:44.000Z</time>
      </trkpt>
      <trkpt lat="43.55551" lon="6.58176">
        <ele>273.4</ele>
        <time>2025-10-28T10:06:45.000Z</time>
      </trkpt>
      <trkpt lat="43.55551" lon="6.58176">
        <ele>273.4</ele>
        <time>2025-10-28T10:06:46.000Z</time>
      </trkpt>
      <trkpt lat="43.55551" lon="6.58176">
        <ele>273.4</ele>
        <time>2025-10-28T10:06:47.000Z</time>
      </trkpt>
      <trkpt lat="43.55551" lon="6.58176">
        <ele>273.4</ele>
        <time>2025-10-28T10:06:48.000Z</time>
      </trkpt>
      <trkpt lat="43.55549" lon="6.58179">
        <ele>273.2</ele>
        <time>2025-10-28T10:06:49.000Z</time>
      </trkpt>
      <trkpt lat="43.55546" lon="6.58182">
        <ele>273</ele>
        <time>2025-10-28T10:06:50.000Z</time>
      </trkpt>
      <trkpt lat="43.55544" lon="6.58184">
        <ele>272.8</ele>
        <time>2025-10-28T10:06:51.000Z</time>
      </trkpt>
      <trkpt lat="43.55541" lon="6.58187">
        <ele>272.4</ele>
        <time>2025-10-28T10:06:52.000Z</time>
      </trkpt>
      <trkpt lat="43.55537" lon="6.58189">
        <ele>272</ele>
        <time>2025-10-28T10:06:53.000Z</time>
      </trkpt>
      <trkpt lat="43.55532" lon="6.5819">
        <ele>271.6</ele>
        <time>2025-10-28T10:06:54.000Z</time>
      </trkpt>
      <trkpt lat="43.55527" lon="6.5819">
        <ele>271.2</ele>
        <time>2025-10-28T10:06:55.000Z</time>
      </trkpt>
      <trkpt lat="43.55522" lon="6.58189">
        <ele>270.8</ele>
        <time>2025-10-28T10:06:56.000Z</time>
      </trkpt>
      <trkpt lat="43.55516" lon="6.58188">
        <ele>270.3</ele>
        <time>2025-10-28T10:06:57.000Z</time>
      </trkpt>
      <trkpt lat="43.55512" lon="6.58187">
        <ele>270</ele>
        <time>2025-10-28T10:06:58.000Z</time>
      </trkpt>
      <trkpt lat="43.55506" lon="6.58188">
        <ele>269.5</ele>
        <time>2025-10-28T10:06:59.000Z</time>
      </trkpt>
      <trkpt lat="43.55502" lon="6.5819">
        <ele>269</ele>
        <time>2025-10-28T10:07:00.000Z</time>
      </trkpt>
      <trkpt lat="43.55497" lon="6.58193">
        <ele>268.5</ele>
        <time>2025-10-28T10:07:01.000Z</time>
      </trkpt>
      <trkpt lat="43.55494" lon="6.58196">
        <ele>268.1</ele>
        <time>2025-10-28T10:07:02.000Z</time>
      </trkpt>
      <trkpt lat="43.55489" lon="6.58199">
        <ele>267.5</ele>
        <time>2025-10-28T10:07:03.000Z</time>
      </trkpt>
      <trkpt lat="43.55483" lon="6.58204">
        <ele>266.8</ele>
        <time>2025-10-28T10:07:04.000Z</time>
      </trkpt>
      <trkpt lat="43.55479" lon="6.58209">
        <ele>266.2</ele>
        <time>2025-10-28T10:07:05.000Z</time>
      </trkpt>
      <trkpt lat="43.55474" lon="6.58213">
        <ele>265.5</ele>
        <time>2025-10-28T10:07:06.000Z</time>
      </trkpt>
      <trkpt lat="43.55471" lon="6.58217">
        <ele>265.1</ele>
        <time>2025-10-28T10:07:07.000Z</time>
      </trkpt>
      <trkpt lat="43.55466" lon="6.58221">
        <ele>264.5</ele>
        <time>2025-10-28T10:07:08.000Z</time>
      </trkpt>
      <trkpt lat="43.5546" lon="6.58226">
        <ele>264</ele>
        <time>2025-10-28T10:07:09.000Z</time>
      </trkpt>
      <trkpt lat="43.55455" lon="6.58231">
        <ele>263.6</ele>
        <time>2025-10-28T10:07:10.000Z</time>
      </trkpt>
      <trkpt lat="43.55451" lon="6.58237">
        <ele>263.2</ele>
        <time>2025-10-28T10:07:11.000Z</time>
      </trkpt>
      <trkpt lat="43.55448" lon="6.58242">
        <ele>263</ele>
        <time>2025-10-28T10:07:12.000Z</time>
      </trkpt>
      <trkpt lat="43.55443" lon="6.58246">
        <ele>262.8</ele>
        <time>2025-10-28T10:07:13.000Z</time>
      </trkpt>
      <trkpt lat="43.55438" lon="6.5825">
        <ele>262.6</ele>
        <time>2025-10-28T10:07:14.000Z</time>
      </trkpt>
      <trkpt lat="43.55434" lon="6.58252">
        <ele>262.6</ele>
        <time>2025-10-28T10:07:15.000Z</time>
      </trkpt>
      <trkpt lat="43.5543" lon="6.58253">
        <ele>262.5</ele>
        <time>2025-10-28T10:07:16.000Z</time>
      </trkpt>
      <trkpt lat="43.55426" lon="6.58254">
        <ele>262.5</ele>
        <time>2025-10-28T10:07:17.000Z</time>
      </trkpt>
      <trkpt lat="43.55422" lon="6.58254">
        <ele>262.4</ele>
        <time>2025-10-28T10:07:18.000Z</time>
      </trkpt>
      <trkpt lat="43.55418" lon="6.58253">
        <ele>262.3</ele>
        <time>2025-10-28T10:07:19.000Z</time>
      </trkpt>
      <trkpt lat="43.55414" lon="6.5825">
        <ele>262.2</ele>
        <time>2025-10-28T10:07:20.000Z</time>
      </trkpt>
      <trkpt lat="43.55411" lon="6.58248">
        <ele>262.2</ele>
        <time>2025-10-28T10:07:21.000Z</time>
      </trkpt>
      <trkpt lat="43.55408" lon="6.58245">
        <ele>262.1</ele>
        <time>2025-10-28T10:07:22.000Z</time>
      </trkpt>
      <trkpt lat="43.55405" lon="6.5824">
        <ele>261.9</ele>
        <time>2025-10-28T10:07:23.000Z</time>
      </trkpt>
      <trkpt lat="43.55402" lon="6.58236">
        <ele>261.7</ele>
        <time>2025-10-28T10:07:24.000Z</time>
      </trkpt>
      <trkpt lat="43.554" lon="6.58231">
        <ele>261.5</ele>
        <time>2025-10-28T10:07:25.000Z</time>
      </trkpt>
      <trkpt lat="43.55398" lon="6.58225">
        <ele>261.2</ele>
        <time>2025-10-28T10:07:26.000Z</time>
      </trkpt>
      <trkpt lat="43.55396" lon="6.58219">
        <ele>260.9</ele>
        <time>2025-10-28T10:07:27.000Z</time>
      </trkpt>
      <trkpt lat="43.55394" lon="6.58214">
        <ele>260.6</ele>
        <time>2025-10-28T10:07:28.000Z</time>
      </trkpt>
      <trkpt lat="43.55391" lon="6.58207">
        <ele>260.2</ele>
        <time>2025-10-28T10:07:29.000Z</time>
      </trkpt>
      <trkpt lat="43.55387" lon="6.58202">
        <ele>259.8</ele>
        <time>2025-10-28T10:07:30.000Z</time>
      </trkpt>
      <trkpt lat="43.55384" lon="6.58198">
        <ele>259.4</ele>
        <time>2025-10-28T10:07:31.000Z</time>
      </trkpt>
      <trkpt lat="43.5538" lon="6.58194">
        <ele>259.1</ele>
        <time>2025-10-28T10:07:32.000Z</time>
      </trkpt>
      <trkpt lat="43.55377" lon="6.5819">
        <ele>258.7</ele>
        <time>2025-10-28T10:07:33.000Z</time>
      </trkpt>
      <trkpt lat="43.55375" lon="6.58186">
        <ele>258.4</ele>
        <time>2025-10-28T10:07:34.000Z</time>
      </trkpt>
      <trkpt lat="43.55373" lon="6.58182">
        <ele>258</ele>
        <time>2025-10-28T10:07:35.000Z</time>
      </trkpt>
      <trkpt lat="43.55372" lon="6.58176">
        <ele>257.6</ele>
        <time>2025-10-28T10:07:36.000Z</time>
      </trkpt>
      <trkpt lat="43.55371" lon="6.58171">
        <ele>257.2</ele>
        <time>2025-10-28T10:07:37.000Z</time>
      </trkpt>
      <trkpt lat="43.5537" lon="6.58167">
        <ele>256.9</ele>
        <time>2025-10-28T10:07:38.000Z</time>
      </trkpt>
      <trkpt lat="43.5537" lon="6.58161">
        <ele>256.4</ele>
        <time>2025-10-28T10:07:39.000Z</time>
      </trkpt>
      <trkpt lat="43.55369" lon="6.58156">
        <ele>256</ele>
        <time>2025-10-28T10:07:40.000Z</time>
      </trkpt>
      <trkpt lat="43.55367" lon="6.58152">
        <ele>255.7</ele>
        <time>2025-10-28T10:07:41.000Z</time>
      </trkpt>
      <trkpt lat="43.55365" lon="6.58147">
        <ele>255.3</ele>
        <time>2025-10-28T10:07:42.000Z</time>
      </trkpt>
      <trkpt lat="43.55363" lon="6.58143">
        <ele>254.9</ele>
        <time>2025-10-28T10:07:43.000Z</time>
      </trkpt>
      <trkpt lat="43.5536" lon="6.58138">
        <ele>254.5</ele>
        <time>2025-10-28T10:07:44.000Z</time>
      </trkpt>
      <trkpt lat="43.55358" lon="6.58133">
        <ele>254.1</ele>
        <time>2025-10-28T10:07:45.000Z</time>
      </trkpt>
      <trkpt lat="43.55356" lon="6.58129">
        <ele>253.8</ele>
        <time>2025-10-28T10:07:46.000Z</time>
      </trkpt>
      <trkpt lat="43.55352" lon="6.58122">
        <ele>253.4</ele>
        <time>2025-10-28T10:07:47.000Z</time>
      </trkpt>
      <trkpt lat="43.5535" lon="6.58117">
        <ele>253</ele>
        <time>2025-10-28T10:07:48.000Z</time>
      </trkpt>
      <trkpt lat="43.55347" lon="6.58111">
        <ele>252.7</ele>
        <time>2025-10-28T10:07:49.000Z</time>
      </trkpt>
      <trkpt lat="43.55343" lon="6.58105">
        <ele>252.2</ele>
        <time>2025-10-28T10:07:50.000Z</time>
      </trkpt>
      <trkpt lat="43.55339" lon="6.581">
        <ele>251.8</ele>
        <time>2025-10-28T10:07:51.000Z</time>
      </trkpt>
      <trkpt lat="43.55336" lon="6.58096">
        <ele>251.4</ele>
        <time>2025-10-28T10:07:52.000Z</time>
      </trkpt>
      <trkpt lat="43.55332" lon="6.58092">
        <ele>250.8</ele>
        <time>2025-10-28T10:07:53.000Z</time>
      </trkpt>
      <trkpt lat="43.55328" lon="6.58088">
        <ele>250.3</ele>
        <time>2025-10-28T10:07:54.000Z</time>
      </trkpt>
      <trkpt lat="43.55324" lon="6.58084">
        <ele>249.8</ele>
        <time>2025-10-28T10:07:55.000Z</time>
      </trkpt>
      <trkpt lat="43.55321" lon="6.58081">
        <ele>249.4</ele>
        <time>2025-10-28T10:07:56.000Z</time>
      </trkpt>
      <trkpt lat="43.55315" lon="6.58076">
        <ele>248.7</ele>
        <time>2025-10-28T10:07:57.000Z</time>
      </trkpt>
      <trkpt lat="43.55311" lon="6.58072">
        <ele>248.1</ele>
        <time>2025-10-28T10:07:58.000Z</time>
      </trkpt>
      <trkpt lat="43.55306" lon="6.58068">
        <ele>247.6</ele>
        <time>2025-10-28T10:07:59.000Z</time>
      </trkpt>
      <trkpt lat="43.55302" lon="6.58064">
        <ele>247.1</ele>
        <time>2025-10-28T10:08:00.000Z</time>
      </trkpt>
      <trkpt lat="43.55298" lon="6.5806">
        <ele>246.7</ele>
        <time>2025-10-28T10:08:01.000Z</time>
      </trkpt>
      <trkpt lat="43.55295" lon="6.58056">
        <ele>246.2</ele>
        <time>2025-10-28T10:08:02.000Z</time>
      </trkpt>
      <trkpt lat="43.55291" lon="6.58051">
        <ele>245.8</ele>
        <time>2025-10-28T10:08:03.000Z</time>
      </trkpt>
      <trkpt lat="43.55287" lon="6.58045">
        <ele>245.4</ele>
        <time>2025-10-28T10:08:04.000Z</time>
      </trkpt>
      <trkpt lat="43.55284" lon="6.58041">
        <ele>245.1</ele>
        <time>2025-10-28T10:08:05.000Z</time>
      </trkpt>
      <trkpt lat="43.5528" lon="6.58036">
        <ele>244.7</ele>
        <time>2025-10-28T10:08:06.000Z</time>
      </trkpt>
      <trkpt lat="43.55275" lon="6.58031">
        <ele>244.3</ele>
        <time>2025-10-28T10:08:07.000Z</time>
      </trkpt>
      <trkpt lat="43.5527" lon="6.58027">
        <ele>243.9</ele>
        <time>2025-10-28T10:08:08.000Z</time>
      </trkpt>
      <trkpt lat="43.55265" lon="6.58024">
        <ele>243.6</ele>
        <time>2025-10-28T10:08:09.000Z</time>
      </trkpt>
      <trkpt lat="43.55261" lon="6.58022">
        <ele>243.2</ele>
        <time>2025-10-28T10:08:10.000Z</time>
      </trkpt>
      <trkpt lat="43.55256" lon="6.58021">
        <ele>242.9</ele>
        <time>2025-10-28T10:08:11.000Z</time>
      </trkpt>
      <trkpt lat="43.5525" lon="6.58019">
        <ele>242.4</ele>
        <time>2025-10-28T10:08:12.000Z</time>
      </trkpt>
      <trkpt lat="43.55245" lon="6.58017">
        <ele>242.1</ele>
        <time>2025-10-28T10:08:13.000Z</time>
      </trkpt>
      <trkpt lat="43.5524" lon="6.58015">
        <ele>241.7</ele>
        <time>2025-10-28T10:08:14.000Z</time>
      </trkpt>
      <trkpt lat="43.55235" lon="6.58014">
        <ele>241.2</ele>
        <time>2025-10-28T10:08:15.000Z</time>
      </trkpt>
      <trkpt lat="43.55231" lon="6.58014">
        <ele>240.9</ele>
        <time>2025-10-28T10:08:16.000Z</time>
      </trkpt>
      <trkpt lat="43.55225" lon="6.58015">
        <ele>240.4</ele>
        <time>2025-10-28T10:08:17.000Z</time>
      </trkpt>
      <trkpt lat="43.5522" lon="6.58017">
        <ele>239.9</ele>
        <time>2025-10-28T10:08:18.000Z</time>
      </trkpt>
      <trkpt lat="43.55215" lon="6.58021">
        <ele>239.5</ele>
        <time>2025-10-28T10:08:19.000Z</time>
      </trkpt>
      <trkpt lat="43.55211" lon="6.58024">
        <ele>239.1</ele>
        <time>2025-10-28T10:08:20.000Z</time>
      </trkpt>
      <trkpt lat="43.55207" lon="6.58027">
        <ele>238.7</ele>
        <time>2025-10-28T10:08:21.000Z</time>
      </trkpt>
      <trkpt lat="43.55203" lon="6.58029">
        <ele>238.3</ele>
        <time>2025-10-28T10:08:22.000Z</time>
      </trkpt>
      <trkpt lat="43.552" lon="6.58031">
        <ele>237.9</ele>
        <time>2025-10-28T10:08:23.000Z</time>
      </trkpt>
      <trkpt lat="43.55197" lon="6.58032">
        <ele>237.6</ele>
        <time>2025-10-28T10:08:24.000Z</time>
      </trkpt>
      <trkpt lat="43.55192" lon="6.58032">
        <ele>237.1</ele>
        <time>2025-10-28T10:08:25.000Z</time>
      </trkpt>
      <trkpt lat="43.55188" lon="6.58032">
        <ele>236.8</ele>
        <time>2025-10-28T10:08:26.000Z</time>
      </trkpt>
      <trkpt lat="43.55184" lon="6.5803">
        <ele>236.4</ele>
        <time>2025-10-28T10:08:27.000Z</time>
      </trkpt>
      <trkpt lat="43.5518" lon="6.58027">
        <ele>236</ele>
        <time>2025-10-28T10:08:28.000Z</time>
      </trkpt>
      <trkpt lat="43.55177" lon="6.58023">
        <ele>235.7</ele>
        <time>2025-10-28T10:08:29.000Z</time>
      </trkpt>
      <trkpt lat="43.55175" lon="6.5802">
        <ele>235.4</ele>
        <time>2025-10-28T10:08:30.000Z</time>
      </trkpt>
      <trkpt lat="43.55174" lon="6.58014">
        <ele>234.9</ele>
        <time>2025-10-28T10:08:31.000Z</time>
      </trkpt>
      <trkpt lat="43.55173" lon="6.58009">
        <ele>234.5</ele>
        <time>2025-10-28T10:08:32.000Z</time>
      </trkpt>
      <trkpt lat="43.55173" lon="6.58004">
        <ele>234</ele>
        <time>2025-10-28T10:08:33.000Z</time>
      </trkpt>
      <trkpt lat="43.55173" lon="6.57999">
        <ele>233.5</ele>
        <time>2025-10-28T10:08:34.000Z</time>
      </trkpt>
      <trkpt lat="43.55175" lon="6.57993">
        <ele>232.9</ele>
        <time>2025-10-28T10:08:35.000Z</time>
      </trkpt>
      <trkpt lat="43.55177" lon="6.57987">
        <ele>232.4</ele>
        <time>2025-10-28T10:08:36.000Z</time>
      </trkpt>
      <trkpt lat="43.55179" lon="6.57981">
        <ele>231.8</ele>
        <time>2025-10-28T10:08:37.000Z</time>
      </trkpt>
      <trkpt lat="43.55182" lon="6.57975">
        <ele>231.3</ele>
        <time>2025-10-28T10:08:38.000Z</time>
      </trkpt>
      <trkpt lat="43.55184" lon="6.5797">
        <ele>230.8</ele>
        <time>2025-10-28T10:08:39.000Z</time>
      </trkpt>
      <trkpt lat="43.55185" lon="6.57966">
        <ele>230.4</ele>
        <time>2025-10-28T10:08:40.000Z</time>
      </trkpt>
      <trkpt lat="43.55188" lon="6.5796">
        <ele>229.8</ele>
        <time>2025-10-28T10:08:41.000Z</time>
      </trkpt>
      <trkpt lat="43.55191" lon="6.57954">
        <ele>229.2</ele>
        <time>2025-10-28T10:08:42.000Z</time>
      </trkpt>
      <trkpt lat="43.55193" lon="6.57949">
        <ele>228.6</ele>
        <time>2025-10-28T10:08:43.000Z</time>
      </trkpt>
      <trkpt lat="43.55195" lon="6.57944">
        <ele>228</ele>
        <time>2025-10-28T10:08:44.000Z</time>
      </trkpt>
      <trkpt lat="43.55198" lon="6.57939">
        <ele>227.3</ele>
        <time>2025-10-28T10:08:45.000Z</time>
      </trkpt>
      <trkpt lat="43.552" lon="6.57934">
        <ele>226.6</ele>
        <time>2025-10-28T10:08:46.000Z</time>
      </trkpt>
      <trkpt lat="43.55203" lon="6.57928">
        <ele>225.9</ele>
        <time>2025-10-28T10:08:47.000Z</time>
      </trkpt>
      <trkpt lat="43.55206" lon="6.57923">
        <ele>225.2</ele>
        <time>2025-10-28T10:08:48.000Z</time>
      </trkpt>
      <trkpt lat="43.55207" lon="6.57918">
        <ele>224.6</ele>
        <time>2025-10-28T10:08:49.000Z</time>
      </trkpt>
      <trkpt lat="43.5521" lon="6.57912">
        <ele>223.9</ele>
        <time>2025-10-28T10:08:50.000Z</time>
      </trkpt>
      <trkpt lat="43.55213" lon="6.57904">
        <ele>222.9</ele>
        <time>2025-10-28T10:08:51.000Z</time>
      </trkpt>
      <trkpt lat="43.55217" lon="6.57898">
        <ele>222.2</ele>
        <time>2025-10-28T10:08:52.000Z</time>
      </trkpt>
      <trkpt lat="43.5522" lon="6.57892">
        <ele>221.4</ele>
        <time>2025-10-28T10:08:53.000Z</time>
      </trkpt>
      <trkpt lat="43.55223" lon="6.57886">
        <ele>220.9</ele>
        <time>2025-10-28T10:08:54.000Z</time>
      </trkpt>
      <trkpt lat="43.55227" lon="6.57878">
        <ele>220</ele>
        <time>2025-10-28T10:08:55.000Z</time>
      </trkpt>
      <trkpt lat="43.55231" lon="6.57871">
        <ele>219.4</ele>
        <time>2025-10-28T10:08:56.000Z</time>
      </trkpt>
      <trkpt lat="43.55235" lon="6.57865">
        <ele>218.9</ele>
        <time>2025-10-28T10:08:57.000Z</time>
      </trkpt>
      <trkpt lat="43.55239" lon="6.57859">
        <ele>218.3</ele>
        <time>2025-10-28T10:08:58.000Z</time>
      </trkpt>
      <trkpt lat="43.55244" lon="6.57854">
        <ele>217.8</ele>
        <time>2025-10-28T10:08:59.000Z</time>
      </trkpt>
      <trkpt lat="43.55249" lon="6.5785">
        <ele>217.1</ele>
        <time>2025-10-28T10:09:00.000Z</time>
      </trkpt>
      <trkpt lat="43.55255" lon="6.57847">
        <ele>216.5</ele>
        <time>2025-10-28T10:09:01.000Z</time>
      </trkpt>
      <trkpt lat="43.55261" lon="6.57845">
        <ele>215.9</ele>
        <time>2025-10-28T10:09:02.000Z</time>
      </trkpt>
      <trkpt lat="43.55266" lon="6.57844">
        <ele>215.5</ele>
        <time>2025-10-28T10:09:03.000Z</time>
      </trkpt>
      <trkpt lat="43.55272" lon="6.57843">
        <ele>214.9</ele>
        <time>2025-10-28T10:09:04.000Z</time>
      </trkpt>
      <trkpt lat="43.55277" lon="6.57843">
        <ele>214.4</ele>
        <time>2025-10-28T10:09:05.000Z</time>
      </trkpt>
      <trkpt lat="43.55281" lon="6.57841">
        <ele>213.9</ele>
        <time>2025-10-28T10:09:06.000Z</time>
      </trkpt>
      <trkpt lat="43.55285" lon="6.57838">
        <ele>213.6</ele>
        <time>2025-10-28T10:09:07.000Z</time>
      </trkpt>
      <trkpt lat="43.55288" lon="6.57835">
        <ele>213.3</ele>
        <time>2025-10-28T10:09:08.000Z</time>
      </trkpt>
      <trkpt lat="43.5529" lon="6.57831">
        <ele>213.1</ele>
        <time>2025-10-28T10:09:09.000Z</time>
      </trkpt>
      <trkpt lat="43.55291" lon="6.57828">
        <ele>213</ele>
        <time>2025-10-28T10:09:10.000Z</time>
      </trkpt>
      <trkpt lat="43.55292" lon="6.57824">
        <ele>212.9</ele>
        <time>2025-10-28T10:09:11.000Z</time>
      </trkpt>
      <trkpt lat="43.55293" lon="6.5782">
        <ele>212.8</ele>
        <time>2025-10-28T10:09:12.000Z</time>
      </trkpt>
      <trkpt lat="43.55294" lon="6.57817">
        <ele>212.7</ele>
        <time>2025-10-28T10:09:13.000Z</time>
      </trkpt>
      <trkpt lat="43.55295" lon="6.57813">
        <ele>212.7</ele>
        <time>2025-10-28T10:09:14.000Z</time>
      </trkpt>
      <trkpt lat="43.55296" lon="6.57809">
        <ele>212.7</ele>
        <time>2025-10-28T10:09:15.000Z</time>
      </trkpt>
      <trkpt lat="43.55297" lon="6.57805">
        <ele>212.7</ele>
        <time>2025-10-28T10:09:16.000Z</time>
      </trkpt>
      <trkpt lat="43.55298" lon="6.57801">
        <ele>212.7</ele>
        <time>2025-10-28T10:09:17.000Z</time>
      </trkpt>
      <trkpt lat="43.553" lon="6.57798">
        <ele>212.7</ele>
        <time>2025-10-28T10:09:18.000Z</time>
      </trkpt>
      <trkpt lat="43.55303" lon="6.57796">
        <ele>212.7</ele>
        <time>2025-10-28T10:09:19.000Z</time>
      </trkpt>
      <trkpt lat="43.55305" lon="6.57794">
        <ele>212.7</ele>
        <time>2025-10-28T10:09:20.000Z</time>
      </trkpt>
      <trkpt lat="43.55307" lon="6.57794">
        <ele>212.7</ele>
        <time>2025-10-28T10:09:21.000Z</time>
      </trkpt>
      <trkpt lat="43.55308" lon="6.57794">
        <ele>212.7</ele>
        <time>2025-10-28T10:09:22.000Z</time>
      </trkpt>
      <trkpt lat="43.55309" lon="6.57794">
        <ele>212.7</ele>
        <time>2025-10-28T10:09:23.000Z</time>
      </trkpt>
      <trkpt lat="43.55309" lon="6.57794">
        <ele>212.7</ele>
        <time>2025-10-28T10:09:24.000Z</time>
      </trkpt>
      <trkpt lat="43.55309" lon="6.57794">
        <ele>212.7</ele>
        <time>2025-10-28T10:09:25.000Z</time>
      </trkpt>
      <trkpt lat="43.55309" lon="6.57795">
        <ele>212.7</ele>
        <time>2025-10-28T10:09:26.000Z</time>
      </trkpt>
      <trkpt lat="43.55309" lon="6.57796">
        <ele>212.7</ele>
        <time>2025-10-28T10:09:27.000Z</time>
      </trkpt>
      <trkpt lat="43.55309" lon="6.57796">
        <ele>212.7</ele>
        <time>2025-10-28T10:09:28.000Z</time>
      </trkpt>
      <trkpt lat="43.55309" lon="6.57797">
        <ele>212.7</ele>
        <time>2025-10-28T10:09:29.000Z</time>
      </trkpt>
      <trkpt lat="43.55309" lon="6.57796">
        <ele>212.7</ele>
        <time>2025-10-28T10:09:30.000Z</time>
      </trkpt>
      <trkpt lat="43.55309" lon="6.57796">
        <ele>212.7</ele>
        <time>2025-10-28T10:09:31.000Z</time>
      </trkpt>
      <trkpt lat="43.5531" lon="6.57795">
        <ele>212.7</ele>
        <time>2025-10-28T10:09:32.000Z</time>
      </trkpt>
      <trkpt lat="43.5531" lon="6.57795">
        <ele>212.7</ele>
        <time>2025-10-28T10:09:33.000Z</time>
      </trkpt>
      <trkpt lat="43.55311" lon="6.57795">
        <ele>212.7</ele>
        <time>2025-10-28T10:09:34.000Z</time>
      </trkpt>
      <trkpt lat="43.55311" lon="6.57795">
        <ele>212.7</ele>
        <time>2025-10-28T10:09:35.000Z</time>
      </trkpt>
      <trkpt lat="43.55312" lon="6.57795">
        <ele>212.7</ele>
        <time>2025-10-28T10:09:36.000Z</time>
      </trkpt>
      <trkpt lat="43.55312" lon="6.57795">
        <ele>212.7</ele>
        <time>2025-10-28T10:09:37.000Z</time>
      </trkpt>
      <trkpt lat="43.55311" lon="6.57795">
        <ele>212.7</ele>
        <time>2025-10-28T10:09:38.000Z</time>
      </trkpt>
      <trkpt lat="43.55311" lon="6.57795">
        <ele>212.7</ele>
        <time>2025-10-28T10:09:39.000Z</time>
      </trkpt>
      <trkpt lat="43.55311" lon="6.57795">
        <ele>212.7</ele>
        <time>2025-10-28T10:09:40.000Z</time>
      </trkpt>
      <trkpt lat="43.55311" lon="6.57795">
        <ele>212.7</ele>
        <time>2025-10-28T10:09:41.000Z</time>
      </trkpt>
      <trkpt lat="43.55311" lon="6.57795">
        <ele>212.7</ele>
        <time>2025-10-28T10:09:42.000Z</time>
      </trkpt>
      <trkpt lat="43.55311" lon="6.57795">
        <ele>212.7</ele>
        <time>2025-10-28T10:09:43.000Z</time>
      </trkpt>
      <trkpt lat="43.55311" lon="6.57795">
        <ele>212.7</ele>
        <time>2025-10-28T10:09:44.000Z</time>
      </trkpt>
      <trkpt lat="43.55311" lon="6.57795">
        <ele>212.7</ele>
        <time>2025-10-28T10:09:45.000Z</time>
      </trkpt>
      <trkpt lat="43.55311" lon="6.57795">
        <ele>212.7</ele>
        <time>2025-10-28T10:09:46.000Z</time>
      </trkpt>
      <trkpt lat="43.55311" lon="6.57795">
        <ele>212.7</ele>
        <time>2025-10-28T10:09:47.000Z</time>
      </trkpt>
      <trkpt lat="43.55311" lon="6.57795">
        <ele>212.7</ele>
        <time>2025-10-28T10:09:48.000Z</time>
      </trkpt>
      <trkpt lat="43.55311" lon="6.57795">
        <ele>212.7</ele>
        <time>2025-10-28T10:09:49.000Z</time>
      </trkpt>
      <trkpt lat="43.55311" lon="6.57795">
        <ele>212.7</ele>
        <time>2025-10-28T10:09:50.000Z</time>
      </trkpt>
      <trkpt lat="43.55311" lon="6.57795">
        <ele>212.7</ele>
        <time>2025-10-28T10:09:51.000Z</time>
      </trkpt>
      <trkpt lat="43.55311" lon="6.57795">
        <ele>212.7</ele>
        <time>2025-10-28T10:09:52.000Z</time>
      </trkpt>
      <trkpt lat="43.55311" lon="6.57796">
        <ele>212.7</ele>
        <time>2025-10-28T10:09:53.000Z</time>
      </trkpt>
      <trkpt lat="43.55312" lon="6.57796">
        <ele>212.7</ele>
        <time>2025-10-28T10:09:54.000Z</time>
      </trkpt>
      <trkpt lat="43.55312" lon="6.57796">
        <ele>212.7</ele>
        <time>2025-10-28T10:09:55.000Z</time>
      </trkpt>
      <trkpt lat="43.55312" lon="6.57796">
        <ele>212.7</ele>
        <time>2025-10-28T10:09:56.000Z</time>
      </trkpt>
      <trkpt lat="43.55312" lon="6.57796">
        <ele>212.7</ele>
        <time>2025-10-28T10:09:57.000Z</time>
      </trkpt>
      <trkpt lat="43.55312" lon="6.57796">
        <ele>212.7</ele>
        <time>2025-10-28T10:09:58.000Z</time>
      </trkpt>
      <trkpt lat="43.55313" lon="6.57796">
        <ele>212.7</ele>
        <time>2025-10-28T10:09:59.000Z</time>
      </trkpt>
      <trkpt lat="43.55314" lon="6.57796">
        <ele>212.7</ele>
        <time>2025-10-28T10:10:00.000Z</time>
      </trkpt>
      <trkpt lat="43.55314" lon="6.57796">
        <ele>212.7</ele>
        <time>2025-10-28T10:10:01.000Z</time>
      </trkpt>
      <trkpt lat="43.55314" lon="6.57796">
        <ele>212.7</ele>
        <time>2025-10-28T10:10:02.000Z</time>
      </trkpt>
      <trkpt lat="43.55314" lon="6.57796">
        <ele>212.7</ele>
        <time>2025-10-28T10:10:03.000Z</time>
      </trkpt>
      <trkpt lat="43.55314" lon="6.57796">
        <ele>212.7</ele>
        <time>2025-10-28T10:10:04.000Z</time>
      </trkpt>
      <trkpt lat="43.55314" lon="6.57796">
        <ele>212.7</ele>
        <time>2025-10-28T10:10:05.000Z</time>
      </trkpt>
      <trkpt lat="43.55314" lon="6.57796">
        <ele>212.7</ele>
        <time>2025-10-28T10:10:06.000Z</time>
      </trkpt>
      <trkpt lat="43.55314" lon="6.57796">
        <ele>212.7</ele>
        <time>2025-10-28T10:10:07.000Z</time>
      </trkpt>
      <trkpt lat="43.55314" lon="6.57796">
        <ele>212.7</ele>
        <time>2025-10-28T10:10:08.000Z</time>
      </trkpt>
      <trkpt lat="43.55314" lon="6.57796">
        <ele>212.7</ele>
        <time>2025-10-28T10:10:09.000Z</time>
      </trkpt>
      <trkpt lat="43.55314" lon="6.57796">
        <ele>212.7</ele>
        <time>2025-10-28T10:10:10.000Z</time>
      </trkpt>
      <trkpt lat="43.55314" lon="6.57796">
        <ele>212.7</ele>
        <time>2025-10-28T10:10:11.000Z</time>
      </trkpt>
      <trkpt lat="43.55314" lon="6.57796">
        <ele>212.7</ele>
        <time>2025-10-28T10:10:12.000Z</time>
      </trkpt>
      <trkpt lat="43.55314" lon="6.57796">
        <ele>212.7</ele>
        <time>2025-10-28T10:10:13.000Z</time>
      </trkpt>
      <trkpt lat="43.55314" lon="6.57796">
        <ele>212.7</ele>
        <time>2025-10-28T10:10:14.000Z</time>
      </trkpt>
      <trkpt lat="43.55314" lon="6.57796">
        <ele>212.7</ele>
        <time>2025-10-28T10:10:15.000Z</time>
      </trkpt>
      <trkpt lat="43.55314" lon="6.57796">
        <ele>212.7</ele>
        <time>2025-10-28T10:10:16.000Z</time>
      </trkpt>
      <trkpt lat="43.55314" lon="6.57795">
        <ele>212.7</ele>
        <time>2025-10-28T10:10:17.000Z</time>
      </trkpt>
      <trkpt lat="43.55313" lon="6.57795">
        <ele>212.7</ele>
        <time>2025-10-28T10:10:18.000Z</time>
      </trkpt>
      <trkpt lat="43.55313" lon="6.57795">
        <ele>212.7</ele>
        <time>2025-10-28T10:10:19.000Z</time>
      </trkpt>
      <trkpt lat="43.55313" lon="6.57795">
        <ele>212.7</ele>
        <time>2025-10-28T10:10:20.000Z</time>
      </trkpt>
      <trkpt lat="43.55313" lon="6.57795">
        <ele>212.7</ele>
        <time>2025-10-28T10:10:21.000Z</time>
      </trkpt>
      <trkpt lat="43.55313" lon="6.57795">
        <ele>212.8</ele>
        <time>2025-10-28T10:10:22.000Z</time>
      </trkpt>
      <trkpt lat="43.55313" lon="6.57795">
        <ele>212.8</ele>
        <time>2025-10-28T10:10:23.000Z</time>
      </trkpt>
      <trkpt lat="43.55313" lon="6.57795">
        <ele>212.8</ele>
        <time>2025-10-28T10:10:24.000Z</time>
      </trkpt>
      <trkpt lat="43.55313" lon="6.57795">
        <ele>212.8</ele>
        <time>2025-10-28T10:10:25.000Z</time>
      </trkpt>
      <trkpt lat="43.55313" lon="6.57795">
        <ele>212.8</ele>
        <time>2025-10-28T10:10:26.000Z</time>
      </trkpt>
      <trkpt lat="43.55313" lon="6.57795">
        <ele>212.8</ele>
        <time>2025-10-28T10:10:27.000Z</time>
      </trkpt>
      <trkpt lat="43.55313" lon="6.57795">
        <ele>212.8</ele>
        <time>2025-10-28T10:10:28.000Z</time>
      </trkpt>
      <trkpt lat="43.55313" lon="6.57795">
        <ele>212.8</ele>
        <time>2025-10-28T10:10:29.000Z</time>
      </trkpt>
      <trkpt lat="43.55312" lon="6.57795">
        <ele>212.8</ele>
        <time>2025-10-28T10:10:30.000Z</time>
      </trkpt>
      <trkpt lat="43.55311" lon="6.57796">
        <ele>212.8</ele>
        <time>2025-10-28T10:10:31.000Z</time>
      </trkpt>
      <trkpt lat="43.5531" lon="6.57796">
        <ele>212.8</ele>
        <time>2025-10-28T10:10:32.000Z</time>
      </trkpt>
      <trkpt lat="43.55309" lon="6.57796">
        <ele>212.8</ele>
        <time>2025-10-28T10:10:33.000Z</time>
      </trkpt>
      <trkpt lat="43.55308" lon="6.57796">
        <ele>212.8</ele>
        <time>2025-10-28T10:10:34.000Z</time>
      </trkpt>
      <trkpt lat="43.55308" lon="6.57797">
        <ele>212.8</ele>
        <time>2025-10-28T10:10:35.000Z</time>
      </trkpt>
      <trkpt lat="43.55307" lon="6.57797">
        <ele>212.8</ele>
        <time>2025-10-28T10:10:36.000Z</time>
      </trkpt>
      <trkpt lat="43.55307" lon="6.57798">
        <ele>212.8</ele>
        <time>2025-10-28T10:10:37.000Z</time>
      </trkpt>
      <trkpt lat="43.55306" lon="6.57797">
        <ele>212.8</ele>
        <time>2025-10-28T10:10:38.000Z</time>
      </trkpt>
      <trkpt lat="43.55306" lon="6.57797">
        <ele>212.8</ele>
        <time>2025-10-28T10:10:39.000Z</time>
      </trkpt>
      <trkpt lat="43.55306" lon="6.57797">
        <ele>212.8</ele>
        <time>2025-10-28T10:10:40.000Z</time>
      </trkpt>
      <trkpt lat="43.55306" lon="6.57797">
        <ele>212.8</ele>
        <time>2025-10-28T10:10:41.000Z</time>
      </trkpt>
      <trkpt lat="43.55307" lon="6.57797">
        <ele>212.8</ele>
        <time>2025-10-28T10:10:42.000Z</time>
      </trkpt>
      <trkpt lat="43.55307" lon="6.57797">
        <ele>212.8</ele>
        <time>2025-10-28T10:10:43.000Z</time>
      </trkpt>
      <trkpt lat="43.55307" lon="6.57797">
        <ele>212.8</ele>
        <time>2025-10-28T10:10:44.000Z</time>
      </trkpt>
      <trkpt lat="43.55307" lon="6.57797">
        <ele>212.8</ele>
        <time>2025-10-28T10:10:45.000Z</time>
      </trkpt>
      <trkpt lat="43.55307" lon="6.57797">
        <ele>212.8</ele>
        <time>2025-10-28T10:10:46.000Z</time>
      </trkpt>
      <trkpt lat="43.55307" lon="6.57797">
        <ele>212.8</ele>
        <time>2025-10-28T10:10:47.000Z</time>
      </trkpt>
      <trkpt lat="43.55307" lon="6.57797">
        <ele>212.8</ele>
        <time>2025-10-28T10:10:48.000Z</time>
      </trkpt>
      <trkpt lat="43.55307" lon="6.57797">
        <ele>212.8</ele>
        <time>2025-10-28T10:10:49.000Z</time>
      </trkpt>
      <trkpt lat="43.55307" lon="6.57797">
        <ele>212.8</ele>
        <time>2025-10-28T10:10:50.000Z</time>
      </trkpt>
      <trkpt lat="43.55307" lon="6.57797">
        <ele>212.8</ele>
        <time>2025-10-28T10:10:51.000Z</time>
      </trkpt>
      <trkpt lat="43.55307" lon="6.57797">
        <ele>212.8</ele>
        <time>2025-10-28T10:10:52.000Z</time>
      </trkpt>
      <trkpt lat="43.55307" lon="6.57797">
        <ele>212.8</ele>
        <time>2025-10-28T10:10:53.000Z</time>
      </trkpt>
      <trkpt lat="43.55307" lon="6.57797">
        <ele>212.8</ele>
        <time>2025-10-28T10:10:54.000Z</time>
      </trkpt>
      <trkpt lat="43.55307" lon="6.57797">
        <ele>212.8</ele>
        <time>2025-10-28T10:10:55.000Z</time>
      </trkpt>
      <trkpt lat="43.55307" lon="6.57797">
        <ele>212.8</ele>
        <time>2025-10-28T10:10:56.000Z</time>
      </trkpt>
      <trkpt lat="43.55307" lon="6.57797">
        <ele>212.8</ele>
        <time>2025-10-28T10:10:57.000Z</time>
      </trkpt>
      <trkpt lat="43.55307" lon="6.57797">
        <ele>212.8</ele>
        <time>2025-10-28T10:10:58.000Z</time>
      </trkpt>
      <trkpt lat="43.55307" lon="6.57796">
        <ele>212.8</ele>
        <time>2025-10-28T10:10:59.000Z</time>
      </trkpt>
      <trkpt lat="43.55307" lon="6.57796">
        <ele>212.8</ele>
        <time>2025-10-28T10:11:00.000Z</time>
      </trkpt>
      <trkpt lat="43.55307" lon="6.57796">
        <ele>212.8</ele>
        <time>2025-10-28T10:11:01.000Z</time>
      </trkpt>
      <trkpt lat="43.55307" lon="6.57796">
        <ele>212.8</ele>
        <time>2025-10-28T10:11:02.000Z</time>
      </trkpt>
      <trkpt lat="43.55307" lon="6.57796">
        <ele>212.8</ele>
        <time>2025-10-28T10:11:03.000Z</time>
      </trkpt>
      <trkpt lat="43.55308" lon="6.57796">
        <ele>212.8</ele>
        <time>2025-10-28T10:11:04.000Z</time>
      </trkpt>
      <trkpt lat="43.55308" lon="6.57796">
        <ele>212.8</ele>
        <time>2025-10-28T10:11:05.000Z</time>
      </trkpt>
      <trkpt lat="43.55308" lon="6.57796">
        <ele>212.8</ele>
        <time>2025-10-28T10:11:06.000Z</time>
      </trkpt>
      <trkpt lat="43.55308" lon="6.57796">
        <ele>212.8</ele>
        <time>2025-10-28T10:11:07.000Z</time>
      </trkpt>
      <trkpt lat="43.55308" lon="6.57796">
        <ele>212.8</ele>
        <time>2025-10-28T10:11:08.000Z</time>
      </trkpt>
      <trkpt lat="43.55308" lon="6.57796">
        <ele>212.8</ele>
        <time>2025-10-28T10:11:09.000Z</time>
      </trkpt>
      <trkpt lat="43.55308" lon="6.57796">
        <ele>212.8</ele>
        <time>2025-10-28T10:11:10.000Z</time>
      </trkpt>
      <trkpt lat="43.55308" lon="6.57796">
        <ele>212.8</ele>
        <time>2025-10-28T10:11:11.000Z</time>
      </trkpt>
      <trkpt lat="43.55308" lon="6.57796">
        <ele>212.8</ele>
        <time>2025-10-28T10:11:12.000Z</time>
      </trkpt>
      <trkpt lat="43.55308" lon="6.57796">
        <ele>212.8</ele>
        <time>2025-10-28T10:11:13.000Z</time>
      </trkpt>
      <trkpt lat="43.55308" lon="6.57796">
        <ele>212.8</ele>
        <time>2025-10-28T10:11:14.000Z</time>
      </trkpt>
      <trkpt lat="43.55308" lon="6.57796">
        <ele>212.8</ele>
        <time>2025-10-28T10:11:15.000Z</time>
      </trkpt>
      <trkpt lat="43.55308" lon="6.57796">
        <ele>212.8</ele>
        <time>2025-10-28T10:11:16.000Z</time>
      </trkpt>
      <trkpt lat="43.55308" lon="6.57796">
        <ele>212.8</ele>
        <time>2025-10-28T10:11:17.000Z</time>
      </trkpt>
      <trkpt lat="43.55308" lon="6.57796">
        <ele>212.8</ele>
        <time>2025-10-28T10:11:18.000Z</time>
      </trkpt>
      <trkpt lat="43.55308" lon="6.57796">
        <ele>212.8</ele>
        <time>2025-10-28T10:11:19.000Z</time>
      </trkpt>
      <trkpt lat="43.55308" lon="6.57796">
        <ele>212.8</ele>
        <time>2025-10-28T10:11:20.000Z</time>
      </trkpt>
      <trkpt lat="43.55309" lon="6.57797">
        <ele>212.8</ele>
        <time>2025-10-28T10:11:21.000Z</time>
      </trkpt>
      <trkpt lat="43.55309" lon="6.57797">
        <ele>212.8</ele>
        <time>2025-10-28T10:11:22.000Z</time>
      </trkpt>
      <trkpt lat="43.55309" lon="6.57797">
        <ele>212.8</ele>
        <time>2025-10-28T10:11:23.000Z</time>
      </trkpt>
      <trkpt lat="43.55309" lon="6.57797">
        <ele>212.8</ele>
        <time>2025-10-28T10:11:24.000Z</time>
      </trkpt>
      <trkpt lat="43.55309" lon="6.57797">
        <ele>212.8</ele>
        <time>2025-10-28T10:11:25.000Z</time>
      </trkpt>
      <trkpt lat="43.55309" lon="6.57797">
        <ele>212.8</ele>
        <time>2025-10-28T10:11:26.000Z</time>
      </trkpt>
      <trkpt lat="43.55309" lon="6.57797">
        <ele>212.8</ele>
        <time>2025-10-28T10:11:27.000Z</time>
      </trkpt>
      <trkpt lat="43.55309" lon="6.57797">
        <ele>212.8</ele>
        <time>2025-10-28T10:11:28.000Z</time>
      </trkpt>
      <trkpt lat="43.55309" lon="6.57798">
        <ele>212.8</ele>
        <time>2025-10-28T10:11:29.000Z</time>
      </trkpt>
      <trkpt lat="43.55309" lon="6.57797">
        <ele>212.8</ele>
        <time>2025-10-28T10:11:30.000Z</time>
      </trkpt>
      <trkpt lat="43.55312" lon="6.57797">
        <ele>212.7</ele>
        <time>2025-10-28T10:11:31.000Z</time>
      </trkpt>
      <trkpt lat="43.55315" lon="6.57796">
        <ele>212.7</ele>
        <time>2025-10-28T10:11:32.000Z</time>
      </trkpt>
      <trkpt lat="43.55318" lon="6.57795">
        <ele>212.6</ele>
        <time>2025-10-28T10:11:33.000Z</time>
      </trkpt>
      <trkpt lat="43.55321" lon="6.57794">
        <ele>212.6</ele>
        <time>2025-10-28T10:11:34.000Z</time>
      </trkpt>
      <trkpt lat="43.55324" lon="6.57793">
        <ele>212.6</ele>
        <time>2025-10-28T10:11:35.000Z</time>
      </trkpt>
      <trkpt lat="43.55326" lon="6.57791">
        <ele>212.6</ele>
        <time>2025-10-28T10:11:36.000Z</time>
      </trkpt>
      <trkpt lat="43.55329" lon="6.5779">
        <ele>212.7</ele>
        <time>2025-10-28T10:11:37.000Z</time>
      </trkpt>
      <trkpt lat="43.55333" lon="6.57787">
        <ele>212.8</ele>
        <time>2025-10-28T10:11:38.000Z</time>
      </trkpt>
      <trkpt lat="43.55335" lon="6.57785">
        <ele>213</ele>
        <time>2025-10-28T10:11:39.000Z</time>
      </trkpt>
      <trkpt lat="43.55337" lon="6.57784">
        <ele>213.1</ele>
        <time>2025-10-28T10:11:40.000Z</time>
      </trkpt>
      <trkpt lat="43.5534" lon="6.57782">
        <ele>213.3</ele>
        <time>2025-10-28T10:11:41.000Z</time>
      </trkpt>
      <trkpt lat="43.55342" lon="6.5778">
        <ele>213.5</ele>
        <time>2025-10-28T10:11:42.000Z</time>
      </trkpt>
      <trkpt lat="43.55344" lon="6.57777">
        <ele>213.7</ele>
        <time>2025-10-28T10:11:43.000Z</time>
      </trkpt>
      <trkpt lat="43.55346" lon="6.57775">
        <ele>213.9</ele>
        <time>2025-10-28T10:11:44.000Z</time>
      </trkpt>
      <trkpt lat="43.55348" lon="6.57773">
        <ele>214.1</ele>
        <time>2025-10-28T10:11:45.000Z</time>
      </trkpt>
      <trkpt lat="43.55349" lon="6.5777">
        <ele>214.3</ele>
        <time>2025-10-28T10:11:46.000Z</time>
      </trkpt>
      <trkpt lat="43.55351" lon="6.57767">
        <ele>214.6</ele>
        <time>2025-10-28T10:11:47.000Z</time>
      </trkpt>
      <trkpt lat="43.55352" lon="6.57762">
        <ele>214.9</ele>
        <time>2025-10-28T10:11:48.000Z</time>
      </trkpt>
      <trkpt lat="43.55352" lon="6.57758">
        <ele>215.2</ele>
        <time>2025-10-28T10:11:49.000Z</time>
      </trkpt>
      <trkpt lat="43.55352" lon="6.57753">
        <ele>215.5</ele>
        <time>2025-10-28T10:11:50.000Z</time>
      </trkpt>
      <trkpt lat="43.55352" lon="6.57749">
        <ele>215.7</ele>
        <time>2025-10-28T10:11:51.000Z</time>
      </trkpt>
      <trkpt lat="43.55351" lon="6.57745">
        <ele>215.9</ele>
        <time>2025-10-28T10:11:52.000Z</time>
      </trkpt>
      <trkpt lat="43.5535" lon="6.57739">
        <ele>216.1</ele>
        <time>2025-10-28T10:11:53.000Z</time>
      </trkpt>
      <trkpt lat="43.5535" lon="6.57735">
        <ele>216.3</ele>
        <time>2025-10-28T10:11:54.000Z</time>
      </trkpt>
      <trkpt lat="43.55349" lon="6.5773">
        <ele>216.5</ele>
        <time>2025-10-28T10:11:55.000Z</time>
      </trkpt>
      <trkpt lat="43.55348" lon="6.57726">
        <ele>216.7</ele>
        <time>2025-10-28T10:11:56.000Z</time>
      </trkpt>
      <trkpt lat="43.55347" lon="6.57721">
        <ele>216.8</ele>
        <time>2025-10-28T10:11:57.000Z</time>
      </trkpt>
      <trkpt lat="43.55346" lon="6.57717">
        <ele>217</ele>
        <time>2025-10-28T10:11:58.000Z</time>
      </trkpt>
      <trkpt lat="43.55344" lon="6.57713">
        <ele>217.1</ele>
        <time>2025-10-28T10:11:59.000Z</time>
      </trkpt>
      <trkpt lat="43.55342" lon="6.57709">
        <ele>217.3</ele>
        <time>2025-10-28T10:12:00.000Z</time>
      </trkpt>
      <trkpt lat="43.5534" lon="6.57705">
        <ele>217.5</ele>
        <time>2025-10-28T10:12:01.000Z</time>
      </trkpt>
      <trkpt lat="43.55338" lon="6.57702">
        <ele>217.6</ele>
        <time>2025-10-28T10:12:02.000Z</time>
      </trkpt>
      <trkpt lat="43.55335" lon="6.57699">
        <ele>217.8</ele>
        <time>2025-10-28T10:12:03.000Z</time>
      </trkpt>
      <trkpt lat="43.55332" lon="6.57697">
        <ele>217.9</ele>
        <time>2025-10-28T10:12:04.000Z</time>
      </trkpt>
      <trkpt lat="43.55329" lon="6.57695">
        <ele>218</ele>
        <time>2025-10-28T10:12:05.000Z</time>
      </trkpt>
      <trkpt lat="43.55326" lon="6.57694">
        <ele>218.1</ele>
        <time>2025-10-28T10:12:06.000Z</time>
      </trkpt>
      <trkpt lat="43.55323" lon="6.57693">
        <ele>218.1</ele>
        <time>2025-10-28T10:12:07.000Z</time>
      </trkpt>
      <trkpt lat="43.55319" lon="6.57692">
        <ele>218.2</ele>
        <time>2025-10-28T10:12:08.000Z</time>
      </trkpt>
      <trkpt lat="43.55316" lon="6.57691">
        <ele>218.2</ele>
        <time>2025-10-28T10:12:09.000Z</time>
      </trkpt>
      <trkpt lat="43.55312" lon="6.57689">
        <ele>218.3</ele>
        <time>2025-10-28T10:12:10.000Z</time>
      </trkpt>
      <trkpt lat="43.55309" lon="6.57689">
        <ele>218.3</ele>
        <time>2025-10-28T10:12:11.000Z</time>
      </trkpt>
      <trkpt lat="43.55306" lon="6.57688">
        <ele>218.3</ele>
        <time>2025-10-28T10:12:12.000Z</time>
      </trkpt>
      <trkpt lat="43.55303" lon="6.57688">
        <ele>218.3</ele>
        <time>2025-10-28T10:12:13.000Z</time>
      </trkpt>
      <trkpt lat="43.553" lon="6.57688">
        <ele>218.4</ele>
        <time>2025-10-28T10:12:14.000Z</time>
      </trkpt>
      <trkpt lat="43.55297" lon="6.57688">
        <ele>218.4</ele>
        <time>2025-10-28T10:12:15.000Z</time>
      </trkpt>
      <trkpt lat="43.55294" lon="6.57688">
        <ele>218.4</ele>
        <time>2025-10-28T10:12:16.000Z</time>
      </trkpt>
      <trkpt lat="43.55292" lon="6.57688">
        <ele>218.4</ele>
        <time>2025-10-28T10:12:17.000Z</time>
      </trkpt>
      <trkpt lat="43.5529" lon="6.57688">
        <ele>218.5</ele>
        <time>2025-10-28T10:12:18.000Z</time>
      </trkpt>
      <trkpt lat="43.55287" lon="6.57688">
        <ele>218.5</ele>
        <time>2025-10-28T10:12:19.000Z</time>
      </trkpt>
      <trkpt lat="43.55285" lon="6.57688">
        <ele>218.6</ele>
        <time>2025-10-28T10:12:20.000Z</time>
      </trkpt>
      <trkpt lat="43.55283" lon="6.5769">
        <ele>218.6</ele>
        <time>2025-10-28T10:12:21.000Z</time>
      </trkpt>
      <trkpt lat="43.55281" lon="6.57692">
        <ele>218.7</ele>
        <time>2025-10-28T10:12:22.000Z</time>
      </trkpt>
      <trkpt lat="43.55278" lon="6.57694">
        <ele>218.8</ele>
        <time>2025-10-28T10:12:23.000Z</time>
      </trkpt>
      <trkpt lat="43.55276" lon="6.57695">
        <ele>218.9</ele>
        <time>2025-10-28T10:12:24.000Z</time>
      </trkpt>
      <trkpt lat="43.55273" lon="6.57697">
        <ele>219.1</ele>
        <time>2025-10-28T10:12:25.000Z</time>
      </trkpt>
      <trkpt lat="43.55271" lon="6.57698">
        <ele>219.3</ele>
        <time>2025-10-28T10:12:26.000Z</time>
      </trkpt>
      <trkpt lat="43.55268" lon="6.57699">
        <ele>219.5</ele>
        <time>2025-10-28T10:12:27.000Z</time>
      </trkpt>
      <trkpt lat="43.55266" lon="6.57699">
        <ele>219.6</ele>
        <time>2025-10-28T10:12:28.000Z</time>
      </trkpt>
      <trkpt lat="43.55263" lon="6.57699">
        <ele>219.8</ele>
        <time>2025-10-28T10:12:29.000Z</time>
      </trkpt>
      <trkpt lat="43.55261" lon="6.57698">
        <ele>220</ele>
        <time>2025-10-28T10:12:30.000Z</time>
      </trkpt>
      <trkpt lat="43.55259" lon="6.57696">
        <ele>220.3</ele>
        <time>2025-10-28T10:12:31.000Z</time>
      </trkpt>
      <trkpt lat="43.55257" lon="6.57694">
        <ele>220.5</ele>
        <time>2025-10-28T10:12:32.000Z</time>
      </trkpt>
      <trkpt lat="43.55255" lon="6.57692">
        <ele>220.8</ele>
        <time>2025-10-28T10:12:33.000Z</time>
      </trkpt>
      <trkpt lat="43.55253" lon="6.57689">
        <ele>221.1</ele>
        <time>2025-10-28T10:12:34.000Z</time>
      </trkpt>
      <trkpt lat="43.55252" lon="6.57686">
        <ele>221.4</ele>
        <time>2025-10-28T10:12:35.000Z</time>
      </trkpt>
      <trkpt lat="43.55251" lon="6.57682">
        <ele>221.7</ele>
        <time>2025-10-28T10:12:36.000Z</time>
      </trkpt>
      <trkpt lat="43.55249" lon="6.57678">
        <ele>222</ele>
        <time>2025-10-28T10:12:37.000Z</time>
      </trkpt>
      <trkpt lat="43.55248" lon="6.57674">
        <ele>222.3</ele>
        <time>2025-10-28T10:12:38.000Z</time>
      </trkpt>
      <trkpt lat="43.55246" lon="6.5767">
        <ele>222.5</ele>
        <time>2025-10-28T10:12:39.000Z</time>
      </trkpt>
      <trkpt lat="43.55243" lon="6.57668">
        <ele>222.7</ele>
        <time>2025-10-28T10:12:40.000Z</time>
      </trkpt>
      <trkpt lat="43.5524" lon="6.57665">
        <ele>222.8</ele>
        <time>2025-10-28T10:12:41.000Z</time>
      </trkpt>
      <trkpt lat="43.55236" lon="6.57663">
        <ele>222.8</ele>
        <time>2025-10-28T10:12:42.000Z</time>
      </trkpt>
      <trkpt lat="43.55233" lon="6.57661">
        <ele>222.8</ele>
        <time>2025-10-28T10:12:43.000Z</time>
      </trkpt>
      <trkpt lat="43.55229" lon="6.57659">
        <ele>222.8</ele>
        <time>2025-10-28T10:12:44.000Z</time>
      </trkpt>
      <trkpt lat="43.55224" lon="6.57657">
        <ele>222.7</ele>
        <time>2025-10-28T10:12:45.000Z</time>
      </trkpt>
      <trkpt lat="43.5522" lon="6.57654">
        <ele>222.5</ele>
        <time>2025-10-28T10:12:46.000Z</time>
      </trkpt>
      <trkpt lat="43.55215" lon="6.57652">
        <ele>222.4</ele>
        <time>2025-10-28T10:12:47.000Z</time>
      </trkpt>
      <trkpt lat="43.55211" lon="6.57649">
        <ele>222.2</ele>
        <time>2025-10-28T10:12:48.000Z</time>
      </trkpt>
      <trkpt lat="43.55207" lon="6.57646">
        <ele>222.1</ele>
        <time>2025-10-28T10:12:49.000Z</time>
      </trkpt>
      <trkpt lat="43.55203" lon="6.57642">
        <ele>221.9</ele>
        <time>2025-10-28T10:12:50.000Z</time>
      </trkpt>
      <trkpt lat="43.55199" lon="6.57636">
        <ele>221.8</ele>
        <time>2025-10-28T10:12:51.000Z</time>
      </trkpt>
      <trkpt lat="43.55196" lon="6.57631">
        <ele>221.7</ele>
        <time>2025-10-28T10:12:52.000Z</time>
      </trkpt>
      <trkpt lat="43.55193" lon="6.57626">
        <ele>221.6</ele>
        <time>2025-10-28T10:12:53.000Z</time>
      </trkpt>
      <trkpt lat="43.55191" lon="6.57621">
        <ele>221.7</ele>
        <time>2025-10-28T10:12:54.000Z</time>
      </trkpt>
      <trkpt lat="43.55189" lon="6.57616">
        <ele>221.7</ele>
        <time>2025-10-28T10:12:55.000Z</time>
      </trkpt>
      <trkpt lat="43.55188" lon="6.57611">
        <ele>221.8</ele>
        <time>2025-10-28T10:12:56.000Z</time>
      </trkpt>
      <trkpt lat="43.55188" lon="6.57606">
        <ele>221.9</ele>
        <time>2025-10-28T10:12:57.000Z</time>
      </trkpt>
      <trkpt lat="43.55187" lon="6.57601">
        <ele>222.1</ele>
        <time>2025-10-28T10:12:58.000Z</time>
      </trkpt>
      <trkpt lat="43.55186" lon="6.57596">
        <ele>222.4</ele>
        <time>2025-10-28T10:12:59.000Z</time>
      </trkpt>
      <trkpt lat="43.55185" lon="6.57591">
        <ele>222.6</ele>
        <time>2025-10-28T10:13:00.000Z</time>
      </trkpt>
      <trkpt lat="43.55184" lon="6.57587">
        <ele>223</ele>
        <time>2025-10-28T10:13:01.000Z</time>
      </trkpt>
      <trkpt lat="43.55182" lon="6.57582">
        <ele>223.3</ele>
        <time>2025-10-28T10:13:02.000Z</time>
      </trkpt>
      <trkpt lat="43.5518" lon="6.57577">
        <ele>223.8</ele>
        <time>2025-10-28T10:13:03.000Z</time>
      </trkpt>
      <trkpt lat="43.55178" lon="6.57574">
        <ele>224.2</ele>
        <time>2025-10-28T10:13:04.000Z</time>
      </trkpt>
      <trkpt lat="43.55176" lon="6.5757">
        <ele>224.6</ele>
        <time>2025-10-28T10:13:05.000Z</time>
      </trkpt>
      <trkpt lat="43.55173" lon="6.57567">
        <ele>225</ele>
        <time>2025-10-28T10:13:06.000Z</time>
      </trkpt>
      <trkpt lat="43.55171" lon="6.57564">
        <ele>225.4</ele>
        <time>2025-10-28T10:13:07.000Z</time>
      </trkpt>
      <trkpt lat="43.55168" lon="6.57561">
        <ele>225.8</ele>
        <time>2025-10-28T10:13:08.000Z</time>
      </trkpt>
      <trkpt lat="43.55164" lon="6.57558">
        <ele>226.1</ele>
        <time>2025-10-28T10:13:09.000Z</time>
      </trkpt>
      <trkpt lat="43.55161" lon="6.57554">
        <ele>226.4</ele>
        <time>2025-10-28T10:13:10.000Z</time>
      </trkpt>
      <trkpt lat="43.55158" lon="6.57552">
        <ele>226.6</ele>
        <time>2025-10-28T10:13:11.000Z</time>
      </trkpt>
      <trkpt lat="43.55156" lon="6.57549">
        <ele>226.8</ele>
        <time>2025-10-28T10:13:12.000Z</time>
      </trkpt>
      <trkpt lat="43.55153" lon="6.57548">
        <ele>226.8</ele>
        <time>2025-10-28T10:13:13.000Z</time>
      </trkpt>
      <trkpt lat="43.55151" lon="6.57548">
        <ele>226.8</ele>
        <time>2025-10-28T10:13:14.000Z</time>
      </trkpt>
      <trkpt lat="43.55148" lon="6.57547">
        <ele>226.8</ele>
        <time>2025-10-28T10:13:15.000Z</time>
      </trkpt>
      <trkpt lat="43.55146" lon="6.57547">
        <ele>226.8</ele>
        <time>2025-10-28T10:13:16.000Z</time>
      </trkpt>
      <trkpt lat="43.55144" lon="6.57546">
        <ele>226.8</ele>
        <time>2025-10-28T10:13:17.000Z</time>
      </trkpt>
      <trkpt lat="43.55142" lon="6.57545">
        <ele>226.8</ele>
        <time>2025-10-28T10:13:18.000Z</time>
      </trkpt>
      <trkpt lat="43.5514" lon="6.57543">
        <ele>226.7</ele>
        <time>2025-10-28T10:13:19.000Z</time>
      </trkpt>
      <trkpt lat="43.55139" lon="6.57542">
        <ele>226.7</ele>
        <time>2025-10-28T10:13:20.000Z</time>
      </trkpt>
      <trkpt lat="43.55138" lon="6.57541">
        <ele>226.7</ele>
        <time>2025-10-28T10:13:21.000Z</time>
      </trkpt>
      <trkpt lat="43.55138" lon="6.57541">
        <ele>226.7</ele>
        <time>2025-10-28T10:13:22.000Z</time>
      </trkpt>
      <trkpt lat="43.55138" lon="6.57541">
        <ele>226.7</ele>
        <time>2025-10-28T10:13:23.000Z</time>
      </trkpt>
      <trkpt lat="43.55138" lon="6.57541">
        <ele>226.7</ele>
        <time>2025-10-28T10:13:24.000Z</time>
      </trkpt>
      <trkpt lat="43.55138" lon="6.57541">
        <ele>226.7</ele>
        <time>2025-10-28T10:13:25.000Z</time>
      </trkpt>
      <trkpt lat="43.55138" lon="6.5754">
        <ele>226.7</ele>
        <time>2025-10-28T10:13:26.000Z</time>
      </trkpt>
      <trkpt lat="43.55138" lon="6.5754">
        <ele>226.7</ele>
        <time>2025-10-28T10:13:27.000Z</time>
      </trkpt>
      <trkpt lat="43.55138" lon="6.5754">
        <ele>226.7</ele>
        <time>2025-10-28T10:13:28.000Z</time>
      </trkpt>
      <trkpt lat="43.55138" lon="6.5754">
        <ele>226.7</ele>
        <time>2025-10-28T10:13:29.000Z</time>
      </trkpt>
      <trkpt lat="43.55138" lon="6.57541">
        <ele>226.7</ele>
        <time>2025-10-28T10:13:30.000Z</time>
      </trkpt>
      <trkpt lat="43.55138" lon="6.57541">
        <ele>226.7</ele>
        <time>2025-10-28T10:13:31.000Z</time>
      </trkpt>
      <trkpt lat="43.55138" lon="6.57541">
        <ele>226.7</ele>
        <time>2025-10-28T10:13:32.000Z</time>
      </trkpt>
      <trkpt lat="43.55139" lon="6.57541">
        <ele>226.7</ele>
        <time>2025-10-28T10:13:33.000Z</time>
      </trkpt>
      <trkpt lat="43.55139" lon="6.57541">
        <ele>226.7</ele>
        <time>2025-10-28T10:13:34.000Z</time>
      </trkpt>
      <trkpt lat="43.55139" lon="6.57541">
        <ele>226.7</ele>
        <time>2025-10-28T10:13:35.000Z</time>
      </trkpt>
      <trkpt lat="43.55139" lon="6.5754">
        <ele>226.6</ele>
        <time>2025-10-28T10:13:36.000Z</time>
      </trkpt>
      <trkpt lat="43.5514" lon="6.57537">
        <ele>226.5</ele>
        <time>2025-10-28T10:13:37.000Z</time>
      </trkpt>
      <trkpt lat="43.55142" lon="6.57534">
        <ele>226.4</ele>
        <time>2025-10-28T10:13:38.000Z</time>
      </trkpt>
      <trkpt lat="43.55145" lon="6.57531">
        <ele>226.2</ele>
        <time>2025-10-28T10:13:39.000Z</time>
      </trkpt>
      <trkpt lat="43.55147" lon="6.57527">
        <ele>226.1</ele>
        <time>2025-10-28T10:13:40.000Z</time>
      </trkpt>
      <trkpt lat="43.55149" lon="6.57524">
        <ele>226</ele>
        <time>2025-10-28T10:13:41.000Z</time>
      </trkpt>
      <trkpt lat="43.55151" lon="6.57519">
        <ele>225.8</ele>
        <time>2025-10-28T10:13:42.000Z</time>
      </trkpt>
      <trkpt lat="43.55154" lon="6.57514">
        <ele>225.6</ele>
        <time>2025-10-28T10:13:43.000Z</time>
      </trkpt>
      <trkpt lat="43.55157" lon="6.57509">
        <ele>225.4</ele>
        <time>2025-10-28T10:13:44.000Z</time>
      </trkpt>
      <trkpt lat="43.5516" lon="6.57504">
        <ele>225.2</ele>
        <time>2025-10-28T10:13:45.000Z</time>
      </trkpt>
      <trkpt lat="43.55162" lon="6.575">
        <ele>225.1</ele>
        <time>2025-10-28T10:13:46.000Z</time>
      </trkpt>
      <trkpt lat="43.55166" lon="6.57496">
        <ele>224.8</ele>
        <time>2025-10-28T10:13:47.000Z</time>
      </trkpt>
      <trkpt lat="43.55171" lon="6.5749">
        <ele>224.6</ele>
        <time>2025-10-28T10:13:48.000Z</time>
      </trkpt>
      <trkpt lat="43.55175" lon="6.57486">
        <ele>224.3</ele>
        <time>2025-10-28T10:13:49.000Z</time>
      </trkpt>
      <trkpt lat="43.55178" lon="6.57482">
        <ele>224</ele>
        <time>2025-10-28T10:13:50.000Z</time>
      </trkpt>
      <trkpt lat="43.55183" lon="6.57477">
        <ele>223.7</ele>
        <time>2025-10-28T10:13:51.000Z</time>
      </trkpt>
      <trkpt lat="43.55187" lon="6.57473">
        <ele>223.4</ele>
        <time>2025-10-28T10:13:52.000Z</time>
      </trkpt>
      <trkpt lat="43.55192" lon="6.57467">
        <ele>223</ele>
        <time>2025-10-28T10:13:53.000Z</time>
      </trkpt>
      <trkpt lat="43.55197" lon="6.57461">
        <ele>222.6</ele>
        <time>2025-10-28T10:13:54.000Z</time>
      </trkpt>
      <trkpt lat="43.55201" lon="6.57456">
        <ele>222.1</ele>
        <time>2025-10-28T10:13:55.000Z</time>
      </trkpt>
      <trkpt lat="43.55206" lon="6.5745">
        <ele>221.7</ele>
        <time>2025-10-28T10:13:56.000Z</time>
      </trkpt>
      <trkpt lat="43.55209" lon="6.57443">
        <ele>221.2</ele>
        <time>2025-10-28T10:13:57.000Z</time>
      </trkpt>
      <trkpt lat="43.5521" lon="6.57435">
        <ele>220.7</ele>
        <time>2025-10-28T10:13:58.000Z</time>
      </trkpt>
      <trkpt lat="43.55209" lon="6.57427">
        <ele>220.2</ele>
        <time>2025-10-28T10:13:59.000Z</time>
      </trkpt>
      <trkpt lat="43.55207" lon="6.57418">
        <ele>219.7</ele>
        <time>2025-10-28T10:14:00.000Z</time>
      </trkpt>
      <trkpt lat="43.55205" lon="6.57411">
        <ele>219.2</ele>
        <time>2025-10-28T10:14:01.000Z</time>
      </trkpt>
      <trkpt lat="43.55202" lon="6.574">
        <ele>218.5</ele>
        <time>2025-10-28T10:14:02.000Z</time>
      </trkpt>
      <trkpt lat="43.55199" lon="6.57391">
        <ele>218</ele>
        <time>2025-10-28T10:14:03.000Z</time>
      </trkpt>
      <trkpt lat="43.55195" lon="6.57382">
        <ele>217.5</ele>
        <time>2025-10-28T10:14:04.000Z</time>
      </trkpt>
      <trkpt lat="43.55192" lon="6.57374">
        <ele>217.1</ele>
        <time>2025-10-28T10:14:05.000Z</time>
      </trkpt>
      <trkpt lat="43.55189" lon="6.57366">
        <ele>216.6</ele>
        <time>2025-10-28T10:14:06.000Z</time>
      </trkpt>
      <trkpt lat="43.55187" lon="6.57356">
        <ele>216.2</ele>
        <time>2025-10-28T10:14:07.000Z</time>
      </trkpt>
      <trkpt lat="43.55186" lon="6.57348">
        <ele>215.9</ele>
        <time>2025-10-28T10:14:08.000Z</time>
      </trkpt>
      <trkpt lat="43.55187" lon="6.5734">
        <ele>215.7</ele>
        <time>2025-10-28T10:14:09.000Z</time>
      </trkpt>
      <trkpt lat="43.55188" lon="6.57333">
        <ele>215.4</ele>
        <time>2025-10-28T10:14:10.000Z</time>
      </trkpt>
      <trkpt lat="43.5519" lon="6.57327">
        <ele>215.2</ele>
        <time>2025-10-28T10:14:11.000Z</time>
      </trkpt>
      <trkpt lat="43.55193" lon="6.57319">
        <ele>214.9</ele>
        <time>2025-10-28T10:14:12.000Z</time>
      </trkpt>
      <trkpt lat="43.55197" lon="6.57311">
        <ele>214.5</ele>
        <time>2025-10-28T10:14:13.000Z</time>
      </trkpt>
      <trkpt lat="43.552" lon="6.57304">
        <ele>214.2</ele>
        <time>2025-10-28T10:14:14.000Z</time>
      </trkpt>
      <trkpt lat="43.55202" lon="6.57297">
        <ele>213.9</ele>
        <time>2025-10-28T10:14:15.000Z</time>
      </trkpt>
      <trkpt lat="43.55204" lon="6.57287">
        <ele>213.5</ele>
        <time>2025-10-28T10:14:16.000Z</time>
      </trkpt>
      <trkpt lat="43.55206" lon="6.57278">
        <ele>213.2</ele>
        <time>2025-10-28T10:14:17.000Z</time>
      </trkpt>
      <trkpt lat="43.55208" lon="6.5727">
        <ele>212.9</ele>
        <time>2025-10-28T10:14:18.000Z</time>
      </trkpt>
      <trkpt lat="43.5521" lon="6.57262">
        <ele>212.5</ele>
        <time>2025-10-28T10:14:19.000Z</time>
      </trkpt>
      <trkpt lat="43.55213" lon="6.57255">
        <ele>212.1</ele>
        <time>2025-10-28T10:14:20.000Z</time>
      </trkpt>
      <trkpt lat="43.55215" lon="6.57251">
        <ele>211.8</ele>
        <time>2025-10-28T10:14:21.000Z</time>
      </trkpt>
      <trkpt lat="43.5522" lon="6.57245">
        <ele>211.3</ele>
        <time>2025-10-28T10:14:22.000Z</time>
      </trkpt>
      <trkpt lat="43.55225" lon="6.5724">
        <ele>210.8</ele>
        <time>2025-10-28T10:14:23.000Z</time>
      </trkpt>
      <trkpt lat="43.55229" lon="6.57235">
        <ele>210.4</ele>
        <time>2025-10-28T10:14:24.000Z</time>
      </trkpt>
      <trkpt lat="43.55233" lon="6.5723">
        <ele>210.1</ele>
        <time>2025-10-28T10:14:25.000Z</time>
      </trkpt>
      <trkpt lat="43.55238" lon="6.57224">
        <ele>209.7</ele>
        <time>2025-10-28T10:14:26.000Z</time>
      </trkpt>
      <trkpt lat="43.55243" lon="6.57216">
        <ele>209.3</ele>
        <time>2025-10-28T10:14:27.000Z</time>
      </trkpt>
      <trkpt lat="43.55247" lon="6.5721">
        <ele>209.1</ele>
        <time>2025-10-28T10:14:28.000Z</time>
      </trkpt>
      <trkpt lat="43.55252" lon="6.57204">
        <ele>208.9</ele>
        <time>2025-10-28T10:14:29.000Z</time>
      </trkpt>
      <trkpt lat="43.55256" lon="6.57199">
        <ele>208.8</ele>
        <time>2025-10-28T10:14:30.000Z</time>
      </trkpt>
      <trkpt lat="43.5526" lon="6.57194">
        <ele>208.7</ele>
        <time>2025-10-28T10:14:31.000Z</time>
      </trkpt>
      <trkpt lat="43.55266" lon="6.57188">
        <ele>208.5</ele>
        <time>2025-10-28T10:14:32.000Z</time>
      </trkpt>
      <trkpt lat="43.55271" lon="6.57183">
        <ele>208.4</ele>
        <time>2025-10-28T10:14:33.000Z</time>
      </trkpt>
      <trkpt lat="43.55276" lon="6.57179">
        <ele>208.3</ele>
        <time>2025-10-28T10:14:34.000Z</time>
      </trkpt>
      <trkpt lat="43.55279" lon="6.57176">
        <ele>208.2</ele>
        <time>2025-10-28T10:14:35.000Z</time>
      </trkpt>
      <trkpt lat="43.55283" lon="6.57173">
        <ele>208</ele>
        <time>2025-10-28T10:14:36.000Z</time>
      </trkpt>
      <trkpt lat="43.55286" lon="6.57171">
        <ele>207.9</ele>
        <time>2025-10-28T10:14:37.000Z</time>
      </trkpt>
      <trkpt lat="43.55289" lon="6.57169">
        <ele>207.7</ele>
        <time>2025-10-28T10:14:38.000Z</time>
      </trkpt>
      <trkpt lat="43.55291" lon="6.57167">
        <ele>207.5</ele>
        <time>2025-10-28T10:14:39.000Z</time>
      </trkpt>
      <trkpt lat="43.55292" lon="6.57166">
        <ele>207.4</ele>
        <time>2025-10-28T10:14:40.000Z</time>
      </trkpt>
      <trkpt lat="43.55293" lon="6.57165">
        <ele>207.4</ele>
        <time>2025-10-28T10:14:41.000Z</time>
      </trkpt>
      <trkpt lat="43.55292" lon="6.57165">
        <ele>207.3</ele>
        <time>2025-10-28T10:14:42.000Z</time>
      </trkpt>
      <trkpt lat="43.5529" lon="6.57165">
        <ele>207.2</ele>
        <time>2025-10-28T10:14:43.000Z</time>
      </trkpt>
      <trkpt lat="43.55288" lon="6.57166">
        <ele>207.1</ele>
        <time>2025-10-28T10:14:44.000Z</time>
      </trkpt>
      <trkpt lat="43.55287" lon="6.57166">
        <ele>206.9</ele>
        <time>2025-10-28T10:14:45.000Z</time>
      </trkpt>
      <trkpt lat="43.55285" lon="6.57166">
        <ele>206.8</ele>
        <time>2025-10-28T10:14:46.000Z</time>
      </trkpt>
      <trkpt lat="43.55284" lon="6.57167">
        <ele>206.7</ele>
        <time>2025-10-28T10:14:47.000Z</time>
      </trkpt>
      <trkpt lat="43.55282" lon="6.57167">
        <ele>206.6</ele>
        <time>2025-10-28T10:14:48.000Z</time>
      </trkpt>
      <trkpt lat="43.55281" lon="6.57167">
        <ele>206.5</ele>
        <time>2025-10-28T10:14:49.000Z</time>
      </trkpt>
      <trkpt lat="43.55279" lon="6.57168">
        <ele>206.4</ele>
        <time>2025-10-28T10:14:50.000Z</time>
      </trkpt>
      <trkpt lat="43.55278" lon="6.57168">
        <ele>206.2</ele>
        <time>2025-10-28T10:14:51.000Z</time>
      </trkpt>
      <trkpt lat="43.55276" lon="6.57168">
        <ele>206.1</ele>
        <time>2025-10-28T10:14:52.000Z</time>
      </trkpt>
      <trkpt lat="43.55274" lon="6.57169">
        <ele>206</ele>
        <time>2025-10-28T10:14:53.000Z</time>
      </trkpt>
      <trkpt lat="43.55273" lon="6.57169">
        <ele>205.9</ele>
        <time>2025-10-28T10:14:54.000Z</time>
      </trkpt>
      <trkpt lat="43.55271" lon="6.57169">
        <ele>205.8</ele>
        <time>2025-10-28T10:14:55.000Z</time>
      </trkpt>
      <trkpt lat="43.5527" lon="6.5717">
        <ele>205.7</ele>
        <time>2025-10-28T10:14:56.000Z</time>
      </trkpt>
      <trkpt lat="43.55268" lon="6.5717">
        <ele>205.5</ele>
        <time>2025-10-28T10:14:57.000Z</time>
      </trkpt>
      <trkpt lat="43.55267" lon="6.5717">
        <ele>205.4</ele>
        <time>2025-10-28T10:14:58.000Z</time>
      </trkpt>
      <trkpt lat="43.55265" lon="6.57171">
        <ele>205.3</ele>
        <time>2025-10-28T10:14:59.000Z</time>
      </trkpt>
      <trkpt lat="43.55264" lon="6.57171">
        <ele>205.2</ele>
        <time>2025-10-28T10:15:00.000Z</time>
      </trkpt>
      <trkpt lat="43.55262" lon="6.57171">
        <ele>205.1</ele>
        <time>2025-10-28T10:15:01.000Z</time>
      </trkpt>
      <trkpt lat="43.55261" lon="6.57172">
        <ele>205</ele>
        <time>2025-10-28T10:15:02.000Z</time>
      </trkpt>
      <trkpt lat="43.55254" lon="6.57174">
        <ele>204.6</ele>
        <time>2025-10-28T10:15:03.000Z</time>
      </trkpt>
      <trkpt lat="43.55248" lon="6.57177">
        <ele>204.1</ele>
        <time>2025-10-28T10:15:04.000Z</time>
      </trkpt>
      <trkpt lat="43.55241" lon="6.57181">
        <ele>203.7</ele>
        <time>2025-10-28T10:15:05.000Z</time>
      </trkpt>
      <trkpt lat="43.55234" lon="6.57185">
        <ele>203.3</ele>
        <time>2025-10-28T10:15:06.000Z</time>
      </trkpt>
      <trkpt lat="43.55227" lon="6.57189">
        <ele>202.8</ele>
        <time>2025-10-28T10:15:07.000Z</time>
      </trkpt>
      <trkpt lat="43.5522" lon="6.57194">
        <ele>202.4</ele>
        <time>2025-10-28T10:15:08.000Z</time>
      </trkpt>
      <trkpt lat="43.55214" lon="6.572">
        <ele>201.9</ele>
        <time>2025-10-28T10:15:09.000Z</time>
      </trkpt>
      <trkpt lat="43.55207" lon="6.57206">
        <ele>201.4</ele>
        <time>2025-10-28T10:15:10.000Z</time>
      </trkpt>
      <trkpt lat="43.55201" lon="6.57214">
        <ele>200.9</ele>
        <time>2025-10-28T10:15:11.000Z</time>
      </trkpt>
      <trkpt lat="43.55197" lon="6.57224">
        <ele>200.3</ele>
        <time>2025-10-28T10:15:12.000Z</time>
      </trkpt>
      <trkpt lat="43.55193" lon="6.57234">
        <ele>199.8</ele>
        <time>2025-10-28T10:15:13.000Z</time>
      </trkpt>
      <trkpt lat="43.55189" lon="6.57245">
        <ele>199.2</ele>
        <time>2025-10-28T10:15:14.000Z</time>
      </trkpt>
      <trkpt lat="43.55185" lon="6.57256">
        <ele>198.7</ele>
        <time>2025-10-28T10:15:15.000Z</time>
      </trkpt>
      <trkpt lat="43.55181" lon="6.57267">
        <ele>198.2</ele>
        <time>2025-10-28T10:15:16.000Z</time>
      </trkpt>
      <trkpt lat="43.55176" lon="6.57278">
        <ele>197.7</ele>
        <time>2025-10-28T10:15:17.000Z</time>
      </trkpt>
      <trkpt lat="43.5517" lon="6.57287">
        <ele>197.3</ele>
        <time>2025-10-28T10:15:18.000Z</time>
      </trkpt>
      <trkpt lat="43.55163" lon="6.57294">
        <ele>196.8</ele>
        <time>2025-10-28T10:15:19.000Z</time>
      </trkpt>
      <trkpt lat="43.55155" lon="6.573">
        <ele>196.5</ele>
        <time>2025-10-28T10:15:20.000Z</time>
      </trkpt>
      <trkpt lat="43.55147" lon="6.57305">
        <ele>196.1</ele>
        <time>2025-10-28T10:15:21.000Z</time>
      </trkpt>
      <trkpt lat="43.55139" lon="6.57311">
        <ele>195.7</ele>
        <time>2025-10-28T10:15:22.000Z</time>
      </trkpt>
      <trkpt lat="43.55132" lon="6.57318">
        <ele>195.4</ele>
        <time>2025-10-28T10:15:23.000Z</time>
      </trkpt>
      <trkpt lat="43.55126" lon="6.57326">
        <ele>195.1</ele>
        <time>2025-10-28T10:15:24.000Z</time>
      </trkpt>
      <trkpt lat="43.55119" lon="6.57334">
        <ele>194.7</ele>
        <time>2025-10-28T10:15:25.000Z</time>
      </trkpt>
      <trkpt lat="43.55112" lon="6.57341">
        <ele>194.4</ele>
        <time>2025-10-28T10:15:26.000Z</time>
      </trkpt>
      <trkpt lat="43.55105" lon="6.57344">
        <ele>194.1</ele>
        <time>2025-10-28T10:15:27.000Z</time>
      </trkpt>
      <trkpt lat="43.55097" lon="6.57344">
        <ele>193.8</ele>
        <time>2025-10-28T10:15:28.000Z</time>
      </trkpt>
      <trkpt lat="43.5509" lon="6.57341">
        <ele>193.5</ele>
        <time>2025-10-28T10:15:29.000Z</time>
      </trkpt>
      <trkpt lat="43.55083" lon="6.57335">
        <ele>193.1</ele>
        <time>2025-10-28T10:15:30.000Z</time>
      </trkpt>
      <trkpt lat="43.55077" lon="6.57327">
        <ele>192.7</ele>
        <time>2025-10-28T10:15:31.000Z</time>
      </trkpt>
      <trkpt lat="43.5507" lon="6.57317">
        <ele>192.2</ele>
        <time>2025-10-28T10:15:32.000Z</time>
      </trkpt>
      <trkpt lat="43.55064" lon="6.57306">
        <ele>191.7</ele>
        <time>2025-10-28T10:15:33.000Z</time>
      </trkpt>
      <trkpt lat="43.55058" lon="6.57295">
        <ele>191.1</ele>
        <time>2025-10-28T10:15:34.000Z</time>
      </trkpt>
      <trkpt lat="43.55052" lon="6.57284">
        <ele>190.6</ele>
        <time>2025-10-28T10:15:35.000Z</time>
      </trkpt>
      <trkpt lat="43.55046" lon="6.57274">
        <ele>190</ele>
        <time>2025-10-28T10:15:36.000Z</time>
      </trkpt>
      <trkpt lat="43.55039" lon="6.57266">
        <ele>189.4</ele>
        <time>2025-10-28T10:15:37.000Z</time>
      </trkpt>
      <trkpt lat="43.55031" lon="6.57261">
        <ele>188.8</ele>
        <time>2025-10-28T10:15:38.000Z</time>
      </trkpt>
      <trkpt lat="43.55022" lon="6.57261">
        <ele>188.1</ele>
        <time>2025-10-28T10:15:39.000Z</time>
      </trkpt>
      <trkpt lat="43.55013" lon="6.57263">
        <ele>187.3</ele>
        <time>2025-10-28T10:15:40.000Z</time>
      </trkpt>
      <trkpt lat="43.55003" lon="6.57267">
        <ele>186.4</ele>
        <time>2025-10-28T10:15:41.000Z</time>
      </trkpt>
      <trkpt lat="43.54994" lon="6.57272">
        <ele>185.6</ele>
        <time>2025-10-28T10:15:42.000Z</time>
      </trkpt>
      <trkpt lat="43.54985" lon="6.57279">
        <ele>184.8</ele>
        <time>2025-10-28T10:15:43.000Z</time>
      </trkpt>
      <trkpt lat="43.54976" lon="6.57287">
        <ele>183.9</ele>
        <time>2025-10-28T10:15:44.000Z</time>
      </trkpt>
      <trkpt lat="43.54968" lon="6.57296">
        <ele>183</ele>
        <time>2025-10-28T10:15:45.000Z</time>
      </trkpt>
      <trkpt lat="43.54959" lon="6.57305">
        <ele>182.2</ele>
        <time>2025-10-28T10:15:46.000Z</time>
      </trkpt>
      <trkpt lat="43.5495" lon="6.57315">
        <ele>181.3</ele>
        <time>2025-10-28T10:15:47.000Z</time>
      </trkpt>
      <trkpt lat="43.54941" lon="6.57324">
        <ele>180.4</ele>
        <time>2025-10-28T10:15:48.000Z</time>
      </trkpt>
      <trkpt lat="43.54931" lon="6.57332">
        <ele>179.4</ele>
        <time>2025-10-28T10:15:49.000Z</time>
      </trkpt>
      <trkpt lat="43.54921" lon="6.5734">
        <ele>178.4</ele>
        <time>2025-10-28T10:15:50.000Z</time>
      </trkpt>
      <trkpt lat="43.54911" lon="6.57348">
        <ele>177.4</ele>
        <time>2025-10-28T10:15:51.000Z</time>
      </trkpt>
      <trkpt lat="43.54902" lon="6.57356">
        <ele>176.4</ele>
        <time>2025-10-28T10:15:52.000Z</time>
      </trkpt>
      <trkpt lat="43.54892" lon="6.57364">
        <ele>175.4</ele>
        <time>2025-10-28T10:15:53.000Z</time>
      </trkpt>
      <trkpt lat="43.54881" lon="6.5737">
        <ele>174.4</ele>
        <time>2025-10-28T10:15:54.000Z</time>
      </trkpt>
      <trkpt lat="43.5487" lon="6.57375">
        <ele>173.5</ele>
        <time>2025-10-28T10:15:55.000Z</time>
      </trkpt>
      <trkpt lat="43.54859" lon="6.5738">
        <ele>172.7</ele>
        <time>2025-10-28T10:15:56.000Z</time>
      </trkpt>
      <trkpt lat="43.54847" lon="6.57385">
        <ele>171.9</ele>
        <time>2025-10-28T10:15:57.000Z</time>
      </trkpt>
      <trkpt lat="43.54836" lon="6.57389">
        <ele>171.1</ele>
        <time>2025-10-28T10:15:58.000Z</time>
      </trkpt>
      <trkpt lat="43.54824" lon="6.57393">
        <ele>170.3</ele>
        <time>2025-10-28T10:15:59.000Z</time>
      </trkpt>
      <trkpt lat="43.54813" lon="6.57398">
        <ele>169.4</ele>
        <time>2025-10-28T10:16:00.000Z</time>
      </trkpt>
      <trkpt lat="43.54801" lon="6.57402">
        <ele>168.6</ele>
        <time>2025-10-28T10:16:01.000Z</time>
      </trkpt>
      <trkpt lat="43.5479" lon="6.57405">
        <ele>167.7</ele>
        <time>2025-10-28T10:16:02.000Z</time>
      </trkpt>
      <trkpt lat="43.54779" lon="6.57406">
        <ele>166.8</ele>
        <time>2025-10-28T10:16:03.000Z</time>
      </trkpt>
      <trkpt lat="43.54768" lon="6.57403">
        <ele>166</ele>
        <time>2025-10-28T10:16:04.000Z</time>
      </trkpt>
      <trkpt lat="43.54757" lon="6.57397">
        <ele>165.3</ele>
        <time>2025-10-28T10:16:05.000Z</time>
      </trkpt>
      <trkpt lat="43.54747" lon="6.57388">
        <ele>164.8</ele>
        <time>2025-10-28T10:16:06.000Z</time>
      </trkpt>
      <trkpt lat="43.54738" lon="6.57379">
        <ele>164.6</ele>
        <time>2025-10-28T10:16:07.000Z</time>
      </trkpt>
      <trkpt lat="43.54729" lon="6.5737">
        <ele>164.7</ele>
        <time>2025-10-28T10:16:08.000Z</time>
      </trkpt>
      <trkpt lat="43.5472" lon="6.5736">
        <ele>164.7</ele>
        <time>2025-10-28T10:16:09.000Z</time>
      </trkpt>
      <trkpt lat="43.54712" lon="6.5735">
        <ele>164.7</ele>
        <time>2025-10-28T10:16:10.000Z</time>
      </trkpt>
      <trkpt lat="43.54704" lon="6.57341">
        <ele>164.8</ele>
        <time>2025-10-28T10:16:11.000Z</time>
      </trkpt>
      <trkpt lat="43.54696" lon="6.57332">
        <ele>164.9</ele>
        <time>2025-10-28T10:16:12.000Z</time>
      </trkpt>
      <trkpt lat="43.5469" lon="6.57323">
        <ele>164.9</ele>
        <time>2025-10-28T10:16:13.000Z</time>
      </trkpt>
      <trkpt lat="43.54683" lon="6.57316">
        <ele>165</ele>
        <time>2025-10-28T10:16:14.000Z</time>
      </trkpt>
      <trkpt lat="43.54677" lon="6.57309">
        <ele>165</ele>
        <time>2025-10-28T10:16:15.000Z</time>
      </trkpt>
      <trkpt lat="43.54671" lon="6.57302">
        <ele>165.1</ele>
        <time>2025-10-28T10:16:16.000Z</time>
      </trkpt>
      <trkpt lat="43.54666" lon="6.57295">
        <ele>165.1</ele>
        <time>2025-10-28T10:16:17.000Z</time>
      </trkpt>
      <trkpt lat="43.54661" lon="6.57289">
        <ele>165.2</ele>
        <time>2025-10-28T10:16:18.000Z</time>
      </trkpt>
      <trkpt lat="43.54656" lon="6.57284">
        <ele>165.3</ele>
        <time>2025-10-28T10:16:19.000Z</time>
      </trkpt>
      <trkpt lat="43.54651" lon="6.57279">
        <ele>165.4</ele>
        <time>2025-10-28T10:16:20.000Z</time>
      </trkpt>
      <trkpt lat="43.54647" lon="6.57274">
        <ele>165.5</ele>
        <time>2025-10-28T10:16:21.000Z</time>
      </trkpt>
      <trkpt lat="43.54642" lon="6.5727">
        <ele>165.6</ele>
        <time>2025-10-28T10:16:22.000Z</time>
      </trkpt>
      <trkpt lat="43.54637" lon="6.57264">
        <ele>165.7</ele>
        <time>2025-10-28T10:16:23.000Z</time>
      </trkpt>
      <trkpt lat="43.54632" lon="6.57259">
        <ele>165.8</ele>
        <time>2025-10-28T10:16:24.000Z</time>
      </trkpt>
      <trkpt lat="43.54628" lon="6.57254">
        <ele>166</ele>
        <time>2025-10-28T10:16:25.000Z</time>
      </trkpt>
      <trkpt lat="43.54623" lon="6.57249">
        <ele>166.1</ele>
        <time>2025-10-28T10:16:26.000Z</time>
      </trkpt>
      <trkpt lat="43.54618" lon="6.57245">
        <ele>166.2</ele>
        <time>2025-10-28T10:16:27.000Z</time>
      </trkpt>
      <trkpt lat="43.54612" lon="6.57241">
        <ele>166.5</ele>
        <time>2025-10-28T10:16:28.000Z</time>
      </trkpt>
      <trkpt lat="43.54607" lon="6.57237">
        <ele>166.9</ele>
        <time>2025-10-28T10:16:29.000Z</time>
      </trkpt>
      <trkpt lat="43.54601" lon="6.57234">
        <ele>167.3</ele>
        <time>2025-10-28T10:16:30.000Z</time>
      </trkpt>
      <trkpt lat="43.54595" lon="6.57232">
        <ele>167.7</ele>
        <time>2025-10-28T10:16:31.000Z</time>
      </trkpt>
      <trkpt lat="43.5459" lon="6.5723">
        <ele>168.2</ele>
        <time>2025-10-28T10:16:32.000Z</time>
      </trkpt>
      <trkpt lat="43.54584" lon="6.57229">
        <ele>168.7</ele>
        <time>2025-10-28T10:16:33.000Z</time>
      </trkpt>
      <trkpt lat="43.54577" lon="6.57229">
        <ele>169.2</ele>
        <time>2025-10-28T10:16:34.000Z</time>
      </trkpt>
      <trkpt lat="43.54571" lon="6.57229">
        <ele>169.7</ele>
        <time>2025-10-28T10:16:35.000Z</time>
      </trkpt>
      <trkpt lat="43.54565" lon="6.57231">
        <ele>170.2</ele>
        <time>2025-10-28T10:16:36.000Z</time>
      </trkpt>
      <trkpt lat="43.54559" lon="6.57232">
        <ele>170.4</ele>
        <time>2025-10-28T10:16:37.000Z</time>
      </trkpt>
      <trkpt lat="43.54554" lon="6.57235">
        <ele>170.5</ele>
        <time>2025-10-28T10:16:38.000Z</time>
      </trkpt>
      <trkpt lat="43.54549" lon="6.57238">
        <ele>171</ele>
        <time>2025-10-28T10:16:39.000Z</time>
      </trkpt>
      <trkpt lat="43.54544" lon="6.57242">
        <ele>171.5</ele>
        <time>2025-10-28T10:16:40.000Z</time>
      </trkpt>
      <trkpt lat="43.54539" lon="6.57246">
        <ele>172</ele>
        <time>2025-10-28T10:16:41.000Z</time>
      </trkpt>
      <trkpt lat="43.54535" lon="6.5725">
        <ele>172.5</ele>
        <time>2025-10-28T10:16:42.000Z</time>
      </trkpt>
      <trkpt lat="43.54531" lon="6.57254">
        <ele>172.9</ele>
        <time>2025-10-28T10:16:43.000Z</time>
      </trkpt>
      <trkpt lat="43.54526" lon="6.57258">
        <ele>173.4</ele>
        <time>2025-10-28T10:16:44.000Z</time>
      </trkpt>
      <trkpt lat="43.54522" lon="6.57262">
        <ele>173.8</ele>
        <time>2025-10-28T10:16:45.000Z</time>
      </trkpt>
      <trkpt lat="43.54518" lon="6.57266">
        <ele>174.2</ele>
        <time>2025-10-28T10:16:46.000Z</time>
      </trkpt>
      <trkpt lat="43.54514" lon="6.5727">
        <ele>174.6</ele>
        <time>2025-10-28T10:16:47.000Z</time>
      </trkpt>
      <trkpt lat="43.5451" lon="6.57274">
        <ele>175</ele>
        <time>2025-10-28T10:16:48.000Z</time>
      </trkpt>
      <trkpt lat="43.54506" lon="6.57278">
        <ele>175.4</ele>
        <time>2025-10-28T10:16:49.000Z</time>
      </trkpt>
      <trkpt lat="43.54501" lon="6.57282">
        <ele>175.7</ele>
        <time>2025-10-28T10:16:50.000Z</time>
      </trkpt>
      <trkpt lat="43.54497" lon="6.57286">
        <ele>176.1</ele>
        <time>2025-10-28T10:16:51.000Z</time>
      </trkpt>
      <trkpt lat="43.54493" lon="6.5729">
        <ele>176.4</ele>
        <time>2025-10-28T10:16:52.000Z</time>
      </trkpt>
      <trkpt lat="43.54488" lon="6.57294">
        <ele>176.8</ele>
        <time>2025-10-28T10:16:53.000Z</time>
      </trkpt>
      <trkpt lat="43.54484" lon="6.57298">
        <ele>177.1</ele>
        <time>2025-10-28T10:16:54.000Z</time>
      </trkpt>
      <trkpt lat="43.5448" lon="6.57302">
        <ele>177.4</ele>
        <time>2025-10-28T10:16:55.000Z</time>
      </trkpt>
      <trkpt lat="43.54475" lon="6.57307">
        <ele>177.7</ele>
        <time>2025-10-28T10:16:56.000Z</time>
      </trkpt>
      <trkpt lat="43.54471" lon="6.57311">
        <ele>178</ele>
        <time>2025-10-28T10:16:57.000Z</time>
      </trkpt>
      <trkpt lat="43.54468" lon="6.57316">
        <ele>178.2</ele>
        <time>2025-10-28T10:16:58.000Z</time>
      </trkpt>
      <trkpt lat="43.54464" lon="6.57321">
        <ele>178.4</ele>
        <time>2025-10-28T10:16:59.000Z</time>
      </trkpt>
      <trkpt lat="43.5446" lon="6.57326">
        <ele>178.6</ele>
        <time>2025-10-28T10:17:00.000Z</time>
      </trkpt>
      <trkpt lat="43.54456" lon="6.57331">
        <ele>178.8</ele>
        <time>2025-10-28T10:17:01.000Z</time>
      </trkpt>
      <trkpt lat="43.54452" lon="6.57336">
        <ele>179</ele>
        <time>2025-10-28T10:17:02.000Z</time>
      </trkpt>
      <trkpt lat="43.54448" lon="6.57341">
        <ele>179.1</ele>
        <time>2025-10-28T10:17:03.000Z</time>
      </trkpt>
      <trkpt lat="43.54444" lon="6.57346">
        <ele>179.3</ele>
        <time>2025-10-28T10:17:04.000Z</time>
      </trkpt>
      <trkpt lat="43.54439" lon="6.5735">
        <ele>179.5</ele>
        <time>2025-10-28T10:17:05.000Z</time>
      </trkpt>
      <trkpt lat="43.54434" lon="6.57354">
        <ele>179.8</ele>
        <time>2025-10-28T10:17:06.000Z</time>
      </trkpt>
      <trkpt lat="43.5443" lon="6.57358">
        <ele>180</ele>
        <time>2025-10-28T10:17:07.000Z</time>
      </trkpt>
      <trkpt lat="43.54425" lon="6.57362">
        <ele>180.3</ele>
        <time>2025-10-28T10:17:08.000Z</time>
      </trkpt>
      <trkpt lat="43.54421" lon="6.57366">
        <ele>180.6</ele>
        <time>2025-10-28T10:17:09.000Z</time>
      </trkpt>
      <trkpt lat="43.54417" lon="6.5737">
        <ele>180.9</ele>
        <time>2025-10-28T10:17:10.000Z</time>
      </trkpt>
      <trkpt lat="43.54414" lon="6.57375">
        <ele>181.3</ele>
        <time>2025-10-28T10:17:11.000Z</time>
      </trkpt>
      <trkpt lat="43.54411" lon="6.5738">
        <ele>181.6</ele>
        <time>2025-10-28T10:17:12.000Z</time>
      </trkpt>
      <trkpt lat="43.54407" lon="6.57385">
        <ele>182</ele>
        <time>2025-10-28T10:17:13.000Z</time>
      </trkpt>
      <trkpt lat="43.54405" lon="6.5739">
        <ele>182.4</ele>
        <time>2025-10-28T10:17:14.000Z</time>
      </trkpt>
      <trkpt lat="43.54402" lon="6.57395">
        <ele>182.8</ele>
        <time>2025-10-28T10:17:15.000Z</time>
      </trkpt>
      <trkpt lat="43.54399" lon="6.574">
        <ele>183.1</ele>
        <time>2025-10-28T10:17:16.000Z</time>
      </trkpt>
      <trkpt lat="43.54396" lon="6.57405">
        <ele>183.5</ele>
        <time>2025-10-28T10:17:17.000Z</time>
      </trkpt>
      <trkpt lat="43.54393" lon="6.5741">
        <ele>183.9</ele>
        <time>2025-10-28T10:17:18.000Z</time>
      </trkpt>
      <trkpt lat="43.5439" lon="6.57415">
        <ele>184.2</ele>
        <time>2025-10-28T10:17:19.000Z</time>
      </trkpt>
      <trkpt lat="43.54387" lon="6.5742">
        <ele>184.5</ele>
        <time>2025-10-28T10:17:20.000Z</time>
      </trkpt>
      <trkpt lat="43.54384" lon="6.57425">
        <ele>184.8</ele>
        <time>2025-10-28T10:17:21.000Z</time>
      </trkpt>
      <trkpt lat="43.54381" lon="6.57429">
        <ele>185.2</ele>
        <time>2025-10-28T10:17:22.000Z</time>
      </trkpt>
      <trkpt lat="43.54378" lon="6.57434">
        <ele>185.5</ele>
        <time>2025-10-28T10:17:23.000Z</time>
      </trkpt>
      <trkpt lat="43.54375" lon="6.57439">
        <ele>185.8</ele>
        <time>2025-10-28T10:17:24.000Z</time>
      </trkpt>
      <trkpt lat="43.54372" lon="6.57443">
        <ele>186.1</ele>
        <time>2025-10-28T10:17:25.000Z</time>
      </trkpt>
      <trkpt lat="43.54369" lon="6.57448">
        <ele>186.4</ele>
        <time>2025-10-28T10:17:26.000Z</time>
      </trkpt>
      <trkpt lat="43.54366" lon="6.57452">
        <ele>186.8</ele>
        <time>2025-10-28T10:17:27.000Z</time>
      </trkpt>
      <trkpt lat="43.54363" lon="6.57457">
        <ele>187.1</ele>
        <time>2025-10-28T10:17:28.000Z</time>
      </trkpt>
      <trkpt lat="43.5436" lon="6.57461">
        <ele>187.4</ele>
        <time>2025-10-28T10:17:29.000Z</time>
      </trkpt>
      <trkpt lat="43.54357" lon="6.57466">
        <ele>187.7</ele>
        <time>2025-10-28T10:17:30.000Z</time>
      </trkpt>
      <trkpt lat="43.54354" lon="6.57471">
        <ele>188</ele>
        <time>2025-10-28T10:17:31.000Z</time>
      </trkpt>
      <trkpt lat="43.5435" lon="6.57476">
        <ele>188.3</ele>
        <time>2025-10-28T10:17:32.000Z</time>
      </trkpt>
      <trkpt lat="43.54347" lon="6.5748">
        <ele>188.6</ele>
        <time>2025-10-28T10:17:33.000Z</time>
      </trkpt>
      <trkpt lat="43.54344" lon="6.57485">
        <ele>188.9</ele>
        <time>2025-10-28T10:17:34.000Z</time>
      </trkpt>
      <trkpt lat="43.54341" lon="6.57489">
        <ele>189.3</ele>
        <time>2025-10-28T10:17:35.000Z</time>
      </trkpt>
      <trkpt lat="43.54338" lon="6.57493">
        <ele>189.6</ele>
        <time>2025-10-28T10:17:36.000Z</time>
      </trkpt>
      <trkpt lat="43.54334" lon="6.57497">
        <ele>189.9</ele>
        <time>2025-10-28T10:17:37.000Z</time>
      </trkpt>
      <trkpt lat="43.54331" lon="6.57501">
        <ele>190.3</ele>
        <time>2025-10-28T10:17:38.000Z</time>
      </trkpt>
      <trkpt lat="43.54327" lon="6.57505">
        <ele>190.6</ele>
        <time>2025-10-28T10:17:39.000Z</time>
      </trkpt>
      <trkpt lat="43.54324" lon="6.57508">
        <ele>190.9</ele>
        <time>2025-10-28T10:17:40.000Z</time>
      </trkpt>
      <trkpt lat="43.5432" lon="6.57511">
        <ele>191.3</ele>
        <time>2025-10-28T10:17:41.000Z</time>
      </trkpt>
      <trkpt lat="43.54316" lon="6.57514">
        <ele>191.7</ele>
        <time>2025-10-28T10:17:42.000Z</time>
      </trkpt>
      <trkpt lat="43.54312" lon="6.57516">
        <ele>192</ele>
        <time>2025-10-28T10:17:43.000Z</time>
      </trkpt>
      <trkpt lat="43.54308" lon="6.57519">
        <ele>192.4</ele>
        <time>2025-10-28T10:17:44.000Z</time>
      </trkpt>
      <trkpt lat="43.54305" lon="6.57521">
        <ele>192.7</ele>
        <time>2025-10-28T10:17:45.000Z</time>
      </trkpt>
      <trkpt lat="43.54301" lon="6.57522">
        <ele>193.1</ele>
        <time>2025-10-28T10:17:46.000Z</time>
      </trkpt>
      <trkpt lat="43.54297" lon="6.57523">
        <ele>193.5</ele>
        <time>2025-10-28T10:17:47.000Z</time>
      </trkpt>
      <trkpt lat="43.54293" lon="6.57524">
        <ele>193.8</ele>
        <time>2025-10-28T10:17:48.000Z</time>
      </trkpt>
      <trkpt lat="43.54289" lon="6.57525">
        <ele>194.2</ele>
        <time>2025-10-28T10:17:49.000Z</time>
      </trkpt>
      <trkpt lat="43.54285" lon="6.57525">
        <ele>194.6</ele>
        <time>2025-10-28T10:17:50.000Z</time>
      </trkpt>
      <trkpt lat="43.54282" lon="6.57525">
        <ele>194.9</ele>
        <time>2025-10-28T10:17:51.000Z</time>
      </trkpt>
      <trkpt lat="43.54278" lon="6.57525">
        <ele>195.3</ele>
        <time>2025-10-28T10:17:52.000Z</time>
      </trkpt>
      <trkpt lat="43.54274" lon="6.57524">
        <ele>195.7</ele>
        <time>2025-10-28T10:17:53.000Z</time>
      </trkpt>
      <trkpt lat="43.5427" lon="6.57524">
        <ele>196</ele>
        <time>2025-10-28T10:17:54.000Z</time>
      </trkpt>
      <trkpt lat="43.54266" lon="6.57523">
        <ele>196.3</ele>
        <time>2025-10-28T10:17:55.000Z</time>
      </trkpt>
      <trkpt lat="43.54262" lon="6.57523">
        <ele>196.6</ele>
        <time>2025-10-28T10:17:56.000Z</time>
      </trkpt>
      <trkpt lat="43.54258" lon="6.57522">
        <ele>197</ele>
        <time>2025-10-28T10:17:57.000Z</time>
      </trkpt>
      <trkpt lat="43.54254" lon="6.57521">
        <ele>197.2</ele>
        <time>2025-10-28T10:17:58.000Z</time>
      </trkpt>
      <trkpt lat="43.5425" lon="6.57521">
        <ele>197.5</ele>
        <time>2025-10-28T10:17:59.000Z</time>
      </trkpt>
      <trkpt lat="43.54246" lon="6.5752">
        <ele>197.8</ele>
        <time>2025-10-28T10:18:00.000Z</time>
      </trkpt>
      <trkpt lat="43.54242" lon="6.57519">
        <ele>198</ele>
        <time>2025-10-28T10:18:01.000Z</time>
      </trkpt>
      <trkpt lat="43.54238" lon="6.57518">
        <ele>198.3</ele>
        <time>2025-10-28T10:18:02.000Z</time>
      </trkpt>
      <trkpt lat="43.54234" lon="6.57518">
        <ele>198.5</ele>
        <time>2025-10-28T10:18:03.000Z</time>
      </trkpt>
      <trkpt lat="43.54231" lon="6.57517">
        <ele>198.6</ele>
        <time>2025-10-28T10:18:04.000Z</time>
      </trkpt>
      <trkpt lat="43.54227" lon="6.57516">
        <ele>198.8</ele>
        <time>2025-10-28T10:18:05.000Z</time>
      </trkpt>
      <trkpt lat="43.54223" lon="6.57516">
        <ele>198.9</ele>
        <time>2025-10-28T10:18:06.000Z</time>
      </trkpt>
      <trkpt lat="43.5422" lon="6.57515">
        <ele>199</ele>
        <time>2025-10-28T10:18:07.000Z</time>
      </trkpt>
      <trkpt lat="43.54216" lon="6.57514">
        <ele>199.1</ele>
        <time>2025-10-28T10:18:08.000Z</time>
      </trkpt>
      <trkpt lat="43.54213" lon="6.57512">
        <ele>199.2</ele>
        <time>2025-10-28T10:18:09.000Z</time>
      </trkpt>
      <trkpt lat="43.5421" lon="6.5751">
        <ele>199.2</ele>
        <time>2025-10-28T10:18:10.000Z</time>
      </trkpt>
      <trkpt lat="43.54207" lon="6.57508">
        <ele>199.2</ele>
        <time>2025-10-28T10:18:11.000Z</time>
      </trkpt>
      <trkpt lat="43.54205" lon="6.57505">
        <ele>199.2</ele>
        <time>2025-10-28T10:18:12.000Z</time>
      </trkpt>
      <trkpt lat="43.54203" lon="6.57503">
        <ele>199.2</ele>
        <time>2025-10-28T10:18:13.000Z</time>
      </trkpt>
      <trkpt lat="43.54201" lon="6.575">
        <ele>199.2</ele>
        <time>2025-10-28T10:18:14.000Z</time>
      </trkpt>
      <trkpt lat="43.54199" lon="6.57498">
        <ele>199.2</ele>
        <time>2025-10-28T10:18:15.000Z</time>
      </trkpt>
      <trkpt lat="43.54197" lon="6.57496">
        <ele>199.2</ele>
        <time>2025-10-28T10:18:16.000Z</time>
      </trkpt>
      <trkpt lat="43.54196" lon="6.57494">
        <ele>199.2</ele>
        <time>2025-10-28T10:18:17.000Z</time>
      </trkpt>
      <trkpt lat="43.54194" lon="6.57493">
        <ele>199.2</ele>
        <time>2025-10-28T10:18:18.000Z</time>
      </trkpt>
      <trkpt lat="43.54192" lon="6.57492">
        <ele>199.1</ele>
        <time>2025-10-28T10:18:19.000Z</time>
      </trkpt>
      <trkpt lat="43.5419" lon="6.5749">
        <ele>199.1</ele>
        <time>2025-10-28T10:18:20.000Z</time>
      </trkpt>
      <trkpt lat="43.54188" lon="6.5749">
        <ele>199.1</ele>
        <time>2025-10-28T10:18:21.000Z</time>
      </trkpt>
      <trkpt lat="43.54186" lon="6.57489">
        <ele>199</ele>
        <time>2025-10-28T10:18:22.000Z</time>
      </trkpt>
      <trkpt lat="43.54184" lon="6.57489">
        <ele>199</ele>
        <time>2025-10-28T10:18:23.000Z</time>
      </trkpt>
      <trkpt lat="43.54182" lon="6.57488">
        <ele>199</ele>
        <time>2025-10-28T10:18:24.000Z</time>
      </trkpt>
      <trkpt lat="43.5418" lon="6.57487">
        <ele>198.9</ele>
        <time>2025-10-28T10:18:25.000Z</time>
      </trkpt>
      <trkpt lat="43.54178" lon="6.57487">
        <ele>198.9</ele>
        <time>2025-10-28T10:18:26.000Z</time>
      </trkpt>
      <trkpt lat="43.54177" lon="6.57487">
        <ele>198.9</ele>
        <time>2025-10-28T10:18:27.000Z</time>
      </trkpt>
      <trkpt lat="43.54175" lon="6.57486">
        <ele>198.8</ele>
        <time>2025-10-28T10:18:28.000Z</time>
      </trkpt>
      <trkpt lat="43.54174" lon="6.57486">
        <ele>198.8</ele>
        <time>2025-10-28T10:18:29.000Z</time>
      </trkpt>
      <trkpt lat="43.54173" lon="6.57486">
        <ele>198.8</ele>
        <time>2025-10-28T10:18:30.000Z</time>
      </trkpt>
      <trkpt lat="43.54173" lon="6.57486">
        <ele>198.8</ele>
        <time>2025-10-28T10:18:31.000Z</time>
      </trkpt>
      <trkpt lat="43.54173" lon="6.57486">
        <ele>198.8</ele>
        <time>2025-10-28T10:18:32.000Z</time>
      </trkpt>
      <trkpt lat="43.54173" lon="6.57486">
        <ele>198.8</ele>
        <time>2025-10-28T10:18:33.000Z</time>
      </trkpt>
      <trkpt lat="43.54173" lon="6.57486">
        <ele>198.8</ele>
        <time>2025-10-28T10:18:34.000Z</time>
      </trkpt>
      <trkpt lat="43.54173" lon="6.57486">
        <ele>198.8</ele>
        <time>2025-10-28T10:18:35.000Z</time>
      </trkpt>
      <trkpt lat="43.54173" lon="6.57486">
        <ele>198.7</ele>
        <time>2025-10-28T10:18:36.000Z</time>
      </trkpt>
      <trkpt lat="43.54173" lon="6.57486">
        <ele>198.7</ele>
        <time>2025-10-28T10:18:37.000Z</time>
      </trkpt>
      <trkpt lat="43.54173" lon="6.57486">
        <ele>198.7</ele>
        <time>2025-10-28T10:18:38.000Z</time>
      </trkpt>
      <trkpt lat="43.54173" lon="6.57486">
        <ele>198.7</ele>
        <time>2025-10-28T10:18:39.000Z</time>
      </trkpt>
      <trkpt lat="43.54173" lon="6.57486">
        <ele>198.7</ele>
        <time>2025-10-28T10:18:40.000Z</time>
      </trkpt>
      <trkpt lat="43.54173" lon="6.57486">
        <ele>198.7</ele>
        <time>2025-10-28T10:18:41.000Z</time>
      </trkpt>
      <trkpt lat="43.54173" lon="6.57486">
        <ele>198.7</ele>
        <time>2025-10-28T10:18:42.000Z</time>
      </trkpt>
      <trkpt lat="43.54173" lon="6.57486">
        <ele>198.7</ele>
        <time>2025-10-28T10:18:43.000Z</time>
      </trkpt>
      <trkpt lat="43.54173" lon="6.57486">
        <ele>198.7</ele>
        <time>2025-10-28T10:18:44.000Z</time>
      </trkpt>
      <trkpt lat="43.54173" lon="6.57486">
        <ele>198.7</ele>
        <time>2025-10-28T10:18:45.000Z</time>
      </trkpt>
      <trkpt lat="43.5417" lon="6.57485">
        <ele>198.7</ele>
        <time>2025-10-28T10:18:46.000Z</time>
      </trkpt>
      <trkpt lat="43.54166" lon="6.57485">
        <ele>198.6</ele>
        <time>2025-10-28T10:18:47.000Z</time>
      </trkpt>
      <trkpt lat="43.54163" lon="6.57484">
        <ele>198.5</ele>
        <time>2025-10-28T10:18:48.000Z</time>
      </trkpt>
      <trkpt lat="43.54159" lon="6.57483">
        <ele>198.4</ele>
        <time>2025-10-28T10:18:49.000Z</time>
      </trkpt>
      <trkpt lat="43.54155" lon="6.57482">
        <ele>198.3</ele>
        <time>2025-10-28T10:18:50.000Z</time>
      </trkpt>
      <trkpt lat="43.54151" lon="6.57482">
        <ele>198.2</ele>
        <time>2025-10-28T10:18:51.000Z</time>
      </trkpt>
      <trkpt lat="43.54147" lon="6.57481">
        <ele>198.1</ele>
        <time>2025-10-28T10:18:52.000Z</time>
      </trkpt>
      <trkpt lat="43.54143" lon="6.5748">
        <ele>198</ele>
        <time>2025-10-28T10:18:53.000Z</time>
      </trkpt>
      <trkpt lat="43.54139" lon="6.57479">
        <ele>197.9</ele>
        <time>2025-10-28T10:18:54.000Z</time>
      </trkpt>
      <trkpt lat="43.54136" lon="6.57478">
        <ele>197.9</ele>
        <time>2025-10-28T10:18:55.000Z</time>
      </trkpt>
      <trkpt lat="43.54132" lon="6.57477">
        <ele>197.8</ele>
        <time>2025-10-28T10:18:56.000Z</time>
      </trkpt>
      <trkpt lat="43.54129" lon="6.57476">
        <ele>197.7</ele>
        <time>2025-10-28T10:18:57.000Z</time>
      </trkpt>
      <trkpt lat="43.54125" lon="6.57475">
        <ele>197.6</ele>
        <time>2025-10-28T10:18:58.000Z</time>
      </trkpt>
      <trkpt lat="43.54121" lon="6.57474">
        <ele>197.5</ele>
        <time>2025-10-28T10:18:59.000Z</time>
      </trkpt>
      <trkpt lat="43.54118" lon="6.57473">
        <ele>197.4</ele>
        <time>2025-10-28T10:19:00.000Z</time>
      </trkpt>
      <trkpt lat="43.54114" lon="6.57472">
        <ele>197.3</ele>
        <time>2025-10-28T10:19:01.000Z</time>
      </trkpt>
      <trkpt lat="43.54111" lon="6.57471">
        <ele>197.2</ele>
        <time>2025-10-28T10:19:02.000Z</time>
      </trkpt>
      <trkpt lat="43.54108" lon="6.5747">
        <ele>197.1</ele>
        <time>2025-10-28T10:19:03.000Z</time>
      </trkpt>
      <trkpt lat="43.54105" lon="6.57468">
        <ele>197</ele>
        <time>2025-10-28T10:19:04.000Z</time>
      </trkpt>
      <trkpt lat="43.54102" lon="6.57465">
        <ele>196.9</ele>
        <time>2025-10-28T10:19:05.000Z</time>
      </trkpt>
      <trkpt lat="43.541" lon="6.57461">
        <ele>196.8</ele>
        <time>2025-10-28T10:19:06.000Z</time>
      </trkpt>
      <trkpt lat="43.54098" lon="6.57457">
        <ele>196.7</ele>
        <time>2025-10-28T10:19:07.000Z</time>
      </trkpt>
      <trkpt lat="43.54095" lon="6.57453">
        <ele>196.6</ele>
        <time>2025-10-28T10:19:08.000Z</time>
      </trkpt>
      <trkpt lat="43.54092" lon="6.5745">
        <ele>196.5</ele>
        <time>2025-10-28T10:19:09.000Z</time>
      </trkpt>
      <trkpt lat="43.54089" lon="6.57447">
        <ele>196.3</ele>
        <time>2025-10-28T10:19:10.000Z</time>
      </trkpt>
      <trkpt lat="43.54085" lon="6.57445">
        <ele>196.2</ele>
        <time>2025-10-28T10:19:11.000Z</time>
      </trkpt>
      <trkpt lat="43.54081" lon="6.57444">
        <ele>195.9</ele>
        <time>2025-10-28T10:19:12.000Z</time>
      </trkpt>
      <trkpt lat="43.54078" lon="6.57442">
        <ele>195.7</ele>
        <time>2025-10-28T10:19:13.000Z</time>
      </trkpt>
      <trkpt lat="43.54074" lon="6.57441">
        <ele>195.5</ele>
        <time>2025-10-28T10:19:14.000Z</time>
      </trkpt>
      <trkpt lat="43.5407" lon="6.57439">
        <ele>195.3</ele>
        <time>2025-10-28T10:19:15.000Z</time>
      </trkpt>
      <trkpt lat="43.54067" lon="6.57436">
        <ele>195.2</ele>
        <time>2025-10-28T10:19:16.000Z</time>
      </trkpt>
      <trkpt lat="43.54063" lon="6.57433">
        <ele>195.1</ele>
        <time>2025-10-28T10:19:17.000Z</time>
      </trkpt>
      <trkpt lat="43.54061" lon="6.57429">
        <ele>194.8</ele>
        <time>2025-10-28T10:19:18.000Z</time>
      </trkpt>
      <trkpt lat="43.54058" lon="6.57425">
        <ele>194.4</ele>
        <time>2025-10-28T10:19:19.000Z</time>
      </trkpt>
      <trkpt lat="43.54057" lon="6.57421">
        <ele>194.4</ele>
        <time>2025-10-28T10:19:20.000Z</time>
      </trkpt>
      <trkpt lat="43.54055" lon="6.57416">
        <ele>194.2</ele>
        <time>2025-10-28T10:19:21.000Z</time>
      </trkpt>
      <trkpt lat="43.54054" lon="6.57411">
        <ele>194.5</ele>
        <time>2025-10-28T10:19:22.000Z</time>
      </trkpt>
      <trkpt lat="43.54052" lon="6.57407">
        <ele>194.6</ele>
        <time>2025-10-28T10:19:23.000Z</time>
      </trkpt>
      <trkpt lat="43.54051" lon="6.57402">
        <ele>194.5</ele>
        <time>2025-10-28T10:19:24.000Z</time>
      </trkpt>
      <trkpt lat="43.54049" lon="6.57398">
        <ele>194.8</ele>
        <time>2025-10-28T10:19:25.000Z</time>
      </trkpt>
      <trkpt lat="43.54047" lon="6.57394">
        <ele>194.8</ele>
        <time>2025-10-28T10:19:26.000Z</time>
      </trkpt>
      <trkpt lat="43.54045" lon="6.57391">
        <ele>194.5</ele>
        <time>2025-10-28T10:19:27.000Z</time>
      </trkpt>
      <trkpt lat="43.54043" lon="6.57388">
        <ele>194.8</ele>
        <time>2025-10-28T10:19:28.000Z</time>
      </trkpt>
      <trkpt lat="43.54042" lon="6.57384">
        <ele>194.9</ele>
        <time>2025-10-28T10:19:29.000Z</time>
      </trkpt>
      <trkpt lat="43.54039" lon="6.57381">
        <ele>195</ele>
        <time>2025-10-28T10:19:30.000Z</time>
      </trkpt>
      <trkpt lat="43.54037" lon="6.57377">
        <ele>195.4</ele>
        <time>2025-10-28T10:19:31.000Z</time>
      </trkpt>
      <trkpt lat="43.54035" lon="6.57374">
        <ele>195.1</ele>
        <time>2025-10-28T10:19:32.000Z</time>
      </trkpt>
      <trkpt lat="43.54033" lon="6.5737">
        <ele>195.2</ele>
        <time>2025-10-28T10:19:33.000Z</time>
      </trkpt>
      <trkpt lat="43.54031" lon="6.57367">
        <ele>195.6</ele>
        <time>2025-10-28T10:19:34.000Z</time>
      </trkpt>
      <trkpt lat="43.54029" lon="6.57364">
        <ele>195.7</ele>
        <time>2025-10-28T10:19:35.000Z</time>
      </trkpt>
      <trkpt lat="43.54028" lon="6.5736">
        <ele>196.1</ele>
        <time>2025-10-28T10:19:36.000Z</time>
      </trkpt>
      <trkpt lat="43.54026" lon="6.57356">
        <ele>195.7</ele>
        <time>2025-10-28T10:19:37.000Z</time>
      </trkpt>
      <trkpt lat="43.54024" lon="6.57352">
        <ele>195.8</ele>
        <time>2025-10-28T10:19:38.000Z</time>
      </trkpt>
      <trkpt lat="43.54022" lon="6.57348">
        <ele>196.3</ele>
        <time>2025-10-28T10:19:39.000Z</time>
      </trkpt>
      <trkpt lat="43.5402" lon="6.57344">
        <ele>196.4</ele>
        <time>2025-10-28T10:19:40.000Z</time>
      </trkpt>
      <trkpt lat="43.54018" lon="6.5734">
        <ele>196.8</ele>
        <time>2025-10-28T10:19:41.000Z</time>
      </trkpt>
      <trkpt lat="43.54017" lon="6.57336">
        <ele>197</ele>
        <time>2025-10-28T10:19:42.000Z</time>
      </trkpt>
      <trkpt lat="43.54015" lon="6.57332">
        <ele>197.1</ele>
        <time>2025-10-28T10:19:43.000Z</time>
      </trkpt>
      <trkpt lat="43.54013" lon="6.57328">
        <ele>197.6</ele>
        <time>2025-10-28T10:19:44.000Z</time>
      </trkpt>
      <trkpt lat="43.54011" lon="6.57324">
        <ele>197.8</ele>
        <time>2025-10-28T10:19:45.000Z</time>
      </trkpt>
      <trkpt lat="43.54009" lon="6.5732">
        <ele>198.4</ele>
        <time>2025-10-28T10:19:46.000Z</time>
      </trkpt>
      <trkpt lat="43.54008" lon="6.57316">
        <ele>198.6</ele>
        <time>2025-10-28T10:19:47.000Z</time>
      </trkpt>
      <trkpt lat="43.54006" lon="6.57312">
        <ele>198.8</ele>
        <time>2025-10-28T10:19:48.000Z</time>
      </trkpt>
      <trkpt lat="43.54004" lon="6.57308">
        <ele>199.4</ele>
        <time>2025-10-28T10:19:49.000Z</time>
      </trkpt>
      <trkpt lat="43.54002" lon="6.57304">
        <ele>199.5</ele>
        <time>2025-10-28T10:19:50.000Z</time>
      </trkpt>
      <trkpt lat="43.54" lon="6.57301">
        <ele>199.5</ele>
        <time>2025-10-28T10:19:51.000Z</time>
      </trkpt>
      <trkpt lat="43.53998" lon="6.57299">
        <ele>199.6</ele>
        <time>2025-10-28T10:19:52.000Z</time>
      </trkpt>
      <trkpt lat="43.53996" lon="6.57296">
        <ele>199.1</ele>
        <time>2025-10-28T10:19:53.000Z</time>
      </trkpt>
      <trkpt lat="43.53995" lon="6.57293">
        <ele>199.7</ele>
        <time>2025-10-28T10:19:54.000Z</time>
      </trkpt>
      <trkpt lat="43.53994" lon="6.5729">
        <ele>200.2</ele>
        <time>2025-10-28T10:19:55.000Z</time>
      </trkpt>
      <trkpt lat="43.53992" lon="6.57287">
        <ele>200.3</ele>
        <time>2025-10-28T10:19:56.000Z</time>
      </trkpt>
      <trkpt lat="43.53991" lon="6.57284">
        <ele>200.3</ele>
        <time>2025-10-28T10:19:57.000Z</time>
      </trkpt>
      <trkpt lat="43.53989" lon="6.57281">
        <ele>200.5</ele>
        <time>2025-10-28T10:19:58.000Z</time>
      </trkpt>
      <trkpt lat="43.53987" lon="6.57278">
        <ele>201.1</ele>
        <time>2025-10-28T10:19:59.000Z</time>
      </trkpt>
      <trkpt lat="43.53985" lon="6.57274">
        <ele>200.7</ele>
        <time>2025-10-28T10:20:00.000Z</time>
      </trkpt>
      <trkpt lat="43.53984" lon="6.57272">
        <ele>200.9</ele>
        <time>2025-10-28T10:20:01.000Z</time>
      </trkpt>
      <trkpt lat="43.53982" lon="6.57269">
        <ele>201.5</ele>
        <time>2025-10-28T10:20:02.000Z</time>
      </trkpt>
      <trkpt lat="43.53981" lon="6.57266">
        <ele>201.6</ele>
        <time>2025-10-28T10:20:03.000Z</time>
      </trkpt>
      <trkpt lat="43.53979" lon="6.57262">
        <ele>201.6</ele>
        <time>2025-10-28T10:20:04.000Z</time>
      </trkpt>
      <trkpt lat="43.53977" lon="6.57259">
        <ele>201.6</ele>
        <time>2025-10-28T10:20:05.000Z</time>
      </trkpt>
      <trkpt lat="43.53976" lon="6.57256">
        <ele>202.1</ele>
        <time>2025-10-28T10:20:06.000Z</time>
      </trkpt>
      <trkpt lat="43.53974" lon="6.57253">
        <ele>202</ele>
        <time>2025-10-28T10:20:07.000Z</time>
      </trkpt>
      <trkpt lat="43.53973" lon="6.57249">
        <ele>201.9</ele>
        <time>2025-10-28T10:20:08.000Z</time>
      </trkpt>
      <trkpt lat="43.53971" lon="6.57246">
        <ele>201.8</ele>
        <time>2025-10-28T10:20:09.000Z</time>
      </trkpt>
      <trkpt lat="43.53969" lon="6.57243">
        <ele>202.2</ele>
        <time>2025-10-28T10:20:10.000Z</time>
      </trkpt>
      <trkpt lat="43.53967" lon="6.5724">
        <ele>202.1</ele>
        <time>2025-10-28T10:20:11.000Z</time>
      </trkpt>
      <trkpt lat="43.53966" lon="6.57236">
        <ele>202.1</ele>
        <time>2025-10-28T10:20:12.000Z</time>
      </trkpt>
      <trkpt lat="43.53964" lon="6.57233">
        <ele>202</ele>
        <time>2025-10-28T10:20:13.000Z</time>
      </trkpt>
      <trkpt lat="43.53962" lon="6.5723">
        <ele>201.9</ele>
        <time>2025-10-28T10:20:14.000Z</time>
      </trkpt>
      <trkpt lat="43.5396" lon="6.57227">
        <ele>202.4</ele>
        <time>2025-10-28T10:20:15.000Z</time>
      </trkpt>
      <trkpt lat="43.53958" lon="6.57223">
        <ele>201.9</ele>
        <time>2025-10-28T10:20:16.000Z</time>
      </trkpt>
      <trkpt lat="43.53957" lon="6.5722">
        <ele>202.3</ele>
        <time>2025-10-28T10:20:17.000Z</time>
      </trkpt>
      <trkpt lat="43.53955" lon="6.57216">
        <ele>202.1</ele>
        <time>2025-10-28T10:20:18.000Z</time>
      </trkpt>
      <trkpt lat="43.53953" lon="6.57212">
        <ele>202.5</ele>
        <time>2025-10-28T10:20:19.000Z</time>
      </trkpt>
      <trkpt lat="43.53952" lon="6.57208">
        <ele>202.2</ele>
        <time>2025-10-28T10:20:20.000Z</time>
      </trkpt>
      <trkpt lat="43.5395" lon="6.57205">
        <ele>202.5</ele>
        <time>2025-10-28T10:20:21.000Z</time>
      </trkpt>
      <trkpt lat="43.53948" lon="6.57201">
        <ele>202.1</ele>
        <time>2025-10-28T10:20:22.000Z</time>
      </trkpt>
      <trkpt lat="43.53946" lon="6.57197">
        <ele>201.4</ele>
        <time>2025-10-28T10:20:23.000Z</time>
      </trkpt>
      <trkpt lat="43.53943" lon="6.57194">
        <ele>201</ele>
        <time>2025-10-28T10:20:24.000Z</time>
      </trkpt>
      <trkpt lat="43.53941" lon="6.57191">
        <ele>201.2</ele>
        <time>2025-10-28T10:20:25.000Z</time>
      </trkpt>
      <trkpt lat="43.53939" lon="6.57187">
        <ele>200.9</ele>
        <time>2025-10-28T10:20:26.000Z</time>
      </trkpt>
      <trkpt lat="43.53937" lon="6.57183">
        <ele>200.5</ele>
        <time>2025-10-28T10:20:27.000Z</time>
      </trkpt>
      <trkpt lat="43.53935" lon="6.57179">
        <ele>200.7</ele>
        <time>2025-10-28T10:20:28.000Z</time>
      </trkpt>
      <trkpt lat="43.53933" lon="6.57175">
        <ele>200.3</ele>
        <time>2025-10-28T10:20:29.000Z</time>
      </trkpt>
      <trkpt lat="43.53931" lon="6.57173">
        <ele>200.5</ele>
        <time>2025-10-28T10:20:30.000Z</time>
      </trkpt>
      <trkpt lat="43.53929" lon="6.5717">
        <ele>200.7</ele>
        <time>2025-10-28T10:20:31.000Z</time>
      </trkpt>
      <trkpt lat="43.53927" lon="6.57168">
        <ele>200.9</ele>
        <time>2025-10-28T10:20:32.000Z</time>
      </trkpt>
      <trkpt lat="43.53925" lon="6.57166">
        <ele>201.1</ele>
        <time>2025-10-28T10:20:33.000Z</time>
      </trkpt>
      <trkpt lat="43.53924" lon="6.57163">
        <ele>201.2</ele>
        <time>2025-10-28T10:20:34.000Z</time>
      </trkpt>
      <trkpt lat="43.53922" lon="6.57161">
        <ele>201.4</ele>
        <time>2025-10-28T10:20:35.000Z</time>
      </trkpt>
      <trkpt lat="43.53921" lon="6.57159">
        <ele>201.6</ele>
        <time>2025-10-28T10:20:36.000Z</time>
      </trkpt>
      <trkpt lat="43.5392" lon="6.57157">
        <ele>201.7</ele>
        <time>2025-10-28T10:20:37.000Z</time>
      </trkpt>
      <trkpt lat="43.53919" lon="6.57154">
        <ele>201.9</ele>
        <time>2025-10-28T10:20:38.000Z</time>
      </trkpt>
      <trkpt lat="43.53918" lon="6.57152">
        <ele>202.1</ele>
        <time>2025-10-28T10:20:39.000Z</time>
      </trkpt>
      <trkpt lat="43.53917" lon="6.57149">
        <ele>202.3</ele>
        <time>2025-10-28T10:20:40.000Z</time>
      </trkpt>
      <trkpt lat="43.53917" lon="6.57146">
        <ele>202.5</ele>
        <time>2025-10-28T10:20:41.000Z</time>
      </trkpt>
      <trkpt lat="43.53917" lon="6.57143">
        <ele>202.6</ele>
        <time>2025-10-28T10:20:42.000Z</time>
      </trkpt>
      <trkpt lat="43.53918" lon="6.57141">
        <ele>202.8</ele>
        <time>2025-10-28T10:20:43.000Z</time>
      </trkpt>
      <trkpt lat="43.53918" lon="6.57138">
        <ele>203</ele>
        <time>2025-10-28T10:20:44.000Z</time>
      </trkpt>
      <trkpt lat="43.53918" lon="6.57136">
        <ele>203.2</ele>
        <time>2025-10-28T10:20:45.000Z</time>
      </trkpt>
      <trkpt lat="43.53919" lon="6.57133">
        <ele>203.4</ele>
        <time>2025-10-28T10:20:46.000Z</time>
      </trkpt>
      <trkpt lat="43.5392" lon="6.57131">
        <ele>203.6</ele>
        <time>2025-10-28T10:20:47.000Z</time>
      </trkpt>
      <trkpt lat="43.5392" lon="6.57127">
        <ele>203.8</ele>
        <time>2025-10-28T10:20:48.000Z</time>
      </trkpt>
      <trkpt lat="43.53921" lon="6.57124">
        <ele>204.1</ele>
        <time>2025-10-28T10:20:49.000Z</time>
      </trkpt>
      <trkpt lat="43.53922" lon="6.5712">
        <ele>204.4</ele>
        <time>2025-10-28T10:20:50.000Z</time>
      </trkpt>
      <trkpt lat="43.53923" lon="6.57116">
        <ele>204.7</ele>
        <time>2025-10-28T10:20:51.000Z</time>
      </trkpt>
      <trkpt lat="43.53924" lon="6.57112">
        <ele>205</ele>
        <time>2025-10-28T10:20:52.000Z</time>
      </trkpt>
      <trkpt lat="43.53924" lon="6.57108">
        <ele>205.4</ele>
        <time>2025-10-28T10:20:53.000Z</time>
      </trkpt>
      <trkpt lat="43.53925" lon="6.57104">
        <ele>205.7</ele>
        <time>2025-10-28T10:20:54.000Z</time>
      </trkpt>
      <trkpt lat="43.53926" lon="6.571">
        <ele>206</ele>
        <time>2025-10-28T10:20:55.000Z</time>
      </trkpt>
      <trkpt lat="43.53927" lon="6.57096">
        <ele>206.4</ele>
        <time>2025-10-28T10:20:56.000Z</time>
      </trkpt>
      <trkpt lat="43.53927" lon="6.57092">
        <ele>206.8</ele>
        <time>2025-10-28T10:20:57.000Z</time>
      </trkpt>
      <trkpt lat="43.53928" lon="6.57088">
        <ele>207.1</ele>
        <time>2025-10-28T10:20:58.000Z</time>
      </trkpt>
      <trkpt lat="43.53929" lon="6.57084">
        <ele>207.5</ele>
        <time>2025-10-28T10:20:59.000Z</time>
      </trkpt>
      <trkpt lat="43.53929" lon="6.5708">
        <ele>207.8</ele>
        <time>2025-10-28T10:21:00.000Z</time>
      </trkpt>
      <trkpt lat="43.5393" lon="6.57076">
        <ele>208.2</ele>
        <time>2025-10-28T10:21:01.000Z</time>
      </trkpt>
      <trkpt lat="43.53931" lon="6.57072">
        <ele>208.6</ele>
        <time>2025-10-28T10:21:02.000Z</time>
      </trkpt>
      <trkpt lat="43.53931" lon="6.57069">
        <ele>208.9</ele>
        <time>2025-10-28T10:21:03.000Z</time>
      </trkpt>
      <trkpt lat="43.53932" lon="6.57065">
        <ele>209.3</ele>
        <time>2025-10-28T10:21:04.000Z</time>
      </trkpt>
      <trkpt lat="43.53932" lon="6.57061">
        <ele>209.6</ele>
        <time>2025-10-28T10:21:05.000Z</time>
      </trkpt>
      <trkpt lat="43.53933" lon="6.57058">
        <ele>209.9</ele>
        <time>2025-10-28T10:21:06.000Z</time>
      </trkpt>
      <trkpt lat="43.53934" lon="6.57054">
        <ele>210.2</ele>
        <time>2025-10-28T10:21:07.000Z</time>
      </trkpt>
      <trkpt lat="43.53934" lon="6.57051">
        <ele>210.4</ele>
        <time>2025-10-28T10:21:08.000Z</time>
      </trkpt>
      <trkpt lat="43.53935" lon="6.57047">
        <ele>210.7</ele>
        <time>2025-10-28T10:21:09.000Z</time>
      </trkpt>
      <trkpt lat="43.53936" lon="6.57043">
        <ele>211</ele>
        <time>2025-10-28T10:21:10.000Z</time>
      </trkpt>
      <trkpt lat="43.53938" lon="6.5704">
        <ele>211.3</ele>
        <time>2025-10-28T10:21:11.000Z</time>
      </trkpt>
      <trkpt lat="43.53939" lon="6.57036">
        <ele>211.6</ele>
        <time>2025-10-28T10:21:12.000Z</time>
      </trkpt>
      <trkpt lat="43.53941" lon="6.57032">
        <ele>211.9</ele>
        <time>2025-10-28T10:21:13.000Z</time>
      </trkpt>
      <trkpt lat="43.53942" lon="6.57029">
        <ele>212.2</ele>
        <time>2025-10-28T10:21:14.000Z</time>
      </trkpt>
      <trkpt lat="43.53943" lon="6.57025">
        <ele>212.5</ele>
        <time>2025-10-28T10:21:15.000Z</time>
      </trkpt>
      <trkpt lat="43.53945" lon="6.57021">
        <ele>212.8</ele>
        <time>2025-10-28T10:21:16.000Z</time>
      </trkpt>
      <trkpt lat="43.53946" lon="6.57018">
        <ele>213.1</ele>
        <time>2025-10-28T10:21:17.000Z</time>
      </trkpt>
      <trkpt lat="43.53947" lon="6.57014">
        <ele>213.5</ele>
        <time>2025-10-28T10:21:18.000Z</time>
      </trkpt>
      <trkpt lat="43.53949" lon="6.57011">
        <ele>213.8</ele>
        <time>2025-10-28T10:21:19.000Z</time>
      </trkpt>
      <trkpt lat="43.5395" lon="6.57007">
        <ele>214.1</ele>
        <time>2025-10-28T10:21:20.000Z</time>
      </trkpt>
      <trkpt lat="43.53951" lon="6.57005">
        <ele>214.3</ele>
        <time>2025-10-28T10:21:21.000Z</time>
      </trkpt>
      <trkpt lat="43.53953" lon="6.57001">
        <ele>214.6</ele>
        <time>2025-10-28T10:21:22.000Z</time>
      </trkpt>
      <trkpt lat="43.53954" lon="6.56998">
        <ele>214.9</ele>
        <time>2025-10-28T10:21:23.000Z</time>
      </trkpt>
      <trkpt lat="43.53956" lon="6.56994">
        <ele>215.2</ele>
        <time>2025-10-28T10:21:24.000Z</time>
      </trkpt>
      <trkpt lat="43.53957" lon="6.56991">
        <ele>215.5</ele>
        <time>2025-10-28T10:21:25.000Z</time>
      </trkpt>
      <trkpt lat="43.53959" lon="6.56987">
        <ele>215.8</ele>
        <time>2025-10-28T10:21:26.000Z</time>
      </trkpt>
      <trkpt lat="43.5396" lon="6.56984">
        <ele>216.1</ele>
        <time>2025-10-28T10:21:27.000Z</time>
      </trkpt>
      <trkpt lat="43.53962" lon="6.5698">
        <ele>216.3</ele>
        <time>2025-10-28T10:21:28.000Z</time>
      </trkpt>
      <trkpt lat="43.53963" lon="6.56977">
        <ele>216.6</ele>
        <time>2025-10-28T10:21:29.000Z</time>
      </trkpt>
      <trkpt lat="43.53965" lon="6.56973">
        <ele>216.9</ele>
        <time>2025-10-28T10:21:30.000Z</time>
      </trkpt>
      <trkpt lat="43.53966" lon="6.5697">
        <ele>217.2</ele>
        <time>2025-10-28T10:21:31.000Z</time>
      </trkpt>
      <trkpt lat="43.53968" lon="6.56966">
        <ele>217.5</ele>
        <time>2025-10-28T10:21:32.000Z</time>
      </trkpt>
      <trkpt lat="43.53969" lon="6.56963">
        <ele>217.7</ele>
        <time>2025-10-28T10:21:33.000Z</time>
      </trkpt>
      <trkpt lat="43.53971" lon="6.5696">
        <ele>218</ele>
        <time>2025-10-28T10:21:34.000Z</time>
      </trkpt>
      <trkpt lat="43.53973" lon="6.56956">
        <ele>218.3</ele>
        <time>2025-10-28T10:21:35.000Z</time>
      </trkpt>
      <trkpt lat="43.53974" lon="6.56953">
        <ele>218.6</ele>
        <time>2025-10-28T10:21:36.000Z</time>
      </trkpt>
      <trkpt lat="43.53975" lon="6.56949">
        <ele>218.8</ele>
        <time>2025-10-28T10:21:37.000Z</time>
      </trkpt>
      <trkpt lat="43.53976" lon="6.56945">
        <ele>219.1</ele>
        <time>2025-10-28T10:21:38.000Z</time>
      </trkpt>
      <trkpt lat="43.53978" lon="6.56941">
        <ele>219.4</ele>
        <time>2025-10-28T10:21:39.000Z</time>
      </trkpt>
      <trkpt lat="43.53979" lon="6.56938">
        <ele>219.7</ele>
        <time>2025-10-28T10:21:40.000Z</time>
      </trkpt>
      <trkpt lat="43.5398" lon="6.56934">
        <ele>219.9</ele>
        <time>2025-10-28T10:21:41.000Z</time>
      </trkpt>
      <trkpt lat="43.53981" lon="6.5693">
        <ele>220.2</ele>
        <time>2025-10-28T10:21:42.000Z</time>
      </trkpt>
      <trkpt lat="43.53983" lon="6.56926">
        <ele>220.5</ele>
        <time>2025-10-28T10:21:43.000Z</time>
      </trkpt>
      <trkpt lat="43.53984" lon="6.56923">
        <ele>220.8</ele>
        <time>2025-10-28T10:21:44.000Z</time>
      </trkpt>
      <trkpt lat="43.53985" lon="6.56919">
        <ele>221.1</ele>
        <time>2025-10-28T10:21:45.000Z</time>
      </trkpt>
      <trkpt lat="43.53987" lon="6.56915">
        <ele>221.3</ele>
        <time>2025-10-28T10:21:46.000Z</time>
      </trkpt>
      <trkpt lat="43.53988" lon="6.56912">
        <ele>221.6</ele>
        <time>2025-10-28T10:21:47.000Z</time>
      </trkpt>
      <trkpt lat="43.5399" lon="6.56909">
        <ele>221.9</ele>
        <time>2025-10-28T10:21:48.000Z</time>
      </trkpt>
      <trkpt lat="43.53992" lon="6.56905">
        <ele>222.2</ele>
        <time>2025-10-28T10:21:49.000Z</time>
      </trkpt>
      <trkpt lat="43.53993" lon="6.56902">
        <ele>222.4</ele>
        <time>2025-10-28T10:21:50.000Z</time>
      </trkpt>
      <trkpt lat="43.53995" lon="6.56898">
        <ele>222.7</ele>
        <time>2025-10-28T10:21:51.000Z</time>
      </trkpt>
      <trkpt lat="43.53996" lon="6.56895">
        <ele>223</ele>
        <time>2025-10-28T10:21:52.000Z</time>
      </trkpt>
      <trkpt lat="43.53998" lon="6.56891">
        <ele>223.2</ele>
        <time>2025-10-28T10:21:53.000Z</time>
      </trkpt>
      <trkpt lat="43.54" lon="6.56887">
        <ele>223.5</ele>
        <time>2025-10-28T10:21:54.000Z</time>
      </trkpt>
      <trkpt lat="43.54001" lon="6.56884">
        <ele>223.7</ele>
        <time>2025-10-28T10:21:55.000Z</time>
      </trkpt>
      <trkpt lat="43.54003" lon="6.56881">
        <ele>224</ele>
        <time>2025-10-28T10:21:56.000Z</time>
      </trkpt>
      <trkpt lat="43.54005" lon="6.56877">
        <ele>224.2</ele>
        <time>2025-10-28T10:21:57.000Z</time>
      </trkpt>
      <trkpt lat="43.54007" lon="6.56874">
        <ele>224.5</ele>
        <time>2025-10-28T10:21:58.000Z</time>
      </trkpt>
      <trkpt lat="43.54009" lon="6.56871">
        <ele>224.7</ele>
        <time>2025-10-28T10:21:59.000Z</time>
      </trkpt>
      <trkpt lat="43.54011" lon="6.56867">
        <ele>225</ele>
        <time>2025-10-28T10:22:00.000Z</time>
      </trkpt>
      <trkpt lat="43.54013" lon="6.56865">
        <ele>225.2</ele>
        <time>2025-10-28T10:22:01.000Z</time>
      </trkpt>
      <trkpt lat="43.54016" lon="6.56862">
        <ele>225.5</ele>
        <time>2025-10-28T10:22:02.000Z</time>
      </trkpt>
      <trkpt lat="43.54018" lon="6.56859">
        <ele>225.7</ele>
        <time>2025-10-28T10:22:03.000Z</time>
      </trkpt>
      <trkpt lat="43.54021" lon="6.56856">
        <ele>226</ele>
        <time>2025-10-28T10:22:04.000Z</time>
      </trkpt>
      <trkpt lat="43.54024" lon="6.56854">
        <ele>226.3</ele>
        <time>2025-10-28T10:22:05.000Z</time>
      </trkpt>
      <trkpt lat="43.54026" lon="6.56851">
        <ele>226.5</ele>
        <time>2025-10-28T10:22:06.000Z</time>
      </trkpt>
      <trkpt lat="43.54029" lon="6.56849">
        <ele>226.8</ele>
        <time>2025-10-28T10:22:07.000Z</time>
      </trkpt>
      <trkpt lat="43.54031" lon="6.56846">
        <ele>227.1</ele>
        <time>2025-10-28T10:22:08.000Z</time>
      </trkpt>
      <trkpt lat="43.54034" lon="6.56843">
        <ele>227.3</ele>
        <time>2025-10-28T10:22:09.000Z</time>
      </trkpt>
      <trkpt lat="43.54036" lon="6.5684">
        <ele>227.6</ele>
        <time>2025-10-28T10:22:10.000Z</time>
      </trkpt>
      <trkpt lat="43.54038" lon="6.56837">
        <ele>227.8</ele>
        <time>2025-10-28T10:22:11.000Z</time>
      </trkpt>
      <trkpt lat="43.5404" lon="6.56834">
        <ele>228</ele>
        <time>2025-10-28T10:22:12.000Z</time>
      </trkpt>
      <trkpt lat="43.54042" lon="6.5683">
        <ele>228.3</ele>
        <time>2025-10-28T10:22:13.000Z</time>
      </trkpt>
      <trkpt lat="43.54044" lon="6.56827">
        <ele>228.5</ele>
        <time>2025-10-28T10:22:14.000Z</time>
      </trkpt>
      <trkpt lat="43.54045" lon="6.56824">
        <ele>228.7</ele>
        <time>2025-10-28T10:22:15.000Z</time>
      </trkpt>
      <trkpt lat="43.54047" lon="6.5682">
        <ele>228.9</ele>
        <time>2025-10-28T10:22:16.000Z</time>
      </trkpt>
      <trkpt lat="43.54048" lon="6.56817">
        <ele>229.1</ele>
        <time>2025-10-28T10:22:17.000Z</time>
      </trkpt>
      <trkpt lat="43.5405" lon="6.56813">
        <ele>229.3</ele>
        <time>2025-10-28T10:22:18.000Z</time>
      </trkpt>
      <trkpt lat="43.54051" lon="6.5681">
        <ele>229.5</ele>
        <time>2025-10-28T10:22:19.000Z</time>
      </trkpt>
      <trkpt lat="43.54053" lon="6.56807">
        <ele>229.7</ele>
        <time>2025-10-28T10:22:20.000Z</time>
      </trkpt>
      <trkpt lat="43.54054" lon="6.56802">
        <ele>230</ele>
        <time>2025-10-28T10:22:21.000Z</time>
      </trkpt>
      <trkpt lat="43.54056" lon="6.56799">
        <ele>230.2</ele>
        <time>2025-10-28T10:22:22.000Z</time>
      </trkpt>
      <trkpt lat="43.54057" lon="6.56795">
        <ele>230.5</ele>
        <time>2025-10-28T10:22:23.000Z</time>
      </trkpt>
      <trkpt lat="43.54059" lon="6.56791">
        <ele>230.7</ele>
        <time>2025-10-28T10:22:24.000Z</time>
      </trkpt>
      <trkpt lat="43.54061" lon="6.56788">
        <ele>230.9</ele>
        <time>2025-10-28T10:22:25.000Z</time>
      </trkpt>
      <trkpt lat="43.54062" lon="6.56784">
        <ele>231.2</ele>
        <time>2025-10-28T10:22:26.000Z</time>
      </trkpt>
      <trkpt lat="43.54064" lon="6.56781">
        <ele>231.4</ele>
        <time>2025-10-28T10:22:27.000Z</time>
      </trkpt>
      <trkpt lat="43.54066" lon="6.56777">
        <ele>231.7</ele>
        <time>2025-10-28T10:22:28.000Z</time>
      </trkpt>
      <trkpt lat="43.54067" lon="6.56774">
        <ele>232</ele>
        <time>2025-10-28T10:22:29.000Z</time>
      </trkpt>
      <trkpt lat="43.54069" lon="6.5677">
        <ele>232.2</ele>
        <time>2025-10-28T10:22:30.000Z</time>
      </trkpt>
      <trkpt lat="43.54071" lon="6.56767">
        <ele>232.5</ele>
        <time>2025-10-28T10:22:31.000Z</time>
      </trkpt>
      <trkpt lat="43.54072" lon="6.56763">
        <ele>232.8</ele>
        <time>2025-10-28T10:22:32.000Z</time>
      </trkpt>
      <trkpt lat="43.54074" lon="6.56759">
        <ele>233.1</ele>
        <time>2025-10-28T10:22:33.000Z</time>
      </trkpt>
      <trkpt lat="43.54075" lon="6.56756">
        <ele>233.4</ele>
        <time>2025-10-28T10:22:34.000Z</time>
      </trkpt>
      <trkpt lat="43.54077" lon="6.56752">
        <ele>233.8</ele>
        <time>2025-10-28T10:22:35.000Z</time>
      </trkpt>
      <trkpt lat="43.54079" lon="6.56748">
        <ele>234.1</ele>
        <time>2025-10-28T10:22:36.000Z</time>
      </trkpt>
      <trkpt lat="43.5408" lon="6.56745">
        <ele>234.5</ele>
        <time>2025-10-28T10:22:37.000Z</time>
      </trkpt>
      <trkpt lat="43.54082" lon="6.56742">
        <ele>234.8</ele>
        <time>2025-10-28T10:22:38.000Z</time>
      </trkpt>
      <trkpt lat="43.54083" lon="6.56738">
        <ele>235.1</ele>
        <time>2025-10-28T10:22:39.000Z</time>
      </trkpt>
      <trkpt lat="43.54085" lon="6.56735">
        <ele>235.5</ele>
        <time>2025-10-28T10:22:40.000Z</time>
      </trkpt>
      <trkpt lat="43.54086" lon="6.56731">
        <ele>235.8</ele>
        <time>2025-10-28T10:22:41.000Z</time>
      </trkpt>
      <trkpt lat="43.54087" lon="6.56728">
        <ele>236.1</ele>
        <time>2025-10-28T10:22:42.000Z</time>
      </trkpt>
      <trkpt lat="43.54088" lon="6.56724">
        <ele>236.5</ele>
        <time>2025-10-28T10:22:43.000Z</time>
      </trkpt>
      <trkpt lat="43.54088" lon="6.56721">
        <ele>236.8</ele>
        <time>2025-10-28T10:22:44.000Z</time>
      </trkpt>
      <trkpt lat="43.54088" lon="6.56717">
        <ele>237.1</ele>
        <time>2025-10-28T10:22:45.000Z</time>
      </trkpt>
      <trkpt lat="43.54088" lon="6.56713">
        <ele>237.4</ele>
        <time>2025-10-28T10:22:46.000Z</time>
      </trkpt>
      <trkpt lat="43.54087" lon="6.5671">
        <ele>237.7</ele>
        <time>2025-10-28T10:22:47.000Z</time>
      </trkpt>
      <trkpt lat="43.54087" lon="6.56706">
        <ele>238</ele>
        <time>2025-10-28T10:22:48.000Z</time>
      </trkpt>
      <trkpt lat="43.54087" lon="6.56703">
        <ele>238.4</ele>
        <time>2025-10-28T10:22:49.000Z</time>
      </trkpt>
      <trkpt lat="43.54086" lon="6.56699">
        <ele>238.7</ele>
        <time>2025-10-28T10:22:50.000Z</time>
      </trkpt>
      <trkpt lat="43.54085" lon="6.56696">
        <ele>239.1</ele>
        <time>2025-10-28T10:22:51.000Z</time>
      </trkpt>
      <trkpt lat="43.54084" lon="6.56693">
        <ele>239.4</ele>
        <time>2025-10-28T10:22:52.000Z</time>
      </trkpt>
      <trkpt lat="43.54082" lon="6.5669">
        <ele>239.8</ele>
        <time>2025-10-28T10:22:53.000Z</time>
      </trkpt>
      <trkpt lat="43.54081" lon="6.56688">
        <ele>240.1</ele>
        <time>2025-10-28T10:22:54.000Z</time>
      </trkpt>
      <trkpt lat="43.54079" lon="6.56685">
        <ele>240.5</ele>
        <time>2025-10-28T10:22:55.000Z</time>
      </trkpt>
      <trkpt lat="43.54078" lon="6.56682">
        <ele>240.8</ele>
        <time>2025-10-28T10:22:56.000Z</time>
      </trkpt>
      <trkpt lat="43.54076" lon="6.56679">
        <ele>241.2</ele>
        <time>2025-10-28T10:22:57.000Z</time>
      </trkpt>
      <trkpt lat="43.54075" lon="6.56677">
        <ele>241.5</ele>
        <time>2025-10-28T10:22:58.000Z</time>
      </trkpt>
      <trkpt lat="43.54074" lon="6.56674">
        <ele>241.8</ele>
        <time>2025-10-28T10:22:59.000Z</time>
      </trkpt>
      <trkpt lat="43.54072" lon="6.56671">
        <ele>242.1</ele>
        <time>2025-10-28T10:23:00.000Z</time>
      </trkpt>
      <trkpt lat="43.54071" lon="6.56669">
        <ele>242.4</ele>
        <time>2025-10-28T10:23:01.000Z</time>
      </trkpt>
      <trkpt lat="43.54069" lon="6.56666">
        <ele>242.8</ele>
        <time>2025-10-28T10:23:02.000Z</time>
      </trkpt>
      <trkpt lat="43.54067" lon="6.56664">
        <ele>243.1</ele>
        <time>2025-10-28T10:23:03.000Z</time>
      </trkpt>
      <trkpt lat="43.54065" lon="6.56661">
        <ele>243.4</ele>
        <time>2025-10-28T10:23:04.000Z</time>
      </trkpt>
      <trkpt lat="43.54064" lon="6.56659">
        <ele>243.7</ele>
        <time>2025-10-28T10:23:05.000Z</time>
      </trkpt>
      <trkpt lat="43.54062" lon="6.56657">
        <ele>244</ele>
        <time>2025-10-28T10:23:06.000Z</time>
      </trkpt>
      <trkpt lat="43.5406" lon="6.56654">
        <ele>244.3</ele>
        <time>2025-10-28T10:23:07.000Z</time>
      </trkpt>
      <trkpt lat="43.54058" lon="6.56652">
        <ele>244.6</ele>
        <time>2025-10-28T10:23:08.000Z</time>
      </trkpt>
      <trkpt lat="43.54056" lon="6.5665">
        <ele>244.9</ele>
        <time>2025-10-28T10:23:09.000Z</time>
      </trkpt>
      <trkpt lat="43.54054" lon="6.56648">
        <ele>245.2</ele>
        <time>2025-10-28T10:23:10.000Z</time>
      </trkpt>
      <trkpt lat="43.54052" lon="6.56646">
        <ele>245.5</ele>
        <time>2025-10-28T10:23:11.000Z</time>
      </trkpt>
      <trkpt lat="43.5405" lon="6.56643">
        <ele>245.8</ele>
        <time>2025-10-28T10:23:12.000Z</time>
      </trkpt>
      <trkpt lat="43.54048" lon="6.56641">
        <ele>246.1</ele>
        <time>2025-10-28T10:23:13.000Z</time>
      </trkpt>
      <trkpt lat="43.54046" lon="6.56639">
        <ele>246.3</ele>
        <time>2025-10-28T10:23:14.000Z</time>
      </trkpt>
      <trkpt lat="43.54044" lon="6.56637">
        <ele>246.6</ele>
        <time>2025-10-28T10:23:15.000Z</time>
      </trkpt>
      <trkpt lat="43.54042" lon="6.56635">
        <ele>246.8</ele>
        <time>2025-10-28T10:23:16.000Z</time>
      </trkpt>
      <trkpt lat="43.5404" lon="6.56632">
        <ele>247</ele>
        <time>2025-10-28T10:23:17.000Z</time>
      </trkpt>
      <trkpt lat="43.54038" lon="6.5663">
        <ele>247.3</ele>
        <time>2025-10-28T10:23:18.000Z</time>
      </trkpt>
      <trkpt lat="43.54036" lon="6.56628">
        <ele>247.5</ele>
        <time>2025-10-28T10:23:19.000Z</time>
      </trkpt>
      <trkpt lat="43.54033" lon="6.56626">
        <ele>247.7</ele>
        <time>2025-10-28T10:23:20.000Z</time>
      </trkpt>
      <trkpt lat="43.54031" lon="6.56623">
        <ele>247.9</ele>
        <time>2025-10-28T10:23:21.000Z</time>
      </trkpt>
      <trkpt lat="43.54029" lon="6.56621">
        <ele>248.1</ele>
        <time>2025-10-28T10:23:22.000Z</time>
      </trkpt>
      <trkpt lat="43.54027" lon="6.56619">
        <ele>248.3</ele>
        <time>2025-10-28T10:23:23.000Z</time>
      </trkpt>
      <trkpt lat="43.54025" lon="6.56616">
        <ele>248.5</ele>
        <time>2025-10-28T10:23:24.000Z</time>
      </trkpt>
      <trkpt lat="43.54022" lon="6.56614">
        <ele>248.7</ele>
        <time>2025-10-28T10:23:25.000Z</time>
      </trkpt>
      <trkpt lat="43.5402" lon="6.56612">
        <ele>248.8</ele>
        <time>2025-10-28T10:23:26.000Z</time>
      </trkpt>
      <trkpt lat="43.54018" lon="6.56609">
        <ele>249</ele>
        <time>2025-10-28T10:23:27.000Z</time>
      </trkpt>
      <trkpt lat="43.54015" lon="6.56607">
        <ele>249.1</ele>
        <time>2025-10-28T10:23:28.000Z</time>
      </trkpt>
      <trkpt lat="43.54013" lon="6.56605">
        <ele>249.3</ele>
        <time>2025-10-28T10:23:29.000Z</time>
      </trkpt>
      <trkpt lat="43.54011" lon="6.56602">
        <ele>249.4</ele>
        <time>2025-10-28T10:23:30.000Z</time>
      </trkpt>
      <trkpt lat="43.54008" lon="6.566">
        <ele>249.6</ele>
        <time>2025-10-28T10:23:31.000Z</time>
      </trkpt>
      <trkpt lat="43.54006" lon="6.56597">
        <ele>249.7</ele>
        <time>2025-10-28T10:23:32.000Z</time>
      </trkpt>
      <trkpt lat="43.54003" lon="6.56595">
        <ele>249.9</ele>
        <time>2025-10-28T10:23:33.000Z</time>
      </trkpt>
      <trkpt lat="43.54001" lon="6.56592">
        <ele>250</ele>
        <time>2025-10-28T10:23:34.000Z</time>
      </trkpt>
      <trkpt lat="43.53999" lon="6.5659">
        <ele>250.1</ele>
        <time>2025-10-28T10:23:35.000Z</time>
      </trkpt>
      <trkpt lat="43.53996" lon="6.56587">
        <ele>250.3</ele>
        <time>2025-10-28T10:23:36.000Z</time>
      </trkpt>
      <trkpt lat="43.53993" lon="6.56585">
        <ele>250.4</ele>
        <time>2025-10-28T10:23:37.000Z</time>
      </trkpt>
      <trkpt lat="43.53991" lon="6.56582">
        <ele>250.5</ele>
        <time>2025-10-28T10:23:38.000Z</time>
      </trkpt>
      <trkpt lat="43.53988" lon="6.5658">
        <ele>250.5</ele>
        <time>2025-10-28T10:23:39.000Z</time>
      </trkpt>
      <trkpt lat="43.53986" lon="6.56578">
        <ele>250.6</ele>
        <time>2025-10-28T10:23:40.000Z</time>
      </trkpt>
      <trkpt lat="43.53983" lon="6.56576">
        <ele>250.7</ele>
        <time>2025-10-28T10:23:41.000Z</time>
      </trkpt>
      <trkpt lat="43.53981" lon="6.56573">
        <ele>250.8</ele>
        <time>2025-10-28T10:23:42.000Z</time>
      </trkpt>
      <trkpt lat="43.53978" lon="6.5657">
        <ele>250.9</ele>
        <time>2025-10-28T10:23:43.000Z</time>
      </trkpt>
      <trkpt lat="43.53976" lon="6.56568">
        <ele>250.9</ele>
        <time>2025-10-28T10:23:44.000Z</time>
      </trkpt>
      <trkpt lat="43.53973" lon="6.56565">
        <ele>251</ele>
        <time>2025-10-28T10:23:45.000Z</time>
      </trkpt>
      <trkpt lat="43.5397" lon="6.56562">
        <ele>251.1</ele>
        <time>2025-10-28T10:23:46.000Z</time>
      </trkpt>
      <trkpt lat="43.53968" lon="6.56559">
        <ele>251.1</ele>
        <time>2025-10-28T10:23:47.000Z</time>
      </trkpt>
      <trkpt lat="43.53965" lon="6.56557">
        <ele>251.2</ele>
        <time>2025-10-28T10:23:48.000Z</time>
      </trkpt>
      <trkpt lat="43.53962" lon="6.56554">
        <ele>251.2</ele>
        <time>2025-10-28T10:23:49.000Z</time>
      </trkpt>
      <trkpt lat="43.5396" lon="6.56551">
        <ele>251.3</ele>
        <time>2025-10-28T10:23:50.000Z</time>
      </trkpt>
      <trkpt lat="43.53957" lon="6.56548">
        <ele>251.4</ele>
        <time>2025-10-28T10:23:51.000Z</time>
      </trkpt>
      <trkpt lat="43.53954" lon="6.56545">
        <ele>251.4</ele>
        <time>2025-10-28T10:23:52.000Z</time>
      </trkpt>
      <trkpt lat="43.53952" lon="6.56542">
        <ele>251.5</ele>
        <time>2025-10-28T10:23:53.000Z</time>
      </trkpt>
      <trkpt lat="43.53949" lon="6.56539">
        <ele>251.5</ele>
        <time>2025-10-28T10:23:54.000Z</time>
      </trkpt>
      <trkpt lat="43.53947" lon="6.56536">
        <ele>251.6</ele>
        <time>2025-10-28T10:23:55.000Z</time>
      </trkpt>
      <trkpt lat="43.53944" lon="6.56534">
        <ele>251.7</ele>
        <time>2025-10-28T10:23:56.000Z</time>
      </trkpt>
      <trkpt lat="43.53941" lon="6.56531">
        <ele>251.7</ele>
        <time>2025-10-28T10:23:57.000Z</time>
      </trkpt>
      <trkpt lat="43.53938" lon="6.56528">
        <ele>251.8</ele>
        <time>2025-10-28T10:23:58.000Z</time>
      </trkpt>
      <trkpt lat="43.53935" lon="6.56526">
        <ele>251.8</ele>
        <time>2025-10-28T10:23:59.000Z</time>
      </trkpt>
      <trkpt lat="43.53932" lon="6.56523">
        <ele>251.9</ele>
        <time>2025-10-28T10:24:00.000Z</time>
      </trkpt>
      <trkpt lat="43.53929" lon="6.5652">
        <ele>252.1</ele>
        <time>2025-10-28T10:24:01.000Z</time>
      </trkpt>
      <trkpt lat="43.53926" lon="6.56517">
        <ele>252.2</ele>
        <time>2025-10-28T10:24:02.000Z</time>
      </trkpt>
      <trkpt lat="43.53923" lon="6.56514">
        <ele>252.4</ele>
        <time>2025-10-28T10:24:03.000Z</time>
      </trkpt>
      <trkpt lat="43.5392" lon="6.56511">
        <ele>252.6</ele>
        <time>2025-10-28T10:24:04.000Z</time>
      </trkpt>
      <trkpt lat="43.53918" lon="6.56508">
        <ele>252.8</ele>
        <time>2025-10-28T10:24:05.000Z</time>
      </trkpt>
      <trkpt lat="43.53915" lon="6.56506">
        <ele>253</ele>
        <time>2025-10-28T10:24:06.000Z</time>
      </trkpt>
      <trkpt lat="43.53912" lon="6.56503">
        <ele>253.3</ele>
        <time>2025-10-28T10:24:07.000Z</time>
      </trkpt>
      <trkpt lat="43.53909" lon="6.56501">
        <ele>253.6</ele>
        <time>2025-10-28T10:24:08.000Z</time>
      </trkpt>
      <trkpt lat="43.53906" lon="6.56499">
        <ele>253.9</ele>
        <time>2025-10-28T10:24:09.000Z</time>
      </trkpt>
      <trkpt lat="43.53903" lon="6.56496">
        <ele>254.2</ele>
        <time>2025-10-28T10:24:10.000Z</time>
      </trkpt>
      <trkpt lat="43.53901" lon="6.56494">
        <ele>254.5</ele>
        <time>2025-10-28T10:24:11.000Z</time>
      </trkpt>
      <trkpt lat="43.53899" lon="6.56493">
        <ele>254.8</ele>
        <time>2025-10-28T10:24:12.000Z</time>
      </trkpt>
      <trkpt lat="43.53896" lon="6.5649">
        <ele>255.1</ele>
        <time>2025-10-28T10:24:13.000Z</time>
      </trkpt>
      <trkpt lat="43.53894" lon="6.56487">
        <ele>255.4</ele>
        <time>2025-10-28T10:24:14.000Z</time>
      </trkpt>
      <trkpt lat="43.53892" lon="6.56485">
        <ele>255.8</ele>
        <time>2025-10-28T10:24:15.000Z</time>
      </trkpt>
      <trkpt lat="43.53889" lon="6.56483">
        <ele>256.1</ele>
        <time>2025-10-28T10:24:16.000Z</time>
      </trkpt>
      <trkpt lat="43.53887" lon="6.56481">
        <ele>256.5</ele>
        <time>2025-10-28T10:24:17.000Z</time>
      </trkpt>
      <trkpt lat="43.53885" lon="6.56479">
        <ele>256.8</ele>
        <time>2025-10-28T10:24:18.000Z</time>
      </trkpt>
      <trkpt lat="43.53882" lon="6.56477">
        <ele>257.2</ele>
        <time>2025-10-28T10:24:19.000Z</time>
      </trkpt>
      <trkpt lat="43.5388" lon="6.56475">
        <ele>257.5</ele>
        <time>2025-10-28T10:24:20.000Z</time>
      </trkpt>
      <trkpt lat="43.53877" lon="6.56473">
        <ele>257.9</ele>
        <time>2025-10-28T10:24:21.000Z</time>
      </trkpt>
      <trkpt lat="43.53875" lon="6.56471">
        <ele>258.3</ele>
        <time>2025-10-28T10:24:22.000Z</time>
      </trkpt>
      <trkpt lat="43.53872" lon="6.56469">
        <ele>258.7</ele>
        <time>2025-10-28T10:24:23.000Z</time>
      </trkpt>
      <trkpt lat="43.5387" lon="6.56467">
        <ele>259</ele>
        <time>2025-10-28T10:24:24.000Z</time>
      </trkpt>
      <trkpt lat="43.53868" lon="6.56465">
        <ele>259.3</ele>
        <time>2025-10-28T10:24:25.000Z</time>
      </trkpt>
      <trkpt lat="43.53865" lon="6.56462">
        <ele>259.7</ele>
        <time>2025-10-28T10:24:26.000Z</time>
      </trkpt>
      <trkpt lat="43.53863" lon="6.5646">
        <ele>260.1</ele>
        <time>2025-10-28T10:24:27.000Z</time>
      </trkpt>
      <trkpt lat="43.5386" lon="6.56458">
        <ele>260.4</ele>
        <time>2025-10-28T10:24:28.000Z</time>
      </trkpt>
      <trkpt lat="43.53857" lon="6.56456">
        <ele>260.8</ele>
        <time>2025-10-28T10:24:29.000Z</time>
      </trkpt>
      <trkpt lat="43.53855" lon="6.56455">
        <ele>261.1</ele>
        <time>2025-10-28T10:24:30.000Z</time>
      </trkpt>
      <trkpt lat="43.53852" lon="6.56453">
        <ele>261.4</ele>
        <time>2025-10-28T10:24:31.000Z</time>
      </trkpt>
      <trkpt lat="43.5385" lon="6.56451">
        <ele>261.7</ele>
        <time>2025-10-28T10:24:32.000Z</time>
      </trkpt>
      <trkpt lat="43.53847" lon="6.56449">
        <ele>262</ele>
        <time>2025-10-28T10:24:33.000Z</time>
      </trkpt>
      <trkpt lat="43.53844" lon="6.56447">
        <ele>262.3</ele>
        <time>2025-10-28T10:24:34.000Z</time>
      </trkpt>
      <trkpt lat="43.53842" lon="6.56446">
        <ele>262.5</ele>
        <time>2025-10-28T10:24:35.000Z</time>
      </trkpt>
      <trkpt lat="43.5384" lon="6.56444">
        <ele>262.7</ele>
        <time>2025-10-28T10:24:36.000Z</time>
      </trkpt>
      <trkpt lat="43.53837" lon="6.56442">
        <ele>262.9</ele>
        <time>2025-10-28T10:24:37.000Z</time>
      </trkpt>
      <trkpt lat="43.53834" lon="6.56441">
        <ele>263.1</ele>
        <time>2025-10-28T10:24:38.000Z</time>
      </trkpt>
      <trkpt lat="43.53832" lon="6.56439">
        <ele>263.3</ele>
        <time>2025-10-28T10:24:39.000Z</time>
      </trkpt>
      <trkpt lat="43.53829" lon="6.56437">
        <ele>263.5</ele>
        <time>2025-10-28T10:24:40.000Z</time>
      </trkpt>
      <trkpt lat="43.53826" lon="6.56436">
        <ele>263.7</ele>
        <time>2025-10-28T10:24:41.000Z</time>
      </trkpt>
      <trkpt lat="43.53824" lon="6.56434">
        <ele>263.8</ele>
        <time>2025-10-28T10:24:42.000Z</time>
      </trkpt>
      <trkpt lat="43.53821" lon="6.56432">
        <ele>264</ele>
        <time>2025-10-28T10:24:43.000Z</time>
      </trkpt>
      <trkpt lat="43.53818" lon="6.56431">
        <ele>264.1</ele>
        <time>2025-10-28T10:24:44.000Z</time>
      </trkpt>
      <trkpt lat="43.53815" lon="6.56429">
        <ele>264.2</ele>
        <time>2025-10-28T10:24:45.000Z</time>
      </trkpt>
      <trkpt lat="43.53812" lon="6.56427">
        <ele>264.4</ele>
        <time>2025-10-28T10:24:46.000Z</time>
      </trkpt>
      <trkpt lat="43.5381" lon="6.56425">
        <ele>264.5</ele>
        <time>2025-10-28T10:24:47.000Z</time>
      </trkpt>
      <trkpt lat="43.53807" lon="6.56424">
        <ele>264.6</ele>
        <time>2025-10-28T10:24:48.000Z</time>
      </trkpt>
      <trkpt lat="43.53804" lon="6.56422">
        <ele>264.7</ele>
        <time>2025-10-28T10:24:49.000Z</time>
      </trkpt>
      <trkpt lat="43.53802" lon="6.5642">
        <ele>264.7</ele>
        <time>2025-10-28T10:24:50.000Z</time>
      </trkpt>
      <trkpt lat="43.53798" lon="6.56418">
        <ele>264.8</ele>
        <time>2025-10-28T10:24:51.000Z</time>
      </trkpt>
      <trkpt lat="43.53796" lon="6.56416">
        <ele>264.9</ele>
        <time>2025-10-28T10:24:52.000Z</time>
      </trkpt>
      <trkpt lat="43.53793" lon="6.56414">
        <ele>264.9</ele>
        <time>2025-10-28T10:24:53.000Z</time>
      </trkpt>
      <trkpt lat="43.53791" lon="6.56412">
        <ele>264.9</ele>
        <time>2025-10-28T10:24:54.000Z</time>
      </trkpt>
      <trkpt lat="43.53788" lon="6.56409">
        <ele>264.9</ele>
        <time>2025-10-28T10:24:55.000Z</time>
      </trkpt>
      <trkpt lat="43.53785" lon="6.56406">
        <ele>264.9</ele>
        <time>2025-10-28T10:24:56.000Z</time>
      </trkpt>
      <trkpt lat="43.53782" lon="6.56403">
        <ele>264.9</ele>
        <time>2025-10-28T10:24:57.000Z</time>
      </trkpt>
      <trkpt lat="43.53779" lon="6.564">
        <ele>264.9</ele>
        <time>2025-10-28T10:24:58.000Z</time>
      </trkpt>
      <trkpt lat="43.53777" lon="6.56397">
        <ele>264.8</ele>
        <time>2025-10-28T10:24:59.000Z</time>
      </trkpt>
      <trkpt lat="43.53774" lon="6.56394">
        <ele>264.7</ele>
        <time>2025-10-28T10:25:00.000Z</time>
      </trkpt>
      <trkpt lat="43.53771" lon="6.56391">
        <ele>264.6</ele>
        <time>2025-10-28T10:25:01.000Z</time>
      </trkpt>
      <trkpt lat="43.53767" lon="6.56387">
        <ele>264.4</ele>
        <time>2025-10-28T10:25:02.000Z</time>
      </trkpt>
      <trkpt lat="43.53764" lon="6.56383">
        <ele>264.3</ele>
        <time>2025-10-28T10:25:03.000Z</time>
      </trkpt>
      <trkpt lat="43.53761" lon="6.5638">
        <ele>264.2</ele>
        <time>2025-10-28T10:25:04.000Z</time>
      </trkpt>
      <trkpt lat="43.53757" lon="6.56376">
        <ele>264.1</ele>
        <time>2025-10-28T10:25:05.000Z</time>
      </trkpt>
      <trkpt lat="43.53753" lon="6.56373">
        <ele>264</ele>
        <time>2025-10-28T10:25:06.000Z</time>
      </trkpt>
      <trkpt lat="43.5375" lon="6.5637">
        <ele>263.9</ele>
        <time>2025-10-28T10:25:07.000Z</time>
      </trkpt>
      <trkpt lat="43.53746" lon="6.56367">
        <ele>263.8</ele>
        <time>2025-10-28T10:25:08.000Z</time>
      </trkpt>
      <trkpt lat="43.53743" lon="6.56365">
        <ele>263.8</ele>
        <time>2025-10-28T10:25:09.000Z</time>
      </trkpt>
      <trkpt lat="43.53738" lon="6.56362">
        <ele>263.8</ele>
        <time>2025-10-28T10:25:10.000Z</time>
      </trkpt>
      <trkpt lat="43.53734" lon="6.56361">
        <ele>263.9</ele>
        <time>2025-10-28T10:25:11.000Z</time>
      </trkpt>
      <trkpt lat="43.53731" lon="6.5636">
        <ele>263.9</ele>
        <time>2025-10-28T10:25:12.000Z</time>
      </trkpt>
      <trkpt lat="43.53727" lon="6.56358">
        <ele>264</ele>
        <time>2025-10-28T10:25:13.000Z</time>
      </trkpt>
      <trkpt lat="43.53723" lon="6.56358">
        <ele>264</ele>
        <time>2025-10-28T10:25:14.000Z</time>
      </trkpt>
      <trkpt lat="43.53718" lon="6.56357">
        <ele>264.1</ele>
        <time>2025-10-28T10:25:15.000Z</time>
      </trkpt>
      <trkpt lat="43.53714" lon="6.56356">
        <ele>264.2</ele>
        <time>2025-10-28T10:25:16.000Z</time>
      </trkpt>
      <trkpt lat="43.53711" lon="6.56355">
        <ele>264.3</ele>
        <time>2025-10-28T10:25:17.000Z</time>
      </trkpt>
      <trkpt lat="43.53707" lon="6.56354">
        <ele>264.4</ele>
        <time>2025-10-28T10:25:18.000Z</time>
      </trkpt>
      <trkpt lat="43.53704" lon="6.56353">
        <ele>264.4</ele>
        <time>2025-10-28T10:25:19.000Z</time>
      </trkpt>
      <trkpt lat="43.53699" lon="6.56352">
        <ele>264.5</ele>
        <time>2025-10-28T10:25:20.000Z</time>
      </trkpt>
      <trkpt lat="43.53695" lon="6.5635">
        <ele>264.5</ele>
        <time>2025-10-28T10:25:21.000Z</time>
      </trkpt>
      <trkpt lat="43.53692" lon="6.56349">
        <ele>264.5</ele>
        <time>2025-10-28T10:25:22.000Z</time>
      </trkpt>
      <trkpt lat="43.53687" lon="6.56347">
        <ele>264.5</ele>
        <time>2025-10-28T10:25:23.000Z</time>
      </trkpt>
      <trkpt lat="43.53683" lon="6.56345">
        <ele>264.4</ele>
        <time>2025-10-28T10:25:24.000Z</time>
      </trkpt>
      <trkpt lat="43.53679" lon="6.56343">
        <ele>264.3</ele>
        <time>2025-10-28T10:25:25.000Z</time>
      </trkpt>
      <trkpt lat="43.53675" lon="6.5634">
        <ele>264.2</ele>
        <time>2025-10-28T10:25:26.000Z</time>
      </trkpt>
      <trkpt lat="43.53671" lon="6.56338">
        <ele>264.1</ele>
        <time>2025-10-28T10:25:27.000Z</time>
      </trkpt>
      <trkpt lat="43.53668" lon="6.56335">
        <ele>264</ele>
        <time>2025-10-28T10:25:28.000Z</time>
      </trkpt>
      <trkpt lat="43.53663" lon="6.56332">
        <ele>263.9</ele>
        <time>2025-10-28T10:25:29.000Z</time>
      </trkpt>
      <trkpt lat="43.53659" lon="6.56329">
        <ele>263.7</ele>
        <time>2025-10-28T10:25:30.000Z</time>
      </trkpt>
      <trkpt lat="43.53656" lon="6.56326">
        <ele>263.6</ele>
        <time>2025-10-28T10:25:31.000Z</time>
      </trkpt>
      <trkpt lat="43.53652" lon="6.56323">
        <ele>263.5</ele>
        <time>2025-10-28T10:25:32.000Z</time>
      </trkpt>
      <trkpt lat="43.53647" lon="6.56319">
        <ele>263.3</ele>
        <time>2025-10-28T10:25:33.000Z</time>
      </trkpt>
      <trkpt lat="43.53643" lon="6.56316">
        <ele>263.2</ele>
        <time>2025-10-28T10:25:34.000Z</time>
      </trkpt>
      <trkpt lat="43.5364" lon="6.56312">
        <ele>263.2</ele>
        <time>2025-10-28T10:25:35.000Z</time>
      </trkpt>
      <trkpt lat="43.53637" lon="6.56309">
        <ele>263.1</ele>
        <time>2025-10-28T10:25:36.000Z</time>
      </trkpt>
      <trkpt lat="43.53634" lon="6.56306">
        <ele>263.1</ele>
        <time>2025-10-28T10:25:37.000Z</time>
      </trkpt>
      <trkpt lat="43.5363" lon="6.56302">
        <ele>263.1</ele>
        <time>2025-10-28T10:25:38.000Z</time>
      </trkpt>
      <trkpt lat="43.53627" lon="6.56297">
        <ele>263.1</ele>
        <time>2025-10-28T10:25:39.000Z</time>
      </trkpt>
      <trkpt lat="43.53624" lon="6.56293">
        <ele>263.1</ele>
        <time>2025-10-28T10:25:40.000Z</time>
      </trkpt>
      <trkpt lat="43.53621" lon="6.5629">
        <ele>263.1</ele>
        <time>2025-10-28T10:25:41.000Z</time>
      </trkpt>
      <trkpt lat="43.53618" lon="6.56287">
        <ele>263.2</ele>
        <time>2025-10-28T10:25:42.000Z</time>
      </trkpt>
      <trkpt lat="43.53615" lon="6.56282">
        <ele>263.3</ele>
        <time>2025-10-28T10:25:43.000Z</time>
      </trkpt>
      <trkpt lat="43.53612" lon="6.56278">
        <ele>263.4</ele>
        <time>2025-10-28T10:25:44.000Z</time>
      </trkpt>
      <trkpt lat="43.53609" lon="6.56275">
        <ele>263.5</ele>
        <time>2025-10-28T10:25:45.000Z</time>
      </trkpt>
      <trkpt lat="43.53607" lon="6.56271">
        <ele>263.6</ele>
        <time>2025-10-28T10:25:46.000Z</time>
      </trkpt>
      <trkpt lat="43.53604" lon="6.56267">
        <ele>263.8</ele>
        <time>2025-10-28T10:25:47.000Z</time>
      </trkpt>
      <trkpt lat="43.536" lon="6.56263">
        <ele>264</ele>
        <time>2025-10-28T10:25:48.000Z</time>
      </trkpt>
      <trkpt lat="43.53597" lon="6.56259">
        <ele>264.2</ele>
        <time>2025-10-28T10:25:49.000Z</time>
      </trkpt>
      <trkpt lat="43.53594" lon="6.56254">
        <ele>264.4</ele>
        <time>2025-10-28T10:25:50.000Z</time>
      </trkpt>
      <trkpt lat="43.53592" lon="6.56251">
        <ele>264.5</ele>
        <time>2025-10-28T10:25:51.000Z</time>
      </trkpt>
      <trkpt lat="43.53589" lon="6.56247">
        <ele>264.7</ele>
        <time>2025-10-28T10:25:52.000Z</time>
      </trkpt>
      <trkpt lat="43.53586" lon="6.56242">
        <ele>265</ele>
        <time>2025-10-28T10:25:53.000Z</time>
      </trkpt>
      <trkpt lat="43.53583" lon="6.56238">
        <ele>265.2</ele>
        <time>2025-10-28T10:25:54.000Z</time>
      </trkpt>
      <trkpt lat="43.53581" lon="6.56235">
        <ele>265.4</ele>
        <time>2025-10-28T10:25:55.000Z</time>
      </trkpt>
      <trkpt lat="43.53579" lon="6.56231">
        <ele>265.7</ele>
        <time>2025-10-28T10:25:56.000Z</time>
      </trkpt>
      <trkpt lat="43.53576" lon="6.56227">
        <ele>265.9</ele>
        <time>2025-10-28T10:25:57.000Z</time>
      </trkpt>
      <trkpt lat="43.53573" lon="6.56223">
        <ele>266.2</ele>
        <time>2025-10-28T10:25:58.000Z</time>
      </trkpt>
      <trkpt lat="43.53571" lon="6.56218">
        <ele>266.4</ele>
        <time>2025-10-28T10:25:59.000Z</time>
      </trkpt>
      <trkpt lat="43.53569" lon="6.56214">
        <ele>266.6</ele>
        <time>2025-10-28T10:26:00.000Z</time>
      </trkpt>
      <trkpt lat="43.53568" lon="6.56209">
        <ele>266.9</ele>
        <time>2025-10-28T10:26:01.000Z</time>
      </trkpt>
      <trkpt lat="43.53567" lon="6.56203">
        <ele>267.3</ele>
        <time>2025-10-28T10:26:02.000Z</time>
      </trkpt>
      <trkpt lat="43.53566" lon="6.56198">
        <ele>267.6</ele>
        <time>2025-10-28T10:26:03.000Z</time>
      </trkpt>
      <trkpt lat="43.53566" lon="6.56193">
        <ele>267.8</ele>
        <time>2025-10-28T10:26:04.000Z</time>
      </trkpt>
      <trkpt lat="43.53566" lon="6.56189">
        <ele>268.1</ele>
        <time>2025-10-28T10:26:05.000Z</time>
      </trkpt>
      <trkpt lat="43.53566" lon="6.56183">
        <ele>268.4</ele>
        <time>2025-10-28T10:26:06.000Z</time>
      </trkpt>
      <trkpt lat="43.53567" lon="6.56178">
        <ele>268.7</ele>
        <time>2025-10-28T10:26:07.000Z</time>
      </trkpt>
      <trkpt lat="43.53567" lon="6.56172">
        <ele>269.1</ele>
        <time>2025-10-28T10:26:08.000Z</time>
      </trkpt>
      <trkpt lat="43.53567" lon="6.56168">
        <ele>269.4</ele>
        <time>2025-10-28T10:26:09.000Z</time>
      </trkpt>
      <trkpt lat="43.53567" lon="6.56164">
        <ele>269.6</ele>
        <time>2025-10-28T10:26:10.000Z</time>
      </trkpt>
      <trkpt lat="43.53567" lon="6.56159">
        <ele>270</ele>
        <time>2025-10-28T10:26:11.000Z</time>
      </trkpt>
      <trkpt lat="43.53567" lon="6.56154">
        <ele>270.3</ele>
        <time>2025-10-28T10:26:12.000Z</time>
      </trkpt>
      <trkpt lat="43.53567" lon="6.56149">
        <ele>270.7</ele>
        <time>2025-10-28T10:26:13.000Z</time>
      </trkpt>
      <trkpt lat="43.53568" lon="6.56146">
        <ele>270.9</ele>
        <time>2025-10-28T10:26:14.000Z</time>
      </trkpt>
      <trkpt lat="43.53568" lon="6.56141">
        <ele>271.3</ele>
        <time>2025-10-28T10:26:15.000Z</time>
      </trkpt>
      <trkpt lat="43.53568" lon="6.56136">
        <ele>271.7</ele>
        <time>2025-10-28T10:26:16.000Z</time>
      </trkpt>
      <trkpt lat="43.53568" lon="6.56131">
        <ele>272.1</ele>
        <time>2025-10-28T10:26:17.000Z</time>
      </trkpt>
      <trkpt lat="43.53568" lon="6.56126">
        <ele>272.5</ele>
        <time>2025-10-28T10:26:18.000Z</time>
      </trkpt>
      <trkpt lat="43.53568" lon="6.56122">
        <ele>272.8</ele>
        <time>2025-10-28T10:26:19.000Z</time>
      </trkpt>
      <trkpt lat="43.53568" lon="6.56117">
        <ele>273.3</ele>
        <time>2025-10-28T10:26:20.000Z</time>
      </trkpt>
      <trkpt lat="43.53568" lon="6.56112">
        <ele>273.8</ele>
        <time>2025-10-28T10:26:21.000Z</time>
      </trkpt>
      <trkpt lat="43.53569" lon="6.56107">
        <ele>274.2</ele>
        <time>2025-10-28T10:26:22.000Z</time>
      </trkpt>
      <trkpt lat="43.53569" lon="6.56102">
        <ele>274.6</ele>
        <time>2025-10-28T10:26:23.000Z</time>
      </trkpt>
      <trkpt lat="43.53569" lon="6.56099">
        <ele>274.9</ele>
        <time>2025-10-28T10:26:24.000Z</time>
      </trkpt>
      <trkpt lat="43.53569" lon="6.56094">
        <ele>275.3</ele>
        <time>2025-10-28T10:26:25.000Z</time>
      </trkpt>
      <trkpt lat="43.53569" lon="6.56089">
        <ele>275.8</ele>
        <time>2025-10-28T10:26:26.000Z</time>
      </trkpt>
      <trkpt lat="43.53569" lon="6.56085">
        <ele>276.2</ele>
        <time>2025-10-28T10:26:27.000Z</time>
      </trkpt>
      <trkpt lat="43.53569" lon="6.56081">
        <ele>276.6</ele>
        <time>2025-10-28T10:26:28.000Z</time>
      </trkpt>
      <trkpt lat="43.53569" lon="6.56076">
        <ele>277</ele>
        <time>2025-10-28T10:26:29.000Z</time>
      </trkpt>
      <trkpt lat="43.53569" lon="6.56071">
        <ele>277.4</ele>
        <time>2025-10-28T10:26:30.000Z</time>
      </trkpt>
      <trkpt lat="43.53569" lon="6.56066">
        <ele>277.8</ele>
        <time>2025-10-28T10:26:31.000Z</time>
      </trkpt>
      <trkpt lat="43.5357" lon="6.56061">
        <ele>278.2</ele>
        <time>2025-10-28T10:26:32.000Z</time>
      </trkpt>
      <trkpt lat="43.5357" lon="6.56057">
        <ele>278.5</ele>
        <time>2025-10-28T10:26:33.000Z</time>
      </trkpt>
      <trkpt lat="43.5357" lon="6.56052">
        <ele>278.9</ele>
        <time>2025-10-28T10:26:34.000Z</time>
      </trkpt>
      <trkpt lat="43.5357" lon="6.56047">
        <ele>279.2</ele>
        <time>2025-10-28T10:26:35.000Z</time>
      </trkpt>
      <trkpt lat="43.5357" lon="6.56042">
        <ele>279.6</ele>
        <time>2025-10-28T10:26:36.000Z</time>
      </trkpt>
      <trkpt lat="43.53569" lon="6.56036">
        <ele>279.9</ele>
        <time>2025-10-28T10:26:37.000Z</time>
      </trkpt>
      <trkpt lat="43.53569" lon="6.56032">
        <ele>280.2</ele>
        <time>2025-10-28T10:26:38.000Z</time>
      </trkpt>
      <trkpt lat="43.53569" lon="6.56028">
        <ele>280.5</ele>
        <time>2025-10-28T10:26:39.000Z</time>
      </trkpt>
      <trkpt lat="43.53569" lon="6.56023">
        <ele>280.8</ele>
        <time>2025-10-28T10:26:40.000Z</time>
      </trkpt>
      <trkpt lat="43.53569" lon="6.56017">
        <ele>281.1</ele>
        <time>2025-10-28T10:26:41.000Z</time>
      </trkpt>
      <trkpt lat="43.53569" lon="6.56013">
        <ele>281.4</ele>
        <time>2025-10-28T10:26:42.000Z</time>
      </trkpt>
      <trkpt lat="43.53568" lon="6.56009">
        <ele>281.7</ele>
        <time>2025-10-28T10:26:43.000Z</time>
      </trkpt>
      <trkpt lat="43.53568" lon="6.56004">
        <ele>282</ele>
        <time>2025-10-28T10:26:44.000Z</time>
      </trkpt>
      <trkpt lat="43.53568" lon="6.55999">
        <ele>282.3</ele>
        <time>2025-10-28T10:26:45.000Z</time>
      </trkpt>
      <trkpt lat="43.53568" lon="6.55995">
        <ele>282.5</ele>
        <time>2025-10-28T10:26:46.000Z</time>
      </trkpt>
      <trkpt lat="43.53568" lon="6.55989">
        <ele>282.9</ele>
        <time>2025-10-28T10:26:47.000Z</time>
      </trkpt>
      <trkpt lat="43.53568" lon="6.55985">
        <ele>283.1</ele>
        <time>2025-10-28T10:26:48.000Z</time>
      </trkpt>
      <trkpt lat="43.53568" lon="6.5598">
        <ele>283.3</ele>
        <time>2025-10-28T10:26:49.000Z</time>
      </trkpt>
      <trkpt lat="43.53568" lon="6.55975">
        <ele>283.6</ele>
        <time>2025-10-28T10:26:50.000Z</time>
      </trkpt>
      <trkpt lat="43.53568" lon="6.5597">
        <ele>283.8</ele>
        <time>2025-10-28T10:26:51.000Z</time>
      </trkpt>
      <trkpt lat="43.53567" lon="6.55966">
        <ele>284</ele>
        <time>2025-10-28T10:26:52.000Z</time>
      </trkpt>
      <trkpt lat="43.53567" lon="6.55961">
        <ele>284.2</ele>
        <time>2025-10-28T10:26:53.000Z</time>
      </trkpt>
      <trkpt lat="43.53567" lon="6.55956">
        <ele>284.3</ele>
        <time>2025-10-28T10:26:54.000Z</time>
      </trkpt>
      <trkpt lat="43.53566" lon="6.5595">
        <ele>284.6</ele>
        <time>2025-10-28T10:26:55.000Z</time>
      </trkpt>
      <trkpt lat="43.53566" lon="6.55946">
        <ele>284.7</ele>
        <time>2025-10-28T10:26:56.000Z</time>
      </trkpt>
      <trkpt lat="43.53566" lon="6.55942">
        <ele>284.8</ele>
        <time>2025-10-28T10:26:57.000Z</time>
      </trkpt>
      <trkpt lat="43.53565" lon="6.55937">
        <ele>285</ele>
        <time>2025-10-28T10:26:58.000Z</time>
      </trkpt>
      <trkpt lat="43.53565" lon="6.55932">
        <ele>285.1</ele>
        <time>2025-10-28T10:26:59.000Z</time>
      </trkpt>
      <trkpt lat="43.53565" lon="6.55927">
        <ele>285.2</ele>
        <time>2025-10-28T10:27:00.000Z</time>
      </trkpt>
      <trkpt lat="43.53564" lon="6.55921">
        <ele>285.4</ele>
        <time>2025-10-28T10:27:01.000Z</time>
      </trkpt>
      <trkpt lat="43.53564" lon="6.55917">
        <ele>285.4</ele>
        <time>2025-10-28T10:27:02.000Z</time>
      </trkpt>
      <trkpt lat="43.53563" lon="6.55913">
        <ele>285.5</ele>
        <time>2025-10-28T10:27:03.000Z</time>
      </trkpt>
      <trkpt lat="43.53563" lon="6.55908">
        <ele>285.6</ele>
        <time>2025-10-28T10:27:04.000Z</time>
      </trkpt>
      <trkpt lat="43.53562" lon="6.55902">
        <ele>285.6</ele>
        <time>2025-10-28T10:27:05.000Z</time>
      </trkpt>
      <trkpt lat="43.53562" lon="6.55896">
        <ele>285.7</ele>
        <time>2025-10-28T10:27:06.000Z</time>
      </trkpt>
      <trkpt lat="43.53561" lon="6.55892">
        <ele>285.7</ele>
        <time>2025-10-28T10:27:07.000Z</time>
      </trkpt>
      <trkpt lat="43.53561" lon="6.55886">
        <ele>285.8</ele>
        <time>2025-10-28T10:27:08.000Z</time>
      </trkpt>
      <trkpt lat="43.5356" lon="6.5588">
        <ele>285.8</ele>
        <time>2025-10-28T10:27:09.000Z</time>
      </trkpt>
      <trkpt lat="43.5356" lon="6.55875">
        <ele>285.9</ele>
        <time>2025-10-28T10:27:10.000Z</time>
      </trkpt>
      <trkpt lat="43.5356" lon="6.5587">
        <ele>285.9</ele>
        <time>2025-10-28T10:27:11.000Z</time>
      </trkpt>
      <trkpt lat="43.53559" lon="6.55865">
        <ele>285.9</ele>
        <time>2025-10-28T10:27:12.000Z</time>
      </trkpt>
      <trkpt lat="43.53558" lon="6.55859">
        <ele>286</ele>
        <time>2025-10-28T10:27:13.000Z</time>
      </trkpt>
      <trkpt lat="43.53558" lon="6.55853">
        <ele>286.1</ele>
        <time>2025-10-28T10:27:14.000Z</time>
      </trkpt>
      <trkpt lat="43.53558" lon="6.55847">
        <ele>286.3</ele>
        <time>2025-10-28T10:27:15.000Z</time>
      </trkpt>
      <trkpt lat="43.53557" lon="6.55842">
        <ele>286.4</ele>
        <time>2025-10-28T10:27:16.000Z</time>
      </trkpt>
      <trkpt lat="43.53557" lon="6.55837">
        <ele>286.5</ele>
        <time>2025-10-28T10:27:17.000Z</time>
      </trkpt>
      <trkpt lat="43.53557" lon="6.55831">
        <ele>286.7</ele>
        <time>2025-10-28T10:27:18.000Z</time>
      </trkpt>
      <trkpt lat="43.53556" lon="6.55825">
        <ele>286.9</ele>
        <time>2025-10-28T10:27:19.000Z</time>
      </trkpt>
      <trkpt lat="43.53556" lon="6.5582">
        <ele>287.2</ele>
        <time>2025-10-28T10:27:20.000Z</time>
      </trkpt>
      <trkpt lat="43.53556" lon="6.55814">
        <ele>287.4</ele>
        <time>2025-10-28T10:27:21.000Z</time>
      </trkpt>
      <trkpt lat="43.53556" lon="6.55809">
        <ele>287.6</ele>
        <time>2025-10-28T10:27:22.000Z</time>
      </trkpt>
      <trkpt lat="43.53556" lon="6.55804">
        <ele>287.9</ele>
        <time>2025-10-28T10:27:23.000Z</time>
      </trkpt>
      <trkpt lat="43.53555" lon="6.55797">
        <ele>288.2</ele>
        <time>2025-10-28T10:27:24.000Z</time>
      </trkpt>
      <trkpt lat="43.53555" lon="6.55792">
        <ele>288.4</ele>
        <time>2025-10-28T10:27:25.000Z</time>
      </trkpt>
      <trkpt lat="43.53555" lon="6.55787">
        <ele>288.6</ele>
        <time>2025-10-28T10:27:26.000Z</time>
      </trkpt>
      <trkpt lat="43.53554" lon="6.55782">
        <ele>288.9</ele>
        <time>2025-10-28T10:27:27.000Z</time>
      </trkpt>
      <trkpt lat="43.53554" lon="6.55777">
        <ele>289.1</ele>
        <time>2025-10-28T10:27:28.000Z</time>
      </trkpt>
      <trkpt lat="43.53554" lon="6.5577">
        <ele>289.4</ele>
        <time>2025-10-28T10:27:29.000Z</time>
      </trkpt>
      <trkpt lat="43.53554" lon="6.55765">
        <ele>289.6</ele>
        <time>2025-10-28T10:27:30.000Z</time>
      </trkpt>
      <trkpt lat="43.53553" lon="6.55761">
        <ele>289.8</ele>
        <time>2025-10-28T10:27:31.000Z</time>
      </trkpt>
      <trkpt lat="43.53553" lon="6.55755">
        <ele>290</ele>
        <time>2025-10-28T10:27:32.000Z</time>
      </trkpt>
      <trkpt lat="43.53553" lon="6.55748">
        <ele>290.2</ele>
        <time>2025-10-28T10:27:33.000Z</time>
      </trkpt>
      <trkpt lat="43.53553" lon="6.55743">
        <ele>290.4</ele>
        <time>2025-10-28T10:27:34.000Z</time>
      </trkpt>
      <trkpt lat="43.53553" lon="6.55738">
        <ele>290.5</ele>
        <time>2025-10-28T10:27:35.000Z</time>
      </trkpt>
      <trkpt lat="43.53552" lon="6.55733">
        <ele>290.6</ele>
        <time>2025-10-28T10:27:36.000Z</time>
      </trkpt>
      <trkpt lat="43.53552" lon="6.55727">
        <ele>290.7</ele>
        <time>2025-10-28T10:27:37.000Z</time>
      </trkpt>
      <trkpt lat="43.53552" lon="6.5572">
        <ele>290.9</ele>
        <time>2025-10-28T10:27:38.000Z</time>
      </trkpt>
      <trkpt lat="43.53551" lon="6.55714">
        <ele>291</ele>
        <time>2025-10-28T10:27:39.000Z</time>
      </trkpt>
      <trkpt lat="43.53551" lon="6.5571">
        <ele>291</ele>
        <time>2025-10-28T10:27:40.000Z</time>
      </trkpt>
      <trkpt lat="43.53551" lon="6.55704">
        <ele>291.1</ele>
        <time>2025-10-28T10:27:41.000Z</time>
      </trkpt>
      <trkpt lat="43.5355" lon="6.55699">
        <ele>291.2</ele>
        <time>2025-10-28T10:27:42.000Z</time>
      </trkpt>
      <trkpt lat="43.53549" lon="6.55694">
        <ele>291.3</ele>
        <time>2025-10-28T10:27:43.000Z</time>
      </trkpt>
      <trkpt lat="43.53548" lon="6.55688">
        <ele>291.4</ele>
        <time>2025-10-28T10:27:44.000Z</time>
      </trkpt>
      <trkpt lat="43.53546" lon="6.55684">
        <ele>291.5</ele>
        <time>2025-10-28T10:27:45.000Z</time>
      </trkpt>
      <trkpt lat="43.53545" lon="6.5568">
        <ele>291.6</ele>
        <time>2025-10-28T10:27:46.000Z</time>
      </trkpt>
      <trkpt lat="43.53542" lon="6.55674">
        <ele>291.7</ele>
        <time>2025-10-28T10:27:47.000Z</time>
      </trkpt>
      <trkpt lat="43.5354" lon="6.55669">
        <ele>291.8</ele>
        <time>2025-10-28T10:27:48.000Z</time>
      </trkpt>
      <trkpt lat="43.53538" lon="6.55665">
        <ele>292</ele>
        <time>2025-10-28T10:27:49.000Z</time>
      </trkpt>
      <trkpt lat="43.53536" lon="6.55662">
        <ele>292.1</ele>
        <time>2025-10-28T10:27:50.000Z</time>
      </trkpt>
      <trkpt lat="43.53533" lon="6.55657">
        <ele>292.2</ele>
        <time>2025-10-28T10:27:51.000Z</time>
      </trkpt>
      <trkpt lat="43.5353" lon="6.55652">
        <ele>292.4</ele>
        <time>2025-10-28T10:27:52.000Z</time>
      </trkpt>
      <trkpt lat="43.53527" lon="6.55648">
        <ele>292.5</ele>
        <time>2025-10-28T10:27:53.000Z</time>
      </trkpt>
      <trkpt lat="43.53525" lon="6.55645">
        <ele>292.5</ele>
        <time>2025-10-28T10:27:54.000Z</time>
      </trkpt>
      <trkpt lat="43.53522" lon="6.55641">
        <ele>292.6</ele>
        <time>2025-10-28T10:27:55.000Z</time>
      </trkpt>
      <trkpt lat="43.53519" lon="6.55637">
        <ele>292.6</ele>
        <time>2025-10-28T10:27:56.000Z</time>
      </trkpt>
      <trkpt lat="43.53515" lon="6.55633">
        <ele>292.6</ele>
        <time>2025-10-28T10:27:57.000Z</time>
      </trkpt>
      <trkpt lat="43.53511" lon="6.55629">
        <ele>292.5</ele>
        <time>2025-10-28T10:27:58.000Z</time>
      </trkpt>
      <trkpt lat="43.53509" lon="6.55626">
        <ele>292.4</ele>
        <time>2025-10-28T10:27:59.000Z</time>
      </trkpt>
      <trkpt lat="43.53505" lon="6.55622">
        <ele>292.2</ele>
        <time>2025-10-28T10:28:00.000Z</time>
      </trkpt>
      <trkpt lat="43.535" lon="6.55618">
        <ele>292</ele>
        <time>2025-10-28T10:28:01.000Z</time>
      </trkpt>
      <trkpt lat="43.53497" lon="6.55616">
        <ele>291.8</ele>
        <time>2025-10-28T10:28:02.000Z</time>
      </trkpt>
      <trkpt lat="43.53491" lon="6.55612">
        <ele>291.6</ele>
        <time>2025-10-28T10:28:03.000Z</time>
      </trkpt>
      <trkpt lat="43.53487" lon="6.55609">
        <ele>291.4</ele>
        <time>2025-10-28T10:28:04.000Z</time>
      </trkpt>
      <trkpt lat="43.53483" lon="6.55606">
        <ele>291.1</ele>
        <time>2025-10-28T10:28:05.000Z</time>
      </trkpt>
      <trkpt lat="43.53476" lon="6.55603">
        <ele>290.9</ele>
        <time>2025-10-28T10:28:06.000Z</time>
      </trkpt>
      <trkpt lat="43.53471" lon="6.556">
        <ele>290.6</ele>
        <time>2025-10-28T10:28:07.000Z</time>
      </trkpt>
      <trkpt lat="43.53465" lon="6.55597">
        <ele>290.4</ele>
        <time>2025-10-28T10:28:08.000Z</time>
      </trkpt>
      <trkpt lat="43.53461" lon="6.55595">
        <ele>290.3</ele>
        <time>2025-10-28T10:28:09.000Z</time>
      </trkpt>
      <trkpt lat="43.53456" lon="6.55592">
        <ele>290</ele>
        <time>2025-10-28T10:28:10.000Z</time>
      </trkpt>
      <trkpt lat="43.53449" lon="6.55589">
        <ele>289.8</ele>
        <time>2025-10-28T10:28:11.000Z</time>
      </trkpt>
      <trkpt lat="43.53444" lon="6.55586">
        <ele>289.5</ele>
        <time>2025-10-28T10:28:12.000Z</time>
      </trkpt>
      <trkpt lat="43.53439" lon="6.55583">
        <ele>289.3</ele>
        <time>2025-10-28T10:28:13.000Z</time>
      </trkpt>
      <trkpt lat="43.53434" lon="6.5558">
        <ele>289.1</ele>
        <time>2025-10-28T10:28:14.000Z</time>
      </trkpt>
      <trkpt lat="43.53428" lon="6.55576">
        <ele>288.7</ele>
        <time>2025-10-28T10:28:15.000Z</time>
      </trkpt>
      <trkpt lat="43.53422" lon="6.55572">
        <ele>288.4</ele>
        <time>2025-10-28T10:28:16.000Z</time>
      </trkpt>
      <trkpt lat="43.53416" lon="6.55569">
        <ele>288</ele>
        <time>2025-10-28T10:28:17.000Z</time>
      </trkpt>
      <trkpt lat="43.53411" lon="6.55567">
        <ele>287.8</ele>
        <time>2025-10-28T10:28:18.000Z</time>
      </trkpt>
      <trkpt lat="43.53405" lon="6.55564">
        <ele>287.4</ele>
        <time>2025-10-28T10:28:19.000Z</time>
      </trkpt>
      <trkpt lat="43.53398" lon="6.5556">
        <ele>287.1</ele>
        <time>2025-10-28T10:28:20.000Z</time>
      </trkpt>
      <trkpt lat="43.53392" lon="6.55557">
        <ele>286.9</ele>
        <time>2025-10-28T10:28:21.000Z</time>
      </trkpt>
      <trkpt lat="43.53388" lon="6.55554">
        <ele>286.7</ele>
        <time>2025-10-28T10:28:22.000Z</time>
      </trkpt>
      <trkpt lat="43.53382" lon="6.5555">
        <ele>286.6</ele>
        <time>2025-10-28T10:28:23.000Z</time>
      </trkpt>
      <trkpt lat="43.53377" lon="6.55545">
        <ele>286.6</ele>
        <time>2025-10-28T10:28:24.000Z</time>
      </trkpt>
      <trkpt lat="43.53372" lon="6.55538">
        <ele>286.7</ele>
        <time>2025-10-28T10:28:25.000Z</time>
      </trkpt>
      <trkpt lat="43.53368" lon="6.55533">
        <ele>286.9</ele>
        <time>2025-10-28T10:28:26.000Z</time>
      </trkpt>
      <trkpt lat="43.53365" lon="6.55529">
        <ele>287.1</ele>
        <time>2025-10-28T10:28:27.000Z</time>
      </trkpt>
      <trkpt lat="43.53362" lon="6.55524">
        <ele>287.4</ele>
        <time>2025-10-28T10:28:28.000Z</time>
      </trkpt>
      <trkpt lat="43.53358" lon="6.55519">
        <ele>287.8</ele>
        <time>2025-10-28T10:28:29.000Z</time>
      </trkpt>
      <trkpt lat="43.53353" lon="6.55513">
        <ele>288.3</ele>
        <time>2025-10-28T10:28:30.000Z</time>
      </trkpt>
      <trkpt lat="43.5335" lon="6.55509">
        <ele>288.8</ele>
        <time>2025-10-28T10:28:31.000Z</time>
      </trkpt>
      <trkpt lat="43.53347" lon="6.55505">
        <ele>289.2</ele>
        <time>2025-10-28T10:28:32.000Z</time>
      </trkpt>
      <trkpt lat="43.53343" lon="6.555">
        <ele>289.7</ele>
        <time>2025-10-28T10:28:33.000Z</time>
      </trkpt>
      <trkpt lat="43.53339" lon="6.55495">
        <ele>290.3</ele>
        <time>2025-10-28T10:28:34.000Z</time>
      </trkpt>
      <trkpt lat="43.53335" lon="6.55492">
        <ele>290.8</ele>
        <time>2025-10-28T10:28:35.000Z</time>
      </trkpt>
      <trkpt lat="43.53331" lon="6.55489">
        <ele>291.2</ele>
        <time>2025-10-28T10:28:36.000Z</time>
      </trkpt>
      <trkpt lat="43.53328" lon="6.55487">
        <ele>291.6</ele>
        <time>2025-10-28T10:28:37.000Z</time>
      </trkpt>
      <trkpt lat="43.53324" lon="6.55486">
        <ele>292</ele>
        <time>2025-10-28T10:28:38.000Z</time>
      </trkpt>
      <trkpt lat="43.53319" lon="6.55484">
        <ele>292.4</ele>
        <time>2025-10-28T10:28:39.000Z</time>
      </trkpt>
      <trkpt lat="43.53315" lon="6.55484">
        <ele>292.8</ele>
        <time>2025-10-28T10:28:40.000Z</time>
      </trkpt>
      <trkpt lat="43.53312" lon="6.55484">
        <ele>293</ele>
        <time>2025-10-28T10:28:41.000Z</time>
      </trkpt>
      <trkpt lat="43.53308" lon="6.55484">
        <ele>293.3</ele>
        <time>2025-10-28T10:28:42.000Z</time>
      </trkpt>
      <trkpt lat="43.53303" lon="6.55485">
        <ele>293.6</ele>
        <time>2025-10-28T10:28:43.000Z</time>
      </trkpt>
      <trkpt lat="43.53298" lon="6.55487">
        <ele>294</ele>
        <time>2025-10-28T10:28:44.000Z</time>
      </trkpt>
      <trkpt lat="43.53294" lon="6.55488">
        <ele>294.2</ele>
        <time>2025-10-28T10:28:45.000Z</time>
      </trkpt>
      <trkpt lat="43.5329" lon="6.55489">
        <ele>294.4</ele>
        <time>2025-10-28T10:28:46.000Z</time>
      </trkpt>
      <trkpt lat="43.53285" lon="6.5549">
        <ele>294.8</ele>
        <time>2025-10-28T10:28:47.000Z</time>
      </trkpt>
      <trkpt lat="43.5328" lon="6.5549">
        <ele>295</ele>
        <time>2025-10-28T10:28:48.000Z</time>
      </trkpt>
      <trkpt lat="43.53276" lon="6.5549">
        <ele>295.3</ele>
        <time>2025-10-28T10:28:49.000Z</time>
      </trkpt>
      <trkpt lat="43.53272" lon="6.55489">
        <ele>295.5</ele>
        <time>2025-10-28T10:28:50.000Z</time>
      </trkpt>
      <trkpt lat="43.53268" lon="6.55487">
        <ele>295.7</ele>
        <time>2025-10-28T10:28:51.000Z</time>
      </trkpt>
      <trkpt lat="43.53264" lon="6.55485">
        <ele>296</ele>
        <time>2025-10-28T10:28:52.000Z</time>
      </trkpt>
      <trkpt lat="43.5326" lon="6.55481">
        <ele>296.3</ele>
        <time>2025-10-28T10:28:53.000Z</time>
      </trkpt>
      <trkpt lat="43.53257" lon="6.55478">
        <ele>296.6</ele>
        <time>2025-10-28T10:28:54.000Z</time>
      </trkpt>
      <trkpt lat="43.53253" lon="6.55474">
        <ele>296.9</ele>
        <time>2025-10-28T10:28:55.000Z</time>
      </trkpt>
      <trkpt lat="43.5325" lon="6.5547">
        <ele>297.2</ele>
        <time>2025-10-28T10:28:56.000Z</time>
      </trkpt>
      <trkpt lat="43.53247" lon="6.55466">
        <ele>297.5</ele>
        <time>2025-10-28T10:28:57.000Z</time>
      </trkpt>
      <trkpt lat="43.53244" lon="6.55461">
        <ele>297.9</ele>
        <time>2025-10-28T10:28:58.000Z</time>
      </trkpt>
      <trkpt lat="43.53241" lon="6.55457">
        <ele>298.2</ele>
        <time>2025-10-28T10:28:59.000Z</time>
      </trkpt>
      <trkpt lat="43.53238" lon="6.55452">
        <ele>298.5</ele>
        <time>2025-10-28T10:29:00.000Z</time>
      </trkpt>
      <trkpt lat="43.53235" lon="6.55448">
        <ele>298.8</ele>
        <time>2025-10-28T10:29:01.000Z</time>
      </trkpt>
      <trkpt lat="43.53232" lon="6.55444">
        <ele>299</ele>
        <time>2025-10-28T10:29:02.000Z</time>
      </trkpt>
      <trkpt lat="43.53229" lon="6.55439">
        <ele>299.3</ele>
        <time>2025-10-28T10:29:03.000Z</time>
      </trkpt>
      <trkpt lat="43.53226" lon="6.55435">
        <ele>299.5</ele>
        <time>2025-10-28T10:29:04.000Z</time>
      </trkpt>
      <trkpt lat="43.53224" lon="6.55432">
        <ele>299.7</ele>
        <time>2025-10-28T10:29:05.000Z</time>
      </trkpt>
      <trkpt lat="43.53221" lon="6.55428">
        <ele>299.9</ele>
        <time>2025-10-28T10:29:06.000Z</time>
      </trkpt>
      <trkpt lat="43.53218" lon="6.55424">
        <ele>300.1</ele>
        <time>2025-10-28T10:29:07.000Z</time>
      </trkpt>
      <trkpt lat="43.53216" lon="6.5542">
        <ele>300.3</ele>
        <time>2025-10-28T10:29:08.000Z</time>
      </trkpt>
      <trkpt lat="43.53213" lon="6.55417">
        <ele>300.4</ele>
        <time>2025-10-28T10:29:09.000Z</time>
      </trkpt>
      <trkpt lat="43.53211" lon="6.55414">
        <ele>300.5</ele>
        <time>2025-10-28T10:29:10.000Z</time>
      </trkpt>
      <trkpt lat="43.53208" lon="6.5541">
        <ele>300.7</ele>
        <time>2025-10-28T10:29:11.000Z</time>
      </trkpt>
      <trkpt lat="43.53206" lon="6.55405">
        <ele>300.8</ele>
        <time>2025-10-28T10:29:12.000Z</time>
      </trkpt>
      <trkpt lat="43.53203" lon="6.55402">
        <ele>300.9</ele>
        <time>2025-10-28T10:29:13.000Z</time>
      </trkpt>
      <trkpt lat="43.53201" lon="6.55398">
        <ele>301</ele>
        <time>2025-10-28T10:29:14.000Z</time>
      </trkpt>
      <trkpt lat="43.53198" lon="6.55396">
        <ele>301.6</ele>
        <time>2025-10-28T10:29:15.000Z</time>
      </trkpt>
      <trkpt lat="43.53195" lon="6.55395">
        <ele>301.5</ele>
        <time>2025-10-28T10:29:16.000Z</time>
      </trkpt>
      <trkpt lat="43.53191" lon="6.55395">
        <ele>301.4</ele>
        <time>2025-10-28T10:29:17.000Z</time>
      </trkpt>
      <trkpt lat="43.53188" lon="6.55397">
        <ele>301.3</ele>
        <time>2025-10-28T10:29:18.000Z</time>
      </trkpt>
      <trkpt lat="43.53185" lon="6.554">
        <ele>301.1</ele>
        <time>2025-10-28T10:29:19.000Z</time>
      </trkpt>
      <trkpt lat="43.53182" lon="6.55405">
        <ele>300.8</ele>
        <time>2025-10-28T10:29:20.000Z</time>
      </trkpt>
      <trkpt lat="43.53179" lon="6.55409">
        <ele>300.6</ele>
        <time>2025-10-28T10:29:21.000Z</time>
      </trkpt>
      <trkpt lat="43.53175" lon="6.55415">
        <ele>300.2</ele>
        <time>2025-10-28T10:29:22.000Z</time>
      </trkpt>
      <trkpt lat="43.53171" lon="6.5542">
        <ele>299.9</ele>
        <time>2025-10-28T10:29:23.000Z</time>
      </trkpt>
      <trkpt lat="43.53168" lon="6.55423">
        <ele>299.7</ele>
        <time>2025-10-28T10:29:24.000Z</time>
      </trkpt>
      <trkpt lat="43.53164" lon="6.55428">
        <ele>299.4</ele>
        <time>2025-10-28T10:29:25.000Z</time>
      </trkpt>
      <trkpt lat="43.53159" lon="6.55431">
        <ele>299</ele>
        <time>2025-10-28T10:29:26.000Z</time>
      </trkpt>
      <trkpt lat="43.53154" lon="6.55432">
        <ele>298.8</ele>
        <time>2025-10-28T10:29:27.000Z</time>
      </trkpt>
      <trkpt lat="43.5315" lon="6.55432">
        <ele>298.6</ele>
        <time>2025-10-28T10:29:28.000Z</time>
      </trkpt>
      <trkpt lat="43.53145" lon="6.55431">
        <ele>298.4</ele>
        <time>2025-10-28T10:29:29.000Z</time>
      </trkpt>
      <trkpt lat="43.53141" lon="6.55431">
        <ele>298.3</ele>
        <time>2025-10-28T10:29:30.000Z</time>
      </trkpt>
      <trkpt lat="43.53136" lon="6.55433">
        <ele>298.1</ele>
        <time>2025-10-28T10:29:31.000Z</time>
      </trkpt>
      <trkpt lat="43.53131" lon="6.55437">
        <ele>297.9</ele>
        <time>2025-10-28T10:29:32.000Z</time>
      </trkpt>
      <trkpt lat="43.53127" lon="6.55441">
        <ele>297.7</ele>
        <time>2025-10-28T10:29:33.000Z</time>
      </trkpt>
      <trkpt lat="43.53124" lon="6.55445">
        <ele>297.6</ele>
        <time>2025-10-28T10:29:34.000Z</time>
      </trkpt>
      <trkpt lat="43.53121" lon="6.55451">
        <ele>297.4</ele>
        <time>2025-10-28T10:29:35.000Z</time>
      </trkpt>
      <trkpt lat="43.53117" lon="6.55458">
        <ele>297.2</ele>
        <time>2025-10-28T10:29:36.000Z</time>
      </trkpt>
      <trkpt lat="43.53114" lon="6.55463">
        <ele>297.1</ele>
        <time>2025-10-28T10:29:37.000Z</time>
      </trkpt>
      <trkpt lat="43.53111" lon="6.55468">
        <ele>297</ele>
        <time>2025-10-28T10:29:38.000Z</time>
      </trkpt>
      <trkpt lat="43.53108" lon="6.55473">
        <ele>296.9</ele>
        <time>2025-10-28T10:29:39.000Z</time>
      </trkpt>
      <trkpt lat="43.53105" lon="6.55479">
        <ele>296.8</ele>
        <time>2025-10-28T10:29:40.000Z</time>
      </trkpt>
      <trkpt lat="43.53101" lon="6.55485">
        <ele>296.7</ele>
        <time>2025-10-28T10:29:41.000Z</time>
      </trkpt>
      <trkpt lat="43.53097" lon="6.55491">
        <ele>296.6</ele>
        <time>2025-10-28T10:29:42.000Z</time>
      </trkpt>
      <trkpt lat="43.53094" lon="6.55495">
        <ele>296.5</ele>
        <time>2025-10-28T10:29:43.000Z</time>
      </trkpt>
      <trkpt lat="43.5309" lon="6.555">
        <ele>296.4</ele>
        <time>2025-10-28T10:29:44.000Z</time>
      </trkpt>
      <trkpt lat="43.53085" lon="6.55506">
        <ele>296.3</ele>
        <time>2025-10-28T10:29:45.000Z</time>
      </trkpt>
      <trkpt lat="43.53081" lon="6.55511">
        <ele>296.1</ele>
        <time>2025-10-28T10:29:46.000Z</time>
      </trkpt>
      <trkpt lat="43.53077" lon="6.55515">
        <ele>296</ele>
        <time>2025-10-28T10:29:47.000Z</time>
      </trkpt>
      <trkpt lat="43.53074" lon="6.55519">
        <ele>295.9</ele>
        <time>2025-10-28T10:29:48.000Z</time>
      </trkpt>
      <trkpt lat="43.53069" lon="6.55524">
        <ele>295.7</ele>
        <time>2025-10-28T10:29:49.000Z</time>
      </trkpt>
      <trkpt lat="43.53065" lon="6.55528">
        <ele>295.6</ele>
        <time>2025-10-28T10:29:50.000Z</time>
      </trkpt>
      <trkpt lat="43.5306" lon="6.55534">
        <ele>295.4</ele>
        <time>2025-10-28T10:29:51.000Z</time>
      </trkpt>
      <trkpt lat="43.53056" lon="6.55538">
        <ele>295.2</ele>
        <time>2025-10-28T10:29:52.000Z</time>
      </trkpt>
      <trkpt lat="43.53052" lon="6.55542">
        <ele>295</ele>
        <time>2025-10-28T10:29:53.000Z</time>
      </trkpt>
      <trkpt lat="43.53048" lon="6.55547">
        <ele>294.9</ele>
        <time>2025-10-28T10:29:54.000Z</time>
      </trkpt>
      <trkpt lat="43.53043" lon="6.55552">
        <ele>294.7</ele>
        <time>2025-10-28T10:29:55.000Z</time>
      </trkpt>
      <trkpt lat="43.5304" lon="6.55556">
        <ele>294.6</ele>
        <time>2025-10-28T10:29:56.000Z</time>
      </trkpt>
      <trkpt lat="43.53037" lon="6.5556">
        <ele>294.6</ele>
        <time>2025-10-28T10:29:57.000Z</time>
      </trkpt>
      <trkpt lat="43.53035" lon="6.55566">
        <ele>294.6</ele>
        <time>2025-10-28T10:29:58.000Z</time>
      </trkpt>
      <trkpt lat="43.53033" lon="6.5557">
        <ele>294.6</ele>
        <time>2025-10-28T10:29:59.000Z</time>
      </trkpt>
      <trkpt lat="43.53031" lon="6.55574">
        <ele>294.6</ele>
        <time>2025-10-28T10:30:00.000Z</time>
      </trkpt>
      <trkpt lat="43.53029" lon="6.55577">
        <ele>294.5</ele>
        <time>2025-10-28T10:30:01.000Z</time>
      </trkpt>
      <trkpt lat="43.53027" lon="6.55578">
        <ele>294.5</ele>
        <time>2025-10-28T10:30:02.000Z</time>
      </trkpt>
      <trkpt lat="43.53025" lon="6.55581">
        <ele>294.4</ele>
        <time>2025-10-28T10:30:03.000Z</time>
      </trkpt>
      <trkpt lat="43.53023" lon="6.55584">
        <ele>294.3</ele>
        <time>2025-10-28T10:30:04.000Z</time>
      </trkpt>
      <trkpt lat="43.5302" lon="6.55586">
        <ele>294.3</ele>
        <time>2025-10-28T10:30:05.000Z</time>
      </trkpt>
      <trkpt lat="43.53019" lon="6.55587">
        <ele>294.2</ele>
        <time>2025-10-28T10:30:06.000Z</time>
      </trkpt>
      <trkpt lat="43.53017" lon="6.55589">
        <ele>294.1</ele>
        <time>2025-10-28T10:30:07.000Z</time>
      </trkpt>
      <trkpt lat="43.53015" lon="6.55591">
        <ele>294</ele>
        <time>2025-10-28T10:30:08.000Z</time>
      </trkpt>
      <trkpt lat="43.53012" lon="6.55593">
        <ele>293.9</ele>
        <time>2025-10-28T10:30:09.000Z</time>
      </trkpt>
      <trkpt lat="43.5301" lon="6.55595">
        <ele>293.8</ele>
        <time>2025-10-28T10:30:10.000Z</time>
      </trkpt>
      <trkpt lat="43.53008" lon="6.55597">
        <ele>293.6</ele>
        <time>2025-10-28T10:30:11.000Z</time>
      </trkpt>
      <trkpt lat="43.53005" lon="6.556">
        <ele>293.5</ele>
        <time>2025-10-28T10:30:12.000Z</time>
      </trkpt>
      <trkpt lat="43.53003" lon="6.55602">
        <ele>293.3</ele>
        <time>2025-10-28T10:30:13.000Z</time>
      </trkpt>
      <trkpt lat="43.53" lon="6.55605">
        <ele>293.2</ele>
        <time>2025-10-28T10:30:14.000Z</time>
      </trkpt>
      <trkpt lat="43.52997" lon="6.55608">
        <ele>293</ele>
        <time>2025-10-28T10:30:15.000Z</time>
      </trkpt>
      <trkpt lat="43.52994" lon="6.5561">
        <ele>292.8</ele>
        <time>2025-10-28T10:30:16.000Z</time>
      </trkpt>
      <trkpt lat="43.52991" lon="6.55613">
        <ele>292.6</ele>
        <time>2025-10-28T10:30:17.000Z</time>
      </trkpt>
      <trkpt lat="43.52987" lon="6.55616">
        <ele>292.4</ele>
        <time>2025-10-28T10:30:18.000Z</time>
      </trkpt>
      <trkpt lat="43.52982" lon="6.5562">
        <ele>292.2</ele>
        <time>2025-10-28T10:30:19.000Z</time>
      </trkpt>
      <trkpt lat="43.52977" lon="6.55623">
        <ele>292</ele>
        <time>2025-10-28T10:30:20.000Z</time>
      </trkpt>
      <trkpt lat="43.52973" lon="6.55627">
        <ele>291.7</ele>
        <time>2025-10-28T10:30:21.000Z</time>
      </trkpt>
      <trkpt lat="43.5297" lon="6.5563">
        <ele>291.6</ele>
        <time>2025-10-28T10:30:22.000Z</time>
      </trkpt>
      <trkpt lat="43.52967" lon="6.55635">
        <ele>291.4</ele>
        <time>2025-10-28T10:30:23.000Z</time>
      </trkpt>
      <trkpt lat="43.52963" lon="6.55641">
        <ele>291.2</ele>
        <time>2025-10-28T10:30:24.000Z</time>
      </trkpt>
      <trkpt lat="43.52959" lon="6.55646">
        <ele>291.1</ele>
        <time>2025-10-28T10:30:25.000Z</time>
      </trkpt>
      <trkpt lat="43.52956" lon="6.5565">
        <ele>291</ele>
        <time>2025-10-28T10:30:26.000Z</time>
      </trkpt>
      <trkpt lat="43.52953" lon="6.55655">
        <ele>290.8</ele>
        <time>2025-10-28T10:30:27.000Z</time>
      </trkpt>
      <trkpt lat="43.5295" lon="6.55661">
        <ele>290.7</ele>
        <time>2025-10-28T10:30:28.000Z</time>
      </trkpt>
      <trkpt lat="43.52945" lon="6.55667">
        <ele>290.5</ele>
        <time>2025-10-28T10:30:29.000Z</time>
      </trkpt>
      <trkpt lat="43.52942" lon="6.55673">
        <ele>290.4</ele>
        <time>2025-10-28T10:30:30.000Z</time>
      </trkpt>
      <trkpt lat="43.5294" lon="6.55677">
        <ele>290.4</ele>
        <time>2025-10-28T10:30:31.000Z</time>
      </trkpt>
      <trkpt lat="43.52936" lon="6.55684">
        <ele>290.3</ele>
        <time>2025-10-28T10:30:32.000Z</time>
      </trkpt>
      <trkpt lat="43.52932" lon="6.5569">
        <ele>290.3</ele>
        <time>2025-10-28T10:30:33.000Z</time>
      </trkpt>
      <trkpt lat="43.52928" lon="6.55697">
        <ele>290.2</ele>
        <time>2025-10-28T10:30:34.000Z</time>
      </trkpt>
      <trkpt lat="43.52923" lon="6.55704">
        <ele>290.1</ele>
        <time>2025-10-28T10:30:35.000Z</time>
      </trkpt>
      <trkpt lat="43.5292" lon="6.55709">
        <ele>290</ele>
        <time>2025-10-28T10:30:36.000Z</time>
      </trkpt>
      <trkpt lat="43.52916" lon="6.55715">
        <ele>289.9</ele>
        <time>2025-10-28T10:30:37.000Z</time>
      </trkpt>
      <trkpt lat="43.52912" lon="6.55723">
        <ele>289.7</ele>
        <time>2025-10-28T10:30:38.000Z</time>
      </trkpt>
      <trkpt lat="43.52908" lon="6.55729">
        <ele>289.6</ele>
        <time>2025-10-28T10:30:39.000Z</time>
      </trkpt>
      <trkpt lat="43.52904" lon="6.55734">
        <ele>289.4</ele>
        <time>2025-10-28T10:30:40.000Z</time>
      </trkpt>
      <trkpt lat="43.52901" lon="6.5574">
        <ele>289.3</ele>
        <time>2025-10-28T10:30:41.000Z</time>
      </trkpt>
      <trkpt lat="43.52898" lon="6.55746">
        <ele>289.1</ele>
        <time>2025-10-28T10:30:42.000Z</time>
      </trkpt>
      <trkpt lat="43.52894" lon="6.55753">
        <ele>288.9</ele>
        <time>2025-10-28T10:30:43.000Z</time>
      </trkpt>
      <trkpt lat="43.52891" lon="6.55758">
        <ele>288.8</ele>
        <time>2025-10-28T10:30:44.000Z</time>
      </trkpt>
      <trkpt lat="43.52888" lon="6.55761">
        <ele>288.6</ele>
        <time>2025-10-28T10:30:45.000Z</time>
      </trkpt>
      <trkpt lat="43.52885" lon="6.55765">
        <ele>288.5</ele>
        <time>2025-10-28T10:30:46.000Z</time>
      </trkpt>
      <trkpt lat="43.52882" lon="6.5577">
        <ele>288.3</ele>
        <time>2025-10-28T10:30:47.000Z</time>
      </trkpt>
      <trkpt lat="43.52879" lon="6.55774">
        <ele>288.1</ele>
        <time>2025-10-28T10:30:48.000Z</time>
      </trkpt>
      <trkpt lat="43.52876" lon="6.55778">
        <ele>287.9</ele>
        <time>2025-10-28T10:30:49.000Z</time>
      </trkpt>
      <trkpt lat="43.52874" lon="6.55781">
        <ele>287.8</ele>
        <time>2025-10-28T10:30:50.000Z</time>
      </trkpt>
      <trkpt lat="43.52871" lon="6.55785">
        <ele>287.6</ele>
        <time>2025-10-28T10:30:51.000Z</time>
      </trkpt>
      <trkpt lat="43.52868" lon="6.5579">
        <ele>287.4</ele>
        <time>2025-10-28T10:30:52.000Z</time>
      </trkpt>
      <trkpt lat="43.52865" lon="6.55794">
        <ele>287.2</ele>
        <time>2025-10-28T10:30:53.000Z</time>
      </trkpt>
      <trkpt lat="43.5286" lon="6.55799">
        <ele>286.9</ele>
        <time>2025-10-28T10:30:54.000Z</time>
      </trkpt>
      <trkpt lat="43.52857" lon="6.55801">
        <ele>286.6</ele>
        <time>2025-10-28T10:30:55.000Z</time>
      </trkpt>
      <trkpt lat="43.52853" lon="6.55803">
        <ele>286.4</ele>
        <time>2025-10-28T10:30:56.000Z</time>
      </trkpt>
      <trkpt lat="43.52849" lon="6.55804">
        <ele>286.1</ele>
        <time>2025-10-28T10:30:57.000Z</time>
      </trkpt>
      <trkpt lat="43.52843" lon="6.55802">
        <ele>285.7</ele>
        <time>2025-10-28T10:30:58.000Z</time>
      </trkpt>
      <trkpt lat="43.5284" lon="6.55799">
        <ele>285.3</ele>
        <time>2025-10-28T10:30:59.000Z</time>
      </trkpt>
      <trkpt lat="43.52836" lon="6.55795">
        <ele>284.8</ele>
        <time>2025-10-28T10:31:00.000Z</time>
      </trkpt>
      <trkpt lat="43.52831" lon="6.55791">
        <ele>284.2</ele>
        <time>2025-10-28T10:31:01.000Z</time>
      </trkpt>
      <trkpt lat="43.52826" lon="6.55787">
        <ele>283.8</ele>
        <time>2025-10-28T10:31:02.000Z</time>
      </trkpt>
      <trkpt lat="43.5282" lon="6.55785">
        <ele>283.2</ele>
        <time>2025-10-28T10:31:03.000Z</time>
      </trkpt>
      <trkpt lat="43.52815" lon="6.55785">
        <ele>282.8</ele>
        <time>2025-10-28T10:31:04.000Z</time>
      </trkpt>
      <trkpt lat="43.5281" lon="6.55786">
        <ele>282.3</ele>
        <time>2025-10-28T10:31:05.000Z</time>
      </trkpt>
      <trkpt lat="43.52804" lon="6.55788">
        <ele>281.7</ele>
        <time>2025-10-28T10:31:06.000Z</time>
      </trkpt>
      <trkpt lat="43.52797" lon="6.5579">
        <ele>281</ele>
        <time>2025-10-28T10:31:07.000Z</time>
      </trkpt>
      <trkpt lat="43.52791" lon="6.55793">
        <ele>280.4</ele>
        <time>2025-10-28T10:31:08.000Z</time>
      </trkpt>
      <trkpt lat="43.52787" lon="6.55795">
        <ele>280</ele>
        <time>2025-10-28T10:31:09.000Z</time>
      </trkpt>
      <trkpt lat="43.52781" lon="6.55798">
        <ele>279.5</ele>
        <time>2025-10-28T10:31:10.000Z</time>
      </trkpt>
      <trkpt lat="43.52776" lon="6.55802">
        <ele>278.9</ele>
        <time>2025-10-28T10:31:11.000Z</time>
      </trkpt>
      <trkpt lat="43.52771" lon="6.55808">
        <ele>278.2</ele>
        <time>2025-10-28T10:31:12.000Z</time>
      </trkpt>
      <trkpt lat="43.52766" lon="6.55813">
        <ele>277.5</ele>
        <time>2025-10-28T10:31:13.000Z</time>
      </trkpt>
      <trkpt lat="43.52762" lon="6.55817">
        <ele>277</ele>
        <time>2025-10-28T10:31:14.000Z</time>
      </trkpt>
      <trkpt lat="43.52758" lon="6.55821">
        <ele>276.3</ele>
        <time>2025-10-28T10:31:15.000Z</time>
      </trkpt>
      <trkpt lat="43.52754" lon="6.55826">
        <ele>275.7</ele>
        <time>2025-10-28T10:31:16.000Z</time>
      </trkpt>
      <trkpt lat="43.52748" lon="6.55831">
        <ele>274.8</ele>
        <time>2025-10-28T10:31:17.000Z</time>
      </trkpt>
      <trkpt lat="43.52744" lon="6.55837">
        <ele>273.9</ele>
        <time>2025-10-28T10:31:18.000Z</time>
      </trkpt>
      <trkpt lat="43.5274" lon="6.55841">
        <ele>273.2</ele>
        <time>2025-10-28T10:31:19.000Z</time>
      </trkpt>
      <trkpt lat="43.52736" lon="6.55847">
        <ele>272.4</ele>
        <time>2025-10-28T10:31:20.000Z</time>
      </trkpt>
      <trkpt lat="43.52731" lon="6.55853">
        <ele>271.5</ele>
        <time>2025-10-28T10:31:21.000Z</time>
      </trkpt>
      <trkpt lat="43.52727" lon="6.55859">
        <ele>270.7</ele>
        <time>2025-10-28T10:31:22.000Z</time>
      </trkpt>
      <trkpt lat="43.52723" lon="6.55865">
        <ele>270</ele>
        <time>2025-10-28T10:31:23.000Z</time>
      </trkpt>
      <trkpt lat="43.52719" lon="6.55869">
        <ele>269.5</ele>
        <time>2025-10-28T10:31:24.000Z</time>
      </trkpt>
      <trkpt lat="43.52715" lon="6.55874">
        <ele>268.9</ele>
        <time>2025-10-28T10:31:25.000Z</time>
      </trkpt>
      <trkpt lat="43.5271" lon="6.5588">
        <ele>268.3</ele>
        <time>2025-10-28T10:31:26.000Z</time>
      </trkpt>
      <trkpt lat="43.52707" lon="6.55883">
        <ele>267.8</ele>
        <time>2025-10-28T10:31:27.000Z</time>
      </trkpt>
      <trkpt lat="43.52704" lon="6.55887">
        <ele>267.4</ele>
        <time>2025-10-28T10:31:28.000Z</time>
      </trkpt>
      <trkpt lat="43.52702" lon="6.55889">
        <ele>267.2</ele>
        <time>2025-10-28T10:31:29.000Z</time>
      </trkpt>
      <trkpt lat="43.52701" lon="6.5589">
        <ele>267</ele>
        <time>2025-10-28T10:31:30.000Z</time>
      </trkpt>
      <trkpt lat="43.527" lon="6.5589">
        <ele>266.9</ele>
        <time>2025-10-28T10:31:31.000Z</time>
      </trkpt>
      <trkpt lat="43.527" lon="6.5589">
        <ele>266.9</ele>
        <time>2025-10-28T10:31:32.000Z</time>
      </trkpt>
      <trkpt lat="43.527" lon="6.5589">
        <ele>266.9</ele>
        <time>2025-10-28T10:31:33.000Z</time>
      </trkpt>
      <trkpt lat="43.527" lon="6.5589">
        <ele>266.8</ele>
        <time>2025-10-28T10:31:34.000Z</time>
      </trkpt>
      <trkpt lat="43.527" lon="6.5589">
        <ele>266.8</ele>
        <time>2025-10-28T10:31:35.000Z</time>
      </trkpt>
      <trkpt lat="43.527" lon="6.5589">
        <ele>266.7</ele>
        <time>2025-10-28T10:31:36.000Z</time>
      </trkpt>
      <trkpt lat="43.527" lon="6.5589">
        <ele>266.7</ele>
        <time>2025-10-28T10:31:37.000Z</time>
      </trkpt>
      <trkpt lat="43.527" lon="6.5589">
        <ele>266.6</ele>
        <time>2025-10-28T10:31:38.000Z</time>
      </trkpt>
      <trkpt lat="43.52699" lon="6.5589">
        <ele>266.6</ele>
        <time>2025-10-28T10:31:39.000Z</time>
      </trkpt>
      <trkpt lat="43.52699" lon="6.5589">
        <ele>266.6</ele>
        <time>2025-10-28T10:31:40.000Z</time>
      </trkpt>
      <trkpt lat="43.52699" lon="6.5589">
        <ele>266.5</ele>
        <time>2025-10-28T10:31:41.000Z</time>
      </trkpt>
      <trkpt lat="43.52699" lon="6.5589">
        <ele>266.5</ele>
        <time>2025-10-28T10:31:42.000Z</time>
      </trkpt>
      <trkpt lat="43.52699" lon="6.5589">
        <ele>266.4</ele>
        <time>2025-10-28T10:31:43.000Z</time>
      </trkpt>
      <trkpt lat="43.52699" lon="6.5589">
        <ele>266.4</ele>
        <time>2025-10-28T10:31:44.000Z</time>
      </trkpt>
      <trkpt lat="43.52699" lon="6.5589">
        <ele>266</ele>
        <time>2025-10-28T10:31:45.000Z</time>
      </trkpt>
      <trkpt lat="43.52699" lon="6.5589">
        <ele>266</ele>
        <time>2025-10-28T10:31:46.000Z</time>
      </trkpt>
      <trkpt lat="43.52699" lon="6.5589">
        <ele>265.9</ele>
        <time>2025-10-28T10:31:47.000Z</time>
      </trkpt>
      <trkpt lat="43.52699" lon="6.5589">
        <ele>265.9</ele>
        <time>2025-10-28T10:31:48.000Z</time>
      </trkpt>
      <trkpt lat="43.52698" lon="6.5589">
        <ele>265.9</ele>
        <time>2025-10-28T10:31:49.000Z</time>
      </trkpt>
      <trkpt lat="43.52698" lon="6.5589">
        <ele>265.8</ele>
        <time>2025-10-28T10:31:50.000Z</time>
      </trkpt>
      <trkpt lat="43.52698" lon="6.5589">
        <ele>265.8</ele>
        <time>2025-10-28T10:31:51.000Z</time>
      </trkpt>
      <trkpt lat="43.52698" lon="6.5589">
        <ele>265.7</ele>
        <time>2025-10-28T10:31:52.000Z</time>
      </trkpt>
      <trkpt lat="43.52698" lon="6.5589">
        <ele>265.7</ele>
        <time>2025-10-28T10:31:53.000Z</time>
      </trkpt>
      <trkpt lat="43.52698" lon="6.5589">
        <ele>265.7</ele>
        <time>2025-10-28T10:31:54.000Z</time>
      </trkpt>
      <trkpt lat="43.52698" lon="6.5589">
        <ele>265.6</ele>
        <time>2025-10-28T10:31:55.000Z</time>
      </trkpt>
      <trkpt lat="43.52698" lon="6.5589">
        <ele>265.6</ele>
        <time>2025-10-28T10:31:56.000Z</time>
      </trkpt>
      <trkpt lat="43.52698" lon="6.5589">
        <ele>265.5</ele>
        <time>2025-10-28T10:31:57.000Z</time>
      </trkpt>
      <trkpt lat="43.52697" lon="6.5589">
        <ele>265.5</ele>
        <time>2025-10-28T10:31:58.000Z</time>
      </trkpt>
      <trkpt lat="43.52697" lon="6.5589">
        <ele>265.5</ele>
        <time>2025-10-28T10:31:59.000Z</time>
      </trkpt>
      <trkpt lat="43.52697" lon="6.5589">
        <ele>265.4</ele>
        <time>2025-10-28T10:32:00.000Z</time>
      </trkpt>
      <trkpt lat="43.52697" lon="6.5589">
        <ele>265.4</ele>
        <time>2025-10-28T10:32:01.000Z</time>
      </trkpt>
      <trkpt lat="43.52697" lon="6.5589">
        <ele>265.3</ele>
        <time>2025-10-28T10:32:02.000Z</time>
      </trkpt>
      <trkpt lat="43.52697" lon="6.5589">
        <ele>265.3</ele>
        <time>2025-10-28T10:32:03.000Z</time>
      </trkpt>
      <trkpt lat="43.52697" lon="6.5589">
        <ele>265.3</ele>
        <time>2025-10-28T10:32:04.000Z</time>
      </trkpt>
      <trkpt lat="43.52697" lon="6.5589">
        <ele>265.2</ele>
        <time>2025-10-28T10:32:05.000Z</time>
      </trkpt>
      <trkpt lat="43.52697" lon="6.5589">
        <ele>265.2</ele>
        <time>2025-10-28T10:32:06.000Z</time>
      </trkpt>
      <trkpt lat="43.52697" lon="6.5589">
        <ele>265.1</ele>
        <time>2025-10-28T10:32:07.000Z</time>
      </trkpt>
      <trkpt lat="43.52696" lon="6.5589">
        <ele>265.1</ele>
        <time>2025-10-28T10:32:08.000Z</time>
      </trkpt>
      <trkpt lat="43.52696" lon="6.5589">
        <ele>265.1</ele>
        <time>2025-10-28T10:32:09.000Z</time>
      </trkpt>
      <trkpt lat="43.52696" lon="6.5589">
        <ele>265</ele>
        <time>2025-10-28T10:32:10.000Z</time>
      </trkpt>
      <trkpt lat="43.52696" lon="6.5589">
        <ele>265</ele>
        <time>2025-10-28T10:32:11.000Z</time>
      </trkpt>
      <trkpt lat="43.52696" lon="6.5589">
        <ele>264.9</ele>
        <time>2025-10-28T10:32:12.000Z</time>
      </trkpt>
      <trkpt lat="43.52696" lon="6.5589">
        <ele>264.9</ele>
        <time>2025-10-28T10:32:13.000Z</time>
      </trkpt>
      <trkpt lat="43.52696" lon="6.5589">
        <ele>264.9</ele>
        <time>2025-10-28T10:32:14.000Z</time>
      </trkpt>
      <trkpt lat="43.52696" lon="6.5589">
        <ele>264.5</ele>
        <time>2025-10-28T10:32:15.000Z</time>
      </trkpt>
      <trkpt lat="43.52696" lon="6.5589">
        <ele>264.4</ele>
        <time>2025-10-28T10:32:16.000Z</time>
      </trkpt>
      <trkpt lat="43.52696" lon="6.5589">
        <ele>264.4</ele>
        <time>2025-10-28T10:32:17.000Z</time>
      </trkpt>
      <trkpt lat="43.52695" lon="6.5589">
        <ele>264.3</ele>
        <time>2025-10-28T10:32:18.000Z</time>
      </trkpt>
      <trkpt lat="43.52695" lon="6.5589">
        <ele>264.3</ele>
        <time>2025-10-28T10:32:19.000Z</time>
      </trkpt>
      <trkpt lat="43.52695" lon="6.5589">
        <ele>264.3</ele>
        <time>2025-10-28T10:32:20.000Z</time>
      </trkpt>
      <trkpt lat="43.52695" lon="6.5589">
        <ele>264.2</ele>
        <time>2025-10-28T10:32:21.000Z</time>
      </trkpt>
      <trkpt lat="43.52695" lon="6.5589">
        <ele>264.2</ele>
        <time>2025-10-28T10:32:22.000Z</time>
      </trkpt>
      <trkpt lat="43.52695" lon="6.5589">
        <ele>264.1</ele>
        <time>2025-10-28T10:32:23.000Z</time>
      </trkpt>
      <trkpt lat="43.52695" lon="6.5589">
        <ele>264.1</ele>
        <time>2025-10-28T10:32:24.000Z</time>
      </trkpt>
      <trkpt lat="43.52695" lon="6.5589">
        <ele>264.1</ele>
        <time>2025-10-28T10:32:25.000Z</time>
      </trkpt>
      <trkpt lat="43.52695" lon="6.5589">
        <ele>264</ele>
        <time>2025-10-28T10:32:26.000Z</time>
      </trkpt>
      <trkpt lat="43.52695" lon="6.5589">
        <ele>264</ele>
        <time>2025-10-28T10:32:27.000Z</time>
      </trkpt>
      <trkpt lat="43.52694" lon="6.5589">
        <ele>263.9</ele>
        <time>2025-10-28T10:32:28.000Z</time>
      </trkpt>
      <trkpt lat="43.52694" lon="6.5589">
        <ele>263.9</ele>
        <time>2025-10-28T10:32:29.000Z</time>
      </trkpt>
      <trkpt lat="43.52694" lon="6.5589">
        <ele>263.9</ele>
        <time>2025-10-28T10:32:30.000Z</time>
      </trkpt>
      <trkpt lat="43.52694" lon="6.5589">
        <ele>263.8</ele>
        <time>2025-10-28T10:32:31.000Z</time>
      </trkpt>
      <trkpt lat="43.52694" lon="6.5589">
        <ele>263.8</ele>
        <time>2025-10-28T10:32:32.000Z</time>
      </trkpt>
      <trkpt lat="43.52694" lon="6.5589">
        <ele>263.7</ele>
        <time>2025-10-28T10:32:33.000Z</time>
      </trkpt>
      <trkpt lat="43.52694" lon="6.5589">
        <ele>263.7</ele>
        <time>2025-10-28T10:32:34.000Z</time>
      </trkpt>
      <trkpt lat="43.52694" lon="6.5589">
        <ele>263.7</ele>
        <time>2025-10-28T10:32:35.000Z</time>
      </trkpt>
      <trkpt lat="43.52694" lon="6.5589">
        <ele>263.6</ele>
        <time>2025-10-28T10:32:36.000Z</time>
      </trkpt>
      <trkpt lat="43.52694" lon="6.5589">
        <ele>263.6</ele>
        <time>2025-10-28T10:32:37.000Z</time>
      </trkpt>
      <trkpt lat="43.52693" lon="6.5589">
        <ele>263.5</ele>
        <time>2025-10-28T10:32:38.000Z</time>
      </trkpt>
      <trkpt lat="43.52693" lon="6.5589">
        <ele>263.5</ele>
        <time>2025-10-28T10:32:39.000Z</time>
      </trkpt>
      <trkpt lat="43.52693" lon="6.5589">
        <ele>263.5</ele>
        <time>2025-10-28T10:32:40.000Z</time>
      </trkpt>
      <trkpt lat="43.52693" lon="6.5589">
        <ele>263.4</ele>
        <time>2025-10-28T10:32:41.000Z</time>
      </trkpt>
      <trkpt lat="43.52693" lon="6.5589">
        <ele>263.4</ele>
        <time>2025-10-28T10:32:42.000Z</time>
      </trkpt>
      <trkpt lat="43.52693" lon="6.5589">
        <ele>263.3</ele>
        <time>2025-10-28T10:32:43.000Z</time>
      </trkpt>
      <trkpt lat="43.52693" lon="6.5589">
        <ele>263.3</ele>
        <time>2025-10-28T10:32:44.000Z</time>
      </trkpt>
      <trkpt lat="43.52693" lon="6.5589">
        <ele>262.9</ele>
        <time>2025-10-28T10:32:45.000Z</time>
      </trkpt>
      <trkpt lat="43.52693" lon="6.5589">
        <ele>262.9</ele>
        <time>2025-10-28T10:32:46.000Z</time>
      </trkpt>
      <trkpt lat="43.52692" lon="6.5589">
        <ele>262.8</ele>
        <time>2025-10-28T10:32:47.000Z</time>
      </trkpt>
      <trkpt lat="43.52692" lon="6.5589">
        <ele>262.8</ele>
        <time>2025-10-28T10:32:48.000Z</time>
      </trkpt>
      <trkpt lat="43.52692" lon="6.5589">
        <ele>262.7</ele>
        <time>2025-10-28T10:32:49.000Z</time>
      </trkpt>
      <trkpt lat="43.52692" lon="6.5589">
        <ele>262.7</ele>
        <time>2025-10-28T10:32:50.000Z</time>
      </trkpt>
      <trkpt lat="43.52692" lon="6.5589">
        <ele>262.7</ele>
        <time>2025-10-28T10:32:51.000Z</time>
      </trkpt>
      <trkpt lat="43.52692" lon="6.5589">
        <ele>262.6</ele>
        <time>2025-10-28T10:32:52.000Z</time>
      </trkpt>
      <trkpt lat="43.52692" lon="6.5589">
        <ele>262.6</ele>
        <time>2025-10-28T10:32:53.000Z</time>
      </trkpt>
      <trkpt lat="43.52692" lon="6.5589">
        <ele>262.5</ele>
        <time>2025-10-28T10:32:54.000Z</time>
      </trkpt>
      <trkpt lat="43.52692" lon="6.5589">
        <ele>262.5</ele>
        <time>2025-10-28T10:32:55.000Z</time>
      </trkpt>
      <trkpt lat="43.52692" lon="6.5589">
        <ele>262.5</ele>
        <time>2025-10-28T10:32:56.000Z</time>
      </trkpt>
      <trkpt lat="43.52691" lon="6.5589">
        <ele>262.4</ele>
        <time>2025-10-28T10:32:57.000Z</time>
      </trkpt>
      <trkpt lat="43.52691" lon="6.5589">
        <ele>262.4</ele>
        <time>2025-10-28T10:32:58.000Z</time>
      </trkpt>
      <trkpt lat="43.52691" lon="6.5589">
        <ele>262.3</ele>
        <time>2025-10-28T10:32:59.000Z</time>
      </trkpt>
      <trkpt lat="43.52691" lon="6.5589">
        <ele>262.3</ele>
        <time>2025-10-28T10:33:00.000Z</time>
      </trkpt>
      <trkpt lat="43.52691" lon="6.5589">
        <ele>262.3</ele>
        <time>2025-10-28T10:33:01.000Z</time>
      </trkpt>
      <trkpt lat="43.52691" lon="6.5589">
        <ele>262.2</ele>
        <time>2025-10-28T10:33:02.000Z</time>
      </trkpt>
      <trkpt lat="43.52691" lon="6.5589">
        <ele>262.2</ele>
        <time>2025-10-28T10:33:03.000Z</time>
      </trkpt>
      <trkpt lat="43.52691" lon="6.5589">
        <ele>262.1</ele>
        <time>2025-10-28T10:33:04.000Z</time>
      </trkpt>
      <trkpt lat="43.52691" lon="6.5589">
        <ele>262.1</ele>
        <time>2025-10-28T10:33:05.000Z</time>
      </trkpt>
      <trkpt lat="43.52691" lon="6.5589">
        <ele>262</ele>
        <time>2025-10-28T10:33:06.000Z</time>
      </trkpt>
      <trkpt lat="43.5269" lon="6.5589">
        <ele>262</ele>
        <time>2025-10-28T10:33:07.000Z</time>
      </trkpt>
      <trkpt lat="43.5269" lon="6.5589">
        <ele>262</ele>
        <time>2025-10-28T10:33:08.000Z</time>
      </trkpt>
      <trkpt lat="43.5269" lon="6.5589">
        <ele>261.9</ele>
        <time>2025-10-28T10:33:09.000Z</time>
      </trkpt>
      <trkpt lat="43.5269" lon="6.5589">
        <ele>261.9</ele>
        <time>2025-10-28T10:33:10.000Z</time>
      </trkpt>
      <trkpt lat="43.5269" lon="6.5589">
        <ele>261.8</ele>
        <time>2025-10-28T10:33:11.000Z</time>
      </trkpt>
      <trkpt lat="43.5269" lon="6.5589">
        <ele>261.8</ele>
        <time>2025-10-28T10:33:12.000Z</time>
      </trkpt>
      <trkpt lat="43.5269" lon="6.5589">
        <ele>261.8</ele>
        <time>2025-10-28T10:33:13.000Z</time>
      </trkpt>
      <trkpt lat="43.5269" lon="6.5589">
        <ele>261.7</ele>
        <time>2025-10-28T10:33:14.000Z</time>
      </trkpt>
      <trkpt lat="43.5269" lon="6.5589">
        <ele>261.7</ele>
        <time>2025-10-28T10:33:15.000Z</time>
      </trkpt>
      <trkpt lat="43.5269" lon="6.5589">
        <ele>261.3</ele>
        <time>2025-10-28T10:33:16.000Z</time>
      </trkpt>
      <trkpt lat="43.52689" lon="6.5589">
        <ele>261.3</ele>
        <time>2025-10-28T10:33:17.000Z</time>
      </trkpt>
      <trkpt lat="43.52689" lon="6.5589">
        <ele>261.2</ele>
        <time>2025-10-28T10:33:18.000Z</time>
      </trkpt>
      <trkpt lat="43.52689" lon="6.5589">
        <ele>261.2</ele>
        <time>2025-10-28T10:33:19.000Z</time>
      </trkpt>
      <trkpt lat="43.52689" lon="6.5589">
        <ele>261.1</ele>
        <time>2025-10-28T10:33:20.000Z</time>
      </trkpt>
      <trkpt lat="43.52689" lon="6.5589">
        <ele>261.1</ele>
        <time>2025-10-28T10:33:21.000Z</time>
      </trkpt>
      <trkpt lat="43.52689" lon="6.5589">
        <ele>261.1</ele>
        <time>2025-10-28T10:33:22.000Z</time>
      </trkpt>
      <trkpt lat="43.52689" lon="6.5589">
        <ele>261</ele>
        <time>2025-10-28T10:33:23.000Z</time>
      </trkpt>
      <trkpt lat="43.52689" lon="6.5589">
        <ele>261</ele>
        <time>2025-10-28T10:33:24.000Z</time>
      </trkpt>
      <trkpt lat="43.52689" lon="6.5589">
        <ele>260.9</ele>
        <time>2025-10-28T10:33:25.000Z</time>
      </trkpt>
      <trkpt lat="43.52689" lon="6.5589">
        <ele>260.9</ele>
        <time>2025-10-28T10:33:26.000Z</time>
      </trkpt>
      <trkpt lat="43.52688" lon="6.5589">
        <ele>260.9</ele>
        <time>2025-10-28T10:33:27.000Z</time>
      </trkpt>
      <trkpt lat="43.52688" lon="6.5589">
        <ele>260.8</ele>
        <time>2025-10-28T10:33:28.000Z</time>
      </trkpt>
      <trkpt lat="43.52688" lon="6.5589">
        <ele>260.8</ele>
        <time>2025-10-28T10:33:29.000Z</time>
      </trkpt>
      <trkpt lat="43.52688" lon="6.5589">
        <ele>260.7</ele>
        <time>2025-10-28T10:33:30.000Z</time>
      </trkpt>
      <trkpt lat="43.52688" lon="6.5589">
        <ele>260.7</ele>
        <time>2025-10-28T10:33:31.000Z</time>
      </trkpt>
      <trkpt lat="43.52688" lon="6.5589">
        <ele>260.6</ele>
        <time>2025-10-28T10:33:32.000Z</time>
      </trkpt>
      <trkpt lat="43.52688" lon="6.5589">
        <ele>260.6</ele>
        <time>2025-10-28T10:33:33.000Z</time>
      </trkpt>
      <trkpt lat="43.52688" lon="6.5589">
        <ele>260.6</ele>
        <time>2025-10-28T10:33:34.000Z</time>
      </trkpt>
      <trkpt lat="43.52688" lon="6.5589">
        <ele>260.5</ele>
        <time>2025-10-28T10:33:35.000Z</time>
      </trkpt>
      <trkpt lat="43.52687" lon="6.5589">
        <ele>260.5</ele>
        <time>2025-10-28T10:33:36.000Z</time>
      </trkpt>
      <trkpt lat="43.52687" lon="6.5589">
        <ele>260.4</ele>
        <time>2025-10-28T10:33:37.000Z</time>
      </trkpt>
      <trkpt lat="43.52687" lon="6.5589">
        <ele>260.4</ele>
        <time>2025-10-28T10:33:38.000Z</time>
      </trkpt>
      <trkpt lat="43.52687" lon="6.5589">
        <ele>260.4</ele>
        <time>2025-10-28T10:33:39.000Z</time>
      </trkpt>
      <trkpt lat="43.52687" lon="6.5589">
        <ele>260.3</ele>
        <time>2025-10-28T10:33:40.000Z</time>
      </trkpt>
      <trkpt lat="43.52687" lon="6.5589">
        <ele>260.3</ele>
        <time>2025-10-28T10:33:41.000Z</time>
      </trkpt>
      <trkpt lat="43.52687" lon="6.5589">
        <ele>260.2</ele>
        <time>2025-10-28T10:33:42.000Z</time>
      </trkpt>
      <trkpt lat="43.52687" lon="6.5589">
        <ele>260.2</ele>
        <time>2025-10-28T10:33:43.000Z</time>
      </trkpt>
      <trkpt lat="43.52687" lon="6.5589">
        <ele>260.2</ele>
        <time>2025-10-28T10:33:44.000Z</time>
      </trkpt>
      <trkpt lat="43.52687" lon="6.5589">
        <ele>260.1</ele>
        <time>2025-10-28T10:33:45.000Z</time>
      </trkpt>
      <trkpt lat="43.52686" lon="6.5589">
        <ele>259.8</ele>
        <time>2025-10-28T10:33:46.000Z</time>
      </trkpt>
      <trkpt lat="43.52686" lon="6.5589">
        <ele>259.7</ele>
        <time>2025-10-28T10:33:47.000Z</time>
      </trkpt>
      <trkpt lat="43.52686" lon="6.5589">
        <ele>259.7</ele>
        <time>2025-10-28T10:33:48.000Z</time>
      </trkpt>
      <trkpt lat="43.52686" lon="6.5589">
        <ele>259.6</ele>
        <time>2025-10-28T10:33:49.000Z</time>
      </trkpt>
      <trkpt lat="43.52686" lon="6.5589">
        <ele>259.6</ele>
        <time>2025-10-28T10:33:50.000Z</time>
      </trkpt>
      <trkpt lat="43.52686" lon="6.5589">
        <ele>259.6</ele>
        <time>2025-10-28T10:33:51.000Z</time>
      </trkpt>
      <trkpt lat="43.52686" lon="6.5589">
        <ele>259.5</ele>
        <time>2025-10-28T10:33:52.000Z</time>
      </trkpt>
      <trkpt lat="43.52686" lon="6.5589">
        <ele>259.5</ele>
        <time>2025-10-28T10:33:53.000Z</time>
      </trkpt>
      <trkpt lat="43.52686" lon="6.5589">
        <ele>259.4</ele>
        <time>2025-10-28T10:33:54.000Z</time>
      </trkpt>
      <trkpt lat="43.52686" lon="6.5589">
        <ele>259.4</ele>
        <time>2025-10-28T10:33:55.000Z</time>
      </trkpt>
      <trkpt lat="43.52685" lon="6.5589">
        <ele>259.4</ele>
        <time>2025-10-28T10:33:56.000Z</time>
      </trkpt>
      <trkpt lat="43.52685" lon="6.5589">
        <ele>259.3</ele>
        <time>2025-10-28T10:33:57.000Z</time>
      </trkpt>
      <trkpt lat="43.52685" lon="6.5589">
        <ele>259.3</ele>
        <time>2025-10-28T10:33:58.000Z</time>
      </trkpt>
      <trkpt lat="43.52685" lon="6.5589">
        <ele>259.2</ele>
        <time>2025-10-28T10:33:59.000Z</time>
      </trkpt>
      <trkpt lat="43.52685" lon="6.5589">
        <ele>259.2</ele>
        <time>2025-10-28T10:34:00.000Z</time>
      </trkpt>
      <trkpt lat="43.52685" lon="6.5589">
        <ele>259.2</ele>
        <time>2025-10-28T10:34:01.000Z</time>
      </trkpt>
      <trkpt lat="43.52685" lon="6.5589">
        <ele>259.1</ele>
        <time>2025-10-28T10:34:02.000Z</time>
      </trkpt>
      <trkpt lat="43.52685" lon="6.5589">
        <ele>259.1</ele>
        <time>2025-10-28T10:34:03.000Z</time>
      </trkpt>
      <trkpt lat="43.52685" lon="6.5589">
        <ele>259</ele>
        <time>2025-10-28T10:34:04.000Z</time>
      </trkpt>
      <trkpt lat="43.52685" lon="6.55889">
        <ele>259</ele>
        <time>2025-10-28T10:34:05.000Z</time>
      </trkpt>
      <trkpt lat="43.52684" lon="6.55889">
        <ele>258.9</ele>
        <time>2025-10-28T10:34:06.000Z</time>
      </trkpt>
      <trkpt lat="43.52684" lon="6.55889">
        <ele>258.9</ele>
        <time>2025-10-28T10:34:07.000Z</time>
      </trkpt>
      <trkpt lat="43.52684" lon="6.55889">
        <ele>258.9</ele>
        <time>2025-10-28T10:34:08.000Z</time>
      </trkpt>
      <trkpt lat="43.52684" lon="6.55889">
        <ele>258.8</ele>
        <time>2025-10-28T10:34:09.000Z</time>
      </trkpt>
      <trkpt lat="43.52684" lon="6.55889">
        <ele>258.8</ele>
        <time>2025-10-28T10:34:10.000Z</time>
      </trkpt>
      <trkpt lat="43.52684" lon="6.55889">
        <ele>258.7</ele>
        <time>2025-10-28T10:34:11.000Z</time>
      </trkpt>
      <trkpt lat="43.52684" lon="6.55889">
        <ele>258.7</ele>
        <time>2025-10-28T10:34:12.000Z</time>
      </trkpt>
      <trkpt lat="43.52684" lon="6.55889">
        <ele>258.7</ele>
        <time>2025-10-28T10:34:13.000Z</time>
      </trkpt>
      <trkpt lat="43.52684" lon="6.55889">
        <ele>258.6</ele>
        <time>2025-10-28T10:34:14.000Z</time>
      </trkpt>
      <trkpt lat="43.52684" lon="6.55889">
        <ele>258.6</ele>
        <time>2025-10-28T10:34:15.000Z</time>
      </trkpt>
      <trkpt lat="43.52683" lon="6.55889">
        <ele>258.3</ele>
        <time>2025-10-28T10:34:16.000Z</time>
      </trkpt>
      <trkpt lat="43.52683" lon="6.55889">
        <ele>258.2</ele>
        <time>2025-10-28T10:34:17.000Z</time>
      </trkpt>
      <trkpt lat="43.52683" lon="6.55889">
        <ele>258.2</ele>
        <time>2025-10-28T10:34:18.000Z</time>
      </trkpt>
      <trkpt lat="43.52683" lon="6.55889">
        <ele>258.1</ele>
        <time>2025-10-28T10:34:19.000Z</time>
      </trkpt>
      <trkpt lat="43.52683" lon="6.55889">
        <ele>258.1</ele>
        <time>2025-10-28T10:34:20.000Z</time>
      </trkpt>
      <trkpt lat="43.52683" lon="6.55889">
        <ele>258</ele>
        <time>2025-10-28T10:34:21.000Z</time>
      </trkpt>
      <trkpt lat="43.52683" lon="6.55889">
        <ele>258</ele>
        <time>2025-10-28T10:34:22.000Z</time>
      </trkpt>
      <trkpt lat="43.52683" lon="6.55889">
        <ele>258</ele>
        <time>2025-10-28T10:34:23.000Z</time>
      </trkpt>
      <trkpt lat="43.52683" lon="6.55889">
        <ele>257.9</ele>
        <time>2025-10-28T10:34:24.000Z</time>
      </trkpt>
      <trkpt lat="43.52682" lon="6.55889">
        <ele>257.9</ele>
        <time>2025-10-28T10:34:25.000Z</time>
      </trkpt>
      <trkpt lat="43.52682" lon="6.55889">
        <ele>257.8</ele>
        <time>2025-10-28T10:34:26.000Z</time>
      </trkpt>
      <trkpt lat="43.52682" lon="6.55889">
        <ele>257.8</ele>
        <time>2025-10-28T10:34:27.000Z</time>
      </trkpt>
      <trkpt lat="43.52682" lon="6.55889">
        <ele>257.8</ele>
        <time>2025-10-28T10:34:28.000Z</time>
      </trkpt>
      <trkpt lat="43.52682" lon="6.55889">
        <ele>257.7</ele>
        <time>2025-10-28T10:34:29.000Z</time>
      </trkpt>
      <trkpt lat="43.52682" lon="6.55889">
        <ele>257.7</ele>
        <time>2025-10-28T10:34:30.000Z</time>
      </trkpt>
      <trkpt lat="43.52682" lon="6.55889">
        <ele>257.6</ele>
        <time>2025-10-28T10:34:31.000Z</time>
      </trkpt>
      <trkpt lat="43.52682" lon="6.55889">
        <ele>257.6</ele>
        <time>2025-10-28T10:34:32.000Z</time>
      </trkpt>
      <trkpt lat="43.52682" lon="6.55889">
        <ele>257.6</ele>
        <time>2025-10-28T10:34:33.000Z</time>
      </trkpt>
      <trkpt lat="43.52682" lon="6.55889">
        <ele>257.5</ele>
        <time>2025-10-28T10:34:34.000Z</time>
      </trkpt>
      <trkpt lat="43.52681" lon="6.55889">
        <ele>257.5</ele>
        <time>2025-10-28T10:34:35.000Z</time>
      </trkpt>
      <trkpt lat="43.52681" lon="6.55889">
        <ele>257.4</ele>
        <time>2025-10-28T10:34:36.000Z</time>
      </trkpt>
      <trkpt lat="43.52681" lon="6.55889">
        <ele>257.4</ele>
        <time>2025-10-28T10:34:37.000Z</time>
      </trkpt>
      <trkpt lat="43.52681" lon="6.55889">
        <ele>257.4</ele>
        <time>2025-10-28T10:34:38.000Z</time>
      </trkpt>
      <trkpt lat="43.52681" lon="6.55889">
        <ele>257.3</ele>
        <time>2025-10-28T10:34:39.000Z</time>
      </trkpt>
      <trkpt lat="43.52681" lon="6.55889">
        <ele>257.3</ele>
        <time>2025-10-28T10:34:40.000Z</time>
      </trkpt>
      <trkpt lat="43.52681" lon="6.55889">
        <ele>257.2</ele>
        <time>2025-10-28T10:34:41.000Z</time>
      </trkpt>
      <trkpt lat="43.52681" lon="6.55889">
        <ele>257.2</ele>
        <time>2025-10-28T10:34:42.000Z</time>
      </trkpt>
      <trkpt lat="43.52681" lon="6.55889">
        <ele>257.2</ele>
        <time>2025-10-28T10:34:43.000Z</time>
      </trkpt>
      <trkpt lat="43.52681" lon="6.55889">
        <ele>257.1</ele>
        <time>2025-10-28T10:34:44.000Z</time>
      </trkpt>
      <trkpt lat="43.5268" lon="6.55889">
        <ele>257.1</ele>
        <time>2025-10-28T10:34:45.000Z</time>
      </trkpt>
      <trkpt lat="43.5268" lon="6.55889">
        <ele>257</ele>
        <time>2025-10-28T10:34:46.000Z</time>
      </trkpt>
      <trkpt lat="43.5268" lon="6.55889">
        <ele>256.7</ele>
        <time>2025-10-28T10:34:47.000Z</time>
      </trkpt>
      <trkpt lat="43.5268" lon="6.55889">
        <ele>256.7</ele>
        <time>2025-10-28T10:34:48.000Z</time>
      </trkpt>
      <trkpt lat="43.5268" lon="6.55889">
        <ele>256.7</ele>
        <time>2025-10-28T10:34:49.000Z</time>
      </trkpt>
      <trkpt lat="43.5268" lon="6.55889">
        <ele>256.6</ele>
        <time>2025-10-28T10:34:50.000Z</time>
      </trkpt>
      <trkpt lat="43.5268" lon="6.55889">
        <ele>256.6</ele>
        <time>2025-10-28T10:34:51.000Z</time>
      </trkpt>
      <trkpt lat="43.5268" lon="6.55889">
        <ele>256.5</ele>
        <time>2025-10-28T10:34:52.000Z</time>
      </trkpt>
      <trkpt lat="43.5268" lon="6.55889">
        <ele>256.5</ele>
        <time>2025-10-28T10:34:53.000Z</time>
      </trkpt>
      <trkpt lat="43.5268" lon="6.55889">
        <ele>256.5</ele>
        <time>2025-10-28T10:34:54.000Z</time>
      </trkpt>
      <trkpt lat="43.52679" lon="6.55889">
        <ele>256.4</ele>
        <time>2025-10-28T10:34:55.000Z</time>
      </trkpt>
      <trkpt lat="43.52679" lon="6.55889">
        <ele>256.4</ele>
        <time>2025-10-28T10:34:56.000Z</time>
      </trkpt>
      <trkpt lat="43.52679" lon="6.55889">
        <ele>256.3</ele>
        <time>2025-10-28T10:34:57.000Z</time>
      </trkpt>
      <trkpt lat="43.52679" lon="6.55889">
        <ele>256.3</ele>
        <time>2025-10-28T10:34:58.000Z</time>
      </trkpt>
      <trkpt lat="43.52679" lon="6.55889">
        <ele>256.2</ele>
        <time>2025-10-28T10:34:59.000Z</time>
      </trkpt>
      <trkpt lat="43.52679" lon="6.55889">
        <ele>256.2</ele>
        <time>2025-10-28T10:35:00.000Z</time>
      </trkpt>
      <trkpt lat="43.52679" lon="6.55889">
        <ele>256.2</ele>
        <time>2025-10-28T10:35:01.000Z</time>
      </trkpt>
      <trkpt lat="43.52679" lon="6.55889">
        <ele>256.1</ele>
        <time>2025-10-28T10:35:02.000Z</time>
      </trkpt>
      <trkpt lat="43.52679" lon="6.55889">
        <ele>256.1</ele>
        <time>2025-10-28T10:35:03.000Z</time>
      </trkpt>
      <trkpt lat="43.52678" lon="6.55889">
        <ele>256</ele>
        <time>2025-10-28T10:35:04.000Z</time>
      </trkpt>
      <trkpt lat="43.52678" lon="6.55889">
        <ele>256</ele>
        <time>2025-10-28T10:35:05.000Z</time>
      </trkpt>
      <trkpt lat="43.52678" lon="6.55889">
        <ele>256</ele>
        <time>2025-10-28T10:35:06.000Z</time>
      </trkpt>
      <trkpt lat="43.52678" lon="6.55889">
        <ele>255.9</ele>
        <time>2025-10-28T10:35:07.000Z</time>
      </trkpt>
      <trkpt lat="43.52678" lon="6.55889">
        <ele>255.9</ele>
        <time>2025-10-28T10:35:08.000Z</time>
      </trkpt>
      <trkpt lat="43.52678" lon="6.55889">
        <ele>255.8</ele>
        <time>2025-10-28T10:35:09.000Z</time>
      </trkpt>
      <trkpt lat="43.52678" lon="6.55889">
        <ele>255.8</ele>
        <time>2025-10-28T10:35:10.000Z</time>
      </trkpt>
      <trkpt lat="43.52678" lon="6.55889">
        <ele>255.8</ele>
        <time>2025-10-28T10:35:11.000Z</time>
      </trkpt>
      <trkpt lat="43.52678" lon="6.55889">
        <ele>255.7</ele>
        <time>2025-10-28T10:35:12.000Z</time>
      </trkpt>
      <trkpt lat="43.52678" lon="6.55889">
        <ele>255.7</ele>
        <time>2025-10-28T10:35:13.000Z</time>
      </trkpt>
      <trkpt lat="43.52677" lon="6.55889">
        <ele>255.6</ele>
        <time>2025-10-28T10:35:14.000Z</time>
      </trkpt>
      <trkpt lat="43.52677" lon="6.55889">
        <ele>255.6</ele>
        <time>2025-10-28T10:35:15.000Z</time>
      </trkpt>
      <trkpt lat="43.52677" lon="6.55889">
        <ele>255.6</ele>
        <time>2025-10-28T10:35:16.000Z</time>
      </trkpt>
      <trkpt lat="43.52677" lon="6.55889">
        <ele>255.5</ele>
        <time>2025-10-28T10:35:17.000Z</time>
      </trkpt>
      <trkpt lat="43.52677" lon="6.55889">
        <ele>255.2</ele>
        <time>2025-10-28T10:35:18.000Z</time>
      </trkpt>
      <trkpt lat="43.52677" lon="6.55889">
        <ele>255.2</ele>
        <time>2025-10-28T10:35:19.000Z</time>
      </trkpt>
      <trkpt lat="43.52677" lon="6.55889">
        <ele>255.2</ele>
        <time>2025-10-28T10:35:20.000Z</time>
      </trkpt>
      <trkpt lat="43.52677" lon="6.55889">
        <ele>255.1</ele>
        <time>2025-10-28T10:35:21.000Z</time>
      </trkpt>
      <trkpt lat="43.52677" lon="6.55889">
        <ele>255.1</ele>
        <time>2025-10-28T10:35:22.000Z</time>
      </trkpt>
      <trkpt lat="43.52677" lon="6.55889">
        <ele>255</ele>
        <time>2025-10-28T10:35:23.000Z</time>
      </trkpt>
      <trkpt lat="43.52676" lon="6.55889">
        <ele>255</ele>
        <time>2025-10-28T10:35:24.000Z</time>
      </trkpt>
      <trkpt lat="43.52676" lon="6.55889">
        <ele>255</ele>
        <time>2025-10-28T10:35:25.000Z</time>
      </trkpt>
      <trkpt lat="43.52676" lon="6.55889">
        <ele>254.9</ele>
        <time>2025-10-28T10:35:26.000Z</time>
      </trkpt>
      <trkpt lat="43.52672" lon="6.5589">
        <ele>254.6</ele>
        <time>2025-10-28T10:35:27.000Z</time>
      </trkpt>
      <trkpt lat="43.52667" lon="6.5589">
        <ele>254.1</ele>
        <time>2025-10-28T10:35:28.000Z</time>
      </trkpt>
      <trkpt lat="43.52665" lon="6.55889">
        <ele>254</ele>
        <time>2025-10-28T10:35:29.000Z</time>
      </trkpt>
      <trkpt lat="43.52663" lon="6.55887">
        <ele>254.7</ele>
        <time>2025-10-28T10:35:30.000Z</time>
      </trkpt>
      <trkpt lat="43.5266" lon="6.55884">
        <ele>256</ele>
        <time>2025-10-28T10:35:31.000Z</time>
      </trkpt>
      <trkpt lat="43.52657" lon="6.5588">
        <ele>255.7</ele>
        <time>2025-10-28T10:35:32.000Z</time>
      </trkpt>
      <trkpt lat="43.52655" lon="6.55879">
        <ele>256.4</ele>
        <time>2025-10-28T10:35:33.000Z</time>
      </trkpt>
      <trkpt lat="43.52652" lon="6.55879">
        <ele>256.4</ele>
        <time>2025-10-28T10:35:34.000Z</time>
      </trkpt>
      <trkpt lat="43.5265" lon="6.5588">
        <ele>255.1</ele>
        <time>2025-10-28T10:35:35.000Z</time>
      </trkpt>
      <trkpt lat="43.52647" lon="6.55883">
        <ele>254.8</ele>
        <time>2025-10-28T10:35:36.000Z</time>
      </trkpt>
      <trkpt lat="43.52643" lon="6.55885">
        <ele>252.7</ele>
        <time>2025-10-28T10:35:37.000Z</time>
      </trkpt>
      <trkpt lat="43.52639" lon="6.55887">
        <ele>251.9</ele>
        <time>2025-10-28T10:35:38.000Z</time>
      </trkpt>
      <trkpt lat="43.52636" lon="6.55889">
        <ele>250.4</ele>
        <time>2025-10-28T10:35:39.000Z</time>
      </trkpt>
      <trkpt lat="43.52633" lon="6.55891">
        <ele>250</ele>
        <time>2025-10-28T10:35:40.000Z</time>
      </trkpt>
      <trkpt lat="43.52629" lon="6.55893">
        <ele>248.6</ele>
        <time>2025-10-28T10:35:41.000Z</time>
      </trkpt>
      <trkpt lat="43.52625" lon="6.55894">
        <ele>248.3</ele>
        <time>2025-10-28T10:35:42.000Z</time>
      </trkpt>
      <trkpt lat="43.52621" lon="6.55894">
        <ele>247.7</ele>
        <time>2025-10-28T10:35:43.000Z</time>
      </trkpt>
      <trkpt lat="43.52617" lon="6.55894">
        <ele>247.4</ele>
        <time>2025-10-28T10:35:44.000Z</time>
      </trkpt>
      <trkpt lat="43.52613" lon="6.55895">
        <ele>247.1</ele>
        <time>2025-10-28T10:35:45.000Z</time>
      </trkpt>
      <trkpt lat="43.52608" lon="6.55895">
        <ele>246.6</ele>
        <time>2025-10-28T10:35:46.000Z</time>
      </trkpt>
      <trkpt lat="43.52603" lon="6.55894">
        <ele>246.4</ele>
        <time>2025-10-28T10:35:47.000Z</time>
      </trkpt>
      <trkpt lat="43.52599" lon="6.55893">
        <ele>245.9</ele>
        <time>2025-10-28T10:35:48.000Z</time>
      </trkpt>
      <trkpt lat="43.52595" lon="6.55892">
        <ele>246.7</ele>
        <time>2025-10-28T10:35:49.000Z</time>
      </trkpt>
      <trkpt lat="43.52591" lon="6.55891">
        <ele>246.5</ele>
        <time>2025-10-28T10:35:50.000Z</time>
      </trkpt>
      <trkpt lat="43.52589" lon="6.5589">
        <ele>246.2</ele>
        <time>2025-10-28T10:35:51.000Z</time>
      </trkpt>
      <trkpt lat="43.52585" lon="6.55889">
        <ele>245.9</ele>
        <time>2025-10-28T10:35:52.000Z</time>
      </trkpt>
      <trkpt lat="43.52582" lon="6.55889">
        <ele>245.6</ele>
        <time>2025-10-28T10:35:53.000Z</time>
      </trkpt>
      <trkpt lat="43.52578" lon="6.55888">
        <ele>246.5</ele>
        <time>2025-10-28T10:35:54.000Z</time>
      </trkpt>
      <trkpt lat="43.52574" lon="6.55888">
        <ele>244.9</ele>
        <time>2025-10-28T10:35:55.000Z</time>
      </trkpt>
      <trkpt lat="43.52571" lon="6.5589">
        <ele>244.6</ele>
        <time>2025-10-28T10:35:56.000Z</time>
      </trkpt>
      <trkpt lat="43.52569" lon="6.55892">
        <ele>244.6</ele>
        <time>2025-10-28T10:35:57.000Z</time>
      </trkpt>
      <trkpt lat="43.52566" lon="6.55895">
        <ele>243.3</ele>
        <time>2025-10-28T10:35:58.000Z</time>
      </trkpt>
      <trkpt lat="43.52564" lon="6.55898">
        <ele>242</ele>
        <time>2025-10-28T10:35:59.000Z</time>
      </trkpt>
      <trkpt lat="43.52562" lon="6.55901">
        <ele>242</ele>
        <time>2025-10-28T10:36:00.000Z</time>
      </trkpt>
      <trkpt lat="43.5256" lon="6.55904">
        <ele>240.7</ele>
        <time>2025-10-28T10:36:01.000Z</time>
      </trkpt>
      <trkpt lat="43.52559" lon="6.55907">
        <ele>239.5</ele>
        <time>2025-10-28T10:36:02.000Z</time>
      </trkpt>
      <trkpt lat="43.52557" lon="6.55909">
        <ele>239.5</ele>
        <time>2025-10-28T10:36:03.000Z</time>
      </trkpt>
      <trkpt lat="43.52554" lon="6.55913">
        <ele>238.2</ele>
        <time>2025-10-28T10:36:04.000Z</time>
      </trkpt>
      <trkpt lat="43.52552" lon="6.55915">
        <ele>236.9</ele>
        <time>2025-10-28T10:36:05.000Z</time>
      </trkpt>
      <trkpt lat="43.5255" lon="6.55919">
        <ele>235.7</ele>
        <time>2025-10-28T10:36:06.000Z</time>
      </trkpt>
      <trkpt lat="43.52547" lon="6.55923">
        <ele>234.4</ele>
        <time>2025-10-28T10:36:07.000Z</time>
      </trkpt>
      <trkpt lat="43.52544" lon="6.55926">
        <ele>234.3</ele>
        <time>2025-10-28T10:36:08.000Z</time>
      </trkpt>
      <trkpt lat="43.52541" lon="6.55928">
        <ele>233.1</ele>
        <time>2025-10-28T10:36:09.000Z</time>
      </trkpt>
      <trkpt lat="43.52539" lon="6.55931">
        <ele>233.1</ele>
        <time>2025-10-28T10:36:10.000Z</time>
      </trkpt>
      <trkpt lat="43.52536" lon="6.55933">
        <ele>232</ele>
        <time>2025-10-28T10:36:11.000Z</time>
      </trkpt>
      <trkpt lat="43.52533" lon="6.55936">
        <ele>231</ele>
        <time>2025-10-28T10:36:12.000Z</time>
      </trkpt>
      <trkpt lat="43.5253" lon="6.55938">
        <ele>230.9</ele>
        <time>2025-10-28T10:36:13.000Z</time>
      </trkpt>
      <trkpt lat="43.52527" lon="6.55941">
        <ele>229.9</ele>
        <time>2025-10-28T10:36:14.000Z</time>
      </trkpt>
      <trkpt lat="43.52525" lon="6.55943">
        <ele>229.9</ele>
        <time>2025-10-28T10:36:15.000Z</time>
      </trkpt>
      <trkpt lat="43.52522" lon="6.55946">
        <ele>228.9</ele>
        <time>2025-10-28T10:36:16.000Z</time>
      </trkpt>
      <trkpt lat="43.5252" lon="6.55949">
        <ele>228</ele>
        <time>2025-10-28T10:36:17.000Z</time>
      </trkpt>
      <trkpt lat="43.52517" lon="6.55952">
        <ele>227.9</ele>
        <time>2025-10-28T10:36:18.000Z</time>
      </trkpt>
      <trkpt lat="43.52513" lon="6.55956">
        <ele>227</ele>
        <time>2025-10-28T10:36:19.000Z</time>
      </trkpt>
      <trkpt lat="43.5251" lon="6.55959">
        <ele>226</ele>
        <time>2025-10-28T10:36:20.000Z</time>
      </trkpt>
      <trkpt lat="43.52507" lon="6.55963">
        <ele>225</ele>
        <time>2025-10-28T10:36:21.000Z</time>
      </trkpt>
      <trkpt lat="43.52503" lon="6.55966">
        <ele>224</ele>
        <time>2025-10-28T10:36:22.000Z</time>
      </trkpt>
      <trkpt lat="43.52498" lon="6.55969">
        <ele>224</ele>
        <time>2025-10-28T10:36:23.000Z</time>
      </trkpt>
      <trkpt lat="43.52494" lon="6.55972">
        <ele>223.1</ele>
        <time>2025-10-28T10:36:24.000Z</time>
      </trkpt>
      <trkpt lat="43.5249" lon="6.55975">
        <ele>222.3</ele>
        <time>2025-10-28T10:36:25.000Z</time>
      </trkpt>
      <trkpt lat="43.52486" lon="6.55976">
        <ele>222.3</ele>
        <time>2025-10-28T10:36:26.000Z</time>
      </trkpt>
      <trkpt lat="43.52483" lon="6.55978">
        <ele>222.3</ele>
        <time>2025-10-28T10:36:27.000Z</time>
      </trkpt>
      <trkpt lat="43.52481" lon="6.55978">
        <ele>222.3</ele>
        <time>2025-10-28T10:36:28.000Z</time>
      </trkpt>
      <trkpt lat="43.52479" lon="6.55979">
        <ele>221.4</ele>
        <time>2025-10-28T10:36:29.000Z</time>
      </trkpt>
      <trkpt lat="43.52478" lon="6.5598">
        <ele>221.4</ele>
        <time>2025-10-28T10:36:30.000Z</time>
      </trkpt>
      <trkpt lat="43.52476" lon="6.55981">
        <ele>221.3</ele>
        <time>2025-10-28T10:36:31.000Z</time>
      </trkpt>
      <trkpt lat="43.52474" lon="6.55982">
        <ele>221.3</ele>
        <time>2025-10-28T10:36:32.000Z</time>
      </trkpt>
      <trkpt lat="43.52471" lon="6.55984">
        <ele>220.4</ele>
        <time>2025-10-28T10:36:33.000Z</time>
      </trkpt>
      <trkpt lat="43.52468" lon="6.55986">
        <ele>220.3</ele>
        <time>2025-10-28T10:36:34.000Z</time>
      </trkpt>
      <trkpt lat="43.52465" lon="6.55988">
        <ele>219.4</ele>
        <time>2025-10-28T10:36:35.000Z</time>
      </trkpt>
      <trkpt lat="43.52461" lon="6.55989">
        <ele>219.3</ele>
        <time>2025-10-28T10:36:36.000Z</time>
      </trkpt>
      <trkpt lat="43.52456" lon="6.5599">
        <ele>219.3</ele>
        <time>2025-10-28T10:36:37.000Z</time>
      </trkpt>
      <trkpt lat="43.52452" lon="6.55991">
        <ele>218.3</ele>
        <time>2025-10-28T10:36:38.000Z</time>
      </trkpt>
      <trkpt lat="43.52448" lon="6.55992">
        <ele>218.3</ele>
        <time>2025-10-28T10:36:39.000Z</time>
      </trkpt>
      <trkpt lat="43.52445" lon="6.55993">
        <ele>218.2</ele>
        <time>2025-10-28T10:36:40.000Z</time>
      </trkpt>
      <trkpt lat="43.52441" lon="6.55994">
        <ele>218.2</ele>
        <time>2025-10-28T10:36:41.000Z</time>
      </trkpt>
      <trkpt lat="43.52438" lon="6.55995">
        <ele>218.1</ele>
        <time>2025-10-28T10:36:42.000Z</time>
      </trkpt>
      <trkpt lat="43.52434" lon="6.55996">
        <ele>217</ele>
        <time>2025-10-28T10:36:43.000Z</time>
      </trkpt>
      <trkpt lat="43.52431" lon="6.55997">
        <ele>216.9</ele>
        <time>2025-10-28T10:36:44.000Z</time>
      </trkpt>
      <trkpt lat="43.52428" lon="6.55998">
        <ele>216.9</ele>
        <time>2025-10-28T10:36:45.000Z</time>
      </trkpt>
      <trkpt lat="43.52423" lon="6.55997">
        <ele>216.7</ele>
        <time>2025-10-28T10:36:46.000Z</time>
      </trkpt>
      <trkpt lat="43.52419" lon="6.55996">
        <ele>216.5</ele>
        <time>2025-10-28T10:36:47.000Z</time>
      </trkpt>
      <trkpt lat="43.52415" lon="6.55994">
        <ele>217.4</ele>
        <time>2025-10-28T10:36:48.000Z</time>
      </trkpt>
      <trkpt lat="43.52411" lon="6.55993">
        <ele>217.3</ele>
        <time>2025-10-28T10:36:49.000Z</time>
      </trkpt>
      <trkpt lat="43.52407" lon="6.55991">
        <ele>218.1</ele>
        <time>2025-10-28T10:36:50.000Z</time>
      </trkpt>
      <trkpt lat="43.52403" lon="6.55989">
        <ele>217.8</ele>
        <time>2025-10-28T10:36:51.000Z</time>
      </trkpt>
      <trkpt lat="43.524" lon="6.55987">
        <ele>217.7</ele>
        <time>2025-10-28T10:36:52.000Z</time>
      </trkpt>
      <trkpt lat="43.52396" lon="6.55986">
        <ele>218.5</ele>
        <time>2025-10-28T10:36:53.000Z</time>
      </trkpt>
      <trkpt lat="43.52392" lon="6.55984">
        <ele>218.3</ele>
        <time>2025-10-28T10:36:54.000Z</time>
      </trkpt>
      <trkpt lat="43.52389" lon="6.55983">
        <ele>218.2</ele>
        <time>2025-10-28T10:36:55.000Z</time>
      </trkpt>
      <trkpt lat="43.52385" lon="6.55982">
        <ele>219</ele>
        <time>2025-10-28T10:36:56.000Z</time>
      </trkpt>
      <trkpt lat="43.52381" lon="6.55981">
        <ele>218.9</ele>
        <time>2025-10-28T10:36:57.000Z</time>
      </trkpt>
      <trkpt lat="43.52377" lon="6.55979">
        <ele>218.8</ele>
        <time>2025-10-28T10:36:58.000Z</time>
      </trkpt>
      <trkpt lat="43.52372" lon="6.55978">
        <ele>218.6</ele>
        <time>2025-10-28T10:36:59.000Z</time>
      </trkpt>
      <trkpt lat="43.52367" lon="6.55978">
        <ele>219.6</ele>
        <time>2025-10-28T10:37:00.000Z</time>
      </trkpt>
      <trkpt lat="43.52361" lon="6.55977">
        <ele>219.4</ele>
        <time>2025-10-28T10:37:01.000Z</time>
      </trkpt>
      <trkpt lat="43.52355" lon="6.55977">
        <ele>219.2</ele>
        <time>2025-10-28T10:37:02.000Z</time>
      </trkpt>
      <trkpt lat="43.52351" lon="6.55978">
        <ele>219</ele>
        <time>2025-10-28T10:37:03.000Z</time>
      </trkpt>
      <trkpt lat="43.52344" lon="6.55979">
        <ele>217.7</ele>
        <time>2025-10-28T10:37:04.000Z</time>
      </trkpt>
      <trkpt lat="43.5234" lon="6.55981">
        <ele>217.4</ele>
        <time>2025-10-28T10:37:05.000Z</time>
      </trkpt>
      <trkpt lat="43.52335" lon="6.55982">
        <ele>217.2</ele>
        <time>2025-10-28T10:37:06.000Z</time>
      </trkpt>
      <trkpt lat="43.52331" lon="6.55984">
        <ele>215.8</ele>
        <time>2025-10-28T10:37:07.000Z</time>
      </trkpt>
      <trkpt lat="43.52327" lon="6.55985">
        <ele>215.6</ele>
        <time>2025-10-28T10:37:08.000Z</time>
      </trkpt>
      <trkpt lat="43.52324" lon="6.55986">
        <ele>215.4</ele>
        <time>2025-10-28T10:37:09.000Z</time>
      </trkpt>
      <trkpt lat="43.52321" lon="6.55986">
        <ele>215.3</ele>
        <time>2025-10-28T10:37:10.000Z</time>
      </trkpt>
      <trkpt lat="43.52318" lon="6.55986">
        <ele>215.1</ele>
        <time>2025-10-28T10:37:11.000Z</time>
      </trkpt>
      <trkpt lat="43.52315" lon="6.55985">
        <ele>214.9</ele>
        <time>2025-10-28T10:37:12.000Z</time>
      </trkpt>
      <trkpt lat="43.52312" lon="6.55985">
        <ele>214.8</ele>
        <time>2025-10-28T10:37:13.000Z</time>
      </trkpt>
      <trkpt lat="43.52309" lon="6.55985">
        <ele>214.7</ele>
        <time>2025-10-28T10:37:14.000Z</time>
      </trkpt>
      <trkpt lat="43.52307" lon="6.55985">
        <ele>214.5</ele>
        <time>2025-10-28T10:37:15.000Z</time>
      </trkpt>
      <trkpt lat="43.52303" lon="6.55985">
        <ele>214.4</ele>
        <time>2025-10-28T10:37:16.000Z</time>
      </trkpt>
      <trkpt lat="43.523" lon="6.55986">
        <ele>214.3</ele>
        <time>2025-10-28T10:37:17.000Z</time>
      </trkpt>
      <trkpt lat="43.52297" lon="6.55986">
        <ele>214.2</ele>
        <time>2025-10-28T10:37:18.000Z</time>
      </trkpt>
      <trkpt lat="43.52293" lon="6.55988">
        <ele>213.2</ele>
        <time>2025-10-28T10:37:19.000Z</time>
      </trkpt>
      <trkpt lat="43.52289" lon="6.55989">
        <ele>213.1</ele>
        <time>2025-10-28T10:37:20.000Z</time>
      </trkpt>
      <trkpt lat="43.52286" lon="6.55992">
        <ele>212</ele>
        <time>2025-10-28T10:37:21.000Z</time>
      </trkpt>
      <trkpt lat="43.52282" lon="6.55994">
        <ele>211.8</ele>
        <time>2025-10-28T10:37:22.000Z</time>
      </trkpt>
      <trkpt lat="43.52278" lon="6.55996">
        <ele>210.6</ele>
        <time>2025-10-28T10:37:23.000Z</time>
      </trkpt>
      <trkpt lat="43.52274" lon="6.55998">
        <ele>210.5</ele>
        <time>2025-10-28T10:37:24.000Z</time>
      </trkpt>
      <trkpt lat="43.5227" lon="6.56">
        <ele>209.2</ele>
        <time>2025-10-28T10:37:25.000Z</time>
      </trkpt>
      <trkpt lat="43.52266" lon="6.56001">
        <ele>209</ele>
        <time>2025-10-28T10:37:26.000Z</time>
      </trkpt>
      <trkpt lat="43.52263" lon="6.56003">
        <ele>208.9</ele>
        <time>2025-10-28T10:37:27.000Z</time>
      </trkpt>
      <trkpt lat="43.5226" lon="6.56005">
        <ele>207.4</ele>
        <time>2025-10-28T10:37:28.000Z</time>
      </trkpt>
      <trkpt lat="43.52255" lon="6.56007">
        <ele>207.3</ele>
        <time>2025-10-28T10:37:29.000Z</time>
      </trkpt>
      <trkpt lat="43.52251" lon="6.56009">
        <ele>205.7</ele>
        <time>2025-10-28T10:37:30.000Z</time>
      </trkpt>
      <trkpt lat="43.52246" lon="6.56011">
        <ele>205.6</ele>
        <time>2025-10-28T10:37:31.000Z</time>
      </trkpt>
      <trkpt lat="43.52243" lon="6.56013">
        <ele>204.2</ele>
        <time>2025-10-28T10:37:32.000Z</time>
      </trkpt>
      <trkpt lat="43.52239" lon="6.56015">
        <ele>204.1</ele>
        <time>2025-10-28T10:37:33.000Z</time>
      </trkpt>
      <trkpt lat="43.52233" lon="6.56019">
        <ele>202.7</ele>
        <time>2025-10-28T10:37:34.000Z</time>
      </trkpt>
      <trkpt lat="43.52228" lon="6.56021">
        <ele>202.6</ele>
        <time>2025-10-28T10:37:35.000Z</time>
      </trkpt>
      <trkpt lat="43.52222" lon="6.56023">
        <ele>201.3</ele>
        <time>2025-10-28T10:37:36.000Z</time>
      </trkpt>
      <trkpt lat="43.52217" lon="6.56025">
        <ele>201.3</ele>
        <time>2025-10-28T10:37:37.000Z</time>
      </trkpt>
      <trkpt lat="43.52212" lon="6.56027">
        <ele>200.1</ele>
        <time>2025-10-28T10:37:38.000Z</time>
      </trkpt>
      <trkpt lat="43.52207" lon="6.56029">
        <ele>200</ele>
        <time>2025-10-28T10:37:39.000Z</time>
      </trkpt>
      <trkpt lat="43.52202" lon="6.56031">
        <ele>198.8</ele>
        <time>2025-10-28T10:37:40.000Z</time>
      </trkpt>
      <trkpt lat="43.52197" lon="6.56033">
        <ele>198.6</ele>
        <time>2025-10-28T10:37:41.000Z</time>
      </trkpt>
      <trkpt lat="43.52191" lon="6.56036">
        <ele>197.3</ele>
        <time>2025-10-28T10:37:42.000Z</time>
      </trkpt>
      <trkpt lat="43.52186" lon="6.56039">
        <ele>196.1</ele>
        <time>2025-10-28T10:37:43.000Z</time>
      </trkpt>
      <trkpt lat="43.52181" lon="6.56042">
        <ele>196.2</ele>
        <time>2025-10-28T10:37:44.000Z</time>
      </trkpt>
      <trkpt lat="43.52177" lon="6.56045">
        <ele>195</ele>
        <time>2025-10-28T10:37:45.000Z</time>
      </trkpt>
      <trkpt lat="43.52172" lon="6.56048">
        <ele>194</ele>
        <time>2025-10-28T10:37:46.000Z</time>
      </trkpt>
      <trkpt lat="43.52168" lon="6.56052">
        <ele>192.8</ele>
        <time>2025-10-28T10:37:47.000Z</time>
      </trkpt>
      <trkpt lat="43.52163" lon="6.56055">
        <ele>193.2</ele>
        <time>2025-10-28T10:37:48.000Z</time>
      </trkpt>
      <trkpt lat="43.52158" lon="6.56058">
        <ele>192</ele>
        <time>2025-10-28T10:37:49.000Z</time>
      </trkpt>
      <trkpt lat="43.52153" lon="6.56061">
        <ele>191.1</ele>
        <time>2025-10-28T10:37:50.000Z</time>
      </trkpt>
      <trkpt lat="43.52148" lon="6.56063">
        <ele>191.4</ele>
        <time>2025-10-28T10:37:51.000Z</time>
      </trkpt>
      <trkpt lat="43.52142" lon="6.56065">
        <ele>190.3</ele>
        <time>2025-10-28T10:37:52.000Z</time>
      </trkpt>
      <trkpt lat="43.52137" lon="6.56067">
        <ele>190.6</ele>
        <time>2025-10-28T10:37:53.000Z</time>
      </trkpt>
      <trkpt lat="43.52131" lon="6.56069">
        <ele>189.7</ele>
        <time>2025-10-28T10:37:54.000Z</time>
      </trkpt>
      <trkpt lat="43.52125" lon="6.56071">
        <ele>189.9</ele>
        <time>2025-10-28T10:37:55.000Z</time>
      </trkpt>
      <trkpt lat="43.52119" lon="6.56074">
        <ele>188.9</ele>
        <time>2025-10-28T10:37:56.000Z</time>
      </trkpt>
      <trkpt lat="43.52113" lon="6.56076">
        <ele>188.8</ele>
        <time>2025-10-28T10:37:57.000Z</time>
      </trkpt>
      <trkpt lat="43.52106" lon="6.56077">
        <ele>187.6</ele>
        <time>2025-10-28T10:37:58.000Z</time>
      </trkpt>
      <trkpt lat="43.521" lon="6.5608">
        <ele>187.3</ele>
        <time>2025-10-28T10:37:59.000Z</time>
      </trkpt>
      <trkpt lat="43.52094" lon="6.56081">
        <ele>186.1</ele>
        <time>2025-10-28T10:38:00.000Z</time>
      </trkpt>
      <trkpt lat="43.52089" lon="6.56083">
        <ele>185.9</ele>
        <time>2025-10-28T10:38:01.000Z</time>
      </trkpt>
      <trkpt lat="43.52086" lon="6.56084">
        <ele>185.5</ele>
        <time>2025-10-28T10:38:02.000Z</time>
      </trkpt>
      <trkpt lat="43.52083" lon="6.56084">
        <ele>185.5</ele>
        <time>2025-10-28T10:38:03.000Z</time>
      </trkpt>
      <trkpt lat="43.5208" lon="6.56084">
        <ele>185.2</ele>
        <time>2025-10-28T10:38:04.000Z</time>
      </trkpt>
      <trkpt lat="43.52077" lon="6.56083">
        <ele>184.9</ele>
        <time>2025-10-28T10:38:05.000Z</time>
      </trkpt>
      <trkpt lat="43.52076" lon="6.56082">
        <ele>184.5</ele>
        <time>2025-10-28T10:38:06.000Z</time>
      </trkpt>
      <trkpt lat="43.52074" lon="6.5608">
        <ele>185.4</ele>
        <time>2025-10-28T10:38:07.000Z</time>
      </trkpt>
      <trkpt lat="43.52071" lon="6.56078">
        <ele>185</ele>
        <time>2025-10-28T10:38:08.000Z</time>
      </trkpt>
      <trkpt lat="43.52069" lon="6.56075">
        <ele>185.5</ele>
        <time>2025-10-28T10:38:09.000Z</time>
      </trkpt>
      <trkpt lat="43.52066" lon="6.56072">
        <ele>186</ele>
        <time>2025-10-28T10:38:10.000Z</time>
      </trkpt>
      <trkpt lat="43.52063" lon="6.56068">
        <ele>186.5</ele>
        <time>2025-10-28T10:38:11.000Z</time>
      </trkpt>
      <trkpt lat="43.52059" lon="6.56064">
        <ele>186.9</ele>
        <time>2025-10-28T10:38:12.000Z</time>
      </trkpt>
      <trkpt lat="43.52055" lon="6.56059">
        <ele>187.2</ele>
        <time>2025-10-28T10:38:13.000Z</time>
      </trkpt>
      <trkpt lat="43.5205" lon="6.56055">
        <ele>186.7</ele>
        <time>2025-10-28T10:38:14.000Z</time>
      </trkpt>
      <trkpt lat="43.52045" lon="6.56051">
        <ele>186.2</ele>
        <time>2025-10-28T10:38:15.000Z</time>
      </trkpt>
      <trkpt lat="43.5204" lon="6.56046">
        <ele>186.2</ele>
        <time>2025-10-28T10:38:16.000Z</time>
      </trkpt>
      <trkpt lat="43.52035" lon="6.56042">
        <ele>185.2</ele>
        <time>2025-10-28T10:38:17.000Z</time>
      </trkpt>
      <trkpt lat="43.5203" lon="6.56039">
        <ele>183.3</ele>
        <time>2025-10-28T10:38:18.000Z</time>
      </trkpt>
      <trkpt lat="43.52025" lon="6.56035">
        <ele>182.9</ele>
        <time>2025-10-28T10:38:19.000Z</time>
      </trkpt>
      <trkpt lat="43.52021" lon="6.56032">
        <ele>182.5</ele>
        <time>2025-10-28T10:38:20.000Z</time>
      </trkpt>
      <trkpt lat="43.52018" lon="6.56028">
        <ele>182.1</ele>
        <time>2025-10-28T10:38:21.000Z</time>
      </trkpt>
      <trkpt lat="43.52015" lon="6.56025">
        <ele>181.7</ele>
        <time>2025-10-28T10:38:22.000Z</time>
      </trkpt>
      <trkpt lat="43.52011" lon="6.56021">
        <ele>181.3</ele>
        <time>2025-10-28T10:38:23.000Z</time>
      </trkpt>
      <trkpt lat="43.52008" lon="6.56017">
        <ele>180.4</ele>
        <time>2025-10-28T10:38:24.000Z</time>
      </trkpt>
      <trkpt lat="43.52005" lon="6.56014">
        <ele>180</ele>
        <time>2025-10-28T10:38:25.000Z</time>
      </trkpt>
      <trkpt lat="43.52002" lon="6.5601">
        <ele>179.5</ele>
        <time>2025-10-28T10:38:26.000Z</time>
      </trkpt>
      <trkpt lat="43.51999" lon="6.56007">
        <ele>179.1</ele>
        <time>2025-10-28T10:38:27.000Z</time>
      </trkpt>
      <trkpt lat="43.51995" lon="6.56004">
        <ele>177.2</ele>
        <time>2025-10-28T10:38:28.000Z</time>
      </trkpt>
      <trkpt lat="43.51992" lon="6.56002">
        <ele>176.8</ele>
        <time>2025-10-28T10:38:29.000Z</time>
      </trkpt>
      <trkpt lat="43.51987" lon="6.55999">
        <ele>176.4</ele>
        <time>2025-10-28T10:38:30.000Z</time>
      </trkpt>
      <trkpt lat="43.51983" lon="6.55996">
        <ele>175.5</ele>
        <time>2025-10-28T10:38:31.000Z</time>
      </trkpt>
      <trkpt lat="43.5198" lon="6.55993">
        <ele>174.1</ele>
        <time>2025-10-28T10:38:32.000Z</time>
      </trkpt>
      <trkpt lat="43.51976" lon="6.5599">
        <ele>173.6</ele>
        <time>2025-10-28T10:38:33.000Z</time>
      </trkpt>
      <trkpt lat="43.51972" lon="6.55987">
        <ele>173.1</ele>
        <time>2025-10-28T10:38:34.000Z</time>
      </trkpt>
      <trkpt lat="43.51968" lon="6.55983">
        <ele>172.2</ele>
        <time>2025-10-28T10:38:35.000Z</time>
      </trkpt>
      <trkpt lat="43.51964" lon="6.55979">
        <ele>171</ele>
        <time>2025-10-28T10:38:36.000Z</time>
      </trkpt>
      <trkpt lat="43.5196" lon="6.55976">
        <ele>170.7</ele>
        <time>2025-10-28T10:38:37.000Z</time>
      </trkpt>
      <trkpt lat="43.51955" lon="6.55971">
        <ele>170.6</ele>
        <time>2025-10-28T10:38:38.000Z</time>
      </trkpt>
      <trkpt lat="43.51951" lon="6.55967">
        <ele>169.8</ele>
        <time>2025-10-28T10:38:39.000Z</time>
      </trkpt>
      <trkpt lat="43.51946" lon="6.55963">
        <ele>169</ele>
        <time>2025-10-28T10:38:40.000Z</time>
      </trkpt>
      <trkpt lat="43.5194" lon="6.55957">
        <ele>168.8</ele>
        <time>2025-10-28T10:38:41.000Z</time>
      </trkpt>
      <trkpt lat="43.51936" lon="6.55953">
        <ele>168.1</ele>
        <time>2025-10-28T10:38:42.000Z</time>
      </trkpt>
      <trkpt lat="43.51932" lon="6.55949">
        <ele>168.2</ele>
        <time>2025-10-28T10:38:43.000Z</time>
      </trkpt>
      <trkpt lat="43.51928" lon="6.55945">
        <ele>168.2</ele>
        <time>2025-10-28T10:38:44.000Z</time>
      </trkpt>
      <trkpt lat="43.51924" lon="6.55939">
        <ele>168.9</ele>
        <time>2025-10-28T10:38:45.000Z</time>
      </trkpt>
      <trkpt lat="43.5192" lon="6.55934">
        <ele>168.7</ele>
        <time>2025-10-28T10:38:46.000Z</time>
      </trkpt>
      <trkpt lat="43.51917" lon="6.55929">
        <ele>168.8</ele>
        <time>2025-10-28T10:38:47.000Z</time>
      </trkpt>
      <trkpt lat="43.51913" lon="6.55922">
        <ele>169.5</ele>
        <time>2025-10-28T10:38:48.000Z</time>
      </trkpt>
      <trkpt lat="43.5191" lon="6.55915">
        <ele>169.7</ele>
        <time>2025-10-28T10:38:49.000Z</time>
      </trkpt>
      <trkpt lat="43.51907" lon="6.55908">
        <ele>170.4</ele>
        <time>2025-10-28T10:38:50.000Z</time>
      </trkpt>
      <trkpt lat="43.51904" lon="6.55901">
        <ele>171</ele>
        <time>2025-10-28T10:38:51.000Z</time>
      </trkpt>
      <trkpt lat="43.51901" lon="6.55894">
        <ele>171.3</ele>
        <time>2025-10-28T10:38:52.000Z</time>
      </trkpt>
      <trkpt lat="43.51898" lon="6.5589">
        <ele>171.5</ele>
        <time>2025-10-28T10:38:53.000Z</time>
      </trkpt>
      <trkpt lat="43.51896" lon="6.55887">
        <ele>171.8</ele>
        <time>2025-10-28T10:38:54.000Z</time>
      </trkpt>
      <trkpt lat="43.51893" lon="6.55884">
        <ele>171.7</ele>
        <time>2025-10-28T10:38:55.000Z</time>
      </trkpt>
      <trkpt lat="43.51891" lon="6.55883">
        <ele>172.3</ele>
        <time>2025-10-28T10:38:56.000Z</time>
      </trkpt>
      <trkpt lat="43.51888" lon="6.55882">
        <ele>172.1</ele>
        <time>2025-10-28T10:38:57.000Z</time>
      </trkpt>
      <trkpt lat="43.51885" lon="6.55882">
        <ele>172</ele>
        <time>2025-10-28T10:38:58.000Z</time>
      </trkpt>
      <trkpt lat="43.51882" lon="6.55885">
        <ele>171.2</ele>
        <time>2025-10-28T10:38:59.000Z</time>
      </trkpt>
      <trkpt lat="43.51879" lon="6.55889">
        <ele>170.8</ele>
        <time>2025-10-28T10:39:00.000Z</time>
      </trkpt>
      <trkpt lat="43.51877" lon="6.55893">
        <ele>170.4</ele>
        <time>2025-10-28T10:39:01.000Z</time>
      </trkpt>
      <trkpt lat="43.51874" lon="6.55898">
        <ele>170</ele>
        <time>2025-10-28T10:39:02.000Z</time>
      </trkpt>
      <trkpt lat="43.51872" lon="6.55903">
        <ele>169.6</ele>
        <time>2025-10-28T10:39:03.000Z</time>
      </trkpt>
      <trkpt lat="43.51869" lon="6.55908">
        <ele>169.1</ele>
        <time>2025-10-28T10:39:04.000Z</time>
      </trkpt>
      <trkpt lat="43.51867" lon="6.55912">
        <ele>168.6</ele>
        <time>2025-10-28T10:39:05.000Z</time>
      </trkpt>
      <trkpt lat="43.51864" lon="6.55917">
        <ele>168</ele>
        <time>2025-10-28T10:39:06.000Z</time>
      </trkpt>
      <trkpt lat="43.51862" lon="6.55922">
        <ele>167.4</ele>
        <time>2025-10-28T10:39:07.000Z</time>
      </trkpt>
      <trkpt lat="43.51859" lon="6.55925">
        <ele>166.7</ele>
        <time>2025-10-28T10:39:08.000Z</time>
      </trkpt>
      <trkpt lat="43.51857" lon="6.55927">
        <ele>166.1</ele>
        <time>2025-10-28T10:39:09.000Z</time>
      </trkpt>
      <trkpt lat="43.51856" lon="6.55929">
        <ele>166.1</ele>
        <time>2025-10-28T10:39:10.000Z</time>
      </trkpt>
      <trkpt lat="43.51855" lon="6.55929">
        <ele>166.1</ele>
        <time>2025-10-28T10:39:11.000Z</time>
      </trkpt>
      <trkpt lat="43.51855" lon="6.5593">
        <ele>166.1</ele>
        <time>2025-10-28T10:39:12.000Z</time>
      </trkpt>
      <trkpt lat="43.51855" lon="6.5593">
        <ele>166</ele>
        <time>2025-10-28T10:39:13.000Z</time>
      </trkpt>
      <trkpt lat="43.51855" lon="6.5593">
        <ele>166</ele>
        <time>2025-10-28T10:39:14.000Z</time>
      </trkpt>
      <trkpt lat="43.51855" lon="6.5593">
        <ele>165.9</ele>
        <time>2025-10-28T10:39:15.000Z</time>
      </trkpt>
      <trkpt lat="43.51855" lon="6.5593">
        <ele>165.9</ele>
        <time>2025-10-28T10:39:16.000Z</time>
      </trkpt>
      <trkpt lat="43.51855" lon="6.5593">
        <ele>165.9</ele>
        <time>2025-10-28T10:39:17.000Z</time>
      </trkpt>
      <trkpt lat="43.51855" lon="6.5593">
        <ele>165.8</ele>
        <time>2025-10-28T10:39:18.000Z</time>
      </trkpt>
      <trkpt lat="43.51856" lon="6.5593">
        <ele>165.8</ele>
        <time>2025-10-28T10:39:19.000Z</time>
      </trkpt>
      <trkpt lat="43.51856" lon="6.5593">
        <ele>165.7</ele>
        <time>2025-10-28T10:39:20.000Z</time>
      </trkpt>
      <trkpt lat="43.51856" lon="6.55929">
        <ele>165.6</ele>
        <time>2025-10-28T10:39:21.000Z</time>
      </trkpt>
      <trkpt lat="43.51856" lon="6.55929">
        <ele>165.6</ele>
        <time>2025-10-28T10:39:22.000Z</time>
      </trkpt>
      <trkpt lat="43.51856" lon="6.5593">
        <ele>165.5</ele>
        <time>2025-10-28T10:39:23.000Z</time>
      </trkpt>
      <trkpt lat="43.51856" lon="6.5593">
        <ele>165.5</ele>
        <time>2025-10-28T10:39:24.000Z</time>
      </trkpt>
      <trkpt lat="43.51856" lon="6.5593">
        <ele>165.5</ele>
        <time>2025-10-28T10:39:25.000Z</time>
      </trkpt>
      <trkpt lat="43.51856" lon="6.5593">
        <ele>165.4</ele>
        <time>2025-10-28T10:39:26.000Z</time>
      </trkpt>
      <trkpt lat="43.51856" lon="6.5593">
        <ele>165.4</ele>
        <time>2025-10-28T10:39:27.000Z</time>
      </trkpt>
      <trkpt lat="43.51856" lon="6.5593">
        <ele>165.3</ele>
        <time>2025-10-28T10:39:28.000Z</time>
      </trkpt>
      <trkpt lat="43.51856" lon="6.5593">
        <ele>165.3</ele>
        <time>2025-10-28T10:39:29.000Z</time>
      </trkpt>
      <trkpt lat="43.51856" lon="6.5593">
        <ele>165.3</ele>
        <time>2025-10-28T10:39:30.000Z</time>
      </trkpt>
      <trkpt lat="43.51856" lon="6.5593">
        <ele>165.2</ele>
        <time>2025-10-28T10:39:31.000Z</time>
      </trkpt>
      <trkpt lat="43.51856" lon="6.5593">
        <ele>165.2</ele>
        <time>2025-10-28T10:39:32.000Z</time>
      </trkpt>
      <trkpt lat="43.51856" lon="6.5593">
        <ele>165.1</ele>
        <time>2025-10-28T10:39:33.000Z</time>
      </trkpt>
      <trkpt lat="43.51856" lon="6.5593">
        <ele>165.1</ele>
        <time>2025-10-28T10:39:34.000Z</time>
      </trkpt>
      <trkpt lat="43.51856" lon="6.5593">
        <ele>165.1</ele>
        <time>2025-10-28T10:39:35.000Z</time>
      </trkpt>
      <trkpt lat="43.51856" lon="6.5593">
        <ele>165</ele>
        <time>2025-10-28T10:39:36.000Z</time>
      </trkpt>
      <trkpt lat="43.51856" lon="6.5593">
        <ele>165</ele>
        <time>2025-10-28T10:39:37.000Z</time>
      </trkpt>
      <trkpt lat="43.51856" lon="6.5593">
        <ele>164.9</ele>
        <time>2025-10-28T10:39:38.000Z</time>
      </trkpt>
      <trkpt lat="43.51856" lon="6.5593">
        <ele>164.9</ele>
        <time>2025-10-28T10:39:39.000Z</time>
      </trkpt>
      <trkpt lat="43.51856" lon="6.5593">
        <ele>164.8</ele>
        <time>2025-10-28T10:39:40.000Z</time>
      </trkpt>
      <trkpt lat="43.51856" lon="6.5593">
        <ele>164.8</ele>
        <time>2025-10-28T10:39:41.000Z</time>
      </trkpt>
      <trkpt lat="43.51856" lon="6.5593">
        <ele>164.8</ele>
        <time>2025-10-28T10:39:42.000Z</time>
      </trkpt>
      <trkpt lat="43.51856" lon="6.55929">
        <ele>164.7</ele>
        <time>2025-10-28T10:39:43.000Z</time>
      </trkpt>
      <trkpt lat="43.51856" lon="6.55929">
        <ele>164.7</ele>
        <time>2025-10-28T10:39:44.000Z</time>
      </trkpt>
      <trkpt lat="43.51856" lon="6.55929">
        <ele>164.6</ele>
        <time>2025-10-28T10:39:45.000Z</time>
      </trkpt>
      <trkpt lat="43.51856" lon="6.55929">
        <ele>164.6</ele>
        <time>2025-10-28T10:39:46.000Z</time>
      </trkpt>
      <trkpt lat="43.51856" lon="6.55929">
        <ele>164.6</ele>
        <time>2025-10-28T10:39:47.000Z</time>
      </trkpt>
      <trkpt lat="43.51856" lon="6.55929">
        <ele>164.5</ele>
        <time>2025-10-28T10:39:48.000Z</time>
      </trkpt>
      <trkpt lat="43.51856" lon="6.55929">
        <ele>164.5</ele>
        <time>2025-10-28T10:39:49.000Z</time>
      </trkpt>
      <trkpt lat="43.51856" lon="6.55929">
        <ele>164.4</ele>
        <time>2025-10-28T10:39:50.000Z</time>
      </trkpt>
      <trkpt lat="43.51856" lon="6.55929">
        <ele>164.4</ele>
        <time>2025-10-28T10:39:51.000Z</time>
      </trkpt>
      <trkpt lat="43.51856" lon="6.55929">
        <ele>164.4</ele>
        <time>2025-10-28T10:39:52.000Z</time>
      </trkpt>
      <trkpt lat="43.51856" lon="6.55929">
        <ele>164.3</ele>
        <time>2025-10-28T10:39:53.000Z</time>
      </trkpt>
      <trkpt lat="43.51856" lon="6.55929">
        <ele>164.3</ele>
        <time>2025-10-28T10:39:54.000Z</time>
      </trkpt>
      <trkpt lat="43.51856" lon="6.55929">
        <ele>164.2</ele>
        <time>2025-10-28T10:39:55.000Z</time>
      </trkpt>
      <trkpt lat="43.51856" lon="6.55929">
        <ele>164.2</ele>
        <time>2025-10-28T10:39:56.000Z</time>
      </trkpt>
      <trkpt lat="43.51857" lon="6.55929">
        <ele>164.2</ele>
        <time>2025-10-28T10:39:57.000Z</time>
      </trkpt>
      <trkpt lat="43.51857" lon="6.55929">
        <ele>164.1</ele>
        <time>2025-10-28T10:39:58.000Z</time>
      </trkpt>
      <trkpt lat="43.51857" lon="6.55929">
        <ele>164.1</ele>
        <time>2025-10-28T10:39:59.000Z</time>
      </trkpt>
      <trkpt lat="43.51857" lon="6.55929">
        <ele>164</ele>
        <time>2025-10-28T10:40:00.000Z</time>
      </trkpt>
      <trkpt lat="43.51857" lon="6.5593">
        <ele>164</ele>
        <time>2025-10-28T10:40:01.000Z</time>
      </trkpt>
      <trkpt lat="43.51857" lon="6.5593">
        <ele>164</ele>
        <time>2025-10-28T10:40:02.000Z</time>
      </trkpt>
      <trkpt lat="43.51857" lon="6.5593">
        <ele>163.9</ele>
        <time>2025-10-28T10:40:03.000Z</time>
      </trkpt>
      <trkpt lat="43.51857" lon="6.5593">
        <ele>163.9</ele>
        <time>2025-10-28T10:40:04.000Z</time>
      </trkpt>
      <trkpt lat="43.51857" lon="6.5593">
        <ele>163.8</ele>
        <time>2025-10-28T10:40:05.000Z</time>
      </trkpt>
      <trkpt lat="43.51857" lon="6.5593">
        <ele>163.8</ele>
        <time>2025-10-28T10:40:06.000Z</time>
      </trkpt>
      <trkpt lat="43.51857" lon="6.5593">
        <ele>163.8</ele>
        <time>2025-10-28T10:40:07.000Z</time>
      </trkpt>
      <trkpt lat="43.51857" lon="6.5593">
        <ele>163.7</ele>
        <time>2025-10-28T10:40:08.000Z</time>
      </trkpt>
      <trkpt lat="43.51857" lon="6.5593">
        <ele>163.7</ele>
        <time>2025-10-28T10:40:09.000Z</time>
      </trkpt>
      <trkpt lat="43.51857" lon="6.5593">
        <ele>163.6</ele>
        <time>2025-10-28T10:40:10.000Z</time>
      </trkpt>
      <trkpt lat="43.51857" lon="6.5593">
        <ele>163.6</ele>
        <time>2025-10-28T10:40:11.000Z</time>
      </trkpt>
      <trkpt lat="43.51858" lon="6.5593">
        <ele>163.5</ele>
        <time>2025-10-28T10:40:12.000Z</time>
      </trkpt>
      <trkpt lat="43.51858" lon="6.5593">
        <ele>163.5</ele>
        <time>2025-10-28T10:40:13.000Z</time>
      </trkpt>
      <trkpt lat="43.51858" lon="6.5593">
        <ele>163.5</ele>
        <time>2025-10-28T10:40:14.000Z</time>
      </trkpt>
      <trkpt lat="43.51858" lon="6.5593">
        <ele>163.4</ele>
        <time>2025-10-28T10:40:15.000Z</time>
      </trkpt>
      <trkpt lat="43.51858" lon="6.5593">
        <ele>163.4</ele>
        <time>2025-10-28T10:40:16.000Z</time>
      </trkpt>
      <trkpt lat="43.51858" lon="6.5593">
        <ele>163.3</ele>
        <time>2025-10-28T10:40:17.000Z</time>
      </trkpt>
      <trkpt lat="43.51858" lon="6.5593">
        <ele>163.3</ele>
        <time>2025-10-28T10:40:18.000Z</time>
      </trkpt>
      <trkpt lat="43.51858" lon="6.5593">
        <ele>163.3</ele>
        <time>2025-10-28T10:40:19.000Z</time>
      </trkpt>
      <trkpt lat="43.51858" lon="6.5593">
        <ele>163.2</ele>
        <time>2025-10-28T10:40:20.000Z</time>
      </trkpt>
      <trkpt lat="43.51858" lon="6.5593">
        <ele>163.2</ele>
        <time>2025-10-28T10:40:21.000Z</time>
      </trkpt>
      <trkpt lat="43.51858" lon="6.5593">
        <ele>163.1</ele>
        <time>2025-10-28T10:40:22.000Z</time>
      </trkpt>
      <trkpt lat="43.51858" lon="6.5593">
        <ele>163.1</ele>
        <time>2025-10-28T10:40:23.000Z</time>
      </trkpt>
      <trkpt lat="43.51858" lon="6.5593">
        <ele>163.1</ele>
        <time>2025-10-28T10:40:24.000Z</time>
      </trkpt>
      <trkpt lat="43.51858" lon="6.5593">
        <ele>163</ele>
        <time>2025-10-28T10:40:25.000Z</time>
      </trkpt>
      <trkpt lat="43.51858" lon="6.5593">
        <ele>163</ele>
        <time>2025-10-28T10:40:26.000Z</time>
      </trkpt>
      <trkpt lat="43.51858" lon="6.5593">
        <ele>162.9</ele>
        <time>2025-10-28T10:40:27.000Z</time>
      </trkpt>
      <trkpt lat="43.51858" lon="6.5593">
        <ele>162.9</ele>
        <time>2025-10-28T10:40:28.000Z</time>
      </trkpt>
      <trkpt lat="43.51858" lon="6.5593">
        <ele>162.9</ele>
        <time>2025-10-28T10:40:29.000Z</time>
      </trkpt>
      <trkpt lat="43.51858" lon="6.5593">
        <ele>162.8</ele>
        <time>2025-10-28T10:40:30.000Z</time>
      </trkpt>
      <trkpt lat="43.51858" lon="6.5593">
        <ele>162.8</ele>
        <time>2025-10-28T10:40:31.000Z</time>
      </trkpt>
      <trkpt lat="43.51858" lon="6.5593">
        <ele>162.7</ele>
        <time>2025-10-28T10:40:32.000Z</time>
      </trkpt>
      <trkpt lat="43.51858" lon="6.5593">
        <ele>162.7</ele>
        <time>2025-10-28T10:40:33.000Z</time>
      </trkpt>
      <trkpt lat="43.51858" lon="6.5593">
        <ele>162.7</ele>
        <time>2025-10-28T10:40:34.000Z</time>
      </trkpt>
      <trkpt lat="43.51858" lon="6.5593">
        <ele>162.6</ele>
        <time>2025-10-28T10:40:35.000Z</time>
      </trkpt>
      <trkpt lat="43.51858" lon="6.5593">
        <ele>162.6</ele>
        <time>2025-10-28T10:40:36.000Z</time>
      </trkpt>
      <trkpt lat="43.51858" lon="6.5593">
        <ele>162.5</ele>
        <time>2025-10-28T10:40:37.000Z</time>
      </trkpt>
      <trkpt lat="43.51858" lon="6.5593">
        <ele>162.5</ele>
        <time>2025-10-28T10:40:38.000Z</time>
      </trkpt>
      <trkpt lat="43.51858" lon="6.5593">
        <ele>162.5</ele>
        <time>2025-10-28T10:40:39.000Z</time>
      </trkpt>
      <trkpt lat="43.51858" lon="6.5593">
        <ele>162.4</ele>
        <time>2025-10-28T10:40:40.000Z</time>
      </trkpt>
      <trkpt lat="43.51858" lon="6.5593">
        <ele>162.4</ele>
        <time>2025-10-28T10:40:41.000Z</time>
      </trkpt>
      <trkpt lat="43.51858" lon="6.5593">
        <ele>162.3</ele>
        <time>2025-10-28T10:40:42.000Z</time>
      </trkpt>
      <trkpt lat="43.51858" lon="6.5593">
        <ele>162.3</ele>
        <time>2025-10-28T10:40:43.000Z</time>
      </trkpt>
      <trkpt lat="43.51858" lon="6.5593">
        <ele>162.3</ele>
        <time>2025-10-28T10:40:44.000Z</time>
      </trkpt>
      <trkpt lat="43.51858" lon="6.5593">
        <ele>162.2</ele>
        <time>2025-10-28T10:40:45.000Z</time>
      </trkpt>
      <trkpt lat="43.51858" lon="6.5593">
        <ele>162.2</ele>
        <time>2025-10-28T10:40:46.000Z</time>
      </trkpt>
      <trkpt lat="43.51858" lon="6.5593">
        <ele>162.1</ele>
        <time>2025-10-28T10:40:47.000Z</time>
      </trkpt>
      <trkpt lat="43.51858" lon="6.5593">
        <ele>162.1</ele>
        <time>2025-10-28T10:40:48.000Z</time>
      </trkpt>
      <trkpt lat="43.51858" lon="6.5593">
        <ele>162</ele>
        <time>2025-10-28T10:40:49.000Z</time>
      </trkpt>
      <trkpt lat="43.51858" lon="6.5593">
        <ele>162</ele>
        <time>2025-10-28T10:40:50.000Z</time>
      </trkpt>
      <trkpt lat="43.51858" lon="6.5593">
        <ele>162</ele>
        <time>2025-10-28T10:40:51.000Z</time>
      </trkpt>
      <trkpt lat="43.51858" lon="6.5593">
        <ele>161.9</ele>
        <time>2025-10-28T10:40:52.000Z</time>
      </trkpt>
      <trkpt lat="43.51858" lon="6.5593">
        <ele>161.9</ele>
        <time>2025-10-28T10:40:53.000Z</time>
      </trkpt>
      <trkpt lat="43.51858" lon="6.5593">
        <ele>161.8</ele>
        <time>2025-10-28T10:40:54.000Z</time>
      </trkpt>
      <trkpt lat="43.51858" lon="6.5593">
        <ele>161.8</ele>
        <time>2025-10-28T10:40:55.000Z</time>
      </trkpt>
      <trkpt lat="43.51858" lon="6.5593">
        <ele>161.8</ele>
        <time>2025-10-28T10:40:56.000Z</time>
      </trkpt>
      <trkpt lat="43.51858" lon="6.5593">
        <ele>161.7</ele>
        <time>2025-10-28T10:40:57.000Z</time>
      </trkpt>
      <trkpt lat="43.51857" lon="6.5593">
        <ele>161.7</ele>
        <time>2025-10-28T10:40:58.000Z</time>
      </trkpt>
      <trkpt lat="43.51857" lon="6.55929">
        <ele>161.6</ele>
        <time>2025-10-28T10:40:59.000Z</time>
      </trkpt>
      <trkpt lat="43.51857" lon="6.55929">
        <ele>161.6</ele>
        <time>2025-10-28T10:41:00.000Z</time>
      </trkpt>
      <trkpt lat="43.51857" lon="6.55929">
        <ele>161.6</ele>
        <time>2025-10-28T10:41:01.000Z</time>
      </trkpt>
      <trkpt lat="43.51857" lon="6.55929">
        <ele>161.5</ele>
        <time>2025-10-28T10:41:02.000Z</time>
      </trkpt>
      <trkpt lat="43.51857" lon="6.55929">
        <ele>161.5</ele>
        <time>2025-10-28T10:41:03.000Z</time>
      </trkpt>
      <trkpt lat="43.51857" lon="6.55929">
        <ele>161.4</ele>
        <time>2025-10-28T10:41:04.000Z</time>
      </trkpt>
      <trkpt lat="43.51857" lon="6.55929">
        <ele>161.4</ele>
        <time>2025-10-28T10:41:05.000Z</time>
      </trkpt>
      <trkpt lat="43.51857" lon="6.55929">
        <ele>161.4</ele>
        <time>2025-10-28T10:41:06.000Z</time>
      </trkpt>
      <trkpt lat="43.51857" lon="6.55929">
        <ele>161.3</ele>
        <time>2025-10-28T10:41:07.000Z</time>
      </trkpt>
      <trkpt lat="43.51857" lon="6.55929">
        <ele>161.3</ele>
        <time>2025-10-28T10:41:08.000Z</time>
      </trkpt>
      <trkpt lat="43.51857" lon="6.55929">
        <ele>161.2</ele>
        <time>2025-10-28T10:41:09.000Z</time>
      </trkpt>
      <trkpt lat="43.51857" lon="6.55929">
        <ele>161.2</ele>
        <time>2025-10-28T10:41:10.000Z</time>
      </trkpt>
      <trkpt lat="43.51857" lon="6.55929">
        <ele>161.2</ele>
        <time>2025-10-28T10:41:11.000Z</time>
      </trkpt>
      <trkpt lat="43.51857" lon="6.55929">
        <ele>161.1</ele>
        <time>2025-10-28T10:41:12.000Z</time>
      </trkpt>
      <trkpt lat="43.51857" lon="6.55929">
        <ele>161.1</ele>
        <time>2025-10-28T10:41:13.000Z</time>
      </trkpt>
      <trkpt lat="43.51857" lon="6.55929">
        <ele>161</ele>
        <time>2025-10-28T10:41:14.000Z</time>
      </trkpt>
      <trkpt lat="43.51857" lon="6.55929">
        <ele>161</ele>
        <time>2025-10-28T10:41:15.000Z</time>
      </trkpt>
      <trkpt lat="43.51857" lon="6.55929">
        <ele>161</ele>
        <time>2025-10-28T10:41:16.000Z</time>
      </trkpt>
      <trkpt lat="43.51857" lon="6.55929">
        <ele>160.9</ele>
        <time>2025-10-28T10:41:17.000Z</time>
      </trkpt>
      <trkpt lat="43.51857" lon="6.55929">
        <ele>160.9</ele>
        <time>2025-10-28T10:41:18.000Z</time>
      </trkpt>
      <trkpt lat="43.51857" lon="6.55929">
        <ele>160.8</ele>
        <time>2025-10-28T10:41:19.000Z</time>
      </trkpt>
      <trkpt lat="43.51857" lon="6.55929">
        <ele>160.8</ele>
        <time>2025-10-28T10:41:20.000Z</time>
      </trkpt>
      <trkpt lat="43.51857" lon="6.55929">
        <ele>160.7</ele>
        <time>2025-10-28T10:41:21.000Z</time>
      </trkpt>
      <trkpt lat="43.51857" lon="6.5593">
        <ele>160.7</ele>
        <time>2025-10-28T10:41:22.000Z</time>
      </trkpt>
      <trkpt lat="43.51857" lon="6.5593">
        <ele>160.7</ele>
        <time>2025-10-28T10:41:23.000Z</time>
      </trkpt>
      <trkpt lat="43.51857" lon="6.5593">
        <ele>160.6</ele>
        <time>2025-10-28T10:41:24.000Z</time>
      </trkpt>
      <trkpt lat="43.51857" lon="6.5593">
        <ele>160.6</ele>
        <time>2025-10-28T10:41:25.000Z</time>
      </trkpt>
      <trkpt lat="43.51857" lon="6.5593">
        <ele>160.5</ele>
        <time>2025-10-28T10:41:26.000Z</time>
      </trkpt>
      <trkpt lat="43.51857" lon="6.5593">
        <ele>160.5</ele>
        <time>2025-10-28T10:41:27.000Z</time>
      </trkpt>
      <trkpt lat="43.51856" lon="6.5593">
        <ele>160.5</ele>
        <time>2025-10-28T10:41:28.000Z</time>
      </trkpt>
      <trkpt lat="43.51854" lon="6.55929">
        <ele>160.5</ele>
        <time>2025-10-28T10:41:29.000Z</time>
      </trkpt>
      <trkpt lat="43.51851" lon="6.55929">
        <ele>160.5</ele>
        <time>2025-10-28T10:41:30.000Z</time>
      </trkpt>
      <trkpt lat="43.51848" lon="6.55928">
        <ele>160.6</ele>
        <time>2025-10-28T10:41:31.000Z</time>
      </trkpt>
      <trkpt lat="43.51845" lon="6.55928">
        <ele>160.6</ele>
        <time>2025-10-28T10:41:32.000Z</time>
      </trkpt>
      <trkpt lat="43.51842" lon="6.55928">
        <ele>160.6</ele>
        <time>2025-10-28T10:41:33.000Z</time>
      </trkpt>
      <trkpt lat="43.51839" lon="6.55929">
        <ele>160.7</ele>
        <time>2025-10-28T10:41:34.000Z</time>
      </trkpt>
      <trkpt lat="43.51836" lon="6.5593">
        <ele>160.7</ele>
        <time>2025-10-28T10:41:35.000Z</time>
      </trkpt>
      <trkpt lat="43.51833" lon="6.55932">
        <ele>160.1</ele>
        <time>2025-10-28T10:41:36.000Z</time>
      </trkpt>
      <trkpt lat="43.5183" lon="6.55933">
        <ele>160.1</ele>
        <time>2025-10-28T10:41:37.000Z</time>
      </trkpt>
      <trkpt lat="43.51828" lon="6.55935">
        <ele>160.1</ele>
        <time>2025-10-28T10:41:38.000Z</time>
      </trkpt>
      <trkpt lat="43.51825" lon="6.55936">
        <ele>159.4</ele>
        <time>2025-10-28T10:41:39.000Z</time>
      </trkpt>
      <trkpt lat="43.51823" lon="6.55938">
        <ele>159.4</ele>
        <time>2025-10-28T10:41:40.000Z</time>
      </trkpt>
      <trkpt lat="43.5182" lon="6.5594">
        <ele>158.8</ele>
        <time>2025-10-28T10:41:41.000Z</time>
      </trkpt>
      <trkpt lat="43.51818" lon="6.55942">
        <ele>158.8</ele>
        <time>2025-10-28T10:41:42.000Z</time>
      </trkpt>
      <trkpt lat="43.51815" lon="6.55944">
        <ele>158.8</ele>
        <time>2025-10-28T10:41:43.000Z</time>
      </trkpt>
      <trkpt lat="43.51813" lon="6.55946">
        <ele>158.4</ele>
        <time>2025-10-28T10:41:44.000Z</time>
      </trkpt>
      <trkpt lat="43.5181" lon="6.55949">
        <ele>158.1</ele>
        <time>2025-10-28T10:41:45.000Z</time>
      </trkpt>
      <trkpt lat="43.51808" lon="6.55951">
        <ele>157.7</ele>
        <time>2025-10-28T10:41:46.000Z</time>
      </trkpt>
      <trkpt lat="43.51806" lon="6.55954">
        <ele>157.4</ele>
        <time>2025-10-28T10:41:47.000Z</time>
      </trkpt>
      <trkpt lat="43.51804" lon="6.55956">
        <ele>157</ele>
        <time>2025-10-28T10:41:48.000Z</time>
      </trkpt>
      <trkpt lat="43.51802" lon="6.55958">
        <ele>156.7</ele>
        <time>2025-10-28T10:41:49.000Z</time>
      </trkpt>
      <trkpt lat="43.51799" lon="6.5596">
        <ele>156.3</ele>
        <time>2025-10-28T10:41:50.000Z</time>
      </trkpt>
      <trkpt lat="43.51796" lon="6.55961">
        <ele>156</ele>
        <time>2025-10-28T10:41:51.000Z</time>
      </trkpt>
      <trkpt lat="43.51793" lon="6.55962">
        <ele>155.6</ele>
        <time>2025-10-28T10:41:52.000Z</time>
      </trkpt>
      <trkpt lat="43.51791" lon="6.55962">
        <ele>155.3</ele>
        <time>2025-10-28T10:41:53.000Z</time>
      </trkpt>
      <trkpt lat="43.51788" lon="6.55963">
        <ele>154.9</ele>
        <time>2025-10-28T10:41:54.000Z</time>
      </trkpt>
      <trkpt lat="43.51785" lon="6.55964">
        <ele>154.6</ele>
        <time>2025-10-28T10:41:55.000Z</time>
      </trkpt>
      <trkpt lat="43.51782" lon="6.55966">
        <ele>154.1</ele>
        <time>2025-10-28T10:41:56.000Z</time>
      </trkpt>
      <trkpt lat="43.51779" lon="6.55969">
        <ele>153.6</ele>
        <time>2025-10-28T10:41:57.000Z</time>
      </trkpt>
      <trkpt lat="43.51775" lon="6.55972">
        <ele>153</ele>
        <time>2025-10-28T10:41:58.000Z</time>
      </trkpt>
      <trkpt lat="43.51771" lon="6.55977">
        <ele>152.4</ele>
        <time>2025-10-28T10:41:59.000Z</time>
      </trkpt>
      <trkpt lat="43.51767" lon="6.55981">
        <ele>151.8</ele>
        <time>2025-10-28T10:42:00.000Z</time>
      </trkpt>
      <trkpt lat="43.51762" lon="6.55988">
        <ele>150.9</ele>
        <time>2025-10-28T10:42:01.000Z</time>
      </trkpt>
      <trkpt lat="43.51757" lon="6.55992">
        <ele>150.3</ele>
        <time>2025-10-28T10:42:02.000Z</time>
      </trkpt>
      <trkpt lat="43.51752" lon="6.55997">
        <ele>149.6</ele>
        <time>2025-10-28T10:42:03.000Z</time>
      </trkpt>
      <trkpt lat="43.51747" lon="6.56002">
        <ele>148.8</ele>
        <time>2025-10-28T10:42:04.000Z</time>
      </trkpt>
      <trkpt lat="43.51741" lon="6.56008">
        <ele>148.1</ele>
        <time>2025-10-28T10:42:05.000Z</time>
      </trkpt>
      <trkpt lat="43.51735" lon="6.56014">
        <ele>147.3</ele>
        <time>2025-10-28T10:42:06.000Z</time>
      </trkpt>
      <trkpt lat="43.5173" lon="6.56022">
        <ele>146.6</ele>
        <time>2025-10-28T10:42:07.000Z</time>
      </trkpt>
      <trkpt lat="43.51723" lon="6.5603">
        <ele>145.7</ele>
        <time>2025-10-28T10:42:08.000Z</time>
      </trkpt>
      <trkpt lat="43.51716" lon="6.56038">
        <ele>144.9</ele>
        <time>2025-10-28T10:42:09.000Z</time>
      </trkpt>
      <trkpt lat="43.51709" lon="6.56046">
        <ele>144</ele>
        <time>2025-10-28T10:42:10.000Z</time>
      </trkpt>
      <trkpt lat="43.51702" lon="6.56054">
        <ele>143.1</ele>
        <time>2025-10-28T10:42:11.000Z</time>
      </trkpt>
      <trkpt lat="43.51695" lon="6.56062">
        <ele>142.1</ele>
        <time>2025-10-28T10:42:12.000Z</time>
      </trkpt>
      <trkpt lat="43.51687" lon="6.5607">
        <ele>141.2</ele>
        <time>2025-10-28T10:42:13.000Z</time>
      </trkpt>
      <trkpt lat="43.5168" lon="6.56079">
        <ele>140.2</ele>
        <time>2025-10-28T10:42:14.000Z</time>
      </trkpt>
      <trkpt lat="43.51674" lon="6.56088">
        <ele>139.4</ele>
        <time>2025-10-28T10:42:15.000Z</time>
      </trkpt>
      <trkpt lat="43.51668" lon="6.56097">
        <ele>138.5</ele>
        <time>2025-10-28T10:42:16.000Z</time>
      </trkpt>
      <trkpt lat="43.51663" lon="6.56106">
        <ele>137.8</ele>
        <time>2025-10-28T10:42:17.000Z</time>
      </trkpt>
      <trkpt lat="43.51659" lon="6.56115">
        <ele>137</ele>
        <time>2025-10-28T10:42:18.000Z</time>
      </trkpt>
      <trkpt lat="43.51654" lon="6.56123">
        <ele>136.2</ele>
        <time>2025-10-28T10:42:19.000Z</time>
      </trkpt>
      <trkpt lat="43.51649" lon="6.56131">
        <ele>135.5</ele>
        <time>2025-10-28T10:42:20.000Z</time>
      </trkpt>
      <trkpt lat="43.51644" lon="6.56139">
        <ele>134.8</ele>
        <time>2025-10-28T10:42:21.000Z</time>
      </trkpt>
      <trkpt lat="43.51639" lon="6.56146">
        <ele>134.1</ele>
        <time>2025-10-28T10:42:22.000Z</time>
      </trkpt>
      <trkpt lat="43.51633" lon="6.56152">
        <ele>133.4</ele>
        <time>2025-10-28T10:42:23.000Z</time>
      </trkpt>
      <trkpt lat="43.51628" lon="6.56158">
        <ele>132.8</ele>
        <time>2025-10-28T10:42:24.000Z</time>
      </trkpt>
      <trkpt lat="43.51621" lon="6.56164">
        <ele>132.1</ele>
        <time>2025-10-28T10:42:25.000Z</time>
      </trkpt>
      <trkpt lat="43.51615" lon="6.5617">
        <ele>131.5</ele>
        <time>2025-10-28T10:42:26.000Z</time>
      </trkpt>
      <trkpt lat="43.51609" lon="6.56176">
        <ele>130.9</ele>
        <time>2025-10-28T10:42:27.000Z</time>
      </trkpt>
      <trkpt lat="43.51603" lon="6.56182">
        <ele>130.3</ele>
        <time>2025-10-28T10:42:28.000Z</time>
      </trkpt>
      <trkpt lat="43.51597" lon="6.56189">
        <ele>129.7</ele>
        <time>2025-10-28T10:42:29.000Z</time>
      </trkpt>
      <trkpt lat="43.51591" lon="6.56194">
        <ele>129.3</ele>
        <time>2025-10-28T10:42:30.000Z</time>
      </trkpt>
      <trkpt lat="43.51584" lon="6.56203">
        <ele>128.6</ele>
        <time>2025-10-28T10:42:31.000Z</time>
      </trkpt>
      <trkpt lat="43.51577" lon="6.5621">
        <ele>128.1</ele>
        <time>2025-10-28T10:42:32.000Z</time>
      </trkpt>
      <trkpt lat="43.51571" lon="6.56216">
        <ele>127.6</ele>
        <time>2025-10-28T10:42:33.000Z</time>
      </trkpt>
      <trkpt lat="43.51565" lon="6.56222">
        <ele>127.1</ele>
        <time>2025-10-28T10:42:34.000Z</time>
      </trkpt>
      <trkpt lat="43.51559" lon="6.56227">
        <ele>126.7</ele>
        <time>2025-10-28T10:42:35.000Z</time>
      </trkpt>
      <trkpt lat="43.51551" lon="6.56234">
        <ele>126.2</ele>
        <time>2025-10-28T10:42:36.000Z</time>
      </trkpt>
      <trkpt lat="43.51545" lon="6.56241">
        <ele>125.7</ele>
        <time>2025-10-28T10:42:37.000Z</time>
      </trkpt>
      <trkpt lat="43.51539" lon="6.56248">
        <ele>125.2</ele>
        <time>2025-10-28T10:42:38.000Z</time>
      </trkpt>
      <trkpt lat="43.51534" lon="6.56254">
        <ele>124.8</ele>
        <time>2025-10-28T10:42:39.000Z</time>
      </trkpt>
      <trkpt lat="43.51529" lon="6.56261">
        <ele>124.3</ele>
        <time>2025-10-28T10:42:40.000Z</time>
      </trkpt>
      <trkpt lat="43.51522" lon="6.56269">
        <ele>123.7</ele>
        <time>2025-10-28T10:42:41.000Z</time>
      </trkpt>
      <trkpt lat="43.51517" lon="6.56277">
        <ele>123.1</ele>
        <time>2025-10-28T10:42:42.000Z</time>
      </trkpt>
      <trkpt lat="43.51511" lon="6.56284">
        <ele>122.5</ele>
        <time>2025-10-28T10:42:43.000Z</time>
      </trkpt>
      <trkpt lat="43.51505" lon="6.56292">
        <ele>121.9</ele>
        <time>2025-10-28T10:42:44.000Z</time>
      </trkpt>
      <trkpt lat="43.51501" lon="6.56299">
        <ele>121.4</ele>
        <time>2025-10-28T10:42:45.000Z</time>
      </trkpt>
      <trkpt lat="43.51495" lon="6.56307">
        <ele>120.7</ele>
        <time>2025-10-28T10:42:46.000Z</time>
      </trkpt>
      <trkpt lat="43.51488" lon="6.56317">
        <ele>119.8</ele>
        <time>2025-10-28T10:42:47.000Z</time>
      </trkpt>
      <trkpt lat="43.51481" lon="6.56325">
        <ele>119.2</ele>
        <time>2025-10-28T10:42:48.000Z</time>
      </trkpt>
      <trkpt lat="43.51475" lon="6.56334">
        <ele>118.6</ele>
        <time>2025-10-28T10:42:49.000Z</time>
      </trkpt>
      <trkpt lat="43.51469" lon="6.56343">
        <ele>118</ele>
        <time>2025-10-28T10:42:50.000Z</time>
      </trkpt>
      <trkpt lat="43.51465" lon="6.56351">
        <ele>117.6</ele>
        <time>2025-10-28T10:42:51.000Z</time>
      </trkpt>
      <trkpt lat="43.51459" lon="6.56361">
        <ele>117.1</ele>
        <time>2025-10-28T10:42:52.000Z</time>
      </trkpt>
      <trkpt lat="43.51454" lon="6.56371">
        <ele>116.6</ele>
        <time>2025-10-28T10:42:53.000Z</time>
      </trkpt>
      <trkpt lat="43.51449" lon="6.56381">
        <ele>116.1</ele>
        <time>2025-10-28T10:42:54.000Z</time>
      </trkpt>
      <trkpt lat="43.51444" lon="6.56391">
        <ele>115.6</ele>
        <time>2025-10-28T10:42:55.000Z</time>
      </trkpt>
      <trkpt lat="43.5144" lon="6.56399">
        <ele>115.2</ele>
        <time>2025-10-28T10:42:56.000Z</time>
      </trkpt>
      <trkpt lat="43.51435" lon="6.56412">
        <ele>114.5</ele>
        <time>2025-10-28T10:42:57.000Z</time>
      </trkpt>
      <trkpt lat="43.5143" lon="6.56423">
        <ele>113.9</ele>
        <time>2025-10-28T10:42:58.000Z</time>
      </trkpt>
      <trkpt lat="43.51426" lon="6.56433">
        <ele>113.3</ele>
        <time>2025-10-28T10:42:59.000Z</time>
      </trkpt>
      <trkpt lat="43.51422" lon="6.56442">
        <ele>112.8</ele>
        <time>2025-10-28T10:43:00.000Z</time>
      </trkpt>
      <trkpt lat="43.51416" lon="6.56454">
        <ele>112.1</ele>
        <time>2025-10-28T10:43:01.000Z</time>
      </trkpt>
      <trkpt lat="43.51412" lon="6.56465">
        <ele>111.6</ele>
        <time>2025-10-28T10:43:02.000Z</time>
      </trkpt>
      <trkpt lat="43.51407" lon="6.56475">
        <ele>111</ele>
        <time>2025-10-28T10:43:03.000Z</time>
      </trkpt>
      <trkpt lat="43.51403" lon="6.56484">
        <ele>110.5</ele>
        <time>2025-10-28T10:43:04.000Z</time>
      </trkpt>
      <trkpt lat="43.51399" lon="6.56492">
        <ele>110</ele>
        <time>2025-10-28T10:43:05.000Z</time>
      </trkpt>
      <trkpt lat="43.51394" lon="6.56502">
        <ele>109.4</ele>
        <time>2025-10-28T10:43:06.000Z</time>
      </trkpt>
      <trkpt lat="43.51389" lon="6.56514">
        <ele>108.8</ele>
        <time>2025-10-28T10:43:07.000Z</time>
      </trkpt>
      <trkpt lat="43.51384" lon="6.56524">
        <ele>108.2</ele>
        <time>2025-10-28T10:43:08.000Z</time>
      </trkpt>
      <trkpt lat="43.5138" lon="6.56534">
        <ele>107.6</ele>
        <time>2025-10-28T10:43:09.000Z</time>
      </trkpt>
      <trkpt lat="43.51376" lon="6.56542">
        <ele>107</ele>
        <time>2025-10-28T10:43:10.000Z</time>
      </trkpt>
      <trkpt lat="43.51371" lon="6.56553">
        <ele>106.4</ele>
        <time>2025-10-28T10:43:11.000Z</time>
      </trkpt>
      <trkpt lat="43.51365" lon="6.56565">
        <ele>105.7</ele>
        <time>2025-10-28T10:43:12.000Z</time>
      </trkpt>
      <trkpt lat="43.5136" lon="6.56575">
        <ele>105.2</ele>
        <time>2025-10-28T10:43:13.000Z</time>
      </trkpt>
      <trkpt lat="43.51356" lon="6.56585">
        <ele>104.8</ele>
        <time>2025-10-28T10:43:14.000Z</time>
      </trkpt>
      <trkpt lat="43.51352" lon="6.56595">
        <ele>104.4</ele>
        <time>2025-10-28T10:43:15.000Z</time>
      </trkpt>
      <trkpt lat="43.51348" lon="6.56604">
        <ele>104.1</ele>
        <time>2025-10-28T10:43:16.000Z</time>
      </trkpt>
      <trkpt lat="43.51344" lon="6.56611">
        <ele>103.8</ele>
        <time>2025-10-28T10:43:17.000Z</time>
      </trkpt>
      <trkpt lat="43.5134" lon="6.56618">
        <ele>103.6</ele>
        <time>2025-10-28T10:43:18.000Z</time>
      </trkpt>
      <trkpt lat="43.51338" lon="6.56623">
        <ele>103.4</ele>
        <time>2025-10-28T10:43:19.000Z</time>
      </trkpt>
      <trkpt lat="43.51335" lon="6.5663">
        <ele>103.2</ele>
        <time>2025-10-28T10:43:20.000Z</time>
      </trkpt>
      <trkpt lat="43.51332" lon="6.56635">
        <ele>103</ele>
        <time>2025-10-28T10:43:21.000Z</time>
      </trkpt>
      <trkpt lat="43.5133" lon="6.5664">
        <ele>102.8</ele>
        <time>2025-10-28T10:43:22.000Z</time>
      </trkpt>
      <trkpt lat="43.51328" lon="6.56643">
        <ele>102.6</ele>
        <time>2025-10-28T10:43:23.000Z</time>
      </trkpt>
      <trkpt lat="43.51326" lon="6.56646">
        <ele>102.4</ele>
        <time>2025-10-28T10:43:24.000Z</time>
      </trkpt>
      <trkpt lat="43.51325" lon="6.56648">
        <ele>102.4</ele>
        <time>2025-10-28T10:43:25.000Z</time>
      </trkpt>
      <trkpt lat="43.51324" lon="6.56649">
        <ele>102.4</ele>
        <time>2025-10-28T10:43:26.000Z</time>
      </trkpt>
      <trkpt lat="43.51323" lon="6.5665">
        <ele>102.4</ele>
        <time>2025-10-28T10:43:27.000Z</time>
      </trkpt>
      <trkpt lat="43.51321" lon="6.56651">
        <ele>102.4</ele>
        <time>2025-10-28T10:43:28.000Z</time>
      </trkpt>
      <trkpt lat="43.5132" lon="6.56654">
        <ele>102.4</ele>
        <time>2025-10-28T10:43:29.000Z</time>
      </trkpt>
      <trkpt lat="43.51319" lon="6.56656">
        <ele>102.4</ele>
        <time>2025-10-28T10:43:30.000Z</time>
      </trkpt>
      <trkpt lat="43.5132" lon="6.56659">
        <ele>102.4</ele>
        <time>2025-10-28T10:43:31.000Z</time>
      </trkpt>
      <trkpt lat="43.51322" lon="6.56661">
        <ele>102.5</ele>
        <time>2025-10-28T10:43:32.000Z</time>
      </trkpt>
      <trkpt lat="43.51325" lon="6.56662">
        <ele>102.6</ele>
        <time>2025-10-28T10:43:33.000Z</time>
      </trkpt>
      <trkpt lat="43.51328" lon="6.56662">
        <ele>102.8</ele>
        <time>2025-10-28T10:43:34.000Z</time>
      </trkpt>
      <trkpt lat="43.5133" lon="6.56663">
        <ele>103</ele>
        <time>2025-10-28T10:43:35.000Z</time>
      </trkpt>
      <trkpt lat="43.51333" lon="6.56663">
        <ele>103.1</ele>
        <time>2025-10-28T10:43:36.000Z</time>
      </trkpt>
      <trkpt lat="43.51335" lon="6.56665">
        <ele>103.2</ele>
        <time>2025-10-28T10:43:37.000Z</time>
      </trkpt>
      <trkpt lat="43.51337" lon="6.56668">
        <ele>103.3</ele>
        <time>2025-10-28T10:43:38.000Z</time>
      </trkpt>
      <trkpt lat="43.51339" lon="6.56671">
        <ele>103.3</ele>
        <time>2025-10-28T10:43:39.000Z</time>
      </trkpt>
      <trkpt lat="43.51341" lon="6.56674">
        <ele>103.2</ele>
        <time>2025-10-28T10:43:40.000Z</time>
      </trkpt>
      <trkpt lat="43.51343" lon="6.56678">
        <ele>103.2</ele>
        <time>2025-10-28T10:43:41.000Z</time>
      </trkpt>
      <trkpt lat="43.51344" lon="6.56685">
        <ele>103.1</ele>
        <time>2025-10-28T10:43:42.000Z</time>
      </trkpt>
      <trkpt lat="43.51346" lon="6.5669">
        <ele>103</ele>
        <time>2025-10-28T10:43:43.000Z</time>
      </trkpt>
      <trkpt lat="43.51348" lon="6.56696">
        <ele>102.7</ele>
        <time>2025-10-28T10:43:44.000Z</time>
      </trkpt>
      <trkpt lat="43.51349" lon="6.567">
        <ele>102.6</ele>
        <time>2025-10-28T10:43:45.000Z</time>
      </trkpt>
      <trkpt lat="43.5135" lon="6.56707">
        <ele>102.4</ele>
        <time>2025-10-28T10:43:46.000Z</time>
      </trkpt>
      <trkpt lat="43.51351" lon="6.56713">
        <ele>102.1</ele>
        <time>2025-10-28T10:43:47.000Z</time>
      </trkpt>
      <trkpt lat="43.51351" lon="6.56722">
        <ele>101.8</ele>
        <time>2025-10-28T10:43:48.000Z</time>
      </trkpt>
      <trkpt lat="43.51351" lon="6.56729">
        <ele>101.7</ele>
        <time>2025-10-28T10:43:49.000Z</time>
      </trkpt>
      <trkpt lat="43.51351" lon="6.56735">
        <ele>101.3</ele>
        <time>2025-10-28T10:43:50.000Z</time>
      </trkpt>
      <trkpt lat="43.51351" lon="6.56743">
        <ele>101</ele>
        <time>2025-10-28T10:43:51.000Z</time>
      </trkpt>
      <trkpt lat="43.51352" lon="6.56754">
        <ele>100.6</ele>
        <time>2025-10-28T10:43:52.000Z</time>
      </trkpt>
      <trkpt lat="43.51352" lon="6.56763">
        <ele>100.3</ele>
        <time>2025-10-28T10:43:53.000Z</time>
      </trkpt>
      <trkpt lat="43.51352" lon="6.56773">
        <ele>99.7</ele>
        <time>2025-10-28T10:43:54.000Z</time>
      </trkpt>
      <trkpt lat="43.51352" lon="6.56782">
        <ele>99.2</ele>
        <time>2025-10-28T10:43:55.000Z</time>
      </trkpt>
      <trkpt lat="43.51352" lon="6.56792">
        <ele>98.9</ele>
        <time>2025-10-28T10:43:56.000Z</time>
      </trkpt>
      <trkpt lat="43.51352" lon="6.56802">
        <ele>98.3</ele>
        <time>2025-10-28T10:43:57.000Z</time>
      </trkpt>
      <trkpt lat="43.51352" lon="6.56812">
        <ele>97.9</ele>
        <time>2025-10-28T10:43:58.000Z</time>
      </trkpt>
      <trkpt lat="43.51352" lon="6.56823">
        <ele>97.5</ele>
        <time>2025-10-28T10:43:59.000Z</time>
      </trkpt>
      <trkpt lat="43.51352" lon="6.56831">
        <ele>97.1</ele>
        <time>2025-10-28T10:44:00.000Z</time>
      </trkpt>
      <trkpt lat="43.51352" lon="6.56841">
        <ele>96.5</ele>
        <time>2025-10-28T10:44:01.000Z</time>
      </trkpt>
      <trkpt lat="43.51352" lon="6.56851">
        <ele>96.1</ele>
        <time>2025-10-28T10:44:02.000Z</time>
      </trkpt>
      <trkpt lat="43.51352" lon="6.56864">
        <ele>95.3</ele>
        <time>2025-10-28T10:44:03.000Z</time>
      </trkpt>
      <trkpt lat="43.51352" lon="6.56874">
        <ele>94.8</ele>
        <time>2025-10-28T10:44:04.000Z</time>
      </trkpt>
      <trkpt lat="43.51352" lon="6.56884">
        <ele>94.4</ele>
        <time>2025-10-28T10:44:05.000Z</time>
      </trkpt>
      <trkpt lat="43.51352" lon="6.56892">
        <ele>94</ele>
        <time>2025-10-28T10:44:06.000Z</time>
      </trkpt>
      <trkpt lat="43.51352" lon="6.56901">
        <ele>93.5</ele>
        <time>2025-10-28T10:44:07.000Z</time>
      </trkpt>
      <trkpt lat="43.51352" lon="6.56913">
        <ele>93.2</ele>
        <time>2025-10-28T10:44:08.000Z</time>
      </trkpt>
      <trkpt lat="43.51352" lon="6.56922">
        <ele>92.9</ele>
        <time>2025-10-28T10:44:09.000Z</time>
      </trkpt>
      <trkpt lat="43.51352" lon="6.56931">
        <ele>92.5</ele>
        <time>2025-10-28T10:44:10.000Z</time>
      </trkpt>
      <trkpt lat="43.51352" lon="6.56938">
        <ele>92.4</ele>
        <time>2025-10-28T10:44:11.000Z</time>
      </trkpt>
      <trkpt lat="43.51351" lon="6.56946">
        <ele>92.4</ele>
        <time>2025-10-28T10:44:12.000Z</time>
      </trkpt>
      <trkpt lat="43.51349" lon="6.56953">
        <ele>92.1</ele>
        <time>2025-10-28T10:44:13.000Z</time>
      </trkpt>
      <trkpt lat="43.51345" lon="6.56959">
        <ele>92.3</ele>
        <time>2025-10-28T10:44:14.000Z</time>
      </trkpt>
      <trkpt lat="43.51342" lon="6.56963">
        <ele>92.7</ele>
        <time>2025-10-28T10:44:15.000Z</time>
      </trkpt>
      <trkpt lat="43.51338" lon="6.56966">
        <ele>92.8</ele>
        <time>2025-10-28T10:44:16.000Z</time>
      </trkpt>
      <trkpt lat="43.51335" lon="6.56966">
        <ele>92.8</ele>
        <time>2025-10-28T10:44:17.000Z</time>
      </trkpt>
      <trkpt lat="43.51331" lon="6.56965">
        <ele>92.9</ele>
        <time>2025-10-28T10:44:18.000Z</time>
      </trkpt>
      <trkpt lat="43.51328" lon="6.56962">
        <ele>92.9</ele>
        <time>2025-10-28T10:44:19.000Z</time>
      </trkpt>
      <trkpt lat="43.51325" lon="6.56958">
        <ele>93</ele>
        <time>2025-10-28T10:44:20.000Z</time>
      </trkpt>
      <trkpt lat="43.51324" lon="6.56953">
        <ele>93</ele>
        <time>2025-10-28T10:44:21.000Z</time>
      </trkpt>
      <trkpt lat="43.51322" lon="6.56947">
        <ele>93.1</ele>
        <time>2025-10-28T10:44:22.000Z</time>
      </trkpt>
      <trkpt lat="43.51321" lon="6.56941">
        <ele>93.2</ele>
        <time>2025-10-28T10:44:23.000Z</time>
      </trkpt>
      <trkpt lat="43.5132" lon="6.56935">
        <ele>93.3</ele>
        <time>2025-10-28T10:44:24.000Z</time>
      </trkpt>
      <trkpt lat="43.51319" lon="6.56929">
        <ele>93.5</ele>
        <time>2025-10-28T10:44:25.000Z</time>
      </trkpt>
      <trkpt lat="43.51318" lon="6.56923">
        <ele>93.7</ele>
        <time>2025-10-28T10:44:26.000Z</time>
      </trkpt>
      <trkpt lat="43.51316" lon="6.56918">
        <ele>94</ele>
        <time>2025-10-28T10:44:27.000Z</time>
      </trkpt>
      <trkpt lat="43.51315" lon="6.56914">
        <ele>94.2</ele>
        <time>2025-10-28T10:44:28.000Z</time>
      </trkpt>
      <trkpt lat="43.51313" lon="6.5691">
        <ele>94.4</ele>
        <time>2025-10-28T10:44:29.000Z</time>
      </trkpt>
      <trkpt lat="43.5131" lon="6.56907">
        <ele>94.6</ele>
        <time>2025-10-28T10:44:30.000Z</time>
      </trkpt>
      <trkpt lat="43.51309" lon="6.56905">
        <ele>94.8</ele>
        <time>2025-10-28T10:44:31.000Z</time>
      </trkpt>
      <trkpt lat="43.51306" lon="6.56901">
        <ele>95</ele>
        <time>2025-10-28T10:44:32.000Z</time>
      </trkpt>
      <trkpt lat="43.51304" lon="6.56899">
        <ele>95</ele>
        <time>2025-10-28T10:44:33.000Z</time>
      </trkpt>
      <trkpt lat="43.51301" lon="6.56898">
        <ele>94.8</ele>
        <time>2025-10-28T10:44:34.000Z</time>
      </trkpt>
      <trkpt lat="43.51299" lon="6.56897">
        <ele>94.6</ele>
        <time>2025-10-28T10:44:35.000Z</time>
      </trkpt>
      <trkpt lat="43.51296" lon="6.56898">
        <ele>94.4</ele>
        <time>2025-10-28T10:44:36.000Z</time>
      </trkpt>
      <trkpt lat="43.51293" lon="6.569">
        <ele>94.2</ele>
        <time>2025-10-28T10:44:37.000Z</time>
      </trkpt>
      <trkpt lat="43.51289" lon="6.56903">
        <ele>93.8</ele>
        <time>2025-10-28T10:44:38.000Z</time>
      </trkpt>
      <trkpt lat="43.51286" lon="6.56907">
        <ele>93.4</ele>
        <time>2025-10-28T10:44:39.000Z</time>
      </trkpt>
      <trkpt lat="43.51282" lon="6.56912">
        <ele>93</ele>
        <time>2025-10-28T10:44:40.000Z</time>
      </trkpt>
      <trkpt lat="43.51277" lon="6.56916">
        <ele>92.7</ele>
        <time>2025-10-28T10:44:41.000Z</time>
      </trkpt>
      <trkpt lat="43.51273" lon="6.56921">
        <ele>92.3</ele>
        <time>2025-10-28T10:44:42.000Z</time>
      </trkpt>
      <trkpt lat="43.51268" lon="6.56925">
        <ele>92</ele>
        <time>2025-10-28T10:44:43.000Z</time>
      </trkpt>
      <trkpt lat="43.51263" lon="6.56929">
        <ele>91.7</ele>
        <time>2025-10-28T10:44:44.000Z</time>
      </trkpt>
      <trkpt lat="43.51257" lon="6.56933">
        <ele>91.5</ele>
        <time>2025-10-28T10:44:45.000Z</time>
      </trkpt>
      <trkpt lat="43.51252" lon="6.56936">
        <ele>91.3</ele>
        <time>2025-10-28T10:44:46.000Z</time>
      </trkpt>
      <trkpt lat="43.51247" lon="6.56939">
        <ele>91.1</ele>
        <time>2025-10-28T10:44:47.000Z</time>
      </trkpt>
      <trkpt lat="43.51242" lon="6.56942">
        <ele>90.9</ele>
        <time>2025-10-28T10:44:48.000Z</time>
      </trkpt>
      <trkpt lat="43.51237" lon="6.56946">
        <ele>90.8</ele>
        <time>2025-10-28T10:44:49.000Z</time>
      </trkpt>
      <trkpt lat="43.51235" lon="6.56951">
        <ele>90.6</ele>
        <time>2025-10-28T10:44:50.000Z</time>
      </trkpt>
      <trkpt lat="43.51233" lon="6.56958">
        <ele>90.2</ele>
        <time>2025-10-28T10:44:51.000Z</time>
      </trkpt>
      <trkpt lat="43.51232" lon="6.56964">
        <ele>90</ele>
        <time>2025-10-28T10:44:52.000Z</time>
      </trkpt>
      <trkpt lat="43.51232" lon="6.56971">
        <ele>89.7</ele>
        <time>2025-10-28T10:44:53.000Z</time>
      </trkpt>
      <trkpt lat="43.51232" lon="6.56979">
        <ele>89.3</ele>
        <time>2025-10-28T10:44:54.000Z</time>
      </trkpt>
      <trkpt lat="43.51231" lon="6.56986">
        <ele>89.1</ele>
        <time>2025-10-28T10:44:55.000Z</time>
      </trkpt>
      <trkpt lat="43.51231" lon="6.56992">
        <ele>88.7</ele>
        <time>2025-10-28T10:44:56.000Z</time>
      </trkpt>
      <trkpt lat="43.5123" lon="6.57002">
        <ele>88.3</ele>
        <time>2025-10-28T10:44:57.000Z</time>
      </trkpt>
      <trkpt lat="43.51229" lon="6.5701">
        <ele>87.9</ele>
        <time>2025-10-28T10:44:58.000Z</time>
      </trkpt>
      <trkpt lat="43.51227" lon="6.57018">
        <ele>87.6</ele>
        <time>2025-10-28T10:44:59.000Z</time>
      </trkpt>
      <trkpt lat="43.51225" lon="6.57025">
        <ele>87.4</ele>
        <time>2025-10-28T10:45:00.000Z</time>
      </trkpt>
      <trkpt lat="43.51223" lon="6.57033">
        <ele>87</ele>
        <time>2025-10-28T10:45:01.000Z</time>
      </trkpt>
      <trkpt lat="43.5122" lon="6.5704">
        <ele>86.6</ele>
        <time>2025-10-28T10:45:02.000Z</time>
      </trkpt>
      <trkpt lat="43.51217" lon="6.57047">
        <ele>86.2</ele>
        <time>2025-10-28T10:45:03.000Z</time>
      </trkpt>
      <trkpt lat="43.51214" lon="6.57054">
        <ele>86</ele>
        <time>2025-10-28T10:45:04.000Z</time>
      </trkpt>
      <trkpt lat="43.5121" lon="6.57061">
        <ele>85.6</ele>
        <time>2025-10-28T10:45:05.000Z</time>
      </trkpt>
      <trkpt lat="43.51206" lon="6.57068">
        <ele>85.4</ele>
        <time>2025-10-28T10:45:06.000Z</time>
      </trkpt>
      <trkpt lat="43.51201" lon="6.57075">
        <ele>85</ele>
        <time>2025-10-28T10:45:07.000Z</time>
      </trkpt>
      <trkpt lat="43.51197" lon="6.57081">
        <ele>84.6</ele>
        <time>2025-10-28T10:45:08.000Z</time>
      </trkpt>
      <trkpt lat="43.51193" lon="6.57088">
        <ele>84.4</ele>
        <time>2025-10-28T10:45:09.000Z</time>
      </trkpt>
      <trkpt lat="43.5119" lon="6.57096">
        <ele>84</ele>
        <time>2025-10-28T10:45:10.000Z</time>
      </trkpt>
      <trkpt lat="43.51188" lon="6.57104">
        <ele>83.7</ele>
        <time>2025-10-28T10:45:11.000Z</time>
      </trkpt>
      <trkpt lat="43.51187" lon="6.57112">
        <ele>83.4</ele>
        <time>2025-10-28T10:45:12.000Z</time>
      </trkpt>
      <trkpt lat="43.51187" lon="6.5712">
        <ele>83.1</ele>
        <time>2025-10-28T10:45:13.000Z</time>
      </trkpt>
      <trkpt lat="43.51186" lon="6.57129">
        <ele>82.8</ele>
        <time>2025-10-28T10:45:14.000Z</time>
      </trkpt>
      <trkpt lat="43.51185" lon="6.57139">
        <ele>82.5</ele>
        <time>2025-10-28T10:45:15.000Z</time>
      </trkpt>
      <trkpt lat="43.51185" lon="6.57148">
        <ele>82.3</ele>
        <time>2025-10-28T10:45:16.000Z</time>
      </trkpt>
      <trkpt lat="43.51184" lon="6.57158">
        <ele>82</ele>
        <time>2025-10-28T10:45:17.000Z</time>
      </trkpt>
      <trkpt lat="43.51183" lon="6.57168">
        <ele>81.7</ele>
        <time>2025-10-28T10:45:18.000Z</time>
      </trkpt>
      <trkpt lat="43.51182" lon="6.57178">
        <ele>81.5</ele>
        <time>2025-10-28T10:45:19.000Z</time>
      </trkpt>
      <trkpt lat="43.51181" lon="6.57188">
        <ele>81.3</ele>
        <time>2025-10-28T10:45:20.000Z</time>
      </trkpt>
      <trkpt lat="43.5118" lon="6.57197">
        <ele>81.1</ele>
        <time>2025-10-28T10:45:21.000Z</time>
      </trkpt>
      <trkpt lat="43.51178" lon="6.57205">
        <ele>80.9</ele>
        <time>2025-10-28T10:45:22.000Z</time>
      </trkpt>
      <trkpt lat="43.51176" lon="6.57213">
        <ele>80.8</ele>
        <time>2025-10-28T10:45:23.000Z</time>
      </trkpt>
      <trkpt lat="43.51173" lon="6.57221">
        <ele>80.6</ele>
        <time>2025-10-28T10:45:24.000Z</time>
      </trkpt>
      <trkpt lat="43.5117" lon="6.57228">
        <ele>80.4</ele>
        <time>2025-10-28T10:45:25.000Z</time>
      </trkpt>
      <trkpt lat="43.51167" lon="6.57235">
        <ele>80.4</ele>
        <time>2025-10-28T10:45:26.000Z</time>
      </trkpt>
      <trkpt lat="43.51165" lon="6.57242">
        <ele>80.2</ele>
        <time>2025-10-28T10:45:27.000Z</time>
      </trkpt>
      <trkpt lat="43.51164" lon="6.5725">
        <ele>80.1</ele>
        <time>2025-10-28T10:45:28.000Z</time>
      </trkpt>
      <trkpt lat="43.51164" lon="6.57258">
        <ele>79.9</ele>
        <time>2025-10-28T10:45:29.000Z</time>
      </trkpt>
      <trkpt lat="43.51165" lon="6.57266">
        <ele>79.6</ele>
        <time>2025-10-28T10:45:30.000Z</time>
      </trkpt>
      <trkpt lat="43.51167" lon="6.57274">
        <ele>79.4</ele>
        <time>2025-10-28T10:45:31.000Z</time>
      </trkpt>
      <trkpt lat="43.51169" lon="6.57282">
        <ele>79.1</ele>
        <time>2025-10-28T10:45:32.000Z</time>
      </trkpt>
      <trkpt lat="43.5117" lon="6.57289">
        <ele>78.9</ele>
        <time>2025-10-28T10:45:33.000Z</time>
      </trkpt>
      <trkpt lat="43.51171" lon="6.57297">
        <ele>78.5</ele>
        <time>2025-10-28T10:45:34.000Z</time>
      </trkpt>
      <trkpt lat="43.51172" lon="6.57305">
        <ele>78.3</ele>
        <time>2025-10-28T10:45:35.000Z</time>
      </trkpt>
      <trkpt lat="43.51172" lon="6.57312">
        <ele>78.1</ele>
        <time>2025-10-28T10:45:36.000Z</time>
      </trkpt>
      <trkpt lat="43.51172" lon="6.57319">
        <ele>77.9</ele>
        <time>2025-10-28T10:45:37.000Z</time>
      </trkpt>
      <trkpt lat="43.51171" lon="6.57326">
        <ele>77.6</ele>
        <time>2025-10-28T10:45:38.000Z</time>
      </trkpt>
      <trkpt lat="43.51171" lon="6.57333">
        <ele>77.5</ele>
        <time>2025-10-28T10:45:39.000Z</time>
      </trkpt>
      <trkpt lat="43.51172" lon="6.5734">
        <ele>77.5</ele>
        <time>2025-10-28T10:45:40.000Z</time>
      </trkpt>
      <trkpt lat="43.51172" lon="6.57346">
        <ele>77.4</ele>
        <time>2025-10-28T10:45:41.000Z</time>
      </trkpt>
      <trkpt lat="43.51173" lon="6.57353">
        <ele>77.4</ele>
        <time>2025-10-28T10:45:42.000Z</time>
      </trkpt>
      <trkpt lat="43.51174" lon="6.57359">
        <ele>77.3</ele>
        <time>2025-10-28T10:45:43.000Z</time>
      </trkpt>
      <trkpt lat="43.51174" lon="6.57365">
        <ele>77.2</ele>
        <time>2025-10-28T10:45:44.000Z</time>
      </trkpt>
      <trkpt lat="43.51176" lon="6.57371">
        <ele>77.2</ele>
        <time>2025-10-28T10:45:45.000Z</time>
      </trkpt>
      <trkpt lat="43.51178" lon="6.57378">
        <ele>77.1</ele>
        <time>2025-10-28T10:45:46.000Z</time>
      </trkpt>
      <trkpt lat="43.5118" lon="6.57384">
        <ele>77.1</ele>
        <time>2025-10-28T10:45:47.000Z</time>
      </trkpt>
      <trkpt lat="43.51182" lon="6.5739">
        <ele>77</ele>
        <time>2025-10-28T10:45:48.000Z</time>
      </trkpt>
      <trkpt lat="43.51186" lon="6.57396">
        <ele>76.9</ele>
        <time>2025-10-28T10:45:49.000Z</time>
      </trkpt>
      <trkpt lat="43.51189" lon="6.57401">
        <ele>76.7</ele>
        <time>2025-10-28T10:45:50.000Z</time>
      </trkpt>
      <trkpt lat="43.51192" lon="6.57406">
        <ele>76.6</ele>
        <time>2025-10-28T10:45:51.000Z</time>
      </trkpt>
      <trkpt lat="43.51196" lon="6.57411">
        <ele>76.5</ele>
        <time>2025-10-28T10:45:52.000Z</time>
      </trkpt>
      <trkpt lat="43.512" lon="6.57416">
        <ele>76.3</ele>
        <time>2025-10-28T10:45:53.000Z</time>
      </trkpt>
      <trkpt lat="43.51203" lon="6.5742">
        <ele>76.2</ele>
        <time>2025-10-28T10:45:54.000Z</time>
      </trkpt>
      <trkpt lat="43.51206" lon="6.57426">
        <ele>76</ele>
        <time>2025-10-28T10:45:55.000Z</time>
      </trkpt>
      <trkpt lat="43.51209" lon="6.57431">
        <ele>75.8</ele>
        <time>2025-10-28T10:45:56.000Z</time>
      </trkpt>
      <trkpt lat="43.51211" lon="6.57437">
        <ele>75.6</ele>
        <time>2025-10-28T10:45:57.000Z</time>
      </trkpt>
      <trkpt lat="43.51213" lon="6.57443">
        <ele>75.4</ele>
        <time>2025-10-28T10:45:58.000Z</time>
      </trkpt>
      <trkpt lat="43.51215" lon="6.57449">
        <ele>75.2</ele>
        <time>2025-10-28T10:45:59.000Z</time>
      </trkpt>
      <trkpt lat="43.51216" lon="6.57455">
        <ele>75</ele>
        <time>2025-10-28T10:46:00.000Z</time>
      </trkpt>
      <trkpt lat="43.51217" lon="6.57462">
        <ele>74.7</ele>
        <time>2025-10-28T10:46:01.000Z</time>
      </trkpt>
      <trkpt lat="43.51217" lon="6.57469">
        <ele>74.4</ele>
        <time>2025-10-28T10:46:02.000Z</time>
      </trkpt>
      <trkpt lat="43.51217" lon="6.57476">
        <ele>74.2</ele>
        <time>2025-10-28T10:46:03.000Z</time>
      </trkpt>
      <trkpt lat="43.51217" lon="6.57484">
        <ele>73.9</ele>
        <time>2025-10-28T10:46:04.000Z</time>
      </trkpt>
      <trkpt lat="43.51216" lon="6.57492">
        <ele>73.5</ele>
        <time>2025-10-28T10:46:05.000Z</time>
      </trkpt>
      <trkpt lat="43.51214" lon="6.57501">
        <ele>73.2</ele>
        <time>2025-10-28T10:46:06.000Z</time>
      </trkpt>
      <trkpt lat="43.51213" lon="6.57509">
        <ele>72.8</ele>
        <time>2025-10-28T10:46:07.000Z</time>
      </trkpt>
      <trkpt lat="43.51211" lon="6.57519">
        <ele>72.5</ele>
        <time>2025-10-28T10:46:08.000Z</time>
      </trkpt>
      <trkpt lat="43.51209" lon="6.57528">
        <ele>72.1</ele>
        <time>2025-10-28T10:46:09.000Z</time>
      </trkpt>
      <trkpt lat="43.51206" lon="6.57537">
        <ele>71.8</ele>
        <time>2025-10-28T10:46:10.000Z</time>
      </trkpt>
      <trkpt lat="43.51203" lon="6.57547">
        <ele>71.5</ele>
        <time>2025-10-28T10:46:11.000Z</time>
      </trkpt>
      <trkpt lat="43.512" lon="6.57556">
        <ele>71.2</ele>
        <time>2025-10-28T10:46:12.000Z</time>
      </trkpt>
      <trkpt lat="43.51197" lon="6.57566">
        <ele>71</ele>
        <time>2025-10-28T10:46:13.000Z</time>
      </trkpt>
      <trkpt lat="43.51193" lon="6.57575">
        <ele>70.8</ele>
        <time>2025-10-28T10:46:14.000Z</time>
      </trkpt>
      <trkpt lat="43.51189" lon="6.57585">
        <ele>70.5</ele>
        <time>2025-10-28T10:46:15.000Z</time>
      </trkpt>
      <trkpt lat="43.51185" lon="6.57593">
        <ele>70.3</ele>
        <time>2025-10-28T10:46:16.000Z</time>
      </trkpt>
      <trkpt lat="43.5118" lon="6.57602">
        <ele>70</ele>
        <time>2025-10-28T10:46:17.000Z</time>
      </trkpt>
      <trkpt lat="43.51176" lon="6.5761">
        <ele>69.6</ele>
        <time>2025-10-28T10:46:18.000Z</time>
      </trkpt>
      <trkpt lat="43.51171" lon="6.57619">
        <ele>69.1</ele>
        <time>2025-10-28T10:46:19.000Z</time>
      </trkpt>
      <trkpt lat="43.51166" lon="6.57628">
        <ele>68.5</ele>
        <time>2025-10-28T10:46:20.000Z</time>
      </trkpt>
      <trkpt lat="43.51161" lon="6.57637">
        <ele>68</ele>
        <time>2025-10-28T10:46:21.000Z</time>
      </trkpt>
      <trkpt lat="43.51157" lon="6.57647">
        <ele>67.5</ele>
        <time>2025-10-28T10:46:22.000Z</time>
      </trkpt>
      <trkpt lat="43.51152" lon="6.57657">
        <ele>67</ele>
        <time>2025-10-28T10:46:23.000Z</time>
      </trkpt>
      <trkpt lat="43.51148" lon="6.57668">
        <ele>66.5</ele>
        <time>2025-10-28T10:46:24.000Z</time>
      </trkpt>
      <trkpt lat="43.51145" lon="6.57679">
        <ele>66.1</ele>
        <time>2025-10-28T10:46:25.000Z</time>
      </trkpt>
      <trkpt lat="43.51142" lon="6.5769">
        <ele>65.7</ele>
        <time>2025-10-28T10:46:26.000Z</time>
      </trkpt>
      <trkpt lat="43.51139" lon="6.57701">
        <ele>65.3</ele>
        <time>2025-10-28T10:46:27.000Z</time>
      </trkpt>
      <trkpt lat="43.51135" lon="6.57712">
        <ele>65</ele>
        <time>2025-10-28T10:46:28.000Z</time>
      </trkpt>
      <trkpt lat="43.51132" lon="6.57722">
        <ele>64.7</ele>
        <time>2025-10-28T10:46:29.000Z</time>
      </trkpt>
      <trkpt lat="43.51128" lon="6.57731">
        <ele>64.4</ele>
        <time>2025-10-28T10:46:30.000Z</time>
      </trkpt>
      <trkpt lat="43.51124" lon="6.57741">
        <ele>64.1</ele>
        <time>2025-10-28T10:46:31.000Z</time>
      </trkpt>
      <trkpt lat="43.51121" lon="6.5775">
        <ele>63.7</ele>
        <time>2025-10-28T10:46:32.000Z</time>
      </trkpt>
      <trkpt lat="43.51118" lon="6.5776">
        <ele>63.3</ele>
        <time>2025-10-28T10:46:33.000Z</time>
      </trkpt>
      <trkpt lat="43.51115" lon="6.5777">
        <ele>62.9</ele>
        <time>2025-10-28T10:46:34.000Z</time>
      </trkpt>
      <trkpt lat="43.51114" lon="6.5778">
        <ele>62.5</ele>
        <time>2025-10-28T10:46:35.000Z</time>
      </trkpt>
      <trkpt lat="43.51112" lon="6.57791">
        <ele>62.1</ele>
        <time>2025-10-28T10:46:36.000Z</time>
      </trkpt>
      <trkpt lat="43.51111" lon="6.57801">
        <ele>61.8</ele>
        <time>2025-10-28T10:46:37.000Z</time>
      </trkpt>
      <trkpt lat="43.51109" lon="6.57811">
        <ele>61.6</ele>
        <time>2025-10-28T10:46:38.000Z</time>
      </trkpt>
      <trkpt lat="43.51107" lon="6.5782">
        <ele>61.3</ele>
        <time>2025-10-28T10:46:39.000Z</time>
      </trkpt>
      <trkpt lat="43.51103" lon="6.57832">
        <ele>61</ele>
        <time>2025-10-28T10:46:40.000Z</time>
      </trkpt>
      <trkpt lat="43.511" lon="6.57841">
        <ele>60.7</ele>
        <time>2025-10-28T10:46:41.000Z</time>
      </trkpt>
      <trkpt lat="43.51098" lon="6.57848">
        <ele>60.5</ele>
        <time>2025-10-28T10:46:42.000Z</time>
      </trkpt>
      <trkpt lat="43.51095" lon="6.57858">
        <ele>60.1</ele>
        <time>2025-10-28T10:46:43.000Z</time>
      </trkpt>
      <trkpt lat="43.51093" lon="6.57867">
        <ele>59.7</ele>
        <time>2025-10-28T10:46:44.000Z</time>
      </trkpt>
      <trkpt lat="43.51091" lon="6.57878">
        <ele>59.2</ele>
        <time>2025-10-28T10:46:45.000Z</time>
      </trkpt>
      <trkpt lat="43.5109" lon="6.57888">
        <ele>58.8</ele>
        <time>2025-10-28T10:46:46.000Z</time>
      </trkpt>
      <trkpt lat="43.51089" lon="6.57898">
        <ele>58.4</ele>
        <time>2025-10-28T10:46:47.000Z</time>
      </trkpt>
      <trkpt lat="43.51089" lon="6.57908">
        <ele>58.1</ele>
        <time>2025-10-28T10:46:48.000Z</time>
      </trkpt>
      <trkpt lat="43.51089" lon="6.5792">
        <ele>57.8</ele>
        <time>2025-10-28T10:46:49.000Z</time>
      </trkpt>
      <trkpt lat="43.51089" lon="6.57927">
        <ele>57.6</ele>
        <time>2025-10-28T10:46:50.000Z</time>
      </trkpt>
      <trkpt lat="43.51089" lon="6.57937">
        <ele>57.3</ele>
        <time>2025-10-28T10:46:51.000Z</time>
      </trkpt>
      <trkpt lat="43.51088" lon="6.57945">
        <ele>57.1</ele>
        <time>2025-10-28T10:46:52.000Z</time>
      </trkpt>
      <trkpt lat="43.51087" lon="6.57954">
        <ele>56.8</ele>
        <time>2025-10-28T10:46:53.000Z</time>
      </trkpt>
      <trkpt lat="43.51088" lon="6.57962">
        <ele>56.5</ele>
        <time>2025-10-28T10:46:54.000Z</time>
      </trkpt>
      <trkpt lat="43.51089" lon="6.57971">
        <ele>56.3</ele>
        <time>2025-10-28T10:46:55.000Z</time>
      </trkpt>
      <trkpt lat="43.51092" lon="6.57979">
        <ele>56</ele>
        <time>2025-10-28T10:46:56.000Z</time>
      </trkpt>
      <trkpt lat="43.51095" lon="6.57986">
        <ele>55.8</ele>
        <time>2025-10-28T10:46:57.000Z</time>
      </trkpt>
      <trkpt lat="43.511" lon="6.57991">
        <ele>55.5</ele>
        <time>2025-10-28T10:46:58.000Z</time>
      </trkpt>
      <trkpt lat="43.51106" lon="6.57997">
        <ele>55.1</ele>
        <time>2025-10-28T10:46:59.000Z</time>
      </trkpt>
      <trkpt lat="43.5111" lon="6.58001">
        <ele>54.8</ele>
        <time>2025-10-28T10:47:00.000Z</time>
      </trkpt>
      <trkpt lat="43.51116" lon="6.58006">
        <ele>54.4</ele>
        <time>2025-10-28T10:47:01.000Z</time>
      </trkpt>
      <trkpt lat="43.51123" lon="6.58012">
        <ele>54</ele>
        <time>2025-10-28T10:47:02.000Z</time>
      </trkpt>
      <trkpt lat="43.51127" lon="6.58016">
        <ele>53.8</ele>
        <time>2025-10-28T10:47:03.000Z</time>
      </trkpt>
      <trkpt lat="43.51133" lon="6.5802">
        <ele>53.5</ele>
        <time>2025-10-28T10:47:04.000Z</time>
      </trkpt>
      <trkpt lat="43.51138" lon="6.58026">
        <ele>53.1</ele>
        <time>2025-10-28T10:47:05.000Z</time>
      </trkpt>
      <trkpt lat="43.51144" lon="6.58035">
        <ele>52.6</ele>
        <time>2025-10-28T10:47:06.000Z</time>
      </trkpt>
      <trkpt lat="43.51149" lon="6.58042">
        <ele>52.2</ele>
        <time>2025-10-28T10:47:07.000Z</time>
      </trkpt>
      <trkpt lat="43.51153" lon="6.58048">
        <ele>51.8</ele>
        <time>2025-10-28T10:47:08.000Z</time>
      </trkpt>
      <trkpt lat="43.51159" lon="6.58055">
        <ele>51.3</ele>
        <time>2025-10-28T10:47:09.000Z</time>
      </trkpt>
      <trkpt lat="43.51166" lon="6.58063">
        <ele>50.8</ele>
        <time>2025-10-28T10:47:10.000Z</time>
      </trkpt>
      <trkpt lat="43.51171" lon="6.58068">
        <ele>50.5</ele>
        <time>2025-10-28T10:47:11.000Z</time>
      </trkpt>
      <trkpt lat="43.51178" lon="6.58073">
        <ele>50.2</ele>
        <time>2025-10-28T10:47:12.000Z</time>
      </trkpt>
      <trkpt lat="43.51184" lon="6.58078">
        <ele>50.1</ele>
        <time>2025-10-28T10:47:13.000Z</time>
      </trkpt>
      <trkpt lat="43.5119" lon="6.58083">
        <ele>49.9</ele>
        <time>2025-10-28T10:47:14.000Z</time>
      </trkpt>
      <trkpt lat="43.51198" lon="6.5809">
        <ele>49.7</ele>
        <time>2025-10-28T10:47:15.000Z</time>
      </trkpt>
      <trkpt lat="43.51203" lon="6.58095">
        <ele>49.5</ele>
        <time>2025-10-28T10:47:16.000Z</time>
      </trkpt>
      <trkpt lat="43.51209" lon="6.58101">
        <ele>49.4</ele>
        <time>2025-10-28T10:47:17.000Z</time>
      </trkpt>
      <trkpt lat="43.51213" lon="6.58107">
        <ele>49.2</ele>
        <time>2025-10-28T10:47:18.000Z</time>
      </trkpt>
      <trkpt lat="43.51218" lon="6.58114">
        <ele>49</ele>
        <time>2025-10-28T10:47:19.000Z</time>
      </trkpt>
      <trkpt lat="43.51222" lon="6.58121">
        <ele>48.7</ele>
        <time>2025-10-28T10:47:20.000Z</time>
      </trkpt>
      <trkpt lat="43.51227" lon="6.5813">
        <ele>48.4</ele>
        <time>2025-10-28T10:47:21.000Z</time>
      </trkpt>
      <trkpt lat="43.51229" lon="6.58136">
        <ele>48.2</ele>
        <time>2025-10-28T10:47:22.000Z</time>
      </trkpt>
      <trkpt lat="43.51231" lon="6.58144">
        <ele>47.9</ele>
        <time>2025-10-28T10:47:23.000Z</time>
      </trkpt>
      <trkpt lat="43.51233" lon="6.58153">
        <ele>47.6</ele>
        <time>2025-10-28T10:47:24.000Z</time>
      </trkpt>
      <trkpt lat="43.51235" lon="6.58158">
        <ele>47.4</ele>
        <time>2025-10-28T10:47:25.000Z</time>
      </trkpt>
      <trkpt lat="43.51236" lon="6.58163">
        <ele>47.2</ele>
        <time>2025-10-28T10:47:26.000Z</time>
      </trkpt>
      <trkpt lat="43.51238" lon="6.58166">
        <ele>47</ele>
        <time>2025-10-28T10:47:27.000Z</time>
      </trkpt>
      <trkpt lat="43.51239" lon="6.58168">
        <ele>46.9</ele>
        <time>2025-10-28T10:47:28.000Z</time>
      </trkpt>
      <trkpt lat="43.5124" lon="6.58169">
        <ele>46.7</ele>
        <time>2025-10-28T10:47:29.000Z</time>
      </trkpt>
      <trkpt lat="43.51241" lon="6.5817">
        <ele>46.6</ele>
        <time>2025-10-28T10:47:30.000Z</time>
      </trkpt>
      <trkpt lat="43.51242" lon="6.58171">
        <ele>46.5</ele>
        <time>2025-10-28T10:47:31.000Z</time>
      </trkpt>
      <trkpt lat="43.51242" lon="6.58173">
        <ele>46.4</ele>
        <time>2025-10-28T10:47:32.000Z</time>
      </trkpt>
      <trkpt lat="43.51241" lon="6.58174">
        <ele>46.4</ele>
        <time>2025-10-28T10:47:33.000Z</time>
      </trkpt>
      <trkpt lat="43.5124" lon="6.58175">
        <ele>46.4</ele>
        <time>2025-10-28T10:47:34.000Z</time>
      </trkpt>
      <trkpt lat="43.51239" lon="6.58177">
        <ele>46.4</ele>
        <time>2025-10-28T10:47:35.000Z</time>
      </trkpt>
      <trkpt lat="43.51238" lon="6.5818">
        <ele>46.5</ele>
        <time>2025-10-28T10:47:36.000Z</time>
      </trkpt>
      <trkpt lat="43.51237" lon="6.58184">
        <ele>46.5</ele>
        <time>2025-10-28T10:47:37.000Z</time>
      </trkpt>
      <trkpt lat="43.51236" lon="6.58188">
        <ele>46.7</ele>
        <time>2025-10-28T10:47:38.000Z</time>
      </trkpt>
      <trkpt lat="43.51235" lon="6.58192">
        <ele>46.8</ele>
        <time>2025-10-28T10:47:39.000Z</time>
      </trkpt>
      <trkpt lat="43.51234" lon="6.58197">
        <ele>47</ele>
        <time>2025-10-28T10:47:40.000Z</time>
      </trkpt>
      <trkpt lat="43.51232" lon="6.58202">
        <ele>47.3</ele>
        <time>2025-10-28T10:47:41.000Z</time>
      </trkpt>
      <trkpt lat="43.51231" lon="6.58206">
        <ele>47.5</ele>
        <time>2025-10-28T10:47:42.000Z</time>
      </trkpt>
      <trkpt lat="43.51229" lon="6.58211">
        <ele>47.7</ele>
        <time>2025-10-28T10:47:43.000Z</time>
      </trkpt>
      <trkpt lat="43.51227" lon="6.58213">
        <ele>47.9</ele>
        <time>2025-10-28T10:47:44.000Z</time>
      </trkpt>
      <trkpt lat="43.51226" lon="6.58215">
        <ele>48.1</ele>
        <time>2025-10-28T10:47:45.000Z</time>
      </trkpt>
      <trkpt lat="43.51224" lon="6.58216">
        <ele>48.3</ele>
        <time>2025-10-28T10:47:46.000Z</time>
      </trkpt>
      <trkpt lat="43.51222" lon="6.58217">
        <ele>48.4</ele>
        <time>2025-10-28T10:47:47.000Z</time>
      </trkpt>
      <trkpt lat="43.51219" lon="6.58217">
        <ele>48.7</ele>
        <time>2025-10-28T10:47:48.000Z</time>
      </trkpt>
      <trkpt lat="43.51217" lon="6.58217">
        <ele>48.8</ele>
        <time>2025-10-28T10:47:49.000Z</time>
      </trkpt>
      <trkpt lat="43.51213" lon="6.58217">
        <ele>49.2</ele>
        <time>2025-10-28T10:47:50.000Z</time>
      </trkpt>
      <trkpt lat="43.51211" lon="6.58217">
        <ele>49.5</ele>
        <time>2025-10-28T10:47:51.000Z</time>
      </trkpt>
      <trkpt lat="43.51207" lon="6.58217">
        <ele>49.9</ele>
        <time>2025-10-28T10:47:52.000Z</time>
      </trkpt>
      <trkpt lat="43.51205" lon="6.58218">
        <ele>50.3</ele>
        <time>2025-10-28T10:47:53.000Z</time>
      </trkpt>
      <trkpt lat="43.51202" lon="6.58218">
        <ele>50.8</ele>
        <time>2025-10-28T10:47:54.000Z</time>
      </trkpt>
      <trkpt lat="43.51198" lon="6.58219">
        <ele>51.4</ele>
        <time>2025-10-28T10:47:55.000Z</time>
      </trkpt>
      <trkpt lat="43.51195" lon="6.5822">
        <ele>51.8</ele>
        <time>2025-10-28T10:47:56.000Z</time>
      </trkpt>
      <trkpt lat="43.51192" lon="6.58221">
        <ele>52.3</ele>
        <time>2025-10-28T10:47:57.000Z</time>
      </trkpt>
      <trkpt lat="43.5119" lon="6.58222">
        <ele>52.5</ele>
        <time>2025-10-28T10:47:58.000Z</time>
      </trkpt>
      <trkpt lat="43.51186" lon="6.58224">
        <ele>52.8</ele>
        <time>2025-10-28T10:47:59.000Z</time>
      </trkpt>
      <trkpt lat="43.51183" lon="6.58226">
        <ele>53</ele>
        <time>2025-10-28T10:48:00.000Z</time>
      </trkpt>
      <trkpt lat="43.5118" lon="6.58227">
        <ele>53.1</ele>
        <time>2025-10-28T10:48:01.000Z</time>
      </trkpt>
      <trkpt lat="43.51178" lon="6.58228">
        <ele>53.3</ele>
        <time>2025-10-28T10:48:02.000Z</time>
      </trkpt>
      <trkpt lat="43.51175" lon="6.58229">
        <ele>53.4</ele>
        <time>2025-10-28T10:48:03.000Z</time>
      </trkpt>
      <trkpt lat="43.51172" lon="6.5823">
        <ele>53.6</ele>
        <time>2025-10-28T10:48:04.000Z</time>
      </trkpt>
      <trkpt lat="43.51168" lon="6.5823">
        <ele>53.7</ele>
        <time>2025-10-28T10:48:05.000Z</time>
      </trkpt>
      <trkpt lat="43.51165" lon="6.5823">
        <ele>53.8</ele>
        <time>2025-10-28T10:48:06.000Z</time>
      </trkpt>
      <trkpt lat="43.51162" lon="6.5823">
        <ele>53.8</ele>
        <time>2025-10-28T10:48:07.000Z</time>
      </trkpt>
      <trkpt lat="43.51159" lon="6.58231">
        <ele>53.9</ele>
        <time>2025-10-28T10:48:08.000Z</time>
      </trkpt>
      <trkpt lat="43.51155" lon="6.58234">
        <ele>53.9</ele>
        <time>2025-10-28T10:48:09.000Z</time>
      </trkpt>
      <trkpt lat="43.51152" lon="6.58236">
        <ele>53.9</ele>
        <time>2025-10-28T10:48:10.000Z</time>
      </trkpt>
      <trkpt lat="43.51149" lon="6.58238">
        <ele>53.9</ele>
        <time>2025-10-28T10:48:11.000Z</time>
      </trkpt>
      <trkpt lat="43.51146" lon="6.58242">
        <ele>53.9</ele>
        <time>2025-10-28T10:48:12.000Z</time>
      </trkpt>
      <trkpt lat="43.51143" lon="6.58245">
        <ele>53.9</ele>
        <time>2025-10-28T10:48:13.000Z</time>
      </trkpt>
      <trkpt lat="43.51139" lon="6.58248">
        <ele>53.9</ele>
        <time>2025-10-28T10:48:14.000Z</time>
      </trkpt>
      <trkpt lat="43.51136" lon="6.58251">
        <ele>53.8</ele>
        <time>2025-10-28T10:48:15.000Z</time>
      </trkpt>
      <trkpt lat="43.51132" lon="6.58255">
        <ele>53.8</ele>
        <time>2025-10-28T10:48:16.000Z</time>
      </trkpt>
      <trkpt lat="43.51128" lon="6.58258">
        <ele>53.8</ele>
        <time>2025-10-28T10:48:17.000Z</time>
      </trkpt>
      <trkpt lat="43.51125" lon="6.58261">
        <ele>53.9</ele>
        <time>2025-10-28T10:48:18.000Z</time>
      </trkpt>
      <trkpt lat="43.51121" lon="6.58265">
        <ele>53.9</ele>
        <time>2025-10-28T10:48:19.000Z</time>
      </trkpt>
      <trkpt lat="43.51116" lon="6.58268">
        <ele>53.9</ele>
        <time>2025-10-28T10:48:20.000Z</time>
      </trkpt>
      <trkpt lat="43.51112" lon="6.58271">
        <ele>53.9</ele>
        <time>2025-10-28T10:48:21.000Z</time>
      </trkpt>
      <trkpt lat="43.51106" lon="6.58274">
        <ele>53.9</ele>
        <time>2025-10-28T10:48:22.000Z</time>
      </trkpt>
      <trkpt lat="43.51101" lon="6.58277">
        <ele>53.9</ele>
        <time>2025-10-28T10:48:23.000Z</time>
      </trkpt>
      <trkpt lat="43.51098" lon="6.58279">
        <ele>53.9</ele>
        <time>2025-10-28T10:48:24.000Z</time>
      </trkpt>
      <trkpt lat="43.51093" lon="6.58283">
        <ele>54</ele>
        <time>2025-10-28T10:48:25.000Z</time>
      </trkpt>
      <trkpt lat="43.51088" lon="6.58287">
        <ele>54.1</ele>
        <time>2025-10-28T10:48:26.000Z</time>
      </trkpt>
      <trkpt lat="43.51084" lon="6.58291">
        <ele>54.2</ele>
        <time>2025-10-28T10:48:27.000Z</time>
      </trkpt>
      <trkpt lat="43.5108" lon="6.58294">
        <ele>54.2</ele>
        <time>2025-10-28T10:48:28.000Z</time>
      </trkpt>
      <trkpt lat="43.51076" lon="6.58297">
        <ele>54.3</ele>
        <time>2025-10-28T10:48:29.000Z</time>
      </trkpt>
      <trkpt lat="43.51071" lon="6.583">
        <ele>54.4</ele>
        <time>2025-10-28T10:48:30.000Z</time>
      </trkpt>
      <trkpt lat="43.51066" lon="6.58303">
        <ele>54.5</ele>
        <time>2025-10-28T10:48:31.000Z</time>
      </trkpt>
      <trkpt lat="43.51062" lon="6.58307">
        <ele>54.6</ele>
        <time>2025-10-28T10:48:32.000Z</time>
      </trkpt>
      <trkpt lat="43.51059" lon="6.58309">
        <ele>54.7</ele>
        <time>2025-10-28T10:48:33.000Z</time>
      </trkpt>
      <trkpt lat="43.51054" lon="6.58314">
        <ele>54.8</ele>
        <time>2025-10-28T10:48:34.000Z</time>
      </trkpt>
      <trkpt lat="43.5105" lon="6.58317">
        <ele>54.9</ele>
        <time>2025-10-28T10:48:35.000Z</time>
      </trkpt>
      <trkpt lat="43.51046" lon="6.58321">
        <ele>55</ele>
        <time>2025-10-28T10:48:36.000Z</time>
      </trkpt>
      <trkpt lat="43.51043" lon="6.58324">
        <ele>55.1</ele>
        <time>2025-10-28T10:48:37.000Z</time>
      </trkpt>
      <trkpt lat="43.51039" lon="6.58328">
        <ele>55.2</ele>
        <time>2025-10-28T10:48:38.000Z</time>
      </trkpt>
      <trkpt lat="43.51036" lon="6.58331">
        <ele>55.2</ele>
        <time>2025-10-28T10:48:39.000Z</time>
      </trkpt>
      <trkpt lat="43.51033" lon="6.58334">
        <ele>55.2</ele>
        <time>2025-10-28T10:48:40.000Z</time>
      </trkpt>
      <trkpt lat="43.5103" lon="6.58338">
        <ele>55.1</ele>
        <time>2025-10-28T10:48:41.000Z</time>
      </trkpt>
      <trkpt lat="43.51027" lon="6.58343">
        <ele>55</ele>
        <time>2025-10-28T10:48:42.000Z</time>
      </trkpt>
      <trkpt lat="43.51024" lon="6.58349">
        <ele>54.8</ele>
        <time>2025-10-28T10:48:43.000Z</time>
      </trkpt>
      <trkpt lat="43.51023" lon="6.58355">
        <ele>54.6</ele>
        <time>2025-10-28T10:48:44.000Z</time>
      </trkpt>
      <trkpt lat="43.51022" lon="6.5836">
        <ele>54.5</ele>
        <time>2025-10-28T10:48:45.000Z</time>
      </trkpt>
      <trkpt lat="43.51022" lon="6.58366">
        <ele>54.3</ele>
        <time>2025-10-28T10:48:46.000Z</time>
      </trkpt>
      <trkpt lat="43.51022" lon="6.58373">
        <ele>54.1</ele>
        <time>2025-10-28T10:48:47.000Z</time>
      </trkpt>
      <trkpt lat="43.51021" lon="6.58378">
        <ele>54</ele>
        <time>2025-10-28T10:48:48.000Z</time>
      </trkpt>
      <trkpt lat="43.5102" lon="6.58387">
        <ele>53.7</ele>
        <time>2025-10-28T10:48:49.000Z</time>
      </trkpt>
      <trkpt lat="43.5102" lon="6.58392">
        <ele>53.6</ele>
        <time>2025-10-28T10:48:50.000Z</time>
      </trkpt>
      <trkpt lat="43.51019" lon="6.58402">
        <ele>53.4</ele>
        <time>2025-10-28T10:48:51.000Z</time>
      </trkpt>
      <trkpt lat="43.51019" lon="6.5841">
        <ele>53.2</ele>
        <time>2025-10-28T10:48:52.000Z</time>
      </trkpt>
      <trkpt lat="43.51018" lon="6.58418">
        <ele>53</ele>
        <time>2025-10-28T10:48:53.000Z</time>
      </trkpt>
      <trkpt lat="43.51017" lon="6.58425">
        <ele>52.8</ele>
        <time>2025-10-28T10:48:54.000Z</time>
      </trkpt>
      <trkpt lat="43.51016" lon="6.58434">
        <ele>52.5</ele>
        <time>2025-10-28T10:48:55.000Z</time>
      </trkpt>
      <trkpt lat="43.51015" lon="6.58443">
        <ele>52.3</ele>
        <time>2025-10-28T10:48:56.000Z</time>
      </trkpt>
      <trkpt lat="43.51014" lon="6.58454">
        <ele>51.9</ele>
        <time>2025-10-28T10:48:57.000Z</time>
      </trkpt>
      <trkpt lat="43.51013" lon="6.58462">
        <ele>51.6</ele>
        <time>2025-10-28T10:48:58.000Z</time>
      </trkpt>
      <trkpt lat="43.51013" lon="6.58469">
        <ele>51.3</ele>
        <time>2025-10-28T10:48:59.000Z</time>
      </trkpt>
      <trkpt lat="43.51012" lon="6.58478">
        <ele>51</ele>
        <time>2025-10-28T10:49:00.000Z</time>
      </trkpt>
      <trkpt lat="43.51011" lon="6.58487">
        <ele>50.6</ele>
        <time>2025-10-28T10:49:01.000Z</time>
      </trkpt>
      <trkpt lat="43.5101" lon="6.58499">
        <ele>50.1</ele>
        <time>2025-10-28T10:49:02.000Z</time>
      </trkpt>
      <trkpt lat="43.51009" lon="6.58507">
        <ele>49.7</ele>
        <time>2025-10-28T10:49:03.000Z</time>
      </trkpt>
      <trkpt lat="43.51008" lon="6.58517">
        <ele>49.3</ele>
        <time>2025-10-28T10:49:04.000Z</time>
      </trkpt>
      <trkpt lat="43.51007" lon="6.58528">
        <ele>48.7</ele>
        <time>2025-10-28T10:49:05.000Z</time>
      </trkpt>
      <trkpt lat="43.51005" lon="6.58539">
        <ele>48.3</ele>
        <time>2025-10-28T10:49:06.000Z</time>
      </trkpt>
      <trkpt lat="43.51004" lon="6.5855">
        <ele>47.7</ele>
        <time>2025-10-28T10:49:07.000Z</time>
      </trkpt>
      <trkpt lat="43.51001" lon="6.58561">
        <ele>47.3</ele>
        <time>2025-10-28T10:49:08.000Z</time>
      </trkpt>
      <trkpt lat="43.50999" lon="6.58574">
        <ele>46.6</ele>
        <time>2025-10-28T10:49:09.000Z</time>
      </trkpt>
      <trkpt lat="43.50998" lon="6.58582">
        <ele>46.2</ele>
        <time>2025-10-28T10:49:10.000Z</time>
      </trkpt>
      <trkpt lat="43.50997" lon="6.58594">
        <ele>45.7</ele>
        <time>2025-10-28T10:49:11.000Z</time>
      </trkpt>
      <trkpt lat="43.50996" lon="6.58602">
        <ele>45.3</ele>
        <time>2025-10-28T10:49:12.000Z</time>
      </trkpt>
      <trkpt lat="43.50995" lon="6.58611">
        <ele>44.9</ele>
        <time>2025-10-28T10:49:13.000Z</time>
      </trkpt>
      <trkpt lat="43.50995" lon="6.58621">
        <ele>44.5</ele>
        <time>2025-10-28T10:49:14.000Z</time>
      </trkpt>
      <trkpt lat="43.50995" lon="6.58628">
        <ele>44.1</ele>
        <time>2025-10-28T10:49:15.000Z</time>
      </trkpt>
      <trkpt lat="43.50995" lon="6.58633">
        <ele>43.9</ele>
        <time>2025-10-28T10:49:16.000Z</time>
      </trkpt>
      <trkpt lat="43.50995" lon="6.5864">
        <ele>43.5</ele>
        <time>2025-10-28T10:49:17.000Z</time>
      </trkpt>
      <trkpt lat="43.50995" lon="6.58648">
        <ele>43.2</ele>
        <time>2025-10-28T10:49:18.000Z</time>
      </trkpt>
      <trkpt lat="43.50996" lon="6.58653">
        <ele>43.1</ele>
        <time>2025-10-28T10:49:19.000Z</time>
      </trkpt>
      <trkpt lat="43.50997" lon="6.58659">
        <ele>42.9</ele>
        <time>2025-10-28T10:49:20.000Z</time>
      </trkpt>
      <trkpt lat="43.50997" lon="6.58664">
        <ele>42.7</ele>
        <time>2025-10-28T10:49:21.000Z</time>
      </trkpt>
      <trkpt lat="43.50997" lon="6.5867">
        <ele>42.5</ele>
        <time>2025-10-28T10:49:22.000Z</time>
      </trkpt>
      <trkpt lat="43.50996" lon="6.58676">
        <ele>42.5</ele>
        <time>2025-10-28T10:49:23.000Z</time>
      </trkpt>
      <trkpt lat="43.50994" lon="6.58682">
        <ele>42.4</ele>
        <time>2025-10-28T10:49:24.000Z</time>
      </trkpt>
      <trkpt lat="43.50992" lon="6.58687">
        <ele>42.3</ele>
        <time>2025-10-28T10:49:25.000Z</time>
      </trkpt>
      <trkpt lat="43.50991" lon="6.58691">
        <ele>42.3</ele>
        <time>2025-10-28T10:49:26.000Z</time>
      </trkpt>
      <trkpt lat="43.50991" lon="6.58693">
        <ele>42.2</ele>
        <time>2025-10-28T10:49:27.000Z</time>
      </trkpt>
      <trkpt lat="43.50991" lon="6.58694">
        <ele>42.2</ele>
        <time>2025-10-28T10:49:28.000Z</time>
      </trkpt>
      <trkpt lat="43.50991" lon="6.58695">
        <ele>42.1</ele>
        <time>2025-10-28T10:49:29.000Z</time>
      </trkpt>
      <trkpt lat="43.50991" lon="6.58696">
        <ele>42.1</ele>
        <time>2025-10-28T10:49:30.000Z</time>
      </trkpt>
      <trkpt lat="43.50992" lon="6.58698">
        <ele>42.1</ele>
        <time>2025-10-28T10:49:31.000Z</time>
      </trkpt>
      <trkpt lat="43.50992" lon="6.587">
        <ele>42</ele>
        <time>2025-10-28T10:49:32.000Z</time>
      </trkpt>
      <trkpt lat="43.50993" lon="6.58702">
        <ele>42</ele>
        <time>2025-10-28T10:49:33.000Z</time>
      </trkpt>
      <trkpt lat="43.50993" lon="6.58703">
        <ele>41.9</ele>
        <time>2025-10-28T10:49:34.000Z</time>
      </trkpt>
      <trkpt lat="43.50993" lon="6.58704">
        <ele>41.8</ele>
        <time>2025-10-28T10:49:35.000Z</time>
      </trkpt>
      <trkpt lat="43.50993" lon="6.58703">
        <ele>41.9</ele>
        <time>2025-10-28T10:49:36.000Z</time>
      </trkpt>
      <trkpt lat="43.50994" lon="6.58703">
        <ele>41.8</ele>
        <time>2025-10-28T10:49:37.000Z</time>
      </trkpt>
      <trkpt lat="43.50994" lon="6.58703">
        <ele>41.7</ele>
        <time>2025-10-28T10:49:38.000Z</time>
      </trkpt>
      <trkpt lat="43.50994" lon="6.58705">
        <ele>41.6</ele>
        <time>2025-10-28T10:49:39.000Z</time>
      </trkpt>
      <trkpt lat="43.50994" lon="6.58707">
        <ele>41.6</ele>
        <time>2025-10-28T10:49:40.000Z</time>
      </trkpt>
      <trkpt lat="43.50994" lon="6.5871">
        <ele>41.5</ele>
        <time>2025-10-28T10:49:41.000Z</time>
      </trkpt>
      <trkpt lat="43.50994" lon="6.58712">
        <ele>41.5</ele>
        <time>2025-10-28T10:49:42.000Z</time>
      </trkpt>
      <trkpt lat="43.50994" lon="6.58715">
        <ele>41.4</ele>
        <time>2025-10-28T10:49:43.000Z</time>
      </trkpt>
      <trkpt lat="43.50994" lon="6.58717">
        <ele>41.4</ele>
        <time>2025-10-28T10:49:44.000Z</time>
      </trkpt>
      <trkpt lat="43.50993" lon="6.58718">
        <ele>41.4</ele>
        <time>2025-10-28T10:49:45.000Z</time>
      </trkpt>
      <trkpt lat="43.50993" lon="6.58719">
        <ele>41.4</ele>
        <time>2025-10-28T10:49:46.000Z</time>
      </trkpt>
      <trkpt lat="43.50993" lon="6.58719">
        <ele>41.3</ele>
        <time>2025-10-28T10:49:47.000Z</time>
      </trkpt>
      <trkpt lat="43.50993" lon="6.58719">
        <ele>41.3</ele>
        <time>2025-10-28T10:49:48.000Z</time>
      </trkpt>
      <trkpt lat="43.50993" lon="6.58719">
        <ele>41.3</ele>
        <time>2025-10-28T10:49:49.000Z</time>
      </trkpt>
      <trkpt lat="43.50993" lon="6.58719">
        <ele>41.3</ele>
        <time>2025-10-28T10:49:50.000Z</time>
      </trkpt>
      <trkpt lat="43.50992" lon="6.5872">
        <ele>41.2</ele>
        <time>2025-10-28T10:49:51.000Z</time>
      </trkpt>
      <trkpt lat="43.50991" lon="6.58721">
        <ele>41.2</ele>
        <time>2025-10-28T10:49:52.000Z</time>
      </trkpt>
      <trkpt lat="43.5099" lon="6.58723">
        <ele>41.2</ele>
        <time>2025-10-28T10:49:53.000Z</time>
      </trkpt>
      <trkpt lat="43.50989" lon="6.58725">
        <ele>41.1</ele>
        <time>2025-10-28T10:49:54.000Z</time>
      </trkpt>
      <trkpt lat="43.50989" lon="6.58727">
        <ele>41.1</ele>
        <time>2025-10-28T10:49:55.000Z</time>
      </trkpt>
      <trkpt lat="43.5099" lon="6.58729">
        <ele>41.1</ele>
        <time>2025-10-28T10:49:56.000Z</time>
      </trkpt>
      <trkpt lat="43.50989" lon="6.58731">
        <ele>41</ele>
        <time>2025-10-28T10:49:57.000Z</time>
      </trkpt>
      <trkpt lat="43.50989" lon="6.58733">
        <ele>41</ele>
        <time>2025-10-28T10:49:58.000Z</time>
      </trkpt>
      <trkpt lat="43.50988" lon="6.58735">
        <ele>40.9</ele>
        <time>2025-10-28T10:49:59.000Z</time>
      </trkpt>
      <trkpt lat="43.50987" lon="6.58736">
        <ele>40.9</ele>
        <time>2025-10-28T10:50:00.000Z</time>
      </trkpt>
      <trkpt lat="43.50986" lon="6.58737">
        <ele>40.9</ele>
        <time>2025-10-28T10:50:01.000Z</time>
      </trkpt>
      <trkpt lat="43.50986" lon="6.58737">
        <ele>40.9</ele>
        <time>2025-10-28T10:50:02.000Z</time>
      </trkpt>
      <trkpt lat="43.50985" lon="6.58737">
        <ele>40.9</ele>
        <time>2025-10-28T10:50:03.000Z</time>
      </trkpt>
      <trkpt lat="43.50985" lon="6.58737">
        <ele>40.9</ele>
        <time>2025-10-28T10:50:04.000Z</time>
      </trkpt>
      <trkpt lat="43.50985" lon="6.58736">
        <ele>40.8</ele>
        <time>2025-10-28T10:50:05.000Z</time>
      </trkpt>
      <trkpt lat="43.50985" lon="6.58736">
        <ele>40.8</ele>
        <time>2025-10-28T10:50:06.000Z</time>
      </trkpt>
      <trkpt lat="43.50984" lon="6.58737">
        <ele>40.8</ele>
        <time>2025-10-28T10:50:07.000Z</time>
      </trkpt>
      <trkpt lat="43.50983" lon="6.58738">
        <ele>40.8</ele>
        <time>2025-10-28T10:50:08.000Z</time>
      </trkpt>
      <trkpt lat="43.50981" lon="6.58739">
        <ele>40.7</ele>
        <time>2025-10-28T10:50:09.000Z</time>
      </trkpt>
      <trkpt lat="43.5098" lon="6.5874">
        <ele>40.8</ele>
        <time>2025-10-28T10:50:10.000Z</time>
      </trkpt>
      <trkpt lat="43.50978" lon="6.58741">
        <ele>40.7</ele>
        <time>2025-10-28T10:50:11.000Z</time>
      </trkpt>
      <trkpt lat="43.50978" lon="6.58741">
        <ele>40.7</ele>
        <time>2025-10-28T10:50:12.000Z</time>
      </trkpt>
      <trkpt lat="43.50978" lon="6.58741">
        <ele>40.7</ele>
        <time>2025-10-28T10:50:13.000Z</time>
      </trkpt>
      <trkpt lat="43.50978" lon="6.58742">
        <ele>40.7</ele>
        <time>2025-10-28T10:50:14.000Z</time>
      </trkpt>
      <trkpt lat="43.50978" lon="6.58743">
        <ele>40.7</ele>
        <time>2025-10-28T10:50:15.000Z</time>
      </trkpt>
      <trkpt lat="43.50978" lon="6.58742">
        <ele>40.6</ele>
        <time>2025-10-28T10:50:16.000Z</time>
      </trkpt>
      <trkpt lat="43.50978" lon="6.58742">
        <ele>40.5</ele>
        <time>2025-10-28T10:50:17.000Z</time>
      </trkpt>
      <trkpt lat="43.50978" lon="6.58742">
        <ele>40.5</ele>
        <time>2025-10-28T10:50:18.000Z</time>
      </trkpt>
      <trkpt lat="43.50978" lon="6.58743">
        <ele>40.5</ele>
        <time>2025-10-28T10:50:19.000Z</time>
      </trkpt>
      <trkpt lat="43.50978" lon="6.58742">
        <ele>40.4</ele>
        <time>2025-10-28T10:50:20.000Z</time>
      </trkpt>
      <trkpt lat="43.50978" lon="6.58742">
        <ele>40.5</ele>
        <time>2025-10-28T10:50:21.000Z</time>
      </trkpt>
      <trkpt lat="43.50978" lon="6.58741">
        <ele>40.4</ele>
        <time>2025-10-28T10:50:22.000Z</time>
      </trkpt>
      <trkpt lat="43.50978" lon="6.58741">
        <ele>40.4</ele>
        <time>2025-10-28T10:50:23.000Z</time>
      </trkpt>
      <trkpt lat="43.50978" lon="6.58741">
        <ele>40.4</ele>
        <time>2025-10-28T10:50:24.000Z</time>
      </trkpt>
      <trkpt lat="43.50978" lon="6.58741">
        <ele>40.3</ele>
        <time>2025-10-28T10:50:25.000Z</time>
      </trkpt>
      <trkpt lat="43.50978" lon="6.58741">
        <ele>40.4</ele>
        <time>2025-10-28T10:50:26.000Z</time>
      </trkpt>
      <trkpt lat="43.50978" lon="6.58741">
        <ele>40.4</ele>
        <time>2025-10-28T10:50:27.000Z</time>
      </trkpt>
      <trkpt lat="43.50978" lon="6.58741">
        <ele>40.3</ele>
        <time>2025-10-28T10:50:28.000Z</time>
      </trkpt>
      <trkpt lat="43.50977" lon="6.58741">
        <ele>40.3</ele>
        <time>2025-10-28T10:50:29.000Z</time>
      </trkpt>
      <trkpt lat="43.50977" lon="6.58742">
        <ele>40.3</ele>
        <time>2025-10-28T10:50:30.000Z</time>
      </trkpt>
      <trkpt lat="43.50977" lon="6.58742">
        <ele>40.2</ele>
        <time>2025-10-28T10:50:31.000Z</time>
      </trkpt>
      <trkpt lat="43.50977" lon="6.58742">
        <ele>40.2</ele>
        <time>2025-10-28T10:50:32.000Z</time>
      </trkpt>
      <trkpt lat="43.50977" lon="6.58742">
        <ele>40.2</ele>
        <time>2025-10-28T10:50:33.000Z</time>
      </trkpt>
      <trkpt lat="43.50977" lon="6.58742">
        <ele>40.2</ele>
        <time>2025-10-28T10:50:34.000Z</time>
      </trkpt>
      <trkpt lat="43.50977" lon="6.58742">
        <ele>40.1</ele>
        <time>2025-10-28T10:50:35.000Z</time>
      </trkpt>
      <trkpt lat="43.50977" lon="6.58742">
        <ele>40.1</ele>
        <time>2025-10-28T10:50:36.000Z</time>
      </trkpt>
      <trkpt lat="43.50977" lon="6.58742">
        <ele>40.1</ele>
        <time>2025-10-28T10:50:37.000Z</time>
      </trkpt>
      <trkpt lat="43.50977" lon="6.58742">
        <ele>40</ele>
        <time>2025-10-28T10:50:38.000Z</time>
      </trkpt>
      <trkpt lat="43.50977" lon="6.58742">
        <ele>40</ele>
        <time>2025-10-28T10:50:39.000Z</time>
      </trkpt>
      <trkpt lat="43.50977" lon="6.58742">
        <ele>40</ele>
        <time>2025-10-28T10:50:40.000Z</time>
      </trkpt>
      <trkpt lat="43.50977" lon="6.58742">
        <ele>40</ele>
        <time>2025-10-28T10:50:41.000Z</time>
      </trkpt>
      <trkpt lat="43.50978" lon="6.58742">
        <ele>39.9</ele>
        <time>2025-10-28T10:50:42.000Z</time>
      </trkpt>
      <trkpt lat="43.50978" lon="6.58742">
        <ele>39.9</ele>
        <time>2025-10-28T10:50:43.000Z</time>
      </trkpt>
      <trkpt lat="43.50977" lon="6.58742">
        <ele>39.9</ele>
        <time>2025-10-28T10:50:44.000Z</time>
      </trkpt>
      <trkpt lat="43.50975" lon="6.58742">
        <ele>39.8</ele>
        <time>2025-10-28T10:50:45.000Z</time>
      </trkpt>
      <trkpt lat="43.50973" lon="6.58742">
        <ele>39.8</ele>
        <time>2025-10-28T10:50:46.000Z</time>
      </trkpt>
      <trkpt lat="43.50971" lon="6.58743">
        <ele>39.9</ele>
        <time>2025-10-28T10:50:47.000Z</time>
      </trkpt>
      <trkpt lat="43.5097" lon="6.58744">
        <ele>39.8</ele>
        <time>2025-10-28T10:50:48.000Z</time>
      </trkpt>
      <trkpt lat="43.50969" lon="6.58745">
        <ele>39.9</ele>
        <time>2025-10-28T10:50:49.000Z</time>
      </trkpt>
      <trkpt lat="43.50967" lon="6.58747">
        <ele>39.8</ele>
        <time>2025-10-28T10:50:50.000Z</time>
      </trkpt>
      <trkpt lat="43.50965" lon="6.5875">
        <ele>39.8</ele>
        <time>2025-10-28T10:50:51.000Z</time>
      </trkpt>
      <trkpt lat="43.50964" lon="6.58753">
        <ele>39.8</ele>
        <time>2025-10-28T10:50:52.000Z</time>
      </trkpt>
      <trkpt lat="43.50962" lon="6.58755">
        <ele>39.7</ele>
        <time>2025-10-28T10:50:53.000Z</time>
      </trkpt>
      <trkpt lat="43.50961" lon="6.58757">
        <ele>39.7</ele>
        <time>2025-10-28T10:50:54.000Z</time>
      </trkpt>
      <trkpt lat="43.50959" lon="6.5876">
        <ele>39.6</ele>
        <time>2025-10-28T10:50:55.000Z</time>
      </trkpt>
      <trkpt lat="43.50959" lon="6.58764">
        <ele>39.6</ele>
        <time>2025-10-28T10:50:56.000Z</time>
      </trkpt>
      <trkpt lat="43.50958" lon="6.58767">
        <ele>39.6</ele>
        <time>2025-10-28T10:50:57.000Z</time>
      </trkpt>
      <trkpt lat="43.50958" lon="6.58771">
        <ele>39.5</ele>
        <time>2025-10-28T10:50:58.000Z</time>
      </trkpt>
      <trkpt lat="43.50958" lon="6.58775">
        <ele>39.4</ele>
        <time>2025-10-28T10:50:59.000Z</time>
      </trkpt>
      <trkpt lat="43.50958" lon="6.58777">
        <ele>39.3</ele>
        <time>2025-10-28T10:51:00.000Z</time>
      </trkpt>
      <trkpt lat="43.50958" lon="6.58777">
        <ele>39.3</ele>
        <time>2025-10-28T10:51:01.000Z</time>
      </trkpt>
      <trkpt lat="43.50958" lon="6.58777">
        <ele>39.3</ele>
        <time>2025-10-28T10:51:02.000Z</time>
      </trkpt>
      <trkpt lat="43.50958" lon="6.58777">
        <ele>39.2</ele>
        <time>2025-10-28T10:51:03.000Z</time>
      </trkpt>
      <trkpt lat="43.50958" lon="6.58778">
        <ele>39.2</ele>
        <time>2025-10-28T10:51:04.000Z</time>
      </trkpt>
      <trkpt lat="43.50958" lon="6.5878">
        <ele>39.2</ele>
        <time>2025-10-28T10:51:05.000Z</time>
      </trkpt>
      <trkpt lat="43.50959" lon="6.58782">
        <ele>39.1</ele>
        <time>2025-10-28T10:51:06.000Z</time>
      </trkpt>
      <trkpt lat="43.5096" lon="6.58785">
        <ele>39</ele>
        <time>2025-10-28T10:51:07.000Z</time>
      </trkpt>
      <trkpt lat="43.50961" lon="6.58788">
        <ele>38.8</ele>
        <time>2025-10-28T10:51:08.000Z</time>
      </trkpt>
      <trkpt lat="43.50961" lon="6.58791">
        <ele>38.7</ele>
        <time>2025-10-28T10:51:09.000Z</time>
      </trkpt>
      <trkpt lat="43.50961" lon="6.58794">
        <ele>38.5</ele>
        <time>2025-10-28T10:51:10.000Z</time>
      </trkpt>
      <trkpt lat="43.50962" lon="6.58797">
        <ele>38.5</ele>
        <time>2025-10-28T10:51:11.000Z</time>
      </trkpt>
      <trkpt lat="43.50962" lon="6.58801">
        <ele>38.3</ele>
        <time>2025-10-28T10:51:12.000Z</time>
      </trkpt>
      <trkpt lat="43.50963" lon="6.58804">
        <ele>38.1</ele>
        <time>2025-10-28T10:51:13.000Z</time>
      </trkpt>
      <trkpt lat="43.50963" lon="6.58805">
        <ele>38</ele>
        <time>2025-10-28T10:51:14.000Z</time>
      </trkpt>
      <trkpt lat="43.50964" lon="6.58806">
        <ele>38</ele>
        <time>2025-10-28T10:51:15.000Z</time>
      </trkpt>
      <trkpt lat="43.50964" lon="6.58806">
        <ele>38</ele>
        <time>2025-10-28T10:51:16.000Z</time>
      </trkpt>
      <trkpt lat="43.50964" lon="6.58806">
        <ele>38</ele>
        <time>2025-10-28T10:51:17.000Z</time>
      </trkpt>
      <trkpt lat="43.50964" lon="6.58806">
        <ele>37.9</ele>
        <time>2025-10-28T10:51:18.000Z</time>
      </trkpt>
      <trkpt lat="43.50965" lon="6.58807">
        <ele>37.7</ele>
        <time>2025-10-28T10:51:19.000Z</time>
      </trkpt>
      <trkpt lat="43.50965" lon="6.58808">
        <ele>37.7</ele>
        <time>2025-10-28T10:51:20.000Z</time>
      </trkpt>
      <trkpt lat="43.50966" lon="6.58809">
        <ele>37.6</ele>
        <time>2025-10-28T10:51:21.000Z</time>
      </trkpt>
      <trkpt lat="43.50967" lon="6.58812">
        <ele>37.4</ele>
        <time>2025-10-28T10:51:22.000Z</time>
      </trkpt>
      <trkpt lat="43.50967" lon="6.58815">
        <ele>37.3</ele>
        <time>2025-10-28T10:51:23.000Z</time>
      </trkpt>
      <trkpt lat="43.50967" lon="6.58818">
        <ele>37.1</ele>
        <time>2025-10-28T10:51:24.000Z</time>
      </trkpt>
      <trkpt lat="43.50966" lon="6.58822">
        <ele>36.9</ele>
        <time>2025-10-28T10:51:25.000Z</time>
      </trkpt>
      <trkpt lat="43.50965" lon="6.58825">
        <ele>36.9</ele>
        <time>2025-10-28T10:51:26.000Z</time>
      </trkpt>
      <trkpt lat="43.50965" lon="6.58829">
        <ele>36.7</ele>
        <time>2025-10-28T10:51:27.000Z</time>
      </trkpt>
      <trkpt lat="43.50964" lon="6.58833">
        <ele>36.5</ele>
        <time>2025-10-28T10:51:28.000Z</time>
      </trkpt>
      <trkpt lat="43.50963" lon="6.58836">
        <ele>36.5</ele>
        <time>2025-10-28T10:51:29.000Z</time>
      </trkpt>
      <trkpt lat="43.50961" lon="6.5884">
        <ele>36.5</ele>
        <time>2025-10-28T10:51:30.000Z</time>
      </trkpt>
      <trkpt lat="43.5096" lon="6.58844">
        <ele>36.4</ele>
        <time>2025-10-28T10:51:31.000Z</time>
      </trkpt>
      <trkpt lat="43.50959" lon="6.58847">
        <ele>36.4</ele>
        <time>2025-10-28T10:51:32.000Z</time>
      </trkpt>
      <trkpt lat="43.50957" lon="6.5885">
        <ele>36.4</ele>
        <time>2025-10-28T10:51:33.000Z</time>
      </trkpt>
      <trkpt lat="43.50956" lon="6.58854">
        <ele>36.5</ele>
        <time>2025-10-28T10:51:34.000Z</time>
      </trkpt>
      <trkpt lat="43.50954" lon="6.58857">
        <ele>36.5</ele>
        <time>2025-10-28T10:51:35.000Z</time>
      </trkpt>
      <trkpt lat="43.50952" lon="6.5886">
        <ele>36.6</ele>
        <time>2025-10-28T10:51:36.000Z</time>
      </trkpt>
      <trkpt lat="43.50951" lon="6.58863">
        <ele>36.6</ele>
        <time>2025-10-28T10:51:37.000Z</time>
      </trkpt>
      <trkpt lat="43.50949" lon="6.58867">
        <ele>36.7</ele>
        <time>2025-10-28T10:51:38.000Z</time>
      </trkpt>
      <trkpt lat="43.50948" lon="6.5887">
        <ele>36.7</ele>
        <time>2025-10-28T10:51:39.000Z</time>
      </trkpt>
      <trkpt lat="43.50946" lon="6.58873">
        <ele>36.8</ele>
        <time>2025-10-28T10:51:40.000Z</time>
      </trkpt>
      <trkpt lat="43.50945" lon="6.58876">
        <ele>36.9</ele>
        <time>2025-10-28T10:51:41.000Z</time>
      </trkpt>
      <trkpt lat="43.50945" lon="6.58879">
        <ele>36.9</ele>
        <time>2025-10-28T10:51:42.000Z</time>
      </trkpt>
      <trkpt lat="43.50944" lon="6.58881">
        <ele>36.9</ele>
        <time>2025-10-28T10:51:43.000Z</time>
      </trkpt>
      <trkpt lat="43.50944" lon="6.58884">
        <ele>37</ele>
        <time>2025-10-28T10:51:44.000Z</time>
      </trkpt>
      <trkpt lat="43.50944" lon="6.58887">
        <ele>37</ele>
        <time>2025-10-28T10:51:45.000Z</time>
      </trkpt>
      <trkpt lat="43.50944" lon="6.58888">
        <ele>37</ele>
        <time>2025-10-28T10:51:46.000Z</time>
      </trkpt>
      <trkpt lat="43.50944" lon="6.58889">
        <ele>37</ele>
        <time>2025-10-28T10:51:47.000Z</time>
      </trkpt>
      <trkpt lat="43.50944" lon="6.58889">
        <ele>37</ele>
        <time>2025-10-28T10:51:48.000Z</time>
      </trkpt>
      <trkpt lat="43.50944" lon="6.58889">
        <ele>37</ele>
        <time>2025-10-28T10:51:49.000Z</time>
      </trkpt>
      <trkpt lat="43.50944" lon="6.58889">
        <ele>36.9</ele>
        <time>2025-10-28T10:51:50.000Z</time>
      </trkpt>
      <trkpt lat="43.50944" lon="6.58888">
        <ele>36.9</ele>
        <time>2025-10-28T10:51:51.000Z</time>
      </trkpt>
      <trkpt lat="43.50944" lon="6.58889">
        <ele>36.9</ele>
        <time>2025-10-28T10:51:52.000Z</time>
      </trkpt>
      <trkpt lat="43.50944" lon="6.58889">
        <ele>36.8</ele>
        <time>2025-10-28T10:51:53.000Z</time>
      </trkpt>
      <trkpt lat="43.50944" lon="6.58889">
        <ele>36.8</ele>
        <time>2025-10-28T10:51:54.000Z</time>
      </trkpt>
      <trkpt lat="43.50944" lon="6.58888">
        <ele>36.8</ele>
        <time>2025-10-28T10:51:55.000Z</time>
      </trkpt>
      <trkpt lat="43.50944" lon="6.58888">
        <ele>36.8</ele>
        <time>2025-10-28T10:51:56.000Z</time>
      </trkpt>
      <trkpt lat="43.50945" lon="6.58888">
        <ele>36.6</ele>
        <time>2025-10-28T10:51:57.000Z</time>
      </trkpt>
      <trkpt lat="43.50945" lon="6.58888">
        <ele>36.6</ele>
        <time>2025-10-28T10:51:58.000Z</time>
      </trkpt>
      <trkpt lat="43.50945" lon="6.58888">
        <ele>36.6</ele>
        <time>2025-10-28T10:51:59.000Z</time>
      </trkpt>
      <trkpt lat="43.50945" lon="6.58888">
        <ele>36.6</ele>
        <time>2025-10-28T10:52:00.000Z</time>
      </trkpt>
      <trkpt lat="43.50945" lon="6.58888">
        <ele>36.5</ele>
        <time>2025-10-28T10:52:01.000Z</time>
      </trkpt>
      <trkpt lat="43.50945" lon="6.58888">
        <ele>36.5</ele>
        <time>2025-10-28T10:52:02.000Z</time>
      </trkpt>
      <trkpt lat="43.50945" lon="6.58888">
        <ele>36.5</ele>
        <time>2025-10-28T10:52:03.000Z</time>
      </trkpt>
      <trkpt lat="43.50945" lon="6.58888">
        <ele>36.4</ele>
        <time>2025-10-28T10:52:04.000Z</time>
      </trkpt>
      <trkpt lat="43.50945" lon="6.58888">
        <ele>36.4</ele>
        <time>2025-10-28T10:52:05.000Z</time>
      </trkpt>
      <trkpt lat="43.50945" lon="6.58888">
        <ele>36.4</ele>
        <time>2025-10-28T10:52:06.000Z</time>
      </trkpt>
      <trkpt lat="43.50945" lon="6.58888">
        <ele>36.4</ele>
        <time>2025-10-28T10:52:07.000Z</time>
      </trkpt>
      <trkpt lat="43.50945" lon="6.58888">
        <ele>36.3</ele>
        <time>2025-10-28T10:52:08.000Z</time>
      </trkpt>
      <trkpt lat="43.50945" lon="6.58888">
        <ele>36.3</ele>
        <time>2025-10-28T10:52:09.000Z</time>
      </trkpt>
      <trkpt lat="43.50945" lon="6.58888">
        <ele>36.3</ele>
        <time>2025-10-28T10:52:10.000Z</time>
      </trkpt>
      <trkpt lat="43.50945" lon="6.58888">
        <ele>36.2</ele>
        <time>2025-10-28T10:52:11.000Z</time>
      </trkpt>
      <trkpt lat="43.50945" lon="6.58888">
        <ele>36.2</ele>
        <time>2025-10-28T10:52:12.000Z</time>
      </trkpt>
      <trkpt lat="43.50945" lon="6.58888">
        <ele>36.2</ele>
        <time>2025-10-28T10:52:13.000Z</time>
      </trkpt>
      <trkpt lat="43.50945" lon="6.58887">
        <ele>36.2</ele>
        <time>2025-10-28T10:52:14.000Z</time>
      </trkpt>
      <trkpt lat="43.50945" lon="6.58887">
        <ele>36.1</ele>
        <time>2025-10-28T10:52:15.000Z</time>
      </trkpt>
      <trkpt lat="43.50945" lon="6.58887">
        <ele>36.1</ele>
        <time>2025-10-28T10:52:16.000Z</time>
      </trkpt>
      <trkpt lat="43.50945" lon="6.58887">
        <ele>36.1</ele>
        <time>2025-10-28T10:52:17.000Z</time>
      </trkpt>
      <trkpt lat="43.50945" lon="6.58887">
        <ele>36</ele>
        <time>2025-10-28T10:52:18.000Z</time>
      </trkpt>
      <trkpt lat="43.50945" lon="6.58887">
        <ele>36</ele>
        <time>2025-10-28T10:52:19.000Z</time>
      </trkpt>
      <trkpt lat="43.50946" lon="6.58887">
        <ele>36</ele>
        <time>2025-10-28T10:52:20.000Z</time>
      </trkpt>
      <trkpt lat="43.50946" lon="6.58887">
        <ele>36</ele>
        <time>2025-10-28T10:52:21.000Z</time>
      </trkpt>
      <trkpt lat="43.50946" lon="6.58887">
        <ele>35.9</ele>
        <time>2025-10-28T10:52:22.000Z</time>
      </trkpt>
      <trkpt lat="43.50946" lon="6.58887">
        <ele>35.9</ele>
        <time>2025-10-28T10:52:23.000Z</time>
      </trkpt>
      <trkpt lat="43.50946" lon="6.58887">
        <ele>35.9</ele>
        <time>2025-10-28T10:52:24.000Z</time>
      </trkpt>
      <trkpt lat="43.50946" lon="6.58887">
        <ele>35.9</ele>
        <time>2025-10-28T10:52:25.000Z</time>
      </trkpt>
      <trkpt lat="43.50946" lon="6.58887">
        <ele>35.9</ele>
        <time>2025-10-28T10:52:26.000Z</time>
      </trkpt>
      <trkpt lat="43.50946" lon="6.58887">
        <ele>35.9</ele>
        <time>2025-10-28T10:52:27.000Z</time>
      </trkpt>
      <trkpt lat="43.50946" lon="6.58887">
        <ele>35.9</ele>
        <time>2025-10-28T10:52:28.000Z</time>
      </trkpt>
      <trkpt lat="43.50946" lon="6.58887">
        <ele>35.9</ele>
        <time>2025-10-28T10:52:29.000Z</time>
      </trkpt>
      <trkpt lat="43.50946" lon="6.58887">
        <ele>35.9</ele>
        <time>2025-10-28T10:52:30.000Z</time>
      </trkpt>
      <trkpt lat="43.50946" lon="6.58887">
        <ele>35.9</ele>
        <time>2025-10-28T10:52:31.000Z</time>
      </trkpt>
      <trkpt lat="43.50946" lon="6.58887">
        <ele>35.9</ele>
        <time>2025-10-28T10:52:32.000Z</time>
      </trkpt>
      <trkpt lat="43.50946" lon="6.58887">
        <ele>35.9</ele>
        <time>2025-10-28T10:52:33.000Z</time>
      </trkpt>
      <trkpt lat="43.50946" lon="6.58887">
        <ele>35.9</ele>
        <time>2025-10-28T10:52:34.000Z</time>
      </trkpt>
      <trkpt lat="43.50946" lon="6.58887">
        <ele>35.9</ele>
        <time>2025-10-28T10:52:35.000Z</time>
      </trkpt>
      <trkpt lat="43.50946" lon="6.58887">
        <ele>35.9</ele>
        <time>2025-10-28T10:52:36.000Z</time>
      </trkpt>
      <trkpt lat="43.50946" lon="6.58887">
        <ele>35.9</ele>
        <time>2025-10-28T10:52:37.000Z</time>
      </trkpt>
      <trkpt lat="43.50946" lon="6.58887">
        <ele>35.9</ele>
        <time>2025-10-28T10:52:38.000Z</time>
      </trkpt>
      <trkpt lat="43.50946" lon="6.58887">
        <ele>35.9</ele>
        <time>2025-10-28T10:52:39.000Z</time>
      </trkpt>
      <trkpt lat="43.50946" lon="6.58888">
        <ele>35.9</ele>
        <time>2025-10-28T10:52:40.000Z</time>
      </trkpt>
      <trkpt lat="43.50946" lon="6.58888">
        <ele>35.9</ele>
        <time>2025-10-28T10:52:41.000Z</time>
      </trkpt>
      <trkpt lat="43.50946" lon="6.58888">
        <ele>35.9</ele>
        <time>2025-10-28T10:52:42.000Z</time>
      </trkpt>
      <trkpt lat="43.50946" lon="6.58888">
        <ele>35.9</ele>
        <time>2025-10-28T10:52:43.000Z</time>
      </trkpt>
      <trkpt lat="43.50945" lon="6.58888">
        <ele>35.9</ele>
        <time>2025-10-28T10:52:44.000Z</time>
      </trkpt>
      <trkpt lat="43.50945" lon="6.58888">
        <ele>35.9</ele>
        <time>2025-10-28T10:52:45.000Z</time>
      </trkpt>
      <trkpt lat="43.50945" lon="6.58888">
        <ele>35.9</ele>
        <time>2025-10-28T10:52:46.000Z</time>
      </trkpt>
      <trkpt lat="43.50945" lon="6.58888">
        <ele>35.9</ele>
        <time>2025-10-28T10:52:47.000Z</time>
      </trkpt>
      <trkpt lat="43.50945" lon="6.58888">
        <ele>35.9</ele>
        <time>2025-10-28T10:52:48.000Z</time>
      </trkpt>
      <trkpt lat="43.50945" lon="6.58888">
        <ele>35.9</ele>
        <time>2025-10-28T10:52:49.000Z</time>
      </trkpt>
      <trkpt lat="43.50945" lon="6.58888">
        <ele>36</ele>
        <time>2025-10-28T10:52:50.000Z</time>
      </trkpt>
      <trkpt lat="43.50943" lon="6.58892">
        <ele>36.2</ele>
        <time>2025-10-28T10:52:51.000Z</time>
      </trkpt>
      <trkpt lat="43.50941" lon="6.58895">
        <ele>36.4</ele>
        <time>2025-10-28T10:52:52.000Z</time>
      </trkpt>
      <trkpt lat="43.50939" lon="6.58898">
        <ele>36.6</ele>
        <time>2025-10-28T10:52:53.000Z</time>
      </trkpt>
      <trkpt lat="43.50937" lon="6.58901">
        <ele>36.8</ele>
        <time>2025-10-28T10:52:54.000Z</time>
      </trkpt>
      <trkpt lat="43.50935" lon="6.58905">
        <ele>36.9</ele>
        <time>2025-10-28T10:52:55.000Z</time>
      </trkpt>
      <trkpt lat="43.50933" lon="6.58908">
        <ele>37.1</ele>
        <time>2025-10-28T10:52:56.000Z</time>
      </trkpt>
      <trkpt lat="43.50932" lon="6.5891">
        <ele>37.2</ele>
        <time>2025-10-28T10:52:57.000Z</time>
      </trkpt>
      <trkpt lat="43.50932" lon="6.58912">
        <ele>37.2</ele>
        <time>2025-10-28T10:52:58.000Z</time>
      </trkpt>
      <trkpt lat="43.50931" lon="6.58912">
        <ele>37.3</ele>
        <time>2025-10-28T10:52:59.000Z</time>
      </trkpt>
      <trkpt lat="43.50931" lon="6.58913">
        <ele>37.3</ele>
        <time>2025-10-28T10:53:00.000Z</time>
      </trkpt>
      <trkpt lat="43.50931" lon="6.58913">
        <ele>37.3</ele>
        <time>2025-10-28T10:53:01.000Z</time>
      </trkpt>
      <trkpt lat="43.50931" lon="6.58913">
        <ele>37.3</ele>
        <time>2025-10-28T10:53:02.000Z</time>
      </trkpt>
      <trkpt lat="43.5093" lon="6.58913">
        <ele>37.3</ele>
        <time>2025-10-28T10:53:03.000Z</time>
      </trkpt>
      <trkpt lat="43.5093" lon="6.58914">
        <ele>37.4</ele>
        <time>2025-10-28T10:53:04.000Z</time>
      </trkpt>
      <trkpt lat="43.5093" lon="6.58914">
        <ele>37.4</ele>
        <time>2025-10-28T10:53:05.000Z</time>
      </trkpt>
      <trkpt lat="43.50929" lon="6.58914">
        <ele>37.4</ele>
        <time>2025-10-28T10:53:06.000Z</time>
      </trkpt>
      <trkpt lat="43.50929" lon="6.58914">
        <ele>37.4</ele>
        <time>2025-10-28T10:53:07.000Z</time>
      </trkpt>
      <trkpt lat="43.50928" lon="6.58915">
        <ele>37.4</ele>
        <time>2025-10-28T10:53:08.000Z</time>
      </trkpt>
      <trkpt lat="43.50928" lon="6.58915">
        <ele>37.5</ele>
        <time>2025-10-28T10:53:09.000Z</time>
      </trkpt>
      <trkpt lat="43.50927" lon="6.58915">
        <ele>37.5</ele>
        <time>2025-10-28T10:53:10.000Z</time>
      </trkpt>
      <trkpt lat="43.50927" lon="6.58915">
        <ele>37.5</ele>
        <time>2025-10-28T10:53:11.000Z</time>
      </trkpt>
      <trkpt lat="43.50926" lon="6.58915">
        <ele>37.5</ele>
        <time>2025-10-28T10:53:12.000Z</time>
      </trkpt>
      <trkpt lat="43.50926" lon="6.58916">
        <ele>37.5</ele>
        <time>2025-10-28T10:53:13.000Z</time>
      </trkpt>
      <trkpt lat="43.50926" lon="6.58916">
        <ele>37.6</ele>
        <time>2025-10-28T10:53:14.000Z</time>
      </trkpt>
      <trkpt lat="43.50925" lon="6.58916">
        <ele>37.6</ele>
        <time>2025-10-28T10:53:15.000Z</time>
      </trkpt>
      <trkpt lat="43.50925" lon="6.58916">
        <ele>37.6</ele>
        <time>2025-10-28T10:53:16.000Z</time>
      </trkpt>
      <trkpt lat="43.50924" lon="6.58917">
        <ele>37.6</ele>
        <time>2025-10-28T10:53:17.000Z</time>
      </trkpt>
      <trkpt lat="43.50924" lon="6.58917">
        <ele>37.6</ele>
        <time>2025-10-28T10:53:18.000Z</time>
      </trkpt>
      <trkpt lat="43.50923" lon="6.58917">
        <ele>37.7</ele>
        <time>2025-10-28T10:53:19.000Z</time>
      </trkpt>
      <trkpt lat="43.50923" lon="6.58917">
        <ele>37.7</ele>
        <time>2025-10-28T10:53:20.000Z</time>
      </trkpt>
      <trkpt lat="43.50923" lon="6.58918">
        <ele>37.7</ele>
        <time>2025-10-28T10:53:21.000Z</time>
      </trkpt>
      <trkpt lat="43.50922" lon="6.58918">
        <ele>37.7</ele>
        <time>2025-10-28T10:53:22.000Z</time>
      </trkpt>
      <trkpt lat="43.50922" lon="6.58918">
        <ele>37.7</ele>
        <time>2025-10-28T10:53:23.000Z</time>
      </trkpt>
      <trkpt lat="43.50921" lon="6.58918">
        <ele>37.7</ele>
        <time>2025-10-28T10:53:24.000Z</time>
      </trkpt>
      <trkpt lat="43.50921" lon="6.58919">
        <ele>37.8</ele>
        <time>2025-10-28T10:53:25.000Z</time>
      </trkpt>
      <trkpt lat="43.5092" lon="6.58919">
        <ele>37.8</ele>
        <time>2025-10-28T10:53:26.000Z</time>
      </trkpt>
      <trkpt lat="43.5092" lon="6.58919">
        <ele>37.8</ele>
        <time>2025-10-28T10:53:27.000Z</time>
      </trkpt>
      <trkpt lat="43.5092" lon="6.58919">
        <ele>37.8</ele>
        <time>2025-10-28T10:53:28.000Z</time>
      </trkpt>
      <trkpt lat="43.50919" lon="6.58919">
        <ele>37.8</ele>
        <time>2025-10-28T10:53:29.000Z</time>
      </trkpt>
      <trkpt lat="43.50919" lon="6.5892">
        <ele>37.8</ele>
        <time>2025-10-28T10:53:30.000Z</time>
      </trkpt>
      <trkpt lat="43.50918" lon="6.5892">
        <ele>37.8</ele>
        <time>2025-10-28T10:53:31.000Z</time>
      </trkpt>
      <trkpt lat="43.50918" lon="6.5892">
        <ele>37.8</ele>
        <time>2025-10-28T10:53:32.000Z</time>
      </trkpt>
      <trkpt lat="43.50917" lon="6.5892">
        <ele>37.8</ele>
        <time>2025-10-28T10:53:33.000Z</time>
      </trkpt>
      <trkpt lat="43.50917" lon="6.58921">
        <ele>37.8</ele>
        <time>2025-10-28T10:53:34.000Z</time>
      </trkpt>
      <trkpt lat="43.50916" lon="6.58921">
        <ele>37.8</ele>
        <time>2025-10-28T10:53:35.000Z</time>
      </trkpt>
      <trkpt lat="43.50916" lon="6.58921">
        <ele>37.8</ele>
        <time>2025-10-28T10:53:36.000Z</time>
      </trkpt>
      <trkpt lat="43.50916" lon="6.58921">
        <ele>37.8</ele>
        <time>2025-10-28T10:53:37.000Z</time>
      </trkpt>
      <trkpt lat="43.50915" lon="6.58922">
        <ele>37.8</ele>
        <time>2025-10-28T10:53:38.000Z</time>
      </trkpt>
      <trkpt lat="43.50915" lon="6.58922">
        <ele>37.8</ele>
        <time>2025-10-28T10:53:39.000Z</time>
      </trkpt>
      <trkpt lat="43.50914" lon="6.58922">
        <ele>37.8</ele>
        <time>2025-10-28T10:53:40.000Z</time>
      </trkpt>
      <trkpt lat="43.50914" lon="6.58922">
        <ele>37.8</ele>
        <time>2025-10-28T10:53:41.000Z</time>
      </trkpt>
      <trkpt lat="43.50913" lon="6.58923">
        <ele>37.7</ele>
        <time>2025-10-28T10:53:42.000Z</time>
      </trkpt>
      <trkpt lat="43.50913" lon="6.58923">
        <ele>37.7</ele>
        <time>2025-10-28T10:53:43.000Z</time>
      </trkpt>
      <trkpt lat="43.50913" lon="6.58923">
        <ele>37.7</ele>
        <time>2025-10-28T10:53:44.000Z</time>
      </trkpt>
      <trkpt lat="43.50912" lon="6.58923">
        <ele>37.7</ele>
        <time>2025-10-28T10:53:45.000Z</time>
      </trkpt>
      <trkpt lat="43.50912" lon="6.58923">
        <ele>37.7</ele>
        <time>2025-10-28T10:53:46.000Z</time>
      </trkpt>
      <trkpt lat="43.50911" lon="6.58924">
        <ele>37.7</ele>
        <time>2025-10-28T10:53:47.000Z</time>
      </trkpt>
      <trkpt lat="43.50911" lon="6.58924">
        <ele>37.7</ele>
        <time>2025-10-28T10:53:48.000Z</time>
      </trkpt>
      <trkpt lat="43.5091" lon="6.58924">
        <ele>37.7</ele>
        <time>2025-10-28T10:53:49.000Z</time>
      </trkpt>
      <trkpt lat="43.5091" lon="6.58924">
        <ele>37.7</ele>
        <time>2025-10-28T10:53:50.000Z</time>
      </trkpt>
      <trkpt lat="43.5091" lon="6.58925">
        <ele>37.7</ele>
        <time>2025-10-28T10:53:51.000Z</time>
      </trkpt>
      <trkpt lat="43.50909" lon="6.58925">
        <ele>37.7</ele>
        <time>2025-10-28T10:53:52.000Z</time>
      </trkpt>
      <trkpt lat="43.50909" lon="6.58925">
        <ele>37.7</ele>
        <time>2025-10-28T10:53:53.000Z</time>
      </trkpt>
      <trkpt lat="43.50908" lon="6.58925">
        <ele>37.7</ele>
        <time>2025-10-28T10:53:54.000Z</time>
      </trkpt>
      <trkpt lat="43.50905" lon="6.58927">
        <ele>37.7</ele>
        <time>2025-10-28T10:53:55.000Z</time>
      </trkpt>
      <trkpt lat="43.509" lon="6.58928">
        <ele>37.7</ele>
        <time>2025-10-28T10:53:56.000Z</time>
      </trkpt>
      <trkpt lat="43.50896" lon="6.58929">
        <ele>37.6</ele>
        <time>2025-10-28T10:53:57.000Z</time>
      </trkpt>
      <trkpt lat="43.50892" lon="6.58929">
        <ele>37.6</ele>
        <time>2025-10-28T10:53:58.000Z</time>
      </trkpt>
      <trkpt lat="43.50888" lon="6.58929">
        <ele>37.6</ele>
        <time>2025-10-28T10:53:59.000Z</time>
      </trkpt>
      <trkpt lat="43.50884" lon="6.58929">
        <ele>37.5</ele>
        <time>2025-10-28T10:54:00.000Z</time>
      </trkpt>
      <trkpt lat="43.5088" lon="6.58929">
        <ele>37.5</ele>
        <time>2025-10-28T10:54:01.000Z</time>
      </trkpt>
      <trkpt lat="43.50876" lon="6.5893">
        <ele>37.4</ele>
        <time>2025-10-28T10:54:02.000Z</time>
      </trkpt>
      <trkpt lat="43.50873" lon="6.5893">
        <ele>37.4</ele>
        <time>2025-10-28T10:54:03.000Z</time>
      </trkpt>
      <trkpt lat="43.50869" lon="6.58931">
        <ele>37.4</ele>
        <time>2025-10-28T10:54:04.000Z</time>
      </trkpt>
      <trkpt lat="43.50865" lon="6.58931">
        <ele>37.3</ele>
        <time>2025-10-28T10:54:05.000Z</time>
      </trkpt>
      <trkpt lat="43.50861" lon="6.58931">
        <ele>37.3</ele>
        <time>2025-10-28T10:54:06.000Z</time>
      </trkpt>
      <trkpt lat="43.50857" lon="6.58931">
        <ele>37.2</ele>
        <time>2025-10-28T10:54:07.000Z</time>
      </trkpt>
      <trkpt lat="43.50853" lon="6.58931">
        <ele>37.2</ele>
        <time>2025-10-28T10:54:08.000Z</time>
      </trkpt>
      <trkpt lat="43.50849" lon="6.58931">
        <ele>37.1</ele>
        <time>2025-10-28T10:54:09.000Z</time>
      </trkpt>
      <trkpt lat="43.50845" lon="6.58931">
        <ele>37.1</ele>
        <time>2025-10-28T10:54:10.000Z</time>
      </trkpt>
      <trkpt lat="43.50841" lon="6.58931">
        <ele>37.1</ele>
        <time>2025-10-28T10:54:11.000Z</time>
      </trkpt>
      <trkpt lat="43.50838" lon="6.58931">
        <ele>37</ele>
        <time>2025-10-28T10:54:12.000Z</time>
      </trkpt>
      <trkpt lat="43.50835" lon="6.58931">
        <ele>37</ele>
        <time>2025-10-28T10:54:13.000Z</time>
      </trkpt>
      <trkpt lat="43.50831" lon="6.58931">
        <ele>37</ele>
        <time>2025-10-28T10:54:14.000Z</time>
      </trkpt>
      <trkpt lat="43.50828" lon="6.58931">
        <ele>36.9</ele>
        <time>2025-10-28T10:54:15.000Z</time>
      </trkpt>
      <trkpt lat="43.50825" lon="6.58931">
        <ele>36.9</ele>
        <time>2025-10-28T10:54:16.000Z</time>
      </trkpt>
      <trkpt lat="43.50822" lon="6.58932">
        <ele>36.9</ele>
        <time>2025-10-28T10:54:17.000Z</time>
      </trkpt>
      <trkpt lat="43.50818" lon="6.58932">
        <ele>36.8</ele>
        <time>2025-10-28T10:54:18.000Z</time>
      </trkpt>
      <trkpt lat="43.50814" lon="6.58933">
        <ele>36.8</ele>
        <time>2025-10-28T10:54:19.000Z</time>
      </trkpt>
      <trkpt lat="43.5081" lon="6.58934">
        <ele>36.7</ele>
        <time>2025-10-28T10:54:20.000Z</time>
      </trkpt>
      <trkpt lat="43.50807" lon="6.58934">
        <ele>36.7</ele>
        <time>2025-10-28T10:54:21.000Z</time>
      </trkpt>
      <trkpt lat="43.50803" lon="6.58935">
        <ele>36.6</ele>
        <time>2025-10-28T10:54:22.000Z</time>
      </trkpt>
      <trkpt lat="43.50798" lon="6.58937">
        <ele>36.5</ele>
        <time>2025-10-28T10:54:23.000Z</time>
      </trkpt>
      <trkpt lat="43.50794" lon="6.58938">
        <ele>36.4</ele>
        <time>2025-10-28T10:54:24.000Z</time>
      </trkpt>
      <trkpt lat="43.5079" lon="6.5894">
        <ele>36.4</ele>
        <time>2025-10-28T10:54:25.000Z</time>
      </trkpt>
      <trkpt lat="43.50787" lon="6.58941">
        <ele>36.3</ele>
        <time>2025-10-28T10:54:26.000Z</time>
      </trkpt>
      <trkpt lat="43.50782" lon="6.58943">
        <ele>36.2</ele>
        <time>2025-10-28T10:54:27.000Z</time>
      </trkpt>
      <trkpt lat="43.50778" lon="6.58946">
        <ele>36.1</ele>
        <time>2025-10-28T10:54:28.000Z</time>
      </trkpt>
      <trkpt lat="43.50774" lon="6.58948">
        <ele>36.1</ele>
        <time>2025-10-28T10:54:29.000Z</time>
      </trkpt>
      <trkpt lat="43.50771" lon="6.58951">
        <ele>36</ele>
        <time>2025-10-28T10:54:30.000Z</time>
      </trkpt>
      <trkpt lat="43.50766" lon="6.58955">
        <ele>35.9</ele>
        <time>2025-10-28T10:54:31.000Z</time>
      </trkpt>
      <trkpt lat="43.50762" lon="6.58959">
        <ele>35.9</ele>
        <time>2025-10-28T10:54:32.000Z</time>
      </trkpt>
      <trkpt lat="43.50759" lon="6.58962">
        <ele>35.8</ele>
        <time>2025-10-28T10:54:33.000Z</time>
      </trkpt>
      <trkpt lat="43.50755" lon="6.58965">
        <ele>35.7</ele>
        <time>2025-10-28T10:54:34.000Z</time>
      </trkpt>
      <trkpt lat="43.50752" lon="6.58968">
        <ele>35.7</ele>
        <time>2025-10-28T10:54:35.000Z</time>
      </trkpt>
      <trkpt lat="43.50749" lon="6.58971">
        <ele>35.6</ele>
        <time>2025-10-28T10:54:36.000Z</time>
      </trkpt>
      <trkpt lat="43.50745" lon="6.58974">
        <ele>35.5</ele>
        <time>2025-10-28T10:54:37.000Z</time>
      </trkpt>
      <trkpt lat="43.50742" lon="6.58976">
        <ele>35.4</ele>
        <time>2025-10-28T10:54:38.000Z</time>
      </trkpt>
      <trkpt lat="43.5074" lon="6.58977">
        <ele>35.3</ele>
        <time>2025-10-28T10:54:39.000Z</time>
      </trkpt>
      <trkpt lat="43.50736" lon="6.5898">
        <ele>35.1</ele>
        <time>2025-10-28T10:54:40.000Z</time>
      </trkpt>
      <trkpt lat="43.50732" lon="6.58982">
        <ele>34.9</ele>
        <time>2025-10-28T10:54:41.000Z</time>
      </trkpt>
      <trkpt lat="43.50728" lon="6.58983">
        <ele>34.7</ele>
        <time>2025-10-28T10:54:42.000Z</time>
      </trkpt>
      <trkpt lat="43.50725" lon="6.58985">
        <ele>34.5</ele>
        <time>2025-10-28T10:54:43.000Z</time>
      </trkpt>
      <trkpt lat="43.50719" lon="6.58987">
        <ele>34.4</ele>
        <time>2025-10-28T10:54:44.000Z</time>
      </trkpt>
      <trkpt lat="43.50714" lon="6.5899">
        <ele>34.3</ele>
        <time>2025-10-28T10:54:45.000Z</time>
      </trkpt>
      <trkpt lat="43.5071" lon="6.58992">
        <ele>34.3</ele>
        <time>2025-10-28T10:54:46.000Z</time>
      </trkpt>
      <trkpt lat="43.50704" lon="6.58995">
        <ele>34.5</ele>
        <time>2025-10-28T10:54:47.000Z</time>
      </trkpt>
      <trkpt lat="43.50701" lon="6.58996">
        <ele>34.6</ele>
        <time>2025-10-28T10:54:48.000Z</time>
      </trkpt>
      <trkpt lat="43.50696" lon="6.58998">
        <ele>34.8</ele>
        <time>2025-10-28T10:54:49.000Z</time>
      </trkpt>
      <trkpt lat="43.50693" lon="6.58999">
        <ele>35</ele>
        <time>2025-10-28T10:54:50.000Z</time>
      </trkpt>
      <trkpt lat="43.50689" lon="6.59">
        <ele>35.2</ele>
        <time>2025-10-28T10:54:51.000Z</time>
      </trkpt>
      <trkpt lat="43.50685" lon="6.59">
        <ele>35.4</ele>
        <time>2025-10-28T10:54:52.000Z</time>
      </trkpt>
      <trkpt lat="43.50682" lon="6.59001">
        <ele>35.5</ele>
        <time>2025-10-28T10:54:53.000Z</time>
      </trkpt>
      <trkpt lat="43.50678" lon="6.59002">
        <ele>35.7</ele>
        <time>2025-10-28T10:54:54.000Z</time>
      </trkpt>
      <trkpt lat="43.50675" lon="6.59003">
        <ele>35.8</ele>
        <time>2025-10-28T10:54:55.000Z</time>
      </trkpt>
      <trkpt lat="43.50672" lon="6.59003">
        <ele>35.8</ele>
        <time>2025-10-28T10:54:56.000Z</time>
      </trkpt>
      <trkpt lat="43.50668" lon="6.59005">
        <ele>35.9</ele>
        <time>2025-10-28T10:54:57.000Z</time>
      </trkpt>
      <trkpt lat="43.50664" lon="6.59006">
        <ele>36</ele>
        <time>2025-10-28T10:54:58.000Z</time>
      </trkpt>
      <trkpt lat="43.5066" lon="6.59007">
        <ele>36</ele>
        <time>2025-10-28T10:54:59.000Z</time>
      </trkpt>
      <trkpt lat="43.50657" lon="6.59007">
        <ele>36</ele>
        <time>2025-10-28T10:55:00.000Z</time>
      </trkpt>
      <trkpt lat="43.50654" lon="6.59008">
        <ele>36</ele>
        <time>2025-10-28T10:55:01.000Z</time>
      </trkpt>
      <trkpt lat="43.5065" lon="6.59008">
        <ele>36</ele>
        <time>2025-10-28T10:55:02.000Z</time>
      </trkpt>
      <trkpt lat="43.50645" lon="6.59009">
        <ele>36</ele>
        <time>2025-10-28T10:55:03.000Z</time>
      </trkpt>
      <trkpt lat="43.50641" lon="6.59009">
        <ele>36</ele>
        <time>2025-10-28T10:55:04.000Z</time>
      </trkpt>
      <trkpt lat="43.50638" lon="6.5901">
        <ele>36</ele>
        <time>2025-10-28T10:55:05.000Z</time>
      </trkpt>
      <trkpt lat="43.50634" lon="6.59011">
        <ele>36</ele>
        <time>2025-10-28T10:55:06.000Z</time>
      </trkpt>
      <trkpt lat="43.5063" lon="6.59012">
        <ele>36</ele>
        <time>2025-10-28T10:55:07.000Z</time>
      </trkpt>
      <trkpt lat="43.50626" lon="6.59013">
        <ele>36</ele>
        <time>2025-10-28T10:55:08.000Z</time>
      </trkpt>
      <trkpt lat="43.50623" lon="6.59014">
        <ele>36</ele>
        <time>2025-10-28T10:55:09.000Z</time>
      </trkpt>
      <trkpt lat="43.50618" lon="6.59015">
        <ele>35.9</ele>
        <time>2025-10-28T10:55:10.000Z</time>
      </trkpt>
      <trkpt lat="43.50614" lon="6.59016">
        <ele>35.9</ele>
        <time>2025-10-28T10:55:11.000Z</time>
      </trkpt>
      <trkpt lat="43.50611" lon="6.59017">
        <ele>35.9</ele>
        <time>2025-10-28T10:55:12.000Z</time>
      </trkpt>
      <trkpt lat="43.50607" lon="6.59018">
        <ele>35.9</ele>
        <time>2025-10-28T10:55:13.000Z</time>
      </trkpt>
      <trkpt lat="43.50604" lon="6.59018">
        <ele>35.9</ele>
        <time>2025-10-28T10:55:14.000Z</time>
      </trkpt>
      <trkpt lat="43.506" lon="6.59019">
        <ele>35.8</ele>
        <time>2025-10-28T10:55:15.000Z</time>
      </trkpt>
      <trkpt lat="43.50596" lon="6.5902">
        <ele>35.8</ele>
        <time>2025-10-28T10:55:16.000Z</time>
      </trkpt>
      <trkpt lat="43.50591" lon="6.59021">
        <ele>35.8</ele>
        <time>2025-10-28T10:55:17.000Z</time>
      </trkpt>
      <trkpt lat="43.50587" lon="6.59022">
        <ele>35.8</ele>
        <time>2025-10-28T10:55:18.000Z</time>
      </trkpt>
      <trkpt lat="43.50584" lon="6.59022">
        <ele>35.8</ele>
        <time>2025-10-28T10:55:19.000Z</time>
      </trkpt>
      <trkpt lat="43.50579" lon="6.59023">
        <ele>35.8</ele>
        <time>2025-10-28T10:55:20.000Z</time>
      </trkpt>
      <trkpt lat="43.50576" lon="6.59023">
        <ele>35.8</ele>
        <time>2025-10-28T10:55:21.000Z</time>
      </trkpt>
      <trkpt lat="43.50571" lon="6.59024">
        <ele>35.8</ele>
        <time>2025-10-28T10:55:22.000Z</time>
      </trkpt>
      <trkpt lat="43.50569" lon="6.59026">
        <ele>35.8</ele>
        <time>2025-10-28T10:55:23.000Z</time>
      </trkpt>
      <trkpt lat="43.50565" lon="6.59028">
        <ele>35.8</ele>
        <time>2025-10-28T10:55:24.000Z</time>
      </trkpt>
      <trkpt lat="43.5056" lon="6.59031">
        <ele>35.8</ele>
        <time>2025-10-28T10:55:25.000Z</time>
      </trkpt>
      <trkpt lat="43.50556" lon="6.59034">
        <ele>35.9</ele>
        <time>2025-10-28T10:55:26.000Z</time>
      </trkpt>
      <trkpt lat="43.50552" lon="6.59036">
        <ele>35.9</ele>
        <time>2025-10-28T10:55:27.000Z</time>
      </trkpt>
      <trkpt lat="43.50549" lon="6.59037">
        <ele>35.9</ele>
        <time>2025-10-28T10:55:28.000Z</time>
      </trkpt>
      <trkpt lat="43.50545" lon="6.59039">
        <ele>35.9</ele>
        <time>2025-10-28T10:55:29.000Z</time>
      </trkpt>
      <trkpt lat="43.5054" lon="6.59041">
        <ele>35.8</ele>
        <time>2025-10-28T10:55:30.000Z</time>
      </trkpt>
      <trkpt lat="43.50536" lon="6.59042">
        <ele>35.8</ele>
        <time>2025-10-28T10:55:31.000Z</time>
      </trkpt>
      <trkpt lat="43.50533" lon="6.59043">
        <ele>35.8</ele>
        <time>2025-10-28T10:55:32.000Z</time>
      </trkpt>
      <trkpt lat="43.5053" lon="6.59045">
        <ele>35.8</ele>
        <time>2025-10-28T10:55:33.000Z</time>
      </trkpt>
      <trkpt lat="43.50525" lon="6.59047">
        <ele>35.7</ele>
        <time>2025-10-28T10:55:34.000Z</time>
      </trkpt>
      <trkpt lat="43.50521" lon="6.59049">
        <ele>35.7</ele>
        <time>2025-10-28T10:55:35.000Z</time>
      </trkpt>
      <trkpt lat="43.50518" lon="6.59051">
        <ele>35.7</ele>
        <time>2025-10-28T10:55:36.000Z</time>
      </trkpt>
      <trkpt lat="43.50515" lon="6.59053">
        <ele>36</ele>
        <time>2025-10-28T10:55:37.000Z</time>
      </trkpt>
      <trkpt lat="43.50511" lon="6.59056">
        <ele>36.3</ele>
        <time>2025-10-28T10:55:38.000Z</time>
      </trkpt>
      <trkpt lat="43.50508" lon="6.59058">
        <ele>36.3</ele>
        <time>2025-10-28T10:55:39.000Z</time>
      </trkpt>
      <trkpt lat="43.50505" lon="6.5906">
        <ele>36.3</ele>
        <time>2025-10-28T10:55:40.000Z</time>
      </trkpt>
      <trkpt lat="43.50502" lon="6.59062">
        <ele>36.6</ele>
        <time>2025-10-28T10:55:41.000Z</time>
      </trkpt>
      <trkpt lat="43.505" lon="6.59065">
        <ele>36.9</ele>
        <time>2025-10-28T10:55:42.000Z</time>
      </trkpt>
      <trkpt lat="43.50497" lon="6.59068">
        <ele>37.1</ele>
        <time>2025-10-28T10:55:43.000Z</time>
      </trkpt>
      <trkpt lat="43.50495" lon="6.59072">
        <ele>37</ele>
        <time>2025-10-28T10:55:44.000Z</time>
      </trkpt>
      <trkpt lat="43.50494" lon="6.59077">
        <ele>37.4</ele>
        <time>2025-10-28T10:55:45.000Z</time>
      </trkpt>
      <trkpt lat="43.50493" lon="6.5908">
        <ele>37.7</ele>
        <time>2025-10-28T10:55:46.000Z</time>
      </trkpt>
      <trkpt lat="43.50492" lon="6.59085">
        <ele>37.9</ele>
        <time>2025-10-28T10:55:47.000Z</time>
      </trkpt>
      <trkpt lat="43.50492" lon="6.59089">
        <ele>38.3</ele>
        <time>2025-10-28T10:55:48.000Z</time>
      </trkpt>
      <trkpt lat="43.50491" lon="6.59091">
        <ele>38.7</ele>
        <time>2025-10-28T10:55:49.000Z</time>
      </trkpt>
      <trkpt lat="43.5049" lon="6.59093">
        <ele>38.7</ele>
        <time>2025-10-28T10:55:50.000Z</time>
      </trkpt>
      <trkpt lat="43.50488" lon="6.59095">
        <ele>38.8</ele>
        <time>2025-10-28T10:55:51.000Z</time>
      </trkpt>
      <trkpt lat="43.50487" lon="6.59097">
        <ele>38.8</ele>
        <time>2025-10-28T10:55:52.000Z</time>
      </trkpt>
      <trkpt lat="43.50486" lon="6.59099">
        <ele>38.9</ele>
        <time>2025-10-28T10:55:53.000Z</time>
      </trkpt>
      <trkpt lat="43.50485" lon="6.59101">
        <ele>38.9</ele>
        <time>2025-10-28T10:55:54.000Z</time>
      </trkpt>
      <trkpt lat="43.50484" lon="6.59103">
        <ele>38.9</ele>
        <time>2025-10-28T10:55:55.000Z</time>
      </trkpt>
      <trkpt lat="43.50484" lon="6.59105">
        <ele>38.9</ele>
        <time>2025-10-28T10:55:56.000Z</time>
      </trkpt>
      <trkpt lat="43.50484" lon="6.59108">
        <ele>38.9</ele>
        <time>2025-10-28T10:55:57.000Z</time>
      </trkpt>
      <trkpt lat="43.50484" lon="6.59112">
        <ele>38.9</ele>
        <time>2025-10-28T10:55:58.000Z</time>
      </trkpt>
      <trkpt lat="43.50484" lon="6.59114">
        <ele>38.9</ele>
        <time>2025-10-28T10:55:59.000Z</time>
      </trkpt>
      <trkpt lat="43.50486" lon="6.59117">
        <ele>38.9</ele>
        <time>2025-10-28T10:56:00.000Z</time>
      </trkpt>
      <trkpt lat="43.50489" lon="6.59118">
        <ele>39.3</ele>
        <time>2025-10-28T10:56:01.000Z</time>
      </trkpt>
      <trkpt lat="43.50492" lon="6.59117">
        <ele>39.7</ele>
        <time>2025-10-28T10:56:02.000Z</time>
      </trkpt>
      <trkpt lat="43.50494" lon="6.59116">
        <ele>40</ele>
        <time>2025-10-28T10:56:03.000Z</time>
      </trkpt>
      <trkpt lat="43.50497" lon="6.59114">
        <ele>40.6</ele>
        <time>2025-10-28T10:56:04.000Z</time>
      </trkpt>
      <trkpt lat="43.505" lon="6.59113">
        <ele>41</ele>
        <time>2025-10-28T10:56:05.000Z</time>
      </trkpt>
      <trkpt lat="43.50503" lon="6.59112">
        <ele>41.4</ele>
        <time>2025-10-28T10:56:06.000Z</time>
      </trkpt>
      <trkpt lat="43.50505" lon="6.59111">
        <ele>41.8</ele>
        <time>2025-10-28T10:56:07.000Z</time>
      </trkpt>
      <trkpt lat="43.50508" lon="6.59109">
        <ele>42.2</ele>
        <time>2025-10-28T10:56:08.000Z</time>
      </trkpt>
      <trkpt lat="43.50511" lon="6.59108">
        <ele>42.7</ele>
        <time>2025-10-28T10:56:09.000Z</time>
      </trkpt>
      <trkpt lat="43.50513" lon="6.59108">
        <ele>43</ele>
        <time>2025-10-28T10:56:10.000Z</time>
      </trkpt>
      <trkpt lat="43.50515" lon="6.59109">
        <ele>43.3</ele>
        <time>2025-10-28T10:56:11.000Z</time>
      </trkpt>
      <trkpt lat="43.50517" lon="6.59111">
        <ele>43.6</ele>
        <time>2025-10-28T10:56:12.000Z</time>
      </trkpt>
      <trkpt lat="43.50519" lon="6.59113">
        <ele>44</ele>
        <time>2025-10-28T10:56:13.000Z</time>
      </trkpt>
      <trkpt lat="43.5052" lon="6.59117">
        <ele>44.3</ele>
        <time>2025-10-28T10:56:14.000Z</time>
      </trkpt>
      <trkpt lat="43.50521" lon="6.59121">
        <ele>44.6</ele>
        <time>2025-10-28T10:56:15.000Z</time>
      </trkpt>
      <trkpt lat="43.5052" lon="6.59126">
        <ele>45</ele>
        <time>2025-10-28T10:56:16.000Z</time>
      </trkpt>
      <trkpt lat="43.50519" lon="6.59129">
        <ele>45.3</ele>
        <time>2025-10-28T10:56:17.000Z</time>
      </trkpt>
      <trkpt lat="43.50518" lon="6.59134">
        <ele>45.6</ele>
        <time>2025-10-28T10:56:18.000Z</time>
      </trkpt>
      <trkpt lat="43.50516" lon="6.59137">
        <ele>45.9</ele>
        <time>2025-10-28T10:56:19.000Z</time>
      </trkpt>
      <trkpt lat="43.50513" lon="6.59139">
        <ele>46.1</ele>
        <time>2025-10-28T10:56:20.000Z</time>
      </trkpt>
      <trkpt lat="43.50511" lon="6.59142">
        <ele>46.3</ele>
        <time>2025-10-28T10:56:21.000Z</time>
      </trkpt>
      <trkpt lat="43.5051" lon="6.59145">
        <ele>46.5</ele>
        <time>2025-10-28T10:56:22.000Z</time>
      </trkpt>
      <trkpt lat="43.50509" lon="6.5915">
        <ele>46.7</ele>
        <time>2025-10-28T10:56:23.000Z</time>
      </trkpt>
      <trkpt lat="43.50509" lon="6.59155">
        <ele>46.9</ele>
        <time>2025-10-28T10:56:24.000Z</time>
      </trkpt>
      <trkpt lat="43.50509" lon="6.59159">
        <ele>47.1</ele>
        <time>2025-10-28T10:56:25.000Z</time>
      </trkpt>
      <trkpt lat="43.5051" lon="6.59163">
        <ele>47.4</ele>
        <time>2025-10-28T10:56:26.000Z</time>
      </trkpt>
      <trkpt lat="43.5051" lon="6.59168">
        <ele>47.7</ele>
        <time>2025-10-28T10:56:27.000Z</time>
      </trkpt>
      <trkpt lat="43.50511" lon="6.59173">
        <ele>47.9</ele>
        <time>2025-10-28T10:56:28.000Z</time>
      </trkpt>
      <trkpt lat="43.50511" lon="6.59177">
        <ele>48.2</ele>
        <time>2025-10-28T10:56:29.000Z</time>
      </trkpt>
      <trkpt lat="43.50512" lon="6.59182">
        <ele>48.5</ele>
        <time>2025-10-28T10:56:30.000Z</time>
      </trkpt>
      <trkpt lat="43.50514" lon="6.59186">
        <ele>48.8</ele>
        <time>2025-10-28T10:56:31.000Z</time>
      </trkpt>
      <trkpt lat="43.50515" lon="6.59188">
        <ele>48.9</ele>
        <time>2025-10-28T10:56:32.000Z</time>
      </trkpt>
      <trkpt lat="43.50516" lon="6.59192">
        <ele>49.1</ele>
        <time>2025-10-28T10:56:33.000Z</time>
      </trkpt>
      <trkpt lat="43.50516" lon="6.59195">
        <ele>49.2</ele>
        <time>2025-10-28T10:56:34.000Z</time>
      </trkpt>
      <trkpt lat="43.50517" lon="6.59197">
        <ele>49.3</ele>
        <time>2025-10-28T10:56:35.000Z</time>
      </trkpt>
      <trkpt lat="43.50517" lon="6.59201">
        <ele>49.4</ele>
        <time>2025-10-28T10:56:36.000Z</time>
      </trkpt>
      <trkpt lat="43.50518" lon="6.59203">
        <ele>49.4</ele>
        <time>2025-10-28T10:56:37.000Z</time>
      </trkpt>
      <trkpt lat="43.50518" lon="6.59206">
        <ele>49.4</ele>
        <time>2025-10-28T10:56:38.000Z</time>
      </trkpt>
      <trkpt lat="43.50518" lon="6.59207">
        <ele>49.4</ele>
        <time>2025-10-28T10:56:39.000Z</time>
      </trkpt>
      <trkpt lat="43.50518" lon="6.5921">
        <ele>49.4</ele>
        <time>2025-10-28T10:56:40.000Z</time>
      </trkpt>
      <trkpt lat="43.50518" lon="6.59213">
        <ele>49.4</ele>
        <time>2025-10-28T10:56:41.000Z</time>
      </trkpt>
      <trkpt lat="43.50519" lon="6.59216">
        <ele>49.3</ele>
        <time>2025-10-28T10:56:42.000Z</time>
      </trkpt>
      <trkpt lat="43.50519" lon="6.59219">
        <ele>49.2</ele>
        <time>2025-10-28T10:56:43.000Z</time>
      </trkpt>
      <trkpt lat="43.5052" lon="6.59222">
        <ele>49.2</ele>
        <time>2025-10-28T10:56:44.000Z</time>
      </trkpt>
      <trkpt lat="43.50521" lon="6.59226">
        <ele>49</ele>
        <time>2025-10-28T10:56:45.000Z</time>
      </trkpt>
      <trkpt lat="43.50522" lon="6.59229">
        <ele>48.9</ele>
        <time>2025-10-28T10:56:46.000Z</time>
      </trkpt>
      <trkpt lat="43.50522" lon="6.59233">
        <ele>48.8</ele>
        <time>2025-10-28T10:56:47.000Z</time>
      </trkpt>
      <trkpt lat="43.50523" lon="6.59235">
        <ele>48.7</ele>
        <time>2025-10-28T10:56:48.000Z</time>
      </trkpt>
      <trkpt lat="43.50524" lon="6.59239">
        <ele>48.6</ele>
        <time>2025-10-28T10:56:49.000Z</time>
      </trkpt>
      <trkpt lat="43.50524" lon="6.59243">
        <ele>48.5</ele>
        <time>2025-10-28T10:56:50.000Z</time>
      </trkpt>
      <trkpt lat="43.50525" lon="6.59247">
        <ele>48.4</ele>
        <time>2025-10-28T10:56:51.000Z</time>
      </trkpt>
      <trkpt lat="43.50525" lon="6.5925">
        <ele>48.3</ele>
        <time>2025-10-28T10:56:52.000Z</time>
      </trkpt>
      <trkpt lat="43.50526" lon="6.59255">
        <ele>48.2</ele>
        <time>2025-10-28T10:56:53.000Z</time>
      </trkpt>
      <trkpt lat="43.50527" lon="6.59258">
        <ele>48.2</ele>
        <time>2025-10-28T10:56:54.000Z</time>
      </trkpt>
      <trkpt lat="43.50528" lon="6.59261">
        <ele>48.1</ele>
        <time>2025-10-28T10:56:55.000Z</time>
      </trkpt>
      <trkpt lat="43.50529" lon="6.59265">
        <ele>48.1</ele>
        <time>2025-10-28T10:56:56.000Z</time>
      </trkpt>
      <trkpt lat="43.50531" lon="6.5927">
        <ele>48.1</ele>
        <time>2025-10-28T10:56:57.000Z</time>
      </trkpt>
      <trkpt lat="43.50533" lon="6.59274">
        <ele>48.1</ele>
        <time>2025-10-28T10:56:58.000Z</time>
      </trkpt>
      <trkpt lat="43.50534" lon="6.59278">
        <ele>48.1</ele>
        <time>2025-10-28T10:56:59.000Z</time>
      </trkpt>
      <trkpt lat="43.50535" lon="6.59283">
        <ele>48.1</ele>
        <time>2025-10-28T10:57:00.000Z</time>
      </trkpt>
      <trkpt lat="43.50536" lon="6.59287">
        <ele>48.1</ele>
        <time>2025-10-28T10:57:01.000Z</time>
      </trkpt>
      <trkpt lat="43.50537" lon="6.59294">
        <ele>48.1</ele>
        <time>2025-10-28T10:57:02.000Z</time>
      </trkpt>
      <trkpt lat="43.50539" lon="6.59299">
        <ele>48.2</ele>
        <time>2025-10-28T10:57:03.000Z</time>
      </trkpt>
      <trkpt lat="43.50541" lon="6.59305">
        <ele>48.2</ele>
        <time>2025-10-28T10:57:04.000Z</time>
      </trkpt>
      <trkpt lat="43.50543" lon="6.59309">
        <ele>48.2</ele>
        <time>2025-10-28T10:57:05.000Z</time>
      </trkpt>
      <trkpt lat="43.50547" lon="6.59315">
        <ele>48.4</ele>
        <time>2025-10-28T10:57:06.000Z</time>
      </trkpt>
      <trkpt lat="43.5055" lon="6.5932">
        <ele>48.6</ele>
        <time>2025-10-28T10:57:07.000Z</time>
      </trkpt>
      <trkpt lat="43.50552" lon="6.59325">
        <ele>48.8</ele>
        <time>2025-10-28T10:57:08.000Z</time>
      </trkpt>
      <trkpt lat="43.50554" lon="6.59329">
        <ele>48.9</ele>
        <time>2025-10-28T10:57:09.000Z</time>
      </trkpt>
      <trkpt lat="43.50555" lon="6.59335">
        <ele>49.2</ele>
        <time>2025-10-28T10:57:10.000Z</time>
      </trkpt>
      <trkpt lat="43.50556" lon="6.59341">
        <ele>49.5</ele>
        <time>2025-10-28T10:57:11.000Z</time>
      </trkpt>
      <trkpt lat="43.50558" lon="6.59347">
        <ele>49.8</ele>
        <time>2025-10-28T10:57:12.000Z</time>
      </trkpt>
      <trkpt lat="43.5056" lon="6.59352">
        <ele>50</ele>
        <time>2025-10-28T10:57:13.000Z</time>
      </trkpt>
      <trkpt lat="43.50561" lon="6.59356">
        <ele>50.3</ele>
        <time>2025-10-28T10:57:14.000Z</time>
      </trkpt>
      <trkpt lat="43.50564" lon="6.59362">
        <ele>50.6</ele>
        <time>2025-10-28T10:57:15.000Z</time>
      </trkpt>
      <trkpt lat="43.50566" lon="6.59368">
        <ele>50.9</ele>
        <time>2025-10-28T10:57:16.000Z</time>
      </trkpt>
      <trkpt lat="43.50568" lon="6.59373">
        <ele>51.2</ele>
        <time>2025-10-28T10:57:17.000Z</time>
      </trkpt>
      <trkpt lat="43.50569" lon="6.59377">
        <ele>51.4</ele>
        <time>2025-10-28T10:57:18.000Z</time>
      </trkpt>
      <trkpt lat="43.50571" lon="6.59383">
        <ele>51.7</ele>
        <time>2025-10-28T10:57:19.000Z</time>
      </trkpt>
      <trkpt lat="43.50572" lon="6.59389">
        <ele>52</ele>
        <time>2025-10-28T10:57:20.000Z</time>
      </trkpt>
      <trkpt lat="43.50574" lon="6.59394">
        <ele>52.3</ele>
        <time>2025-10-28T10:57:21.000Z</time>
      </trkpt>
      <trkpt lat="43.50575" lon="6.59398">
        <ele>52.5</ele>
        <time>2025-10-28T10:57:22.000Z</time>
      </trkpt>
      <trkpt lat="43.50577" lon="6.59403">
        <ele>52.8</ele>
        <time>2025-10-28T10:57:23.000Z</time>
      </trkpt>
      <trkpt lat="43.50579" lon="6.59409">
        <ele>53</ele>
        <time>2025-10-28T10:57:24.000Z</time>
      </trkpt>
      <trkpt lat="43.5058" lon="6.59414">
        <ele>53.2</ele>
        <time>2025-10-28T10:57:25.000Z</time>
      </trkpt>
      <trkpt lat="43.5058" lon="6.59419">
        <ele>53.4</ele>
        <time>2025-10-28T10:57:26.000Z</time>
      </trkpt>
      <trkpt lat="43.5058" lon="6.59423">
        <ele>53.6</ele>
        <time>2025-10-28T10:57:27.000Z</time>
      </trkpt>
      <trkpt lat="43.50581" lon="6.5943">
        <ele>53.8</ele>
        <time>2025-10-28T10:57:28.000Z</time>
      </trkpt>
      <trkpt lat="43.50581" lon="6.59436">
        <ele>54</ele>
        <time>2025-10-28T10:57:29.000Z</time>
      </trkpt>
      <trkpt lat="43.50581" lon="6.59442">
        <ele>54.1</ele>
        <time>2025-10-28T10:57:30.000Z</time>
      </trkpt>
      <trkpt lat="43.50581" lon="6.59447">
        <ele>54.2</ele>
        <time>2025-10-28T10:57:31.000Z</time>
      </trkpt>
      <trkpt lat="43.50581" lon="6.59455">
        <ele>54.4</ele>
        <time>2025-10-28T10:57:32.000Z</time>
      </trkpt>
      <trkpt lat="43.5058" lon="6.59461">
        <ele>54.5</ele>
        <time>2025-10-28T10:57:33.000Z</time>
      </trkpt>
      <trkpt lat="43.50579" lon="6.59467">
        <ele>54.7</ele>
        <time>2025-10-28T10:57:34.000Z</time>
      </trkpt>
      <trkpt lat="43.50578" lon="6.59473">
        <ele>54.9</ele>
        <time>2025-10-28T10:57:35.000Z</time>
      </trkpt>
      <trkpt lat="43.50576" lon="6.59478">
        <ele>55</ele>
        <time>2025-10-28T10:57:36.000Z</time>
      </trkpt>
      <trkpt lat="43.50575" lon="6.59484">
        <ele>55.2</ele>
        <time>2025-10-28T10:57:37.000Z</time>
      </trkpt>
      <trkpt lat="43.50575" lon="6.59491">
        <ele>55.4</ele>
        <time>2025-10-28T10:57:38.000Z</time>
      </trkpt>
      <trkpt lat="43.50575" lon="6.59497">
        <ele>55.6</ele>
        <time>2025-10-28T10:57:39.000Z</time>
      </trkpt>
      <trkpt lat="43.50576" lon="6.59504">
        <ele>55.8</ele>
        <time>2025-10-28T10:57:40.000Z</time>
      </trkpt>
      <trkpt lat="43.50577" lon="6.59511">
        <ele>56</ele>
        <time>2025-10-28T10:57:41.000Z</time>
      </trkpt>
      <trkpt lat="43.50578" lon="6.59517">
        <ele>56.2</ele>
        <time>2025-10-28T10:57:42.000Z</time>
      </trkpt>
      <trkpt lat="43.50579" lon="6.59524">
        <ele>56.4</ele>
        <time>2025-10-28T10:57:43.000Z</time>
      </trkpt>
      <trkpt lat="43.5058" lon="6.59529">
        <ele>56.5</ele>
        <time>2025-10-28T10:57:44.000Z</time>
      </trkpt>
      <trkpt lat="43.50581" lon="6.59535">
        <ele>56.7</ele>
        <time>2025-10-28T10:57:45.000Z</time>
      </trkpt>
      <trkpt lat="43.50583" lon="6.59542">
        <ele>56.8</ele>
        <time>2025-10-28T10:57:46.000Z</time>
      </trkpt>
      <trkpt lat="43.50584" lon="6.59548">
        <ele>57</ele>
        <time>2025-10-28T10:57:47.000Z</time>
      </trkpt>
      <trkpt lat="43.50586" lon="6.59554">
        <ele>57.1</ele>
        <time>2025-10-28T10:57:48.000Z</time>
      </trkpt>
      <trkpt lat="43.50587" lon="6.5956">
        <ele>57.3</ele>
        <time>2025-10-28T10:57:49.000Z</time>
      </trkpt>
      <trkpt lat="43.50589" lon="6.59566">
        <ele>57.4</ele>
        <time>2025-10-28T10:57:50.000Z</time>
      </trkpt>
      <trkpt lat="43.5059" lon="6.59572">
        <ele>57.6</ele>
        <time>2025-10-28T10:57:51.000Z</time>
      </trkpt>
      <trkpt lat="43.50591" lon="6.59578">
        <ele>57.7</ele>
        <time>2025-10-28T10:57:52.000Z</time>
      </trkpt>
      <trkpt lat="43.50592" lon="6.59583">
        <ele>57.9</ele>
        <time>2025-10-28T10:57:53.000Z</time>
      </trkpt>
      <trkpt lat="43.50593" lon="6.5959">
        <ele>58.1</ele>
        <time>2025-10-28T10:57:54.000Z</time>
      </trkpt>
      <trkpt lat="43.50595" lon="6.59595">
        <ele>58.2</ele>
        <time>2025-10-28T10:57:55.000Z</time>
      </trkpt>
      <trkpt lat="43.50597" lon="6.59601">
        <ele>58.4</ele>
        <time>2025-10-28T10:57:56.000Z</time>
      </trkpt>
      <trkpt lat="43.50598" lon="6.59606">
        <ele>58.6</ele>
        <time>2025-10-28T10:57:57.000Z</time>
      </trkpt>
      <trkpt lat="43.50599" lon="6.59612">
        <ele>58.8</ele>
        <time>2025-10-28T10:57:58.000Z</time>
      </trkpt>
      <trkpt lat="43.50601" lon="6.59619">
        <ele>59.1</ele>
        <time>2025-10-28T10:57:59.000Z</time>
      </trkpt>
      <trkpt lat="43.50602" lon="6.59624">
        <ele>59.4</ele>
        <time>2025-10-28T10:58:00.000Z</time>
      </trkpt>
      <trkpt lat="43.50603" lon="6.59629">
        <ele>59.6</ele>
        <time>2025-10-28T10:58:01.000Z</time>
      </trkpt>
      <trkpt lat="43.50604" lon="6.59635">
        <ele>59.8</ele>
        <time>2025-10-28T10:58:02.000Z</time>
      </trkpt>
      <trkpt lat="43.50606" lon="6.59642">
        <ele>60.1</ele>
        <time>2025-10-28T10:58:03.000Z</time>
      </trkpt>
      <trkpt lat="43.50608" lon="6.59648">
        <ele>60.4</ele>
        <time>2025-10-28T10:58:04.000Z</time>
      </trkpt>
      <trkpt lat="43.50609" lon="6.59654">
        <ele>60.7</ele>
        <time>2025-10-28T10:58:05.000Z</time>
      </trkpt>
      <trkpt lat="43.50611" lon="6.59659">
        <ele>60.9</ele>
        <time>2025-10-28T10:58:06.000Z</time>
      </trkpt>
      <trkpt lat="43.50613" lon="6.59665">
        <ele>61.2</ele>
        <time>2025-10-28T10:58:07.000Z</time>
      </trkpt>
      <trkpt lat="43.50615" lon="6.59671">
        <ele>61.5</ele>
        <time>2025-10-28T10:58:08.000Z</time>
      </trkpt>
      <trkpt lat="43.50618" lon="6.59676">
        <ele>61.7</ele>
        <time>2025-10-28T10:58:09.000Z</time>
      </trkpt>
      <trkpt lat="43.5062" lon="6.5968">
        <ele>61.9</ele>
        <time>2025-10-28T10:58:10.000Z</time>
      </trkpt>
      <trkpt lat="43.50623" lon="6.59685">
        <ele>62.1</ele>
        <time>2025-10-28T10:58:11.000Z</time>
      </trkpt>
      <trkpt lat="43.50627" lon="6.59691">
        <ele>62.4</ele>
        <time>2025-10-28T10:58:12.000Z</time>
      </trkpt>
      <trkpt lat="43.50631" lon="6.59695">
        <ele>62.5</ele>
        <time>2025-10-28T10:58:13.000Z</time>
      </trkpt>
      <trkpt lat="43.50635" lon="6.59699">
        <ele>62.7</ele>
        <time>2025-10-28T10:58:14.000Z</time>
      </trkpt>
      <trkpt lat="43.50638" lon="6.59702">
        <ele>62.7</ele>
        <time>2025-10-28T10:58:15.000Z</time>
      </trkpt>
      <trkpt lat="43.50642" lon="6.59708">
        <ele>62.8</ele>
        <time>2025-10-28T10:58:16.000Z</time>
      </trkpt>
      <trkpt lat="43.50646" lon="6.59712">
        <ele>62.9</ele>
        <time>2025-10-28T10:58:17.000Z</time>
      </trkpt>
      <trkpt lat="43.5065" lon="6.59715">
        <ele>62.9</ele>
        <time>2025-10-28T10:58:18.000Z</time>
      </trkpt>
      <trkpt lat="43.50654" lon="6.59717">
        <ele>63</ele>
        <time>2025-10-28T10:58:19.000Z</time>
      </trkpt>
      <trkpt lat="43.5066" lon="6.59721">
        <ele>62.9</ele>
        <time>2025-10-28T10:58:20.000Z</time>
      </trkpt>
      <trkpt lat="43.50664" lon="6.59723">
        <ele>62.9</ele>
        <time>2025-10-28T10:58:21.000Z</time>
      </trkpt>
      <trkpt lat="43.50668" lon="6.59727">
        <ele>62.9</ele>
        <time>2025-10-28T10:58:22.000Z</time>
      </trkpt>
      <trkpt lat="43.50672" lon="6.59732">
        <ele>62.9</ele>
        <time>2025-10-28T10:58:23.000Z</time>
      </trkpt>
      <trkpt lat="43.50676" lon="6.59739">
        <ele>62.9</ele>
        <time>2025-10-28T10:58:24.000Z</time>
      </trkpt>
      <trkpt lat="43.5068" lon="6.59744">
        <ele>63</ele>
        <time>2025-10-28T10:58:25.000Z</time>
      </trkpt>
      <trkpt lat="43.50683" lon="6.59749">
        <ele>63.1</ele>
        <time>2025-10-28T10:58:26.000Z</time>
      </trkpt>
      <trkpt lat="43.50687" lon="6.59754">
        <ele>63.2</ele>
        <time>2025-10-28T10:58:27.000Z</time>
      </trkpt>
      <trkpt lat="43.50689" lon="6.59758">
        <ele>63.4</ele>
        <time>2025-10-28T10:58:28.000Z</time>
      </trkpt>
      <trkpt lat="43.50693" lon="6.59763">
        <ele>63.6</ele>
        <time>2025-10-28T10:58:29.000Z</time>
      </trkpt>
      <trkpt lat="43.50697" lon="6.59768">
        <ele>63.9</ele>
        <time>2025-10-28T10:58:30.000Z</time>
      </trkpt>
      <trkpt lat="43.50701" lon="6.59772">
        <ele>64.2</ele>
        <time>2025-10-28T10:58:31.000Z</time>
      </trkpt>
      <trkpt lat="43.50704" lon="6.59776">
        <ele>64.4</ele>
        <time>2025-10-28T10:58:32.000Z</time>
      </trkpt>
      <trkpt lat="43.50709" lon="6.59783">
        <ele>64.7</ele>
        <time>2025-10-28T10:58:33.000Z</time>
      </trkpt>
      <trkpt lat="43.50712" lon="6.59788">
        <ele>65</ele>
        <time>2025-10-28T10:58:34.000Z</time>
      </trkpt>
      <trkpt lat="43.50715" lon="6.59793">
        <ele>65.1</ele>
        <time>2025-10-28T10:58:35.000Z</time>
      </trkpt>
      <trkpt lat="43.50718" lon="6.59798">
        <ele>65.3</ele>
        <time>2025-10-28T10:58:36.000Z</time>
      </trkpt>
      <trkpt lat="43.5072" lon="6.59803">
        <ele>65.4</ele>
        <time>2025-10-28T10:58:37.000Z</time>
      </trkpt>
      <trkpt lat="43.50723" lon="6.59809">
        <ele>65.5</ele>
        <time>2025-10-28T10:58:38.000Z</time>
      </trkpt>
      <trkpt lat="43.50726" lon="6.59815">
        <ele>65.7</ele>
        <time>2025-10-28T10:58:39.000Z</time>
      </trkpt>
      <trkpt lat="43.50728" lon="6.5982">
        <ele>65.8</ele>
        <time>2025-10-28T10:58:40.000Z</time>
      </trkpt>
      <trkpt lat="43.5073" lon="6.59824">
        <ele>65.9</ele>
        <time>2025-10-28T10:58:41.000Z</time>
      </trkpt>
      <trkpt lat="43.50731" lon="6.59831">
        <ele>66</ele>
        <time>2025-10-28T10:58:42.000Z</time>
      </trkpt>
      <trkpt lat="43.50732" lon="6.59835">
        <ele>66.1</ele>
        <time>2025-10-28T10:58:43.000Z</time>
      </trkpt>
      <trkpt lat="43.50733" lon="6.59842">
        <ele>66.2</ele>
        <time>2025-10-28T10:58:44.000Z</time>
      </trkpt>
      <trkpt lat="43.50734" lon="6.59846">
        <ele>66.3</ele>
        <time>2025-10-28T10:58:45.000Z</time>
      </trkpt>
      <trkpt lat="43.50734" lon="6.59852">
        <ele>66.4</ele>
        <time>2025-10-28T10:58:46.000Z</time>
      </trkpt>
      <trkpt lat="43.50735" lon="6.59858">
        <ele>66.5</ele>
        <time>2025-10-28T10:58:47.000Z</time>
      </trkpt>
      <trkpt lat="43.50735" lon="6.59863">
        <ele>66.5</ele>
        <time>2025-10-28T10:58:48.000Z</time>
      </trkpt>
      <trkpt lat="43.50735" lon="6.59868">
        <ele>66.5</ele>
        <time>2025-10-28T10:58:49.000Z</time>
      </trkpt>
      <trkpt lat="43.50734" lon="6.59873">
        <ele>66.6</ele>
        <time>2025-10-28T10:58:50.000Z</time>
      </trkpt>
      <trkpt lat="43.50734" lon="6.59878">
        <ele>66.6</ele>
        <time>2025-10-28T10:58:51.000Z</time>
      </trkpt>
      <trkpt lat="43.50732" lon="6.59884">
        <ele>66.6</ele>
        <time>2025-10-28T10:58:52.000Z</time>
      </trkpt>
      <trkpt lat="43.50731" lon="6.5989">
        <ele>66.6</ele>
        <time>2025-10-28T10:58:53.000Z</time>
      </trkpt>
      <trkpt lat="43.5073" lon="6.59894">
        <ele>66.7</ele>
        <time>2025-10-28T10:58:54.000Z</time>
      </trkpt>
      <trkpt lat="43.5073" lon="6.59901">
        <ele>66.7</ele>
        <time>2025-10-28T10:58:55.000Z</time>
      </trkpt>
      <trkpt lat="43.50729" lon="6.59905">
        <ele>66.7</ele>
        <time>2025-10-28T10:58:56.000Z</time>
      </trkpt>
      <trkpt lat="43.50728" lon="6.59909">
        <ele>66.8</ele>
        <time>2025-10-28T10:58:57.000Z</time>
      </trkpt>
      <trkpt lat="43.50727" lon="6.59912">
        <ele>66.8</ele>
        <time>2025-10-28T10:58:58.000Z</time>
      </trkpt>
      <trkpt lat="43.50727" lon="6.59917">
        <ele>66.8</ele>
        <time>2025-10-28T10:58:59.000Z</time>
      </trkpt>
      <trkpt lat="43.50727" lon="6.59922">
        <ele>66.9</ele>
        <time>2025-10-28T10:59:00.000Z</time>
      </trkpt>
      <trkpt lat="43.50727" lon="6.59926">
        <ele>67</ele>
        <time>2025-10-28T10:59:01.000Z</time>
      </trkpt>
      <trkpt lat="43.50727" lon="6.59929">
        <ele>67</ele>
        <time>2025-10-28T10:59:02.000Z</time>
      </trkpt>
      <trkpt lat="43.50726" lon="6.59931">
        <ele>67</ele>
        <time>2025-10-28T10:59:03.000Z</time>
      </trkpt>
      <trkpt lat="43.50725" lon="6.59935">
        <ele>67.1</ele>
        <time>2025-10-28T10:59:04.000Z</time>
      </trkpt>
      <trkpt lat="43.50725" lon="6.59939">
        <ele>67.2</ele>
        <time>2025-10-28T10:59:05.000Z</time>
      </trkpt>
      <trkpt lat="43.50725" lon="6.59942">
        <ele>67.2</ele>
        <time>2025-10-28T10:59:06.000Z</time>
      </trkpt>
      <trkpt lat="43.50727" lon="6.59944">
        <ele>67.3</ele>
        <time>2025-10-28T10:59:07.000Z</time>
      </trkpt>
      <trkpt lat="43.50728" lon="6.59946">
        <ele>67.4</ele>
        <time>2025-10-28T10:59:08.000Z</time>
      </trkpt>
      <trkpt lat="43.5073" lon="6.59949">
        <ele>67.5</ele>
        <time>2025-10-28T10:59:09.000Z</time>
      </trkpt>
      <trkpt lat="43.50731" lon="6.59953">
        <ele>67.6</ele>
        <time>2025-10-28T10:59:10.000Z</time>
      </trkpt>
      <trkpt lat="43.50731" lon="6.59957">
        <ele>67.7</ele>
        <time>2025-10-28T10:59:11.000Z</time>
      </trkpt>
      <trkpt lat="43.50731" lon="6.59961">
        <ele>67.8</ele>
        <time>2025-10-28T10:59:12.000Z</time>
      </trkpt>
      <trkpt lat="43.50731" lon="6.59966">
        <ele>68</ele>
        <time>2025-10-28T10:59:13.000Z</time>
      </trkpt>
      <trkpt lat="43.50731" lon="6.59971">
        <ele>68.1</ele>
        <time>2025-10-28T10:59:14.000Z</time>
      </trkpt>
      <trkpt lat="43.5073" lon="6.59974">
        <ele>68.2</ele>
        <time>2025-10-28T10:59:15.000Z</time>
      </trkpt>
      <trkpt lat="43.50729" lon="6.59974">
        <ele>68.3</ele>
        <time>2025-10-28T10:59:16.000Z</time>
      </trkpt>
      <trkpt lat="43.50727" lon="6.59974">
        <ele>68.4</ele>
        <time>2025-10-28T10:59:17.000Z</time>
      </trkpt>
      <trkpt lat="43.50725" lon="6.59974">
        <ele>68.4</ele>
        <time>2025-10-28T10:59:18.000Z</time>
      </trkpt>
      <trkpt lat="43.50724" lon="6.59974">
        <ele>68.5</ele>
        <time>2025-10-28T10:59:19.000Z</time>
      </trkpt>
      <trkpt lat="43.50724" lon="6.59975">
        <ele>68.5</ele>
        <time>2025-10-28T10:59:20.000Z</time>
      </trkpt>
      <trkpt lat="43.50725" lon="6.59975">
        <ele>68.5</ele>
        <time>2025-10-28T10:59:21.000Z</time>
      </trkpt>
      <trkpt lat="43.50726" lon="6.59975">
        <ele>68.6</ele>
        <time>2025-10-28T10:59:22.000Z</time>
      </trkpt>
      <trkpt lat="43.50727" lon="6.59974">
        <ele>68.6</ele>
        <time>2025-10-28T10:59:23.000Z</time>
      </trkpt>
      <trkpt lat="43.50729" lon="6.59974">
        <ele>68.7</ele>
        <time>2025-10-28T10:59:24.000Z</time>
      </trkpt>
      <trkpt lat="43.50729" lon="6.59973">
        <ele>68.8</ele>
        <time>2025-10-28T10:59:25.000Z</time>
      </trkpt>
      <trkpt lat="43.5073" lon="6.59971">
        <ele>68.9</ele>
        <time>2025-10-28T10:59:26.000Z</time>
      </trkpt>
      <trkpt lat="43.50731" lon="6.59969">
        <ele>69</ele>
        <time>2025-10-28T10:59:27.000Z</time>
      </trkpt>
      <trkpt lat="43.50731" lon="6.59966">
        <ele>69.1</ele>
        <time>2025-10-28T10:59:28.000Z</time>
      </trkpt>
      <trkpt lat="43.50731" lon="6.59963">
        <ele>69.2</ele>
        <time>2025-10-28T10:59:29.000Z</time>
      </trkpt>
      <trkpt lat="43.50731" lon="6.5996">
        <ele>69.4</ele>
        <time>2025-10-28T10:59:30.000Z</time>
      </trkpt>
      <trkpt lat="43.5073" lon="6.59957">
        <ele>69.5</ele>
        <time>2025-10-28T10:59:31.000Z</time>
      </trkpt>
      <trkpt lat="43.50729" lon="6.59954">
        <ele>69.6</ele>
        <time>2025-10-28T10:59:32.000Z</time>
      </trkpt>
      <trkpt lat="43.50729" lon="6.59952">
        <ele>69.7</ele>
        <time>2025-10-28T10:59:33.000Z</time>
      </trkpt>
      <trkpt lat="43.50728" lon="6.59951">
        <ele>69.8</ele>
        <time>2025-10-28T10:59:34.000Z</time>
      </trkpt>
      <trkpt lat="43.50728" lon="6.5995">
        <ele>69.9</ele>
        <time>2025-10-28T10:59:35.000Z</time>
      </trkpt>
      <trkpt lat="43.50728" lon="6.5995">
        <ele>69.9</ele>
        <time>2025-10-28T10:59:36.000Z</time>
      </trkpt>
      <trkpt lat="43.50728" lon="6.5995">
        <ele>69.9</ele>
        <time>2025-10-28T10:59:37.000Z</time>
      </trkpt>
      <trkpt lat="43.50728" lon="6.59949">
        <ele>69.9</ele>
        <time>2025-10-28T10:59:38.000Z</time>
      </trkpt>
      <trkpt lat="43.50728" lon="6.59949">
        <ele>70</ele>
        <time>2025-10-28T10:59:39.000Z</time>
      </trkpt>
      <trkpt lat="43.50728" lon="6.59949">
        <ele>70</ele>
        <time>2025-10-28T10:59:40.000Z</time>
      </trkpt>
      <trkpt lat="43.50728" lon="6.59949">
        <ele>70</ele>
        <time>2025-10-28T10:59:41.000Z</time>
      </trkpt>
      <trkpt lat="43.50729" lon="6.59949">
        <ele>70</ele>
        <time>2025-10-28T10:59:42.000Z</time>
      </trkpt>
      <trkpt lat="43.50728" lon="6.59949">
        <ele>70.1</ele>
        <time>2025-10-28T10:59:43.000Z</time>
      </trkpt>
      <trkpt lat="43.50728" lon="6.59949">
        <ele>70.1</ele>
        <time>2025-10-28T10:59:44.000Z</time>
      </trkpt>
      <trkpt lat="43.50729" lon="6.5995">
        <ele>70.1</ele>
        <time>2025-10-28T10:59:45.000Z</time>
      </trkpt>
      <trkpt lat="43.50729" lon="6.5995">
        <ele>70.1</ele>
        <time>2025-10-28T10:59:46.000Z</time>
      </trkpt>
      <trkpt lat="43.50729" lon="6.5995">
        <ele>70.1</ele>
        <time>2025-10-28T10:59:47.000Z</time>
      </trkpt>
      <trkpt lat="43.50729" lon="6.5995">
        <ele>70.1</ele>
        <time>2025-10-28T10:59:48.000Z</time>
      </trkpt>
      <trkpt lat="43.50729" lon="6.5995">
        <ele>70.1</ele>
        <time>2025-10-28T10:59:49.000Z</time>
      </trkpt>
      <trkpt lat="43.50729" lon="6.5995">
        <ele>70.1</ele>
        <time>2025-10-28T10:59:50.000Z</time>
      </trkpt>
      <trkpt lat="43.50729" lon="6.5995">
        <ele>70.1</ele>
        <time>2025-10-28T10:59:51.000Z</time>
      </trkpt>
      <trkpt lat="43.50729" lon="6.5995">
        <ele>70.1</ele>
        <time>2025-10-28T10:59:52.000Z</time>
      </trkpt>
      <trkpt lat="43.50729" lon="6.5995">
        <ele>70.1</ele>
        <time>2025-10-28T10:59:53.000Z</time>
      </trkpt>
      <trkpt lat="43.50729" lon="6.5995">
        <ele>70.1</ele>
        <time>2025-10-28T10:59:54.000Z</time>
      </trkpt>
      <trkpt lat="43.50729" lon="6.5995">
        <ele>70.1</ele>
        <time>2025-10-28T10:59:55.000Z</time>
      </trkpt>
      <trkpt lat="43.50729" lon="6.5995">
        <ele>70.1</ele>
        <time>2025-10-28T10:59:56.000Z</time>
      </trkpt>
      <trkpt lat="43.50729" lon="6.5995">
        <ele>70.1</ele>
        <time>2025-10-28T10:59:57.000Z</time>
      </trkpt>
      <trkpt lat="43.50729" lon="6.5995">
        <ele>70.1</ele>
        <time>2025-10-28T10:59:58.000Z</time>
      </trkpt>
      <trkpt lat="43.50729" lon="6.5995">
        <ele>70.1</ele>
        <time>2025-10-28T10:59:59.000Z</time>
      </trkpt>
      <trkpt lat="43.50729" lon="6.5995">
        <ele>70.1</ele>
        <time>2025-10-28T11:00:00.000Z</time>
      </trkpt>
      <trkpt lat="43.50729" lon="6.5995">
        <ele>70.2</ele>
        <time>2025-10-28T11:00:01.000Z</time>
      </trkpt>
      <trkpt lat="43.50729" lon="6.59952">
        <ele>70.3</ele>
        <time>2025-10-28T11:00:02.000Z</time>
      </trkpt>
      <trkpt lat="43.50729" lon="6.59955">
        <ele>70.4</ele>
        <time>2025-10-28T11:00:03.000Z</time>
      </trkpt>
      <trkpt lat="43.50729" lon="6.59957">
        <ele>70.5</ele>
        <time>2025-10-28T11:00:04.000Z</time>
      </trkpt>
      <trkpt lat="43.5073" lon="6.59959">
        <ele>70.6</ele>
        <time>2025-10-28T11:00:05.000Z</time>
      </trkpt>
      <trkpt lat="43.5073" lon="6.59962">
        <ele>70.8</ele>
        <time>2025-10-28T11:00:06.000Z</time>
      </trkpt>
      <trkpt lat="43.5073" lon="6.59964">
        <ele>70.9</ele>
        <time>2025-10-28T11:00:07.000Z</time>
      </trkpt>
      <trkpt lat="43.50729" lon="6.59966">
        <ele>71</ele>
        <time>2025-10-28T11:00:08.000Z</time>
      </trkpt>
      <trkpt lat="43.50729" lon="6.59968">
        <ele>71.1</ele>
        <time>2025-10-28T11:00:09.000Z</time>
      </trkpt>
      <trkpt lat="43.50728" lon="6.59969">
        <ele>71.2</ele>
        <time>2025-10-28T11:00:10.000Z</time>
      </trkpt>
      <trkpt lat="43.50727" lon="6.59969">
        <ele>71.2</ele>
        <time>2025-10-28T11:00:11.000Z</time>
      </trkpt>
      <trkpt lat="43.50727" lon="6.59969">
        <ele>71.3</ele>
        <time>2025-10-28T11:00:12.000Z</time>
      </trkpt>
      <trkpt lat="43.50726" lon="6.5997">
        <ele>71.3</ele>
        <time>2025-10-28T11:00:13.000Z</time>
      </trkpt>
      <trkpt lat="43.50725" lon="6.5997">
        <ele>71.3</ele>
        <time>2025-10-28T11:00:14.000Z</time>
      </trkpt>
      <trkpt lat="43.50725" lon="6.5997">
        <ele>71.3</ele>
        <time>2025-10-28T11:00:15.000Z</time>
      </trkpt>
      <trkpt lat="43.50724" lon="6.59971">
        <ele>71.3</ele>
        <time>2025-10-28T11:00:16.000Z</time>
      </trkpt>
      <trkpt lat="43.50724" lon="6.59972">
        <ele>71.3</ele>
        <time>2025-10-28T11:00:17.000Z</time>
      </trkpt>
      <trkpt lat="43.50724" lon="6.59972">
        <ele>71.3</ele>
        <time>2025-10-28T11:00:18.000Z</time>
      </trkpt>
      <trkpt lat="43.50724" lon="6.59972">
        <ele>71.3</ele>
        <time>2025-10-28T11:00:19.000Z</time>
      </trkpt>
      <trkpt lat="43.50724" lon="6.59972">
        <ele>71.3</ele>
        <time>2025-10-28T11:00:20.000Z</time>
      </trkpt>
      <trkpt lat="43.50724" lon="6.59971">
        <ele>71.3</ele>
        <time>2025-10-28T11:00:21.000Z</time>
      </trkpt>
      <trkpt lat="43.50724" lon="6.5997">
        <ele>71.3</ele>
        <time>2025-10-28T11:00:22.000Z</time>
      </trkpt>
      <trkpt lat="43.50723" lon="6.59969">
        <ele>71.3</ele>
        <time>2025-10-28T11:00:23.000Z</time>
      </trkpt>
      <trkpt lat="43.50723" lon="6.59969">
        <ele>71.3</ele>
        <time>2025-10-28T11:00:24.000Z</time>
      </trkpt>
      <trkpt lat="43.50722" lon="6.59969">
        <ele>71.3</ele>
        <time>2025-10-28T11:00:25.000Z</time>
      </trkpt>
      <trkpt lat="43.50722" lon="6.59969">
        <ele>71.3</ele>
        <time>2025-10-28T11:00:26.000Z</time>
      </trkpt>
      <trkpt lat="43.50721" lon="6.59969">
        <ele>71.3</ele>
        <time>2025-10-28T11:00:27.000Z</time>
      </trkpt>
      <trkpt lat="43.50721" lon="6.5997">
        <ele>71.3</ele>
        <time>2025-10-28T11:00:28.000Z</time>
      </trkpt>
      <trkpt lat="43.50719" lon="6.5997">
        <ele>71.3</ele>
        <time>2025-10-28T11:00:29.000Z</time>
      </trkpt>
      <trkpt lat="43.50717" lon="6.5997">
        <ele>71.3</ele>
        <time>2025-10-28T11:00:30.000Z</time>
      </trkpt>
      <trkpt lat="43.50715" lon="6.5997">
        <ele>71.3</ele>
        <time>2025-10-28T11:00:31.000Z</time>
      </trkpt>
      <trkpt lat="43.50713" lon="6.59969">
        <ele>71.3</ele>
        <time>2025-10-28T11:00:32.000Z</time>
      </trkpt>
      <trkpt lat="43.5071" lon="6.59968">
        <ele>71.3</ele>
        <time>2025-10-28T11:00:33.000Z</time>
      </trkpt>
      <trkpt lat="43.50707" lon="6.59967">
        <ele>71.3</ele>
        <time>2025-10-28T11:00:34.000Z</time>
      </trkpt>
      <trkpt lat="43.50705" lon="6.59967">
        <ele>71.3</ele>
        <time>2025-10-28T11:00:35.000Z</time>
      </trkpt>
      <trkpt lat="43.50703" lon="6.59967">
        <ele>71.4</ele>
        <time>2025-10-28T11:00:36.000Z</time>
      </trkpt>
      <trkpt lat="43.50702" lon="6.59967">
        <ele>71.5</ele>
        <time>2025-10-28T11:00:37.000Z</time>
      </trkpt>
      <trkpt lat="43.50701" lon="6.59967">
        <ele>71.5</ele>
        <time>2025-10-28T11:00:38.000Z</time>
      </trkpt>
      <trkpt lat="43.50701" lon="6.59968">
        <ele>71.5</ele>
        <time>2025-10-28T11:00:39.000Z</time>
      </trkpt>
      <trkpt lat="43.50701" lon="6.59968">
        <ele>71.6</ele>
        <time>2025-10-28T11:00:40.000Z</time>
      </trkpt>
      <trkpt lat="43.507" lon="6.59969">
        <ele>71.6</ele>
        <time>2025-10-28T11:00:41.000Z</time>
      </trkpt>
      <trkpt lat="43.50699" lon="6.5997">
        <ele>71.6</ele>
        <time>2025-10-28T11:00:42.000Z</time>
      </trkpt>
      <trkpt lat="43.50699" lon="6.5997">
        <ele>71.7</ele>
        <time>2025-10-28T11:00:43.000Z</time>
      </trkpt>
      <trkpt lat="43.50698" lon="6.59971">
        <ele>71.7</ele>
        <time>2025-10-28T11:00:44.000Z</time>
      </trkpt>
      <trkpt lat="43.50698" lon="6.59971">
        <ele>71.8</ele>
        <time>2025-10-28T11:00:45.000Z</time>
      </trkpt>
      <trkpt lat="43.50697" lon="6.59972">
        <ele>71.8</ele>
        <time>2025-10-28T11:00:46.000Z</time>
      </trkpt>
      <trkpt lat="43.50697" lon="6.59973">
        <ele>71.8</ele>
        <time>2025-10-28T11:00:47.000Z</time>
      </trkpt>
      <trkpt lat="43.50696" lon="6.59973">
        <ele>71.9</ele>
        <time>2025-10-28T11:00:48.000Z</time>
      </trkpt>
      <trkpt lat="43.50695" lon="6.59974">
        <ele>71.9</ele>
        <time>2025-10-28T11:00:49.000Z</time>
      </trkpt>
      <trkpt lat="43.50695" lon="6.59974">
        <ele>72</ele>
        <time>2025-10-28T11:00:50.000Z</time>
      </trkpt>
      <trkpt lat="43.50694" lon="6.59975">
        <ele>72</ele>
        <time>2025-10-28T11:00:51.000Z</time>
      </trkpt>
      <trkpt lat="43.50694" lon="6.59976">
        <ele>72.1</ele>
        <time>2025-10-28T11:00:52.000Z</time>
      </trkpt>
      <trkpt lat="43.50693" lon="6.59976">
        <ele>72.1</ele>
        <time>2025-10-28T11:00:53.000Z</time>
      </trkpt>
      <trkpt lat="43.50692" lon="6.59977">
        <ele>72.2</ele>
        <time>2025-10-28T11:00:54.000Z</time>
      </trkpt>
      <trkpt lat="43.50692" lon="6.59978">
        <ele>72.2</ele>
        <time>2025-10-28T11:00:55.000Z</time>
      </trkpt>
      <trkpt lat="43.50691" lon="6.59978">
        <ele>72.3</ele>
        <time>2025-10-28T11:00:56.000Z</time>
      </trkpt>
      <trkpt lat="43.50691" lon="6.59979">
        <ele>72.3</ele>
        <time>2025-10-28T11:00:57.000Z</time>
      </trkpt>
      <trkpt lat="43.5069" lon="6.59979">
        <ele>72.4</ele>
        <time>2025-10-28T11:00:58.000Z</time>
      </trkpt>
      <trkpt lat="43.5069" lon="6.5998">
        <ele>72.4</ele>
        <time>2025-10-28T11:00:59.000Z</time>
      </trkpt>
      <trkpt lat="43.50689" lon="6.59981">
        <ele>72.5</ele>
        <time>2025-10-28T11:01:00.000Z</time>
      </trkpt>
      <trkpt lat="43.50688" lon="6.59981">
        <ele>72.5</ele>
        <time>2025-10-28T11:01:01.000Z</time>
      </trkpt>
      <trkpt lat="43.50688" lon="6.59982">
        <ele>72.6</ele>
        <time>2025-10-28T11:01:02.000Z</time>
      </trkpt>
      <trkpt lat="43.50687" lon="6.59982">
        <ele>72.6</ele>
        <time>2025-10-28T11:01:03.000Z</time>
      </trkpt>
      <trkpt lat="43.50687" lon="6.59983">
        <ele>72.7</ele>
        <time>2025-10-28T11:01:04.000Z</time>
      </trkpt>
      <trkpt lat="43.50686" lon="6.59984">
        <ele>72.7</ele>
        <time>2025-10-28T11:01:05.000Z</time>
      </trkpt>
      <trkpt lat="43.50685" lon="6.59984">
        <ele>72.8</ele>
        <time>2025-10-28T11:01:06.000Z</time>
      </trkpt>
      <trkpt lat="43.50685" lon="6.59985">
        <ele>72.8</ele>
        <time>2025-10-28T11:01:07.000Z</time>
      </trkpt>
      <trkpt lat="43.50684" lon="6.59986">
        <ele>72.9</ele>
        <time>2025-10-28T11:01:08.000Z</time>
      </trkpt>
      <trkpt lat="43.50684" lon="6.59986">
        <ele>73</ele>
        <time>2025-10-28T11:01:09.000Z</time>
      </trkpt>
      <trkpt lat="43.50683" lon="6.59987">
        <ele>73</ele>
        <time>2025-10-28T11:01:10.000Z</time>
      </trkpt>
      <trkpt lat="43.5068" lon="6.5999">
        <ele>73.3</ele>
        <time>2025-10-28T11:01:11.000Z</time>
      </trkpt>
      <trkpt lat="43.50677" lon="6.59994">
        <ele>73.5</ele>
        <time>2025-10-28T11:01:12.000Z</time>
      </trkpt>
      <trkpt lat="43.50674" lon="6.59997">
        <ele>73.8</ele>
        <time>2025-10-28T11:01:13.000Z</time>
      </trkpt>
      <trkpt lat="43.50671" lon="6.60001">
        <ele>74.1</ele>
        <time>2025-10-28T11:01:14.000Z</time>
      </trkpt>
      <trkpt lat="43.50669" lon="6.60005">
        <ele>74.3</ele>
        <time>2025-10-28T11:01:15.000Z</time>
      </trkpt>
      <trkpt lat="43.50666" lon="6.60008">
        <ele>74.6</ele>
        <time>2025-10-28T11:01:16.000Z</time>
      </trkpt>
      <trkpt lat="43.50664" lon="6.60012">
        <ele>74.8</ele>
        <time>2025-10-28T11:01:17.000Z</time>
      </trkpt>
      <trkpt lat="43.50661" lon="6.60016">
        <ele>75</ele>
        <time>2025-10-28T11:01:18.000Z</time>
      </trkpt>
      <trkpt lat="43.50659" lon="6.60019">
        <ele>75.3</ele>
        <time>2025-10-28T11:01:19.000Z</time>
      </trkpt>
      <trkpt lat="43.50657" lon="6.60023">
        <ele>75.5</ele>
        <time>2025-10-28T11:01:20.000Z</time>
      </trkpt>
      <trkpt lat="43.50655" lon="6.60027">
        <ele>75.8</ele>
        <time>2025-10-28T11:01:21.000Z</time>
      </trkpt>
      <trkpt lat="43.50653" lon="6.60031">
        <ele>76</ele>
        <time>2025-10-28T11:01:22.000Z</time>
      </trkpt>
      <trkpt lat="43.5065" lon="6.60035">
        <ele>76.3</ele>
        <time>2025-10-28T11:01:23.000Z</time>
      </trkpt>
      <trkpt lat="43.50648" lon="6.60039">
        <ele>76.6</ele>
        <time>2025-10-28T11:01:24.000Z</time>
      </trkpt>
      <trkpt lat="43.50646" lon="6.60043">
        <ele>76.8</ele>
        <time>2025-10-28T11:01:25.000Z</time>
      </trkpt>
      <trkpt lat="43.50643" lon="6.60047">
        <ele>77.1</ele>
        <time>2025-10-28T11:01:26.000Z</time>
      </trkpt>
      <trkpt lat="43.50641" lon="6.60051">
        <ele>77.3</ele>
        <time>2025-10-28T11:01:27.000Z</time>
      </trkpt>
      <trkpt lat="43.50638" lon="6.60055">
        <ele>77.5</ele>
        <time>2025-10-28T11:01:28.000Z</time>
      </trkpt>
      <trkpt lat="43.50636" lon="6.60059">
        <ele>77.8</ele>
        <time>2025-10-28T11:01:29.000Z</time>
      </trkpt>
      <trkpt lat="43.50633" lon="6.60063">
        <ele>78</ele>
        <time>2025-10-28T11:01:30.000Z</time>
      </trkpt>
      <trkpt lat="43.50631" lon="6.60067">
        <ele>78.3</ele>
        <time>2025-10-28T11:01:31.000Z</time>
      </trkpt>
      <trkpt lat="43.50629" lon="6.60071">
        <ele>78.5</ele>
        <time>2025-10-28T11:01:32.000Z</time>
      </trkpt>
      <trkpt lat="43.50627" lon="6.60075">
        <ele>78.8</ele>
        <time>2025-10-28T11:01:33.000Z</time>
      </trkpt>
      <trkpt lat="43.50625" lon="6.60078">
        <ele>78.9</ele>
        <time>2025-10-28T11:01:34.000Z</time>
      </trkpt>
      <trkpt lat="43.50623" lon="6.60081">
        <ele>79.1</ele>
        <time>2025-10-28T11:01:35.000Z</time>
      </trkpt>
      <trkpt lat="43.50621" lon="6.60084">
        <ele>79.2</ele>
        <time>2025-10-28T11:01:36.000Z</time>
      </trkpt>
      <trkpt lat="43.5062" lon="6.60087">
        <ele>79.4</ele>
        <time>2025-10-28T11:01:37.000Z</time>
      </trkpt>
      <trkpt lat="43.50618" lon="6.60091">
        <ele>79.6</ele>
        <time>2025-10-28T11:01:38.000Z</time>
      </trkpt>
      <trkpt lat="43.50616" lon="6.60094">
        <ele>79.7</ele>
        <time>2025-10-28T11:01:39.000Z</time>
      </trkpt>
      <trkpt lat="43.50614" lon="6.60098">
        <ele>79.9</ele>
        <time>2025-10-28T11:01:40.000Z</time>
      </trkpt>
      <trkpt lat="43.50612" lon="6.60101">
        <ele>80</ele>
        <time>2025-10-28T11:01:41.000Z</time>
      </trkpt>
      <trkpt lat="43.5061" lon="6.60105">
        <ele>80.2</ele>
        <time>2025-10-28T11:01:42.000Z</time>
      </trkpt>
      <trkpt lat="43.50608" lon="6.60108">
        <ele>80.3</ele>
        <time>2025-10-28T11:01:43.000Z</time>
      </trkpt>
      <trkpt lat="43.50606" lon="6.60111">
        <ele>80.4</ele>
        <time>2025-10-28T11:01:44.000Z</time>
      </trkpt>
      <trkpt lat="43.50603" lon="6.60114">
        <ele>80.6</ele>
        <time>2025-10-28T11:01:45.000Z</time>
      </trkpt>
      <trkpt lat="43.50601" lon="6.60117">
        <ele>80.7</ele>
        <time>2025-10-28T11:01:46.000Z</time>
      </trkpt>
      <trkpt lat="43.50599" lon="6.6012">
        <ele>80.8</ele>
        <time>2025-10-28T11:01:47.000Z</time>
      </trkpt>
      <trkpt lat="43.50597" lon="6.60124">
        <ele>80.9</ele>
        <time>2025-10-28T11:01:48.000Z</time>
      </trkpt>
      <trkpt lat="43.50596" lon="6.60127">
        <ele>80.9</ele>
        <time>2025-10-28T11:01:49.000Z</time>
      </trkpt>
      <trkpt lat="43.50594" lon="6.60131">
        <ele>81</ele>
        <time>2025-10-28T11:01:50.000Z</time>
      </trkpt>
      <trkpt lat="43.50592" lon="6.60134">
        <ele>81.1</ele>
        <time>2025-10-28T11:01:51.000Z</time>
      </trkpt>
      <trkpt lat="43.5059" lon="6.60137">
        <ele>81.1</ele>
        <time>2025-10-28T11:01:52.000Z</time>
      </trkpt>
      <trkpt lat="43.50588" lon="6.6014">
        <ele>81.1</ele>
        <time>2025-10-28T11:01:53.000Z</time>
      </trkpt>
      <trkpt lat="43.50586" lon="6.60143">
        <ele>81.2</ele>
        <time>2025-10-28T11:01:54.000Z</time>
      </trkpt>
      <trkpt lat="43.50583" lon="6.60146">
        <ele>81.2</ele>
        <time>2025-10-28T11:01:55.000Z</time>
      </trkpt>
      <trkpt lat="43.50581" lon="6.60149">
        <ele>81.2</ele>
        <time>2025-10-28T11:01:56.000Z</time>
      </trkpt>
      <trkpt lat="43.50579" lon="6.60153">
        <ele>81.1</ele>
        <time>2025-10-28T11:01:57.000Z</time>
      </trkpt>
      <trkpt lat="43.50577" lon="6.60157">
        <ele>81.1</ele>
        <time>2025-10-28T11:01:58.000Z</time>
      </trkpt>
      <trkpt lat="43.50574" lon="6.60161">
        <ele>81.1</ele>
        <time>2025-10-28T11:01:59.000Z</time>
      </trkpt>
      <trkpt lat="43.50572" lon="6.60164">
        <ele>81.1</ele>
        <time>2025-10-28T11:02:00.000Z</time>
      </trkpt>
      <trkpt lat="43.50569" lon="6.60168">
        <ele>81.1</ele>
        <time>2025-10-28T11:02:01.000Z</time>
      </trkpt>
      <trkpt lat="43.50567" lon="6.60172">
        <ele>81.1</ele>
        <time>2025-10-28T11:02:02.000Z</time>
      </trkpt>
      <trkpt lat="43.50564" lon="6.60176">
        <ele>81</ele>
        <time>2025-10-28T11:02:03.000Z</time>
      </trkpt>
      <trkpt lat="43.50562" lon="6.60181">
        <ele>81</ele>
        <time>2025-10-28T11:02:04.000Z</time>
      </trkpt>
      <trkpt lat="43.5056" lon="6.60186">
        <ele>80.9</ele>
        <time>2025-10-28T11:02:05.000Z</time>
      </trkpt>
      <trkpt lat="43.50558" lon="6.6019">
        <ele>80.8</ele>
        <time>2025-10-28T11:02:06.000Z</time>
      </trkpt>
      <trkpt lat="43.50555" lon="6.60194">
        <ele>80.8</ele>
        <time>2025-10-28T11:02:07.000Z</time>
      </trkpt>
      <trkpt lat="43.50553" lon="6.60197">
        <ele>80.6</ele>
        <time>2025-10-28T11:02:08.000Z</time>
      </trkpt>
      <trkpt lat="43.5055" lon="6.60201">
        <ele>80.5</ele>
        <time>2025-10-28T11:02:09.000Z</time>
      </trkpt>
      <trkpt lat="43.50548" lon="6.60204">
        <ele>80.4</ele>
        <time>2025-10-28T11:02:10.000Z</time>
      </trkpt>
      <trkpt lat="43.50547" lon="6.60208">
        <ele>80.3</ele>
        <time>2025-10-28T11:02:11.000Z</time>
      </trkpt>
      <trkpt lat="43.50545" lon="6.60212">
        <ele>80.1</ele>
        <time>2025-10-28T11:02:12.000Z</time>
      </trkpt>
      <trkpt lat="43.50544" lon="6.60216">
        <ele>80</ele>
        <time>2025-10-28T11:02:13.000Z</time>
      </trkpt>
      <trkpt lat="43.50544" lon="6.60221">
        <ele>79.8</ele>
        <time>2025-10-28T11:02:14.000Z</time>
      </trkpt>
      <trkpt lat="43.50543" lon="6.60226">
        <ele>79.6</ele>
        <time>2025-10-28T11:02:15.000Z</time>
      </trkpt>
      <trkpt lat="43.50543" lon="6.60229">
        <ele>79.5</ele>
        <time>2025-10-28T11:02:16.000Z</time>
      </trkpt>
      <trkpt lat="43.50543" lon="6.60231">
        <ele>79.3</ele>
        <time>2025-10-28T11:02:17.000Z</time>
      </trkpt>
      <trkpt lat="43.50543" lon="6.60232">
        <ele>79.2</ele>
        <time>2025-10-28T11:02:18.000Z</time>
      </trkpt>
      <trkpt lat="43.50542" lon="6.60235">
        <ele>79.1</ele>
        <time>2025-10-28T11:02:19.000Z</time>
      </trkpt>
      <trkpt lat="43.50541" lon="6.60236">
        <ele>79.2</ele>
        <time>2025-10-28T11:02:20.000Z</time>
      </trkpt>
      <trkpt lat="43.5054" lon="6.60238">
        <ele>79.2</ele>
        <time>2025-10-28T11:02:21.000Z</time>
      </trkpt>
      <trkpt lat="43.5054" lon="6.60239">
        <ele>79.2</ele>
        <time>2025-10-28T11:02:22.000Z</time>
      </trkpt>
      <trkpt lat="43.50539" lon="6.60241">
        <ele>79.2</ele>
        <time>2025-10-28T11:02:23.000Z</time>
      </trkpt>
      <trkpt lat="43.50538" lon="6.60242">
        <ele>79.2</ele>
        <time>2025-10-28T11:02:24.000Z</time>
      </trkpt>
      <trkpt lat="43.50537" lon="6.60244">
        <ele>79.3</ele>
        <time>2025-10-28T11:02:25.000Z</time>
      </trkpt>
      <trkpt lat="43.50536" lon="6.60245">
        <ele>79.3</ele>
        <time>2025-10-28T11:02:26.000Z</time>
      </trkpt>
      <trkpt lat="43.50535" lon="6.60247">
        <ele>79.3</ele>
        <time>2025-10-28T11:02:27.000Z</time>
      </trkpt>
      <trkpt lat="43.50535" lon="6.60248">
        <ele>79.3</ele>
        <time>2025-10-28T11:02:28.000Z</time>
      </trkpt>
      <trkpt lat="43.50534" lon="6.6025">
        <ele>79.3</ele>
        <time>2025-10-28T11:02:29.000Z</time>
      </trkpt>
      <trkpt lat="43.50533" lon="6.60251">
        <ele>79.2</ele>
        <time>2025-10-28T11:02:30.000Z</time>
      </trkpt>
      <trkpt lat="43.50532" lon="6.60253">
        <ele>79.2</ele>
        <time>2025-10-28T11:02:31.000Z</time>
      </trkpt>
      <trkpt lat="43.50531" lon="6.60254">
        <ele>79.2</ele>
        <time>2025-10-28T11:02:32.000Z</time>
      </trkpt>
      <trkpt lat="43.5053" lon="6.60256">
        <ele>79.2</ele>
        <time>2025-10-28T11:02:33.000Z</time>
      </trkpt>
      <trkpt lat="43.50529" lon="6.60257">
        <ele>79.2</ele>
        <time>2025-10-28T11:02:34.000Z</time>
      </trkpt>
      <trkpt lat="43.50529" lon="6.60259">
        <ele>79.2</ele>
        <time>2025-10-28T11:02:35.000Z</time>
      </trkpt>
      <trkpt lat="43.50528" lon="6.6026">
        <ele>79.2</ele>
        <time>2025-10-28T11:02:36.000Z</time>
      </trkpt>
      <trkpt lat="43.50527" lon="6.60262">
        <ele>79.2</ele>
        <time>2025-10-28T11:02:37.000Z</time>
      </trkpt>
      <trkpt lat="43.50526" lon="6.60263">
        <ele>79.2</ele>
        <time>2025-10-28T11:02:38.000Z</time>
      </trkpt>
      <trkpt lat="43.50525" lon="6.60265">
        <ele>79.2</ele>
        <time>2025-10-28T11:02:39.000Z</time>
      </trkpt>
      <trkpt lat="43.50524" lon="6.60266">
        <ele>79.2</ele>
        <time>2025-10-28T11:02:40.000Z</time>
      </trkpt>
      <trkpt lat="43.50523" lon="6.60268">
        <ele>79.2</ele>
        <time>2025-10-28T11:02:41.000Z</time>
      </trkpt>
      <trkpt lat="43.50523" lon="6.60269">
        <ele>79.2</ele>
        <time>2025-10-28T11:02:42.000Z</time>
      </trkpt>
      <trkpt lat="43.50519" lon="6.60277">
        <ele>79.2</ele>
        <time>2025-10-28T11:02:43.000Z</time>
      </trkpt>
      <trkpt lat="43.50515" lon="6.60284">
        <ele>79.2</ele>
        <time>2025-10-28T11:02:44.000Z</time>
      </trkpt>
      <trkpt lat="43.50511" lon="6.60291">
        <ele>79.2</ele>
        <time>2025-10-28T11:02:45.000Z</time>
      </trkpt>
      <trkpt lat="43.50507" lon="6.60298">
        <ele>79.2</ele>
        <time>2025-10-28T11:02:46.000Z</time>
      </trkpt>
      <trkpt lat="43.50503" lon="6.60305">
        <ele>79.1</ele>
        <time>2025-10-28T11:02:47.000Z</time>
      </trkpt>
      <trkpt lat="43.50499" lon="6.60313">
        <ele>79</ele>
        <time>2025-10-28T11:02:48.000Z</time>
      </trkpt>
      <trkpt lat="43.50495" lon="6.6032">
        <ele>78.9</ele>
        <time>2025-10-28T11:02:49.000Z</time>
      </trkpt>
      <trkpt lat="43.50491" lon="6.60327">
        <ele>78.8</ele>
        <time>2025-10-28T11:02:50.000Z</time>
      </trkpt>
      <trkpt lat="43.50487" lon="6.60335">
        <ele>78.7</ele>
        <time>2025-10-28T11:02:51.000Z</time>
      </trkpt>
      <trkpt lat="43.50484" lon="6.60343">
        <ele>78.5</ele>
        <time>2025-10-28T11:02:52.000Z</time>
      </trkpt>
      <trkpt lat="43.50481" lon="6.60352">
        <ele>78.3</ele>
        <time>2025-10-28T11:02:53.000Z</time>
      </trkpt>
      <trkpt lat="43.50479" lon="6.60361">
        <ele>78.1</ele>
        <time>2025-10-28T11:02:54.000Z</time>
      </trkpt>
      <trkpt lat="43.50477" lon="6.60371">
        <ele>78</ele>
        <time>2025-10-28T11:02:55.000Z</time>
      </trkpt>
      <trkpt lat="43.50475" lon="6.6038">
        <ele>77.8</ele>
        <time>2025-10-28T11:02:56.000Z</time>
      </trkpt>
      <trkpt lat="43.50472" lon="6.60389">
        <ele>77.5</ele>
        <time>2025-10-28T11:02:57.000Z</time>
      </trkpt>
      <trkpt lat="43.50468" lon="6.60397">
        <ele>77.3</ele>
        <time>2025-10-28T11:02:58.000Z</time>
      </trkpt>
      <trkpt lat="43.50464" lon="6.60404">
        <ele>77.1</ele>
        <time>2025-10-28T11:02:59.000Z</time>
      </trkpt>
      <trkpt lat="43.50459" lon="6.6041">
        <ele>77</ele>
        <time>2025-10-28T11:03:00.000Z</time>
      </trkpt>
      <trkpt lat="43.50454" lon="6.60416">
        <ele>76.8</ele>
        <time>2025-10-28T11:03:01.000Z</time>
      </trkpt>
      <trkpt lat="43.50449" lon="6.60422">
        <ele>76.6</ele>
        <time>2025-10-28T11:03:02.000Z</time>
      </trkpt>
      <trkpt lat="43.50445" lon="6.60429">
        <ele>76.4</ele>
        <time>2025-10-28T11:03:03.000Z</time>
      </trkpt>
      <trkpt lat="43.50441" lon="6.60435">
        <ele>76.2</ele>
        <time>2025-10-28T11:03:04.000Z</time>
      </trkpt>
      <trkpt lat="43.50436" lon="6.6044">
        <ele>76.1</ele>
        <time>2025-10-28T11:03:05.000Z</time>
      </trkpt>
      <trkpt lat="43.50431" lon="6.60444">
        <ele>75.9</ele>
        <time>2025-10-28T11:03:06.000Z</time>
      </trkpt>
      <trkpt lat="43.50426" lon="6.60449">
        <ele>75.8</ele>
        <time>2025-10-28T11:03:07.000Z</time>
      </trkpt>
      <trkpt lat="43.5042" lon="6.60454">
        <ele>75.6</ele>
        <time>2025-10-28T11:03:08.000Z</time>
      </trkpt>
      <trkpt lat="43.50415" lon="6.60459">
        <ele>75.5</ele>
        <time>2025-10-28T11:03:09.000Z</time>
      </trkpt>
      <trkpt lat="43.50411" lon="6.60465">
        <ele>75.4</ele>
        <time>2025-10-28T11:03:10.000Z</time>
      </trkpt>
      <trkpt lat="43.50408" lon="6.60471">
        <ele>75.3</ele>
        <time>2025-10-28T11:03:11.000Z</time>
      </trkpt>
      <trkpt lat="43.50405" lon="6.60478">
        <ele>75.2</ele>
        <time>2025-10-28T11:03:12.000Z</time>
      </trkpt>
      <trkpt lat="43.50402" lon="6.60485">
        <ele>75.1</ele>
        <time>2025-10-28T11:03:13.000Z</time>
      </trkpt>
      <trkpt lat="43.50398" lon="6.60492">
        <ele>75</ele>
        <time>2025-10-28T11:03:14.000Z</time>
      </trkpt>
      <trkpt lat="43.50394" lon="6.60499">
        <ele>74.8</ele>
        <time>2025-10-28T11:03:15.000Z</time>
      </trkpt>
      <trkpt lat="43.5039" lon="6.60506">
        <ele>74.7</ele>
        <time>2025-10-28T11:03:16.000Z</time>
      </trkpt>
      <trkpt lat="43.50386" lon="6.60512">
        <ele>74.6</ele>
        <time>2025-10-28T11:03:17.000Z</time>
      </trkpt>
      <trkpt lat="43.50383" lon="6.6052">
        <ele>74.5</ele>
        <time>2025-10-28T11:03:18.000Z</time>
      </trkpt>
      <trkpt lat="43.50381" lon="6.60527">
        <ele>74.4</ele>
        <time>2025-10-28T11:03:19.000Z</time>
      </trkpt>
      <trkpt lat="43.50379" lon="6.60535">
        <ele>74.3</ele>
        <time>2025-10-28T11:03:20.000Z</time>
      </trkpt>
      <trkpt lat="43.50378" lon="6.60543">
        <ele>74.1</ele>
        <time>2025-10-28T11:03:21.000Z</time>
      </trkpt>
      <trkpt lat="43.50377" lon="6.6055">
        <ele>74</ele>
        <time>2025-10-28T11:03:22.000Z</time>
      </trkpt>
      <trkpt lat="43.50375" lon="6.60557">
        <ele>73.9</ele>
        <time>2025-10-28T11:03:23.000Z</time>
      </trkpt>
      <trkpt lat="43.50373" lon="6.60563">
        <ele>73.8</ele>
        <time>2025-10-28T11:03:24.000Z</time>
      </trkpt>
      <trkpt lat="43.5037" lon="6.60569">
        <ele>73.7</ele>
        <time>2025-10-28T11:03:25.000Z</time>
      </trkpt>
      <trkpt lat="43.50368" lon="6.60575">
        <ele>73.5</ele>
        <time>2025-10-28T11:03:26.000Z</time>
      </trkpt>
      <trkpt lat="43.50366" lon="6.60581">
        <ele>73.4</ele>
        <time>2025-10-28T11:03:27.000Z</time>
      </trkpt>
      <trkpt lat="43.50365" lon="6.60587">
        <ele>73.2</ele>
        <time>2025-10-28T11:03:28.000Z</time>
      </trkpt>
      <trkpt lat="43.50365" lon="6.60594">
        <ele>73.1</ele>
        <time>2025-10-28T11:03:29.000Z</time>
      </trkpt>
      <trkpt lat="43.50365" lon="6.60599">
        <ele>72.9</ele>
        <time>2025-10-28T11:03:30.000Z</time>
      </trkpt>
      <trkpt lat="43.50367" lon="6.60605">
        <ele>72.8</ele>
        <time>2025-10-28T11:03:31.000Z</time>
      </trkpt>
      <trkpt lat="43.50369" lon="6.6061">
        <ele>72.6</ele>
        <time>2025-10-28T11:03:32.000Z</time>
      </trkpt>
      <trkpt lat="43.50372" lon="6.60615">
        <ele>72.5</ele>
        <time>2025-10-28T11:03:33.000Z</time>
      </trkpt>
      <trkpt lat="43.50373" lon="6.6062">
        <ele>72.3</ele>
        <time>2025-10-28T11:03:34.000Z</time>
      </trkpt>
      <trkpt lat="43.50374" lon="6.60625">
        <ele>72.2</ele>
        <time>2025-10-28T11:03:35.000Z</time>
      </trkpt>
      <trkpt lat="43.50375" lon="6.60631">
        <ele>72</ele>
        <time>2025-10-28T11:03:36.000Z</time>
      </trkpt>
      <trkpt lat="43.50374" lon="6.60637">
        <ele>71.8</ele>
        <time>2025-10-28T11:03:37.000Z</time>
      </trkpt>
      <trkpt lat="43.50373" lon="6.60643">
        <ele>71.6</ele>
        <time>2025-10-28T11:03:38.000Z</time>
      </trkpt>
      <trkpt lat="43.50372" lon="6.6065">
        <ele>71.4</ele>
        <time>2025-10-28T11:03:39.000Z</time>
      </trkpt>
      <trkpt lat="43.5037" lon="6.60657">
        <ele>71.2</ele>
        <time>2025-10-28T11:03:40.000Z</time>
      </trkpt>
      <trkpt lat="43.50369" lon="6.60665">
        <ele>70.9</ele>
        <time>2025-10-28T11:03:41.000Z</time>
      </trkpt>
      <trkpt lat="43.50368" lon="6.60672">
        <ele>70.7</ele>
        <time>2025-10-28T11:03:42.000Z</time>
      </trkpt>
      <trkpt lat="43.50368" lon="6.6068">
        <ele>70.4</ele>
        <time>2025-10-28T11:03:43.000Z</time>
      </trkpt>
      <trkpt lat="43.50367" lon="6.60688">
        <ele>70.2</ele>
        <time>2025-10-28T11:03:44.000Z</time>
      </trkpt>
      <trkpt lat="43.50366" lon="6.60696">
        <ele>70</ele>
        <time>2025-10-28T11:03:45.000Z</time>
      </trkpt>
      <trkpt lat="43.50366" lon="6.60703">
        <ele>69.8</ele>
        <time>2025-10-28T11:03:46.000Z</time>
      </trkpt>
      <trkpt lat="43.50366" lon="6.60711">
        <ele>69.6</ele>
        <time>2025-10-28T11:03:47.000Z</time>
      </trkpt>
      <trkpt lat="43.50367" lon="6.60718">
        <ele>69.4</ele>
        <time>2025-10-28T11:03:48.000Z</time>
      </trkpt>
      <trkpt lat="43.50367" lon="6.60725">
        <ele>69.2</ele>
        <time>2025-10-28T11:03:49.000Z</time>
      </trkpt>
      <trkpt lat="43.50368" lon="6.60732">
        <ele>69</ele>
        <time>2025-10-28T11:03:50.000Z</time>
      </trkpt>
      <trkpt lat="43.50368" lon="6.6074">
        <ele>68.8</ele>
        <time>2025-10-28T11:03:51.000Z</time>
      </trkpt>
      <trkpt lat="43.50368" lon="6.60747">
        <ele>68.7</ele>
        <time>2025-10-28T11:03:52.000Z</time>
      </trkpt>
      <trkpt lat="43.50368" lon="6.60755">
        <ele>68.5</ele>
        <time>2025-10-28T11:03:53.000Z</time>
      </trkpt>
      <trkpt lat="43.50367" lon="6.60762">
        <ele>68.3</ele>
        <time>2025-10-28T11:03:54.000Z</time>
      </trkpt>
      <trkpt lat="43.50367" lon="6.6077">
        <ele>68.2</ele>
        <time>2025-10-28T11:03:55.000Z</time>
      </trkpt>
      <trkpt lat="43.50366" lon="6.60777">
        <ele>68</ele>
        <time>2025-10-28T11:03:56.000Z</time>
      </trkpt>
      <trkpt lat="43.50365" lon="6.60784">
        <ele>67.9</ele>
        <time>2025-10-28T11:03:57.000Z</time>
      </trkpt>
      <trkpt lat="43.50364" lon="6.60792">
        <ele>67.7</ele>
        <time>2025-10-28T11:03:58.000Z</time>
      </trkpt>
      <trkpt lat="43.50363" lon="6.60799">
        <ele>67.6</ele>
        <time>2025-10-28T11:03:59.000Z</time>
      </trkpt>
      <trkpt lat="43.50362" lon="6.60805">
        <ele>67.4</ele>
        <time>2025-10-28T11:04:00.000Z</time>
      </trkpt>
      <trkpt lat="43.5036" lon="6.60812">
        <ele>67.2</ele>
        <time>2025-10-28T11:04:01.000Z</time>
      </trkpt>
      <trkpt lat="43.50358" lon="6.60819">
        <ele>67.1</ele>
        <time>2025-10-28T11:04:02.000Z</time>
      </trkpt>
      <trkpt lat="43.50357" lon="6.60826">
        <ele>66.9</ele>
        <time>2025-10-28T11:04:03.000Z</time>
      </trkpt>
      <trkpt lat="43.50356" lon="6.60833">
        <ele>66.8</ele>
        <time>2025-10-28T11:04:04.000Z</time>
      </trkpt>
      <trkpt lat="43.50356" lon="6.60841">
        <ele>66.7</ele>
        <time>2025-10-28T11:04:05.000Z</time>
      </trkpt>
      <trkpt lat="43.50357" lon="6.60849">
        <ele>66.5</ele>
        <time>2025-10-28T11:04:06.000Z</time>
      </trkpt>
      <trkpt lat="43.50357" lon="6.60856">
        <ele>66.4</ele>
        <time>2025-10-28T11:04:07.000Z</time>
      </trkpt>
      <trkpt lat="43.50357" lon="6.60864">
        <ele>66.3</ele>
        <time>2025-10-28T11:04:08.000Z</time>
      </trkpt>
      <trkpt lat="43.50357" lon="6.60871">
        <ele>66.2</ele>
        <time>2025-10-28T11:04:09.000Z</time>
      </trkpt>
      <trkpt lat="43.50357" lon="6.60878">
        <ele>66.1</ele>
        <time>2025-10-28T11:04:10.000Z</time>
      </trkpt>
      <trkpt lat="43.50357" lon="6.60885">
        <ele>66</ele>
        <time>2025-10-28T11:04:11.000Z</time>
      </trkpt>
      <trkpt lat="43.50357" lon="6.60893">
        <ele>65.9</ele>
        <time>2025-10-28T11:04:12.000Z</time>
      </trkpt>
      <trkpt lat="43.50357" lon="6.609">
        <ele>65.8</ele>
        <time>2025-10-28T11:04:13.000Z</time>
      </trkpt>
      <trkpt lat="43.50356" lon="6.60906">
        <ele>65.8</ele>
        <time>2025-10-28T11:04:14.000Z</time>
      </trkpt>
      <trkpt lat="43.50355" lon="6.60913">
        <ele>65.8</ele>
        <time>2025-10-28T11:04:15.000Z</time>
      </trkpt>
      <trkpt lat="43.50354" lon="6.60919">
        <ele>65.8</ele>
        <time>2025-10-28T11:04:16.000Z</time>
      </trkpt>
      <trkpt lat="43.50353" lon="6.60925">
        <ele>65.8</ele>
        <time>2025-10-28T11:04:17.000Z</time>
      </trkpt>
      <trkpt lat="43.50352" lon="6.60932">
        <ele>65.9</ele>
        <time>2025-10-28T11:04:18.000Z</time>
      </trkpt>
      <trkpt lat="43.50351" lon="6.60938">
        <ele>65.9</ele>
        <time>2025-10-28T11:04:19.000Z</time>
      </trkpt>
      <trkpt lat="43.50349" lon="6.60945">
        <ele>65.9</ele>
        <time>2025-10-28T11:04:20.000Z</time>
      </trkpt>
      <trkpt lat="43.50347" lon="6.60952">
        <ele>66</ele>
        <time>2025-10-28T11:04:21.000Z</time>
      </trkpt>
      <trkpt lat="43.50344" lon="6.60958">
        <ele>66</ele>
        <time>2025-10-28T11:04:22.000Z</time>
      </trkpt>
      <trkpt lat="43.50341" lon="6.60963">
        <ele>66.1</ele>
        <time>2025-10-28T11:04:23.000Z</time>
      </trkpt>
      <trkpt lat="43.50337" lon="6.60968">
        <ele>66.2</ele>
        <time>2025-10-28T11:04:24.000Z</time>
      </trkpt>
      <trkpt lat="43.50334" lon="6.60973">
        <ele>66.3</ele>
        <time>2025-10-28T11:04:25.000Z</time>
      </trkpt>
      <trkpt lat="43.50331" lon="6.60978">
        <ele>66.4</ele>
        <time>2025-10-28T11:04:26.000Z</time>
      </trkpt>
      <trkpt lat="43.50328" lon="6.60983">
        <ele>66.5</ele>
        <time>2025-10-28T11:04:27.000Z</time>
      </trkpt>
      <trkpt lat="43.50326" lon="6.60988">
        <ele>66.7</ele>
        <time>2025-10-28T11:04:28.000Z</time>
      </trkpt>
      <trkpt lat="43.50324" lon="6.60992">
        <ele>66.8</ele>
        <time>2025-10-28T11:04:29.000Z</time>
      </trkpt>
      <trkpt lat="43.50322" lon="6.60997">
        <ele>66.9</ele>
        <time>2025-10-28T11:04:30.000Z</time>
      </trkpt>
      <trkpt lat="43.5032" lon="6.61001">
        <ele>67</ele>
        <time>2025-10-28T11:04:31.000Z</time>
      </trkpt>
      <trkpt lat="43.50318" lon="6.61006">
        <ele>67.1</ele>
        <time>2025-10-28T11:04:32.000Z</time>
      </trkpt>
      <trkpt lat="43.50316" lon="6.61011">
        <ele>67.3</ele>
        <time>2025-10-28T11:04:33.000Z</time>
      </trkpt>
      <trkpt lat="43.50315" lon="6.61016">
        <ele>67.4</ele>
        <time>2025-10-28T11:04:34.000Z</time>
      </trkpt>
      <trkpt lat="43.50313" lon="6.61021">
        <ele>67.5</ele>
        <time>2025-10-28T11:04:35.000Z</time>
      </trkpt>
      <trkpt lat="43.50312" lon="6.61026">
        <ele>67.6</ele>
        <time>2025-10-28T11:04:36.000Z</time>
      </trkpt>
      <trkpt lat="43.50311" lon="6.6103">
        <ele>67.8</ele>
        <time>2025-10-28T11:04:37.000Z</time>
      </trkpt>
      <trkpt lat="43.5031" lon="6.61035">
        <ele>67.9</ele>
        <time>2025-10-28T11:04:38.000Z</time>
      </trkpt>
      <trkpt lat="43.50309" lon="6.6104">
        <ele>68</ele>
        <time>2025-10-28T11:04:39.000Z</time>
      </trkpt>
      <trkpt lat="43.50307" lon="6.61044">
        <ele>68.1</ele>
        <time>2025-10-28T11:04:40.000Z</time>
      </trkpt>
      <trkpt lat="43.50306" lon="6.61048">
        <ele>68.2</ele>
        <time>2025-10-28T11:04:41.000Z</time>
      </trkpt>
      <trkpt lat="43.50304" lon="6.61052">
        <ele>68.2</ele>
        <time>2025-10-28T11:04:42.000Z</time>
      </trkpt>
      <trkpt lat="43.50302" lon="6.61056">
        <ele>68.3</ele>
        <time>2025-10-28T11:04:43.000Z</time>
      </trkpt>
      <trkpt lat="43.50299" lon="6.6106">
        <ele>68.3</ele>
        <time>2025-10-28T11:04:44.000Z</time>
      </trkpt>
      <trkpt lat="43.50297" lon="6.61063">
        <ele>68.3</ele>
        <time>2025-10-28T11:04:45.000Z</time>
      </trkpt>
      <trkpt lat="43.50295" lon="6.61068">
        <ele>68.3</ele>
        <time>2025-10-28T11:04:46.000Z</time>
      </trkpt>
      <trkpt lat="43.50293" lon="6.61072">
        <ele>68.3</ele>
        <time>2025-10-28T11:04:47.000Z</time>
      </trkpt>
      <trkpt lat="43.50291" lon="6.61075">
        <ele>68.3</ele>
        <time>2025-10-28T11:04:48.000Z</time>
      </trkpt>
      <trkpt lat="43.50288" lon="6.61079">
        <ele>68.2</ele>
        <time>2025-10-28T11:04:49.000Z</time>
      </trkpt>
      <trkpt lat="43.50285" lon="6.61083">
        <ele>68.1</ele>
        <time>2025-10-28T11:04:50.000Z</time>
      </trkpt>
      <trkpt lat="43.50283" lon="6.61087">
        <ele>68</ele>
        <time>2025-10-28T11:04:51.000Z</time>
      </trkpt>
      <trkpt lat="43.50281" lon="6.61091">
        <ele>68</ele>
        <time>2025-10-28T11:04:52.000Z</time>
      </trkpt>
      <trkpt lat="43.5028" lon="6.61096">
        <ele>67.9</ele>
        <time>2025-10-28T11:04:53.000Z</time>
      </trkpt>
      <trkpt lat="43.50279" lon="6.611">
        <ele>67.8</ele>
        <time>2025-10-28T11:04:54.000Z</time>
      </trkpt>
      <trkpt lat="43.50279" lon="6.61105">
        <ele>67.8</ele>
        <time>2025-10-28T11:04:55.000Z</time>
      </trkpt>
      <trkpt lat="43.50278" lon="6.61109">
        <ele>67.7</ele>
        <time>2025-10-28T11:04:56.000Z</time>
      </trkpt>
      <trkpt lat="43.50276" lon="6.61114">
        <ele>67.6</ele>
        <time>2025-10-28T11:04:57.000Z</time>
      </trkpt>
      <trkpt lat="43.50275" lon="6.61118">
        <ele>67.5</ele>
        <time>2025-10-28T11:04:58.000Z</time>
      </trkpt>
      <trkpt lat="43.50273" lon="6.61122">
        <ele>67.3</ele>
        <time>2025-10-28T11:04:59.000Z</time>
      </trkpt>
      <trkpt lat="43.5027" lon="6.61126">
        <ele>67.1</ele>
        <time>2025-10-28T11:05:00.000Z</time>
      </trkpt>
      <trkpt lat="43.50268" lon="6.61131">
        <ele>66.9</ele>
        <time>2025-10-28T11:05:01.000Z</time>
      </trkpt>
      <trkpt lat="43.50265" lon="6.61136">
        <ele>66.7</ele>
        <time>2025-10-28T11:05:02.000Z</time>
      </trkpt>
      <trkpt lat="43.50262" lon="6.6114">
        <ele>66.5</ele>
        <time>2025-10-28T11:05:03.000Z</time>
      </trkpt>
      <trkpt lat="43.50259" lon="6.61145">
        <ele>66.3</ele>
        <time>2025-10-28T11:05:04.000Z</time>
      </trkpt>
      <trkpt lat="43.50256" lon="6.6115">
        <ele>66.1</ele>
        <time>2025-10-28T11:05:05.000Z</time>
      </trkpt>
      <trkpt lat="43.50253" lon="6.61155">
        <ele>65.9</ele>
        <time>2025-10-28T11:05:06.000Z</time>
      </trkpt>
      <trkpt lat="43.50251" lon="6.6116">
        <ele>65.7</ele>
        <time>2025-10-28T11:05:07.000Z</time>
      </trkpt>
      <trkpt lat="43.50248" lon="6.61166">
        <ele>65.5</ele>
        <time>2025-10-28T11:05:08.000Z</time>
      </trkpt>
      <trkpt lat="43.50246" lon="6.61171">
        <ele>65.3</ele>
        <time>2025-10-28T11:05:09.000Z</time>
      </trkpt>
      <trkpt lat="43.50243" lon="6.61176">
        <ele>65.1</ele>
        <time>2025-10-28T11:05:10.000Z</time>
      </trkpt>
      <trkpt lat="43.5024" lon="6.6118">
        <ele>64.9</ele>
        <time>2025-10-28T11:05:11.000Z</time>
      </trkpt>
      <trkpt lat="43.50237" lon="6.61185">
        <ele>64.7</ele>
        <time>2025-10-28T11:05:12.000Z</time>
      </trkpt>
      <trkpt lat="43.50235" lon="6.6119">
        <ele>64.4</ele>
        <time>2025-10-28T11:05:13.000Z</time>
      </trkpt>
      <trkpt lat="43.50232" lon="6.61195">
        <ele>64.1</ele>
        <time>2025-10-28T11:05:14.000Z</time>
      </trkpt>
      <trkpt lat="43.50229" lon="6.61201">
        <ele>63.8</ele>
        <time>2025-10-28T11:05:15.000Z</time>
      </trkpt>
      <trkpt lat="43.50225" lon="6.61207">
        <ele>63.6</ele>
        <time>2025-10-28T11:05:16.000Z</time>
      </trkpt>
      <trkpt lat="43.50222" lon="6.61213">
        <ele>63.4</ele>
        <time>2025-10-28T11:05:17.000Z</time>
      </trkpt>
      <trkpt lat="43.50218" lon="6.61219">
        <ele>63.4</ele>
        <time>2025-10-28T11:05:18.000Z</time>
      </trkpt>
      <trkpt lat="43.50215" lon="6.61224">
        <ele>63.5</ele>
        <time>2025-10-28T11:05:19.000Z</time>
      </trkpt>
      <trkpt lat="43.50212" lon="6.61229">
        <ele>63.6</ele>
        <time>2025-10-28T11:05:20.000Z</time>
      </trkpt>
      <trkpt lat="43.50209" lon="6.61233">
        <ele>63.8</ele>
        <time>2025-10-28T11:05:21.000Z</time>
      </trkpt>
      <trkpt lat="43.50207" lon="6.61237">
        <ele>64</ele>
        <time>2025-10-28T11:05:22.000Z</time>
      </trkpt>
      <trkpt lat="43.50205" lon="6.61242">
        <ele>64.2</ele>
        <time>2025-10-28T11:05:23.000Z</time>
      </trkpt>
      <trkpt lat="43.50202" lon="6.61246">
        <ele>64.5</ele>
        <time>2025-10-28T11:05:24.000Z</time>
      </trkpt>
      <trkpt lat="43.502" lon="6.6125">
        <ele>64.7</ele>
        <time>2025-10-28T11:05:25.000Z</time>
      </trkpt>
      <trkpt lat="43.50197" lon="6.61255">
        <ele>65</ele>
        <time>2025-10-28T11:05:26.000Z</time>
      </trkpt>
      <trkpt lat="43.50195" lon="6.61259">
        <ele>65.3</ele>
        <time>2025-10-28T11:05:27.000Z</time>
      </trkpt>
      <trkpt lat="43.50193" lon="6.61263">
        <ele>65.5</ele>
        <time>2025-10-28T11:05:28.000Z</time>
      </trkpt>
      <trkpt lat="43.50191" lon="6.61267">
        <ele>65.8</ele>
        <time>2025-10-28T11:05:29.000Z</time>
      </trkpt>
      <trkpt lat="43.50188" lon="6.61272">
        <ele>66.1</ele>
        <time>2025-10-28T11:05:30.000Z</time>
      </trkpt>
      <trkpt lat="43.50186" lon="6.61276">
        <ele>66.4</ele>
        <time>2025-10-28T11:05:31.000Z</time>
      </trkpt>
      <trkpt lat="43.50184" lon="6.6128">
        <ele>66.6</ele>
        <time>2025-10-28T11:05:32.000Z</time>
      </trkpt>
      <trkpt lat="43.50181" lon="6.61284">
        <ele>66.9</ele>
        <time>2025-10-28T11:05:33.000Z</time>
      </trkpt>
      <trkpt lat="43.50178" lon="6.61288">
        <ele>67.1</ele>
        <time>2025-10-28T11:05:34.000Z</time>
      </trkpt>
      <trkpt lat="43.50175" lon="6.61292">
        <ele>67.3</ele>
        <time>2025-10-28T11:05:35.000Z</time>
      </trkpt>
      <trkpt lat="43.50173" lon="6.61295">
        <ele>67.4</ele>
        <time>2025-10-28T11:05:36.000Z</time>
      </trkpt>
      <trkpt lat="43.5017" lon="6.61298">
        <ele>67.5</ele>
        <time>2025-10-28T11:05:37.000Z</time>
      </trkpt>
      <trkpt lat="43.50168" lon="6.613">
        <ele>67.6</ele>
        <time>2025-10-28T11:05:38.000Z</time>
      </trkpt>
      <trkpt lat="43.50165" lon="6.61303">
        <ele>67.7</ele>
        <time>2025-10-28T11:05:39.000Z</time>
      </trkpt>
      <trkpt lat="43.50162" lon="6.61306">
        <ele>67.8</ele>
        <time>2025-10-28T11:05:40.000Z</time>
      </trkpt>
      <trkpt lat="43.50158" lon="6.61309">
        <ele>67.9</ele>
        <time>2025-10-28T11:05:41.000Z</time>
      </trkpt>
      <trkpt lat="43.50155" lon="6.61312">
        <ele>67.9</ele>
        <time>2025-10-28T11:05:42.000Z</time>
      </trkpt>
      <trkpt lat="43.50152" lon="6.61315">
        <ele>68</ele>
        <time>2025-10-28T11:05:43.000Z</time>
      </trkpt>
      <trkpt lat="43.50149" lon="6.61318">
        <ele>68</ele>
        <time>2025-10-28T11:05:44.000Z</time>
      </trkpt>
      <trkpt lat="43.50145" lon="6.61321">
        <ele>68</ele>
        <time>2025-10-28T11:05:45.000Z</time>
      </trkpt>
      <trkpt lat="43.50142" lon="6.61324">
        <ele>68</ele>
        <time>2025-10-28T11:05:46.000Z</time>
      </trkpt>
      <trkpt lat="43.50139" lon="6.61327">
        <ele>68.1</ele>
        <time>2025-10-28T11:05:47.000Z</time>
      </trkpt>
      <trkpt lat="43.50136" lon="6.6133">
        <ele>68.1</ele>
        <time>2025-10-28T11:05:48.000Z</time>
      </trkpt>
      <trkpt lat="43.50133" lon="6.61333">
        <ele>68.1</ele>
        <time>2025-10-28T11:05:49.000Z</time>
      </trkpt>
      <trkpt lat="43.50129" lon="6.61336">
        <ele>68.1</ele>
        <time>2025-10-28T11:05:50.000Z</time>
      </trkpt>
      <trkpt lat="43.50126" lon="6.61339">
        <ele>68</ele>
        <time>2025-10-28T11:05:51.000Z</time>
      </trkpt>
      <trkpt lat="43.50122" lon="6.61342">
        <ele>68</ele>
        <time>2025-10-28T11:05:52.000Z</time>
      </trkpt>
      <trkpt lat="43.50118" lon="6.61345">
        <ele>68</ele>
        <time>2025-10-28T11:05:53.000Z</time>
      </trkpt>
      <trkpt lat="43.50115" lon="6.61347">
        <ele>68</ele>
        <time>2025-10-28T11:05:54.000Z</time>
      </trkpt>
      <trkpt lat="43.50111" lon="6.6135">
        <ele>68</ele>
        <time>2025-10-28T11:05:55.000Z</time>
      </trkpt>
      <trkpt lat="43.50107" lon="6.61352">
        <ele>68</ele>
        <time>2025-10-28T11:05:56.000Z</time>
      </trkpt>
      <trkpt lat="43.50104" lon="6.61355">
        <ele>67.9</ele>
        <time>2025-10-28T11:05:57.000Z</time>
      </trkpt>
      <trkpt lat="43.501" lon="6.61358">
        <ele>67.9</ele>
        <time>2025-10-28T11:05:58.000Z</time>
      </trkpt>
      <trkpt lat="43.50097" lon="6.6136">
        <ele>67.8</ele>
        <time>2025-10-28T11:05:59.000Z</time>
      </trkpt>
      <trkpt lat="43.50093" lon="6.61363">
        <ele>67.8</ele>
        <time>2025-10-28T11:06:00.000Z</time>
      </trkpt>
      <trkpt lat="43.50089" lon="6.61366">
        <ele>67.7</ele>
        <time>2025-10-28T11:06:01.000Z</time>
      </trkpt>
      <trkpt lat="43.50085" lon="6.61369">
        <ele>67.7</ele>
        <time>2025-10-28T11:06:02.000Z</time>
      </trkpt>
      <trkpt lat="43.50082" lon="6.61372">
        <ele>67.6</ele>
        <time>2025-10-28T11:06:03.000Z</time>
      </trkpt>
      <trkpt lat="43.50078" lon="6.61376">
        <ele>67.5</ele>
        <time>2025-10-28T11:06:04.000Z</time>
      </trkpt>
      <trkpt lat="43.50074" lon="6.6138">
        <ele>67.4</ele>
        <time>2025-10-28T11:06:05.000Z</time>
      </trkpt>
      <trkpt lat="43.5007" lon="6.61384">
        <ele>67.4</ele>
        <time>2025-10-28T11:06:06.000Z</time>
      </trkpt>
      <trkpt lat="43.50066" lon="6.61388">
        <ele>67.3</ele>
        <time>2025-10-28T11:06:07.000Z</time>
      </trkpt>
      <trkpt lat="43.50062" lon="6.61392">
        <ele>67.2</ele>
        <time>2025-10-28T11:06:08.000Z</time>
      </trkpt>
      <trkpt lat="43.50059" lon="6.61396">
        <ele>67.1</ele>
        <time>2025-10-28T11:06:09.000Z</time>
      </trkpt>
      <trkpt lat="43.50055" lon="6.614">
        <ele>67</ele>
        <time>2025-10-28T11:06:10.000Z</time>
      </trkpt>
      <trkpt lat="43.50052" lon="6.61405">
        <ele>66.8</ele>
        <time>2025-10-28T11:06:11.000Z</time>
      </trkpt>
      <trkpt lat="43.50049" lon="6.61409">
        <ele>66.7</ele>
        <time>2025-10-28T11:06:12.000Z</time>
      </trkpt>
      <trkpt lat="43.50046" lon="6.61413">
        <ele>66.6</ele>
        <time>2025-10-28T11:06:13.000Z</time>
      </trkpt>
      <trkpt lat="43.50043" lon="6.61418">
        <ele>66.5</ele>
        <time>2025-10-28T11:06:14.000Z</time>
      </trkpt>
      <trkpt lat="43.5004" lon="6.61423">
        <ele>66.4</ele>
        <time>2025-10-28T11:06:15.000Z</time>
      </trkpt>
      <trkpt lat="43.50037" lon="6.61428">
        <ele>66.3</ele>
        <time>2025-10-28T11:06:16.000Z</time>
      </trkpt>
      <trkpt lat="43.50034" lon="6.61432">
        <ele>66.2</ele>
        <time>2025-10-28T11:06:17.000Z</time>
      </trkpt>
      <trkpt lat="43.50031" lon="6.61437">
        <ele>66</ele>
        <time>2025-10-28T11:06:18.000Z</time>
      </trkpt>
      <trkpt lat="43.50028" lon="6.61442">
        <ele>65.9</ele>
        <time>2025-10-28T11:06:19.000Z</time>
      </trkpt>
      <trkpt lat="43.50025" lon="6.61448">
        <ele>65.8</ele>
        <time>2025-10-28T11:06:20.000Z</time>
      </trkpt>
      <trkpt lat="43.50022" lon="6.61453">
        <ele>65.7</ele>
        <time>2025-10-28T11:06:21.000Z</time>
      </trkpt>
      <trkpt lat="43.50019" lon="6.61459">
        <ele>65.6</ele>
        <time>2025-10-28T11:06:22.000Z</time>
      </trkpt>
      <trkpt lat="43.50016" lon="6.61464">
        <ele>65.5</ele>
        <time>2025-10-28T11:06:23.000Z</time>
      </trkpt>
      <trkpt lat="43.50013" lon="6.6147">
        <ele>65.4</ele>
        <time>2025-10-28T11:06:24.000Z</time>
      </trkpt>
      <trkpt lat="43.5001" lon="6.61475">
        <ele>65.3</ele>
        <time>2025-10-28T11:06:25.000Z</time>
      </trkpt>
      <trkpt lat="43.50007" lon="6.6148">
        <ele>65.1</ele>
        <time>2025-10-28T11:06:26.000Z</time>
      </trkpt>
      <trkpt lat="43.50005" lon="6.61485">
        <ele>65</ele>
        <time>2025-10-28T11:06:27.000Z</time>
      </trkpt>
      <trkpt lat="43.50002" lon="6.6149">
        <ele>64.9</ele>
        <time>2025-10-28T11:06:28.000Z</time>
      </trkpt>
      <trkpt lat="43.5" lon="6.61495">
        <ele>64.8</ele>
        <time>2025-10-28T11:06:29.000Z</time>
      </trkpt>
      <trkpt lat="43.49997" lon="6.615">
        <ele>64.7</ele>
        <time>2025-10-28T11:06:30.000Z</time>
      </trkpt>
      <trkpt lat="43.49994" lon="6.61505">
        <ele>64.6</ele>
        <time>2025-10-28T11:06:31.000Z</time>
      </trkpt>
      <trkpt lat="43.49991" lon="6.6151">
        <ele>64.4</ele>
        <time>2025-10-28T11:06:32.000Z</time>
      </trkpt>
      <trkpt lat="43.49988" lon="6.61514">
        <ele>64.3</ele>
        <time>2025-10-28T11:06:33.000Z</time>
      </trkpt>
      <trkpt lat="43.49986" lon="6.61519">
        <ele>64.2</ele>
        <time>2025-10-28T11:06:34.000Z</time>
      </trkpt>
      <trkpt lat="43.49983" lon="6.61524">
        <ele>64.1</ele>
        <time>2025-10-28T11:06:35.000Z</time>
      </trkpt>
      <trkpt lat="43.4998" lon="6.61529">
        <ele>64</ele>
        <time>2025-10-28T11:06:36.000Z</time>
      </trkpt>
      <trkpt lat="43.49977" lon="6.61533">
        <ele>63.9</ele>
        <time>2025-10-28T11:06:37.000Z</time>
      </trkpt>
      <trkpt lat="43.49974" lon="6.61538">
        <ele>63.8</ele>
        <time>2025-10-28T11:06:38.000Z</time>
      </trkpt>
      <trkpt lat="43.49971" lon="6.61543">
        <ele>63.7</ele>
        <time>2025-10-28T11:06:39.000Z</time>
      </trkpt>
      <trkpt lat="43.49968" lon="6.61548">
        <ele>63.6</ele>
        <time>2025-10-28T11:06:40.000Z</time>
      </trkpt>
      <trkpt lat="43.49965" lon="6.61553">
        <ele>63.5</ele>
        <time>2025-10-28T11:06:41.000Z</time>
      </trkpt>
      <trkpt lat="43.49961" lon="6.61557">
        <ele>63.4</ele>
        <time>2025-10-28T11:06:42.000Z</time>
      </trkpt>
      <trkpt lat="43.49957" lon="6.61562">
        <ele>63.3</ele>
        <time>2025-10-28T11:06:43.000Z</time>
      </trkpt>
      <trkpt lat="43.49954" lon="6.61565">
        <ele>63.2</ele>
        <time>2025-10-28T11:06:44.000Z</time>
      </trkpt>
      <trkpt lat="43.4995" lon="6.61569">
        <ele>63.1</ele>
        <time>2025-10-28T11:06:45.000Z</time>
      </trkpt>
      <trkpt lat="43.49947" lon="6.61572">
        <ele>63.1</ele>
        <time>2025-10-28T11:06:46.000Z</time>
      </trkpt>
      <trkpt lat="43.49943" lon="6.61576">
        <ele>63</ele>
        <time>2025-10-28T11:06:47.000Z</time>
      </trkpt>
      <trkpt lat="43.4994" lon="6.61579">
        <ele>62.9</ele>
        <time>2025-10-28T11:06:48.000Z</time>
      </trkpt>
      <trkpt lat="43.49936" lon="6.61582">
        <ele>62.8</ele>
        <time>2025-10-28T11:06:49.000Z</time>
      </trkpt>
      <trkpt lat="43.49932" lon="6.61586">
        <ele>62.7</ele>
        <time>2025-10-28T11:06:50.000Z</time>
      </trkpt>
      <trkpt lat="43.49928" lon="6.61589">
        <ele>62.7</ele>
        <time>2025-10-28T11:06:51.000Z</time>
      </trkpt>
      <trkpt lat="43.49924" lon="6.61593">
        <ele>62.6</ele>
        <time>2025-10-28T11:06:52.000Z</time>
      </trkpt>
      <trkpt lat="43.49921" lon="6.61597">
        <ele>62.6</ele>
        <time>2025-10-28T11:06:53.000Z</time>
      </trkpt>
      <trkpt lat="43.49917" lon="6.61601">
        <ele>62.5</ele>
        <time>2025-10-28T11:06:54.000Z</time>
      </trkpt>
      <trkpt lat="43.49913" lon="6.61606">
        <ele>62.5</ele>
        <time>2025-10-28T11:06:55.000Z</time>
      </trkpt>
      <trkpt lat="43.4991" lon="6.6161">
        <ele>62.4</ele>
        <time>2025-10-28T11:06:56.000Z</time>
      </trkpt>
      <trkpt lat="43.49907" lon="6.61615">
        <ele>62.4</ele>
        <time>2025-10-28T11:06:57.000Z</time>
      </trkpt>
      <trkpt lat="43.49903" lon="6.61621">
        <ele>62.3</ele>
        <time>2025-10-28T11:06:58.000Z</time>
      </trkpt>
      <trkpt lat="43.499" lon="6.61626">
        <ele>62.2</ele>
        <time>2025-10-28T11:06:59.000Z</time>
      </trkpt>
      <trkpt lat="43.49898" lon="6.61631">
        <ele>62.1</ele>
        <time>2025-10-28T11:07:00.000Z</time>
      </trkpt>
      <trkpt lat="43.49895" lon="6.61636">
        <ele>61.9</ele>
        <time>2025-10-28T11:07:01.000Z</time>
      </trkpt>
      <trkpt lat="43.49893" lon="6.6164">
        <ele>61.7</ele>
        <time>2025-10-28T11:07:02.000Z</time>
      </trkpt>
      <trkpt lat="43.49891" lon="6.61645">
        <ele>61.3</ele>
        <time>2025-10-28T11:07:03.000Z</time>
      </trkpt>
      <trkpt lat="43.49891" lon="6.61647">
        <ele>61.1</ele>
        <time>2025-10-28T11:07:04.000Z</time>
      </trkpt>
      <trkpt lat="43.4989" lon="6.6165">
        <ele>60.8</ele>
        <time>2025-10-28T11:07:05.000Z</time>
      </trkpt>
      <trkpt lat="43.49889" lon="6.61652">
        <ele>60.6</ele>
        <time>2025-10-28T11:07:06.000Z</time>
      </trkpt>
      <trkpt lat="43.49888" lon="6.61653">
        <ele>60.4</ele>
        <time>2025-10-28T11:07:07.000Z</time>
      </trkpt>
      <trkpt lat="43.49887" lon="6.61654">
        <ele>60.1</ele>
        <time>2025-10-28T11:07:08.000Z</time>
      </trkpt>
      <trkpt lat="43.49886" lon="6.61656">
        <ele>59.9</ele>
        <time>2025-10-28T11:07:09.000Z</time>
      </trkpt>
      <trkpt lat="43.49885" lon="6.61658">
        <ele>59.5</ele>
        <time>2025-10-28T11:07:10.000Z</time>
      </trkpt>
      <trkpt lat="43.49885" lon="6.61661">
        <ele>59</ele>
        <time>2025-10-28T11:07:11.000Z</time>
      </trkpt>
      <trkpt lat="43.49885" lon="6.61665">
        <ele>58.4</ele>
        <time>2025-10-28T11:07:12.000Z</time>
      </trkpt>
      <trkpt lat="43.49884" lon="6.6167">
        <ele>57.7</ele>
        <time>2025-10-28T11:07:13.000Z</time>
      </trkpt>
      <trkpt lat="43.49883" lon="6.61675">
        <ele>56.9</ele>
        <time>2025-10-28T11:07:14.000Z</time>
      </trkpt>
      <trkpt lat="43.49882" lon="6.61681">
        <ele>56.1</ele>
        <time>2025-10-28T11:07:15.000Z</time>
      </trkpt>
      <trkpt lat="43.49882" lon="6.61688">
        <ele>55.4</ele>
        <time>2025-10-28T11:07:16.000Z</time>
      </trkpt>
      <trkpt lat="43.4988" lon="6.61696">
        <ele>54.7</ele>
        <time>2025-10-28T11:07:17.000Z</time>
      </trkpt>
      <trkpt lat="43.49878" lon="6.61702">
        <ele>54.2</ele>
        <time>2025-10-28T11:07:18.000Z</time>
      </trkpt>
      <trkpt lat="43.49875" lon="6.61706">
        <ele>53.8</ele>
        <time>2025-10-28T11:07:19.000Z</time>
      </trkpt>
      <trkpt lat="43.49872" lon="6.61708">
        <ele>53.5</ele>
        <time>2025-10-28T11:07:20.000Z</time>
      </trkpt>
      <trkpt lat="43.49869" lon="6.61709">
        <ele>53.3</ele>
        <time>2025-10-28T11:07:21.000Z</time>
      </trkpt>
      <trkpt lat="43.49867" lon="6.61708">
        <ele>53.1</ele>
        <time>2025-10-28T11:07:22.000Z</time>
      </trkpt>
      <trkpt lat="43.49864" lon="6.61707">
        <ele>52.8</ele>
        <time>2025-10-28T11:07:23.000Z</time>
      </trkpt>
      <trkpt lat="43.49861" lon="6.61706">
        <ele>52.4</ele>
        <time>2025-10-28T11:07:24.000Z</time>
      </trkpt>
      <trkpt lat="43.49857" lon="6.61706">
        <ele>52</ele>
        <time>2025-10-28T11:07:25.000Z</time>
      </trkpt>
      <trkpt lat="43.49854" lon="6.61705">
        <ele>51.7</ele>
        <time>2025-10-28T11:07:26.000Z</time>
      </trkpt>
      <trkpt lat="43.4985" lon="6.61704">
        <ele>51.3</ele>
        <time>2025-10-28T11:07:27.000Z</time>
      </trkpt>
      <trkpt lat="43.49847" lon="6.61703">
        <ele>51</ele>
        <time>2025-10-28T11:07:28.000Z</time>
      </trkpt>
      <trkpt lat="43.49844" lon="6.61702">
        <ele>50.6</ele>
        <time>2025-10-28T11:07:29.000Z</time>
      </trkpt>
      <trkpt lat="43.4984" lon="6.61701">
        <ele>50.2</ele>
        <time>2025-10-28T11:07:30.000Z</time>
      </trkpt>
      <trkpt lat="43.49836" lon="6.61701">
        <ele>49.8</ele>
        <time>2025-10-28T11:07:31.000Z</time>
      </trkpt>
      <trkpt lat="43.49831" lon="6.61701">
        <ele>49.4</ele>
        <time>2025-10-28T11:07:32.000Z</time>
      </trkpt>
      <trkpt lat="43.49827" lon="6.61703">
        <ele>49</ele>
        <time>2025-10-28T11:07:33.000Z</time>
      </trkpt>
      <trkpt lat="43.49824" lon="6.61707">
        <ele>48.7</ele>
        <time>2025-10-28T11:07:34.000Z</time>
      </trkpt>
      <trkpt lat="43.49821" lon="6.61711">
        <ele>48.4</ele>
        <time>2025-10-28T11:07:35.000Z</time>
      </trkpt>
      <trkpt lat="43.49818" lon="6.61716">
        <ele>48.2</ele>
        <time>2025-10-28T11:07:36.000Z</time>
      </trkpt>
      <trkpt lat="43.49815" lon="6.61721">
        <ele>47.9</ele>
        <time>2025-10-28T11:07:37.000Z</time>
      </trkpt>
      <trkpt lat="43.49812" lon="6.61726">
        <ele>47.7</ele>
        <time>2025-10-28T11:07:38.000Z</time>
      </trkpt>
      <trkpt lat="43.4981" lon="6.61731">
        <ele>47.5</ele>
        <time>2025-10-28T11:07:39.000Z</time>
      </trkpt>
      <trkpt lat="43.49808" lon="6.61735">
        <ele>47.3</ele>
        <time>2025-10-28T11:07:40.000Z</time>
      </trkpt>
      <trkpt lat="43.49805" lon="6.61738">
        <ele>47.2</ele>
        <time>2025-10-28T11:07:41.000Z</time>
      </trkpt>
      <trkpt lat="43.49802" lon="6.61741">
        <ele>47</ele>
        <time>2025-10-28T11:07:42.000Z</time>
      </trkpt>
      <trkpt lat="43.49799" lon="6.61744">
        <ele>46.9</ele>
        <time>2025-10-28T11:07:43.000Z</time>
      </trkpt>
      <trkpt lat="43.49797" lon="6.61747">
        <ele>46.8</ele>
        <time>2025-10-28T11:07:44.000Z</time>
      </trkpt>
      <trkpt lat="43.49794" lon="6.61751">
        <ele>46.7</ele>
        <time>2025-10-28T11:07:45.000Z</time>
      </trkpt>
      <trkpt lat="43.49793" lon="6.61755">
        <ele>46.6</ele>
        <time>2025-10-28T11:07:46.000Z</time>
      </trkpt>
      <trkpt lat="43.49792" lon="6.6176">
        <ele>46.5</ele>
        <time>2025-10-28T11:07:47.000Z</time>
      </trkpt>
      <trkpt lat="43.49791" lon="6.61766">
        <ele>46.3</ele>
        <time>2025-10-28T11:07:48.000Z</time>
      </trkpt>
      <trkpt lat="43.49791" lon="6.61772">
        <ele>46.2</ele>
        <time>2025-10-28T11:07:49.000Z</time>
      </trkpt>
      <trkpt lat="43.49791" lon="6.61778">
        <ele>46.1</ele>
        <time>2025-10-28T11:07:50.000Z</time>
      </trkpt>
      <trkpt lat="43.4979" lon="6.61784">
        <ele>46</ele>
        <time>2025-10-28T11:07:51.000Z</time>
      </trkpt>
      <trkpt lat="43.4979" lon="6.6179">
        <ele>46</ele>
        <time>2025-10-28T11:07:52.000Z</time>
      </trkpt>
      <trkpt lat="43.49788" lon="6.61797">
        <ele>45.9</ele>
        <time>2025-10-28T11:07:53.000Z</time>
      </trkpt>
      <trkpt lat="43.49788" lon="6.61802">
        <ele>45.8</ele>
        <time>2025-10-28T11:07:54.000Z</time>
      </trkpt>
      <trkpt lat="43.49787" lon="6.61808">
        <ele>45.7</ele>
        <time>2025-10-28T11:07:55.000Z</time>
      </trkpt>
      <trkpt lat="43.49786" lon="6.61814">
        <ele>45.7</ele>
        <time>2025-10-28T11:07:56.000Z</time>
      </trkpt>
      <trkpt lat="43.49786" lon="6.61819">
        <ele>45.6</ele>
        <time>2025-10-28T11:07:57.000Z</time>
      </trkpt>
      <trkpt lat="43.49787" lon="6.61825">
        <ele>45.6</ele>
        <time>2025-10-28T11:07:58.000Z</time>
      </trkpt>
      <trkpt lat="43.49787" lon="6.61831">
        <ele>45.5</ele>
        <time>2025-10-28T11:07:59.000Z</time>
      </trkpt>
      <trkpt lat="43.49786" lon="6.61836">
        <ele>45.5</ele>
        <time>2025-10-28T11:08:00.000Z</time>
      </trkpt>
      <trkpt lat="43.49785" lon="6.61841">
        <ele>45.4</ele>
        <time>2025-10-28T11:08:01.000Z</time>
      </trkpt>
      <trkpt lat="43.49783" lon="6.61845">
        <ele>45.4</ele>
        <time>2025-10-28T11:08:02.000Z</time>
      </trkpt>
      <trkpt lat="43.49782" lon="6.61848">
        <ele>45.4</ele>
        <time>2025-10-28T11:08:03.000Z</time>
      </trkpt>
      <trkpt lat="43.49781" lon="6.61851">
        <ele>45.4</ele>
        <time>2025-10-28T11:08:04.000Z</time>
      </trkpt>
      <trkpt lat="43.49779" lon="6.61853">
        <ele>45.4</ele>
        <time>2025-10-28T11:08:05.000Z</time>
      </trkpt>
      <trkpt lat="43.49778" lon="6.61855">
        <ele>45.4</ele>
        <time>2025-10-28T11:08:06.000Z</time>
      </trkpt>
      <trkpt lat="43.49776" lon="6.61857">
        <ele>45.4</ele>
        <time>2025-10-28T11:08:07.000Z</time>
      </trkpt>
      <trkpt lat="43.49775" lon="6.6186">
        <ele>45.4</ele>
        <time>2025-10-28T11:08:08.000Z</time>
      </trkpt>
      <trkpt lat="43.49775" lon="6.61863">
        <ele>45.4</ele>
        <time>2025-10-28T11:08:09.000Z</time>
      </trkpt>
      <trkpt lat="43.49777" lon="6.61865">
        <ele>45.4</ele>
        <time>2025-10-28T11:08:10.000Z</time>
      </trkpt>
      <trkpt lat="43.49779" lon="6.61866">
        <ele>45.5</ele>
        <time>2025-10-28T11:08:11.000Z</time>
      </trkpt>
      <trkpt lat="43.49782" lon="6.61868">
        <ele>45.5</ele>
        <time>2025-10-28T11:08:12.000Z</time>
      </trkpt>
      <trkpt lat="43.49785" lon="6.61869">
        <ele>45.5</ele>
        <time>2025-10-28T11:08:13.000Z</time>
      </trkpt>
      <trkpt lat="43.49788" lon="6.61871">
        <ele>45.5</ele>
        <time>2025-10-28T11:08:14.000Z</time>
      </trkpt>
      <trkpt lat="43.4979" lon="6.61873">
        <ele>45.5</ele>
        <time>2025-10-28T11:08:15.000Z</time>
      </trkpt>
      <trkpt lat="43.49792" lon="6.61875">
        <ele>45.5</ele>
        <time>2025-10-28T11:08:16.000Z</time>
      </trkpt>
      <trkpt lat="43.49793" lon="6.61878">
        <ele>45.5</ele>
        <time>2025-10-28T11:08:17.000Z</time>
      </trkpt>
      <trkpt lat="43.49793" lon="6.6188">
        <ele>45.5</ele>
        <time>2025-10-28T11:08:18.000Z</time>
      </trkpt>
      <trkpt lat="43.49793" lon="6.61884">
        <ele>45.5</ele>
        <time>2025-10-28T11:08:19.000Z</time>
      </trkpt>
      <trkpt lat="43.49793" lon="6.61887">
        <ele>45.4</ele>
        <time>2025-10-28T11:08:20.000Z</time>
      </trkpt>
      <trkpt lat="43.49792" lon="6.61891">
        <ele>45.3</ele>
        <time>2025-10-28T11:08:21.000Z</time>
      </trkpt>
      <trkpt lat="43.49792" lon="6.61894">
        <ele>45.2</ele>
        <time>2025-10-28T11:08:22.000Z</time>
      </trkpt>
      <trkpt lat="43.49791" lon="6.61897">
        <ele>45.2</ele>
        <time>2025-10-28T11:08:23.000Z</time>
      </trkpt>
      <trkpt lat="43.49789" lon="6.619">
        <ele>45.1</ele>
        <time>2025-10-28T11:08:24.000Z</time>
      </trkpt>
      <trkpt lat="43.49787" lon="6.61904">
        <ele>45</ele>
        <time>2025-10-28T11:08:25.000Z</time>
      </trkpt>
      <trkpt lat="43.49785" lon="6.61908">
        <ele>44.9</ele>
        <time>2025-10-28T11:08:26.000Z</time>
      </trkpt>
      <trkpt lat="43.49783" lon="6.61912">
        <ele>44.9</ele>
        <time>2025-10-28T11:08:27.000Z</time>
      </trkpt>
      <trkpt lat="43.4978" lon="6.61916">
        <ele>44.8</ele>
        <time>2025-10-28T11:08:28.000Z</time>
      </trkpt>
      <trkpt lat="43.49778" lon="6.61921">
        <ele>44.7</ele>
        <time>2025-10-28T11:08:29.000Z</time>
      </trkpt>
      <trkpt lat="43.49776" lon="6.61925">
        <ele>44.7</ele>
        <time>2025-10-28T11:08:30.000Z</time>
      </trkpt>
      <trkpt lat="43.49773" lon="6.61929">
        <ele>44.7</ele>
        <time>2025-10-28T11:08:31.000Z</time>
      </trkpt>
      <trkpt lat="43.4977" lon="6.61933">
        <ele>44.7</ele>
        <time>2025-10-28T11:08:32.000Z</time>
      </trkpt>
      <trkpt lat="43.49768" lon="6.61937">
        <ele>44.7</ele>
        <time>2025-10-28T11:08:33.000Z</time>
      </trkpt>
      <trkpt lat="43.49765" lon="6.61941">
        <ele>44.7</ele>
        <time>2025-10-28T11:08:34.000Z</time>
      </trkpt>
      <trkpt lat="43.49763" lon="6.61945">
        <ele>44.8</ele>
        <time>2025-10-28T11:08:35.000Z</time>
      </trkpt>
      <trkpt lat="43.4976" lon="6.6195">
        <ele>44.9</ele>
        <time>2025-10-28T11:08:36.000Z</time>
      </trkpt>
      <trkpt lat="43.49758" lon="6.61954">
        <ele>45.1</ele>
        <time>2025-10-28T11:08:37.000Z</time>
      </trkpt>
      <trkpt lat="43.49755" lon="6.61958">
        <ele>45.3</ele>
        <time>2025-10-28T11:08:38.000Z</time>
      </trkpt>
      <trkpt lat="43.49754" lon="6.61963">
        <ele>45.5</ele>
        <time>2025-10-28T11:08:39.000Z</time>
      </trkpt>
      <trkpt lat="43.49752" lon="6.61967">
        <ele>45.8</ele>
        <time>2025-10-28T11:08:40.000Z</time>
      </trkpt>
      <trkpt lat="43.4975" lon="6.61971">
        <ele>46</ele>
        <time>2025-10-28T11:08:41.000Z</time>
      </trkpt>
      <trkpt lat="43.49749" lon="6.61975">
        <ele>46.3</ele>
        <time>2025-10-28T11:08:42.000Z</time>
      </trkpt>
      <trkpt lat="43.49748" lon="6.61979">
        <ele>46.5</ele>
        <time>2025-10-28T11:08:43.000Z</time>
      </trkpt>
      <trkpt lat="43.49747" lon="6.61982">
        <ele>46.5</ele>
        <time>2025-10-28T11:08:44.000Z</time>
      </trkpt>
      <trkpt lat="43.49747" lon="6.61985">
        <ele>46.4</ele>
        <time>2025-10-28T11:08:45.000Z</time>
      </trkpt>
      <trkpt lat="43.49747" lon="6.61987">
        <ele>46.4</ele>
        <time>2025-10-28T11:08:46.000Z</time>
      </trkpt>
      <trkpt lat="43.49749" lon="6.61989">
        <ele>46.3</ele>
        <time>2025-10-28T11:08:47.000Z</time>
      </trkpt>
      <trkpt lat="43.49751" lon="6.61991">
        <ele>46.3</ele>
        <time>2025-10-28T11:08:48.000Z</time>
      </trkpt>
      <trkpt lat="43.49754" lon="6.61993">
        <ele>46.2</ele>
        <time>2025-10-28T11:08:49.000Z</time>
      </trkpt>
      <trkpt lat="43.49758" lon="6.61994">
        <ele>46.2</ele>
        <time>2025-10-28T11:08:50.000Z</time>
      </trkpt>
      <trkpt lat="43.49762" lon="6.61996">
        <ele>46.1</ele>
        <time>2025-10-28T11:08:51.000Z</time>
      </trkpt>
      <trkpt lat="43.49766" lon="6.61998">
        <ele>46</ele>
        <time>2025-10-28T11:08:52.000Z</time>
      </trkpt>
      <trkpt lat="43.4977" lon="6.61999">
        <ele>46</ele>
        <time>2025-10-28T11:08:53.000Z</time>
      </trkpt>
      <trkpt lat="43.49774" lon="6.62001">
        <ele>45.9</ele>
        <time>2025-10-28T11:08:54.000Z</time>
      </trkpt>
      <trkpt lat="43.49778" lon="6.62003">
        <ele>45.9</ele>
        <time>2025-10-28T11:08:55.000Z</time>
      </trkpt>
      <trkpt lat="43.49782" lon="6.62005">
        <ele>45.9</ele>
        <time>2025-10-28T11:08:56.000Z</time>
      </trkpt>
      <trkpt lat="43.49786" lon="6.62007">
        <ele>45.8</ele>
        <time>2025-10-28T11:08:57.000Z</time>
      </trkpt>
      <trkpt lat="43.49789" lon="6.62009">
        <ele>45.8</ele>
        <time>2025-10-28T11:08:58.000Z</time>
      </trkpt>
      <trkpt lat="43.49793" lon="6.62012">
        <ele>45.8</ele>
        <time>2025-10-28T11:08:59.000Z</time>
      </trkpt>
      <trkpt lat="43.49796" lon="6.62015">
        <ele>45.7</ele>
        <time>2025-10-28T11:09:00.000Z</time>
      </trkpt>
      <trkpt lat="43.49798" lon="6.62019">
        <ele>45.7</ele>
        <time>2025-10-28T11:09:01.000Z</time>
      </trkpt>
      <trkpt lat="43.498" lon="6.62023">
        <ele>45.7</ele>
        <time>2025-10-28T11:09:02.000Z</time>
      </trkpt>
      <trkpt lat="43.49801" lon="6.62029">
        <ele>45.6</ele>
        <time>2025-10-28T11:09:03.000Z</time>
      </trkpt>
      <trkpt lat="43.49803" lon="6.62035">
        <ele>45.6</ele>
        <time>2025-10-28T11:09:04.000Z</time>
      </trkpt>
      <trkpt lat="43.49804" lon="6.62041">
        <ele>45.5</ele>
        <time>2025-10-28T11:09:05.000Z</time>
      </trkpt>
      <trkpt lat="43.49806" lon="6.62047">
        <ele>45.5</ele>
        <time>2025-10-28T11:09:06.000Z</time>
      </trkpt>
      <trkpt lat="43.49808" lon="6.62053">
        <ele>45.4</ele>
        <time>2025-10-28T11:09:07.000Z</time>
      </trkpt>
      <trkpt lat="43.49811" lon="6.62058">
        <ele>45.3</ele>
        <time>2025-10-28T11:09:08.000Z</time>
      </trkpt>
      <trkpt lat="43.49813" lon="6.62063">
        <ele>45.1</ele>
        <time>2025-10-28T11:09:09.000Z</time>
      </trkpt>
      <trkpt lat="43.49816" lon="6.62068">
        <ele>44.9</ele>
        <time>2025-10-28T11:09:10.000Z</time>
      </trkpt>
      <trkpt lat="43.49819" lon="6.62073">
        <ele>44.7</ele>
        <time>2025-10-28T11:09:11.000Z</time>
      </trkpt>
      <trkpt lat="43.49821" lon="6.62077">
        <ele>44.4</ele>
        <time>2025-10-28T11:09:12.000Z</time>
      </trkpt>
      <trkpt lat="43.49823" lon="6.62081">
        <ele>44.1</ele>
        <time>2025-10-28T11:09:13.000Z</time>
      </trkpt>
      <trkpt lat="43.49824" lon="6.62085">
        <ele>43.8</ele>
        <time>2025-10-28T11:09:14.000Z</time>
      </trkpt>
      <trkpt lat="43.49824" lon="6.6209">
        <ele>43.5</ele>
        <time>2025-10-28T11:09:15.000Z</time>
      </trkpt>
      <trkpt lat="43.49823" lon="6.62095">
        <ele>43.1</ele>
        <time>2025-10-28T11:09:16.000Z</time>
      </trkpt>
      <trkpt lat="43.49822" lon="6.621">
        <ele>42.7</ele>
        <time>2025-10-28T11:09:17.000Z</time>
      </trkpt>
      <trkpt lat="43.49822" lon="6.62105">
        <ele>42.2</ele>
        <time>2025-10-28T11:09:18.000Z</time>
      </trkpt>
      <trkpt lat="43.49822" lon="6.6211">
        <ele>41.9</ele>
        <time>2025-10-28T11:09:19.000Z</time>
      </trkpt>
      <trkpt lat="43.49823" lon="6.62114">
        <ele>41.6</ele>
        <time>2025-10-28T11:09:20.000Z</time>
      </trkpt>
      <trkpt lat="43.49825" lon="6.62117">
        <ele>41.4</ele>
        <time>2025-10-28T11:09:21.000Z</time>
      </trkpt>
      <trkpt lat="43.49827" lon="6.62119">
        <ele>41.2</ele>
        <time>2025-10-28T11:09:22.000Z</time>
      </trkpt>
      <trkpt lat="43.49829" lon="6.62121">
        <ele>41</ele>
        <time>2025-10-28T11:09:23.000Z</time>
      </trkpt>
      <trkpt lat="43.49831" lon="6.62124">
        <ele>40.9</ele>
        <time>2025-10-28T11:09:24.000Z</time>
      </trkpt>
      <trkpt lat="43.49833" lon="6.62128">
        <ele>40.8</ele>
        <time>2025-10-28T11:09:25.000Z</time>
      </trkpt>
      <trkpt lat="43.49835" lon="6.62131">
        <ele>40.8</ele>
        <time>2025-10-28T11:09:26.000Z</time>
      </trkpt>
      <trkpt lat="43.49836" lon="6.62134">
        <ele>40.8</ele>
        <time>2025-10-28T11:09:27.000Z</time>
      </trkpt>
      <trkpt lat="43.49838" lon="6.62137">
        <ele>40.8</ele>
        <time>2025-10-28T11:09:28.000Z</time>
      </trkpt>
      <trkpt lat="43.4984" lon="6.6214">
        <ele>40.9</ele>
        <time>2025-10-28T11:09:29.000Z</time>
      </trkpt>
      <trkpt lat="43.49841" lon="6.62144">
        <ele>41</ele>
        <time>2025-10-28T11:09:30.000Z</time>
      </trkpt>
      <trkpt lat="43.49842" lon="6.62148">
        <ele>41.1</ele>
        <time>2025-10-28T11:09:31.000Z</time>
      </trkpt>
      <trkpt lat="43.49843" lon="6.62152">
        <ele>41.3</ele>
        <time>2025-10-28T11:09:32.000Z</time>
      </trkpt>
      <trkpt lat="43.49844" lon="6.62157">
        <ele>41.5</ele>
        <time>2025-10-28T11:09:33.000Z</time>
      </trkpt>
      <trkpt lat="43.49844" lon="6.62161">
        <ele>41.7</ele>
        <time>2025-10-28T11:09:34.000Z</time>
      </trkpt>
      <trkpt lat="43.49844" lon="6.62166">
        <ele>41.9</ele>
        <time>2025-10-28T11:09:35.000Z</time>
      </trkpt>
      <trkpt lat="43.49845" lon="6.6217">
        <ele>42.1</ele>
        <time>2025-10-28T11:09:36.000Z</time>
      </trkpt>
      <trkpt lat="43.49845" lon="6.62174">
        <ele>42.3</ele>
        <time>2025-10-28T11:09:37.000Z</time>
      </trkpt>
      <trkpt lat="43.49845" lon="6.62178">
        <ele>42.4</ele>
        <time>2025-10-28T11:09:38.000Z</time>
      </trkpt>
      <trkpt lat="43.49846" lon="6.62183">
        <ele>42.5</ele>
        <time>2025-10-28T11:09:39.000Z</time>
      </trkpt>
      <trkpt lat="43.49846" lon="6.62188">
        <ele>42.7</ele>
        <time>2025-10-28T11:09:40.000Z</time>
      </trkpt>
      <trkpt lat="43.49847" lon="6.62193">
        <ele>42.8</ele>
        <time>2025-10-28T11:09:41.000Z</time>
      </trkpt>
      <trkpt lat="43.49847" lon="6.62198">
        <ele>42.9</ele>
        <time>2025-10-28T11:09:42.000Z</time>
      </trkpt>
      <trkpt lat="43.49847" lon="6.62204">
        <ele>43</ele>
        <time>2025-10-28T11:09:43.000Z</time>
      </trkpt>
      <trkpt lat="43.49847" lon="6.6221">
        <ele>43.1</ele>
        <time>2025-10-28T11:09:44.000Z</time>
      </trkpt>
      <trkpt lat="43.49848" lon="6.62216">
        <ele>43.3</ele>
        <time>2025-10-28T11:09:45.000Z</time>
      </trkpt>
      <trkpt lat="43.49848" lon="6.62221">
        <ele>43.5</ele>
        <time>2025-10-28T11:09:46.000Z</time>
      </trkpt>
      <trkpt lat="43.49848" lon="6.62226">
        <ele>43.8</ele>
        <time>2025-10-28T11:09:47.000Z</time>
      </trkpt>
      <trkpt lat="43.49849" lon="6.62231">
        <ele>44</ele>
        <time>2025-10-28T11:09:48.000Z</time>
      </trkpt>
      <trkpt lat="43.4985" lon="6.62236">
        <ele>44.3</ele>
        <time>2025-10-28T11:09:49.000Z</time>
      </trkpt>
      <trkpt lat="43.4985" lon="6.62241">
        <ele>44.6</ele>
        <time>2025-10-28T11:09:50.000Z</time>
      </trkpt>
      <trkpt lat="43.4985" lon="6.62246">
        <ele>44.8</ele>
        <time>2025-10-28T11:09:51.000Z</time>
      </trkpt>
      <trkpt lat="43.4985" lon="6.62251">
        <ele>45</ele>
        <time>2025-10-28T11:09:52.000Z</time>
      </trkpt>
      <trkpt lat="43.4985" lon="6.62256">
        <ele>45.2</ele>
        <time>2025-10-28T11:09:53.000Z</time>
      </trkpt>
      <trkpt lat="43.49851" lon="6.6226">
        <ele>45.4</ele>
        <time>2025-10-28T11:09:54.000Z</time>
      </trkpt>
      <trkpt lat="43.49851" lon="6.62264">
        <ele>45.5</ele>
        <time>2025-10-28T11:09:55.000Z</time>
      </trkpt>
      <trkpt lat="43.4985" lon="6.62267">
        <ele>45.6</ele>
        <time>2025-10-28T11:09:56.000Z</time>
      </trkpt>
      <trkpt lat="43.49849" lon="6.62271">
        <ele>45.8</ele>
        <time>2025-10-28T11:09:57.000Z</time>
      </trkpt>
      <trkpt lat="43.49848" lon="6.62275">
        <ele>45.8</ele>
        <time>2025-10-28T11:09:58.000Z</time>
      </trkpt>
      <trkpt lat="43.49847" lon="6.62278">
        <ele>45.7</ele>
        <time>2025-10-28T11:09:59.000Z</time>
      </trkpt>
      <trkpt lat="43.49847" lon="6.62281">
        <ele>45.6</ele>
        <time>2025-10-28T11:10:00.000Z</time>
      </trkpt>
      <trkpt lat="43.49848" lon="6.62284">
        <ele>45.6</ele>
        <time>2025-10-28T11:10:01.000Z</time>
      </trkpt>
      <trkpt lat="43.49849" lon="6.62286">
        <ele>45.5</ele>
        <time>2025-10-28T11:10:02.000Z</time>
      </trkpt>
      <trkpt lat="43.49851" lon="6.62288">
        <ele>45.4</ele>
        <time>2025-10-28T11:10:03.000Z</time>
      </trkpt>
      <trkpt lat="43.49854" lon="6.62289">
        <ele>45.3</ele>
        <time>2025-10-28T11:10:04.000Z</time>
      </trkpt>
      <trkpt lat="43.49857" lon="6.62292">
        <ele>45.3</ele>
        <time>2025-10-28T11:10:05.000Z</time>
      </trkpt>
      <trkpt lat="43.4986" lon="6.62295">
        <ele>45.3</ele>
        <time>2025-10-28T11:10:06.000Z</time>
      </trkpt>
      <trkpt lat="43.49863" lon="6.62299">
        <ele>45.3</ele>
        <time>2025-10-28T11:10:07.000Z</time>
      </trkpt>
      <trkpt lat="43.49864" lon="6.62302">
        <ele>45.4</ele>
        <time>2025-10-28T11:10:08.000Z</time>
      </trkpt>
      <trkpt lat="43.49866" lon="6.62305">
        <ele>45.5</ele>
        <time>2025-10-28T11:10:09.000Z</time>
      </trkpt>
      <trkpt lat="43.49866" lon="6.62307">
        <ele>45.6</ele>
        <time>2025-10-28T11:10:10.000Z</time>
      </trkpt>
      <trkpt lat="43.49868" lon="6.6231">
        <ele>45.7</ele>
        <time>2025-10-28T11:10:11.000Z</time>
      </trkpt>
      <trkpt lat="43.49869" lon="6.62312">
        <ele>45.9</ele>
        <time>2025-10-28T11:10:12.000Z</time>
      </trkpt>
      <trkpt lat="43.49871" lon="6.62315">
        <ele>46.2</ele>
        <time>2025-10-28T11:10:13.000Z</time>
      </trkpt>
      <trkpt lat="43.49872" lon="6.62318">
        <ele>46.4</ele>
        <time>2025-10-28T11:10:14.000Z</time>
      </trkpt>
      <trkpt lat="43.49874" lon="6.62321">
        <ele>46.8</ele>
        <time>2025-10-28T11:10:15.000Z</time>
      </trkpt>
      <trkpt lat="43.49876" lon="6.62324">
        <ele>47.1</ele>
        <time>2025-10-28T11:10:16.000Z</time>
      </trkpt>
      <trkpt lat="43.49878" lon="6.62327">
        <ele>47.4</ele>
        <time>2025-10-28T11:10:17.000Z</time>
      </trkpt>
      <trkpt lat="43.49879" lon="6.62328">
        <ele>47.6</ele>
        <time>2025-10-28T11:10:18.000Z</time>
      </trkpt>
      <trkpt lat="43.49881" lon="6.62331">
        <ele>47.9</ele>
        <time>2025-10-28T11:10:19.000Z</time>
      </trkpt>
      <trkpt lat="43.49882" lon="6.62333">
        <ele>48.2</ele>
        <time>2025-10-28T11:10:20.000Z</time>
      </trkpt>
      <trkpt lat="43.49884" lon="6.62336">
        <ele>48.5</ele>
        <time>2025-10-28T11:10:21.000Z</time>
      </trkpt>
      <trkpt lat="43.49885" lon="6.62339">
        <ele>48.8</ele>
        <time>2025-10-28T11:10:22.000Z</time>
      </trkpt>
      <trkpt lat="43.49887" lon="6.62342">
        <ele>49.1</ele>
        <time>2025-10-28T11:10:23.000Z</time>
      </trkpt>
      <trkpt lat="43.49888" lon="6.62345">
        <ele>49.4</ele>
        <time>2025-10-28T11:10:24.000Z</time>
      </trkpt>
      <trkpt lat="43.49889" lon="6.62348">
        <ele>49.7</ele>
        <time>2025-10-28T11:10:25.000Z</time>
      </trkpt>
      <trkpt lat="43.49891" lon="6.62351">
        <ele>50</ele>
        <time>2025-10-28T11:10:26.000Z</time>
      </trkpt>
      <trkpt lat="43.49892" lon="6.62354">
        <ele>50.3</ele>
        <time>2025-10-28T11:10:27.000Z</time>
      </trkpt>
      <trkpt lat="43.49894" lon="6.62356">
        <ele>50.6</ele>
        <time>2025-10-28T11:10:28.000Z</time>
      </trkpt>
      <trkpt lat="43.49895" lon="6.62358">
        <ele>50.9</ele>
        <time>2025-10-28T11:10:29.000Z</time>
      </trkpt>
      <trkpt lat="43.49897" lon="6.6236">
        <ele>51.2</ele>
        <time>2025-10-28T11:10:30.000Z</time>
      </trkpt>
      <trkpt lat="43.49899" lon="6.62363">
        <ele>51.5</ele>
        <time>2025-10-28T11:10:31.000Z</time>
      </trkpt>
      <trkpt lat="43.49901" lon="6.62366">
        <ele>51.8</ele>
        <time>2025-10-28T11:10:32.000Z</time>
      </trkpt>
      <trkpt lat="43.49902" lon="6.62369">
        <ele>52</ele>
        <time>2025-10-28T11:10:33.000Z</time>
      </trkpt>
      <trkpt lat="43.49902" lon="6.62373">
        <ele>52.3</ele>
        <time>2025-10-28T11:10:34.000Z</time>
      </trkpt>
      <trkpt lat="43.49901" lon="6.62377">
        <ele>52.6</ele>
        <time>2025-10-28T11:10:35.000Z</time>
      </trkpt>
      <trkpt lat="43.499" lon="6.6238">
        <ele>52.8</ele>
        <time>2025-10-28T11:10:36.000Z</time>
      </trkpt>
      <trkpt lat="43.49898" lon="6.62384">
        <ele>53</ele>
        <time>2025-10-28T11:10:37.000Z</time>
      </trkpt>
      <trkpt lat="43.49897" lon="6.62387">
        <ele>53.2</ele>
        <time>2025-10-28T11:10:38.000Z</time>
      </trkpt>
      <trkpt lat="43.49896" lon="6.62389">
        <ele>53.4</ele>
        <time>2025-10-28T11:10:39.000Z</time>
      </trkpt>
      <trkpt lat="43.49894" lon="6.62393">
        <ele>53.7</ele>
        <time>2025-10-28T11:10:40.000Z</time>
      </trkpt>
      <trkpt lat="43.49893" lon="6.62396">
        <ele>53.9</ele>
        <time>2025-10-28T11:10:41.000Z</time>
      </trkpt>
      <trkpt lat="43.49891" lon="6.62399">
        <ele>54.1</ele>
        <time>2025-10-28T11:10:42.000Z</time>
      </trkpt>
      <trkpt lat="43.4989" lon="6.62402">
        <ele>54.3</ele>
        <time>2025-10-28T11:10:43.000Z</time>
      </trkpt>
      <trkpt lat="43.49888" lon="6.62405">
        <ele>54.5</ele>
        <time>2025-10-28T11:10:44.000Z</time>
      </trkpt>
      <trkpt lat="43.49888" lon="6.62408">
        <ele>54.7</ele>
        <time>2025-10-28T11:10:45.000Z</time>
      </trkpt>
      <trkpt lat="43.49888" lon="6.62411">
        <ele>54.8</ele>
        <time>2025-10-28T11:10:46.000Z</time>
      </trkpt>
      <trkpt lat="43.49888" lon="6.62415">
        <ele>55</ele>
        <time>2025-10-28T11:10:47.000Z</time>
      </trkpt>
      <trkpt lat="43.49888" lon="6.62419">
        <ele>55.1</ele>
        <time>2025-10-28T11:10:48.000Z</time>
      </trkpt>
      <trkpt lat="43.49887" lon="6.62424">
        <ele>55.3</ele>
        <time>2025-10-28T11:10:49.000Z</time>
      </trkpt>
      <trkpt lat="43.49887" lon="6.62429">
        <ele>55.4</ele>
        <time>2025-10-28T11:10:50.000Z</time>
      </trkpt>
      <trkpt lat="43.49886" lon="6.62433">
        <ele>55.6</ele>
        <time>2025-10-28T11:10:51.000Z</time>
      </trkpt>
      <trkpt lat="43.49886" lon="6.62437">
        <ele>55.7</ele>
        <time>2025-10-28T11:10:52.000Z</time>
      </trkpt>
      <trkpt lat="43.49886" lon="6.6244">
        <ele>55.8</ele>
        <time>2025-10-28T11:10:53.000Z</time>
      </trkpt>
      <trkpt lat="43.49886" lon="6.62444">
        <ele>55.9</ele>
        <time>2025-10-28T11:10:54.000Z</time>
      </trkpt>
      <trkpt lat="43.49885" lon="6.62448">
        <ele>56</ele>
        <time>2025-10-28T11:10:55.000Z</time>
      </trkpt>
      <trkpt lat="43.49886" lon="6.62452">
        <ele>56.1</ele>
        <time>2025-10-28T11:10:56.000Z</time>
      </trkpt>
      <trkpt lat="43.49886" lon="6.62456">
        <ele>56.2</ele>
        <time>2025-10-28T11:10:57.000Z</time>
      </trkpt>
      <trkpt lat="43.49886" lon="6.6246">
        <ele>56.4</ele>
        <time>2025-10-28T11:10:58.000Z</time>
      </trkpt>
      <trkpt lat="43.49887" lon="6.62464">
        <ele>56.5</ele>
        <time>2025-10-28T11:10:59.000Z</time>
      </trkpt>
      <trkpt lat="43.49887" lon="6.62468">
        <ele>56.6</ele>
        <time>2025-10-28T11:11:00.000Z</time>
      </trkpt>
      <trkpt lat="43.49887" lon="6.62472">
        <ele>56.8</ele>
        <time>2025-10-28T11:11:01.000Z</time>
      </trkpt>
      <trkpt lat="43.49887" lon="6.62476">
        <ele>56.9</ele>
        <time>2025-10-28T11:11:02.000Z</time>
      </trkpt>
      <trkpt lat="43.49887" lon="6.6248">
        <ele>57.1</ele>
        <time>2025-10-28T11:11:03.000Z</time>
      </trkpt>
      <trkpt lat="43.49887" lon="6.62484">
        <ele>57.2</ele>
        <time>2025-10-28T11:11:04.000Z</time>
      </trkpt>
      <trkpt lat="43.49887" lon="6.62488">
        <ele>57.4</ele>
        <time>2025-10-28T11:11:05.000Z</time>
      </trkpt>
      <trkpt lat="43.49888" lon="6.62491">
        <ele>57.6</ele>
        <time>2025-10-28T11:11:06.000Z</time>
      </trkpt>
      <trkpt lat="43.49888" lon="6.62494">
        <ele>57.7</ele>
        <time>2025-10-28T11:11:07.000Z</time>
      </trkpt>
      <trkpt lat="43.49889" lon="6.62497">
        <ele>57.9</ele>
        <time>2025-10-28T11:11:08.000Z</time>
      </trkpt>
      <trkpt lat="43.49889" lon="6.62499">
        <ele>58</ele>
        <time>2025-10-28T11:11:09.000Z</time>
      </trkpt>
      <trkpt lat="43.49888" lon="6.62501">
        <ele>58</ele>
        <time>2025-10-28T11:11:10.000Z</time>
      </trkpt>
      <trkpt lat="43.49887" lon="6.62502">
        <ele>58</ele>
        <time>2025-10-28T11:11:11.000Z</time>
      </trkpt>
      <trkpt lat="43.49886" lon="6.62503">
        <ele>57.9</ele>
        <time>2025-10-28T11:11:12.000Z</time>
      </trkpt>
      <trkpt lat="43.49884" lon="6.62504">
        <ele>57.8</ele>
        <time>2025-10-28T11:11:13.000Z</time>
      </trkpt>
      <trkpt lat="43.49882" lon="6.62505">
        <ele>57.7</ele>
        <time>2025-10-28T11:11:14.000Z</time>
      </trkpt>
      <trkpt lat="43.4988" lon="6.62505">
        <ele>57.6</ele>
        <time>2025-10-28T11:11:15.000Z</time>
      </trkpt>
      <trkpt lat="43.49878" lon="6.62506">
        <ele>57.6</ele>
        <time>2025-10-28T11:11:16.000Z</time>
      </trkpt>
      <trkpt lat="43.49875" lon="6.62507">
        <ele>57.5</ele>
        <time>2025-10-28T11:11:17.000Z</time>
      </trkpt>
      <trkpt lat="43.49873" lon="6.62509">
        <ele>57.5</ele>
        <time>2025-10-28T11:11:18.000Z</time>
      </trkpt>
      <trkpt lat="43.4987" lon="6.6251">
        <ele>57.4</ele>
        <time>2025-10-28T11:11:19.000Z</time>
      </trkpt>
      <trkpt lat="43.49867" lon="6.62512">
        <ele>57.4</ele>
        <time>2025-10-28T11:11:20.000Z</time>
      </trkpt>
      <trkpt lat="43.49865" lon="6.62514">
        <ele>57.4</ele>
        <time>2025-10-28T11:11:21.000Z</time>
      </trkpt>
      <trkpt lat="43.49862" lon="6.62516">
        <ele>57.5</ele>
        <time>2025-10-28T11:11:22.000Z</time>
      </trkpt>
      <trkpt lat="43.4986" lon="6.62518">
        <ele>57.5</ele>
        <time>2025-10-28T11:11:23.000Z</time>
      </trkpt>
      <trkpt lat="43.49858" lon="6.62519">
        <ele>57.5</ele>
        <time>2025-10-28T11:11:24.000Z</time>
      </trkpt>
      <trkpt lat="43.49856" lon="6.62521">
        <ele>57.4</ele>
        <time>2025-10-28T11:11:25.000Z</time>
      </trkpt>
      <trkpt lat="43.49855" lon="6.62523">
        <ele>57.4</ele>
        <time>2025-10-28T11:11:26.000Z</time>
      </trkpt>
      <trkpt lat="43.49854" lon="6.62525">
        <ele>57.4</ele>
        <time>2025-10-28T11:11:27.000Z</time>
      </trkpt>
      <trkpt lat="43.49854" lon="6.62526">
        <ele>57.4</ele>
        <time>2025-10-28T11:11:28.000Z</time>
      </trkpt>
      <trkpt lat="43.49853" lon="6.62527">
        <ele>57.4</ele>
        <time>2025-10-28T11:11:29.000Z</time>
      </trkpt>
      <trkpt lat="43.49853" lon="6.62526">
        <ele>57.4</ele>
        <time>2025-10-28T11:11:30.000Z</time>
      </trkpt>
      <trkpt lat="43.49853" lon="6.62526">
        <ele>57.4</ele>
        <time>2025-10-28T11:11:31.000Z</time>
      </trkpt>
      <trkpt lat="43.49853" lon="6.62526">
        <ele>57.4</ele>
        <time>2025-10-28T11:11:32.000Z</time>
      </trkpt>
      <trkpt lat="43.49853" lon="6.62526">
        <ele>57.4</ele>
        <time>2025-10-28T11:11:33.000Z</time>
      </trkpt>
      <trkpt lat="43.49853" lon="6.62526">
        <ele>57.4</ele>
        <time>2025-10-28T11:11:34.000Z</time>
      </trkpt>
      <trkpt lat="43.49853" lon="6.62526">
        <ele>57.4</ele>
        <time>2025-10-28T11:11:35.000Z</time>
      </trkpt>
      <trkpt lat="43.49853" lon="6.62526">
        <ele>57.4</ele>
        <time>2025-10-28T11:11:36.000Z</time>
      </trkpt>
      <trkpt lat="43.49852" lon="6.62526">
        <ele>57.4</ele>
        <time>2025-10-28T11:11:37.000Z</time>
      </trkpt>
      <trkpt lat="43.49852" lon="6.62526">
        <ele>57.4</ele>
        <time>2025-10-28T11:11:38.000Z</time>
      </trkpt>
      <trkpt lat="43.49852" lon="6.62526">
        <ele>57.4</ele>
        <time>2025-10-28T11:11:39.000Z</time>
      </trkpt>
      <trkpt lat="43.49852" lon="6.62525">
        <ele>57.4</ele>
        <time>2025-10-28T11:11:40.000Z</time>
      </trkpt>
      <trkpt lat="43.49852" lon="6.62525">
        <ele>57.4</ele>
        <time>2025-10-28T11:11:41.000Z</time>
      </trkpt>
      <trkpt lat="43.49852" lon="6.62525">
        <ele>57.4</ele>
        <time>2025-10-28T11:11:42.000Z</time>
      </trkpt>
      <trkpt lat="43.49852" lon="6.62525">
        <ele>57.4</ele>
        <time>2025-10-28T11:11:43.000Z</time>
      </trkpt>
      <trkpt lat="43.49852" lon="6.62525">
        <ele>57.4</ele>
        <time>2025-10-28T11:11:44.000Z</time>
      </trkpt>
      <trkpt lat="43.49852" lon="6.62526">
        <ele>57.4</ele>
        <time>2025-10-28T11:11:45.000Z</time>
      </trkpt>
      <trkpt lat="43.4985" lon="6.6253">
        <ele>57.4</ele>
        <time>2025-10-28T11:11:46.000Z</time>
      </trkpt>
      <trkpt lat="43.49848" lon="6.62534">
        <ele>57.4</ele>
        <time>2025-10-28T11:11:47.000Z</time>
      </trkpt>
      <trkpt lat="43.49846" lon="6.62539">
        <ele>57.4</ele>
        <time>2025-10-28T11:11:48.000Z</time>
      </trkpt>
      <trkpt lat="43.49843" lon="6.62542">
        <ele>57.4</ele>
        <time>2025-10-28T11:11:49.000Z</time>
      </trkpt>
      <trkpt lat="43.49841" lon="6.62545">
        <ele>57.4</ele>
        <time>2025-10-28T11:11:50.000Z</time>
      </trkpt>
      <trkpt lat="43.49838" lon="6.62549">
        <ele>57.4</ele>
        <time>2025-10-28T11:11:51.000Z</time>
      </trkpt>
      <trkpt lat="43.49835" lon="6.62553">
        <ele>57.4</ele>
        <time>2025-10-28T11:11:52.000Z</time>
      </trkpt>
      <trkpt lat="43.49832" lon="6.62557">
        <ele>57.5</ele>
        <time>2025-10-28T11:11:53.000Z</time>
      </trkpt>
      <trkpt lat="43.49828" lon="6.62561">
        <ele>57.5</ele>
        <time>2025-10-28T11:11:54.000Z</time>
      </trkpt>
      <trkpt lat="43.49824" lon="6.62564">
        <ele>57.5</ele>
        <time>2025-10-28T11:11:55.000Z</time>
      </trkpt>
      <trkpt lat="43.4982" lon="6.62566">
        <ele>57.5</ele>
        <time>2025-10-28T11:11:56.000Z</time>
      </trkpt>
      <trkpt lat="43.49816" lon="6.62569">
        <ele>57.5</ele>
        <time>2025-10-28T11:11:57.000Z</time>
      </trkpt>
      <trkpt lat="43.49813" lon="6.62572">
        <ele>57.4</ele>
        <time>2025-10-28T11:11:58.000Z</time>
      </trkpt>
      <trkpt lat="43.49811" lon="6.62575">
        <ele>57.4</ele>
        <time>2025-10-28T11:11:59.000Z</time>
      </trkpt>
      <trkpt lat="43.49807" lon="6.62579">
        <ele>57.4</ele>
        <time>2025-10-28T11:12:00.000Z</time>
      </trkpt>
      <trkpt lat="43.49803" lon="6.62581">
        <ele>57.3</ele>
        <time>2025-10-28T11:12:01.000Z</time>
      </trkpt>
      <trkpt lat="43.498" lon="6.62584">
        <ele>57.3</ele>
        <time>2025-10-28T11:12:02.000Z</time>
      </trkpt>
      <trkpt lat="43.49796" lon="6.62586">
        <ele>57.2</ele>
        <time>2025-10-28T11:12:03.000Z</time>
      </trkpt>
      <trkpt lat="43.49794" lon="6.62588">
        <ele>57.1</ele>
        <time>2025-10-28T11:12:04.000Z</time>
      </trkpt>
      <trkpt lat="43.49791" lon="6.62589">
        <ele>56.9</ele>
        <time>2025-10-28T11:12:05.000Z</time>
      </trkpt>
      <trkpt lat="43.49788" lon="6.6259">
        <ele>56.8</ele>
        <time>2025-10-28T11:12:06.000Z</time>
      </trkpt>
      <trkpt lat="43.49785" lon="6.62591">
        <ele>56.7</ele>
        <time>2025-10-28T11:12:07.000Z</time>
      </trkpt>
      <trkpt lat="43.49781" lon="6.62593">
        <ele>56.5</ele>
        <time>2025-10-28T11:12:08.000Z</time>
      </trkpt>
      <trkpt lat="43.49778" lon="6.62596">
        <ele>56.4</ele>
        <time>2025-10-28T11:12:09.000Z</time>
      </trkpt>
      <trkpt lat="43.49774" lon="6.62598">
        <ele>56.3</ele>
        <time>2025-10-28T11:12:10.000Z</time>
      </trkpt>
      <trkpt lat="43.4977" lon="6.626">
        <ele>56.2</ele>
        <time>2025-10-28T11:12:11.000Z</time>
      </trkpt>
      <trkpt lat="43.49767" lon="6.62604">
        <ele>56.1</ele>
        <time>2025-10-28T11:12:12.000Z</time>
      </trkpt>
      <trkpt lat="43.49764" lon="6.62607">
        <ele>56.1</ele>
        <time>2025-10-28T11:12:13.000Z</time>
      </trkpt>
      <trkpt lat="43.49761" lon="6.62609">
        <ele>56</ele>
        <time>2025-10-28T11:12:14.000Z</time>
      </trkpt>
      <trkpt lat="43.49759" lon="6.62611">
        <ele>55.9</ele>
        <time>2025-10-28T11:12:15.000Z</time>
      </trkpt>
      <trkpt lat="43.49757" lon="6.62613">
        <ele>55.8</ele>
        <time>2025-10-28T11:12:16.000Z</time>
      </trkpt>
      <trkpt lat="43.49755" lon="6.62614">
        <ele>55.7</ele>
        <time>2025-10-28T11:12:17.000Z</time>
      </trkpt>
      <trkpt lat="43.49752" lon="6.62615">
        <ele>55.6</ele>
        <time>2025-10-28T11:12:18.000Z</time>
      </trkpt>
      <trkpt lat="43.49749" lon="6.62615">
        <ele>55.5</ele>
        <time>2025-10-28T11:12:19.000Z</time>
      </trkpt>
      <trkpt lat="43.49745" lon="6.62614">
        <ele>55.4</ele>
        <time>2025-10-28T11:12:20.000Z</time>
      </trkpt>
      <trkpt lat="43.49741" lon="6.62614">
        <ele>55.2</ele>
        <time>2025-10-28T11:12:21.000Z</time>
      </trkpt>
      <trkpt lat="43.49736" lon="6.62615">
        <ele>55.1</ele>
        <time>2025-10-28T11:12:22.000Z</time>
      </trkpt>
      <trkpt lat="43.49732" lon="6.62616">
        <ele>55</ele>
        <time>2025-10-28T11:12:23.000Z</time>
      </trkpt>
      <trkpt lat="43.49728" lon="6.62619">
        <ele>54.8</ele>
        <time>2025-10-28T11:12:24.000Z</time>
      </trkpt>
      <trkpt lat="43.49725" lon="6.62622">
        <ele>54.7</ele>
        <time>2025-10-28T11:12:25.000Z</time>
      </trkpt>
      <trkpt lat="43.4972" lon="6.62625">
        <ele>54.5</ele>
        <time>2025-10-28T11:12:26.000Z</time>
      </trkpt>
      <trkpt lat="43.49717" lon="6.62628">
        <ele>54.3</ele>
        <time>2025-10-28T11:12:27.000Z</time>
      </trkpt>
      <trkpt lat="43.49713" lon="6.6263">
        <ele>54.1</ele>
        <time>2025-10-28T11:12:28.000Z</time>
      </trkpt>
      <trkpt lat="43.49711" lon="6.62634">
        <ele>54</ele>
        <time>2025-10-28T11:12:29.000Z</time>
      </trkpt>
      <trkpt lat="43.49708" lon="6.62637">
        <ele>53.8</ele>
        <time>2025-10-28T11:12:30.000Z</time>
      </trkpt>
      <trkpt lat="43.49705" lon="6.62641">
        <ele>53.5</ele>
        <time>2025-10-28T11:12:31.000Z</time>
      </trkpt>
      <trkpt lat="43.49702" lon="6.62645">
        <ele>53.2</ele>
        <time>2025-10-28T11:12:32.000Z</time>
      </trkpt>
      <trkpt lat="43.497" lon="6.6265">
        <ele>52.9</ele>
        <time>2025-10-28T11:12:33.000Z</time>
      </trkpt>
      <trkpt lat="43.49697" lon="6.62653">
        <ele>52.6</ele>
        <time>2025-10-28T11:12:34.000Z</time>
      </trkpt>
      <trkpt lat="43.49695" lon="6.62655">
        <ele>52.4</ele>
        <time>2025-10-28T11:12:35.000Z</time>
      </trkpt>
      <trkpt lat="43.49692" lon="6.62657">
        <ele>52.2</ele>
        <time>2025-10-28T11:12:36.000Z</time>
      </trkpt>
      <trkpt lat="43.4969" lon="6.62658">
        <ele>52</ele>
        <time>2025-10-28T11:12:37.000Z</time>
      </trkpt>
      <trkpt lat="43.49688" lon="6.6266">
        <ele>51.7</ele>
        <time>2025-10-28T11:12:38.000Z</time>
      </trkpt>
      <trkpt lat="43.49685" lon="6.62662">
        <ele>51.5</ele>
        <time>2025-10-28T11:12:39.000Z</time>
      </trkpt>
      <trkpt lat="43.49682" lon="6.62665">
        <ele>51.3</ele>
        <time>2025-10-28T11:12:40.000Z</time>
      </trkpt>
      <trkpt lat="43.49679" lon="6.62667">
        <ele>51</ele>
        <time>2025-10-28T11:12:41.000Z</time>
      </trkpt>
      <trkpt lat="43.49676" lon="6.62671">
        <ele>50.7</ele>
        <time>2025-10-28T11:12:42.000Z</time>
      </trkpt>
      <trkpt lat="43.49673" lon="6.62673">
        <ele>50.5</ele>
        <time>2025-10-28T11:12:43.000Z</time>
      </trkpt>
      <trkpt lat="43.49671" lon="6.62675">
        <ele>50.3</ele>
        <time>2025-10-28T11:12:44.000Z</time>
      </trkpt>
      <trkpt lat="43.4967" lon="6.62677">
        <ele>50.2</ele>
        <time>2025-10-28T11:12:45.000Z</time>
      </trkpt>
      <trkpt lat="43.49669" lon="6.62679">
        <ele>50.1</ele>
        <time>2025-10-28T11:12:46.000Z</time>
      </trkpt>
      <trkpt lat="43.49669" lon="6.62681">
        <ele>50</ele>
        <time>2025-10-28T11:12:47.000Z</time>
      </trkpt>
      <trkpt lat="43.49667" lon="6.62682">
        <ele>49.9</ele>
        <time>2025-10-28T11:12:48.000Z</time>
      </trkpt>
      <trkpt lat="43.49665" lon="6.62683">
        <ele>49.8</ele>
        <time>2025-10-28T11:12:49.000Z</time>
      </trkpt>
      <trkpt lat="43.49664" lon="6.62683">
        <ele>49.7</ele>
        <time>2025-10-28T11:12:50.000Z</time>
      </trkpt>
      <trkpt lat="43.49662" lon="6.62682">
        <ele>49.6</ele>
        <time>2025-10-28T11:12:51.000Z</time>
      </trkpt>
      <trkpt lat="43.49661" lon="6.6268">
        <ele>49.5</ele>
        <time>2025-10-28T11:12:52.000Z</time>
      </trkpt>
      <trkpt lat="43.49659" lon="6.62677">
        <ele>49.4</ele>
        <time>2025-10-28T11:12:53.000Z</time>
      </trkpt>
      <trkpt lat="43.49657" lon="6.62674">
        <ele>49.3</ele>
        <time>2025-10-28T11:12:54.000Z</time>
      </trkpt>
      <trkpt lat="43.49655" lon="6.62674">
        <ele>49.2</ele>
        <time>2025-10-28T11:12:55.000Z</time>
      </trkpt>
      <trkpt lat="43.49654" lon="6.62675">
        <ele>49.1</ele>
        <time>2025-10-28T11:12:56.000Z</time>
      </trkpt>
      <trkpt lat="43.49653" lon="6.62676">
        <ele>49.1</ele>
        <time>2025-10-28T11:12:57.000Z</time>
      </trkpt>
      <trkpt lat="43.49652" lon="6.62676">
        <ele>49.1</ele>
        <time>2025-10-28T11:12:58.000Z</time>
      </trkpt>
      <trkpt lat="43.49652" lon="6.62676">
        <ele>49</ele>
        <time>2025-10-28T11:12:59.000Z</time>
      </trkpt>
      <trkpt lat="43.49652" lon="6.62676">
        <ele>49</ele>
        <time>2025-10-28T11:13:00.000Z</time>
      </trkpt>
      <trkpt lat="43.49652" lon="6.62676">
        <ele>49</ele>
        <time>2025-10-28T11:13:01.000Z</time>
      </trkpt>
      <trkpt lat="43.49652" lon="6.62676">
        <ele>49</ele>
        <time>2025-10-28T11:13:02.000Z</time>
      </trkpt>
      <trkpt lat="43.49652" lon="6.62677">
        <ele>49</ele>
        <time>2025-10-28T11:13:03.000Z</time>
      </trkpt>
      <trkpt lat="43.49651" lon="6.6268">
        <ele>48.9</ele>
        <time>2025-10-28T11:13:04.000Z</time>
      </trkpt>
      <trkpt lat="43.4965" lon="6.62683">
        <ele>48.8</ele>
        <time>2025-10-28T11:13:05.000Z</time>
      </trkpt>
      <trkpt lat="43.4965" lon="6.62687">
        <ele>48.6</ele>
        <time>2025-10-28T11:13:06.000Z</time>
      </trkpt>
      <trkpt lat="43.49649" lon="6.6269">
        <ele>48.5</ele>
        <time>2025-10-28T11:13:07.000Z</time>
      </trkpt>
      <trkpt lat="43.49648" lon="6.62693">
        <ele>48.3</ele>
        <time>2025-10-28T11:13:08.000Z</time>
      </trkpt>
      <trkpt lat="43.49647" lon="6.62697">
        <ele>48.1</ele>
        <time>2025-10-28T11:13:09.000Z</time>
      </trkpt>
      <trkpt lat="43.49647" lon="6.62701">
        <ele>47.9</ele>
        <time>2025-10-28T11:13:10.000Z</time>
      </trkpt>
      <trkpt lat="43.49646" lon="6.62705">
        <ele>47.6</ele>
        <time>2025-10-28T11:13:11.000Z</time>
      </trkpt>
      <trkpt lat="43.49645" lon="6.62708">
        <ele>47.3</ele>
        <time>2025-10-28T11:13:12.000Z</time>
      </trkpt>
      <trkpt lat="43.49643" lon="6.62712">
        <ele>47</ele>
        <time>2025-10-28T11:13:13.000Z</time>
      </trkpt>
      <trkpt lat="43.49642" lon="6.62716">
        <ele>46.6</ele>
        <time>2025-10-28T11:13:14.000Z</time>
      </trkpt>
      <trkpt lat="43.49641" lon="6.6272">
        <ele>46.2</ele>
        <time>2025-10-28T11:13:15.000Z</time>
      </trkpt>
      <trkpt lat="43.4964" lon="6.62725">
        <ele>45.8</ele>
        <time>2025-10-28T11:13:16.000Z</time>
      </trkpt>
      <trkpt lat="43.4964" lon="6.62731">
        <ele>45.3</ele>
        <time>2025-10-28T11:13:17.000Z</time>
      </trkpt>
      <trkpt lat="43.49641" lon="6.62737">
        <ele>44.8</ele>
        <time>2025-10-28T11:13:18.000Z</time>
      </trkpt>
      <trkpt lat="43.49642" lon="6.62742">
        <ele>44.3</ele>
        <time>2025-10-28T11:13:19.000Z</time>
      </trkpt>
      <trkpt lat="43.49642" lon="6.62748">
        <ele>43.8</ele>
        <time>2025-10-28T11:13:20.000Z</time>
      </trkpt>
      <trkpt lat="43.49641" lon="6.62753">
        <ele>43.3</ele>
        <time>2025-10-28T11:13:21.000Z</time>
      </trkpt>
      <trkpt lat="43.49639" lon="6.62759">
        <ele>42.8</ele>
        <time>2025-10-28T11:13:22.000Z</time>
      </trkpt>
      <trkpt lat="43.49637" lon="6.62764">
        <ele>42.3</ele>
        <time>2025-10-28T11:13:23.000Z</time>
      </trkpt>
      <trkpt lat="43.49636" lon="6.6277">
        <ele>41.8</ele>
        <time>2025-10-28T11:13:24.000Z</time>
      </trkpt>
      <trkpt lat="43.49635" lon="6.62776">
        <ele>41.3</ele>
        <time>2025-10-28T11:13:25.000Z</time>
      </trkpt>
      <trkpt lat="43.49634" lon="6.62781">
        <ele>40.8</ele>
        <time>2025-10-28T11:13:26.000Z</time>
      </trkpt>
      <trkpt lat="43.49634" lon="6.62786">
        <ele>40.4</ele>
        <time>2025-10-28T11:13:27.000Z</time>
      </trkpt>
      <trkpt lat="43.49634" lon="6.62791">
        <ele>39.9</ele>
        <time>2025-10-28T11:13:28.000Z</time>
      </trkpt>
      <trkpt lat="43.49634" lon="6.62796">
        <ele>39.5</ele>
        <time>2025-10-28T11:13:29.000Z</time>
      </trkpt>
      <trkpt lat="43.49634" lon="6.628">
        <ele>39.1</ele>
        <time>2025-10-28T11:13:30.000Z</time>
      </trkpt>
      <trkpt lat="43.49634" lon="6.62804">
        <ele>38.6</ele>
        <time>2025-10-28T11:13:31.000Z</time>
      </trkpt>
      <trkpt lat="43.49635" lon="6.62809">
        <ele>38.1</ele>
        <time>2025-10-28T11:13:32.000Z</time>
      </trkpt>
      <trkpt lat="43.49635" lon="6.62814">
        <ele>37.7</ele>
        <time>2025-10-28T11:13:33.000Z</time>
      </trkpt>
      <trkpt lat="43.49634" lon="6.62818">
        <ele>37.2</ele>
        <time>2025-10-28T11:13:34.000Z</time>
      </trkpt>
      <trkpt lat="43.49633" lon="6.62821">
        <ele>36.9</ele>
        <time>2025-10-28T11:13:35.000Z</time>
      </trkpt>
      <trkpt lat="43.49633" lon="6.62822">
        <ele>36.7</ele>
        <time>2025-10-28T11:13:36.000Z</time>
      </trkpt>
      <trkpt lat="43.49632" lon="6.62823">
        <ele>36.6</ele>
        <time>2025-10-28T11:13:37.000Z</time>
      </trkpt>
      <trkpt lat="43.49631" lon="6.62822">
        <ele>36.3</ele>
        <time>2025-10-28T11:13:38.000Z</time>
      </trkpt>
      <trkpt lat="43.49629" lon="6.6282">
        <ele>36</ele>
        <time>2025-10-28T11:13:39.000Z</time>
      </trkpt>
      <trkpt lat="43.49628" lon="6.62819">
        <ele>36</ele>
        <time>2025-10-28T11:13:40.000Z</time>
      </trkpt>
      <trkpt lat="43.49627" lon="6.62817">
        <ele>36.1</ele>
        <time>2025-10-28T11:13:41.000Z</time>
      </trkpt>
      <trkpt lat="43.49625" lon="6.62816">
        <ele>36.1</ele>
        <time>2025-10-28T11:13:42.000Z</time>
      </trkpt>
      <trkpt lat="43.49624" lon="6.62815">
        <ele>36.2</ele>
        <time>2025-10-28T11:13:43.000Z</time>
      </trkpt>
      <trkpt lat="43.49622" lon="6.62813">
        <ele>36.2</ele>
        <time>2025-10-28T11:13:44.000Z</time>
      </trkpt>
      <trkpt lat="43.49621" lon="6.62812">
        <ele>36.2</ele>
        <time>2025-10-28T11:13:45.000Z</time>
      </trkpt>
      <trkpt lat="43.49619" lon="6.6281">
        <ele>36.3</ele>
        <time>2025-10-28T11:13:46.000Z</time>
      </trkpt>
      <trkpt lat="43.49618" lon="6.62809">
        <ele>36.3</ele>
        <time>2025-10-28T11:13:47.000Z</time>
      </trkpt>
      <trkpt lat="43.49617" lon="6.62807">
        <ele>36.3</ele>
        <time>2025-10-28T11:13:48.000Z</time>
      </trkpt>
      <trkpt lat="43.49615" lon="6.62806">
        <ele>36.3</ele>
        <time>2025-10-28T11:13:49.000Z</time>
      </trkpt>
      <trkpt lat="43.49614" lon="6.62804">
        <ele>36.3</ele>
        <time>2025-10-28T11:13:50.000Z</time>
      </trkpt>
      <trkpt lat="43.49612" lon="6.62803">
        <ele>36.3</ele>
        <time>2025-10-28T11:13:51.000Z</time>
      </trkpt>
      <trkpt lat="43.49608" lon="6.628">
        <ele>36.3</ele>
        <time>2025-10-28T11:13:52.000Z</time>
      </trkpt>
      <trkpt lat="43.49603" lon="6.62797">
        <ele>36.2</ele>
        <time>2025-10-28T11:13:53.000Z</time>
      </trkpt>
      <trkpt lat="43.49598" lon="6.62795">
        <ele>36.2</ele>
        <time>2025-10-28T11:13:54.000Z</time>
      </trkpt>
      <trkpt lat="43.49594" lon="6.62791">
        <ele>36.2</ele>
        <time>2025-10-28T11:13:55.000Z</time>
      </trkpt>
      <trkpt lat="43.4959" lon="6.62787">
        <ele>36.2</ele>
        <time>2025-10-28T11:13:56.000Z</time>
      </trkpt>
      <trkpt lat="43.49586" lon="6.62782">
        <ele>36.2</ele>
        <time>2025-10-28T11:13:57.000Z</time>
      </trkpt>
      <trkpt lat="43.49583" lon="6.62777">
        <ele>36.3</ele>
        <time>2025-10-28T11:13:58.000Z</time>
      </trkpt>
      <trkpt lat="43.4958" lon="6.62771">
        <ele>36.3</ele>
        <time>2025-10-28T11:13:59.000Z</time>
      </trkpt>
      <trkpt lat="43.49577" lon="6.62767">
        <ele>36.4</ele>
        <time>2025-10-28T11:14:00.000Z</time>
      </trkpt>
      <trkpt lat="43.49574" lon="6.62763">
        <ele>36.6</ele>
        <time>2025-10-28T11:14:01.000Z</time>
      </trkpt>
      <trkpt lat="43.49571" lon="6.62759">
        <ele>36.7</ele>
        <time>2025-10-28T11:14:02.000Z</time>
      </trkpt>
      <trkpt lat="43.49567" lon="6.62755">
        <ele>36.9</ele>
        <time>2025-10-28T11:14:03.000Z</time>
      </trkpt>
      <trkpt lat="43.49565" lon="6.62751">
        <ele>37.1</ele>
        <time>2025-10-28T11:14:04.000Z</time>
      </trkpt>
      <trkpt lat="43.49563" lon="6.62747">
        <ele>37.3</ele>
        <time>2025-10-28T11:14:05.000Z</time>
      </trkpt>
      <trkpt lat="43.49561" lon="6.62743">
        <ele>37.5</ele>
        <time>2025-10-28T11:14:06.000Z</time>
      </trkpt>
      <trkpt lat="43.49559" lon="6.62738">
        <ele>37.8</ele>
        <time>2025-10-28T11:14:07.000Z</time>
      </trkpt>
      <trkpt lat="43.49556" lon="6.62734">
        <ele>38</ele>
        <time>2025-10-28T11:14:08.000Z</time>
      </trkpt>
      <trkpt lat="43.49554" lon="6.6273">
        <ele>38.3</ele>
        <time>2025-10-28T11:14:09.000Z</time>
      </trkpt>
      <trkpt lat="43.49551" lon="6.62727">
        <ele>38.6</ele>
        <time>2025-10-28T11:14:10.000Z</time>
      </trkpt>
      <trkpt lat="43.49548" lon="6.62723">
        <ele>38.9</ele>
        <time>2025-10-28T11:14:11.000Z</time>
      </trkpt>
      <trkpt lat="43.49545" lon="6.6272">
        <ele>39.1</ele>
        <time>2025-10-28T11:14:12.000Z</time>
      </trkpt>
      <trkpt lat="43.49542" lon="6.62718">
        <ele>39.4</ele>
        <time>2025-10-28T11:14:13.000Z</time>
      </trkpt>
      <trkpt lat="43.49539" lon="6.62715">
        <ele>39.4</ele>
        <time>2025-10-28T11:14:14.000Z</time>
      </trkpt>
      <trkpt lat="43.49535" lon="6.62713">
        <ele>38.9</ele>
        <time>2025-10-28T11:14:15.000Z</time>
      </trkpt>
      <trkpt lat="43.49532" lon="6.62711">
        <ele>38.5</ele>
        <time>2025-10-28T11:14:16.000Z</time>
      </trkpt>
      <trkpt lat="43.49529" lon="6.62709">
        <ele>37.9</ele>
        <time>2025-10-28T11:14:17.000Z</time>
      </trkpt>
      <trkpt lat="43.49526" lon="6.62707">
        <ele>37.4</ele>
        <time>2025-10-28T11:14:18.000Z</time>
      </trkpt>
      <trkpt lat="43.49522" lon="6.62705">
        <ele>36.7</ele>
        <time>2025-10-28T11:14:19.000Z</time>
      </trkpt>
      <trkpt lat="43.49518" lon="6.62703">
        <ele>36.1</ele>
        <time>2025-10-28T11:14:20.000Z</time>
      </trkpt>
      <trkpt lat="43.49515" lon="6.62701">
        <ele>35.5</ele>
        <time>2025-10-28T11:14:21.000Z</time>
      </trkpt>
      <trkpt lat="43.49512" lon="6.62699">
        <ele>35.1</ele>
        <time>2025-10-28T11:14:22.000Z</time>
      </trkpt>
      <trkpt lat="43.4951" lon="6.62697">
        <ele>34.7</ele>
        <time>2025-10-28T11:14:23.000Z</time>
      </trkpt>
      <trkpt lat="43.49507" lon="6.62695">
        <ele>34.2</ele>
        <time>2025-10-28T11:14:24.000Z</time>
      </trkpt>
      <trkpt lat="43.49505" lon="6.62694">
        <ele>33.8</ele>
        <time>2025-10-28T11:14:25.000Z</time>
      </trkpt>
      <trkpt lat="43.49501" lon="6.62694">
        <ele>33.4</ele>
        <time>2025-10-28T11:14:26.000Z</time>
      </trkpt>
      <trkpt lat="43.49498" lon="6.62694">
        <ele>32.9</ele>
        <time>2025-10-28T11:14:27.000Z</time>
      </trkpt>
      <trkpt lat="43.49493" lon="6.62694">
        <ele>32.5</ele>
        <time>2025-10-28T11:14:28.000Z</time>
      </trkpt>
      <trkpt lat="43.4949" lon="6.62693">
        <ele>32.1</ele>
        <time>2025-10-28T11:14:29.000Z</time>
      </trkpt>
      <trkpt lat="43.49486" lon="6.62694">
        <ele>31.9</ele>
        <time>2025-10-28T11:14:30.000Z</time>
      </trkpt>
      <trkpt lat="43.49483" lon="6.62694">
        <ele>31.7</ele>
        <time>2025-10-28T11:14:31.000Z</time>
      </trkpt>
      <trkpt lat="43.4948" lon="6.62696">
        <ele>31.6</ele>
        <time>2025-10-28T11:14:32.000Z</time>
      </trkpt>
      <trkpt lat="43.49477" lon="6.62697">
        <ele>31.5</ele>
        <time>2025-10-28T11:14:33.000Z</time>
      </trkpt>
      <trkpt lat="43.49476" lon="6.62699">
        <ele>31.4</ele>
        <time>2025-10-28T11:14:34.000Z</time>
      </trkpt>
      <trkpt lat="43.49474" lon="6.62702">
        <ele>31.4</ele>
        <time>2025-10-28T11:14:35.000Z</time>
      </trkpt>
      <trkpt lat="43.49472" lon="6.62705">
        <ele>31.5</ele>
        <time>2025-10-28T11:14:36.000Z</time>
      </trkpt>
      <trkpt lat="43.4947" lon="6.62708">
        <ele>31.6</ele>
        <time>2025-10-28T11:14:37.000Z</time>
      </trkpt>
      <trkpt lat="43.49467" lon="6.62712">
        <ele>31.7</ele>
        <time>2025-10-28T11:14:38.000Z</time>
      </trkpt>
      <trkpt lat="43.49465" lon="6.62715">
        <ele>31.9</ele>
        <time>2025-10-28T11:14:39.000Z</time>
      </trkpt>
      <trkpt lat="43.49463" lon="6.62718">
        <ele>32.2</ele>
        <time>2025-10-28T11:14:40.000Z</time>
      </trkpt>
      <trkpt lat="43.49462" lon="6.62722">
        <ele>32.6</ele>
        <time>2025-10-28T11:14:41.000Z</time>
      </trkpt>
      <trkpt lat="43.4946" lon="6.62725">
        <ele>32.9</ele>
        <time>2025-10-28T11:14:42.000Z</time>
      </trkpt>
      <trkpt lat="43.49459" lon="6.62729">
        <ele>33.3</ele>
        <time>2025-10-28T11:14:43.000Z</time>
      </trkpt>
      <trkpt lat="43.49459" lon="6.62733">
        <ele>33.7</ele>
        <time>2025-10-28T11:14:44.000Z</time>
      </trkpt>
      <trkpt lat="43.4946" lon="6.62737">
        <ele>34.2</ele>
        <time>2025-10-28T11:14:45.000Z</time>
      </trkpt>
      <trkpt lat="43.4946" lon="6.62741">
        <ele>34.7</ele>
        <time>2025-10-28T11:14:46.000Z</time>
      </trkpt>
      <trkpt lat="43.4946" lon="6.62745">
        <ele>35.2</ele>
        <time>2025-10-28T11:14:47.000Z</time>
      </trkpt>
      <trkpt lat="43.4946" lon="6.62748">
        <ele>35.7</ele>
        <time>2025-10-28T11:14:48.000Z</time>
      </trkpt>
      <trkpt lat="43.49459" lon="6.62752">
        <ele>36.2</ele>
        <time>2025-10-28T11:14:49.000Z</time>
      </trkpt>
      <trkpt lat="43.49458" lon="6.62755">
        <ele>36.6</ele>
        <time>2025-10-28T11:14:50.000Z</time>
      </trkpt>
      <trkpt lat="43.49457" lon="6.62758">
        <ele>37.1</ele>
        <time>2025-10-28T11:14:51.000Z</time>
      </trkpt>
      <trkpt lat="43.49456" lon="6.6276">
        <ele>37.5</ele>
        <time>2025-10-28T11:14:52.000Z</time>
      </trkpt>
      <trkpt lat="43.49455" lon="6.62763">
        <ele>38</ele>
        <time>2025-10-28T11:14:53.000Z</time>
      </trkpt>
      <trkpt lat="43.49454" lon="6.62765">
        <ele>38.3</ele>
        <time>2025-10-28T11:14:54.000Z</time>
      </trkpt>
      <trkpt lat="43.49452" lon="6.62767">
        <ele>38.7</ele>
        <time>2025-10-28T11:14:55.000Z</time>
      </trkpt>
      <trkpt lat="43.4945" lon="6.62768">
        <ele>39</ele>
        <time>2025-10-28T11:14:56.000Z</time>
      </trkpt>
      <trkpt lat="43.49447" lon="6.62769">
        <ele>39.5</ele>
        <time>2025-10-28T11:14:57.000Z</time>
      </trkpt>
      <trkpt lat="43.49445" lon="6.6277">
        <ele>39.9</ele>
        <time>2025-10-28T11:14:58.000Z</time>
      </trkpt>
      <trkpt lat="43.49443" lon="6.62771">
        <ele>40.2</ele>
        <time>2025-10-28T11:14:59.000Z</time>
      </trkpt>
      <trkpt lat="43.49442" lon="6.62773">
        <ele>40.5</ele>
        <time>2025-10-28T11:15:00.000Z</time>
      </trkpt>
      <trkpt lat="43.49441" lon="6.62776">
        <ele>40.9</ele>
        <time>2025-10-28T11:15:01.000Z</time>
      </trkpt>
      <trkpt lat="43.49439" lon="6.62779">
        <ele>41.2</ele>
        <time>2025-10-28T11:15:02.000Z</time>
      </trkpt>
      <trkpt lat="43.49438" lon="6.62782">
        <ele>41.5</ele>
        <time>2025-10-28T11:15:03.000Z</time>
      </trkpt>
      <trkpt lat="43.49438" lon="6.62785">
        <ele>41.8</ele>
        <time>2025-10-28T11:15:04.000Z</time>
      </trkpt>
      <trkpt lat="43.49437" lon="6.62788">
        <ele>42.1</ele>
        <time>2025-10-28T11:15:05.000Z</time>
      </trkpt>
      <trkpt lat="43.49437" lon="6.62791">
        <ele>42.4</ele>
        <time>2025-10-28T11:15:06.000Z</time>
      </trkpt>
      <trkpt lat="43.49436" lon="6.62794">
        <ele>42.6</ele>
        <time>2025-10-28T11:15:07.000Z</time>
      </trkpt>
      <trkpt lat="43.49436" lon="6.62798">
        <ele>42.9</ele>
        <time>2025-10-28T11:15:08.000Z</time>
      </trkpt>
      <trkpt lat="43.49435" lon="6.62801">
        <ele>43.1</ele>
        <time>2025-10-28T11:15:09.000Z</time>
      </trkpt>
      <trkpt lat="43.49435" lon="6.62803">
        <ele>43.3</ele>
        <time>2025-10-28T11:15:10.000Z</time>
      </trkpt>
      <trkpt lat="43.49434" lon="6.62807">
        <ele>43.6</ele>
        <time>2025-10-28T11:15:11.000Z</time>
      </trkpt>
      <trkpt lat="43.49434" lon="6.6281">
        <ele>43.8</ele>
        <time>2025-10-28T11:15:12.000Z</time>
      </trkpt>
      <trkpt lat="43.49435" lon="6.62814">
        <ele>44.1</ele>
        <time>2025-10-28T11:15:13.000Z</time>
      </trkpt>
      <trkpt lat="43.49435" lon="6.62818">
        <ele>44.3</ele>
        <time>2025-10-28T11:15:14.000Z</time>
      </trkpt>
      <trkpt lat="43.49435" lon="6.62822">
        <ele>44.5</ele>
        <time>2025-10-28T11:15:15.000Z</time>
      </trkpt>
      <trkpt lat="43.49436" lon="6.62825">
        <ele>44.5</ele>
        <time>2025-10-28T11:15:16.000Z</time>
      </trkpt>
      <trkpt lat="43.49436" lon="6.62828">
        <ele>44.5</ele>
        <time>2025-10-28T11:15:17.000Z</time>
      </trkpt>
      <trkpt lat="43.49435" lon="6.62832">
        <ele>44.5</ele>
        <time>2025-10-28T11:15:18.000Z</time>
      </trkpt>
      <trkpt lat="43.49435" lon="6.62836">
        <ele>44.3</ele>
        <time>2025-10-28T11:15:19.000Z</time>
      </trkpt>
      <trkpt lat="43.49434" lon="6.6284">
        <ele>44.1</ele>
        <time>2025-10-28T11:15:20.000Z</time>
      </trkpt>
      <trkpt lat="43.49433" lon="6.62844">
        <ele>43.8</ele>
        <time>2025-10-28T11:15:21.000Z</time>
      </trkpt>
      <trkpt lat="43.49432" lon="6.62849">
        <ele>43.6</ele>
        <time>2025-10-28T11:15:22.000Z</time>
      </trkpt>
      <trkpt lat="43.49431" lon="6.62854">
        <ele>43.3</ele>
        <time>2025-10-28T11:15:23.000Z</time>
      </trkpt>
      <trkpt lat="43.49429" lon="6.6286">
        <ele>43</ele>
        <time>2025-10-28T11:15:24.000Z</time>
      </trkpt>
      <trkpt lat="43.49427" lon="6.62866">
        <ele>42.7</ele>
        <time>2025-10-28T11:15:25.000Z</time>
      </trkpt>
      <trkpt lat="43.49425" lon="6.62872">
        <ele>42.5</ele>
        <time>2025-10-28T11:15:26.000Z</time>
      </trkpt>
      <trkpt lat="43.49424" lon="6.62879">
        <ele>42.4</ele>
        <time>2025-10-28T11:15:27.000Z</time>
      </trkpt>
      <trkpt lat="43.49422" lon="6.62886">
        <ele>42.4</ele>
        <time>2025-10-28T11:15:28.000Z</time>
      </trkpt>
      <trkpt lat="43.49421" lon="6.62892">
        <ele>42.3</ele>
        <time>2025-10-28T11:15:29.000Z</time>
      </trkpt>
      <trkpt lat="43.4942" lon="6.62898">
        <ele>42.3</ele>
        <time>2025-10-28T11:15:30.000Z</time>
      </trkpt>
      <trkpt lat="43.49419" lon="6.62904">
        <ele>42.3</ele>
        <time>2025-10-28T11:15:31.000Z</time>
      </trkpt>
      <trkpt lat="43.49417" lon="6.6291">
        <ele>42.3</ele>
        <time>2025-10-28T11:15:32.000Z</time>
      </trkpt>
      <trkpt lat="43.49415" lon="6.62916">
        <ele>42.3</ele>
        <time>2025-10-28T11:15:33.000Z</time>
      </trkpt>
      <trkpt lat="43.49414" lon="6.62922">
        <ele>42.3</ele>
        <time>2025-10-28T11:15:34.000Z</time>
      </trkpt>
      <trkpt lat="43.49413" lon="6.62929">
        <ele>42.3</ele>
        <time>2025-10-28T11:15:35.000Z</time>
      </trkpt>
      <trkpt lat="43.49412" lon="6.62935">
        <ele>42.3</ele>
        <time>2025-10-28T11:15:36.000Z</time>
      </trkpt>
      <trkpt lat="43.49411" lon="6.62941">
        <ele>42.4</ele>
        <time>2025-10-28T11:15:37.000Z</time>
      </trkpt>
      <trkpt lat="43.49411" lon="6.62947">
        <ele>42.4</ele>
        <time>2025-10-28T11:15:38.000Z</time>
      </trkpt>
      <trkpt lat="43.49412" lon="6.62953">
        <ele>42.4</ele>
        <time>2025-10-28T11:15:39.000Z</time>
      </trkpt>
      <trkpt lat="43.49412" lon="6.62958">
        <ele>42.4</ele>
        <time>2025-10-28T11:15:40.000Z</time>
      </trkpt>
      <trkpt lat="43.49412" lon="6.62963">
        <ele>42.4</ele>
        <time>2025-10-28T11:15:41.000Z</time>
      </trkpt>
      <trkpt lat="43.49413" lon="6.62968">
        <ele>42.4</ele>
        <time>2025-10-28T11:15:42.000Z</time>
      </trkpt>
      <trkpt lat="43.49413" lon="6.62973">
        <ele>42.4</ele>
        <time>2025-10-28T11:15:43.000Z</time>
      </trkpt>
      <trkpt lat="43.49414" lon="6.62978">
        <ele>42.4</ele>
        <time>2025-10-28T11:15:44.000Z</time>
      </trkpt>
      <trkpt lat="43.49416" lon="6.62983">
        <ele>42.3</ele>
        <time>2025-10-28T11:15:45.000Z</time>
      </trkpt>
      <trkpt lat="43.49417" lon="6.62988">
        <ele>42.3</ele>
        <time>2025-10-28T11:15:46.000Z</time>
      </trkpt>
      <trkpt lat="43.49419" lon="6.62993">
        <ele>42.3</ele>
        <time>2025-10-28T11:15:47.000Z</time>
      </trkpt>
      <trkpt lat="43.49422" lon="6.62998">
        <ele>42.2</ele>
        <time>2025-10-28T11:15:48.000Z</time>
      </trkpt>
      <trkpt lat="43.49424" lon="6.63003">
        <ele>42.2</ele>
        <time>2025-10-28T11:15:49.000Z</time>
      </trkpt>
      <trkpt lat="43.49427" lon="6.63008">
        <ele>42.1</ele>
        <time>2025-10-28T11:15:50.000Z</time>
      </trkpt>
      <trkpt lat="43.49429" lon="6.63013">
        <ele>42.1</ele>
        <time>2025-10-28T11:15:51.000Z</time>
      </trkpt>
      <trkpt lat="43.4943" lon="6.63019">
        <ele>42</ele>
        <time>2025-10-28T11:15:52.000Z</time>
      </trkpt>
      <trkpt lat="43.49431" lon="6.63024">
        <ele>41.8</ele>
        <time>2025-10-28T11:15:53.000Z</time>
      </trkpt>
      <trkpt lat="43.49431" lon="6.63029">
        <ele>41.7</ele>
        <time>2025-10-28T11:15:54.000Z</time>
      </trkpt>
      <trkpt lat="43.49432" lon="6.63034">
        <ele>41.5</ele>
        <time>2025-10-28T11:15:55.000Z</time>
      </trkpt>
      <trkpt lat="43.49432" lon="6.63039">
        <ele>41.2</ele>
        <time>2025-10-28T11:15:56.000Z</time>
      </trkpt>
      <trkpt lat="43.49433" lon="6.63044">
        <ele>41</ele>
        <time>2025-10-28T11:15:57.000Z</time>
      </trkpt>
      <trkpt lat="43.49435" lon="6.63049">
        <ele>40.6</ele>
        <time>2025-10-28T11:15:58.000Z</time>
      </trkpt>
      <trkpt lat="43.49436" lon="6.63055">
        <ele>40.3</ele>
        <time>2025-10-28T11:15:59.000Z</time>
      </trkpt>
      <trkpt lat="43.49438" lon="6.6306">
        <ele>39.9</ele>
        <time>2025-10-28T11:16:00.000Z</time>
      </trkpt>
      <trkpt lat="43.49439" lon="6.63067">
        <ele>39.5</ele>
        <time>2025-10-28T11:16:01.000Z</time>
      </trkpt>
      <trkpt lat="43.4944" lon="6.63073">
        <ele>39.2</ele>
        <time>2025-10-28T11:16:02.000Z</time>
      </trkpt>
      <trkpt lat="43.49442" lon="6.63079">
        <ele>39</ele>
        <time>2025-10-28T11:16:03.000Z</time>
      </trkpt>
      <trkpt lat="43.49443" lon="6.63084">
        <ele>38.8</ele>
        <time>2025-10-28T11:16:04.000Z</time>
      </trkpt>
      <trkpt lat="43.49445" lon="6.63089">
        <ele>38.8</ele>
        <time>2025-10-28T11:16:05.000Z</time>
      </trkpt>
      <trkpt lat="43.49447" lon="6.63093">
        <ele>38.7</ele>
        <time>2025-10-28T11:16:06.000Z</time>
      </trkpt>
      <trkpt lat="43.4945" lon="6.63097">
        <ele>38.8</ele>
        <time>2025-10-28T11:16:07.000Z</time>
      </trkpt>
      <trkpt lat="43.49453" lon="6.631">
        <ele>38.8</ele>
        <time>2025-10-28T11:16:08.000Z</time>
      </trkpt>
      <trkpt lat="43.49457" lon="6.63103">
        <ele>39</ele>
        <time>2025-10-28T11:16:09.000Z</time>
      </trkpt>
      <trkpt lat="43.49461" lon="6.63105">
        <ele>39.3</ele>
        <time>2025-10-28T11:16:10.000Z</time>
      </trkpt>
      <trkpt lat="43.49465" lon="6.63108">
        <ele>39.6</ele>
        <time>2025-10-28T11:16:11.000Z</time>
      </trkpt>
      <trkpt lat="43.49469" lon="6.63111">
        <ele>39.9</ele>
        <time>2025-10-28T11:16:12.000Z</time>
      </trkpt>
      <trkpt lat="43.49472" lon="6.63114">
        <ele>40.1</ele>
        <time>2025-10-28T11:16:13.000Z</time>
      </trkpt>
      <trkpt lat="43.49475" lon="6.63116">
        <ele>40.4</ele>
        <time>2025-10-28T11:16:14.000Z</time>
      </trkpt>
      <trkpt lat="43.49478" lon="6.63119">
        <ele>40.6</ele>
        <time>2025-10-28T11:16:15.000Z</time>
      </trkpt>
      <trkpt lat="43.4948" lon="6.63121">
        <ele>40.8</ele>
        <time>2025-10-28T11:16:16.000Z</time>
      </trkpt>
      <trkpt lat="43.49483" lon="6.63123">
        <ele>40.9</ele>
        <time>2025-10-28T11:16:17.000Z</time>
      </trkpt>
      <trkpt lat="43.49486" lon="6.63125">
        <ele>41.1</ele>
        <time>2025-10-28T11:16:18.000Z</time>
      </trkpt>
      <trkpt lat="43.49489" lon="6.63127">
        <ele>41.2</ele>
        <time>2025-10-28T11:16:19.000Z</time>
      </trkpt>
      <trkpt lat="43.49492" lon="6.63129">
        <ele>41.4</ele>
        <time>2025-10-28T11:16:20.000Z</time>
      </trkpt>
      <trkpt lat="43.49496" lon="6.63131">
        <ele>41.6</ele>
        <time>2025-10-28T11:16:21.000Z</time>
      </trkpt>
      <trkpt lat="43.495" lon="6.63134">
        <ele>41.8</ele>
        <time>2025-10-28T11:16:22.000Z</time>
      </trkpt>
      <trkpt lat="43.49503" lon="6.63137">
        <ele>42.1</ele>
        <time>2025-10-28T11:16:23.000Z</time>
      </trkpt>
      <trkpt lat="43.49507" lon="6.63139">
        <ele>42.4</ele>
        <time>2025-10-28T11:16:24.000Z</time>
      </trkpt>
      <trkpt lat="43.49511" lon="6.63142">
        <ele>42.8</ele>
        <time>2025-10-28T11:16:25.000Z</time>
      </trkpt>
      <trkpt lat="43.49515" lon="6.63144">
        <ele>43.1</ele>
        <time>2025-10-28T11:16:26.000Z</time>
      </trkpt>
      <trkpt lat="43.49519" lon="6.63146">
        <ele>43.5</ele>
        <time>2025-10-28T11:16:27.000Z</time>
      </trkpt>
      <trkpt lat="43.49522" lon="6.63147">
        <ele>43.8</ele>
        <time>2025-10-28T11:16:28.000Z</time>
      </trkpt>
      <trkpt lat="43.49526" lon="6.63149">
        <ele>44</ele>
        <time>2025-10-28T11:16:29.000Z</time>
      </trkpt>
      <trkpt lat="43.49529" lon="6.63151">
        <ele>44.2</ele>
        <time>2025-10-28T11:16:30.000Z</time>
      </trkpt>
      <trkpt lat="43.49532" lon="6.63152">
        <ele>44.4</ele>
        <time>2025-10-28T11:16:31.000Z</time>
      </trkpt>
      <trkpt lat="43.49536" lon="6.63154">
        <ele>44.6</ele>
        <time>2025-10-28T11:16:32.000Z</time>
      </trkpt>
      <trkpt lat="43.49539" lon="6.63156">
        <ele>44.7</ele>
        <time>2025-10-28T11:16:33.000Z</time>
      </trkpt>
      <trkpt lat="43.49543" lon="6.63158">
        <ele>44.9</ele>
        <time>2025-10-28T11:16:34.000Z</time>
      </trkpt>
      <trkpt lat="43.49546" lon="6.6316">
        <ele>45</ele>
        <time>2025-10-28T11:16:35.000Z</time>
      </trkpt>
      <trkpt lat="43.4955" lon="6.63162">
        <ele>45.1</ele>
        <time>2025-10-28T11:16:36.000Z</time>
      </trkpt>
      <trkpt lat="43.49553" lon="6.63164">
        <ele>45.2</ele>
        <time>2025-10-28T11:16:37.000Z</time>
      </trkpt>
      <trkpt lat="43.49557" lon="6.63167">
        <ele>45.2</ele>
        <time>2025-10-28T11:16:38.000Z</time>
      </trkpt>
      <trkpt lat="43.4956" lon="6.6317">
        <ele>45.3</ele>
        <time>2025-10-28T11:16:39.000Z</time>
      </trkpt>
      <trkpt lat="43.49562" lon="6.63173">
        <ele>45.3</ele>
        <time>2025-10-28T11:16:40.000Z</time>
      </trkpt>
      <trkpt lat="43.49564" lon="6.63177">
        <ele>45.3</ele>
        <time>2025-10-28T11:16:41.000Z</time>
      </trkpt>
      <trkpt lat="43.49566" lon="6.63181">
        <ele>45.3</ele>
        <time>2025-10-28T11:16:42.000Z</time>
      </trkpt>
      <trkpt lat="43.49568" lon="6.63186">
        <ele>45.3</ele>
        <time>2025-10-28T11:16:43.000Z</time>
      </trkpt>
      <trkpt lat="43.4957" lon="6.6319">
        <ele>45.3</ele>
        <time>2025-10-28T11:16:44.000Z</time>
      </trkpt>
      <trkpt lat="43.49572" lon="6.63194">
        <ele>45.3</ele>
        <time>2025-10-28T11:16:45.000Z</time>
      </trkpt>
      <trkpt lat="43.49574" lon="6.63198">
        <ele>45.3</ele>
        <time>2025-10-28T11:16:46.000Z</time>
      </trkpt>
      <trkpt lat="43.49575" lon="6.63201">
        <ele>45.3</ele>
        <time>2025-10-28T11:16:47.000Z</time>
      </trkpt>
      <trkpt lat="43.49577" lon="6.63204">
        <ele>45.3</ele>
        <time>2025-10-28T11:16:48.000Z</time>
      </trkpt>
      <trkpt lat="43.49578" lon="6.63207">
        <ele>45.3</ele>
        <time>2025-10-28T11:16:49.000Z</time>
      </trkpt>
      <trkpt lat="43.4958" lon="6.63211">
        <ele>45.3</ele>
        <time>2025-10-28T11:16:50.000Z</time>
      </trkpt>
      <trkpt lat="43.49582" lon="6.63214">
        <ele>45.3</ele>
        <time>2025-10-28T11:16:51.000Z</time>
      </trkpt>
      <trkpt lat="43.49584" lon="6.63217">
        <ele>45.3</ele>
        <time>2025-10-28T11:16:52.000Z</time>
      </trkpt>
      <trkpt lat="43.49586" lon="6.6322">
        <ele>45.3</ele>
        <time>2025-10-28T11:16:53.000Z</time>
      </trkpt>
      <trkpt lat="43.49587" lon="6.63223">
        <ele>45.3</ele>
        <time>2025-10-28T11:16:54.000Z</time>
      </trkpt>
      <trkpt lat="43.49589" lon="6.63227">
        <ele>45.3</ele>
        <time>2025-10-28T11:16:55.000Z</time>
      </trkpt>
      <trkpt lat="43.49591" lon="6.6323">
        <ele>45.3</ele>
        <time>2025-10-28T11:16:56.000Z</time>
      </trkpt>
      <trkpt lat="43.49593" lon="6.63233">
        <ele>45.3</ele>
        <time>2025-10-28T11:16:57.000Z</time>
      </trkpt>
      <trkpt lat="43.49595" lon="6.63235">
        <ele>45.3</ele>
        <time>2025-10-28T11:16:58.000Z</time>
      </trkpt>
      <trkpt lat="43.49596" lon="6.63238">
        <ele>45.3</ele>
        <time>2025-10-28T11:16:59.000Z</time>
      </trkpt>
      <trkpt lat="43.49597" lon="6.6324">
        <ele>45.2</ele>
        <time>2025-10-28T11:17:00.000Z</time>
      </trkpt>
      <trkpt lat="43.49598" lon="6.63242">
        <ele>45.1</ele>
        <time>2025-10-28T11:17:01.000Z</time>
      </trkpt>
      <trkpt lat="43.49599" lon="6.63244">
        <ele>45.1</ele>
        <time>2025-10-28T11:17:02.000Z</time>
      </trkpt>
      <trkpt lat="43.496" lon="6.63245">
        <ele>45</ele>
        <time>2025-10-28T11:17:03.000Z</time>
      </trkpt>
      <trkpt lat="43.49601" lon="6.63247">
        <ele>44.9</ele>
        <time>2025-10-28T11:17:04.000Z</time>
      </trkpt>
      <trkpt lat="43.49602" lon="6.63249">
        <ele>44.8</ele>
        <time>2025-10-28T11:17:05.000Z</time>
      </trkpt>
      <trkpt lat="43.49604" lon="6.63252">
        <ele>44.7</ele>
        <time>2025-10-28T11:17:06.000Z</time>
      </trkpt>
      <trkpt lat="43.49605" lon="6.63254">
        <ele>44.6</ele>
        <time>2025-10-28T11:17:07.000Z</time>
      </trkpt>
      <trkpt lat="43.49607" lon="6.63257">
        <ele>44.4</ele>
        <time>2025-10-28T11:17:08.000Z</time>
      </trkpt>
      <trkpt lat="43.49608" lon="6.63261">
        <ele>44.3</ele>
        <time>2025-10-28T11:17:09.000Z</time>
      </trkpt>
      <trkpt lat="43.49611" lon="6.63264">
        <ele>44.1</ele>
        <time>2025-10-28T11:17:10.000Z</time>
      </trkpt>
      <trkpt lat="43.49613" lon="6.63267">
        <ele>44</ele>
        <time>2025-10-28T11:17:11.000Z</time>
      </trkpt>
      <trkpt lat="43.49614" lon="6.63271">
        <ele>44</ele>
        <time>2025-10-28T11:17:12.000Z</time>
      </trkpt>
      <trkpt lat="43.49616" lon="6.63274">
        <ele>43.9</ele>
        <time>2025-10-28T11:17:13.000Z</time>
      </trkpt>
      <trkpt lat="43.49618" lon="6.63277">
        <ele>43.9</ele>
        <time>2025-10-28T11:17:14.000Z</time>
      </trkpt>
      <trkpt lat="43.49619" lon="6.6328">
        <ele>44</ele>
        <time>2025-10-28T11:17:15.000Z</time>
      </trkpt>
      <trkpt lat="43.49621" lon="6.63283">
        <ele>44</ele>
        <time>2025-10-28T11:17:16.000Z</time>
      </trkpt>
      <trkpt lat="43.49623" lon="6.63286">
        <ele>44.1</ele>
        <time>2025-10-28T11:17:17.000Z</time>
      </trkpt>
      <trkpt lat="43.49626" lon="6.6329">
        <ele>44.2</ele>
        <time>2025-10-28T11:17:18.000Z</time>
      </trkpt>
      <trkpt lat="43.49628" lon="6.63293">
        <ele>44.3</ele>
        <time>2025-10-28T11:17:19.000Z</time>
      </trkpt>
      <trkpt lat="43.4963" lon="6.63296">
        <ele>44.4</ele>
        <time>2025-10-28T11:17:20.000Z</time>
      </trkpt>
      <trkpt lat="43.49632" lon="6.633">
        <ele>44.5</ele>
        <time>2025-10-28T11:17:21.000Z</time>
      </trkpt>
      <trkpt lat="43.49634" lon="6.63303">
        <ele>44.6</ele>
        <time>2025-10-28T11:17:22.000Z</time>
      </trkpt>
      <trkpt lat="43.49636" lon="6.63306">
        <ele>44.6</ele>
        <time>2025-10-28T11:17:23.000Z</time>
      </trkpt>
      <trkpt lat="43.49638" lon="6.6331">
        <ele>44.6</ele>
        <time>2025-10-28T11:17:24.000Z</time>
      </trkpt>
      <trkpt lat="43.4964" lon="6.63313">
        <ele>44.6</ele>
        <time>2025-10-28T11:17:25.000Z</time>
      </trkpt>
      <trkpt lat="43.49642" lon="6.63316">
        <ele>44.5</ele>
        <time>2025-10-28T11:17:26.000Z</time>
      </trkpt>
      <trkpt lat="43.49644" lon="6.6332">
        <ele>44.4</ele>
        <time>2025-10-28T11:17:27.000Z</time>
      </trkpt>
      <trkpt lat="43.49646" lon="6.63324">
        <ele>44.2</ele>
        <time>2025-10-28T11:17:28.000Z</time>
      </trkpt>
      <trkpt lat="43.49649" lon="6.63328">
        <ele>44.1</ele>
        <time>2025-10-28T11:17:29.000Z</time>
      </trkpt>
      <trkpt lat="43.49652" lon="6.63332">
        <ele>43.9</ele>
        <time>2025-10-28T11:17:30.000Z</time>
      </trkpt>
      <trkpt lat="43.49655" lon="6.63336">
        <ele>43.8</ele>
        <time>2025-10-28T11:17:31.000Z</time>
      </trkpt>
      <trkpt lat="43.49659" lon="6.6334">
        <ele>43.7</ele>
        <time>2025-10-28T11:17:32.000Z</time>
      </trkpt>
      <trkpt lat="43.49662" lon="6.63344">
        <ele>43.7</ele>
        <time>2025-10-28T11:17:33.000Z</time>
      </trkpt>
      <trkpt lat="43.49665" lon="6.63348">
        <ele>43.8</ele>
        <time>2025-10-28T11:17:34.000Z</time>
      </trkpt>
      <trkpt lat="43.49668" lon="6.63351">
        <ele>43.9</ele>
        <time>2025-10-28T11:17:35.000Z</time>
      </trkpt>
      <trkpt lat="43.49671" lon="6.63354">
        <ele>44</ele>
        <time>2025-10-28T11:17:36.000Z</time>
      </trkpt>
      <trkpt lat="43.49674" lon="6.63358">
        <ele>44.2</ele>
        <time>2025-10-28T11:17:37.000Z</time>
      </trkpt>
      <trkpt lat="43.49677" lon="6.63361">
        <ele>44.5</ele>
        <time>2025-10-28T11:17:38.000Z</time>
      </trkpt>
      <trkpt lat="43.4968" lon="6.63364">
        <ele>44.7</ele>
        <time>2025-10-28T11:17:39.000Z</time>
      </trkpt>
      <trkpt lat="43.49683" lon="6.63367">
        <ele>45.1</ele>
        <time>2025-10-28T11:17:40.000Z</time>
      </trkpt>
      <trkpt lat="43.49686" lon="6.6337">
        <ele>45.4</ele>
        <time>2025-10-28T11:17:41.000Z</time>
      </trkpt>
      <trkpt lat="43.49689" lon="6.63373">
        <ele>45.8</ele>
        <time>2025-10-28T11:17:42.000Z</time>
      </trkpt>
      <trkpt lat="43.49692" lon="6.63376">
        <ele>46.2</ele>
        <time>2025-10-28T11:17:43.000Z</time>
      </trkpt>
      <trkpt lat="43.49696" lon="6.63378">
        <ele>46.6</ele>
        <time>2025-10-28T11:17:44.000Z</time>
      </trkpt>
      <trkpt lat="43.49699" lon="6.63381">
        <ele>47</ele>
        <time>2025-10-28T11:17:45.000Z</time>
      </trkpt>
      <trkpt lat="43.49702" lon="6.63383">
        <ele>47.4</ele>
        <time>2025-10-28T11:17:46.000Z</time>
      </trkpt>
      <trkpt lat="43.49705" lon="6.63385">
        <ele>47.6</ele>
        <time>2025-10-28T11:17:47.000Z</time>
      </trkpt>
      <trkpt lat="43.49709" lon="6.63386">
        <ele>47.8</ele>
        <time>2025-10-28T11:17:48.000Z</time>
      </trkpt>
      <trkpt lat="43.49712" lon="6.63387">
        <ele>48</ele>
        <time>2025-10-28T11:17:49.000Z</time>
      </trkpt>
      <trkpt lat="43.49715" lon="6.63388">
        <ele>48.2</ele>
        <time>2025-10-28T11:17:50.000Z</time>
      </trkpt>
      <trkpt lat="43.49718" lon="6.6339">
        <ele>48.3</ele>
        <time>2025-10-28T11:17:51.000Z</time>
      </trkpt>
      <trkpt lat="43.49722" lon="6.63392">
        <ele>48.4</ele>
        <time>2025-10-28T11:17:52.000Z</time>
      </trkpt>
      <trkpt lat="43.49725" lon="6.63394">
        <ele>48.5</ele>
        <time>2025-10-28T11:17:53.000Z</time>
      </trkpt>
      <trkpt lat="43.49728" lon="6.63396">
        <ele>48.6</ele>
        <time>2025-10-28T11:17:54.000Z</time>
      </trkpt>
      <trkpt lat="43.49731" lon="6.63398">
        <ele>48.7</ele>
        <time>2025-10-28T11:17:55.000Z</time>
      </trkpt>
      <trkpt lat="43.49734" lon="6.63401">
        <ele>48.7</ele>
        <time>2025-10-28T11:17:56.000Z</time>
      </trkpt>
      <trkpt lat="43.49736" lon="6.63404">
        <ele>48.8</ele>
        <time>2025-10-28T11:17:57.000Z</time>
      </trkpt>
      <trkpt lat="43.49739" lon="6.63407">
        <ele>48.9</ele>
        <time>2025-10-28T11:17:58.000Z</time>
      </trkpt>
      <trkpt lat="43.49742" lon="6.6341">
        <ele>48.9</ele>
        <time>2025-10-28T11:17:59.000Z</time>
      </trkpt>
      <trkpt lat="43.49745" lon="6.63414">
        <ele>49</ele>
        <time>2025-10-28T11:18:00.000Z</time>
      </trkpt>
      <trkpt lat="43.49747" lon="6.63417">
        <ele>49</ele>
        <time>2025-10-28T11:18:01.000Z</time>
      </trkpt>
      <trkpt lat="43.4975" lon="6.63421">
        <ele>49</ele>
        <time>2025-10-28T11:18:02.000Z</time>
      </trkpt>
      <trkpt lat="43.49752" lon="6.63424">
        <ele>49</ele>
        <time>2025-10-28T11:18:03.000Z</time>
      </trkpt>
      <trkpt lat="43.49755" lon="6.63428">
        <ele>49.1</ele>
        <time>2025-10-28T11:18:04.000Z</time>
      </trkpt>
      <trkpt lat="43.49757" lon="6.63432">
        <ele>49.1</ele>
        <time>2025-10-28T11:18:05.000Z</time>
      </trkpt>
      <trkpt lat="43.4976" lon="6.63435">
        <ele>49.1</ele>
        <time>2025-10-28T11:18:06.000Z</time>
      </trkpt>
      <trkpt lat="43.49761" lon="6.63439">
        <ele>49.2</ele>
        <time>2025-10-28T11:18:07.000Z</time>
      </trkpt>
      <trkpt lat="43.49762" lon="6.63443">
        <ele>49.2</ele>
        <time>2025-10-28T11:18:08.000Z</time>
      </trkpt>
      <trkpt lat="43.49763" lon="6.63447">
        <ele>49.2</ele>
        <time>2025-10-28T11:18:09.000Z</time>
      </trkpt>
      <trkpt lat="43.49763" lon="6.6345">
        <ele>49.2</ele>
        <time>2025-10-28T11:18:10.000Z</time>
      </trkpt>
      <trkpt lat="43.49763" lon="6.63454">
        <ele>49.3</ele>
        <time>2025-10-28T11:18:11.000Z</time>
      </trkpt>
      <trkpt lat="43.49762" lon="6.63457">
        <ele>49.3</ele>
        <time>2025-10-28T11:18:12.000Z</time>
      </trkpt>
      <trkpt lat="43.4976" lon="6.6346">
        <ele>49.3</ele>
        <time>2025-10-28T11:18:13.000Z</time>
      </trkpt>
      <trkpt lat="43.49759" lon="6.63463">
        <ele>49.3</ele>
        <time>2025-10-28T11:18:14.000Z</time>
      </trkpt>
      <trkpt lat="43.49758" lon="6.63466">
        <ele>49.3</ele>
        <time>2025-10-28T11:18:15.000Z</time>
      </trkpt>
      <trkpt lat="43.49756" lon="6.63469">
        <ele>49.4</ele>
        <time>2025-10-28T11:18:16.000Z</time>
      </trkpt>
      <trkpt lat="43.49755" lon="6.63473">
        <ele>49.4</ele>
        <time>2025-10-28T11:18:17.000Z</time>
      </trkpt>
      <trkpt lat="43.49754" lon="6.63476">
        <ele>49.4</ele>
        <time>2025-10-28T11:18:18.000Z</time>
      </trkpt>
      <trkpt lat="43.49753" lon="6.63479">
        <ele>49.4</ele>
        <time>2025-10-28T11:18:19.000Z</time>
      </trkpt>
      <trkpt lat="43.49752" lon="6.63483">
        <ele>49.5</ele>
        <time>2025-10-28T11:18:20.000Z</time>
      </trkpt>
      <trkpt lat="43.49751" lon="6.63487">
        <ele>49.5</ele>
        <time>2025-10-28T11:18:21.000Z</time>
      </trkpt>
      <trkpt lat="43.49749" lon="6.63492">
        <ele>49.5</ele>
        <time>2025-10-28T11:18:22.000Z</time>
      </trkpt>
      <trkpt lat="43.49748" lon="6.63496">
        <ele>49.5</ele>
        <time>2025-10-28T11:18:23.000Z</time>
      </trkpt>
      <trkpt lat="43.49747" lon="6.635">
        <ele>49.6</ele>
        <time>2025-10-28T11:18:24.000Z</time>
      </trkpt>
      <trkpt lat="43.49746" lon="6.63504">
        <ele>49.6</ele>
        <time>2025-10-28T11:18:25.000Z</time>
      </trkpt>
      <trkpt lat="43.49745" lon="6.63506">
        <ele>49.6</ele>
        <time>2025-10-28T11:18:26.000Z</time>
      </trkpt>
      <trkpt lat="43.49745" lon="6.63507">
        <ele>49.6</ele>
        <time>2025-10-28T11:18:27.000Z</time>
      </trkpt>
      <trkpt lat="43.49745" lon="6.63507">
        <ele>49.6</ele>
        <time>2025-10-28T11:18:28.000Z</time>
      </trkpt>
      <trkpt lat="43.49745" lon="6.63507">
        <ele>49.6</ele>
        <time>2025-10-28T11:18:29.000Z</time>
      </trkpt>
      <trkpt lat="43.49745" lon="6.63507">
        <ele>49.6</ele>
        <time>2025-10-28T11:18:30.000Z</time>
      </trkpt>
      <trkpt lat="43.49745" lon="6.63507">
        <ele>49.6</ele>
        <time>2025-10-28T11:18:31.000Z</time>
      </trkpt>
      <trkpt lat="43.49745" lon="6.63507">
        <ele>49.6</ele>
        <time>2025-10-28T11:18:32.000Z</time>
      </trkpt>
      <trkpt lat="43.49745" lon="6.63507">
        <ele>49.6</ele>
        <time>2025-10-28T11:18:33.000Z</time>
      </trkpt>
      <trkpt lat="43.49745" lon="6.63507">
        <ele>49.6</ele>
        <time>2025-10-28T11:18:34.000Z</time>
      </trkpt>
      <trkpt lat="43.49745" lon="6.63506">
        <ele>49.6</ele>
        <time>2025-10-28T11:18:35.000Z</time>
      </trkpt>
      <trkpt lat="43.49745" lon="6.63506">
        <ele>49.6</ele>
        <time>2025-10-28T11:18:36.000Z</time>
      </trkpt>
      <trkpt lat="43.49745" lon="6.63506">
        <ele>49.6</ele>
        <time>2025-10-28T11:18:37.000Z</time>
      </trkpt>
      <trkpt lat="43.49746" lon="6.63507">
        <ele>49.6</ele>
        <time>2025-10-28T11:18:38.000Z</time>
      </trkpt>
      <trkpt lat="43.49746" lon="6.63508">
        <ele>49.6</ele>
        <time>2025-10-28T11:18:39.000Z</time>
      </trkpt>
      <trkpt lat="43.49746" lon="6.63509">
        <ele>49.7</ele>
        <time>2025-10-28T11:18:40.000Z</time>
      </trkpt>
      <trkpt lat="43.49746" lon="6.63511">
        <ele>49.7</ele>
        <time>2025-10-28T11:18:41.000Z</time>
      </trkpt>
      <trkpt lat="43.49748" lon="6.63513">
        <ele>49.7</ele>
        <time>2025-10-28T11:18:42.000Z</time>
      </trkpt>
      <trkpt lat="43.49749" lon="6.63515">
        <ele>49.7</ele>
        <time>2025-10-28T11:18:43.000Z</time>
      </trkpt>
      <trkpt lat="43.49751" lon="6.63517">
        <ele>49.7</ele>
        <time>2025-10-28T11:18:44.000Z</time>
      </trkpt>
      <trkpt lat="43.49752" lon="6.63519">
        <ele>49.7</ele>
        <time>2025-10-28T11:18:45.000Z</time>
      </trkpt>
      <trkpt lat="43.49754" lon="6.63522">
        <ele>49.8</ele>
        <time>2025-10-28T11:18:46.000Z</time>
      </trkpt>
      <trkpt lat="43.49756" lon="6.63525">
        <ele>49.8</ele>
        <time>2025-10-28T11:18:47.000Z</time>
      </trkpt>
      <trkpt lat="43.49758" lon="6.63528">
        <ele>49.8</ele>
        <time>2025-10-28T11:18:48.000Z</time>
      </trkpt>
      <trkpt lat="43.49759" lon="6.6353">
        <ele>49.9</ele>
        <time>2025-10-28T11:18:49.000Z</time>
      </trkpt>
      <trkpt lat="43.49761" lon="6.63532">
        <ele>49.9</ele>
        <time>2025-10-28T11:18:50.000Z</time>
      </trkpt>
      <trkpt lat="43.49762" lon="6.63533">
        <ele>49.9</ele>
        <time>2025-10-28T11:18:51.000Z</time>
      </trkpt>
      <trkpt lat="43.49763" lon="6.63534">
        <ele>49.9</ele>
        <time>2025-10-28T11:18:52.000Z</time>
      </trkpt>
      <trkpt lat="43.49764" lon="6.63536">
        <ele>49.9</ele>
        <time>2025-10-28T11:18:53.000Z</time>
      </trkpt>
      <trkpt lat="43.49766" lon="6.63539">
        <ele>50</ele>
        <time>2025-10-28T11:18:54.000Z</time>
      </trkpt>
      <trkpt lat="43.49767" lon="6.63542">
        <ele>50</ele>
        <time>2025-10-28T11:18:55.000Z</time>
      </trkpt>
      <trkpt lat="43.49769" lon="6.63546">
        <ele>50.1</ele>
        <time>2025-10-28T11:18:56.000Z</time>
      </trkpt>
      <trkpt lat="43.49771" lon="6.63549">
        <ele>50.1</ele>
        <time>2025-10-28T11:18:57.000Z</time>
      </trkpt>
      <trkpt lat="43.49773" lon="6.63553">
        <ele>50.2</ele>
        <time>2025-10-28T11:18:58.000Z</time>
      </trkpt>
      <trkpt lat="43.49775" lon="6.63557">
        <ele>50.2</ele>
        <time>2025-10-28T11:18:59.000Z</time>
      </trkpt>
      <trkpt lat="43.49777" lon="6.63562">
        <ele>50.3</ele>
        <time>2025-10-28T11:19:00.000Z</time>
      </trkpt>
      <trkpt lat="43.49779" lon="6.63566">
        <ele>50.4</ele>
        <time>2025-10-28T11:19:01.000Z</time>
      </trkpt>
      <trkpt lat="43.49782" lon="6.63569">
        <ele>50.4</ele>
        <time>2025-10-28T11:19:02.000Z</time>
      </trkpt>
      <trkpt lat="43.49786" lon="6.63572">
        <ele>50.5</ele>
        <time>2025-10-28T11:19:03.000Z</time>
      </trkpt>
      <trkpt lat="43.49789" lon="6.63575">
        <ele>50.6</ele>
        <time>2025-10-28T11:19:04.000Z</time>
      </trkpt>
      <trkpt lat="43.49792" lon="6.63577">
        <ele>50.6</ele>
        <time>2025-10-28T11:19:05.000Z</time>
      </trkpt>
      <trkpt lat="43.49796" lon="6.6358">
        <ele>50.7</ele>
        <time>2025-10-28T11:19:06.000Z</time>
      </trkpt>
      <trkpt lat="43.49799" lon="6.63582">
        <ele>50.7</ele>
        <time>2025-10-28T11:19:07.000Z</time>
      </trkpt>
      <trkpt lat="43.49801" lon="6.63585">
        <ele>50.8</ele>
        <time>2025-10-28T11:19:08.000Z</time>
      </trkpt>
      <trkpt lat="43.49805" lon="6.63588">
        <ele>50.9</ele>
        <time>2025-10-28T11:19:09.000Z</time>
      </trkpt>
      <trkpt lat="43.49808" lon="6.6359">
        <ele>51</ele>
        <time>2025-10-28T11:19:10.000Z</time>
      </trkpt>
      <trkpt lat="43.49812" lon="6.63591">
        <ele>51.1</ele>
        <time>2025-10-28T11:19:11.000Z</time>
      </trkpt>
      <trkpt lat="43.49815" lon="6.63592">
        <ele>51.1</ele>
        <time>2025-10-28T11:19:12.000Z</time>
      </trkpt>
      <trkpt lat="43.49818" lon="6.63593">
        <ele>51.2</ele>
        <time>2025-10-28T11:19:13.000Z</time>
      </trkpt>
      <trkpt lat="43.49821" lon="6.63596">
        <ele>51.3</ele>
        <time>2025-10-28T11:19:14.000Z</time>
      </trkpt>
      <trkpt lat="43.49824" lon="6.63597">
        <ele>51.3</ele>
        <time>2025-10-28T11:19:15.000Z</time>
      </trkpt>
      <trkpt lat="43.49828" lon="6.63599">
        <ele>51.4</ele>
        <time>2025-10-28T11:19:16.000Z</time>
      </trkpt>
      <trkpt lat="43.49832" lon="6.63599">
        <ele>51.5</ele>
        <time>2025-10-28T11:19:17.000Z</time>
      </trkpt>
      <trkpt lat="43.49835" lon="6.636">
        <ele>51.5</ele>
        <time>2025-10-28T11:19:18.000Z</time>
      </trkpt>
      <trkpt lat="43.49839" lon="6.636">
        <ele>51.6</ele>
        <time>2025-10-28T11:19:19.000Z</time>
      </trkpt>
      <trkpt lat="43.49843" lon="6.63601">
        <ele>51.6</ele>
        <time>2025-10-28T11:19:20.000Z</time>
      </trkpt>
      <trkpt lat="43.49846" lon="6.63603">
        <ele>51.7</ele>
        <time>2025-10-28T11:19:21.000Z</time>
      </trkpt>
      <trkpt lat="43.49849" lon="6.63606">
        <ele>51.7</ele>
        <time>2025-10-28T11:19:22.000Z</time>
      </trkpt>
      <trkpt lat="43.49852" lon="6.63611">
        <ele>51.7</ele>
        <time>2025-10-28T11:19:23.000Z</time>
      </trkpt>
      <trkpt lat="43.49854" lon="6.63616">
        <ele>51.8</ele>
        <time>2025-10-28T11:19:24.000Z</time>
      </trkpt>
      <trkpt lat="43.49856" lon="6.63621">
        <ele>51.8</ele>
        <time>2025-10-28T11:19:25.000Z</time>
      </trkpt>
      <trkpt lat="43.49858" lon="6.63626">
        <ele>51.9</ele>
        <time>2025-10-28T11:19:26.000Z</time>
      </trkpt>
      <trkpt lat="43.49861" lon="6.63631">
        <ele>51.9</ele>
        <time>2025-10-28T11:19:27.000Z</time>
      </trkpt>
      <trkpt lat="43.49863" lon="6.63635">
        <ele>52</ele>
        <time>2025-10-28T11:19:28.000Z</time>
      </trkpt>
      <trkpt lat="43.49865" lon="6.63639">
        <ele>52</ele>
        <time>2025-10-28T11:19:29.000Z</time>
      </trkpt>
      <trkpt lat="43.49866" lon="6.63643">
        <ele>52.1</ele>
        <time>2025-10-28T11:19:30.000Z</time>
      </trkpt>
      <trkpt lat="43.49868" lon="6.63647">
        <ele>52.1</ele>
        <time>2025-10-28T11:19:31.000Z</time>
      </trkpt>
      <trkpt lat="43.49869" lon="6.63651">
        <ele>52.2</ele>
        <time>2025-10-28T11:19:32.000Z</time>
      </trkpt>
      <trkpt lat="43.49871" lon="6.63656">
        <ele>52.2</ele>
        <time>2025-10-28T11:19:33.000Z</time>
      </trkpt>
      <trkpt lat="43.49873" lon="6.6366">
        <ele>52.3</ele>
        <time>2025-10-28T11:19:34.000Z</time>
      </trkpt>
      <trkpt lat="43.49874" lon="6.63663">
        <ele>52.3</ele>
        <time>2025-10-28T11:19:35.000Z</time>
      </trkpt>
      <trkpt lat="43.49876" lon="6.63667">
        <ele>52.4</ele>
        <time>2025-10-28T11:19:36.000Z</time>
      </trkpt>
      <trkpt lat="43.49878" lon="6.63671">
        <ele>52.4</ele>
        <time>2025-10-28T11:19:37.000Z</time>
      </trkpt>
      <trkpt lat="43.49879" lon="6.63675">
        <ele>52.4</ele>
        <time>2025-10-28T11:19:38.000Z</time>
      </trkpt>
      <trkpt lat="43.4988" lon="6.6368">
        <ele>52.5</ele>
        <time>2025-10-28T11:19:39.000Z</time>
      </trkpt>
      <trkpt lat="43.49881" lon="6.63684">
        <ele>52.5</ele>
        <time>2025-10-28T11:19:40.000Z</time>
      </trkpt>
      <trkpt lat="43.49882" lon="6.63689">
        <ele>52.5</ele>
        <time>2025-10-28T11:19:41.000Z</time>
      </trkpt>
      <trkpt lat="43.49883" lon="6.63694">
        <ele>52.6</ele>
        <time>2025-10-28T11:19:42.000Z</time>
      </trkpt>
      <trkpt lat="43.49884" lon="6.63698">
        <ele>52.6</ele>
        <time>2025-10-28T11:19:43.000Z</time>
      </trkpt>
      <trkpt lat="43.49886" lon="6.63701">
        <ele>52.6</ele>
        <time>2025-10-28T11:19:44.000Z</time>
      </trkpt>
      <trkpt lat="43.49888" lon="6.63704">
        <ele>52.6</ele>
        <time>2025-10-28T11:19:45.000Z</time>
      </trkpt>
      <trkpt lat="43.49891" lon="6.63706">
        <ele>52.6</ele>
        <time>2025-10-28T11:19:46.000Z</time>
      </trkpt>
      <trkpt lat="43.49893" lon="6.63708">
        <ele>52.6</ele>
        <time>2025-10-28T11:19:47.000Z</time>
      </trkpt>
      <trkpt lat="43.49896" lon="6.63709">
        <ele>52.6</ele>
        <time>2025-10-28T11:19:48.000Z</time>
      </trkpt>
      <trkpt lat="43.49899" lon="6.6371">
        <ele>52.7</ele>
        <time>2025-10-28T11:19:49.000Z</time>
      </trkpt>
      <trkpt lat="43.49902" lon="6.63712">
        <ele>52.7</ele>
        <time>2025-10-28T11:19:50.000Z</time>
      </trkpt>
      <trkpt lat="43.49905" lon="6.63713">
        <ele>52.7</ele>
        <time>2025-10-28T11:19:51.000Z</time>
      </trkpt>
      <trkpt lat="43.49909" lon="6.63715">
        <ele>52.7</ele>
        <time>2025-10-28T11:19:52.000Z</time>
      </trkpt>
      <trkpt lat="43.49912" lon="6.63717">
        <ele>52.8</ele>
        <time>2025-10-28T11:19:53.000Z</time>
      </trkpt>
      <trkpt lat="43.49914" lon="6.63719">
        <ele>52.8</ele>
        <time>2025-10-28T11:19:54.000Z</time>
      </trkpt>
      <trkpt lat="43.49917" lon="6.63721">
        <ele>52.8</ele>
        <time>2025-10-28T11:19:55.000Z</time>
      </trkpt>
      <trkpt lat="43.49919" lon="6.63724">
        <ele>52.9</ele>
        <time>2025-10-28T11:19:56.000Z</time>
      </trkpt>
      <trkpt lat="43.49921" lon="6.63726">
        <ele>52.9</ele>
        <time>2025-10-28T11:19:57.000Z</time>
      </trkpt>
      <trkpt lat="43.49923" lon="6.63728">
        <ele>53</ele>
        <time>2025-10-28T11:19:58.000Z</time>
      </trkpt>
      <trkpt lat="43.49924" lon="6.6373">
        <ele>53</ele>
        <time>2025-10-28T11:19:59.000Z</time>
      </trkpt>
      <trkpt lat="43.49926" lon="6.63732">
        <ele>53.1</ele>
        <time>2025-10-28T11:20:00.000Z</time>
      </trkpt>
      <trkpt lat="43.49927" lon="6.63735">
        <ele>53.1</ele>
        <time>2025-10-28T11:20:01.000Z</time>
      </trkpt>
      <trkpt lat="43.49926" lon="6.63737">
        <ele>53.1</ele>
        <time>2025-10-28T11:20:02.000Z</time>
      </trkpt>
      <trkpt lat="43.49926" lon="6.6374">
        <ele>53.2</ele>
        <time>2025-10-28T11:20:03.000Z</time>
      </trkpt>
      <trkpt lat="43.49925" lon="6.63743">
        <ele>53.2</ele>
        <time>2025-10-28T11:20:04.000Z</time>
      </trkpt>
      <trkpt lat="43.49924" lon="6.63748">
        <ele>53.2</ele>
        <time>2025-10-28T11:20:05.000Z</time>
      </trkpt>
      <trkpt lat="43.49922" lon="6.63752">
        <ele>53.2</ele>
        <time>2025-10-28T11:20:06.000Z</time>
      </trkpt>
      <trkpt lat="43.49919" lon="6.63756">
        <ele>53.2</ele>
        <time>2025-10-28T11:20:07.000Z</time>
      </trkpt>
      <trkpt lat="43.49917" lon="6.6376">
        <ele>53.1</ele>
        <time>2025-10-28T11:20:08.000Z</time>
      </trkpt>
      <trkpt lat="43.49914" lon="6.63763">
        <ele>53.1</ele>
        <time>2025-10-28T11:20:09.000Z</time>
      </trkpt>
      <trkpt lat="43.49911" lon="6.63767">
        <ele>53</ele>
        <time>2025-10-28T11:20:10.000Z</time>
      </trkpt>
      <trkpt lat="43.49909" lon="6.63771">
        <ele>52.9</ele>
        <time>2025-10-28T11:20:11.000Z</time>
      </trkpt>
      <trkpt lat="43.49907" lon="6.63775">
        <ele>52.7</ele>
        <time>2025-10-28T11:20:12.000Z</time>
      </trkpt>
      <trkpt lat="43.49904" lon="6.63779">
        <ele>52.6</ele>
        <time>2025-10-28T11:20:13.000Z</time>
      </trkpt>
      <trkpt lat="43.49902" lon="6.63784">
        <ele>52.4</ele>
        <time>2025-10-28T11:20:14.000Z</time>
      </trkpt>
      <trkpt lat="43.499" lon="6.63789">
        <ele>52.2</ele>
        <time>2025-10-28T11:20:15.000Z</time>
      </trkpt>
      <trkpt lat="43.49899" lon="6.63794">
        <ele>52</ele>
        <time>2025-10-28T11:20:16.000Z</time>
      </trkpt>
      <trkpt lat="43.49897" lon="6.638">
        <ele>51.8</ele>
        <time>2025-10-28T11:20:17.000Z</time>
      </trkpt>
      <trkpt lat="43.49896" lon="6.63806">
        <ele>51.7</ele>
        <time>2025-10-28T11:20:18.000Z</time>
      </trkpt>
      <trkpt lat="43.49895" lon="6.63812">
        <ele>51.6</ele>
        <time>2025-10-28T11:20:19.000Z</time>
      </trkpt>
      <trkpt lat="43.49894" lon="6.63818">
        <ele>51.5</ele>
        <time>2025-10-28T11:20:20.000Z</time>
      </trkpt>
      <trkpt lat="43.49894" lon="6.63823">
        <ele>51.5</ele>
        <time>2025-10-28T11:20:21.000Z</time>
      </trkpt>
      <trkpt lat="43.49893" lon="6.63829">
        <ele>51.5</ele>
        <time>2025-10-28T11:20:22.000Z</time>
      </trkpt>
      <trkpt lat="43.49893" lon="6.63835">
        <ele>51.5</ele>
        <time>2025-10-28T11:20:23.000Z</time>
      </trkpt>
      <trkpt lat="43.49892" lon="6.63841">
        <ele>51.5</ele>
        <time>2025-10-28T11:20:24.000Z</time>
      </trkpt>
      <trkpt lat="43.4989" lon="6.63846">
        <ele>51.6</ele>
        <time>2025-10-28T11:20:25.000Z</time>
      </trkpt>
      <trkpt lat="43.49889" lon="6.63851">
        <ele>51.6</ele>
        <time>2025-10-28T11:20:26.000Z</time>
      </trkpt>
      <trkpt lat="43.49888" lon="6.63856">
        <ele>51.6</ele>
        <time>2025-10-28T11:20:27.000Z</time>
      </trkpt>
      <trkpt lat="43.49888" lon="6.63861">
        <ele>51.7</ele>
        <time>2025-10-28T11:20:28.000Z</time>
      </trkpt>
      <trkpt lat="43.49888" lon="6.63866">
        <ele>51.8</ele>
        <time>2025-10-28T11:20:29.000Z</time>
      </trkpt>
      <trkpt lat="43.49888" lon="6.63871">
        <ele>51.9</ele>
        <time>2025-10-28T11:20:30.000Z</time>
      </trkpt>
      <trkpt lat="43.49889" lon="6.63875">
        <ele>52</ele>
        <time>2025-10-28T11:20:31.000Z</time>
      </trkpt>
      <trkpt lat="43.49891" lon="6.6388">
        <ele>52.2</ele>
        <time>2025-10-28T11:20:32.000Z</time>
      </trkpt>
      <trkpt lat="43.49892" lon="6.63884">
        <ele>52.4</ele>
        <time>2025-10-28T11:20:33.000Z</time>
      </trkpt>
      <trkpt lat="43.49893" lon="6.63887">
        <ele>52.5</ele>
        <time>2025-10-28T11:20:34.000Z</time>
      </trkpt>
      <trkpt lat="43.49895" lon="6.63889">
        <ele>52.7</ele>
        <time>2025-10-28T11:20:35.000Z</time>
      </trkpt>
      <trkpt lat="43.49896" lon="6.63892">
        <ele>52.8</ele>
        <time>2025-10-28T11:20:36.000Z</time>
      </trkpt>
      <trkpt lat="43.49898" lon="6.63894">
        <ele>52.9</ele>
        <time>2025-10-28T11:20:37.000Z</time>
      </trkpt>
      <trkpt lat="43.49899" lon="6.63896">
        <ele>53.1</ele>
        <time>2025-10-28T11:20:38.000Z</time>
      </trkpt>
      <trkpt lat="43.49899" lon="6.63898">
        <ele>53.1</ele>
        <time>2025-10-28T11:20:39.000Z</time>
      </trkpt>
      <trkpt lat="43.49899" lon="6.639">
        <ele>53.1</ele>
        <time>2025-10-28T11:20:40.000Z</time>
      </trkpt>
      <trkpt lat="43.49898" lon="6.63903">
        <ele>53.1</ele>
        <time>2025-10-28T11:20:41.000Z</time>
      </trkpt>
      <trkpt lat="43.49897" lon="6.63905">
        <ele>53.1</ele>
        <time>2025-10-28T11:20:42.000Z</time>
      </trkpt>
      <trkpt lat="43.49896" lon="6.63908">
        <ele>53.1</ele>
        <time>2025-10-28T11:20:43.000Z</time>
      </trkpt>
      <trkpt lat="43.49894" lon="6.63911">
        <ele>53.1</ele>
        <time>2025-10-28T11:20:44.000Z</time>
      </trkpt>
      <trkpt lat="43.49892" lon="6.63913">
        <ele>53.1</ele>
        <time>2025-10-28T11:20:45.000Z</time>
      </trkpt>
      <trkpt lat="43.49891" lon="6.63916">
        <ele>53.1</ele>
        <time>2025-10-28T11:20:46.000Z</time>
      </trkpt>
      <trkpt lat="43.4989" lon="6.63918">
        <ele>53.1</ele>
        <time>2025-10-28T11:20:47.000Z</time>
      </trkpt>
      <trkpt lat="43.49889" lon="6.6392">
        <ele>53.2</ele>
        <time>2025-10-28T11:20:48.000Z</time>
      </trkpt>
      <trkpt lat="43.49889" lon="6.63921">
        <ele>53.2</ele>
        <time>2025-10-28T11:20:49.000Z</time>
      </trkpt>
      <trkpt lat="43.49888" lon="6.63921">
        <ele>53.2</ele>
        <time>2025-10-28T11:20:50.000Z</time>
      </trkpt>
      <trkpt lat="43.49888" lon="6.63921">
        <ele>53.2</ele>
        <time>2025-10-28T11:20:51.000Z</time>
      </trkpt>
      <trkpt lat="43.49888" lon="6.63921">
        <ele>53.2</ele>
        <time>2025-10-28T11:20:52.000Z</time>
      </trkpt>
      <trkpt lat="43.49888" lon="6.63921">
        <ele>53.2</ele>
        <time>2025-10-28T11:20:53.000Z</time>
      </trkpt>
      <trkpt lat="43.49888" lon="6.63921">
        <ele>53.2</ele>
        <time>2025-10-28T11:20:54.000Z</time>
      </trkpt>
      <trkpt lat="43.49888" lon="6.63921">
        <ele>53.2</ele>
        <time>2025-10-28T11:20:55.000Z</time>
      </trkpt>
      <trkpt lat="43.49888" lon="6.63921">
        <ele>53.2</ele>
        <time>2025-10-28T11:20:56.000Z</time>
      </trkpt>
      <trkpt lat="43.49888" lon="6.63921">
        <ele>53.2</ele>
        <time>2025-10-28T11:20:57.000Z</time>
      </trkpt>
      <trkpt lat="43.49888" lon="6.63921">
        <ele>53.2</ele>
        <time>2025-10-28T11:20:58.000Z</time>
      </trkpt>
      <trkpt lat="43.49888" lon="6.63921">
        <ele>53.2</ele>
        <time>2025-10-28T11:20:59.000Z</time>
      </trkpt>
      <trkpt lat="43.49888" lon="6.6392">
        <ele>53.2</ele>
        <time>2025-10-28T11:21:00.000Z</time>
      </trkpt>
      <trkpt lat="43.49888" lon="6.6392">
        <ele>53.2</ele>
        <time>2025-10-28T11:21:01.000Z</time>
      </trkpt>
      <trkpt lat="43.49888" lon="6.6392">
        <ele>53.2</ele>
        <time>2025-10-28T11:21:02.000Z</time>
      </trkpt>
      <trkpt lat="43.49888" lon="6.6392">
        <ele>53.2</ele>
        <time>2025-10-28T11:21:03.000Z</time>
      </trkpt>
      <trkpt lat="43.49888" lon="6.6392">
        <ele>53.2</ele>
        <time>2025-10-28T11:21:04.000Z</time>
      </trkpt>
      <trkpt lat="43.49888" lon="6.6392">
        <ele>53.2</ele>
        <time>2025-10-28T11:21:05.000Z</time>
      </trkpt>
      <trkpt lat="43.49888" lon="6.6392">
        <ele>53.2</ele>
        <time>2025-10-28T11:21:06.000Z</time>
      </trkpt>
      <trkpt lat="43.49888" lon="6.6392">
        <ele>53.2</ele>
        <time>2025-10-28T11:21:07.000Z</time>
      </trkpt>
      <trkpt lat="43.49888" lon="6.6392">
        <ele>53.2</ele>
        <time>2025-10-28T11:21:08.000Z</time>
      </trkpt>
      <trkpt lat="43.49888" lon="6.6392">
        <ele>53.2</ele>
        <time>2025-10-28T11:21:09.000Z</time>
      </trkpt>
      <trkpt lat="43.49888" lon="6.6392">
        <ele>53.2</ele>
        <time>2025-10-28T11:21:10.000Z</time>
      </trkpt>
      <trkpt lat="43.49888" lon="6.6392">
        <ele>53.2</ele>
        <time>2025-10-28T11:21:11.000Z</time>
      </trkpt>
      <trkpt lat="43.49888" lon="6.6392">
        <ele>53.2</ele>
        <time>2025-10-28T11:21:12.000Z</time>
      </trkpt>
      <trkpt lat="43.49888" lon="6.6392">
        <ele>53.2</ele>
        <time>2025-10-28T11:21:13.000Z</time>
      </trkpt>
      <trkpt lat="43.49888" lon="6.6392">
        <ele>53.2</ele>
        <time>2025-10-28T11:21:14.000Z</time>
      </trkpt>
      <trkpt lat="43.49888" lon="6.6392">
        <ele>53.2</ele>
        <time>2025-10-28T11:21:15.000Z</time>
      </trkpt>
      <trkpt lat="43.49888" lon="6.6392">
        <ele>53.2</ele>
        <time>2025-10-28T11:21:16.000Z</time>
      </trkpt>
      <trkpt lat="43.49888" lon="6.6392">
        <ele>53.2</ele>
        <time>2025-10-28T11:21:17.000Z</time>
      </trkpt>
      <trkpt lat="43.49888" lon="6.6392">
        <ele>53.2</ele>
        <time>2025-10-28T11:21:18.000Z</time>
      </trkpt>
      <trkpt lat="43.49888" lon="6.6392">
        <ele>53.2</ele>
        <time>2025-10-28T11:21:19.000Z</time>
      </trkpt>
      <trkpt lat="43.49888" lon="6.6392">
        <ele>53.2</ele>
        <time>2025-10-28T11:21:20.000Z</time>
      </trkpt>
      <trkpt lat="43.49888" lon="6.6392">
        <ele>53.2</ele>
        <time>2025-10-28T11:21:21.000Z</time>
      </trkpt>
      <trkpt lat="43.49888" lon="6.6392">
        <ele>53.2</ele>
        <time>2025-10-28T11:21:22.000Z</time>
      </trkpt>
      <trkpt lat="43.49888" lon="6.6392">
        <ele>53.2</ele>
        <time>2025-10-28T11:21:23.000Z</time>
      </trkpt>
      <trkpt lat="43.49888" lon="6.6392">
        <ele>53.2</ele>
        <time>2025-10-28T11:21:24.000Z</time>
      </trkpt>
      <trkpt lat="43.49888" lon="6.6392">
        <ele>53.2</ele>
        <time>2025-10-28T11:21:25.000Z</time>
      </trkpt>
      <trkpt lat="43.49888" lon="6.6392">
        <ele>53.2</ele>
        <time>2025-10-28T11:21:26.000Z</time>
      </trkpt>
      <trkpt lat="43.49888" lon="6.6392">
        <ele>53.2</ele>
        <time>2025-10-28T11:21:27.000Z</time>
      </trkpt>
      <trkpt lat="43.49888" lon="6.6392">
        <ele>53.2</ele>
        <time>2025-10-28T11:21:28.000Z</time>
      </trkpt>
      <trkpt lat="43.49888" lon="6.6392">
        <ele>53.2</ele>
        <time>2025-10-28T11:21:29.000Z</time>
      </trkpt>
      <trkpt lat="43.49888" lon="6.6392">
        <ele>53.2</ele>
        <time>2025-10-28T11:21:30.000Z</time>
      </trkpt>
      <trkpt lat="43.49888" lon="6.6392">
        <ele>53.2</ele>
        <time>2025-10-28T11:21:31.000Z</time>
      </trkpt>
      <trkpt lat="43.49888" lon="6.6392">
        <ele>53.2</ele>
        <time>2025-10-28T11:21:32.000Z</time>
      </trkpt>
      <trkpt lat="43.49888" lon="6.6392">
        <ele>53.2</ele>
        <time>2025-10-28T11:21:33.000Z</time>
      </trkpt>
      <trkpt lat="43.49888" lon="6.6392">
        <ele>53.2</ele>
        <time>2025-10-28T11:21:34.000Z</time>
      </trkpt>
      <trkpt lat="43.49888" lon="6.6392">
        <ele>53.2</ele>
        <time>2025-10-28T11:21:35.000Z</time>
      </trkpt>
      <trkpt lat="43.49888" lon="6.6392">
        <ele>53.2</ele>
        <time>2025-10-28T11:21:36.000Z</time>
      </trkpt>
      <trkpt lat="43.49888" lon="6.6392">
        <ele>53.2</ele>
        <time>2025-10-28T11:21:37.000Z</time>
      </trkpt>
      <trkpt lat="43.49888" lon="6.6392">
        <ele>53.2</ele>
        <time>2025-10-28T11:21:38.000Z</time>
      </trkpt>
      <trkpt lat="43.49888" lon="6.6392">
        <ele>53.2</ele>
        <time>2025-10-28T11:21:39.000Z</time>
      </trkpt>
      <trkpt lat="43.49888" lon="6.6392">
        <ele>53.2</ele>
        <time>2025-10-28T11:21:40.000Z</time>
      </trkpt>
      <trkpt lat="43.49888" lon="6.6392">
        <ele>53.2</ele>
        <time>2025-10-28T11:21:41.000Z</time>
      </trkpt>
      <trkpt lat="43.49889" lon="6.6392">
        <ele>53.2</ele>
        <time>2025-10-28T11:21:42.000Z</time>
      </trkpt>
      <trkpt lat="43.49889" lon="6.6392">
        <ele>53.2</ele>
        <time>2025-10-28T11:21:43.000Z</time>
      </trkpt>
      <trkpt lat="43.49889" lon="6.6392">
        <ele>53.2</ele>
        <time>2025-10-28T11:21:44.000Z</time>
      </trkpt>
      <trkpt lat="43.49889" lon="6.6392">
        <ele>53.2</ele>
        <time>2025-10-28T11:21:45.000Z</time>
      </trkpt>
      <trkpt lat="43.49889" lon="6.6392">
        <ele>53.2</ele>
        <time>2025-10-28T11:21:46.000Z</time>
      </trkpt>
      <trkpt lat="43.49889" lon="6.63919">
        <ele>53.2</ele>
        <time>2025-10-28T11:21:47.000Z</time>
      </trkpt>
      <trkpt lat="43.49889" lon="6.63919">
        <ele>53.2</ele>
        <time>2025-10-28T11:21:48.000Z</time>
      </trkpt>
      <trkpt lat="43.49889" lon="6.63919">
        <ele>53.2</ele>
        <time>2025-10-28T11:21:49.000Z</time>
      </trkpt>
      <trkpt lat="43.49889" lon="6.63919">
        <ele>53.2</ele>
        <time>2025-10-28T11:21:50.000Z</time>
      </trkpt>
      <trkpt lat="43.49889" lon="6.63919">
        <ele>53.2</ele>
        <time>2025-10-28T11:21:51.000Z</time>
      </trkpt>
      <trkpt lat="43.49889" lon="6.63919">
        <ele>53.2</ele>
        <time>2025-10-28T11:21:52.000Z</time>
      </trkpt>
      <trkpt lat="43.49889" lon="6.63919">
        <ele>53.2</ele>
        <time>2025-10-28T11:21:53.000Z</time>
      </trkpt>
      <trkpt lat="43.49889" lon="6.63919">
        <ele>53.2</ele>
        <time>2025-10-28T11:21:54.000Z</time>
      </trkpt>
      <trkpt lat="43.49889" lon="6.63919">
        <ele>53.2</ele>
        <time>2025-10-28T11:21:55.000Z</time>
      </trkpt>
      <trkpt lat="43.49889" lon="6.63919">
        <ele>53.2</ele>
        <time>2025-10-28T11:21:56.000Z</time>
      </trkpt>
      <trkpt lat="43.49889" lon="6.63919">
        <ele>53.2</ele>
        <time>2025-10-28T11:21:57.000Z</time>
      </trkpt>
      <trkpt lat="43.49889" lon="6.63919">
        <ele>53.2</ele>
        <time>2025-10-28T11:21:58.000Z</time>
      </trkpt>
      <trkpt lat="43.49889" lon="6.63919">
        <ele>53.2</ele>
        <time>2025-10-28T11:21:59.000Z</time>
      </trkpt>
      <trkpt lat="43.49889" lon="6.63919">
        <ele>53.2</ele>
        <time>2025-10-28T11:22:00.000Z</time>
      </trkpt>
      <trkpt lat="43.49889" lon="6.63919">
        <ele>53.2</ele>
        <time>2025-10-28T11:22:01.000Z</time>
      </trkpt>
      <trkpt lat="43.49889" lon="6.63919">
        <ele>53.2</ele>
        <time>2025-10-28T11:22:02.000Z</time>
      </trkpt>
      <trkpt lat="43.49887" lon="6.63921">
        <ele>53.2</ele>
        <time>2025-10-28T11:22:03.000Z</time>
      </trkpt>
      <trkpt lat="43.49885" lon="6.63922">
        <ele>53.2</ele>
        <time>2025-10-28T11:22:04.000Z</time>
      </trkpt>
      <trkpt lat="43.49882" lon="6.63924">
        <ele>53.2</ele>
        <time>2025-10-28T11:22:05.000Z</time>
      </trkpt>
      <trkpt lat="43.4988" lon="6.63926">
        <ele>53.2</ele>
        <time>2025-10-28T11:22:06.000Z</time>
      </trkpt>
      <trkpt lat="43.49877" lon="6.63927">
        <ele>53.2</ele>
        <time>2025-10-28T11:22:07.000Z</time>
      </trkpt>
      <trkpt lat="43.49874" lon="6.63928">
        <ele>53.2</ele>
        <time>2025-10-28T11:22:08.000Z</time>
      </trkpt>
      <trkpt lat="43.4987" lon="6.6393">
        <ele>53.2</ele>
        <time>2025-10-28T11:22:09.000Z</time>
      </trkpt>
      <trkpt lat="43.49867" lon="6.63931">
        <ele>53.2</ele>
        <time>2025-10-28T11:22:10.000Z</time>
      </trkpt>
      <trkpt lat="43.49864" lon="6.63933">
        <ele>53.3</ele>
        <time>2025-10-28T11:22:11.000Z</time>
      </trkpt>
      <trkpt lat="43.4986" lon="6.63934">
        <ele>53.3</ele>
        <time>2025-10-28T11:22:12.000Z</time>
      </trkpt>
      <trkpt lat="43.49858" lon="6.63935">
        <ele>53.3</ele>
        <time>2025-10-28T11:22:13.000Z</time>
      </trkpt>
      <trkpt lat="43.49855" lon="6.63936">
        <ele>53.4</ele>
        <time>2025-10-28T11:22:14.000Z</time>
      </trkpt>
      <trkpt lat="43.49852" lon="6.63937">
        <ele>53.4</ele>
        <time>2025-10-28T11:22:15.000Z</time>
      </trkpt>
      <trkpt lat="43.4985" lon="6.63938">
        <ele>53.5</ele>
        <time>2025-10-28T11:22:16.000Z</time>
      </trkpt>
      <trkpt lat="43.49847" lon="6.6394">
        <ele>53.5</ele>
        <time>2025-10-28T11:22:17.000Z</time>
      </trkpt>
      <trkpt lat="43.49843" lon="6.63941">
        <ele>53.6</ele>
        <time>2025-10-28T11:22:18.000Z</time>
      </trkpt>
      <trkpt lat="43.4984" lon="6.63942">
        <ele>53.7</ele>
        <time>2025-10-28T11:22:19.000Z</time>
      </trkpt>
      <trkpt lat="43.49836" lon="6.63942">
        <ele>53.8</ele>
        <time>2025-10-28T11:22:20.000Z</time>
      </trkpt>
      <trkpt lat="43.49832" lon="6.63943">
        <ele>53.9</ele>
        <time>2025-10-28T11:22:21.000Z</time>
      </trkpt>
      <trkpt lat="43.49829" lon="6.63945">
        <ele>54</ele>
        <time>2025-10-28T11:22:22.000Z</time>
      </trkpt>
      <trkpt lat="43.49826" lon="6.63946">
        <ele>54.1</ele>
        <time>2025-10-28T11:22:23.000Z</time>
      </trkpt>
      <trkpt lat="43.49823" lon="6.63948">
        <ele>54.2</ele>
        <time>2025-10-28T11:22:24.000Z</time>
      </trkpt>
      <trkpt lat="43.49819" lon="6.63949">
        <ele>54.4</ele>
        <time>2025-10-28T11:22:25.000Z</time>
      </trkpt>
      <trkpt lat="43.49816" lon="6.63951">
        <ele>54.5</ele>
        <time>2025-10-28T11:22:26.000Z</time>
      </trkpt>
      <trkpt lat="43.49813" lon="6.63952">
        <ele>54.7</ele>
        <time>2025-10-28T11:22:27.000Z</time>
      </trkpt>
      <trkpt lat="43.49809" lon="6.63954">
        <ele>54.8</ele>
        <time>2025-10-28T11:22:28.000Z</time>
      </trkpt>
      <trkpt lat="43.49806" lon="6.63955">
        <ele>55</ele>
        <time>2025-10-28T11:22:29.000Z</time>
      </trkpt>
      <trkpt lat="43.49803" lon="6.63957">
        <ele>55.1</ele>
        <time>2025-10-28T11:22:30.000Z</time>
      </trkpt>
      <trkpt lat="43.498" lon="6.63959">
        <ele>55.3</ele>
        <time>2025-10-28T11:22:31.000Z</time>
      </trkpt>
      <trkpt lat="43.49797" lon="6.63962">
        <ele>55.5</ele>
        <time>2025-10-28T11:22:32.000Z</time>
      </trkpt>
      <trkpt lat="43.49794" lon="6.63965">
        <ele>55.7</ele>
        <time>2025-10-28T11:22:33.000Z</time>
      </trkpt>
      <trkpt lat="43.49791" lon="6.63968">
        <ele>55.9</ele>
        <time>2025-10-28T11:22:34.000Z</time>
      </trkpt>
      <trkpt lat="43.49789" lon="6.63972">
        <ele>56.1</ele>
        <time>2025-10-28T11:22:35.000Z</time>
      </trkpt>
      <trkpt lat="43.49787" lon="6.63976">
        <ele>56.4</ele>
        <time>2025-10-28T11:22:36.000Z</time>
      </trkpt>
      <trkpt lat="43.49785" lon="6.6398">
        <ele>56.6</ele>
        <time>2025-10-28T11:22:37.000Z</time>
      </trkpt>
      <trkpt lat="43.49783" lon="6.63984">
        <ele>56.9</ele>
        <time>2025-10-28T11:22:38.000Z</time>
      </trkpt>
      <trkpt lat="43.49781" lon="6.63988">
        <ele>57.2</ele>
        <time>2025-10-28T11:22:39.000Z</time>
      </trkpt>
      <trkpt lat="43.49779" lon="6.63993">
        <ele>57.5</ele>
        <time>2025-10-28T11:22:40.000Z</time>
      </trkpt>
      <trkpt lat="43.49777" lon="6.63998">
        <ele>57.7</ele>
        <time>2025-10-28T11:22:41.000Z</time>
      </trkpt>
      <trkpt lat="43.49775" lon="6.64002">
        <ele>58</ele>
        <time>2025-10-28T11:22:42.000Z</time>
      </trkpt>
      <trkpt lat="43.49773" lon="6.64007">
        <ele>58.2</ele>
        <time>2025-10-28T11:22:43.000Z</time>
      </trkpt>
      <trkpt lat="43.4977" lon="6.64011">
        <ele>58.4</ele>
        <time>2025-10-28T11:22:44.000Z</time>
      </trkpt>
      <trkpt lat="43.49768" lon="6.64015">
        <ele>58.6</ele>
        <time>2025-10-28T11:22:45.000Z</time>
      </trkpt>
      <trkpt lat="43.49765" lon="6.64019">
        <ele>58.8</ele>
        <time>2025-10-28T11:22:46.000Z</time>
      </trkpt>
      <trkpt lat="43.49762" lon="6.64023">
        <ele>59</ele>
        <time>2025-10-28T11:22:47.000Z</time>
      </trkpt>
      <trkpt lat="43.49759" lon="6.64026">
        <ele>59.3</ele>
        <time>2025-10-28T11:22:48.000Z</time>
      </trkpt>
      <trkpt lat="43.49756" lon="6.6403">
        <ele>59.5</ele>
        <time>2025-10-28T11:22:49.000Z</time>
      </trkpt>
      <trkpt lat="43.49753" lon="6.64034">
        <ele>59.7</ele>
        <time>2025-10-28T11:22:50.000Z</time>
      </trkpt>
      <trkpt lat="43.49749" lon="6.64038">
        <ele>60</ele>
        <time>2025-10-28T11:22:51.000Z</time>
      </trkpt>
      <trkpt lat="43.49746" lon="6.64042">
        <ele>60.2</ele>
        <time>2025-10-28T11:22:52.000Z</time>
      </trkpt>
      <trkpt lat="43.49742" lon="6.64046">
        <ele>60.4</ele>
        <time>2025-10-28T11:22:53.000Z</time>
      </trkpt>
      <trkpt lat="43.49738" lon="6.6405">
        <ele>60.7</ele>
        <time>2025-10-28T11:22:54.000Z</time>
      </trkpt>
      <trkpt lat="43.49735" lon="6.64054">
        <ele>60.9</ele>
        <time>2025-10-28T11:22:55.000Z</time>
      </trkpt>
      <trkpt lat="43.49731" lon="6.64058">
        <ele>61.1</ele>
        <time>2025-10-28T11:22:56.000Z</time>
      </trkpt>
      <trkpt lat="43.49727" lon="6.64062">
        <ele>61.4</ele>
        <time>2025-10-28T11:22:57.000Z</time>
      </trkpt>
      <trkpt lat="43.49723" lon="6.64067">
        <ele>61.6</ele>
        <time>2025-10-28T11:22:58.000Z</time>
      </trkpt>
      <trkpt lat="43.49719" lon="6.64071">
        <ele>61.9</ele>
        <time>2025-10-28T11:22:59.000Z</time>
      </trkpt>
      <trkpt lat="43.49716" lon="6.64076">
        <ele>62.1</ele>
        <time>2025-10-28T11:23:00.000Z</time>
      </trkpt>
      <trkpt lat="43.49713" lon="6.6408">
        <ele>62.3</ele>
        <time>2025-10-28T11:23:01.000Z</time>
      </trkpt>
      <trkpt lat="43.4971" lon="6.64084">
        <ele>62.4</ele>
        <time>2025-10-28T11:23:02.000Z</time>
      </trkpt>
      <trkpt lat="43.49707" lon="6.64087">
        <ele>62.5</ele>
        <time>2025-10-28T11:23:03.000Z</time>
      </trkpt>
      <trkpt lat="43.49703" lon="6.64089">
        <ele>62.6</ele>
        <time>2025-10-28T11:23:04.000Z</time>
      </trkpt>
      <trkpt lat="43.49698" lon="6.64091">
        <ele>62.6</ele>
        <time>2025-10-28T11:23:05.000Z</time>
      </trkpt>
      <trkpt lat="43.49694" lon="6.64093">
        <ele>62.6</ele>
        <time>2025-10-28T11:23:06.000Z</time>
      </trkpt>
      <trkpt lat="43.4969" lon="6.64096">
        <ele>62.7</ele>
        <time>2025-10-28T11:23:07.000Z</time>
      </trkpt>
      <trkpt lat="43.49687" lon="6.64099">
        <ele>62.9</ele>
        <time>2025-10-28T11:23:08.000Z</time>
      </trkpt>
      <trkpt lat="43.49683" lon="6.64103">
        <ele>63</ele>
        <time>2025-10-28T11:23:09.000Z</time>
      </trkpt>
      <trkpt lat="43.4968" lon="6.64106">
        <ele>63.2</ele>
        <time>2025-10-28T11:23:10.000Z</time>
      </trkpt>
      <trkpt lat="43.49677" lon="6.6411">
        <ele>63.4</ele>
        <time>2025-10-28T11:23:11.000Z</time>
      </trkpt>
      <trkpt lat="43.49674" lon="6.64114">
        <ele>63.6</ele>
        <time>2025-10-28T11:23:12.000Z</time>
      </trkpt>
      <trkpt lat="43.49671" lon="6.64118">
        <ele>63.8</ele>
        <time>2025-10-28T11:23:13.000Z</time>
      </trkpt>
      <trkpt lat="43.49669" lon="6.64122">
        <ele>63.9</ele>
        <time>2025-10-28T11:23:14.000Z</time>
      </trkpt>
      <trkpt lat="43.49667" lon="6.64125">
        <ele>64.1</ele>
        <time>2025-10-28T11:23:15.000Z</time>
      </trkpt>
      <trkpt lat="43.49664" lon="6.64127">
        <ele>64.3</ele>
        <time>2025-10-28T11:23:16.000Z</time>
      </trkpt>
      <trkpt lat="43.4966" lon="6.64126">
        <ele>64.3</ele>
        <time>2025-10-28T11:23:17.000Z</time>
      </trkpt>
      <trkpt lat="43.49656" lon="6.64125">
        <ele>64.3</ele>
        <time>2025-10-28T11:23:18.000Z</time>
      </trkpt>
      <trkpt lat="43.49652" lon="6.64122">
        <ele>64.4</ele>
        <time>2025-10-28T11:23:19.000Z</time>
      </trkpt>
      <trkpt lat="43.49646" lon="6.64119">
        <ele>64.4</ele>
        <time>2025-10-28T11:23:20.000Z</time>
      </trkpt>
      <trkpt lat="43.49641" lon="6.64116">
        <ele>64.4</ele>
        <time>2025-10-28T11:23:21.000Z</time>
      </trkpt>
      <trkpt lat="43.49635" lon="6.64112">
        <ele>64.4</ele>
        <time>2025-10-28T11:23:22.000Z</time>
      </trkpt>
      <trkpt lat="43.49629" lon="6.64109">
        <ele>64.4</ele>
        <time>2025-10-28T11:23:23.000Z</time>
      </trkpt>
      <trkpt lat="43.49623" lon="6.64107">
        <ele>64.4</ele>
        <time>2025-10-28T11:23:24.000Z</time>
      </trkpt>
      <trkpt lat="43.49616" lon="6.64105">
        <ele>64.4</ele>
        <time>2025-10-28T11:23:25.000Z</time>
      </trkpt>
      <trkpt lat="43.4961" lon="6.64103">
        <ele>64.4</ele>
        <time>2025-10-28T11:23:26.000Z</time>
      </trkpt>
      <trkpt lat="43.49603" lon="6.641">
        <ele>64.4</ele>
        <time>2025-10-28T11:23:27.000Z</time>
      </trkpt>
      <trkpt lat="43.49597" lon="6.64097">
        <ele>64.4</ele>
        <time>2025-10-28T11:23:28.000Z</time>
      </trkpt>
      <trkpt lat="43.49592" lon="6.64093">
        <ele>64.4</ele>
        <time>2025-10-28T11:23:29.000Z</time>
      </trkpt>
      <trkpt lat="43.49586" lon="6.64089">
        <ele>64.4</ele>
        <time>2025-10-28T11:23:30.000Z</time>
      </trkpt>
      <trkpt lat="43.4958" lon="6.64085">
        <ele>64.3</ele>
        <time>2025-10-28T11:23:31.000Z</time>
      </trkpt>
      <trkpt lat="43.49574" lon="6.64084">
        <ele>64.2</ele>
        <time>2025-10-28T11:23:32.000Z</time>
      </trkpt>
      <trkpt lat="43.49568" lon="6.64085">
        <ele>64.2</ele>
        <time>2025-10-28T11:23:33.000Z</time>
      </trkpt>
      <trkpt lat="43.49564" lon="6.64089">
        <ele>64.2</ele>
        <time>2025-10-28T11:23:34.000Z</time>
      </trkpt>
      <trkpt lat="43.49561" lon="6.64095">
        <ele>64.3</ele>
        <time>2025-10-28T11:23:35.000Z</time>
      </trkpt>
      <trkpt lat="43.4956" lon="6.64103">
        <ele>64.3</ele>
        <time>2025-10-28T11:23:36.000Z</time>
      </trkpt>
      <trkpt lat="43.49561" lon="6.64111">
        <ele>64.3</ele>
        <time>2025-10-28T11:23:37.000Z</time>
      </trkpt>
      <trkpt lat="43.49562" lon="6.6412">
        <ele>64.4</ele>
        <time>2025-10-28T11:23:38.000Z</time>
      </trkpt>
      <trkpt lat="43.49563" lon="6.64129">
        <ele>64.6</ele>
        <time>2025-10-28T11:23:39.000Z</time>
      </trkpt>
      <trkpt lat="43.49563" lon="6.64138">
        <ele>64.9</ele>
        <time>2025-10-28T11:23:40.000Z</time>
      </trkpt>
      <trkpt lat="43.49563" lon="6.64148">
        <ele>65.1</ele>
        <time>2025-10-28T11:23:41.000Z</time>
      </trkpt>
      <trkpt lat="43.49562" lon="6.64157">
        <ele>65.4</ele>
        <time>2025-10-28T11:23:42.000Z</time>
      </trkpt>
      <trkpt lat="43.49561" lon="6.64165">
        <ele>65.7</ele>
        <time>2025-10-28T11:23:43.000Z</time>
      </trkpt>
      <trkpt lat="43.4956" lon="6.64174">
        <ele>66</ele>
        <time>2025-10-28T11:23:44.000Z</time>
      </trkpt>
      <trkpt lat="43.49558" lon="6.64183">
        <ele>66.4</ele>
        <time>2025-10-28T11:23:45.000Z</time>
      </trkpt>
      <trkpt lat="43.49556" lon="6.64191">
        <ele>66.7</ele>
        <time>2025-10-28T11:23:46.000Z</time>
      </trkpt>
      <trkpt lat="43.49554" lon="6.642">
        <ele>67.1</ele>
        <time>2025-10-28T11:23:47.000Z</time>
      </trkpt>
      <trkpt lat="43.49552" lon="6.64208">
        <ele>67.4</ele>
        <time>2025-10-28T11:23:48.000Z</time>
      </trkpt>
      <trkpt lat="43.4955" lon="6.64215">
        <ele>67.7</ele>
        <time>2025-10-28T11:23:49.000Z</time>
      </trkpt>
      <trkpt lat="43.49546" lon="6.64222">
        <ele>68</ele>
        <time>2025-10-28T11:23:50.000Z</time>
      </trkpt>
      <trkpt lat="43.49542" lon="6.64228">
        <ele>68.3</ele>
        <time>2025-10-28T11:23:51.000Z</time>
      </trkpt>
      <trkpt lat="43.49538" lon="6.64234">
        <ele>68.6</ele>
        <time>2025-10-28T11:23:52.000Z</time>
      </trkpt>
      <trkpt lat="43.49533" lon="6.64239">
        <ele>68.8</ele>
        <time>2025-10-28T11:23:53.000Z</time>
      </trkpt>
      <trkpt lat="43.49528" lon="6.64244">
        <ele>69.1</ele>
        <time>2025-10-28T11:23:54.000Z</time>
      </trkpt>
      <trkpt lat="43.49523" lon="6.64249">
        <ele>69.3</ele>
        <time>2025-10-28T11:23:55.000Z</time>
      </trkpt>
      <trkpt lat="43.49518" lon="6.64254">
        <ele>69.6</ele>
        <time>2025-10-28T11:23:56.000Z</time>
      </trkpt>
      <trkpt lat="43.49514" lon="6.6426">
        <ele>69.8</ele>
        <time>2025-10-28T11:23:57.000Z</time>
      </trkpt>
      <trkpt lat="43.49511" lon="6.64267">
        <ele>70</ele>
        <time>2025-10-28T11:23:58.000Z</time>
      </trkpt>
      <trkpt lat="43.49509" lon="6.64273">
        <ele>70.2</ele>
        <time>2025-10-28T11:23:59.000Z</time>
      </trkpt>
      <trkpt lat="43.49507" lon="6.64282">
        <ele>70.5</ele>
        <time>2025-10-28T11:24:00.000Z</time>
      </trkpt>
      <trkpt lat="43.49506" lon="6.64288">
        <ele>70.6</ele>
        <time>2025-10-28T11:24:01.000Z</time>
      </trkpt>
      <trkpt lat="43.49505" lon="6.64295">
        <ele>70.8</ele>
        <time>2025-10-28T11:24:02.000Z</time>
      </trkpt>
      <trkpt lat="43.49506" lon="6.64302">
        <ele>70.8</ele>
        <time>2025-10-28T11:24:03.000Z</time>
      </trkpt>
      <trkpt lat="43.49507" lon="6.64308">
        <ele>70.8</ele>
        <time>2025-10-28T11:24:04.000Z</time>
      </trkpt>
      <trkpt lat="43.49508" lon="6.64315">
        <ele>70.7</ele>
        <time>2025-10-28T11:24:05.000Z</time>
      </trkpt>
      <trkpt lat="43.4951" lon="6.64323">
        <ele>70.5</ele>
        <time>2025-10-28T11:24:06.000Z</time>
      </trkpt>
      <trkpt lat="43.49513" lon="6.64329">
        <ele>70.3</ele>
        <time>2025-10-28T11:24:07.000Z</time>
      </trkpt>
      <trkpt lat="43.49517" lon="6.64336">
        <ele>70</ele>
        <time>2025-10-28T11:24:08.000Z</time>
      </trkpt>
      <trkpt lat="43.49521" lon="6.64343">
        <ele>69.7</ele>
        <time>2025-10-28T11:24:09.000Z</time>
      </trkpt>
      <trkpt lat="43.49526" lon="6.64349">
        <ele>69.3</ele>
        <time>2025-10-28T11:24:10.000Z</time>
      </trkpt>
      <trkpt lat="43.49531" lon="6.64354">
        <ele>68.9</ele>
        <time>2025-10-28T11:24:11.000Z</time>
      </trkpt>
      <trkpt lat="43.49536" lon="6.64361">
        <ele>68.4</ele>
        <time>2025-10-28T11:24:12.000Z</time>
      </trkpt>
      <trkpt lat="43.49541" lon="6.64365">
        <ele>68.1</ele>
        <time>2025-10-28T11:24:13.000Z</time>
      </trkpt>
      <trkpt lat="43.49548" lon="6.64373">
        <ele>67.9</ele>
        <time>2025-10-28T11:24:14.000Z</time>
      </trkpt>
      <trkpt lat="43.49554" lon="6.6438">
        <ele>67.8</ele>
        <time>2025-10-28T11:24:15.000Z</time>
      </trkpt>
      <trkpt lat="43.4956" lon="6.64387">
        <ele>68</ele>
        <time>2025-10-28T11:24:16.000Z</time>
      </trkpt>
      <trkpt lat="43.49565" lon="6.64394">
        <ele>68.1</ele>
        <time>2025-10-28T11:24:17.000Z</time>
      </trkpt>
      <trkpt lat="43.49569" lon="6.64401">
        <ele>68.1</ele>
        <time>2025-10-28T11:24:18.000Z</time>
      </trkpt>
      <trkpt lat="43.49572" lon="6.64408">
        <ele>68</ele>
        <time>2025-10-28T11:24:19.000Z</time>
      </trkpt>
      <trkpt lat="43.49575" lon="6.64415">
        <ele>67.8</ele>
        <time>2025-10-28T11:24:20.000Z</time>
      </trkpt>
      <trkpt lat="43.49577" lon="6.64422">
        <ele>67.5</ele>
        <time>2025-10-28T11:24:21.000Z</time>
      </trkpt>
      <trkpt lat="43.49578" lon="6.64429">
        <ele>67.1</ele>
        <time>2025-10-28T11:24:22.000Z</time>
      </trkpt>
      <trkpt lat="43.49579" lon="6.64437">
        <ele>66.7</ele>
        <time>2025-10-28T11:24:23.000Z</time>
      </trkpt>
      <trkpt lat="43.49579" lon="6.64446">
        <ele>66.2</ele>
        <time>2025-10-28T11:24:24.000Z</time>
      </trkpt>
      <trkpt lat="43.49578" lon="6.64455">
        <ele>65.7</ele>
        <time>2025-10-28T11:24:25.000Z</time>
      </trkpt>
      <trkpt lat="43.49577" lon="6.64465">
        <ele>65.3</ele>
        <time>2025-10-28T11:24:26.000Z</time>
      </trkpt>
      <trkpt lat="43.49575" lon="6.64475">
        <ele>65.1</ele>
        <time>2025-10-28T11:24:27.000Z</time>
      </trkpt>
      <trkpt lat="43.49573" lon="6.64484">
        <ele>65.2</ele>
        <time>2025-10-28T11:24:28.000Z</time>
      </trkpt>
      <trkpt lat="43.49571" lon="6.64494">
        <ele>65.4</ele>
        <time>2025-10-28T11:24:29.000Z</time>
      </trkpt>
      <trkpt lat="43.49569" lon="6.64502">
        <ele>65.6</ele>
        <time>2025-10-28T11:24:30.000Z</time>
      </trkpt>
      <trkpt lat="43.49567" lon="6.6451">
        <ele>65.9</ele>
        <time>2025-10-28T11:24:31.000Z</time>
      </trkpt>
      <trkpt lat="43.49566" lon="6.64516">
        <ele>66.1</ele>
        <time>2025-10-28T11:24:32.000Z</time>
      </trkpt>
      <trkpt lat="43.49564" lon="6.64521">
        <ele>66.2</ele>
        <time>2025-10-28T11:24:33.000Z</time>
      </trkpt>
      <trkpt lat="43.49561" lon="6.64525">
        <ele>65.9</ele>
        <time>2025-10-28T11:24:34.000Z</time>
      </trkpt>
      <trkpt lat="43.49558" lon="6.64527">
        <ele>65.5</ele>
        <time>2025-10-28T11:24:35.000Z</time>
      </trkpt>
      <trkpt lat="43.49553" lon="6.64527">
        <ele>64.9</ele>
        <time>2025-10-28T11:24:36.000Z</time>
      </trkpt>
      <trkpt lat="43.49548" lon="6.64527">
        <ele>64.1</ele>
        <time>2025-10-28T11:24:37.000Z</time>
      </trkpt>
      <trkpt lat="43.49541" lon="6.64527">
        <ele>63.1</ele>
        <time>2025-10-28T11:24:38.000Z</time>
      </trkpt>
      <trkpt lat="43.49534" lon="6.64528">
        <ele>62</ele>
        <time>2025-10-28T11:24:39.000Z</time>
      </trkpt>
      <trkpt lat="43.49527" lon="6.64531">
        <ele>61.2</ele>
        <time>2025-10-28T11:24:40.000Z</time>
      </trkpt>
      <trkpt lat="43.4952" lon="6.64535">
        <ele>60.4</ele>
        <time>2025-10-28T11:24:41.000Z</time>
      </trkpt>
      <trkpt lat="43.49513" lon="6.64541">
        <ele>59.8</ele>
        <time>2025-10-28T11:24:42.000Z</time>
      </trkpt>
      <trkpt lat="43.49506" lon="6.64548">
        <ele>59.3</ele>
        <time>2025-10-28T11:24:43.000Z</time>
      </trkpt>
      <trkpt lat="43.49499" lon="6.64556">
        <ele>58.9</ele>
        <time>2025-10-28T11:24:44.000Z</time>
      </trkpt>
      <trkpt lat="43.49493" lon="6.64564">
        <ele>58.6</ele>
        <time>2025-10-28T11:24:45.000Z</time>
      </trkpt>
      <trkpt lat="43.49487" lon="6.64575">
        <ele>58.5</ele>
        <time>2025-10-28T11:24:46.000Z</time>
      </trkpt>
      <trkpt lat="43.49484" lon="6.64585">
        <ele>58.4</ele>
        <time>2025-10-28T11:24:47.000Z</time>
      </trkpt>
      <trkpt lat="43.49484" lon="6.64596">
        <ele>58.4</ele>
        <time>2025-10-28T11:24:48.000Z</time>
      </trkpt>
      <trkpt lat="43.49486" lon="6.64606">
        <ele>58.4</ele>
        <time>2025-10-28T11:24:49.000Z</time>
      </trkpt>
      <trkpt lat="43.49488" lon="6.64616">
        <ele>58.4</ele>
        <time>2025-10-28T11:24:50.000Z</time>
      </trkpt>
      <trkpt lat="43.49491" lon="6.64624">
        <ele>58.3</ele>
        <time>2025-10-28T11:24:51.000Z</time>
      </trkpt>
      <trkpt lat="43.49494" lon="6.64632">
        <ele>58.2</ele>
        <time>2025-10-28T11:24:52.000Z</time>
      </trkpt>
      <trkpt lat="43.49496" lon="6.6464">
        <ele>57.9</ele>
        <time>2025-10-28T11:24:53.000Z</time>
      </trkpt>
      <trkpt lat="43.49498" lon="6.64648">
        <ele>57.5</ele>
        <time>2025-10-28T11:24:54.000Z</time>
      </trkpt>
      <trkpt lat="43.49499" lon="6.64656">
        <ele>57.1</ele>
        <time>2025-10-28T11:24:55.000Z</time>
      </trkpt>
      <trkpt lat="43.49498" lon="6.64665">
        <ele>56.6</ele>
        <time>2025-10-28T11:24:56.000Z</time>
      </trkpt>
      <trkpt lat="43.49496" lon="6.64673">
        <ele>56.1</ele>
        <time>2025-10-28T11:24:57.000Z</time>
      </trkpt>
      <trkpt lat="43.49492" lon="6.64683">
        <ele>55.7</ele>
        <time>2025-10-28T11:24:58.000Z</time>
      </trkpt>
      <trkpt lat="43.49489" lon="6.64692">
        <ele>55.3</ele>
        <time>2025-10-28T11:24:59.000Z</time>
      </trkpt>
      <trkpt lat="43.49485" lon="6.64702">
        <ele>54.9</ele>
        <time>2025-10-28T11:25:00.000Z</time>
      </trkpt>
      <trkpt lat="43.4948" lon="6.64711">
        <ele>54.4</ele>
        <time>2025-10-28T11:25:01.000Z</time>
      </trkpt>
      <trkpt lat="43.49476" lon="6.6472">
        <ele>54</ele>
        <time>2025-10-28T11:25:02.000Z</time>
      </trkpt>
      <trkpt lat="43.49471" lon="6.64729">
        <ele>53.7</ele>
        <time>2025-10-28T11:25:03.000Z</time>
      </trkpt>
      <trkpt lat="43.49466" lon="6.64737">
        <ele>53.5</ele>
        <time>2025-10-28T11:25:04.000Z</time>
      </trkpt>
      <trkpt lat="43.4946" lon="6.64745">
        <ele>53.4</ele>
        <time>2025-10-28T11:25:05.000Z</time>
      </trkpt>
      <trkpt lat="43.49454" lon="6.64751">
        <ele>53.5</ele>
        <time>2025-10-28T11:25:06.000Z</time>
      </trkpt>
      <trkpt lat="43.49448" lon="6.64756">
        <ele>53.6</ele>
        <time>2025-10-28T11:25:07.000Z</time>
      </trkpt>
      <trkpt lat="43.49442" lon="6.64761">
        <ele>53.7</ele>
        <time>2025-10-28T11:25:08.000Z</time>
      </trkpt>
      <trkpt lat="43.49436" lon="6.64765">
        <ele>53.7</ele>
        <time>2025-10-28T11:25:09.000Z</time>
      </trkpt>
      <trkpt lat="43.49431" lon="6.64769">
        <ele>53.6</ele>
        <time>2025-10-28T11:25:10.000Z</time>
      </trkpt>
      <trkpt lat="43.49425" lon="6.64773">
        <ele>53.5</ele>
        <time>2025-10-28T11:25:11.000Z</time>
      </trkpt>
      <trkpt lat="43.4942" lon="6.64778">
        <ele>53.3</ele>
        <time>2025-10-28T11:25:12.000Z</time>
      </trkpt>
      <trkpt lat="43.49414" lon="6.64782">
        <ele>53.1</ele>
        <time>2025-10-28T11:25:13.000Z</time>
      </trkpt>
      <trkpt lat="43.49409" lon="6.64787">
        <ele>52.8</ele>
        <time>2025-10-28T11:25:14.000Z</time>
      </trkpt>
      <trkpt lat="43.49405" lon="6.64792">
        <ele>52.6</ele>
        <time>2025-10-28T11:25:15.000Z</time>
      </trkpt>
      <trkpt lat="43.49403" lon="6.64799">
        <ele>51.9</ele>
        <time>2025-10-28T11:25:16.000Z</time>
      </trkpt>
      <trkpt lat="43.49402" lon="6.64806">
        <ele>51.6</ele>
        <time>2025-10-28T11:25:17.000Z</time>
      </trkpt>
      <trkpt lat="43.49401" lon="6.64814">
        <ele>51.2</ele>
        <time>2025-10-28T11:25:18.000Z</time>
      </trkpt>
      <trkpt lat="43.49401" lon="6.64821">
        <ele>50.8</ele>
        <time>2025-10-28T11:25:19.000Z</time>
      </trkpt>
      <trkpt lat="43.494" lon="6.64828">
        <ele>50.5</ele>
        <time>2025-10-28T11:25:20.000Z</time>
      </trkpt>
      <trkpt lat="43.49398" lon="6.64834">
        <ele>50.2</ele>
        <time>2025-10-28T11:25:21.000Z</time>
      </trkpt>
      <trkpt lat="43.49396" lon="6.64841">
        <ele>49.9</ele>
        <time>2025-10-28T11:25:22.000Z</time>
      </trkpt>
      <trkpt lat="43.49394" lon="6.64846">
        <ele>49.6</ele>
        <time>2025-10-28T11:25:23.000Z</time>
      </trkpt>
      <trkpt lat="43.49391" lon="6.64851">
        <ele>49.4</ele>
        <time>2025-10-28T11:25:24.000Z</time>
      </trkpt>
      <trkpt lat="43.49388" lon="6.64856">
        <ele>49.2</ele>
        <time>2025-10-28T11:25:25.000Z</time>
      </trkpt>
      <trkpt lat="43.49384" lon="6.6486">
        <ele>49</ele>
        <time>2025-10-28T11:25:26.000Z</time>
      </trkpt>
      <trkpt lat="43.49381" lon="6.64863">
        <ele>48.8</ele>
        <time>2025-10-28T11:25:27.000Z</time>
      </trkpt>
      <trkpt lat="43.49377" lon="6.64866">
        <ele>48.7</ele>
        <time>2025-10-28T11:25:28.000Z</time>
      </trkpt>
      <trkpt lat="43.49374" lon="6.64869">
        <ele>48.6</ele>
        <time>2025-10-28T11:25:29.000Z</time>
      </trkpt>
      <trkpt lat="43.49371" lon="6.64872">
        <ele>48.5</ele>
        <time>2025-10-28T11:25:30.000Z</time>
      </trkpt>
      <trkpt lat="43.49368" lon="6.64874">
        <ele>48.4</ele>
        <time>2025-10-28T11:25:31.000Z</time>
      </trkpt>
      <trkpt lat="43.49367" lon="6.64876">
        <ele>48.3</ele>
        <time>2025-10-28T11:25:32.000Z</time>
      </trkpt>
      <trkpt lat="43.49367" lon="6.64876">
        <ele>48.3</ele>
        <time>2025-10-28T11:25:33.000Z</time>
      </trkpt>
      <trkpt lat="43.49366" lon="6.64876">
        <ele>48.3</ele>
        <time>2025-10-28T11:25:34.000Z</time>
      </trkpt>
      <trkpt lat="43.49366" lon="6.64876">
        <ele>48.3</ele>
        <time>2025-10-28T11:25:35.000Z</time>
      </trkpt>
      <trkpt lat="43.49367" lon="6.64876">
        <ele>48.3</ele>
        <time>2025-10-28T11:25:36.000Z</time>
      </trkpt>
      <trkpt lat="43.49366" lon="6.64876">
        <ele>48.3</ele>
        <time>2025-10-28T11:25:37.000Z</time>
      </trkpt>
      <trkpt lat="43.49366" lon="6.64876">
        <ele>48.2</ele>
        <time>2025-10-28T11:25:38.000Z</time>
      </trkpt>
      <trkpt lat="43.49365" lon="6.64877">
        <ele>48.2</ele>
        <time>2025-10-28T11:25:39.000Z</time>
      </trkpt>
      <trkpt lat="43.49364" lon="6.64878">
        <ele>48.2</ele>
        <time>2025-10-28T11:25:40.000Z</time>
      </trkpt>
      <trkpt lat="43.49364" lon="6.64879">
        <ele>48.2</ele>
        <time>2025-10-28T11:25:41.000Z</time>
      </trkpt>
      <trkpt lat="43.49364" lon="6.6488">
        <ele>48.1</ele>
        <time>2025-10-28T11:25:42.000Z</time>
      </trkpt>
      <trkpt lat="43.49364" lon="6.64881">
        <ele>48.1</ele>
        <time>2025-10-28T11:25:43.000Z</time>
      </trkpt>
      <trkpt lat="43.49365" lon="6.64883">
        <ele>48.1</ele>
        <time>2025-10-28T11:25:44.000Z</time>
      </trkpt>
      <trkpt lat="43.49365" lon="6.64884">
        <ele>48</ele>
        <time>2025-10-28T11:25:45.000Z</time>
      </trkpt>
      <trkpt lat="43.49366" lon="6.64885">
        <ele>48</ele>
        <time>2025-10-28T11:25:46.000Z</time>
      </trkpt>
      <trkpt lat="43.49366" lon="6.64886">
        <ele>48</ele>
        <time>2025-10-28T11:25:47.000Z</time>
      </trkpt>
      <trkpt lat="43.49366" lon="6.64886">
        <ele>48</ele>
        <time>2025-10-28T11:25:48.000Z</time>
      </trkpt>
      <trkpt lat="43.49366" lon="6.64887">
        <ele>48</ele>
        <time>2025-10-28T11:25:49.000Z</time>
      </trkpt>
      <trkpt lat="43.49366" lon="6.64886">
        <ele>48</ele>
        <time>2025-10-28T11:25:50.000Z</time>
      </trkpt>
      <trkpt lat="43.49366" lon="6.64886">
        <ele>48</ele>
        <time>2025-10-28T11:25:51.000Z</time>
      </trkpt>
    </trkseg>
  </trk>
  <trk>
    <name><![CDATA[St Cassien Tour_du_Lac Solo 10-01-25]]></name>
    <extensions>
      <line xmlns="http://www.topografix.com/GPX/gpx_style/0/2">
        <color>0000FF</color>
        <width>3</width>
      </line>
    </extensions>
    <trkseg>
      <trkpt lat="43.55232" lon="6.79372">
        <ele>158.8</ele>
        <time>2025-01-10T11:23:45.000Z</time>
        <extensions>
          <visugpx:TrkExtension xmlns:visugpx="https://www.visugpx.com/editgpx/">
            <visugpx:node>1</visugpx:node>
            </visugpx:TrkExtension>
        </extensions>
      </trkpt>
      <trkpt lat="43.55232" lon="6.79372">
        <ele>158.8</ele>
        <time>2025-01-10T11:23:39.000Z</time>
      </trkpt>
      <trkpt lat="43.55232" lon="6.79373">
        <ele>158.8</ele>
        <time>2025-01-10T11:23:38.000Z</time>
      </trkpt>
      <trkpt lat="43.55232" lon="6.79373">
        <ele>158.8</ele>
        <time>2025-01-10T11:23:37.000Z</time>
      </trkpt>
      <trkpt lat="43.55232" lon="6.79373">
        <ele>158.8</ele>
        <time>2025-01-10T11:23:36.000Z</time>
      </trkpt>
      <trkpt lat="43.55232" lon="6.79373">
        <ele>158.8</ele>
        <time>2025-01-10T11:23:35.000Z</time>
      </trkpt>
      <trkpt lat="43.55232" lon="6.79373">
        <ele>158.8</ele>
        <time>2025-01-10T11:23:34.000Z</time>
      </trkpt>
      <trkpt lat="43.55232" lon="6.79373">
        <ele>158.8</ele>
        <time>2025-01-10T11:23:33.000Z</time>
      </trkpt>
      <trkpt lat="43.55232" lon="6.79373">
        <ele>158.8</ele>
        <time>2025-01-10T11:23:32.000Z</time>
      </trkpt>
      <trkpt lat="43.55232" lon="6.79373">
        <ele>158.8</ele>
        <time>2025-01-10T11:23:31.000Z</time>
      </trkpt>
      <trkpt lat="43.55232" lon="6.79373">
        <ele>158.8</ele>
        <time>2025-01-10T11:23:30.000Z</time>
      </trkpt>
      <trkpt lat="43.55232" lon="6.79373">
        <ele>158.8</ele>
        <time>2025-01-10T11:23:29.000Z</time>
      </trkpt>
      <trkpt lat="43.55232" lon="6.79373">
        <ele>158.8</ele>
        <time>2025-01-10T11:23:28.000Z</time>
      </trkpt>
      <trkpt lat="43.55232" lon="6.79373">
        <ele>158.8</ele>
        <time>2025-01-10T11:23:27.000Z</time>
      </trkpt>
      <trkpt lat="43.55232" lon="6.79373">
        <ele>158.8</ele>
        <time>2025-01-10T11:23:26.000Z</time>
      </trkpt>
      <trkpt lat="43.55232" lon="6.79373">
        <ele>158.8</ele>
        <time>2025-01-10T11:23:25.000Z</time>
      </trkpt>
      <trkpt lat="43.55232" lon="6.79373">
        <ele>158.8</ele>
        <time>2025-01-10T11:23:24.000Z</time>
      </trkpt>
      <trkpt lat="43.55232" lon="6.79373">
        <ele>158.8</ele>
        <time>2025-01-10T11:23:23.000Z</time>
      </trkpt>
      <trkpt lat="43.55232" lon="6.79373">
        <ele>158.8</ele>
        <time>2025-01-10T11:23:22.000Z</time>
      </trkpt>
      <trkpt lat="43.55232" lon="6.79373">
        <ele>158.8</ele>
        <time>2025-01-10T11:23:21.000Z</time>
      </trkpt>
      <trkpt lat="43.55232" lon="6.79373">
        <ele>158.8</ele>
        <time>2025-01-10T11:23:20.000Z</time>
      </trkpt>
      <trkpt lat="43.55232" lon="6.79373">
        <ele>158.8</ele>
        <time>2025-01-10T11:23:19.000Z</time>
      </trkpt>
      <trkpt lat="43.55232" lon="6.79373">
        <ele>158.8</ele>
        <time>2025-01-10T11:23:18.000Z</time>
      </trkpt>
      <trkpt lat="43.55232" lon="6.79373">
        <ele>158.8</ele>
        <time>2025-01-10T11:23:17.000Z</time>
      </trkpt>
      <trkpt lat="43.55232" lon="6.79373">
        <ele>158.8</ele>
        <time>2025-01-10T11:23:16.000Z</time>
      </trkpt>
      <trkpt lat="43.55232" lon="6.79373">
        <ele>158.8</ele>
        <time>2025-01-10T11:23:15.000Z</time>
      </trkpt>
      <trkpt lat="43.55232" lon="6.79373">
        <ele>158.8</ele>
        <time>2025-01-10T11:23:14.000Z</time>
      </trkpt>
      <trkpt lat="43.55232" lon="6.79373">
        <ele>158.8</ele>
        <time>2025-01-10T11:23:13.000Z</time>
      </trkpt>
      <trkpt lat="43.55232" lon="6.79373">
        <ele>158.8</ele>
        <time>2025-01-10T11:23:12.000Z</time>
      </trkpt>
      <trkpt lat="43.55231" lon="6.79373">
        <ele>158.8</ele>
        <time>2025-01-10T11:23:11.000Z</time>
      </trkpt>
      <trkpt lat="43.55231" lon="6.79373">
        <ele>158.8</ele>
        <time>2025-01-10T11:23:10.000Z</time>
      </trkpt>
      <trkpt lat="43.55231" lon="6.79373">
        <ele>158.8</ele>
        <time>2025-01-10T11:23:09.000Z</time>
      </trkpt>
      <trkpt lat="43.55231" lon="6.79373">
        <ele>158.8</ele>
        <time>2025-01-10T11:23:08.000Z</time>
      </trkpt>
      <trkpt lat="43.55231" lon="6.79373">
        <ele>158.8</ele>
        <time>2025-01-10T11:23:07.000Z</time>
      </trkpt>
      <trkpt lat="43.55231" lon="6.79373">
        <ele>158.8</ele>
        <time>2025-01-10T11:23:06.000Z</time>
      </trkpt>
      <trkpt lat="43.55231" lon="6.79373">
        <ele>158.8</ele>
        <time>2025-01-10T11:23:05.000Z</time>
      </trkpt>
      <trkpt lat="43.55231" lon="6.79373">
        <ele>158.8</ele>
        <time>2025-01-10T11:23:04.000Z</time>
      </trkpt>
      <trkpt lat="43.55231" lon="6.79373">
        <ele>158.8</ele>
        <time>2025-01-10T11:23:03.000Z</time>
      </trkpt>
      <trkpt lat="43.55231" lon="6.79373">
        <ele>158.8</ele>
        <time>2025-01-10T11:23:02.000Z</time>
      </trkpt>
      <trkpt lat="43.55231" lon="6.79373">
        <ele>158.8</ele>
        <time>2025-01-10T11:23:01.000Z</time>
      </trkpt>
      <trkpt lat="43.55231" lon="6.79373">
        <ele>158.8</ele>
        <time>2025-01-10T11:23:00.000Z</time>
      </trkpt>
      <trkpt lat="43.55231" lon="6.79373">
        <ele>158.8</ele>
        <time>2025-01-10T11:22:59.000Z</time>
      </trkpt>
      <trkpt lat="43.55231" lon="6.79374">
        <ele>158.8</ele>
        <time>2025-01-10T11:22:58.000Z</time>
      </trkpt>
      <trkpt lat="43.55231" lon="6.79374">
        <ele>158.8</ele>
        <time>2025-01-10T11:22:57.000Z</time>
      </trkpt>
      <trkpt lat="43.55231" lon="6.79374">
        <ele>158.8</ele>
        <time>2025-01-10T11:22:56.000Z</time>
      </trkpt>
      <trkpt lat="43.55231" lon="6.79375">
        <ele>158.9</ele>
        <time>2025-01-10T11:22:55.000Z</time>
      </trkpt>
      <trkpt lat="43.55231" lon="6.79375">
        <ele>158.9</ele>
        <time>2025-01-10T11:22:54.000Z</time>
      </trkpt>
      <trkpt lat="43.55231" lon="6.79375">
        <ele>158.9</ele>
        <time>2025-01-10T11:22:53.000Z</time>
      </trkpt>
      <trkpt lat="43.55231" lon="6.79375">
        <ele>158.9</ele>
        <time>2025-01-10T11:22:52.000Z</time>
      </trkpt>
      <trkpt lat="43.55231" lon="6.79375">
        <ele>158.9</ele>
        <time>2025-01-10T11:22:51.000Z</time>
      </trkpt>
      <trkpt lat="43.55231" lon="6.79375">
        <ele>158.9</ele>
        <time>2025-01-10T11:22:50.000Z</time>
      </trkpt>
      <trkpt lat="43.55231" lon="6.79375">
        <ele>158.9</ele>
        <time>2025-01-10T11:22:49.000Z</time>
      </trkpt>
      <trkpt lat="43.55231" lon="6.79375">
        <ele>158.9</ele>
        <time>2025-01-10T11:22:48.000Z</time>
      </trkpt>
      <trkpt lat="43.55231" lon="6.79375">
        <ele>158.9</ele>
        <time>2025-01-10T11:22:47.000Z</time>
      </trkpt>
      <trkpt lat="43.55231" lon="6.79375">
        <ele>158.9</ele>
        <time>2025-01-10T11:22:46.000Z</time>
      </trkpt>
      <trkpt lat="43.55231" lon="6.79375">
        <ele>158.9</ele>
        <time>2025-01-10T11:22:45.000Z</time>
      </trkpt>
      <trkpt lat="43.55231" lon="6.79375">
        <ele>158.9</ele>
        <time>2025-01-10T11:22:44.000Z</time>
      </trkpt>
      <trkpt lat="43.55231" lon="6.79375">
        <ele>158.9</ele>
        <time>2025-01-10T11:22:43.000Z</time>
      </trkpt>
      <trkpt lat="43.55231" lon="6.79375">
        <ele>158.9</ele>
        <time>2025-01-10T11:22:42.000Z</time>
      </trkpt>
      <trkpt lat="43.55231" lon="6.79375">
        <ele>158.9</ele>
        <time>2025-01-10T11:22:41.000Z</time>
      </trkpt>
      <trkpt lat="43.55231" lon="6.79375">
        <ele>158.9</ele>
        <time>2025-01-10T11:22:40.000Z</time>
      </trkpt>
      <trkpt lat="43.55231" lon="6.79375">
        <ele>158.9</ele>
        <time>2025-01-10T11:22:39.000Z</time>
      </trkpt>
      <trkpt lat="43.55231" lon="6.79375">
        <ele>158.9</ele>
        <time>2025-01-10T11:22:38.000Z</time>
      </trkpt>
      <trkpt lat="43.55231" lon="6.79375">
        <ele>158.9</ele>
        <time>2025-01-10T11:22:37.000Z</time>
      </trkpt>
      <trkpt lat="43.55231" lon="6.79375">
        <ele>158.9</ele>
        <time>2025-01-10T11:22:36.000Z</time>
      </trkpt>
      <trkpt lat="43.55231" lon="6.79375">
        <ele>158.9</ele>
        <time>2025-01-10T11:22:35.000Z</time>
      </trkpt>
      <trkpt lat="43.55231" lon="6.79375">
        <ele>158.9</ele>
        <time>2025-01-10T11:22:34.000Z</time>
      </trkpt>
      <trkpt lat="43.55231" lon="6.79375">
        <ele>158.9</ele>
        <time>2025-01-10T11:22:33.000Z</time>
      </trkpt>
      <trkpt lat="43.55231" lon="6.79375">
        <ele>158.9</ele>
        <time>2025-01-10T11:22:32.000Z</time>
      </trkpt>
      <trkpt lat="43.55231" lon="6.79375">
        <ele>158.9</ele>
        <time>2025-01-10T11:22:31.000Z</time>
      </trkpt>
      <trkpt lat="43.55231" lon="6.79375">
        <ele>158.9</ele>
        <time>2025-01-10T11:22:30.000Z</time>
      </trkpt>
      <trkpt lat="43.55231" lon="6.79375">
        <ele>158.9</ele>
        <time>2025-01-10T11:22:29.000Z</time>
      </trkpt>
      <trkpt lat="43.55231" lon="6.79375">
        <ele>158.9</ele>
        <time>2025-01-10T11:22:28.000Z</time>
      </trkpt>
      <trkpt lat="43.55231" lon="6.79375">
        <ele>158.9</ele>
        <time>2025-01-10T11:22:27.000Z</time>
      </trkpt>
      <trkpt lat="43.55231" lon="6.79375">
        <ele>158.9</ele>
        <time>2025-01-10T11:22:26.000Z</time>
      </trkpt>
      <trkpt lat="43.55231" lon="6.79375">
        <ele>158.9</ele>
        <time>2025-01-10T11:22:25.000Z</time>
      </trkpt>
      <trkpt lat="43.55231" lon="6.79375">
        <ele>158.9</ele>
        <time>2025-01-10T11:22:24.000Z</time>
      </trkpt>
      <trkpt lat="43.55231" lon="6.79375">
        <ele>158.9</ele>
        <time>2025-01-10T11:22:23.000Z</time>
      </trkpt>
      <trkpt lat="43.55231" lon="6.79375">
        <ele>158.9</ele>
        <time>2025-01-10T11:22:22.000Z</time>
      </trkpt>
      <trkpt lat="43.55231" lon="6.79375">
        <ele>158.9</ele>
        <time>2025-01-10T11:22:21.000Z</time>
      </trkpt>
      <trkpt lat="43.55231" lon="6.79374">
        <ele>158.9</ele>
        <time>2025-01-10T11:22:20.000Z</time>
      </trkpt>
      <trkpt lat="43.55231" lon="6.79374">
        <ele>158.9</ele>
        <time>2025-01-10T11:22:19.000Z</time>
      </trkpt>
      <trkpt lat="43.55231" lon="6.79374">
        <ele>158.9</ele>
        <time>2025-01-10T11:22:18.000Z</time>
      </trkpt>
      <trkpt lat="43.55231" lon="6.79374">
        <ele>158.9</ele>
        <time>2025-01-10T11:22:17.000Z</time>
      </trkpt>
      <trkpt lat="43.55231" lon="6.79374">
        <ele>158.9</ele>
        <time>2025-01-10T11:22:16.000Z</time>
      </trkpt>
      <trkpt lat="43.55231" lon="6.79374">
        <ele>158.9</ele>
        <time>2025-01-10T11:22:15.000Z</time>
      </trkpt>
      <trkpt lat="43.55231" lon="6.79374">
        <ele>158.9</ele>
        <time>2025-01-10T11:22:14.000Z</time>
      </trkpt>
      <trkpt lat="43.55231" lon="6.79374">
        <ele>158.9</ele>
        <time>2025-01-10T11:22:13.000Z</time>
      </trkpt>
      <trkpt lat="43.55231" lon="6.79374">
        <ele>158.9</ele>
        <time>2025-01-10T11:22:12.000Z</time>
      </trkpt>
      <trkpt lat="43.55231" lon="6.79374">
        <ele>158.9</ele>
        <time>2025-01-10T11:22:11.000Z</time>
      </trkpt>
      <trkpt lat="43.55231" lon="6.79374">
        <ele>158.9</ele>
        <time>2025-01-10T11:22:10.000Z</time>
      </trkpt>
      <trkpt lat="43.55231" lon="6.79374">
        <ele>158.9</ele>
        <time>2025-01-10T11:22:09.000Z</time>
      </trkpt>
      <trkpt lat="43.55231" lon="6.79374">
        <ele>158.9</ele>
        <time>2025-01-10T11:22:08.000Z</time>
      </trkpt>
      <trkpt lat="43.55231" lon="6.79374">
        <ele>158.9</ele>
        <time>2025-01-10T11:22:07.000Z</time>
      </trkpt>
      <trkpt lat="43.55231" lon="6.79374">
        <ele>158.9</ele>
        <time>2025-01-10T11:22:06.000Z</time>
      </trkpt>
      <trkpt lat="43.55231" lon="6.79374">
        <ele>158.9</ele>
        <time>2025-01-10T11:22:05.000Z</time>
      </trkpt>
      <trkpt lat="43.5523" lon="6.79374">
        <ele>158.9</ele>
        <time>2025-01-10T11:22:04.000Z</time>
      </trkpt>
      <trkpt lat="43.55231" lon="6.79374">
        <ele>158.9</ele>
        <time>2025-01-10T11:22:03.000Z</time>
      </trkpt>
      <trkpt lat="43.5523" lon="6.79375">
        <ele>158.9</ele>
        <time>2025-01-10T11:22:02.000Z</time>
      </trkpt>
      <trkpt lat="43.5523" lon="6.79375">
        <ele>158.9</ele>
        <time>2025-01-10T11:22:01.000Z</time>
      </trkpt>
      <trkpt lat="43.5523" lon="6.79375">
        <ele>158.9</ele>
        <time>2025-01-10T11:22:00.000Z</time>
      </trkpt>
      <trkpt lat="43.5523" lon="6.79375">
        <ele>158.9</ele>
        <time>2025-01-10T11:21:59.000Z</time>
      </trkpt>
      <trkpt lat="43.5523" lon="6.79376">
        <ele>158.9</ele>
        <time>2025-01-10T11:21:58.000Z</time>
      </trkpt>
      <trkpt lat="43.5523" lon="6.79376">
        <ele>158.9</ele>
        <time>2025-01-10T11:21:57.000Z</time>
      </trkpt>
      <trkpt lat="43.55231" lon="6.79377">
        <ele>159</ele>
        <time>2025-01-10T11:21:56.000Z</time>
      </trkpt>
      <trkpt lat="43.5523" lon="6.79377">
        <ele>159</ele>
        <time>2025-01-10T11:21:55.000Z</time>
      </trkpt>
      <trkpt lat="43.5523" lon="6.79377">
        <ele>159</ele>
        <time>2025-01-10T11:21:54.000Z</time>
      </trkpt>
      <trkpt lat="43.55231" lon="6.79377">
        <ele>159</ele>
        <time>2025-01-10T11:21:53.000Z</time>
      </trkpt>
      <trkpt lat="43.55231" lon="6.79377">
        <ele>159</ele>
        <time>2025-01-10T11:21:52.000Z</time>
      </trkpt>
      <trkpt lat="43.55231" lon="6.79376">
        <ele>159</ele>
        <time>2025-01-10T11:21:51.000Z</time>
      </trkpt>
      <trkpt lat="43.55233" lon="6.79375">
        <ele>159</ele>
        <time>2025-01-10T11:21:50.000Z</time>
      </trkpt>
      <trkpt lat="43.55235" lon="6.79373">
        <ele>159</ele>
        <time>2025-01-10T11:21:49.000Z</time>
      </trkpt>
      <trkpt lat="43.55237" lon="6.7937">
        <ele>159</ele>
        <time>2025-01-10T11:21:48.000Z</time>
      </trkpt>
      <trkpt lat="43.5524" lon="6.79367">
        <ele>159</ele>
        <time>2025-01-10T11:21:47.000Z</time>
      </trkpt>
      <trkpt lat="43.55243" lon="6.79362">
        <ele>158.9</ele>
        <time>2025-01-10T11:21:46.000Z</time>
      </trkpt>
      <trkpt lat="43.55244" lon="6.79358">
        <ele>158.7</ele>
        <time>2025-01-10T11:21:45.000Z</time>
      </trkpt>
      <trkpt lat="43.55245" lon="6.79354">
        <ele>158.6</ele>
        <time>2025-01-10T11:21:44.000Z</time>
      </trkpt>
      <trkpt lat="43.55247" lon="6.7935">
        <ele>158.5</ele>
        <time>2025-01-10T11:21:43.000Z</time>
      </trkpt>
      <trkpt lat="43.55248" lon="6.79345">
        <ele>158.2</ele>
        <time>2025-01-10T11:21:42.000Z</time>
      </trkpt>
      <trkpt lat="43.55249" lon="6.79342">
        <ele>158.1</ele>
        <time>2025-01-10T11:21:41.000Z</time>
      </trkpt>
      <trkpt lat="43.55251" lon="6.79337">
        <ele>157.9</ele>
        <time>2025-01-10T11:21:40.000Z</time>
      </trkpt>
      <trkpt lat="43.55253" lon="6.79333">
        <ele>157.7</ele>
        <time>2025-01-10T11:21:39.000Z</time>
      </trkpt>
      <trkpt lat="43.55256" lon="6.79328">
        <ele>157.5</ele>
        <time>2025-01-10T11:21:38.000Z</time>
      </trkpt>
      <trkpt lat="43.5526" lon="6.79324">
        <ele>157.2</ele>
        <time>2025-01-10T11:21:37.000Z</time>
      </trkpt>
      <trkpt lat="43.55264" lon="6.7932">
        <ele>157</ele>
        <time>2025-01-10T11:21:36.000Z</time>
      </trkpt>
      <trkpt lat="43.55268" lon="6.79317">
        <ele>156.9</ele>
        <time>2025-01-10T11:21:35.000Z</time>
      </trkpt>
      <trkpt lat="43.55271" lon="6.79314">
        <ele>156.8</ele>
        <time>2025-01-10T11:21:34.000Z</time>
      </trkpt>
      <trkpt lat="43.55276" lon="6.79309">
        <ele>156.7</ele>
        <time>2025-01-10T11:21:33.000Z</time>
      </trkpt>
      <trkpt lat="43.5528" lon="6.79305">
        <ele>156.7</ele>
        <time>2025-01-10T11:21:32.000Z</time>
      </trkpt>
      <trkpt lat="43.55284" lon="6.79302">
        <ele>156.7</ele>
        <time>2025-01-10T11:21:31.000Z</time>
      </trkpt>
      <trkpt lat="43.55288" lon="6.79299">
        <ele>156.7</ele>
        <time>2025-01-10T11:21:30.000Z</time>
      </trkpt>
      <trkpt lat="43.55293" lon="6.79296">
        <ele>156.7</ele>
        <time>2025-01-10T11:21:29.000Z</time>
      </trkpt>
      <trkpt lat="43.55299" lon="6.79292">
        <ele>156.8</ele>
        <time>2025-01-10T11:21:28.000Z</time>
      </trkpt>
      <trkpt lat="43.55305" lon="6.7929">
        <ele>156.9</ele>
        <time>2025-01-10T11:21:27.000Z</time>
      </trkpt>
      <trkpt lat="43.5531" lon="6.79288">
        <ele>157</ele>
        <time>2025-01-10T11:21:26.000Z</time>
      </trkpt>
      <trkpt lat="43.55316" lon="6.79287">
        <ele>157</ele>
        <time>2025-01-10T11:21:25.000Z</time>
      </trkpt>
      <trkpt lat="43.55321" lon="6.79286">
        <ele>157.1</ele>
        <time>2025-01-10T11:21:24.000Z</time>
      </trkpt>
      <trkpt lat="43.55327" lon="6.79286">
        <ele>157.2</ele>
        <time>2025-01-10T11:21:23.000Z</time>
      </trkpt>
      <trkpt lat="43.55332" lon="6.79287">
        <ele>157.3</ele>
        <time>2025-01-10T11:21:22.000Z</time>
      </trkpt>
      <trkpt lat="43.55337" lon="6.7929">
        <ele>157.4</ele>
        <time>2025-01-10T11:21:21.000Z</time>
      </trkpt>
      <trkpt lat="43.55341" lon="6.79293">
        <ele>157.4</ele>
        <time>2025-01-10T11:21:20.000Z</time>
      </trkpt>
      <trkpt lat="43.55345" lon="6.79299">
        <ele>157.5</ele>
        <time>2025-01-10T11:21:19.000Z</time>
      </trkpt>
      <trkpt lat="43.55349" lon="6.79304">
        <ele>157.5</ele>
        <time>2025-01-10T11:21:18.000Z</time>
      </trkpt>
      <trkpt lat="43.55353" lon="6.79308">
        <ele>157.5</ele>
        <time>2025-01-10T11:21:17.000Z</time>
      </trkpt>
      <trkpt lat="43.55357" lon="6.79311">
        <ele>157.6</ele>
        <time>2025-01-10T11:21:16.000Z</time>
      </trkpt>
      <trkpt lat="43.55362" lon="6.79313">
        <ele>157.7</ele>
        <time>2025-01-10T11:21:15.000Z</time>
      </trkpt>
      <trkpt lat="43.55369" lon="6.79313">
        <ele>157.9</ele>
        <time>2025-01-10T11:21:14.000Z</time>
      </trkpt>
      <trkpt lat="43.55373" lon="6.79312">
        <ele>158.1</ele>
        <time>2025-01-10T11:21:13.000Z</time>
      </trkpt>
      <trkpt lat="43.55379" lon="6.7931">
        <ele>158.3</ele>
        <time>2025-01-10T11:21:12.000Z</time>
      </trkpt>
      <trkpt lat="43.55383" lon="6.79308">
        <ele>158.5</ele>
        <time>2025-01-10T11:21:11.000Z</time>
      </trkpt>
      <trkpt lat="43.55387" lon="6.79305">
        <ele>158.6</ele>
        <time>2025-01-10T11:21:10.000Z</time>
      </trkpt>
      <trkpt lat="43.55391" lon="6.79301">
        <ele>158.7</ele>
        <time>2025-01-10T11:21:09.000Z</time>
      </trkpt>
      <trkpt lat="43.55393" lon="6.79296">
        <ele>158.7</ele>
        <time>2025-01-10T11:21:08.000Z</time>
      </trkpt>
      <trkpt lat="43.55395" lon="6.79293">
        <ele>158.7</ele>
        <time>2025-01-10T11:21:07.000Z</time>
      </trkpt>
      <trkpt lat="43.55397" lon="6.79288">
        <ele>158.7</ele>
        <time>2025-01-10T11:21:06.000Z</time>
      </trkpt>
      <trkpt lat="43.55399" lon="6.79283">
        <ele>158.5</ele>
        <time>2025-01-10T11:21:05.000Z</time>
      </trkpt>
      <trkpt lat="43.55401" lon="6.79279">
        <ele>158.4</ele>
        <time>2025-01-10T11:21:04.000Z</time>
      </trkpt>
      <trkpt lat="43.55404" lon="6.79273">
        <ele>158.2</ele>
        <time>2025-01-10T11:21:03.000Z</time>
      </trkpt>
      <trkpt lat="43.55405" lon="6.79269">
        <ele>158.1</ele>
        <time>2025-01-10T11:21:02.000Z</time>
      </trkpt>
      <trkpt lat="43.55407" lon="6.79263">
        <ele>158</ele>
        <time>2025-01-10T11:21:01.000Z</time>
      </trkpt>
      <trkpt lat="43.5541" lon="6.79257">
        <ele>157.9</ele>
        <time>2025-01-10T11:21:00.000Z</time>
      </trkpt>
      <trkpt lat="43.55413" lon="6.79253">
        <ele>157.8</ele>
        <time>2025-01-10T11:20:59.000Z</time>
      </trkpt>
      <trkpt lat="43.55415" lon="6.79249">
        <ele>157.7</ele>
        <time>2025-01-10T11:20:58.000Z</time>
      </trkpt>
      <trkpt lat="43.55419" lon="6.79245">
        <ele>157.5</ele>
        <time>2025-01-10T11:20:57.000Z</time>
      </trkpt>
      <trkpt lat="43.55423" lon="6.79243">
        <ele>157.4</ele>
        <time>2025-01-10T11:20:56.000Z</time>
      </trkpt>
      <trkpt lat="43.55428" lon="6.7924">
        <ele>157.3</ele>
        <time>2025-01-10T11:20:55.000Z</time>
      </trkpt>
      <trkpt lat="43.55431" lon="6.7924">
        <ele>157.2</ele>
        <time>2025-01-10T11:20:54.000Z</time>
      </trkpt>
      <trkpt lat="43.55435" lon="6.79239">
        <ele>157.1</ele>
        <time>2025-01-10T11:20:53.000Z</time>
      </trkpt>
      <trkpt lat="43.55439" lon="6.7924">
        <ele>157</ele>
        <time>2025-01-10T11:20:52.000Z</time>
      </trkpt>
      <trkpt lat="43.55444" lon="6.79241">
        <ele>156.9</ele>
        <time>2025-01-10T11:20:51.000Z</time>
      </trkpt>
      <trkpt lat="43.55449" lon="6.79243">
        <ele>156.7</ele>
        <time>2025-01-10T11:20:50.000Z</time>
      </trkpt>
      <trkpt lat="43.55452" lon="6.79243">
        <ele>156.7</ele>
        <time>2025-01-10T11:20:49.000Z</time>
      </trkpt>
      <trkpt lat="43.55457" lon="6.79244">
        <ele>156.6</ele>
        <time>2025-01-10T11:20:48.000Z</time>
      </trkpt>
      <trkpt lat="43.55461" lon="6.79244">
        <ele>156.5</ele>
        <time>2025-01-10T11:20:47.000Z</time>
      </trkpt>
      <trkpt lat="43.55466" lon="6.79242">
        <ele>156.4</ele>
        <time>2025-01-10T11:20:46.000Z</time>
      </trkpt>
      <trkpt lat="43.55471" lon="6.7924">
        <ele>156.4</ele>
        <time>2025-01-10T11:20:45.000Z</time>
      </trkpt>
      <trkpt lat="43.55474" lon="6.79239">
        <ele>156.4</ele>
        <time>2025-01-10T11:20:44.000Z</time>
      </trkpt>
      <trkpt lat="43.55478" lon="6.79236">
        <ele>156.4</ele>
        <time>2025-01-10T11:20:43.000Z</time>
      </trkpt>
      <trkpt lat="43.55482" lon="6.79234">
        <ele>156.4</ele>
        <time>2025-01-10T11:20:42.000Z</time>
      </trkpt>
      <trkpt lat="43.55486" lon="6.7923">
        <ele>156.4</ele>
        <time>2025-01-10T11:20:41.000Z</time>
      </trkpt>
      <trkpt lat="43.55488" lon="6.79227">
        <ele>156.5</ele>
        <time>2025-01-10T11:20:40.000Z</time>
      </trkpt>
      <trkpt lat="43.5549" lon="6.79224">
        <ele>156.5</ele>
        <time>2025-01-10T11:20:39.000Z</time>
      </trkpt>
      <trkpt lat="43.55491" lon="6.7922">
        <ele>156.5</ele>
        <time>2025-01-10T11:20:38.000Z</time>
      </trkpt>
      <trkpt lat="43.55492" lon="6.79217">
        <ele>156.6</ele>
        <time>2025-01-10T11:20:37.000Z</time>
      </trkpt>
      <trkpt lat="43.55493" lon="6.79214">
        <ele>156.6</ele>
        <time>2025-01-10T11:20:36.000Z</time>
      </trkpt>
      <trkpt lat="43.55494" lon="6.79213">
        <ele>156.7</ele>
        <time>2025-01-10T11:20:35.000Z</time>
      </trkpt>
      <trkpt lat="43.55495" lon="6.79211">
        <ele>156.7</ele>
        <time>2025-01-10T11:20:34.000Z</time>
      </trkpt>
      <trkpt lat="43.55496" lon="6.7921">
        <ele>156.7</ele>
        <time>2025-01-10T11:20:33.000Z</time>
      </trkpt>
      <trkpt lat="43.55497" lon="6.79209">
        <ele>156.7</ele>
        <time>2025-01-10T11:20:32.000Z</time>
      </trkpt>
      <trkpt lat="43.55499" lon="6.79209">
        <ele>156.8</ele>
        <time>2025-01-10T11:20:31.000Z</time>
      </trkpt>
      <trkpt lat="43.555" lon="6.79209">
        <ele>156.8</ele>
        <time>2025-01-10T11:20:30.000Z</time>
      </trkpt>
      <trkpt lat="43.55501" lon="6.79209">
        <ele>156.8</ele>
        <time>2025-01-10T11:20:29.000Z</time>
      </trkpt>
      <trkpt lat="43.55502" lon="6.7921">
        <ele>156.9</ele>
        <time>2025-01-10T11:20:28.000Z</time>
      </trkpt>
      <trkpt lat="43.55503" lon="6.79211">
        <ele>156.9</ele>
        <time>2025-01-10T11:20:27.000Z</time>
      </trkpt>
      <trkpt lat="43.55503" lon="6.79212">
        <ele>156.9</ele>
        <time>2025-01-10T11:20:26.000Z</time>
      </trkpt>
      <trkpt lat="43.55503" lon="6.79213">
        <ele>156.9</ele>
        <time>2025-01-10T11:20:25.000Z</time>
      </trkpt>
      <trkpt lat="43.55503" lon="6.79213">
        <ele>156.9</ele>
        <time>2025-01-10T11:20:24.000Z</time>
      </trkpt>
      <trkpt lat="43.55503" lon="6.79213">
        <ele>156.9</ele>
        <time>2025-01-10T11:20:23.000Z</time>
      </trkpt>
      <trkpt lat="43.55504" lon="6.79213">
        <ele>156.9</ele>
        <time>2025-01-10T11:20:22.000Z</time>
      </trkpt>
      <trkpt lat="43.55504" lon="6.79214">
        <ele>156.9</ele>
        <time>2025-01-10T11:20:21.000Z</time>
      </trkpt>
      <trkpt lat="43.55505" lon="6.79214">
        <ele>157</ele>
        <time>2025-01-10T11:20:20.000Z</time>
      </trkpt>
      <trkpt lat="43.55506" lon="6.79215">
        <ele>157</ele>
        <time>2025-01-10T11:20:19.000Z</time>
      </trkpt>
      <trkpt lat="43.55506" lon="6.79215">
        <ele>157</ele>
        <time>2025-01-10T11:20:18.000Z</time>
      </trkpt>
      <trkpt lat="43.55506" lon="6.79214">
        <ele>157</ele>
        <time>2025-01-10T11:20:17.000Z</time>
      </trkpt>
      <trkpt lat="43.55506" lon="6.79213">
        <ele>157</ele>
        <time>2025-01-10T11:20:16.000Z</time>
      </trkpt>
      <trkpt lat="43.55506" lon="6.79211">
        <ele>157</ele>
        <time>2025-01-10T11:20:15.000Z</time>
      </trkpt>
      <trkpt lat="43.55506" lon="6.7921">
        <ele>157.1</ele>
        <time>2025-01-10T11:20:14.000Z</time>
      </trkpt>
      <trkpt lat="43.55506" lon="6.79209">
        <ele>157.1</ele>
        <time>2025-01-10T11:20:13.000Z</time>
      </trkpt>
      <trkpt lat="43.55507" lon="6.79208">
        <ele>157.1</ele>
        <time>2025-01-10T11:20:12.000Z</time>
      </trkpt>
      <trkpt lat="43.55507" lon="6.79207">
        <ele>157.1</ele>
        <time>2025-01-10T11:20:11.000Z</time>
      </trkpt>
      <trkpt lat="43.55509" lon="6.79206">
        <ele>157.1</ele>
        <time>2025-01-10T11:20:10.000Z</time>
      </trkpt>
      <trkpt lat="43.5551" lon="6.79206">
        <ele>157.2</ele>
        <time>2025-01-10T11:20:09.000Z</time>
      </trkpt>
      <trkpt lat="43.55511" lon="6.79205">
        <ele>157.2</ele>
        <time>2025-01-10T11:20:08.000Z</time>
      </trkpt>
      <trkpt lat="43.55512" lon="6.79205">
        <ele>157.2</ele>
        <time>2025-01-10T11:20:07.000Z</time>
      </trkpt>
      <trkpt lat="43.55513" lon="6.79204">
        <ele>157.2</ele>
        <time>2025-01-10T11:20:06.000Z</time>
      </trkpt>
      <trkpt lat="43.55514" lon="6.79204">
        <ele>157.2</ele>
        <time>2025-01-10T11:20:05.000Z</time>
      </trkpt>
      <trkpt lat="43.55515" lon="6.79203">
        <ele>157.2</ele>
        <time>2025-01-10T11:20:04.000Z</time>
      </trkpt>
      <trkpt lat="43.55516" lon="6.79203">
        <ele>157.2</ele>
        <time>2025-01-10T11:20:03.000Z</time>
      </trkpt>
      <trkpt lat="43.55517" lon="6.79203">
        <ele>157.2</ele>
        <time>2025-01-10T11:20:02.000Z</time>
      </trkpt>
      <trkpt lat="43.55518" lon="6.79202">
        <ele>157.2</ele>
        <time>2025-01-10T11:20:01.000Z</time>
      </trkpt>
      <trkpt lat="43.55519" lon="6.79202">
        <ele>157.2</ele>
        <time>2025-01-10T11:20:00.000Z</time>
      </trkpt>
      <trkpt lat="43.5552" lon="6.79201">
        <ele>157.2</ele>
        <time>2025-01-10T11:19:59.000Z</time>
      </trkpt>
      <trkpt lat="43.5552" lon="6.792">
        <ele>157.1</ele>
        <time>2025-01-10T11:19:58.000Z</time>
      </trkpt>
      <trkpt lat="43.55521" lon="6.79199">
        <ele>157.1</ele>
        <time>2025-01-10T11:19:57.000Z</time>
      </trkpt>
      <trkpt lat="43.55522" lon="6.79198">
        <ele>157.1</ele>
        <time>2025-01-10T11:19:56.000Z</time>
      </trkpt>
      <trkpt lat="43.55523" lon="6.79198">
        <ele>157.1</ele>
        <time>2025-01-10T11:19:55.000Z</time>
      </trkpt>
      <trkpt lat="43.55524" lon="6.79198">
        <ele>157.1</ele>
        <time>2025-01-10T11:19:54.000Z</time>
      </trkpt>
      <trkpt lat="43.55524" lon="6.79198">
        <ele>157.1</ele>
        <time>2025-01-10T11:19:53.000Z</time>
      </trkpt>
      <trkpt lat="43.55525" lon="6.79197">
        <ele>157.1</ele>
        <time>2025-01-10T11:19:52.000Z</time>
      </trkpt>
      <trkpt lat="43.55525" lon="6.79197">
        <ele>157.1</ele>
        <time>2025-01-10T11:19:51.000Z</time>
      </trkpt>
      <trkpt lat="43.55525" lon="6.79196">
        <ele>157.1</ele>
        <time>2025-01-10T11:19:50.000Z</time>
      </trkpt>
      <trkpt lat="43.55527" lon="6.79195">
        <ele>157.1</ele>
        <time>2025-01-10T11:19:49.000Z</time>
      </trkpt>
      <trkpt lat="43.55529" lon="6.79194">
        <ele>157.1</ele>
        <time>2025-01-10T11:19:48.000Z</time>
      </trkpt>
      <trkpt lat="43.55532" lon="6.79192">
        <ele>157.2</ele>
        <time>2025-01-10T11:19:47.000Z</time>
      </trkpt>
      <trkpt lat="43.55534" lon="6.7919">
        <ele>157.2</ele>
        <time>2025-01-10T11:19:46.000Z</time>
      </trkpt>
      <trkpt lat="43.55536" lon="6.79188">
        <ele>157.2</ele>
        <time>2025-01-10T11:19:45.000Z</time>
      </trkpt>
      <trkpt lat="43.55537" lon="6.79187">
        <ele>157.3</ele>
        <time>2025-01-10T11:19:44.000Z</time>
      </trkpt>
      <trkpt lat="43.55538" lon="6.79187">
        <ele>157.3</ele>
        <time>2025-01-10T11:19:43.000Z</time>
      </trkpt>
      <trkpt lat="43.55538" lon="6.79187">
        <ele>157.3</ele>
        <time>2025-01-10T11:19:42.000Z</time>
      </trkpt>
      <trkpt lat="43.55538" lon="6.79187">
        <ele>157.3</ele>
        <time>2025-01-10T11:19:41.000Z</time>
      </trkpt>
      <trkpt lat="43.55538" lon="6.79187">
        <ele>157.3</ele>
        <time>2025-01-10T11:19:40.000Z</time>
      </trkpt>
      <trkpt lat="43.55539" lon="6.79186">
        <ele>157.3</ele>
        <time>2025-01-10T11:19:39.000Z</time>
      </trkpt>
      <trkpt lat="43.55539" lon="6.79185">
        <ele>157.4</ele>
        <time>2025-01-10T11:19:38.000Z</time>
      </trkpt>
      <trkpt lat="43.5554" lon="6.79184">
        <ele>157.4</ele>
        <time>2025-01-10T11:19:37.000Z</time>
      </trkpt>
      <trkpt lat="43.5554" lon="6.79184">
        <ele>157.4</ele>
        <time>2025-01-10T11:19:36.000Z</time>
      </trkpt>
      <trkpt lat="43.5554" lon="6.79184">
        <ele>157.4</ele>
        <time>2025-01-10T11:19:35.000Z</time>
      </trkpt>
      <trkpt lat="43.5554" lon="6.79184">
        <ele>157.4</ele>
        <time>2025-01-10T11:19:34.000Z</time>
      </trkpt>
      <trkpt lat="43.5554" lon="6.79183">
        <ele>157.5</ele>
        <time>2025-01-10T11:19:33.000Z</time>
      </trkpt>
      <trkpt lat="43.5554" lon="6.79183">
        <ele>157.5</ele>
        <time>2025-01-10T11:19:32.000Z</time>
      </trkpt>
      <trkpt lat="43.5554" lon="6.79183">
        <ele>157.5</ele>
        <time>2025-01-10T11:19:31.000Z</time>
      </trkpt>
      <trkpt lat="43.5554" lon="6.79183">
        <ele>157.5</ele>
        <time>2025-01-10T11:19:30.000Z</time>
      </trkpt>
      <trkpt lat="43.55541" lon="6.79183">
        <ele>157.5</ele>
        <time>2025-01-10T11:19:29.000Z</time>
      </trkpt>
      <trkpt lat="43.55543" lon="6.79182">
        <ele>157.6</ele>
        <time>2025-01-10T11:19:28.000Z</time>
      </trkpt>
      <trkpt lat="43.55545" lon="6.79182">
        <ele>157.7</ele>
        <time>2025-01-10T11:19:27.000Z</time>
      </trkpt>
      <trkpt lat="43.55549" lon="6.79182">
        <ele>157.9</ele>
        <time>2025-01-10T11:19:26.000Z</time>
      </trkpt>
      <trkpt lat="43.55552" lon="6.79182">
        <ele>158.2</ele>
        <time>2025-01-10T11:19:25.000Z</time>
      </trkpt>
      <trkpt lat="43.55555" lon="6.79182">
        <ele>158.3</ele>
        <time>2025-01-10T11:19:24.000Z</time>
      </trkpt>
      <trkpt lat="43.55557" lon="6.79182">
        <ele>158.5</ele>
        <time>2025-01-10T11:19:23.000Z</time>
      </trkpt>
      <trkpt lat="43.55559" lon="6.79182">
        <ele>158.6</ele>
        <time>2025-01-10T11:19:22.000Z</time>
      </trkpt>
      <trkpt lat="43.55561" lon="6.79184">
        <ele>158.6</ele>
        <time>2025-01-10T11:19:21.000Z</time>
      </trkpt>
      <trkpt lat="43.55563" lon="6.79186">
        <ele>158.6</ele>
        <time>2025-01-10T11:19:20.000Z</time>
      </trkpt>
      <trkpt lat="43.55565" lon="6.79189">
        <ele>158.5</ele>
        <time>2025-01-10T11:19:19.000Z</time>
      </trkpt>
      <trkpt lat="43.55567" lon="6.79191">
        <ele>158.5</ele>
        <time>2025-01-10T11:19:18.000Z</time>
      </trkpt>
      <trkpt lat="43.55568" lon="6.79193">
        <ele>158.5</ele>
        <time>2025-01-10T11:19:17.000Z</time>
      </trkpt>
      <trkpt lat="43.55569" lon="6.79196">
        <ele>158.4</ele>
        <time>2025-01-10T11:19:16.000Z</time>
      </trkpt>
      <trkpt lat="43.55568" lon="6.79198">
        <ele>158.4</ele>
        <time>2025-01-10T11:19:15.000Z</time>
      </trkpt>
      <trkpt lat="43.55567" lon="6.79199">
        <ele>158.4</ele>
        <time>2025-01-10T11:19:14.000Z</time>
      </trkpt>
      <trkpt lat="43.55566" lon="6.79199">
        <ele>158.4</ele>
        <time>2025-01-10T11:19:13.000Z</time>
      </trkpt>
      <trkpt lat="43.55564" lon="6.79197">
        <ele>158.4</ele>
        <time>2025-01-10T11:19:12.000Z</time>
      </trkpt>
      <trkpt lat="43.55562" lon="6.79194">
        <ele>158.4</ele>
        <time>2025-01-10T11:19:11.000Z</time>
      </trkpt>
      <trkpt lat="43.55561" lon="6.79192">
        <ele>158.5</ele>
        <time>2025-01-10T11:19:10.000Z</time>
      </trkpt>
      <trkpt lat="43.55559" lon="6.7919">
        <ele>158.5</ele>
        <time>2025-01-10T11:19:09.000Z</time>
      </trkpt>
      <trkpt lat="43.55558" lon="6.79188">
        <ele>158.5</ele>
        <time>2025-01-10T11:19:08.000Z</time>
      </trkpt>
      <trkpt lat="43.55556" lon="6.79185">
        <ele>158.5</ele>
        <time>2025-01-10T11:19:07.000Z</time>
      </trkpt>
      <trkpt lat="43.55555" lon="6.79181">
        <ele>158.5</ele>
        <time>2025-01-10T11:19:06.000Z</time>
      </trkpt>
      <trkpt lat="43.55555" lon="6.79178">
        <ele>158.6</ele>
        <time>2025-01-10T11:19:05.000Z</time>
      </trkpt>
      <trkpt lat="43.55554" lon="6.79175">
        <ele>158.6</ele>
        <time>2025-01-10T11:19:04.000Z</time>
      </trkpt>
      <trkpt lat="43.55553" lon="6.7917">
        <ele>158.6</ele>
        <time>2025-01-10T11:19:03.000Z</time>
      </trkpt>
      <trkpt lat="43.55552" lon="6.79165">
        <ele>158.6</ele>
        <time>2025-01-10T11:19:02.000Z</time>
      </trkpt>
      <trkpt lat="43.55551" lon="6.7916">
        <ele>158.6</ele>
        <time>2025-01-10T11:19:01.000Z</time>
      </trkpt>
      <trkpt lat="43.5555" lon="6.79155">
        <ele>158.6</ele>
        <time>2025-01-10T11:19:00.000Z</time>
      </trkpt>
      <trkpt lat="43.5555" lon="6.79149">
        <ele>158.7</ele>
        <time>2025-01-10T11:18:59.000Z</time>
      </trkpt>
      <trkpt lat="43.5555" lon="6.79144">
        <ele>159</ele>
        <time>2025-01-10T11:18:58.000Z</time>
      </trkpt>
      <trkpt lat="43.55551" lon="6.79138">
        <ele>159.1</ele>
        <time>2025-01-10T11:18:57.000Z</time>
      </trkpt>
      <trkpt lat="43.55552" lon="6.79131">
        <ele>159.3</ele>
        <time>2025-01-10T11:18:56.000Z</time>
      </trkpt>
      <trkpt lat="43.55552" lon="6.79125">
        <ele>159.4</ele>
        <time>2025-01-10T11:18:55.000Z</time>
      </trkpt>
      <trkpt lat="43.55553" lon="6.79119">
        <ele>159.5</ele>
        <time>2025-01-10T11:18:54.000Z</time>
      </trkpt>
      <trkpt lat="43.55554" lon="6.79113">
        <ele>159.5</ele>
        <time>2025-01-10T11:18:53.000Z</time>
      </trkpt>
      <trkpt lat="43.55555" lon="6.79107">
        <ele>159.6</ele>
        <time>2025-01-10T11:18:52.000Z</time>
      </trkpt>
      <trkpt lat="43.55556" lon="6.791">
        <ele>159.6</ele>
        <time>2025-01-10T11:18:51.000Z</time>
      </trkpt>
      <trkpt lat="43.55558" lon="6.79094">
        <ele>159.5</ele>
        <time>2025-01-10T11:18:50.000Z</time>
      </trkpt>
      <trkpt lat="43.55559" lon="6.79089">
        <ele>159.5</ele>
        <time>2025-01-10T11:18:49.000Z</time>
      </trkpt>
      <trkpt lat="43.5556" lon="6.79082">
        <ele>159.3</ele>
        <time>2025-01-10T11:18:48.000Z</time>
      </trkpt>
      <trkpt lat="43.55562" lon="6.79076">
        <ele>159.2</ele>
        <time>2025-01-10T11:18:47.000Z</time>
      </trkpt>
      <trkpt lat="43.55563" lon="6.79069">
        <ele>159.1</ele>
        <time>2025-01-10T11:18:46.000Z</time>
      </trkpt>
      <trkpt lat="43.55564" lon="6.79063">
        <ele>159</ele>
        <time>2025-01-10T11:18:45.000Z</time>
      </trkpt>
      <trkpt lat="43.55565" lon="6.79057">
        <ele>158.9</ele>
        <time>2025-01-10T11:18:44.000Z</time>
      </trkpt>
      <trkpt lat="43.55566" lon="6.7905">
        <ele>158.8</ele>
        <time>2025-01-10T11:18:43.000Z</time>
      </trkpt>
      <trkpt lat="43.55567" lon="6.79044">
        <ele>158.7</ele>
        <time>2025-01-10T11:18:42.000Z</time>
      </trkpt>
      <trkpt lat="43.55567" lon="6.79037">
        <ele>158.7</ele>
        <time>2025-01-10T11:18:41.000Z</time>
      </trkpt>
      <trkpt lat="43.55568" lon="6.79031">
        <ele>158.7</ele>
        <time>2025-01-10T11:18:40.000Z</time>
      </trkpt>
      <trkpt lat="43.55569" lon="6.79025">
        <ele>158.6</ele>
        <time>2025-01-10T11:18:39.000Z</time>
      </trkpt>
      <trkpt lat="43.55571" lon="6.79019">
        <ele>158.6</ele>
        <time>2025-01-10T11:18:38.000Z</time>
      </trkpt>
      <trkpt lat="43.55573" lon="6.79014">
        <ele>158.6</ele>
        <time>2025-01-10T11:18:37.000Z</time>
      </trkpt>
      <trkpt lat="43.55576" lon="6.79008">
        <ele>158.6</ele>
        <time>2025-01-10T11:18:36.000Z</time>
      </trkpt>
      <trkpt lat="43.55579" lon="6.79003">
        <ele>158.7</ele>
        <time>2025-01-10T11:18:35.000Z</time>
      </trkpt>
      <trkpt lat="43.55583" lon="6.78998">
        <ele>158.7</ele>
        <time>2025-01-10T11:18:34.000Z</time>
      </trkpt>
      <trkpt lat="43.55587" lon="6.78992">
        <ele>158.7</ele>
        <time>2025-01-10T11:18:33.000Z</time>
      </trkpt>
      <trkpt lat="43.5559" lon="6.78987">
        <ele>158.8</ele>
        <time>2025-01-10T11:18:32.000Z</time>
      </trkpt>
      <trkpt lat="43.55593" lon="6.78981">
        <ele>158.8</ele>
        <time>2025-01-10T11:18:31.000Z</time>
      </trkpt>
      <trkpt lat="43.55596" lon="6.78975">
        <ele>158.9</ele>
        <time>2025-01-10T11:18:30.000Z</time>
      </trkpt>
      <trkpt lat="43.55599" lon="6.7897">
        <ele>158.9</ele>
        <time>2025-01-10T11:18:29.000Z</time>
      </trkpt>
      <trkpt lat="43.55603" lon="6.78964">
        <ele>158.8</ele>
        <time>2025-01-10T11:18:28.000Z</time>
      </trkpt>
      <trkpt lat="43.55606" lon="6.78958">
        <ele>158.8</ele>
        <time>2025-01-10T11:18:27.000Z</time>
      </trkpt>
      <trkpt lat="43.55609" lon="6.78952">
        <ele>158.7</ele>
        <time>2025-01-10T11:18:26.000Z</time>
      </trkpt>
      <trkpt lat="43.55611" lon="6.78948">
        <ele>158.6</ele>
        <time>2025-01-10T11:18:25.000Z</time>
      </trkpt>
      <trkpt lat="43.55615" lon="6.78941">
        <ele>158.5</ele>
        <time>2025-01-10T11:18:24.000Z</time>
      </trkpt>
      <trkpt lat="43.55619" lon="6.78936">
        <ele>158.5</ele>
        <time>2025-01-10T11:18:23.000Z</time>
      </trkpt>
      <trkpt lat="43.55622" lon="6.7893">
        <ele>158.4</ele>
        <time>2025-01-10T11:18:22.000Z</time>
      </trkpt>
      <trkpt lat="43.55626" lon="6.78925">
        <ele>158.4</ele>
        <time>2025-01-10T11:18:21.000Z</time>
      </trkpt>
      <trkpt lat="43.55629" lon="6.7892">
        <ele>158.4</ele>
        <time>2025-01-10T11:18:20.000Z</time>
      </trkpt>
      <trkpt lat="43.55633" lon="6.78915">
        <ele>158.4</ele>
        <time>2025-01-10T11:18:19.000Z</time>
      </trkpt>
      <trkpt lat="43.55636" lon="6.78911">
        <ele>158.4</ele>
        <time>2025-01-10T11:18:18.000Z</time>
      </trkpt>
      <trkpt lat="43.5564" lon="6.78907">
        <ele>158.4</ele>
        <time>2025-01-10T11:18:17.000Z</time>
      </trkpt>
      <trkpt lat="43.55643" lon="6.78904">
        <ele>158.4</ele>
        <time>2025-01-10T11:18:16.000Z</time>
      </trkpt>
      <trkpt lat="43.55647" lon="6.78902">
        <ele>158.4</ele>
        <time>2025-01-10T11:18:15.000Z</time>
      </trkpt>
      <trkpt lat="43.55652" lon="6.78899">
        <ele>158.4</ele>
        <time>2025-01-10T11:18:14.000Z</time>
      </trkpt>
      <trkpt lat="43.55656" lon="6.78897">
        <ele>158.4</ele>
        <time>2025-01-10T11:18:13.000Z</time>
      </trkpt>
      <trkpt lat="43.5566" lon="6.78895">
        <ele>158.4</ele>
        <time>2025-01-10T11:18:12.000Z</time>
      </trkpt>
      <trkpt lat="43.55664" lon="6.78892">
        <ele>158.3</ele>
        <time>2025-01-10T11:18:11.000Z</time>
      </trkpt>
      <trkpt lat="43.55668" lon="6.78889">
        <ele>158.3</ele>
        <time>2025-01-10T11:18:10.000Z</time>
      </trkpt>
      <trkpt lat="43.55672" lon="6.78886">
        <ele>158.3</ele>
        <time>2025-01-10T11:18:09.000Z</time>
      </trkpt>
      <trkpt lat="43.55676" lon="6.78883">
        <ele>158.4</ele>
        <time>2025-01-10T11:18:08.000Z</time>
      </trkpt>
      <trkpt lat="43.55681" lon="6.7888">
        <ele>158.4</ele>
        <time>2025-01-10T11:18:07.000Z</time>
      </trkpt>
      <trkpt lat="43.55685" lon="6.78877">
        <ele>158.5</ele>
        <time>2025-01-10T11:18:06.000Z</time>
      </trkpt>
      <trkpt lat="43.55689" lon="6.78873">
        <ele>158.7</ele>
        <time>2025-01-10T11:18:05.000Z</time>
      </trkpt>
      <trkpt lat="43.55693" lon="6.78869">
        <ele>158.9</ele>
        <time>2025-01-10T11:18:04.000Z</time>
      </trkpt>
      <trkpt lat="43.55696" lon="6.78865">
        <ele>159.1</ele>
        <time>2025-01-10T11:18:03.000Z</time>
      </trkpt>
      <trkpt lat="43.55699" lon="6.78861">
        <ele>159.2</ele>
        <time>2025-01-10T11:18:02.000Z</time>
      </trkpt>
      <trkpt lat="43.55701" lon="6.78856">
        <ele>159.4</ele>
        <time>2025-01-10T11:18:01.000Z</time>
      </trkpt>
      <trkpt lat="43.55702" lon="6.78853">
        <ele>159.5</ele>
        <time>2025-01-10T11:18:00.000Z</time>
      </trkpt>
      <trkpt lat="43.55703" lon="6.78849">
        <ele>159.6</ele>
        <time>2025-01-10T11:17:59.000Z</time>
      </trkpt>
      <trkpt lat="43.55705" lon="6.78846">
        <ele>159.7</ele>
        <time>2025-01-10T11:17:58.000Z</time>
      </trkpt>
      <trkpt lat="43.55706" lon="6.78842">
        <ele>159.8</ele>
        <time>2025-01-10T11:17:57.000Z</time>
      </trkpt>
      <trkpt lat="43.55708" lon="6.78837">
        <ele>159.9</ele>
        <time>2025-01-10T11:17:56.000Z</time>
      </trkpt>
      <trkpt lat="43.55711" lon="6.78832">
        <ele>160.1</ele>
        <time>2025-01-10T11:17:55.000Z</time>
      </trkpt>
      <trkpt lat="43.55714" lon="6.78826">
        <ele>160.2</ele>
        <time>2025-01-10T11:17:54.000Z</time>
      </trkpt>
      <trkpt lat="43.55716" lon="6.78822">
        <ele>160.3</ele>
        <time>2025-01-10T11:17:53.000Z</time>
      </trkpt>
      <trkpt lat="43.5572" lon="6.78818">
        <ele>160.5</ele>
        <time>2025-01-10T11:17:52.000Z</time>
      </trkpt>
      <trkpt lat="43.55724" lon="6.78813">
        <ele>160.7</ele>
        <time>2025-01-10T11:17:51.000Z</time>
      </trkpt>
      <trkpt lat="43.55728" lon="6.78808">
        <ele>161</ele>
        <time>2025-01-10T11:17:50.000Z</time>
      </trkpt>
      <trkpt lat="43.55731" lon="6.78804">
        <ele>161.3</ele>
        <time>2025-01-10T11:17:49.000Z</time>
      </trkpt>
      <trkpt lat="43.55733" lon="6.78799">
        <ele>161.5</ele>
        <time>2025-01-10T11:17:48.000Z</time>
      </trkpt>
      <trkpt lat="43.55735" lon="6.78795">
        <ele>161.7</ele>
        <time>2025-01-10T11:17:47.000Z</time>
      </trkpt>
      <trkpt lat="43.55736" lon="6.7879">
        <ele>161.9</ele>
        <time>2025-01-10T11:17:46.000Z</time>
      </trkpt>
      <trkpt lat="43.55738" lon="6.78787">
        <ele>162.1</ele>
        <time>2025-01-10T11:17:45.000Z</time>
      </trkpt>
      <trkpt lat="43.55739" lon="6.78784">
        <ele>162.3</ele>
        <time>2025-01-10T11:17:44.000Z</time>
      </trkpt>
      <trkpt lat="43.5574" lon="6.78782">
        <ele>162.4</ele>
        <time>2025-01-10T11:17:43.000Z</time>
      </trkpt>
      <trkpt lat="43.55741" lon="6.78781">
        <ele>162.4</ele>
        <time>2025-01-10T11:17:42.000Z</time>
      </trkpt>
      <trkpt lat="43.55741" lon="6.78781">
        <ele>162.4</ele>
        <time>2025-01-10T11:17:41.000Z</time>
      </trkpt>
      <trkpt lat="43.5574" lon="6.78781">
        <ele>162.5</ele>
        <time>2025-01-10T11:17:40.000Z</time>
      </trkpt>
      <trkpt lat="43.5574" lon="6.78782">
        <ele>162.5</ele>
        <time>2025-01-10T11:17:39.000Z</time>
      </trkpt>
      <trkpt lat="43.5574" lon="6.78781">
        <ele>162.5</ele>
        <time>2025-01-10T11:17:38.000Z</time>
      </trkpt>
      <trkpt lat="43.55741" lon="6.78781">
        <ele>162.5</ele>
        <time>2025-01-10T11:17:37.000Z</time>
      </trkpt>
      <trkpt lat="43.55741" lon="6.78781">
        <ele>162.5</ele>
        <time>2025-01-10T11:17:36.000Z</time>
      </trkpt>
      <trkpt lat="43.55742" lon="6.78781">
        <ele>162.6</ele>
        <time>2025-01-10T11:17:35.000Z</time>
      </trkpt>
      <trkpt lat="43.55744" lon="6.78781">
        <ele>162.7</ele>
        <time>2025-01-10T11:17:34.000Z</time>
      </trkpt>
      <trkpt lat="43.55748" lon="6.7878">
        <ele>162.9</ele>
        <time>2025-01-10T11:17:33.000Z</time>
      </trkpt>
      <trkpt lat="43.55751" lon="6.7878">
        <ele>163</ele>
        <time>2025-01-10T11:17:32.000Z</time>
      </trkpt>
      <trkpt lat="43.55756" lon="6.78779">
        <ele>163.2</ele>
        <time>2025-01-10T11:17:31.000Z</time>
      </trkpt>
      <trkpt lat="43.5576" lon="6.78778">
        <ele>163.2</ele>
        <time>2025-01-10T11:17:30.000Z</time>
      </trkpt>
      <trkpt lat="43.55764" lon="6.78777">
        <ele>163.3</ele>
        <time>2025-01-10T11:17:29.000Z</time>
      </trkpt>
      <trkpt lat="43.55768" lon="6.78776">
        <ele>163.3</ele>
        <time>2025-01-10T11:17:28.000Z</time>
      </trkpt>
      <trkpt lat="43.55773" lon="6.78774">
        <ele>163.3</ele>
        <time>2025-01-10T11:17:27.000Z</time>
      </trkpt>
      <trkpt lat="43.55778" lon="6.78772">
        <ele>163.3</ele>
        <time>2025-01-10T11:17:26.000Z</time>
      </trkpt>
      <trkpt lat="43.55783" lon="6.78771">
        <ele>163.3</ele>
        <time>2025-01-10T11:17:25.000Z</time>
      </trkpt>
      <trkpt lat="43.55787" lon="6.78769">
        <ele>163.4</ele>
        <time>2025-01-10T11:17:24.000Z</time>
      </trkpt>
      <trkpt lat="43.55791" lon="6.78767">
        <ele>163.4</ele>
        <time>2025-01-10T11:17:23.000Z</time>
      </trkpt>
      <trkpt lat="43.55797" lon="6.78766">
        <ele>163.5</ele>
        <time>2025-01-10T11:17:22.000Z</time>
      </trkpt>
      <trkpt lat="43.55802" lon="6.78766">
        <ele>163.5</ele>
        <time>2025-01-10T11:17:21.000Z</time>
      </trkpt>
      <trkpt lat="43.55806" lon="6.78766">
        <ele>163.5</ele>
        <time>2025-01-10T11:17:20.000Z</time>
      </trkpt>
      <trkpt lat="43.55811" lon="6.78767">
        <ele>163.5</ele>
        <time>2025-01-10T11:17:19.000Z</time>
      </trkpt>
      <trkpt lat="43.55815" lon="6.78768">
        <ele>163.5</ele>
        <time>2025-01-10T11:17:18.000Z</time>
      </trkpt>
      <trkpt lat="43.5582" lon="6.78771">
        <ele>163.6</ele>
        <time>2025-01-10T11:17:17.000Z</time>
      </trkpt>
      <trkpt lat="43.55824" lon="6.78774">
        <ele>163.6</ele>
        <time>2025-01-10T11:17:16.000Z</time>
      </trkpt>
      <trkpt lat="43.55828" lon="6.78778">
        <ele>163.7</ele>
        <time>2025-01-10T11:17:15.000Z</time>
      </trkpt>
      <trkpt lat="43.55833" lon="6.78781">
        <ele>163.8</ele>
        <time>2025-01-10T11:17:14.000Z</time>
      </trkpt>
      <trkpt lat="43.55838" lon="6.78784">
        <ele>164</ele>
        <time>2025-01-10T11:17:13.000Z</time>
      </trkpt>
      <trkpt lat="43.55843" lon="6.78787">
        <ele>164.2</ele>
        <time>2025-01-10T11:17:12.000Z</time>
      </trkpt>
      <trkpt lat="43.55847" lon="6.7879">
        <ele>164.4</ele>
        <time>2025-01-10T11:17:11.000Z</time>
      </trkpt>
      <trkpt lat="43.55851" lon="6.78794">
        <ele>164.5</ele>
        <time>2025-01-10T11:17:10.000Z</time>
      </trkpt>
      <trkpt lat="43.55855" lon="6.78798">
        <ele>164.5</ele>
        <time>2025-01-10T11:17:09.000Z</time>
      </trkpt>
      <trkpt lat="43.55857" lon="6.78803">
        <ele>164.5</ele>
        <time>2025-01-10T11:17:08.000Z</time>
      </trkpt>
      <trkpt lat="43.5586" lon="6.78808">
        <ele>164.4</ele>
        <time>2025-01-10T11:17:07.000Z</time>
      </trkpt>
      <trkpt lat="43.55863" lon="6.78813">
        <ele>164.3</ele>
        <time>2025-01-10T11:17:06.000Z</time>
      </trkpt>
      <trkpt lat="43.55865" lon="6.78818">
        <ele>164.1</ele>
        <time>2025-01-10T11:17:05.000Z</time>
      </trkpt>
      <trkpt lat="43.55868" lon="6.78823">
        <ele>163.9</ele>
        <time>2025-01-10T11:17:04.000Z</time>
      </trkpt>
      <trkpt lat="43.5587" lon="6.78828">
        <ele>163.6</ele>
        <time>2025-01-10T11:17:03.000Z</time>
      </trkpt>
      <trkpt lat="43.55873" lon="6.78832">
        <ele>163.3</ele>
        <time>2025-01-10T11:17:02.000Z</time>
      </trkpt>
      <trkpt lat="43.55875" lon="6.78837">
        <ele>163.1</ele>
        <time>2025-01-10T11:17:01.000Z</time>
      </trkpt>
      <trkpt lat="43.55878" lon="6.78841">
        <ele>162.8</ele>
        <time>2025-01-10T11:17:00.000Z</time>
      </trkpt>
      <trkpt lat="43.55881" lon="6.78845">
        <ele>162.4</ele>
        <time>2025-01-10T11:16:59.000Z</time>
      </trkpt>
      <trkpt lat="43.55884" lon="6.78849">
        <ele>162.1</ele>
        <time>2025-01-10T11:16:58.000Z</time>
      </trkpt>
      <trkpt lat="43.55887" lon="6.78852">
        <ele>161.7</ele>
        <time>2025-01-10T11:16:57.000Z</time>
      </trkpt>
      <trkpt lat="43.5589" lon="6.78855">
        <ele>161.3</ele>
        <time>2025-01-10T11:16:56.000Z</time>
      </trkpt>
      <trkpt lat="43.55893" lon="6.78858">
        <ele>160.9</ele>
        <time>2025-01-10T11:16:55.000Z</time>
      </trkpt>
      <trkpt lat="43.55896" lon="6.78859">
        <ele>160.5</ele>
        <time>2025-01-10T11:16:54.000Z</time>
      </trkpt>
      <trkpt lat="43.55899" lon="6.78859">
        <ele>160.1</ele>
        <time>2025-01-10T11:16:53.000Z</time>
      </trkpt>
      <trkpt lat="43.55903" lon="6.78859">
        <ele>159.6</ele>
        <time>2025-01-10T11:16:52.000Z</time>
      </trkpt>
      <trkpt lat="43.55907" lon="6.78858">
        <ele>159.1</ele>
        <time>2025-01-10T11:16:51.000Z</time>
      </trkpt>
      <trkpt lat="43.55911" lon="6.78856">
        <ele>158.5</ele>
        <time>2025-01-10T11:16:50.000Z</time>
      </trkpt>
      <trkpt lat="43.55916" lon="6.78854">
        <ele>158.1</ele>
        <time>2025-01-10T11:16:49.000Z</time>
      </trkpt>
      <trkpt lat="43.5592" lon="6.78852">
        <ele>157.8</ele>
        <time>2025-01-10T11:16:48.000Z</time>
      </trkpt>
      <trkpt lat="43.55925" lon="6.7885">
        <ele>157.6</ele>
        <time>2025-01-10T11:16:47.000Z</time>
      </trkpt>
      <trkpt lat="43.55929" lon="6.7885">
        <ele>157.5</ele>
        <time>2025-01-10T11:16:46.000Z</time>
      </trkpt>
      <trkpt lat="43.55933" lon="6.7885">
        <ele>157.5</ele>
        <time>2025-01-10T11:16:45.000Z</time>
      </trkpt>
      <trkpt lat="43.55937" lon="6.78852">
        <ele>157.7</ele>
        <time>2025-01-10T11:16:44.000Z</time>
      </trkpt>
      <trkpt lat="43.5594" lon="6.78854">
        <ele>157.8</ele>
        <time>2025-01-10T11:16:43.000Z</time>
      </trkpt>
      <trkpt lat="43.55942" lon="6.78856">
        <ele>158</ele>
        <time>2025-01-10T11:16:42.000Z</time>
      </trkpt>
      <trkpt lat="43.55945" lon="6.78858">
        <ele>158.2</ele>
        <time>2025-01-10T11:16:41.000Z</time>
      </trkpt>
      <trkpt lat="43.55947" lon="6.7886">
        <ele>158.5</ele>
        <time>2025-01-10T11:16:40.000Z</time>
      </trkpt>
      <trkpt lat="43.55951" lon="6.78863">
        <ele>158.8</ele>
        <time>2025-01-10T11:16:39.000Z</time>
      </trkpt>
      <trkpt lat="43.55955" lon="6.78865">
        <ele>159.2</ele>
        <time>2025-01-10T11:16:38.000Z</time>
      </trkpt>
      <trkpt lat="43.55959" lon="6.78867">
        <ele>159.7</ele>
        <time>2025-01-10T11:16:37.000Z</time>
      </trkpt>
      <trkpt lat="43.55964" lon="6.78868">
        <ele>160.1</ele>
        <time>2025-01-10T11:16:36.000Z</time>
      </trkpt>
      <trkpt lat="43.55969" lon="6.78869">
        <ele>160.5</ele>
        <time>2025-01-10T11:16:35.000Z</time>
      </trkpt>
      <trkpt lat="43.55974" lon="6.7887">
        <ele>161</ele>
        <time>2025-01-10T11:16:34.000Z</time>
      </trkpt>
      <trkpt lat="43.55979" lon="6.78871">
        <ele>161.4</ele>
        <time>2025-01-10T11:16:33.000Z</time>
      </trkpt>
      <trkpt lat="43.55984" lon="6.78873">
        <ele>161.7</ele>
        <time>2025-01-10T11:16:32.000Z</time>
      </trkpt>
      <trkpt lat="43.55988" lon="6.78875">
        <ele>162</ele>
        <time>2025-01-10T11:16:31.000Z</time>
      </trkpt>
      <trkpt lat="43.55993" lon="6.78878">
        <ele>162.3</ele>
        <time>2025-01-10T11:16:30.000Z</time>
      </trkpt>
      <trkpt lat="43.55997" lon="6.78881">
        <ele>162.6</ele>
        <time>2025-01-10T11:16:29.000Z</time>
      </trkpt>
      <trkpt lat="43.56001" lon="6.78884">
        <ele>162.8</ele>
        <time>2025-01-10T11:16:28.000Z</time>
      </trkpt>
      <trkpt lat="43.56004" lon="6.78887">
        <ele>163</ele>
        <time>2025-01-10T11:16:27.000Z</time>
      </trkpt>
      <trkpt lat="43.56008" lon="6.7889">
        <ele>163.3</ele>
        <time>2025-01-10T11:16:26.000Z</time>
      </trkpt>
      <trkpt lat="43.56012" lon="6.78893">
        <ele>163.5</ele>
        <time>2025-01-10T11:16:25.000Z</time>
      </trkpt>
      <trkpt lat="43.56016" lon="6.78896">
        <ele>163.7</ele>
        <time>2025-01-10T11:16:24.000Z</time>
      </trkpt>
      <trkpt lat="43.56019" lon="6.78898">
        <ele>163.9</ele>
        <time>2025-01-10T11:16:23.000Z</time>
      </trkpt>
      <trkpt lat="43.56023" lon="6.789">
        <ele>164</ele>
        <time>2025-01-10T11:16:22.000Z</time>
      </trkpt>
      <trkpt lat="43.56027" lon="6.78901">
        <ele>164.2</ele>
        <time>2025-01-10T11:16:21.000Z</time>
      </trkpt>
      <trkpt lat="43.56031" lon="6.78901">
        <ele>164.3</ele>
        <time>2025-01-10T11:16:20.000Z</time>
      </trkpt>
      <trkpt lat="43.56035" lon="6.78901">
        <ele>164.3</ele>
        <time>2025-01-10T11:16:19.000Z</time>
      </trkpt>
      <trkpt lat="43.56039" lon="6.789">
        <ele>164.2</ele>
        <time>2025-01-10T11:16:18.000Z</time>
      </trkpt>
      <trkpt lat="43.56043" lon="6.78898">
        <ele>164.1</ele>
        <time>2025-01-10T11:16:17.000Z</time>
      </trkpt>
      <trkpt lat="43.56048" lon="6.78896">
        <ele>163.9</ele>
        <time>2025-01-10T11:16:16.000Z</time>
      </trkpt>
      <trkpt lat="43.56052" lon="6.78894">
        <ele>163.7</ele>
        <time>2025-01-10T11:16:15.000Z</time>
      </trkpt>
      <trkpt lat="43.56057" lon="6.78891">
        <ele>163.5</ele>
        <time>2025-01-10T11:16:14.000Z</time>
      </trkpt>
      <trkpt lat="43.56061" lon="6.78888">
        <ele>163.3</ele>
        <time>2025-01-10T11:16:13.000Z</time>
      </trkpt>
      <trkpt lat="43.56065" lon="6.78886">
        <ele>163.1</ele>
        <time>2025-01-10T11:16:12.000Z</time>
      </trkpt>
      <trkpt lat="43.5607" lon="6.78885">
        <ele>162.9</ele>
        <time>2025-01-10T11:16:11.000Z</time>
      </trkpt>
      <trkpt lat="43.56074" lon="6.78887">
        <ele>162.7</ele>
        <time>2025-01-10T11:16:10.000Z</time>
      </trkpt>
      <trkpt lat="43.56078" lon="6.7889">
        <ele>162.5</ele>
        <time>2025-01-10T11:16:09.000Z</time>
      </trkpt>
      <trkpt lat="43.56082" lon="6.78894">
        <ele>162.3</ele>
        <time>2025-01-10T11:16:08.000Z</time>
      </trkpt>
      <trkpt lat="43.56084" lon="6.789">
        <ele>162.1</ele>
        <time>2025-01-10T11:16:07.000Z</time>
      </trkpt>
      <trkpt lat="43.56086" lon="6.78906">
        <ele>162.1</ele>
        <time>2025-01-10T11:16:06.000Z</time>
      </trkpt>
      <trkpt lat="43.56089" lon="6.78913">
        <ele>162</ele>
        <time>2025-01-10T11:16:05.000Z</time>
      </trkpt>
      <trkpt lat="43.56091" lon="6.78919">
        <ele>162</ele>
        <time>2025-01-10T11:16:04.000Z</time>
      </trkpt>
      <trkpt lat="43.56094" lon="6.78925">
        <ele>162.1</ele>
        <time>2025-01-10T11:16:03.000Z</time>
      </trkpt>
      <trkpt lat="43.56098" lon="6.7893">
        <ele>162.1</ele>
        <time>2025-01-10T11:16:02.000Z</time>
      </trkpt>
      <trkpt lat="43.56101" lon="6.78936">
        <ele>162.1</ele>
        <time>2025-01-10T11:16:01.000Z</time>
      </trkpt>
      <trkpt lat="43.56104" lon="6.78941">
        <ele>162.2</ele>
        <time>2025-01-10T11:16:00.000Z</time>
      </trkpt>
      <trkpt lat="43.56107" lon="6.78946">
        <ele>162.2</ele>
        <time>2025-01-10T11:15:59.000Z</time>
      </trkpt>
      <trkpt lat="43.56111" lon="6.78952">
        <ele>162.2</ele>
        <time>2025-01-10T11:15:58.000Z</time>
      </trkpt>
      <trkpt lat="43.56114" lon="6.78957">
        <ele>162.2</ele>
        <time>2025-01-10T11:15:57.000Z</time>
      </trkpt>
      <trkpt lat="43.56118" lon="6.78962">
        <ele>162.1</ele>
        <time>2025-01-10T11:15:56.000Z</time>
      </trkpt>
      <trkpt lat="43.56121" lon="6.78967">
        <ele>162.1</ele>
        <time>2025-01-10T11:15:55.000Z</time>
      </trkpt>
      <trkpt lat="43.56124" lon="6.78973">
        <ele>162</ele>
        <time>2025-01-10T11:15:54.000Z</time>
      </trkpt>
      <trkpt lat="43.56127" lon="6.78978">
        <ele>162</ele>
        <time>2025-01-10T11:15:53.000Z</time>
      </trkpt>
      <trkpt lat="43.56129" lon="6.78983">
        <ele>161.9</ele>
        <time>2025-01-10T11:15:52.000Z</time>
      </trkpt>
      <trkpt lat="43.56132" lon="6.78988">
        <ele>161.7</ele>
        <time>2025-01-10T11:15:51.000Z</time>
      </trkpt>
      <trkpt lat="43.56134" lon="6.78993">
        <ele>161.6</ele>
        <time>2025-01-10T11:15:50.000Z</time>
      </trkpt>
      <trkpt lat="43.56135" lon="6.78999">
        <ele>161.4</ele>
        <time>2025-01-10T11:15:49.000Z</time>
      </trkpt>
      <trkpt lat="43.56136" lon="6.79005">
        <ele>161.2</ele>
        <time>2025-01-10T11:15:48.000Z</time>
      </trkpt>
      <trkpt lat="43.56137" lon="6.7901">
        <ele>161</ele>
        <time>2025-01-10T11:15:47.000Z</time>
      </trkpt>
      <trkpt lat="43.56137" lon="6.79015">
        <ele>160.7</ele>
        <time>2025-01-10T11:15:46.000Z</time>
      </trkpt>
      <trkpt lat="43.56138" lon="6.79021">
        <ele>160.4</ele>
        <time>2025-01-10T11:15:45.000Z</time>
      </trkpt>
      <trkpt lat="43.56139" lon="6.79026">
        <ele>160.1</ele>
        <time>2025-01-10T11:15:44.000Z</time>
      </trkpt>
      <trkpt lat="43.56139" lon="6.79032">
        <ele>159.7</ele>
        <time>2025-01-10T11:15:43.000Z</time>
      </trkpt>
      <trkpt lat="43.56139" lon="6.79038">
        <ele>159.3</ele>
        <time>2025-01-10T11:15:42.000Z</time>
      </trkpt>
      <trkpt lat="43.5614" lon="6.79044">
        <ele>158.9</ele>
        <time>2025-01-10T11:15:41.000Z</time>
      </trkpt>
      <trkpt lat="43.56141" lon="6.7905">
        <ele>158.5</ele>
        <time>2025-01-10T11:15:40.000Z</time>
      </trkpt>
      <trkpt lat="43.56142" lon="6.79055">
        <ele>158.2</ele>
        <time>2025-01-10T11:15:39.000Z</time>
      </trkpt>
      <trkpt lat="43.56143" lon="6.79059">
        <ele>158</ele>
        <time>2025-01-10T11:15:38.000Z</time>
      </trkpt>
      <trkpt lat="43.56146" lon="6.79064">
        <ele>157.7</ele>
        <time>2025-01-10T11:15:37.000Z</time>
      </trkpt>
      <trkpt lat="43.56148" lon="6.79068">
        <ele>157.5</ele>
        <time>2025-01-10T11:15:36.000Z</time>
      </trkpt>
      <trkpt lat="43.5615" lon="6.79073">
        <ele>157.3</ele>
        <time>2025-01-10T11:15:35.000Z</time>
      </trkpt>
      <trkpt lat="43.56153" lon="6.79077">
        <ele>157.1</ele>
        <time>2025-01-10T11:15:34.000Z</time>
      </trkpt>
      <trkpt lat="43.56157" lon="6.7908">
        <ele>157</ele>
        <time>2025-01-10T11:15:33.000Z</time>
      </trkpt>
      <trkpt lat="43.56161" lon="6.79082">
        <ele>156.9</ele>
        <time>2025-01-10T11:15:32.000Z</time>
      </trkpt>
      <trkpt lat="43.56165" lon="6.79084">
        <ele>156.9</ele>
        <time>2025-01-10T11:15:31.000Z</time>
      </trkpt>
      <trkpt lat="43.56168" lon="6.79087">
        <ele>156.9</ele>
        <time>2025-01-10T11:15:30.000Z</time>
      </trkpt>
      <trkpt lat="43.56171" lon="6.79089">
        <ele>156.9</ele>
        <time>2025-01-10T11:15:29.000Z</time>
      </trkpt>
      <trkpt lat="43.56174" lon="6.79091">
        <ele>156.9</ele>
        <time>2025-01-10T11:15:28.000Z</time>
      </trkpt>
      <trkpt lat="43.56174" lon="6.79092">
        <ele>156.9</ele>
        <time>2025-01-10T11:15:27.000Z</time>
      </trkpt>
      <trkpt lat="43.56174" lon="6.79092">
        <ele>156.9</ele>
        <time>2025-01-10T11:15:26.000Z</time>
      </trkpt>
      <trkpt lat="43.56174" lon="6.79092">
        <ele>156.9</ele>
        <time>2025-01-10T11:15:25.000Z</time>
      </trkpt>
      <trkpt lat="43.56174" lon="6.79092">
        <ele>156.9</ele>
        <time>2025-01-10T11:15:24.000Z</time>
      </trkpt>
      <trkpt lat="43.56174" lon="6.79092">
        <ele>156.9</ele>
        <time>2025-01-10T11:15:23.000Z</time>
      </trkpt>
      <trkpt lat="43.56174" lon="6.79092">
        <ele>156.9</ele>
        <time>2025-01-10T11:15:22.000Z</time>
      </trkpt>
      <trkpt lat="43.56174" lon="6.79092">
        <ele>156.9</ele>
        <time>2025-01-10T11:15:21.000Z</time>
      </trkpt>
      <trkpt lat="43.56174" lon="6.79092">
        <ele>156.9</ele>
        <time>2025-01-10T11:15:20.000Z</time>
      </trkpt>
      <trkpt lat="43.56174" lon="6.79092">
        <ele>156.9</ele>
        <time>2025-01-10T11:15:19.000Z</time>
      </trkpt>
      <trkpt lat="43.56174" lon="6.79092">
        <ele>156.9</ele>
        <time>2025-01-10T11:15:18.000Z</time>
      </trkpt>
      <trkpt lat="43.56174" lon="6.79092">
        <ele>156.9</ele>
        <time>2025-01-10T11:15:17.000Z</time>
      </trkpt>
      <trkpt lat="43.56174" lon="6.79092">
        <ele>156.9</ele>
        <time>2025-01-10T11:15:16.000Z</time>
      </trkpt>
      <trkpt lat="43.56174" lon="6.79093">
        <ele>156.9</ele>
        <time>2025-01-10T11:15:15.000Z</time>
      </trkpt>
      <trkpt lat="43.56174" lon="6.79093">
        <ele>156.9</ele>
        <time>2025-01-10T11:15:14.000Z</time>
      </trkpt>
      <trkpt lat="43.56173" lon="6.79093">
        <ele>156.9</ele>
        <time>2025-01-10T11:15:13.000Z</time>
      </trkpt>
      <trkpt lat="43.56172" lon="6.79093">
        <ele>156.9</ele>
        <time>2025-01-10T11:15:12.000Z</time>
      </trkpt>
      <trkpt lat="43.56171" lon="6.79093">
        <ele>156.9</ele>
        <time>2025-01-10T11:15:11.000Z</time>
      </trkpt>
      <trkpt lat="43.56172" lon="6.79094">
        <ele>156.9</ele>
        <time>2025-01-10T11:15:10.000Z</time>
      </trkpt>
      <trkpt lat="43.56173" lon="6.79096">
        <ele>156.9</ele>
        <time>2025-01-10T11:15:09.000Z</time>
      </trkpt>
      <trkpt lat="43.56173" lon="6.79096">
        <ele>156.9</ele>
        <time>2025-01-10T11:15:08.000Z</time>
      </trkpt>
      <trkpt lat="43.56174" lon="6.79096">
        <ele>156.9</ele>
        <time>2025-01-10T11:15:07.000Z</time>
      </trkpt>
      <trkpt lat="43.56174" lon="6.79097">
        <ele>156.9</ele>
        <time>2025-01-10T11:15:06.000Z</time>
      </trkpt>
      <trkpt lat="43.56174" lon="6.79097">
        <ele>156.9</ele>
        <time>2025-01-10T11:15:05.000Z</time>
      </trkpt>
      <trkpt lat="43.56175" lon="6.79097">
        <ele>156.9</ele>
        <time>2025-01-10T11:15:04.000Z</time>
      </trkpt>
      <trkpt lat="43.56175" lon="6.79098">
        <ele>156.9</ele>
        <time>2025-01-10T11:15:03.000Z</time>
      </trkpt>
      <trkpt lat="43.56176" lon="6.79097">
        <ele>156.9</ele>
        <time>2025-01-10T11:15:02.000Z</time>
      </trkpt>
      <trkpt lat="43.56177" lon="6.79096">
        <ele>157</ele>
        <time>2025-01-10T11:15:01.000Z</time>
      </trkpt>
      <trkpt lat="43.56178" lon="6.79094">
        <ele>157.1</ele>
        <time>2025-01-10T11:15:00.000Z</time>
      </trkpt>
      <trkpt lat="43.56178" lon="6.79091">
        <ele>157.2</ele>
        <time>2025-01-10T11:14:59.000Z</time>
      </trkpt>
      <trkpt lat="43.56179" lon="6.79088">
        <ele>157.4</ele>
        <time>2025-01-10T11:14:58.000Z</time>
      </trkpt>
      <trkpt lat="43.5618" lon="6.79084">
        <ele>157.5</ele>
        <time>2025-01-10T11:14:57.000Z</time>
      </trkpt>
      <trkpt lat="43.56181" lon="6.79078">
        <ele>157.7</ele>
        <time>2025-01-10T11:14:56.000Z</time>
      </trkpt>
      <trkpt lat="43.56182" lon="6.79072">
        <ele>158</ele>
        <time>2025-01-10T11:14:55.000Z</time>
      </trkpt>
      <trkpt lat="43.56184" lon="6.79066">
        <ele>158.3</ele>
        <time>2025-01-10T11:14:54.000Z</time>
      </trkpt>
      <trkpt lat="43.56186" lon="6.7906">
        <ele>158.6</ele>
        <time>2025-01-10T11:14:53.000Z</time>
      </trkpt>
      <trkpt lat="43.56188" lon="6.79054">
        <ele>158.8</ele>
        <time>2025-01-10T11:14:52.000Z</time>
      </trkpt>
      <trkpt lat="43.5619" lon="6.79048">
        <ele>159.1</ele>
        <time>2025-01-10T11:14:51.000Z</time>
      </trkpt>
      <trkpt lat="43.56192" lon="6.79041">
        <ele>159.4</ele>
        <time>2025-01-10T11:14:50.000Z</time>
      </trkpt>
      <trkpt lat="43.56194" lon="6.79034">
        <ele>159.8</ele>
        <time>2025-01-10T11:14:49.000Z</time>
      </trkpt>
      <trkpt lat="43.56195" lon="6.79027">
        <ele>160.2</ele>
        <time>2025-01-10T11:14:48.000Z</time>
      </trkpt>
      <trkpt lat="43.56196" lon="6.7902">
        <ele>160.6</ele>
        <time>2025-01-10T11:14:47.000Z</time>
      </trkpt>
      <trkpt lat="43.56196" lon="6.79012">
        <ele>161</ele>
        <time>2025-01-10T11:14:46.000Z</time>
      </trkpt>
      <trkpt lat="43.56196" lon="6.79005">
        <ele>161.5</ele>
        <time>2025-01-10T11:14:45.000Z</time>
      </trkpt>
      <trkpt lat="43.56196" lon="6.78999">
        <ele>162</ele>
        <time>2025-01-10T11:14:44.000Z</time>
      </trkpt>
      <trkpt lat="43.56197" lon="6.78992">
        <ele>162.5</ele>
        <time>2025-01-10T11:14:43.000Z</time>
      </trkpt>
      <trkpt lat="43.56197" lon="6.78986">
        <ele>162.9</ele>
        <time>2025-01-10T11:14:42.000Z</time>
      </trkpt>
      <trkpt lat="43.56195" lon="6.78978">
        <ele>163.6</ele>
        <time>2025-01-10T11:14:41.000Z</time>
      </trkpt>
      <trkpt lat="43.56194" lon="6.78969">
        <ele>164.2</ele>
        <time>2025-01-10T11:14:40.000Z</time>
      </trkpt>
      <trkpt lat="43.56193" lon="6.7896">
        <ele>164.9</ele>
        <time>2025-01-10T11:14:39.000Z</time>
      </trkpt>
      <trkpt lat="43.56192" lon="6.78951">
        <ele>165.5</ele>
        <time>2025-01-10T11:14:38.000Z</time>
      </trkpt>
      <trkpt lat="43.5619" lon="6.78941">
        <ele>166.1</ele>
        <time>2025-01-10T11:14:37.000Z</time>
      </trkpt>
      <trkpt lat="43.56189" lon="6.78932">
        <ele>166.6</ele>
        <time>2025-01-10T11:14:36.000Z</time>
      </trkpt>
      <trkpt lat="43.56187" lon="6.78922">
        <ele>167</ele>
        <time>2025-01-10T11:14:35.000Z</time>
      </trkpt>
      <trkpt lat="43.56187" lon="6.78912">
        <ele>167.5</ele>
        <time>2025-01-10T11:14:34.000Z</time>
      </trkpt>
      <trkpt lat="43.56186" lon="6.78903">
        <ele>167.9</ele>
        <time>2025-01-10T11:14:33.000Z</time>
      </trkpt>
      <trkpt lat="43.56186" lon="6.78893">
        <ele>168.3</ele>
        <time>2025-01-10T11:14:32.000Z</time>
      </trkpt>
      <trkpt lat="43.56186" lon="6.78884">
        <ele>168.7</ele>
        <time>2025-01-10T11:14:31.000Z</time>
      </trkpt>
      <trkpt lat="43.56186" lon="6.78874">
        <ele>169.2</ele>
        <time>2025-01-10T11:14:30.000Z</time>
      </trkpt>
      <trkpt lat="43.56185" lon="6.78865">
        <ele>169.7</ele>
        <time>2025-01-10T11:14:29.000Z</time>
      </trkpt>
      <trkpt lat="43.56185" lon="6.78855">
        <ele>170.1</ele>
        <time>2025-01-10T11:14:28.000Z</time>
      </trkpt>
      <trkpt lat="43.56186" lon="6.78847">
        <ele>170.6</ele>
        <time>2025-01-10T11:14:27.000Z</time>
      </trkpt>
      <trkpt lat="43.56187" lon="6.78837">
        <ele>171</ele>
        <time>2025-01-10T11:14:26.000Z</time>
      </trkpt>
      <trkpt lat="43.56189" lon="6.78828">
        <ele>171.3</ele>
        <time>2025-01-10T11:14:25.000Z</time>
      </trkpt>
      <trkpt lat="43.56191" lon="6.78819">
        <ele>171.7</ele>
        <time>2025-01-10T11:14:24.000Z</time>
      </trkpt>
      <trkpt lat="43.56193" lon="6.7881">
        <ele>172</ele>
        <time>2025-01-10T11:14:23.000Z</time>
      </trkpt>
      <trkpt lat="43.56196" lon="6.78801">
        <ele>172.3</ele>
        <time>2025-01-10T11:14:22.000Z</time>
      </trkpt>
      <trkpt lat="43.56198" lon="6.78792">
        <ele>172.6</ele>
        <time>2025-01-10T11:14:21.000Z</time>
      </trkpt>
      <trkpt lat="43.56201" lon="6.78784">
        <ele>172.9</ele>
        <time>2025-01-10T11:14:20.000Z</time>
      </trkpt>
      <trkpt lat="43.56204" lon="6.78775">
        <ele>173.2</ele>
        <time>2025-01-10T11:14:19.000Z</time>
      </trkpt>
      <trkpt lat="43.56207" lon="6.78766">
        <ele>173.5</ele>
        <time>2025-01-10T11:14:18.000Z</time>
      </trkpt>
      <trkpt lat="43.56211" lon="6.78757">
        <ele>173.9</ele>
        <time>2025-01-10T11:14:17.000Z</time>
      </trkpt>
      <trkpt lat="43.56214" lon="6.78748">
        <ele>174.2</ele>
        <time>2025-01-10T11:14:16.000Z</time>
      </trkpt>
      <trkpt lat="43.56217" lon="6.78738">
        <ele>174.6</ele>
        <time>2025-01-10T11:14:15.000Z</time>
      </trkpt>
      <trkpt lat="43.5622" lon="6.78729">
        <ele>175.1</ele>
        <time>2025-01-10T11:14:14.000Z</time>
      </trkpt>
      <trkpt lat="43.56221" lon="6.78719">
        <ele>175.5</ele>
        <time>2025-01-10T11:14:13.000Z</time>
      </trkpt>
      <trkpt lat="43.56223" lon="6.78709">
        <ele>176</ele>
        <time>2025-01-10T11:14:12.000Z</time>
      </trkpt>
      <trkpt lat="43.56224" lon="6.78699">
        <ele>176.5</ele>
        <time>2025-01-10T11:14:11.000Z</time>
      </trkpt>
      <trkpt lat="43.56226" lon="6.78689">
        <ele>177</ele>
        <time>2025-01-10T11:14:10.000Z</time>
      </trkpt>
      <trkpt lat="43.56228" lon="6.7868">
        <ele>177.6</ele>
        <time>2025-01-10T11:14:09.000Z</time>
      </trkpt>
      <trkpt lat="43.56231" lon="6.78671">
        <ele>178.1</ele>
        <time>2025-01-10T11:14:08.000Z</time>
      </trkpt>
      <trkpt lat="43.56234" lon="6.78663">
        <ele>178.6</ele>
        <time>2025-01-10T11:14:07.000Z</time>
      </trkpt>
      <trkpt lat="43.56236" lon="6.78654">
        <ele>179.1</ele>
        <time>2025-01-10T11:14:06.000Z</time>
      </trkpt>
      <trkpt lat="43.56239" lon="6.78645">
        <ele>179.7</ele>
        <time>2025-01-10T11:14:05.000Z</time>
      </trkpt>
      <trkpt lat="43.56242" lon="6.78635">
        <ele>180.3</ele>
        <time>2025-01-10T11:14:04.000Z</time>
      </trkpt>
      <trkpt lat="43.56245" lon="6.78624">
        <ele>180.9</ele>
        <time>2025-01-10T11:14:03.000Z</time>
      </trkpt>
      <trkpt lat="43.56247" lon="6.78614">
        <ele>181.5</ele>
        <time>2025-01-10T11:14:02.000Z</time>
      </trkpt>
      <trkpt lat="43.5625" lon="6.78604">
        <ele>182.1</ele>
        <time>2025-01-10T11:14:01.000Z</time>
      </trkpt>
      <trkpt lat="43.56251" lon="6.78594">
        <ele>182.7</ele>
        <time>2025-01-10T11:14:00.000Z</time>
      </trkpt>
      <trkpt lat="43.56253" lon="6.78584">
        <ele>183.3</ele>
        <time>2025-01-10T11:13:59.000Z</time>
      </trkpt>
      <trkpt lat="43.56254" lon="6.78574">
        <ele>184</ele>
        <time>2025-01-10T11:13:58.000Z</time>
      </trkpt>
      <trkpt lat="43.56256" lon="6.78565">
        <ele>184.7</ele>
        <time>2025-01-10T11:13:57.000Z</time>
      </trkpt>
      <trkpt lat="43.56258" lon="6.78556">
        <ele>185.4</ele>
        <time>2025-01-10T11:13:56.000Z</time>
      </trkpt>
      <trkpt lat="43.5626" lon="6.78549">
        <ele>186</ele>
        <time>2025-01-10T11:13:55.000Z</time>
      </trkpt>
      <trkpt lat="43.56262" lon="6.7854">
        <ele>186.7</ele>
        <time>2025-01-10T11:13:54.000Z</time>
      </trkpt>
      <trkpt lat="43.56263" lon="6.78532">
        <ele>187.1</ele>
        <time>2025-01-10T11:13:53.000Z</time>
      </trkpt>
      <trkpt lat="43.56264" lon="6.78524">
        <ele>187.5</ele>
        <time>2025-01-10T11:13:52.000Z</time>
      </trkpt>
      <trkpt lat="43.56265" lon="6.78517">
        <ele>187.7</ele>
        <time>2025-01-10T11:13:51.000Z</time>
      </trkpt>
      <trkpt lat="43.56267" lon="6.78511">
        <ele>187.9</ele>
        <time>2025-01-10T11:13:50.000Z</time>
      </trkpt>
      <trkpt lat="43.56269" lon="6.78505">
        <ele>188</ele>
        <time>2025-01-10T11:13:49.000Z</time>
      </trkpt>
      <trkpt lat="43.56272" lon="6.78499">
        <ele>188.1</ele>
        <time>2025-01-10T11:13:48.000Z</time>
      </trkpt>
      <trkpt lat="43.56275" lon="6.78493">
        <ele>188.1</ele>
        <time>2025-01-10T11:13:47.000Z</time>
      </trkpt>
      <trkpt lat="43.56279" lon="6.78486">
        <ele>188</ele>
        <time>2025-01-10T11:13:46.000Z</time>
      </trkpt>
      <trkpt lat="43.56282" lon="6.7848">
        <ele>188</ele>
        <time>2025-01-10T11:13:45.000Z</time>
      </trkpt>
      <trkpt lat="43.56286" lon="6.78473">
        <ele>188</ele>
        <time>2025-01-10T11:13:44.000Z</time>
      </trkpt>
      <trkpt lat="43.56291" lon="6.78467">
        <ele>188.1</ele>
        <time>2025-01-10T11:13:43.000Z</time>
      </trkpt>
      <trkpt lat="43.56297" lon="6.78461">
        <ele>188.2</ele>
        <time>2025-01-10T11:13:42.000Z</time>
      </trkpt>
      <trkpt lat="43.56304" lon="6.78457">
        <ele>188.5</ele>
        <time>2025-01-10T11:13:41.000Z</time>
      </trkpt>
      <trkpt lat="43.56311" lon="6.78454">
        <ele>189</ele>
        <time>2025-01-10T11:13:40.000Z</time>
      </trkpt>
      <trkpt lat="43.56319" lon="6.78452">
        <ele>189.7</ele>
        <time>2025-01-10T11:13:39.000Z</time>
      </trkpt>
      <trkpt lat="43.56325" lon="6.78449">
        <ele>190.4</ele>
        <time>2025-01-10T11:13:38.000Z</time>
      </trkpt>
      <trkpt lat="43.56331" lon="6.78445">
        <ele>191.2</ele>
        <time>2025-01-10T11:13:37.000Z</time>
      </trkpt>
      <trkpt lat="43.56336" lon="6.78441">
        <ele>191.8</ele>
        <time>2025-01-10T11:13:36.000Z</time>
      </trkpt>
      <trkpt lat="43.56341" lon="6.78433">
        <ele>192.6</ele>
        <time>2025-01-10T11:13:35.000Z</time>
      </trkpt>
      <trkpt lat="43.56344" lon="6.78425">
        <ele>193.1</ele>
        <time>2025-01-10T11:13:34.000Z</time>
      </trkpt>
      <trkpt lat="43.56347" lon="6.78418">
        <ele>193.5</ele>
        <time>2025-01-10T11:13:33.000Z</time>
      </trkpt>
      <trkpt lat="43.5635" lon="6.7841">
        <ele>193.8</ele>
        <time>2025-01-10T11:13:32.000Z</time>
      </trkpt>
      <trkpt lat="43.56352" lon="6.78404">
        <ele>194.1</ele>
        <time>2025-01-10T11:13:31.000Z</time>
      </trkpt>
      <trkpt lat="43.56357" lon="6.78397">
        <ele>194.4</ele>
        <time>2025-01-10T11:13:30.000Z</time>
      </trkpt>
      <trkpt lat="43.56363" lon="6.7839">
        <ele>194.8</ele>
        <time>2025-01-10T11:13:29.000Z</time>
      </trkpt>
      <trkpt lat="43.56369" lon="6.78384">
        <ele>195.1</ele>
        <time>2025-01-10T11:13:28.000Z</time>
      </trkpt>
      <trkpt lat="43.56374" lon="6.78376">
        <ele>195.4</ele>
        <time>2025-01-10T11:13:27.000Z</time>
      </trkpt>
      <trkpt lat="43.56378" lon="6.78369">
        <ele>195.6</ele>
        <time>2025-01-10T11:13:26.000Z</time>
      </trkpt>
      <trkpt lat="43.56383" lon="6.7836">
        <ele>196</ele>
        <time>2025-01-10T11:13:25.000Z</time>
      </trkpt>
      <trkpt lat="43.56389" lon="6.78349">
        <ele>196.5</ele>
        <time>2025-01-10T11:13:24.000Z</time>
      </trkpt>
      <trkpt lat="43.56394" lon="6.7834">
        <ele>197.1</ele>
        <time>2025-01-10T11:13:23.000Z</time>
      </trkpt>
      <trkpt lat="43.564" lon="6.78331">
        <ele>197.7</ele>
        <time>2025-01-10T11:13:22.000Z</time>
      </trkpt>
      <trkpt lat="43.56405" lon="6.78325">
        <ele>198.3</ele>
        <time>2025-01-10T11:13:21.000Z</time>
      </trkpt>
      <trkpt lat="43.56411" lon="6.78315">
        <ele>199.2</ele>
        <time>2025-01-10T11:13:20.000Z</time>
      </trkpt>
      <trkpt lat="43.56415" lon="6.78309">
        <ele>199.7</ele>
        <time>2025-01-10T11:13:19.000Z</time>
      </trkpt>
      <trkpt lat="43.56421" lon="6.78301">
        <ele>200.4</ele>
        <time>2025-01-10T11:13:18.000Z</time>
      </trkpt>
      <trkpt lat="43.56426" lon="6.78293">
        <ele>200.9</ele>
        <time>2025-01-10T11:13:17.000Z</time>
      </trkpt>
      <trkpt lat="43.5643" lon="6.78288">
        <ele>201.4</ele>
        <time>2025-01-10T11:13:16.000Z</time>
      </trkpt>
      <trkpt lat="43.56434" lon="6.78281">
        <ele>201.9</ele>
        <time>2025-01-10T11:13:15.000Z</time>
      </trkpt>
      <trkpt lat="43.56438" lon="6.78272">
        <ele>202.6</ele>
        <time>2025-01-10T11:13:14.000Z</time>
      </trkpt>
      <trkpt lat="43.56442" lon="6.78265">
        <ele>203.1</ele>
        <time>2025-01-10T11:13:13.000Z</time>
      </trkpt>
      <trkpt lat="43.56445" lon="6.78258">
        <ele>203.6</ele>
        <time>2025-01-10T11:13:12.000Z</time>
      </trkpt>
      <trkpt lat="43.56447" lon="6.78253">
        <ele>204</ele>
        <time>2025-01-10T11:13:11.000Z</time>
      </trkpt>
      <trkpt lat="43.5645" lon="6.78246">
        <ele>204.4</ele>
        <time>2025-01-10T11:13:10.000Z</time>
      </trkpt>
      <trkpt lat="43.56452" lon="6.78239">
        <ele>204.8</ele>
        <time>2025-01-10T11:13:09.000Z</time>
      </trkpt>
      <trkpt lat="43.56452" lon="6.78233">
        <ele>205</ele>
        <time>2025-01-10T11:13:08.000Z</time>
      </trkpt>
      <trkpt lat="43.56452" lon="6.78227">
        <ele>205.3</ele>
        <time>2025-01-10T11:13:07.000Z</time>
      </trkpt>
      <trkpt lat="43.56452" lon="6.78222">
        <ele>205.4</ele>
        <time>2025-01-10T11:13:06.000Z</time>
      </trkpt>
      <trkpt lat="43.56451" lon="6.78217">
        <ele>205.5</ele>
        <time>2025-01-10T11:13:05.000Z</time>
      </trkpt>
      <trkpt lat="43.5645" lon="6.78212">
        <ele>205.6</ele>
        <time>2025-01-10T11:13:04.000Z</time>
      </trkpt>
      <trkpt lat="43.56449" lon="6.78206">
        <ele>205.7</ele>
        <time>2025-01-10T11:13:03.000Z</time>
      </trkpt>
      <trkpt lat="43.56448" lon="6.78201">
        <ele>205.8</ele>
        <time>2025-01-10T11:13:02.000Z</time>
      </trkpt>
      <trkpt lat="43.56446" lon="6.78196">
        <ele>205.9</ele>
        <time>2025-01-10T11:13:01.000Z</time>
      </trkpt>
      <trkpt lat="43.56444" lon="6.78189">
        <ele>206.1</ele>
        <time>2025-01-10T11:13:00.000Z</time>
      </trkpt>
      <trkpt lat="43.56442" lon="6.78182">
        <ele>206.3</ele>
        <time>2025-01-10T11:12:59.000Z</time>
      </trkpt>
      <trkpt lat="43.56439" lon="6.78175">
        <ele>206.7</ele>
        <time>2025-01-10T11:12:58.000Z</time>
      </trkpt>
      <trkpt lat="43.56438" lon="6.7817">
        <ele>207</ele>
        <time>2025-01-10T11:12:57.000Z</time>
      </trkpt>
      <trkpt lat="43.56437" lon="6.78165">
        <ele>207.2</ele>
        <time>2025-01-10T11:12:56.000Z</time>
      </trkpt>
      <trkpt lat="43.56438" lon="6.78159">
        <ele>207.5</ele>
        <time>2025-01-10T11:12:55.000Z</time>
      </trkpt>
      <trkpt lat="43.56438" lon="6.78154">
        <ele>207.8</ele>
        <time>2025-01-10T11:12:54.000Z</time>
      </trkpt>
      <trkpt lat="43.56439" lon="6.78148">
        <ele>208.1</ele>
        <time>2025-01-10T11:12:53.000Z</time>
      </trkpt>
      <trkpt lat="43.56439" lon="6.78144">
        <ele>208.4</ele>
        <time>2025-01-10T11:12:52.000Z</time>
      </trkpt>
      <trkpt lat="43.5644" lon="6.7814">
        <ele>208.6</ele>
        <time>2025-01-10T11:12:51.000Z</time>
      </trkpt>
      <trkpt lat="43.56438" lon="6.78137">
        <ele>208.9</ele>
        <time>2025-01-10T11:12:50.000Z</time>
      </trkpt>
      <trkpt lat="43.56437" lon="6.78135">
        <ele>209.1</ele>
        <time>2025-01-10T11:12:49.000Z</time>
      </trkpt>
      <trkpt lat="43.56433" lon="6.78133">
        <ele>209.5</ele>
        <time>2025-01-10T11:12:48.000Z</time>
      </trkpt>
      <trkpt lat="43.5643" lon="6.78132">
        <ele>209.9</ele>
        <time>2025-01-10T11:12:47.000Z</time>
      </trkpt>
      <trkpt lat="43.56426" lon="6.78134">
        <ele>210.3</ele>
        <time>2025-01-10T11:12:46.000Z</time>
      </trkpt>
      <trkpt lat="43.56423" lon="6.78136">
        <ele>210.8</ele>
        <time>2025-01-10T11:12:45.000Z</time>
      </trkpt>
      <trkpt lat="43.56418" lon="6.7814">
        <ele>211.3</ele>
        <time>2025-01-10T11:12:44.000Z</time>
      </trkpt>
      <trkpt lat="43.56414" lon="6.78143">
        <ele>211.8</ele>
        <time>2025-01-10T11:12:43.000Z</time>
      </trkpt>
      <trkpt lat="43.5641" lon="6.78146">
        <ele>212.3</ele>
        <time>2025-01-10T11:12:42.000Z</time>
      </trkpt>
      <trkpt lat="43.56405" lon="6.7815">
        <ele>212.9</ele>
        <time>2025-01-10T11:12:41.000Z</time>
      </trkpt>
      <trkpt lat="43.56402" lon="6.78151">
        <ele>213.4</ele>
        <time>2025-01-10T11:12:40.000Z</time>
      </trkpt>
      <trkpt lat="43.56398" lon="6.78153">
        <ele>213.9</ele>
        <time>2025-01-10T11:12:39.000Z</time>
      </trkpt>
      <trkpt lat="43.56393" lon="6.78154">
        <ele>214.5</ele>
        <time>2025-01-10T11:12:38.000Z</time>
      </trkpt>
      <trkpt lat="43.5639" lon="6.78155">
        <ele>215.1</ele>
        <time>2025-01-10T11:12:37.000Z</time>
      </trkpt>
      <trkpt lat="43.56386" lon="6.78153">
        <ele>215.7</ele>
        <time>2025-01-10T11:12:36.000Z</time>
      </trkpt>
      <trkpt lat="43.56384" lon="6.78151">
        <ele>216.3</ele>
        <time>2025-01-10T11:12:35.000Z</time>
      </trkpt>
      <trkpt lat="43.56382" lon="6.78146">
        <ele>217.1</ele>
        <time>2025-01-10T11:12:34.000Z</time>
      </trkpt>
      <trkpt lat="43.56381" lon="6.78138">
        <ele>218.2</ele>
        <time>2025-01-10T11:12:33.000Z</time>
      </trkpt>
      <trkpt lat="43.56381" lon="6.78133">
        <ele>219</ele>
        <time>2025-01-10T11:12:32.000Z</time>
      </trkpt>
      <trkpt lat="43.56382" lon="6.78128">
        <ele>219.7</ele>
        <time>2025-01-10T11:12:31.000Z</time>
      </trkpt>
      <trkpt lat="43.56382" lon="6.78125">
        <ele>220.1</ele>
        <time>2025-01-10T11:12:30.000Z</time>
      </trkpt>
      <trkpt lat="43.56382" lon="6.7812">
        <ele>220.9</ele>
        <time>2025-01-10T11:12:29.000Z</time>
      </trkpt>
      <trkpt lat="43.56383" lon="6.78115">
        <ele>221.7</ele>
        <time>2025-01-10T11:12:28.000Z</time>
      </trkpt>
      <trkpt lat="43.56384" lon="6.78109">
        <ele>222.7</ele>
        <time>2025-01-10T11:12:27.000Z</time>
      </trkpt>
      <trkpt lat="43.56385" lon="6.78102">
        <ele>223.7</ele>
        <time>2025-01-10T11:12:26.000Z</time>
      </trkpt>
      <trkpt lat="43.56386" lon="6.78096">
        <ele>224.6</ele>
        <time>2025-01-10T11:12:25.000Z</time>
      </trkpt>
      <trkpt lat="43.56388" lon="6.7809">
        <ele>225.6</ele>
        <time>2025-01-10T11:12:24.000Z</time>
      </trkpt>
      <trkpt lat="43.56389" lon="6.78084">
        <ele>226.5</ele>
        <time>2025-01-10T11:12:23.000Z</time>
      </trkpt>
      <trkpt lat="43.56391" lon="6.78079">
        <ele>227.4</ele>
        <time>2025-01-10T11:12:22.000Z</time>
      </trkpt>
      <trkpt lat="43.56393" lon="6.78073">
        <ele>228.3</ele>
        <time>2025-01-10T11:12:21.000Z</time>
      </trkpt>
      <trkpt lat="43.56395" lon="6.78069">
        <ele>229</ele>
        <time>2025-01-10T11:12:20.000Z</time>
      </trkpt>
      <trkpt lat="43.56396" lon="6.78064">
        <ele>229.7</ele>
        <time>2025-01-10T11:12:19.000Z</time>
      </trkpt>
      <trkpt lat="43.56398" lon="6.78058">
        <ele>230.5</ele>
        <time>2025-01-10T11:12:18.000Z</time>
      </trkpt>
      <trkpt lat="43.56398" lon="6.78054">
        <ele>231</ele>
        <time>2025-01-10T11:12:17.000Z</time>
      </trkpt>
      <trkpt lat="43.56398" lon="6.7805">
        <ele>231.5</ele>
        <time>2025-01-10T11:12:16.000Z</time>
      </trkpt>
      <trkpt lat="43.56398" lon="6.7805">
        <ele>231.5</ele>
        <time>2025-01-10T11:12:15.000Z</time>
      </trkpt>
      <trkpt lat="43.56398" lon="6.7805">
        <ele>231.5</ele>
        <time>2025-01-10T11:12:14.000Z</time>
      </trkpt>
      <trkpt lat="43.56398" lon="6.7805">
        <ele>231.5</ele>
        <time>2025-01-10T11:12:13.000Z</time>
      </trkpt>
      <trkpt lat="43.56398" lon="6.7805">
        <ele>231.5</ele>
        <time>2025-01-10T11:12:12.000Z</time>
      </trkpt>
      <trkpt lat="43.56398" lon="6.7805">
        <ele>231.5</ele>
        <time>2025-01-10T11:12:11.000Z</time>
      </trkpt>
      <trkpt lat="43.56398" lon="6.7805">
        <ele>231.5</ele>
        <time>2025-01-10T11:12:10.000Z</time>
      </trkpt>
      <trkpt lat="43.56398" lon="6.7805">
        <ele>231.5</ele>
        <time>2025-01-10T11:12:09.000Z</time>
      </trkpt>
      <trkpt lat="43.56398" lon="6.7805">
        <ele>231.5</ele>
        <time>2025-01-10T11:12:08.000Z</time>
      </trkpt>
      <trkpt lat="43.56398" lon="6.7805">
        <ele>231.5</ele>
        <time>2025-01-10T11:12:07.000Z</time>
      </trkpt>
      <trkpt lat="43.56398" lon="6.7805">
        <ele>231.5</ele>
        <time>2025-01-10T11:12:06.000Z</time>
      </trkpt>
      <trkpt lat="43.56398" lon="6.7805">
        <ele>231.5</ele>
        <time>2025-01-10T11:12:05.000Z</time>
      </trkpt>
      <trkpt lat="43.56398" lon="6.7805">
        <ele>231.5</ele>
        <time>2025-01-10T11:12:04.000Z</time>
      </trkpt>
      <trkpt lat="43.56398" lon="6.7805">
        <ele>231.5</ele>
        <time>2025-01-10T11:12:03.000Z</time>
      </trkpt>
      <trkpt lat="43.56398" lon="6.7805">
        <ele>231.5</ele>
        <time>2025-01-10T11:12:02.000Z</time>
      </trkpt>
      <trkpt lat="43.56398" lon="6.7805">
        <ele>231.5</ele>
        <time>2025-01-10T11:12:01.000Z</time>
      </trkpt>
      <trkpt lat="43.56398" lon="6.7805">
        <ele>231.5</ele>
        <time>2025-01-10T11:12:00.000Z</time>
      </trkpt>
      <trkpt lat="43.56398" lon="6.7805">
        <ele>231.6</ele>
        <time>2025-01-10T11:11:59.000Z</time>
      </trkpt>
      <trkpt lat="43.56398" lon="6.7805">
        <ele>231.6</ele>
        <time>2025-01-10T11:11:58.000Z</time>
      </trkpt>
      <trkpt lat="43.56398" lon="6.7805">
        <ele>231.6</ele>
        <time>2025-01-10T11:11:57.000Z</time>
      </trkpt>
      <trkpt lat="43.56398" lon="6.7805">
        <ele>231.6</ele>
        <time>2025-01-10T11:11:56.000Z</time>
      </trkpt>
      <trkpt lat="43.56398" lon="6.7805">
        <ele>231.6</ele>
        <time>2025-01-10T11:11:55.000Z</time>
      </trkpt>
      <trkpt lat="43.56398" lon="6.7805">
        <ele>231.6</ele>
        <time>2025-01-10T11:11:54.000Z</time>
      </trkpt>
      <trkpt lat="43.56398" lon="6.7805">
        <ele>231.6</ele>
        <time>2025-01-10T11:11:53.000Z</time>
      </trkpt>
      <trkpt lat="43.56398" lon="6.78051">
        <ele>231.7</ele>
        <time>2025-01-10T11:11:52.000Z</time>
      </trkpt>
      <trkpt lat="43.56398" lon="6.78051">
        <ele>231.7</ele>
        <time>2025-01-10T11:11:51.000Z</time>
      </trkpt>
      <trkpt lat="43.56398" lon="6.78051">
        <ele>231.7</ele>
        <time>2025-01-10T11:11:50.000Z</time>
      </trkpt>
      <trkpt lat="43.56398" lon="6.78051">
        <ele>231.8</ele>
        <time>2025-01-10T11:11:49.000Z</time>
      </trkpt>
      <trkpt lat="43.56398" lon="6.78052">
        <ele>231.8</ele>
        <time>2025-01-10T11:11:48.000Z</time>
      </trkpt>
      <trkpt lat="43.56398" lon="6.78052">
        <ele>231.8</ele>
        <time>2025-01-10T11:11:47.000Z</time>
      </trkpt>
      <trkpt lat="43.56398" lon="6.78052">
        <ele>231.8</ele>
        <time>2025-01-10T11:11:46.000Z</time>
      </trkpt>
      <trkpt lat="43.56398" lon="6.78052">
        <ele>231.9</ele>
        <time>2025-01-10T11:11:45.000Z</time>
      </trkpt>
      <trkpt lat="43.56397" lon="6.78052">
        <ele>231.9</ele>
        <time>2025-01-10T11:11:44.000Z</time>
      </trkpt>
      <trkpt lat="43.56397" lon="6.78052">
        <ele>231.9</ele>
        <time>2025-01-10T11:11:43.000Z</time>
      </trkpt>
      <trkpt lat="43.56397" lon="6.78052">
        <ele>231.9</ele>
        <time>2025-01-10T11:11:42.000Z</time>
      </trkpt>
      <trkpt lat="43.56397" lon="6.78052">
        <ele>231.9</ele>
        <time>2025-01-10T11:11:41.000Z</time>
      </trkpt>
      <trkpt lat="43.56397" lon="6.78052">
        <ele>232</ele>
        <time>2025-01-10T11:11:40.000Z</time>
      </trkpt>
      <trkpt lat="43.56397" lon="6.78053">
        <ele>232</ele>
        <time>2025-01-10T11:11:39.000Z</time>
      </trkpt>
      <trkpt lat="43.56397" lon="6.78053">
        <ele>232.1</ele>
        <time>2025-01-10T11:11:38.000Z</time>
      </trkpt>
      <trkpt lat="43.56396" lon="6.78053">
        <ele>232.1</ele>
        <time>2025-01-10T11:11:37.000Z</time>
      </trkpt>
      <trkpt lat="43.56396" lon="6.78053">
        <ele>232.1</ele>
        <time>2025-01-10T11:11:36.000Z</time>
      </trkpt>
      <trkpt lat="43.56396" lon="6.78053">
        <ele>232.1</ele>
        <time>2025-01-10T11:11:35.000Z</time>
      </trkpt>
      <trkpt lat="43.56396" lon="6.78053">
        <ele>232.1</ele>
        <time>2025-01-10T11:11:34.000Z</time>
      </trkpt>
      <trkpt lat="43.56396" lon="6.78053">
        <ele>232.1</ele>
        <time>2025-01-10T11:11:33.000Z</time>
      </trkpt>
      <trkpt lat="43.56396" lon="6.78053">
        <ele>232.1</ele>
        <time>2025-01-10T11:11:32.000Z</time>
      </trkpt>
      <trkpt lat="43.56396" lon="6.78053">
        <ele>232.1</ele>
        <time>2025-01-10T11:11:31.000Z</time>
      </trkpt>
      <trkpt lat="43.56396" lon="6.78053">
        <ele>232.1</ele>
        <time>2025-01-10T11:11:30.000Z</time>
      </trkpt>
      <trkpt lat="43.56396" lon="6.78053">
        <ele>232.1</ele>
        <time>2025-01-10T11:11:29.000Z</time>
      </trkpt>
      <trkpt lat="43.56396" lon="6.78053">
        <ele>232.1</ele>
        <time>2025-01-10T11:11:28.000Z</time>
      </trkpt>
      <trkpt lat="43.56396" lon="6.78053">
        <ele>232.1</ele>
        <time>2025-01-10T11:11:27.000Z</time>
      </trkpt>
      <trkpt lat="43.56396" lon="6.78053">
        <ele>232.1</ele>
        <time>2025-01-10T11:11:26.000Z</time>
      </trkpt>
      <trkpt lat="43.56396" lon="6.78053">
        <ele>232.1</ele>
        <time>2025-01-10T11:11:25.000Z</time>
      </trkpt>
      <trkpt lat="43.56396" lon="6.78053">
        <ele>232.1</ele>
        <time>2025-01-10T11:11:24.000Z</time>
      </trkpt>
      <trkpt lat="43.56396" lon="6.78053">
        <ele>232.1</ele>
        <time>2025-01-10T11:11:23.000Z</time>
      </trkpt>
      <trkpt lat="43.56396" lon="6.78053">
        <ele>232.1</ele>
        <time>2025-01-10T11:11:22.000Z</time>
      </trkpt>
      <trkpt lat="43.56396" lon="6.78054">
        <ele>232.2</ele>
        <time>2025-01-10T11:11:21.000Z</time>
      </trkpt>
      <trkpt lat="43.56396" lon="6.78054">
        <ele>232.2</ele>
        <time>2025-01-10T11:11:20.000Z</time>
      </trkpt>
      <trkpt lat="43.56396" lon="6.78054">
        <ele>232.3</ele>
        <time>2025-01-10T11:11:19.000Z</time>
      </trkpt>
      <trkpt lat="43.56396" lon="6.78054">
        <ele>232.3</ele>
        <time>2025-01-10T11:11:18.000Z</time>
      </trkpt>
      <trkpt lat="43.56396" lon="6.78054">
        <ele>232.3</ele>
        <time>2025-01-10T11:11:17.000Z</time>
      </trkpt>
      <trkpt lat="43.56396" lon="6.78054">
        <ele>232.3</ele>
        <time>2025-01-10T11:11:16.000Z</time>
      </trkpt>
      <trkpt lat="43.56396" lon="6.78054">
        <ele>232.4</ele>
        <time>2025-01-10T11:11:15.000Z</time>
      </trkpt>
      <trkpt lat="43.56396" lon="6.78054">
        <ele>232.5</ele>
        <time>2025-01-10T11:11:14.000Z</time>
      </trkpt>
      <trkpt lat="43.56396" lon="6.78054">
        <ele>232.5</ele>
        <time>2025-01-10T11:11:13.000Z</time>
      </trkpt>
      <trkpt lat="43.56396" lon="6.78054">
        <ele>232.5</ele>
        <time>2025-01-10T11:11:12.000Z</time>
      </trkpt>
      <trkpt lat="43.56396" lon="6.78054">
        <ele>232.5</ele>
        <time>2025-01-10T11:11:11.000Z</time>
      </trkpt>
      <trkpt lat="43.56396" lon="6.78054">
        <ele>232.5</ele>
        <time>2025-01-10T11:11:10.000Z</time>
      </trkpt>
      <trkpt lat="43.56396" lon="6.78053">
        <ele>232.6</ele>
        <time>2025-01-10T11:11:09.000Z</time>
      </trkpt>
      <trkpt lat="43.56397" lon="6.78052">
        <ele>232.8</ele>
        <time>2025-01-10T11:11:08.000Z</time>
      </trkpt>
      <trkpt lat="43.56398" lon="6.78049">
        <ele>233.1</ele>
        <time>2025-01-10T11:11:07.000Z</time>
      </trkpt>
      <trkpt lat="43.56399" lon="6.78047">
        <ele>233.4</ele>
        <time>2025-01-10T11:11:06.000Z</time>
      </trkpt>
      <trkpt lat="43.564" lon="6.78043">
        <ele>233.8</ele>
        <time>2025-01-10T11:11:05.000Z</time>
      </trkpt>
      <trkpt lat="43.56401" lon="6.7804">
        <ele>234.1</ele>
        <time>2025-01-10T11:11:04.000Z</time>
      </trkpt>
      <trkpt lat="43.56402" lon="6.78036">
        <ele>234.5</ele>
        <time>2025-01-10T11:11:03.000Z</time>
      </trkpt>
      <trkpt lat="43.56403" lon="6.78032">
        <ele>235</ele>
        <time>2025-01-10T11:11:02.000Z</time>
      </trkpt>
      <trkpt lat="43.56404" lon="6.78025">
        <ele>235.6</ele>
        <time>2025-01-10T11:11:01.000Z</time>
      </trkpt>
      <trkpt lat="43.56405" lon="6.78019">
        <ele>236.3</ele>
        <time>2025-01-10T11:11:00.000Z</time>
      </trkpt>
      <trkpt lat="43.56406" lon="6.78013">
        <ele>237</ele>
        <time>2025-01-10T11:10:59.000Z</time>
      </trkpt>
      <trkpt lat="43.56407" lon="6.78005">
        <ele>237.9</ele>
        <time>2025-01-10T11:10:58.000Z</time>
      </trkpt>
      <trkpt lat="43.56409" lon="6.77996">
        <ele>239.1</ele>
        <time>2025-01-10T11:10:57.000Z</time>
      </trkpt>
      <trkpt lat="43.5641" lon="6.77989">
        <ele>240.2</ele>
        <time>2025-01-10T11:10:56.000Z</time>
      </trkpt>
      <trkpt lat="43.56412" lon="6.77982">
        <ele>241.3</ele>
        <time>2025-01-10T11:10:55.000Z</time>
      </trkpt>
      <trkpt lat="43.56413" lon="6.77977">
        <ele>242.2</ele>
        <time>2025-01-10T11:10:54.000Z</time>
      </trkpt>
      <trkpt lat="43.56414" lon="6.7797">
        <ele>243.4</ele>
        <time>2025-01-10T11:10:53.000Z</time>
      </trkpt>
      <trkpt lat="43.56415" lon="6.77966">
        <ele>244.1</ele>
        <time>2025-01-10T11:10:52.000Z</time>
      </trkpt>
      <trkpt lat="43.56417" lon="6.77961">
        <ele>245.1</ele>
        <time>2025-01-10T11:10:51.000Z</time>
      </trkpt>
      <trkpt lat="43.56419" lon="6.77957">
        <ele>246</ele>
        <time>2025-01-10T11:10:50.000Z</time>
      </trkpt>
      <trkpt lat="43.56421" lon="6.77953">
        <ele>246.7</ele>
        <time>2025-01-10T11:10:49.000Z</time>
      </trkpt>
      <trkpt lat="43.56423" lon="6.77949">
        <ele>247.5</ele>
        <time>2025-01-10T11:10:48.000Z</time>
      </trkpt>
      <trkpt lat="43.56426" lon="6.77945">
        <ele>248.4</ele>
        <time>2025-01-10T11:10:47.000Z</time>
      </trkpt>
      <trkpt lat="43.56429" lon="6.7794">
        <ele>249.6</ele>
        <time>2025-01-10T11:10:46.000Z</time>
      </trkpt>
      <trkpt lat="43.56432" lon="6.77936">
        <ele>250.6</ele>
        <time>2025-01-10T11:10:45.000Z</time>
      </trkpt>
      <trkpt lat="43.56434" lon="6.77933">
        <ele>251.3</ele>
        <time>2025-01-10T11:10:44.000Z</time>
      </trkpt>
      <trkpt lat="43.56437" lon="6.7793">
        <ele>252.1</ele>
        <time>2025-01-10T11:10:43.000Z</time>
      </trkpt>
      <trkpt lat="43.56439" lon="6.77926">
        <ele>252.9</ele>
        <time>2025-01-10T11:10:42.000Z</time>
      </trkpt>
      <trkpt lat="43.56441" lon="6.77924">
        <ele>253.6</ele>
        <time>2025-01-10T11:10:41.000Z</time>
      </trkpt>
      <trkpt lat="43.56442" lon="6.77923">
        <ele>253.9</ele>
        <time>2025-01-10T11:10:40.000Z</time>
      </trkpt>
      <trkpt lat="43.56443" lon="6.77922">
        <ele>254.1</ele>
        <time>2025-01-10T11:10:39.000Z</time>
      </trkpt>
      <trkpt lat="43.56443" lon="6.77922">
        <ele>254.1</ele>
        <time>2025-01-10T11:10:38.000Z</time>
      </trkpt>
      <trkpt lat="43.56443" lon="6.77922">
        <ele>254.1</ele>
        <time>2025-01-10T11:10:37.000Z</time>
      </trkpt>
      <trkpt lat="43.56443" lon="6.77922">
        <ele>254.2</ele>
        <time>2025-01-10T11:10:36.000Z</time>
      </trkpt>
      <trkpt lat="43.56443" lon="6.77922">
        <ele>254.2</ele>
        <time>2025-01-10T11:10:35.000Z</time>
      </trkpt>
      <trkpt lat="43.56443" lon="6.77922">
        <ele>254.3</ele>
        <time>2025-01-10T11:10:34.000Z</time>
      </trkpt>
      <trkpt lat="43.56443" lon="6.77923">
        <ele>254.4</ele>
        <time>2025-01-10T11:10:33.000Z</time>
      </trkpt>
      <trkpt lat="43.56443" lon="6.77923">
        <ele>254.4</ele>
        <time>2025-01-10T11:10:32.000Z</time>
      </trkpt>
      <trkpt lat="43.56443" lon="6.77923">
        <ele>254.5</ele>
        <time>2025-01-10T11:10:31.000Z</time>
      </trkpt>
      <trkpt lat="43.56443" lon="6.77924">
        <ele>254.5</ele>
        <time>2025-01-10T11:10:30.000Z</time>
      </trkpt>
      <trkpt lat="43.56443" lon="6.77924">
        <ele>254.5</ele>
        <time>2025-01-10T11:10:29.000Z</time>
      </trkpt>
      <trkpt lat="43.56443" lon="6.77924">
        <ele>254.6</ele>
        <time>2025-01-10T11:10:28.000Z</time>
      </trkpt>
      <trkpt lat="43.56443" lon="6.77923">
        <ele>254.7</ele>
        <time>2025-01-10T11:10:27.000Z</time>
      </trkpt>
      <trkpt lat="43.56443" lon="6.7792">
        <ele>255.2</ele>
        <time>2025-01-10T11:10:26.000Z</time>
      </trkpt>
      <trkpt lat="43.56444" lon="6.77917">
        <ele>255.7</ele>
        <time>2025-01-10T11:10:25.000Z</time>
      </trkpt>
      <trkpt lat="43.56445" lon="6.77913">
        <ele>256.4</ele>
        <time>2025-01-10T11:10:24.000Z</time>
      </trkpt>
      <trkpt lat="43.56446" lon="6.77908">
        <ele>257.2</ele>
        <time>2025-01-10T11:10:23.000Z</time>
      </trkpt>
      <trkpt lat="43.56447" lon="6.77904">
        <ele>258</ele>
        <time>2025-01-10T11:10:22.000Z</time>
      </trkpt>
      <trkpt lat="43.56449" lon="6.77899">
        <ele>259</ele>
        <time>2025-01-10T11:10:21.000Z</time>
      </trkpt>
      <trkpt lat="43.56451" lon="6.77894">
        <ele>259.8</ele>
        <time>2025-01-10T11:10:20.000Z</time>
      </trkpt>
      <trkpt lat="43.56452" lon="6.77891">
        <ele>260.4</ele>
        <time>2025-01-10T11:10:19.000Z</time>
      </trkpt>
      <trkpt lat="43.56454" lon="6.77887">
        <ele>261.1</ele>
        <time>2025-01-10T11:10:18.000Z</time>
      </trkpt>
      <trkpt lat="43.56456" lon="6.77884">
        <ele>261.7</ele>
        <time>2025-01-10T11:10:17.000Z</time>
      </trkpt>
      <trkpt lat="43.56458" lon="6.7788">
        <ele>262.2</ele>
        <time>2025-01-10T11:10:16.000Z</time>
      </trkpt>
      <trkpt lat="43.56459" lon="6.77877">
        <ele>262.7</ele>
        <time>2025-01-10T11:10:15.000Z</time>
      </trkpt>
      <trkpt lat="43.5646" lon="6.77873">
        <ele>263.2</ele>
        <time>2025-01-10T11:10:14.000Z</time>
      </trkpt>
      <trkpt lat="43.56461" lon="6.77868">
        <ele>263.8</ele>
        <time>2025-01-10T11:10:13.000Z</time>
      </trkpt>
      <trkpt lat="43.56461" lon="6.77862">
        <ele>264.5</ele>
        <time>2025-01-10T11:10:12.000Z</time>
      </trkpt>
      <trkpt lat="43.56462" lon="6.77856">
        <ele>265.3</ele>
        <time>2025-01-10T11:10:11.000Z</time>
      </trkpt>
      <trkpt lat="43.56462" lon="6.7785">
        <ele>265.9</ele>
        <time>2025-01-10T11:10:10.000Z</time>
      </trkpt>
      <trkpt lat="43.56462" lon="6.77846">
        <ele>266.4</ele>
        <time>2025-01-10T11:10:09.000Z</time>
      </trkpt>
      <trkpt lat="43.56463" lon="6.77841">
        <ele>267</ele>
        <time>2025-01-10T11:10:08.000Z</time>
      </trkpt>
      <trkpt lat="43.56464" lon="6.77836">
        <ele>267.6</ele>
        <time>2025-01-10T11:10:07.000Z</time>
      </trkpt>
      <trkpt lat="43.56465" lon="6.7783">
        <ele>268.3</ele>
        <time>2025-01-10T11:10:06.000Z</time>
      </trkpt>
      <trkpt lat="43.56467" lon="6.77826">
        <ele>268.8</ele>
        <time>2025-01-10T11:10:05.000Z</time>
      </trkpt>
      <trkpt lat="43.56468" lon="6.77822">
        <ele>269.2</ele>
        <time>2025-01-10T11:10:04.000Z</time>
      </trkpt>
      <trkpt lat="43.5647" lon="6.77818">
        <ele>269.6</ele>
        <time>2025-01-10T11:10:03.000Z</time>
      </trkpt>
      <trkpt lat="43.56473" lon="6.77814">
        <ele>270.2</ele>
        <time>2025-01-10T11:10:02.000Z</time>
      </trkpt>
      <trkpt lat="43.56476" lon="6.77809">
        <ele>270.8</ele>
        <time>2025-01-10T11:10:01.000Z</time>
      </trkpt>
      <trkpt lat="43.56479" lon="6.77805">
        <ele>271.4</ele>
        <time>2025-01-10T11:10:00.000Z</time>
      </trkpt>
      <trkpt lat="43.56482" lon="6.77801">
        <ele>271.9</ele>
        <time>2025-01-10T11:09:59.000Z</time>
      </trkpt>
      <trkpt lat="43.56485" lon="6.77799">
        <ele>272.4</ele>
        <time>2025-01-10T11:09:58.000Z</time>
      </trkpt>
      <trkpt lat="43.56489" lon="6.77796">
        <ele>273</ele>
        <time>2025-01-10T11:09:57.000Z</time>
      </trkpt>
      <trkpt lat="43.56494" lon="6.77795">
        <ele>273.6</ele>
        <time>2025-01-10T11:09:56.000Z</time>
      </trkpt>
      <trkpt lat="43.56498" lon="6.77794">
        <ele>274.2</ele>
        <time>2025-01-10T11:09:55.000Z</time>
      </trkpt>
      <trkpt lat="43.56502" lon="6.77794">
        <ele>274.7</ele>
        <time>2025-01-10T11:09:54.000Z</time>
      </trkpt>
      <trkpt lat="43.56506" lon="6.77794">
        <ele>275.3</ele>
        <time>2025-01-10T11:09:53.000Z</time>
      </trkpt>
      <trkpt lat="43.5651" lon="6.77794">
        <ele>275.8</ele>
        <time>2025-01-10T11:09:52.000Z</time>
      </trkpt>
      <trkpt lat="43.56515" lon="6.77795">
        <ele>276.4</ele>
        <time>2025-01-10T11:09:51.000Z</time>
      </trkpt>
      <trkpt lat="43.56521" lon="6.77795">
        <ele>277.1</ele>
        <time>2025-01-10T11:09:50.000Z</time>
      </trkpt>
      <trkpt lat="43.56527" lon="6.77794">
        <ele>277.8</ele>
        <time>2025-01-10T11:09:49.000Z</time>
      </trkpt>
      <trkpt lat="43.56531" lon="6.77793">
        <ele>278.4</ele>
        <time>2025-01-10T11:09:48.000Z</time>
      </trkpt>
      <trkpt lat="43.56536" lon="6.77791">
        <ele>279.1</ele>
        <time>2025-01-10T11:09:47.000Z</time>
      </trkpt>
      <trkpt lat="43.5654" lon="6.77788">
        <ele>279.8</ele>
        <time>2025-01-10T11:09:46.000Z</time>
      </trkpt>
      <trkpt lat="43.56546" lon="6.77784">
        <ele>280.7</ele>
        <time>2025-01-10T11:09:45.000Z</time>
      </trkpt>
      <trkpt lat="43.56551" lon="6.77781">
        <ele>281.6</ele>
        <time>2025-01-10T11:09:44.000Z</time>
      </trkpt>
      <trkpt lat="43.56555" lon="6.77779">
        <ele>282.3</ele>
        <time>2025-01-10T11:09:43.000Z</time>
      </trkpt>
      <trkpt lat="43.5656" lon="6.77774">
        <ele>283.2</ele>
        <time>2025-01-10T11:09:42.000Z</time>
      </trkpt>
      <trkpt lat="43.56564" lon="6.77769">
        <ele>284</ele>
        <time>2025-01-10T11:09:41.000Z</time>
      </trkpt>
      <trkpt lat="43.56568" lon="6.77763">
        <ele>284.8</ele>
        <time>2025-01-10T11:09:40.000Z</time>
      </trkpt>
      <trkpt lat="43.56571" lon="6.77757">
        <ele>285.8</ele>
        <time>2025-01-10T11:09:39.000Z</time>
      </trkpt>
      <trkpt lat="43.56574" lon="6.7775">
        <ele>286.8</ele>
        <time>2025-01-10T11:09:38.000Z</time>
      </trkpt>
      <trkpt lat="43.56577" lon="6.77743">
        <ele>287.7</ele>
        <time>2025-01-10T11:09:37.000Z</time>
      </trkpt>
      <trkpt lat="43.56579" lon="6.77737">
        <ele>288.6</ele>
        <time>2025-01-10T11:09:36.000Z</time>
      </trkpt>
      <trkpt lat="43.56581" lon="6.7773">
        <ele>289.4</ele>
        <time>2025-01-10T11:09:35.000Z</time>
      </trkpt>
      <trkpt lat="43.56581" lon="6.77729">
        <ele>289.6</ele>
        <time>2025-01-10T11:09:34.000Z</time>
      </trkpt>
      <trkpt lat="43.56581" lon="6.77727">
        <ele>289.8</ele>
        <time>2025-01-10T11:09:33.000Z</time>
      </trkpt>
      <trkpt lat="43.56582" lon="6.77726">
        <ele>290</ele>
        <time>2025-01-10T11:09:32.000Z</time>
      </trkpt>
      <trkpt lat="43.56582" lon="6.77725">
        <ele>290.2</ele>
        <time>2025-01-10T11:09:31.000Z</time>
      </trkpt>
      <trkpt lat="43.56583" lon="6.77723">
        <ele>290.4</ele>
        <time>2025-01-10T11:09:30.000Z</time>
      </trkpt>
      <trkpt lat="43.56583" lon="6.77722">
        <ele>290.6</ele>
        <time>2025-01-10T11:09:29.000Z</time>
      </trkpt>
      <trkpt lat="43.56584" lon="6.7772">
        <ele>290.8</ele>
        <time>2025-01-10T11:09:28.000Z</time>
      </trkpt>
      <trkpt lat="43.56584" lon="6.77719">
        <ele>291</ele>
        <time>2025-01-10T11:09:27.000Z</time>
      </trkpt>
      <trkpt lat="43.56585" lon="6.77718">
        <ele>291.2</ele>
        <time>2025-01-10T11:09:26.000Z</time>
      </trkpt>
      <trkpt lat="43.56585" lon="6.77716">
        <ele>291.4</ele>
        <time>2025-01-10T11:09:25.000Z</time>
      </trkpt>
      <trkpt lat="43.56586" lon="6.77715">
        <ele>291.6</ele>
        <time>2025-01-10T11:09:24.000Z</time>
      </trkpt>
      <trkpt lat="43.56586" lon="6.77713">
        <ele>291.8</ele>
        <time>2025-01-10T11:09:23.000Z</time>
      </trkpt>
      <trkpt lat="43.56586" lon="6.77712">
        <ele>292</ele>
        <time>2025-01-10T11:09:22.000Z</time>
      </trkpt>
      <trkpt lat="43.56587" lon="6.77711">
        <ele>292.2</ele>
        <time>2025-01-10T11:09:21.000Z</time>
      </trkpt>
      <trkpt lat="43.56587" lon="6.77709">
        <ele>292.4</ele>
        <time>2025-01-10T11:09:20.000Z</time>
      </trkpt>
      <trkpt lat="43.56588" lon="6.77708">
        <ele>292.6</ele>
        <time>2025-01-10T11:09:19.000Z</time>
      </trkpt>
      <trkpt lat="43.56588" lon="6.77706">
        <ele>292.8</ele>
        <time>2025-01-10T11:09:18.000Z</time>
      </trkpt>
      <trkpt lat="43.56589" lon="6.77705">
        <ele>293</ele>
        <time>2025-01-10T11:09:17.000Z</time>
      </trkpt>
      <trkpt lat="43.56589" lon="6.77704">
        <ele>293.2</ele>
        <time>2025-01-10T11:09:16.000Z</time>
      </trkpt>
      <trkpt lat="43.5659" lon="6.77702">
        <ele>293.4</ele>
        <time>2025-01-10T11:09:15.000Z</time>
      </trkpt>
      <trkpt lat="43.5659" lon="6.77701">
        <ele>293.6</ele>
        <time>2025-01-10T11:09:14.000Z</time>
      </trkpt>
      <trkpt lat="43.5659" lon="6.77699">
        <ele>293.8</ele>
        <time>2025-01-10T11:09:13.000Z</time>
      </trkpt>
      <trkpt lat="43.56591" lon="6.77698">
        <ele>294</ele>
        <time>2025-01-10T11:09:12.000Z</time>
      </trkpt>
      <trkpt lat="43.56591" lon="6.77697">
        <ele>294.1</ele>
        <time>2025-01-10T11:09:11.000Z</time>
      </trkpt>
      <trkpt lat="43.56592" lon="6.77695">
        <ele>294.3</ele>
        <time>2025-01-10T11:09:10.000Z</time>
      </trkpt>
      <trkpt lat="43.56592" lon="6.77694">
        <ele>294.5</ele>
        <time>2025-01-10T11:09:09.000Z</time>
      </trkpt>
      <trkpt lat="43.56593" lon="6.77692">
        <ele>294.7</ele>
        <time>2025-01-10T11:09:08.000Z</time>
      </trkpt>
      <trkpt lat="43.56593" lon="6.77692">
        <ele>294.8</ele>
        <time>2025-01-10T11:09:07.000Z</time>
      </trkpt>
      <trkpt lat="43.56593" lon="6.77693">
        <ele>294.8</ele>
        <time>2025-01-10T11:09:06.000Z</time>
      </trkpt>
      <trkpt lat="43.56594" lon="6.77693">
        <ele>294.8</ele>
        <time>2025-01-10T11:09:05.000Z</time>
      </trkpt>
      <trkpt lat="43.56596" lon="6.77694">
        <ele>295.1</ele>
        <time>2025-01-10T11:09:04.000Z</time>
      </trkpt>
      <trkpt lat="43.56598" lon="6.77694">
        <ele>295.3</ele>
        <time>2025-01-10T11:09:03.000Z</time>
      </trkpt>
      <trkpt lat="43.56601" lon="6.77695">
        <ele>295.6</ele>
        <time>2025-01-10T11:09:02.000Z</time>
      </trkpt>
      <trkpt lat="43.56605" lon="6.77696">
        <ele>295.9</ele>
        <time>2025-01-10T11:09:01.000Z</time>
      </trkpt>
      <trkpt lat="43.56608" lon="6.77696">
        <ele>296.1</ele>
        <time>2025-01-10T11:09:00.000Z</time>
      </trkpt>
      <trkpt lat="43.56612" lon="6.77697">
        <ele>296.2</ele>
        <time>2025-01-10T11:08:59.000Z</time>
      </trkpt>
      <trkpt lat="43.56615" lon="6.77697">
        <ele>296.3</ele>
        <time>2025-01-10T11:08:58.000Z</time>
      </trkpt>
      <trkpt lat="43.56619" lon="6.77697">
        <ele>296.3</ele>
        <time>2025-01-10T11:08:57.000Z</time>
      </trkpt>
      <trkpt lat="43.56622" lon="6.77697">
        <ele>296.3</ele>
        <time>2025-01-10T11:08:56.000Z</time>
      </trkpt>
      <trkpt lat="43.56627" lon="6.77697">
        <ele>296.3</ele>
        <time>2025-01-10T11:08:55.000Z</time>
      </trkpt>
      <trkpt lat="43.56631" lon="6.77696">
        <ele>296.2</ele>
        <time>2025-01-10T11:08:54.000Z</time>
      </trkpt>
      <trkpt lat="43.56635" lon="6.77696">
        <ele>296.1</ele>
        <time>2025-01-10T11:08:53.000Z</time>
      </trkpt>
      <trkpt lat="43.5664" lon="6.77696">
        <ele>296</ele>
        <time>2025-01-10T11:08:52.000Z</time>
      </trkpt>
      <trkpt lat="43.56644" lon="6.77696">
        <ele>296</ele>
        <time>2025-01-10T11:08:51.000Z</time>
      </trkpt>
      <trkpt lat="43.56647" lon="6.77695">
        <ele>295.9</ele>
        <time>2025-01-10T11:08:50.000Z</time>
      </trkpt>
      <trkpt lat="43.56652" lon="6.77695">
        <ele>295.8</ele>
        <time>2025-01-10T11:08:49.000Z</time>
      </trkpt>
      <trkpt lat="43.56657" lon="6.77695">
        <ele>295.8</ele>
        <time>2025-01-10T11:08:48.000Z</time>
      </trkpt>
      <trkpt lat="43.56661" lon="6.77695">
        <ele>295.7</ele>
        <time>2025-01-10T11:08:47.000Z</time>
      </trkpt>
      <trkpt lat="43.56664" lon="6.77695">
        <ele>295.6</ele>
        <time>2025-01-10T11:08:46.000Z</time>
      </trkpt>
      <trkpt lat="43.56667" lon="6.77694">
        <ele>295.5</ele>
        <time>2025-01-10T11:08:45.000Z</time>
      </trkpt>
      <trkpt lat="43.5667" lon="6.77694">
        <ele>295.4</ele>
        <time>2025-01-10T11:08:44.000Z</time>
      </trkpt>
      <trkpt lat="43.56674" lon="6.77694">
        <ele>295.3</ele>
        <time>2025-01-10T11:08:43.000Z</time>
      </trkpt>
      <trkpt lat="43.56677" lon="6.77693">
        <ele>295.2</ele>
        <time>2025-01-10T11:08:42.000Z</time>
      </trkpt>
      <trkpt lat="43.5668" lon="6.77693">
        <ele>295.1</ele>
        <time>2025-01-10T11:08:41.000Z</time>
      </trkpt>
      <trkpt lat="43.56683" lon="6.77692">
        <ele>295</ele>
        <time>2025-01-10T11:08:40.000Z</time>
      </trkpt>
      <trkpt lat="43.56687" lon="6.7769">
        <ele>294.9</ele>
        <time>2025-01-10T11:08:39.000Z</time>
      </trkpt>
      <trkpt lat="43.56691" lon="6.77688">
        <ele>294.8</ele>
        <time>2025-01-10T11:08:38.000Z</time>
      </trkpt>
      <trkpt lat="43.56695" lon="6.77686">
        <ele>294.9</ele>
        <time>2025-01-10T11:08:37.000Z</time>
      </trkpt>
      <trkpt lat="43.56698" lon="6.77684">
        <ele>294.9</ele>
        <time>2025-01-10T11:08:36.000Z</time>
      </trkpt>
      <trkpt lat="43.56703" lon="6.7768">
        <ele>295.1</ele>
        <time>2025-01-10T11:08:35.000Z</time>
      </trkpt>
      <trkpt lat="43.56706" lon="6.77677">
        <ele>295.3</ele>
        <time>2025-01-10T11:08:34.000Z</time>
      </trkpt>
      <trkpt lat="43.56709" lon="6.77673">
        <ele>295.6</ele>
        <time>2025-01-10T11:08:33.000Z</time>
      </trkpt>
      <trkpt lat="43.56712" lon="6.77668">
        <ele>295.8</ele>
        <time>2025-01-10T11:08:32.000Z</time>
      </trkpt>
      <trkpt lat="43.56715" lon="6.77664">
        <ele>296.1</ele>
        <time>2025-01-10T11:08:31.000Z</time>
      </trkpt>
      <trkpt lat="43.56717" lon="6.77659">
        <ele>296.4</ele>
        <time>2025-01-10T11:08:30.000Z</time>
      </trkpt>
      <trkpt lat="43.56719" lon="6.77654">
        <ele>296.6</ele>
        <time>2025-01-10T11:08:29.000Z</time>
      </trkpt>
      <trkpt lat="43.56721" lon="6.7765">
        <ele>296.9</ele>
        <time>2025-01-10T11:08:28.000Z</time>
      </trkpt>
      <trkpt lat="43.56723" lon="6.77647">
        <ele>297.1</ele>
        <time>2025-01-10T11:08:27.000Z</time>
      </trkpt>
      <trkpt lat="43.56725" lon="6.77643">
        <ele>297.4</ele>
        <time>2025-01-10T11:08:26.000Z</time>
      </trkpt>
      <trkpt lat="43.56727" lon="6.7764">
        <ele>297.7</ele>
        <time>2025-01-10T11:08:25.000Z</time>
      </trkpt>
      <trkpt lat="43.56728" lon="6.77636">
        <ele>297.9</ele>
        <time>2025-01-10T11:08:24.000Z</time>
      </trkpt>
      <trkpt lat="43.5673" lon="6.77633">
        <ele>298.1</ele>
        <time>2025-01-10T11:08:23.000Z</time>
      </trkpt>
      <trkpt lat="43.56732" lon="6.77632">
        <ele>298.4</ele>
        <time>2025-01-10T11:08:22.000Z</time>
      </trkpt>
      <trkpt lat="43.56734" lon="6.77631">
        <ele>298.6</ele>
        <time>2025-01-10T11:08:21.000Z</time>
      </trkpt>
      <trkpt lat="43.56736" lon="6.77633">
        <ele>298.8</ele>
        <time>2025-01-10T11:08:20.000Z</time>
      </trkpt>
      <trkpt lat="43.56737" lon="6.77637">
        <ele>299.2</ele>
        <time>2025-01-10T11:08:19.000Z</time>
      </trkpt>
      <trkpt lat="43.56738" lon="6.77643">
        <ele>299.7</ele>
        <time>2025-01-10T11:08:18.000Z</time>
      </trkpt>
      <trkpt lat="43.56737" lon="6.77651">
        <ele>300.6</ele>
        <time>2025-01-10T11:08:17.000Z</time>
      </trkpt>
      <trkpt lat="43.56737" lon="6.77658">
        <ele>301.5</ele>
        <time>2025-01-10T11:08:16.000Z</time>
      </trkpt>
      <trkpt lat="43.56736" lon="6.77671">
        <ele>303.3</ele>
        <time>2025-01-10T11:08:15.000Z</time>
      </trkpt>
      <trkpt lat="43.56736" lon="6.77682">
        <ele>305</ele>
        <time>2025-01-10T11:08:14.000Z</time>
      </trkpt>
      <trkpt lat="43.56737" lon="6.77692">
        <ele>306.6</ele>
        <time>2025-01-10T11:08:13.000Z</time>
      </trkpt>
      <trkpt lat="43.56737" lon="6.77702">
        <ele>308</ele>
        <time>2025-01-10T11:08:12.000Z</time>
      </trkpt>
      <trkpt lat="43.56737" lon="6.77712">
        <ele>309.3</ele>
        <time>2025-01-10T11:08:11.000Z</time>
      </trkpt>
      <trkpt lat="43.56737" lon="6.7772">
        <ele>310.3</ele>
        <time>2025-01-10T11:08:10.000Z</time>
      </trkpt>
      <trkpt lat="43.56738" lon="6.77728">
        <ele>311.1</ele>
        <time>2025-01-10T11:08:09.000Z</time>
      </trkpt>
      <trkpt lat="43.56738" lon="6.77735">
        <ele>311.7</ele>
        <time>2025-01-10T11:08:08.000Z</time>
      </trkpt>
      <trkpt lat="43.56739" lon="6.77741">
        <ele>312.1</ele>
        <time>2025-01-10T11:08:07.000Z</time>
      </trkpt>
      <trkpt lat="43.5674" lon="6.77746">
        <ele>312.4</ele>
        <time>2025-01-10T11:08:06.000Z</time>
      </trkpt>
      <trkpt lat="43.56741" lon="6.77751">
        <ele>312.6</ele>
        <time>2025-01-10T11:08:05.000Z</time>
      </trkpt>
      <trkpt lat="43.56743" lon="6.77756">
        <ele>312.7</ele>
        <time>2025-01-10T11:08:04.000Z</time>
      </trkpt>
      <trkpt lat="43.56744" lon="6.7776">
        <ele>312.8</ele>
        <time>2025-01-10T11:08:03.000Z</time>
      </trkpt>
      <trkpt lat="43.56748" lon="6.77768">
        <ele>313</ele>
        <time>2025-01-10T11:08:02.000Z</time>
      </trkpt>
      <trkpt lat="43.56752" lon="6.77775">
        <ele>313.1</ele>
        <time>2025-01-10T11:08:01.000Z</time>
      </trkpt>
      <trkpt lat="43.56756" lon="6.77783">
        <ele>313.3</ele>
        <time>2025-01-10T11:08:00.000Z</time>
      </trkpt>
      <trkpt lat="43.5676" lon="6.77791">
        <ele>313.6</ele>
        <time>2025-01-10T11:07:59.000Z</time>
      </trkpt>
      <trkpt lat="43.56763" lon="6.77798">
        <ele>313.8</ele>
        <time>2025-01-10T11:07:58.000Z</time>
      </trkpt>
      <trkpt lat="43.56767" lon="6.77807">
        <ele>314.2</ele>
        <time>2025-01-10T11:07:57.000Z</time>
      </trkpt>
      <trkpt lat="43.56772" lon="6.77818">
        <ele>314.8</ele>
        <time>2025-01-10T11:07:56.000Z</time>
      </trkpt>
      <trkpt lat="43.56777" lon="6.77826">
        <ele>315.5</ele>
        <time>2025-01-10T11:07:55.000Z</time>
      </trkpt>
      <trkpt lat="43.56782" lon="6.77832">
        <ele>316.1</ele>
        <time>2025-01-10T11:07:54.000Z</time>
      </trkpt>
      <trkpt lat="43.56788" lon="6.7784">
        <ele>317</ele>
        <time>2025-01-10T11:07:53.000Z</time>
      </trkpt>
      <trkpt lat="43.56794" lon="6.77846">
        <ele>317.9</ele>
        <time>2025-01-10T11:07:52.000Z</time>
      </trkpt>
      <trkpt lat="43.56799" lon="6.77852">
        <ele>318.7</ele>
        <time>2025-01-10T11:07:51.000Z</time>
      </trkpt>
      <trkpt lat="43.56804" lon="6.77858">
        <ele>319.8</ele>
        <time>2025-01-10T11:07:50.000Z</time>
      </trkpt>
      <trkpt lat="43.56808" lon="6.77864">
        <ele>320.8</ele>
        <time>2025-01-10T11:07:49.000Z</time>
      </trkpt>
      <trkpt lat="43.56812" lon="6.77869">
        <ele>321.7</ele>
        <time>2025-01-10T11:07:48.000Z</time>
      </trkpt>
      <trkpt lat="43.56816" lon="6.77875">
        <ele>322.7</ele>
        <time>2025-01-10T11:07:47.000Z</time>
      </trkpt>
      <trkpt lat="43.56818" lon="6.7788">
        <ele>323.5</ele>
        <time>2025-01-10T11:07:46.000Z</time>
      </trkpt>
      <trkpt lat="43.5682" lon="6.77885">
        <ele>324.2</ele>
        <time>2025-01-10T11:07:45.000Z</time>
      </trkpt>
      <trkpt lat="43.56821" lon="6.77889">
        <ele>324.7</ele>
        <time>2025-01-10T11:07:44.000Z</time>
      </trkpt>
      <trkpt lat="43.56824" lon="6.77895">
        <ele>325.4</ele>
        <time>2025-01-10T11:07:43.000Z</time>
      </trkpt>
      <trkpt lat="43.56826" lon="6.779">
        <ele>326.1</ele>
        <time>2025-01-10T11:07:42.000Z</time>
      </trkpt>
      <trkpt lat="43.56829" lon="6.77904">
        <ele>326.9</ele>
        <time>2025-01-10T11:07:41.000Z</time>
      </trkpt>
      <trkpt lat="43.56832" lon="6.77909">
        <ele>327.7</ele>
        <time>2025-01-10T11:07:40.000Z</time>
      </trkpt>
      <trkpt lat="43.56835" lon="6.77913">
        <ele>328.4</ele>
        <time>2025-01-10T11:07:39.000Z</time>
      </trkpt>
      <trkpt lat="43.56839" lon="6.77919">
        <ele>329.4</ele>
        <time>2025-01-10T11:07:38.000Z</time>
      </trkpt>
      <trkpt lat="43.56842" lon="6.77924">
        <ele>330.1</ele>
        <time>2025-01-10T11:07:37.000Z</time>
      </trkpt>
      <trkpt lat="43.56844" lon="6.7793">
        <ele>330.8</ele>
        <time>2025-01-10T11:07:36.000Z</time>
      </trkpt>
      <trkpt lat="43.56845" lon="6.77937">
        <ele>331.5</ele>
        <time>2025-01-10T11:07:35.000Z</time>
      </trkpt>
      <trkpt lat="43.56846" lon="6.77944">
        <ele>332</ele>
        <time>2025-01-10T11:07:34.000Z</time>
      </trkpt>
      <trkpt lat="43.56847" lon="6.77952">
        <ele>332.6</ele>
        <time>2025-01-10T11:07:33.000Z</time>
      </trkpt>
      <trkpt lat="43.56848" lon="6.7796">
        <ele>333.2</ele>
        <time>2025-01-10T11:07:32.000Z</time>
      </trkpt>
      <trkpt lat="43.56849" lon="6.7797">
        <ele>333.9</ele>
        <time>2025-01-10T11:07:31.000Z</time>
      </trkpt>
      <trkpt lat="43.56851" lon="6.7798">
        <ele>334.7</ele>
        <time>2025-01-10T11:07:30.000Z</time>
      </trkpt>
      <trkpt lat="43.56852" lon="6.77989">
        <ele>335.5</ele>
        <time>2025-01-10T11:07:29.000Z</time>
      </trkpt>
      <trkpt lat="43.56852" lon="6.7799">
        <ele>335.5</ele>
        <time>2025-01-10T11:07:28.000Z</time>
      </trkpt>
      <trkpt lat="43.56852" lon="6.7799">
        <ele>335.6</ele>
        <time>2025-01-10T11:07:27.000Z</time>
      </trkpt>
      <trkpt lat="43.56852" lon="6.7799">
        <ele>335.6</ele>
        <time>2025-01-10T11:07:26.000Z</time>
      </trkpt>
      <trkpt lat="43.56852" lon="6.7799">
        <ele>335.6</ele>
        <time>2025-01-10T11:07:25.000Z</time>
      </trkpt>
      <trkpt lat="43.56852" lon="6.77991">
        <ele>335.6</ele>
        <time>2025-01-10T11:07:24.000Z</time>
      </trkpt>
      <trkpt lat="43.56852" lon="6.77991">
        <ele>335.7</ele>
        <time>2025-01-10T11:07:23.000Z</time>
      </trkpt>
      <trkpt lat="43.56852" lon="6.77991">
        <ele>335.7</ele>
        <time>2025-01-10T11:07:22.000Z</time>
      </trkpt>
      <trkpt lat="43.56852" lon="6.77991">
        <ele>335.7</ele>
        <time>2025-01-10T11:07:21.000Z</time>
      </trkpt>
      <trkpt lat="43.56853" lon="6.77992">
        <ele>335.7</ele>
        <time>2025-01-10T11:07:20.000Z</time>
      </trkpt>
      <trkpt lat="43.56853" lon="6.77992">
        <ele>335.7</ele>
        <time>2025-01-10T11:07:19.000Z</time>
      </trkpt>
      <trkpt lat="43.56853" lon="6.77992">
        <ele>335.8</ele>
        <time>2025-01-10T11:07:18.000Z</time>
      </trkpt>
      <trkpt lat="43.56853" lon="6.77992">
        <ele>335.8</ele>
        <time>2025-01-10T11:07:17.000Z</time>
      </trkpt>
      <trkpt lat="43.56853" lon="6.77993">
        <ele>335.8</ele>
        <time>2025-01-10T11:07:16.000Z</time>
      </trkpt>
      <trkpt lat="43.56853" lon="6.77993">
        <ele>335.8</ele>
        <time>2025-01-10T11:07:15.000Z</time>
      </trkpt>
      <trkpt lat="43.56853" lon="6.77993">
        <ele>335.9</ele>
        <time>2025-01-10T11:07:14.000Z</time>
      </trkpt>
      <trkpt lat="43.56853" lon="6.77993">
        <ele>335.9</ele>
        <time>2025-01-10T11:07:13.000Z</time>
      </trkpt>
      <trkpt lat="43.56853" lon="6.77994">
        <ele>335.9</ele>
        <time>2025-01-10T11:07:12.000Z</time>
      </trkpt>
      <trkpt lat="43.56853" lon="6.77994">
        <ele>335.9</ele>
        <time>2025-01-10T11:07:11.000Z</time>
      </trkpt>
      <trkpt lat="43.56853" lon="6.77994">
        <ele>335.9</ele>
        <time>2025-01-10T11:07:10.000Z</time>
      </trkpt>
      <trkpt lat="43.56853" lon="6.77994">
        <ele>336</ele>
        <time>2025-01-10T11:07:09.000Z</time>
      </trkpt>
      <trkpt lat="43.56853" lon="6.77995">
        <ele>336</ele>
        <time>2025-01-10T11:07:08.000Z</time>
      </trkpt>
      <trkpt lat="43.56853" lon="6.77995">
        <ele>336</ele>
        <time>2025-01-10T11:07:07.000Z</time>
      </trkpt>
      <trkpt lat="43.56853" lon="6.77995">
        <ele>336</ele>
        <time>2025-01-10T11:07:06.000Z</time>
      </trkpt>
      <trkpt lat="43.56853" lon="6.77995">
        <ele>336.1</ele>
        <time>2025-01-10T11:07:05.000Z</time>
      </trkpt>
      <trkpt lat="43.56853" lon="6.77996">
        <ele>336.1</ele>
        <time>2025-01-10T11:07:04.000Z</time>
      </trkpt>
      <trkpt lat="43.56853" lon="6.77996">
        <ele>336.1</ele>
        <time>2025-01-10T11:07:03.000Z</time>
      </trkpt>
      <trkpt lat="43.56854" lon="6.77996">
        <ele>336.1</ele>
        <time>2025-01-10T11:07:02.000Z</time>
      </trkpt>
      <trkpt lat="43.56854" lon="6.77996">
        <ele>336.1</ele>
        <time>2025-01-10T11:07:01.000Z</time>
      </trkpt>
      <trkpt lat="43.56854" lon="6.77997">
        <ele>336.2</ele>
        <time>2025-01-10T11:07:00.000Z</time>
      </trkpt>
      <trkpt lat="43.56854" lon="6.77997">
        <ele>336.2</ele>
        <time>2025-01-10T11:06:59.000Z</time>
      </trkpt>
      <trkpt lat="43.56854" lon="6.77997">
        <ele>336.2</ele>
        <time>2025-01-10T11:06:58.000Z</time>
      </trkpt>
      <trkpt lat="43.56854" lon="6.77997">
        <ele>336.2</ele>
        <time>2025-01-10T11:06:57.000Z</time>
      </trkpt>
      <trkpt lat="43.56854" lon="6.77998">
        <ele>336.3</ele>
        <time>2025-01-10T11:06:56.000Z</time>
      </trkpt>
      <trkpt lat="43.56854" lon="6.77998">
        <ele>336.3</ele>
        <time>2025-01-10T11:06:55.000Z</time>
      </trkpt>
      <trkpt lat="43.56854" lon="6.77998">
        <ele>336.3</ele>
        <time>2025-01-10T11:06:54.000Z</time>
      </trkpt>
      <trkpt lat="43.56854" lon="6.77999">
        <ele>336.3</ele>
        <time>2025-01-10T11:06:53.000Z</time>
      </trkpt>
      <trkpt lat="43.56854" lon="6.77999">
        <ele>336.4</ele>
        <time>2025-01-10T11:06:52.000Z</time>
      </trkpt>
      <trkpt lat="43.56854" lon="6.77999">
        <ele>336.4</ele>
        <time>2025-01-10T11:06:51.000Z</time>
      </trkpt>
      <trkpt lat="43.56854" lon="6.77999">
        <ele>336.4</ele>
        <time>2025-01-10T11:06:50.000Z</time>
      </trkpt>
      <trkpt lat="43.56854" lon="6.78">
        <ele>336.4</ele>
        <time>2025-01-10T11:06:49.000Z</time>
      </trkpt>
      <trkpt lat="43.56854" lon="6.78">
        <ele>336.5</ele>
        <time>2025-01-10T11:06:48.000Z</time>
      </trkpt>
      <trkpt lat="43.56854" lon="6.78">
        <ele>336.5</ele>
        <time>2025-01-10T11:06:47.000Z</time>
      </trkpt>
      <trkpt lat="43.56854" lon="6.78">
        <ele>336.5</ele>
        <time>2025-01-10T11:06:46.000Z</time>
      </trkpt>
      <trkpt lat="43.56854" lon="6.78001">
        <ele>336.5</ele>
        <time>2025-01-10T11:06:45.000Z</time>
      </trkpt>
      <trkpt lat="43.56855" lon="6.78001">
        <ele>336.6</ele>
        <time>2025-01-10T11:06:44.000Z</time>
      </trkpt>
      <trkpt lat="43.56855" lon="6.78001">
        <ele>336.6</ele>
        <time>2025-01-10T11:06:43.000Z</time>
      </trkpt>
      <trkpt lat="43.56855" lon="6.78001">
        <ele>336.6</ele>
        <time>2025-01-10T11:06:42.000Z</time>
      </trkpt>
      <trkpt lat="43.56855" lon="6.78002">
        <ele>336.6</ele>
        <time>2025-01-10T11:06:41.000Z</time>
      </trkpt>
      <trkpt lat="43.56855" lon="6.78002">
        <ele>336.7</ele>
        <time>2025-01-10T11:06:40.000Z</time>
      </trkpt>
      <trkpt lat="43.56855" lon="6.78002">
        <ele>336.7</ele>
        <time>2025-01-10T11:06:39.000Z</time>
      </trkpt>
      <trkpt lat="43.56855" lon="6.78002">
        <ele>336.7</ele>
        <time>2025-01-10T11:06:38.000Z</time>
      </trkpt>
      <trkpt lat="43.56855" lon="6.78003">
        <ele>336.7</ele>
        <time>2025-01-10T11:06:37.000Z</time>
      </trkpt>
      <trkpt lat="43.56855" lon="6.78003">
        <ele>336.8</ele>
        <time>2025-01-10T11:06:36.000Z</time>
      </trkpt>
      <trkpt lat="43.56855" lon="6.78003">
        <ele>336.8</ele>
        <time>2025-01-10T11:06:35.000Z</time>
      </trkpt>
      <trkpt lat="43.56855" lon="6.78003">
        <ele>336.8</ele>
        <time>2025-01-10T11:06:34.000Z</time>
      </trkpt>
      <trkpt lat="43.56855" lon="6.78004">
        <ele>336.8</ele>
        <time>2025-01-10T11:06:33.000Z</time>
      </trkpt>
      <trkpt lat="43.56855" lon="6.78004">
        <ele>336.9</ele>
        <time>2025-01-10T11:06:32.000Z</time>
      </trkpt>
      <trkpt lat="43.56855" lon="6.78004">
        <ele>336.9</ele>
        <time>2025-01-10T11:06:31.000Z</time>
      </trkpt>
      <trkpt lat="43.56855" lon="6.78004">
        <ele>336.9</ele>
        <time>2025-01-10T11:06:30.000Z</time>
      </trkpt>
      <trkpt lat="43.56855" lon="6.78005">
        <ele>336.9</ele>
        <time>2025-01-10T11:06:29.000Z</time>
      </trkpt>
      <trkpt lat="43.56855" lon="6.78005">
        <ele>336.9</ele>
        <time>2025-01-10T11:06:28.000Z</time>
      </trkpt>
      <trkpt lat="43.56855" lon="6.78005">
        <ele>337</ele>
        <time>2025-01-10T11:06:27.000Z</time>
      </trkpt>
      <trkpt lat="43.56855" lon="6.78005">
        <ele>337</ele>
        <time>2025-01-10T11:06:26.000Z</time>
      </trkpt>
      <trkpt lat="43.56856" lon="6.78006">
        <ele>337</ele>
        <time>2025-01-10T11:06:25.000Z</time>
      </trkpt>
      <trkpt lat="43.56856" lon="6.78006">
        <ele>337</ele>
        <time>2025-01-10T11:06:24.000Z</time>
      </trkpt>
      <trkpt lat="43.56856" lon="6.78006">
        <ele>337.1</ele>
        <time>2025-01-10T11:06:23.000Z</time>
      </trkpt>
      <trkpt lat="43.56856" lon="6.78006">
        <ele>337.1</ele>
        <time>2025-01-10T11:06:22.000Z</time>
      </trkpt>
      <trkpt lat="43.56856" lon="6.78007">
        <ele>337.1</ele>
        <time>2025-01-10T11:06:21.000Z</time>
      </trkpt>
      <trkpt lat="43.56856" lon="6.78007">
        <ele>337.1</ele>
        <time>2025-01-10T11:06:20.000Z</time>
      </trkpt>
      <trkpt lat="43.56856" lon="6.78007">
        <ele>337.2</ele>
        <time>2025-01-10T11:06:19.000Z</time>
      </trkpt>
      <trkpt lat="43.56856" lon="6.78007">
        <ele>337.2</ele>
        <time>2025-01-10T11:06:18.000Z</time>
      </trkpt>
      <trkpt lat="43.56856" lon="6.78008">
        <ele>337.2</ele>
        <time>2025-01-10T11:06:17.000Z</time>
      </trkpt>
      <trkpt lat="43.56856" lon="6.78008">
        <ele>337.2</ele>
        <time>2025-01-10T11:06:16.000Z</time>
      </trkpt>
      <trkpt lat="43.56856" lon="6.78008">
        <ele>337.3</ele>
        <time>2025-01-10T11:06:15.000Z</time>
      </trkpt>
      <trkpt lat="43.56856" lon="6.78008">
        <ele>337.3</ele>
        <time>2025-01-10T11:06:14.000Z</time>
      </trkpt>
      <trkpt lat="43.56856" lon="6.78009">
        <ele>337.3</ele>
        <time>2025-01-10T11:06:13.000Z</time>
      </trkpt>
      <trkpt lat="43.56856" lon="6.78009">
        <ele>337.3</ele>
        <time>2025-01-10T11:06:12.000Z</time>
      </trkpt>
      <trkpt lat="43.56856" lon="6.78009">
        <ele>337.4</ele>
        <time>2025-01-10T11:06:11.000Z</time>
      </trkpt>
      <trkpt lat="43.56856" lon="6.78009">
        <ele>337.4</ele>
        <time>2025-01-10T11:06:10.000Z</time>
      </trkpt>
      <trkpt lat="43.56856" lon="6.7801">
        <ele>337.4</ele>
        <time>2025-01-10T11:06:09.000Z</time>
      </trkpt>
      <trkpt lat="43.56856" lon="6.7801">
        <ele>337.4</ele>
        <time>2025-01-10T11:06:08.000Z</time>
      </trkpt>
      <trkpt lat="43.56857" lon="6.7801">
        <ele>337.5</ele>
        <time>2025-01-10T11:06:07.000Z</time>
      </trkpt>
      <trkpt lat="43.56857" lon="6.7801">
        <ele>337.5</ele>
        <time>2025-01-10T11:06:06.000Z</time>
      </trkpt>
      <trkpt lat="43.56857" lon="6.78011">
        <ele>337.5</ele>
        <time>2025-01-10T11:06:05.000Z</time>
      </trkpt>
      <trkpt lat="43.56857" lon="6.78011">
        <ele>337.5</ele>
        <time>2025-01-10T11:06:04.000Z</time>
      </trkpt>
      <trkpt lat="43.56857" lon="6.78011">
        <ele>337.6</ele>
        <time>2025-01-10T11:06:03.000Z</time>
      </trkpt>
      <trkpt lat="43.56857" lon="6.78011">
        <ele>337.6</ele>
        <time>2025-01-10T11:06:02.000Z</time>
      </trkpt>
      <trkpt lat="43.56857" lon="6.78012">
        <ele>337.6</ele>
        <time>2025-01-10T11:06:01.000Z</time>
      </trkpt>
      <trkpt lat="43.56857" lon="6.78012">
        <ele>337.6</ele>
        <time>2025-01-10T11:06:00.000Z</time>
      </trkpt>
      <trkpt lat="43.56857" lon="6.78012">
        <ele>337.7</ele>
        <time>2025-01-10T11:05:59.000Z</time>
      </trkpt>
      <trkpt lat="43.56857" lon="6.78013">
        <ele>337.7</ele>
        <time>2025-01-10T11:05:58.000Z</time>
      </trkpt>
      <trkpt lat="43.56857" lon="6.78013">
        <ele>337.7</ele>
        <time>2025-01-10T11:05:57.000Z</time>
      </trkpt>
      <trkpt lat="43.56857" lon="6.78013">
        <ele>337.7</ele>
        <time>2025-01-10T11:05:56.000Z</time>
      </trkpt>
      <trkpt lat="43.56857" lon="6.78013">
        <ele>337.8</ele>
        <time>2025-01-10T11:05:55.000Z</time>
      </trkpt>
      <trkpt lat="43.56857" lon="6.78014">
        <ele>337.8</ele>
        <time>2025-01-10T11:05:54.000Z</time>
      </trkpt>
      <trkpt lat="43.56857" lon="6.78014">
        <ele>337.8</ele>
        <time>2025-01-10T11:05:53.000Z</time>
      </trkpt>
      <trkpt lat="43.56857" lon="6.78014">
        <ele>337.8</ele>
        <time>2025-01-10T11:05:52.000Z</time>
      </trkpt>
      <trkpt lat="43.56857" lon="6.78014">
        <ele>337.8</ele>
        <time>2025-01-10T11:05:51.000Z</time>
      </trkpt>
      <trkpt lat="43.56857" lon="6.78015">
        <ele>337.9</ele>
        <time>2025-01-10T11:05:50.000Z</time>
      </trkpt>
      <trkpt lat="43.56857" lon="6.78015">
        <ele>337.9</ele>
        <time>2025-01-10T11:05:49.000Z</time>
      </trkpt>
      <trkpt lat="43.56858" lon="6.78015">
        <ele>337.9</ele>
        <time>2025-01-10T11:05:48.000Z</time>
      </trkpt>
      <trkpt lat="43.56858" lon="6.78015">
        <ele>338</ele>
        <time>2025-01-10T11:05:47.000Z</time>
      </trkpt>
      <trkpt lat="43.56858" lon="6.78016">
        <ele>338</ele>
        <time>2025-01-10T11:05:46.000Z</time>
      </trkpt>
      <trkpt lat="43.56858" lon="6.78016">
        <ele>338</ele>
        <time>2025-01-10T11:05:45.000Z</time>
      </trkpt>
      <trkpt lat="43.56858" lon="6.78016">
        <ele>338</ele>
        <time>2025-01-10T11:05:44.000Z</time>
      </trkpt>
      <trkpt lat="43.56858" lon="6.78016">
        <ele>338</ele>
        <time>2025-01-10T11:05:43.000Z</time>
      </trkpt>
      <trkpt lat="43.56858" lon="6.78017">
        <ele>338.1</ele>
        <time>2025-01-10T11:05:42.000Z</time>
      </trkpt>
      <trkpt lat="43.56858" lon="6.78017">
        <ele>338.1</ele>
        <time>2025-01-10T11:05:41.000Z</time>
      </trkpt>
      <trkpt lat="43.56858" lon="6.78017">
        <ele>338.1</ele>
        <time>2025-01-10T11:05:40.000Z</time>
      </trkpt>
      <trkpt lat="43.56858" lon="6.78017">
        <ele>338.1</ele>
        <time>2025-01-10T11:05:39.000Z</time>
      </trkpt>
      <trkpt lat="43.56858" lon="6.78018">
        <ele>338.2</ele>
        <time>2025-01-10T11:05:38.000Z</time>
      </trkpt>
      <trkpt lat="43.56858" lon="6.78018">
        <ele>338.2</ele>
        <time>2025-01-10T11:05:37.000Z</time>
      </trkpt>
      <trkpt lat="43.56858" lon="6.78018">
        <ele>338.2</ele>
        <time>2025-01-10T11:05:36.000Z</time>
      </trkpt>
      <trkpt lat="43.56858" lon="6.78018">
        <ele>338.2</ele>
        <time>2025-01-10T11:05:35.000Z</time>
      </trkpt>
      <trkpt lat="43.56858" lon="6.78019">
        <ele>338.3</ele>
        <time>2025-01-10T11:05:34.000Z</time>
      </trkpt>
      <trkpt lat="43.56858" lon="6.78019">
        <ele>338.3</ele>
        <time>2025-01-10T11:05:33.000Z</time>
      </trkpt>
      <trkpt lat="43.56858" lon="6.78019">
        <ele>338.3</ele>
        <time>2025-01-10T11:05:32.000Z</time>
      </trkpt>
      <trkpt lat="43.56858" lon="6.78019">
        <ele>338.3</ele>
        <time>2025-01-10T11:05:31.000Z</time>
      </trkpt>
      <trkpt lat="43.56859" lon="6.7802">
        <ele>338.3</ele>
        <time>2025-01-10T11:05:30.000Z</time>
      </trkpt>
      <trkpt lat="43.56859" lon="6.7802">
        <ele>338.4</ele>
        <time>2025-01-10T11:05:29.000Z</time>
      </trkpt>
      <trkpt lat="43.56859" lon="6.7802">
        <ele>338.4</ele>
        <time>2025-01-10T11:05:28.000Z</time>
      </trkpt>
      <trkpt lat="43.56859" lon="6.7802">
        <ele>338.4</ele>
        <time>2025-01-10T11:05:27.000Z</time>
      </trkpt>
      <trkpt lat="43.56859" lon="6.78021">
        <ele>338.4</ele>
        <time>2025-01-10T11:05:26.000Z</time>
      </trkpt>
      <trkpt lat="43.56859" lon="6.78021">
        <ele>338.5</ele>
        <time>2025-01-10T11:05:25.000Z</time>
      </trkpt>
      <trkpt lat="43.56859" lon="6.78021">
        <ele>338.5</ele>
        <time>2025-01-10T11:05:24.000Z</time>
      </trkpt>
      <trkpt lat="43.56859" lon="6.78021">
        <ele>338.5</ele>
        <time>2025-01-10T11:05:23.000Z</time>
      </trkpt>
      <trkpt lat="43.56859" lon="6.78022">
        <ele>338.5</ele>
        <time>2025-01-10T11:05:22.000Z</time>
      </trkpt>
      <trkpt lat="43.56859" lon="6.78022">
        <ele>338.6</ele>
        <time>2025-01-10T11:05:21.000Z</time>
      </trkpt>
      <trkpt lat="43.56859" lon="6.78022">
        <ele>338.6</ele>
        <time>2025-01-10T11:05:20.000Z</time>
      </trkpt>
      <trkpt lat="43.56859" lon="6.78022">
        <ele>338.6</ele>
        <time>2025-01-10T11:05:19.000Z</time>
      </trkpt>
      <trkpt lat="43.56859" lon="6.78023">
        <ele>338.6</ele>
        <time>2025-01-10T11:05:18.000Z</time>
      </trkpt>
      <trkpt lat="43.56859" lon="6.78023">
        <ele>338.6</ele>
        <time>2025-01-10T11:05:17.000Z</time>
      </trkpt>
      <trkpt lat="43.56859" lon="6.78023">
        <ele>338.7</ele>
        <time>2025-01-10T11:05:16.000Z</time>
      </trkpt>
      <trkpt lat="43.56859" lon="6.78023">
        <ele>338.7</ele>
        <time>2025-01-10T11:05:15.000Z</time>
      </trkpt>
      <trkpt lat="43.56859" lon="6.78024">
        <ele>338.7</ele>
        <time>2025-01-10T11:05:14.000Z</time>
      </trkpt>
      <trkpt lat="43.56859" lon="6.78024">
        <ele>338.7</ele>
        <time>2025-01-10T11:05:13.000Z</time>
      </trkpt>
      <trkpt lat="43.5686" lon="6.78024">
        <ele>338.7</ele>
        <time>2025-01-10T11:05:12.000Z</time>
      </trkpt>
      <trkpt lat="43.5686" lon="6.78024">
        <ele>338.8</ele>
        <time>2025-01-10T11:05:11.000Z</time>
      </trkpt>
      <trkpt lat="43.5686" lon="6.78025">
        <ele>338.8</ele>
        <time>2025-01-10T11:05:10.000Z</time>
      </trkpt>
      <trkpt lat="43.5686" lon="6.78025">
        <ele>338.8</ele>
        <time>2025-01-10T11:05:09.000Z</time>
      </trkpt>
      <trkpt lat="43.5686" lon="6.78025">
        <ele>338.8</ele>
        <time>2025-01-10T11:05:08.000Z</time>
      </trkpt>
      <trkpt lat="43.5686" lon="6.78025">
        <ele>338.8</ele>
        <time>2025-01-10T11:05:07.000Z</time>
      </trkpt>
      <trkpt lat="43.5686" lon="6.78026">
        <ele>338.9</ele>
        <time>2025-01-10T11:05:06.000Z</time>
      </trkpt>
      <trkpt lat="43.5686" lon="6.78026">
        <ele>338.9</ele>
        <time>2025-01-10T11:05:05.000Z</time>
      </trkpt>
      <trkpt lat="43.5686" lon="6.78026">
        <ele>338.9</ele>
        <time>2025-01-10T11:05:04.000Z</time>
      </trkpt>
      <trkpt lat="43.5686" lon="6.78027">
        <ele>338.9</ele>
        <time>2025-01-10T11:05:03.000Z</time>
      </trkpt>
      <trkpt lat="43.5686" lon="6.78027">
        <ele>339</ele>
        <time>2025-01-10T11:05:02.000Z</time>
      </trkpt>
      <trkpt lat="43.5686" lon="6.78027">
        <ele>339</ele>
        <time>2025-01-10T11:05:01.000Z</time>
      </trkpt>
      <trkpt lat="43.5686" lon="6.78027">
        <ele>339</ele>
        <time>2025-01-10T11:05:00.000Z</time>
      </trkpt>
      <trkpt lat="43.5686" lon="6.78028">
        <ele>339</ele>
        <time>2025-01-10T11:04:59.000Z</time>
      </trkpt>
      <trkpt lat="43.5686" lon="6.78028">
        <ele>339</ele>
        <time>2025-01-10T11:04:58.000Z</time>
      </trkpt>
      <trkpt lat="43.5686" lon="6.78028">
        <ele>339.1</ele>
        <time>2025-01-10T11:04:57.000Z</time>
      </trkpt>
      <trkpt lat="43.5686" lon="6.78028">
        <ele>339.1</ele>
        <time>2025-01-10T11:04:56.000Z</time>
      </trkpt>
      <trkpt lat="43.5686" lon="6.78029">
        <ele>339.1</ele>
        <time>2025-01-10T11:04:55.000Z</time>
      </trkpt>
      <trkpt lat="43.5686" lon="6.78029">
        <ele>339.1</ele>
        <time>2025-01-10T11:04:54.000Z</time>
      </trkpt>
      <trkpt lat="43.56861" lon="6.78029">
        <ele>339.2</ele>
        <time>2025-01-10T11:04:53.000Z</time>
      </trkpt>
      <trkpt lat="43.56861" lon="6.7803">
        <ele>339.2</ele>
        <time>2025-01-10T11:04:52.000Z</time>
      </trkpt>
      <trkpt lat="43.56862" lon="6.78031">
        <ele>339.3</ele>
        <time>2025-01-10T11:04:51.000Z</time>
      </trkpt>
      <trkpt lat="43.56863" lon="6.78032">
        <ele>339.5</ele>
        <time>2025-01-10T11:04:50.000Z</time>
      </trkpt>
      <trkpt lat="43.56865" lon="6.78035">
        <ele>339.7</ele>
        <time>2025-01-10T11:04:49.000Z</time>
      </trkpt>
      <trkpt lat="43.56867" lon="6.78039">
        <ele>339.9</ele>
        <time>2025-01-10T11:04:48.000Z</time>
      </trkpt>
      <trkpt lat="43.56869" lon="6.78042">
        <ele>340.1</ele>
        <time>2025-01-10T11:04:47.000Z</time>
      </trkpt>
      <trkpt lat="43.56871" lon="6.78045">
        <ele>340.3</ele>
        <time>2025-01-10T11:04:46.000Z</time>
      </trkpt>
      <trkpt lat="43.56873" lon="6.78048">
        <ele>340.5</ele>
        <time>2025-01-10T11:04:45.000Z</time>
      </trkpt>
      <trkpt lat="43.56876" lon="6.78051">
        <ele>340.6</ele>
        <time>2025-01-10T11:04:44.000Z</time>
      </trkpt>
      <trkpt lat="43.56878" lon="6.78054">
        <ele>340.7</ele>
        <time>2025-01-10T11:04:43.000Z</time>
      </trkpt>
      <trkpt lat="43.5688" lon="6.78057">
        <ele>340.7</ele>
        <time>2025-01-10T11:04:42.000Z</time>
      </trkpt>
      <trkpt lat="43.56883" lon="6.78061">
        <ele>340.8</ele>
        <time>2025-01-10T11:04:41.000Z</time>
      </trkpt>
      <trkpt lat="43.56886" lon="6.78064">
        <ele>340.9</ele>
        <time>2025-01-10T11:04:40.000Z</time>
      </trkpt>
      <trkpt lat="43.56889" lon="6.78067">
        <ele>341</ele>
        <time>2025-01-10T11:04:39.000Z</time>
      </trkpt>
      <trkpt lat="43.56892" lon="6.7807">
        <ele>341</ele>
        <time>2025-01-10T11:04:38.000Z</time>
      </trkpt>
      <trkpt lat="43.56896" lon="6.78073">
        <ele>341</ele>
        <time>2025-01-10T11:04:37.000Z</time>
      </trkpt>
      <trkpt lat="43.56899" lon="6.78075">
        <ele>341</ele>
        <time>2025-01-10T11:04:36.000Z</time>
      </trkpt>
      <trkpt lat="43.56902" lon="6.78077">
        <ele>340.9</ele>
        <time>2025-01-10T11:04:35.000Z</time>
      </trkpt>
      <trkpt lat="43.56905" lon="6.78079">
        <ele>340.9</ele>
        <time>2025-01-10T11:04:34.000Z</time>
      </trkpt>
      <trkpt lat="43.56907" lon="6.78081">
        <ele>340.8</ele>
        <time>2025-01-10T11:04:33.000Z</time>
      </trkpt>
      <trkpt lat="43.56907" lon="6.78081">
        <ele>340.8</ele>
        <time>2025-01-10T11:04:32.000Z</time>
      </trkpt>
      <trkpt lat="43.56907" lon="6.78081">
        <ele>340.8</ele>
        <time>2025-01-10T11:04:31.000Z</time>
      </trkpt>
      <trkpt lat="43.56907" lon="6.78081">
        <ele>340.8</ele>
        <time>2025-01-10T11:04:30.000Z</time>
      </trkpt>
      <trkpt lat="43.56907" lon="6.78081">
        <ele>340.8</ele>
        <time>2025-01-10T11:04:29.000Z</time>
      </trkpt>
      <trkpt lat="43.56907" lon="6.78081">
        <ele>340.8</ele>
        <time>2025-01-10T11:04:28.000Z</time>
      </trkpt>
      <trkpt lat="43.56907" lon="6.78081">
        <ele>340.8</ele>
        <time>2025-01-10T11:04:27.000Z</time>
      </trkpt>
      <trkpt lat="43.56907" lon="6.78081">
        <ele>340.8</ele>
        <time>2025-01-10T11:04:26.000Z</time>
      </trkpt>
      <trkpt lat="43.56907" lon="6.78081">
        <ele>340.8</ele>
        <time>2025-01-10T11:04:25.000Z</time>
      </trkpt>
      <trkpt lat="43.56908" lon="6.78081">
        <ele>340.8</ele>
        <time>2025-01-10T11:04:24.000Z</time>
      </trkpt>
      <trkpt lat="43.56908" lon="6.7808">
        <ele>340.8</ele>
        <time>2025-01-10T11:04:23.000Z</time>
      </trkpt>
      <trkpt lat="43.56908" lon="6.78081">
        <ele>340.8</ele>
        <time>2025-01-10T11:04:22.000Z</time>
      </trkpt>
      <trkpt lat="43.56908" lon="6.78081">
        <ele>340.7</ele>
        <time>2025-01-10T11:04:21.000Z</time>
      </trkpt>
      <trkpt lat="43.56909" lon="6.7808">
        <ele>340.7</ele>
        <time>2025-01-10T11:04:20.000Z</time>
      </trkpt>
      <trkpt lat="43.56909" lon="6.78081">
        <ele>340.7</ele>
        <time>2025-01-10T11:04:19.000Z</time>
      </trkpt>
      <trkpt lat="43.56908" lon="6.7808">
        <ele>340.7</ele>
        <time>2025-01-10T11:04:18.000Z</time>
      </trkpt>
      <trkpt lat="43.56908" lon="6.78081">
        <ele>340.7</ele>
        <time>2025-01-10T11:04:17.000Z</time>
      </trkpt>
      <trkpt lat="43.56908" lon="6.78081">
        <ele>340.7</ele>
        <time>2025-01-10T11:04:16.000Z</time>
      </trkpt>
      <trkpt lat="43.56909" lon="6.78081">
        <ele>340.7</ele>
        <time>2025-01-10T11:04:15.000Z</time>
      </trkpt>
      <trkpt lat="43.5691" lon="6.78082">
        <ele>340.7</ele>
        <time>2025-01-10T11:04:14.000Z</time>
      </trkpt>
      <trkpt lat="43.56911" lon="6.78084">
        <ele>340.6</ele>
        <time>2025-01-10T11:04:13.000Z</time>
      </trkpt>
      <trkpt lat="43.56913" lon="6.78086">
        <ele>340.5</ele>
        <time>2025-01-10T11:04:12.000Z</time>
      </trkpt>
      <trkpt lat="43.56915" lon="6.78089">
        <ele>340.4</ele>
        <time>2025-01-10T11:04:11.000Z</time>
      </trkpt>
      <trkpt lat="43.56917" lon="6.7809">
        <ele>340.3</ele>
        <time>2025-01-10T11:04:10.000Z</time>
      </trkpt>
      <trkpt lat="43.5692" lon="6.78092">
        <ele>340.2</ele>
        <time>2025-01-10T11:04:09.000Z</time>
      </trkpt>
      <trkpt lat="43.56923" lon="6.78094">
        <ele>340</ele>
        <time>2025-01-10T11:04:08.000Z</time>
      </trkpt>
      <trkpt lat="43.56926" lon="6.78096">
        <ele>339.9</ele>
        <time>2025-01-10T11:04:07.000Z</time>
      </trkpt>
      <trkpt lat="43.56929" lon="6.78098">
        <ele>339.7</ele>
        <time>2025-01-10T11:04:06.000Z</time>
      </trkpt>
      <trkpt lat="43.56933" lon="6.78101">
        <ele>339.5</ele>
        <time>2025-01-10T11:04:05.000Z</time>
      </trkpt>
      <trkpt lat="43.56937" lon="6.78103">
        <ele>339.3</ele>
        <time>2025-01-10T11:04:04.000Z</time>
      </trkpt>
      <trkpt lat="43.56941" lon="6.78105">
        <ele>339</ele>
        <time>2025-01-10T11:04:03.000Z</time>
      </trkpt>
      <trkpt lat="43.56945" lon="6.78106">
        <ele>338.7</ele>
        <time>2025-01-10T11:04:02.000Z</time>
      </trkpt>
      <trkpt lat="43.56949" lon="6.78107">
        <ele>338.5</ele>
        <time>2025-01-10T11:04:01.000Z</time>
      </trkpt>
      <trkpt lat="43.56953" lon="6.78108">
        <ele>338.2</ele>
        <time>2025-01-10T11:04:00.000Z</time>
      </trkpt>
      <trkpt lat="43.56957" lon="6.78108">
        <ele>338</ele>
        <time>2025-01-10T11:03:59.000Z</time>
      </trkpt>
      <trkpt lat="43.56961" lon="6.78109">
        <ele>337.8</ele>
        <time>2025-01-10T11:03:58.000Z</time>
      </trkpt>
      <trkpt lat="43.56964" lon="6.7811">
        <ele>337.6</ele>
        <time>2025-01-10T11:03:57.000Z</time>
      </trkpt>
      <trkpt lat="43.56969" lon="6.78112">
        <ele>337.3</ele>
        <time>2025-01-10T11:03:56.000Z</time>
      </trkpt>
      <trkpt lat="43.56973" lon="6.78114">
        <ele>337.1</ele>
        <time>2025-01-10T11:03:55.000Z</time>
      </trkpt>
      <trkpt lat="43.56976" lon="6.78115">
        <ele>336.9</ele>
        <time>2025-01-10T11:03:54.000Z</time>
      </trkpt>
      <trkpt lat="43.5698" lon="6.78117">
        <ele>336.7</ele>
        <time>2025-01-10T11:03:53.000Z</time>
      </trkpt>
      <trkpt lat="43.56982" lon="6.78118">
        <ele>336.5</ele>
        <time>2025-01-10T11:03:52.000Z</time>
      </trkpt>
      <trkpt lat="43.56987" lon="6.7812">
        <ele>336.2</ele>
        <time>2025-01-10T11:03:51.000Z</time>
      </trkpt>
      <trkpt lat="43.5699" lon="6.78121">
        <ele>336</ele>
        <time>2025-01-10T11:03:50.000Z</time>
      </trkpt>
      <trkpt lat="43.56994" lon="6.78123">
        <ele>335.8</ele>
        <time>2025-01-10T11:03:49.000Z</time>
      </trkpt>
      <trkpt lat="43.56998" lon="6.78125">
        <ele>335.7</ele>
        <time>2025-01-10T11:03:48.000Z</time>
      </trkpt>
      <trkpt lat="43.57001" lon="6.78127">
        <ele>335.5</ele>
        <time>2025-01-10T11:03:47.000Z</time>
      </trkpt>
      <trkpt lat="43.57005" lon="6.78129">
        <ele>335.4</ele>
        <time>2025-01-10T11:03:46.000Z</time>
      </trkpt>
      <trkpt lat="43.57009" lon="6.7813">
        <ele>335.3</ele>
        <time>2025-01-10T11:03:45.000Z</time>
      </trkpt>
      <trkpt lat="43.57013" lon="6.78132">
        <ele>335.2</ele>
        <time>2025-01-10T11:03:44.000Z</time>
      </trkpt>
      <trkpt lat="43.57016" lon="6.78133">
        <ele>335.1</ele>
        <time>2025-01-10T11:03:43.000Z</time>
      </trkpt>
      <trkpt lat="43.5702" lon="6.78135">
        <ele>335.1</ele>
        <time>2025-01-10T11:03:42.000Z</time>
      </trkpt>
      <trkpt lat="43.57024" lon="6.78136">
        <ele>335</ele>
        <time>2025-01-10T11:03:41.000Z</time>
      </trkpt>
      <trkpt lat="43.57029" lon="6.78138">
        <ele>335</ele>
        <time>2025-01-10T11:03:40.000Z</time>
      </trkpt>
      <trkpt lat="43.57033" lon="6.7814">
        <ele>335</ele>
        <time>2025-01-10T11:03:39.000Z</time>
      </trkpt>
      <trkpt lat="43.57036" lon="6.78141">
        <ele>335</ele>
        <time>2025-01-10T11:03:38.000Z</time>
      </trkpt>
      <trkpt lat="43.5704" lon="6.78143">
        <ele>334.9</ele>
        <time>2025-01-10T11:03:37.000Z</time>
      </trkpt>
      <trkpt lat="43.57043" lon="6.78144">
        <ele>334.9</ele>
        <time>2025-01-10T11:03:36.000Z</time>
      </trkpt>
      <trkpt lat="43.57047" lon="6.78144">
        <ele>334.8</ele>
        <time>2025-01-10T11:03:35.000Z</time>
      </trkpt>
      <trkpt lat="43.5705" lon="6.78145">
        <ele>334.7</ele>
        <time>2025-01-10T11:03:34.000Z</time>
      </trkpt>
      <trkpt lat="43.57053" lon="6.78146">
        <ele>334.6</ele>
        <time>2025-01-10T11:03:33.000Z</time>
      </trkpt>
      <trkpt lat="43.57056" lon="6.78148">
        <ele>334.4</ele>
        <time>2025-01-10T11:03:32.000Z</time>
      </trkpt>
      <trkpt lat="43.57059" lon="6.78148">
        <ele>334.2</ele>
        <time>2025-01-10T11:03:31.000Z</time>
      </trkpt>
      <trkpt lat="43.57061" lon="6.78149">
        <ele>334</ele>
        <time>2025-01-10T11:03:30.000Z</time>
      </trkpt>
      <trkpt lat="43.57064" lon="6.78149">
        <ele>333.8</ele>
        <time>2025-01-10T11:03:29.000Z</time>
      </trkpt>
      <trkpt lat="43.57066" lon="6.78149">
        <ele>333.6</ele>
        <time>2025-01-10T11:03:28.000Z</time>
      </trkpt>
      <trkpt lat="43.57069" lon="6.78149">
        <ele>333.3</ele>
        <time>2025-01-10T11:03:27.000Z</time>
      </trkpt>
      <trkpt lat="43.57072" lon="6.78149">
        <ele>333</ele>
        <time>2025-01-10T11:03:26.000Z</time>
      </trkpt>
      <trkpt lat="43.57074" lon="6.78149">
        <ele>332.7</ele>
        <time>2025-01-10T11:03:25.000Z</time>
      </trkpt>
      <trkpt lat="43.57077" lon="6.78149">
        <ele>332.3</ele>
        <time>2025-01-10T11:03:24.000Z</time>
      </trkpt>
      <trkpt lat="43.5708" lon="6.78149">
        <ele>331.9</ele>
        <time>2025-01-10T11:03:23.000Z</time>
      </trkpt>
      <trkpt lat="43.57082" lon="6.78149">
        <ele>331.5</ele>
        <time>2025-01-10T11:03:22.000Z</time>
      </trkpt>
      <trkpt lat="43.57085" lon="6.78149">
        <ele>331.2</ele>
        <time>2025-01-10T11:03:21.000Z</time>
      </trkpt>
      <trkpt lat="43.57087" lon="6.7815">
        <ele>330.7</ele>
        <time>2025-01-10T11:03:20.000Z</time>
      </trkpt>
      <trkpt lat="43.5709" lon="6.7815">
        <ele>330.3</ele>
        <time>2025-01-10T11:03:19.000Z</time>
      </trkpt>
      <trkpt lat="43.57092" lon="6.78151">
        <ele>329.8</ele>
        <time>2025-01-10T11:03:18.000Z</time>
      </trkpt>
      <trkpt lat="43.57095" lon="6.78152">
        <ele>329.4</ele>
        <time>2025-01-10T11:03:17.000Z</time>
      </trkpt>
      <trkpt lat="43.57097" lon="6.78152">
        <ele>329</ele>
        <time>2025-01-10T11:03:16.000Z</time>
      </trkpt>
      <trkpt lat="43.57099" lon="6.78152">
        <ele>328.5</ele>
        <time>2025-01-10T11:03:15.000Z</time>
      </trkpt>
      <trkpt lat="43.57102" lon="6.78152">
        <ele>328</ele>
        <time>2025-01-10T11:03:14.000Z</time>
      </trkpt>
      <trkpt lat="43.57105" lon="6.78152">
        <ele>327.6</ele>
        <time>2025-01-10T11:03:13.000Z</time>
      </trkpt>
      <trkpt lat="43.57107" lon="6.78151">
        <ele>327.1</ele>
        <time>2025-01-10T11:03:12.000Z</time>
      </trkpt>
      <trkpt lat="43.5711" lon="6.78151">
        <ele>326.6</ele>
        <time>2025-01-10T11:03:11.000Z</time>
      </trkpt>
      <trkpt lat="43.57112" lon="6.7815">
        <ele>326.2</ele>
        <time>2025-01-10T11:03:10.000Z</time>
      </trkpt>
      <trkpt lat="43.57115" lon="6.7815">
        <ele>325.8</ele>
        <time>2025-01-10T11:03:09.000Z</time>
      </trkpt>
      <trkpt lat="43.57117" lon="6.7815">
        <ele>325.4</ele>
        <time>2025-01-10T11:03:08.000Z</time>
      </trkpt>
      <trkpt lat="43.5712" lon="6.7815">
        <ele>325</ele>
        <time>2025-01-10T11:03:07.000Z</time>
      </trkpt>
      <trkpt lat="43.57122" lon="6.7815">
        <ele>324.6</ele>
        <time>2025-01-10T11:03:06.000Z</time>
      </trkpt>
      <trkpt lat="43.57125" lon="6.7815">
        <ele>324.2</ele>
        <time>2025-01-10T11:03:05.000Z</time>
      </trkpt>
      <trkpt lat="43.57127" lon="6.78149">
        <ele>323.9</ele>
        <time>2025-01-10T11:03:04.000Z</time>
      </trkpt>
      <trkpt lat="43.5713" lon="6.78149">
        <ele>323.5</ele>
        <time>2025-01-10T11:03:03.000Z</time>
      </trkpt>
      <trkpt lat="43.57132" lon="6.7815">
        <ele>323.1</ele>
        <time>2025-01-10T11:03:02.000Z</time>
      </trkpt>
      <trkpt lat="43.57135" lon="6.7815">
        <ele>322.7</ele>
        <time>2025-01-10T11:03:01.000Z</time>
      </trkpt>
      <trkpt lat="43.57138" lon="6.78151">
        <ele>322.4</ele>
        <time>2025-01-10T11:03:00.000Z</time>
      </trkpt>
      <trkpt lat="43.5714" lon="6.78151">
        <ele>322</ele>
        <time>2025-01-10T11:02:59.000Z</time>
      </trkpt>
      <trkpt lat="43.57143" lon="6.78151">
        <ele>321.7</ele>
        <time>2025-01-10T11:02:58.000Z</time>
      </trkpt>
      <trkpt lat="43.57145" lon="6.78151">
        <ele>321.3</ele>
        <time>2025-01-10T11:02:57.000Z</time>
      </trkpt>
      <trkpt lat="43.57147" lon="6.78151">
        <ele>321</ele>
        <time>2025-01-10T11:02:56.000Z</time>
      </trkpt>
      <trkpt lat="43.5715" lon="6.7815">
        <ele>320.6</ele>
        <time>2025-01-10T11:02:55.000Z</time>
      </trkpt>
      <trkpt lat="43.57153" lon="6.78149">
        <ele>320.2</ele>
        <time>2025-01-10T11:02:54.000Z</time>
      </trkpt>
      <trkpt lat="43.57155" lon="6.78149">
        <ele>319.8</ele>
        <time>2025-01-10T11:02:53.000Z</time>
      </trkpt>
      <trkpt lat="43.57158" lon="6.78148">
        <ele>319.5</ele>
        <time>2025-01-10T11:02:52.000Z</time>
      </trkpt>
      <trkpt lat="43.57161" lon="6.78147">
        <ele>319.1</ele>
        <time>2025-01-10T11:02:51.000Z</time>
      </trkpt>
      <trkpt lat="43.57164" lon="6.78146">
        <ele>318.6</ele>
        <time>2025-01-10T11:02:50.000Z</time>
      </trkpt>
      <trkpt lat="43.57166" lon="6.78146">
        <ele>318.3</ele>
        <time>2025-01-10T11:02:49.000Z</time>
      </trkpt>
      <trkpt lat="43.57169" lon="6.78145">
        <ele>317.9</ele>
        <time>2025-01-10T11:02:48.000Z</time>
      </trkpt>
      <trkpt lat="43.57171" lon="6.78144">
        <ele>317.6</ele>
        <time>2025-01-10T11:02:47.000Z</time>
      </trkpt>
      <trkpt lat="43.57174" lon="6.78143">
        <ele>317.2</ele>
        <time>2025-01-10T11:02:46.000Z</time>
      </trkpt>
      <trkpt lat="43.57176" lon="6.78142">
        <ele>316.8</ele>
        <time>2025-01-10T11:02:45.000Z</time>
      </trkpt>
      <trkpt lat="43.57179" lon="6.78141">
        <ele>316.4</ele>
        <time>2025-01-10T11:02:44.000Z</time>
      </trkpt>
      <trkpt lat="43.57181" lon="6.78139">
        <ele>316.1</ele>
        <time>2025-01-10T11:02:43.000Z</time>
      </trkpt>
      <trkpt lat="43.57184" lon="6.78138">
        <ele>315.7</ele>
        <time>2025-01-10T11:02:42.000Z</time>
      </trkpt>
      <trkpt lat="43.57186" lon="6.78137">
        <ele>315.3</ele>
        <time>2025-01-10T11:02:41.000Z</time>
      </trkpt>
      <trkpt lat="43.57189" lon="6.78137">
        <ele>315</ele>
        <time>2025-01-10T11:02:40.000Z</time>
      </trkpt>
      <trkpt lat="43.57191" lon="6.78136">
        <ele>314.6</ele>
        <time>2025-01-10T11:02:39.000Z</time>
      </trkpt>
      <trkpt lat="43.57194" lon="6.78135">
        <ele>314.3</ele>
        <time>2025-01-10T11:02:38.000Z</time>
      </trkpt>
      <trkpt lat="43.57196" lon="6.78135">
        <ele>313.9</ele>
        <time>2025-01-10T11:02:37.000Z</time>
      </trkpt>
      <trkpt lat="43.57199" lon="6.78134">
        <ele>313.6</ele>
        <time>2025-01-10T11:02:36.000Z</time>
      </trkpt>
      <trkpt lat="43.57201" lon="6.78133">
        <ele>313.2</ele>
        <time>2025-01-10T11:02:35.000Z</time>
      </trkpt>
      <trkpt lat="43.57204" lon="6.78132">
        <ele>312.9</ele>
        <time>2025-01-10T11:02:34.000Z</time>
      </trkpt>
      <trkpt lat="43.57207" lon="6.78131">
        <ele>312.6</ele>
        <time>2025-01-10T11:02:33.000Z</time>
      </trkpt>
      <trkpt lat="43.57209" lon="6.78131">
        <ele>312.3</ele>
        <time>2025-01-10T11:02:32.000Z</time>
      </trkpt>
      <trkpt lat="43.57212" lon="6.7813">
        <ele>312</ele>
        <time>2025-01-10T11:02:31.000Z</time>
      </trkpt>
      <trkpt lat="43.57214" lon="6.78129">
        <ele>311.8</ele>
        <time>2025-01-10T11:02:30.000Z</time>
      </trkpt>
      <trkpt lat="43.57217" lon="6.78128">
        <ele>311.5</ele>
        <time>2025-01-10T11:02:29.000Z</time>
      </trkpt>
      <trkpt lat="43.57219" lon="6.78127">
        <ele>311.2</ele>
        <time>2025-01-10T11:02:28.000Z</time>
      </trkpt>
      <trkpt lat="43.57222" lon="6.78127">
        <ele>310.9</ele>
        <time>2025-01-10T11:02:27.000Z</time>
      </trkpt>
      <trkpt lat="43.57225" lon="6.78126">
        <ele>310.7</ele>
        <time>2025-01-10T11:02:26.000Z</time>
      </trkpt>
      <trkpt lat="43.57227" lon="6.78125">
        <ele>310.4</ele>
        <time>2025-01-10T11:02:25.000Z</time>
      </trkpt>
      <trkpt lat="43.5723" lon="6.78125">
        <ele>310.1</ele>
        <time>2025-01-10T11:02:24.000Z</time>
      </trkpt>
      <trkpt lat="43.57232" lon="6.78125">
        <ele>309.9</ele>
        <time>2025-01-10T11:02:23.000Z</time>
      </trkpt>
      <trkpt lat="43.57234" lon="6.78124">
        <ele>309.7</ele>
        <time>2025-01-10T11:02:22.000Z</time>
      </trkpt>
      <trkpt lat="43.57237" lon="6.78124">
        <ele>309.4</ele>
        <time>2025-01-10T11:02:21.000Z</time>
      </trkpt>
      <trkpt lat="43.5724" lon="6.78123">
        <ele>309.2</ele>
        <time>2025-01-10T11:02:20.000Z</time>
      </trkpt>
      <trkpt lat="43.57243" lon="6.78123">
        <ele>308.9</ele>
        <time>2025-01-10T11:02:19.000Z</time>
      </trkpt>
      <trkpt lat="43.57245" lon="6.78123">
        <ele>308.6</ele>
        <time>2025-01-10T11:02:18.000Z</time>
      </trkpt>
      <trkpt lat="43.57248" lon="6.78122">
        <ele>308.4</ele>
        <time>2025-01-10T11:02:17.000Z</time>
      </trkpt>
      <trkpt lat="43.57251" lon="6.78122">
        <ele>308.1</ele>
        <time>2025-01-10T11:02:16.000Z</time>
      </trkpt>
      <trkpt lat="43.57253" lon="6.78122">
        <ele>307.8</ele>
        <time>2025-01-10T11:02:15.000Z</time>
      </trkpt>
      <trkpt lat="43.57256" lon="6.78122">
        <ele>307.5</ele>
        <time>2025-01-10T11:02:14.000Z</time>
      </trkpt>
      <trkpt lat="43.57259" lon="6.78122">
        <ele>307.2</ele>
        <time>2025-01-10T11:02:13.000Z</time>
      </trkpt>
      <trkpt lat="43.57261" lon="6.78122">
        <ele>306.9</ele>
        <time>2025-01-10T11:02:12.000Z</time>
      </trkpt>
      <trkpt lat="43.57264" lon="6.78122">
        <ele>306.5</ele>
        <time>2025-01-10T11:02:11.000Z</time>
      </trkpt>
      <trkpt lat="43.57266" lon="6.78122">
        <ele>306.2</ele>
        <time>2025-01-10T11:02:10.000Z</time>
      </trkpt>
      <trkpt lat="43.57269" lon="6.78123">
        <ele>305.8</ele>
        <time>2025-01-10T11:02:09.000Z</time>
      </trkpt>
      <trkpt lat="43.57272" lon="6.78123">
        <ele>305.4</ele>
        <time>2025-01-10T11:02:08.000Z</time>
      </trkpt>
      <trkpt lat="43.57274" lon="6.78124">
        <ele>305.1</ele>
        <time>2025-01-10T11:02:07.000Z</time>
      </trkpt>
      <trkpt lat="43.57276" lon="6.78124">
        <ele>304.7</ele>
        <time>2025-01-10T11:02:06.000Z</time>
      </trkpt>
      <trkpt lat="43.57279" lon="6.78125">
        <ele>304.3</ele>
        <time>2025-01-10T11:02:05.000Z</time>
      </trkpt>
      <trkpt lat="43.57281" lon="6.78126">
        <ele>304</ele>
        <time>2025-01-10T11:02:04.000Z</time>
      </trkpt>
      <trkpt lat="43.57283" lon="6.78127">
        <ele>303.6</ele>
        <time>2025-01-10T11:02:03.000Z</time>
      </trkpt>
      <trkpt lat="43.57286" lon="6.78128">
        <ele>303.2</ele>
        <time>2025-01-10T11:02:02.000Z</time>
      </trkpt>
      <trkpt lat="43.57288" lon="6.7813">
        <ele>302.8</ele>
        <time>2025-01-10T11:02:01.000Z</time>
      </trkpt>
      <trkpt lat="43.5729" lon="6.78132">
        <ele>302.4</ele>
        <time>2025-01-10T11:02:00.000Z</time>
      </trkpt>
      <trkpt lat="43.57292" lon="6.78134">
        <ele>302</ele>
        <time>2025-01-10T11:01:59.000Z</time>
      </trkpt>
      <trkpt lat="43.57294" lon="6.78137">
        <ele>301.5</ele>
        <time>2025-01-10T11:01:58.000Z</time>
      </trkpt>
      <trkpt lat="43.57295" lon="6.7814">
        <ele>301.1</ele>
        <time>2025-01-10T11:01:57.000Z</time>
      </trkpt>
      <trkpt lat="43.57297" lon="6.78143">
        <ele>300.7</ele>
        <time>2025-01-10T11:01:56.000Z</time>
      </trkpt>
      <trkpt lat="43.57298" lon="6.78146">
        <ele>300.3</ele>
        <time>2025-01-10T11:01:55.000Z</time>
      </trkpt>
      <trkpt lat="43.57299" lon="6.78149">
        <ele>300</ele>
        <time>2025-01-10T11:01:54.000Z</time>
      </trkpt>
      <trkpt lat="43.57301" lon="6.78152">
        <ele>299.6</ele>
        <time>2025-01-10T11:01:53.000Z</time>
      </trkpt>
      <trkpt lat="43.57302" lon="6.78154">
        <ele>299.3</ele>
        <time>2025-01-10T11:01:52.000Z</time>
      </trkpt>
      <trkpt lat="43.57304" lon="6.78156">
        <ele>298.9</ele>
        <time>2025-01-10T11:01:51.000Z</time>
      </trkpt>
      <trkpt lat="43.57306" lon="6.78158">
        <ele>298.5</ele>
        <time>2025-01-10T11:01:50.000Z</time>
      </trkpt>
      <trkpt lat="43.57309" lon="6.78158">
        <ele>298.2</ele>
        <time>2025-01-10T11:01:49.000Z</time>
      </trkpt>
      <trkpt lat="43.57311" lon="6.78159">
        <ele>297.8</ele>
        <time>2025-01-10T11:01:48.000Z</time>
      </trkpt>
      <trkpt lat="43.57313" lon="6.78158">
        <ele>297.5</ele>
        <time>2025-01-10T11:01:47.000Z</time>
      </trkpt>
      <trkpt lat="43.57316" lon="6.78158">
        <ele>297</ele>
        <time>2025-01-10T11:01:46.000Z</time>
      </trkpt>
      <trkpt lat="43.57318" lon="6.78157">
        <ele>296.6</ele>
        <time>2025-01-10T11:01:45.000Z</time>
      </trkpt>
      <trkpt lat="43.57321" lon="6.78156">
        <ele>296.3</ele>
        <time>2025-01-10T11:01:44.000Z</time>
      </trkpt>
      <trkpt lat="43.57323" lon="6.78155">
        <ele>295.8</ele>
        <time>2025-01-10T11:01:43.000Z</time>
      </trkpt>
      <trkpt lat="43.57325" lon="6.78153">
        <ele>295.4</ele>
        <time>2025-01-10T11:01:42.000Z</time>
      </trkpt>
      <trkpt lat="43.57327" lon="6.78152">
        <ele>295</ele>
        <time>2025-01-10T11:01:41.000Z</time>
      </trkpt>
      <trkpt lat="43.5733" lon="6.78151">
        <ele>294.6</ele>
        <time>2025-01-10T11:01:40.000Z</time>
      </trkpt>
      <trkpt lat="43.57332" lon="6.7815">
        <ele>294.2</ele>
        <time>2025-01-10T11:01:39.000Z</time>
      </trkpt>
      <trkpt lat="43.57334" lon="6.78149">
        <ele>293.8</ele>
        <time>2025-01-10T11:01:38.000Z</time>
      </trkpt>
      <trkpt lat="43.57337" lon="6.78149">
        <ele>293.4</ele>
        <time>2025-01-10T11:01:37.000Z</time>
      </trkpt>
      <trkpt lat="43.57339" lon="6.78148">
        <ele>293</ele>
        <time>2025-01-10T11:01:36.000Z</time>
      </trkpt>
      <trkpt lat="43.57342" lon="6.78147">
        <ele>292.6</ele>
        <time>2025-01-10T11:01:35.000Z</time>
      </trkpt>
      <trkpt lat="43.57344" lon="6.78146">
        <ele>292.1</ele>
        <time>2025-01-10T11:01:34.000Z</time>
      </trkpt>
      <trkpt lat="43.57347" lon="6.78145">
        <ele>291.7</ele>
        <time>2025-01-10T11:01:33.000Z</time>
      </trkpt>
      <trkpt lat="43.5735" lon="6.78144">
        <ele>291.2</ele>
        <time>2025-01-10T11:01:32.000Z</time>
      </trkpt>
      <trkpt lat="43.57352" lon="6.78144">
        <ele>290.9</ele>
        <time>2025-01-10T11:01:31.000Z</time>
      </trkpt>
      <trkpt lat="43.57355" lon="6.78143">
        <ele>290.4</ele>
        <time>2025-01-10T11:01:30.000Z</time>
      </trkpt>
      <trkpt lat="43.57358" lon="6.78142">
        <ele>289.9</ele>
        <time>2025-01-10T11:01:29.000Z</time>
      </trkpt>
      <trkpt lat="43.57361" lon="6.7814">
        <ele>289.5</ele>
        <time>2025-01-10T11:01:28.000Z</time>
      </trkpt>
      <trkpt lat="43.57363" lon="6.78139">
        <ele>289.1</ele>
        <time>2025-01-10T11:01:27.000Z</time>
      </trkpt>
      <trkpt lat="43.57366" lon="6.78138">
        <ele>288.7</ele>
        <time>2025-01-10T11:01:26.000Z</time>
      </trkpt>
      <trkpt lat="43.57368" lon="6.78137">
        <ele>288.4</ele>
        <time>2025-01-10T11:01:25.000Z</time>
      </trkpt>
      <trkpt lat="43.57371" lon="6.78136">
        <ele>287.9</ele>
        <time>2025-01-10T11:01:24.000Z</time>
      </trkpt>
      <trkpt lat="43.57373" lon="6.78134">
        <ele>287.4</ele>
        <time>2025-01-10T11:01:23.000Z</time>
      </trkpt>
      <trkpt lat="43.57376" lon="6.78133">
        <ele>287</ele>
        <time>2025-01-10T11:01:22.000Z</time>
      </trkpt>
      <trkpt lat="43.57379" lon="6.78131">
        <ele>286.5</ele>
        <time>2025-01-10T11:01:21.000Z</time>
      </trkpt>
      <trkpt lat="43.57382" lon="6.7813">
        <ele>286.1</ele>
        <time>2025-01-10T11:01:20.000Z</time>
      </trkpt>
      <trkpt lat="43.57384" lon="6.78129">
        <ele>285.7</ele>
        <time>2025-01-10T11:01:19.000Z</time>
      </trkpt>
      <trkpt lat="43.57387" lon="6.78128">
        <ele>285.2</ele>
        <time>2025-01-10T11:01:18.000Z</time>
      </trkpt>
      <trkpt lat="43.57391" lon="6.78127">
        <ele>284.8</ele>
        <time>2025-01-10T11:01:17.000Z</time>
      </trkpt>
      <trkpt lat="43.57394" lon="6.78125">
        <ele>284.4</ele>
        <time>2025-01-10T11:01:16.000Z</time>
      </trkpt>
      <trkpt lat="43.57397" lon="6.78124">
        <ele>284</ele>
        <time>2025-01-10T11:01:15.000Z</time>
      </trkpt>
      <trkpt lat="43.574" lon="6.78123">
        <ele>283.6</ele>
        <time>2025-01-10T11:01:14.000Z</time>
      </trkpt>
      <trkpt lat="43.57402" lon="6.78122">
        <ele>283.2</ele>
        <time>2025-01-10T11:01:13.000Z</time>
      </trkpt>
      <trkpt lat="43.57405" lon="6.7812">
        <ele>282.8</ele>
        <time>2025-01-10T11:01:12.000Z</time>
      </trkpt>
      <trkpt lat="43.57408" lon="6.78118">
        <ele>282.3</ele>
        <time>2025-01-10T11:01:11.000Z</time>
      </trkpt>
      <trkpt lat="43.57411" lon="6.78116">
        <ele>281.9</ele>
        <time>2025-01-10T11:01:10.000Z</time>
      </trkpt>
      <trkpt lat="43.57414" lon="6.78113">
        <ele>281.5</ele>
        <time>2025-01-10T11:01:09.000Z</time>
      </trkpt>
      <trkpt lat="43.57417" lon="6.78111">
        <ele>281.1</ele>
        <time>2025-01-10T11:01:08.000Z</time>
      </trkpt>
      <trkpt lat="43.57419" lon="6.78109">
        <ele>280.7</ele>
        <time>2025-01-10T11:01:07.000Z</time>
      </trkpt>
      <trkpt lat="43.57422" lon="6.78106">
        <ele>280.3</ele>
        <time>2025-01-10T11:01:06.000Z</time>
      </trkpt>
      <trkpt lat="43.57425" lon="6.78104">
        <ele>279.9</ele>
        <time>2025-01-10T11:01:05.000Z</time>
      </trkpt>
      <trkpt lat="43.57428" lon="6.78102">
        <ele>279.5</ele>
        <time>2025-01-10T11:01:04.000Z</time>
      </trkpt>
      <trkpt lat="43.57431" lon="6.781">
        <ele>279</ele>
        <time>2025-01-10T11:01:03.000Z</time>
      </trkpt>
      <trkpt lat="43.57434" lon="6.78098">
        <ele>278.6</ele>
        <time>2025-01-10T11:01:02.000Z</time>
      </trkpt>
      <trkpt lat="43.57437" lon="6.78097">
        <ele>278.3</ele>
        <time>2025-01-10T11:01:01.000Z</time>
      </trkpt>
      <trkpt lat="43.5744" lon="6.78095">
        <ele>277.9</ele>
        <time>2025-01-10T11:01:00.000Z</time>
      </trkpt>
      <trkpt lat="43.57443" lon="6.78094">
        <ele>277.5</ele>
        <time>2025-01-10T11:00:59.000Z</time>
      </trkpt>
      <trkpt lat="43.57446" lon="6.78092">
        <ele>277.1</ele>
        <time>2025-01-10T11:00:58.000Z</time>
      </trkpt>
      <trkpt lat="43.5745" lon="6.78091">
        <ele>276.7</ele>
        <time>2025-01-10T11:00:57.000Z</time>
      </trkpt>
      <trkpt lat="43.57453" lon="6.7809">
        <ele>276.3</ele>
        <time>2025-01-10T11:00:56.000Z</time>
      </trkpt>
      <trkpt lat="43.57456" lon="6.78088">
        <ele>275.9</ele>
        <time>2025-01-10T11:00:55.000Z</time>
      </trkpt>
      <trkpt lat="43.57459" lon="6.78087">
        <ele>275.5</ele>
        <time>2025-01-10T11:00:54.000Z</time>
      </trkpt>
      <trkpt lat="43.57462" lon="6.78085">
        <ele>275.1</ele>
        <time>2025-01-10T11:00:53.000Z</time>
      </trkpt>
      <trkpt lat="43.57465" lon="6.78084">
        <ele>274.7</ele>
        <time>2025-01-10T11:00:52.000Z</time>
      </trkpt>
      <trkpt lat="43.57468" lon="6.78082">
        <ele>274.4</ele>
        <time>2025-01-10T11:00:51.000Z</time>
      </trkpt>
      <trkpt lat="43.57471" lon="6.7808">
        <ele>274</ele>
        <time>2025-01-10T11:00:50.000Z</time>
      </trkpt>
      <trkpt lat="43.57474" lon="6.78078">
        <ele>273.7</ele>
        <time>2025-01-10T11:00:49.000Z</time>
      </trkpt>
      <trkpt lat="43.57477" lon="6.78077">
        <ele>273.3</ele>
        <time>2025-01-10T11:00:48.000Z</time>
      </trkpt>
      <trkpt lat="43.5748" lon="6.78075">
        <ele>273</ele>
        <time>2025-01-10T11:00:47.000Z</time>
      </trkpt>
      <trkpt lat="43.57483" lon="6.78073">
        <ele>272.7</ele>
        <time>2025-01-10T11:00:46.000Z</time>
      </trkpt>
      <trkpt lat="43.57486" lon="6.78071">
        <ele>272.4</ele>
        <time>2025-01-10T11:00:45.000Z</time>
      </trkpt>
      <trkpt lat="43.57489" lon="6.78069">
        <ele>272.1</ele>
        <time>2025-01-10T11:00:44.000Z</time>
      </trkpt>
      <trkpt lat="43.57493" lon="6.78067">
        <ele>271.9</ele>
        <time>2025-01-10T11:00:43.000Z</time>
      </trkpt>
      <trkpt lat="43.57496" lon="6.78065">
        <ele>271.6</ele>
        <time>2025-01-10T11:00:42.000Z</time>
      </trkpt>
      <trkpt lat="43.57499" lon="6.78063">
        <ele>271.4</ele>
        <time>2025-01-10T11:00:41.000Z</time>
      </trkpt>
      <trkpt lat="43.57502" lon="6.78062">
        <ele>271.2</ele>
        <time>2025-01-10T11:00:40.000Z</time>
      </trkpt>
      <trkpt lat="43.57505" lon="6.7806">
        <ele>270.9</ele>
        <time>2025-01-10T11:00:39.000Z</time>
      </trkpt>
      <trkpt lat="43.57508" lon="6.78058">
        <ele>270.7</ele>
        <time>2025-01-10T11:00:38.000Z</time>
      </trkpt>
      <trkpt lat="43.57511" lon="6.78057">
        <ele>270.4</ele>
        <time>2025-01-10T11:00:37.000Z</time>
      </trkpt>
      <trkpt lat="43.57514" lon="6.78056">
        <ele>270.2</ele>
        <time>2025-01-10T11:00:36.000Z</time>
      </trkpt>
      <trkpt lat="43.57517" lon="6.78055">
        <ele>269.9</ele>
        <time>2025-01-10T11:00:35.000Z</time>
      </trkpt>
      <trkpt lat="43.57521" lon="6.78054">
        <ele>269.6</ele>
        <time>2025-01-10T11:00:34.000Z</time>
      </trkpt>
      <trkpt lat="43.57524" lon="6.78053">
        <ele>269.4</ele>
        <time>2025-01-10T11:00:33.000Z</time>
      </trkpt>
      <trkpt lat="43.57527" lon="6.78052">
        <ele>269.1</ele>
        <time>2025-01-10T11:00:32.000Z</time>
      </trkpt>
      <trkpt lat="43.5753" lon="6.78051">
        <ele>268.8</ele>
        <time>2025-01-10T11:00:31.000Z</time>
      </trkpt>
      <trkpt lat="43.57533" lon="6.78051">
        <ele>268.5</ele>
        <time>2025-01-10T11:00:30.000Z</time>
      </trkpt>
      <trkpt lat="43.57537" lon="6.7805">
        <ele>268.2</ele>
        <time>2025-01-10T11:00:29.000Z</time>
      </trkpt>
      <trkpt lat="43.5754" lon="6.7805">
        <ele>267.9</ele>
        <time>2025-01-10T11:00:28.000Z</time>
      </trkpt>
      <trkpt lat="43.57542" lon="6.7805">
        <ele>267.6</ele>
        <time>2025-01-10T11:00:27.000Z</time>
      </trkpt>
      <trkpt lat="43.57546" lon="6.7805">
        <ele>267.3</ele>
        <time>2025-01-10T11:00:26.000Z</time>
      </trkpt>
      <trkpt lat="43.5755" lon="6.7805">
        <ele>266.9</ele>
        <time>2025-01-10T11:00:25.000Z</time>
      </trkpt>
      <trkpt lat="43.57553" lon="6.78049">
        <ele>266.6</ele>
        <time>2025-01-10T11:00:24.000Z</time>
      </trkpt>
      <trkpt lat="43.57556" lon="6.78049">
        <ele>266.3</ele>
        <time>2025-01-10T11:00:23.000Z</time>
      </trkpt>
      <trkpt lat="43.57559" lon="6.78049">
        <ele>266</ele>
        <time>2025-01-10T11:00:22.000Z</time>
      </trkpt>
      <trkpt lat="43.57562" lon="6.78049">
        <ele>265.7</ele>
        <time>2025-01-10T11:00:21.000Z</time>
      </trkpt>
      <trkpt lat="43.57566" lon="6.7805">
        <ele>265.4</ele>
        <time>2025-01-10T11:00:20.000Z</time>
      </trkpt>
      <trkpt lat="43.57569" lon="6.78051">
        <ele>265</ele>
        <time>2025-01-10T11:00:19.000Z</time>
      </trkpt>
      <trkpt lat="43.57572" lon="6.78052">
        <ele>264.7</ele>
        <time>2025-01-10T11:00:18.000Z</time>
      </trkpt>
      <trkpt lat="43.57575" lon="6.78053">
        <ele>264.4</ele>
        <time>2025-01-10T11:00:17.000Z</time>
      </trkpt>
      <trkpt lat="43.57578" lon="6.78054">
        <ele>264.1</ele>
        <time>2025-01-10T11:00:16.000Z</time>
      </trkpt>
      <trkpt lat="43.57581" lon="6.78055">
        <ele>263.7</ele>
        <time>2025-01-10T11:00:15.000Z</time>
      </trkpt>
      <trkpt lat="43.57585" lon="6.78055">
        <ele>263.4</ele>
        <time>2025-01-10T11:00:14.000Z</time>
      </trkpt>
      <trkpt lat="43.57588" lon="6.78056">
        <ele>263.1</ele>
        <time>2025-01-10T11:00:13.000Z</time>
      </trkpt>
      <trkpt lat="43.57591" lon="6.78057">
        <ele>262.7</ele>
        <time>2025-01-10T11:00:12.000Z</time>
      </trkpt>
      <trkpt lat="43.57594" lon="6.78057">
        <ele>262.4</ele>
        <time>2025-01-10T11:00:11.000Z</time>
      </trkpt>
      <trkpt lat="43.57597" lon="6.78057">
        <ele>262</ele>
        <time>2025-01-10T11:00:10.000Z</time>
      </trkpt>
      <trkpt lat="43.576" lon="6.78058">
        <ele>261.6</ele>
        <time>2025-01-10T11:00:09.000Z</time>
      </trkpt>
      <trkpt lat="43.57603" lon="6.78058">
        <ele>261.3</ele>
        <time>2025-01-10T11:00:08.000Z</time>
      </trkpt>
      <trkpt lat="43.57606" lon="6.78058">
        <ele>260.9</ele>
        <time>2025-01-10T11:00:07.000Z</time>
      </trkpt>
      <trkpt lat="43.57609" lon="6.78058">
        <ele>260.5</ele>
        <time>2025-01-10T11:00:06.000Z</time>
      </trkpt>
      <trkpt lat="43.57612" lon="6.78059">
        <ele>260.1</ele>
        <time>2025-01-10T11:00:05.000Z</time>
      </trkpt>
      <trkpt lat="43.57615" lon="6.78059">
        <ele>259.6</ele>
        <time>2025-01-10T11:00:04.000Z</time>
      </trkpt>
      <trkpt lat="43.57618" lon="6.78059">
        <ele>259.2</ele>
        <time>2025-01-10T11:00:03.000Z</time>
      </trkpt>
      <trkpt lat="43.57622" lon="6.7806">
        <ele>258.8</ele>
        <time>2025-01-10T11:00:02.000Z</time>
      </trkpt>
      <trkpt lat="43.57625" lon="6.7806">
        <ele>258.3</ele>
        <time>2025-01-10T11:00:01.000Z</time>
      </trkpt>
      <trkpt lat="43.57628" lon="6.7806">
        <ele>257.9</ele>
        <time>2025-01-10T11:00:00.000Z</time>
      </trkpt>
      <trkpt lat="43.57631" lon="6.78061">
        <ele>257.5</ele>
        <time>2025-01-10T10:59:59.000Z</time>
      </trkpt>
      <trkpt lat="43.57634" lon="6.78061">
        <ele>257</ele>
        <time>2025-01-10T10:59:58.000Z</time>
      </trkpt>
      <trkpt lat="43.57637" lon="6.78061">
        <ele>256.5</ele>
        <time>2025-01-10T10:59:57.000Z</time>
      </trkpt>
      <trkpt lat="43.5764" lon="6.78062">
        <ele>256.1</ele>
        <time>2025-01-10T10:59:56.000Z</time>
      </trkpt>
      <trkpt lat="43.57643" lon="6.78062">
        <ele>255.6</ele>
        <time>2025-01-10T10:59:55.000Z</time>
      </trkpt>
      <trkpt lat="43.57646" lon="6.78062">
        <ele>255.2</ele>
        <time>2025-01-10T10:59:54.000Z</time>
      </trkpt>
      <trkpt lat="43.57649" lon="6.78063">
        <ele>254.8</ele>
        <time>2025-01-10T10:59:53.000Z</time>
      </trkpt>
      <trkpt lat="43.57652" lon="6.78063">
        <ele>254.3</ele>
        <time>2025-01-10T10:59:52.000Z</time>
      </trkpt>
      <trkpt lat="43.57655" lon="6.78063">
        <ele>253.8</ele>
        <time>2025-01-10T10:59:51.000Z</time>
      </trkpt>
      <trkpt lat="43.57658" lon="6.78063">
        <ele>253.3</ele>
        <time>2025-01-10T10:59:50.000Z</time>
      </trkpt>
      <trkpt lat="43.57662" lon="6.78062">
        <ele>252.8</ele>
        <time>2025-01-10T10:59:49.000Z</time>
      </trkpt>
      <trkpt lat="43.57665" lon="6.78062">
        <ele>252.3</ele>
        <time>2025-01-10T10:59:48.000Z</time>
      </trkpt>
      <trkpt lat="43.57668" lon="6.78062">
        <ele>251.8</ele>
        <time>2025-01-10T10:59:47.000Z</time>
      </trkpt>
      <trkpt lat="43.57671" lon="6.78062">
        <ele>251.4</ele>
        <time>2025-01-10T10:59:46.000Z</time>
      </trkpt>
      <trkpt lat="43.57674" lon="6.78062">
        <ele>251</ele>
        <time>2025-01-10T10:59:45.000Z</time>
      </trkpt>
      <trkpt lat="43.57677" lon="6.78063">
        <ele>250.5</ele>
        <time>2025-01-10T10:59:44.000Z</time>
      </trkpt>
      <trkpt lat="43.5768" lon="6.78063">
        <ele>250.1</ele>
        <time>2025-01-10T10:59:43.000Z</time>
      </trkpt>
      <trkpt lat="43.57683" lon="6.78064">
        <ele>249.6</ele>
        <time>2025-01-10T10:59:42.000Z</time>
      </trkpt>
      <trkpt lat="43.57687" lon="6.78066">
        <ele>249.1</ele>
        <time>2025-01-10T10:59:41.000Z</time>
      </trkpt>
      <trkpt lat="43.5769" lon="6.78067">
        <ele>248.6</ele>
        <time>2025-01-10T10:59:40.000Z</time>
      </trkpt>
      <trkpt lat="43.57693" lon="6.78069">
        <ele>248.1</ele>
        <time>2025-01-10T10:59:39.000Z</time>
      </trkpt>
      <trkpt lat="43.57697" lon="6.78071">
        <ele>247.7</ele>
        <time>2025-01-10T10:59:38.000Z</time>
      </trkpt>
      <trkpt lat="43.577" lon="6.78072">
        <ele>247.2</ele>
        <time>2025-01-10T10:59:37.000Z</time>
      </trkpt>
      <trkpt lat="43.57703" lon="6.78074">
        <ele>246.7</ele>
        <time>2025-01-10T10:59:36.000Z</time>
      </trkpt>
      <trkpt lat="43.57706" lon="6.78076">
        <ele>246.3</ele>
        <time>2025-01-10T10:59:35.000Z</time>
      </trkpt>
      <trkpt lat="43.5771" lon="6.78077">
        <ele>245.8</ele>
        <time>2025-01-10T10:59:34.000Z</time>
      </trkpt>
      <trkpt lat="43.57713" lon="6.78079">
        <ele>245.4</ele>
        <time>2025-01-10T10:59:33.000Z</time>
      </trkpt>
      <trkpt lat="43.57717" lon="6.78081">
        <ele>244.9</ele>
        <time>2025-01-10T10:59:32.000Z</time>
      </trkpt>
      <trkpt lat="43.5772" lon="6.78082">
        <ele>244.5</ele>
        <time>2025-01-10T10:59:31.000Z</time>
      </trkpt>
      <trkpt lat="43.57724" lon="6.78084">
        <ele>244</ele>
        <time>2025-01-10T10:59:30.000Z</time>
      </trkpt>
      <trkpt lat="43.57728" lon="6.78085">
        <ele>243.6</ele>
        <time>2025-01-10T10:59:29.000Z</time>
      </trkpt>
      <trkpt lat="43.57731" lon="6.78086">
        <ele>243.2</ele>
        <time>2025-01-10T10:59:28.000Z</time>
      </trkpt>
      <trkpt lat="43.57735" lon="6.78087">
        <ele>242.8</ele>
        <time>2025-01-10T10:59:27.000Z</time>
      </trkpt>
      <trkpt lat="43.57738" lon="6.78089">
        <ele>242.3</ele>
        <time>2025-01-10T10:59:26.000Z</time>
      </trkpt>
      <trkpt lat="43.57742" lon="6.7809">
        <ele>241.8</ele>
        <time>2025-01-10T10:59:25.000Z</time>
      </trkpt>
      <trkpt lat="43.57746" lon="6.78092">
        <ele>241.4</ele>
        <time>2025-01-10T10:59:24.000Z</time>
      </trkpt>
      <trkpt lat="43.57751" lon="6.78093">
        <ele>240.9</ele>
        <time>2025-01-10T10:59:23.000Z</time>
      </trkpt>
      <trkpt lat="43.57755" lon="6.78094">
        <ele>240.5</ele>
        <time>2025-01-10T10:59:22.000Z</time>
      </trkpt>
      <trkpt lat="43.57759" lon="6.78094">
        <ele>240.1</ele>
        <time>2025-01-10T10:59:21.000Z</time>
      </trkpt>
      <trkpt lat="43.57763" lon="6.78095">
        <ele>239.7</ele>
        <time>2025-01-10T10:59:20.000Z</time>
      </trkpt>
      <trkpt lat="43.57767" lon="6.78095">
        <ele>239.3</ele>
        <time>2025-01-10T10:59:19.000Z</time>
      </trkpt>
      <trkpt lat="43.57771" lon="6.78094">
        <ele>238.9</ele>
        <time>2025-01-10T10:59:18.000Z</time>
      </trkpt>
      <trkpt lat="43.57776" lon="6.78094">
        <ele>238.5</ele>
        <time>2025-01-10T10:59:17.000Z</time>
      </trkpt>
      <trkpt lat="43.5778" lon="6.78093">
        <ele>238.2</ele>
        <time>2025-01-10T10:59:16.000Z</time>
      </trkpt>
      <trkpt lat="43.57784" lon="6.78091">
        <ele>237.9</ele>
        <time>2025-01-10T10:59:15.000Z</time>
      </trkpt>
      <trkpt lat="43.57789" lon="6.7809">
        <ele>237.6</ele>
        <time>2025-01-10T10:59:14.000Z</time>
      </trkpt>
      <trkpt lat="43.57793" lon="6.78088">
        <ele>237.3</ele>
        <time>2025-01-10T10:59:13.000Z</time>
      </trkpt>
      <trkpt lat="43.57797" lon="6.78087">
        <ele>237.1</ele>
        <time>2025-01-10T10:59:12.000Z</time>
      </trkpt>
      <trkpt lat="43.57801" lon="6.78086">
        <ele>236.9</ele>
        <time>2025-01-10T10:59:11.000Z</time>
      </trkpt>
      <trkpt lat="43.57805" lon="6.78085">
        <ele>236.7</ele>
        <time>2025-01-10T10:59:10.000Z</time>
      </trkpt>
      <trkpt lat="43.57809" lon="6.78084">
        <ele>236.5</ele>
        <time>2025-01-10T10:59:09.000Z</time>
      </trkpt>
      <trkpt lat="43.57813" lon="6.78084">
        <ele>236.3</ele>
        <time>2025-01-10T10:59:08.000Z</time>
      </trkpt>
      <trkpt lat="43.57817" lon="6.78083">
        <ele>236.1</ele>
        <time>2025-01-10T10:59:07.000Z</time>
      </trkpt>
      <trkpt lat="43.57821" lon="6.78083">
        <ele>236</ele>
        <time>2025-01-10T10:59:06.000Z</time>
      </trkpt>
      <trkpt lat="43.57825" lon="6.78082">
        <ele>235.8</ele>
        <time>2025-01-10T10:59:05.000Z</time>
      </trkpt>
      <trkpt lat="43.57829" lon="6.78082">
        <ele>235.6</ele>
        <time>2025-01-10T10:59:04.000Z</time>
      </trkpt>
      <trkpt lat="43.57833" lon="6.78082">
        <ele>235.5</ele>
        <time>2025-01-10T10:59:03.000Z</time>
      </trkpt>
      <trkpt lat="43.57837" lon="6.78081">
        <ele>235.3</ele>
        <time>2025-01-10T10:59:02.000Z</time>
      </trkpt>
      <trkpt lat="43.57841" lon="6.78081">
        <ele>235.2</ele>
        <time>2025-01-10T10:59:01.000Z</time>
      </trkpt>
      <trkpt lat="43.57845" lon="6.7808">
        <ele>235.1</ele>
        <time>2025-01-10T10:59:00.000Z</time>
      </trkpt>
      <trkpt lat="43.57848" lon="6.7808">
        <ele>234.9</ele>
        <time>2025-01-10T10:58:59.000Z</time>
      </trkpt>
      <trkpt lat="43.57852" lon="6.7808">
        <ele>234.8</ele>
        <time>2025-01-10T10:58:58.000Z</time>
      </trkpt>
      <trkpt lat="43.57856" lon="6.78079">
        <ele>234.6</ele>
        <time>2025-01-10T10:58:57.000Z</time>
      </trkpt>
      <trkpt lat="43.57859" lon="6.78079">
        <ele>234.5</ele>
        <time>2025-01-10T10:58:56.000Z</time>
      </trkpt>
      <trkpt lat="43.57862" lon="6.78079">
        <ele>234.3</ele>
        <time>2025-01-10T10:58:55.000Z</time>
      </trkpt>
      <trkpt lat="43.57865" lon="6.78078">
        <ele>234.1</ele>
        <time>2025-01-10T10:58:54.000Z</time>
      </trkpt>
      <trkpt lat="43.57869" lon="6.78078">
        <ele>233.8</ele>
        <time>2025-01-10T10:58:53.000Z</time>
      </trkpt>
      <trkpt lat="43.57872" lon="6.78078">
        <ele>233.5</ele>
        <time>2025-01-10T10:58:52.000Z</time>
      </trkpt>
      <trkpt lat="43.57875" lon="6.78078">
        <ele>233.2</ele>
        <time>2025-01-10T10:58:51.000Z</time>
      </trkpt>
      <trkpt lat="43.57879" lon="6.78078">
        <ele>232.8</ele>
        <time>2025-01-10T10:58:50.000Z</time>
      </trkpt>
      <trkpt lat="43.57882" lon="6.78079">
        <ele>232.4</ele>
        <time>2025-01-10T10:58:49.000Z</time>
      </trkpt>
      <trkpt lat="43.57886" lon="6.78079">
        <ele>232</ele>
        <time>2025-01-10T10:58:48.000Z</time>
      </trkpt>
      <trkpt lat="43.57888" lon="6.7808">
        <ele>231.7</ele>
        <time>2025-01-10T10:58:47.000Z</time>
      </trkpt>
      <trkpt lat="43.57892" lon="6.78081">
        <ele>231.3</ele>
        <time>2025-01-10T10:58:46.000Z</time>
      </trkpt>
      <trkpt lat="43.57895" lon="6.78082">
        <ele>230.9</ele>
        <time>2025-01-10T10:58:45.000Z</time>
      </trkpt>
      <trkpt lat="43.57898" lon="6.78083">
        <ele>230.4</ele>
        <time>2025-01-10T10:58:44.000Z</time>
      </trkpt>
      <trkpt lat="43.57901" lon="6.78085">
        <ele>230</ele>
        <time>2025-01-10T10:58:43.000Z</time>
      </trkpt>
      <trkpt lat="43.57904" lon="6.78086">
        <ele>229.6</ele>
        <time>2025-01-10T10:58:42.000Z</time>
      </trkpt>
      <trkpt lat="43.57907" lon="6.78088">
        <ele>229.2</ele>
        <time>2025-01-10T10:58:41.000Z</time>
      </trkpt>
      <trkpt lat="43.5791" lon="6.78089">
        <ele>228.7</ele>
        <time>2025-01-10T10:58:40.000Z</time>
      </trkpt>
      <trkpt lat="43.57913" lon="6.78091">
        <ele>228.2</ele>
        <time>2025-01-10T10:58:39.000Z</time>
      </trkpt>
      <trkpt lat="43.57916" lon="6.78092">
        <ele>227.8</ele>
        <time>2025-01-10T10:58:38.000Z</time>
      </trkpt>
      <trkpt lat="43.57919" lon="6.78093">
        <ele>227.4</ele>
        <time>2025-01-10T10:58:37.000Z</time>
      </trkpt>
      <trkpt lat="43.57922" lon="6.78094">
        <ele>227</ele>
        <time>2025-01-10T10:58:36.000Z</time>
      </trkpt>
      <trkpt lat="43.57926" lon="6.78095">
        <ele>226.5</ele>
        <time>2025-01-10T10:58:35.000Z</time>
      </trkpt>
      <trkpt lat="43.5793" lon="6.78096">
        <ele>226</ele>
        <time>2025-01-10T10:58:34.000Z</time>
      </trkpt>
      <trkpt lat="43.57933" lon="6.78097">
        <ele>225.6</ele>
        <time>2025-01-10T10:58:33.000Z</time>
      </trkpt>
      <trkpt lat="43.57936" lon="6.78097">
        <ele>225.2</ele>
        <time>2025-01-10T10:58:32.000Z</time>
      </trkpt>
      <trkpt lat="43.57939" lon="6.78097">
        <ele>224.7</ele>
        <time>2025-01-10T10:58:31.000Z</time>
      </trkpt>
      <trkpt lat="43.57942" lon="6.78098">
        <ele>224.4</ele>
        <time>2025-01-10T10:58:30.000Z</time>
      </trkpt>
      <trkpt lat="43.57945" lon="6.78097">
        <ele>223.9</ele>
        <time>2025-01-10T10:58:29.000Z</time>
      </trkpt>
      <trkpt lat="43.57948" lon="6.78096">
        <ele>223.5</ele>
        <time>2025-01-10T10:58:28.000Z</time>
      </trkpt>
      <trkpt lat="43.57951" lon="6.78095">
        <ele>223.1</ele>
        <time>2025-01-10T10:58:27.000Z</time>
      </trkpt>
      <trkpt lat="43.57954" lon="6.78094">
        <ele>222.6</ele>
        <time>2025-01-10T10:58:26.000Z</time>
      </trkpt>
      <trkpt lat="43.57957" lon="6.78092">
        <ele>222.1</ele>
        <time>2025-01-10T10:58:25.000Z</time>
      </trkpt>
      <trkpt lat="43.57961" lon="6.78089">
        <ele>221.7</ele>
        <time>2025-01-10T10:58:24.000Z</time>
      </trkpt>
      <trkpt lat="43.57965" lon="6.78087">
        <ele>221.2</ele>
        <time>2025-01-10T10:58:23.000Z</time>
      </trkpt>
      <trkpt lat="43.57969" lon="6.78083">
        <ele>220.8</ele>
        <time>2025-01-10T10:58:22.000Z</time>
      </trkpt>
      <trkpt lat="43.57972" lon="6.78079">
        <ele>220.4</ele>
        <time>2025-01-10T10:58:21.000Z</time>
      </trkpt>
      <trkpt lat="43.57976" lon="6.78074">
        <ele>220.1</ele>
        <time>2025-01-10T10:58:20.000Z</time>
      </trkpt>
      <trkpt lat="43.57979" lon="6.78068">
        <ele>219.8</ele>
        <time>2025-01-10T10:58:19.000Z</time>
      </trkpt>
      <trkpt lat="43.57982" lon="6.78062">
        <ele>219.5</ele>
        <time>2025-01-10T10:58:18.000Z</time>
      </trkpt>
      <trkpt lat="43.57983" lon="6.78057">
        <ele>219.4</ele>
        <time>2025-01-10T10:58:17.000Z</time>
      </trkpt>
      <trkpt lat="43.57984" lon="6.78051">
        <ele>219.2</ele>
        <time>2025-01-10T10:58:16.000Z</time>
      </trkpt>
      <trkpt lat="43.57985" lon="6.78045">
        <ele>218.9</ele>
        <time>2025-01-10T10:58:15.000Z</time>
      </trkpt>
      <trkpt lat="43.57987" lon="6.78039">
        <ele>218.6</ele>
        <time>2025-01-10T10:58:14.000Z</time>
      </trkpt>
      <trkpt lat="43.57987" lon="6.78034">
        <ele>218.4</ele>
        <time>2025-01-10T10:58:13.000Z</time>
      </trkpt>
      <trkpt lat="43.57988" lon="6.78028">
        <ele>218.1</ele>
        <time>2025-01-10T10:58:12.000Z</time>
      </trkpt>
      <trkpt lat="43.57989" lon="6.78023">
        <ele>217.7</ele>
        <time>2025-01-10T10:58:11.000Z</time>
      </trkpt>
      <trkpt lat="43.5799" lon="6.78017">
        <ele>217.3</ele>
        <time>2025-01-10T10:58:10.000Z</time>
      </trkpt>
      <trkpt lat="43.57991" lon="6.78011">
        <ele>216.9</ele>
        <time>2025-01-10T10:58:09.000Z</time>
      </trkpt>
      <trkpt lat="43.57992" lon="6.78004">
        <ele>216.5</ele>
        <time>2025-01-10T10:58:08.000Z</time>
      </trkpt>
      <trkpt lat="43.57993" lon="6.77999">
        <ele>216.2</ele>
        <time>2025-01-10T10:58:07.000Z</time>
      </trkpt>
      <trkpt lat="43.57994" lon="6.77993">
        <ele>216</ele>
        <time>2025-01-10T10:58:06.000Z</time>
      </trkpt>
      <trkpt lat="43.57995" lon="6.77985">
        <ele>215.7</ele>
        <time>2025-01-10T10:58:05.000Z</time>
      </trkpt>
      <trkpt lat="43.57996" lon="6.7798">
        <ele>215.6</ele>
        <time>2025-01-10T10:58:04.000Z</time>
      </trkpt>
      <trkpt lat="43.57997" lon="6.77974">
        <ele>215.5</ele>
        <time>2025-01-10T10:58:03.000Z</time>
      </trkpt>
      <trkpt lat="43.57997" lon="6.77968">
        <ele>215.5</ele>
        <time>2025-01-10T10:58:02.000Z</time>
      </trkpt>
      <trkpt lat="43.57998" lon="6.77963">
        <ele>215.4</ele>
        <time>2025-01-10T10:58:01.000Z</time>
      </trkpt>
      <trkpt lat="43.57999" lon="6.77957">
        <ele>215.4</ele>
        <time>2025-01-10T10:58:00.000Z</time>
      </trkpt>
      <trkpt lat="43.57999" lon="6.77952">
        <ele>215.3</ele>
        <time>2025-01-10T10:57:59.000Z</time>
      </trkpt>
      <trkpt lat="43.57999" lon="6.77948">
        <ele>215.3</ele>
        <time>2025-01-10T10:57:58.000Z</time>
      </trkpt>
      <trkpt lat="43.58" lon="6.77944">
        <ele>215.2</ele>
        <time>2025-01-10T10:57:57.000Z</time>
      </trkpt>
      <trkpt lat="43.58" lon="6.7794">
        <ele>215.1</ele>
        <time>2025-01-10T10:57:56.000Z</time>
      </trkpt>
      <trkpt lat="43.58001" lon="6.77935">
        <ele>215</ele>
        <time>2025-01-10T10:57:55.000Z</time>
      </trkpt>
      <trkpt lat="43.58002" lon="6.77932">
        <ele>214.8</ele>
        <time>2025-01-10T10:57:54.000Z</time>
      </trkpt>
      <trkpt lat="43.58003" lon="6.77929">
        <ele>214.7</ele>
        <time>2025-01-10T10:57:53.000Z</time>
      </trkpt>
      <trkpt lat="43.58003" lon="6.77926">
        <ele>214.6</ele>
        <time>2025-01-10T10:57:52.000Z</time>
      </trkpt>
      <trkpt lat="43.58003" lon="6.77922">
        <ele>214.4</ele>
        <time>2025-01-10T10:57:51.000Z</time>
      </trkpt>
      <trkpt lat="43.58004" lon="6.77918">
        <ele>214.2</ele>
        <time>2025-01-10T10:57:50.000Z</time>
      </trkpt>
      <trkpt lat="43.58004" lon="6.77914">
        <ele>214</ele>
        <time>2025-01-10T10:57:49.000Z</time>
      </trkpt>
      <trkpt lat="43.58004" lon="6.77911">
        <ele>213.8</ele>
        <time>2025-01-10T10:57:48.000Z</time>
      </trkpt>
      <trkpt lat="43.58004" lon="6.77906">
        <ele>213.6</ele>
        <time>2025-01-10T10:57:47.000Z</time>
      </trkpt>
      <trkpt lat="43.58004" lon="6.77902">
        <ele>213.3</ele>
        <time>2025-01-10T10:57:46.000Z</time>
      </trkpt>
      <trkpt lat="43.58003" lon="6.77897">
        <ele>213.1</ele>
        <time>2025-01-10T10:57:45.000Z</time>
      </trkpt>
      <trkpt lat="43.58003" lon="6.77893">
        <ele>212.9</ele>
        <time>2025-01-10T10:57:44.000Z</time>
      </trkpt>
      <trkpt lat="43.58002" lon="6.7789">
        <ele>212.6</ele>
        <time>2025-01-10T10:57:43.000Z</time>
      </trkpt>
      <trkpt lat="43.58002" lon="6.77886">
        <ele>212.4</ele>
        <time>2025-01-10T10:57:42.000Z</time>
      </trkpt>
      <trkpt lat="43.58001" lon="6.77881">
        <ele>212.1</ele>
        <time>2025-01-10T10:57:41.000Z</time>
      </trkpt>
      <trkpt lat="43.58" lon="6.77877">
        <ele>211.9</ele>
        <time>2025-01-10T10:57:40.000Z</time>
      </trkpt>
      <trkpt lat="43.58" lon="6.77874">
        <ele>211.7</ele>
        <time>2025-01-10T10:57:39.000Z</time>
      </trkpt>
      <trkpt lat="43.57999" lon="6.77871">
        <ele>211.3</ele>
        <time>2025-01-10T10:57:38.000Z</time>
      </trkpt>
      <trkpt lat="43.57998" lon="6.77867">
        <ele>210.9</ele>
        <time>2025-01-10T10:57:37.000Z</time>
      </trkpt>
      <trkpt lat="43.57997" lon="6.77863">
        <ele>210.5</ele>
        <time>2025-01-10T10:57:36.000Z</time>
      </trkpt>
      <trkpt lat="43.57997" lon="6.7786">
        <ele>210.1</ele>
        <time>2025-01-10T10:57:35.000Z</time>
      </trkpt>
      <trkpt lat="43.57996" lon="6.77857">
        <ele>209.7</ele>
        <time>2025-01-10T10:57:34.000Z</time>
      </trkpt>
      <trkpt lat="43.57996" lon="6.77853">
        <ele>209.4</ele>
        <time>2025-01-10T10:57:33.000Z</time>
      </trkpt>
      <trkpt lat="43.57996" lon="6.7785">
        <ele>209</ele>
        <time>2025-01-10T10:57:32.000Z</time>
      </trkpt>
      <trkpt lat="43.57995" lon="6.77847">
        <ele>208.6</ele>
        <time>2025-01-10T10:57:31.000Z</time>
      </trkpt>
      <trkpt lat="43.57996" lon="6.77842">
        <ele>208.1</ele>
        <time>2025-01-10T10:57:30.000Z</time>
      </trkpt>
      <trkpt lat="43.57996" lon="6.77839">
        <ele>207.7</ele>
        <time>2025-01-10T10:57:29.000Z</time>
      </trkpt>
      <trkpt lat="43.57996" lon="6.77836">
        <ele>207.3</ele>
        <time>2025-01-10T10:57:28.000Z</time>
      </trkpt>
      <trkpt lat="43.57996" lon="6.77832">
        <ele>206.8</ele>
        <time>2025-01-10T10:57:27.000Z</time>
      </trkpt>
      <trkpt lat="43.57997" lon="6.77828">
        <ele>206.3</ele>
        <time>2025-01-10T10:57:26.000Z</time>
      </trkpt>
      <trkpt lat="43.57998" lon="6.77825">
        <ele>205.9</ele>
        <time>2025-01-10T10:57:25.000Z</time>
      </trkpt>
      <trkpt lat="43.57998" lon="6.77822">
        <ele>205.6</ele>
        <time>2025-01-10T10:57:24.000Z</time>
      </trkpt>
      <trkpt lat="43.57999" lon="6.77819">
        <ele>205.2</ele>
        <time>2025-01-10T10:57:23.000Z</time>
      </trkpt>
      <trkpt lat="43.58" lon="6.77815">
        <ele>204.8</ele>
        <time>2025-01-10T10:57:22.000Z</time>
      </trkpt>
      <trkpt lat="43.58001" lon="6.77812">
        <ele>204.4</ele>
        <time>2025-01-10T10:57:21.000Z</time>
      </trkpt>
      <trkpt lat="43.58002" lon="6.77809">
        <ele>204</ele>
        <time>2025-01-10T10:57:20.000Z</time>
      </trkpt>
      <trkpt lat="43.58003" lon="6.77806">
        <ele>203.6</ele>
        <time>2025-01-10T10:57:19.000Z</time>
      </trkpt>
      <trkpt lat="43.58005" lon="6.77803">
        <ele>203.2</ele>
        <time>2025-01-10T10:57:18.000Z</time>
      </trkpt>
      <trkpt lat="43.58006" lon="6.77799">
        <ele>202.7</ele>
        <time>2025-01-10T10:57:17.000Z</time>
      </trkpt>
      <trkpt lat="43.58008" lon="6.77796">
        <ele>202.3</ele>
        <time>2025-01-10T10:57:16.000Z</time>
      </trkpt>
      <trkpt lat="43.58009" lon="6.77794">
        <ele>202</ele>
        <time>2025-01-10T10:57:15.000Z</time>
      </trkpt>
      <trkpt lat="43.5801" lon="6.77792">
        <ele>201.7</ele>
        <time>2025-01-10T10:57:14.000Z</time>
      </trkpt>
      <trkpt lat="43.58011" lon="6.7779">
        <ele>201.4</ele>
        <time>2025-01-10T10:57:13.000Z</time>
      </trkpt>
      <trkpt lat="43.58012" lon="6.77788">
        <ele>201.1</ele>
        <time>2025-01-10T10:57:12.000Z</time>
      </trkpt>
      <trkpt lat="43.58014" lon="6.77786">
        <ele>200.7</ele>
        <time>2025-01-10T10:57:11.000Z</time>
      </trkpt>
      <trkpt lat="43.58016" lon="6.77784">
        <ele>200.3</ele>
        <time>2025-01-10T10:57:10.000Z</time>
      </trkpt>
      <trkpt lat="43.58018" lon="6.77782">
        <ele>199.9</ele>
        <time>2025-01-10T10:57:09.000Z</time>
      </trkpt>
      <trkpt lat="43.5802" lon="6.7778">
        <ele>199.4</ele>
        <time>2025-01-10T10:57:08.000Z</time>
      </trkpt>
      <trkpt lat="43.58022" lon="6.77778">
        <ele>199</ele>
        <time>2025-01-10T10:57:07.000Z</time>
      </trkpt>
      <trkpt lat="43.58023" lon="6.77775">
        <ele>198.6</ele>
        <time>2025-01-10T10:57:06.000Z</time>
      </trkpt>
      <trkpt lat="43.58024" lon="6.77772">
        <ele>198.2</ele>
        <time>2025-01-10T10:57:05.000Z</time>
      </trkpt>
      <trkpt lat="43.58026" lon="6.77769">
        <ele>197.7</ele>
        <time>2025-01-10T10:57:04.000Z</time>
      </trkpt>
      <trkpt lat="43.58027" lon="6.77766">
        <ele>197.3</ele>
        <time>2025-01-10T10:57:03.000Z</time>
      </trkpt>
      <trkpt lat="43.58028" lon="6.77763">
        <ele>196.9</ele>
        <time>2025-01-10T10:57:02.000Z</time>
      </trkpt>
      <trkpt lat="43.58029" lon="6.77759">
        <ele>196.4</ele>
        <time>2025-01-10T10:57:01.000Z</time>
      </trkpt>
      <trkpt lat="43.5803" lon="6.77756">
        <ele>196</ele>
        <time>2025-01-10T10:57:00.000Z</time>
      </trkpt>
      <trkpt lat="43.58032" lon="6.77753">
        <ele>195.6</ele>
        <time>2025-01-10T10:56:59.000Z</time>
      </trkpt>
      <trkpt lat="43.58033" lon="6.77749">
        <ele>195.1</ele>
        <time>2025-01-10T10:56:58.000Z</time>
      </trkpt>
      <trkpt lat="43.58034" lon="6.77746">
        <ele>194.7</ele>
        <time>2025-01-10T10:56:57.000Z</time>
      </trkpt>
      <trkpt lat="43.58036" lon="6.77743">
        <ele>194.3</ele>
        <time>2025-01-10T10:56:56.000Z</time>
      </trkpt>
      <trkpt lat="43.58037" lon="6.7774">
        <ele>193.9</ele>
        <time>2025-01-10T10:56:55.000Z</time>
      </trkpt>
      <trkpt lat="43.58038" lon="6.77737">
        <ele>193.5</ele>
        <time>2025-01-10T10:56:54.000Z</time>
      </trkpt>
      <trkpt lat="43.5804" lon="6.77735">
        <ele>193.1</ele>
        <time>2025-01-10T10:56:53.000Z</time>
      </trkpt>
      <trkpt lat="43.58041" lon="6.77732">
        <ele>192.7</ele>
        <time>2025-01-10T10:56:52.000Z</time>
      </trkpt>
      <trkpt lat="43.58043" lon="6.7773">
        <ele>192.2</ele>
        <time>2025-01-10T10:56:51.000Z</time>
      </trkpt>
      <trkpt lat="43.58045" lon="6.77727">
        <ele>191.8</ele>
        <time>2025-01-10T10:56:50.000Z</time>
      </trkpt>
      <trkpt lat="43.58047" lon="6.77725">
        <ele>191.4</ele>
        <time>2025-01-10T10:56:49.000Z</time>
      </trkpt>
      <trkpt lat="43.58049" lon="6.77723">
        <ele>190.9</ele>
        <time>2025-01-10T10:56:48.000Z</time>
      </trkpt>
      <trkpt lat="43.58051" lon="6.77721">
        <ele>190.5</ele>
        <time>2025-01-10T10:56:47.000Z</time>
      </trkpt>
      <trkpt lat="43.58053" lon="6.77719">
        <ele>190.1</ele>
        <time>2025-01-10T10:56:46.000Z</time>
      </trkpt>
      <trkpt lat="43.58055" lon="6.77717">
        <ele>189.7</ele>
        <time>2025-01-10T10:56:45.000Z</time>
      </trkpt>
      <trkpt lat="43.58057" lon="6.77715">
        <ele>189.3</ele>
        <time>2025-01-10T10:56:44.000Z</time>
      </trkpt>
      <trkpt lat="43.58059" lon="6.77713">
        <ele>188.8</ele>
        <time>2025-01-10T10:56:43.000Z</time>
      </trkpt>
      <trkpt lat="43.58062" lon="6.77711">
        <ele>188.4</ele>
        <time>2025-01-10T10:56:42.000Z</time>
      </trkpt>
      <trkpt lat="43.58064" lon="6.77709">
        <ele>188</ele>
        <time>2025-01-10T10:56:41.000Z</time>
      </trkpt>
      <trkpt lat="43.58067" lon="6.77708">
        <ele>187.6</ele>
        <time>2025-01-10T10:56:40.000Z</time>
      </trkpt>
      <trkpt lat="43.58069" lon="6.77707">
        <ele>187.1</ele>
        <time>2025-01-10T10:56:39.000Z</time>
      </trkpt>
      <trkpt lat="43.58072" lon="6.77706">
        <ele>186.7</ele>
        <time>2025-01-10T10:56:38.000Z</time>
      </trkpt>
      <trkpt lat="43.58075" lon="6.77705">
        <ele>186.2</ele>
        <time>2025-01-10T10:56:37.000Z</time>
      </trkpt>
      <trkpt lat="43.58077" lon="6.77705">
        <ele>185.9</ele>
        <time>2025-01-10T10:56:36.000Z</time>
      </trkpt>
      <trkpt lat="43.58079" lon="6.77704">
        <ele>185.4</ele>
        <time>2025-01-10T10:56:35.000Z</time>
      </trkpt>
      <trkpt lat="43.58082" lon="6.77704">
        <ele>185</ele>
        <time>2025-01-10T10:56:34.000Z</time>
      </trkpt>
      <trkpt lat="43.58085" lon="6.77704">
        <ele>184.4</ele>
        <time>2025-01-10T10:56:33.000Z</time>
      </trkpt>
      <trkpt lat="43.58087" lon="6.77704">
        <ele>184</ele>
        <time>2025-01-10T10:56:32.000Z</time>
      </trkpt>
      <trkpt lat="43.58089" lon="6.77704">
        <ele>183.6</ele>
        <time>2025-01-10T10:56:31.000Z</time>
      </trkpt>
      <trkpt lat="43.58092" lon="6.77704">
        <ele>183.2</ele>
        <time>2025-01-10T10:56:30.000Z</time>
      </trkpt>
      <trkpt lat="43.58094" lon="6.77703">
        <ele>182.7</ele>
        <time>2025-01-10T10:56:29.000Z</time>
      </trkpt>
      <trkpt lat="43.58097" lon="6.77703">
        <ele>182.1</ele>
        <time>2025-01-10T10:56:28.000Z</time>
      </trkpt>
      <trkpt lat="43.58099" lon="6.77703">
        <ele>181.8</ele>
        <time>2025-01-10T10:56:27.000Z</time>
      </trkpt>
      <trkpt lat="43.58102" lon="6.77702">
        <ele>181.3</ele>
        <time>2025-01-10T10:56:26.000Z</time>
      </trkpt>
      <trkpt lat="43.58104" lon="6.77702">
        <ele>180.8</ele>
        <time>2025-01-10T10:56:25.000Z</time>
      </trkpt>
      <trkpt lat="43.58107" lon="6.77702">
        <ele>180.3</ele>
        <time>2025-01-10T10:56:24.000Z</time>
      </trkpt>
      <trkpt lat="43.58109" lon="6.77702">
        <ele>179.8</ele>
        <time>2025-01-10T10:56:23.000Z</time>
      </trkpt>
      <trkpt lat="43.58111" lon="6.77702">
        <ele>179.4</ele>
        <time>2025-01-10T10:56:22.000Z</time>
      </trkpt>
      <trkpt lat="43.58114" lon="6.77702">
        <ele>178.9</ele>
        <time>2025-01-10T10:56:21.000Z</time>
      </trkpt>
      <trkpt lat="43.58116" lon="6.77702">
        <ele>178.5</ele>
        <time>2025-01-10T10:56:20.000Z</time>
      </trkpt>
      <trkpt lat="43.58119" lon="6.77701">
        <ele>177.8</ele>
        <time>2025-01-10T10:56:19.000Z</time>
      </trkpt>
      <trkpt lat="43.58121" lon="6.77701">
        <ele>177.4</ele>
        <time>2025-01-10T10:56:18.000Z</time>
      </trkpt>
      <trkpt lat="43.58124" lon="6.77701">
        <ele>176.8</ele>
        <time>2025-01-10T10:56:17.000Z</time>
      </trkpt>
      <trkpt lat="43.58127" lon="6.777">
        <ele>176.2</ele>
        <time>2025-01-10T10:56:16.000Z</time>
      </trkpt>
      <trkpt lat="43.5813" lon="6.77698">
        <ele>175.7</ele>
        <time>2025-01-10T10:56:15.000Z</time>
      </trkpt>
      <trkpt lat="43.58133" lon="6.77696">
        <ele>175.1</ele>
        <time>2025-01-10T10:56:14.000Z</time>
      </trkpt>
      <trkpt lat="43.58135" lon="6.77695">
        <ele>174.6</ele>
        <time>2025-01-10T10:56:13.000Z</time>
      </trkpt>
      <trkpt lat="43.58137" lon="6.77693">
        <ele>174.1</ele>
        <time>2025-01-10T10:56:12.000Z</time>
      </trkpt>
      <trkpt lat="43.5814" lon="6.77691">
        <ele>173.6</ele>
        <time>2025-01-10T10:56:11.000Z</time>
      </trkpt>
      <trkpt lat="43.58142" lon="6.77689">
        <ele>173</ele>
        <time>2025-01-10T10:56:10.000Z</time>
      </trkpt>
      <trkpt lat="43.58145" lon="6.77687">
        <ele>172.3</ele>
        <time>2025-01-10T10:56:09.000Z</time>
      </trkpt>
      <trkpt lat="43.58148" lon="6.77684">
        <ele>171.8</ele>
        <time>2025-01-10T10:56:08.000Z</time>
      </trkpt>
      <trkpt lat="43.5815" lon="6.77682">
        <ele>171.4</ele>
        <time>2025-01-10T10:56:07.000Z</time>
      </trkpt>
      <trkpt lat="43.58152" lon="6.77679">
        <ele>170.9</ele>
        <time>2025-01-10T10:56:06.000Z</time>
      </trkpt>
      <trkpt lat="43.58154" lon="6.77676">
        <ele>170.5</ele>
        <time>2025-01-10T10:56:05.000Z</time>
      </trkpt>
      <trkpt lat="43.58158" lon="6.77672">
        <ele>170</ele>
        <time>2025-01-10T10:56:04.000Z</time>
      </trkpt>
      <trkpt lat="43.58161" lon="6.77669">
        <ele>169.6</ele>
        <time>2025-01-10T10:56:03.000Z</time>
      </trkpt>
      <trkpt lat="43.58163" lon="6.77667">
        <ele>169.2</ele>
        <time>2025-01-10T10:56:02.000Z</time>
      </trkpt>
      <trkpt lat="43.58167" lon="6.77665">
        <ele>168.8</ele>
        <time>2025-01-10T10:56:01.000Z</time>
      </trkpt>
      <trkpt lat="43.5817" lon="6.77662">
        <ele>168.5</ele>
        <time>2025-01-10T10:56:00.000Z</time>
      </trkpt>
      <trkpt lat="43.58173" lon="6.7766">
        <ele>168.2</ele>
        <time>2025-01-10T10:55:59.000Z</time>
      </trkpt>
      <trkpt lat="43.58175" lon="6.77658">
        <ele>168</ele>
        <time>2025-01-10T10:55:58.000Z</time>
      </trkpt>
      <trkpt lat="43.58177" lon="6.77656">
        <ele>167.8</ele>
        <time>2025-01-10T10:55:57.000Z</time>
      </trkpt>
      <trkpt lat="43.58179" lon="6.77654">
        <ele>167.6</ele>
        <time>2025-01-10T10:55:56.000Z</time>
      </trkpt>
      <trkpt lat="43.58181" lon="6.77651">
        <ele>167.4</ele>
        <time>2025-01-10T10:55:55.000Z</time>
      </trkpt>
      <trkpt lat="43.58183" lon="6.77648">
        <ele>167.3</ele>
        <time>2025-01-10T10:55:54.000Z</time>
      </trkpt>
      <trkpt lat="43.58185" lon="6.77645">
        <ele>167.2</ele>
        <time>2025-01-10T10:55:53.000Z</time>
      </trkpt>
      <trkpt lat="43.58188" lon="6.77641">
        <ele>167.1</ele>
        <time>2025-01-10T10:55:52.000Z</time>
      </trkpt>
      <trkpt lat="43.5819" lon="6.77637">
        <ele>166.9</ele>
        <time>2025-01-10T10:55:51.000Z</time>
      </trkpt>
      <trkpt lat="43.58193" lon="6.77632">
        <ele>166.8</ele>
        <time>2025-01-10T10:55:50.000Z</time>
      </trkpt>
      <trkpt lat="43.58196" lon="6.77627">
        <ele>166.5</ele>
        <time>2025-01-10T10:55:49.000Z</time>
      </trkpt>
      <trkpt lat="43.58198" lon="6.77623">
        <ele>166.2</ele>
        <time>2025-01-10T10:55:48.000Z</time>
      </trkpt>
      <trkpt lat="43.582" lon="6.77618">
        <ele>165.9</ele>
        <time>2025-01-10T10:55:47.000Z</time>
      </trkpt>
      <trkpt lat="43.58203" lon="6.77612">
        <ele>165.6</ele>
        <time>2025-01-10T10:55:46.000Z</time>
      </trkpt>
      <trkpt lat="43.58206" lon="6.77607">
        <ele>165.3</ele>
        <time>2025-01-10T10:55:45.000Z</time>
      </trkpt>
      <trkpt lat="43.58209" lon="6.77601">
        <ele>165</ele>
        <time>2025-01-10T10:55:44.000Z</time>
      </trkpt>
      <trkpt lat="43.58211" lon="6.77595">
        <ele>164.7</ele>
        <time>2025-01-10T10:55:43.000Z</time>
      </trkpt>
      <trkpt lat="43.58213" lon="6.77591">
        <ele>164.5</ele>
        <time>2025-01-10T10:55:42.000Z</time>
      </trkpt>
      <trkpt lat="43.58216" lon="6.77586">
        <ele>164.2</ele>
        <time>2025-01-10T10:55:41.000Z</time>
      </trkpt>
      <trkpt lat="43.58218" lon="6.77581">
        <ele>164</ele>
        <time>2025-01-10T10:55:40.000Z</time>
      </trkpt>
      <trkpt lat="43.58222" lon="6.77575">
        <ele>163.6</ele>
        <time>2025-01-10T10:55:39.000Z</time>
      </trkpt>
      <trkpt lat="43.58224" lon="6.7757">
        <ele>163.4</ele>
        <time>2025-01-10T10:55:38.000Z</time>
      </trkpt>
      <trkpt lat="43.58227" lon="6.77565">
        <ele>163.1</ele>
        <time>2025-01-10T10:55:37.000Z</time>
      </trkpt>
      <trkpt lat="43.58229" lon="6.7756">
        <ele>162.9</ele>
        <time>2025-01-10T10:55:36.000Z</time>
      </trkpt>
      <trkpt lat="43.58232" lon="6.77554">
        <ele>162.7</ele>
        <time>2025-01-10T10:55:35.000Z</time>
      </trkpt>
      <trkpt lat="43.58235" lon="6.77547">
        <ele>162.4</ele>
        <time>2025-01-10T10:55:34.000Z</time>
      </trkpt>
      <trkpt lat="43.58237" lon="6.77541">
        <ele>162.2</ele>
        <time>2025-01-10T10:55:33.000Z</time>
      </trkpt>
      <trkpt lat="43.58239" lon="6.77537">
        <ele>162.1</ele>
        <time>2025-01-10T10:55:32.000Z</time>
      </trkpt>
      <trkpt lat="43.58241" lon="6.7753">
        <ele>161.9</ele>
        <time>2025-01-10T10:55:31.000Z</time>
      </trkpt>
      <trkpt lat="43.58243" lon="6.77524">
        <ele>161.7</ele>
        <time>2025-01-10T10:55:30.000Z</time>
      </trkpt>
      <trkpt lat="43.58244" lon="6.77518">
        <ele>161.5</ele>
        <time>2025-01-10T10:55:29.000Z</time>
      </trkpt>
      <trkpt lat="43.58246" lon="6.77512">
        <ele>161.2</ele>
        <time>2025-01-10T10:55:28.000Z</time>
      </trkpt>
      <trkpt lat="43.58247" lon="6.77506">
        <ele>161</ele>
        <time>2025-01-10T10:55:27.000Z</time>
      </trkpt>
      <trkpt lat="43.58248" lon="6.775">
        <ele>160.7</ele>
        <time>2025-01-10T10:55:26.000Z</time>
      </trkpt>
      <trkpt lat="43.5825" lon="6.77493">
        <ele>160.4</ele>
        <time>2025-01-10T10:55:25.000Z</time>
      </trkpt>
      <trkpt lat="43.58251" lon="6.77487">
        <ele>160.1</ele>
        <time>2025-01-10T10:55:24.000Z</time>
      </trkpt>
      <trkpt lat="43.58253" lon="6.77482">
        <ele>159.8</ele>
        <time>2025-01-10T10:55:23.000Z</time>
      </trkpt>
      <trkpt lat="43.58256" lon="6.77476">
        <ele>159.5</ele>
        <time>2025-01-10T10:55:22.000Z</time>
      </trkpt>
      <trkpt lat="43.58258" lon="6.7747">
        <ele>159.2</ele>
        <time>2025-01-10T10:55:21.000Z</time>
      </trkpt>
      <trkpt lat="43.5826" lon="6.77465">
        <ele>158.9</ele>
        <time>2025-01-10T10:55:20.000Z</time>
      </trkpt>
      <trkpt lat="43.58262" lon="6.77458">
        <ele>158.6</ele>
        <time>2025-01-10T10:55:19.000Z</time>
      </trkpt>
      <trkpt lat="43.58264" lon="6.77454">
        <ele>158.4</ele>
        <time>2025-01-10T10:55:18.000Z</time>
      </trkpt>
      <trkpt lat="43.58265" lon="6.77448">
        <ele>158.2</ele>
        <time>2025-01-10T10:55:17.000Z</time>
      </trkpt>
      <trkpt lat="43.58266" lon="6.77443">
        <ele>158</ele>
        <time>2025-01-10T10:55:16.000Z</time>
      </trkpt>
      <trkpt lat="43.58266" lon="6.77438">
        <ele>157.8</ele>
        <time>2025-01-10T10:55:15.000Z</time>
      </trkpt>
      <trkpt lat="43.58264" lon="6.77432">
        <ele>157.6</ele>
        <time>2025-01-10T10:55:14.000Z</time>
      </trkpt>
      <trkpt lat="43.58262" lon="6.77428">
        <ele>157.5</ele>
        <time>2025-01-10T10:55:13.000Z</time>
      </trkpt>
      <trkpt lat="43.58259" lon="6.77425">
        <ele>157.3</ele>
        <time>2025-01-10T10:55:12.000Z</time>
      </trkpt>
      <trkpt lat="43.58257" lon="6.77422">
        <ele>157.1</ele>
        <time>2025-01-10T10:55:11.000Z</time>
      </trkpt>
      <trkpt lat="43.58253" lon="6.77419">
        <ele>156.9</ele>
        <time>2025-01-10T10:55:10.000Z</time>
      </trkpt>
      <trkpt lat="43.5825" lon="6.77417">
        <ele>156.6</ele>
        <time>2025-01-10T10:55:09.000Z</time>
      </trkpt>
      <trkpt lat="43.58248" lon="6.77416">
        <ele>156.4</ele>
        <time>2025-01-10T10:55:08.000Z</time>
      </trkpt>
      <trkpt lat="43.58245" lon="6.77414">
        <ele>156.2</ele>
        <time>2025-01-10T10:55:07.000Z</time>
      </trkpt>
      <trkpt lat="43.58242" lon="6.77412">
        <ele>155.9</ele>
        <time>2025-01-10T10:55:06.000Z</time>
      </trkpt>
      <trkpt lat="43.58239" lon="6.77409">
        <ele>155.5</ele>
        <time>2025-01-10T10:55:05.000Z</time>
      </trkpt>
      <trkpt lat="43.58238" lon="6.77405">
        <ele>155.2</ele>
        <time>2025-01-10T10:55:04.000Z</time>
      </trkpt>
      <trkpt lat="43.58235" lon="6.774">
        <ele>154.8</ele>
        <time>2025-01-10T10:55:03.000Z</time>
      </trkpt>
      <trkpt lat="43.58232" lon="6.77395">
        <ele>154.3</ele>
        <time>2025-01-10T10:55:02.000Z</time>
      </trkpt>
      <trkpt lat="43.58229" lon="6.77391">
        <ele>154</ele>
        <time>2025-01-10T10:55:01.000Z</time>
      </trkpt>
      <trkpt lat="43.58225" lon="6.77386">
        <ele>153.7</ele>
        <time>2025-01-10T10:55:00.000Z</time>
      </trkpt>
      <trkpt lat="43.58222" lon="6.77382">
        <ele>153.5</ele>
        <time>2025-01-10T10:54:59.000Z</time>
      </trkpt>
      <trkpt lat="43.58222" lon="6.77381">
        <ele>153.4</ele>
        <time>2025-01-10T10:54:58.000Z</time>
      </trkpt>
      <trkpt lat="43.58222" lon="6.77381">
        <ele>153.4</ele>
        <time>2025-01-10T10:54:57.000Z</time>
      </trkpt>
      <trkpt lat="43.58222" lon="6.77381">
        <ele>153.4</ele>
        <time>2025-01-10T10:54:56.000Z</time>
      </trkpt>
      <trkpt lat="43.58222" lon="6.77381">
        <ele>153.4</ele>
        <time>2025-01-10T10:54:55.000Z</time>
      </trkpt>
      <trkpt lat="43.58222" lon="6.77381">
        <ele>153.4</ele>
        <time>2025-01-10T10:54:54.000Z</time>
      </trkpt>
      <trkpt lat="43.58222" lon="6.77381">
        <ele>153.4</ele>
        <time>2025-01-10T10:54:53.000Z</time>
      </trkpt>
      <trkpt lat="43.58222" lon="6.77381">
        <ele>153.4</ele>
        <time>2025-01-10T10:54:52.000Z</time>
      </trkpt>
      <trkpt lat="43.58222" lon="6.77381">
        <ele>153.4</ele>
        <time>2025-01-10T10:54:51.000Z</time>
      </trkpt>
      <trkpt lat="43.58222" lon="6.77381">
        <ele>153.4</ele>
        <time>2025-01-10T10:54:50.000Z</time>
      </trkpt>
      <trkpt lat="43.58222" lon="6.77381">
        <ele>153.4</ele>
        <time>2025-01-10T10:54:49.000Z</time>
      </trkpt>
      <trkpt lat="43.58222" lon="6.77381">
        <ele>153.4</ele>
        <time>2025-01-10T10:54:48.000Z</time>
      </trkpt>
      <trkpt lat="43.58222" lon="6.77381">
        <ele>153.4</ele>
        <time>2025-01-10T10:54:47.000Z</time>
      </trkpt>
      <trkpt lat="43.58222" lon="6.77381">
        <ele>153.4</ele>
        <time>2025-01-10T10:54:46.000Z</time>
      </trkpt>
      <trkpt lat="43.58222" lon="6.77381">
        <ele>153.4</ele>
        <time>2025-01-10T10:54:45.000Z</time>
      </trkpt>
      <trkpt lat="43.58222" lon="6.77381">
        <ele>153.4</ele>
        <time>2025-01-10T10:54:44.000Z</time>
      </trkpt>
      <trkpt lat="43.58222" lon="6.77381">
        <ele>153.4</ele>
        <time>2025-01-10T10:54:43.000Z</time>
      </trkpt>
      <trkpt lat="43.58222" lon="6.77381">
        <ele>153.4</ele>
        <time>2025-01-10T10:54:42.000Z</time>
      </trkpt>
      <trkpt lat="43.58222" lon="6.77381">
        <ele>153.4</ele>
        <time>2025-01-10T10:54:41.000Z</time>
      </trkpt>
      <trkpt lat="43.58222" lon="6.77381">
        <ele>153.4</ele>
        <time>2025-01-10T10:54:40.000Z</time>
      </trkpt>
      <trkpt lat="43.58222" lon="6.77381">
        <ele>153.4</ele>
        <time>2025-01-10T10:54:39.000Z</time>
      </trkpt>
      <trkpt lat="43.58222" lon="6.77381">
        <ele>153.4</ele>
        <time>2025-01-10T10:54:38.000Z</time>
      </trkpt>
      <trkpt lat="43.58222" lon="6.77381">
        <ele>153.4</ele>
        <time>2025-01-10T10:54:37.000Z</time>
      </trkpt>
      <trkpt lat="43.58222" lon="6.77381">
        <ele>153.4</ele>
        <time>2025-01-10T10:54:36.000Z</time>
      </trkpt>
      <trkpt lat="43.58222" lon="6.77381">
        <ele>153.4</ele>
        <time>2025-01-10T10:54:35.000Z</time>
      </trkpt>
      <trkpt lat="43.58222" lon="6.77381">
        <ele>153.4</ele>
        <time>2025-01-10T10:54:34.000Z</time>
      </trkpt>
      <trkpt lat="43.58222" lon="6.77381">
        <ele>153.4</ele>
        <time>2025-01-10T10:54:33.000Z</time>
      </trkpt>
      <trkpt lat="43.58221" lon="6.77381">
        <ele>153.4</ele>
        <time>2025-01-10T10:54:32.000Z</time>
      </trkpt>
      <trkpt lat="43.58221" lon="6.77381">
        <ele>153.4</ele>
        <time>2025-01-10T10:54:31.000Z</time>
      </trkpt>
      <trkpt lat="43.58221" lon="6.77382">
        <ele>153.4</ele>
        <time>2025-01-10T10:54:30.000Z</time>
      </trkpt>
      <trkpt lat="43.58221" lon="6.77382">
        <ele>153.4</ele>
        <time>2025-01-10T10:54:29.000Z</time>
      </trkpt>
      <trkpt lat="43.58221" lon="6.77382">
        <ele>153.4</ele>
        <time>2025-01-10T10:54:28.000Z</time>
      </trkpt>
      <trkpt lat="43.58221" lon="6.77382">
        <ele>153.4</ele>
        <time>2025-01-10T10:54:27.000Z</time>
      </trkpt>
      <trkpt lat="43.58221" lon="6.77382">
        <ele>153.4</ele>
        <time>2025-01-10T10:54:26.000Z</time>
      </trkpt>
      <trkpt lat="43.58221" lon="6.77382">
        <ele>153.4</ele>
        <time>2025-01-10T10:54:25.000Z</time>
      </trkpt>
      <trkpt lat="43.58221" lon="6.77382">
        <ele>153.4</ele>
        <time>2025-01-10T10:54:24.000Z</time>
      </trkpt>
      <trkpt lat="43.58221" lon="6.77383">
        <ele>153.4</ele>
        <time>2025-01-10T10:54:23.000Z</time>
      </trkpt>
      <trkpt lat="43.58221" lon="6.77383">
        <ele>153.4</ele>
        <time>2025-01-10T10:54:22.000Z</time>
      </trkpt>
      <trkpt lat="43.58221" lon="6.77383">
        <ele>153.4</ele>
        <time>2025-01-10T10:54:21.000Z</time>
      </trkpt>
      <trkpt lat="43.58221" lon="6.77382">
        <ele>153.4</ele>
        <time>2025-01-10T10:54:20.000Z</time>
      </trkpt>
      <trkpt lat="43.58221" lon="6.77381">
        <ele>153.4</ele>
        <time>2025-01-10T10:54:19.000Z</time>
      </trkpt>
      <trkpt lat="43.58221" lon="6.7738">
        <ele>153.4</ele>
        <time>2025-01-10T10:54:18.000Z</time>
      </trkpt>
      <trkpt lat="43.58222" lon="6.7738">
        <ele>153.4</ele>
        <time>2025-01-10T10:54:17.000Z</time>
      </trkpt>
      <trkpt lat="43.58222" lon="6.77379">
        <ele>153.4</ele>
        <time>2025-01-10T10:54:16.000Z</time>
      </trkpt>
      <trkpt lat="43.58222" lon="6.77378">
        <ele>153.4</ele>
        <time>2025-01-10T10:54:15.000Z</time>
      </trkpt>
      <trkpt lat="43.58223" lon="6.77377">
        <ele>153.4</ele>
        <time>2025-01-10T10:54:14.000Z</time>
      </trkpt>
      <trkpt lat="43.58223" lon="6.77376">
        <ele>153.5</ele>
        <time>2025-01-10T10:54:13.000Z</time>
      </trkpt>
      <trkpt lat="43.58223" lon="6.77375">
        <ele>153.5</ele>
        <time>2025-01-10T10:54:12.000Z</time>
      </trkpt>
      <trkpt lat="43.58223" lon="6.77374">
        <ele>153.5</ele>
        <time>2025-01-10T10:54:11.000Z</time>
      </trkpt>
      <trkpt lat="43.58223" lon="6.77371">
        <ele>153.5</ele>
        <time>2025-01-10T10:54:10.000Z</time>
      </trkpt>
      <trkpt lat="43.58224" lon="6.77367">
        <ele>153.5</ele>
        <time>2025-01-10T10:54:09.000Z</time>
      </trkpt>
      <trkpt lat="43.58225" lon="6.77362">
        <ele>153.7</ele>
        <time>2025-01-10T10:54:08.000Z</time>
      </trkpt>
      <trkpt lat="43.58225" lon="6.77358">
        <ele>153.8</ele>
        <time>2025-01-10T10:54:07.000Z</time>
      </trkpt>
      <trkpt lat="43.58226" lon="6.77353">
        <ele>154</ele>
        <time>2025-01-10T10:54:06.000Z</time>
      </trkpt>
      <trkpt lat="43.58227" lon="6.77349">
        <ele>154.2</ele>
        <time>2025-01-10T10:54:05.000Z</time>
      </trkpt>
      <trkpt lat="43.58228" lon="6.77344">
        <ele>154.4</ele>
        <time>2025-01-10T10:54:04.000Z</time>
      </trkpt>
      <trkpt lat="43.58229" lon="6.77339">
        <ele>154.6</ele>
        <time>2025-01-10T10:54:03.000Z</time>
      </trkpt>
      <trkpt lat="43.58229" lon="6.77335">
        <ele>154.7</ele>
        <time>2025-01-10T10:54:02.000Z</time>
      </trkpt>
      <trkpt lat="43.5823" lon="6.77329">
        <ele>154.9</ele>
        <time>2025-01-10T10:54:01.000Z</time>
      </trkpt>
      <trkpt lat="43.58231" lon="6.77326">
        <ele>155</ele>
        <time>2025-01-10T10:54:00.000Z</time>
      </trkpt>
      <trkpt lat="43.58231" lon="6.77321">
        <ele>155.1</ele>
        <time>2025-01-10T10:53:59.000Z</time>
      </trkpt>
      <trkpt lat="43.58231" lon="6.77316">
        <ele>155.2</ele>
        <time>2025-01-10T10:53:58.000Z</time>
      </trkpt>
      <trkpt lat="43.5823" lon="6.77312">
        <ele>155.4</ele>
        <time>2025-01-10T10:53:57.000Z</time>
      </trkpt>
      <trkpt lat="43.58228" lon="6.77307">
        <ele>155.5</ele>
        <time>2025-01-10T10:53:56.000Z</time>
      </trkpt>
      <trkpt lat="43.58227" lon="6.77304">
        <ele>155.5</ele>
        <time>2025-01-10T10:53:55.000Z</time>
      </trkpt>
      <trkpt lat="43.58224" lon="6.77299">
        <ele>155.6</ele>
        <time>2025-01-10T10:53:54.000Z</time>
      </trkpt>
      <trkpt lat="43.58221" lon="6.77294">
        <ele>155.7</ele>
        <time>2025-01-10T10:53:53.000Z</time>
      </trkpt>
      <trkpt lat="43.58218" lon="6.77289">
        <ele>155.7</ele>
        <time>2025-01-10T10:53:52.000Z</time>
      </trkpt>
      <trkpt lat="43.58216" lon="6.77285">
        <ele>155.8</ele>
        <time>2025-01-10T10:53:51.000Z</time>
      </trkpt>
      <trkpt lat="43.58213" lon="6.77281">
        <ele>155.8</ele>
        <time>2025-01-10T10:53:50.000Z</time>
      </trkpt>
      <trkpt lat="43.58211" lon="6.77277">
        <ele>155.9</ele>
        <time>2025-01-10T10:53:49.000Z</time>
      </trkpt>
      <trkpt lat="43.58207" lon="6.77272">
        <ele>155.9</ele>
        <time>2025-01-10T10:53:48.000Z</time>
      </trkpt>
      <trkpt lat="43.58203" lon="6.7727">
        <ele>155.9</ele>
        <time>2025-01-10T10:53:47.000Z</time>
      </trkpt>
      <trkpt lat="43.58199" lon="6.77267">
        <ele>156</ele>
        <time>2025-01-10T10:53:46.000Z</time>
      </trkpt>
      <trkpt lat="43.58196" lon="6.77266">
        <ele>156</ele>
        <time>2025-01-10T10:53:45.000Z</time>
      </trkpt>
      <trkpt lat="43.58192" lon="6.77264">
        <ele>156</ele>
        <time>2025-01-10T10:53:44.000Z</time>
      </trkpt>
      <trkpt lat="43.58187" lon="6.77261">
        <ele>156.1</ele>
        <time>2025-01-10T10:53:43.000Z</time>
      </trkpt>
      <trkpt lat="43.58183" lon="6.77258">
        <ele>156.1</ele>
        <time>2025-01-10T10:53:42.000Z</time>
      </trkpt>
      <trkpt lat="43.58179" lon="6.77255">
        <ele>156.1</ele>
        <time>2025-01-10T10:53:41.000Z</time>
      </trkpt>
      <trkpt lat="43.58176" lon="6.77253">
        <ele>156.1</ele>
        <time>2025-01-10T10:53:40.000Z</time>
      </trkpt>
      <trkpt lat="43.58173" lon="6.77251">
        <ele>156.1</ele>
        <time>2025-01-10T10:53:39.000Z</time>
      </trkpt>
      <trkpt lat="43.58169" lon="6.77248">
        <ele>156.1</ele>
        <time>2025-01-10T10:53:38.000Z</time>
      </trkpt>
      <trkpt lat="43.58164" lon="6.77245">
        <ele>156.1</ele>
        <time>2025-01-10T10:53:37.000Z</time>
      </trkpt>
      <trkpt lat="43.58162" lon="6.77243">
        <ele>156.1</ele>
        <time>2025-01-10T10:53:36.000Z</time>
      </trkpt>
      <trkpt lat="43.58159" lon="6.77241">
        <ele>156</ele>
        <time>2025-01-10T10:53:35.000Z</time>
      </trkpt>
      <trkpt lat="43.58155" lon="6.77241">
        <ele>156</ele>
        <time>2025-01-10T10:53:34.000Z</time>
      </trkpt>
      <trkpt lat="43.58152" lon="6.77241">
        <ele>155.9</ele>
        <time>2025-01-10T10:53:33.000Z</time>
      </trkpt>
      <trkpt lat="43.58147" lon="6.7724">
        <ele>155.8</ele>
        <time>2025-01-10T10:53:32.000Z</time>
      </trkpt>
      <trkpt lat="43.58144" lon="6.7724">
        <ele>155.7</ele>
        <time>2025-01-10T10:53:31.000Z</time>
      </trkpt>
      <trkpt lat="43.58141" lon="6.7724">
        <ele>155.7</ele>
        <time>2025-01-10T10:53:30.000Z</time>
      </trkpt>
      <trkpt lat="43.58137" lon="6.77241">
        <ele>155.7</ele>
        <time>2025-01-10T10:53:29.000Z</time>
      </trkpt>
      <trkpt lat="43.58134" lon="6.77243">
        <ele>155.6</ele>
        <time>2025-01-10T10:53:28.000Z</time>
      </trkpt>
      <trkpt lat="43.5813" lon="6.77245">
        <ele>155.6</ele>
        <time>2025-01-10T10:53:27.000Z</time>
      </trkpt>
      <trkpt lat="43.58126" lon="6.77246">
        <ele>155.6</ele>
        <time>2025-01-10T10:53:26.000Z</time>
      </trkpt>
      <trkpt lat="43.58124" lon="6.77246">
        <ele>155.6</ele>
        <time>2025-01-10T10:53:25.000Z</time>
      </trkpt>
      <trkpt lat="43.58121" lon="6.77245">
        <ele>155.6</ele>
        <time>2025-01-10T10:53:24.000Z</time>
      </trkpt>
      <trkpt lat="43.58118" lon="6.77245">
        <ele>155.6</ele>
        <time>2025-01-10T10:53:23.000Z</time>
      </trkpt>
      <trkpt lat="43.58115" lon="6.77245">
        <ele>155.6</ele>
        <time>2025-01-10T10:53:22.000Z</time>
      </trkpt>
      <trkpt lat="43.58112" lon="6.77244">
        <ele>155.5</ele>
        <time>2025-01-10T10:53:21.000Z</time>
      </trkpt>
      <trkpt lat="43.58108" lon="6.77242">
        <ele>155.5</ele>
        <time>2025-01-10T10:53:20.000Z</time>
      </trkpt>
      <trkpt lat="43.58105" lon="6.77239">
        <ele>155.4</ele>
        <time>2025-01-10T10:53:19.000Z</time>
      </trkpt>
      <trkpt lat="43.58101" lon="6.77236">
        <ele>155.4</ele>
        <time>2025-01-10T10:53:18.000Z</time>
      </trkpt>
      <trkpt lat="43.58098" lon="6.77232">
        <ele>155.3</ele>
        <time>2025-01-10T10:53:17.000Z</time>
      </trkpt>
      <trkpt lat="43.58095" lon="6.77229">
        <ele>155.3</ele>
        <time>2025-01-10T10:53:16.000Z</time>
      </trkpt>
      <trkpt lat="43.58093" lon="6.77227">
        <ele>155.3</ele>
        <time>2025-01-10T10:53:15.000Z</time>
      </trkpt>
      <trkpt lat="43.5809" lon="6.77224">
        <ele>155.2</ele>
        <time>2025-01-10T10:53:14.000Z</time>
      </trkpt>
      <trkpt lat="43.58087" lon="6.7722">
        <ele>155.2</ele>
        <time>2025-01-10T10:53:13.000Z</time>
      </trkpt>
      <trkpt lat="43.58085" lon="6.77218">
        <ele>155.1</ele>
        <time>2025-01-10T10:53:12.000Z</time>
      </trkpt>
      <trkpt lat="43.58084" lon="6.77218">
        <ele>155.1</ele>
        <time>2025-01-10T10:53:11.000Z</time>
      </trkpt>
      <trkpt lat="43.58084" lon="6.77218">
        <ele>155.1</ele>
        <time>2025-01-10T10:53:10.000Z</time>
      </trkpt>
      <trkpt lat="43.58084" lon="6.77218">
        <ele>155.1</ele>
        <time>2025-01-10T10:53:09.000Z</time>
      </trkpt>
      <trkpt lat="43.58084" lon="6.77218">
        <ele>155.1</ele>
        <time>2025-01-10T10:53:08.000Z</time>
      </trkpt>
      <trkpt lat="43.58084" lon="6.77218">
        <ele>155.1</ele>
        <time>2025-01-10T10:53:07.000Z</time>
      </trkpt>
      <trkpt lat="43.58084" lon="6.77218">
        <ele>155.1</ele>
        <time>2025-01-10T10:53:06.000Z</time>
      </trkpt>
      <trkpt lat="43.58084" lon="6.77218">
        <ele>155.1</ele>
        <time>2025-01-10T10:53:05.000Z</time>
      </trkpt>
      <trkpt lat="43.58084" lon="6.77218">
        <ele>155.1</ele>
        <time>2025-01-10T10:53:04.000Z</time>
      </trkpt>
      <trkpt lat="43.58084" lon="6.77218">
        <ele>155.1</ele>
        <time>2025-01-10T10:53:03.000Z</time>
      </trkpt>
      <trkpt lat="43.58084" lon="6.77218">
        <ele>155.1</ele>
        <time>2025-01-10T10:53:02.000Z</time>
      </trkpt>
      <trkpt lat="43.58084" lon="6.77218">
        <ele>155.1</ele>
        <time>2025-01-10T10:53:01.000Z</time>
      </trkpt>
      <trkpt lat="43.58084" lon="6.77218">
        <ele>155.1</ele>
        <time>2025-01-10T10:53:00.000Z</time>
      </trkpt>
      <trkpt lat="43.58084" lon="6.77218">
        <ele>155.1</ele>
        <time>2025-01-10T10:52:59.000Z</time>
      </trkpt>
      <trkpt lat="43.58084" lon="6.77218">
        <ele>155.1</ele>
        <time>2025-01-10T10:52:58.000Z</time>
      </trkpt>
      <trkpt lat="43.58083" lon="6.77218">
        <ele>155.1</ele>
        <time>2025-01-10T10:52:57.000Z</time>
      </trkpt>
      <trkpt lat="43.58083" lon="6.77218">
        <ele>155.1</ele>
        <time>2025-01-10T10:52:56.000Z</time>
      </trkpt>
      <trkpt lat="43.58082" lon="6.77217">
        <ele>155</ele>
        <time>2025-01-10T10:52:55.000Z</time>
      </trkpt>
      <trkpt lat="43.5808" lon="6.77217">
        <ele>155</ele>
        <time>2025-01-10T10:52:54.000Z</time>
      </trkpt>
      <trkpt lat="43.58079" lon="6.77215">
        <ele>155</ele>
        <time>2025-01-10T10:52:53.000Z</time>
      </trkpt>
      <trkpt lat="43.58077" lon="6.77213">
        <ele>154.9</ele>
        <time>2025-01-10T10:52:52.000Z</time>
      </trkpt>
      <trkpt lat="43.58076" lon="6.77211">
        <ele>154.8</ele>
        <time>2025-01-10T10:52:51.000Z</time>
      </trkpt>
      <trkpt lat="43.58075" lon="6.77208">
        <ele>154.8</ele>
        <time>2025-01-10T10:52:50.000Z</time>
        <extensions>
          <visugpx:TrkExtension xmlns:visugpx="https://www.visugpx.com/editgpx/">
            <visugpx:node>1</visugpx:node>
            </visugpx:TrkExtension>
        </extensions>
      </trkpt>
    </trkseg>
  </trk>
  <trk>
    <name><![CDATA[Tour du Lac St Cassien_2]]></name>
    <extensions>
      <line xmlns="http://www.topografix.com/GPX/gpx_style/0/2">
        <color>FF0000</color>
        <width>4</width>
      </line>
    </extensions>
    <trkseg>
      <trkpt lat="43.58864" lon="6.77749">
        <ele>152.7</ele>
        <time>2025-10-24T08:45:19.000Z</time>
      </trkpt>
      <trkpt lat="43.58865" lon="6.7775">
        <ele>152.8</ele>
        <time>2025-10-24T08:45:20.000Z</time>
      </trkpt>
      <trkpt lat="43.58866" lon="6.7775">
        <ele>152.8</ele>
        <time>2025-10-24T08:45:21.000Z</time>
      </trkpt>
      <trkpt lat="43.58867" lon="6.77751">
        <ele>152.8</ele>
        <time>2025-10-24T08:45:22.000Z</time>
      </trkpt>
      <trkpt lat="43.58867" lon="6.77752">
        <ele>152.9</ele>
        <time>2025-10-24T08:45:23.000Z</time>
      </trkpt>
      <trkpt lat="43.58868" lon="6.77752">
        <ele>152.9</ele>
        <time>2025-10-24T08:45:24.000Z</time>
      </trkpt>
      <trkpt lat="43.58868" lon="6.77752">
        <ele>152.9</ele>
        <time>2025-10-24T08:45:25.000Z</time>
      </trkpt>
      <trkpt lat="43.58869" lon="6.77752">
        <ele>152.9</ele>
        <time>2025-10-24T08:45:26.000Z</time>
      </trkpt>
      <trkpt lat="43.58869" lon="6.77752">
        <ele>152.9</ele>
        <time>2025-10-24T08:45:27.000Z</time>
      </trkpt>
      <trkpt lat="43.58869" lon="6.77753">
        <ele>153</ele>
        <time>2025-10-24T08:45:28.000Z</time>
      </trkpt>
      <trkpt lat="43.58869" lon="6.77753">
        <ele>153</ele>
        <time>2025-10-24T08:45:29.000Z</time>
      </trkpt>
      <trkpt lat="43.5887" lon="6.77752">
        <ele>153</ele>
        <time>2025-10-24T08:45:30.000Z</time>
      </trkpt>
      <trkpt lat="43.58871" lon="6.77752">
        <ele>153.1</ele>
        <time>2025-10-24T08:45:31.000Z</time>
      </trkpt>
      <trkpt lat="43.5887" lon="6.77751">
        <ele>153.1</ele>
        <time>2025-10-24T08:45:32.000Z</time>
      </trkpt>
      <trkpt lat="43.5887" lon="6.77751">
        <ele>153.1</ele>
        <time>2025-10-24T08:45:33.000Z</time>
      </trkpt>
      <trkpt lat="43.5887" lon="6.77751">
        <ele>153.1</ele>
        <time>2025-10-24T08:45:34.000Z</time>
      </trkpt>
      <trkpt lat="43.58871" lon="6.77752">
        <ele>153.1</ele>
        <time>2025-10-24T08:45:35.000Z</time>
      </trkpt>
      <trkpt lat="43.5887" lon="6.77752">
        <ele>153.1</ele>
        <time>2025-10-24T08:45:36.000Z</time>
      </trkpt>
      <trkpt lat="43.5887" lon="6.77752">
        <ele>153.2</ele>
        <time>2025-10-24T08:45:37.000Z</time>
      </trkpt>
      <trkpt lat="43.58869" lon="6.77751">
        <ele>153.2</ele>
        <time>2025-10-24T08:45:38.000Z</time>
      </trkpt>
      <trkpt lat="43.58869" lon="6.77751">
        <ele>153.2</ele>
        <time>2025-10-24T08:45:39.000Z</time>
      </trkpt>
      <trkpt lat="43.58869" lon="6.77751">
        <ele>153.2</ele>
        <time>2025-10-24T08:45:40.000Z</time>
      </trkpt>
      <trkpt lat="43.58869" lon="6.77751">
        <ele>153.2</ele>
        <time>2025-10-24T08:45:41.000Z</time>
      </trkpt>
      <trkpt lat="43.58869" lon="6.77751">
        <ele>153.2</ele>
        <time>2025-10-24T08:45:42.000Z</time>
      </trkpt>
      <trkpt lat="43.58869" lon="6.77751">
        <ele>153.2</ele>
        <time>2025-10-24T08:45:43.000Z</time>
      </trkpt>
      <trkpt lat="43.58869" lon="6.77751">
        <ele>153.2</ele>
        <time>2025-10-24T08:45:44.000Z</time>
      </trkpt>
      <trkpt lat="43.58869" lon="6.77751">
        <ele>153.2</ele>
        <time>2025-10-24T08:45:45.000Z</time>
      </trkpt>
      <trkpt lat="43.58869" lon="6.77751">
        <ele>153.2</ele>
        <time>2025-10-24T08:45:46.000Z</time>
      </trkpt>
      <trkpt lat="43.58869" lon="6.77751">
        <ele>153.2</ele>
        <time>2025-10-24T08:45:47.000Z</time>
      </trkpt>
      <trkpt lat="43.58869" lon="6.77751">
        <ele>153.2</ele>
        <time>2025-10-24T08:45:48.000Z</time>
      </trkpt>
      <trkpt lat="43.58869" lon="6.77751">
        <ele>153.2</ele>
        <time>2025-10-24T08:45:49.000Z</time>
      </trkpt>
      <trkpt lat="43.58869" lon="6.77751">
        <ele>153.2</ele>
        <time>2025-10-24T08:45:50.000Z</time>
      </trkpt>
      <trkpt lat="43.58869" lon="6.77751">
        <ele>153.2</ele>
        <time>2025-10-24T08:45:51.000Z</time>
      </trkpt>
      <trkpt lat="43.58869" lon="6.77751">
        <ele>153.2</ele>
        <time>2025-10-24T08:45:52.000Z</time>
      </trkpt>
      <trkpt lat="43.58869" lon="6.77752">
        <ele>153.2</ele>
        <time>2025-10-24T08:45:53.000Z</time>
      </trkpt>
      <trkpt lat="43.58869" lon="6.77752">
        <ele>153.2</ele>
        <time>2025-10-24T08:45:54.000Z</time>
      </trkpt>
      <trkpt lat="43.5887" lon="6.77752">
        <ele>153.2</ele>
        <time>2025-10-24T08:45:55.000Z</time>
      </trkpt>
      <trkpt lat="43.58872" lon="6.77755">
        <ele>153.4</ele>
        <time>2025-10-24T08:45:56.000Z</time>
      </trkpt>
      <trkpt lat="43.58874" lon="6.77757">
        <ele>153.5</ele>
        <time>2025-10-24T08:45:57.000Z</time>
      </trkpt>
      <trkpt lat="43.58877" lon="6.7776">
        <ele>153.7</ele>
        <time>2025-10-24T08:45:58.000Z</time>
      </trkpt>
      <trkpt lat="43.58878" lon="6.77762">
        <ele>153.8</ele>
        <time>2025-10-24T08:45:59.000Z</time>
      </trkpt>
      <trkpt lat="43.5888" lon="6.77764">
        <ele>153.9</ele>
        <time>2025-10-24T08:46:00.000Z</time>
      </trkpt>
      <trkpt lat="43.58882" lon="6.77767">
        <ele>154</ele>
        <time>2025-10-24T08:46:01.000Z</time>
      </trkpt>
      <trkpt lat="43.58884" lon="6.77769">
        <ele>154.1</ele>
        <time>2025-10-24T08:46:02.000Z</time>
      </trkpt>
      <trkpt lat="43.58885" lon="6.77771">
        <ele>154.2</ele>
        <time>2025-10-24T08:46:03.000Z</time>
      </trkpt>
      <trkpt lat="43.58886" lon="6.77774">
        <ele>154.3</ele>
        <time>2025-10-24T08:46:04.000Z</time>
      </trkpt>
      <trkpt lat="43.58887" lon="6.77776">
        <ele>154.4</ele>
        <time>2025-10-24T08:46:05.000Z</time>
      </trkpt>
      <trkpt lat="43.58888" lon="6.7778">
        <ele>154.5</ele>
        <time>2025-10-24T08:46:06.000Z</time>
      </trkpt>
      <trkpt lat="43.58889" lon="6.77783">
        <ele>154.6</ele>
        <time>2025-10-24T08:46:07.000Z</time>
      </trkpt>
      <trkpt lat="43.5889" lon="6.77786">
        <ele>154.7</ele>
        <time>2025-10-24T08:46:08.000Z</time>
      </trkpt>
      <trkpt lat="43.58892" lon="6.77789">
        <ele>154.8</ele>
        <time>2025-10-24T08:46:09.000Z</time>
      </trkpt>
      <trkpt lat="43.58893" lon="6.77791">
        <ele>154.9</ele>
        <time>2025-10-24T08:46:10.000Z</time>
      </trkpt>
      <trkpt lat="43.58894" lon="6.77793">
        <ele>155</ele>
        <time>2025-10-24T08:46:11.000Z</time>
      </trkpt>
      <trkpt lat="43.58896" lon="6.77796">
        <ele>155.1</ele>
        <time>2025-10-24T08:46:12.000Z</time>
      </trkpt>
      <trkpt lat="43.58897" lon="6.77799">
        <ele>155.2</ele>
        <time>2025-10-24T08:46:13.000Z</time>
      </trkpt>
      <trkpt lat="43.58899" lon="6.77801">
        <ele>155.3</ele>
        <time>2025-10-24T08:46:14.000Z</time>
      </trkpt>
      <trkpt lat="43.58901" lon="6.77804">
        <ele>155.4</ele>
        <time>2025-10-24T08:46:15.000Z</time>
      </trkpt>
      <trkpt lat="43.58902" lon="6.77807">
        <ele>155.5</ele>
        <time>2025-10-24T08:46:16.000Z</time>
      </trkpt>
      <trkpt lat="43.58904" lon="6.7781">
        <ele>155.7</ele>
        <time>2025-10-24T08:46:17.000Z</time>
      </trkpt>
      <trkpt lat="43.58906" lon="6.77813">
        <ele>155.8</ele>
        <time>2025-10-24T08:46:18.000Z</time>
      </trkpt>
      <trkpt lat="43.58909" lon="6.77815">
        <ele>155.9</ele>
        <time>2025-10-24T08:46:19.000Z</time>
      </trkpt>
      <trkpt lat="43.58911" lon="6.77817">
        <ele>156.1</ele>
        <time>2025-10-24T08:46:20.000Z</time>
      </trkpt>
      <trkpt lat="43.58914" lon="6.77819">
        <ele>156.3</ele>
        <time>2025-10-24T08:46:21.000Z</time>
      </trkpt>
      <trkpt lat="43.58917" lon="6.77821">
        <ele>156.5</ele>
        <time>2025-10-24T08:46:22.000Z</time>
      </trkpt>
      <trkpt lat="43.58919" lon="6.77822">
        <ele>156.6</ele>
        <time>2025-10-24T08:46:23.000Z</time>
      </trkpt>
      <trkpt lat="43.58921" lon="6.77823">
        <ele>156.8</ele>
        <time>2025-10-24T08:46:24.000Z</time>
      </trkpt>
      <trkpt lat="43.58923" lon="6.77824">
        <ele>157</ele>
        <time>2025-10-24T08:46:25.000Z</time>
      </trkpt>
      <trkpt lat="43.58926" lon="6.77824">
        <ele>157.2</ele>
        <time>2025-10-24T08:46:26.000Z</time>
      </trkpt>
      <trkpt lat="43.58928" lon="6.77822">
        <ele>157.3</ele>
        <time>2025-10-24T08:46:27.000Z</time>
      </trkpt>
      <trkpt lat="43.58929" lon="6.7782">
        <ele>157.4</ele>
        <time>2025-10-24T08:46:28.000Z</time>
      </trkpt>
      <trkpt lat="43.5893" lon="6.77816">
        <ele>157.5</ele>
        <time>2025-10-24T08:46:29.000Z</time>
      </trkpt>
      <trkpt lat="43.58929" lon="6.77813">
        <ele>157.6</ele>
        <time>2025-10-24T08:46:30.000Z</time>
      </trkpt>
      <trkpt lat="43.58928" lon="6.77809">
        <ele>157.8</ele>
        <time>2025-10-24T08:46:31.000Z</time>
      </trkpt>
      <trkpt lat="43.58927" lon="6.77805">
        <ele>158</ele>
        <time>2025-10-24T08:46:32.000Z</time>
      </trkpt>
      <trkpt lat="43.58925" lon="6.77801">
        <ele>158.1</ele>
        <time>2025-10-24T08:46:33.000Z</time>
      </trkpt>
      <trkpt lat="43.58924" lon="6.77799">
        <ele>158.3</ele>
        <time>2025-10-24T08:46:34.000Z</time>
      </trkpt>
      <trkpt lat="43.58923" lon="6.77796">
        <ele>158.5</ele>
        <time>2025-10-24T08:46:35.000Z</time>
      </trkpt>
      <trkpt lat="43.58921" lon="6.77792">
        <ele>158.8</ele>
        <time>2025-10-24T08:46:36.000Z</time>
      </trkpt>
      <trkpt lat="43.58919" lon="6.77789">
        <ele>159</ele>
        <time>2025-10-24T08:46:37.000Z</time>
      </trkpt>
      <trkpt lat="43.58918" lon="6.77786">
        <ele>159.2</ele>
        <time>2025-10-24T08:46:38.000Z</time>
      </trkpt>
      <trkpt lat="43.58916" lon="6.77783">
        <ele>159.5</ele>
        <time>2025-10-24T08:46:39.000Z</time>
      </trkpt>
      <trkpt lat="43.58914" lon="6.77779">
        <ele>159.8</ele>
        <time>2025-10-24T08:46:40.000Z</time>
      </trkpt>
      <trkpt lat="43.58913" lon="6.77776">
        <ele>160.1</ele>
        <time>2025-10-24T08:46:41.000Z</time>
      </trkpt>
      <trkpt lat="43.58912" lon="6.77772">
        <ele>160.3</ele>
        <time>2025-10-24T08:46:42.000Z</time>
      </trkpt>
      <trkpt lat="43.5891" lon="6.77769">
        <ele>160.6</ele>
        <time>2025-10-24T08:46:43.000Z</time>
      </trkpt>
      <trkpt lat="43.58909" lon="6.77765">
        <ele>161</ele>
        <time>2025-10-24T08:46:44.000Z</time>
      </trkpt>
      <trkpt lat="43.58909" lon="6.7776">
        <ele>161.2</ele>
        <time>2025-10-24T08:46:45.000Z</time>
      </trkpt>
      <trkpt lat="43.58909" lon="6.77755">
        <ele>161.4</ele>
        <time>2025-10-24T08:46:46.000Z</time>
      </trkpt>
      <trkpt lat="43.5891" lon="6.7775">
        <ele>161.6</ele>
        <time>2025-10-24T08:46:47.000Z</time>
      </trkpt>
      <trkpt lat="43.58911" lon="6.77745">
        <ele>161.7</ele>
        <time>2025-10-24T08:46:48.000Z</time>
      </trkpt>
      <trkpt lat="43.58913" lon="6.7774">
        <ele>161.9</ele>
        <time>2025-10-24T08:46:49.000Z</time>
      </trkpt>
      <trkpt lat="43.58914" lon="6.77735">
        <ele>162.1</ele>
        <time>2025-10-24T08:46:50.000Z</time>
      </trkpt>
      <trkpt lat="43.58916" lon="6.7773">
        <ele>162.2</ele>
        <time>2025-10-24T08:46:51.000Z</time>
      </trkpt>
      <trkpt lat="43.58918" lon="6.77725">
        <ele>162.3</ele>
        <time>2025-10-24T08:46:52.000Z</time>
      </trkpt>
      <trkpt lat="43.5892" lon="6.77721">
        <ele>162.4</ele>
        <time>2025-10-24T08:46:53.000Z</time>
      </trkpt>
      <trkpt lat="43.58922" lon="6.77715">
        <ele>162.5</ele>
        <time>2025-10-24T08:46:54.000Z</time>
      </trkpt>
      <trkpt lat="43.58924" lon="6.7771">
        <ele>162.6</ele>
        <time>2025-10-24T08:46:55.000Z</time>
      </trkpt>
      <trkpt lat="43.58925" lon="6.77704">
        <ele>162.7</ele>
        <time>2025-10-24T08:46:56.000Z</time>
      </trkpt>
      <trkpt lat="43.58927" lon="6.77698">
        <ele>162.8</ele>
        <time>2025-10-24T08:46:57.000Z</time>
      </trkpt>
      <trkpt lat="43.58929" lon="6.77693">
        <ele>162.9</ele>
        <time>2025-10-24T08:46:58.000Z</time>
      </trkpt>
      <trkpt lat="43.5893" lon="6.77688">
        <ele>163</ele>
        <time>2025-10-24T08:46:59.000Z</time>
      </trkpt>
      <trkpt lat="43.58931" lon="6.77682">
        <ele>163</ele>
        <time>2025-10-24T08:47:00.000Z</time>
      </trkpt>
      <trkpt lat="43.58933" lon="6.77675">
        <ele>163.1</ele>
        <time>2025-10-24T08:47:01.000Z</time>
      </trkpt>
      <trkpt lat="43.58935" lon="6.77669">
        <ele>163.1</ele>
        <time>2025-10-24T08:47:02.000Z</time>
      </trkpt>
      <trkpt lat="43.58936" lon="6.77662">
        <ele>163.2</ele>
        <time>2025-10-24T08:47:03.000Z</time>
      </trkpt>
      <trkpt lat="43.58938" lon="6.77656">
        <ele>163.2</ele>
        <time>2025-10-24T08:47:04.000Z</time>
      </trkpt>
      <trkpt lat="43.5894" lon="6.77649">
        <ele>163.1</ele>
        <time>2025-10-24T08:47:05.000Z</time>
      </trkpt>
      <trkpt lat="43.58942" lon="6.77643">
        <ele>163</ele>
        <time>2025-10-24T08:47:06.000Z</time>
      </trkpt>
      <trkpt lat="43.58944" lon="6.77636">
        <ele>162.9</ele>
        <time>2025-10-24T08:47:07.000Z</time>
      </trkpt>
      <trkpt lat="43.58946" lon="6.77629">
        <ele>162.8</ele>
        <time>2025-10-24T08:47:08.000Z</time>
      </trkpt>
      <trkpt lat="43.58948" lon="6.77622">
        <ele>162.7</ele>
        <time>2025-10-24T08:47:09.000Z</time>
      </trkpt>
      <trkpt lat="43.58949" lon="6.77615">
        <ele>162.6</ele>
        <time>2025-10-24T08:47:10.000Z</time>
      </trkpt>
      <trkpt lat="43.58951" lon="6.77609">
        <ele>162.4</ele>
        <time>2025-10-24T08:47:11.000Z</time>
      </trkpt>
      <trkpt lat="43.58953" lon="6.77602">
        <ele>162.3</ele>
        <time>2025-10-24T08:47:12.000Z</time>
      </trkpt>
      <trkpt lat="43.58955" lon="6.77596">
        <ele>162.3</ele>
        <time>2025-10-24T08:47:13.000Z</time>
      </trkpt>
      <trkpt lat="43.58956" lon="6.7759">
        <ele>162.2</ele>
        <time>2025-10-24T08:47:14.000Z</time>
      </trkpt>
      <trkpt lat="43.58958" lon="6.77584">
        <ele>162.1</ele>
        <time>2025-10-24T08:47:15.000Z</time>
      </trkpt>
      <trkpt lat="43.5896" lon="6.77577">
        <ele>162</ele>
        <time>2025-10-24T08:47:16.000Z</time>
      </trkpt>
      <trkpt lat="43.58961" lon="6.77571">
        <ele>161.9</ele>
        <time>2025-10-24T08:47:17.000Z</time>
      </trkpt>
      <trkpt lat="43.58963" lon="6.77563">
        <ele>161.7</ele>
        <time>2025-10-24T08:47:18.000Z</time>
      </trkpt>
      <trkpt lat="43.58964" lon="6.77556">
        <ele>161.6</ele>
        <time>2025-10-24T08:47:19.000Z</time>
      </trkpt>
      <trkpt lat="43.58966" lon="6.77548">
        <ele>161.4</ele>
        <time>2025-10-24T08:47:20.000Z</time>
      </trkpt>
      <trkpt lat="43.58968" lon="6.77539">
        <ele>161.1</ele>
        <time>2025-10-24T08:47:21.000Z</time>
      </trkpt>
      <trkpt lat="43.58971" lon="6.77531">
        <ele>160.8</ele>
        <time>2025-10-24T08:47:22.000Z</time>
      </trkpt>
      <trkpt lat="43.58973" lon="6.77525">
        <ele>160.6</ele>
        <time>2025-10-24T08:47:23.000Z</time>
      </trkpt>
      <trkpt lat="43.58975" lon="6.77518">
        <ele>160.4</ele>
        <time>2025-10-24T08:47:24.000Z</time>
      </trkpt>
      <trkpt lat="43.58978" lon="6.7751">
        <ele>160.2</ele>
        <time>2025-10-24T08:47:25.000Z</time>
      </trkpt>
      <trkpt lat="43.58981" lon="6.77503">
        <ele>160</ele>
        <time>2025-10-24T08:47:26.000Z</time>
      </trkpt>
      <trkpt lat="43.58984" lon="6.77496">
        <ele>159.9</ele>
        <time>2025-10-24T08:47:27.000Z</time>
      </trkpt>
      <trkpt lat="43.58987" lon="6.77489">
        <ele>159.7</ele>
        <time>2025-10-24T08:47:28.000Z</time>
      </trkpt>
      <trkpt lat="43.58991" lon="6.77482">
        <ele>159.6</ele>
        <time>2025-10-24T08:47:29.000Z</time>
      </trkpt>
      <trkpt lat="43.58994" lon="6.77475">
        <ele>159.6</ele>
        <time>2025-10-24T08:47:30.000Z</time>
      </trkpt>
      <trkpt lat="43.58997" lon="6.77469">
        <ele>159.5</ele>
        <time>2025-10-24T08:47:31.000Z</time>
      </trkpt>
      <trkpt lat="43.59" lon="6.77464">
        <ele>159.5</ele>
        <time>2025-10-24T08:47:32.000Z</time>
      </trkpt>
      <trkpt lat="43.59002" lon="6.7746">
        <ele>159.5</ele>
        <time>2025-10-24T08:47:33.000Z</time>
      </trkpt>
      <trkpt lat="43.59004" lon="6.77457">
        <ele>159.5</ele>
        <time>2025-10-24T08:47:34.000Z</time>
      </trkpt>
      <trkpt lat="43.59005" lon="6.77454">
        <ele>159.5</ele>
        <time>2025-10-24T08:47:35.000Z</time>
      </trkpt>
      <trkpt lat="43.59004" lon="6.77453">
        <ele>159.5</ele>
        <time>2025-10-24T08:47:36.000Z</time>
      </trkpt>
      <trkpt lat="43.59002" lon="6.77454">
        <ele>159.5</ele>
        <time>2025-10-24T08:47:37.000Z</time>
      </trkpt>
      <trkpt lat="43.59001" lon="6.77457">
        <ele>159.5</ele>
        <time>2025-10-24T08:47:38.000Z</time>
      </trkpt>
      <trkpt lat="43.58999" lon="6.77461">
        <ele>159.5</ele>
        <time>2025-10-24T08:47:39.000Z</time>
      </trkpt>
      <trkpt lat="43.58997" lon="6.77465">
        <ele>159.5</ele>
        <time>2025-10-24T08:47:40.000Z</time>
      </trkpt>
      <trkpt lat="43.58995" lon="6.77469">
        <ele>159.5</ele>
        <time>2025-10-24T08:47:41.000Z</time>
      </trkpt>
      <trkpt lat="43.58993" lon="6.77473">
        <ele>159.6</ele>
        <time>2025-10-24T08:47:42.000Z</time>
      </trkpt>
      <trkpt lat="43.5899" lon="6.77477">
        <ele>159.6</ele>
        <time>2025-10-24T08:47:43.000Z</time>
      </trkpt>
      <trkpt lat="43.58989" lon="6.7748">
        <ele>159.6</ele>
        <time>2025-10-24T08:47:44.000Z</time>
      </trkpt>
      <trkpt lat="43.58989" lon="6.77483">
        <ele>159.7</ele>
        <time>2025-10-24T08:47:45.000Z</time>
      </trkpt>
      <trkpt lat="43.5899" lon="6.77484">
        <ele>159.7</ele>
        <time>2025-10-24T08:47:46.000Z</time>
      </trkpt>
      <trkpt lat="43.58992" lon="6.77484">
        <ele>159.7</ele>
        <time>2025-10-24T08:47:47.000Z</time>
      </trkpt>
      <trkpt lat="43.58995" lon="6.77481">
        <ele>159.7</ele>
        <time>2025-10-24T08:47:48.000Z</time>
      </trkpt>
      <trkpt lat="43.58997" lon="6.77478">
        <ele>159.8</ele>
        <time>2025-10-24T08:47:49.000Z</time>
      </trkpt>
      <trkpt lat="43.58999" lon="6.77476">
        <ele>159.8</ele>
        <time>2025-10-24T08:47:50.000Z</time>
      </trkpt>
      <trkpt lat="43.59001" lon="6.77472">
        <ele>159.9</ele>
        <time>2025-10-24T08:47:51.000Z</time>
      </trkpt>
      <trkpt lat="43.59004" lon="6.77467">
        <ele>160</ele>
        <time>2025-10-24T08:47:52.000Z</time>
      </trkpt>
      <trkpt lat="43.59006" lon="6.77462">
        <ele>160.1</ele>
        <time>2025-10-24T08:47:53.000Z</time>
      </trkpt>
      <trkpt lat="43.59009" lon="6.77458">
        <ele>160.2</ele>
        <time>2025-10-24T08:47:54.000Z</time>
      </trkpt>
      <trkpt lat="43.59011" lon="6.77454">
        <ele>160.3</ele>
        <time>2025-10-24T08:47:55.000Z</time>
      </trkpt>
      <trkpt lat="43.59013" lon="6.77451">
        <ele>160.4</ele>
        <time>2025-10-24T08:47:56.000Z</time>
      </trkpt>
      <trkpt lat="43.59016" lon="6.77446">
        <ele>160.5</ele>
        <time>2025-10-24T08:47:57.000Z</time>
      </trkpt>
      <trkpt lat="43.59019" lon="6.77442">
        <ele>160.7</ele>
        <time>2025-10-24T08:47:58.000Z</time>
      </trkpt>
      <trkpt lat="43.59021" lon="6.77437">
        <ele>160.8</ele>
        <time>2025-10-24T08:47:59.000Z</time>
      </trkpt>
      <trkpt lat="43.59023" lon="6.77433">
        <ele>160.9</ele>
        <time>2025-10-24T08:48:00.000Z</time>
      </trkpt>
      <trkpt lat="43.59026" lon="6.77428">
        <ele>161</ele>
        <time>2025-10-24T08:48:01.000Z</time>
      </trkpt>
      <trkpt lat="43.59029" lon="6.77423">
        <ele>161.1</ele>
        <time>2025-10-24T08:48:02.000Z</time>
      </trkpt>
      <trkpt lat="43.59032" lon="6.77417">
        <ele>161.3</ele>
        <time>2025-10-24T08:48:03.000Z</time>
      </trkpt>
      <trkpt lat="43.59034" lon="6.77414">
        <ele>161.4</ele>
        <time>2025-10-24T08:48:04.000Z</time>
      </trkpt>
      <trkpt lat="43.59036" lon="6.77409">
        <ele>161.5</ele>
        <time>2025-10-24T08:48:05.000Z</time>
      </trkpt>
      <trkpt lat="43.59039" lon="6.77405">
        <ele>161.6</ele>
        <time>2025-10-24T08:48:06.000Z</time>
      </trkpt>
      <trkpt lat="43.59041" lon="6.774">
        <ele>161.7</ele>
        <time>2025-10-24T08:48:07.000Z</time>
      </trkpt>
      <trkpt lat="43.59044" lon="6.77395">
        <ele>161.8</ele>
        <time>2025-10-24T08:48:08.000Z</time>
      </trkpt>
      <trkpt lat="43.59046" lon="6.77392">
        <ele>161.9</ele>
        <time>2025-10-24T08:48:09.000Z</time>
      </trkpt>
      <trkpt lat="43.59048" lon="6.77388">
        <ele>161.9</ele>
        <time>2025-10-24T08:48:10.000Z</time>
      </trkpt>
      <trkpt lat="43.5905" lon="6.77385">
        <ele>162</ele>
        <time>2025-10-24T08:48:11.000Z</time>
      </trkpt>
      <trkpt lat="43.59053" lon="6.77381">
        <ele>162.1</ele>
        <time>2025-10-24T08:48:12.000Z</time>
      </trkpt>
      <trkpt lat="43.59055" lon="6.77377">
        <ele>162.2</ele>
        <time>2025-10-24T08:48:13.000Z</time>
      </trkpt>
      <trkpt lat="43.59057" lon="6.77373">
        <ele>162.3</ele>
        <time>2025-10-24T08:48:14.000Z</time>
      </trkpt>
      <trkpt lat="43.59059" lon="6.7737">
        <ele>162.3</ele>
        <time>2025-10-24T08:48:15.000Z</time>
      </trkpt>
      <trkpt lat="43.59061" lon="6.77367">
        <ele>162.4</ele>
        <time>2025-10-24T08:48:16.000Z</time>
      </trkpt>
      <trkpt lat="43.59062" lon="6.77364">
        <ele>162.4</ele>
        <time>2025-10-24T08:48:17.000Z</time>
      </trkpt>
      <trkpt lat="43.59064" lon="6.77362">
        <ele>162.4</ele>
        <time>2025-10-24T08:48:18.000Z</time>
      </trkpt>
      <trkpt lat="43.59065" lon="6.7736">
        <ele>162.4</ele>
        <time>2025-10-24T08:48:19.000Z</time>
      </trkpt>
      <trkpt lat="43.59067" lon="6.77358">
        <ele>162.4</ele>
        <time>2025-10-24T08:48:20.000Z</time>
      </trkpt>
      <trkpt lat="43.59068" lon="6.77356">
        <ele>162.4</ele>
        <time>2025-10-24T08:48:21.000Z</time>
      </trkpt>
      <trkpt lat="43.59069" lon="6.77355">
        <ele>162.4</ele>
        <time>2025-10-24T08:48:22.000Z</time>
      </trkpt>
      <trkpt lat="43.59069" lon="6.77355">
        <ele>162.4</ele>
        <time>2025-10-24T08:48:23.000Z</time>
      </trkpt>
      <trkpt lat="43.59069" lon="6.77355">
        <ele>162.4</ele>
        <time>2025-10-24T08:48:24.000Z</time>
      </trkpt>
      <trkpt lat="43.5907" lon="6.77354">
        <ele>162.3</ele>
        <time>2025-10-24T08:48:25.000Z</time>
      </trkpt>
      <trkpt lat="43.59071" lon="6.77352">
        <ele>162.3</ele>
        <time>2025-10-24T08:48:26.000Z</time>
      </trkpt>
      <trkpt lat="43.59071" lon="6.77352">
        <ele>162.3</ele>
        <time>2025-10-24T08:48:27.000Z</time>
      </trkpt>
      <trkpt lat="43.59071" lon="6.77352">
        <ele>162.3</ele>
        <time>2025-10-24T08:48:28.000Z</time>
      </trkpt>
      <trkpt lat="43.59071" lon="6.77352">
        <ele>162.3</ele>
        <time>2025-10-24T08:48:29.000Z</time>
      </trkpt>
      <trkpt lat="43.59071" lon="6.77352">
        <ele>162.3</ele>
        <time>2025-10-24T08:48:30.000Z</time>
      </trkpt>
      <trkpt lat="43.59071" lon="6.77351">
        <ele>162.3</ele>
        <time>2025-10-24T08:48:31.000Z</time>
      </trkpt>
      <trkpt lat="43.59071" lon="6.77351">
        <ele>162.3</ele>
        <time>2025-10-24T08:48:32.000Z</time>
      </trkpt>
      <trkpt lat="43.59071" lon="6.77351">
        <ele>162.3</ele>
        <time>2025-10-24T08:48:33.000Z</time>
      </trkpt>
      <trkpt lat="43.59071" lon="6.77351">
        <ele>162.3</ele>
        <time>2025-10-24T08:48:34.000Z</time>
      </trkpt>
      <trkpt lat="43.59072" lon="6.77352">
        <ele>162.3</ele>
        <time>2025-10-24T08:48:35.000Z</time>
      </trkpt>
      <trkpt lat="43.59073" lon="6.77353">
        <ele>162.3</ele>
        <time>2025-10-24T08:48:36.000Z</time>
      </trkpt>
      <trkpt lat="43.59073" lon="6.77353">
        <ele>162.3</ele>
        <time>2025-10-24T08:48:37.000Z</time>
      </trkpt>
      <trkpt lat="43.59073" lon="6.77353">
        <ele>162.3</ele>
        <time>2025-10-24T08:48:38.000Z</time>
      </trkpt>
      <trkpt lat="43.59073" lon="6.77353">
        <ele>162.3</ele>
        <time>2025-10-24T08:48:39.000Z</time>
      </trkpt>
      <trkpt lat="43.59073" lon="6.77353">
        <ele>162.3</ele>
        <time>2025-10-24T08:48:40.000Z</time>
      </trkpt>
      <trkpt lat="43.59073" lon="6.77353">
        <ele>162.3</ele>
        <time>2025-10-24T08:48:41.000Z</time>
      </trkpt>
      <trkpt lat="43.59073" lon="6.77353">
        <ele>162.3</ele>
        <time>2025-10-24T08:48:42.000Z</time>
      </trkpt>
      <trkpt lat="43.59073" lon="6.77353">
        <ele>162.3</ele>
        <time>2025-10-24T08:48:43.000Z</time>
      </trkpt>
      <trkpt lat="43.59073" lon="6.77353">
        <ele>162.3</ele>
        <time>2025-10-24T08:48:44.000Z</time>
      </trkpt>
      <trkpt lat="43.59073" lon="6.77353">
        <ele>162.3</ele>
        <time>2025-10-24T08:48:45.000Z</time>
      </trkpt>
      <trkpt lat="43.5907" lon="6.7735">
        <ele>162.2</ele>
        <time>2025-10-24T08:48:46.000Z</time>
      </trkpt>
      <trkpt lat="43.59067" lon="6.77348">
        <ele>161.9</ele>
        <time>2025-10-24T08:48:47.000Z</time>
      </trkpt>
      <trkpt lat="43.59062" lon="6.77348">
        <ele>161.6</ele>
        <time>2025-10-24T08:48:48.000Z</time>
      </trkpt>
      <trkpt lat="43.59059" lon="6.77349">
        <ele>161.4</ele>
        <time>2025-10-24T08:48:49.000Z</time>
      </trkpt>
      <trkpt lat="43.59053" lon="6.77351">
        <ele>161</ele>
        <time>2025-10-24T08:48:50.000Z</time>
      </trkpt>
      <trkpt lat="43.59047" lon="6.77353">
        <ele>160.6</ele>
        <time>2025-10-24T08:48:51.000Z</time>
      </trkpt>
      <trkpt lat="43.59042" lon="6.77355">
        <ele>160.2</ele>
        <time>2025-10-24T08:48:52.000Z</time>
      </trkpt>
      <trkpt lat="43.59037" lon="6.77357">
        <ele>159.8</ele>
        <time>2025-10-24T08:48:53.000Z</time>
      </trkpt>
      <trkpt lat="43.59031" lon="6.77358">
        <ele>159.4</ele>
        <time>2025-10-24T08:48:54.000Z</time>
      </trkpt>
      <trkpt lat="43.59023" lon="6.77361">
        <ele>158.9</ele>
        <time>2025-10-24T08:48:55.000Z</time>
      </trkpt>
      <trkpt lat="43.59017" lon="6.77364">
        <ele>158.5</ele>
        <time>2025-10-24T08:48:56.000Z</time>
      </trkpt>
      <trkpt lat="43.5901" lon="6.77366">
        <ele>158</ele>
        <time>2025-10-24T08:48:57.000Z</time>
      </trkpt>
      <trkpt lat="43.59004" lon="6.77368">
        <ele>157.6</ele>
        <time>2025-10-24T08:48:58.000Z</time>
      </trkpt>
      <trkpt lat="43.58997" lon="6.77369">
        <ele>157.2</ele>
        <time>2025-10-24T08:48:59.000Z</time>
      </trkpt>
      <trkpt lat="43.58988" lon="6.77371">
        <ele>156.7</ele>
        <time>2025-10-24T08:49:00.000Z</time>
      </trkpt>
      <trkpt lat="43.5898" lon="6.77372">
        <ele>156.2</ele>
        <time>2025-10-24T08:49:01.000Z</time>
      </trkpt>
      <trkpt lat="43.58973" lon="6.77373">
        <ele>155.8</ele>
        <time>2025-10-24T08:49:02.000Z</time>
      </trkpt>
      <trkpt lat="43.58965" lon="6.77374">
        <ele>155.4</ele>
        <time>2025-10-24T08:49:03.000Z</time>
      </trkpt>
      <trkpt lat="43.58957" lon="6.77375">
        <ele>155</ele>
        <time>2025-10-24T08:49:04.000Z</time>
      </trkpt>
      <trkpt lat="43.58949" lon="6.77376">
        <ele>154.7</ele>
        <time>2025-10-24T08:49:05.000Z</time>
      </trkpt>
      <trkpt lat="43.58941" lon="6.77376">
        <ele>154.4</ele>
        <time>2025-10-24T08:49:06.000Z</time>
      </trkpt>
      <trkpt lat="43.58933" lon="6.77375">
        <ele>154.2</ele>
        <time>2025-10-24T08:49:07.000Z</time>
      </trkpt>
      <trkpt lat="43.58926" lon="6.77373">
        <ele>154.1</ele>
        <time>2025-10-24T08:49:08.000Z</time>
      </trkpt>
      <trkpt lat="43.58919" lon="6.77371">
        <ele>154</ele>
        <time>2025-10-24T08:49:09.000Z</time>
      </trkpt>
      <trkpt lat="43.58912" lon="6.77367">
        <ele>153.9</ele>
        <time>2025-10-24T08:49:10.000Z</time>
      </trkpt>
      <trkpt lat="43.58906" lon="6.77363">
        <ele>153.9</ele>
        <time>2025-10-24T08:49:11.000Z</time>
      </trkpt>
      <trkpt lat="43.589" lon="6.77359">
        <ele>153.8</ele>
        <time>2025-10-24T08:49:12.000Z</time>
      </trkpt>
      <trkpt lat="43.58895" lon="6.77354">
        <ele>153.7</ele>
        <time>2025-10-24T08:49:13.000Z</time>
      </trkpt>
      <trkpt lat="43.58889" lon="6.7735">
        <ele>153.6</ele>
        <time>2025-10-24T08:49:14.000Z</time>
      </trkpt>
      <trkpt lat="43.58884" lon="6.77345">
        <ele>153.5</ele>
        <time>2025-10-24T08:49:15.000Z</time>
      </trkpt>
      <trkpt lat="43.58879" lon="6.7734">
        <ele>153.4</ele>
        <time>2025-10-24T08:49:16.000Z</time>
      </trkpt>
      <trkpt lat="43.58873" lon="6.77336">
        <ele>153.3</ele>
        <time>2025-10-24T08:49:17.000Z</time>
      </trkpt>
      <trkpt lat="43.58868" lon="6.77331">
        <ele>153.2</ele>
        <time>2025-10-24T08:49:18.000Z</time>
      </trkpt>
      <trkpt lat="43.58862" lon="6.77327">
        <ele>153.1</ele>
        <time>2025-10-24T08:49:19.000Z</time>
      </trkpt>
      <trkpt lat="43.58857" lon="6.77323">
        <ele>153</ele>
        <time>2025-10-24T08:49:20.000Z</time>
      </trkpt>
      <trkpt lat="43.58852" lon="6.77319">
        <ele>153</ele>
        <time>2025-10-24T08:49:21.000Z</time>
      </trkpt>
      <trkpt lat="43.58848" lon="6.77316">
        <ele>152.9</ele>
        <time>2025-10-24T08:49:22.000Z</time>
      </trkpt>
      <trkpt lat="43.58844" lon="6.77312">
        <ele>152.9</ele>
        <time>2025-10-24T08:49:23.000Z</time>
      </trkpt>
      <trkpt lat="43.58839" lon="6.77308">
        <ele>152.9</ele>
        <time>2025-10-24T08:49:24.000Z</time>
      </trkpt>
      <trkpt lat="43.58834" lon="6.77305">
        <ele>152.9</ele>
        <time>2025-10-24T08:49:25.000Z</time>
      </trkpt>
      <trkpt lat="43.58831" lon="6.77302">
        <ele>152.9</ele>
        <time>2025-10-24T08:49:26.000Z</time>
      </trkpt>
      <trkpt lat="43.58828" lon="6.773">
        <ele>152.9</ele>
        <time>2025-10-24T08:49:27.000Z</time>
      </trkpt>
      <trkpt lat="43.58824" lon="6.77297">
        <ele>152.9</ele>
        <time>2025-10-24T08:49:28.000Z</time>
      </trkpt>
      <trkpt lat="43.58821" lon="6.77294">
        <ele>152.9</ele>
        <time>2025-10-24T08:49:29.000Z</time>
      </trkpt>
      <trkpt lat="43.58818" lon="6.77292">
        <ele>152.9</ele>
        <time>2025-10-24T08:49:30.000Z</time>
      </trkpt>
      <trkpt lat="43.58815" lon="6.7729">
        <ele>152.9</ele>
        <time>2025-10-24T08:49:31.000Z</time>
      </trkpt>
      <trkpt lat="43.58813" lon="6.77289">
        <ele>152.9</ele>
        <time>2025-10-24T08:49:32.000Z</time>
      </trkpt>
      <trkpt lat="43.58812" lon="6.7729">
        <ele>152.9</ele>
        <time>2025-10-24T08:49:33.000Z</time>
      </trkpt>
      <trkpt lat="43.58813" lon="6.77292">
        <ele>152.9</ele>
        <time>2025-10-24T08:49:34.000Z</time>
      </trkpt>
      <trkpt lat="43.58814" lon="6.77294">
        <ele>152.9</ele>
        <time>2025-10-24T08:49:35.000Z</time>
      </trkpt>
      <trkpt lat="43.58817" lon="6.77295">
        <ele>152.9</ele>
        <time>2025-10-24T08:49:36.000Z</time>
      </trkpt>
      <trkpt lat="43.5882" lon="6.77297">
        <ele>152.9</ele>
        <time>2025-10-24T08:49:37.000Z</time>
      </trkpt>
      <trkpt lat="43.58823" lon="6.77299">
        <ele>152.9</ele>
        <time>2025-10-24T08:49:38.000Z</time>
      </trkpt>
      <trkpt lat="43.58826" lon="6.77301">
        <ele>152.9</ele>
        <time>2025-10-24T08:49:39.000Z</time>
      </trkpt>
      <trkpt lat="43.58829" lon="6.77303">
        <ele>152.9</ele>
        <time>2025-10-24T08:49:40.000Z</time>
      </trkpt>
      <trkpt lat="43.58833" lon="6.77305">
        <ele>152.9</ele>
        <time>2025-10-24T08:49:41.000Z</time>
      </trkpt>
      <trkpt lat="43.58836" lon="6.77305">
        <ele>152.9</ele>
        <time>2025-10-24T08:49:42.000Z</time>
      </trkpt>
      <trkpt lat="43.58839" lon="6.77303">
        <ele>152.8</ele>
        <time>2025-10-24T08:49:43.000Z</time>
      </trkpt>
      <trkpt lat="43.58842" lon="6.77299">
        <ele>152.7</ele>
        <time>2025-10-24T08:49:44.000Z</time>
      </trkpt>
      <trkpt lat="43.58843" lon="6.77294">
        <ele>152.6</ele>
        <time>2025-10-24T08:49:45.000Z</time>
      </trkpt>
      <trkpt lat="43.58843" lon="6.7729">
        <ele>152.4</ele>
        <time>2025-10-24T08:49:46.000Z</time>
      </trkpt>
      <trkpt lat="43.58843" lon="6.77286">
        <ele>152.3</ele>
        <time>2025-10-24T08:49:47.000Z</time>
      </trkpt>
      <trkpt lat="43.58843" lon="6.7728">
        <ele>152.1</ele>
        <time>2025-10-24T08:49:48.000Z</time>
      </trkpt>
      <trkpt lat="43.58842" lon="6.77276">
        <ele>152</ele>
        <time>2025-10-24T08:49:49.000Z</time>
      </trkpt>
      <trkpt lat="43.58841" lon="6.77271">
        <ele>151.9</ele>
        <time>2025-10-24T08:49:50.000Z</time>
      </trkpt>
      <trkpt lat="43.58839" lon="6.77267">
        <ele>151.8</ele>
        <time>2025-10-24T08:49:51.000Z</time>
      </trkpt>
      <trkpt lat="43.58838" lon="6.77263">
        <ele>151.7</ele>
        <time>2025-10-24T08:49:52.000Z</time>
      </trkpt>
      <trkpt lat="43.58837" lon="6.77259">
        <ele>151.6</ele>
        <time>2025-10-24T08:49:53.000Z</time>
      </trkpt>
      <trkpt lat="43.58836" lon="6.77255">
        <ele>151.5</ele>
        <time>2025-10-24T08:49:54.000Z</time>
      </trkpt>
      <trkpt lat="43.58834" lon="6.77252">
        <ele>151.4</ele>
        <time>2025-10-24T08:49:55.000Z</time>
      </trkpt>
      <trkpt lat="43.58833" lon="6.77249">
        <ele>151.3</ele>
        <time>2025-10-24T08:49:56.000Z</time>
      </trkpt>
      <trkpt lat="43.58831" lon="6.77246">
        <ele>151.2</ele>
        <time>2025-10-24T08:49:57.000Z</time>
      </trkpt>
      <trkpt lat="43.5883" lon="6.77243">
        <ele>151.2</ele>
        <time>2025-10-24T08:49:58.000Z</time>
      </trkpt>
      <trkpt lat="43.58828" lon="6.7724">
        <ele>151.1</ele>
        <time>2025-10-24T08:49:59.000Z</time>
      </trkpt>
      <trkpt lat="43.58827" lon="6.77237">
        <ele>151.1</ele>
        <time>2025-10-24T08:50:00.000Z</time>
      </trkpt>
      <trkpt lat="43.58825" lon="6.77234">
        <ele>151</ele>
        <time>2025-10-24T08:50:01.000Z</time>
      </trkpt>
      <trkpt lat="43.58822" lon="6.77231">
        <ele>150.9</ele>
        <time>2025-10-24T08:50:02.000Z</time>
      </trkpt>
      <trkpt lat="43.5882" lon="6.77228">
        <ele>150.9</ele>
        <time>2025-10-24T08:50:03.000Z</time>
      </trkpt>
      <trkpt lat="43.58817" lon="6.77225">
        <ele>150.8</ele>
        <time>2025-10-24T08:50:04.000Z</time>
      </trkpt>
      <trkpt lat="43.58815" lon="6.77222">
        <ele>150.8</ele>
        <time>2025-10-24T08:50:05.000Z</time>
      </trkpt>
      <trkpt lat="43.58812" lon="6.77219">
        <ele>150.7</ele>
        <time>2025-10-24T08:50:06.000Z</time>
      </trkpt>
      <trkpt lat="43.58809" lon="6.77217">
        <ele>150.6</ele>
        <time>2025-10-24T08:50:07.000Z</time>
      </trkpt>
      <trkpt lat="43.58807" lon="6.77216">
        <ele>150.6</ele>
        <time>2025-10-24T08:50:08.000Z</time>
      </trkpt>
      <trkpt lat="43.58805" lon="6.77216">
        <ele>150.6</ele>
        <time>2025-10-24T08:50:09.000Z</time>
      </trkpt>
      <trkpt lat="43.58803" lon="6.77217">
        <ele>150.5</ele>
        <time>2025-10-24T08:50:10.000Z</time>
      </trkpt>
      <trkpt lat="43.58801" lon="6.77216">
        <ele>150.5</ele>
        <time>2025-10-24T08:50:11.000Z</time>
      </trkpt>
      <trkpt lat="43.58799" lon="6.77214">
        <ele>150.4</ele>
        <time>2025-10-24T08:50:12.000Z</time>
      </trkpt>
      <trkpt lat="43.58797" lon="6.77212">
        <ele>150.4</ele>
        <time>2025-10-24T08:50:13.000Z</time>
      </trkpt>
      <trkpt lat="43.58795" lon="6.7721">
        <ele>150.3</ele>
        <time>2025-10-24T08:50:14.000Z</time>
      </trkpt>
      <trkpt lat="43.58794" lon="6.77208">
        <ele>150.3</ele>
        <time>2025-10-24T08:50:15.000Z</time>
      </trkpt>
      <trkpt lat="43.58792" lon="6.77206">
        <ele>150.2</ele>
        <time>2025-10-24T08:50:16.000Z</time>
      </trkpt>
      <trkpt lat="43.58791" lon="6.77204">
        <ele>150.2</ele>
        <time>2025-10-24T08:50:17.000Z</time>
      </trkpt>
      <trkpt lat="43.5879" lon="6.77202">
        <ele>150.1</ele>
        <time>2025-10-24T08:50:18.000Z</time>
      </trkpt>
      <trkpt lat="43.58789" lon="6.772">
        <ele>150.1</ele>
        <time>2025-10-24T08:50:19.000Z</time>
      </trkpt>
      <trkpt lat="43.58788" lon="6.772">
        <ele>150.1</ele>
        <time>2025-10-24T08:50:20.000Z</time>
      </trkpt>
      <trkpt lat="43.58788" lon="6.77199">
        <ele>150.1</ele>
        <time>2025-10-24T08:50:21.000Z</time>
      </trkpt>
      <trkpt lat="43.58788" lon="6.77199">
        <ele>150.1</ele>
        <time>2025-10-24T08:50:22.000Z</time>
      </trkpt>
      <trkpt lat="43.58788" lon="6.77199">
        <ele>150.1</ele>
        <time>2025-10-24T08:50:23.000Z</time>
      </trkpt>
      <trkpt lat="43.58788" lon="6.77199">
        <ele>150.1</ele>
        <time>2025-10-24T08:50:24.000Z</time>
      </trkpt>
      <trkpt lat="43.58788" lon="6.77199">
        <ele>150.1</ele>
        <time>2025-10-24T08:50:25.000Z</time>
      </trkpt>
      <trkpt lat="43.58787" lon="6.77198">
        <ele>150.1</ele>
        <time>2025-10-24T08:50:26.000Z</time>
      </trkpt>
      <trkpt lat="43.58787" lon="6.77198">
        <ele>150</ele>
        <time>2025-10-24T08:50:27.000Z</time>
      </trkpt>
      <trkpt lat="43.58786" lon="6.77197">
        <ele>150</ele>
        <time>2025-10-24T08:50:28.000Z</time>
      </trkpt>
      <trkpt lat="43.58785" lon="6.77196">
        <ele>150</ele>
        <time>2025-10-24T08:50:29.000Z</time>
      </trkpt>
      <trkpt lat="43.58783" lon="6.77195">
        <ele>150</ele>
        <time>2025-10-24T08:50:30.000Z</time>
      </trkpt>
      <trkpt lat="43.58782" lon="6.77194">
        <ele>149.9</ele>
        <time>2025-10-24T08:50:31.000Z</time>
      </trkpt>
      <trkpt lat="43.5878" lon="6.77192">
        <ele>149.9</ele>
        <time>2025-10-24T08:50:32.000Z</time>
      </trkpt>
      <trkpt lat="43.58778" lon="6.7719">
        <ele>149.9</ele>
        <time>2025-10-24T08:50:33.000Z</time>
      </trkpt>
      <trkpt lat="43.58776" lon="6.77188">
        <ele>149.8</ele>
        <time>2025-10-24T08:50:34.000Z</time>
      </trkpt>
      <trkpt lat="43.58773" lon="6.77185">
        <ele>149.8</ele>
        <time>2025-10-24T08:50:35.000Z</time>
      </trkpt>
      <trkpt lat="43.5877" lon="6.77181">
        <ele>149.8</ele>
        <time>2025-10-24T08:50:36.000Z</time>
      </trkpt>
      <trkpt lat="43.58766" lon="6.77178">
        <ele>149.8</ele>
        <time>2025-10-24T08:50:37.000Z</time>
      </trkpt>
      <trkpt lat="43.58763" lon="6.77174">
        <ele>149.8</ele>
        <time>2025-10-24T08:50:38.000Z</time>
      </trkpt>
      <trkpt lat="43.58761" lon="6.7717">
        <ele>149.7</ele>
        <time>2025-10-24T08:50:39.000Z</time>
      </trkpt>
      <trkpt lat="43.58758" lon="6.77166">
        <ele>149.7</ele>
        <time>2025-10-24T08:50:40.000Z</time>
      </trkpt>
      <trkpt lat="43.58755" lon="6.77161">
        <ele>149.7</ele>
        <time>2025-10-24T08:50:41.000Z</time>
      </trkpt>
      <trkpt lat="43.58753" lon="6.77157">
        <ele>149.7</ele>
        <time>2025-10-24T08:50:42.000Z</time>
      </trkpt>
      <trkpt lat="43.58751" lon="6.77152">
        <ele>149.7</ele>
        <time>2025-10-24T08:50:43.000Z</time>
      </trkpt>
      <trkpt lat="43.58748" lon="6.77148">
        <ele>149.7</ele>
        <time>2025-10-24T08:50:44.000Z</time>
      </trkpt>
      <trkpt lat="43.58745" lon="6.77145">
        <ele>149.7</ele>
        <time>2025-10-24T08:50:45.000Z</time>
      </trkpt>
      <trkpt lat="43.58743" lon="6.77143">
        <ele>149.8</ele>
        <time>2025-10-24T08:50:46.000Z</time>
      </trkpt>
      <trkpt lat="43.5874" lon="6.7714">
        <ele>149.8</ele>
        <time>2025-10-24T08:50:47.000Z</time>
      </trkpt>
      <trkpt lat="43.58738" lon="6.77138">
        <ele>149.8</ele>
        <time>2025-10-24T08:50:48.000Z</time>
      </trkpt>
      <trkpt lat="43.58735" lon="6.77136">
        <ele>149.8</ele>
        <time>2025-10-24T08:50:49.000Z</time>
      </trkpt>
      <trkpt lat="43.58732" lon="6.77134">
        <ele>149.8</ele>
        <time>2025-10-24T08:50:50.000Z</time>
      </trkpt>
      <trkpt lat="43.58729" lon="6.77132">
        <ele>149.8</ele>
        <time>2025-10-24T08:50:51.000Z</time>
      </trkpt>
      <trkpt lat="43.58727" lon="6.7713">
        <ele>149.8</ele>
        <time>2025-10-24T08:50:52.000Z</time>
      </trkpt>
      <trkpt lat="43.58723" lon="6.77128">
        <ele>149.8</ele>
        <time>2025-10-24T08:50:53.000Z</time>
      </trkpt>
      <trkpt lat="43.5872" lon="6.77126">
        <ele>149.8</ele>
        <time>2025-10-24T08:50:54.000Z</time>
      </trkpt>
      <trkpt lat="43.58717" lon="6.77124">
        <ele>149.8</ele>
        <time>2025-10-24T08:50:55.000Z</time>
      </trkpt>
      <trkpt lat="43.58714" lon="6.77123">
        <ele>149.8</ele>
        <time>2025-10-24T08:50:56.000Z</time>
      </trkpt>
      <trkpt lat="43.58712" lon="6.77121">
        <ele>149.9</ele>
        <time>2025-10-24T08:50:57.000Z</time>
      </trkpt>
      <trkpt lat="43.58708" lon="6.77119">
        <ele>149.9</ele>
        <time>2025-10-24T08:50:58.000Z</time>
      </trkpt>
      <trkpt lat="43.58705" lon="6.77118">
        <ele>149.9</ele>
        <time>2025-10-24T08:50:59.000Z</time>
      </trkpt>
      <trkpt lat="43.58702" lon="6.77118">
        <ele>150.3</ele>
        <time>2025-10-24T08:51:00.000Z</time>
      </trkpt>
      <trkpt lat="43.58699" lon="6.77119">
        <ele>150.6</ele>
        <time>2025-10-24T08:51:01.000Z</time>
      </trkpt>
      <trkpt lat="43.58697" lon="6.77121">
        <ele>150.9</ele>
        <time>2025-10-24T08:51:02.000Z</time>
      </trkpt>
      <trkpt lat="43.58694" lon="6.77124">
        <ele>151.2</ele>
        <time>2025-10-24T08:51:03.000Z</time>
      </trkpt>
      <trkpt lat="43.58692" lon="6.77128">
        <ele>151.6</ele>
        <time>2025-10-24T08:51:04.000Z</time>
      </trkpt>
      <trkpt lat="43.5869" lon="6.77131">
        <ele>151.9</ele>
        <time>2025-10-24T08:51:05.000Z</time>
      </trkpt>
      <trkpt lat="43.58687" lon="6.77134">
        <ele>152.2</ele>
        <time>2025-10-24T08:51:06.000Z</time>
      </trkpt>
      <trkpt lat="43.58685" lon="6.77136">
        <ele>152.4</ele>
        <time>2025-10-24T08:51:07.000Z</time>
      </trkpt>
      <trkpt lat="43.58682" lon="6.77137">
        <ele>152.7</ele>
        <time>2025-10-24T08:51:08.000Z</time>
      </trkpt>
      <trkpt lat="43.58679" lon="6.77139">
        <ele>152.9</ele>
        <time>2025-10-24T08:51:09.000Z</time>
      </trkpt>
      <trkpt lat="43.58676" lon="6.77141">
        <ele>153.2</ele>
        <time>2025-10-24T08:51:10.000Z</time>
      </trkpt>
      <trkpt lat="43.58673" lon="6.77142">
        <ele>153.4</ele>
        <time>2025-10-24T08:51:11.000Z</time>
      </trkpt>
      <trkpt lat="43.58669" lon="6.77144">
        <ele>153.5</ele>
        <time>2025-10-24T08:51:12.000Z</time>
      </trkpt>
      <trkpt lat="43.58666" lon="6.77146">
        <ele>153.7</ele>
        <time>2025-10-24T08:51:13.000Z</time>
      </trkpt>
      <trkpt lat="43.58664" lon="6.77147">
        <ele>153.8</ele>
        <time>2025-10-24T08:51:14.000Z</time>
      </trkpt>
      <trkpt lat="43.58661" lon="6.77149">
        <ele>153.9</ele>
        <time>2025-10-24T08:51:15.000Z</time>
      </trkpt>
      <trkpt lat="43.58659" lon="6.7715">
        <ele>154</ele>
        <time>2025-10-24T08:51:16.000Z</time>
      </trkpt>
      <trkpt lat="43.58656" lon="6.7715">
        <ele>154.2</ele>
        <time>2025-10-24T08:51:17.000Z</time>
      </trkpt>
      <trkpt lat="43.58653" lon="6.77151">
        <ele>154.3</ele>
        <time>2025-10-24T08:51:18.000Z</time>
      </trkpt>
      <trkpt lat="43.58652" lon="6.77151">
        <ele>154.3</ele>
        <time>2025-10-24T08:51:19.000Z</time>
      </trkpt>
      <trkpt lat="43.5865" lon="6.77151">
        <ele>154.4</ele>
        <time>2025-10-24T08:51:20.000Z</time>
      </trkpt>
      <trkpt lat="43.58648" lon="6.77152">
        <ele>154.5</ele>
        <time>2025-10-24T08:51:21.000Z</time>
      </trkpt>
      <trkpt lat="43.58647" lon="6.77153">
        <ele>154.5</ele>
        <time>2025-10-24T08:51:22.000Z</time>
        <extensions>
          <visugpx:TrkExtension xmlns:visugpx="https://www.visugpx.com/editgpx/">
            <visugpx:node>1</visugpx:node>
            </visugpx:TrkExtension>
        </extensions>
      </trkpt>
    </trkseg>
  </trk>
  <trk>
    <name><![CDATA[Tour du Lac St Cassien_3]]></name>
    <extensions>
      <line xmlns="http://www.topografix.com/GPX/gpx_style/0/2">
        <color>00FFFF</color>
        <width>4</width>
      </line>
    </extensions>
    <trkseg>
      <trkpt lat="43.58218" lon="6.77384">
        <ele>153.5</ele>
        <time>2025-10-24T09:02:12.000Z</time>
      </trkpt>
      <trkpt lat="43.58221" lon="6.77383">
        <ele>153.3</ele>
        <time>2025-10-24T09:02:13.000Z</time>
      </trkpt>
      <trkpt lat="43.58223" lon="6.77383">
        <ele>153.2</ele>
        <time>2025-10-24T09:02:14.000Z</time>
      </trkpt>
      <trkpt lat="43.58225" lon="6.77384">
        <ele>153.1</ele>
        <time>2025-10-24T09:02:15.000Z</time>
      </trkpt>
      <trkpt lat="43.58227" lon="6.77386">
        <ele>152.9</ele>
        <time>2025-10-24T09:02:16.000Z</time>
      </trkpt>
      <trkpt lat="43.58229" lon="6.77389">
        <ele>153.1</ele>
        <time>2025-10-24T09:02:17.000Z</time>
      </trkpt>
      <trkpt lat="43.58232" lon="6.77392">
        <ele>153.3</ele>
        <time>2025-10-24T09:02:18.000Z</time>
      </trkpt>
      <trkpt lat="43.58234" lon="6.77396">
        <ele>153.6</ele>
        <time>2025-10-24T09:02:19.000Z</time>
      </trkpt>
      <trkpt lat="43.58235" lon="6.774">
        <ele>153.9</ele>
        <time>2025-10-24T09:02:20.000Z</time>
      </trkpt>
      <trkpt lat="43.58237" lon="6.77404">
        <ele>154.2</ele>
        <time>2025-10-24T09:02:21.000Z</time>
      </trkpt>
      <trkpt lat="43.58238" lon="6.77407">
        <ele>154.4</ele>
        <time>2025-10-24T09:02:22.000Z</time>
      </trkpt>
      <trkpt lat="43.5824" lon="6.7741">
        <ele>154.7</ele>
        <time>2025-10-24T09:02:23.000Z</time>
      </trkpt>
      <trkpt lat="43.58242" lon="6.77412">
        <ele>154.9</ele>
        <time>2025-10-24T09:02:24.000Z</time>
      </trkpt>
      <trkpt lat="43.58244" lon="6.77414">
        <ele>155.2</ele>
        <time>2025-10-24T09:02:25.000Z</time>
      </trkpt>
      <trkpt lat="43.58247" lon="6.77416">
        <ele>155.5</ele>
        <time>2025-10-24T09:02:26.000Z</time>
      </trkpt>
      <trkpt lat="43.58249" lon="6.77417">
        <ele>155.7</ele>
        <time>2025-10-24T09:02:27.000Z</time>
      </trkpt>
      <trkpt lat="43.58251" lon="6.77418">
        <ele>156</ele>
        <time>2025-10-24T09:02:28.000Z</time>
      </trkpt>
      <trkpt lat="43.58254" lon="6.7742">
        <ele>156.2</ele>
        <time>2025-10-24T09:02:29.000Z</time>
      </trkpt>
      <trkpt lat="43.58256" lon="6.77422">
        <ele>156.4</ele>
        <time>2025-10-24T09:02:30.000Z</time>
      </trkpt>
      <trkpt lat="43.58258" lon="6.77423">
        <ele>156.5</ele>
        <time>2025-10-24T09:02:31.000Z</time>
      </trkpt>
      <trkpt lat="43.5826" lon="6.77426">
        <ele>156.7</ele>
        <time>2025-10-24T09:02:32.000Z</time>
      </trkpt>
      <trkpt lat="43.58262" lon="6.77429">
        <ele>156.8</ele>
        <time>2025-10-24T09:02:33.000Z</time>
      </trkpt>
      <trkpt lat="43.58264" lon="6.77432">
        <ele>157</ele>
        <time>2025-10-24T09:02:34.000Z</time>
      </trkpt>
      <trkpt lat="43.58265" lon="6.77435">
        <ele>157.1</ele>
        <time>2025-10-24T09:02:35.000Z</time>
      </trkpt>
      <trkpt lat="43.58265" lon="6.77439">
        <ele>157.2</ele>
        <time>2025-10-24T09:02:36.000Z</time>
      </trkpt>
      <trkpt lat="43.58265" lon="6.77443">
        <ele>157.3</ele>
        <time>2025-10-24T09:02:37.000Z</time>
      </trkpt>
      <trkpt lat="43.58265" lon="6.77446">
        <ele>157.5</ele>
        <time>2025-10-24T09:02:38.000Z</time>
      </trkpt>
      <trkpt lat="43.58263" lon="6.7745">
        <ele>157.6</ele>
        <time>2025-10-24T09:02:39.000Z</time>
      </trkpt>
      <trkpt lat="43.58262" lon="6.77454">
        <ele>157.8</ele>
        <time>2025-10-24T09:02:40.000Z</time>
      </trkpt>
      <trkpt lat="43.5826" lon="6.77458">
        <ele>158</ele>
        <time>2025-10-24T09:02:41.000Z</time>
      </trkpt>
      <trkpt lat="43.58259" lon="6.77462">
        <ele>158.2</ele>
        <time>2025-10-24T09:02:42.000Z</time>
      </trkpt>
      <trkpt lat="43.58258" lon="6.77466">
        <ele>158.4</ele>
        <time>2025-10-24T09:02:43.000Z</time>
      </trkpt>
      <trkpt lat="43.58257" lon="6.7747">
        <ele>158.6</ele>
        <time>2025-10-24T09:02:44.000Z</time>
      </trkpt>
      <trkpt lat="43.58255" lon="6.77474">
        <ele>158.8</ele>
        <time>2025-10-24T09:02:45.000Z</time>
      </trkpt>
      <trkpt lat="43.58254" lon="6.77477">
        <ele>159.1</ele>
        <time>2025-10-24T09:02:46.000Z</time>
      </trkpt>
      <trkpt lat="43.58253" lon="6.77481">
        <ele>159.3</ele>
        <time>2025-10-24T09:02:47.000Z</time>
      </trkpt>
      <trkpt lat="43.58251" lon="6.77485">
        <ele>159.5</ele>
        <time>2025-10-24T09:02:48.000Z</time>
      </trkpt>
      <trkpt lat="43.5825" lon="6.77489">
        <ele>159.7</ele>
        <time>2025-10-24T09:02:49.000Z</time>
      </trkpt>
      <trkpt lat="43.58248" lon="6.77493">
        <ele>160</ele>
        <time>2025-10-24T09:02:50.000Z</time>
      </trkpt>
      <trkpt lat="43.58247" lon="6.77497">
        <ele>160.2</ele>
        <time>2025-10-24T09:02:51.000Z</time>
      </trkpt>
      <trkpt lat="43.58246" lon="6.77502">
        <ele>160.4</ele>
        <time>2025-10-24T09:02:52.000Z</time>
      </trkpt>
      <trkpt lat="43.58245" lon="6.77506">
        <ele>160.6</ele>
        <time>2025-10-24T09:02:53.000Z</time>
      </trkpt>
      <trkpt lat="43.58244" lon="6.77511">
        <ele>160.8</ele>
        <time>2025-10-24T09:02:54.000Z</time>
      </trkpt>
      <trkpt lat="43.58243" lon="6.77515">
        <ele>160.9</ele>
        <time>2025-10-24T09:02:55.000Z</time>
      </trkpt>
      <trkpt lat="43.58242" lon="6.7752">
        <ele>161.1</ele>
        <time>2025-10-24T09:02:56.000Z</time>
      </trkpt>
      <trkpt lat="43.5824" lon="6.77525">
        <ele>161.3</ele>
        <time>2025-10-24T09:02:57.000Z</time>
      </trkpt>
      <trkpt lat="43.58239" lon="6.7753">
        <ele>161.4</ele>
        <time>2025-10-24T09:02:58.000Z</time>
      </trkpt>
      <trkpt lat="43.58237" lon="6.77534">
        <ele>161.6</ele>
        <time>2025-10-24T09:02:59.000Z</time>
      </trkpt>
      <trkpt lat="43.58236" lon="6.77539">
        <ele>161.7</ele>
        <time>2025-10-24T09:03:00.000Z</time>
      </trkpt>
      <trkpt lat="43.58234" lon="6.77544">
        <ele>161.9</ele>
        <time>2025-10-24T09:03:01.000Z</time>
      </trkpt>
      <trkpt lat="43.58232" lon="6.77549">
        <ele>162</ele>
        <time>2025-10-24T09:03:02.000Z</time>
      </trkpt>
      <trkpt lat="43.5823" lon="6.77554">
        <ele>162.2</ele>
        <time>2025-10-24T09:03:03.000Z</time>
      </trkpt>
      <trkpt lat="43.58228" lon="6.77558">
        <ele>162.4</ele>
        <time>2025-10-24T09:03:04.000Z</time>
      </trkpt>
      <trkpt lat="43.58226" lon="6.77563">
        <ele>162.6</ele>
        <time>2025-10-24T09:03:05.000Z</time>
      </trkpt>
      <trkpt lat="43.58224" lon="6.77568">
        <ele>162.8</ele>
        <time>2025-10-24T09:03:06.000Z</time>
      </trkpt>
      <trkpt lat="43.58222" lon="6.77573">
        <ele>163.1</ele>
        <time>2025-10-24T09:03:07.000Z</time>
      </trkpt>
      <trkpt lat="43.5822" lon="6.77577">
        <ele>163.3</ele>
        <time>2025-10-24T09:03:08.000Z</time>
      </trkpt>
      <trkpt lat="43.58217" lon="6.77582">
        <ele>163.5</ele>
        <time>2025-10-24T09:03:09.000Z</time>
      </trkpt>
      <trkpt lat="43.58215" lon="6.77586">
        <ele>163.8</ele>
        <time>2025-10-24T09:03:10.000Z</time>
      </trkpt>
      <trkpt lat="43.58213" lon="6.77591">
        <ele>164</ele>
        <time>2025-10-24T09:03:11.000Z</time>
      </trkpt>
      <trkpt lat="43.58211" lon="6.77595">
        <ele>164.2</ele>
        <time>2025-10-24T09:03:12.000Z</time>
      </trkpt>
      <trkpt lat="43.58209" lon="6.77599">
        <ele>164.5</ele>
        <time>2025-10-24T09:03:13.000Z</time>
      </trkpt>
      <trkpt lat="43.58207" lon="6.77604">
        <ele>164.7</ele>
        <time>2025-10-24T09:03:14.000Z</time>
      </trkpt>
      <trkpt lat="43.58205" lon="6.77608">
        <ele>164.9</ele>
        <time>2025-10-24T09:03:15.000Z</time>
      </trkpt>
      <trkpt lat="43.58203" lon="6.77613">
        <ele>165.2</ele>
        <time>2025-10-24T09:03:16.000Z</time>
      </trkpt>
      <trkpt lat="43.58201" lon="6.77616">
        <ele>165.4</ele>
        <time>2025-10-24T09:03:17.000Z</time>
      </trkpt>
      <trkpt lat="43.58199" lon="6.7762">
        <ele>165.6</ele>
        <time>2025-10-24T09:03:18.000Z</time>
      </trkpt>
      <trkpt lat="43.58197" lon="6.77623">
        <ele>165.8</ele>
        <time>2025-10-24T09:03:19.000Z</time>
      </trkpt>
      <trkpt lat="43.58195" lon="6.77626">
        <ele>166</ele>
        <time>2025-10-24T09:03:20.000Z</time>
      </trkpt>
      <trkpt lat="43.58194" lon="6.77629">
        <ele>166.2</ele>
        <time>2025-10-24T09:03:21.000Z</time>
      </trkpt>
      <trkpt lat="43.58192" lon="6.77633">
        <ele>166.3</ele>
        <time>2025-10-24T09:03:22.000Z</time>
      </trkpt>
      <trkpt lat="43.5819" lon="6.77636">
        <ele>166.4</ele>
        <time>2025-10-24T09:03:23.000Z</time>
      </trkpt>
      <trkpt lat="43.58189" lon="6.7764">
        <ele>166.5</ele>
        <time>2025-10-24T09:03:24.000Z</time>
      </trkpt>
      <trkpt lat="43.58187" lon="6.77643">
        <ele>166.6</ele>
        <time>2025-10-24T09:03:25.000Z</time>
      </trkpt>
      <trkpt lat="43.58185" lon="6.77646">
        <ele>166.7</ele>
        <time>2025-10-24T09:03:26.000Z</time>
      </trkpt>
      <trkpt lat="43.58184" lon="6.7765">
        <ele>166.8</ele>
        <time>2025-10-24T09:03:27.000Z</time>
      </trkpt>
      <trkpt lat="43.58181" lon="6.77653">
        <ele>167</ele>
        <time>2025-10-24T09:03:28.000Z</time>
      </trkpt>
      <trkpt lat="43.58179" lon="6.77656">
        <ele>167.2</ele>
        <time>2025-10-24T09:03:29.000Z</time>
      </trkpt>
      <trkpt lat="43.58177" lon="6.77658">
        <ele>167.5</ele>
        <time>2025-10-24T09:03:30.000Z</time>
      </trkpt>
      <trkpt lat="43.58174" lon="6.77661">
        <ele>167.8</ele>
        <time>2025-10-24T09:03:31.000Z</time>
      </trkpt>
      <trkpt lat="43.58171" lon="6.77663">
        <ele>168.1</ele>
        <time>2025-10-24T09:03:32.000Z</time>
      </trkpt>
      <trkpt lat="43.58168" lon="6.77665">
        <ele>168.5</ele>
        <time>2025-10-24T09:03:33.000Z</time>
      </trkpt>
      <trkpt lat="43.58165" lon="6.77668">
        <ele>168.8</ele>
        <time>2025-10-24T09:03:34.000Z</time>
      </trkpt>
      <trkpt lat="43.58162" lon="6.7767">
        <ele>169.2</ele>
        <time>2025-10-24T09:03:35.000Z</time>
      </trkpt>
      <trkpt lat="43.5816" lon="6.77672">
        <ele>169.6</ele>
        <time>2025-10-24T09:03:36.000Z</time>
      </trkpt>
      <trkpt lat="43.58157" lon="6.77675">
        <ele>170</ele>
        <time>2025-10-24T09:03:37.000Z</time>
      </trkpt>
      <trkpt lat="43.58155" lon="6.77677">
        <ele>170.4</ele>
        <time>2025-10-24T09:03:38.000Z</time>
      </trkpt>
      <trkpt lat="43.58153" lon="6.7768">
        <ele>170.9</ele>
        <time>2025-10-24T09:03:39.000Z</time>
      </trkpt>
      <trkpt lat="43.58151" lon="6.77682">
        <ele>171.3</ele>
        <time>2025-10-24T09:03:40.000Z</time>
      </trkpt>
      <trkpt lat="43.58149" lon="6.77684">
        <ele>171.7</ele>
        <time>2025-10-24T09:03:41.000Z</time>
      </trkpt>
      <trkpt lat="43.58147" lon="6.77687">
        <ele>172.2</ele>
        <time>2025-10-24T09:03:42.000Z</time>
      </trkpt>
      <trkpt lat="43.58145" lon="6.7769">
        <ele>172.7</ele>
        <time>2025-10-24T09:03:43.000Z</time>
      </trkpt>
      <trkpt lat="43.58143" lon="6.77692">
        <ele>173.1</ele>
        <time>2025-10-24T09:03:44.000Z</time>
      </trkpt>
      <trkpt lat="43.58141" lon="6.77694">
        <ele>173.5</ele>
        <time>2025-10-24T09:03:45.000Z</time>
      </trkpt>
      <trkpt lat="43.58138" lon="6.77696">
        <ele>174</ele>
        <time>2025-10-24T09:03:46.000Z</time>
      </trkpt>
      <trkpt lat="43.58136" lon="6.77698">
        <ele>174.4</ele>
        <time>2025-10-24T09:03:47.000Z</time>
      </trkpt>
      <trkpt lat="43.58134" lon="6.77699">
        <ele>174.8</ele>
        <time>2025-10-24T09:03:48.000Z</time>
      </trkpt>
      <trkpt lat="43.58131" lon="6.77701">
        <ele>175.3</ele>
        <time>2025-10-24T09:03:49.000Z</time>
      </trkpt>
      <trkpt lat="43.58129" lon="6.77701">
        <ele>175.7</ele>
        <time>2025-10-24T09:03:50.000Z</time>
      </trkpt>
      <trkpt lat="43.58126" lon="6.77702">
        <ele>176.2</ele>
        <time>2025-10-24T09:03:51.000Z</time>
      </trkpt>
      <trkpt lat="43.58123" lon="6.77703">
        <ele>176.7</ele>
        <time>2025-10-24T09:03:52.000Z</time>
      </trkpt>
      <trkpt lat="43.58121" lon="6.77703">
        <ele>177.2</ele>
        <time>2025-10-24T09:03:53.000Z</time>
      </trkpt>
      <trkpt lat="43.58118" lon="6.77703">
        <ele>177.7</ele>
        <time>2025-10-24T09:03:54.000Z</time>
      </trkpt>
      <trkpt lat="43.58115" lon="6.77703">
        <ele>178.2</ele>
        <time>2025-10-24T09:03:55.000Z</time>
      </trkpt>
      <trkpt lat="43.58113" lon="6.77703">
        <ele>178.7</ele>
        <time>2025-10-24T09:03:56.000Z</time>
      </trkpt>
      <trkpt lat="43.58111" lon="6.77703">
        <ele>179.2</ele>
        <time>2025-10-24T09:03:57.000Z</time>
      </trkpt>
      <trkpt lat="43.58108" lon="6.77703">
        <ele>179.7</ele>
        <time>2025-10-24T09:03:58.000Z</time>
      </trkpt>
      <trkpt lat="43.58105" lon="6.77703">
        <ele>180.2</ele>
        <time>2025-10-24T09:03:59.000Z</time>
      </trkpt>
      <trkpt lat="43.58103" lon="6.77703">
        <ele>180.8</ele>
        <time>2025-10-24T09:04:00.000Z</time>
      </trkpt>
      <trkpt lat="43.581" lon="6.77703">
        <ele>181.2</ele>
        <time>2025-10-24T09:04:01.000Z</time>
      </trkpt>
      <trkpt lat="43.58098" lon="6.77703">
        <ele>181.7</ele>
        <time>2025-10-24T09:04:02.000Z</time>
      </trkpt>
      <trkpt lat="43.58095" lon="6.77703">
        <ele>182.2</ele>
        <time>2025-10-24T09:04:03.000Z</time>
      </trkpt>
      <trkpt lat="43.58093" lon="6.77703">
        <ele>182.7</ele>
        <time>2025-10-24T09:04:04.000Z</time>
      </trkpt>
      <trkpt lat="43.5809" lon="6.77704">
        <ele>183.1</ele>
        <time>2025-10-24T09:04:05.000Z</time>
      </trkpt>
      <trkpt lat="43.58088" lon="6.77704">
        <ele>183.6</ele>
        <time>2025-10-24T09:04:06.000Z</time>
      </trkpt>
      <trkpt lat="43.58085" lon="6.77704">
        <ele>184.1</ele>
        <time>2025-10-24T09:04:07.000Z</time>
      </trkpt>
      <trkpt lat="43.58083" lon="6.77704">
        <ele>184.5</ele>
        <time>2025-10-24T09:04:08.000Z</time>
      </trkpt>
      <trkpt lat="43.5808" lon="6.77704">
        <ele>185</ele>
        <time>2025-10-24T09:04:09.000Z</time>
      </trkpt>
      <trkpt lat="43.58078" lon="6.77705">
        <ele>185.4</ele>
        <time>2025-10-24T09:04:10.000Z</time>
      </trkpt>
      <trkpt lat="43.58075" lon="6.77705">
        <ele>185.8</ele>
        <time>2025-10-24T09:04:11.000Z</time>
      </trkpt>
      <trkpt lat="43.58073" lon="6.77706">
        <ele>186.2</ele>
        <time>2025-10-24T09:04:12.000Z</time>
      </trkpt>
      <trkpt lat="43.58071" lon="6.77706">
        <ele>186.5</ele>
        <time>2025-10-24T09:04:13.000Z</time>
      </trkpt>
      <trkpt lat="43.58068" lon="6.77707">
        <ele>186.9</ele>
        <time>2025-10-24T09:04:14.000Z</time>
      </trkpt>
      <trkpt lat="43.58065" lon="6.77708">
        <ele>187.3</ele>
        <time>2025-10-24T09:04:15.000Z</time>
      </trkpt>
      <trkpt lat="43.58063" lon="6.77709">
        <ele>187.7</ele>
        <time>2025-10-24T09:04:16.000Z</time>
      </trkpt>
      <trkpt lat="43.5806" lon="6.77711">
        <ele>188.2</ele>
        <time>2025-10-24T09:04:17.000Z</time>
      </trkpt>
      <trkpt lat="43.58058" lon="6.77712">
        <ele>188.5</ele>
        <time>2025-10-24T09:04:18.000Z</time>
      </trkpt>
      <trkpt lat="43.58055" lon="6.77714">
        <ele>189</ele>
        <time>2025-10-24T09:04:19.000Z</time>
      </trkpt>
      <trkpt lat="43.58053" lon="6.77716">
        <ele>189.4</ele>
        <time>2025-10-24T09:04:20.000Z</time>
      </trkpt>
      <trkpt lat="43.58051" lon="6.77717">
        <ele>189.8</ele>
        <time>2025-10-24T09:04:21.000Z</time>
      </trkpt>
      <trkpt lat="43.58049" lon="6.77719">
        <ele>190.2</ele>
        <time>2025-10-24T09:04:22.000Z</time>
      </trkpt>
      <trkpt lat="43.58047" lon="6.77721">
        <ele>190.7</ele>
        <time>2025-10-24T09:04:23.000Z</time>
      </trkpt>
      <trkpt lat="43.58045" lon="6.77723">
        <ele>191.2</ele>
        <time>2025-10-24T09:04:24.000Z</time>
      </trkpt>
      <trkpt lat="43.58043" lon="6.77726">
        <ele>191.7</ele>
        <time>2025-10-24T09:04:25.000Z</time>
      </trkpt>
      <trkpt lat="43.58041" lon="6.77728">
        <ele>192.1</ele>
        <time>2025-10-24T09:04:26.000Z</time>
      </trkpt>
      <trkpt lat="43.58039" lon="6.77731">
        <ele>192.6</ele>
        <time>2025-10-24T09:04:27.000Z</time>
      </trkpt>
      <trkpt lat="43.58037" lon="6.77734">
        <ele>193.1</ele>
        <time>2025-10-24T09:04:28.000Z</time>
      </trkpt>
      <trkpt lat="43.58036" lon="6.77736">
        <ele>193.5</ele>
        <time>2025-10-24T09:04:29.000Z</time>
      </trkpt>
      <trkpt lat="43.58035" lon="6.77739">
        <ele>193.9</ele>
        <time>2025-10-24T09:04:30.000Z</time>
      </trkpt>
      <trkpt lat="43.58033" lon="6.77742">
        <ele>194.4</ele>
        <time>2025-10-24T09:04:31.000Z</time>
      </trkpt>
      <trkpt lat="43.58032" lon="6.77745">
        <ele>194.8</ele>
        <time>2025-10-24T09:04:32.000Z</time>
      </trkpt>
      <trkpt lat="43.5803" lon="6.77749">
        <ele>195.2</ele>
        <time>2025-10-24T09:04:33.000Z</time>
      </trkpt>
      <trkpt lat="43.58029" lon="6.77752">
        <ele>195.7</ele>
        <time>2025-10-24T09:04:34.000Z</time>
      </trkpt>
      <trkpt lat="43.58028" lon="6.77755">
        <ele>196.1</ele>
        <time>2025-10-24T09:04:35.000Z</time>
      </trkpt>
      <trkpt lat="43.58027" lon="6.77758">
        <ele>196.6</ele>
        <time>2025-10-24T09:04:36.000Z</time>
      </trkpt>
      <trkpt lat="43.58026" lon="6.77762">
        <ele>197</ele>
        <time>2025-10-24T09:04:37.000Z</time>
      </trkpt>
      <trkpt lat="43.58025" lon="6.77765">
        <ele>197.5</ele>
        <time>2025-10-24T09:04:38.000Z</time>
      </trkpt>
      <trkpt lat="43.58023" lon="6.77768">
        <ele>197.9</ele>
        <time>2025-10-24T09:04:39.000Z</time>
      </trkpt>
      <trkpt lat="43.58022" lon="6.77771">
        <ele>198.4</ele>
        <time>2025-10-24T09:04:40.000Z</time>
      </trkpt>
      <trkpt lat="43.58021" lon="6.77774">
        <ele>198.9</ele>
        <time>2025-10-24T09:04:41.000Z</time>
      </trkpt>
      <trkpt lat="43.58019" lon="6.77778">
        <ele>199.5</ele>
        <time>2025-10-24T09:04:42.000Z</time>
      </trkpt>
      <trkpt lat="43.58018" lon="6.77781">
        <ele>199.9</ele>
        <time>2025-10-24T09:04:43.000Z</time>
      </trkpt>
      <trkpt lat="43.58016" lon="6.77783">
        <ele>200.3</ele>
        <time>2025-10-24T09:04:44.000Z</time>
      </trkpt>
      <trkpt lat="43.58014" lon="6.77786">
        <ele>200.8</ele>
        <time>2025-10-24T09:04:45.000Z</time>
      </trkpt>
      <trkpt lat="43.58013" lon="6.77788">
        <ele>201.1</ele>
        <time>2025-10-24T09:04:46.000Z</time>
      </trkpt>
      <trkpt lat="43.58011" lon="6.7779">
        <ele>201.5</ele>
        <time>2025-10-24T09:04:47.000Z</time>
      </trkpt>
      <trkpt lat="43.58009" lon="6.77793">
        <ele>201.8</ele>
        <time>2025-10-24T09:04:48.000Z</time>
      </trkpt>
      <trkpt lat="43.58007" lon="6.77795">
        <ele>202.2</ele>
        <time>2025-10-24T09:04:49.000Z</time>
      </trkpt>
      <trkpt lat="43.58005" lon="6.77798">
        <ele>202.6</ele>
        <time>2025-10-24T09:04:50.000Z</time>
      </trkpt>
      <trkpt lat="43.58003" lon="6.77801">
        <ele>203.1</ele>
        <time>2025-10-24T09:04:51.000Z</time>
      </trkpt>
      <trkpt lat="43.58002" lon="6.77804">
        <ele>203.5</ele>
        <time>2025-10-24T09:04:52.000Z</time>
      </trkpt>
      <trkpt lat="43.58001" lon="6.77807">
        <ele>203.8</ele>
        <time>2025-10-24T09:04:53.000Z</time>
      </trkpt>
      <trkpt lat="43.58" lon="6.7781">
        <ele>204.2</ele>
        <time>2025-10-24T09:04:54.000Z</time>
      </trkpt>
      <trkpt lat="43.57999" lon="6.77813">
        <ele>204.6</ele>
        <time>2025-10-24T09:04:55.000Z</time>
      </trkpt>
      <trkpt lat="43.57998" lon="6.77816">
        <ele>205</ele>
        <time>2025-10-24T09:04:56.000Z</time>
      </trkpt>
      <trkpt lat="43.57997" lon="6.77819">
        <ele>205.4</ele>
        <time>2025-10-24T09:04:57.000Z</time>
      </trkpt>
      <trkpt lat="43.57996" lon="6.77822">
        <ele>205.9</ele>
        <time>2025-10-24T09:04:58.000Z</time>
      </trkpt>
      <trkpt lat="43.57995" lon="6.77826">
        <ele>206.3</ele>
        <time>2025-10-24T09:04:59.000Z</time>
      </trkpt>
      <trkpt lat="43.57994" lon="6.7783">
        <ele>206.8</ele>
        <time>2025-10-24T09:05:00.000Z</time>
      </trkpt>
      <trkpt lat="43.57994" lon="6.77833">
        <ele>207.1</ele>
        <time>2025-10-24T09:05:01.000Z</time>
      </trkpt>
      <trkpt lat="43.57994" lon="6.77836">
        <ele>207.5</ele>
        <time>2025-10-24T09:05:02.000Z</time>
      </trkpt>
      <trkpt lat="43.57993" lon="6.7784">
        <ele>208</ele>
        <time>2025-10-24T09:05:03.000Z</time>
      </trkpt>
      <trkpt lat="43.57993" lon="6.77844">
        <ele>208.4</ele>
        <time>2025-10-24T09:05:04.000Z</time>
      </trkpt>
      <trkpt lat="43.57993" lon="6.77847">
        <ele>208.8</ele>
        <time>2025-10-24T09:05:05.000Z</time>
      </trkpt>
      <trkpt lat="43.57993" lon="6.77851">
        <ele>209.2</ele>
        <time>2025-10-24T09:05:06.000Z</time>
      </trkpt>
      <trkpt lat="43.57994" lon="6.77854">
        <ele>209.6</ele>
        <time>2025-10-24T09:05:07.000Z</time>
      </trkpt>
      <trkpt lat="43.57994" lon="6.77858">
        <ele>209.9</ele>
        <time>2025-10-24T09:05:08.000Z</time>
      </trkpt>
      <trkpt lat="43.57995" lon="6.77861">
        <ele>210.3</ele>
        <time>2025-10-24T09:05:09.000Z</time>
      </trkpt>
      <trkpt lat="43.57996" lon="6.77865">
        <ele>210.7</ele>
        <time>2025-10-24T09:05:10.000Z</time>
      </trkpt>
      <trkpt lat="43.57996" lon="6.77868">
        <ele>211</ele>
        <time>2025-10-24T09:05:11.000Z</time>
      </trkpt>
      <trkpt lat="43.57997" lon="6.77872">
        <ele>211.3</ele>
        <time>2025-10-24T09:05:12.000Z</time>
      </trkpt>
      <trkpt lat="43.57998" lon="6.77875">
        <ele>211.6</ele>
        <time>2025-10-24T09:05:13.000Z</time>
      </trkpt>
      <trkpt lat="43.57999" lon="6.77879">
        <ele>211.9</ele>
        <time>2025-10-24T09:05:14.000Z</time>
      </trkpt>
      <trkpt lat="43.58" lon="6.77883">
        <ele>212.1</ele>
        <time>2025-10-24T09:05:15.000Z</time>
      </trkpt>
      <trkpt lat="43.58" lon="6.77887">
        <ele>212.4</ele>
        <time>2025-10-24T09:05:16.000Z</time>
      </trkpt>
      <trkpt lat="43.58001" lon="6.77891">
        <ele>212.6</ele>
        <time>2025-10-24T09:05:17.000Z</time>
      </trkpt>
      <trkpt lat="43.58002" lon="6.77896">
        <ele>212.9</ele>
        <time>2025-10-24T09:05:18.000Z</time>
      </trkpt>
      <trkpt lat="43.58002" lon="6.77901">
        <ele>213.2</ele>
        <time>2025-10-24T09:05:19.000Z</time>
      </trkpt>
      <trkpt lat="43.58002" lon="6.77906">
        <ele>213.4</ele>
        <time>2025-10-24T09:05:20.000Z</time>
      </trkpt>
      <trkpt lat="43.58002" lon="6.77911">
        <ele>213.7</ele>
        <time>2025-10-24T09:05:21.000Z</time>
      </trkpt>
      <trkpt lat="43.58001" lon="6.77916">
        <ele>214</ele>
        <time>2025-10-24T09:05:22.000Z</time>
      </trkpt>
      <trkpt lat="43.58001" lon="6.77921">
        <ele>214.2</ele>
        <time>2025-10-24T09:05:23.000Z</time>
      </trkpt>
      <trkpt lat="43.58001" lon="6.77926">
        <ele>214.4</ele>
        <time>2025-10-24T09:05:24.000Z</time>
      </trkpt>
      <trkpt lat="43.58" lon="6.77931">
        <ele>214.6</ele>
        <time>2025-10-24T09:05:25.000Z</time>
      </trkpt>
      <trkpt lat="43.58" lon="6.77935">
        <ele>214.7</ele>
        <time>2025-10-24T09:05:26.000Z</time>
      </trkpt>
      <trkpt lat="43.57999" lon="6.7794">
        <ele>214.9</ele>
        <time>2025-10-24T09:05:27.000Z</time>
      </trkpt>
      <trkpt lat="43.57998" lon="6.77945">
        <ele>215</ele>
        <time>2025-10-24T09:05:28.000Z</time>
      </trkpt>
      <trkpt lat="43.57998" lon="6.7795">
        <ele>215.1</ele>
        <time>2025-10-24T09:05:29.000Z</time>
      </trkpt>
      <trkpt lat="43.57997" lon="6.77954">
        <ele>215.1</ele>
        <time>2025-10-24T09:05:30.000Z</time>
      </trkpt>
      <trkpt lat="43.57997" lon="6.77959">
        <ele>215.2</ele>
        <time>2025-10-24T09:05:31.000Z</time>
      </trkpt>
      <trkpt lat="43.57996" lon="6.77964">
        <ele>215.2</ele>
        <time>2025-10-24T09:05:32.000Z</time>
      </trkpt>
      <trkpt lat="43.57995" lon="6.77969">
        <ele>215.3</ele>
        <time>2025-10-24T09:05:33.000Z</time>
      </trkpt>
      <trkpt lat="43.57995" lon="6.77975">
        <ele>215.3</ele>
        <time>2025-10-24T09:05:34.000Z</time>
      </trkpt>
      <trkpt lat="43.57994" lon="6.77981">
        <ele>215.4</ele>
        <time>2025-10-24T09:05:35.000Z</time>
      </trkpt>
      <trkpt lat="43.57994" lon="6.77986">
        <ele>215.5</ele>
        <time>2025-10-24T09:05:36.000Z</time>
      </trkpt>
      <trkpt lat="43.57993" lon="6.77992">
        <ele>215.7</ele>
        <time>2025-10-24T09:05:37.000Z</time>
      </trkpt>
      <trkpt lat="43.57992" lon="6.77998">
        <ele>215.9</ele>
        <time>2025-10-24T09:05:38.000Z</time>
      </trkpt>
      <trkpt lat="43.57991" lon="6.78004">
        <ele>216.1</ele>
        <time>2025-10-24T09:05:39.000Z</time>
      </trkpt>
      <trkpt lat="43.5799" lon="6.7801">
        <ele>216.5</ele>
        <time>2025-10-24T09:05:40.000Z</time>
      </trkpt>
      <trkpt lat="43.57989" lon="6.78016">
        <ele>216.8</ele>
        <time>2025-10-24T09:05:41.000Z</time>
      </trkpt>
      <trkpt lat="43.57988" lon="6.78022">
        <ele>217.2</ele>
        <time>2025-10-24T09:05:42.000Z</time>
      </trkpt>
      <trkpt lat="43.57987" lon="6.78028">
        <ele>217.6</ele>
        <time>2025-10-24T09:05:43.000Z</time>
      </trkpt>
      <trkpt lat="43.57986" lon="6.78035">
        <ele>218.1</ele>
        <time>2025-10-24T09:05:44.000Z</time>
      </trkpt>
      <trkpt lat="43.57985" lon="6.7804">
        <ele>218.4</ele>
        <time>2025-10-24T09:05:45.000Z</time>
      </trkpt>
      <trkpt lat="43.57984" lon="6.78045">
        <ele>218.6</ele>
        <time>2025-10-24T09:05:46.000Z</time>
      </trkpt>
      <trkpt lat="43.57983" lon="6.78051">
        <ele>218.8</ele>
        <time>2025-10-24T09:05:47.000Z</time>
      </trkpt>
      <trkpt lat="43.57982" lon="6.78057">
        <ele>219</ele>
        <time>2025-10-24T09:05:48.000Z</time>
      </trkpt>
      <trkpt lat="43.5798" lon="6.78063">
        <ele>219.2</ele>
        <time>2025-10-24T09:05:49.000Z</time>
      </trkpt>
      <trkpt lat="43.57978" lon="6.78068">
        <ele>219.4</ele>
        <time>2025-10-24T09:05:50.000Z</time>
      </trkpt>
      <trkpt lat="43.57976" lon="6.78073">
        <ele>219.6</ele>
        <time>2025-10-24T09:05:51.000Z</time>
      </trkpt>
      <trkpt lat="43.57973" lon="6.78078">
        <ele>219.8</ele>
        <time>2025-10-24T09:05:52.000Z</time>
      </trkpt>
      <trkpt lat="43.5797" lon="6.78083">
        <ele>220.1</ele>
        <time>2025-10-24T09:05:53.000Z</time>
      </trkpt>
      <trkpt lat="43.57966" lon="6.78086">
        <ele>220.5</ele>
        <time>2025-10-24T09:05:54.000Z</time>
      </trkpt>
      <trkpt lat="43.57963" lon="6.78088">
        <ele>220.9</ele>
        <time>2025-10-24T09:05:55.000Z</time>
      </trkpt>
      <trkpt lat="43.57959" lon="6.78091">
        <ele>221.4</ele>
        <time>2025-10-24T09:05:56.000Z</time>
      </trkpt>
      <trkpt lat="43.57955" lon="6.78093">
        <ele>222</ele>
        <time>2025-10-24T09:05:57.000Z</time>
      </trkpt>
      <trkpt lat="43.57951" lon="6.78094">
        <ele>222.6</ele>
        <time>2025-10-24T09:05:58.000Z</time>
      </trkpt>
      <trkpt lat="43.57947" lon="6.78096">
        <ele>223.1</ele>
        <time>2025-10-24T09:05:59.000Z</time>
      </trkpt>
      <trkpt lat="43.57944" lon="6.78097">
        <ele>223.6</ele>
        <time>2025-10-24T09:06:00.000Z</time>
      </trkpt>
      <trkpt lat="43.57941" lon="6.78098">
        <ele>224.1</ele>
        <time>2025-10-24T09:06:01.000Z</time>
      </trkpt>
      <trkpt lat="43.57937" lon="6.78098">
        <ele>224.6</ele>
        <time>2025-10-24T09:06:02.000Z</time>
      </trkpt>
      <trkpt lat="43.57934" lon="6.78098">
        <ele>225</ele>
        <time>2025-10-24T09:06:03.000Z</time>
      </trkpt>
      <trkpt lat="43.57931" lon="6.78098">
        <ele>225.5</ele>
        <time>2025-10-24T09:06:04.000Z</time>
      </trkpt>
      <trkpt lat="43.57927" lon="6.78097">
        <ele>225.9</ele>
        <time>2025-10-24T09:06:05.000Z</time>
      </trkpt>
      <trkpt lat="43.57923" lon="6.78096">
        <ele>226.4</ele>
        <time>2025-10-24T09:06:06.000Z</time>
      </trkpt>
      <trkpt lat="43.5792" lon="6.78095">
        <ele>226.8</ele>
        <time>2025-10-24T09:06:07.000Z</time>
      </trkpt>
      <trkpt lat="43.57916" lon="6.78093">
        <ele>227.4</ele>
        <time>2025-10-24T09:06:08.000Z</time>
      </trkpt>
      <trkpt lat="43.57913" lon="6.78092">
        <ele>227.8</ele>
        <time>2025-10-24T09:06:09.000Z</time>
      </trkpt>
      <trkpt lat="43.57909" lon="6.7809">
        <ele>228.3</ele>
        <time>2025-10-24T09:06:10.000Z</time>
      </trkpt>
      <trkpt lat="43.57905" lon="6.78088">
        <ele>229</ele>
        <time>2025-10-24T09:06:11.000Z</time>
      </trkpt>
      <trkpt lat="43.57901" lon="6.78087">
        <ele>229.5</ele>
        <time>2025-10-24T09:06:12.000Z</time>
      </trkpt>
      <trkpt lat="43.57898" lon="6.78086">
        <ele>229.9</ele>
        <time>2025-10-24T09:06:13.000Z</time>
      </trkpt>
      <trkpt lat="43.57895" lon="6.78084">
        <ele>230.4</ele>
        <time>2025-10-24T09:06:14.000Z</time>
      </trkpt>
      <trkpt lat="43.57891" lon="6.78083">
        <ele>230.9</ele>
        <time>2025-10-24T09:06:15.000Z</time>
      </trkpt>
      <trkpt lat="43.57888" lon="6.78082">
        <ele>231.4</ele>
        <time>2025-10-24T09:06:16.000Z</time>
      </trkpt>
      <trkpt lat="43.57884" lon="6.78081">
        <ele>231.9</ele>
        <time>2025-10-24T09:06:17.000Z</time>
      </trkpt>
      <trkpt lat="43.5788" lon="6.7808">
        <ele>232.3</ele>
        <time>2025-10-24T09:06:18.000Z</time>
      </trkpt>
      <trkpt lat="43.57877" lon="6.7808">
        <ele>232.7</ele>
        <time>2025-10-24T09:06:19.000Z</time>
      </trkpt>
      <trkpt lat="43.57873" lon="6.78079">
        <ele>233.2</ele>
        <time>2025-10-24T09:06:20.000Z</time>
      </trkpt>
      <trkpt lat="43.57869" lon="6.7808">
        <ele>233.5</ele>
        <time>2025-10-24T09:06:21.000Z</time>
      </trkpt>
      <trkpt lat="43.57865" lon="6.7808">
        <ele>233.9</ele>
        <time>2025-10-24T09:06:22.000Z</time>
      </trkpt>
      <trkpt lat="43.57862" lon="6.78081">
        <ele>234.2</ele>
        <time>2025-10-24T09:06:23.000Z</time>
      </trkpt>
      <trkpt lat="43.57858" lon="6.78081">
        <ele>234.3</ele>
        <time>2025-10-24T09:06:24.000Z</time>
      </trkpt>
      <trkpt lat="43.57855" lon="6.78082">
        <ele>234.4</ele>
        <time>2025-10-24T09:06:25.000Z</time>
      </trkpt>
      <trkpt lat="43.57851" lon="6.78083">
        <ele>234.5</ele>
        <time>2025-10-24T09:06:26.000Z</time>
      </trkpt>
      <trkpt lat="43.57847" lon="6.78083">
        <ele>234.6</ele>
        <time>2025-10-24T09:06:27.000Z</time>
      </trkpt>
      <trkpt lat="43.57843" lon="6.78083">
        <ele>234.7</ele>
        <time>2025-10-24T09:06:28.000Z</time>
      </trkpt>
      <trkpt lat="43.5784" lon="6.78083">
        <ele>234.8</ele>
        <time>2025-10-24T09:06:29.000Z</time>
      </trkpt>
      <trkpt lat="43.57836" lon="6.78084">
        <ele>234.9</ele>
        <time>2025-10-24T09:06:30.000Z</time>
      </trkpt>
      <trkpt lat="43.57835" lon="6.78084">
        <ele>235</ele>
        <time>2025-10-24T09:06:31.000Z</time>
      </trkpt>
      <trkpt lat="43.57833" lon="6.78085">
        <ele>235</ele>
        <time>2025-10-24T09:06:32.000Z</time>
      </trkpt>
      <trkpt lat="43.57833" lon="6.78087">
        <ele>235</ele>
        <time>2025-10-24T09:06:33.000Z</time>
      </trkpt>
      <trkpt lat="43.57833" lon="6.78088">
        <ele>235.1</ele>
        <time>2025-10-24T09:06:34.000Z</time>
      </trkpt>
      <trkpt lat="43.57835" lon="6.78089">
        <ele>235.1</ele>
        <time>2025-10-24T09:06:35.000Z</time>
      </trkpt>
      <trkpt lat="43.57838" lon="6.7809">
        <ele>235</ele>
        <time>2025-10-24T09:06:36.000Z</time>
      </trkpt>
      <trkpt lat="43.57841" lon="6.78089">
        <ele>234.9</ele>
        <time>2025-10-24T09:06:37.000Z</time>
      </trkpt>
      <trkpt lat="43.57844" lon="6.78088">
        <ele>234.8</ele>
        <time>2025-10-24T09:06:38.000Z</time>
      </trkpt>
      <trkpt lat="43.57847" lon="6.78087">
        <ele>234.7</ele>
        <time>2025-10-24T09:06:39.000Z</time>
      </trkpt>
      <trkpt lat="43.57851" lon="6.78086">
        <ele>234.6</ele>
        <time>2025-10-24T09:06:40.000Z</time>
      </trkpt>
      <trkpt lat="43.57854" lon="6.78086">
        <ele>234.4</ele>
        <time>2025-10-24T09:06:41.000Z</time>
      </trkpt>
      <trkpt lat="43.57857" lon="6.78087">
        <ele>234.3</ele>
        <time>2025-10-24T09:06:42.000Z</time>
      </trkpt>
      <trkpt lat="43.57859" lon="6.78089">
        <ele>234.2</ele>
        <time>2025-10-24T09:06:43.000Z</time>
      </trkpt>
      <trkpt lat="43.57862" lon="6.78091">
        <ele>234.2</ele>
        <time>2025-10-24T09:06:44.000Z</time>
      </trkpt>
      <trkpt lat="43.57864" lon="6.78094">
        <ele>234.2</ele>
        <time>2025-10-24T09:06:45.000Z</time>
      </trkpt>
      <trkpt lat="43.57867" lon="6.78098">
        <ele>234.2</ele>
        <time>2025-10-24T09:06:46.000Z</time>
      </trkpt>
      <trkpt lat="43.57868" lon="6.781">
        <ele>234.1</ele>
        <time>2025-10-24T09:06:47.000Z</time>
      </trkpt>
      <trkpt lat="43.57869" lon="6.78104">
        <ele>234.1</ele>
        <time>2025-10-24T09:06:48.000Z</time>
      </trkpt>
      <trkpt lat="43.5787" lon="6.78107">
        <ele>234</ele>
        <time>2025-10-24T09:06:49.000Z</time>
      </trkpt>
      <trkpt lat="43.5787" lon="6.78111">
        <ele>233.8</ele>
        <time>2025-10-24T09:06:50.000Z</time>
      </trkpt>
      <trkpt lat="43.5787" lon="6.78114">
        <ele>233.6</ele>
        <time>2025-10-24T09:06:51.000Z</time>
      </trkpt>
      <trkpt lat="43.57871" lon="6.78116">
        <ele>233.5</ele>
        <time>2025-10-24T09:06:52.000Z</time>
      </trkpt>
      <trkpt lat="43.57871" lon="6.78118">
        <ele>233.4</ele>
        <time>2025-10-24T09:06:53.000Z</time>
      </trkpt>
      <trkpt lat="43.57871" lon="6.78119">
        <ele>233.3</ele>
        <time>2025-10-24T09:06:54.000Z</time>
      </trkpt>
      <trkpt lat="43.57871" lon="6.78119">
        <ele>233.3</ele>
        <time>2025-10-24T09:06:55.000Z</time>
      </trkpt>
      <trkpt lat="43.57871" lon="6.78119">
        <ele>233.3</ele>
        <time>2025-10-24T09:06:56.000Z</time>
      </trkpt>
      <trkpt lat="43.57871" lon="6.78119">
        <ele>233.2</ele>
        <time>2025-10-24T09:06:57.000Z</time>
      </trkpt>
      <trkpt lat="43.57871" lon="6.78119">
        <ele>233.2</ele>
        <time>2025-10-24T09:06:58.000Z</time>
      </trkpt>
      <trkpt lat="43.57871" lon="6.78119">
        <ele>233.2</ele>
        <time>2025-10-24T09:06:59.000Z</time>
      </trkpt>
      <trkpt lat="43.57871" lon="6.7812">
        <ele>233.2</ele>
        <time>2025-10-24T09:07:00.000Z</time>
      </trkpt>
      <trkpt lat="43.57871" lon="6.7812">
        <ele>233.2</ele>
        <time>2025-10-24T09:07:01.000Z</time>
      </trkpt>
      <trkpt lat="43.57871" lon="6.7812">
        <ele>233.2</ele>
        <time>2025-10-24T09:07:02.000Z</time>
      </trkpt>
      <trkpt lat="43.57871" lon="6.7812">
        <ele>233.2</ele>
        <time>2025-10-24T09:07:03.000Z</time>
      </trkpt>
      <trkpt lat="43.57871" lon="6.7812">
        <ele>233.1</ele>
        <time>2025-10-24T09:07:04.000Z</time>
      </trkpt>
      <trkpt lat="43.57871" lon="6.78121">
        <ele>233.1</ele>
        <time>2025-10-24T09:07:05.000Z</time>
      </trkpt>
      <trkpt lat="43.57871" lon="6.78123">
        <ele>232.9</ele>
        <time>2025-10-24T09:07:06.000Z</time>
      </trkpt>
      <trkpt lat="43.57871" lon="6.78126">
        <ele>232.7</ele>
        <time>2025-10-24T09:07:07.000Z</time>
      </trkpt>
      <trkpt lat="43.57872" lon="6.78129">
        <ele>232.4</ele>
        <time>2025-10-24T09:07:08.000Z</time>
      </trkpt>
      <trkpt lat="43.57873" lon="6.78132">
        <ele>232.1</ele>
        <time>2025-10-24T09:07:09.000Z</time>
      </trkpt>
      <trkpt lat="43.57875" lon="6.78136">
        <ele>231.7</ele>
        <time>2025-10-24T09:07:10.000Z</time>
      </trkpt>
      <trkpt lat="43.57876" lon="6.78139">
        <ele>231.4</ele>
        <time>2025-10-24T09:07:11.000Z</time>
      </trkpt>
      <trkpt lat="43.57879" lon="6.78142">
        <ele>231</ele>
        <time>2025-10-24T09:07:12.000Z</time>
      </trkpt>
      <trkpt lat="43.57883" lon="6.78145">
        <ele>230.5</ele>
        <time>2025-10-24T09:07:13.000Z</time>
      </trkpt>
      <trkpt lat="43.57888" lon="6.78146">
        <ele>230.1</ele>
        <time>2025-10-24T09:07:14.000Z</time>
      </trkpt>
      <trkpt lat="43.57892" lon="6.78147">
        <ele>229.8</ele>
        <time>2025-10-24T09:07:15.000Z</time>
      </trkpt>
      <trkpt lat="43.57897" lon="6.78148">
        <ele>229.3</ele>
        <time>2025-10-24T09:07:16.000Z</time>
      </trkpt>
      <trkpt lat="43.57902" lon="6.78148">
        <ele>228.9</ele>
        <time>2025-10-24T09:07:17.000Z</time>
      </trkpt>
      <trkpt lat="43.57907" lon="6.78148">
        <ele>228.5</ele>
        <time>2025-10-24T09:07:18.000Z</time>
      </trkpt>
      <trkpt lat="43.57914" lon="6.78149">
        <ele>228.1</ele>
        <time>2025-10-24T09:07:19.000Z</time>
      </trkpt>
      <trkpt lat="43.57919" lon="6.78149">
        <ele>227.8</ele>
        <time>2025-10-24T09:07:20.000Z</time>
      </trkpt>
      <trkpt lat="43.57924" lon="6.78149">
        <ele>227.5</ele>
        <time>2025-10-24T09:07:21.000Z</time>
      </trkpt>
      <trkpt lat="43.5793" lon="6.7815">
        <ele>227.2</ele>
        <time>2025-10-24T09:07:22.000Z</time>
      </trkpt>
      <trkpt lat="43.57936" lon="6.78151">
        <ele>227.1</ele>
        <time>2025-10-24T09:07:23.000Z</time>
      </trkpt>
      <trkpt lat="43.57942" lon="6.78153">
        <ele>227.1</ele>
        <time>2025-10-24T09:07:24.000Z</time>
      </trkpt>
      <trkpt lat="43.57947" lon="6.78155">
        <ele>227.2</ele>
        <time>2025-10-24T09:07:25.000Z</time>
      </trkpt>
      <trkpt lat="43.57952" lon="6.78157">
        <ele>227.5</ele>
        <time>2025-10-24T09:07:26.000Z</time>
      </trkpt>
      <trkpt lat="43.57958" lon="6.78159">
        <ele>228.1</ele>
        <time>2025-10-24T09:07:27.000Z</time>
      </trkpt>
      <trkpt lat="43.57963" lon="6.7816">
        <ele>228.6</ele>
        <time>2025-10-24T09:07:28.000Z</time>
      </trkpt>
      <trkpt lat="43.57966" lon="6.78161">
        <ele>229.1</ele>
        <time>2025-10-24T09:07:29.000Z</time>
      </trkpt>
      <trkpt lat="43.5797" lon="6.78162">
        <ele>229.7</ele>
        <time>2025-10-24T09:07:30.000Z</time>
      </trkpt>
      <trkpt lat="43.57973" lon="6.78163">
        <ele>230.2</ele>
        <time>2025-10-24T09:07:31.000Z</time>
      </trkpt>
      <trkpt lat="43.57977" lon="6.78165">
        <ele>230.8</ele>
        <time>2025-10-24T09:07:32.000Z</time>
      </trkpt>
      <trkpt lat="43.57981" lon="6.78166">
        <ele>231.5</ele>
        <time>2025-10-24T09:07:33.000Z</time>
      </trkpt>
      <trkpt lat="43.57983" lon="6.78168">
        <ele>231.9</ele>
        <time>2025-10-24T09:07:34.000Z</time>
      </trkpt>
      <trkpt lat="43.57987" lon="6.78169">
        <ele>232.5</ele>
        <time>2025-10-24T09:07:35.000Z</time>
      </trkpt>
      <trkpt lat="43.5799" lon="6.78171">
        <ele>233</ele>
        <time>2025-10-24T09:07:36.000Z</time>
      </trkpt>
      <trkpt lat="43.57993" lon="6.78172">
        <ele>233.5</ele>
        <time>2025-10-24T09:07:37.000Z</time>
      </trkpt>
      <trkpt lat="43.57996" lon="6.78173">
        <ele>233.8</ele>
        <time>2025-10-24T09:07:38.000Z</time>
      </trkpt>
      <trkpt lat="43.57999" lon="6.78173">
        <ele>234.2</ele>
        <time>2025-10-24T09:07:39.000Z</time>
      </trkpt>
      <trkpt lat="43.58002" lon="6.78172">
        <ele>234.6</ele>
        <time>2025-10-24T09:07:40.000Z</time>
      </trkpt>
      <trkpt lat="43.58006" lon="6.78171">
        <ele>234.9</ele>
        <time>2025-10-24T09:07:41.000Z</time>
      </trkpt>
      <trkpt lat="43.58009" lon="6.78169">
        <ele>235.2</ele>
        <time>2025-10-24T09:07:42.000Z</time>
      </trkpt>
      <trkpt lat="43.58012" lon="6.78168">
        <ele>235.4</ele>
        <time>2025-10-24T09:07:43.000Z</time>
      </trkpt>
      <trkpt lat="43.58014" lon="6.78167">
        <ele>235.5</ele>
        <time>2025-10-24T09:07:44.000Z</time>
      </trkpt>
      <trkpt lat="43.58017" lon="6.78167">
        <ele>235.6</ele>
        <time>2025-10-24T09:07:45.000Z</time>
      </trkpt>
      <trkpt lat="43.58021" lon="6.78168">
        <ele>235.7</ele>
        <time>2025-10-24T09:07:46.000Z</time>
      </trkpt>
      <trkpt lat="43.58023" lon="6.7817">
        <ele>235.7</ele>
        <time>2025-10-24T09:07:47.000Z</time>
      </trkpt>
      <trkpt lat="43.58025" lon="6.78172">
        <ele>235.6</ele>
        <time>2025-10-24T09:07:48.000Z</time>
      </trkpt>
      <trkpt lat="43.58027" lon="6.78176">
        <ele>235.5</ele>
        <time>2025-10-24T09:07:49.000Z</time>
      </trkpt>
      <trkpt lat="43.5803" lon="6.78182">
        <ele>235.3</ele>
        <time>2025-10-24T09:07:50.000Z</time>
      </trkpt>
      <trkpt lat="43.58031" lon="6.78187">
        <ele>235.1</ele>
        <time>2025-10-24T09:07:51.000Z</time>
      </trkpt>
      <trkpt lat="43.58033" lon="6.78193">
        <ele>235</ele>
        <time>2025-10-24T09:07:52.000Z</time>
      </trkpt>
      <trkpt lat="43.58035" lon="6.78197">
        <ele>234.8</ele>
        <time>2025-10-24T09:07:53.000Z</time>
      </trkpt>
      <trkpt lat="43.58037" lon="6.78203">
        <ele>234.7</ele>
        <time>2025-10-24T09:07:54.000Z</time>
      </trkpt>
      <trkpt lat="43.5804" lon="6.78209">
        <ele>234.5</ele>
        <time>2025-10-24T09:07:55.000Z</time>
      </trkpt>
      <trkpt lat="43.58042" lon="6.78214">
        <ele>234.4</ele>
        <time>2025-10-24T09:07:56.000Z</time>
      </trkpt>
      <trkpt lat="43.58044" lon="6.78218">
        <ele>234.3</ele>
        <time>2025-10-24T09:07:57.000Z</time>
      </trkpt>
      <trkpt lat="43.58047" lon="6.78223">
        <ele>234.3</ele>
        <time>2025-10-24T09:07:58.000Z</time>
      </trkpt>
      <trkpt lat="43.5805" lon="6.78228">
        <ele>234.3</ele>
        <time>2025-10-24T09:07:59.000Z</time>
      </trkpt>
      <trkpt lat="43.58053" lon="6.78232">
        <ele>234.3</ele>
        <time>2025-10-24T09:08:00.000Z</time>
      </trkpt>
      <trkpt lat="43.58056" lon="6.78236">
        <ele>234.3</ele>
        <time>2025-10-24T09:08:01.000Z</time>
      </trkpt>
      <trkpt lat="43.58058" lon="6.78238">
        <ele>234.3</ele>
        <time>2025-10-24T09:08:02.000Z</time>
      </trkpt>
      <trkpt lat="43.58061" lon="6.78241">
        <ele>234.3</ele>
        <time>2025-10-24T09:08:03.000Z</time>
      </trkpt>
      <trkpt lat="43.58063" lon="6.78243">
        <ele>234.3</ele>
        <time>2025-10-24T09:08:04.000Z</time>
      </trkpt>
      <trkpt lat="43.58066" lon="6.78245">
        <ele>234.3</ele>
        <time>2025-10-24T09:08:05.000Z</time>
      </trkpt>
      <trkpt lat="43.58068" lon="6.78246">
        <ele>234.3</ele>
        <time>2025-10-24T09:08:06.000Z</time>
      </trkpt>
      <trkpt lat="43.5807" lon="6.78248">
        <ele>234.2</ele>
        <time>2025-10-24T09:08:07.000Z</time>
      </trkpt>
      <trkpt lat="43.58072" lon="6.78251">
        <ele>234.1</ele>
        <time>2025-10-24T09:08:08.000Z</time>
      </trkpt>
      <trkpt lat="43.58073" lon="6.78252">
        <ele>234.1</ele>
        <time>2025-10-24T09:08:09.000Z</time>
      </trkpt>
      <trkpt lat="43.58074" lon="6.78253">
        <ele>234</ele>
        <time>2025-10-24T09:08:10.000Z</time>
      </trkpt>
      <trkpt lat="43.58074" lon="6.78254">
        <ele>234</ele>
        <time>2025-10-24T09:08:11.000Z</time>
      </trkpt>
      <trkpt lat="43.58074" lon="6.78254">
        <ele>234</ele>
        <time>2025-10-24T09:08:12.000Z</time>
      </trkpt>
      <trkpt lat="43.58074" lon="6.78254">
        <ele>234</ele>
        <time>2025-10-24T09:08:13.000Z</time>
      </trkpt>
      <trkpt lat="43.58074" lon="6.78254">
        <ele>234</ele>
        <time>2025-10-24T09:08:14.000Z</time>
      </trkpt>
      <trkpt lat="43.58073" lon="6.78254">
        <ele>234</ele>
        <time>2025-10-24T09:08:15.000Z</time>
      </trkpt>
      <trkpt lat="43.58073" lon="6.78254">
        <ele>234</ele>
        <time>2025-10-24T09:08:16.000Z</time>
      </trkpt>
      <trkpt lat="43.58073" lon="6.78254">
        <ele>234</ele>
        <time>2025-10-24T09:08:17.000Z</time>
      </trkpt>
      <trkpt lat="43.58073" lon="6.78254">
        <ele>233.9</ele>
        <time>2025-10-24T09:08:18.000Z</time>
      </trkpt>
      <trkpt lat="43.58073" lon="6.78254">
        <ele>233.9</ele>
        <time>2025-10-24T09:08:19.000Z</time>
      </trkpt>
      <trkpt lat="43.58073" lon="6.78254">
        <ele>233.9</ele>
        <time>2025-10-24T09:08:20.000Z</time>
      </trkpt>
      <trkpt lat="43.58072" lon="6.78254">
        <ele>233.9</ele>
        <time>2025-10-24T09:08:21.000Z</time>
      </trkpt>
      <trkpt lat="43.58072" lon="6.78254">
        <ele>233.9</ele>
        <time>2025-10-24T09:08:22.000Z</time>
      </trkpt>
      <trkpt lat="43.58072" lon="6.78254">
        <ele>233.9</ele>
        <time>2025-10-24T09:08:23.000Z</time>
      </trkpt>
      <trkpt lat="43.58072" lon="6.78254">
        <ele>233.9</ele>
        <time>2025-10-24T09:08:24.000Z</time>
      </trkpt>
      <trkpt lat="43.58072" lon="6.78254">
        <ele>233.9</ele>
        <time>2025-10-24T09:08:25.000Z</time>
      </trkpt>
      <trkpt lat="43.58072" lon="6.78254">
        <ele>233.9</ele>
        <time>2025-10-24T09:08:26.000Z</time>
      </trkpt>
      <trkpt lat="43.58074" lon="6.78257">
        <ele>233.7</ele>
        <time>2025-10-24T09:08:27.000Z</time>
      </trkpt>
      <trkpt lat="43.58075" lon="6.78261">
        <ele>233.5</ele>
        <time>2025-10-24T09:08:28.000Z</time>
      </trkpt>
      <trkpt lat="43.58078" lon="6.78265">
        <ele>233.2</ele>
        <time>2025-10-24T09:08:29.000Z</time>
      </trkpt>
      <trkpt lat="43.58081" lon="6.78269">
        <ele>232.9</ele>
        <time>2025-10-24T09:08:30.000Z</time>
      </trkpt>
      <trkpt lat="43.58084" lon="6.78273">
        <ele>232.5</ele>
        <time>2025-10-24T09:08:31.000Z</time>
      </trkpt>
      <trkpt lat="43.58087" lon="6.78279">
        <ele>232.1</ele>
        <time>2025-10-24T09:08:32.000Z</time>
      </trkpt>
      <trkpt lat="43.58091" lon="6.78283">
        <ele>231.8</ele>
        <time>2025-10-24T09:08:33.000Z</time>
      </trkpt>
      <trkpt lat="43.58094" lon="6.78286">
        <ele>231.5</ele>
        <time>2025-10-24T09:08:34.000Z</time>
      </trkpt>
      <trkpt lat="43.58098" lon="6.7829">
        <ele>231.1</ele>
        <time>2025-10-24T09:08:35.000Z</time>
      </trkpt>
      <trkpt lat="43.58102" lon="6.78293">
        <ele>230.6</ele>
        <time>2025-10-24T09:08:36.000Z</time>
      </trkpt>
      <trkpt lat="43.58106" lon="6.78297">
        <ele>230.1</ele>
        <time>2025-10-24T09:08:37.000Z</time>
      </trkpt>
      <trkpt lat="43.5811" lon="6.78301">
        <ele>229.5</ele>
        <time>2025-10-24T09:08:38.000Z</time>
      </trkpt>
      <trkpt lat="43.58113" lon="6.78304">
        <ele>229.2</ele>
        <time>2025-10-24T09:08:39.000Z</time>
      </trkpt>
      <trkpt lat="43.58117" lon="6.78307">
        <ele>228.7</ele>
        <time>2025-10-24T09:08:40.000Z</time>
      </trkpt>
      <trkpt lat="43.58121" lon="6.78309">
        <ele>228.3</ele>
        <time>2025-10-24T09:08:41.000Z</time>
      </trkpt>
      <trkpt lat="43.58125" lon="6.7831">
        <ele>227.8</ele>
        <time>2025-10-24T09:08:42.000Z</time>
      </trkpt>
      <trkpt lat="43.58128" lon="6.7831">
        <ele>227.5</ele>
        <time>2025-10-24T09:08:43.000Z</time>
      </trkpt>
      <trkpt lat="43.58132" lon="6.78308">
        <ele>227.1</ele>
        <time>2025-10-24T09:08:44.000Z</time>
      </trkpt>
      <trkpt lat="43.58136" lon="6.78306">
        <ele>226.6</ele>
        <time>2025-10-24T09:08:45.000Z</time>
      </trkpt>
      <trkpt lat="43.58139" lon="6.78303">
        <ele>226.1</ele>
        <time>2025-10-24T09:08:46.000Z</time>
      </trkpt>
      <trkpt lat="43.58142" lon="6.783">
        <ele>225.7</ele>
        <time>2025-10-24T09:08:47.000Z</time>
      </trkpt>
      <trkpt lat="43.58145" lon="6.78297">
        <ele>225.2</ele>
        <time>2025-10-24T09:08:48.000Z</time>
      </trkpt>
      <trkpt lat="43.58149" lon="6.78293">
        <ele>224.6</ele>
        <time>2025-10-24T09:08:49.000Z</time>
      </trkpt>
      <trkpt lat="43.58152" lon="6.78289">
        <ele>223.9</ele>
        <time>2025-10-24T09:08:50.000Z</time>
      </trkpt>
      <trkpt lat="43.58155" lon="6.78285">
        <ele>223.3</ele>
        <time>2025-10-24T09:08:51.000Z</time>
      </trkpt>
      <trkpt lat="43.58158" lon="6.7828">
        <ele>222.7</ele>
        <time>2025-10-24T09:08:52.000Z</time>
      </trkpt>
      <trkpt lat="43.58159" lon="6.78277">
        <ele>222.2</ele>
        <time>2025-10-24T09:08:53.000Z</time>
      </trkpt>
      <trkpt lat="43.58161" lon="6.78273">
        <ele>221.7</ele>
        <time>2025-10-24T09:08:54.000Z</time>
      </trkpt>
      <trkpt lat="43.58163" lon="6.78267">
        <ele>221</ele>
        <time>2025-10-24T09:08:55.000Z</time>
      </trkpt>
      <trkpt lat="43.58163" lon="6.78263">
        <ele>220.6</ele>
        <time>2025-10-24T09:08:56.000Z</time>
      </trkpt>
      <trkpt lat="43.58164" lon="6.78257">
        <ele>219.9</ele>
        <time>2025-10-24T09:08:57.000Z</time>
      </trkpt>
      <trkpt lat="43.58164" lon="6.78252">
        <ele>219.4</ele>
        <time>2025-10-24T09:08:58.000Z</time>
      </trkpt>
      <trkpt lat="43.58165" lon="6.78246">
        <ele>218.9</ele>
        <time>2025-10-24T09:08:59.000Z</time>
      </trkpt>
      <trkpt lat="43.58165" lon="6.7824">
        <ele>218.2</ele>
        <time>2025-10-24T09:09:00.000Z</time>
      </trkpt>
      <trkpt lat="43.58165" lon="6.78233">
        <ele>217.7</ele>
        <time>2025-10-24T09:09:01.000Z</time>
      </trkpt>
      <trkpt lat="43.58165" lon="6.78229">
        <ele>217.2</ele>
        <time>2025-10-24T09:09:02.000Z</time>
      </trkpt>
      <trkpt lat="43.58165" lon="6.78223">
        <ele>216.8</ele>
        <time>2025-10-24T09:09:03.000Z</time>
      </trkpt>
      <trkpt lat="43.58165" lon="6.78218">
        <ele>216.4</ele>
        <time>2025-10-24T09:09:04.000Z</time>
      </trkpt>
      <trkpt lat="43.58165" lon="6.78211">
        <ele>216</ele>
        <time>2025-10-24T09:09:05.000Z</time>
      </trkpt>
      <trkpt lat="43.58165" lon="6.78206">
        <ele>215.6</ele>
        <time>2025-10-24T09:09:06.000Z</time>
      </trkpt>
      <trkpt lat="43.58166" lon="6.78201">
        <ele>215.3</ele>
        <time>2025-10-24T09:09:07.000Z</time>
      </trkpt>
      <trkpt lat="43.58166" lon="6.78195">
        <ele>215</ele>
        <time>2025-10-24T09:09:08.000Z</time>
      </trkpt>
      <trkpt lat="43.58166" lon="6.78189">
        <ele>214.7</ele>
        <time>2025-10-24T09:09:09.000Z</time>
      </trkpt>
      <trkpt lat="43.58166" lon="6.78182">
        <ele>214.2</ele>
        <time>2025-10-24T09:09:10.000Z</time>
      </trkpt>
      <trkpt lat="43.58165" lon="6.78175">
        <ele>213.8</ele>
        <time>2025-10-24T09:09:11.000Z</time>
      </trkpt>
      <trkpt lat="43.58164" lon="6.78169">
        <ele>213.4</ele>
        <time>2025-10-24T09:09:12.000Z</time>
      </trkpt>
      <trkpt lat="43.58163" lon="6.78162">
        <ele>212.9</ele>
        <time>2025-10-24T09:09:13.000Z</time>
      </trkpt>
      <trkpt lat="43.58162" lon="6.78156">
        <ele>212.5</ele>
        <time>2025-10-24T09:09:14.000Z</time>
      </trkpt>
      <trkpt lat="43.58162" lon="6.78151">
        <ele>212.1</ele>
        <time>2025-10-24T09:09:15.000Z</time>
      </trkpt>
      <trkpt lat="43.58161" lon="6.78145">
        <ele>211.6</ele>
        <time>2025-10-24T09:09:16.000Z</time>
      </trkpt>
      <trkpt lat="43.5816" lon="6.7814">
        <ele>211.2</ele>
        <time>2025-10-24T09:09:17.000Z</time>
      </trkpt>
      <trkpt lat="43.58158" lon="6.78134">
        <ele>210.7</ele>
        <time>2025-10-24T09:09:18.000Z</time>
      </trkpt>
      <trkpt lat="43.58156" lon="6.78128">
        <ele>210.3</ele>
        <time>2025-10-24T09:09:19.000Z</time>
      </trkpt>
      <trkpt lat="43.58153" lon="6.78124">
        <ele>209.9</ele>
        <time>2025-10-24T09:09:20.000Z</time>
      </trkpt>
      <trkpt lat="43.5815" lon="6.7812">
        <ele>209.5</ele>
        <time>2025-10-24T09:09:21.000Z</time>
      </trkpt>
      <trkpt lat="43.58147" lon="6.78118">
        <ele>209.2</ele>
        <time>2025-10-24T09:09:22.000Z</time>
      </trkpt>
      <trkpt lat="43.58143" lon="6.78116">
        <ele>208.8</ele>
        <time>2025-10-24T09:09:23.000Z</time>
      </trkpt>
      <trkpt lat="43.58139" lon="6.78115">
        <ele>208.5</ele>
        <time>2025-10-24T09:09:24.000Z</time>
      </trkpt>
      <trkpt lat="43.58134" lon="6.78115">
        <ele>208.2</ele>
        <time>2025-10-24T09:09:25.000Z</time>
      </trkpt>
      <trkpt lat="43.5813" lon="6.78116">
        <ele>207.8</ele>
        <time>2025-10-24T09:09:26.000Z</time>
      </trkpt>
      <trkpt lat="43.58126" lon="6.78118">
        <ele>207.6</ele>
        <time>2025-10-24T09:09:27.000Z</time>
      </trkpt>
      <trkpt lat="43.5812" lon="6.7812">
        <ele>207.2</ele>
        <time>2025-10-24T09:09:28.000Z</time>
      </trkpt>
      <trkpt lat="43.58116" lon="6.7812">
        <ele>206.9</ele>
        <time>2025-10-24T09:09:29.000Z</time>
      </trkpt>
      <trkpt lat="43.58113" lon="6.78118">
        <ele>206.6</ele>
        <time>2025-10-24T09:09:30.000Z</time>
      </trkpt>
      <trkpt lat="43.5811" lon="6.78116">
        <ele>206.4</ele>
        <time>2025-10-24T09:09:31.000Z</time>
      </trkpt>
      <trkpt lat="43.58108" lon="6.78112">
        <ele>206</ele>
        <time>2025-10-24T09:09:32.000Z</time>
      </trkpt>
      <trkpt lat="43.58106" lon="6.78107">
        <ele>205.7</ele>
        <time>2025-10-24T09:09:33.000Z</time>
      </trkpt>
      <trkpt lat="43.58105" lon="6.78102">
        <ele>205.3</ele>
        <time>2025-10-24T09:09:34.000Z</time>
      </trkpt>
      <trkpt lat="43.58104" lon="6.78096">
        <ele>204.8</ele>
        <time>2025-10-24T09:09:35.000Z</time>
      </trkpt>
      <trkpt lat="43.58104" lon="6.78091">
        <ele>204.4</ele>
        <time>2025-10-24T09:09:36.000Z</time>
      </trkpt>
      <trkpt lat="43.58104" lon="6.78086">
        <ele>203.9</ele>
        <time>2025-10-24T09:09:37.000Z</time>
      </trkpt>
      <trkpt lat="43.58104" lon="6.78082">
        <ele>203.5</ele>
        <time>2025-10-24T09:09:38.000Z</time>
      </trkpt>
      <trkpt lat="43.58105" lon="6.78077">
        <ele>203</ele>
        <time>2025-10-24T09:09:39.000Z</time>
      </trkpt>
      <trkpt lat="43.58106" lon="6.78073">
        <ele>202.4</ele>
        <time>2025-10-24T09:09:40.000Z</time>
      </trkpt>
      <trkpt lat="43.58107" lon="6.78069">
        <ele>201.9</ele>
        <time>2025-10-24T09:09:41.000Z</time>
      </trkpt>
      <trkpt lat="43.58108" lon="6.78064">
        <ele>201.4</ele>
        <time>2025-10-24T09:09:42.000Z</time>
      </trkpt>
      <trkpt lat="43.5811" lon="6.7806">
        <ele>200.9</ele>
        <time>2025-10-24T09:09:43.000Z</time>
      </trkpt>
      <trkpt lat="43.58111" lon="6.78056">
        <ele>200.4</ele>
        <time>2025-10-24T09:09:44.000Z</time>
      </trkpt>
      <trkpt lat="43.58112" lon="6.78052">
        <ele>199.9</ele>
        <time>2025-10-24T09:09:45.000Z</time>
      </trkpt>
      <trkpt lat="43.58114" lon="6.78048">
        <ele>199.4</ele>
        <time>2025-10-24T09:09:46.000Z</time>
      </trkpt>
      <trkpt lat="43.58115" lon="6.78044">
        <ele>198.9</ele>
        <time>2025-10-24T09:09:47.000Z</time>
      </trkpt>
      <trkpt lat="43.58116" lon="6.7804">
        <ele>198.4</ele>
        <time>2025-10-24T09:09:48.000Z</time>
      </trkpt>
      <trkpt lat="43.58117" lon="6.78036">
        <ele>198</ele>
        <time>2025-10-24T09:09:49.000Z</time>
      </trkpt>
      <trkpt lat="43.58118" lon="6.78032">
        <ele>197.6</ele>
        <time>2025-10-24T09:09:50.000Z</time>
      </trkpt>
      <trkpt lat="43.58119" lon="6.78029">
        <ele>197.2</ele>
        <time>2025-10-24T09:09:51.000Z</time>
      </trkpt>
      <trkpt lat="43.5812" lon="6.78024">
        <ele>196.8</ele>
        <time>2025-10-24T09:09:52.000Z</time>
      </trkpt>
      <trkpt lat="43.58121" lon="6.7802">
        <ele>196.3</ele>
        <time>2025-10-24T09:09:53.000Z</time>
      </trkpt>
      <trkpt lat="43.58123" lon="6.78016">
        <ele>195.9</ele>
        <time>2025-10-24T09:09:54.000Z</time>
      </trkpt>
      <trkpt lat="43.58124" lon="6.78011">
        <ele>195.4</ele>
        <time>2025-10-24T09:09:55.000Z</time>
      </trkpt>
      <trkpt lat="43.58126" lon="6.78006">
        <ele>194.9</ele>
        <time>2025-10-24T09:09:56.000Z</time>
      </trkpt>
      <trkpt lat="43.58127" lon="6.78001">
        <ele>194.4</ele>
        <time>2025-10-24T09:09:57.000Z</time>
      </trkpt>
      <trkpt lat="43.58128" lon="6.77995">
        <ele>193.9</ele>
        <time>2025-10-24T09:09:58.000Z</time>
      </trkpt>
      <trkpt lat="43.58129" lon="6.77989">
        <ele>193.4</ele>
        <time>2025-10-24T09:09:59.000Z</time>
      </trkpt>
      <trkpt lat="43.5813" lon="6.77983">
        <ele>192.9</ele>
        <time>2025-10-24T09:10:00.000Z</time>
      </trkpt>
      <trkpt lat="43.58131" lon="6.77978">
        <ele>192.5</ele>
        <time>2025-10-24T09:10:01.000Z</time>
      </trkpt>
      <trkpt lat="43.58132" lon="6.77973">
        <ele>192</ele>
        <time>2025-10-24T09:10:02.000Z</time>
      </trkpt>
      <trkpt lat="43.58133" lon="6.77968">
        <ele>191.6</ele>
        <time>2025-10-24T09:10:03.000Z</time>
      </trkpt>
      <trkpt lat="43.58134" lon="6.77963">
        <ele>191.1</ele>
        <time>2025-10-24T09:10:04.000Z</time>
      </trkpt>
      <trkpt lat="43.58135" lon="6.77959">
        <ele>190.6</ele>
        <time>2025-10-24T09:10:05.000Z</time>
      </trkpt>
      <trkpt lat="43.58135" lon="6.77955">
        <ele>190.2</ele>
        <time>2025-10-24T09:10:06.000Z</time>
      </trkpt>
      <trkpt lat="43.58135" lon="6.77952">
        <ele>189.9</ele>
        <time>2025-10-24T09:10:07.000Z</time>
      </trkpt>
      <trkpt lat="43.58135" lon="6.77948">
        <ele>189.5</ele>
        <time>2025-10-24T09:10:08.000Z</time>
      </trkpt>
      <trkpt lat="43.58135" lon="6.77944">
        <ele>189.1</ele>
        <time>2025-10-24T09:10:09.000Z</time>
      </trkpt>
      <trkpt lat="43.58135" lon="6.77941">
        <ele>188.8</ele>
        <time>2025-10-24T09:10:10.000Z</time>
      </trkpt>
      <trkpt lat="43.58135" lon="6.7794">
        <ele>188.7</ele>
        <time>2025-10-24T09:10:11.000Z</time>
      </trkpt>
      <trkpt lat="43.58135" lon="6.77939">
        <ele>188.6</ele>
        <time>2025-10-24T09:10:12.000Z</time>
      </trkpt>
      <trkpt lat="43.58135" lon="6.77939">
        <ele>188.6</ele>
        <time>2025-10-24T09:10:13.000Z</time>
      </trkpt>
      <trkpt lat="43.58135" lon="6.77939">
        <ele>188.6</ele>
        <time>2025-10-24T09:10:14.000Z</time>
      </trkpt>
      <trkpt lat="43.58135" lon="6.77939">
        <ele>188.6</ele>
        <time>2025-10-24T09:10:15.000Z</time>
      </trkpt>
      <trkpt lat="43.58135" lon="6.77939">
        <ele>188.5</ele>
        <time>2025-10-24T09:10:16.000Z</time>
      </trkpt>
      <trkpt lat="43.58136" lon="6.77939">
        <ele>188.4</ele>
        <time>2025-10-24T09:10:17.000Z</time>
      </trkpt>
      <trkpt lat="43.58136" lon="6.77939">
        <ele>188.4</ele>
        <time>2025-10-24T09:10:18.000Z</time>
      </trkpt>
      <trkpt lat="43.58136" lon="6.77939">
        <ele>188.4</ele>
        <time>2025-10-24T09:10:19.000Z</time>
      </trkpt>
      <trkpt lat="43.58136" lon="6.77939">
        <ele>188.3</ele>
        <time>2025-10-24T09:10:20.000Z</time>
      </trkpt>
      <trkpt lat="43.58136" lon="6.77939">
        <ele>188.3</ele>
        <time>2025-10-24T09:10:21.000Z</time>
      </trkpt>
      <trkpt lat="43.58137" lon="6.77938">
        <ele>188.3</ele>
        <time>2025-10-24T09:10:22.000Z</time>
      </trkpt>
      <trkpt lat="43.58137" lon="6.77939">
        <ele>188.2</ele>
        <time>2025-10-24T09:10:23.000Z</time>
      </trkpt>
      <trkpt lat="43.58137" lon="6.77939">
        <ele>188.2</ele>
        <time>2025-10-24T09:10:24.000Z</time>
      </trkpt>
      <trkpt lat="43.58137" lon="6.77939">
        <ele>188.2</ele>
        <time>2025-10-24T09:10:25.000Z</time>
      </trkpt>
      <trkpt lat="43.58137" lon="6.77939">
        <ele>188.2</ele>
        <time>2025-10-24T09:10:26.000Z</time>
      </trkpt>
      <trkpt lat="43.58137" lon="6.77939">
        <ele>188.2</ele>
        <time>2025-10-24T09:10:27.000Z</time>
      </trkpt>
      <trkpt lat="43.58137" lon="6.77939">
        <ele>188.2</ele>
        <time>2025-10-24T09:10:28.000Z</time>
      </trkpt>
      <trkpt lat="43.58137" lon="6.77939">
        <ele>188.2</ele>
        <time>2025-10-24T09:10:29.000Z</time>
      </trkpt>
      <trkpt lat="43.58137" lon="6.77939">
        <ele>188.2</ele>
        <time>2025-10-24T09:10:30.000Z</time>
      </trkpt>
      <trkpt lat="43.58137" lon="6.77939">
        <ele>188.2</ele>
        <time>2025-10-24T09:10:31.000Z</time>
      </trkpt>
      <trkpt lat="43.58137" lon="6.77939">
        <ele>188.2</ele>
        <time>2025-10-24T09:10:32.000Z</time>
      </trkpt>
      <trkpt lat="43.58137" lon="6.77939">
        <ele>188.2</ele>
        <time>2025-10-24T09:10:33.000Z</time>
      </trkpt>
      <trkpt lat="43.58137" lon="6.77939">
        <ele>188.2</ele>
        <time>2025-10-24T09:10:34.000Z</time>
      </trkpt>
      <trkpt lat="43.58137" lon="6.77939">
        <ele>188.2</ele>
        <time>2025-10-24T09:10:35.000Z</time>
      </trkpt>
      <trkpt lat="43.58137" lon="6.77939">
        <ele>188.2</ele>
        <time>2025-10-24T09:10:36.000Z</time>
      </trkpt>
      <trkpt lat="43.58137" lon="6.77939">
        <ele>188.1</ele>
        <time>2025-10-24T09:10:37.000Z</time>
      </trkpt>
      <trkpt lat="43.58137" lon="6.77939">
        <ele>188.1</ele>
        <time>2025-10-24T09:10:38.000Z</time>
      </trkpt>
      <trkpt lat="43.58137" lon="6.77939">
        <ele>188.1</ele>
        <time>2025-10-24T09:10:39.000Z</time>
      </trkpt>
      <trkpt lat="43.58136" lon="6.77939">
        <ele>188.1</ele>
        <time>2025-10-24T09:10:40.000Z</time>
      </trkpt>
      <trkpt lat="43.58136" lon="6.77939">
        <ele>188.1</ele>
        <time>2025-10-24T09:10:41.000Z</time>
      </trkpt>
      <trkpt lat="43.58136" lon="6.77939">
        <ele>188.1</ele>
        <time>2025-10-24T09:10:42.000Z</time>
      </trkpt>
      <trkpt lat="43.58136" lon="6.77938">
        <ele>188.1</ele>
        <time>2025-10-24T09:10:43.000Z</time>
      </trkpt>
      <trkpt lat="43.58136" lon="6.77938">
        <ele>188.1</ele>
        <time>2025-10-24T09:10:44.000Z</time>
      </trkpt>
      <trkpt lat="43.58136" lon="6.77938">
        <ele>188</ele>
        <time>2025-10-24T09:10:45.000Z</time>
      </trkpt>
      <trkpt lat="43.58136" lon="6.77933">
        <ele>187.6</ele>
        <time>2025-10-24T09:10:46.000Z</time>
      </trkpt>
      <trkpt lat="43.58135" lon="6.77929">
        <ele>187.2</ele>
        <time>2025-10-24T09:10:47.000Z</time>
      </trkpt>
      <trkpt lat="43.58135" lon="6.77923">
        <ele>186.7</ele>
        <time>2025-10-24T09:10:48.000Z</time>
      </trkpt>
      <trkpt lat="43.58135" lon="6.77918">
        <ele>186.3</ele>
        <time>2025-10-24T09:10:49.000Z</time>
      </trkpt>
      <trkpt lat="43.58135" lon="6.77912">
        <ele>185.8</ele>
        <time>2025-10-24T09:10:50.000Z</time>
      </trkpt>
      <trkpt lat="43.58135" lon="6.77906">
        <ele>185.3</ele>
        <time>2025-10-24T09:10:51.000Z</time>
      </trkpt>
      <trkpt lat="43.58135" lon="6.779">
        <ele>184.8</ele>
        <time>2025-10-24T09:10:52.000Z</time>
      </trkpt>
      <trkpt lat="43.58135" lon="6.77894">
        <ele>184.3</ele>
        <time>2025-10-24T09:10:53.000Z</time>
      </trkpt>
      <trkpt lat="43.58136" lon="6.77888">
        <ele>183.7</ele>
        <time>2025-10-24T09:10:54.000Z</time>
      </trkpt>
      <trkpt lat="43.58136" lon="6.77883">
        <ele>183.3</ele>
        <time>2025-10-24T09:10:55.000Z</time>
      </trkpt>
      <trkpt lat="43.58137" lon="6.77879">
        <ele>182.9</ele>
        <time>2025-10-24T09:10:56.000Z</time>
      </trkpt>
      <trkpt lat="43.58137" lon="6.77875">
        <ele>182.5</ele>
        <time>2025-10-24T09:10:57.000Z</time>
      </trkpt>
      <trkpt lat="43.58138" lon="6.7787">
        <ele>182</ele>
        <time>2025-10-24T09:10:58.000Z</time>
      </trkpt>
      <trkpt lat="43.58139" lon="6.77864">
        <ele>181.5</ele>
        <time>2025-10-24T09:10:59.000Z</time>
      </trkpt>
      <trkpt lat="43.5814" lon="6.77858">
        <ele>180.9</ele>
        <time>2025-10-24T09:11:00.000Z</time>
      </trkpt>
      <trkpt lat="43.58141" lon="6.77852">
        <ele>180.4</ele>
        <time>2025-10-24T09:11:01.000Z</time>
      </trkpt>
      <trkpt lat="43.58141" lon="6.77847">
        <ele>179.9</ele>
        <time>2025-10-24T09:11:02.000Z</time>
      </trkpt>
      <trkpt lat="43.58141" lon="6.77842">
        <ele>179.4</ele>
        <time>2025-10-24T09:11:03.000Z</time>
      </trkpt>
      <trkpt lat="43.58141" lon="6.77836">
        <ele>179</ele>
        <time>2025-10-24T09:11:04.000Z</time>
      </trkpt>
      <trkpt lat="43.58141" lon="6.77828">
        <ele>178.4</ele>
        <time>2025-10-24T09:11:05.000Z</time>
      </trkpt>
      <trkpt lat="43.58141" lon="6.77821">
        <ele>178.1</ele>
        <time>2025-10-24T09:11:06.000Z</time>
      </trkpt>
      <trkpt lat="43.58141" lon="6.77814">
        <ele>177.8</ele>
        <time>2025-10-24T09:11:07.000Z</time>
      </trkpt>
      <trkpt lat="43.58141" lon="6.77808">
        <ele>177.5</ele>
        <time>2025-10-24T09:11:08.000Z</time>
      </trkpt>
      <trkpt lat="43.58142" lon="6.77799">
        <ele>177.2</ele>
        <time>2025-10-24T09:11:09.000Z</time>
      </trkpt>
      <trkpt lat="43.58143" lon="6.77792">
        <ele>176.9</ele>
        <time>2025-10-24T09:11:10.000Z</time>
      </trkpt>
      <trkpt lat="43.58145" lon="6.77787">
        <ele>176.5</ele>
        <time>2025-10-24T09:11:11.000Z</time>
      </trkpt>
      <trkpt lat="43.58148" lon="6.77782">
        <ele>176.2</ele>
        <time>2025-10-24T09:11:12.000Z</time>
      </trkpt>
      <trkpt lat="43.58151" lon="6.77777">
        <ele>175.6</ele>
        <time>2025-10-24T09:11:13.000Z</time>
      </trkpt>
      <trkpt lat="43.58155" lon="6.77772">
        <ele>175.1</ele>
        <time>2025-10-24T09:11:14.000Z</time>
      </trkpt>
      <trkpt lat="43.58159" lon="6.77767">
        <ele>174.5</ele>
        <time>2025-10-24T09:11:15.000Z</time>
      </trkpt>
      <trkpt lat="43.58163" lon="6.77763">
        <ele>174</ele>
        <time>2025-10-24T09:11:16.000Z</time>
      </trkpt>
      <trkpt lat="43.58166" lon="6.77757">
        <ele>173.4</ele>
        <time>2025-10-24T09:11:17.000Z</time>
      </trkpt>
      <trkpt lat="43.58169" lon="6.77751">
        <ele>173.3</ele>
        <time>2025-10-24T09:11:18.000Z</time>
      </trkpt>
      <trkpt lat="43.58171" lon="6.77745">
        <ele>173</ele>
        <time>2025-10-24T09:11:19.000Z</time>
      </trkpt>
      <trkpt lat="43.58173" lon="6.77737">
        <ele>172.6</ele>
        <time>2025-10-24T09:11:20.000Z</time>
      </trkpt>
      <trkpt lat="43.58174" lon="6.77729">
        <ele>172.2</ele>
        <time>2025-10-24T09:11:21.000Z</time>
      </trkpt>
      <trkpt lat="43.58175" lon="6.77721">
        <ele>171.8</ele>
        <time>2025-10-24T09:11:22.000Z</time>
      </trkpt>
      <trkpt lat="43.58176" lon="6.77715">
        <ele>171.3</ele>
        <time>2025-10-24T09:11:23.000Z</time>
      </trkpt>
      <trkpt lat="43.58177" lon="6.77705">
        <ele>170.6</ele>
        <time>2025-10-24T09:11:24.000Z</time>
      </trkpt>
      <trkpt lat="43.58178" lon="6.77696">
        <ele>169.9</ele>
        <time>2025-10-24T09:11:25.000Z</time>
      </trkpt>
      <trkpt lat="43.58179" lon="6.77687">
        <ele>169.2</ele>
        <time>2025-10-24T09:11:26.000Z</time>
      </trkpt>
      <trkpt lat="43.5818" lon="6.77679">
        <ele>168.7</ele>
        <time>2025-10-24T09:11:27.000Z</time>
      </trkpt>
      <trkpt lat="43.5818" lon="6.7767">
        <ele>168.1</ele>
        <time>2025-10-24T09:11:28.000Z</time>
      </trkpt>
      <trkpt lat="43.58178" lon="6.77661">
        <ele>167.5</ele>
        <time>2025-10-24T09:11:29.000Z</time>
      </trkpt>
      <trkpt lat="43.58176" lon="6.77657">
        <ele>167</ele>
        <time>2025-10-24T09:11:30.000Z</time>
      </trkpt>
      <trkpt lat="43.58173" lon="6.77655">
        <ele>167.3</ele>
        <time>2025-10-24T09:11:31.000Z</time>
      </trkpt>
      <trkpt lat="43.5817" lon="6.77655">
        <ele>167.6</ele>
        <time>2025-10-24T09:11:32.000Z</time>
      </trkpt>
      <trkpt lat="43.58167" lon="6.77656">
        <ele>167.9</ele>
        <time>2025-10-24T09:11:33.000Z</time>
      </trkpt>
      <trkpt lat="43.58164" lon="6.77658">
        <ele>168.2</ele>
        <time>2025-10-24T09:11:34.000Z</time>
      </trkpt>
      <trkpt lat="43.58161" lon="6.7766">
        <ele>168.5</ele>
        <time>2025-10-24T09:11:35.000Z</time>
      </trkpt>
      <trkpt lat="43.58159" lon="6.77663">
        <ele>168.8</ele>
        <time>2025-10-24T09:11:36.000Z</time>
      </trkpt>
      <trkpt lat="43.58157" lon="6.77666">
        <ele>169.3</ele>
        <time>2025-10-24T09:11:37.000Z</time>
      </trkpt>
      <trkpt lat="43.58154" lon="6.77669">
        <ele>169.8</ele>
        <time>2025-10-24T09:11:38.000Z</time>
      </trkpt>
      <trkpt lat="43.58151" lon="6.77672">
        <ele>170.3</ele>
        <time>2025-10-24T09:11:39.000Z</time>
      </trkpt>
      <trkpt lat="43.58149" lon="6.77676">
        <ele>170.8</ele>
        <time>2025-10-24T09:11:40.000Z</time>
      </trkpt>
      <trkpt lat="43.58147" lon="6.77679">
        <ele>171.3</ele>
        <time>2025-10-24T09:11:41.000Z</time>
      </trkpt>
      <trkpt lat="43.58144" lon="6.77682">
        <ele>171.8</ele>
        <time>2025-10-24T09:11:42.000Z</time>
      </trkpt>
      <trkpt lat="43.58142" lon="6.77685">
        <ele>172.4</ele>
        <time>2025-10-24T09:11:43.000Z</time>
      </trkpt>
      <trkpt lat="43.58139" lon="6.77688">
        <ele>173</ele>
        <time>2025-10-24T09:11:44.000Z</time>
      </trkpt>
      <trkpt lat="43.58138" lon="6.7769">
        <ele>173.4</ele>
        <time>2025-10-24T09:11:45.000Z</time>
      </trkpt>
      <trkpt lat="43.58135" lon="6.77693">
        <ele>173.9</ele>
        <time>2025-10-24T09:11:46.000Z</time>
      </trkpt>
      <trkpt lat="43.58132" lon="6.77694">
        <ele>174.5</ele>
        <time>2025-10-24T09:11:47.000Z</time>
      </trkpt>
      <trkpt lat="43.58129" lon="6.77696">
        <ele>175</ele>
        <time>2025-10-24T09:11:48.000Z</time>
      </trkpt>
      <trkpt lat="43.58126" lon="6.77697">
        <ele>175.5</ele>
        <time>2025-10-24T09:11:49.000Z</time>
      </trkpt>
      <trkpt lat="43.58122" lon="6.77698">
        <ele>176.2</ele>
        <time>2025-10-24T09:11:50.000Z</time>
      </trkpt>
      <trkpt lat="43.5812" lon="6.77699">
        <ele>176.7</ele>
        <time>2025-10-24T09:11:51.000Z</time>
      </trkpt>
      <trkpt lat="43.58117" lon="6.777">
        <ele>177.2</ele>
        <time>2025-10-24T09:11:52.000Z</time>
      </trkpt>
      <trkpt lat="43.58114" lon="6.777">
        <ele>177.7</ele>
        <time>2025-10-24T09:11:53.000Z</time>
      </trkpt>
      <trkpt lat="43.58112" lon="6.777">
        <ele>178.2</ele>
        <time>2025-10-24T09:11:54.000Z</time>
      </trkpt>
      <trkpt lat="43.5811" lon="6.777">
        <ele>178.6</ele>
        <time>2025-10-24T09:11:55.000Z</time>
      </trkpt>
      <trkpt lat="43.58108" lon="6.777">
        <ele>179.1</ele>
        <time>2025-10-24T09:11:56.000Z</time>
      </trkpt>
      <trkpt lat="43.58105" lon="6.777">
        <ele>179.6</ele>
        <time>2025-10-24T09:11:57.000Z</time>
      </trkpt>
      <trkpt lat="43.58102" lon="6.777">
        <ele>180.1</ele>
        <time>2025-10-24T09:11:58.000Z</time>
      </trkpt>
      <trkpt lat="43.581" lon="6.777">
        <ele>180.6</ele>
        <time>2025-10-24T09:11:59.000Z</time>
      </trkpt>
      <trkpt lat="43.58098" lon="6.77701">
        <ele>181.1</ele>
        <time>2025-10-24T09:12:00.000Z</time>
      </trkpt>
      <trkpt lat="43.58096" lon="6.77701">
        <ele>181.5</ele>
        <time>2025-10-24T09:12:01.000Z</time>
      </trkpt>
      <trkpt lat="43.58093" lon="6.77701">
        <ele>182</ele>
        <time>2025-10-24T09:12:02.000Z</time>
      </trkpt>
      <trkpt lat="43.5809" lon="6.77702">
        <ele>182.5</ele>
        <time>2025-10-24T09:12:03.000Z</time>
      </trkpt>
      <trkpt lat="43.58088" lon="6.77702">
        <ele>183</ele>
        <time>2025-10-24T09:12:04.000Z</time>
      </trkpt>
      <trkpt lat="43.58086" lon="6.77702">
        <ele>183.4</ele>
        <time>2025-10-24T09:12:05.000Z</time>
      </trkpt>
      <trkpt lat="43.58083" lon="6.77702">
        <ele>183.9</ele>
        <time>2025-10-24T09:12:06.000Z</time>
      </trkpt>
      <trkpt lat="43.58081" lon="6.77702">
        <ele>184.3</ele>
        <time>2025-10-24T09:12:07.000Z</time>
      </trkpt>
      <trkpt lat="43.58079" lon="6.77703">
        <ele>184.7</ele>
        <time>2025-10-24T09:12:08.000Z</time>
      </trkpt>
      <trkpt lat="43.58076" lon="6.77703">
        <ele>185.1</ele>
        <time>2025-10-24T09:12:09.000Z</time>
      </trkpt>
      <trkpt lat="43.58074" lon="6.77704">
        <ele>185.5</ele>
        <time>2025-10-24T09:12:10.000Z</time>
      </trkpt>
      <trkpt lat="43.58071" lon="6.77704">
        <ele>185.9</ele>
        <time>2025-10-24T09:12:11.000Z</time>
      </trkpt>
      <trkpt lat="43.58069" lon="6.77705">
        <ele>186.3</ele>
        <time>2025-10-24T09:12:12.000Z</time>
      </trkpt>
      <trkpt lat="43.58067" lon="6.77706">
        <ele>186.7</ele>
        <time>2025-10-24T09:12:13.000Z</time>
      </trkpt>
      <trkpt lat="43.58064" lon="6.77708">
        <ele>187.1</ele>
        <time>2025-10-24T09:12:14.000Z</time>
      </trkpt>
      <trkpt lat="43.58061" lon="6.77709">
        <ele>187.6</ele>
        <time>2025-10-24T09:12:15.000Z</time>
      </trkpt>
      <trkpt lat="43.58059" lon="6.7771">
        <ele>188</ele>
        <time>2025-10-24T09:12:16.000Z</time>
      </trkpt>
      <trkpt lat="43.58056" lon="6.77712">
        <ele>188.4</ele>
        <time>2025-10-24T09:12:17.000Z</time>
      </trkpt>
      <trkpt lat="43.58054" lon="6.77715">
        <ele>188.9</ele>
        <time>2025-10-24T09:12:18.000Z</time>
      </trkpt>
      <trkpt lat="43.58052" lon="6.77717">
        <ele>189.3</ele>
        <time>2025-10-24T09:12:19.000Z</time>
      </trkpt>
      <trkpt lat="43.5805" lon="6.7772">
        <ele>189.7</ele>
        <time>2025-10-24T09:12:20.000Z</time>
      </trkpt>
      <trkpt lat="43.58048" lon="6.77722">
        <ele>190.3</ele>
        <time>2025-10-24T09:12:21.000Z</time>
      </trkpt>
      <trkpt lat="43.58046" lon="6.77724">
        <ele>190.7</ele>
        <time>2025-10-24T09:12:22.000Z</time>
      </trkpt>
      <trkpt lat="43.58044" lon="6.77726">
        <ele>191.2</ele>
        <time>2025-10-24T09:12:23.000Z</time>
      </trkpt>
      <trkpt lat="43.58042" lon="6.77728">
        <ele>191.6</ele>
        <time>2025-10-24T09:12:24.000Z</time>
      </trkpt>
      <trkpt lat="43.5804" lon="6.77731">
        <ele>192.2</ele>
        <time>2025-10-24T09:12:25.000Z</time>
      </trkpt>
      <trkpt lat="43.58038" lon="6.77733">
        <ele>192.7</ele>
        <time>2025-10-24T09:12:26.000Z</time>
      </trkpt>
      <trkpt lat="43.58037" lon="6.77736">
        <ele>193.2</ele>
        <time>2025-10-24T09:12:27.000Z</time>
      </trkpt>
      <trkpt lat="43.58035" lon="6.77739">
        <ele>193.6</ele>
        <time>2025-10-24T09:12:28.000Z</time>
      </trkpt>
      <trkpt lat="43.58034" lon="6.77742">
        <ele>194</ele>
        <time>2025-10-24T09:12:29.000Z</time>
      </trkpt>
      <trkpt lat="43.58032" lon="6.77745">
        <ele>194.5</ele>
        <time>2025-10-24T09:12:30.000Z</time>
      </trkpt>
      <trkpt lat="43.58031" lon="6.77749">
        <ele>194.9</ele>
        <time>2025-10-24T09:12:31.000Z</time>
      </trkpt>
      <trkpt lat="43.58029" lon="6.77752">
        <ele>195.4</ele>
        <time>2025-10-24T09:12:32.000Z</time>
      </trkpt>
      <trkpt lat="43.58028" lon="6.77755">
        <ele>195.8</ele>
        <time>2025-10-24T09:12:33.000Z</time>
      </trkpt>
      <trkpt lat="43.58027" lon="6.77759">
        <ele>196.3</ele>
        <time>2025-10-24T09:12:34.000Z</time>
      </trkpt>
      <trkpt lat="43.58026" lon="6.77762">
        <ele>196.8</ele>
        <time>2025-10-24T09:12:35.000Z</time>
      </trkpt>
      <trkpt lat="43.58025" lon="6.77766">
        <ele>197.3</ele>
        <time>2025-10-24T09:12:36.000Z</time>
      </trkpt>
      <trkpt lat="43.58024" lon="6.77769">
        <ele>197.7</ele>
        <time>2025-10-24T09:12:37.000Z</time>
      </trkpt>
      <trkpt lat="43.58022" lon="6.77772">
        <ele>198.3</ele>
        <time>2025-10-24T09:12:38.000Z</time>
      </trkpt>
      <trkpt lat="43.58021" lon="6.77776">
        <ele>198.8</ele>
        <time>2025-10-24T09:12:39.000Z</time>
      </trkpt>
      <trkpt lat="43.58019" lon="6.77779">
        <ele>199.3</ele>
        <time>2025-10-24T09:12:40.000Z</time>
      </trkpt>
      <trkpt lat="43.58018" lon="6.77781">
        <ele>199.7</ele>
        <time>2025-10-24T09:12:41.000Z</time>
      </trkpt>
      <trkpt lat="43.58016" lon="6.77784">
        <ele>200.1</ele>
        <time>2025-10-24T09:12:42.000Z</time>
      </trkpt>
      <trkpt lat="43.58014" lon="6.77786">
        <ele>200.6</ele>
        <time>2025-10-24T09:12:43.000Z</time>
      </trkpt>
      <trkpt lat="43.58012" lon="6.7779">
        <ele>201.1</ele>
        <time>2025-10-24T09:12:44.000Z</time>
      </trkpt>
      <trkpt lat="43.58011" lon="6.77792">
        <ele>201.5</ele>
        <time>2025-10-24T09:12:45.000Z</time>
      </trkpt>
      <trkpt lat="43.58009" lon="6.77794">
        <ele>201.8</ele>
        <time>2025-10-24T09:12:46.000Z</time>
      </trkpt>
      <trkpt lat="43.58007" lon="6.77797">
        <ele>202.2</ele>
        <time>2025-10-24T09:12:47.000Z</time>
      </trkpt>
      <trkpt lat="43.58005" lon="6.778">
        <ele>202.7</ele>
        <time>2025-10-24T09:12:48.000Z</time>
      </trkpt>
      <trkpt lat="43.58004" lon="6.77802">
        <ele>203</ele>
        <time>2025-10-24T09:12:49.000Z</time>
      </trkpt>
      <trkpt lat="43.58002" lon="6.77806">
        <ele>203.6</ele>
        <time>2025-10-24T09:12:50.000Z</time>
      </trkpt>
      <trkpt lat="43.58001" lon="6.77808">
        <ele>203.9</ele>
        <time>2025-10-24T09:12:51.000Z</time>
      </trkpt>
      <trkpt lat="43.58" lon="6.77811">
        <ele>204.3</ele>
        <time>2025-10-24T09:12:52.000Z</time>
      </trkpt>
      <trkpt lat="43.57999" lon="6.77815">
        <ele>204.7</ele>
        <time>2025-10-24T09:12:53.000Z</time>
      </trkpt>
      <trkpt lat="43.57998" lon="6.77818">
        <ele>205.1</ele>
        <time>2025-10-24T09:12:54.000Z</time>
      </trkpt>
      <trkpt lat="43.57997" lon="6.77821">
        <ele>205.5</ele>
        <time>2025-10-24T09:12:55.000Z</time>
      </trkpt>
      <trkpt lat="43.57996" lon="6.77824">
        <ele>205.9</ele>
        <time>2025-10-24T09:12:56.000Z</time>
      </trkpt>
      <trkpt lat="43.57995" lon="6.77828">
        <ele>206.4</ele>
        <time>2025-10-24T09:12:57.000Z</time>
      </trkpt>
      <trkpt lat="43.57994" lon="6.77831">
        <ele>206.8</ele>
        <time>2025-10-24T09:12:58.000Z</time>
      </trkpt>
      <trkpt lat="43.57994" lon="6.77835">
        <ele>207.2</ele>
        <time>2025-10-24T09:12:59.000Z</time>
      </trkpt>
      <trkpt lat="43.57993" lon="6.77838">
        <ele>207.7</ele>
        <time>2025-10-24T09:13:00.000Z</time>
      </trkpt>
      <trkpt lat="43.57993" lon="6.77841">
        <ele>208</ele>
        <time>2025-10-24T09:13:01.000Z</time>
      </trkpt>
      <trkpt lat="43.57993" lon="6.77845">
        <ele>208.5</ele>
        <time>2025-10-24T09:13:02.000Z</time>
      </trkpt>
      <trkpt lat="43.57993" lon="6.77848">
        <ele>208.8</ele>
        <time>2025-10-24T09:13:03.000Z</time>
      </trkpt>
      <trkpt lat="43.57993" lon="6.77852">
        <ele>209.3</ele>
        <time>2025-10-24T09:13:04.000Z</time>
      </trkpt>
      <trkpt lat="43.57994" lon="6.77855">
        <ele>209.6</ele>
        <time>2025-10-24T09:13:05.000Z</time>
      </trkpt>
      <trkpt lat="43.57994" lon="6.77859">
        <ele>210</ele>
        <time>2025-10-24T09:13:06.000Z</time>
      </trkpt>
      <trkpt lat="43.57995" lon="6.77862">
        <ele>210.4</ele>
        <time>2025-10-24T09:13:07.000Z</time>
      </trkpt>
      <trkpt lat="43.57996" lon="6.77866">
        <ele>210.7</ele>
        <time>2025-10-24T09:13:08.000Z</time>
      </trkpt>
      <trkpt lat="43.57996" lon="6.77869">
        <ele>211</ele>
        <time>2025-10-24T09:13:09.000Z</time>
      </trkpt>
      <trkpt lat="43.57997" lon="6.77873">
        <ele>211.4</ele>
        <time>2025-10-24T09:13:10.000Z</time>
      </trkpt>
      <trkpt lat="43.57998" lon="6.77876">
        <ele>211.6</ele>
        <time>2025-10-24T09:13:11.000Z</time>
      </trkpt>
      <trkpt lat="43.57999" lon="6.77879">
        <ele>211.9</ele>
        <time>2025-10-24T09:13:12.000Z</time>
      </trkpt>
      <trkpt lat="43.57999" lon="6.77883">
        <ele>212.1</ele>
        <time>2025-10-24T09:13:13.000Z</time>
      </trkpt>
      <trkpt lat="43.58" lon="6.77887">
        <ele>212.4</ele>
        <time>2025-10-24T09:13:14.000Z</time>
      </trkpt>
      <trkpt lat="43.58001" lon="6.77891">
        <ele>212.6</ele>
        <time>2025-10-24T09:13:15.000Z</time>
      </trkpt>
      <trkpt lat="43.58001" lon="6.77896">
        <ele>212.8</ele>
        <time>2025-10-24T09:13:16.000Z</time>
      </trkpt>
      <trkpt lat="43.58001" lon="6.779">
        <ele>213.1</ele>
        <time>2025-10-24T09:13:17.000Z</time>
      </trkpt>
      <trkpt lat="43.58001" lon="6.77904">
        <ele>213.3</ele>
        <time>2025-10-24T09:13:18.000Z</time>
      </trkpt>
      <trkpt lat="43.58002" lon="6.77909">
        <ele>213.6</ele>
        <time>2025-10-24T09:13:19.000Z</time>
      </trkpt>
      <trkpt lat="43.58002" lon="6.77913">
        <ele>213.8</ele>
        <time>2025-10-24T09:13:20.000Z</time>
      </trkpt>
      <trkpt lat="43.58002" lon="6.77917">
        <ele>214</ele>
        <time>2025-10-24T09:13:21.000Z</time>
      </trkpt>
      <trkpt lat="43.58002" lon="6.77921">
        <ele>214.2</ele>
        <time>2025-10-24T09:13:22.000Z</time>
      </trkpt>
      <trkpt lat="43.58002" lon="6.77926">
        <ele>214.4</ele>
        <time>2025-10-24T09:13:23.000Z</time>
      </trkpt>
      <trkpt lat="43.58002" lon="6.7793">
        <ele>214.5</ele>
        <time>2025-10-24T09:13:24.000Z</time>
      </trkpt>
      <trkpt lat="43.58001" lon="6.77934">
        <ele>214.7</ele>
        <time>2025-10-24T09:13:25.000Z</time>
      </trkpt>
      <trkpt lat="43.58" lon="6.77939">
        <ele>214.9</ele>
        <time>2025-10-24T09:13:26.000Z</time>
      </trkpt>
      <trkpt lat="43.58" lon="6.77942">
        <ele>215</ele>
        <time>2025-10-24T09:13:27.000Z</time>
      </trkpt>
      <trkpt lat="43.57999" lon="6.77947">
        <ele>215.1</ele>
        <time>2025-10-24T09:13:28.000Z</time>
      </trkpt>
      <trkpt lat="43.57998" lon="6.77951">
        <ele>215.1</ele>
        <time>2025-10-24T09:13:29.000Z</time>
      </trkpt>
      <trkpt lat="43.57998" lon="6.77957">
        <ele>215.2</ele>
        <time>2025-10-24T09:13:30.000Z</time>
      </trkpt>
      <trkpt lat="43.57997" lon="6.77962">
        <ele>215.2</ele>
        <time>2025-10-24T09:13:31.000Z</time>
      </trkpt>
      <trkpt lat="43.57996" lon="6.77968">
        <ele>215.3</ele>
        <time>2025-10-24T09:13:32.000Z</time>
      </trkpt>
      <trkpt lat="43.57995" lon="6.77975">
        <ele>215.3</ele>
        <time>2025-10-24T09:13:33.000Z</time>
      </trkpt>
      <trkpt lat="43.57995" lon="6.77981">
        <ele>215.4</ele>
        <time>2025-10-24T09:13:34.000Z</time>
      </trkpt>
      <trkpt lat="43.57993" lon="6.77988">
        <ele>215.6</ele>
        <time>2025-10-24T09:13:35.000Z</time>
      </trkpt>
      <trkpt lat="43.57992" lon="6.77995">
        <ele>215.8</ele>
        <time>2025-10-24T09:13:36.000Z</time>
      </trkpt>
      <trkpt lat="43.57991" lon="6.78001">
        <ele>216</ele>
        <time>2025-10-24T09:13:37.000Z</time>
      </trkpt>
      <trkpt lat="43.5799" lon="6.78007">
        <ele>216.3</ele>
        <time>2025-10-24T09:13:38.000Z</time>
      </trkpt>
      <trkpt lat="43.57989" lon="6.78014">
        <ele>216.7</ele>
        <time>2025-10-24T09:13:39.000Z</time>
      </trkpt>
      <trkpt lat="43.57988" lon="6.7802">
        <ele>217.1</ele>
        <time>2025-10-24T09:13:40.000Z</time>
      </trkpt>
      <trkpt lat="43.57988" lon="6.78026">
        <ele>217.5</ele>
        <time>2025-10-24T09:13:41.000Z</time>
      </trkpt>
      <trkpt lat="43.57986" lon="6.78032">
        <ele>217.9</ele>
        <time>2025-10-24T09:13:42.000Z</time>
      </trkpt>
      <trkpt lat="43.57985" lon="6.78038">
        <ele>218.2</ele>
        <time>2025-10-24T09:13:43.000Z</time>
      </trkpt>
      <trkpt lat="43.57984" lon="6.78044">
        <ele>218.5</ele>
        <time>2025-10-24T09:13:44.000Z</time>
      </trkpt>
      <trkpt lat="43.57983" lon="6.7805">
        <ele>218.8</ele>
        <time>2025-10-24T09:13:45.000Z</time>
      </trkpt>
      <trkpt lat="43.57982" lon="6.78056">
        <ele>219</ele>
        <time>2025-10-24T09:13:46.000Z</time>
      </trkpt>
      <trkpt lat="43.57981" lon="6.78062">
        <ele>219.2</ele>
        <time>2025-10-24T09:13:47.000Z</time>
      </trkpt>
      <trkpt lat="43.57979" lon="6.78068">
        <ele>219.3</ele>
        <time>2025-10-24T09:13:48.000Z</time>
      </trkpt>
      <trkpt lat="43.57977" lon="6.78073">
        <ele>219.6</ele>
        <time>2025-10-24T09:13:49.000Z</time>
      </trkpt>
      <trkpt lat="43.57974" lon="6.78079">
        <ele>219.8</ele>
        <time>2025-10-24T09:13:50.000Z</time>
      </trkpt>
      <trkpt lat="43.57971" lon="6.78082">
        <ele>220.1</ele>
        <time>2025-10-24T09:13:51.000Z</time>
      </trkpt>
      <trkpt lat="43.57966" lon="6.78087">
        <ele>220.5</ele>
        <time>2025-10-24T09:13:52.000Z</time>
      </trkpt>
      <trkpt lat="43.57963" lon="6.7809">
        <ele>221</ele>
        <time>2025-10-24T09:13:53.000Z</time>
      </trkpt>
      <trkpt lat="43.57959" lon="6.78092">
        <ele>221.4</ele>
        <time>2025-10-24T09:13:54.000Z</time>
      </trkpt>
      <trkpt lat="43.57955" lon="6.78093">
        <ele>221.9</ele>
        <time>2025-10-24T09:13:55.000Z</time>
      </trkpt>
      <trkpt lat="43.57951" lon="6.78095">
        <ele>222.6</ele>
        <time>2025-10-24T09:13:56.000Z</time>
      </trkpt>
      <trkpt lat="43.57947" lon="6.78096">
        <ele>223.1</ele>
        <time>2025-10-24T09:13:57.000Z</time>
      </trkpt>
      <trkpt lat="43.57944" lon="6.78097">
        <ele>223.6</ele>
        <time>2025-10-24T09:13:58.000Z</time>
      </trkpt>
      <trkpt lat="43.57941" lon="6.78098">
        <ele>224.1</ele>
        <time>2025-10-24T09:13:59.000Z</time>
      </trkpt>
      <trkpt lat="43.57938" lon="6.78099">
        <ele>224.5</ele>
        <time>2025-10-24T09:14:00.000Z</time>
      </trkpt>
      <trkpt lat="43.57935" lon="6.78099">
        <ele>224.9</ele>
        <time>2025-10-24T09:14:01.000Z</time>
      </trkpt>
      <trkpt lat="43.57931" lon="6.78099">
        <ele>225.4</ele>
        <time>2025-10-24T09:14:02.000Z</time>
      </trkpt>
      <trkpt lat="43.57928" lon="6.78098">
        <ele>225.9</ele>
        <time>2025-10-24T09:14:03.000Z</time>
      </trkpt>
      <trkpt lat="43.57924" lon="6.78097">
        <ele>226.3</ele>
        <time>2025-10-24T09:14:04.000Z</time>
      </trkpt>
      <trkpt lat="43.57921" lon="6.78095">
        <ele>226.7</ele>
        <time>2025-10-24T09:14:05.000Z</time>
      </trkpt>
      <trkpt lat="43.57918" lon="6.78094">
        <ele>227.2</ele>
        <time>2025-10-24T09:14:06.000Z</time>
      </trkpt>
      <trkpt lat="43.57915" lon="6.78093">
        <ele>227.6</ele>
        <time>2025-10-24T09:14:07.000Z</time>
      </trkpt>
      <trkpt lat="43.57911" lon="6.78092">
        <ele>228</ele>
        <time>2025-10-24T09:14:08.000Z</time>
      </trkpt>
      <trkpt lat="43.57908" lon="6.78091">
        <ele>228.5</ele>
        <time>2025-10-24T09:14:09.000Z</time>
      </trkpt>
      <trkpt lat="43.57905" lon="6.78089">
        <ele>228.9</ele>
        <time>2025-10-24T09:14:10.000Z</time>
      </trkpt>
      <trkpt lat="43.57902" lon="6.78088">
        <ele>229.4</ele>
        <time>2025-10-24T09:14:11.000Z</time>
      </trkpt>
      <trkpt lat="43.57899" lon="6.78086">
        <ele>229.8</ele>
        <time>2025-10-24T09:14:12.000Z</time>
      </trkpt>
      <trkpt lat="43.57897" lon="6.78086">
        <ele>230.2</ele>
        <time>2025-10-24T09:14:13.000Z</time>
      </trkpt>
      <trkpt lat="43.57893" lon="6.78085">
        <ele>230.7</ele>
        <time>2025-10-24T09:14:14.000Z</time>
      </trkpt>
      <trkpt lat="43.5789" lon="6.78084">
        <ele>231.1</ele>
        <time>2025-10-24T09:14:15.000Z</time>
      </trkpt>
      <trkpt lat="43.57887" lon="6.78083">
        <ele>231.5</ele>
        <time>2025-10-24T09:14:16.000Z</time>
      </trkpt>
      <trkpt lat="43.57883" lon="6.78082">
        <ele>232</ele>
        <time>2025-10-24T09:14:17.000Z</time>
      </trkpt>
      <trkpt lat="43.57881" lon="6.78081">
        <ele>232.3</ele>
        <time>2025-10-24T09:14:18.000Z</time>
      </trkpt>
      <trkpt lat="43.57877" lon="6.7808">
        <ele>232.7</ele>
        <time>2025-10-24T09:14:19.000Z</time>
      </trkpt>
      <trkpt lat="43.57873" lon="6.78079">
        <ele>233.1</ele>
        <time>2025-10-24T09:14:20.000Z</time>
      </trkpt>
      <trkpt lat="43.5787" lon="6.78079">
        <ele>233.5</ele>
        <time>2025-10-24T09:14:21.000Z</time>
      </trkpt>
      <trkpt lat="43.57867" lon="6.7808">
        <ele>233.7</ele>
        <time>2025-10-24T09:14:22.000Z</time>
      </trkpt>
      <trkpt lat="43.57863" lon="6.7808">
        <ele>234</ele>
        <time>2025-10-24T09:14:23.000Z</time>
      </trkpt>
      <trkpt lat="43.5786" lon="6.78081">
        <ele>234.3</ele>
        <time>2025-10-24T09:14:24.000Z</time>
      </trkpt>
      <trkpt lat="43.57857" lon="6.78081">
        <ele>234.4</ele>
        <time>2025-10-24T09:14:25.000Z</time>
      </trkpt>
      <trkpt lat="43.57853" lon="6.78081">
        <ele>234.5</ele>
        <time>2025-10-24T09:14:26.000Z</time>
      </trkpt>
      <trkpt lat="43.57848" lon="6.78081">
        <ele>234.7</ele>
        <time>2025-10-24T09:14:27.000Z</time>
      </trkpt>
      <trkpt lat="43.57844" lon="6.78082">
        <ele>234.8</ele>
        <time>2025-10-24T09:14:28.000Z</time>
      </trkpt>
      <trkpt lat="43.5784" lon="6.78082">
        <ele>235</ele>
        <time>2025-10-24T09:14:29.000Z</time>
      </trkpt>
      <trkpt lat="43.57835" lon="6.78082">
        <ele>235.2</ele>
        <time>2025-10-24T09:14:30.000Z</time>
      </trkpt>
      <trkpt lat="43.57831" lon="6.78081">
        <ele>235.3</ele>
        <time>2025-10-24T09:14:31.000Z</time>
      </trkpt>
      <trkpt lat="43.57826" lon="6.78081">
        <ele>235.4</ele>
        <time>2025-10-24T09:14:32.000Z</time>
      </trkpt>
      <trkpt lat="43.57823" lon="6.78081">
        <ele>235.6</ele>
        <time>2025-10-24T09:14:33.000Z</time>
      </trkpt>
      <trkpt lat="43.57819" lon="6.78081">
        <ele>235.7</ele>
        <time>2025-10-24T09:14:34.000Z</time>
      </trkpt>
      <trkpt lat="43.57815" lon="6.78081">
        <ele>235.9</ele>
        <time>2025-10-24T09:14:35.000Z</time>
      </trkpt>
      <trkpt lat="43.57812" lon="6.78081">
        <ele>236</ele>
        <time>2025-10-24T09:14:36.000Z</time>
      </trkpt>
      <trkpt lat="43.57808" lon="6.78082">
        <ele>236.2</ele>
        <time>2025-10-24T09:14:37.000Z</time>
      </trkpt>
      <trkpt lat="43.57804" lon="6.78083">
        <ele>236.4</ele>
        <time>2025-10-24T09:14:38.000Z</time>
      </trkpt>
      <trkpt lat="43.57801" lon="6.78085">
        <ele>236.6</ele>
        <time>2025-10-24T09:14:39.000Z</time>
      </trkpt>
      <trkpt lat="43.57797" lon="6.78087">
        <ele>236.8</ele>
        <time>2025-10-24T09:14:40.000Z</time>
      </trkpt>
      <trkpt lat="43.57793" lon="6.78089">
        <ele>237.1</ele>
        <time>2025-10-24T09:14:41.000Z</time>
      </trkpt>
      <trkpt lat="43.57789" lon="6.7809">
        <ele>237.4</ele>
        <time>2025-10-24T09:14:42.000Z</time>
      </trkpt>
      <trkpt lat="43.57785" lon="6.78092">
        <ele>237.6</ele>
        <time>2025-10-24T09:14:43.000Z</time>
      </trkpt>
      <trkpt lat="43.57782" lon="6.78093">
        <ele>237.9</ele>
        <time>2025-10-24T09:14:44.000Z</time>
      </trkpt>
      <trkpt lat="43.57778" lon="6.78094">
        <ele>238.2</ele>
        <time>2025-10-24T09:14:45.000Z</time>
      </trkpt>
      <trkpt lat="43.57774" lon="6.78095">
        <ele>238.5</ele>
        <time>2025-10-24T09:14:46.000Z</time>
      </trkpt>
      <trkpt lat="43.5777" lon="6.78097">
        <ele>238.8</ele>
        <time>2025-10-24T09:14:47.000Z</time>
      </trkpt>
      <trkpt lat="43.57766" lon="6.78097">
        <ele>239.2</ele>
        <time>2025-10-24T09:14:48.000Z</time>
      </trkpt>
      <trkpt lat="43.57763" lon="6.78096">
        <ele>239.5</ele>
        <time>2025-10-24T09:14:49.000Z</time>
      </trkpt>
      <trkpt lat="43.57759" lon="6.78096">
        <ele>239.9</ele>
        <time>2025-10-24T09:14:50.000Z</time>
      </trkpt>
      <trkpt lat="43.57757" lon="6.78095">
        <ele>240.1</ele>
        <time>2025-10-24T09:14:51.000Z</time>
      </trkpt>
      <trkpt lat="43.57754" lon="6.78095">
        <ele>240.4</ele>
        <time>2025-10-24T09:14:52.000Z</time>
      </trkpt>
      <trkpt lat="43.57752" lon="6.78095">
        <ele>240.7</ele>
        <time>2025-10-24T09:14:53.000Z</time>
      </trkpt>
      <trkpt lat="43.57749" lon="6.78095">
        <ele>241</ele>
        <time>2025-10-24T09:14:54.000Z</time>
      </trkpt>
      <trkpt lat="43.57746" lon="6.78094">
        <ele>241.3</ele>
        <time>2025-10-24T09:14:55.000Z</time>
      </trkpt>
      <trkpt lat="43.57744" lon="6.78093">
        <ele>241.5</ele>
        <time>2025-10-24T09:14:56.000Z</time>
      </trkpt>
      <trkpt lat="43.57741" lon="6.78092">
        <ele>241.8</ele>
        <time>2025-10-24T09:14:57.000Z</time>
      </trkpt>
      <trkpt lat="43.57739" lon="6.78091">
        <ele>242.1</ele>
        <time>2025-10-24T09:14:58.000Z</time>
      </trkpt>
      <trkpt lat="43.57737" lon="6.7809">
        <ele>242.4</ele>
        <time>2025-10-24T09:14:59.000Z</time>
      </trkpt>
      <trkpt lat="43.57734" lon="6.7809">
        <ele>242.7</ele>
        <time>2025-10-24T09:15:00.000Z</time>
      </trkpt>
      <trkpt lat="43.57732" lon="6.7809">
        <ele>243</ele>
        <time>2025-10-24T09:15:01.000Z</time>
      </trkpt>
      <trkpt lat="43.5773" lon="6.78089">
        <ele>243.2</ele>
        <time>2025-10-24T09:15:02.000Z</time>
      </trkpt>
      <trkpt lat="43.57728" lon="6.78088">
        <ele>243.5</ele>
        <time>2025-10-24T09:15:03.000Z</time>
      </trkpt>
      <trkpt lat="43.57726" lon="6.78088">
        <ele>243.7</ele>
        <time>2025-10-24T09:15:04.000Z</time>
      </trkpt>
      <trkpt lat="43.57724" lon="6.78087">
        <ele>244</ele>
        <time>2025-10-24T09:15:05.000Z</time>
      </trkpt>
      <trkpt lat="43.57721" lon="6.78085">
        <ele>244.3</ele>
        <time>2025-10-24T09:15:06.000Z</time>
      </trkpt>
      <trkpt lat="43.57719" lon="6.78084">
        <ele>244.6</ele>
        <time>2025-10-24T09:15:07.000Z</time>
      </trkpt>
      <trkpt lat="43.57716" lon="6.78083">
        <ele>244.9</ele>
        <time>2025-10-24T09:15:08.000Z</time>
      </trkpt>
      <trkpt lat="43.57714" lon="6.78083">
        <ele>245.2</ele>
        <time>2025-10-24T09:15:09.000Z</time>
      </trkpt>
      <trkpt lat="43.57711" lon="6.78082">
        <ele>245.5</ele>
        <time>2025-10-24T09:15:10.000Z</time>
      </trkpt>
      <trkpt lat="43.57708" lon="6.78081">
        <ele>245.8</ele>
        <time>2025-10-24T09:15:11.000Z</time>
      </trkpt>
      <trkpt lat="43.57706" lon="6.7808">
        <ele>246.1</ele>
        <time>2025-10-24T09:15:12.000Z</time>
      </trkpt>
      <trkpt lat="43.57704" lon="6.78078">
        <ele>246.4</ele>
        <time>2025-10-24T09:15:13.000Z</time>
      </trkpt>
      <trkpt lat="43.57702" lon="6.78076">
        <ele>246.8</ele>
        <time>2025-10-24T09:15:14.000Z</time>
      </trkpt>
      <trkpt lat="43.577" lon="6.78074">
        <ele>247.1</ele>
        <time>2025-10-24T09:15:15.000Z</time>
      </trkpt>
      <trkpt lat="43.57697" lon="6.78073">
        <ele>247.5</ele>
        <time>2025-10-24T09:15:16.000Z</time>
      </trkpt>
      <trkpt lat="43.57695" lon="6.78071">
        <ele>247.8</ele>
        <time>2025-10-24T09:15:17.000Z</time>
      </trkpt>
      <trkpt lat="43.57693" lon="6.7807">
        <ele>248.2</ele>
        <time>2025-10-24T09:15:18.000Z</time>
      </trkpt>
      <trkpt lat="43.57691" lon="6.78069">
        <ele>248.4</ele>
        <time>2025-10-24T09:15:19.000Z</time>
      </trkpt>
      <trkpt lat="43.57689" lon="6.78068">
        <ele>248.7</ele>
        <time>2025-10-24T09:15:20.000Z</time>
      </trkpt>
      <trkpt lat="43.57687" lon="6.78068">
        <ele>249</ele>
        <time>2025-10-24T09:15:21.000Z</time>
      </trkpt>
      <trkpt lat="43.57685" lon="6.78067">
        <ele>249.3</ele>
        <time>2025-10-24T09:15:22.000Z</time>
      </trkpt>
      <trkpt lat="43.57683" lon="6.78066">
        <ele>249.6</ele>
        <time>2025-10-24T09:15:23.000Z</time>
      </trkpt>
      <trkpt lat="43.57681" lon="6.78066">
        <ele>249.9</ele>
        <time>2025-10-24T09:15:24.000Z</time>
      </trkpt>
      <trkpt lat="43.57678" lon="6.78065">
        <ele>250.3</ele>
        <time>2025-10-24T09:15:25.000Z</time>
      </trkpt>
      <trkpt lat="43.57676" lon="6.78064">
        <ele>250.7</ele>
        <time>2025-10-24T09:15:26.000Z</time>
      </trkpt>
      <trkpt lat="43.57673" lon="6.78064">
        <ele>251.1</ele>
        <time>2025-10-24T09:15:27.000Z</time>
      </trkpt>
      <trkpt lat="43.57671" lon="6.78064">
        <ele>251.5</ele>
        <time>2025-10-24T09:15:28.000Z</time>
      </trkpt>
      <trkpt lat="43.57668" lon="6.78064">
        <ele>251.8</ele>
        <time>2025-10-24T09:15:29.000Z</time>
      </trkpt>
      <trkpt lat="43.57666" lon="6.78064">
        <ele>252.2</ele>
        <time>2025-10-24T09:15:30.000Z</time>
      </trkpt>
      <trkpt lat="43.57663" lon="6.78065">
        <ele>252.6</ele>
        <time>2025-10-24T09:15:31.000Z</time>
      </trkpt>
      <trkpt lat="43.57661" lon="6.78065">
        <ele>252.9</ele>
        <time>2025-10-24T09:15:32.000Z</time>
      </trkpt>
      <trkpt lat="43.57659" lon="6.78065">
        <ele>253.1</ele>
        <time>2025-10-24T09:15:33.000Z</time>
      </trkpt>
      <trkpt lat="43.57659" lon="6.78065">
        <ele>253.2</ele>
        <time>2025-10-24T09:15:34.000Z</time>
      </trkpt>
      <trkpt lat="43.57658" lon="6.78064">
        <ele>253.3</ele>
        <time>2025-10-24T09:15:35.000Z</time>
      </trkpt>
      <trkpt lat="43.57658" lon="6.78064">
        <ele>253.3</ele>
        <time>2025-10-24T09:15:36.000Z</time>
      </trkpt>
      <trkpt lat="43.57658" lon="6.78063">
        <ele>253.4</ele>
        <time>2025-10-24T09:15:37.000Z</time>
      </trkpt>
      <trkpt lat="43.57658" lon="6.78063">
        <ele>253.4</ele>
        <time>2025-10-24T09:15:38.000Z</time>
      </trkpt>
      <trkpt lat="43.57658" lon="6.78063">
        <ele>253.4</ele>
        <time>2025-10-24T09:15:39.000Z</time>
      </trkpt>
      <trkpt lat="43.57658" lon="6.78063">
        <ele>253.5</ele>
        <time>2025-10-24T09:15:40.000Z</time>
      </trkpt>
      <trkpt lat="43.57658" lon="6.78063">
        <ele>253.5</ele>
        <time>2025-10-24T09:15:41.000Z</time>
      </trkpt>
      <trkpt lat="43.57658" lon="6.78063">
        <ele>253.5</ele>
        <time>2025-10-24T09:15:42.000Z</time>
      </trkpt>
      <trkpt lat="43.57658" lon="6.78063">
        <ele>253.5</ele>
        <time>2025-10-24T09:15:43.000Z</time>
      </trkpt>
      <trkpt lat="43.57658" lon="6.78063">
        <ele>253.6</ele>
        <time>2025-10-24T09:15:44.000Z</time>
      </trkpt>
      <trkpt lat="43.57657" lon="6.78063">
        <ele>253.7</ele>
        <time>2025-10-24T09:15:45.000Z</time>
      </trkpt>
      <trkpt lat="43.57655" lon="6.78063">
        <ele>254</ele>
        <time>2025-10-24T09:15:46.000Z</time>
      </trkpt>
      <trkpt lat="43.57653" lon="6.78063">
        <ele>254.3</ele>
        <time>2025-10-24T09:15:47.000Z</time>
      </trkpt>
      <trkpt lat="43.57651" lon="6.78063">
        <ele>254.6</ele>
        <time>2025-10-24T09:15:48.000Z</time>
      </trkpt>
      <trkpt lat="43.57648" lon="6.78063">
        <ele>255.1</ele>
        <time>2025-10-24T09:15:49.000Z</time>
      </trkpt>
      <trkpt lat="43.57645" lon="6.78063">
        <ele>255.5</ele>
        <time>2025-10-24T09:15:50.000Z</time>
      </trkpt>
      <trkpt lat="43.57642" lon="6.78063">
        <ele>255.9</ele>
        <time>2025-10-24T09:15:51.000Z</time>
      </trkpt>
      <trkpt lat="43.57639" lon="6.78063">
        <ele>256.4</ele>
        <time>2025-10-24T09:15:52.000Z</time>
      </trkpt>
      <trkpt lat="43.57636" lon="6.78062">
        <ele>256.9</ele>
        <time>2025-10-24T09:15:53.000Z</time>
      </trkpt>
      <trkpt lat="43.57633" lon="6.78062">
        <ele>257.4</ele>
        <time>2025-10-24T09:15:54.000Z</time>
      </trkpt>
      <trkpt lat="43.57629" lon="6.78061">
        <ele>257.9</ele>
        <time>2025-10-24T09:15:55.000Z</time>
      </trkpt>
      <trkpt lat="43.57626" lon="6.78061">
        <ele>258.3</ele>
        <time>2025-10-24T09:15:56.000Z</time>
      </trkpt>
      <trkpt lat="43.57623" lon="6.78061">
        <ele>258.7</ele>
        <time>2025-10-24T09:15:57.000Z</time>
      </trkpt>
      <trkpt lat="43.5762" lon="6.7806">
        <ele>259.1</ele>
        <time>2025-10-24T09:15:58.000Z</time>
      </trkpt>
      <trkpt lat="43.57617" lon="6.7806">
        <ele>259.5</ele>
        <time>2025-10-24T09:15:59.000Z</time>
      </trkpt>
      <trkpt lat="43.57614" lon="6.78059">
        <ele>260</ele>
        <time>2025-10-24T09:16:00.000Z</time>
      </trkpt>
      <trkpt lat="43.57611" lon="6.78059">
        <ele>260.3</ele>
        <time>2025-10-24T09:16:01.000Z</time>
      </trkpt>
      <trkpt lat="43.57608" lon="6.78058">
        <ele>260.8</ele>
        <time>2025-10-24T09:16:02.000Z</time>
      </trkpt>
      <trkpt lat="43.57604" lon="6.78058">
        <ele>261.3</ele>
        <time>2025-10-24T09:16:03.000Z</time>
      </trkpt>
      <trkpt lat="43.576" lon="6.78058">
        <ele>261.7</ele>
        <time>2025-10-24T09:16:04.000Z</time>
      </trkpt>
      <trkpt lat="43.57597" lon="6.78057">
        <ele>262.1</ele>
        <time>2025-10-24T09:16:05.000Z</time>
      </trkpt>
      <trkpt lat="43.57594" lon="6.78057">
        <ele>262.5</ele>
        <time>2025-10-24T09:16:06.000Z</time>
      </trkpt>
      <trkpt lat="43.57591" lon="6.78056">
        <ele>262.8</ele>
        <time>2025-10-24T09:16:07.000Z</time>
      </trkpt>
      <trkpt lat="43.57587" lon="6.78056">
        <ele>263.2</ele>
        <time>2025-10-24T09:16:08.000Z</time>
      </trkpt>
      <trkpt lat="43.57584" lon="6.78056">
        <ele>263.6</ele>
        <time>2025-10-24T09:16:09.000Z</time>
      </trkpt>
      <trkpt lat="43.5758" lon="6.78055">
        <ele>263.9</ele>
        <time>2025-10-24T09:16:10.000Z</time>
      </trkpt>
      <trkpt lat="43.57577" lon="6.78055">
        <ele>264.3</ele>
        <time>2025-10-24T09:16:11.000Z</time>
      </trkpt>
      <trkpt lat="43.57574" lon="6.78054">
        <ele>264.6</ele>
        <time>2025-10-24T09:16:12.000Z</time>
      </trkpt>
      <trkpt lat="43.57571" lon="6.78054">
        <ele>264.9</ele>
        <time>2025-10-24T09:16:13.000Z</time>
      </trkpt>
      <trkpt lat="43.57567" lon="6.78054">
        <ele>265.2</ele>
        <time>2025-10-24T09:16:14.000Z</time>
      </trkpt>
      <trkpt lat="43.57564" lon="6.78053">
        <ele>265.5</ele>
        <time>2025-10-24T09:16:15.000Z</time>
      </trkpt>
      <trkpt lat="43.57561" lon="6.78053">
        <ele>265.9</ele>
        <time>2025-10-24T09:16:16.000Z</time>
      </trkpt>
      <trkpt lat="43.57557" lon="6.78052">
        <ele>266.2</ele>
        <time>2025-10-24T09:16:17.000Z</time>
      </trkpt>
      <trkpt lat="43.57554" lon="6.78052">
        <ele>266.5</ele>
        <time>2025-10-24T09:16:18.000Z</time>
      </trkpt>
      <trkpt lat="43.57551" lon="6.78051">
        <ele>266.8</ele>
        <time>2025-10-24T09:16:19.000Z</time>
      </trkpt>
      <trkpt lat="43.57547" lon="6.78051">
        <ele>267.1</ele>
        <time>2025-10-24T09:16:20.000Z</time>
      </trkpt>
      <trkpt lat="43.57543" lon="6.78051">
        <ele>267.5</ele>
        <time>2025-10-24T09:16:21.000Z</time>
      </trkpt>
      <trkpt lat="43.5754" lon="6.7805">
        <ele>267.8</ele>
        <time>2025-10-24T09:16:22.000Z</time>
      </trkpt>
      <trkpt lat="43.57536" lon="6.78051">
        <ele>268.1</ele>
        <time>2025-10-24T09:16:23.000Z</time>
      </trkpt>
      <trkpt lat="43.57533" lon="6.78051">
        <ele>268.4</ele>
        <time>2025-10-24T09:16:24.000Z</time>
      </trkpt>
      <trkpt lat="43.5753" lon="6.78051">
        <ele>268.7</ele>
        <time>2025-10-24T09:16:25.000Z</time>
      </trkpt>
      <trkpt lat="43.57526" lon="6.78052">
        <ele>269</ele>
        <time>2025-10-24T09:16:26.000Z</time>
      </trkpt>
      <trkpt lat="43.57523" lon="6.78052">
        <ele>269.3</ele>
        <time>2025-10-24T09:16:27.000Z</time>
      </trkpt>
      <trkpt lat="43.5752" lon="6.78053">
        <ele>269.6</ele>
        <time>2025-10-24T09:16:28.000Z</time>
      </trkpt>
      <trkpt lat="43.57516" lon="6.78054">
        <ele>269.9</ele>
        <time>2025-10-24T09:16:29.000Z</time>
      </trkpt>
      <trkpt lat="43.57513" lon="6.78056">
        <ele>270.2</ele>
        <time>2025-10-24T09:16:30.000Z</time>
      </trkpt>
      <trkpt lat="43.5751" lon="6.78057">
        <ele>270.5</ele>
        <time>2025-10-24T09:16:31.000Z</time>
      </trkpt>
      <trkpt lat="43.57507" lon="6.78058">
        <ele>270.7</ele>
        <time>2025-10-24T09:16:32.000Z</time>
      </trkpt>
      <trkpt lat="43.57503" lon="6.7806">
        <ele>271</ele>
        <time>2025-10-24T09:16:33.000Z</time>
      </trkpt>
      <trkpt lat="43.57501" lon="6.78061">
        <ele>271.2</ele>
        <time>2025-10-24T09:16:34.000Z</time>
      </trkpt>
      <trkpt lat="43.57498" lon="6.78063">
        <ele>271.4</ele>
        <time>2025-10-24T09:16:35.000Z</time>
      </trkpt>
      <trkpt lat="43.57495" lon="6.78064">
        <ele>271.6</ele>
        <time>2025-10-24T09:16:36.000Z</time>
      </trkpt>
      <trkpt lat="43.57491" lon="6.78066">
        <ele>271.9</ele>
        <time>2025-10-24T09:16:37.000Z</time>
      </trkpt>
      <trkpt lat="43.57488" lon="6.78068">
        <ele>272.2</ele>
        <time>2025-10-24T09:16:38.000Z</time>
      </trkpt>
      <trkpt lat="43.57485" lon="6.7807">
        <ele>272.4</ele>
        <time>2025-10-24T09:16:39.000Z</time>
      </trkpt>
      <trkpt lat="43.57482" lon="6.78072">
        <ele>272.7</ele>
        <time>2025-10-24T09:16:40.000Z</time>
      </trkpt>
      <trkpt lat="43.57479" lon="6.78074">
        <ele>273.1</ele>
        <time>2025-10-24T09:16:41.000Z</time>
      </trkpt>
      <trkpt lat="43.57475" lon="6.78076">
        <ele>273.4</ele>
        <time>2025-10-24T09:16:42.000Z</time>
      </trkpt>
      <trkpt lat="43.57472" lon="6.78078">
        <ele>273.9</ele>
        <time>2025-10-24T09:16:43.000Z</time>
      </trkpt>
      <trkpt lat="43.57469" lon="6.78079">
        <ele>274.2</ele>
        <time>2025-10-24T09:16:44.000Z</time>
      </trkpt>
      <trkpt lat="43.57466" lon="6.7808">
        <ele>274.5</ele>
        <time>2025-10-24T09:16:45.000Z</time>
      </trkpt>
      <trkpt lat="43.57462" lon="6.78082">
        <ele>275</ele>
        <time>2025-10-24T09:16:46.000Z</time>
      </trkpt>
      <trkpt lat="43.57458" lon="6.78084">
        <ele>275.5</ele>
        <time>2025-10-24T09:16:47.000Z</time>
      </trkpt>
      <trkpt lat="43.57455" lon="6.78086">
        <ele>275.9</ele>
        <time>2025-10-24T09:16:48.000Z</time>
      </trkpt>
      <trkpt lat="43.57452" lon="6.78087">
        <ele>276.2</ele>
        <time>2025-10-24T09:16:49.000Z</time>
      </trkpt>
      <trkpt lat="43.57449" lon="6.78089">
        <ele>276.7</ele>
        <time>2025-10-24T09:16:50.000Z</time>
      </trkpt>
      <trkpt lat="43.57446" lon="6.7809">
        <ele>277.1</ele>
        <time>2025-10-24T09:16:51.000Z</time>
      </trkpt>
      <trkpt lat="43.57443" lon="6.78092">
        <ele>277.5</ele>
        <time>2025-10-24T09:16:52.000Z</time>
      </trkpt>
      <trkpt lat="43.57439" lon="6.78094">
        <ele>278</ele>
        <time>2025-10-24T09:16:53.000Z</time>
      </trkpt>
      <trkpt lat="43.57436" lon="6.78095">
        <ele>278.4</ele>
        <time>2025-10-24T09:16:54.000Z</time>
      </trkpt>
      <trkpt lat="43.57433" lon="6.78097">
        <ele>278.8</ele>
        <time>2025-10-24T09:16:55.000Z</time>
      </trkpt>
      <trkpt lat="43.57429" lon="6.78099">
        <ele>279.4</ele>
        <time>2025-10-24T09:16:56.000Z</time>
      </trkpt>
      <trkpt lat="43.57425" lon="6.78101">
        <ele>279.8</ele>
        <time>2025-10-24T09:16:57.000Z</time>
      </trkpt>
      <trkpt lat="43.57422" lon="6.78103">
        <ele>280.2</ele>
        <time>2025-10-24T09:16:58.000Z</time>
      </trkpt>
      <trkpt lat="43.5742" lon="6.78105">
        <ele>280.5</ele>
        <time>2025-10-24T09:16:59.000Z</time>
      </trkpt>
      <trkpt lat="43.57417" lon="6.78108">
        <ele>281</ele>
        <time>2025-10-24T09:17:00.000Z</time>
      </trkpt>
      <trkpt lat="43.57413" lon="6.78111">
        <ele>281.5</ele>
        <time>2025-10-24T09:17:01.000Z</time>
      </trkpt>
      <trkpt lat="43.57411" lon="6.78113">
        <ele>281.9</ele>
        <time>2025-10-24T09:17:02.000Z</time>
      </trkpt>
      <trkpt lat="43.57408" lon="6.78116">
        <ele>282.3</ele>
        <time>2025-10-24T09:17:03.000Z</time>
      </trkpt>
      <trkpt lat="43.57405" lon="6.78117">
        <ele>282.7</ele>
        <time>2025-10-24T09:17:04.000Z</time>
      </trkpt>
      <trkpt lat="43.57402" lon="6.78119">
        <ele>283.1</ele>
        <time>2025-10-24T09:17:05.000Z</time>
      </trkpt>
      <trkpt lat="43.57398" lon="6.78122">
        <ele>283.7</ele>
        <time>2025-10-24T09:17:06.000Z</time>
      </trkpt>
      <trkpt lat="43.57395" lon="6.78124">
        <ele>284.1</ele>
        <time>2025-10-24T09:17:07.000Z</time>
      </trkpt>
      <trkpt lat="43.57393" lon="6.78125">
        <ele>284.4</ele>
        <time>2025-10-24T09:17:08.000Z</time>
      </trkpt>
      <trkpt lat="43.5739" lon="6.78127">
        <ele>284.9</ele>
        <time>2025-10-24T09:17:09.000Z</time>
      </trkpt>
      <trkpt lat="43.57387" lon="6.78128">
        <ele>285.3</ele>
        <time>2025-10-24T09:17:10.000Z</time>
      </trkpt>
      <trkpt lat="43.57383" lon="6.7813">
        <ele>285.8</ele>
        <time>2025-10-24T09:17:11.000Z</time>
      </trkpt>
      <trkpt lat="43.5738" lon="6.78132">
        <ele>286.3</ele>
        <time>2025-10-24T09:17:12.000Z</time>
      </trkpt>
      <trkpt lat="43.57377" lon="6.78133">
        <ele>286.7</ele>
        <time>2025-10-24T09:17:13.000Z</time>
      </trkpt>
      <trkpt lat="43.57373" lon="6.78134">
        <ele>287.3</ele>
        <time>2025-10-24T09:17:14.000Z</time>
      </trkpt>
      <trkpt lat="43.5737" lon="6.78136">
        <ele>287.8</ele>
        <time>2025-10-24T09:17:15.000Z</time>
      </trkpt>
      <trkpt lat="43.57367" lon="6.78137">
        <ele>288.3</ele>
        <time>2025-10-24T09:17:16.000Z</time>
      </trkpt>
      <trkpt lat="43.57364" lon="6.78138">
        <ele>288.8</ele>
        <time>2025-10-24T09:17:17.000Z</time>
      </trkpt>
      <trkpt lat="43.57361" lon="6.78139">
        <ele>289.2</ele>
        <time>2025-10-24T09:17:18.000Z</time>
      </trkpt>
      <trkpt lat="43.57359" lon="6.7814">
        <ele>289.6</ele>
        <time>2025-10-24T09:17:19.000Z</time>
      </trkpt>
      <trkpt lat="43.57355" lon="6.78142">
        <ele>290.2</ele>
        <time>2025-10-24T09:17:20.000Z</time>
      </trkpt>
      <trkpt lat="43.57352" lon="6.78143">
        <ele>290.7</ele>
        <time>2025-10-24T09:17:21.000Z</time>
      </trkpt>
      <trkpt lat="43.57349" lon="6.78145">
        <ele>291.1</ele>
        <time>2025-10-24T09:17:22.000Z</time>
      </trkpt>
      <trkpt lat="43.57347" lon="6.78145">
        <ele>291.6</ele>
        <time>2025-10-24T09:17:23.000Z</time>
      </trkpt>
      <trkpt lat="43.57343" lon="6.78147">
        <ele>292.2</ele>
        <time>2025-10-24T09:17:24.000Z</time>
      </trkpt>
      <trkpt lat="43.57339" lon="6.78148">
        <ele>292.7</ele>
        <time>2025-10-24T09:17:25.000Z</time>
      </trkpt>
      <trkpt lat="43.57336" lon="6.7815">
        <ele>293.2</ele>
        <time>2025-10-24T09:17:26.000Z</time>
      </trkpt>
      <trkpt lat="43.57334" lon="6.78151">
        <ele>293.7</ele>
        <time>2025-10-24T09:17:27.000Z</time>
      </trkpt>
      <trkpt lat="43.57331" lon="6.78152">
        <ele>294.1</ele>
        <time>2025-10-24T09:17:28.000Z</time>
      </trkpt>
      <trkpt lat="43.57328" lon="6.78153">
        <ele>294.7</ele>
        <time>2025-10-24T09:17:29.000Z</time>
      </trkpt>
      <trkpt lat="43.57325" lon="6.78154">
        <ele>295.2</ele>
        <time>2025-10-24T09:17:30.000Z</time>
      </trkpt>
      <trkpt lat="43.57323" lon="6.78155">
        <ele>295.6</ele>
        <time>2025-10-24T09:17:31.000Z</time>
      </trkpt>
      <trkpt lat="43.5732" lon="6.78156">
        <ele>296.2</ele>
        <time>2025-10-24T09:17:32.000Z</time>
      </trkpt>
      <trkpt lat="43.57317" lon="6.78158">
        <ele>296.7</ele>
        <time>2025-10-24T09:17:33.000Z</time>
      </trkpt>
      <trkpt lat="43.57313" lon="6.78159">
        <ele>297.3</ele>
        <time>2025-10-24T09:17:34.000Z</time>
      </trkpt>
      <trkpt lat="43.5731" lon="6.7816">
        <ele>297.7</ele>
        <time>2025-10-24T09:17:35.000Z</time>
      </trkpt>
      <trkpt lat="43.57308" lon="6.78161">
        <ele>298.1</ele>
        <time>2025-10-24T09:17:36.000Z</time>
      </trkpt>
      <trkpt lat="43.57305" lon="6.78161">
        <ele>298.6</ele>
        <time>2025-10-24T09:17:37.000Z</time>
      </trkpt>
      <trkpt lat="43.57302" lon="6.7816">
        <ele>299</ele>
        <time>2025-10-24T09:17:38.000Z</time>
      </trkpt>
      <trkpt lat="43.573" lon="6.78158">
        <ele>299.5</ele>
        <time>2025-10-24T09:17:39.000Z</time>
      </trkpt>
      <trkpt lat="43.57298" lon="6.78155">
        <ele>299.9</ele>
        <time>2025-10-24T09:17:40.000Z</time>
      </trkpt>
      <trkpt lat="43.57296" lon="6.78152">
        <ele>300.3</ele>
        <time>2025-10-24T09:17:41.000Z</time>
      </trkpt>
      <trkpt lat="43.57295" lon="6.78149">
        <ele>300.7</ele>
        <time>2025-10-24T09:17:42.000Z</time>
      </trkpt>
      <trkpt lat="43.57294" lon="6.78146">
        <ele>301.1</ele>
        <time>2025-10-24T09:17:43.000Z</time>
      </trkpt>
      <trkpt lat="43.57292" lon="6.78143">
        <ele>301.5</ele>
        <time>2025-10-24T09:17:44.000Z</time>
      </trkpt>
      <trkpt lat="43.57291" lon="6.78139">
        <ele>302.1</ele>
        <time>2025-10-24T09:17:45.000Z</time>
      </trkpt>
      <trkpt lat="43.5729" lon="6.78136">
        <ele>302.4</ele>
        <time>2025-10-24T09:17:46.000Z</time>
      </trkpt>
      <trkpt lat="43.57288" lon="6.78134">
        <ele>302.8</ele>
        <time>2025-10-24T09:17:47.000Z</time>
      </trkpt>
      <trkpt lat="43.57286" lon="6.78131">
        <ele>303.3</ele>
        <time>2025-10-24T09:17:48.000Z</time>
      </trkpt>
      <trkpt lat="43.57284" lon="6.7813">
        <ele>303.7</ele>
        <time>2025-10-24T09:17:49.000Z</time>
      </trkpt>
      <trkpt lat="43.57281" lon="6.78128">
        <ele>304.1</ele>
        <time>2025-10-24T09:17:50.000Z</time>
      </trkpt>
      <trkpt lat="43.5728" lon="6.78128">
        <ele>304.4</ele>
        <time>2025-10-24T09:17:51.000Z</time>
      </trkpt>
      <trkpt lat="43.57277" lon="6.78127">
        <ele>304.8</ele>
        <time>2025-10-24T09:17:52.000Z</time>
      </trkpt>
      <trkpt lat="43.57275" lon="6.78126">
        <ele>305.2</ele>
        <time>2025-10-24T09:17:53.000Z</time>
      </trkpt>
      <trkpt lat="43.57272" lon="6.78126">
        <ele>305.6</ele>
        <time>2025-10-24T09:17:54.000Z</time>
      </trkpt>
      <trkpt lat="43.5727" lon="6.78125">
        <ele>306</ele>
        <time>2025-10-24T09:17:55.000Z</time>
      </trkpt>
      <trkpt lat="43.57267" lon="6.78125">
        <ele>306.3</ele>
        <time>2025-10-24T09:17:56.000Z</time>
      </trkpt>
      <trkpt lat="43.57265" lon="6.78125">
        <ele>306.7</ele>
        <time>2025-10-24T09:17:57.000Z</time>
      </trkpt>
      <trkpt lat="43.57262" lon="6.78125">
        <ele>307</ele>
        <time>2025-10-24T09:17:58.000Z</time>
      </trkpt>
      <trkpt lat="43.5726" lon="6.78125">
        <ele>307.3</ele>
        <time>2025-10-24T09:17:59.000Z</time>
      </trkpt>
      <trkpt lat="43.57258" lon="6.78125">
        <ele>307.5</ele>
        <time>2025-10-24T09:18:00.000Z</time>
      </trkpt>
      <trkpt lat="43.57255" lon="6.78125">
        <ele>307.8</ele>
        <time>2025-10-24T09:18:01.000Z</time>
      </trkpt>
      <trkpt lat="43.57252" lon="6.78126">
        <ele>308.1</ele>
        <time>2025-10-24T09:18:02.000Z</time>
      </trkpt>
      <trkpt lat="43.57249" lon="6.78126">
        <ele>308.4</ele>
        <time>2025-10-24T09:18:03.000Z</time>
      </trkpt>
      <trkpt lat="43.57246" lon="6.78127">
        <ele>308.6</ele>
        <time>2025-10-24T09:18:04.000Z</time>
      </trkpt>
      <trkpt lat="43.57244" lon="6.78127">
        <ele>308.9</ele>
        <time>2025-10-24T09:18:05.000Z</time>
      </trkpt>
      <trkpt lat="43.57241" lon="6.78128">
        <ele>309.2</ele>
        <time>2025-10-24T09:18:06.000Z</time>
      </trkpt>
      <trkpt lat="43.57239" lon="6.78127">
        <ele>309.4</ele>
        <time>2025-10-24T09:18:07.000Z</time>
      </trkpt>
      <trkpt lat="43.57236" lon="6.78127">
        <ele>309.7</ele>
        <time>2025-10-24T09:18:08.000Z</time>
      </trkpt>
      <trkpt lat="43.57234" lon="6.78128">
        <ele>309.9</ele>
        <time>2025-10-24T09:18:09.000Z</time>
      </trkpt>
      <trkpt lat="43.57231" lon="6.78128">
        <ele>310.2</ele>
        <time>2025-10-24T09:18:10.000Z</time>
      </trkpt>
      <trkpt lat="43.57229" lon="6.78128">
        <ele>310.4</ele>
        <time>2025-10-24T09:18:11.000Z</time>
      </trkpt>
      <trkpt lat="43.57227" lon="6.78129">
        <ele>310.6</ele>
        <time>2025-10-24T09:18:12.000Z</time>
      </trkpt>
      <trkpt lat="43.57225" lon="6.78129">
        <ele>310.9</ele>
        <time>2025-10-24T09:18:13.000Z</time>
      </trkpt>
      <trkpt lat="43.57223" lon="6.7813">
        <ele>311.1</ele>
        <time>2025-10-24T09:18:14.000Z</time>
      </trkpt>
      <trkpt lat="43.57221" lon="6.7813">
        <ele>311.3</ele>
        <time>2025-10-24T09:18:15.000Z</time>
      </trkpt>
      <trkpt lat="43.57218" lon="6.78131">
        <ele>311.5</ele>
        <time>2025-10-24T09:18:16.000Z</time>
      </trkpt>
      <trkpt lat="43.57216" lon="6.78131">
        <ele>311.8</ele>
        <time>2025-10-24T09:18:17.000Z</time>
      </trkpt>
      <trkpt lat="43.57212" lon="6.78132">
        <ele>312.1</ele>
        <time>2025-10-24T09:18:18.000Z</time>
      </trkpt>
      <trkpt lat="43.5721" lon="6.78132">
        <ele>312.4</ele>
        <time>2025-10-24T09:18:19.000Z</time>
      </trkpt>
      <trkpt lat="43.57208" lon="6.78133">
        <ele>312.7</ele>
        <time>2025-10-24T09:18:20.000Z</time>
      </trkpt>
      <trkpt lat="43.57205" lon="6.78134">
        <ele>313</ele>
        <time>2025-10-24T09:18:21.000Z</time>
      </trkpt>
      <trkpt lat="43.57202" lon="6.78135">
        <ele>313.3</ele>
        <time>2025-10-24T09:18:22.000Z</time>
      </trkpt>
      <trkpt lat="43.57199" lon="6.78136">
        <ele>313.7</ele>
        <time>2025-10-24T09:18:23.000Z</time>
      </trkpt>
      <trkpt lat="43.57197" lon="6.78136">
        <ele>314</ele>
        <time>2025-10-24T09:18:24.000Z</time>
      </trkpt>
      <trkpt lat="43.57195" lon="6.78137">
        <ele>314.2</ele>
        <time>2025-10-24T09:18:25.000Z</time>
      </trkpt>
      <trkpt lat="43.57192" lon="6.78138">
        <ele>314.6</ele>
        <time>2025-10-24T09:18:26.000Z</time>
      </trkpt>
      <trkpt lat="43.57189" lon="6.78138">
        <ele>315</ele>
        <time>2025-10-24T09:18:27.000Z</time>
      </trkpt>
      <trkpt lat="43.57187" lon="6.78139">
        <ele>315.3</ele>
        <time>2025-10-24T09:18:28.000Z</time>
      </trkpt>
      <trkpt lat="43.57185" lon="6.7814">
        <ele>315.7</ele>
        <time>2025-10-24T09:18:29.000Z</time>
      </trkpt>
      <trkpt lat="43.57182" lon="6.78142">
        <ele>316.1</ele>
        <time>2025-10-24T09:18:30.000Z</time>
      </trkpt>
      <trkpt lat="43.57179" lon="6.78142">
        <ele>316.5</ele>
        <time>2025-10-24T09:18:31.000Z</time>
      </trkpt>
      <trkpt lat="43.57177" lon="6.78143">
        <ele>316.9</ele>
        <time>2025-10-24T09:18:32.000Z</time>
      </trkpt>
      <trkpt lat="43.57175" lon="6.78144">
        <ele>317.2</ele>
        <time>2025-10-24T09:18:33.000Z</time>
      </trkpt>
      <trkpt lat="43.57172" lon="6.78145">
        <ele>317.5</ele>
        <time>2025-10-24T09:18:34.000Z</time>
      </trkpt>
      <trkpt lat="43.57169" lon="6.78146">
        <ele>318</ele>
        <time>2025-10-24T09:18:35.000Z</time>
      </trkpt>
      <trkpt lat="43.57166" lon="6.78147">
        <ele>318.4</ele>
        <time>2025-10-24T09:18:36.000Z</time>
      </trkpt>
      <trkpt lat="43.57164" lon="6.78148">
        <ele>318.7</ele>
        <time>2025-10-24T09:18:37.000Z</time>
      </trkpt>
      <trkpt lat="43.57162" lon="6.78149">
        <ele>319</ele>
        <time>2025-10-24T09:18:38.000Z</time>
      </trkpt>
      <trkpt lat="43.57159" lon="6.7815">
        <ele>319.4</ele>
        <time>2025-10-24T09:18:39.000Z</time>
      </trkpt>
      <trkpt lat="43.57156" lon="6.78151">
        <ele>319.9</ele>
        <time>2025-10-24T09:18:40.000Z</time>
      </trkpt>
      <trkpt lat="43.57153" lon="6.78151">
        <ele>320.3</ele>
        <time>2025-10-24T09:18:41.000Z</time>
      </trkpt>
      <trkpt lat="43.5715" lon="6.78152">
        <ele>320.6</ele>
        <time>2025-10-24T09:18:42.000Z</time>
      </trkpt>
      <trkpt lat="43.57148" lon="6.78153">
        <ele>321</ele>
        <time>2025-10-24T09:18:43.000Z</time>
      </trkpt>
      <trkpt lat="43.57144" lon="6.78153">
        <ele>321.5</ele>
        <time>2025-10-24T09:18:44.000Z</time>
      </trkpt>
      <trkpt lat="43.57141" lon="6.78154">
        <ele>321.9</ele>
        <time>2025-10-24T09:18:45.000Z</time>
      </trkpt>
      <trkpt lat="43.57138" lon="6.78154">
        <ele>322.4</ele>
        <time>2025-10-24T09:18:46.000Z</time>
      </trkpt>
      <trkpt lat="43.57136" lon="6.78153">
        <ele>322.7</ele>
        <time>2025-10-24T09:18:47.000Z</time>
      </trkpt>
      <trkpt lat="43.57133" lon="6.78153">
        <ele>323.1</ele>
        <time>2025-10-24T09:18:48.000Z</time>
      </trkpt>
      <trkpt lat="43.5713" lon="6.78153">
        <ele>323.6</ele>
        <time>2025-10-24T09:18:49.000Z</time>
      </trkpt>
      <trkpt lat="43.57127" lon="6.78152">
        <ele>324</ele>
        <time>2025-10-24T09:18:50.000Z</time>
      </trkpt>
      <trkpt lat="43.57124" lon="6.78152">
        <ele>324.5</ele>
        <time>2025-10-24T09:18:51.000Z</time>
      </trkpt>
      <trkpt lat="43.57121" lon="6.78152">
        <ele>324.9</ele>
        <time>2025-10-24T09:18:52.000Z</time>
      </trkpt>
      <trkpt lat="43.57118" lon="6.78152">
        <ele>325.3</ele>
        <time>2025-10-24T09:18:53.000Z</time>
      </trkpt>
      <trkpt lat="43.57115" lon="6.78152">
        <ele>325.8</ele>
        <time>2025-10-24T09:18:54.000Z</time>
      </trkpt>
      <trkpt lat="43.57112" lon="6.78152">
        <ele>326.3</ele>
        <time>2025-10-24T09:18:55.000Z</time>
      </trkpt>
      <trkpt lat="43.57109" lon="6.78152">
        <ele>326.7</ele>
        <time>2025-10-24T09:18:56.000Z</time>
      </trkpt>
      <trkpt lat="43.57107" lon="6.78152">
        <ele>327.2</ele>
        <time>2025-10-24T09:18:57.000Z</time>
      </trkpt>
      <trkpt lat="43.57103" lon="6.78152">
        <ele>327.8</ele>
        <time>2025-10-24T09:18:58.000Z</time>
      </trkpt>
      <trkpt lat="43.57101" lon="6.78152">
        <ele>328.2</ele>
        <time>2025-10-24T09:18:59.000Z</time>
      </trkpt>
      <trkpt lat="43.57098" lon="6.78153">
        <ele>328.9</ele>
        <time>2025-10-24T09:19:00.000Z</time>
      </trkpt>
      <trkpt lat="43.57095" lon="6.78153">
        <ele>329.3</ele>
        <time>2025-10-24T09:19:01.000Z</time>
      </trkpt>
      <trkpt lat="43.57093" lon="6.78153">
        <ele>329.8</ele>
        <time>2025-10-24T09:19:02.000Z</time>
      </trkpt>
      <trkpt lat="43.57089" lon="6.78153">
        <ele>330.4</ele>
        <time>2025-10-24T09:19:03.000Z</time>
      </trkpt>
      <trkpt lat="43.57086" lon="6.78153">
        <ele>330.9</ele>
        <time>2025-10-24T09:19:04.000Z</time>
      </trkpt>
      <trkpt lat="43.57083" lon="6.78152">
        <ele>331.4</ele>
        <time>2025-10-24T09:19:05.000Z</time>
      </trkpt>
      <trkpt lat="43.5708" lon="6.78152">
        <ele>331.8</ele>
        <time>2025-10-24T09:19:06.000Z</time>
      </trkpt>
      <trkpt lat="43.57078" lon="6.78152">
        <ele>332.2</ele>
        <time>2025-10-24T09:19:07.000Z</time>
      </trkpt>
      <trkpt lat="43.57074" lon="6.78152">
        <ele>332.7</ele>
        <time>2025-10-24T09:19:08.000Z</time>
      </trkpt>
      <trkpt lat="43.57071" lon="6.78152">
        <ele>333.1</ele>
        <time>2025-10-24T09:19:09.000Z</time>
      </trkpt>
      <trkpt lat="43.57068" lon="6.78151">
        <ele>333.3</ele>
        <time>2025-10-24T09:19:10.000Z</time>
      </trkpt>
      <trkpt lat="43.57065" lon="6.78151">
        <ele>333.6</ele>
        <time>2025-10-24T09:19:11.000Z</time>
      </trkpt>
      <trkpt lat="43.57061" lon="6.7815">
        <ele>334</ele>
        <time>2025-10-24T09:19:12.000Z</time>
      </trkpt>
      <trkpt lat="43.57058" lon="6.78149">
        <ele>334.2</ele>
        <time>2025-10-24T09:19:13.000Z</time>
      </trkpt>
      <trkpt lat="43.57055" lon="6.78149">
        <ele>334.4</ele>
        <time>2025-10-24T09:19:14.000Z</time>
      </trkpt>
      <trkpt lat="43.57052" lon="6.78149">
        <ele>334.6</ele>
        <time>2025-10-24T09:19:15.000Z</time>
      </trkpt>
      <trkpt lat="43.57049" lon="6.78148">
        <ele>334.7</ele>
        <time>2025-10-24T09:19:16.000Z</time>
      </trkpt>
      <trkpt lat="43.57044" lon="6.78147">
        <ele>334.9</ele>
        <time>2025-10-24T09:19:17.000Z</time>
      </trkpt>
      <trkpt lat="43.5704" lon="6.78146">
        <ele>334.9</ele>
        <time>2025-10-24T09:19:18.000Z</time>
      </trkpt>
      <trkpt lat="43.57037" lon="6.78145">
        <ele>335</ele>
        <time>2025-10-24T09:19:19.000Z</time>
      </trkpt>
      <trkpt lat="43.57034" lon="6.78143">
        <ele>335</ele>
        <time>2025-10-24T09:19:20.000Z</time>
      </trkpt>
      <trkpt lat="43.5703" lon="6.78142">
        <ele>335.1</ele>
        <time>2025-10-24T09:19:21.000Z</time>
      </trkpt>
      <trkpt lat="43.57026" lon="6.7814">
        <ele>335.1</ele>
        <time>2025-10-24T09:19:22.000Z</time>
      </trkpt>
      <trkpt lat="43.57021" lon="6.78138">
        <ele>335.1</ele>
        <time>2025-10-24T09:19:23.000Z</time>
      </trkpt>
      <trkpt lat="43.57018" lon="6.78137">
        <ele>335.2</ele>
        <time>2025-10-24T09:19:24.000Z</time>
      </trkpt>
      <trkpt lat="43.57014" lon="6.78135">
        <ele>335.2</ele>
        <time>2025-10-24T09:19:25.000Z</time>
      </trkpt>
      <trkpt lat="43.57009" lon="6.78133">
        <ele>335.3</ele>
        <time>2025-10-24T09:19:26.000Z</time>
      </trkpt>
      <trkpt lat="43.57005" lon="6.78131">
        <ele>335.5</ele>
        <time>2025-10-24T09:19:27.000Z</time>
      </trkpt>
      <trkpt lat="43.57" lon="6.78129">
        <ele>335.6</ele>
        <time>2025-10-24T09:19:28.000Z</time>
      </trkpt>
      <trkpt lat="43.56997" lon="6.78128">
        <ele>335.8</ele>
        <time>2025-10-24T09:19:29.000Z</time>
      </trkpt>
      <trkpt lat="43.56992" lon="6.78126">
        <ele>336</ele>
        <time>2025-10-24T09:19:30.000Z</time>
      </trkpt>
      <trkpt lat="43.56987" lon="6.78123">
        <ele>336.3</ele>
        <time>2025-10-24T09:19:31.000Z</time>
      </trkpt>
      <trkpt lat="43.56983" lon="6.78121">
        <ele>336.5</ele>
        <time>2025-10-24T09:19:32.000Z</time>
      </trkpt>
      <trkpt lat="43.56979" lon="6.7812">
        <ele>336.8</ele>
        <time>2025-10-24T09:19:33.000Z</time>
      </trkpt>
      <trkpt lat="43.56975" lon="6.78118">
        <ele>337</ele>
        <time>2025-10-24T09:19:34.000Z</time>
      </trkpt>
      <trkpt lat="43.5697" lon="6.78116">
        <ele>337.4</ele>
        <time>2025-10-24T09:19:35.000Z</time>
      </trkpt>
      <trkpt lat="43.56965" lon="6.78114">
        <ele>337.6</ele>
        <time>2025-10-24T09:19:36.000Z</time>
      </trkpt>
      <trkpt lat="43.56961" lon="6.78113">
        <ele>337.9</ele>
        <time>2025-10-24T09:19:37.000Z</time>
      </trkpt>
      <trkpt lat="43.56957" lon="6.78112">
        <ele>338.1</ele>
        <time>2025-10-24T09:19:38.000Z</time>
      </trkpt>
      <trkpt lat="43.56953" lon="6.78111">
        <ele>338.4</ele>
        <time>2025-10-24T09:19:39.000Z</time>
      </trkpt>
      <trkpt lat="43.56947" lon="6.78109">
        <ele>338.7</ele>
        <time>2025-10-24T09:19:40.000Z</time>
      </trkpt>
      <trkpt lat="43.56943" lon="6.78108">
        <ele>339</ele>
        <time>2025-10-24T09:19:41.000Z</time>
      </trkpt>
      <trkpt lat="43.56938" lon="6.78107">
        <ele>339.2</ele>
        <time>2025-10-24T09:19:42.000Z</time>
      </trkpt>
      <trkpt lat="43.56935" lon="6.78106">
        <ele>339.4</ele>
        <time>2025-10-24T09:19:43.000Z</time>
      </trkpt>
      <trkpt lat="43.56931" lon="6.78104">
        <ele>339.6</ele>
        <time>2025-10-24T09:19:44.000Z</time>
      </trkpt>
      <trkpt lat="43.56927" lon="6.78101">
        <ele>339.8</ele>
        <time>2025-10-24T09:19:45.000Z</time>
      </trkpt>
      <trkpt lat="43.56922" lon="6.78098">
        <ele>340.1</ele>
        <time>2025-10-24T09:19:46.000Z</time>
      </trkpt>
      <trkpt lat="43.56918" lon="6.78096">
        <ele>340.2</ele>
        <time>2025-10-24T09:19:47.000Z</time>
      </trkpt>
      <trkpt lat="43.56915" lon="6.78093">
        <ele>340.4</ele>
        <time>2025-10-24T09:19:48.000Z</time>
      </trkpt>
      <trkpt lat="43.56911" lon="6.78091">
        <ele>340.6</ele>
        <time>2025-10-24T09:19:49.000Z</time>
      </trkpt>
      <trkpt lat="43.56907" lon="6.78088">
        <ele>340.7</ele>
        <time>2025-10-24T09:19:50.000Z</time>
      </trkpt>
      <trkpt lat="43.56903" lon="6.78085">
        <ele>340.8</ele>
        <time>2025-10-24T09:19:51.000Z</time>
      </trkpt>
      <trkpt lat="43.569" lon="6.78082">
        <ele>340.9</ele>
        <time>2025-10-24T09:19:52.000Z</time>
      </trkpt>
      <trkpt lat="43.56896" lon="6.78079">
        <ele>340.9</ele>
        <time>2025-10-24T09:19:53.000Z</time>
      </trkpt>
      <trkpt lat="43.56891" lon="6.78075">
        <ele>340.9</ele>
        <time>2025-10-24T09:19:54.000Z</time>
      </trkpt>
      <trkpt lat="43.56887" lon="6.78071">
        <ele>340.9</ele>
        <time>2025-10-24T09:19:55.000Z</time>
      </trkpt>
      <trkpt lat="43.56883" lon="6.78067">
        <ele>340.8</ele>
        <time>2025-10-24T09:19:56.000Z</time>
      </trkpt>
      <trkpt lat="43.5688" lon="6.78064">
        <ele>340.7</ele>
        <time>2025-10-24T09:19:57.000Z</time>
      </trkpt>
      <trkpt lat="43.56877" lon="6.7806">
        <ele>340.6</ele>
        <time>2025-10-24T09:19:58.000Z</time>
      </trkpt>
      <trkpt lat="43.56873" lon="6.78054">
        <ele>340.5</ele>
        <time>2025-10-24T09:19:59.000Z</time>
      </trkpt>
      <trkpt lat="43.56869" lon="6.78049">
        <ele>340.3</ele>
        <time>2025-10-24T09:20:00.000Z</time>
      </trkpt>
      <trkpt lat="43.56867" lon="6.78046">
        <ele>340.1</ele>
        <time>2025-10-24T09:20:01.000Z</time>
      </trkpt>
      <trkpt lat="43.56864" lon="6.78041">
        <ele>339.8</ele>
        <time>2025-10-24T09:20:02.000Z</time>
      </trkpt>
      <trkpt lat="43.5686" lon="6.78034">
        <ele>339.4</ele>
        <time>2025-10-24T09:20:03.000Z</time>
      </trkpt>
      <trkpt lat="43.56857" lon="6.78028">
        <ele>338.8</ele>
        <time>2025-10-24T09:20:04.000Z</time>
      </trkpt>
      <trkpt lat="43.56855" lon="6.78024">
        <ele>338.4</ele>
        <time>2025-10-24T09:20:05.000Z</time>
      </trkpt>
      <trkpt lat="43.56853" lon="6.78018">
        <ele>337.8</ele>
        <time>2025-10-24T09:20:06.000Z</time>
      </trkpt>
      <trkpt lat="43.56851" lon="6.78012">
        <ele>337.2</ele>
        <time>2025-10-24T09:20:07.000Z</time>
      </trkpt>
      <trkpt lat="43.56849" lon="6.78005">
        <ele>336.5</ele>
        <time>2025-10-24T09:20:08.000Z</time>
      </trkpt>
      <trkpt lat="43.56847" lon="6.77999">
        <ele>335.9</ele>
        <time>2025-10-24T09:20:09.000Z</time>
      </trkpt>
      <trkpt lat="43.56846" lon="6.77994">
        <ele>335.5</ele>
        <time>2025-10-24T09:20:10.000Z</time>
      </trkpt>
      <trkpt lat="43.56845" lon="6.77986">
        <ele>334.8</ele>
        <time>2025-10-24T09:20:11.000Z</time>
      </trkpt>
      <trkpt lat="43.56844" lon="6.77978">
        <ele>334.2</ele>
        <time>2025-10-24T09:20:12.000Z</time>
      </trkpt>
      <trkpt lat="43.56843" lon="6.77968">
        <ele>333.5</ele>
        <time>2025-10-24T09:20:13.000Z</time>
      </trkpt>
      <trkpt lat="43.56843" lon="6.77959">
        <ele>332.8</ele>
        <time>2025-10-24T09:20:14.000Z</time>
      </trkpt>
      <trkpt lat="43.56842" lon="6.77952">
        <ele>332.4</ele>
        <time>2025-10-24T09:20:15.000Z</time>
      </trkpt>
      <trkpt lat="43.56841" lon="6.77944">
        <ele>331.8</ele>
        <time>2025-10-24T09:20:16.000Z</time>
      </trkpt>
      <trkpt lat="43.56839" lon="6.77937">
        <ele>331</ele>
        <time>2025-10-24T09:20:17.000Z</time>
      </trkpt>
      <trkpt lat="43.56838" lon="6.77931">
        <ele>330.3</ele>
        <time>2025-10-24T09:20:18.000Z</time>
      </trkpt>
      <trkpt lat="43.56836" lon="6.77924">
        <ele>329.5</ele>
        <time>2025-10-24T09:20:19.000Z</time>
      </trkpt>
      <trkpt lat="43.56833" lon="6.77919">
        <ele>328.6</ele>
        <time>2025-10-24T09:20:20.000Z</time>
      </trkpt>
      <trkpt lat="43.56831" lon="6.77914">
        <ele>327.8</ele>
        <time>2025-10-24T09:20:21.000Z</time>
      </trkpt>
      <trkpt lat="43.56826" lon="6.77907">
        <ele>326.7</ele>
        <time>2025-10-24T09:20:22.000Z</time>
      </trkpt>
      <trkpt lat="43.56822" lon="6.779">
        <ele>325.7</ele>
        <time>2025-10-24T09:20:23.000Z</time>
      </trkpt>
      <trkpt lat="43.5682" lon="6.77895">
        <ele>325</ele>
        <time>2025-10-24T09:20:24.000Z</time>
      </trkpt>
      <trkpt lat="43.56817" lon="6.77887">
        <ele>324</ele>
        <time>2025-10-24T09:20:25.000Z</time>
      </trkpt>
      <trkpt lat="43.56814" lon="6.7788">
        <ele>323</ele>
        <time>2025-10-24T09:20:26.000Z</time>
      </trkpt>
      <trkpt lat="43.56809" lon="6.77871">
        <ele>321.7</ele>
        <time>2025-10-24T09:20:27.000Z</time>
      </trkpt>
      <trkpt lat="43.56804" lon="6.77863">
        <ele>320.4</ele>
        <time>2025-10-24T09:20:28.000Z</time>
      </trkpt>
      <trkpt lat="43.568" lon="6.77857">
        <ele>319.4</ele>
        <time>2025-10-24T09:20:29.000Z</time>
      </trkpt>
      <trkpt lat="43.56794" lon="6.77849">
        <ele>318.3</ele>
        <time>2025-10-24T09:20:30.000Z</time>
      </trkpt>
      <trkpt lat="43.56786" lon="6.7784">
        <ele>317.2</ele>
        <time>2025-10-24T09:20:31.000Z</time>
      </trkpt>
      <trkpt lat="43.5678" lon="6.77832">
        <ele>316.3</ele>
        <time>2025-10-24T09:20:32.000Z</time>
      </trkpt>
      <trkpt lat="43.56773" lon="6.77824">
        <ele>315.6</ele>
        <time>2025-10-24T09:20:33.000Z</time>
      </trkpt>
      <trkpt lat="43.56769" lon="6.77816">
        <ele>315.1</ele>
        <time>2025-10-24T09:20:34.000Z</time>
      </trkpt>
      <trkpt lat="43.56763" lon="6.77807">
        <ele>314.5</ele>
        <time>2025-10-24T09:20:35.000Z</time>
      </trkpt>
      <trkpt lat="43.56758" lon="6.77795">
        <ele>314.1</ele>
        <time>2025-10-24T09:20:36.000Z</time>
      </trkpt>
      <trkpt lat="43.56753" lon="6.77785">
        <ele>313.8</ele>
        <time>2025-10-24T09:20:37.000Z</time>
      </trkpt>
      <trkpt lat="43.56749" lon="6.77778">
        <ele>313.6</ele>
        <time>2025-10-24T09:20:38.000Z</time>
      </trkpt>
      <trkpt lat="43.56745" lon="6.7777">
        <ele>313.5</ele>
        <time>2025-10-24T09:20:39.000Z</time>
      </trkpt>
      <trkpt lat="43.5674" lon="6.77761">
        <ele>313.3</ele>
        <time>2025-10-24T09:20:40.000Z</time>
      </trkpt>
      <trkpt lat="43.56738" lon="6.77754">
        <ele>313.1</ele>
        <time>2025-10-24T09:20:41.000Z</time>
      </trkpt>
      <trkpt lat="43.56736" lon="6.77749">
        <ele>312.8</ele>
        <time>2025-10-24T09:20:42.000Z</time>
      </trkpt>
      <trkpt lat="43.56735" lon="6.77744">
        <ele>312.4</ele>
        <time>2025-10-24T09:20:43.000Z</time>
      </trkpt>
      <trkpt lat="43.56734" lon="6.77738">
        <ele>312</ele>
        <time>2025-10-24T09:20:44.000Z</time>
      </trkpt>
      <trkpt lat="43.56734" lon="6.77731">
        <ele>311.2</ele>
        <time>2025-10-24T09:20:45.000Z</time>
      </trkpt>
      <trkpt lat="43.56733" lon="6.77725">
        <ele>310.5</ele>
        <time>2025-10-24T09:20:46.000Z</time>
      </trkpt>
      <trkpt lat="43.56733" lon="6.7772">
        <ele>309.8</ele>
        <time>2025-10-24T09:20:47.000Z</time>
      </trkpt>
      <trkpt lat="43.56733" lon="6.77715">
        <ele>309.2</ele>
        <time>2025-10-24T09:20:48.000Z</time>
      </trkpt>
      <trkpt lat="43.56732" lon="6.77709">
        <ele>308.3</ele>
        <time>2025-10-24T09:20:49.000Z</time>
      </trkpt>
      <trkpt lat="43.56732" lon="6.777">
        <ele>307</ele>
        <time>2025-10-24T09:20:50.000Z</time>
      </trkpt>
      <trkpt lat="43.56732" lon="6.77692">
        <ele>305.8</ele>
        <time>2025-10-24T09:20:51.000Z</time>
      </trkpt>
      <trkpt lat="43.56732" lon="6.77685">
        <ele>304.7</ele>
        <time>2025-10-24T09:20:52.000Z</time>
      </trkpt>
      <trkpt lat="43.56732" lon="6.77675">
        <ele>303.2</ele>
        <time>2025-10-24T09:20:53.000Z</time>
      </trkpt>
      <trkpt lat="43.56732" lon="6.77664">
        <ele>301.6</ele>
        <time>2025-10-24T09:20:54.000Z</time>
      </trkpt>
      <trkpt lat="43.56733" lon="6.77655">
        <ele>300.5</ele>
        <time>2025-10-24T09:20:55.000Z</time>
      </trkpt>
      <trkpt lat="43.56735" lon="6.77648">
        <ele>299.7</ele>
        <time>2025-10-24T09:20:56.000Z</time>
      </trkpt>
      <trkpt lat="43.56735" lon="6.77643">
        <ele>299.3</ele>
        <time>2025-10-24T09:20:57.000Z</time>
      </trkpt>
      <trkpt lat="43.56736" lon="6.77638">
        <ele>298.9</ele>
        <time>2025-10-24T09:20:58.000Z</time>
      </trkpt>
      <trkpt lat="43.56735" lon="6.77633">
        <ele>298.5</ele>
        <time>2025-10-24T09:20:59.000Z</time>
      </trkpt>
      <trkpt lat="43.56735" lon="6.77631">
        <ele>298.4</ele>
        <time>2025-10-24T09:21:00.000Z</time>
      </trkpt>
      <trkpt lat="43.56734" lon="6.77631">
        <ele>298.3</ele>
        <time>2025-10-24T09:21:01.000Z</time>
      </trkpt>
      <trkpt lat="43.56734" lon="6.77631">
        <ele>298.3</ele>
        <time>2025-10-24T09:21:02.000Z</time>
      </trkpt>
      <trkpt lat="43.56734" lon="6.77631">
        <ele>298.3</ele>
        <time>2025-10-24T09:21:03.000Z</time>
      </trkpt>
      <trkpt lat="43.56734" lon="6.77631">
        <ele>298.3</ele>
        <time>2025-10-24T09:21:04.000Z</time>
      </trkpt>
      <trkpt lat="43.56734" lon="6.77632">
        <ele>298.3</ele>
        <time>2025-10-24T09:21:05.000Z</time>
      </trkpt>
      <trkpt lat="43.56735" lon="6.77632">
        <ele>298.3</ele>
        <time>2025-10-24T09:21:06.000Z</time>
      </trkpt>
      <trkpt lat="43.56734" lon="6.77632">
        <ele>298.3</ele>
        <time>2025-10-24T09:21:07.000Z</time>
      </trkpt>
      <trkpt lat="43.56734" lon="6.77632">
        <ele>298.2</ele>
        <time>2025-10-24T09:21:08.000Z</time>
      </trkpt>
      <trkpt lat="43.56734" lon="6.77633">
        <ele>298.2</ele>
        <time>2025-10-24T09:21:09.000Z</time>
      </trkpt>
      <trkpt lat="43.56733" lon="6.77633">
        <ele>298.2</ele>
        <time>2025-10-24T09:21:10.000Z</time>
      </trkpt>
      <trkpt lat="43.56733" lon="6.77633">
        <ele>298.2</ele>
        <time>2025-10-24T09:21:11.000Z</time>
      </trkpt>
      <trkpt lat="43.56733" lon="6.77632">
        <ele>298.1</ele>
        <time>2025-10-24T09:21:12.000Z</time>
      </trkpt>
      <trkpt lat="43.56733" lon="6.77632">
        <ele>298.1</ele>
        <time>2025-10-24T09:21:13.000Z</time>
      </trkpt>
      <trkpt lat="43.56733" lon="6.77632">
        <ele>298.1</ele>
        <time>2025-10-24T09:21:14.000Z</time>
      </trkpt>
      <trkpt lat="43.56733" lon="6.77632">
        <ele>298.1</ele>
        <time>2025-10-24T09:21:15.000Z</time>
      </trkpt>
      <trkpt lat="43.56733" lon="6.77632">
        <ele>298.1</ele>
        <time>2025-10-24T09:21:16.000Z</time>
      </trkpt>
      <trkpt lat="43.56733" lon="6.77632">
        <ele>298.1</ele>
        <time>2025-10-24T09:21:17.000Z</time>
      </trkpt>
      <trkpt lat="43.56733" lon="6.77632">
        <ele>298.1</ele>
        <time>2025-10-24T09:21:18.000Z</time>
      </trkpt>
      <trkpt lat="43.56733" lon="6.77632">
        <ele>298.1</ele>
        <time>2025-10-24T09:21:19.000Z</time>
      </trkpt>
      <trkpt lat="43.56733" lon="6.77632">
        <ele>298.1</ele>
        <time>2025-10-24T09:21:20.000Z</time>
      </trkpt>
      <trkpt lat="43.56733" lon="6.77632">
        <ele>298.1</ele>
        <time>2025-10-24T09:21:21.000Z</time>
      </trkpt>
      <trkpt lat="43.56733" lon="6.77632">
        <ele>298.1</ele>
        <time>2025-10-24T09:21:22.000Z</time>
      </trkpt>
      <trkpt lat="43.56733" lon="6.77632">
        <ele>298.1</ele>
        <time>2025-10-24T09:21:23.000Z</time>
      </trkpt>
      <trkpt lat="43.56733" lon="6.77632">
        <ele>298.1</ele>
        <time>2025-10-24T09:21:24.000Z</time>
      </trkpt>
      <trkpt lat="43.56733" lon="6.77632">
        <ele>298.1</ele>
        <time>2025-10-24T09:21:25.000Z</time>
      </trkpt>
      <trkpt lat="43.56733" lon="6.77633">
        <ele>298.1</ele>
        <time>2025-10-24T09:21:26.000Z</time>
      </trkpt>
      <trkpt lat="43.56733" lon="6.77633">
        <ele>298.1</ele>
        <time>2025-10-24T09:21:27.000Z</time>
      </trkpt>
      <trkpt lat="43.56733" lon="6.77633">
        <ele>298.1</ele>
        <time>2025-10-24T09:21:28.000Z</time>
      </trkpt>
      <trkpt lat="43.56733" lon="6.77633">
        <ele>298.1</ele>
        <time>2025-10-24T09:21:29.000Z</time>
      </trkpt>
      <trkpt lat="43.56733" lon="6.77633">
        <ele>298.1</ele>
        <time>2025-10-24T09:21:30.000Z</time>
      </trkpt>
      <trkpt lat="43.56733" lon="6.77633">
        <ele>298.1</ele>
        <time>2025-10-24T09:21:31.000Z</time>
      </trkpt>
      <trkpt lat="43.56733" lon="6.77633">
        <ele>298.1</ele>
        <time>2025-10-24T09:21:32.000Z</time>
      </trkpt>
      <trkpt lat="43.56733" lon="6.77634">
        <ele>298.1</ele>
        <time>2025-10-24T09:21:33.000Z</time>
      </trkpt>
      <trkpt lat="43.56731" lon="6.77636">
        <ele>297.9</ele>
        <time>2025-10-24T09:21:34.000Z</time>
      </trkpt>
      <trkpt lat="43.56729" lon="6.77638">
        <ele>297.8</ele>
        <time>2025-10-24T09:21:35.000Z</time>
      </trkpt>
      <trkpt lat="43.56726" lon="6.77641">
        <ele>297.6</ele>
        <time>2025-10-24T09:21:36.000Z</time>
      </trkpt>
      <trkpt lat="43.56723" lon="6.77645">
        <ele>297.3</ele>
        <time>2025-10-24T09:21:37.000Z</time>
      </trkpt>
      <trkpt lat="43.56721" lon="6.77649">
        <ele>297.1</ele>
        <time>2025-10-24T09:21:38.000Z</time>
      </trkpt>
      <trkpt lat="43.56719" lon="6.77654">
        <ele>296.9</ele>
        <time>2025-10-24T09:21:39.000Z</time>
      </trkpt>
      <trkpt lat="43.56715" lon="6.7766">
        <ele>296.5</ele>
        <time>2025-10-24T09:21:40.000Z</time>
      </trkpt>
      <trkpt lat="43.56713" lon="6.77665">
        <ele>296.3</ele>
        <time>2025-10-24T09:21:41.000Z</time>
      </trkpt>
      <trkpt lat="43.5671" lon="6.7767">
        <ele>296</ele>
        <time>2025-10-24T09:21:42.000Z</time>
      </trkpt>
      <trkpt lat="43.56707" lon="6.77674">
        <ele>295.8</ele>
        <time>2025-10-24T09:21:43.000Z</time>
      </trkpt>
      <trkpt lat="43.56704" lon="6.77677">
        <ele>295.6</ele>
        <time>2025-10-24T09:21:44.000Z</time>
      </trkpt>
      <trkpt lat="43.567" lon="6.77682">
        <ele>295.3</ele>
        <time>2025-10-24T09:21:45.000Z</time>
      </trkpt>
      <trkpt lat="43.56696" lon="6.77685">
        <ele>295.2</ele>
        <time>2025-10-24T09:21:46.000Z</time>
      </trkpt>
      <trkpt lat="43.56693" lon="6.77687">
        <ele>295.1</ele>
        <time>2025-10-24T09:21:47.000Z</time>
      </trkpt>
      <trkpt lat="43.56688" lon="6.7769">
        <ele>295.1</ele>
        <time>2025-10-24T09:21:48.000Z</time>
      </trkpt>
      <trkpt lat="43.56685" lon="6.77692">
        <ele>295.1</ele>
        <time>2025-10-24T09:21:49.000Z</time>
      </trkpt>
      <trkpt lat="43.5668" lon="6.77693">
        <ele>295.2</ele>
        <time>2025-10-24T09:21:50.000Z</time>
      </trkpt>
      <trkpt lat="43.56676" lon="6.77694">
        <ele>295.3</ele>
        <time>2025-10-24T09:21:51.000Z</time>
      </trkpt>
      <trkpt lat="43.56672" lon="6.77695">
        <ele>295.4</ele>
        <time>2025-10-24T09:21:52.000Z</time>
      </trkpt>
      <trkpt lat="43.56668" lon="6.77696">
        <ele>295.6</ele>
        <time>2025-10-24T09:21:53.000Z</time>
      </trkpt>
      <trkpt lat="43.56664" lon="6.77696">
        <ele>295.7</ele>
        <time>2025-10-24T09:21:54.000Z</time>
      </trkpt>
      <trkpt lat="43.56659" lon="6.77696">
        <ele>295.8</ele>
        <time>2025-10-24T09:21:55.000Z</time>
      </trkpt>
      <trkpt lat="43.56654" lon="6.77697">
        <ele>295.9</ele>
        <time>2025-10-24T09:21:56.000Z</time>
      </trkpt>
      <trkpt lat="43.56649" lon="6.77697">
        <ele>296</ele>
        <time>2025-10-24T09:21:57.000Z</time>
      </trkpt>
      <trkpt lat="43.56644" lon="6.77697">
        <ele>296.1</ele>
        <time>2025-10-24T09:21:58.000Z</time>
      </trkpt>
      <trkpt lat="43.56639" lon="6.77698">
        <ele>296.2</ele>
        <time>2025-10-24T09:21:59.000Z</time>
      </trkpt>
      <trkpt lat="43.56634" lon="6.77698">
        <ele>296.3</ele>
        <time>2025-10-24T09:22:00.000Z</time>
      </trkpt>
      <trkpt lat="43.56629" lon="6.77698">
        <ele>296.4</ele>
        <time>2025-10-24T09:22:01.000Z</time>
      </trkpt>
      <trkpt lat="43.56625" lon="6.77698">
        <ele>296.5</ele>
        <time>2025-10-24T09:22:02.000Z</time>
      </trkpt>
      <trkpt lat="43.5662" lon="6.77699">
        <ele>296.5</ele>
        <time>2025-10-24T09:22:03.000Z</time>
      </trkpt>
      <trkpt lat="43.56617" lon="6.77699">
        <ele>296.6</ele>
        <time>2025-10-24T09:22:04.000Z</time>
      </trkpt>
      <trkpt lat="43.56613" lon="6.77698">
        <ele>296.6</ele>
        <time>2025-10-24T09:22:05.000Z</time>
      </trkpt>
      <trkpt lat="43.5661" lon="6.77698">
        <ele>296.6</ele>
        <time>2025-10-24T09:22:06.000Z</time>
      </trkpt>
      <trkpt lat="43.56607" lon="6.77698">
        <ele>296.5</ele>
        <time>2025-10-24T09:22:07.000Z</time>
      </trkpt>
      <trkpt lat="43.56604" lon="6.77698">
        <ele>296.5</ele>
        <time>2025-10-24T09:22:08.000Z</time>
      </trkpt>
      <trkpt lat="43.56601" lon="6.77698">
        <ele>296.4</ele>
        <time>2025-10-24T09:22:09.000Z</time>
      </trkpt>
      <trkpt lat="43.56598" lon="6.77697">
        <ele>296.2</ele>
        <time>2025-10-24T09:22:10.000Z</time>
      </trkpt>
      <trkpt lat="43.56595" lon="6.77695">
        <ele>296</ele>
        <time>2025-10-24T09:22:11.000Z</time>
      </trkpt>
      <trkpt lat="43.56593" lon="6.77694">
        <ele>295.8</ele>
        <time>2025-10-24T09:22:12.000Z</time>
      </trkpt>
      <trkpt lat="43.5659" lon="6.77693">
        <ele>295.5</ele>
        <time>2025-10-24T09:22:13.000Z</time>
      </trkpt>
      <trkpt lat="43.56588" lon="6.77693">
        <ele>295.3</ele>
        <time>2025-10-24T09:22:14.000Z</time>
      </trkpt>
      <trkpt lat="43.56587" lon="6.77693">
        <ele>295.1</ele>
        <time>2025-10-24T09:22:15.000Z</time>
      </trkpt>
      <trkpt lat="43.56586" lon="6.77693">
        <ele>295.1</ele>
        <time>2025-10-24T09:22:16.000Z</time>
      </trkpt>
      <trkpt lat="43.56586" lon="6.77694">
        <ele>295</ele>
        <time>2025-10-24T09:22:17.000Z</time>
      </trkpt>
      <trkpt lat="43.56586" lon="6.77694">
        <ele>295</ele>
        <time>2025-10-24T09:22:18.000Z</time>
      </trkpt>
      <trkpt lat="43.56586" lon="6.77694">
        <ele>295</ele>
        <time>2025-10-24T09:22:19.000Z</time>
      </trkpt>
      <trkpt lat="43.56586" lon="6.77694">
        <ele>294.9</ele>
        <time>2025-10-24T09:22:20.000Z</time>
      </trkpt>
      <trkpt lat="43.56586" lon="6.77695">
        <ele>294.9</ele>
        <time>2025-10-24T09:22:21.000Z</time>
      </trkpt>
      <trkpt lat="43.56586" lon="6.77695">
        <ele>294.9</ele>
        <time>2025-10-24T09:22:22.000Z</time>
      </trkpt>
      <trkpt lat="43.56586" lon="6.77695">
        <ele>294.9</ele>
        <time>2025-10-24T09:22:23.000Z</time>
      </trkpt>
      <trkpt lat="43.56586" lon="6.77695">
        <ele>294.9</ele>
        <time>2025-10-24T09:22:24.000Z</time>
      </trkpt>
      <trkpt lat="43.56586" lon="6.77695">
        <ele>294.8</ele>
        <time>2025-10-24T09:22:25.000Z</time>
      </trkpt>
      <trkpt lat="43.56586" lon="6.77695">
        <ele>294.8</ele>
        <time>2025-10-24T09:22:26.000Z</time>
      </trkpt>
      <trkpt lat="43.56586" lon="6.77696">
        <ele>294.8</ele>
        <time>2025-10-24T09:22:27.000Z</time>
      </trkpt>
      <trkpt lat="43.56586" lon="6.77696">
        <ele>294.7</ele>
        <time>2025-10-24T09:22:28.000Z</time>
      </trkpt>
      <trkpt lat="43.56586" lon="6.77696">
        <ele>294.7</ele>
        <time>2025-10-24T09:22:29.000Z</time>
      </trkpt>
      <trkpt lat="43.56586" lon="6.77696">
        <ele>294.7</ele>
        <time>2025-10-24T09:22:30.000Z</time>
      </trkpt>
      <trkpt lat="43.56586" lon="6.77696">
        <ele>294.7</ele>
        <time>2025-10-24T09:22:31.000Z</time>
      </trkpt>
      <trkpt lat="43.56586" lon="6.77697">
        <ele>294.6</ele>
        <time>2025-10-24T09:22:32.000Z</time>
      </trkpt>
      <trkpt lat="43.56586" lon="6.77697">
        <ele>294.6</ele>
        <time>2025-10-24T09:22:33.000Z</time>
      </trkpt>
      <trkpt lat="43.56586" lon="6.77697">
        <ele>294.6</ele>
        <time>2025-10-24T09:22:34.000Z</time>
      </trkpt>
      <trkpt lat="43.56585" lon="6.77697">
        <ele>294.6</ele>
        <time>2025-10-24T09:22:35.000Z</time>
      </trkpt>
      <trkpt lat="43.56585" lon="6.77697">
        <ele>294.5</ele>
        <time>2025-10-24T09:22:36.000Z</time>
      </trkpt>
      <trkpt lat="43.56585" lon="6.77698">
        <ele>294.5</ele>
        <time>2025-10-24T09:22:37.000Z</time>
      </trkpt>
      <trkpt lat="43.56585" lon="6.77698">
        <ele>294.5</ele>
        <time>2025-10-24T09:22:38.000Z</time>
      </trkpt>
      <trkpt lat="43.56585" lon="6.77698">
        <ele>294.5</ele>
        <time>2025-10-24T09:22:39.000Z</time>
      </trkpt>
      <trkpt lat="43.56585" lon="6.77698">
        <ele>294.4</ele>
        <time>2025-10-24T09:22:40.000Z</time>
      </trkpt>
      <trkpt lat="43.56585" lon="6.77698">
        <ele>294.4</ele>
        <time>2025-10-24T09:22:41.000Z</time>
      </trkpt>
      <trkpt lat="43.56585" lon="6.77699">
        <ele>294.4</ele>
        <time>2025-10-24T09:22:42.000Z</time>
      </trkpt>
      <trkpt lat="43.56585" lon="6.77699">
        <ele>294.4</ele>
        <time>2025-10-24T09:22:43.000Z</time>
      </trkpt>
      <trkpt lat="43.56585" lon="6.77699">
        <ele>294.3</ele>
        <time>2025-10-24T09:22:44.000Z</time>
      </trkpt>
      <trkpt lat="43.56585" lon="6.77699">
        <ele>294.3</ele>
        <time>2025-10-24T09:22:45.000Z</time>
      </trkpt>
      <trkpt lat="43.56585" lon="6.77699">
        <ele>294.3</ele>
        <time>2025-10-24T09:22:46.000Z</time>
      </trkpt>
      <trkpt lat="43.56585" lon="6.77699">
        <ele>294.3</ele>
        <time>2025-10-24T09:22:47.000Z</time>
      </trkpt>
      <trkpt lat="43.56585" lon="6.777">
        <ele>294.2</ele>
        <time>2025-10-24T09:22:48.000Z</time>
      </trkpt>
      <trkpt lat="43.56585" lon="6.777">
        <ele>294.2</ele>
        <time>2025-10-24T09:22:49.000Z</time>
      </trkpt>
      <trkpt lat="43.56585" lon="6.777">
        <ele>294.2</ele>
        <time>2025-10-24T09:22:50.000Z</time>
      </trkpt>
      <trkpt lat="43.56585" lon="6.777">
        <ele>294.2</ele>
        <time>2025-10-24T09:22:51.000Z</time>
      </trkpt>
      <trkpt lat="43.56585" lon="6.777">
        <ele>294.1</ele>
        <time>2025-10-24T09:22:52.000Z</time>
      </trkpt>
      <trkpt lat="43.56585" lon="6.77701">
        <ele>294.1</ele>
        <time>2025-10-24T09:22:53.000Z</time>
      </trkpt>
      <trkpt lat="43.56585" lon="6.77701">
        <ele>294.1</ele>
        <time>2025-10-24T09:22:54.000Z</time>
      </trkpt>
      <trkpt lat="43.56585" lon="6.77701">
        <ele>294.1</ele>
        <time>2025-10-24T09:22:55.000Z</time>
      </trkpt>
      <trkpt lat="43.56584" lon="6.77701">
        <ele>294</ele>
        <time>2025-10-24T09:22:56.000Z</time>
      </trkpt>
      <trkpt lat="43.56584" lon="6.77701">
        <ele>294</ele>
        <time>2025-10-24T09:22:57.000Z</time>
      </trkpt>
      <trkpt lat="43.56584" lon="6.77702">
        <ele>294</ele>
        <time>2025-10-24T09:22:58.000Z</time>
      </trkpt>
      <trkpt lat="43.56584" lon="6.77702">
        <ele>294</ele>
        <time>2025-10-24T09:22:59.000Z</time>
      </trkpt>
      <trkpt lat="43.56584" lon="6.77702">
        <ele>293.9</ele>
        <time>2025-10-24T09:23:00.000Z</time>
      </trkpt>
      <trkpt lat="43.56584" lon="6.77702">
        <ele>293.9</ele>
        <time>2025-10-24T09:23:01.000Z</time>
      </trkpt>
      <trkpt lat="43.56584" lon="6.77702">
        <ele>293.9</ele>
        <time>2025-10-24T09:23:02.000Z</time>
      </trkpt>
      <trkpt lat="43.56584" lon="6.77703">
        <ele>293.8</ele>
        <time>2025-10-24T09:23:03.000Z</time>
      </trkpt>
      <trkpt lat="43.56584" lon="6.77703">
        <ele>293.8</ele>
        <time>2025-10-24T09:23:04.000Z</time>
      </trkpt>
      <trkpt lat="43.56584" lon="6.77703">
        <ele>293.8</ele>
        <time>2025-10-24T09:23:05.000Z</time>
      </trkpt>
      <trkpt lat="43.56584" lon="6.77703">
        <ele>293.8</ele>
        <time>2025-10-24T09:23:06.000Z</time>
      </trkpt>
      <trkpt lat="43.56584" lon="6.77703">
        <ele>293.8</ele>
        <time>2025-10-24T09:23:07.000Z</time>
      </trkpt>
      <trkpt lat="43.56584" lon="6.77703">
        <ele>293.7</ele>
        <time>2025-10-24T09:23:08.000Z</time>
      </trkpt>
      <trkpt lat="43.56584" lon="6.77704">
        <ele>293.7</ele>
        <time>2025-10-24T09:23:09.000Z</time>
      </trkpt>
      <trkpt lat="43.56584" lon="6.77704">
        <ele>293.7</ele>
        <time>2025-10-24T09:23:10.000Z</time>
      </trkpt>
      <trkpt lat="43.56584" lon="6.77704">
        <ele>293.6</ele>
        <time>2025-10-24T09:23:11.000Z</time>
      </trkpt>
      <trkpt lat="43.56584" lon="6.77704">
        <ele>293.6</ele>
        <time>2025-10-24T09:23:12.000Z</time>
      </trkpt>
      <trkpt lat="43.56584" lon="6.77704">
        <ele>293.6</ele>
        <time>2025-10-24T09:23:13.000Z</time>
      </trkpt>
      <trkpt lat="43.56584" lon="6.77705">
        <ele>293.6</ele>
        <time>2025-10-24T09:23:14.000Z</time>
      </trkpt>
      <trkpt lat="43.56584" lon="6.77705">
        <ele>293.5</ele>
        <time>2025-10-24T09:23:15.000Z</time>
      </trkpt>
      <trkpt lat="43.56584" lon="6.77705">
        <ele>293.5</ele>
        <time>2025-10-24T09:23:16.000Z</time>
      </trkpt>
      <trkpt lat="43.56584" lon="6.77705">
        <ele>293.5</ele>
        <time>2025-10-24T09:23:17.000Z</time>
      </trkpt>
      <trkpt lat="43.56583" lon="6.77705">
        <ele>293.5</ele>
        <time>2025-10-24T09:23:18.000Z</time>
      </trkpt>
      <trkpt lat="43.56583" lon="6.77706">
        <ele>293.4</ele>
        <time>2025-10-24T09:23:19.000Z</time>
      </trkpt>
      <trkpt lat="43.56583" lon="6.77706">
        <ele>293.4</ele>
        <time>2025-10-24T09:23:20.000Z</time>
      </trkpt>
      <trkpt lat="43.56583" lon="6.77706">
        <ele>293.4</ele>
        <time>2025-10-24T09:23:21.000Z</time>
      </trkpt>
      <trkpt lat="43.56583" lon="6.77706">
        <ele>293.3</ele>
        <time>2025-10-24T09:23:22.000Z</time>
      </trkpt>
      <trkpt lat="43.56583" lon="6.77706">
        <ele>293.3</ele>
        <time>2025-10-24T09:23:23.000Z</time>
      </trkpt>
      <trkpt lat="43.56583" lon="6.77707">
        <ele>293.3</ele>
        <time>2025-10-24T09:23:24.000Z</time>
      </trkpt>
      <trkpt lat="43.56583" lon="6.77707">
        <ele>293.3</ele>
        <time>2025-10-24T09:23:25.000Z</time>
      </trkpt>
      <trkpt lat="43.56583" lon="6.77707">
        <ele>293.2</ele>
        <time>2025-10-24T09:23:26.000Z</time>
      </trkpt>
      <trkpt lat="43.56583" lon="6.77707">
        <ele>293.2</ele>
        <time>2025-10-24T09:23:27.000Z</time>
      </trkpt>
      <trkpt lat="43.56583" lon="6.77707">
        <ele>293.2</ele>
        <time>2025-10-24T09:23:28.000Z</time>
      </trkpt>
      <trkpt lat="43.56583" lon="6.77707">
        <ele>293.1</ele>
        <time>2025-10-24T09:23:29.000Z</time>
      </trkpt>
      <trkpt lat="43.56583" lon="6.77708">
        <ele>293.1</ele>
        <time>2025-10-24T09:23:30.000Z</time>
      </trkpt>
      <trkpt lat="43.56583" lon="6.77708">
        <ele>293.1</ele>
        <time>2025-10-24T09:23:31.000Z</time>
      </trkpt>
      <trkpt lat="43.56583" lon="6.77708">
        <ele>293.1</ele>
        <time>2025-10-24T09:23:32.000Z</time>
      </trkpt>
      <trkpt lat="43.56583" lon="6.77708">
        <ele>293</ele>
        <time>2025-10-24T09:23:33.000Z</time>
      </trkpt>
      <trkpt lat="43.56583" lon="6.77708">
        <ele>293</ele>
        <time>2025-10-24T09:23:34.000Z</time>
      </trkpt>
      <trkpt lat="43.56583" lon="6.77709">
        <ele>293</ele>
        <time>2025-10-24T09:23:35.000Z</time>
      </trkpt>
      <trkpt lat="43.56583" lon="6.77709">
        <ele>292.9</ele>
        <time>2025-10-24T09:23:36.000Z</time>
      </trkpt>
      <trkpt lat="43.56583" lon="6.77709">
        <ele>292.9</ele>
        <time>2025-10-24T09:23:37.000Z</time>
      </trkpt>
      <trkpt lat="43.56583" lon="6.77709">
        <ele>292.9</ele>
        <time>2025-10-24T09:23:38.000Z</time>
      </trkpt>
      <trkpt lat="43.56583" lon="6.77709">
        <ele>292.9</ele>
        <time>2025-10-24T09:23:39.000Z</time>
      </trkpt>
      <trkpt lat="43.56582" lon="6.7771">
        <ele>292.8</ele>
        <time>2025-10-24T09:23:40.000Z</time>
      </trkpt>
      <trkpt lat="43.56582" lon="6.7771">
        <ele>292.8</ele>
        <time>2025-10-24T09:23:41.000Z</time>
      </trkpt>
      <trkpt lat="43.56582" lon="6.7771">
        <ele>292.8</ele>
        <time>2025-10-24T09:23:42.000Z</time>
      </trkpt>
      <trkpt lat="43.56582" lon="6.7771">
        <ele>292.8</ele>
        <time>2025-10-24T09:23:43.000Z</time>
      </trkpt>
      <trkpt lat="43.56582" lon="6.7771">
        <ele>292.7</ele>
        <time>2025-10-24T09:23:44.000Z</time>
      </trkpt>
      <trkpt lat="43.56582" lon="6.77711">
        <ele>292.7</ele>
        <time>2025-10-24T09:23:45.000Z</time>
      </trkpt>
      <trkpt lat="43.56582" lon="6.77711">
        <ele>292.7</ele>
        <time>2025-10-24T09:23:46.000Z</time>
      </trkpt>
      <trkpt lat="43.56582" lon="6.77711">
        <ele>292.6</ele>
        <time>2025-10-24T09:23:47.000Z</time>
      </trkpt>
      <trkpt lat="43.56582" lon="6.77711">
        <ele>292.6</ele>
        <time>2025-10-24T09:23:48.000Z</time>
      </trkpt>
      <trkpt lat="43.56582" lon="6.77711">
        <ele>292.6</ele>
        <time>2025-10-24T09:23:49.000Z</time>
      </trkpt>
      <trkpt lat="43.56582" lon="6.77712">
        <ele>292.5</ele>
        <time>2025-10-24T09:23:50.000Z</time>
      </trkpt>
      <trkpt lat="43.56582" lon="6.77712">
        <ele>292.5</ele>
        <time>2025-10-24T09:23:51.000Z</time>
      </trkpt>
      <trkpt lat="43.56582" lon="6.77712">
        <ele>292.5</ele>
        <time>2025-10-24T09:23:52.000Z</time>
      </trkpt>
      <trkpt lat="43.56582" lon="6.77712">
        <ele>292.5</ele>
        <time>2025-10-24T09:23:53.000Z</time>
      </trkpt>
      <trkpt lat="43.56582" lon="6.77712">
        <ele>292.4</ele>
        <time>2025-10-24T09:23:54.000Z</time>
      </trkpt>
      <trkpt lat="43.56582" lon="6.77712">
        <ele>292.4</ele>
        <time>2025-10-24T09:23:55.000Z</time>
      </trkpt>
      <trkpt lat="43.56582" lon="6.77713">
        <ele>292.4</ele>
        <time>2025-10-24T09:23:56.000Z</time>
      </trkpt>
      <trkpt lat="43.56582" lon="6.77713">
        <ele>292.4</ele>
        <time>2025-10-24T09:23:57.000Z</time>
      </trkpt>
      <trkpt lat="43.56582" lon="6.77713">
        <ele>292.3</ele>
        <time>2025-10-24T09:23:58.000Z</time>
      </trkpt>
      <trkpt lat="43.56582" lon="6.77713">
        <ele>292.3</ele>
        <time>2025-10-24T09:23:59.000Z</time>
      </trkpt>
      <trkpt lat="43.56582" lon="6.77713">
        <ele>292.3</ele>
        <time>2025-10-24T09:24:00.000Z</time>
      </trkpt>
      <trkpt lat="43.56581" lon="6.77714">
        <ele>292.2</ele>
        <time>2025-10-24T09:24:01.000Z</time>
      </trkpt>
      <trkpt lat="43.56581" lon="6.77714">
        <ele>292.2</ele>
        <time>2025-10-24T09:24:02.000Z</time>
      </trkpt>
      <trkpt lat="43.56581" lon="6.77714">
        <ele>292.2</ele>
        <time>2025-10-24T09:24:03.000Z</time>
      </trkpt>
      <trkpt lat="43.56581" lon="6.77714">
        <ele>292.2</ele>
        <time>2025-10-24T09:24:04.000Z</time>
      </trkpt>
      <trkpt lat="43.56581" lon="6.77714">
        <ele>292.1</ele>
        <time>2025-10-24T09:24:05.000Z</time>
      </trkpt>
      <trkpt lat="43.56581" lon="6.77715">
        <ele>292.1</ele>
        <time>2025-10-24T09:24:06.000Z</time>
      </trkpt>
      <trkpt lat="43.56581" lon="6.77715">
        <ele>292.1</ele>
        <time>2025-10-24T09:24:07.000Z</time>
      </trkpt>
      <trkpt lat="43.56581" lon="6.77715">
        <ele>292</ele>
        <time>2025-10-24T09:24:08.000Z</time>
      </trkpt>
      <trkpt lat="43.56581" lon="6.77715">
        <ele>292</ele>
        <time>2025-10-24T09:24:09.000Z</time>
      </trkpt>
      <trkpt lat="43.56581" lon="6.77715">
        <ele>292</ele>
        <time>2025-10-24T09:24:10.000Z</time>
      </trkpt>
      <trkpt lat="43.56581" lon="6.77716">
        <ele>292</ele>
        <time>2025-10-24T09:24:11.000Z</time>
      </trkpt>
      <trkpt lat="43.56581" lon="6.77716">
        <ele>291.9</ele>
        <time>2025-10-24T09:24:12.000Z</time>
      </trkpt>
      <trkpt lat="43.56581" lon="6.77716">
        <ele>291.9</ele>
        <time>2025-10-24T09:24:13.000Z</time>
      </trkpt>
      <trkpt lat="43.56581" lon="6.77716">
        <ele>291.9</ele>
        <time>2025-10-24T09:24:14.000Z</time>
      </trkpt>
      <trkpt lat="43.56581" lon="6.77716">
        <ele>291.8</ele>
        <time>2025-10-24T09:24:15.000Z</time>
      </trkpt>
      <trkpt lat="43.56581" lon="6.77716">
        <ele>291.8</ele>
        <time>2025-10-24T09:24:16.000Z</time>
      </trkpt>
      <trkpt lat="43.56581" lon="6.77717">
        <ele>291.8</ele>
        <time>2025-10-24T09:24:17.000Z</time>
      </trkpt>
      <trkpt lat="43.56581" lon="6.77717">
        <ele>291.8</ele>
        <time>2025-10-24T09:24:18.000Z</time>
      </trkpt>
      <trkpt lat="43.56581" lon="6.77717">
        <ele>291.7</ele>
        <time>2025-10-24T09:24:19.000Z</time>
      </trkpt>
      <trkpt lat="43.56581" lon="6.77717">
        <ele>291.7</ele>
        <time>2025-10-24T09:24:20.000Z</time>
      </trkpt>
      <trkpt lat="43.56581" lon="6.77717">
        <ele>291.7</ele>
        <time>2025-10-24T09:24:21.000Z</time>
      </trkpt>
      <trkpt lat="43.56581" lon="6.77718">
        <ele>291.6</ele>
        <time>2025-10-24T09:24:22.000Z</time>
      </trkpt>
      <trkpt lat="43.5658" lon="6.77718">
        <ele>291.6</ele>
        <time>2025-10-24T09:24:23.000Z</time>
      </trkpt>
      <trkpt lat="43.5658" lon="6.77718">
        <ele>291.6</ele>
        <time>2025-10-24T09:24:24.000Z</time>
      </trkpt>
      <trkpt lat="43.5658" lon="6.77718">
        <ele>291.6</ele>
        <time>2025-10-24T09:24:25.000Z</time>
      </trkpt>
      <trkpt lat="43.5658" lon="6.77718">
        <ele>291.5</ele>
        <time>2025-10-24T09:24:26.000Z</time>
      </trkpt>
      <trkpt lat="43.5658" lon="6.77719">
        <ele>291.5</ele>
        <time>2025-10-24T09:24:27.000Z</time>
      </trkpt>
      <trkpt lat="43.5658" lon="6.77719">
        <ele>291.5</ele>
        <time>2025-10-24T09:24:28.000Z</time>
      </trkpt>
      <trkpt lat="43.5658" lon="6.77719">
        <ele>291.4</ele>
        <time>2025-10-24T09:24:29.000Z</time>
      </trkpt>
      <trkpt lat="43.5658" lon="6.77719">
        <ele>291.4</ele>
        <time>2025-10-24T09:24:30.000Z</time>
      </trkpt>
      <trkpt lat="43.5658" lon="6.77719">
        <ele>291.4</ele>
        <time>2025-10-24T09:24:31.000Z</time>
      </trkpt>
      <trkpt lat="43.5658" lon="6.7772">
        <ele>291.4</ele>
        <time>2025-10-24T09:24:32.000Z</time>
      </trkpt>
      <trkpt lat="43.5658" lon="6.7772">
        <ele>291.3</ele>
        <time>2025-10-24T09:24:33.000Z</time>
      </trkpt>
      <trkpt lat="43.5658" lon="6.7772">
        <ele>291.3</ele>
        <time>2025-10-24T09:24:34.000Z</time>
      </trkpt>
      <trkpt lat="43.5658" lon="6.7772">
        <ele>291.3</ele>
        <time>2025-10-24T09:24:35.000Z</time>
      </trkpt>
      <trkpt lat="43.5658" lon="6.7772">
        <ele>291.3</ele>
        <time>2025-10-24T09:24:36.000Z</time>
      </trkpt>
      <trkpt lat="43.5658" lon="6.7772">
        <ele>291.2</ele>
        <time>2025-10-24T09:24:37.000Z</time>
      </trkpt>
      <trkpt lat="43.5658" lon="6.77721">
        <ele>291.2</ele>
        <time>2025-10-24T09:24:38.000Z</time>
      </trkpt>
      <trkpt lat="43.5658" lon="6.77721">
        <ele>291.2</ele>
        <time>2025-10-24T09:24:39.000Z</time>
      </trkpt>
      <trkpt lat="43.5658" lon="6.77721">
        <ele>291.1</ele>
        <time>2025-10-24T09:24:40.000Z</time>
      </trkpt>
      <trkpt lat="43.5658" lon="6.77721">
        <ele>291.1</ele>
        <time>2025-10-24T09:24:41.000Z</time>
      </trkpt>
      <trkpt lat="43.5658" lon="6.77721">
        <ele>291.1</ele>
        <time>2025-10-24T09:24:42.000Z</time>
      </trkpt>
      <trkpt lat="43.5658" lon="6.77722">
        <ele>291.1</ele>
        <time>2025-10-24T09:24:43.000Z</time>
      </trkpt>
      <trkpt lat="43.56579" lon="6.77722">
        <ele>291</ele>
        <time>2025-10-24T09:24:44.000Z</time>
      </trkpt>
      <trkpt lat="43.56579" lon="6.77722">
        <ele>291</ele>
        <time>2025-10-24T09:24:45.000Z</time>
      </trkpt>
      <trkpt lat="43.56579" lon="6.77722">
        <ele>291</ele>
        <time>2025-10-24T09:24:46.000Z</time>
      </trkpt>
      <trkpt lat="43.56579" lon="6.77722">
        <ele>290.9</ele>
        <time>2025-10-24T09:24:47.000Z</time>
      </trkpt>
      <trkpt lat="43.56579" lon="6.77723">
        <ele>290.9</ele>
        <time>2025-10-24T09:24:48.000Z</time>
      </trkpt>
      <trkpt lat="43.56579" lon="6.77723">
        <ele>290.9</ele>
        <time>2025-10-24T09:24:49.000Z</time>
      </trkpt>
      <trkpt lat="43.56579" lon="6.77723">
        <ele>290.9</ele>
        <time>2025-10-24T09:24:50.000Z</time>
      </trkpt>
      <trkpt lat="43.56579" lon="6.77723">
        <ele>290.8</ele>
        <time>2025-10-24T09:24:51.000Z</time>
      </trkpt>
      <trkpt lat="43.56579" lon="6.77723">
        <ele>290.8</ele>
        <time>2025-10-24T09:24:52.000Z</time>
      </trkpt>
      <trkpt lat="43.56579" lon="6.77724">
        <ele>290.8</ele>
        <time>2025-10-24T09:24:53.000Z</time>
      </trkpt>
      <trkpt lat="43.56579" lon="6.77724">
        <ele>290.7</ele>
        <time>2025-10-24T09:24:54.000Z</time>
      </trkpt>
      <trkpt lat="43.56579" lon="6.77724">
        <ele>290.7</ele>
        <time>2025-10-24T09:24:55.000Z</time>
      </trkpt>
      <trkpt lat="43.56579" lon="6.77724">
        <ele>290.7</ele>
        <time>2025-10-24T09:24:56.000Z</time>
      </trkpt>
      <trkpt lat="43.56579" lon="6.77724">
        <ele>290.7</ele>
        <time>2025-10-24T09:24:57.000Z</time>
      </trkpt>
      <trkpt lat="43.56579" lon="6.77725">
        <ele>290.6</ele>
        <time>2025-10-24T09:24:58.000Z</time>
      </trkpt>
      <trkpt lat="43.56579" lon="6.77725">
        <ele>290.6</ele>
        <time>2025-10-24T09:24:59.000Z</time>
      </trkpt>
      <trkpt lat="43.56579" lon="6.77725">
        <ele>290.6</ele>
        <time>2025-10-24T09:25:00.000Z</time>
      </trkpt>
      <trkpt lat="43.56579" lon="6.77725">
        <ele>290.5</ele>
        <time>2025-10-24T09:25:01.000Z</time>
      </trkpt>
      <trkpt lat="43.56579" lon="6.77725">
        <ele>290.5</ele>
        <time>2025-10-24T09:25:02.000Z</time>
      </trkpt>
      <trkpt lat="43.56579" lon="6.77725">
        <ele>290.5</ele>
        <time>2025-10-24T09:25:03.000Z</time>
      </trkpt>
      <trkpt lat="43.56579" lon="6.77726">
        <ele>290.5</ele>
        <time>2025-10-24T09:25:04.000Z</time>
      </trkpt>
      <trkpt lat="43.56579" lon="6.77726">
        <ele>290.4</ele>
        <time>2025-10-24T09:25:05.000Z</time>
      </trkpt>
      <trkpt lat="43.56578" lon="6.77726">
        <ele>290.4</ele>
        <time>2025-10-24T09:25:06.000Z</time>
      </trkpt>
      <trkpt lat="43.56578" lon="6.77726">
        <ele>290.4</ele>
        <time>2025-10-24T09:25:07.000Z</time>
      </trkpt>
      <trkpt lat="43.56578" lon="6.77726">
        <ele>290.3</ele>
        <time>2025-10-24T09:25:08.000Z</time>
      </trkpt>
      <trkpt lat="43.56578" lon="6.77727">
        <ele>290.3</ele>
        <time>2025-10-24T09:25:09.000Z</time>
      </trkpt>
      <trkpt lat="43.56578" lon="6.77727">
        <ele>290.3</ele>
        <time>2025-10-24T09:25:10.000Z</time>
      </trkpt>
      <trkpt lat="43.56578" lon="6.77727">
        <ele>290.3</ele>
        <time>2025-10-24T09:25:11.000Z</time>
      </trkpt>
      <trkpt lat="43.56578" lon="6.77727">
        <ele>290.2</ele>
        <time>2025-10-24T09:25:12.000Z</time>
      </trkpt>
      <trkpt lat="43.56578" lon="6.77727">
        <ele>290.2</ele>
        <time>2025-10-24T09:25:13.000Z</time>
      </trkpt>
      <trkpt lat="43.56578" lon="6.77728">
        <ele>290.2</ele>
        <time>2025-10-24T09:25:14.000Z</time>
      </trkpt>
      <trkpt lat="43.56578" lon="6.77728">
        <ele>290.2</ele>
        <time>2025-10-24T09:25:15.000Z</time>
      </trkpt>
      <trkpt lat="43.56577" lon="6.77734">
        <ele>289.4</ele>
        <time>2025-10-24T09:25:16.000Z</time>
      </trkpt>
      <trkpt lat="43.56575" lon="6.7774">
        <ele>288.5</ele>
        <time>2025-10-24T09:25:17.000Z</time>
      </trkpt>
      <trkpt lat="43.56573" lon="6.77746">
        <ele>287.6</ele>
        <time>2025-10-24T09:25:18.000Z</time>
      </trkpt>
      <trkpt lat="43.56571" lon="6.77752">
        <ele>286.8</ele>
        <time>2025-10-24T09:25:19.000Z</time>
      </trkpt>
      <trkpt lat="43.56568" lon="6.77758">
        <ele>285.8</ele>
        <time>2025-10-24T09:25:20.000Z</time>
      </trkpt>
      <trkpt lat="43.56564" lon="6.77764">
        <ele>284.9</ele>
        <time>2025-10-24T09:25:21.000Z</time>
      </trkpt>
      <trkpt lat="43.56561" lon="6.77769">
        <ele>284.1</ele>
        <time>2025-10-24T09:25:22.000Z</time>
      </trkpt>
      <trkpt lat="43.56558" lon="6.77774">
        <ele>283.3</ele>
        <time>2025-10-24T09:25:23.000Z</time>
      </trkpt>
      <trkpt lat="43.56554" lon="6.77778">
        <ele>282.6</ele>
        <time>2025-10-24T09:25:24.000Z</time>
      </trkpt>
      <trkpt lat="43.5655" lon="6.77781">
        <ele>281.9</ele>
        <time>2025-10-24T09:25:25.000Z</time>
      </trkpt>
      <trkpt lat="43.56546" lon="6.77784">
        <ele>281.1</ele>
        <time>2025-10-24T09:25:26.000Z</time>
      </trkpt>
      <trkpt lat="43.56541" lon="6.77787">
        <ele>280.3</ele>
        <time>2025-10-24T09:25:27.000Z</time>
      </trkpt>
      <trkpt lat="43.56536" lon="6.7779">
        <ele>279.6</ele>
        <time>2025-10-24T09:25:28.000Z</time>
      </trkpt>
      <trkpt lat="43.56532" lon="6.77792">
        <ele>279</ele>
        <time>2025-10-24T09:25:29.000Z</time>
      </trkpt>
      <trkpt lat="43.56528" lon="6.77794">
        <ele>278.4</ele>
        <time>2025-10-24T09:25:30.000Z</time>
      </trkpt>
      <trkpt lat="43.56523" lon="6.77795">
        <ele>277.8</ele>
        <time>2025-10-24T09:25:31.000Z</time>
      </trkpt>
      <trkpt lat="43.56518" lon="6.77796">
        <ele>277.2</ele>
        <time>2025-10-24T09:25:32.000Z</time>
      </trkpt>
      <trkpt lat="43.56514" lon="6.77796">
        <ele>276.6</ele>
        <time>2025-10-24T09:25:33.000Z</time>
      </trkpt>
      <trkpt lat="43.56509" lon="6.77796">
        <ele>276</ele>
        <time>2025-10-24T09:25:34.000Z</time>
      </trkpt>
      <trkpt lat="43.56504" lon="6.77795">
        <ele>275.4</ele>
        <time>2025-10-24T09:25:35.000Z</time>
      </trkpt>
      <trkpt lat="43.56499" lon="6.77795">
        <ele>274.7</ele>
        <time>2025-10-24T09:25:36.000Z</time>
      </trkpt>
      <trkpt lat="43.56495" lon="6.77795">
        <ele>274.1</ele>
        <time>2025-10-24T09:25:37.000Z</time>
      </trkpt>
      <trkpt lat="43.5649" lon="6.77796">
        <ele>273.4</ele>
        <time>2025-10-24T09:25:38.000Z</time>
      </trkpt>
      <trkpt lat="43.56487" lon="6.77798">
        <ele>272.9</ele>
        <time>2025-10-24T09:25:39.000Z</time>
      </trkpt>
      <trkpt lat="43.56482" lon="6.77801">
        <ele>272.1</ele>
        <time>2025-10-24T09:25:40.000Z</time>
      </trkpt>
      <trkpt lat="43.56478" lon="6.77804">
        <ele>271.5</ele>
        <time>2025-10-24T09:25:41.000Z</time>
      </trkpt>
      <trkpt lat="43.56475" lon="6.77808">
        <ele>270.9</ele>
        <time>2025-10-24T09:25:42.000Z</time>
      </trkpt>
      <trkpt lat="43.56472" lon="6.77812">
        <ele>270.2</ele>
        <time>2025-10-24T09:25:43.000Z</time>
      </trkpt>
      <trkpt lat="43.56469" lon="6.77817">
        <ele>269.6</ele>
        <time>2025-10-24T09:25:44.000Z</time>
      </trkpt>
      <trkpt lat="43.56466" lon="6.77822">
        <ele>268.9</ele>
        <time>2025-10-24T09:25:45.000Z</time>
      </trkpt>
      <trkpt lat="43.56464" lon="6.77825">
        <ele>268.4</ele>
        <time>2025-10-24T09:25:46.000Z</time>
      </trkpt>
      <trkpt lat="43.56463" lon="6.77829">
        <ele>268</ele>
        <time>2025-10-24T09:25:47.000Z</time>
      </trkpt>
      <trkpt lat="43.56462" lon="6.77834">
        <ele>267.5</ele>
        <time>2025-10-24T09:25:48.000Z</time>
      </trkpt>
      <trkpt lat="43.56461" lon="6.77839">
        <ele>266.9</ele>
        <time>2025-10-24T09:25:49.000Z</time>
      </trkpt>
      <trkpt lat="43.5646" lon="6.77844">
        <ele>266.3</ele>
        <time>2025-10-24T09:25:50.000Z</time>
      </trkpt>
      <trkpt lat="43.5646" lon="6.77849">
        <ele>265.7</ele>
        <time>2025-10-24T09:25:51.000Z</time>
      </trkpt>
      <trkpt lat="43.56459" lon="6.77854">
        <ele>265.1</ele>
        <time>2025-10-24T09:25:52.000Z</time>
      </trkpt>
      <trkpt lat="43.56459" lon="6.7786">
        <ele>264.5</ele>
        <time>2025-10-24T09:25:53.000Z</time>
      </trkpt>
      <trkpt lat="43.56459" lon="6.77865">
        <ele>263.8</ele>
        <time>2025-10-24T09:25:54.000Z</time>
      </trkpt>
      <trkpt lat="43.56458" lon="6.77871">
        <ele>263</ele>
        <time>2025-10-24T09:25:55.000Z</time>
      </trkpt>
      <trkpt lat="43.56458" lon="6.77876">
        <ele>262.3</ele>
        <time>2025-10-24T09:25:56.000Z</time>
      </trkpt>
      <trkpt lat="43.56457" lon="6.7788">
        <ele>261.7</ele>
        <time>2025-10-24T09:25:57.000Z</time>
      </trkpt>
      <trkpt lat="43.56455" lon="6.77884">
        <ele>261.2</ele>
        <time>2025-10-24T09:25:58.000Z</time>
      </trkpt>
      <trkpt lat="43.56454" lon="6.77887">
        <ele>260.6</ele>
        <time>2025-10-24T09:25:59.000Z</time>
      </trkpt>
      <trkpt lat="43.56452" lon="6.77889">
        <ele>260</ele>
        <time>2025-10-24T09:26:00.000Z</time>
      </trkpt>
      <trkpt lat="43.5645" lon="6.77892">
        <ele>259.4</ele>
        <time>2025-10-24T09:26:01.000Z</time>
      </trkpt>
      <trkpt lat="43.56449" lon="6.77895">
        <ele>259</ele>
        <time>2025-10-24T09:26:02.000Z</time>
      </trkpt>
      <trkpt lat="43.56448" lon="6.77897">
        <ele>258.6</ele>
        <time>2025-10-24T09:26:03.000Z</time>
      </trkpt>
      <trkpt lat="43.56447" lon="6.77899">
        <ele>258.2</ele>
        <time>2025-10-24T09:26:04.000Z</time>
      </trkpt>
      <trkpt lat="43.56446" lon="6.77901">
        <ele>257.7</ele>
        <time>2025-10-24T09:26:05.000Z</time>
      </trkpt>
      <trkpt lat="43.56446" lon="6.77905">
        <ele>257.1</ele>
        <time>2025-10-24T09:26:06.000Z</time>
      </trkpt>
      <trkpt lat="43.56445" lon="6.77908">
        <ele>256.4</ele>
        <time>2025-10-24T09:26:07.000Z</time>
      </trkpt>
      <trkpt lat="43.56444" lon="6.77911">
        <ele>255.9</ele>
        <time>2025-10-24T09:26:08.000Z</time>
      </trkpt>
      <trkpt lat="43.56443" lon="6.77916">
        <ele>255</ele>
        <time>2025-10-24T09:26:09.000Z</time>
      </trkpt>
      <trkpt lat="43.56441" lon="6.7792">
        <ele>254.2</ele>
        <time>2025-10-24T09:26:10.000Z</time>
      </trkpt>
      <trkpt lat="43.5644" lon="6.77923">
        <ele>253.5</ele>
        <time>2025-10-24T09:26:11.000Z</time>
      </trkpt>
      <trkpt lat="43.56438" lon="6.77926">
        <ele>252.8</ele>
        <time>2025-10-24T09:26:12.000Z</time>
      </trkpt>
      <trkpt lat="43.56436" lon="6.77929">
        <ele>252.1</ele>
        <time>2025-10-24T09:26:13.000Z</time>
      </trkpt>
      <trkpt lat="43.56434" lon="6.77931">
        <ele>251.4</ele>
        <time>2025-10-24T09:26:14.000Z</time>
      </trkpt>
      <trkpt lat="43.56432" lon="6.77934">
        <ele>250.7</ele>
        <time>2025-10-24T09:26:15.000Z</time>
      </trkpt>
      <trkpt lat="43.5643" lon="6.77937">
        <ele>250</ele>
        <time>2025-10-24T09:26:16.000Z</time>
      </trkpt>
      <trkpt lat="43.56428" lon="6.7794">
        <ele>249.4</ele>
        <time>2025-10-24T09:26:17.000Z</time>
      </trkpt>
      <trkpt lat="43.56426" lon="6.77943">
        <ele>248.4</ele>
        <time>2025-10-24T09:26:18.000Z</time>
      </trkpt>
      <trkpt lat="43.56423" lon="6.77946">
        <ele>247.6</ele>
        <time>2025-10-24T09:26:19.000Z</time>
      </trkpt>
      <trkpt lat="43.56421" lon="6.77949">
        <ele>246.9</ele>
        <time>2025-10-24T09:26:20.000Z</time>
      </trkpt>
      <trkpt lat="43.5642" lon="6.77951">
        <ele>246.5</ele>
        <time>2025-10-24T09:26:21.000Z</time>
      </trkpt>
      <trkpt lat="43.5642" lon="6.77953">
        <ele>246.2</ele>
        <time>2025-10-24T09:26:22.000Z</time>
      </trkpt>
      <trkpt lat="43.56419" lon="6.77953">
        <ele>246.1</ele>
        <time>2025-10-24T09:26:23.000Z</time>
      </trkpt>
      <trkpt lat="43.56419" lon="6.77954">
        <ele>245.8</ele>
        <time>2025-10-24T09:26:24.000Z</time>
      </trkpt>
      <trkpt lat="43.56419" lon="6.77955">
        <ele>245.6</ele>
        <time>2025-10-24T09:26:25.000Z</time>
      </trkpt>
      <trkpt lat="43.56419" lon="6.77957">
        <ele>245.4</ele>
        <time>2025-10-24T09:26:26.000Z</time>
      </trkpt>
      <trkpt lat="43.56418" lon="6.77958">
        <ele>245.2</ele>
        <time>2025-10-24T09:26:27.000Z</time>
      </trkpt>
      <trkpt lat="43.56418" lon="6.77959">
        <ele>245</ele>
        <time>2025-10-24T09:26:28.000Z</time>
      </trkpt>
      <trkpt lat="43.56418" lon="6.7796">
        <ele>244.8</ele>
        <time>2025-10-24T09:26:29.000Z</time>
      </trkpt>
      <trkpt lat="43.56418" lon="6.77961">
        <ele>244.6</ele>
        <time>2025-10-24T09:26:30.000Z</time>
      </trkpt>
      <trkpt lat="43.56417" lon="6.77962">
        <ele>244.4</ele>
        <time>2025-10-24T09:26:31.000Z</time>
      </trkpt>
      <trkpt lat="43.56417" lon="6.77963">
        <ele>244.2</ele>
        <time>2025-10-24T09:26:32.000Z</time>
      </trkpt>
      <trkpt lat="43.56417" lon="6.77964">
        <ele>244</ele>
        <time>2025-10-24T09:26:33.000Z</time>
      </trkpt>
      <trkpt lat="43.56416" lon="6.77965">
        <ele>243.8</ele>
        <time>2025-10-24T09:26:34.000Z</time>
      </trkpt>
      <trkpt lat="43.56416" lon="6.77966">
        <ele>243.6</ele>
        <time>2025-10-24T09:26:35.000Z</time>
      </trkpt>
      <trkpt lat="43.56416" lon="6.77967">
        <ele>243.4</ele>
        <time>2025-10-24T09:26:36.000Z</time>
      </trkpt>
      <trkpt lat="43.56416" lon="6.77969">
        <ele>243.2</ele>
        <time>2025-10-24T09:26:37.000Z</time>
      </trkpt>
      <trkpt lat="43.56415" lon="6.7797">
        <ele>243</ele>
        <time>2025-10-24T09:26:38.000Z</time>
      </trkpt>
      <trkpt lat="43.56415" lon="6.77971">
        <ele>242.8</ele>
        <time>2025-10-24T09:26:39.000Z</time>
      </trkpt>
      <trkpt lat="43.56415" lon="6.77972">
        <ele>242.6</ele>
        <time>2025-10-24T09:26:40.000Z</time>
      </trkpt>
      <trkpt lat="43.56414" lon="6.77973">
        <ele>242.4</ele>
        <time>2025-10-24T09:26:41.000Z</time>
      </trkpt>
      <trkpt lat="43.56414" lon="6.77974">
        <ele>242.2</ele>
        <time>2025-10-24T09:26:42.000Z</time>
      </trkpt>
      <trkpt lat="43.56414" lon="6.77975">
        <ele>242</ele>
        <time>2025-10-24T09:26:43.000Z</time>
      </trkpt>
      <trkpt lat="43.56414" lon="6.77976">
        <ele>241.8</ele>
        <time>2025-10-24T09:26:44.000Z</time>
      </trkpt>
      <trkpt lat="43.56413" lon="6.77977">
        <ele>241.6</ele>
        <time>2025-10-24T09:26:45.000Z</time>
      </trkpt>
      <trkpt lat="43.56413" lon="6.77978">
        <ele>241.4</ele>
        <time>2025-10-24T09:26:46.000Z</time>
      </trkpt>
      <trkpt lat="43.56413" lon="6.7798">
        <ele>241.2</ele>
        <time>2025-10-24T09:26:47.000Z</time>
      </trkpt>
      <trkpt lat="43.56413" lon="6.77981">
        <ele>241</ele>
        <time>2025-10-24T09:26:48.000Z</time>
      </trkpt>
      <trkpt lat="43.56412" lon="6.77982">
        <ele>240.8</ele>
        <time>2025-10-24T09:26:49.000Z</time>
      </trkpt>
      <trkpt lat="43.56412" lon="6.77983">
        <ele>240.6</ele>
        <time>2025-10-24T09:26:50.000Z</time>
      </trkpt>
      <trkpt lat="43.56412" lon="6.77984">
        <ele>240.4</ele>
        <time>2025-10-24T09:26:51.000Z</time>
      </trkpt>
      <trkpt lat="43.56411" lon="6.77985">
        <ele>240.2</ele>
        <time>2025-10-24T09:26:52.000Z</time>
      </trkpt>
      <trkpt lat="43.56411" lon="6.77986">
        <ele>240.1</ele>
        <time>2025-10-24T09:26:53.000Z</time>
      </trkpt>
      <trkpt lat="43.56411" lon="6.77987">
        <ele>239.9</ele>
        <time>2025-10-24T09:26:54.000Z</time>
      </trkpt>
      <trkpt lat="43.56411" lon="6.77988">
        <ele>239.7</ele>
        <time>2025-10-24T09:26:55.000Z</time>
      </trkpt>
      <trkpt lat="43.56409" lon="6.77995">
        <ele>238.7</ele>
        <time>2025-10-24T09:26:56.000Z</time>
      </trkpt>
      <trkpt lat="43.56408" lon="6.78002">
        <ele>237.7</ele>
        <time>2025-10-24T09:26:57.000Z</time>
      </trkpt>
      <trkpt lat="43.56407" lon="6.78009">
        <ele>236.8</ele>
        <time>2025-10-24T09:26:58.000Z</time>
      </trkpt>
      <trkpt lat="43.56405" lon="6.78016">
        <ele>235.9</ele>
        <time>2025-10-24T09:26:59.000Z</time>
      </trkpt>
      <trkpt lat="43.56404" lon="6.78023">
        <ele>235.1</ele>
        <time>2025-10-24T09:27:00.000Z</time>
      </trkpt>
      <trkpt lat="43.56402" lon="6.78029">
        <ele>234.4</ele>
        <time>2025-10-24T09:27:01.000Z</time>
      </trkpt>
      <trkpt lat="43.56401" lon="6.78035">
        <ele>233.7</ele>
        <time>2025-10-24T09:27:02.000Z</time>
      </trkpt>
      <trkpt lat="43.56399" lon="6.78041">
        <ele>233.1</ele>
        <time>2025-10-24T09:27:03.000Z</time>
      </trkpt>
      <trkpt lat="43.56398" lon="6.78047">
        <ele>232.5</ele>
        <time>2025-10-24T09:27:04.000Z</time>
      </trkpt>
      <trkpt lat="43.56397" lon="6.78052">
        <ele>231.8</ele>
        <time>2025-10-24T09:27:05.000Z</time>
      </trkpt>
      <trkpt lat="43.56396" lon="6.78058">
        <ele>231.2</ele>
        <time>2025-10-24T09:27:06.000Z</time>
      </trkpt>
      <trkpt lat="43.56395" lon="6.78063">
        <ele>230.4</ele>
        <time>2025-10-24T09:27:07.000Z</time>
      </trkpt>
      <trkpt lat="43.56394" lon="6.78069">
        <ele>229.7</ele>
        <time>2025-10-24T09:27:08.000Z</time>
      </trkpt>
      <trkpt lat="43.56392" lon="6.78074">
        <ele>228.8</ele>
        <time>2025-10-24T09:27:09.000Z</time>
      </trkpt>
      <trkpt lat="43.56391" lon="6.7808">
        <ele>228</ele>
        <time>2025-10-24T09:27:10.000Z</time>
      </trkpt>
      <trkpt lat="43.56389" lon="6.78085">
        <ele>227.1</ele>
        <time>2025-10-24T09:27:11.000Z</time>
      </trkpt>
      <trkpt lat="43.56387" lon="6.7809">
        <ele>226.2</ele>
        <time>2025-10-24T09:27:12.000Z</time>
      </trkpt>
      <trkpt lat="43.56385" lon="6.78095">
        <ele>225.2</ele>
        <time>2025-10-24T09:27:13.000Z</time>
      </trkpt>
      <trkpt lat="43.56383" lon="6.78101">
        <ele>224.2</ele>
        <time>2025-10-24T09:27:14.000Z</time>
      </trkpt>
      <trkpt lat="43.56382" lon="6.78106">
        <ele>223.3</ele>
        <time>2025-10-24T09:27:15.000Z</time>
      </trkpt>
      <trkpt lat="43.5638" lon="6.78112">
        <ele>222.3</ele>
        <time>2025-10-24T09:27:16.000Z</time>
      </trkpt>
      <trkpt lat="43.5638" lon="6.78118">
        <ele>221.3</ele>
        <time>2025-10-24T09:27:17.000Z</time>
      </trkpt>
      <trkpt lat="43.56379" lon="6.78122">
        <ele>220.7</ele>
        <time>2025-10-24T09:27:18.000Z</time>
      </trkpt>
      <trkpt lat="43.56379" lon="6.78128">
        <ele>219.8</ele>
        <time>2025-10-24T09:27:19.000Z</time>
      </trkpt>
      <trkpt lat="43.56379" lon="6.78131">
        <ele>219.2</ele>
        <time>2025-10-24T09:27:20.000Z</time>
      </trkpt>
      <trkpt lat="43.56379" lon="6.78135">
        <ele>218.6</ele>
        <time>2025-10-24T09:27:21.000Z</time>
      </trkpt>
      <trkpt lat="43.56378" lon="6.7814">
        <ele>217.8</ele>
        <time>2025-10-24T09:27:22.000Z</time>
      </trkpt>
      <trkpt lat="43.56378" lon="6.78146">
        <ele>216.9</ele>
        <time>2025-10-24T09:27:23.000Z</time>
      </trkpt>
      <trkpt lat="43.5638" lon="6.78152">
        <ele>216</ele>
        <time>2025-10-24T09:27:24.000Z</time>
      </trkpt>
      <trkpt lat="43.56382" lon="6.78157">
        <ele>215.1</ele>
        <time>2025-10-24T09:27:25.000Z</time>
      </trkpt>
      <trkpt lat="43.56386" lon="6.78159">
        <ele>214.4</ele>
        <time>2025-10-24T09:27:26.000Z</time>
      </trkpt>
      <trkpt lat="43.56389" lon="6.78159">
        <ele>213.9</ele>
        <time>2025-10-24T09:27:27.000Z</time>
      </trkpt>
      <trkpt lat="43.56393" lon="6.78158">
        <ele>213.3</ele>
        <time>2025-10-24T09:27:28.000Z</time>
      </trkpt>
      <trkpt lat="43.56398" lon="6.78156">
        <ele>212.6</ele>
        <time>2025-10-24T09:27:29.000Z</time>
      </trkpt>
      <trkpt lat="43.56402" lon="6.78154">
        <ele>212.1</ele>
        <time>2025-10-24T09:27:30.000Z</time>
      </trkpt>
      <trkpt lat="43.56406" lon="6.78152">
        <ele>211.6</ele>
        <time>2025-10-24T09:27:31.000Z</time>
      </trkpt>
      <trkpt lat="43.56411" lon="6.78149">
        <ele>211.1</ele>
        <time>2025-10-24T09:27:32.000Z</time>
      </trkpt>
      <trkpt lat="43.56414" lon="6.78146">
        <ele>210.6</ele>
        <time>2025-10-24T09:27:33.000Z</time>
      </trkpt>
      <trkpt lat="43.5642" lon="6.78142">
        <ele>209.9</ele>
        <time>2025-10-24T09:27:34.000Z</time>
      </trkpt>
      <trkpt lat="43.56424" lon="6.7814">
        <ele>209.4</ele>
        <time>2025-10-24T09:27:35.000Z</time>
      </trkpt>
      <trkpt lat="43.56429" lon="6.78139">
        <ele>208.8</ele>
        <time>2025-10-24T09:27:36.000Z</time>
      </trkpt>
      <trkpt lat="43.56432" lon="6.78141">
        <ele>208.4</ele>
        <time>2025-10-24T09:27:37.000Z</time>
      </trkpt>
      <trkpt lat="43.56434" lon="6.78143">
        <ele>208.1</ele>
        <time>2025-10-24T09:27:38.000Z</time>
      </trkpt>
      <trkpt lat="43.56435" lon="6.78147">
        <ele>207.9</ele>
        <time>2025-10-24T09:27:39.000Z</time>
      </trkpt>
      <trkpt lat="43.56435" lon="6.78152">
        <ele>207.6</ele>
        <time>2025-10-24T09:27:40.000Z</time>
      </trkpt>
      <trkpt lat="43.56435" lon="6.78157">
        <ele>207.3</ele>
        <time>2025-10-24T09:27:41.000Z</time>
      </trkpt>
      <trkpt lat="43.56435" lon="6.78162">
        <ele>207.1</ele>
        <time>2025-10-24T09:27:42.000Z</time>
      </trkpt>
      <trkpt lat="43.56435" lon="6.78168">
        <ele>206.8</ele>
        <time>2025-10-24T09:27:43.000Z</time>
      </trkpt>
      <trkpt lat="43.56436" lon="6.78174">
        <ele>206.5</ele>
        <time>2025-10-24T09:27:44.000Z</time>
      </trkpt>
      <trkpt lat="43.56437" lon="6.7818">
        <ele>206.2</ele>
        <time>2025-10-24T09:27:45.000Z</time>
      </trkpt>
      <trkpt lat="43.5644" lon="6.78185">
        <ele>205.9</ele>
        <time>2025-10-24T09:27:46.000Z</time>
      </trkpt>
      <trkpt lat="43.56442" lon="6.78192">
        <ele>205.6</ele>
        <time>2025-10-24T09:27:47.000Z</time>
      </trkpt>
      <trkpt lat="43.56445" lon="6.782">
        <ele>205.4</ele>
        <time>2025-10-24T09:27:48.000Z</time>
      </trkpt>
      <trkpt lat="43.56447" lon="6.78206">
        <ele>205.3</ele>
        <time>2025-10-24T09:27:49.000Z</time>
      </trkpt>
      <trkpt lat="43.56448" lon="6.78212">
        <ele>205.3</ele>
        <time>2025-10-24T09:27:50.000Z</time>
      </trkpt>
      <trkpt lat="43.56449" lon="6.78216">
        <ele>205.2</ele>
        <time>2025-10-24T09:27:51.000Z</time>
      </trkpt>
      <trkpt lat="43.56449" lon="6.78222">
        <ele>205.1</ele>
        <time>2025-10-24T09:27:52.000Z</time>
      </trkpt>
      <trkpt lat="43.5645" lon="6.78227">
        <ele>205</ele>
        <time>2025-10-24T09:27:53.000Z</time>
      </trkpt>
      <trkpt lat="43.5645" lon="6.78233">
        <ele>204.8</ele>
        <time>2025-10-24T09:27:54.000Z</time>
      </trkpt>
      <trkpt lat="43.5645" lon="6.78239">
        <ele>204.5</ele>
        <time>2025-10-24T09:27:55.000Z</time>
      </trkpt>
      <trkpt lat="43.56448" lon="6.78245">
        <ele>204.2</ele>
        <time>2025-10-24T09:27:56.000Z</time>
      </trkpt>
      <trkpt lat="43.56446" lon="6.78252">
        <ele>203.7</ele>
        <time>2025-10-24T09:27:57.000Z</time>
      </trkpt>
      <trkpt lat="43.56444" lon="6.78257">
        <ele>203.4</ele>
        <time>2025-10-24T09:27:58.000Z</time>
      </trkpt>
      <trkpt lat="43.5644" lon="6.78266">
        <ele>202.7</ele>
        <time>2025-10-24T09:27:59.000Z</time>
      </trkpt>
      <trkpt lat="43.56437" lon="6.78273">
        <ele>202.2</ele>
        <time>2025-10-24T09:28:00.000Z</time>
      </trkpt>
      <trkpt lat="43.56433" lon="6.78281">
        <ele>201.6</ele>
        <time>2025-10-24T09:28:01.000Z</time>
      </trkpt>
      <trkpt lat="43.56428" lon="6.78288">
        <ele>201</ele>
        <time>2025-10-24T09:28:02.000Z</time>
      </trkpt>
      <trkpt lat="43.56424" lon="6.78295">
        <ele>200.4</ele>
        <time>2025-10-24T09:28:03.000Z</time>
      </trkpt>
      <trkpt lat="43.56419" lon="6.78302">
        <ele>199.7</ele>
        <time>2025-10-24T09:28:04.000Z</time>
      </trkpt>
      <trkpt lat="43.56414" lon="6.7831">
        <ele>199.1</ele>
        <time>2025-10-24T09:28:05.000Z</time>
      </trkpt>
      <trkpt lat="43.56408" lon="6.78318">
        <ele>198.4</ele>
        <time>2025-10-24T09:28:06.000Z</time>
      </trkpt>
      <trkpt lat="43.56404" lon="6.78324">
        <ele>197.8</ele>
        <time>2025-10-24T09:28:07.000Z</time>
      </trkpt>
      <trkpt lat="43.56397" lon="6.78334">
        <ele>197</ele>
        <time>2025-10-24T09:28:08.000Z</time>
      </trkpt>
      <trkpt lat="43.56392" lon="6.78343">
        <ele>196.3</ele>
        <time>2025-10-24T09:28:09.000Z</time>
      </trkpt>
      <trkpt lat="43.56386" lon="6.78352">
        <ele>195.8</ele>
        <time>2025-10-24T09:28:10.000Z</time>
      </trkpt>
      <trkpt lat="43.56381" lon="6.78361">
        <ele>195.4</ele>
        <time>2025-10-24T09:28:11.000Z</time>
      </trkpt>
      <trkpt lat="43.56377" lon="6.78368">
        <ele>195.2</ele>
        <time>2025-10-24T09:28:12.000Z</time>
      </trkpt>
      <trkpt lat="43.56371" lon="6.78378">
        <ele>194.8</ele>
        <time>2025-10-24T09:28:13.000Z</time>
      </trkpt>
      <trkpt lat="43.56366" lon="6.78386">
        <ele>194.5</ele>
        <time>2025-10-24T09:28:14.000Z</time>
      </trkpt>
      <trkpt lat="43.5636" lon="6.78392">
        <ele>194.2</ele>
        <time>2025-10-24T09:28:15.000Z</time>
      </trkpt>
      <trkpt lat="43.56354" lon="6.78399">
        <ele>193.9</ele>
        <time>2025-10-24T09:28:16.000Z</time>
      </trkpt>
      <trkpt lat="43.5635" lon="6.78405">
        <ele>193.6</ele>
        <time>2025-10-24T09:28:17.000Z</time>
      </trkpt>
      <trkpt lat="43.56346" lon="6.78414">
        <ele>193.2</ele>
        <time>2025-10-24T09:28:18.000Z</time>
      </trkpt>
      <trkpt lat="43.56343" lon="6.78423">
        <ele>192.8</ele>
        <time>2025-10-24T09:28:19.000Z</time>
      </trkpt>
      <trkpt lat="43.56339" lon="6.78431">
        <ele>192.3</ele>
        <time>2025-10-24T09:28:20.000Z</time>
      </trkpt>
      <trkpt lat="43.56337" lon="6.78436">
        <ele>191.8</ele>
        <time>2025-10-24T09:28:21.000Z</time>
      </trkpt>
      <trkpt lat="43.56332" lon="6.78443">
        <ele>191.1</ele>
        <time>2025-10-24T09:28:22.000Z</time>
      </trkpt>
      <trkpt lat="43.56326" lon="6.78449">
        <ele>190.3</ele>
        <time>2025-10-24T09:28:23.000Z</time>
      </trkpt>
      <trkpt lat="43.5632" lon="6.78452">
        <ele>189.5</ele>
        <time>2025-10-24T09:28:24.000Z</time>
      </trkpt>
      <trkpt lat="43.56313" lon="6.78455">
        <ele>188.9</ele>
        <time>2025-10-24T09:28:25.000Z</time>
      </trkpt>
      <trkpt lat="43.56306" lon="6.78458">
        <ele>188.3</ele>
        <time>2025-10-24T09:28:26.000Z</time>
      </trkpt>
      <trkpt lat="43.56299" lon="6.78461">
        <ele>187.9</ele>
        <time>2025-10-24T09:28:27.000Z</time>
      </trkpt>
      <trkpt lat="43.56293" lon="6.78466">
        <ele>187.7</ele>
        <time>2025-10-24T09:28:28.000Z</time>
      </trkpt>
      <trkpt lat="43.56288" lon="6.78472">
        <ele>187.6</ele>
        <time>2025-10-24T09:28:29.000Z</time>
      </trkpt>
      <trkpt lat="43.56283" lon="6.78478">
        <ele>187.7</ele>
        <time>2025-10-24T09:28:30.000Z</time>
      </trkpt>
      <trkpt lat="43.5628" lon="6.78484">
        <ele>187.7</ele>
        <time>2025-10-24T09:28:31.000Z</time>
      </trkpt>
      <trkpt lat="43.56277" lon="6.7849">
        <ele>187.8</ele>
        <time>2025-10-24T09:28:32.000Z</time>
      </trkpt>
      <trkpt lat="43.56273" lon="6.78498">
        <ele>187.8</ele>
        <time>2025-10-24T09:28:33.000Z</time>
      </trkpt>
      <trkpt lat="43.5627" lon="6.78503">
        <ele>187.8</ele>
        <time>2025-10-24T09:28:34.000Z</time>
      </trkpt>
      <trkpt lat="43.56267" lon="6.78509">
        <ele>187.8</ele>
        <time>2025-10-24T09:28:35.000Z</time>
      </trkpt>
      <trkpt lat="43.56265" lon="6.78515">
        <ele>187.7</ele>
        <time>2025-10-24T09:28:36.000Z</time>
      </trkpt>
      <trkpt lat="43.56264" lon="6.78522">
        <ele>187.5</ele>
        <time>2025-10-24T09:28:37.000Z</time>
      </trkpt>
      <trkpt lat="43.56263" lon="6.78529">
        <ele>187.2</ele>
        <time>2025-10-24T09:28:38.000Z</time>
      </trkpt>
      <trkpt lat="43.56261" lon="6.78536">
        <ele>186.8</ele>
        <time>2025-10-24T09:28:39.000Z</time>
      </trkpt>
      <trkpt lat="43.5626" lon="6.78544">
        <ele>186.2</ele>
        <time>2025-10-24T09:28:40.000Z</time>
      </trkpt>
      <trkpt lat="43.56259" lon="6.78551">
        <ele>185.7</ele>
        <time>2025-10-24T09:28:41.000Z</time>
      </trkpt>
      <trkpt lat="43.56257" lon="6.78559">
        <ele>185.1</ele>
        <time>2025-10-24T09:28:42.000Z</time>
      </trkpt>
      <trkpt lat="43.56255" lon="6.78569">
        <ele>184.2</ele>
        <time>2025-10-24T09:28:43.000Z</time>
      </trkpt>
      <trkpt lat="43.56253" lon="6.78579">
        <ele>183.5</ele>
        <time>2025-10-24T09:28:44.000Z</time>
      </trkpt>
      <trkpt lat="43.56252" lon="6.78589">
        <ele>182.7</ele>
        <time>2025-10-24T09:28:45.000Z</time>
      </trkpt>
      <trkpt lat="43.5625" lon="6.78597">
        <ele>182.2</ele>
        <time>2025-10-24T09:28:46.000Z</time>
      </trkpt>
      <trkpt lat="43.56249" lon="6.78607">
        <ele>181.5</ele>
        <time>2025-10-24T09:28:47.000Z</time>
      </trkpt>
      <trkpt lat="43.56246" lon="6.78619">
        <ele>180.8</ele>
        <time>2025-10-24T09:28:48.000Z</time>
      </trkpt>
      <trkpt lat="43.56243" lon="6.78629">
        <ele>180.2</ele>
        <time>2025-10-24T09:28:49.000Z</time>
      </trkpt>
      <trkpt lat="43.56241" lon="6.78637">
        <ele>179.7</ele>
        <time>2025-10-24T09:28:50.000Z</time>
      </trkpt>
      <trkpt lat="43.56238" lon="6.78647">
        <ele>179.1</ele>
        <time>2025-10-24T09:28:51.000Z</time>
      </trkpt>
      <trkpt lat="43.56235" lon="6.78656">
        <ele>178.6</ele>
        <time>2025-10-24T09:28:52.000Z</time>
      </trkpt>
      <trkpt lat="43.56231" lon="6.78666">
        <ele>178</ele>
        <time>2025-10-24T09:28:53.000Z</time>
      </trkpt>
      <trkpt lat="43.56229" lon="6.78674">
        <ele>177.5</ele>
        <time>2025-10-24T09:28:54.000Z</time>
      </trkpt>
      <trkpt lat="43.56227" lon="6.78683">
        <ele>177</ele>
        <time>2025-10-24T09:28:55.000Z</time>
      </trkpt>
      <trkpt lat="43.56226" lon="6.7869">
        <ele>176.6</ele>
        <time>2025-10-24T09:28:56.000Z</time>
      </trkpt>
      <trkpt lat="43.56224" lon="6.78698">
        <ele>176.1</ele>
        <time>2025-10-24T09:28:57.000Z</time>
      </trkpt>
      <trkpt lat="43.56222" lon="6.78709">
        <ele>175.6</ele>
        <time>2025-10-24T09:28:58.000Z</time>
      </trkpt>
      <trkpt lat="43.56221" lon="6.78717">
        <ele>175.2</ele>
        <time>2025-10-24T09:28:59.000Z</time>
      </trkpt>
      <trkpt lat="43.56221" lon="6.78724">
        <ele>174.9</ele>
        <time>2025-10-24T09:29:00.000Z</time>
      </trkpt>
      <trkpt lat="43.56219" lon="6.78732">
        <ele>174.5</ele>
        <time>2025-10-24T09:29:01.000Z</time>
      </trkpt>
      <trkpt lat="43.56217" lon="6.7874">
        <ele>174.1</ele>
        <time>2025-10-24T09:29:02.000Z</time>
      </trkpt>
      <trkpt lat="43.56213" lon="6.78749">
        <ele>173.7</ele>
        <time>2025-10-24T09:29:03.000Z</time>
      </trkpt>
      <trkpt lat="43.56211" lon="6.78757">
        <ele>173.4</ele>
        <time>2025-10-24T09:29:04.000Z</time>
      </trkpt>
      <trkpt lat="43.56209" lon="6.78763">
        <ele>173.2</ele>
        <time>2025-10-24T09:29:05.000Z</time>
      </trkpt>
      <trkpt lat="43.56207" lon="6.78771">
        <ele>173</ele>
        <time>2025-10-24T09:29:06.000Z</time>
      </trkpt>
      <trkpt lat="43.56204" lon="6.78779">
        <ele>172.7</ele>
        <time>2025-10-24T09:29:07.000Z</time>
      </trkpt>
      <trkpt lat="43.56201" lon="6.78788">
        <ele>172.4</ele>
        <time>2025-10-24T09:29:08.000Z</time>
      </trkpt>
      <trkpt lat="43.56198" lon="6.78795">
        <ele>172.1</ele>
        <time>2025-10-24T09:29:09.000Z</time>
      </trkpt>
      <trkpt lat="43.56196" lon="6.78801">
        <ele>171.9</ele>
        <time>2025-10-24T09:29:10.000Z</time>
      </trkpt>
      <trkpt lat="43.56194" lon="6.78809">
        <ele>171.7</ele>
        <time>2025-10-24T09:29:11.000Z</time>
      </trkpt>
      <trkpt lat="43.56193" lon="6.78817">
        <ele>171.4</ele>
        <time>2025-10-24T09:29:12.000Z</time>
      </trkpt>
      <trkpt lat="43.5619" lon="6.78825">
        <ele>171.1</ele>
        <time>2025-10-24T09:29:13.000Z</time>
      </trkpt>
      <trkpt lat="43.56188" lon="6.78835">
        <ele>170.7</ele>
        <time>2025-10-24T09:29:14.000Z</time>
      </trkpt>
      <trkpt lat="43.56187" lon="6.78842">
        <ele>170.5</ele>
        <time>2025-10-24T09:29:15.000Z</time>
      </trkpt>
      <trkpt lat="43.56187" lon="6.78852">
        <ele>170</ele>
        <time>2025-10-24T09:29:16.000Z</time>
      </trkpt>
      <trkpt lat="43.56186" lon="6.78859">
        <ele>169.7</ele>
        <time>2025-10-24T09:29:17.000Z</time>
      </trkpt>
      <trkpt lat="43.56187" lon="6.7887">
        <ele>169.1</ele>
        <time>2025-10-24T09:29:18.000Z</time>
      </trkpt>
      <trkpt lat="43.56187" lon="6.78879">
        <ele>168.7</ele>
        <time>2025-10-24T09:29:19.000Z</time>
      </trkpt>
      <trkpt lat="43.56186" lon="6.78887">
        <ele>168.3</ele>
        <time>2025-10-24T09:29:20.000Z</time>
      </trkpt>
      <trkpt lat="43.56187" lon="6.78897">
        <ele>167.9</ele>
        <time>2025-10-24T09:29:21.000Z</time>
      </trkpt>
      <trkpt lat="43.56187" lon="6.78907">
        <ele>167.4</ele>
        <time>2025-10-24T09:29:22.000Z</time>
      </trkpt>
      <trkpt lat="43.56188" lon="6.78916">
        <ele>167</ele>
        <time>2025-10-24T09:29:23.000Z</time>
      </trkpt>
      <trkpt lat="43.56189" lon="6.78926">
        <ele>166.6</ele>
        <time>2025-10-24T09:29:24.000Z</time>
      </trkpt>
      <trkpt lat="43.5619" lon="6.78934">
        <ele>166.3</ele>
        <time>2025-10-24T09:29:25.000Z</time>
      </trkpt>
      <trkpt lat="43.56192" lon="6.78943">
        <ele>165.8</ele>
        <time>2025-10-24T09:29:26.000Z</time>
      </trkpt>
      <trkpt lat="43.56193" lon="6.78954">
        <ele>165.2</ele>
        <time>2025-10-24T09:29:27.000Z</time>
      </trkpt>
      <trkpt lat="43.56194" lon="6.78962">
        <ele>164.7</ele>
        <time>2025-10-24T09:29:28.000Z</time>
      </trkpt>
      <trkpt lat="43.56196" lon="6.7897">
        <ele>164.1</ele>
        <time>2025-10-24T09:29:29.000Z</time>
      </trkpt>
      <trkpt lat="43.56197" lon="6.78976">
        <ele>163.7</ele>
        <time>2025-10-24T09:29:30.000Z</time>
      </trkpt>
      <trkpt lat="43.56198" lon="6.78984">
        <ele>163.1</ele>
        <time>2025-10-24T09:29:31.000Z</time>
      </trkpt>
      <trkpt lat="43.56198" lon="6.78993">
        <ele>162.4</ele>
        <time>2025-10-24T09:29:32.000Z</time>
      </trkpt>
      <trkpt lat="43.56197" lon="6.79001">
        <ele>161.8</ele>
        <time>2025-10-24T09:29:33.000Z</time>
      </trkpt>
      <trkpt lat="43.56197" lon="6.79009">
        <ele>161.2</ele>
        <time>2025-10-24T09:29:34.000Z</time>
      </trkpt>
      <trkpt lat="43.56197" lon="6.79017">
        <ele>160.7</ele>
        <time>2025-10-24T09:29:35.000Z</time>
      </trkpt>
      <trkpt lat="43.56196" lon="6.79024">
        <ele>160.2</ele>
        <time>2025-10-24T09:29:36.000Z</time>
      </trkpt>
      <trkpt lat="43.56195" lon="6.79033">
        <ele>159.7</ele>
        <time>2025-10-24T09:29:37.000Z</time>
      </trkpt>
      <trkpt lat="43.56193" lon="6.79041">
        <ele>159.3</ele>
        <time>2025-10-24T09:29:38.000Z</time>
      </trkpt>
      <trkpt lat="43.56192" lon="6.79047">
        <ele>158.9</ele>
        <time>2025-10-24T09:29:39.000Z</time>
      </trkpt>
      <trkpt lat="43.5619" lon="6.79052">
        <ele>158.7</ele>
        <time>2025-10-24T09:29:40.000Z</time>
      </trkpt>
      <trkpt lat="43.56187" lon="6.79058">
        <ele>158.4</ele>
        <time>2025-10-24T09:29:41.000Z</time>
      </trkpt>
      <trkpt lat="43.56185" lon="6.79065">
        <ele>158</ele>
        <time>2025-10-24T09:29:42.000Z</time>
      </trkpt>
      <trkpt lat="43.56183" lon="6.79071">
        <ele>157.7</ele>
        <time>2025-10-24T09:29:43.000Z</time>
      </trkpt>
      <trkpt lat="43.56182" lon="6.79077">
        <ele>157.5</ele>
        <time>2025-10-24T09:29:44.000Z</time>
      </trkpt>
      <trkpt lat="43.5618" lon="6.79084">
        <ele>157.2</ele>
        <time>2025-10-24T09:29:45.000Z</time>
      </trkpt>
      <trkpt lat="43.56179" lon="6.79089">
        <ele>157</ele>
        <time>2025-10-24T09:29:46.000Z</time>
      </trkpt>
      <trkpt lat="43.56177" lon="6.79093">
        <ele>156.8</ele>
        <time>2025-10-24T09:29:47.000Z</time>
      </trkpt>
      <trkpt lat="43.56175" lon="6.79096">
        <ele>156.6</ele>
        <time>2025-10-24T09:29:48.000Z</time>
      </trkpt>
      <trkpt lat="43.56172" lon="6.79096">
        <ele>156.5</ele>
        <time>2025-10-24T09:29:49.000Z</time>
      </trkpt>
      <trkpt lat="43.5617" lon="6.79094">
        <ele>156.4</ele>
        <time>2025-10-24T09:29:50.000Z</time>
      </trkpt>
      <trkpt lat="43.56167" lon="6.79092">
        <ele>156.4</ele>
        <time>2025-10-24T09:29:51.000Z</time>
      </trkpt>
      <trkpt lat="43.56164" lon="6.7909">
        <ele>156.4</ele>
        <time>2025-10-24T09:29:52.000Z</time>
      </trkpt>
      <trkpt lat="43.5616" lon="6.79088">
        <ele>156.4</ele>
        <time>2025-10-24T09:29:53.000Z</time>
      </trkpt>
      <trkpt lat="43.56157" lon="6.79085">
        <ele>156.5</ele>
        <time>2025-10-24T09:29:54.000Z</time>
      </trkpt>
      <trkpt lat="43.56154" lon="6.79082">
        <ele>156.5</ele>
        <time>2025-10-24T09:29:55.000Z</time>
      </trkpt>
      <trkpt lat="43.5615" lon="6.79078">
        <ele>156.5</ele>
        <time>2025-10-24T09:29:56.000Z</time>
      </trkpt>
      <trkpt lat="43.56147" lon="6.79073">
        <ele>156.6</ele>
        <time>2025-10-24T09:29:57.000Z</time>
      </trkpt>
      <trkpt lat="43.56145" lon="6.79069">
        <ele>156.7</ele>
        <time>2025-10-24T09:29:58.000Z</time>
      </trkpt>
      <trkpt lat="43.56143" lon="6.79065">
        <ele>156.8</ele>
        <time>2025-10-24T09:29:59.000Z</time>
      </trkpt>
      <trkpt lat="43.56142" lon="6.79062">
        <ele>156.9</ele>
        <time>2025-10-24T09:30:00.000Z</time>
      </trkpt>
      <trkpt lat="43.5614" lon="6.79056">
        <ele>157.1</ele>
        <time>2025-10-24T09:30:01.000Z</time>
      </trkpt>
      <trkpt lat="43.56139" lon="6.79051">
        <ele>157.3</ele>
        <time>2025-10-24T09:30:02.000Z</time>
      </trkpt>
      <trkpt lat="43.56138" lon="6.79045">
        <ele>157.5</ele>
        <time>2025-10-24T09:30:03.000Z</time>
      </trkpt>
      <trkpt lat="43.56138" lon="6.79041">
        <ele>157.8</ele>
        <time>2025-10-24T09:30:04.000Z</time>
      </trkpt>
      <trkpt lat="43.56137" lon="6.79036">
        <ele>158.1</ele>
        <time>2025-10-24T09:30:05.000Z</time>
      </trkpt>
      <trkpt lat="43.56137" lon="6.79031">
        <ele>158.4</ele>
        <time>2025-10-24T09:30:06.000Z</time>
      </trkpt>
      <trkpt lat="43.56136" lon="6.79027">
        <ele>158.7</ele>
        <time>2025-10-24T09:30:07.000Z</time>
      </trkpt>
      <trkpt lat="43.56136" lon="6.79023">
        <ele>159</ele>
        <time>2025-10-24T09:30:08.000Z</time>
      </trkpt>
      <trkpt lat="43.56135" lon="6.7902">
        <ele>159.3</ele>
        <time>2025-10-24T09:30:09.000Z</time>
      </trkpt>
      <trkpt lat="43.56134" lon="6.79015">
        <ele>159.6</ele>
        <time>2025-10-24T09:30:10.000Z</time>
      </trkpt>
      <trkpt lat="43.56134" lon="6.79011">
        <ele>159.9</ele>
        <time>2025-10-24T09:30:11.000Z</time>
      </trkpt>
      <trkpt lat="43.56133" lon="6.79007">
        <ele>160.2</ele>
        <time>2025-10-24T09:30:12.000Z</time>
      </trkpt>
      <trkpt lat="43.56133" lon="6.79003">
        <ele>160.4</ele>
        <time>2025-10-24T09:30:13.000Z</time>
      </trkpt>
      <trkpt lat="43.56132" lon="6.78999">
        <ele>160.6</ele>
        <time>2025-10-24T09:30:14.000Z</time>
      </trkpt>
      <trkpt lat="43.56132" lon="6.78995">
        <ele>160.8</ele>
        <time>2025-10-24T09:30:15.000Z</time>
      </trkpt>
      <trkpt lat="43.5613" lon="6.78992">
        <ele>161</ele>
        <time>2025-10-24T09:30:16.000Z</time>
      </trkpt>
      <trkpt lat="43.56129" lon="6.78991">
        <ele>161.1</ele>
        <time>2025-10-24T09:30:17.000Z</time>
      </trkpt>
      <trkpt lat="43.56128" lon="6.78991">
        <ele>161.1</ele>
        <time>2025-10-24T09:30:18.000Z</time>
      </trkpt>
      <trkpt lat="43.56127" lon="6.78993">
        <ele>161.2</ele>
        <time>2025-10-24T09:30:19.000Z</time>
      </trkpt>
      <trkpt lat="43.56127" lon="6.78996">
        <ele>161.1</ele>
        <time>2025-10-24T09:30:20.000Z</time>
      </trkpt>
      <trkpt lat="43.56129" lon="6.78999">
        <ele>160.9</ele>
        <time>2025-10-24T09:30:21.000Z</time>
      </trkpt>
      <trkpt lat="43.5613" lon="6.79003">
        <ele>160.7</ele>
        <time>2025-10-24T09:30:22.000Z</time>
      </trkpt>
      <trkpt lat="43.56132" lon="6.79007">
        <ele>160.4</ele>
        <time>2025-10-24T09:30:23.000Z</time>
      </trkpt>
      <trkpt lat="43.56133" lon="6.79014">
        <ele>160</ele>
        <time>2025-10-24T09:30:24.000Z</time>
      </trkpt>
      <trkpt lat="43.56135" lon="6.79021">
        <ele>159.4</ele>
        <time>2025-10-24T09:30:25.000Z</time>
      </trkpt>
      <trkpt lat="43.56136" lon="6.79029">
        <ele>158.8</ele>
        <time>2025-10-24T09:30:26.000Z</time>
      </trkpt>
      <trkpt lat="43.56137" lon="6.79037">
        <ele>158.2</ele>
        <time>2025-10-24T09:30:27.000Z</time>
      </trkpt>
      <trkpt lat="43.56138" lon="6.79046">
        <ele>157.6</ele>
        <time>2025-10-24T09:30:28.000Z</time>
      </trkpt>
      <trkpt lat="43.56141" lon="6.79054">
        <ele>157.2</ele>
        <time>2025-10-24T09:30:29.000Z</time>
      </trkpt>
      <trkpt lat="43.56144" lon="6.79062">
        <ele>156.8</ele>
        <time>2025-10-24T09:30:30.000Z</time>
      </trkpt>
      <trkpt lat="43.56149" lon="6.79069">
        <ele>156.6</ele>
        <time>2025-10-24T09:30:31.000Z</time>
      </trkpt>
      <trkpt lat="43.56154" lon="6.79074">
        <ele>156.5</ele>
        <time>2025-10-24T09:30:32.000Z</time>
      </trkpt>
      <trkpt lat="43.56159" lon="6.79079">
        <ele>156.5</ele>
        <time>2025-10-24T09:30:33.000Z</time>
      </trkpt>
      <trkpt lat="43.56164" lon="6.79084">
        <ele>156.4</ele>
        <time>2025-10-24T09:30:34.000Z</time>
      </trkpt>
      <trkpt lat="43.56168" lon="6.79087">
        <ele>156.4</ele>
        <time>2025-10-24T09:30:35.000Z</time>
      </trkpt>
      <trkpt lat="43.56171" lon="6.7909">
        <ele>156.4</ele>
        <time>2025-10-24T09:30:36.000Z</time>
      </trkpt>
      <trkpt lat="43.56174" lon="6.79092">
        <ele>156.4</ele>
        <time>2025-10-24T09:30:37.000Z</time>
      </trkpt>
      <trkpt lat="43.56175" lon="6.79094">
        <ele>156.5</ele>
        <time>2025-10-24T09:30:38.000Z</time>
      </trkpt>
      <trkpt lat="43.56176" lon="6.79097">
        <ele>156.5</ele>
        <time>2025-10-24T09:30:39.000Z</time>
      </trkpt>
      <trkpt lat="43.56177" lon="6.79099">
        <ele>156.5</ele>
        <time>2025-10-24T09:30:40.000Z</time>
      </trkpt>
      <trkpt lat="43.56177" lon="6.79099">
        <ele>156.5</ele>
        <time>2025-10-24T09:30:41.000Z</time>
      </trkpt>
      <trkpt lat="43.56177" lon="6.791">
        <ele>156.5</ele>
        <time>2025-10-24T09:30:42.000Z</time>
      </trkpt>
      <trkpt lat="43.56177" lon="6.791">
        <ele>156.5</ele>
        <time>2025-10-24T09:30:43.000Z</time>
      </trkpt>
      <trkpt lat="43.56177" lon="6.791">
        <ele>156.5</ele>
        <time>2025-10-24T09:30:44.000Z</time>
      </trkpt>
      <trkpt lat="43.56177" lon="6.79101">
        <ele>156.5</ele>
        <time>2025-10-24T09:30:45.000Z</time>
      </trkpt>
      <trkpt lat="43.56177" lon="6.79102">
        <ele>156.6</ele>
        <time>2025-10-24T09:30:46.000Z</time>
      </trkpt>
      <trkpt lat="43.56177" lon="6.79105">
        <ele>156.6</ele>
        <time>2025-10-24T09:30:47.000Z</time>
      </trkpt>
      <trkpt lat="43.56177" lon="6.79108">
        <ele>156.6</ele>
        <time>2025-10-24T09:30:48.000Z</time>
      </trkpt>
      <trkpt lat="43.56176" lon="6.79112">
        <ele>156.7</ele>
        <time>2025-10-24T09:30:49.000Z</time>
      </trkpt>
      <trkpt lat="43.56176" lon="6.79117">
        <ele>156.8</ele>
        <time>2025-10-24T09:30:50.000Z</time>
      </trkpt>
      <trkpt lat="43.56175" lon="6.79121">
        <ele>157</ele>
        <time>2025-10-24T09:30:51.000Z</time>
      </trkpt>
      <trkpt lat="43.56174" lon="6.79126">
        <ele>157.2</ele>
        <time>2025-10-24T09:30:52.000Z</time>
      </trkpt>
      <trkpt lat="43.56172" lon="6.7913">
        <ele>157.4</ele>
        <time>2025-10-24T09:30:53.000Z</time>
      </trkpt>
      <trkpt lat="43.56171" lon="6.79134">
        <ele>157.6</ele>
        <time>2025-10-24T09:30:54.000Z</time>
      </trkpt>
      <trkpt lat="43.5617" lon="6.79138">
        <ele>157.8</ele>
        <time>2025-10-24T09:30:55.000Z</time>
      </trkpt>
      <trkpt lat="43.56169" lon="6.79143">
        <ele>158</ele>
        <time>2025-10-24T09:30:56.000Z</time>
      </trkpt>
      <trkpt lat="43.56168" lon="6.79147">
        <ele>158.2</ele>
        <time>2025-10-24T09:30:57.000Z</time>
      </trkpt>
      <trkpt lat="43.56166" lon="6.79151">
        <ele>158.3</ele>
        <time>2025-10-24T09:30:58.000Z</time>
      </trkpt>
      <trkpt lat="43.56164" lon="6.79155">
        <ele>158.4</ele>
        <time>2025-10-24T09:30:59.000Z</time>
      </trkpt>
      <trkpt lat="43.56162" lon="6.79159">
        <ele>158.5</ele>
        <time>2025-10-24T09:31:00.000Z</time>
      </trkpt>
      <trkpt lat="43.5616" lon="6.79163">
        <ele>158.6</ele>
        <time>2025-10-24T09:31:01.000Z</time>
      </trkpt>
      <trkpt lat="43.56157" lon="6.79167">
        <ele>158.6</ele>
        <time>2025-10-24T09:31:02.000Z</time>
      </trkpt>
      <trkpt lat="43.56154" lon="6.79171">
        <ele>158.6</ele>
        <time>2025-10-24T09:31:03.000Z</time>
      </trkpt>
      <trkpt lat="43.56152" lon="6.79176">
        <ele>158.6</ele>
        <time>2025-10-24T09:31:04.000Z</time>
      </trkpt>
      <trkpt lat="43.56149" lon="6.79182">
        <ele>158.5</ele>
        <time>2025-10-24T09:31:05.000Z</time>
      </trkpt>
      <trkpt lat="43.56147" lon="6.79187">
        <ele>158.4</ele>
        <time>2025-10-24T09:31:06.000Z</time>
      </trkpt>
      <trkpt lat="43.56145" lon="6.79192">
        <ele>158.2</ele>
        <time>2025-10-24T09:31:07.000Z</time>
      </trkpt>
      <trkpt lat="43.56144" lon="6.79198">
        <ele>157.9</ele>
        <time>2025-10-24T09:31:08.000Z</time>
      </trkpt>
      <trkpt lat="43.56143" lon="6.79203">
        <ele>157.6</ele>
        <time>2025-10-24T09:31:09.000Z</time>
      </trkpt>
      <trkpt lat="43.56142" lon="6.79209">
        <ele>157.3</ele>
        <time>2025-10-24T09:31:10.000Z</time>
      </trkpt>
      <trkpt lat="43.56141" lon="6.79215">
        <ele>157</ele>
        <time>2025-10-24T09:31:11.000Z</time>
      </trkpt>
      <trkpt lat="43.56139" lon="6.7922">
        <ele>156.5</ele>
        <time>2025-10-24T09:31:12.000Z</time>
      </trkpt>
      <trkpt lat="43.56137" lon="6.79225">
        <ele>156.1</ele>
        <time>2025-10-24T09:31:13.000Z</time>
      </trkpt>
      <trkpt lat="43.56134" lon="6.7923">
        <ele>155.7</ele>
        <time>2025-10-24T09:31:14.000Z</time>
      </trkpt>
      <trkpt lat="43.5613" lon="6.79235">
        <ele>155.3</ele>
        <time>2025-10-24T09:31:15.000Z</time>
      </trkpt>
      <trkpt lat="43.56127" lon="6.7924">
        <ele>155</ele>
        <time>2025-10-24T09:31:16.000Z</time>
      </trkpt>
      <trkpt lat="43.56123" lon="6.79245">
        <ele>154.6</ele>
        <time>2025-10-24T09:31:17.000Z</time>
      </trkpt>
      <trkpt lat="43.56119" lon="6.79249">
        <ele>154.3</ele>
        <time>2025-10-24T09:31:18.000Z</time>
      </trkpt>
      <trkpt lat="43.56115" lon="6.79253">
        <ele>154</ele>
        <time>2025-10-24T09:31:19.000Z</time>
      </trkpt>
      <trkpt lat="43.56111" lon="6.79258">
        <ele>153.6</ele>
        <time>2025-10-24T09:31:20.000Z</time>
      </trkpt>
      <trkpt lat="43.56108" lon="6.79262">
        <ele>153.2</ele>
        <time>2025-10-24T09:31:21.000Z</time>
      </trkpt>
      <trkpt lat="43.56105" lon="6.79264">
        <ele>153</ele>
        <time>2025-10-24T09:31:22.000Z</time>
      </trkpt>
      <trkpt lat="43.56104" lon="6.79265">
        <ele>152.9</ele>
        <time>2025-10-24T09:31:23.000Z</time>
      </trkpt>
      <trkpt lat="43.56103" lon="6.79265">
        <ele>152.9</ele>
        <time>2025-10-24T09:31:24.000Z</time>
      </trkpt>
      <trkpt lat="43.56103" lon="6.79264">
        <ele>152.9</ele>
        <time>2025-10-24T09:31:25.000Z</time>
      </trkpt>
      <trkpt lat="43.56103" lon="6.79263">
        <ele>152.9</ele>
        <time>2025-10-24T09:31:26.000Z</time>
      </trkpt>
      <trkpt lat="43.56103" lon="6.79263">
        <ele>152.9</ele>
        <time>2025-10-24T09:31:27.000Z</time>
      </trkpt>
      <trkpt lat="43.56103" lon="6.79262">
        <ele>152.9</ele>
        <time>2025-10-24T09:31:28.000Z</time>
      </trkpt>
      <trkpt lat="43.56103" lon="6.79261">
        <ele>152.9</ele>
        <time>2025-10-24T09:31:29.000Z</time>
      </trkpt>
      <trkpt lat="43.56103" lon="6.79259">
        <ele>152.9</ele>
        <time>2025-10-24T09:31:30.000Z</time>
      </trkpt>
      <trkpt lat="43.56103" lon="6.79256">
        <ele>152.9</ele>
        <time>2025-10-24T09:31:31.000Z</time>
      </trkpt>
      <trkpt lat="43.56103" lon="6.79252">
        <ele>152.9</ele>
        <time>2025-10-24T09:31:32.000Z</time>
      </trkpt>
      <trkpt lat="43.56103" lon="6.79248">
        <ele>152.9</ele>
        <time>2025-10-24T09:31:33.000Z</time>
      </trkpt>
      <trkpt lat="43.56104" lon="6.79243">
        <ele>152.9</ele>
        <time>2025-10-24T09:31:34.000Z</time>
      </trkpt>
      <trkpt lat="43.56103" lon="6.79237">
        <ele>152.8</ele>
        <time>2025-10-24T09:31:35.000Z</time>
      </trkpt>
      <trkpt lat="43.56102" lon="6.79231">
        <ele>152.6</ele>
        <time>2025-10-24T09:31:36.000Z</time>
      </trkpt>
      <trkpt lat="43.56101" lon="6.79225">
        <ele>152.5</ele>
        <time>2025-10-24T09:31:37.000Z</time>
      </trkpt>
      <trkpt lat="43.561" lon="6.79219">
        <ele>152.3</ele>
        <time>2025-10-24T09:31:38.000Z</time>
      </trkpt>
      <trkpt lat="43.56099" lon="6.79212">
        <ele>152.2</ele>
        <time>2025-10-24T09:31:39.000Z</time>
      </trkpt>
      <trkpt lat="43.56098" lon="6.79207">
        <ele>152.2</ele>
        <time>2025-10-24T09:31:40.000Z</time>
      </trkpt>
      <trkpt lat="43.56099" lon="6.79199">
        <ele>152.2</ele>
        <time>2025-10-24T09:31:41.000Z</time>
      </trkpt>
      <trkpt lat="43.56099" lon="6.79193">
        <ele>152.3</ele>
        <time>2025-10-24T09:31:42.000Z</time>
      </trkpt>
      <trkpt lat="43.56101" lon="6.79187">
        <ele>152.5</ele>
        <time>2025-10-24T09:31:43.000Z</time>
      </trkpt>
      <trkpt lat="43.56102" lon="6.79181">
        <ele>152.7</ele>
        <time>2025-10-24T09:31:44.000Z</time>
      </trkpt>
      <trkpt lat="43.56103" lon="6.79175">
        <ele>153.1</ele>
        <time>2025-10-24T09:31:45.000Z</time>
      </trkpt>
      <trkpt lat="43.56104" lon="6.79169">
        <ele>153.6</ele>
        <time>2025-10-24T09:31:46.000Z</time>
      </trkpt>
      <trkpt lat="43.56105" lon="6.79163">
        <ele>154.1</ele>
        <time>2025-10-24T09:31:47.000Z</time>
      </trkpt>
      <trkpt lat="43.56105" lon="6.79157">
        <ele>154.6</ele>
        <time>2025-10-24T09:31:48.000Z</time>
      </trkpt>
      <trkpt lat="43.56105" lon="6.79152">
        <ele>155.2</ele>
        <time>2025-10-24T09:31:49.000Z</time>
      </trkpt>
      <trkpt lat="43.56105" lon="6.79148">
        <ele>155.6</ele>
        <time>2025-10-24T09:31:50.000Z</time>
      </trkpt>
      <trkpt lat="43.56103" lon="6.79142">
        <ele>156.2</ele>
        <time>2025-10-24T09:31:51.000Z</time>
      </trkpt>
      <trkpt lat="43.56102" lon="6.79137">
        <ele>156.7</ele>
        <time>2025-10-24T09:31:52.000Z</time>
      </trkpt>
      <trkpt lat="43.56101" lon="6.79132">
        <ele>157.2</ele>
        <time>2025-10-24T09:31:53.000Z</time>
      </trkpt>
      <trkpt lat="43.561" lon="6.79127">
        <ele>157.6</ele>
        <time>2025-10-24T09:31:54.000Z</time>
      </trkpt>
      <trkpt lat="43.56099" lon="6.79122">
        <ele>157.9</ele>
        <time>2025-10-24T09:31:55.000Z</time>
      </trkpt>
      <trkpt lat="43.56098" lon="6.79118">
        <ele>158.3</ele>
        <time>2025-10-24T09:31:56.000Z</time>
      </trkpt>
      <trkpt lat="43.56096" lon="6.79113">
        <ele>158.5</ele>
        <time>2025-10-24T09:31:57.000Z</time>
      </trkpt>
      <trkpt lat="43.56095" lon="6.79109">
        <ele>158.7</ele>
        <time>2025-10-24T09:31:58.000Z</time>
      </trkpt>
      <trkpt lat="43.56093" lon="6.79104">
        <ele>158.8</ele>
        <time>2025-10-24T09:31:59.000Z</time>
      </trkpt>
      <trkpt lat="43.56092" lon="6.79098">
        <ele>158.9</ele>
        <time>2025-10-24T09:32:00.000Z</time>
      </trkpt>
      <trkpt lat="43.5609" lon="6.79093">
        <ele>159</ele>
        <time>2025-10-24T09:32:01.000Z</time>
      </trkpt>
      <trkpt lat="43.5609" lon="6.79087">
        <ele>159</ele>
        <time>2025-10-24T09:32:02.000Z</time>
      </trkpt>
      <trkpt lat="43.56089" lon="6.7908">
        <ele>159.1</ele>
        <time>2025-10-24T09:32:03.000Z</time>
      </trkpt>
      <trkpt lat="43.56088" lon="6.79073">
        <ele>159.2</ele>
        <time>2025-10-24T09:32:04.000Z</time>
      </trkpt>
      <trkpt lat="43.56087" lon="6.79066">
        <ele>159.3</ele>
        <time>2025-10-24T09:32:05.000Z</time>
      </trkpt>
      <trkpt lat="43.56086" lon="6.79059">
        <ele>159.4</ele>
        <time>2025-10-24T09:32:06.000Z</time>
      </trkpt>
      <trkpt lat="43.56085" lon="6.79051">
        <ele>159.6</ele>
        <time>2025-10-24T09:32:07.000Z</time>
      </trkpt>
      <trkpt lat="43.56085" lon="6.79044">
        <ele>159.7</ele>
        <time>2025-10-24T09:32:08.000Z</time>
      </trkpt>
      <trkpt lat="43.56084" lon="6.79037">
        <ele>159.9</ele>
        <time>2025-10-24T09:32:09.000Z</time>
      </trkpt>
      <trkpt lat="43.56084" lon="6.7903">
        <ele>160.1</ele>
        <time>2025-10-24T09:32:10.000Z</time>
      </trkpt>
      <trkpt lat="43.56085" lon="6.79023">
        <ele>160.2</ele>
        <time>2025-10-24T09:32:11.000Z</time>
      </trkpt>
      <trkpt lat="43.56085" lon="6.79018">
        <ele>160.3</ele>
        <time>2025-10-24T09:32:12.000Z</time>
      </trkpt>
      <trkpt lat="43.56085" lon="6.79011">
        <ele>160.4</ele>
        <time>2025-10-24T09:32:13.000Z</time>
      </trkpt>
      <trkpt lat="43.56085" lon="6.79003">
        <ele>160.4</ele>
        <time>2025-10-24T09:32:14.000Z</time>
      </trkpt>
      <trkpt lat="43.56085" lon="6.78997">
        <ele>160.2</ele>
        <time>2025-10-24T09:32:15.000Z</time>
      </trkpt>
      <trkpt lat="43.56084" lon="6.78991">
        <ele>160.1</ele>
        <time>2025-10-24T09:32:16.000Z</time>
      </trkpt>
      <trkpt lat="43.56082" lon="6.78986">
        <ele>159.9</ele>
        <time>2025-10-24T09:32:17.000Z</time>
      </trkpt>
      <trkpt lat="43.56081" lon="6.78981">
        <ele>159.7</ele>
        <time>2025-10-24T09:32:18.000Z</time>
      </trkpt>
      <trkpt lat="43.56079" lon="6.78975">
        <ele>159.5</ele>
        <time>2025-10-24T09:32:19.000Z</time>
      </trkpt>
      <trkpt lat="43.56076" lon="6.7897">
        <ele>159.3</ele>
        <time>2025-10-24T09:32:20.000Z</time>
      </trkpt>
      <trkpt lat="43.56075" lon="6.78965">
        <ele>159.2</ele>
        <time>2025-10-24T09:32:21.000Z</time>
      </trkpt>
      <trkpt lat="43.56073" lon="6.7896">
        <ele>159.1</ele>
        <time>2025-10-24T09:32:22.000Z</time>
      </trkpt>
      <trkpt lat="43.5607" lon="6.78955">
        <ele>159.2</ele>
        <time>2025-10-24T09:32:23.000Z</time>
      </trkpt>
      <trkpt lat="43.56067" lon="6.7895">
        <ele>159.3</ele>
        <time>2025-10-24T09:32:24.000Z</time>
      </trkpt>
      <trkpt lat="43.56063" lon="6.78947">
        <ele>159.6</ele>
        <time>2025-10-24T09:32:25.000Z</time>
      </trkpt>
      <trkpt lat="43.56059" lon="6.78944">
        <ele>160.1</ele>
        <time>2025-10-24T09:32:26.000Z</time>
      </trkpt>
      <trkpt lat="43.56056" lon="6.78942">
        <ele>160.5</ele>
        <time>2025-10-24T09:32:27.000Z</time>
      </trkpt>
      <trkpt lat="43.56051" lon="6.78939">
        <ele>161.2</ele>
        <time>2025-10-24T09:32:28.000Z</time>
      </trkpt>
      <trkpt lat="43.56048" lon="6.78936">
        <ele>161.7</ele>
        <time>2025-10-24T09:32:29.000Z</time>
      </trkpt>
      <trkpt lat="43.56045" lon="6.78934">
        <ele>162.2</ele>
        <time>2025-10-24T09:32:30.000Z</time>
      </trkpt>
      <trkpt lat="43.56043" lon="6.78931">
        <ele>162.6</ele>
        <time>2025-10-24T09:32:31.000Z</time>
      </trkpt>
      <trkpt lat="43.56041" lon="6.78928">
        <ele>162.9</ele>
        <time>2025-10-24T09:32:32.000Z</time>
      </trkpt>
      <trkpt lat="43.56039" lon="6.78924">
        <ele>163.2</ele>
        <time>2025-10-24T09:32:33.000Z</time>
      </trkpt>
      <trkpt lat="43.56037" lon="6.78921">
        <ele>163.5</ele>
        <time>2025-10-24T09:32:34.000Z</time>
      </trkpt>
      <trkpt lat="43.56036" lon="6.78917">
        <ele>163.7</ele>
        <time>2025-10-24T09:32:35.000Z</time>
      </trkpt>
      <trkpt lat="43.56034" lon="6.78913">
        <ele>163.8</ele>
        <time>2025-10-24T09:32:36.000Z</time>
      </trkpt>
      <trkpt lat="43.56032" lon="6.78908">
        <ele>164</ele>
        <time>2025-10-24T09:32:37.000Z</time>
      </trkpt>
      <trkpt lat="43.5603" lon="6.78905">
        <ele>163.9</ele>
        <time>2025-10-24T09:32:38.000Z</time>
      </trkpt>
      <trkpt lat="43.56027" lon="6.78901">
        <ele>163.8</ele>
        <time>2025-10-24T09:32:39.000Z</time>
      </trkpt>
      <trkpt lat="43.56023" lon="6.78899">
        <ele>163.6</ele>
        <time>2025-10-24T09:32:40.000Z</time>
      </trkpt>
      <trkpt lat="43.56019" lon="6.78896">
        <ele>163.5</ele>
        <time>2025-10-24T09:32:41.000Z</time>
      </trkpt>
      <trkpt lat="43.56015" lon="6.78893">
        <ele>163.3</ele>
        <time>2025-10-24T09:32:42.000Z</time>
      </trkpt>
      <trkpt lat="43.5601" lon="6.7889">
        <ele>163.1</ele>
        <time>2025-10-24T09:32:43.000Z</time>
      </trkpt>
      <trkpt lat="43.56006" lon="6.78887">
        <ele>162.8</ele>
        <time>2025-10-24T09:32:44.000Z</time>
      </trkpt>
      <trkpt lat="43.56001" lon="6.78884">
        <ele>162.6</ele>
        <time>2025-10-24T09:32:45.000Z</time>
      </trkpt>
      <trkpt lat="43.55996" lon="6.78881">
        <ele>162.3</ele>
        <time>2025-10-24T09:32:46.000Z</time>
      </trkpt>
      <trkpt lat="43.55991" lon="6.78878">
        <ele>162</ele>
        <time>2025-10-24T09:32:47.000Z</time>
      </trkpt>
      <trkpt lat="43.55986" lon="6.78876">
        <ele>161.7</ele>
        <time>2025-10-24T09:32:48.000Z</time>
      </trkpt>
      <trkpt lat="43.5598" lon="6.78873">
        <ele>161.3</ele>
        <time>2025-10-24T09:32:49.000Z</time>
      </trkpt>
      <trkpt lat="43.55974" lon="6.78871">
        <ele>160.9</ele>
        <time>2025-10-24T09:32:50.000Z</time>
      </trkpt>
      <trkpt lat="43.55968" lon="6.78868">
        <ele>160.3</ele>
        <time>2025-10-24T09:32:51.000Z</time>
      </trkpt>
      <trkpt lat="43.55962" lon="6.78864">
        <ele>159.8</ele>
        <time>2025-10-24T09:32:52.000Z</time>
      </trkpt>
      <trkpt lat="43.55956" lon="6.7886">
        <ele>159.2</ele>
        <time>2025-10-24T09:32:53.000Z</time>
      </trkpt>
      <trkpt lat="43.55949" lon="6.78855">
        <ele>158.5</ele>
        <time>2025-10-24T09:32:54.000Z</time>
      </trkpt>
      <trkpt lat="43.55943" lon="6.78852">
        <ele>158.1</ele>
        <time>2025-10-24T09:32:55.000Z</time>
      </trkpt>
      <trkpt lat="43.55934" lon="6.78849">
        <ele>157.6</ele>
        <time>2025-10-24T09:32:56.000Z</time>
      </trkpt>
      <trkpt lat="43.55926" lon="6.78848">
        <ele>157.5</ele>
        <time>2025-10-24T09:32:57.000Z</time>
      </trkpt>
      <trkpt lat="43.55918" lon="6.78849">
        <ele>157.7</ele>
        <time>2025-10-24T09:32:58.000Z</time>
      </trkpt>
      <trkpt lat="43.5591" lon="6.78851">
        <ele>158.4</ele>
        <time>2025-10-24T09:32:59.000Z</time>
      </trkpt>
      <trkpt lat="43.55904" lon="6.78853">
        <ele>159.3</ele>
        <time>2025-10-24T09:33:00.000Z</time>
      </trkpt>
      <trkpt lat="43.55899" lon="6.78853">
        <ele>160</ele>
        <time>2025-10-24T09:33:01.000Z</time>
      </trkpt>
      <trkpt lat="43.55895" lon="6.78852">
        <ele>160.6</ele>
        <time>2025-10-24T09:33:02.000Z</time>
      </trkpt>
      <trkpt lat="43.55892" lon="6.78851">
        <ele>161</ele>
        <time>2025-10-24T09:33:03.000Z</time>
      </trkpt>
      <trkpt lat="43.55888" lon="6.78849">
        <ele>161.5</ele>
        <time>2025-10-24T09:33:04.000Z</time>
      </trkpt>
      <trkpt lat="43.55885" lon="6.78848">
        <ele>161.8</ele>
        <time>2025-10-24T09:33:05.000Z</time>
      </trkpt>
      <trkpt lat="43.55881" lon="6.78846">
        <ele>162.1</ele>
        <time>2025-10-24T09:33:06.000Z</time>
      </trkpt>
      <trkpt lat="43.55877" lon="6.78843">
        <ele>162.4</ele>
        <time>2025-10-24T09:33:07.000Z</time>
      </trkpt>
      <trkpt lat="43.55874" lon="6.78839">
        <ele>162.7</ele>
        <time>2025-10-24T09:33:08.000Z</time>
      </trkpt>
      <trkpt lat="43.55872" lon="6.78835">
        <ele>162.9</ele>
        <time>2025-10-24T09:33:09.000Z</time>
      </trkpt>
      <trkpt lat="43.55868" lon="6.7883">
        <ele>163.2</ele>
        <time>2025-10-24T09:33:10.000Z</time>
      </trkpt>
      <trkpt lat="43.55866" lon="6.78825">
        <ele>163.5</ele>
        <time>2025-10-24T09:33:11.000Z</time>
      </trkpt>
      <trkpt lat="43.55863" lon="6.7882">
        <ele>163.7</ele>
        <time>2025-10-24T09:33:12.000Z</time>
      </trkpt>
      <trkpt lat="43.5586" lon="6.78816">
        <ele>163.9</ele>
        <time>2025-10-24T09:33:13.000Z</time>
      </trkpt>
      <trkpt lat="43.55858" lon="6.78811">
        <ele>164</ele>
        <time>2025-10-24T09:33:14.000Z</time>
      </trkpt>
      <trkpt lat="43.55856" lon="6.78807">
        <ele>164</ele>
        <time>2025-10-24T09:33:15.000Z</time>
      </trkpt>
      <trkpt lat="43.55854" lon="6.78802">
        <ele>164.1</ele>
        <time>2025-10-24T09:33:16.000Z</time>
      </trkpt>
      <trkpt lat="43.55851" lon="6.78799">
        <ele>164.1</ele>
        <time>2025-10-24T09:33:17.000Z</time>
      </trkpt>
      <trkpt lat="43.55848" lon="6.78795">
        <ele>164.1</ele>
        <time>2025-10-24T09:33:18.000Z</time>
      </trkpt>
      <trkpt lat="43.55846" lon="6.78793">
        <ele>164</ele>
        <time>2025-10-24T09:33:19.000Z</time>
      </trkpt>
      <trkpt lat="43.55841" lon="6.78789">
        <ele>163.8</ele>
        <time>2025-10-24T09:33:20.000Z</time>
      </trkpt>
      <trkpt lat="43.55838" lon="6.78786">
        <ele>163.6</ele>
        <time>2025-10-24T09:33:21.000Z</time>
      </trkpt>
      <trkpt lat="43.55834" lon="6.78783">
        <ele>163.5</ele>
        <time>2025-10-24T09:33:22.000Z</time>
      </trkpt>
      <trkpt lat="43.5583" lon="6.78779">
        <ele>163.3</ele>
        <time>2025-10-24T09:33:23.000Z</time>
      </trkpt>
      <trkpt lat="43.55826" lon="6.78776">
        <ele>163.2</ele>
        <time>2025-10-24T09:33:24.000Z</time>
      </trkpt>
      <trkpt lat="43.55822" lon="6.78772">
        <ele>163.1</ele>
        <time>2025-10-24T09:33:25.000Z</time>
      </trkpt>
      <trkpt lat="43.55817" lon="6.7877">
        <ele>163</ele>
        <time>2025-10-24T09:33:26.000Z</time>
      </trkpt>
      <trkpt lat="43.55812" lon="6.78767">
        <ele>163</ele>
        <time>2025-10-24T09:33:27.000Z</time>
      </trkpt>
      <trkpt lat="43.55807" lon="6.78766">
        <ele>162.9</ele>
        <time>2025-10-24T09:33:28.000Z</time>
      </trkpt>
      <trkpt lat="43.55801" lon="6.78765">
        <ele>162.9</ele>
        <time>2025-10-24T09:33:29.000Z</time>
      </trkpt>
      <trkpt lat="43.55796" lon="6.78766">
        <ele>162.9</ele>
        <time>2025-10-24T09:33:30.000Z</time>
      </trkpt>
      <trkpt lat="43.5579" lon="6.78766">
        <ele>162.8</ele>
        <time>2025-10-24T09:33:31.000Z</time>
      </trkpt>
      <trkpt lat="43.55785" lon="6.78768">
        <ele>162.8</ele>
        <time>2025-10-24T09:33:32.000Z</time>
      </trkpt>
      <trkpt lat="43.55779" lon="6.7877">
        <ele>162.8</ele>
        <time>2025-10-24T09:33:33.000Z</time>
      </trkpt>
      <trkpt lat="43.55774" lon="6.78772">
        <ele>162.7</ele>
        <time>2025-10-24T09:33:34.000Z</time>
      </trkpt>
      <trkpt lat="43.55768" lon="6.78773">
        <ele>162.7</ele>
        <time>2025-10-24T09:33:35.000Z</time>
      </trkpt>
      <trkpt lat="43.55763" lon="6.78775">
        <ele>162.7</ele>
        <time>2025-10-24T09:33:36.000Z</time>
      </trkpt>
      <trkpt lat="43.55757" lon="6.78776">
        <ele>162.7</ele>
        <time>2025-10-24T09:33:37.000Z</time>
      </trkpt>
      <trkpt lat="43.55752" lon="6.78777">
        <ele>162.6</ele>
        <time>2025-10-24T09:33:38.000Z</time>
      </trkpt>
      <trkpt lat="43.55747" lon="6.78778">
        <ele>162.6</ele>
        <time>2025-10-24T09:33:39.000Z</time>
      </trkpt>
      <trkpt lat="43.55742" lon="6.78779">
        <ele>162.4</ele>
        <time>2025-10-24T09:33:40.000Z</time>
      </trkpt>
      <trkpt lat="43.55738" lon="6.78779">
        <ele>162.3</ele>
        <time>2025-10-24T09:33:41.000Z</time>
      </trkpt>
      <trkpt lat="43.55732" lon="6.78779">
        <ele>162</ele>
        <time>2025-10-24T09:33:42.000Z</time>
      </trkpt>
      <trkpt lat="43.55728" lon="6.78779">
        <ele>161.8</ele>
        <time>2025-10-24T09:33:43.000Z</time>
      </trkpt>
      <trkpt lat="43.55724" lon="6.78778">
        <ele>161.6</ele>
        <time>2025-10-24T09:33:44.000Z</time>
      </trkpt>
      <trkpt lat="43.55719" lon="6.78779">
        <ele>161.3</ele>
        <time>2025-10-24T09:33:45.000Z</time>
      </trkpt>
      <trkpt lat="43.55714" lon="6.7878">
        <ele>161.1</ele>
        <time>2025-10-24T09:33:46.000Z</time>
      </trkpt>
      <trkpt lat="43.55709" lon="6.78781">
        <ele>160.8</ele>
        <time>2025-10-24T09:33:47.000Z</time>
      </trkpt>
    </trkseg>
  </trk>
  <trk>
    <name><![CDATA[Tour du Lac St Cassien_4]]></name>
    <extensions>
      <line xmlns="http://www.topografix.com/GPX/gpx_style/0/2">
        <color>FFFF00</color>
        <width>4</width>
      </line>
    </extensions>
    <trkseg>
      <trkpt lat="43.58073" lon="6.77217">
        <ele>158.1</ele>
        <time>2025-10-24T08:56:50.000Z</time>
      </trkpt>
      <trkpt lat="43.58073" lon="6.77218">
        <ele>158.2</ele>
        <time>2025-10-24T08:56:51.000Z</time>
      </trkpt>
      <trkpt lat="43.58073" lon="6.77219">
        <ele>158.5</ele>
        <time>2025-10-24T08:56:52.000Z</time>
        <extensions>
          <visugpx:TrkExtension xmlns:visugpx="https://www.visugpx.com/editgpx/">
            <visugpx:node>1</visugpx:node>
            </visugpx:TrkExtension>
        </extensions>
      </trkpt>
    </trkseg>
  </trk>
  <trk>
    <name><![CDATA[Tour du Lac St Cassien_7]]></name>
    <extensions>
      <line xmlns="http://www.topografix.com/GPX/gpx_style/0/2">
        <color>008800</color>
        <width>4</width>
      </line>
    </extensions>
    <trkseg>
      <trkpt lat="43.57196" lon="6.82741">
        <ele>230.2</ele>
        <time>2025-01-10T08:32:11.000Z</time>
      </trkpt>
      <trkpt lat="43.57192" lon="6.82745">
        <ele>230.4</ele>
        <time>2025-01-10T08:32:10.000Z</time>
      </trkpt>
      <trkpt lat="43.57189" lon="6.82749">
        <ele>230.5</ele>
        <time>2025-01-10T08:32:09.000Z</time>
      </trkpt>
      <trkpt lat="43.57187" lon="6.82753">
        <ele>230.7</ele>
        <time>2025-01-10T08:32:08.000Z</time>
      </trkpt>
      <trkpt lat="43.57185" lon="6.82756">
        <ele>230.8</ele>
        <time>2025-01-10T08:32:07.000Z</time>
      </trkpt>
      <trkpt lat="43.57185" lon="6.82757">
        <ele>230.8</ele>
        <time>2025-01-10T08:32:06.000Z</time>
      </trkpt>
      <trkpt lat="43.57185" lon="6.82757">
        <ele>230.8</ele>
        <time>2025-01-10T08:32:05.000Z</time>
      </trkpt>
      <trkpt lat="43.57185" lon="6.82757">
        <ele>230.8</ele>
        <time>2025-01-10T08:32:04.000Z</time>
      </trkpt>
      <trkpt lat="43.57185" lon="6.82757">
        <ele>230.8</ele>
        <time>2025-01-10T08:32:03.000Z</time>
      </trkpt>
      <trkpt lat="43.57185" lon="6.82757">
        <ele>230.8</ele>
        <time>2025-01-10T08:32:02.000Z</time>
      </trkpt>
      <trkpt lat="43.57185" lon="6.82757">
        <ele>230.8</ele>
        <time>2025-01-10T08:32:01.000Z</time>
      </trkpt>
      <trkpt lat="43.57185" lon="6.82757">
        <ele>230.8</ele>
        <time>2025-01-10T08:32:00.000Z</time>
      </trkpt>
      <trkpt lat="43.57185" lon="6.82757">
        <ele>230.8</ele>
        <time>2025-01-10T08:31:59.000Z</time>
      </trkpt>
      <trkpt lat="43.57185" lon="6.82757">
        <ele>230.8</ele>
        <time>2025-01-10T08:31:58.000Z</time>
      </trkpt>
      <trkpt lat="43.57185" lon="6.82757">
        <ele>230.8</ele>
        <time>2025-01-10T08:31:57.000Z</time>
      </trkpt>
      <trkpt lat="43.57185" lon="6.82757">
        <ele>230.8</ele>
        <time>2025-01-10T08:31:56.000Z</time>
      </trkpt>
      <trkpt lat="43.57185" lon="6.82757">
        <ele>230.8</ele>
        <time>2025-01-10T08:31:55.000Z</time>
      </trkpt>
      <trkpt lat="43.57184" lon="6.82757">
        <ele>230.8</ele>
        <time>2025-01-10T08:31:54.000Z</time>
      </trkpt>
      <trkpt lat="43.57184" lon="6.82757">
        <ele>230.8</ele>
        <time>2025-01-10T08:31:53.000Z</time>
      </trkpt>
      <trkpt lat="43.57184" lon="6.82757">
        <ele>230.8</ele>
        <time>2025-01-10T08:31:52.000Z</time>
      </trkpt>
      <trkpt lat="43.57184" lon="6.82757">
        <ele>230.8</ele>
        <time>2025-01-10T08:31:51.000Z</time>
      </trkpt>
      <trkpt lat="43.57184" lon="6.82756">
        <ele>230.8</ele>
        <time>2025-01-10T08:31:50.000Z</time>
      </trkpt>
      <trkpt lat="43.57184" lon="6.82756">
        <ele>230.8</ele>
        <time>2025-01-10T08:31:49.000Z</time>
      </trkpt>
      <trkpt lat="43.57184" lon="6.82756">
        <ele>230.8</ele>
        <time>2025-01-10T08:31:48.000Z</time>
      </trkpt>
      <trkpt lat="43.57184" lon="6.82756">
        <ele>230.8</ele>
        <time>2025-01-10T08:31:47.000Z</time>
      </trkpt>
      <trkpt lat="43.57184" lon="6.82756">
        <ele>230.9</ele>
        <time>2025-01-10T08:31:46.000Z</time>
      </trkpt>
      <trkpt lat="43.57184" lon="6.82756">
        <ele>230.9</ele>
        <time>2025-01-10T08:31:45.000Z</time>
      </trkpt>
      <trkpt lat="43.57184" lon="6.82756">
        <ele>230.9</ele>
        <time>2025-01-10T08:31:44.000Z</time>
      </trkpt>
      <trkpt lat="43.57184" lon="6.82756">
        <ele>230.9</ele>
        <time>2025-01-10T08:31:43.000Z</time>
      </trkpt>
      <trkpt lat="43.57184" lon="6.82756">
        <ele>230.9</ele>
        <time>2025-01-10T08:31:42.000Z</time>
      </trkpt>
      <trkpt lat="43.57185" lon="6.82756">
        <ele>230.9</ele>
        <time>2025-01-10T08:31:41.000Z</time>
      </trkpt>
      <trkpt lat="43.57185" lon="6.82756">
        <ele>230.9</ele>
        <time>2025-01-10T08:31:40.000Z</time>
      </trkpt>
      <trkpt lat="43.57185" lon="6.82756">
        <ele>230.9</ele>
        <time>2025-01-10T08:31:39.000Z</time>
      </trkpt>
      <trkpt lat="43.57185" lon="6.82756">
        <ele>230.9</ele>
        <time>2025-01-10T08:31:38.000Z</time>
      </trkpt>
      <trkpt lat="43.57185" lon="6.82756">
        <ele>230.9</ele>
        <time>2025-01-10T08:31:37.000Z</time>
      </trkpt>
      <trkpt lat="43.57185" lon="6.82756">
        <ele>230.9</ele>
        <time>2025-01-10T08:31:36.000Z</time>
      </trkpt>
      <trkpt lat="43.57185" lon="6.82756">
        <ele>230.9</ele>
        <time>2025-01-10T08:31:35.000Z</time>
      </trkpt>
      <trkpt lat="43.57185" lon="6.82756">
        <ele>230.9</ele>
        <time>2025-01-10T08:31:34.000Z</time>
      </trkpt>
      <trkpt lat="43.57185" lon="6.82756">
        <ele>230.9</ele>
        <time>2025-01-10T08:31:33.000Z</time>
      </trkpt>
      <trkpt lat="43.57185" lon="6.82756">
        <ele>230.9</ele>
        <time>2025-01-10T08:31:32.000Z</time>
      </trkpt>
      <trkpt lat="43.57185" lon="6.82756">
        <ele>230.9</ele>
        <time>2025-01-10T08:31:31.000Z</time>
      </trkpt>
      <trkpt lat="43.57185" lon="6.82756">
        <ele>230.9</ele>
        <time>2025-01-10T08:31:30.000Z</time>
      </trkpt>
      <trkpt lat="43.57184" lon="6.82756">
        <ele>230.9</ele>
        <time>2025-01-10T08:31:29.000Z</time>
      </trkpt>
      <trkpt lat="43.57184" lon="6.82756">
        <ele>230.9</ele>
        <time>2025-01-10T08:31:28.000Z</time>
      </trkpt>
      <trkpt lat="43.57184" lon="6.82757">
        <ele>231</ele>
        <time>2025-01-10T08:31:27.000Z</time>
      </trkpt>
      <trkpt lat="43.57183" lon="6.82758">
        <ele>231</ele>
        <time>2025-01-10T08:31:26.000Z</time>
      </trkpt>
      <trkpt lat="43.57183" lon="6.82758">
        <ele>231</ele>
        <time>2025-01-10T08:31:25.000Z</time>
      </trkpt>
      <trkpt lat="43.57183" lon="6.82758">
        <ele>231</ele>
        <time>2025-01-10T08:31:24.000Z</time>
      </trkpt>
      <trkpt lat="43.57183" lon="6.82757">
        <ele>231</ele>
        <time>2025-01-10T08:31:23.000Z</time>
      </trkpt>
      <trkpt lat="43.57183" lon="6.82757">
        <ele>231</ele>
        <time>2025-01-10T08:31:22.000Z</time>
      </trkpt>
      <trkpt lat="43.57183" lon="6.82757">
        <ele>231</ele>
        <time>2025-01-10T08:31:21.000Z</time>
      </trkpt>
      <trkpt lat="43.57183" lon="6.82757">
        <ele>231</ele>
        <time>2025-01-10T08:31:20.000Z</time>
      </trkpt>
      <trkpt lat="43.57183" lon="6.82756">
        <ele>231</ele>
        <time>2025-01-10T08:31:19.000Z</time>
      </trkpt>
      <trkpt lat="43.57183" lon="6.82756">
        <ele>231</ele>
        <time>2025-01-10T08:31:18.000Z</time>
      </trkpt>
      <trkpt lat="43.57183" lon="6.82756">
        <ele>231</ele>
        <time>2025-01-10T08:31:17.000Z</time>
      </trkpt>
      <trkpt lat="43.57182" lon="6.82756">
        <ele>231</ele>
        <time>2025-01-10T08:31:16.000Z</time>
      </trkpt>
      <trkpt lat="43.57181" lon="6.82759">
        <ele>231.1</ele>
        <time>2025-01-10T08:31:15.000Z</time>
      </trkpt>
      <trkpt lat="43.57181" lon="6.82759">
        <ele>231.1</ele>
        <time>2025-01-10T08:31:14.000Z</time>
      </trkpt>
      <trkpt lat="43.5718" lon="6.8276">
        <ele>231.2</ele>
        <time>2025-01-10T08:31:13.000Z</time>
      </trkpt>
      <trkpt lat="43.5718" lon="6.82761">
        <ele>231.2</ele>
        <time>2025-01-10T08:31:12.000Z</time>
      </trkpt>
      <trkpt lat="43.57179" lon="6.82761">
        <ele>231.2</ele>
        <time>2025-01-10T08:31:11.000Z</time>
      </trkpt>
      <trkpt lat="43.57178" lon="6.82761">
        <ele>231.3</ele>
        <time>2025-01-10T08:31:10.000Z</time>
      </trkpt>
      <trkpt lat="43.57177" lon="6.82761">
        <ele>231.3</ele>
        <time>2025-01-10T08:31:09.000Z</time>
      </trkpt>
      <trkpt lat="43.57174" lon="6.8276">
        <ele>231.4</ele>
        <time>2025-01-10T08:31:08.000Z</time>
      </trkpt>
      <trkpt lat="43.57171" lon="6.82759">
        <ele>231.5</ele>
        <time>2025-01-10T08:31:07.000Z</time>
      </trkpt>
      <trkpt lat="43.57168" lon="6.82757">
        <ele>231.7</ele>
        <time>2025-01-10T08:31:06.000Z</time>
      </trkpt>
      <trkpt lat="43.57163" lon="6.82755">
        <ele>231.8</ele>
        <time>2025-01-10T08:31:05.000Z</time>
      </trkpt>
      <trkpt lat="43.5716" lon="6.82753">
        <ele>231.9</ele>
        <time>2025-01-10T08:31:04.000Z</time>
      </trkpt>
      <trkpt lat="43.57155" lon="6.82751">
        <ele>231.7</ele>
        <time>2025-01-10T08:31:03.000Z</time>
      </trkpt>
      <trkpt lat="43.57151" lon="6.82749">
        <ele>231.6</ele>
        <time>2025-01-10T08:31:02.000Z</time>
      </trkpt>
      <trkpt lat="43.57146" lon="6.82746">
        <ele>231.4</ele>
        <time>2025-01-10T08:31:01.000Z</time>
      </trkpt>
      <trkpt lat="43.57142" lon="6.82742">
        <ele>231.3</ele>
        <time>2025-01-10T08:31:00.000Z</time>
      </trkpt>
      <trkpt lat="43.57139" lon="6.82739">
        <ele>231.2</ele>
        <time>2025-01-10T08:30:59.000Z</time>
      </trkpt>
      <trkpt lat="43.57135" lon="6.82736">
        <ele>231.1</ele>
        <time>2025-01-10T08:30:58.000Z</time>
      </trkpt>
      <trkpt lat="43.5713" lon="6.82731">
        <ele>231.1</ele>
        <time>2025-01-10T08:30:57.000Z</time>
      </trkpt>
      <trkpt lat="43.57126" lon="6.82727">
        <ele>231</ele>
        <time>2025-01-10T08:30:56.000Z</time>
      </trkpt>
      <trkpt lat="43.57123" lon="6.82723">
        <ele>231</ele>
        <time>2025-01-10T08:30:55.000Z</time>
      </trkpt>
      <trkpt lat="43.57121" lon="6.82719">
        <ele>230.9</ele>
        <time>2025-01-10T08:30:54.000Z</time>
      </trkpt>
      <trkpt lat="43.57118" lon="6.82714">
        <ele>230.9</ele>
        <time>2025-01-10T08:30:53.000Z</time>
      </trkpt>
      <trkpt lat="43.57114" lon="6.82709">
        <ele>230.8</ele>
        <time>2025-01-10T08:30:52.000Z</time>
      </trkpt>
      <trkpt lat="43.57111" lon="6.82704">
        <ele>230.7</ele>
        <time>2025-01-10T08:30:51.000Z</time>
      </trkpt>
      <trkpt lat="43.57109" lon="6.827">
        <ele>230.7</ele>
        <time>2025-01-10T08:30:50.000Z</time>
      </trkpt>
      <trkpt lat="43.57106" lon="6.82695">
        <ele>230.7</ele>
        <time>2025-01-10T08:30:49.000Z</time>
      </trkpt>
      <trkpt lat="43.57103" lon="6.82689">
        <ele>230.7</ele>
        <time>2025-01-10T08:30:48.000Z</time>
      </trkpt>
      <trkpt lat="43.57101" lon="6.82686">
        <ele>230.7</ele>
        <time>2025-01-10T08:30:47.000Z</time>
      </trkpt>
      <trkpt lat="43.57099" lon="6.82681">
        <ele>230.7</ele>
        <time>2025-01-10T08:30:46.000Z</time>
      </trkpt>
      <trkpt lat="43.57097" lon="6.82676">
        <ele>230.7</ele>
        <time>2025-01-10T08:30:45.000Z</time>
      </trkpt>
      <trkpt lat="43.57094" lon="6.82672">
        <ele>230.7</ele>
        <time>2025-01-10T08:30:44.000Z</time>
      </trkpt>
      <trkpt lat="43.57091" lon="6.82666">
        <ele>230.7</ele>
        <time>2025-01-10T08:30:43.000Z</time>
      </trkpt>
      <trkpt lat="43.5709" lon="6.82662">
        <ele>230.7</ele>
        <time>2025-01-10T08:30:42.000Z</time>
      </trkpt>
      <trkpt lat="43.57087" lon="6.82657">
        <ele>230.8</ele>
        <time>2025-01-10T08:30:41.000Z</time>
      </trkpt>
      <trkpt lat="43.57085" lon="6.82652">
        <ele>230.8</ele>
        <time>2025-01-10T08:30:40.000Z</time>
      </trkpt>
      <trkpt lat="43.57083" lon="6.82645">
        <ele>230.9</ele>
        <time>2025-01-10T08:30:39.000Z</time>
      </trkpt>
      <trkpt lat="43.57081" lon="6.8264">
        <ele>231</ele>
        <time>2025-01-10T08:30:38.000Z</time>
      </trkpt>
      <trkpt lat="43.57079" lon="6.82635">
        <ele>231</ele>
        <time>2025-01-10T08:30:37.000Z</time>
      </trkpt>
      <trkpt lat="43.57076" lon="6.82629">
        <ele>231.1</ele>
        <time>2025-01-10T08:30:36.000Z</time>
      </trkpt>
      <trkpt lat="43.57074" lon="6.82622">
        <ele>231.2</ele>
        <time>2025-01-10T08:30:35.000Z</time>
      </trkpt>
      <trkpt lat="43.57072" lon="6.82616">
        <ele>231.3</ele>
        <time>2025-01-10T08:30:34.000Z</time>
      </trkpt>
      <trkpt lat="43.5707" lon="6.82611">
        <ele>231.4</ele>
        <time>2025-01-10T08:30:33.000Z</time>
      </trkpt>
      <trkpt lat="43.57067" lon="6.82606">
        <ele>231.5</ele>
        <time>2025-01-10T08:30:32.000Z</time>
      </trkpt>
      <trkpt lat="43.57065" lon="6.82601">
        <ele>231.5</ele>
        <time>2025-01-10T08:30:31.000Z</time>
      </trkpt>
      <trkpt lat="43.57061" lon="6.82596">
        <ele>231.5</ele>
        <time>2025-01-10T08:30:30.000Z</time>
      </trkpt>
      <trkpt lat="43.57058" lon="6.82592">
        <ele>231.5</ele>
        <time>2025-01-10T08:30:29.000Z</time>
      </trkpt>
      <trkpt lat="43.57056" lon="6.82589">
        <ele>231.5</ele>
        <time>2025-01-10T08:30:28.000Z</time>
      </trkpt>
      <trkpt lat="43.57052" lon="6.82587">
        <ele>231.5</ele>
        <time>2025-01-10T08:30:27.000Z</time>
      </trkpt>
      <trkpt lat="43.57048" lon="6.82585">
        <ele>231.4</ele>
        <time>2025-01-10T08:30:26.000Z</time>
      </trkpt>
      <trkpt lat="43.57043" lon="6.82583">
        <ele>231.3</ele>
        <time>2025-01-10T08:30:25.000Z</time>
      </trkpt>
      <trkpt lat="43.5704" lon="6.82582">
        <ele>231.2</ele>
        <time>2025-01-10T08:30:24.000Z</time>
      </trkpt>
      <trkpt lat="43.57036" lon="6.8258">
        <ele>231</ele>
        <time>2025-01-10T08:30:23.000Z</time>
      </trkpt>
      <trkpt lat="43.57032" lon="6.82577">
        <ele>230.8</ele>
        <time>2025-01-10T08:30:22.000Z</time>
      </trkpt>
      <trkpt lat="43.57029" lon="6.82575">
        <ele>230.6</ele>
        <time>2025-01-10T08:30:21.000Z</time>
      </trkpt>
      <trkpt lat="43.57025" lon="6.82571">
        <ele>230.4</ele>
        <time>2025-01-10T08:30:20.000Z</time>
      </trkpt>
      <trkpt lat="43.57022" lon="6.82568">
        <ele>230.2</ele>
        <time>2025-01-10T08:30:19.000Z</time>
      </trkpt>
      <trkpt lat="43.57018" lon="6.82564">
        <ele>230</ele>
        <time>2025-01-10T08:30:18.000Z</time>
      </trkpt>
      <trkpt lat="43.57014" lon="6.82561">
        <ele>229.7</ele>
        <time>2025-01-10T08:30:17.000Z</time>
      </trkpt>
      <trkpt lat="43.5701" lon="6.82557">
        <ele>229.4</ele>
        <time>2025-01-10T08:30:16.000Z</time>
      </trkpt>
      <trkpt lat="43.57007" lon="6.82555">
        <ele>229.2</ele>
        <time>2025-01-10T08:30:15.000Z</time>
      </trkpt>
      <trkpt lat="43.57003" lon="6.82551">
        <ele>228.9</ele>
        <time>2025-01-10T08:30:14.000Z</time>
      </trkpt>
      <trkpt lat="43.57" lon="6.82548">
        <ele>228.7</ele>
        <time>2025-01-10T08:30:13.000Z</time>
      </trkpt>
      <trkpt lat="43.56997" lon="6.82544">
        <ele>228.4</ele>
        <time>2025-01-10T08:30:12.000Z</time>
      </trkpt>
      <trkpt lat="43.56994" lon="6.8254">
        <ele>228.2</ele>
        <time>2025-01-10T08:30:11.000Z</time>
      </trkpt>
      <trkpt lat="43.5699" lon="6.82537">
        <ele>228</ele>
        <time>2025-01-10T08:30:10.000Z</time>
      </trkpt>
      <trkpt lat="43.56987" lon="6.82533">
        <ele>227.7</ele>
        <time>2025-01-10T08:30:09.000Z</time>
      </trkpt>
      <trkpt lat="43.56983" lon="6.8253">
        <ele>227.4</ele>
        <time>2025-01-10T08:30:08.000Z</time>
      </trkpt>
      <trkpt lat="43.56979" lon="6.82527">
        <ele>227.1</ele>
        <time>2025-01-10T08:30:07.000Z</time>
      </trkpt>
      <trkpt lat="43.56977" lon="6.82524">
        <ele>226.9</ele>
        <time>2025-01-10T08:30:06.000Z</time>
      </trkpt>
      <trkpt lat="43.56973" lon="6.82521">
        <ele>226.7</ele>
        <time>2025-01-10T08:30:05.000Z</time>
      </trkpt>
      <trkpt lat="43.56969" lon="6.82517">
        <ele>226.4</ele>
        <time>2025-01-10T08:30:04.000Z</time>
      </trkpt>
      <trkpt lat="43.56965" lon="6.82513">
        <ele>226</ele>
        <time>2025-01-10T08:30:03.000Z</time>
      </trkpt>
      <trkpt lat="43.56961" lon="6.82509">
        <ele>225.8</ele>
        <time>2025-01-10T08:30:02.000Z</time>
      </trkpt>
      <trkpt lat="43.56958" lon="6.82505">
        <ele>225.5</ele>
        <time>2025-01-10T08:30:01.000Z</time>
      </trkpt>
      <trkpt lat="43.56954" lon="6.825">
        <ele>225.3</ele>
        <time>2025-01-10T08:30:00.000Z</time>
      </trkpt>
      <trkpt lat="43.56949" lon="6.82494">
        <ele>225</ele>
        <time>2025-01-10T08:29:59.000Z</time>
      </trkpt>
      <trkpt lat="43.56947" lon="6.8249">
        <ele>224.9</ele>
        <time>2025-01-10T08:29:58.000Z</time>
      </trkpt>
      <trkpt lat="43.56944" lon="6.82484">
        <ele>224.7</ele>
        <time>2025-01-10T08:29:57.000Z</time>
      </trkpt>
      <trkpt lat="43.56941" lon="6.82479">
        <ele>224.4</ele>
        <time>2025-01-10T08:29:56.000Z</time>
      </trkpt>
      <trkpt lat="43.56938" lon="6.82473">
        <ele>224.2</ele>
        <time>2025-01-10T08:29:55.000Z</time>
      </trkpt>
      <trkpt lat="43.56935" lon="6.82466">
        <ele>224</ele>
        <time>2025-01-10T08:29:54.000Z</time>
      </trkpt>
      <trkpt lat="43.56933" lon="6.82459">
        <ele>223.8</ele>
        <time>2025-01-10T08:29:53.000Z</time>
      </trkpt>
      <trkpt lat="43.56931" lon="6.82453">
        <ele>223.7</ele>
        <time>2025-01-10T08:29:52.000Z</time>
      </trkpt>
      <trkpt lat="43.56928" lon="6.82445">
        <ele>223.5</ele>
        <time>2025-01-10T08:29:51.000Z</time>
      </trkpt>
      <trkpt lat="43.56925" lon="6.8244">
        <ele>223.4</ele>
        <time>2025-01-10T08:29:50.000Z</time>
      </trkpt>
      <trkpt lat="43.56923" lon="6.82436">
        <ele>223.4</ele>
        <time>2025-01-10T08:29:49.000Z</time>
      </trkpt>
      <trkpt lat="43.56919" lon="6.82432">
        <ele>223.3</ele>
        <time>2025-01-10T08:29:48.000Z</time>
      </trkpt>
      <trkpt lat="43.56916" lon="6.82428">
        <ele>223.2</ele>
        <time>2025-01-10T08:29:47.000Z</time>
      </trkpt>
      <trkpt lat="43.56911" lon="6.82423">
        <ele>223.1</ele>
        <time>2025-01-10T08:29:46.000Z</time>
      </trkpt>
      <trkpt lat="43.56908" lon="6.8242">
        <ele>223.1</ele>
        <time>2025-01-10T08:29:45.000Z</time>
      </trkpt>
      <trkpt lat="43.56905" lon="6.82417">
        <ele>223</ele>
        <time>2025-01-10T08:29:44.000Z</time>
      </trkpt>
      <trkpt lat="43.56901" lon="6.82415">
        <ele>223</ele>
        <time>2025-01-10T08:29:43.000Z</time>
      </trkpt>
      <trkpt lat="43.56897" lon="6.82412">
        <ele>222.9</ele>
        <time>2025-01-10T08:29:42.000Z</time>
      </trkpt>
      <trkpt lat="43.56893" lon="6.8241">
        <ele>222.9</ele>
        <time>2025-01-10T08:29:41.000Z</time>
      </trkpt>
      <trkpt lat="43.5689" lon="6.82409">
        <ele>222.9</ele>
        <time>2025-01-10T08:29:40.000Z</time>
      </trkpt>
      <trkpt lat="43.56887" lon="6.82408">
        <ele>222.8</ele>
        <time>2025-01-10T08:29:39.000Z</time>
      </trkpt>
      <trkpt lat="43.56884" lon="6.82407">
        <ele>222.8</ele>
        <time>2025-01-10T08:29:38.000Z</time>
      </trkpt>
      <trkpt lat="43.56881" lon="6.82407">
        <ele>222.8</ele>
        <time>2025-01-10T08:29:37.000Z</time>
      </trkpt>
      <trkpt lat="43.56877" lon="6.82407">
        <ele>222.7</ele>
        <time>2025-01-10T08:29:36.000Z</time>
      </trkpt>
      <trkpt lat="43.56873" lon="6.82406">
        <ele>222.6</ele>
        <time>2025-01-10T08:29:35.000Z</time>
      </trkpt>
      <trkpt lat="43.56869" lon="6.82406">
        <ele>222.5</ele>
        <time>2025-01-10T08:29:34.000Z</time>
      </trkpt>
      <trkpt lat="43.56864" lon="6.82405">
        <ele>222.4</ele>
        <time>2025-01-10T08:29:33.000Z</time>
      </trkpt>
      <trkpt lat="43.56859" lon="6.82404">
        <ele>222.3</ele>
        <time>2025-01-10T08:29:32.000Z</time>
      </trkpt>
      <trkpt lat="43.56856" lon="6.82403">
        <ele>222.2</ele>
        <time>2025-01-10T08:29:31.000Z</time>
      </trkpt>
      <trkpt lat="43.56852" lon="6.82401">
        <ele>222.1</ele>
        <time>2025-01-10T08:29:30.000Z</time>
      </trkpt>
      <trkpt lat="43.56847" lon="6.82399">
        <ele>222</ele>
        <time>2025-01-10T08:29:29.000Z</time>
      </trkpt>
      <trkpt lat="43.56843" lon="6.82398">
        <ele>221.9</ele>
        <time>2025-01-10T08:29:28.000Z</time>
      </trkpt>
      <trkpt lat="43.56838" lon="6.82397">
        <ele>221.8</ele>
        <time>2025-01-10T08:29:27.000Z</time>
      </trkpt>
      <trkpt lat="43.56833" lon="6.82397">
        <ele>221.7</ele>
        <time>2025-01-10T08:29:26.000Z</time>
      </trkpt>
      <trkpt lat="43.56828" lon="6.82397">
        <ele>221.7</ele>
        <time>2025-01-10T08:29:25.000Z</time>
      </trkpt>
      <trkpt lat="43.56821" lon="6.82398">
        <ele>221.6</ele>
        <time>2025-01-10T08:29:24.000Z</time>
      </trkpt>
      <trkpt lat="43.56817" lon="6.82399">
        <ele>221.6</ele>
        <time>2025-01-10T08:29:23.000Z</time>
      </trkpt>
      <trkpt lat="43.56811" lon="6.824">
        <ele>221.5</ele>
        <time>2025-01-10T08:29:22.000Z</time>
      </trkpt>
      <trkpt lat="43.56805" lon="6.82402">
        <ele>221.5</ele>
        <time>2025-01-10T08:29:21.000Z</time>
      </trkpt>
      <trkpt lat="43.56799" lon="6.82404">
        <ele>221.6</ele>
        <time>2025-01-10T08:29:20.000Z</time>
      </trkpt>
      <trkpt lat="43.56794" lon="6.82407">
        <ele>221.8</ele>
        <time>2025-01-10T08:29:19.000Z</time>
      </trkpt>
      <trkpt lat="43.56788" lon="6.82411">
        <ele>222</ele>
        <time>2025-01-10T08:29:18.000Z</time>
      </trkpt>
      <trkpt lat="43.56783" lon="6.82414">
        <ele>222.2</ele>
        <time>2025-01-10T08:29:17.000Z</time>
      </trkpt>
      <trkpt lat="43.56777" lon="6.82417">
        <ele>222.5</ele>
        <time>2025-01-10T08:29:16.000Z</time>
      </trkpt>
      <trkpt lat="43.56771" lon="6.82422">
        <ele>222.7</ele>
        <time>2025-01-10T08:29:15.000Z</time>
      </trkpt>
      <trkpt lat="43.56767" lon="6.82424">
        <ele>222.9</ele>
        <time>2025-01-10T08:29:14.000Z</time>
      </trkpt>
      <trkpt lat="43.56762" lon="6.82428">
        <ele>223.1</ele>
        <time>2025-01-10T08:29:13.000Z</time>
      </trkpt>
      <trkpt lat="43.56757" lon="6.82431">
        <ele>223.3</ele>
        <time>2025-01-10T08:29:12.000Z</time>
      </trkpt>
      <trkpt lat="43.56751" lon="6.82435">
        <ele>223.5</ele>
        <time>2025-01-10T08:29:11.000Z</time>
      </trkpt>
      <trkpt lat="43.56745" lon="6.82437">
        <ele>223.6</ele>
        <time>2025-01-10T08:29:10.000Z</time>
      </trkpt>
      <trkpt lat="43.56741" lon="6.82439">
        <ele>223.8</ele>
        <time>2025-01-10T08:29:09.000Z</time>
      </trkpt>
      <trkpt lat="43.56736" lon="6.82441">
        <ele>223.9</ele>
        <time>2025-01-10T08:29:08.000Z</time>
      </trkpt>
      <trkpt lat="43.56731" lon="6.82444">
        <ele>224.1</ele>
        <time>2025-01-10T08:29:07.000Z</time>
      </trkpt>
      <trkpt lat="43.56725" lon="6.82448">
        <ele>224.3</ele>
        <time>2025-01-10T08:29:06.000Z</time>
      </trkpt>
      <trkpt lat="43.56721" lon="6.8245">
        <ele>224.4</ele>
        <time>2025-01-10T08:29:05.000Z</time>
      </trkpt>
      <trkpt lat="43.56716" lon="6.82453">
        <ele>224.5</ele>
        <time>2025-01-10T08:29:04.000Z</time>
      </trkpt>
      <trkpt lat="43.56711" lon="6.82457">
        <ele>224.6</ele>
        <time>2025-01-10T08:29:03.000Z</time>
      </trkpt>
      <trkpt lat="43.56706" lon="6.82461">
        <ele>224.7</ele>
        <time>2025-01-10T08:29:02.000Z</time>
      </trkpt>
      <trkpt lat="43.56701" lon="6.82465">
        <ele>224.8</ele>
        <time>2025-01-10T08:29:01.000Z</time>
      </trkpt>
      <trkpt lat="43.56695" lon="6.8247">
        <ele>224.9</ele>
        <time>2025-01-10T08:29:00.000Z</time>
      </trkpt>
      <trkpt lat="43.5669" lon="6.82476">
        <ele>225.1</ele>
        <time>2025-01-10T08:28:59.000Z</time>
      </trkpt>
      <trkpt lat="43.56686" lon="6.82479">
        <ele>225.2</ele>
        <time>2025-01-10T08:28:58.000Z</time>
      </trkpt>
      <trkpt lat="43.56682" lon="6.82484">
        <ele>225.4</ele>
        <time>2025-01-10T08:28:57.000Z</time>
      </trkpt>
      <trkpt lat="43.56677" lon="6.82488">
        <ele>225.6</ele>
        <time>2025-01-10T08:28:56.000Z</time>
      </trkpt>
      <trkpt lat="43.56672" lon="6.82493">
        <ele>225.9</ele>
        <time>2025-01-10T08:28:55.000Z</time>
      </trkpt>
      <trkpt lat="43.56667" lon="6.82498">
        <ele>226.1</ele>
        <time>2025-01-10T08:28:54.000Z</time>
      </trkpt>
      <trkpt lat="43.56661" lon="6.82503">
        <ele>226.4</ele>
        <time>2025-01-10T08:28:53.000Z</time>
      </trkpt>
      <trkpt lat="43.56656" lon="6.82508">
        <ele>226.7</ele>
        <time>2025-01-10T08:28:52.000Z</time>
      </trkpt>
      <trkpt lat="43.56652" lon="6.82511">
        <ele>226.9</ele>
        <time>2025-01-10T08:28:51.000Z</time>
      </trkpt>
      <trkpt lat="43.56648" lon="6.82515">
        <ele>227.2</ele>
        <time>2025-01-10T08:28:50.000Z</time>
      </trkpt>
      <trkpt lat="43.56643" lon="6.82518">
        <ele>227.5</ele>
        <time>2025-01-10T08:28:49.000Z</time>
      </trkpt>
      <trkpt lat="43.56639" lon="6.8252">
        <ele>227.7</ele>
        <time>2025-01-10T08:28:48.000Z</time>
      </trkpt>
      <trkpt lat="43.56634" lon="6.82522">
        <ele>227.9</ele>
        <time>2025-01-10T08:28:47.000Z</time>
      </trkpt>
      <trkpt lat="43.56631" lon="6.82524">
        <ele>228</ele>
        <time>2025-01-10T08:28:46.000Z</time>
      </trkpt>
      <trkpt lat="43.56627" lon="6.82524">
        <ele>228.1</ele>
        <time>2025-01-10T08:28:45.000Z</time>
      </trkpt>
      <trkpt lat="43.56622" lon="6.82525">
        <ele>228.2</ele>
        <time>2025-01-10T08:28:44.000Z</time>
      </trkpt>
      <trkpt lat="43.56618" lon="6.82525">
        <ele>228.3</ele>
        <time>2025-01-10T08:28:43.000Z</time>
      </trkpt>
      <trkpt lat="43.56615" lon="6.82524">
        <ele>228.4</ele>
        <time>2025-01-10T08:28:42.000Z</time>
      </trkpt>
      <trkpt lat="43.5661" lon="6.82521">
        <ele>228.4</ele>
        <time>2025-01-10T08:28:41.000Z</time>
      </trkpt>
      <trkpt lat="43.56607" lon="6.82518">
        <ele>228.4</ele>
        <time>2025-01-10T08:28:40.000Z</time>
      </trkpt>
      <trkpt lat="43.56603" lon="6.82512">
        <ele>228.4</ele>
        <time>2025-01-10T08:28:39.000Z</time>
      </trkpt>
      <trkpt lat="43.566" lon="6.82508">
        <ele>228.4</ele>
        <time>2025-01-10T08:28:38.000Z</time>
      </trkpt>
      <trkpt lat="43.56596" lon="6.82503">
        <ele>228.5</ele>
        <time>2025-01-10T08:28:37.000Z</time>
      </trkpt>
      <trkpt lat="43.56593" lon="6.82497">
        <ele>228.6</ele>
        <time>2025-01-10T08:28:36.000Z</time>
      </trkpt>
      <trkpt lat="43.56589" lon="6.8249">
        <ele>228.8</ele>
        <time>2025-01-10T08:28:35.000Z</time>
      </trkpt>
      <trkpt lat="43.56587" lon="6.82485">
        <ele>228.9</ele>
        <time>2025-01-10T08:28:34.000Z</time>
      </trkpt>
      <trkpt lat="43.56584" lon="6.82479">
        <ele>229</ele>
        <time>2025-01-10T08:28:33.000Z</time>
      </trkpt>
      <trkpt lat="43.56581" lon="6.82473">
        <ele>229.2</ele>
        <time>2025-01-10T08:28:32.000Z</time>
      </trkpt>
      <trkpt lat="43.56578" lon="6.82468">
        <ele>229.4</ele>
        <time>2025-01-10T08:28:31.000Z</time>
      </trkpt>
      <trkpt lat="43.56575" lon="6.82461">
        <ele>229.6</ele>
        <time>2025-01-10T08:28:30.000Z</time>
      </trkpt>
      <trkpt lat="43.56573" lon="6.82457">
        <ele>229.8</ele>
        <time>2025-01-10T08:28:29.000Z</time>
      </trkpt>
      <trkpt lat="43.56571" lon="6.82452">
        <ele>229.9</ele>
        <time>2025-01-10T08:28:28.000Z</time>
      </trkpt>
      <trkpt lat="43.56568" lon="6.82447">
        <ele>230.1</ele>
        <time>2025-01-10T08:28:27.000Z</time>
      </trkpt>
      <trkpt lat="43.56565" lon="6.82443">
        <ele>230.3</ele>
        <time>2025-01-10T08:28:26.000Z</time>
      </trkpt>
      <trkpt lat="43.56563" lon="6.82441">
        <ele>230.3</ele>
        <time>2025-01-10T08:28:25.000Z</time>
      </trkpt>
      <trkpt lat="43.56562" lon="6.82439">
        <ele>230.4</ele>
        <time>2025-01-10T08:28:24.000Z</time>
      </trkpt>
      <trkpt lat="43.56561" lon="6.82439">
        <ele>230.4</ele>
        <time>2025-01-10T08:28:23.000Z</time>
      </trkpt>
      <trkpt lat="43.56561" lon="6.82438">
        <ele>230.5</ele>
        <time>2025-01-10T08:28:22.000Z</time>
      </trkpt>
      <trkpt lat="43.56561" lon="6.82438">
        <ele>230.5</ele>
        <time>2025-01-10T08:28:21.000Z</time>
      </trkpt>
      <trkpt lat="43.5656" lon="6.82437">
        <ele>230.5</ele>
        <time>2025-01-10T08:28:20.000Z</time>
      </trkpt>
      <trkpt lat="43.5656" lon="6.82437">
        <ele>230.5</ele>
        <time>2025-01-10T08:28:19.000Z</time>
      </trkpt>
      <trkpt lat="43.5656" lon="6.82436">
        <ele>230.5</ele>
        <time>2025-01-10T08:28:18.000Z</time>
      </trkpt>
      <trkpt lat="43.5656" lon="6.82436">
        <ele>230.6</ele>
        <time>2025-01-10T08:28:17.000Z</time>
      </trkpt>
      <trkpt lat="43.5656" lon="6.82436">
        <ele>230.6</ele>
        <time>2025-01-10T08:28:16.000Z</time>
      </trkpt>
      <trkpt lat="43.5656" lon="6.82436">
        <ele>230.6</ele>
        <time>2025-01-10T08:28:15.000Z</time>
      </trkpt>
      <trkpt lat="43.5656" lon="6.82436">
        <ele>230.6</ele>
        <time>2025-01-10T08:28:14.000Z</time>
      </trkpt>
      <trkpt lat="43.56559" lon="6.82436">
        <ele>230.6</ele>
        <time>2025-01-10T08:28:13.000Z</time>
      </trkpt>
      <trkpt lat="43.56559" lon="6.82436">
        <ele>230.6</ele>
        <time>2025-01-10T08:28:12.000Z</time>
      </trkpt>
      <trkpt lat="43.56559" lon="6.82436">
        <ele>230.6</ele>
        <time>2025-01-10T08:28:11.000Z</time>
      </trkpt>
      <trkpt lat="43.56559" lon="6.82435">
        <ele>230.6</ele>
        <time>2025-01-10T08:28:10.000Z</time>
      </trkpt>
      <trkpt lat="43.56558" lon="6.82434">
        <ele>230.6</ele>
        <time>2025-01-10T08:28:09.000Z</time>
      </trkpt>
      <trkpt lat="43.56556" lon="6.82431">
        <ele>230.7</ele>
        <time>2025-01-10T08:28:08.000Z</time>
      </trkpt>
      <trkpt lat="43.56554" lon="6.82428">
        <ele>230.8</ele>
        <time>2025-01-10T08:28:07.000Z</time>
      </trkpt>
      <trkpt lat="43.56552" lon="6.82424">
        <ele>231</ele>
        <time>2025-01-10T08:28:06.000Z</time>
      </trkpt>
      <trkpt lat="43.56549" lon="6.8242">
        <ele>231.1</ele>
        <time>2025-01-10T08:28:05.000Z</time>
      </trkpt>
      <trkpt lat="43.56547" lon="6.82416">
        <ele>231.2</ele>
        <time>2025-01-10T08:28:04.000Z</time>
      </trkpt>
      <trkpt lat="43.56544" lon="6.82413">
        <ele>231.3</ele>
        <time>2025-01-10T08:28:03.000Z</time>
      </trkpt>
      <trkpt lat="43.56541" lon="6.82409">
        <ele>231.4</ele>
        <time>2025-01-10T08:28:02.000Z</time>
      </trkpt>
      <trkpt lat="43.56539" lon="6.82404">
        <ele>231.5</ele>
        <time>2025-01-10T08:28:01.000Z</time>
      </trkpt>
      <trkpt lat="43.56536" lon="6.82401">
        <ele>231.6</ele>
        <time>2025-01-10T08:28:00.000Z</time>
      </trkpt>
      <trkpt lat="43.56533" lon="6.82396">
        <ele>231.8</ele>
        <time>2025-01-10T08:27:59.000Z</time>
      </trkpt>
      <trkpt lat="43.5653" lon="6.82391">
        <ele>231.9</ele>
        <time>2025-01-10T08:27:58.000Z</time>
      </trkpt>
      <trkpt lat="43.56527" lon="6.82387">
        <ele>232</ele>
        <time>2025-01-10T08:27:57.000Z</time>
      </trkpt>
      <trkpt lat="43.56525" lon="6.82382">
        <ele>232.1</ele>
        <time>2025-01-10T08:27:56.000Z</time>
      </trkpt>
      <trkpt lat="43.56522" lon="6.82377">
        <ele>232.2</ele>
        <time>2025-01-10T08:27:55.000Z</time>
      </trkpt>
      <trkpt lat="43.5652" lon="6.82371">
        <ele>232.3</ele>
        <time>2025-01-10T08:27:54.000Z</time>
      </trkpt>
      <trkpt lat="43.56518" lon="6.82365">
        <ele>232.5</ele>
        <time>2025-01-10T08:27:53.000Z</time>
      </trkpt>
      <trkpt lat="43.56517" lon="6.82359">
        <ele>232.6</ele>
        <time>2025-01-10T08:27:52.000Z</time>
      </trkpt>
      <trkpt lat="43.56516" lon="6.82354">
        <ele>232.7</ele>
        <time>2025-01-10T08:27:51.000Z</time>
      </trkpt>
      <trkpt lat="43.56515" lon="6.82346">
        <ele>232.9</ele>
        <time>2025-01-10T08:27:50.000Z</time>
      </trkpt>
      <trkpt lat="43.56514" lon="6.82342">
        <ele>233</ele>
        <time>2025-01-10T08:27:49.000Z</time>
      </trkpt>
      <trkpt lat="43.56513" lon="6.82337">
        <ele>233.2</ele>
        <time>2025-01-10T08:27:48.000Z</time>
      </trkpt>
      <trkpt lat="43.56513" lon="6.82332">
        <ele>233.3</ele>
        <time>2025-01-10T08:27:47.000Z</time>
      </trkpt>
      <trkpt lat="43.56513" lon="6.82328">
        <ele>233.4</ele>
        <time>2025-01-10T08:27:46.000Z</time>
      </trkpt>
      <trkpt lat="43.56513" lon="6.82325">
        <ele>233.5</ele>
        <time>2025-01-10T08:27:45.000Z</time>
      </trkpt>
      <trkpt lat="43.56513" lon="6.82325">
        <ele>233.6</ele>
        <time>2025-01-10T08:27:44.000Z</time>
      </trkpt>
      <trkpt lat="43.56513" lon="6.82325">
        <ele>233.6</ele>
        <time>2025-01-10T08:27:43.000Z</time>
      </trkpt>
      <trkpt lat="43.56512" lon="6.82325">
        <ele>233.6</ele>
        <time>2025-01-10T08:27:42.000Z</time>
      </trkpt>
      <trkpt lat="43.56512" lon="6.82325">
        <ele>233.6</ele>
        <time>2025-01-10T08:27:41.000Z</time>
      </trkpt>
      <trkpt lat="43.56512" lon="6.82325">
        <ele>233.6</ele>
        <time>2025-01-10T08:27:40.000Z</time>
      </trkpt>
      <trkpt lat="43.56512" lon="6.82325">
        <ele>233.6</ele>
        <time>2025-01-10T08:27:39.000Z</time>
      </trkpt>
      <trkpt lat="43.56512" lon="6.82325">
        <ele>233.6</ele>
        <time>2025-01-10T08:27:38.000Z</time>
      </trkpt>
      <trkpt lat="43.56512" lon="6.82325">
        <ele>233.6</ele>
        <time>2025-01-10T08:27:37.000Z</time>
      </trkpt>
      <trkpt lat="43.56512" lon="6.82325">
        <ele>233.6</ele>
        <time>2025-01-10T08:27:36.000Z</time>
      </trkpt>
      <trkpt lat="43.56512" lon="6.82325">
        <ele>233.6</ele>
        <time>2025-01-10T08:27:35.000Z</time>
      </trkpt>
      <trkpt lat="43.56512" lon="6.82325">
        <ele>233.6</ele>
        <time>2025-01-10T08:27:34.000Z</time>
      </trkpt>
      <trkpt lat="43.56512" lon="6.82325">
        <ele>233.6</ele>
        <time>2025-01-10T08:27:33.000Z</time>
      </trkpt>
      <trkpt lat="43.56512" lon="6.82325">
        <ele>233.6</ele>
        <time>2025-01-10T08:27:32.000Z</time>
      </trkpt>
      <trkpt lat="43.56512" lon="6.82325">
        <ele>233.6</ele>
        <time>2025-01-10T08:27:31.000Z</time>
      </trkpt>
      <trkpt lat="43.56512" lon="6.82325">
        <ele>233.6</ele>
        <time>2025-01-10T08:27:30.000Z</time>
      </trkpt>
      <trkpt lat="43.56512" lon="6.82325">
        <ele>233.6</ele>
        <time>2025-01-10T08:27:29.000Z</time>
      </trkpt>
      <trkpt lat="43.56512" lon="6.82325">
        <ele>233.6</ele>
        <time>2025-01-10T08:27:28.000Z</time>
      </trkpt>
      <trkpt lat="43.56512" lon="6.82325">
        <ele>233.6</ele>
        <time>2025-01-10T08:27:27.000Z</time>
      </trkpt>
      <trkpt lat="43.56512" lon="6.82325">
        <ele>233.6</ele>
        <time>2025-01-10T08:27:26.000Z</time>
      </trkpt>
      <trkpt lat="43.56512" lon="6.82325">
        <ele>233.6</ele>
        <time>2025-01-10T08:27:25.000Z</time>
      </trkpt>
      <trkpt lat="43.56512" lon="6.82325">
        <ele>233.6</ele>
        <time>2025-01-10T08:27:24.000Z</time>
      </trkpt>
      <trkpt lat="43.56512" lon="6.82325">
        <ele>233.6</ele>
        <time>2025-01-10T08:27:23.000Z</time>
      </trkpt>
      <trkpt lat="43.56512" lon="6.82325">
        <ele>233.6</ele>
        <time>2025-01-10T08:27:22.000Z</time>
      </trkpt>
      <trkpt lat="43.56512" lon="6.82325">
        <ele>233.6</ele>
        <time>2025-01-10T08:27:21.000Z</time>
      </trkpt>
      <trkpt lat="43.56512" lon="6.82325">
        <ele>233.6</ele>
        <time>2025-01-10T08:27:20.000Z</time>
      </trkpt>
      <trkpt lat="43.56512" lon="6.82325">
        <ele>233.6</ele>
        <time>2025-01-10T08:27:19.000Z</time>
      </trkpt>
      <trkpt lat="43.56512" lon="6.82325">
        <ele>233.6</ele>
        <time>2025-01-10T08:27:18.000Z</time>
      </trkpt>
      <trkpt lat="43.56512" lon="6.82325">
        <ele>233.6</ele>
        <time>2025-01-10T08:27:17.000Z</time>
      </trkpt>
      <trkpt lat="43.56512" lon="6.82325">
        <ele>233.6</ele>
        <time>2025-01-10T08:27:16.000Z</time>
      </trkpt>
      <trkpt lat="43.56512" lon="6.82325">
        <ele>233.6</ele>
        <time>2025-01-10T08:27:15.000Z</time>
      </trkpt>
      <trkpt lat="43.56512" lon="6.82325">
        <ele>233.6</ele>
        <time>2025-01-10T08:27:14.000Z</time>
      </trkpt>
      <trkpt lat="43.56512" lon="6.82324">
        <ele>233.7</ele>
        <time>2025-01-10T08:27:13.000Z</time>
      </trkpt>
      <trkpt lat="43.56512" lon="6.82324">
        <ele>233.7</ele>
        <time>2025-01-10T08:27:12.000Z</time>
      </trkpt>
      <trkpt lat="43.56512" lon="6.82324">
        <ele>233.7</ele>
        <time>2025-01-10T08:27:11.000Z</time>
      </trkpt>
      <trkpt lat="43.56512" lon="6.82324">
        <ele>233.7</ele>
        <time>2025-01-10T08:27:10.000Z</time>
      </trkpt>
      <trkpt lat="43.56512" lon="6.82324">
        <ele>233.7</ele>
        <time>2025-01-10T08:27:09.000Z</time>
      </trkpt>
      <trkpt lat="43.56512" lon="6.82324">
        <ele>233.7</ele>
        <time>2025-01-10T08:27:08.000Z</time>
      </trkpt>
      <trkpt lat="43.56512" lon="6.82324">
        <ele>233.7</ele>
        <time>2025-01-10T08:27:07.000Z</time>
      </trkpt>
      <trkpt lat="43.56512" lon="6.82324">
        <ele>233.7</ele>
        <time>2025-01-10T08:27:06.000Z</time>
      </trkpt>
      <trkpt lat="43.56512" lon="6.82324">
        <ele>233.7</ele>
        <time>2025-01-10T08:27:05.000Z</time>
      </trkpt>
      <trkpt lat="43.56512" lon="6.82324">
        <ele>233.7</ele>
        <time>2025-01-10T08:27:04.000Z</time>
      </trkpt>
      <trkpt lat="43.56512" lon="6.82324">
        <ele>233.7</ele>
        <time>2025-01-10T08:27:03.000Z</time>
      </trkpt>
      <trkpt lat="43.56512" lon="6.82324">
        <ele>233.7</ele>
        <time>2025-01-10T08:27:02.000Z</time>
      </trkpt>
      <trkpt lat="43.56512" lon="6.82324">
        <ele>233.7</ele>
        <time>2025-01-10T08:27:01.000Z</time>
      </trkpt>
      <trkpt lat="43.56513" lon="6.82324">
        <ele>233.7</ele>
        <time>2025-01-10T08:27:00.000Z</time>
      </trkpt>
      <trkpt lat="43.56513" lon="6.82324">
        <ele>233.7</ele>
        <time>2025-01-10T08:26:59.000Z</time>
      </trkpt>
      <trkpt lat="43.56513" lon="6.82324">
        <ele>233.7</ele>
        <time>2025-01-10T08:26:58.000Z</time>
      </trkpt>
      <trkpt lat="43.56513" lon="6.82324">
        <ele>233.7</ele>
        <time>2025-01-10T08:26:57.000Z</time>
      </trkpt>
      <trkpt lat="43.56513" lon="6.82324">
        <ele>233.7</ele>
        <time>2025-01-10T08:26:56.000Z</time>
      </trkpt>
      <trkpt lat="43.56513" lon="6.82324">
        <ele>233.7</ele>
        <time>2025-01-10T08:26:55.000Z</time>
      </trkpt>
      <trkpt lat="43.56513" lon="6.82324">
        <ele>233.7</ele>
        <time>2025-01-10T08:26:54.000Z</time>
      </trkpt>
      <trkpt lat="43.56513" lon="6.82324">
        <ele>233.7</ele>
        <time>2025-01-10T08:26:53.000Z</time>
      </trkpt>
      <trkpt lat="43.56513" lon="6.82324">
        <ele>233.7</ele>
        <time>2025-01-10T08:26:52.000Z</time>
      </trkpt>
      <trkpt lat="43.56513" lon="6.82324">
        <ele>233.7</ele>
        <time>2025-01-10T08:26:51.000Z</time>
      </trkpt>
      <trkpt lat="43.56513" lon="6.82324">
        <ele>233.7</ele>
        <time>2025-01-10T08:26:50.000Z</time>
      </trkpt>
      <trkpt lat="43.56513" lon="6.82324">
        <ele>233.7</ele>
        <time>2025-01-10T08:26:49.000Z</time>
      </trkpt>
      <trkpt lat="43.56513" lon="6.82324">
        <ele>233.7</ele>
        <time>2025-01-10T08:26:48.000Z</time>
      </trkpt>
      <trkpt lat="43.56513" lon="6.82324">
        <ele>233.7</ele>
        <time>2025-01-10T08:26:47.000Z</time>
      </trkpt>
      <trkpt lat="43.56513" lon="6.82324">
        <ele>233.7</ele>
        <time>2025-01-10T08:26:46.000Z</time>
      </trkpt>
      <trkpt lat="43.56513" lon="6.82324">
        <ele>233.7</ele>
        <time>2025-01-10T08:26:45.000Z</time>
      </trkpt>
      <trkpt lat="43.56513" lon="6.82324">
        <ele>233.7</ele>
        <time>2025-01-10T08:26:44.000Z</time>
      </trkpt>
      <trkpt lat="43.56513" lon="6.82324">
        <ele>233.7</ele>
        <time>2025-01-10T08:26:43.000Z</time>
      </trkpt>
      <trkpt lat="43.56513" lon="6.82324">
        <ele>233.7</ele>
        <time>2025-01-10T08:26:42.000Z</time>
      </trkpt>
      <trkpt lat="43.56513" lon="6.82324">
        <ele>233.7</ele>
        <time>2025-01-10T08:26:41.000Z</time>
      </trkpt>
      <trkpt lat="43.56513" lon="6.82325">
        <ele>233.7</ele>
        <time>2025-01-10T08:26:40.000Z</time>
      </trkpt>
      <trkpt lat="43.56513" lon="6.82325">
        <ele>233.7</ele>
        <time>2025-01-10T08:26:39.000Z</time>
      </trkpt>
      <trkpt lat="43.56514" lon="6.82325">
        <ele>233.7</ele>
        <time>2025-01-10T08:26:38.000Z</time>
      </trkpt>
      <trkpt lat="43.56514" lon="6.82325">
        <ele>233.7</ele>
        <time>2025-01-10T08:26:37.000Z</time>
      </trkpt>
      <trkpt lat="43.56515" lon="6.82325">
        <ele>233.7</ele>
        <time>2025-01-10T08:26:36.000Z</time>
      </trkpt>
      <trkpt lat="43.56515" lon="6.82325">
        <ele>233.8</ele>
        <time>2025-01-10T08:26:35.000Z</time>
      </trkpt>
      <trkpt lat="43.56516" lon="6.82326">
        <ele>233.8</ele>
        <time>2025-01-10T08:26:34.000Z</time>
      </trkpt>
      <trkpt lat="43.56517" lon="6.82325">
        <ele>233.8</ele>
        <time>2025-01-10T08:26:33.000Z</time>
      </trkpt>
      <trkpt lat="43.56517" lon="6.82325">
        <ele>233.8</ele>
        <time>2025-01-10T08:26:32.000Z</time>
      </trkpt>
      <trkpt lat="43.56517" lon="6.82326">
        <ele>233.8</ele>
        <time>2025-01-10T08:26:31.000Z</time>
      </trkpt>
      <trkpt lat="43.56515" lon="6.82326">
        <ele>233.8</ele>
        <time>2025-01-10T08:26:30.000Z</time>
      </trkpt>
      <trkpt lat="43.56512" lon="6.82327">
        <ele>233.8</ele>
        <time>2025-01-10T08:26:29.000Z</time>
      </trkpt>
      <trkpt lat="43.56509" lon="6.82327">
        <ele>233.9</ele>
        <time>2025-01-10T08:26:28.000Z</time>
      </trkpt>
      <trkpt lat="43.56505" lon="6.82328">
        <ele>233.9</ele>
        <time>2025-01-10T08:26:27.000Z</time>
      </trkpt>
      <trkpt lat="43.56502" lon="6.82329">
        <ele>233.9</ele>
        <time>2025-01-10T08:26:26.000Z</time>
      </trkpt>
      <trkpt lat="43.565" lon="6.8233">
        <ele>233.9</ele>
        <time>2025-01-10T08:26:25.000Z</time>
      </trkpt>
      <trkpt lat="43.56496" lon="6.82332">
        <ele>233.9</ele>
        <time>2025-01-10T08:26:24.000Z</time>
      </trkpt>
      <trkpt lat="43.56491" lon="6.82333">
        <ele>233.9</ele>
        <time>2025-01-10T08:26:23.000Z</time>
      </trkpt>
      <trkpt lat="43.56487" lon="6.82334">
        <ele>234</ele>
        <time>2025-01-10T08:26:22.000Z</time>
      </trkpt>
      <trkpt lat="43.56483" lon="6.82335">
        <ele>234</ele>
        <time>2025-01-10T08:26:21.000Z</time>
      </trkpt>
      <trkpt lat="43.56478" lon="6.82337">
        <ele>234</ele>
        <time>2025-01-10T08:26:20.000Z</time>
      </trkpt>
      <trkpt lat="43.56473" lon="6.82338">
        <ele>234.1</ele>
        <time>2025-01-10T08:26:19.000Z</time>
      </trkpt>
      <trkpt lat="43.56469" lon="6.82339">
        <ele>234.1</ele>
        <time>2025-01-10T08:26:18.000Z</time>
      </trkpt>
      <trkpt lat="43.56463" lon="6.8234">
        <ele>234.2</ele>
        <time>2025-01-10T08:26:17.000Z</time>
      </trkpt>
      <trkpt lat="43.56459" lon="6.82341">
        <ele>234.3</ele>
        <time>2025-01-10T08:26:16.000Z</time>
      </trkpt>
      <trkpt lat="43.56453" lon="6.82341">
        <ele>234.4</ele>
        <time>2025-01-10T08:26:15.000Z</time>
      </trkpt>
      <trkpt lat="43.56448" lon="6.82342">
        <ele>234.5</ele>
        <time>2025-01-10T08:26:14.000Z</time>
      </trkpt>
      <trkpt lat="43.56443" lon="6.82343">
        <ele>234.6</ele>
        <time>2025-01-10T08:26:13.000Z</time>
      </trkpt>
      <trkpt lat="43.56437" lon="6.82343">
        <ele>234.8</ele>
        <time>2025-01-10T08:26:12.000Z</time>
      </trkpt>
      <trkpt lat="43.56432" lon="6.82342">
        <ele>234.9</ele>
        <time>2025-01-10T08:26:11.000Z</time>
      </trkpt>
      <trkpt lat="43.56428" lon="6.82342">
        <ele>235</ele>
        <time>2025-01-10T08:26:10.000Z</time>
      </trkpt>
      <trkpt lat="43.56423" lon="6.82342">
        <ele>235.1</ele>
        <time>2025-01-10T08:26:09.000Z</time>
      </trkpt>
      <trkpt lat="43.56417" lon="6.82341">
        <ele>235.3</ele>
        <time>2025-01-10T08:26:08.000Z</time>
      </trkpt>
      <trkpt lat="43.56412" lon="6.82341">
        <ele>235.4</ele>
        <time>2025-01-10T08:26:07.000Z</time>
      </trkpt>
      <trkpt lat="43.56406" lon="6.82341">
        <ele>235.6</ele>
        <time>2025-01-10T08:26:06.000Z</time>
      </trkpt>
      <trkpt lat="43.56401" lon="6.8234">
        <ele>235.8</ele>
        <time>2025-01-10T08:26:05.000Z</time>
      </trkpt>
      <trkpt lat="43.56394" lon="6.8234">
        <ele>235.9</ele>
        <time>2025-01-10T08:26:04.000Z</time>
      </trkpt>
      <trkpt lat="43.5639" lon="6.8234">
        <ele>236.1</ele>
        <time>2025-01-10T08:26:03.000Z</time>
      </trkpt>
      <trkpt lat="43.56385" lon="6.82339">
        <ele>236.2</ele>
        <time>2025-01-10T08:26:02.000Z</time>
      </trkpt>
      <trkpt lat="43.56379" lon="6.82339">
        <ele>236.4</ele>
        <time>2025-01-10T08:26:01.000Z</time>
      </trkpt>
      <trkpt lat="43.56374" lon="6.82339">
        <ele>236.6</ele>
        <time>2025-01-10T08:26:00.000Z</time>
      </trkpt>
      <trkpt lat="43.56368" lon="6.82339">
        <ele>236.9</ele>
        <time>2025-01-10T08:25:59.000Z</time>
      </trkpt>
      <trkpt lat="43.56362" lon="6.8234">
        <ele>237.1</ele>
        <time>2025-01-10T08:25:58.000Z</time>
      </trkpt>
      <trkpt lat="43.56357" lon="6.8234">
        <ele>237.3</ele>
        <time>2025-01-10T08:25:57.000Z</time>
      </trkpt>
      <trkpt lat="43.56352" lon="6.82341">
        <ele>237.5</ele>
        <time>2025-01-10T08:25:56.000Z</time>
      </trkpt>
      <trkpt lat="43.56346" lon="6.82343">
        <ele>237.8</ele>
        <time>2025-01-10T08:25:55.000Z</time>
      </trkpt>
      <trkpt lat="43.56342" lon="6.82344">
        <ele>238</ele>
        <time>2025-01-10T08:25:54.000Z</time>
      </trkpt>
      <trkpt lat="43.56337" lon="6.82345">
        <ele>238.2</ele>
        <time>2025-01-10T08:25:53.000Z</time>
      </trkpt>
      <trkpt lat="43.56332" lon="6.82347">
        <ele>238.4</ele>
        <time>2025-01-10T08:25:52.000Z</time>
      </trkpt>
      <trkpt lat="43.56326" lon="6.82349">
        <ele>238.7</ele>
        <time>2025-01-10T08:25:51.000Z</time>
      </trkpt>
      <trkpt lat="43.56321" lon="6.8235">
        <ele>238.9</ele>
        <time>2025-01-10T08:25:50.000Z</time>
      </trkpt>
      <trkpt lat="43.56317" lon="6.82351">
        <ele>239</ele>
        <time>2025-01-10T08:25:49.000Z</time>
      </trkpt>
      <trkpt lat="43.56312" lon="6.82353">
        <ele>239.2</ele>
        <time>2025-01-10T08:25:48.000Z</time>
      </trkpt>
      <trkpt lat="43.56307" lon="6.82355">
        <ele>239.4</ele>
        <time>2025-01-10T08:25:47.000Z</time>
      </trkpt>
      <trkpt lat="43.56302" lon="6.82357">
        <ele>239.6</ele>
        <time>2025-01-10T08:25:46.000Z</time>
      </trkpt>
      <trkpt lat="43.56298" lon="6.82358">
        <ele>239.7</ele>
        <time>2025-01-10T08:25:45.000Z</time>
      </trkpt>
      <trkpt lat="43.56293" lon="6.82359">
        <ele>239.9</ele>
        <time>2025-01-10T08:25:44.000Z</time>
      </trkpt>
      <trkpt lat="43.56288" lon="6.82361">
        <ele>240</ele>
        <time>2025-01-10T08:25:43.000Z</time>
      </trkpt>
      <trkpt lat="43.56282" lon="6.82362">
        <ele>240.2</ele>
        <time>2025-01-10T08:25:42.000Z</time>
      </trkpt>
      <trkpt lat="43.56278" lon="6.82363">
        <ele>240.3</ele>
        <time>2025-01-10T08:25:41.000Z</time>
      </trkpt>
      <trkpt lat="43.56275" lon="6.82364">
        <ele>240.3</ele>
        <time>2025-01-10T08:25:40.000Z</time>
      </trkpt>
      <trkpt lat="43.56271" lon="6.82365">
        <ele>240.4</ele>
        <time>2025-01-10T08:25:39.000Z</time>
      </trkpt>
      <trkpt lat="43.56267" lon="6.82365">
        <ele>240.5</ele>
        <time>2025-01-10T08:25:38.000Z</time>
      </trkpt>
      <trkpt lat="43.56263" lon="6.82366">
        <ele>240.5</ele>
        <time>2025-01-10T08:25:37.000Z</time>
      </trkpt>
      <trkpt lat="43.56259" lon="6.82366">
        <ele>240.5</ele>
        <time>2025-01-10T08:25:36.000Z</time>
      </trkpt>
      <trkpt lat="43.56255" lon="6.82366">
        <ele>240.5</ele>
        <time>2025-01-10T08:25:35.000Z</time>
      </trkpt>
      <trkpt lat="43.5625" lon="6.82366">
        <ele>240.5</ele>
        <time>2025-01-10T08:25:34.000Z</time>
      </trkpt>
      <trkpt lat="43.56245" lon="6.82367">
        <ele>240.5</ele>
        <time>2025-01-10T08:25:33.000Z</time>
      </trkpt>
      <trkpt lat="43.56242" lon="6.82367">
        <ele>240.5</ele>
        <time>2025-01-10T08:25:32.000Z</time>
      </trkpt>
      <trkpt lat="43.56238" lon="6.82367">
        <ele>240.5</ele>
        <time>2025-01-10T08:25:31.000Z</time>
      </trkpt>
      <trkpt lat="43.56234" lon="6.82367">
        <ele>240.5</ele>
        <time>2025-01-10T08:25:30.000Z</time>
      </trkpt>
      <trkpt lat="43.56229" lon="6.82368">
        <ele>240.5</ele>
        <time>2025-01-10T08:25:29.000Z</time>
      </trkpt>
      <trkpt lat="43.56225" lon="6.8237">
        <ele>240.4</ele>
        <time>2025-01-10T08:25:28.000Z</time>
      </trkpt>
      <trkpt lat="43.56222" lon="6.82372">
        <ele>240.4</ele>
        <time>2025-01-10T08:25:27.000Z</time>
      </trkpt>
      <trkpt lat="43.56218" lon="6.82374">
        <ele>240.5</ele>
        <time>2025-01-10T08:25:26.000Z</time>
      </trkpt>
      <trkpt lat="43.56215" lon="6.82377">
        <ele>240.5</ele>
        <time>2025-01-10T08:25:25.000Z</time>
      </trkpt>
      <trkpt lat="43.56211" lon="6.82381">
        <ele>240.4</ele>
        <time>2025-01-10T08:25:24.000Z</time>
      </trkpt>
      <trkpt lat="43.56207" lon="6.82385">
        <ele>240.4</ele>
        <time>2025-01-10T08:25:23.000Z</time>
      </trkpt>
      <trkpt lat="43.56205" lon="6.82388">
        <ele>240.4</ele>
        <time>2025-01-10T08:25:22.000Z</time>
      </trkpt>
      <trkpt lat="43.56202" lon="6.82392">
        <ele>240.4</ele>
        <time>2025-01-10T08:25:21.000Z</time>
      </trkpt>
      <trkpt lat="43.56199" lon="6.82395">
        <ele>240.4</ele>
        <time>2025-01-10T08:25:20.000Z</time>
      </trkpt>
      <trkpt lat="43.56195" lon="6.824">
        <ele>240.3</ele>
        <time>2025-01-10T08:25:19.000Z</time>
      </trkpt>
      <trkpt lat="43.56193" lon="6.82403">
        <ele>240.3</ele>
        <time>2025-01-10T08:25:18.000Z</time>
      </trkpt>
      <trkpt lat="43.5619" lon="6.82407">
        <ele>240.2</ele>
        <time>2025-01-10T08:25:17.000Z</time>
      </trkpt>
      <trkpt lat="43.56187" lon="6.8241">
        <ele>240.2</ele>
        <time>2025-01-10T08:25:16.000Z</time>
      </trkpt>
      <trkpt lat="43.56184" lon="6.82415">
        <ele>240.1</ele>
        <time>2025-01-10T08:25:15.000Z</time>
      </trkpt>
      <trkpt lat="43.56181" lon="6.82417">
        <ele>240.1</ele>
        <time>2025-01-10T08:25:14.000Z</time>
      </trkpt>
      <trkpt lat="43.56177" lon="6.8242">
        <ele>240</ele>
        <time>2025-01-10T08:25:13.000Z</time>
      </trkpt>
      <trkpt lat="43.56174" lon="6.82423">
        <ele>239.9</ele>
        <time>2025-01-10T08:25:12.000Z</time>
      </trkpt>
      <trkpt lat="43.5617" lon="6.82425">
        <ele>239.8</ele>
        <time>2025-01-10T08:25:11.000Z</time>
      </trkpt>
      <trkpt lat="43.56166" lon="6.82428">
        <ele>239.7</ele>
        <time>2025-01-10T08:25:10.000Z</time>
      </trkpt>
      <trkpt lat="43.56163" lon="6.8243">
        <ele>239.6</ele>
        <time>2025-01-10T08:25:09.000Z</time>
      </trkpt>
      <trkpt lat="43.56159" lon="6.82432">
        <ele>239.4</ele>
        <time>2025-01-10T08:25:08.000Z</time>
      </trkpt>
      <trkpt lat="43.56155" lon="6.82434">
        <ele>239.3</ele>
        <time>2025-01-10T08:25:07.000Z</time>
      </trkpt>
      <trkpt lat="43.56151" lon="6.82435">
        <ele>239.2</ele>
        <time>2025-01-10T08:25:06.000Z</time>
      </trkpt>
      <trkpt lat="43.56147" lon="6.82436">
        <ele>239.1</ele>
        <time>2025-01-10T08:25:05.000Z</time>
      </trkpt>
      <trkpt lat="43.56143" lon="6.82437">
        <ele>239</ele>
        <time>2025-01-10T08:25:04.000Z</time>
      </trkpt>
      <trkpt lat="43.56138" lon="6.82437">
        <ele>238.8</ele>
        <time>2025-01-10T08:25:03.000Z</time>
      </trkpt>
      <trkpt lat="43.56135" lon="6.82438">
        <ele>238.7</ele>
        <time>2025-01-10T08:25:02.000Z</time>
      </trkpt>
      <trkpt lat="43.56131" lon="6.82438">
        <ele>238.6</ele>
        <time>2025-01-10T08:25:01.000Z</time>
      </trkpt>
      <trkpt lat="43.56127" lon="6.8244">
        <ele>238.5</ele>
        <time>2025-01-10T08:25:00.000Z</time>
      </trkpt>
      <trkpt lat="43.56123" lon="6.82442">
        <ele>238.4</ele>
        <time>2025-01-10T08:24:59.000Z</time>
      </trkpt>
      <trkpt lat="43.5612" lon="6.82444">
        <ele>238.3</ele>
        <time>2025-01-10T08:24:58.000Z</time>
      </trkpt>
      <trkpt lat="43.56117" lon="6.82447">
        <ele>238.1</ele>
        <time>2025-01-10T08:24:57.000Z</time>
      </trkpt>
      <trkpt lat="43.56113" lon="6.8245">
        <ele>238</ele>
        <time>2025-01-10T08:24:56.000Z</time>
      </trkpt>
      <trkpt lat="43.5611" lon="6.82453">
        <ele>237.9</ele>
        <time>2025-01-10T08:24:55.000Z</time>
      </trkpt>
      <trkpt lat="43.56107" lon="6.82457">
        <ele>237.8</ele>
        <time>2025-01-10T08:24:54.000Z</time>
      </trkpt>
      <trkpt lat="43.56103" lon="6.82461">
        <ele>237.7</ele>
        <time>2025-01-10T08:24:53.000Z</time>
      </trkpt>
      <trkpt lat="43.561" lon="6.82464">
        <ele>237.6</ele>
        <time>2025-01-10T08:24:52.000Z</time>
      </trkpt>
      <trkpt lat="43.56097" lon="6.82468">
        <ele>237.5</ele>
        <time>2025-01-10T08:24:51.000Z</time>
      </trkpt>
      <trkpt lat="43.56094" lon="6.82471">
        <ele>237.3</ele>
        <time>2025-01-10T08:24:50.000Z</time>
      </trkpt>
      <trkpt lat="43.56091" lon="6.82475">
        <ele>237.2</ele>
        <time>2025-01-10T08:24:49.000Z</time>
      </trkpt>
      <trkpt lat="43.56088" lon="6.82479">
        <ele>237.1</ele>
        <time>2025-01-10T08:24:48.000Z</time>
      </trkpt>
      <trkpt lat="43.56085" lon="6.82483">
        <ele>237</ele>
        <time>2025-01-10T08:24:47.000Z</time>
      </trkpt>
      <trkpt lat="43.56083" lon="6.82487">
        <ele>236.9</ele>
        <time>2025-01-10T08:24:46.000Z</time>
      </trkpt>
      <trkpt lat="43.56081" lon="6.82491">
        <ele>236.8</ele>
        <time>2025-01-10T08:24:45.000Z</time>
      </trkpt>
      <trkpt lat="43.56078" lon="6.82495">
        <ele>236.7</ele>
        <time>2025-01-10T08:24:44.000Z</time>
      </trkpt>
      <trkpt lat="43.56075" lon="6.82498">
        <ele>236.6</ele>
        <time>2025-01-10T08:24:43.000Z</time>
      </trkpt>
      <trkpt lat="43.56071" lon="6.82501">
        <ele>236.6</ele>
        <time>2025-01-10T08:24:42.000Z</time>
      </trkpt>
      <trkpt lat="43.56067" lon="6.82502">
        <ele>236.5</ele>
        <time>2025-01-10T08:24:41.000Z</time>
      </trkpt>
      <trkpt lat="43.56063" lon="6.82503">
        <ele>236.4</ele>
        <time>2025-01-10T08:24:40.000Z</time>
      </trkpt>
      <trkpt lat="43.56059" lon="6.82503">
        <ele>236.4</ele>
        <time>2025-01-10T08:24:39.000Z</time>
      </trkpt>
      <trkpt lat="43.56056" lon="6.82504">
        <ele>236.3</ele>
        <time>2025-01-10T08:24:38.000Z</time>
      </trkpt>
      <trkpt lat="43.56053" lon="6.82505">
        <ele>236.3</ele>
        <time>2025-01-10T08:24:37.000Z</time>
      </trkpt>
      <trkpt lat="43.56048" lon="6.82507">
        <ele>236.2</ele>
        <time>2025-01-10T08:24:36.000Z</time>
      </trkpt>
      <trkpt lat="43.56044" lon="6.82508">
        <ele>236.2</ele>
        <time>2025-01-10T08:24:35.000Z</time>
      </trkpt>
      <trkpt lat="43.56041" lon="6.8251">
        <ele>236.1</ele>
        <time>2025-01-10T08:24:34.000Z</time>
      </trkpt>
      <trkpt lat="43.56038" lon="6.82513">
        <ele>236.1</ele>
        <time>2025-01-10T08:24:33.000Z</time>
      </trkpt>
      <trkpt lat="43.56034" lon="6.82515">
        <ele>236</ele>
        <time>2025-01-10T08:24:32.000Z</time>
      </trkpt>
      <trkpt lat="43.56031" lon="6.82517">
        <ele>236</ele>
        <time>2025-01-10T08:24:31.000Z</time>
      </trkpt>
      <trkpt lat="43.56028" lon="6.82519">
        <ele>235.9</ele>
        <time>2025-01-10T08:24:30.000Z</time>
      </trkpt>
      <trkpt lat="43.56025" lon="6.8252">
        <ele>235.9</ele>
        <time>2025-01-10T08:24:29.000Z</time>
      </trkpt>
      <trkpt lat="43.56022" lon="6.82522">
        <ele>235.8</ele>
        <time>2025-01-10T08:24:28.000Z</time>
      </trkpt>
      <trkpt lat="43.56019" lon="6.82523">
        <ele>235.7</ele>
        <time>2025-01-10T08:24:27.000Z</time>
      </trkpt>
      <trkpt lat="43.56016" lon="6.82524">
        <ele>235.7</ele>
        <time>2025-01-10T08:24:26.000Z</time>
      </trkpt>
      <trkpt lat="43.56014" lon="6.82526">
        <ele>235.6</ele>
        <time>2025-01-10T08:24:25.000Z</time>
      </trkpt>
      <trkpt lat="43.56013" lon="6.82527">
        <ele>235.6</ele>
        <time>2025-01-10T08:24:24.000Z</time>
      </trkpt>
      <trkpt lat="43.56012" lon="6.82527">
        <ele>235.6</ele>
        <time>2025-01-10T08:24:23.000Z</time>
      </trkpt>
      <trkpt lat="43.56011" lon="6.82527">
        <ele>235.6</ele>
        <time>2025-01-10T08:24:22.000Z</time>
      </trkpt>
      <trkpt lat="43.56011" lon="6.82527">
        <ele>235.6</ele>
        <time>2025-01-10T08:24:21.000Z</time>
      </trkpt>
      <trkpt lat="43.56012" lon="6.82527">
        <ele>235.5</ele>
        <time>2025-01-10T08:24:20.000Z</time>
      </trkpt>
      <trkpt lat="43.56012" lon="6.82527">
        <ele>235.5</ele>
        <time>2025-01-10T08:24:19.000Z</time>
      </trkpt>
      <trkpt lat="43.56013" lon="6.82527">
        <ele>235.5</ele>
        <time>2025-01-10T08:24:18.000Z</time>
      </trkpt>
      <trkpt lat="43.56013" lon="6.82527">
        <ele>235.5</ele>
        <time>2025-01-10T08:24:17.000Z</time>
      </trkpt>
      <trkpt lat="43.56013" lon="6.82527">
        <ele>235.5</ele>
        <time>2025-01-10T08:24:16.000Z</time>
      </trkpt>
      <trkpt lat="43.56012" lon="6.82527">
        <ele>235.5</ele>
        <time>2025-01-10T08:24:15.000Z</time>
      </trkpt>
      <trkpt lat="43.56012" lon="6.82527">
        <ele>235.5</ele>
        <time>2025-01-10T08:24:14.000Z</time>
      </trkpt>
      <trkpt lat="43.56011" lon="6.82527">
        <ele>235.5</ele>
        <time>2025-01-10T08:24:13.000Z</time>
      </trkpt>
      <trkpt lat="43.56009" lon="6.82526">
        <ele>235.4</ele>
        <time>2025-01-10T08:24:12.000Z</time>
      </trkpt>
      <trkpt lat="43.56007" lon="6.82525">
        <ele>235.4</ele>
        <time>2025-01-10T08:24:11.000Z</time>
      </trkpt>
      <trkpt lat="43.56004" lon="6.82523">
        <ele>235.3</ele>
        <time>2025-01-10T08:24:10.000Z</time>
      </trkpt>
      <trkpt lat="43.56001" lon="6.82521">
        <ele>235.2</ele>
        <time>2025-01-10T08:24:09.000Z</time>
      </trkpt>
      <trkpt lat="43.55999" lon="6.82518">
        <ele>235.1</ele>
        <time>2025-01-10T08:24:08.000Z</time>
      </trkpt>
      <trkpt lat="43.55996" lon="6.82516">
        <ele>235</ele>
        <time>2025-01-10T08:24:07.000Z</time>
      </trkpt>
      <trkpt lat="43.55994" lon="6.82513">
        <ele>234.9</ele>
        <time>2025-01-10T08:24:06.000Z</time>
      </trkpt>
      <trkpt lat="43.55991" lon="6.8251">
        <ele>234.8</ele>
        <time>2025-01-10T08:24:05.000Z</time>
      </trkpt>
      <trkpt lat="43.55988" lon="6.82507">
        <ele>234.6</ele>
        <time>2025-01-10T08:24:04.000Z</time>
      </trkpt>
      <trkpt lat="43.55986" lon="6.82504">
        <ele>234.5</ele>
        <time>2025-01-10T08:24:03.000Z</time>
      </trkpt>
      <trkpt lat="43.55983" lon="6.82502">
        <ele>234.4</ele>
        <time>2025-01-10T08:24:02.000Z</time>
      </trkpt>
      <trkpt lat="43.55981" lon="6.82499">
        <ele>234.2</ele>
        <time>2025-01-10T08:24:01.000Z</time>
      </trkpt>
      <trkpt lat="43.55978" lon="6.82497">
        <ele>234.1</ele>
        <time>2025-01-10T08:24:00.000Z</time>
      </trkpt>
      <trkpt lat="43.55975" lon="6.82495">
        <ele>233.9</ele>
        <time>2025-01-10T08:23:59.000Z</time>
      </trkpt>
      <trkpt lat="43.55972" lon="6.82494">
        <ele>233.7</ele>
        <time>2025-01-10T08:23:58.000Z</time>
      </trkpt>
      <trkpt lat="43.55969" lon="6.82493">
        <ele>233.5</ele>
        <time>2025-01-10T08:23:57.000Z</time>
      </trkpt>
      <trkpt lat="43.55966" lon="6.82492">
        <ele>233.3</ele>
        <time>2025-01-10T08:23:56.000Z</time>
      </trkpt>
      <trkpt lat="43.55963" lon="6.82492">
        <ele>233.1</ele>
        <time>2025-01-10T08:23:55.000Z</time>
      </trkpt>
      <trkpt lat="43.5596" lon="6.82491">
        <ele>232.9</ele>
        <time>2025-01-10T08:23:54.000Z</time>
      </trkpt>
      <trkpt lat="43.55956" lon="6.82491">
        <ele>232.6</ele>
        <time>2025-01-10T08:23:53.000Z</time>
      </trkpt>
      <trkpt lat="43.55953" lon="6.82491">
        <ele>232.4</ele>
        <time>2025-01-10T08:23:52.000Z</time>
      </trkpt>
      <trkpt lat="43.5595" lon="6.82491">
        <ele>232.1</ele>
        <time>2025-01-10T08:23:51.000Z</time>
      </trkpt>
      <trkpt lat="43.55947" lon="6.82491">
        <ele>231.9</ele>
        <time>2025-01-10T08:23:50.000Z</time>
      </trkpt>
      <trkpt lat="43.55944" lon="6.82491">
        <ele>231.7</ele>
        <time>2025-01-10T08:23:49.000Z</time>
      </trkpt>
      <trkpt lat="43.55941" lon="6.8249">
        <ele>231.4</ele>
        <time>2025-01-10T08:23:48.000Z</time>
      </trkpt>
      <trkpt lat="43.55938" lon="6.82491">
        <ele>231.1</ele>
        <time>2025-01-10T08:23:47.000Z</time>
      </trkpt>
      <trkpt lat="43.55935" lon="6.82491">
        <ele>230.9</ele>
        <time>2025-01-10T08:23:46.000Z</time>
      </trkpt>
      <trkpt lat="43.55931" lon="6.82491">
        <ele>230.7</ele>
        <time>2025-01-10T08:23:45.000Z</time>
      </trkpt>
      <trkpt lat="43.55928" lon="6.82492">
        <ele>230.4</ele>
        <time>2025-01-10T08:23:44.000Z</time>
      </trkpt>
      <trkpt lat="43.55925" lon="6.82493">
        <ele>230.2</ele>
        <time>2025-01-10T08:23:43.000Z</time>
      </trkpt>
      <trkpt lat="43.55922" lon="6.82494">
        <ele>229.9</ele>
        <time>2025-01-10T08:23:42.000Z</time>
      </trkpt>
      <trkpt lat="43.55918" lon="6.82495">
        <ele>229.6</ele>
        <time>2025-01-10T08:23:41.000Z</time>
      </trkpt>
      <trkpt lat="43.55915" lon="6.82496">
        <ele>229.4</ele>
        <time>2025-01-10T08:23:40.000Z</time>
      </trkpt>
      <trkpt lat="43.55911" lon="6.82497">
        <ele>229.1</ele>
        <time>2025-01-10T08:23:39.000Z</time>
      </trkpt>
      <trkpt lat="43.55908" lon="6.82498">
        <ele>228.8</ele>
        <time>2025-01-10T08:23:38.000Z</time>
      </trkpt>
      <trkpt lat="43.55905" lon="6.82499">
        <ele>228.6</ele>
        <time>2025-01-10T08:23:37.000Z</time>
      </trkpt>
      <trkpt lat="43.55901" lon="6.825">
        <ele>228.2</ele>
        <time>2025-01-10T08:23:36.000Z</time>
      </trkpt>
      <trkpt lat="43.55898" lon="6.82501">
        <ele>228</ele>
        <time>2025-01-10T08:23:35.000Z</time>
      </trkpt>
      <trkpt lat="43.55894" lon="6.82502">
        <ele>227.8</ele>
        <time>2025-01-10T08:23:34.000Z</time>
      </trkpt>
      <trkpt lat="43.5589" lon="6.82503">
        <ele>227.5</ele>
        <time>2025-01-10T08:23:33.000Z</time>
      </trkpt>
      <trkpt lat="43.55887" lon="6.82504">
        <ele>227.3</ele>
        <time>2025-01-10T08:23:32.000Z</time>
      </trkpt>
      <trkpt lat="43.55883" lon="6.82504">
        <ele>227.1</ele>
        <time>2025-01-10T08:23:31.000Z</time>
      </trkpt>
      <trkpt lat="43.55879" lon="6.82505">
        <ele>226.9</ele>
        <time>2025-01-10T08:23:30.000Z</time>
      </trkpt>
      <trkpt lat="43.55876" lon="6.82506">
        <ele>226.7</ele>
        <time>2025-01-10T08:23:29.000Z</time>
      </trkpt>
      <trkpt lat="43.55872" lon="6.82507">
        <ele>226.4</ele>
        <time>2025-01-10T08:23:28.000Z</time>
      </trkpt>
      <trkpt lat="43.55869" lon="6.82508">
        <ele>226.2</ele>
        <time>2025-01-10T08:23:27.000Z</time>
      </trkpt>
      <trkpt lat="43.55865" lon="6.82508">
        <ele>225.9</ele>
        <time>2025-01-10T08:23:26.000Z</time>
      </trkpt>
      <trkpt lat="43.55861" lon="6.82509">
        <ele>225.7</ele>
        <time>2025-01-10T08:23:25.000Z</time>
      </trkpt>
      <trkpt lat="43.55858" lon="6.82511">
        <ele>225.5</ele>
        <time>2025-01-10T08:23:24.000Z</time>
      </trkpt>
      <trkpt lat="43.55855" lon="6.82513">
        <ele>225.2</ele>
        <time>2025-01-10T08:23:23.000Z</time>
      </trkpt>
      <trkpt lat="43.55852" lon="6.82516">
        <ele>225</ele>
        <time>2025-01-10T08:23:22.000Z</time>
      </trkpt>
      <trkpt lat="43.5585" lon="6.8252">
        <ele>224.8</ele>
        <time>2025-01-10T08:23:21.000Z</time>
      </trkpt>
      <trkpt lat="43.55847" lon="6.82523">
        <ele>224.5</ele>
        <time>2025-01-10T08:23:20.000Z</time>
      </trkpt>
      <trkpt lat="43.55844" lon="6.82526">
        <ele>224.3</ele>
        <time>2025-01-10T08:23:19.000Z</time>
      </trkpt>
      <trkpt lat="43.55841" lon="6.82529">
        <ele>224.1</ele>
        <time>2025-01-10T08:23:18.000Z</time>
      </trkpt>
      <trkpt lat="43.55838" lon="6.82532">
        <ele>223.8</ele>
        <time>2025-01-10T08:23:17.000Z</time>
      </trkpt>
      <trkpt lat="43.55835" lon="6.82534">
        <ele>223.6</ele>
        <time>2025-01-10T08:23:16.000Z</time>
      </trkpt>
      <trkpt lat="43.55831" lon="6.82537">
        <ele>223.3</ele>
        <time>2025-01-10T08:23:15.000Z</time>
      </trkpt>
      <trkpt lat="43.55829" lon="6.8254">
        <ele>223.1</ele>
        <time>2025-01-10T08:23:14.000Z</time>
      </trkpt>
      <trkpt lat="43.55826" lon="6.82544">
        <ele>222.8</ele>
        <time>2025-01-10T08:23:13.000Z</time>
      </trkpt>
      <trkpt lat="43.55823" lon="6.82548">
        <ele>222.5</ele>
        <time>2025-01-10T08:23:12.000Z</time>
      </trkpt>
      <trkpt lat="43.55821" lon="6.82553">
        <ele>222.3</ele>
        <time>2025-01-10T08:23:11.000Z</time>
      </trkpt>
      <trkpt lat="43.55818" lon="6.82558">
        <ele>221.9</ele>
        <time>2025-01-10T08:23:10.000Z</time>
      </trkpt>
      <trkpt lat="43.55816" lon="6.82561">
        <ele>221.7</ele>
        <time>2025-01-10T08:23:09.000Z</time>
      </trkpt>
      <trkpt lat="43.55814" lon="6.82564">
        <ele>221.5</ele>
        <time>2025-01-10T08:23:08.000Z</time>
      </trkpt>
      <trkpt lat="43.55811" lon="6.82568">
        <ele>221.2</ele>
        <time>2025-01-10T08:23:07.000Z</time>
      </trkpt>
      <trkpt lat="43.55807" lon="6.82571">
        <ele>220.9</ele>
        <time>2025-01-10T08:23:06.000Z</time>
      </trkpt>
      <trkpt lat="43.55804" lon="6.82573">
        <ele>220.6</ele>
        <time>2025-01-10T08:23:05.000Z</time>
      </trkpt>
      <trkpt lat="43.55801" lon="6.82575">
        <ele>220.3</ele>
        <time>2025-01-10T08:23:04.000Z</time>
      </trkpt>
      <trkpt lat="43.55797" lon="6.82576">
        <ele>220</ele>
        <time>2025-01-10T08:23:03.000Z</time>
      </trkpt>
      <trkpt lat="43.55793" lon="6.82577">
        <ele>219.7</ele>
        <time>2025-01-10T08:23:02.000Z</time>
      </trkpt>
      <trkpt lat="43.55789" lon="6.82578">
        <ele>219.5</ele>
        <time>2025-01-10T08:23:01.000Z</time>
      </trkpt>
      <trkpt lat="43.55786" lon="6.82578">
        <ele>219.3</ele>
        <time>2025-01-10T08:23:00.000Z</time>
      </trkpt>
      <trkpt lat="43.55782" lon="6.82578">
        <ele>219.1</ele>
        <time>2025-01-10T08:22:59.000Z</time>
      </trkpt>
      <trkpt lat="43.55778" lon="6.82577">
        <ele>218.9</ele>
        <time>2025-01-10T08:22:58.000Z</time>
      </trkpt>
      <trkpt lat="43.55774" lon="6.82576">
        <ele>218.7</ele>
        <time>2025-01-10T08:22:57.000Z</time>
      </trkpt>
      <trkpt lat="43.55771" lon="6.82575">
        <ele>218.5</ele>
        <time>2025-01-10T08:22:56.000Z</time>
      </trkpt>
      <trkpt lat="43.55767" lon="6.82574">
        <ele>218.3</ele>
        <time>2025-01-10T08:22:55.000Z</time>
      </trkpt>
      <trkpt lat="43.55764" lon="6.82572">
        <ele>218.1</ele>
        <time>2025-01-10T08:22:54.000Z</time>
      </trkpt>
      <trkpt lat="43.5576" lon="6.82572">
        <ele>217.9</ele>
        <time>2025-01-10T08:22:53.000Z</time>
      </trkpt>
      <trkpt lat="43.55756" lon="6.82574">
        <ele>217.7</ele>
        <time>2025-01-10T08:22:52.000Z</time>
      </trkpt>
      <trkpt lat="43.55753" lon="6.82575">
        <ele>217.5</ele>
        <time>2025-01-10T08:22:51.000Z</time>
      </trkpt>
      <trkpt lat="43.5575" lon="6.82579">
        <ele>217.2</ele>
        <time>2025-01-10T08:22:50.000Z</time>
      </trkpt>
      <trkpt lat="43.55748" lon="6.82583">
        <ele>216.9</ele>
        <time>2025-01-10T08:22:49.000Z</time>
      </trkpt>
      <trkpt lat="43.55747" lon="6.82588">
        <ele>216.7</ele>
        <time>2025-01-10T08:22:48.000Z</time>
      </trkpt>
      <trkpt lat="43.55745" lon="6.82593">
        <ele>216.3</ele>
        <time>2025-01-10T08:22:47.000Z</time>
      </trkpt>
      <trkpt lat="43.55743" lon="6.82597">
        <ele>216</ele>
        <time>2025-01-10T08:22:46.000Z</time>
      </trkpt>
      <trkpt lat="43.55742" lon="6.82601">
        <ele>215.8</ele>
        <time>2025-01-10T08:22:45.000Z</time>
      </trkpt>
      <trkpt lat="43.55741" lon="6.82607">
        <ele>215.4</ele>
        <time>2025-01-10T08:22:44.000Z</time>
      </trkpt>
      <trkpt lat="43.5574" lon="6.82612">
        <ele>215.1</ele>
        <time>2025-01-10T08:22:43.000Z</time>
      </trkpt>
      <trkpt lat="43.55739" lon="6.82617">
        <ele>214.8</ele>
        <time>2025-01-10T08:22:42.000Z</time>
      </trkpt>
      <trkpt lat="43.55737" lon="6.82621">
        <ele>214.6</ele>
        <time>2025-01-10T08:22:41.000Z</time>
      </trkpt>
      <trkpt lat="43.55735" lon="6.82627">
        <ele>214.2</ele>
        <time>2025-01-10T08:22:40.000Z</time>
      </trkpt>
      <trkpt lat="43.55734" lon="6.82631">
        <ele>213.9</ele>
        <time>2025-01-10T08:22:39.000Z</time>
      </trkpt>
      <trkpt lat="43.55732" lon="6.82636">
        <ele>213.6</ele>
        <time>2025-01-10T08:22:38.000Z</time>
      </trkpt>
      <trkpt lat="43.5573" lon="6.8264">
        <ele>213.3</ele>
        <time>2025-01-10T08:22:37.000Z</time>
      </trkpt>
      <trkpt lat="43.55727" lon="6.82644">
        <ele>213.1</ele>
        <time>2025-01-10T08:22:36.000Z</time>
      </trkpt>
      <trkpt lat="43.55725" lon="6.82648">
        <ele>212.8</ele>
        <time>2025-01-10T08:22:35.000Z</time>
      </trkpt>
      <trkpt lat="43.55722" lon="6.82651">
        <ele>212.6</ele>
        <time>2025-01-10T08:22:34.000Z</time>
      </trkpt>
      <trkpt lat="43.55721" lon="6.82654">
        <ele>212.4</ele>
        <time>2025-01-10T08:22:33.000Z</time>
      </trkpt>
      <trkpt lat="43.55718" lon="6.82657">
        <ele>212.1</ele>
        <time>2025-01-10T08:22:32.000Z</time>
      </trkpt>
      <trkpt lat="43.55715" lon="6.82659">
        <ele>211.9</ele>
        <time>2025-01-10T08:22:31.000Z</time>
      </trkpt>
      <trkpt lat="43.55713" lon="6.8266">
        <ele>211.7</ele>
        <time>2025-01-10T08:22:30.000Z</time>
      </trkpt>
      <trkpt lat="43.5571" lon="6.82661">
        <ele>211.5</ele>
        <time>2025-01-10T08:22:29.000Z</time>
      </trkpt>
      <trkpt lat="43.55708" lon="6.82662">
        <ele>211.3</ele>
        <time>2025-01-10T08:22:28.000Z</time>
      </trkpt>
      <trkpt lat="43.55705" lon="6.82664">
        <ele>211.1</ele>
        <time>2025-01-10T08:22:27.000Z</time>
      </trkpt>
      <trkpt lat="43.55703" lon="6.82665">
        <ele>210.9</ele>
        <time>2025-01-10T08:22:26.000Z</time>
      </trkpt>
      <trkpt lat="43.557" lon="6.82667">
        <ele>210.6</ele>
        <time>2025-01-10T08:22:25.000Z</time>
      </trkpt>
      <trkpt lat="43.55697" lon="6.82668">
        <ele>210.4</ele>
        <time>2025-01-10T08:22:24.000Z</time>
      </trkpt>
      <trkpt lat="43.55693" lon="6.8267">
        <ele>210</ele>
        <time>2025-01-10T08:22:23.000Z</time>
      </trkpt>
      <trkpt lat="43.55689" lon="6.82671">
        <ele>209.7</ele>
        <time>2025-01-10T08:22:22.000Z</time>
      </trkpt>
      <trkpt lat="43.55685" lon="6.82671">
        <ele>209.4</ele>
        <time>2025-01-10T08:22:21.000Z</time>
      </trkpt>
      <trkpt lat="43.55682" lon="6.82672">
        <ele>209.1</ele>
        <time>2025-01-10T08:22:20.000Z</time>
      </trkpt>
      <trkpt lat="43.55678" lon="6.82671">
        <ele>208.8</ele>
        <time>2025-01-10T08:22:19.000Z</time>
      </trkpt>
      <trkpt lat="43.55675" lon="6.82671">
        <ele>208.6</ele>
        <time>2025-01-10T08:22:18.000Z</time>
      </trkpt>
      <trkpt lat="43.55672" lon="6.82671">
        <ele>208.4</ele>
        <time>2025-01-10T08:22:17.000Z</time>
      </trkpt>
      <trkpt lat="43.55669" lon="6.8267">
        <ele>208.1</ele>
        <time>2025-01-10T08:22:16.000Z</time>
      </trkpt>
      <trkpt lat="43.55665" lon="6.82668">
        <ele>207.8</ele>
        <time>2025-01-10T08:22:15.000Z</time>
      </trkpt>
      <trkpt lat="43.55661" lon="6.82665">
        <ele>207.4</ele>
        <time>2025-01-10T08:22:14.000Z</time>
      </trkpt>
      <trkpt lat="43.55658" lon="6.82662">
        <ele>207.1</ele>
        <time>2025-01-10T08:22:13.000Z</time>
      </trkpt>
      <trkpt lat="43.55656" lon="6.82658">
        <ele>206.8</ele>
        <time>2025-01-10T08:22:12.000Z</time>
      </trkpt>
      <trkpt lat="43.55654" lon="6.82653">
        <ele>206.5</ele>
        <time>2025-01-10T08:22:11.000Z</time>
      </trkpt>
      <trkpt lat="43.55653" lon="6.82648">
        <ele>206.3</ele>
        <time>2025-01-10T08:22:10.000Z</time>
      </trkpt>
      <trkpt lat="43.55653" lon="6.82644">
        <ele>206</ele>
        <time>2025-01-10T08:22:09.000Z</time>
      </trkpt>
      <trkpt lat="43.55654" lon="6.82638">
        <ele>205.7</ele>
        <time>2025-01-10T08:22:08.000Z</time>
      </trkpt>
      <trkpt lat="43.55655" lon="6.82633">
        <ele>205.5</ele>
        <time>2025-01-10T08:22:07.000Z</time>
      </trkpt>
      <trkpt lat="43.55657" lon="6.82628">
        <ele>205.2</ele>
        <time>2025-01-10T08:22:06.000Z</time>
      </trkpt>
      <trkpt lat="43.55657" lon="6.82623">
        <ele>205</ele>
        <time>2025-01-10T08:22:05.000Z</time>
      </trkpt>
      <trkpt lat="43.55657" lon="6.82617">
        <ele>204.8</ele>
        <time>2025-01-10T08:22:04.000Z</time>
      </trkpt>
      <trkpt lat="43.55655" lon="6.82613">
        <ele>204.6</ele>
        <time>2025-01-10T08:22:03.000Z</time>
      </trkpt>
      <trkpt lat="43.55653" lon="6.82608">
        <ele>204.3</ele>
        <time>2025-01-10T08:22:02.000Z</time>
      </trkpt>
      <trkpt lat="43.55651" lon="6.82605">
        <ele>204.1</ele>
        <time>2025-01-10T08:22:01.000Z</time>
      </trkpt>
      <trkpt lat="43.55649" lon="6.82602">
        <ele>204</ele>
        <time>2025-01-10T08:22:00.000Z</time>
      </trkpt>
      <trkpt lat="43.55647" lon="6.82598">
        <ele>203.7</ele>
        <time>2025-01-10T08:21:59.000Z</time>
      </trkpt>
      <trkpt lat="43.55643" lon="6.82594">
        <ele>203.5</ele>
        <time>2025-01-10T08:21:58.000Z</time>
      </trkpt>
      <trkpt lat="43.55641" lon="6.82592">
        <ele>203.3</ele>
        <time>2025-01-10T08:21:57.000Z</time>
      </trkpt>
      <trkpt lat="43.55639" lon="6.82589">
        <ele>203.1</ele>
        <time>2025-01-10T08:21:56.000Z</time>
      </trkpt>
      <trkpt lat="43.55635" lon="6.82587">
        <ele>202.8</ele>
        <time>2025-01-10T08:21:55.000Z</time>
      </trkpt>
      <trkpt lat="43.55631" lon="6.82587">
        <ele>202.6</ele>
        <time>2025-01-10T08:21:54.000Z</time>
      </trkpt>
      <trkpt lat="43.55628" lon="6.82588">
        <ele>202.4</ele>
        <time>2025-01-10T08:21:53.000Z</time>
      </trkpt>
      <trkpt lat="43.55624" lon="6.8259">
        <ele>202.2</ele>
        <time>2025-01-10T08:21:52.000Z</time>
      </trkpt>
      <trkpt lat="43.55621" lon="6.82592">
        <ele>202</ele>
        <time>2025-01-10T08:21:51.000Z</time>
      </trkpt>
      <trkpt lat="43.55617" lon="6.82594">
        <ele>201.8</ele>
        <time>2025-01-10T08:21:50.000Z</time>
      </trkpt>
      <trkpt lat="43.55613" lon="6.82598">
        <ele>201.5</ele>
        <time>2025-01-10T08:21:49.000Z</time>
      </trkpt>
      <trkpt lat="43.5561" lon="6.82601">
        <ele>201.3</ele>
        <time>2025-01-10T08:21:48.000Z</time>
      </trkpt>
      <trkpt lat="43.55607" lon="6.82603">
        <ele>201.2</ele>
        <time>2025-01-10T08:21:47.000Z</time>
      </trkpt>
      <trkpt lat="43.55603" lon="6.82607">
        <ele>201</ele>
        <time>2025-01-10T08:21:46.000Z</time>
      </trkpt>
      <trkpt lat="43.556" lon="6.82608">
        <ele>200.8</ele>
        <time>2025-01-10T08:21:45.000Z</time>
      </trkpt>
      <trkpt lat="43.55595" lon="6.82611">
        <ele>200.6</ele>
        <time>2025-01-10T08:21:44.000Z</time>
      </trkpt>
      <trkpt lat="43.55592" lon="6.82612">
        <ele>200.4</ele>
        <time>2025-01-10T08:21:43.000Z</time>
      </trkpt>
      <trkpt lat="43.55588" lon="6.82614">
        <ele>200.2</ele>
        <time>2025-01-10T08:21:42.000Z</time>
      </trkpt>
      <trkpt lat="43.55585" lon="6.82615">
        <ele>200.1</ele>
        <time>2025-01-10T08:21:41.000Z</time>
      </trkpt>
      <trkpt lat="43.5558" lon="6.82616">
        <ele>199.9</ele>
        <time>2025-01-10T08:21:40.000Z</time>
      </trkpt>
      <trkpt lat="43.55576" lon="6.82616">
        <ele>199.7</ele>
        <time>2025-01-10T08:21:39.000Z</time>
      </trkpt>
      <trkpt lat="43.55573" lon="6.82616">
        <ele>199.6</ele>
        <time>2025-01-10T08:21:38.000Z</time>
      </trkpt>
      <trkpt lat="43.55568" lon="6.82616">
        <ele>199.3</ele>
        <time>2025-01-10T08:21:37.000Z</time>
      </trkpt>
      <trkpt lat="43.55564" lon="6.82615">
        <ele>199.2</ele>
        <time>2025-01-10T08:21:36.000Z</time>
      </trkpt>
      <trkpt lat="43.5556" lon="6.82615">
        <ele>199</ele>
        <time>2025-01-10T08:21:35.000Z</time>
      </trkpt>
      <trkpt lat="43.55557" lon="6.82614">
        <ele>198.9</ele>
        <time>2025-01-10T08:21:34.000Z</time>
      </trkpt>
      <trkpt lat="43.55553" lon="6.82612">
        <ele>198.7</ele>
        <time>2025-01-10T08:21:33.000Z</time>
      </trkpt>
      <trkpt lat="43.55549" lon="6.8261">
        <ele>198.6</ele>
        <time>2025-01-10T08:21:32.000Z</time>
      </trkpt>
      <trkpt lat="43.55546" lon="6.82608">
        <ele>198.4</ele>
        <time>2025-01-10T08:21:31.000Z</time>
      </trkpt>
      <trkpt lat="43.55542" lon="6.82605">
        <ele>198.3</ele>
        <time>2025-01-10T08:21:30.000Z</time>
      </trkpt>
      <trkpt lat="43.55539" lon="6.82603">
        <ele>198.2</ele>
        <time>2025-01-10T08:21:29.000Z</time>
      </trkpt>
      <trkpt lat="43.55535" lon="6.82598">
        <ele>198.1</ele>
        <time>2025-01-10T08:21:28.000Z</time>
      </trkpt>
      <trkpt lat="43.55533" lon="6.82594">
        <ele>198</ele>
        <time>2025-01-10T08:21:27.000Z</time>
      </trkpt>
      <trkpt lat="43.5553" lon="6.8259">
        <ele>198</ele>
        <time>2025-01-10T08:21:26.000Z</time>
      </trkpt>
      <trkpt lat="43.55528" lon="6.82585">
        <ele>197.9</ele>
        <time>2025-01-10T08:21:25.000Z</time>
      </trkpt>
      <trkpt lat="43.55525" lon="6.82581">
        <ele>197.8</ele>
        <time>2025-01-10T08:21:24.000Z</time>
      </trkpt>
      <trkpt lat="43.55523" lon="6.82578">
        <ele>197.8</ele>
        <time>2025-01-10T08:21:23.000Z</time>
      </trkpt>
      <trkpt lat="43.5552" lon="6.82574">
        <ele>197.8</ele>
        <time>2025-01-10T08:21:22.000Z</time>
      </trkpt>
      <trkpt lat="43.55517" lon="6.82572">
        <ele>197.7</ele>
        <time>2025-01-10T08:21:21.000Z</time>
      </trkpt>
      <trkpt lat="43.55513" lon="6.82571">
        <ele>197.7</ele>
        <time>2025-01-10T08:21:20.000Z</time>
      </trkpt>
      <trkpt lat="43.55508" lon="6.82572">
        <ele>197.7</ele>
        <time>2025-01-10T08:21:19.000Z</time>
      </trkpt>
      <trkpt lat="43.55505" lon="6.82573">
        <ele>197.7</ele>
        <time>2025-01-10T08:21:18.000Z</time>
      </trkpt>
      <trkpt lat="43.55501" lon="6.82574">
        <ele>197.7</ele>
        <time>2025-01-10T08:21:17.000Z</time>
      </trkpt>
      <trkpt lat="43.55497" lon="6.82576">
        <ele>197.7</ele>
        <time>2025-01-10T08:21:16.000Z</time>
      </trkpt>
      <trkpt lat="43.55494" lon="6.82577">
        <ele>197.7</ele>
        <time>2025-01-10T08:21:15.000Z</time>
      </trkpt>
      <trkpt lat="43.5549" lon="6.82578">
        <ele>197.7</ele>
        <time>2025-01-10T08:21:14.000Z</time>
      </trkpt>
      <trkpt lat="43.55485" lon="6.82578">
        <ele>197.7</ele>
        <time>2025-01-10T08:21:13.000Z</time>
      </trkpt>
      <trkpt lat="43.55481" lon="6.82578">
        <ele>197.8</ele>
        <time>2025-01-10T08:21:12.000Z</time>
      </trkpt>
      <trkpt lat="43.55478" lon="6.82576">
        <ele>197.8</ele>
        <time>2025-01-10T08:21:11.000Z</time>
      </trkpt>
      <trkpt lat="43.55475" lon="6.82575">
        <ele>197.8</ele>
        <time>2025-01-10T08:21:10.000Z</time>
      </trkpt>
      <trkpt lat="43.55471" lon="6.82574">
        <ele>197.8</ele>
        <time>2025-01-10T08:21:09.000Z</time>
      </trkpt>
      <trkpt lat="43.55468" lon="6.82572">
        <ele>197.9</ele>
        <time>2025-01-10T08:21:08.000Z</time>
      </trkpt>
      <trkpt lat="43.55465" lon="6.82572">
        <ele>197.9</ele>
        <time>2025-01-10T08:21:07.000Z</time>
      </trkpt>
      <trkpt lat="43.55462" lon="6.82571">
        <ele>197.9</ele>
        <time>2025-01-10T08:21:06.000Z</time>
      </trkpt>
      <trkpt lat="43.55459" lon="6.82571">
        <ele>197.9</ele>
        <time>2025-01-10T08:21:05.000Z</time>
      </trkpt>
      <trkpt lat="43.55455" lon="6.82571">
        <ele>197.9</ele>
        <time>2025-01-10T08:21:04.000Z</time>
      </trkpt>
      <trkpt lat="43.55453" lon="6.82572">
        <ele>197.9</ele>
        <time>2025-01-10T08:21:03.000Z</time>
      </trkpt>
      <trkpt lat="43.55449" lon="6.82572">
        <ele>197.9</ele>
        <time>2025-01-10T08:21:02.000Z</time>
      </trkpt>
      <trkpt lat="43.55445" lon="6.82573">
        <ele>197.8</ele>
        <time>2025-01-10T08:21:01.000Z</time>
      </trkpt>
      <trkpt lat="43.55442" lon="6.82573">
        <ele>197.7</ele>
        <time>2025-01-10T08:21:00.000Z</time>
      </trkpt>
      <trkpt lat="43.55439" lon="6.82574">
        <ele>197.6</ele>
        <time>2025-01-10T08:20:59.000Z</time>
      </trkpt>
      <trkpt lat="43.55436" lon="6.82574">
        <ele>197.5</ele>
        <time>2025-01-10T08:20:58.000Z</time>
      </trkpt>
      <trkpt lat="43.55434" lon="6.82574">
        <ele>197.4</ele>
        <time>2025-01-10T08:20:57.000Z</time>
      </trkpt>
      <trkpt lat="43.55431" lon="6.82575">
        <ele>197.2</ele>
        <time>2025-01-10T08:20:56.000Z</time>
      </trkpt>
      <trkpt lat="43.55427" lon="6.82576">
        <ele>197</ele>
        <time>2025-01-10T08:20:55.000Z</time>
      </trkpt>
      <trkpt lat="43.55423" lon="6.82576">
        <ele>196.8</ele>
        <time>2025-01-10T08:20:54.000Z</time>
      </trkpt>
      <trkpt lat="43.55421" lon="6.82577">
        <ele>196.6</ele>
        <time>2025-01-10T08:20:53.000Z</time>
      </trkpt>
      <trkpt lat="43.55417" lon="6.82577">
        <ele>196.3</ele>
        <time>2025-01-10T08:20:52.000Z</time>
      </trkpt>
      <trkpt lat="43.55414" lon="6.82576">
        <ele>196.1</ele>
        <time>2025-01-10T08:20:51.000Z</time>
      </trkpt>
      <trkpt lat="43.55411" lon="6.82576">
        <ele>195.9</ele>
        <time>2025-01-10T08:20:50.000Z</time>
      </trkpt>
      <trkpt lat="43.55408" lon="6.82576">
        <ele>195.6</ele>
        <time>2025-01-10T08:20:49.000Z</time>
      </trkpt>
      <trkpt lat="43.55404" lon="6.82577">
        <ele>195.3</ele>
        <time>2025-01-10T08:20:48.000Z</time>
      </trkpt>
      <trkpt lat="43.55401" lon="6.82577">
        <ele>195.1</ele>
        <time>2025-01-10T08:20:47.000Z</time>
      </trkpt>
      <trkpt lat="43.55397" lon="6.82577">
        <ele>194.8</ele>
        <time>2025-01-10T08:20:46.000Z</time>
      </trkpt>
      <trkpt lat="43.55394" lon="6.82577">
        <ele>194.5</ele>
        <time>2025-01-10T08:20:45.000Z</time>
      </trkpt>
      <trkpt lat="43.55392" lon="6.82577">
        <ele>194.3</ele>
        <time>2025-01-10T08:20:44.000Z</time>
      </trkpt>
      <trkpt lat="43.55389" lon="6.82577">
        <ele>194</ele>
        <time>2025-01-10T08:20:43.000Z</time>
      </trkpt>
      <trkpt lat="43.55386" lon="6.82576">
        <ele>193.8</ele>
        <time>2025-01-10T08:20:42.000Z</time>
      </trkpt>
      <trkpt lat="43.55383" lon="6.82576">
        <ele>193.5</ele>
        <time>2025-01-10T08:20:41.000Z</time>
      </trkpt>
      <trkpt lat="43.55381" lon="6.82575">
        <ele>193.3</ele>
        <time>2025-01-10T08:20:40.000Z</time>
      </trkpt>
      <trkpt lat="43.55378" lon="6.82574">
        <ele>193</ele>
        <time>2025-01-10T08:20:39.000Z</time>
      </trkpt>
      <trkpt lat="43.55375" lon="6.82573">
        <ele>192.7</ele>
        <time>2025-01-10T08:20:38.000Z</time>
      </trkpt>
      <trkpt lat="43.55372" lon="6.82572">
        <ele>192.4</ele>
        <time>2025-01-10T08:20:37.000Z</time>
      </trkpt>
      <trkpt lat="43.5537" lon="6.82571">
        <ele>192.2</ele>
        <time>2025-01-10T08:20:36.000Z</time>
      </trkpt>
      <trkpt lat="43.55366" lon="6.8257">
        <ele>191.8</ele>
        <time>2025-01-10T08:20:35.000Z</time>
      </trkpt>
      <trkpt lat="43.55364" lon="6.82569">
        <ele>191.6</ele>
        <time>2025-01-10T08:20:34.000Z</time>
      </trkpt>
      <trkpt lat="43.5536" lon="6.82568">
        <ele>191.2</ele>
        <time>2025-01-10T08:20:33.000Z</time>
      </trkpt>
      <trkpt lat="43.55358" lon="6.82568">
        <ele>191</ele>
        <time>2025-01-10T08:20:32.000Z</time>
      </trkpt>
      <trkpt lat="43.55355" lon="6.82567">
        <ele>190.7</ele>
        <time>2025-01-10T08:20:31.000Z</time>
      </trkpt>
      <trkpt lat="43.55351" lon="6.82566">
        <ele>190.3</ele>
        <time>2025-01-10T08:20:30.000Z</time>
      </trkpt>
      <trkpt lat="43.55347" lon="6.82564">
        <ele>189.9</ele>
        <time>2025-01-10T08:20:29.000Z</time>
      </trkpt>
      <trkpt lat="43.55344" lon="6.82562">
        <ele>189.6</ele>
        <time>2025-01-10T08:20:28.000Z</time>
      </trkpt>
      <trkpt lat="43.5534" lon="6.8256">
        <ele>189.3</ele>
        <time>2025-01-10T08:20:27.000Z</time>
      </trkpt>
      <trkpt lat="43.55338" lon="6.82558">
        <ele>189</ele>
        <time>2025-01-10T08:20:26.000Z</time>
      </trkpt>
      <trkpt lat="43.55334" lon="6.82556">
        <ele>188.6</ele>
        <time>2025-01-10T08:20:25.000Z</time>
      </trkpt>
      <trkpt lat="43.55331" lon="6.82553">
        <ele>188.2</ele>
        <time>2025-01-10T08:20:24.000Z</time>
      </trkpt>
      <trkpt lat="43.55328" lon="6.8255">
        <ele>187.9</ele>
        <time>2025-01-10T08:20:23.000Z</time>
      </trkpt>
      <trkpt lat="43.55325" lon="6.82548">
        <ele>187.6</ele>
        <time>2025-01-10T08:20:22.000Z</time>
      </trkpt>
      <trkpt lat="43.55323" lon="6.82545">
        <ele>187.3</ele>
        <time>2025-01-10T08:20:21.000Z</time>
      </trkpt>
      <trkpt lat="43.5532" lon="6.82541">
        <ele>187</ele>
        <time>2025-01-10T08:20:20.000Z</time>
      </trkpt>
      <trkpt lat="43.55318" lon="6.82538">
        <ele>186.7</ele>
        <time>2025-01-10T08:20:19.000Z</time>
      </trkpt>
      <trkpt lat="43.55316" lon="6.82535">
        <ele>186.5</ele>
        <time>2025-01-10T08:20:18.000Z</time>
      </trkpt>
      <trkpt lat="43.55313" lon="6.82532">
        <ele>186.2</ele>
        <time>2025-01-10T08:20:17.000Z</time>
      </trkpt>
      <trkpt lat="43.55311" lon="6.82529">
        <ele>186</ele>
        <time>2025-01-10T08:20:16.000Z</time>
      </trkpt>
      <trkpt lat="43.55308" lon="6.82524">
        <ele>185.7</ele>
        <time>2025-01-10T08:20:15.000Z</time>
      </trkpt>
      <trkpt lat="43.55306" lon="6.8252">
        <ele>185.4</ele>
        <time>2025-01-10T08:20:14.000Z</time>
      </trkpt>
      <trkpt lat="43.55304" lon="6.82517">
        <ele>185.1</ele>
        <time>2025-01-10T08:20:13.000Z</time>
      </trkpt>
      <trkpt lat="43.55302" lon="6.82514">
        <ele>184.8</ele>
        <time>2025-01-10T08:20:12.000Z</time>
      </trkpt>
      <trkpt lat="43.553" lon="6.82509">
        <ele>184.5</ele>
        <time>2025-01-10T08:20:11.000Z</time>
      </trkpt>
      <trkpt lat="43.55298" lon="6.82504">
        <ele>184.2</ele>
        <time>2025-01-10T08:20:10.000Z</time>
      </trkpt>
      <trkpt lat="43.55297" lon="6.82501">
        <ele>183.9</ele>
        <time>2025-01-10T08:20:09.000Z</time>
      </trkpt>
      <trkpt lat="43.55295" lon="6.82495">
        <ele>183.6</ele>
        <time>2025-01-10T08:20:08.000Z</time>
      </trkpt>
      <trkpt lat="43.55294" lon="6.82491">
        <ele>183.3</ele>
        <time>2025-01-10T08:20:07.000Z</time>
      </trkpt>
      <trkpt lat="43.55292" lon="6.82487">
        <ele>182.9</ele>
        <time>2025-01-10T08:20:06.000Z</time>
      </trkpt>
      <trkpt lat="43.55291" lon="6.82482">
        <ele>182.6</ele>
        <time>2025-01-10T08:20:05.000Z</time>
      </trkpt>
      <trkpt lat="43.5529" lon="6.82478">
        <ele>182.3</ele>
        <time>2025-01-10T08:20:04.000Z</time>
      </trkpt>
      <trkpt lat="43.55288" lon="6.82474">
        <ele>181.9</ele>
        <time>2025-01-10T08:20:03.000Z</time>
      </trkpt>
      <trkpt lat="43.55287" lon="6.82468">
        <ele>181.5</ele>
        <time>2025-01-10T08:20:02.000Z</time>
      </trkpt>
      <trkpt lat="43.55286" lon="6.82464">
        <ele>181.1</ele>
        <time>2025-01-10T08:20:01.000Z</time>
      </trkpt>
      <trkpt lat="43.55285" lon="6.8246">
        <ele>180.7</ele>
        <time>2025-01-10T08:20:00.000Z</time>
      </trkpt>
      <trkpt lat="43.55284" lon="6.82454">
        <ele>180.2</ele>
        <time>2025-01-10T08:19:59.000Z</time>
      </trkpt>
      <trkpt lat="43.55283" lon="6.82449">
        <ele>179.8</ele>
        <time>2025-01-10T08:19:58.000Z</time>
      </trkpt>
      <trkpt lat="43.55283" lon="6.82443">
        <ele>179.6</ele>
        <time>2025-01-10T08:19:57.000Z</time>
      </trkpt>
      <trkpt lat="43.55283" lon="6.82438">
        <ele>179.5</ele>
        <time>2025-01-10T08:19:56.000Z</time>
      </trkpt>
      <trkpt lat="43.55284" lon="6.82434">
        <ele>179.4</ele>
        <time>2025-01-10T08:19:55.000Z</time>
      </trkpt>
      <trkpt lat="43.55284" lon="6.8243">
        <ele>179.3</ele>
        <time>2025-01-10T08:19:54.000Z</time>
      </trkpt>
      <trkpt lat="43.55285" lon="6.82426">
        <ele>179.2</ele>
        <time>2025-01-10T08:19:53.000Z</time>
      </trkpt>
      <trkpt lat="43.55286" lon="6.82423">
        <ele>179.1</ele>
        <time>2025-01-10T08:19:52.000Z</time>
      </trkpt>
      <trkpt lat="43.55286" lon="6.82423">
        <ele>179.1</ele>
        <time>2025-01-10T08:19:51.000Z</time>
      </trkpt>
      <trkpt lat="43.55286" lon="6.82423">
        <ele>179.1</ele>
        <time>2025-01-10T08:19:50.000Z</time>
      </trkpt>
      <trkpt lat="43.55286" lon="6.82423">
        <ele>179.1</ele>
        <time>2025-01-10T08:19:49.000Z</time>
      </trkpt>
      <trkpt lat="43.55286" lon="6.82423">
        <ele>179.1</ele>
        <time>2025-01-10T08:19:48.000Z</time>
      </trkpt>
      <trkpt lat="43.55286" lon="6.82423">
        <ele>179.1</ele>
        <time>2025-01-10T08:19:47.000Z</time>
      </trkpt>
      <trkpt lat="43.55286" lon="6.82423">
        <ele>179.1</ele>
        <time>2025-01-10T08:19:46.000Z</time>
      </trkpt>
      <trkpt lat="43.55286" lon="6.82423">
        <ele>179.1</ele>
        <time>2025-01-10T08:19:45.000Z</time>
      </trkpt>
      <trkpt lat="43.55286" lon="6.82423">
        <ele>179.1</ele>
        <time>2025-01-10T08:19:44.000Z</time>
      </trkpt>
      <trkpt lat="43.55286" lon="6.82423">
        <ele>179.1</ele>
        <time>2025-01-10T08:19:43.000Z</time>
      </trkpt>
      <trkpt lat="43.55286" lon="6.82423">
        <ele>179.1</ele>
        <time>2025-01-10T08:19:42.000Z</time>
      </trkpt>
      <trkpt lat="43.55286" lon="6.82423">
        <ele>179.1</ele>
        <time>2025-01-10T08:19:41.000Z</time>
      </trkpt>
      <trkpt lat="43.55286" lon="6.82423">
        <ele>179.1</ele>
        <time>2025-01-10T08:19:40.000Z</time>
      </trkpt>
      <trkpt lat="43.55285" lon="6.82424">
        <ele>179</ele>
        <time>2025-01-10T08:19:39.000Z</time>
      </trkpt>
      <trkpt lat="43.55285" lon="6.82425">
        <ele>179</ele>
        <time>2025-01-10T08:19:38.000Z</time>
      </trkpt>
      <trkpt lat="43.55283" lon="6.82426">
        <ele>179</ele>
        <time>2025-01-10T08:19:37.000Z</time>
      </trkpt>
      <trkpt lat="43.55282" lon="6.82427">
        <ele>179</ele>
        <time>2025-01-10T08:19:36.000Z</time>
      </trkpt>
      <trkpt lat="43.55282" lon="6.82428">
        <ele>179</ele>
        <time>2025-01-10T08:19:35.000Z</time>
      </trkpt>
      <trkpt lat="43.55282" lon="6.82427">
        <ele>179</ele>
        <time>2025-01-10T08:19:34.000Z</time>
      </trkpt>
      <trkpt lat="43.55282" lon="6.82427">
        <ele>179</ele>
        <time>2025-01-10T08:19:33.000Z</time>
      </trkpt>
      <trkpt lat="43.55283" lon="6.82427">
        <ele>179</ele>
        <time>2025-01-10T08:19:32.000Z</time>
      </trkpt>
      <trkpt lat="43.55283" lon="6.82427">
        <ele>179</ele>
        <time>2025-01-10T08:19:31.000Z</time>
      </trkpt>
      <trkpt lat="43.55283" lon="6.82427">
        <ele>178.9</ele>
        <time>2025-01-10T08:19:30.000Z</time>
      </trkpt>
      <trkpt lat="43.55283" lon="6.82426">
        <ele>178.9</ele>
        <time>2025-01-10T08:19:29.000Z</time>
      </trkpt>
      <trkpt lat="43.55284" lon="6.82425">
        <ele>178.9</ele>
        <time>2025-01-10T08:19:28.000Z</time>
      </trkpt>
      <trkpt lat="43.55284" lon="6.82424">
        <ele>178.9</ele>
        <time>2025-01-10T08:19:27.000Z</time>
      </trkpt>
      <trkpt lat="43.55285" lon="6.82422">
        <ele>178.9</ele>
        <time>2025-01-10T08:19:26.000Z</time>
      </trkpt>
      <trkpt lat="43.55286" lon="6.8242">
        <ele>178.9</ele>
        <time>2025-01-10T08:19:25.000Z</time>
      </trkpt>
      <trkpt lat="43.55289" lon="6.82416">
        <ele>178.8</ele>
        <time>2025-01-10T08:19:24.000Z</time>
      </trkpt>
      <trkpt lat="43.55291" lon="6.82414">
        <ele>178.8</ele>
        <time>2025-01-10T08:19:23.000Z</time>
      </trkpt>
      <trkpt lat="43.55294" lon="6.82411">
        <ele>178.8</ele>
        <time>2025-01-10T08:19:22.000Z</time>
      </trkpt>
      <trkpt lat="43.55297" lon="6.82409">
        <ele>178.7</ele>
        <time>2025-01-10T08:19:21.000Z</time>
      </trkpt>
      <trkpt lat="43.55301" lon="6.82406">
        <ele>178.7</ele>
        <time>2025-01-10T08:19:20.000Z</time>
      </trkpt>
      <trkpt lat="43.55303" lon="6.82402">
        <ele>178.6</ele>
        <time>2025-01-10T08:19:19.000Z</time>
      </trkpt>
      <trkpt lat="43.55306" lon="6.82398">
        <ele>178.6</ele>
        <time>2025-01-10T08:19:18.000Z</time>
      </trkpt>
      <trkpt lat="43.55309" lon="6.82393">
        <ele>178.5</ele>
        <time>2025-01-10T08:19:17.000Z</time>
      </trkpt>
      <trkpt lat="43.55311" lon="6.8239">
        <ele>178.5</ele>
        <time>2025-01-10T08:19:16.000Z</time>
      </trkpt>
      <trkpt lat="43.55314" lon="6.82385">
        <ele>178.5</ele>
        <time>2025-01-10T08:19:15.000Z</time>
      </trkpt>
      <trkpt lat="43.55318" lon="6.8238">
        <ele>178.4</ele>
        <time>2025-01-10T08:19:14.000Z</time>
      </trkpt>
      <trkpt lat="43.55321" lon="6.82375">
        <ele>178.4</ele>
        <time>2025-01-10T08:19:13.000Z</time>
      </trkpt>
      <trkpt lat="43.55323" lon="6.82371">
        <ele>178.4</ele>
        <time>2025-01-10T08:19:12.000Z</time>
      </trkpt>
      <trkpt lat="43.55326" lon="6.82366">
        <ele>178.4</ele>
        <time>2025-01-10T08:19:11.000Z</time>
      </trkpt>
      <trkpt lat="43.55328" lon="6.82362">
        <ele>178.4</ele>
        <time>2025-01-10T08:19:10.000Z</time>
      </trkpt>
      <trkpt lat="43.55331" lon="6.82356">
        <ele>178.4</ele>
        <time>2025-01-10T08:19:09.000Z</time>
      </trkpt>
      <trkpt lat="43.55334" lon="6.82351">
        <ele>178.4</ele>
        <time>2025-01-10T08:19:08.000Z</time>
      </trkpt>
      <trkpt lat="43.55336" lon="6.82347">
        <ele>178.5</ele>
        <time>2025-01-10T08:19:07.000Z</time>
      </trkpt>
      <trkpt lat="43.55339" lon="6.82341">
        <ele>178.6</ele>
        <time>2025-01-10T08:19:06.000Z</time>
      </trkpt>
      <trkpt lat="43.55341" lon="6.82336">
        <ele>178.7</ele>
        <time>2025-01-10T08:19:05.000Z</time>
      </trkpt>
      <trkpt lat="43.55344" lon="6.82331">
        <ele>178.8</ele>
        <time>2025-01-10T08:19:04.000Z</time>
      </trkpt>
      <trkpt lat="43.55346" lon="6.82325">
        <ele>178.9</ele>
        <time>2025-01-10T08:19:03.000Z</time>
      </trkpt>
      <trkpt lat="43.55348" lon="6.8232">
        <ele>179</ele>
        <time>2025-01-10T08:19:02.000Z</time>
      </trkpt>
      <trkpt lat="43.55351" lon="6.82315">
        <ele>179</ele>
        <time>2025-01-10T08:19:01.000Z</time>
      </trkpt>
      <trkpt lat="43.55353" lon="6.82311">
        <ele>179.1</ele>
        <time>2025-01-10T08:19:00.000Z</time>
      </trkpt>
      <trkpt lat="43.55356" lon="6.82308">
        <ele>179.2</ele>
        <time>2025-01-10T08:18:59.000Z</time>
      </trkpt>
      <trkpt lat="43.55359" lon="6.82304">
        <ele>179.3</ele>
        <time>2025-01-10T08:18:58.000Z</time>
      </trkpt>
      <trkpt lat="43.55362" lon="6.82301">
        <ele>179.4</ele>
        <time>2025-01-10T08:18:57.000Z</time>
      </trkpt>
      <trkpt lat="43.55367" lon="6.82297">
        <ele>179.4</ele>
        <time>2025-01-10T08:18:56.000Z</time>
      </trkpt>
      <trkpt lat="43.5537" lon="6.82294">
        <ele>179.5</ele>
        <time>2025-01-10T08:18:55.000Z</time>
      </trkpt>
      <trkpt lat="43.55374" lon="6.82291">
        <ele>179.6</ele>
        <time>2025-01-10T08:18:54.000Z</time>
      </trkpt>
      <trkpt lat="43.55378" lon="6.82288">
        <ele>179.7</ele>
        <time>2025-01-10T08:18:53.000Z</time>
      </trkpt>
      <trkpt lat="43.55381" lon="6.82286">
        <ele>179.7</ele>
        <time>2025-01-10T08:18:52.000Z</time>
      </trkpt>
      <trkpt lat="43.55385" lon="6.82282">
        <ele>179.8</ele>
        <time>2025-01-10T08:18:51.000Z</time>
      </trkpt>
      <trkpt lat="43.55389" lon="6.8228">
        <ele>179.8</ele>
        <time>2025-01-10T08:18:50.000Z</time>
      </trkpt>
      <trkpt lat="43.55393" lon="6.82277">
        <ele>179.9</ele>
        <time>2025-01-10T08:18:49.000Z</time>
      </trkpt>
      <trkpt lat="43.55397" lon="6.82274">
        <ele>179.9</ele>
        <time>2025-01-10T08:18:48.000Z</time>
      </trkpt>
      <trkpt lat="43.55401" lon="6.82272">
        <ele>180</ele>
        <time>2025-01-10T08:18:47.000Z</time>
      </trkpt>
      <trkpt lat="43.55406" lon="6.8227">
        <ele>180</ele>
        <time>2025-01-10T08:18:46.000Z</time>
      </trkpt>
      <trkpt lat="43.5541" lon="6.82269">
        <ele>180.1</ele>
        <time>2025-01-10T08:18:45.000Z</time>
      </trkpt>
      <trkpt lat="43.55415" lon="6.82267">
        <ele>180.1</ele>
        <time>2025-01-10T08:18:44.000Z</time>
      </trkpt>
      <trkpt lat="43.55418" lon="6.82266">
        <ele>180.2</ele>
        <time>2025-01-10T08:18:43.000Z</time>
      </trkpt>
      <trkpt lat="43.55423" lon="6.82264">
        <ele>180.3</ele>
        <time>2025-01-10T08:18:42.000Z</time>
      </trkpt>
      <trkpt lat="43.55427" lon="6.82262">
        <ele>180.3</ele>
        <time>2025-01-10T08:18:41.000Z</time>
      </trkpt>
      <trkpt lat="43.55431" lon="6.82259">
        <ele>180.3</ele>
        <time>2025-01-10T08:18:40.000Z</time>
      </trkpt>
      <trkpt lat="43.55434" lon="6.82257">
        <ele>180.4</ele>
        <time>2025-01-10T08:18:39.000Z</time>
      </trkpt>
      <trkpt lat="43.55438" lon="6.82254">
        <ele>180.4</ele>
        <time>2025-01-10T08:18:38.000Z</time>
      </trkpt>
      <trkpt lat="43.55441" lon="6.82248">
        <ele>180.5</ele>
        <time>2025-01-10T08:18:37.000Z</time>
      </trkpt>
      <trkpt lat="43.55444" lon="6.82243">
        <ele>180.5</ele>
        <time>2025-01-10T08:18:36.000Z</time>
      </trkpt>
      <trkpt lat="43.55446" lon="6.8224">
        <ele>180.5</ele>
        <time>2025-01-10T08:18:35.000Z</time>
      </trkpt>
      <trkpt lat="43.55449" lon="6.82236">
        <ele>180.6</ele>
        <time>2025-01-10T08:18:34.000Z</time>
      </trkpt>
      <trkpt lat="43.55454" lon="6.82231">
        <ele>180.6</ele>
        <time>2025-01-10T08:18:33.000Z</time>
      </trkpt>
      <trkpt lat="43.55457" lon="6.82227">
        <ele>180.7</ele>
        <time>2025-01-10T08:18:32.000Z</time>
      </trkpt>
      <trkpt lat="43.5546" lon="6.82225">
        <ele>180.7</ele>
        <time>2025-01-10T08:18:31.000Z</time>
      </trkpt>
      <trkpt lat="43.55464" lon="6.8222">
        <ele>180.8</ele>
        <time>2025-01-10T08:18:30.000Z</time>
      </trkpt>
      <trkpt lat="43.55466" lon="6.82217">
        <ele>180.8</ele>
        <time>2025-01-10T08:18:29.000Z</time>
      </trkpt>
      <trkpt lat="43.55469" lon="6.82212">
        <ele>180.9</ele>
        <time>2025-01-10T08:18:28.000Z</time>
      </trkpt>
      <trkpt lat="43.55472" lon="6.82208">
        <ele>180.9</ele>
        <time>2025-01-10T08:18:27.000Z</time>
      </trkpt>
      <trkpt lat="43.55474" lon="6.82204">
        <ele>181</ele>
        <time>2025-01-10T08:18:26.000Z</time>
      </trkpt>
      <trkpt lat="43.55478" lon="6.82201">
        <ele>181</ele>
        <time>2025-01-10T08:18:25.000Z</time>
      </trkpt>
      <trkpt lat="43.5548" lon="6.82198">
        <ele>181.1</ele>
        <time>2025-01-10T08:18:24.000Z</time>
      </trkpt>
      <trkpt lat="43.55483" lon="6.82196">
        <ele>181.1</ele>
        <time>2025-01-10T08:18:23.000Z</time>
      </trkpt>
      <trkpt lat="43.55484" lon="6.82194">
        <ele>181.1</ele>
        <time>2025-01-10T08:18:22.000Z</time>
      </trkpt>
      <trkpt lat="43.55487" lon="6.82192">
        <ele>181.2</ele>
        <time>2025-01-10T08:18:21.000Z</time>
      </trkpt>
      <trkpt lat="43.5549" lon="6.82189">
        <ele>181.1</ele>
        <time>2025-01-10T08:18:20.000Z</time>
      </trkpt>
      <trkpt lat="43.55492" lon="6.82185">
        <ele>181.1</ele>
        <time>2025-01-10T08:18:19.000Z</time>
      </trkpt>
      <trkpt lat="43.55494" lon="6.82181">
        <ele>181.1</ele>
        <time>2025-01-10T08:18:18.000Z</time>
      </trkpt>
      <trkpt lat="43.55495" lon="6.82176">
        <ele>181.1</ele>
        <time>2025-01-10T08:18:17.000Z</time>
      </trkpt>
      <trkpt lat="43.55496" lon="6.82171">
        <ele>181</ele>
        <time>2025-01-10T08:18:16.000Z</time>
      </trkpt>
      <trkpt lat="43.55498" lon="6.82166">
        <ele>181</ele>
        <time>2025-01-10T08:18:15.000Z</time>
      </trkpt>
      <trkpt lat="43.55499" lon="6.82161">
        <ele>180.9</ele>
        <time>2025-01-10T08:18:14.000Z</time>
      </trkpt>
      <trkpt lat="43.55501" lon="6.82158">
        <ele>180.9</ele>
        <time>2025-01-10T08:18:13.000Z</time>
      </trkpt>
      <trkpt lat="43.55503" lon="6.82154">
        <ele>180.9</ele>
        <time>2025-01-10T08:18:12.000Z</time>
      </trkpt>
      <trkpt lat="43.55505" lon="6.82149">
        <ele>180.8</ele>
        <time>2025-01-10T08:18:11.000Z</time>
      </trkpt>
      <trkpt lat="43.55507" lon="6.82143">
        <ele>180.8</ele>
        <time>2025-01-10T08:18:10.000Z</time>
      </trkpt>
      <trkpt lat="43.55509" lon="6.82139">
        <ele>180.8</ele>
        <time>2025-01-10T08:18:09.000Z</time>
      </trkpt>
      <trkpt lat="43.55511" lon="6.82134">
        <ele>180.7</ele>
        <time>2025-01-10T08:18:08.000Z</time>
      </trkpt>
      <trkpt lat="43.55513" lon="6.82129">
        <ele>180.7</ele>
        <time>2025-01-10T08:18:07.000Z</time>
      </trkpt>
      <trkpt lat="43.55515" lon="6.82123">
        <ele>180.7</ele>
        <time>2025-01-10T08:18:06.000Z</time>
      </trkpt>
      <trkpt lat="43.55517" lon="6.82119">
        <ele>180.7</ele>
        <time>2025-01-10T08:18:05.000Z</time>
      </trkpt>
      <trkpt lat="43.55519" lon="6.82116">
        <ele>180.7</ele>
        <time>2025-01-10T08:18:04.000Z</time>
      </trkpt>
      <trkpt lat="43.55522" lon="6.82112">
        <ele>180.7</ele>
        <time>2025-01-10T08:18:03.000Z</time>
      </trkpt>
      <trkpt lat="43.55524" lon="6.82109">
        <ele>180.7</ele>
        <time>2025-01-10T08:18:02.000Z</time>
      </trkpt>
      <trkpt lat="43.55527" lon="6.82104">
        <ele>180.7</ele>
        <time>2025-01-10T08:18:01.000Z</time>
      </trkpt>
      <trkpt lat="43.55529" lon="6.821">
        <ele>180.7</ele>
        <time>2025-01-10T08:18:00.000Z</time>
      </trkpt>
      <trkpt lat="43.5553" lon="6.82096">
        <ele>180.6</ele>
        <time>2025-01-10T08:17:59.000Z</time>
      </trkpt>
      <trkpt lat="43.55531" lon="6.8209">
        <ele>180.6</ele>
        <time>2025-01-10T08:17:58.000Z</time>
      </trkpt>
      <trkpt lat="43.55533" lon="6.82085">
        <ele>180.6</ele>
        <time>2025-01-10T08:17:57.000Z</time>
      </trkpt>
      <trkpt lat="43.55534" lon="6.82081">
        <ele>180.5</ele>
        <time>2025-01-10T08:17:56.000Z</time>
      </trkpt>
      <trkpt lat="43.55536" lon="6.82078">
        <ele>180.5</ele>
        <time>2025-01-10T08:17:55.000Z</time>
      </trkpt>
      <trkpt lat="43.55538" lon="6.82073">
        <ele>180.4</ele>
        <time>2025-01-10T08:17:54.000Z</time>
      </trkpt>
      <trkpt lat="43.55539" lon="6.8207">
        <ele>180.3</ele>
        <time>2025-01-10T08:17:53.000Z</time>
      </trkpt>
      <trkpt lat="43.55539" lon="6.82064">
        <ele>180.2</ele>
        <time>2025-01-10T08:17:52.000Z</time>
      </trkpt>
      <trkpt lat="43.5554" lon="6.8206">
        <ele>180.1</ele>
        <time>2025-01-10T08:17:51.000Z</time>
      </trkpt>
      <trkpt lat="43.5554" lon="6.82055">
        <ele>180</ele>
        <time>2025-01-10T08:17:50.000Z</time>
      </trkpt>
      <trkpt lat="43.5554" lon="6.8205">
        <ele>179.9</ele>
        <time>2025-01-10T08:17:49.000Z</time>
      </trkpt>
      <trkpt lat="43.55541" lon="6.82045">
        <ele>179.7</ele>
        <time>2025-01-10T08:17:48.000Z</time>
      </trkpt>
      <trkpt lat="43.55542" lon="6.8204">
        <ele>179.6</ele>
        <time>2025-01-10T08:17:47.000Z</time>
      </trkpt>
      <trkpt lat="43.55543" lon="6.82036">
        <ele>179.5</ele>
        <time>2025-01-10T08:17:46.000Z</time>
      </trkpt>
      <trkpt lat="43.55545" lon="6.82031">
        <ele>179.3</ele>
        <time>2025-01-10T08:17:45.000Z</time>
      </trkpt>
      <trkpt lat="43.55547" lon="6.82027">
        <ele>179.2</ele>
        <time>2025-01-10T08:17:44.000Z</time>
      </trkpt>
      <trkpt lat="43.55549" lon="6.82023">
        <ele>179</ele>
        <time>2025-01-10T08:17:43.000Z</time>
      </trkpt>
      <trkpt lat="43.5555" lon="6.8202">
        <ele>178.9</ele>
        <time>2025-01-10T08:17:42.000Z</time>
      </trkpt>
      <trkpt lat="43.55552" lon="6.82016">
        <ele>178.8</ele>
        <time>2025-01-10T08:17:41.000Z</time>
      </trkpt>
      <trkpt lat="43.55554" lon="6.82012">
        <ele>178.6</ele>
        <time>2025-01-10T08:17:40.000Z</time>
      </trkpt>
      <trkpt lat="43.55557" lon="6.82008">
        <ele>178.4</ele>
        <time>2025-01-10T08:17:39.000Z</time>
      </trkpt>
      <trkpt lat="43.55558" lon="6.82004">
        <ele>178.2</ele>
        <time>2025-01-10T08:17:38.000Z</time>
      </trkpt>
      <trkpt lat="43.55559" lon="6.82001">
        <ele>178.1</ele>
        <time>2025-01-10T08:17:37.000Z</time>
      </trkpt>
      <trkpt lat="43.5556" lon="6.81995">
        <ele>177.9</ele>
        <time>2025-01-10T08:17:36.000Z</time>
      </trkpt>
      <trkpt lat="43.5556" lon="6.81989">
        <ele>177.7</ele>
        <time>2025-01-10T08:17:35.000Z</time>
      </trkpt>
      <trkpt lat="43.55561" lon="6.81984">
        <ele>177.6</ele>
        <time>2025-01-10T08:17:34.000Z</time>
      </trkpt>
      <trkpt lat="43.55561" lon="6.81979">
        <ele>177.5</ele>
        <time>2025-01-10T08:17:33.000Z</time>
      </trkpt>
      <trkpt lat="43.55563" lon="6.81975">
        <ele>177.3</ele>
        <time>2025-01-10T08:17:32.000Z</time>
      </trkpt>
      <trkpt lat="43.55564" lon="6.81971">
        <ele>177.2</ele>
        <time>2025-01-10T08:17:31.000Z</time>
      </trkpt>
      <trkpt lat="43.55566" lon="6.81966">
        <ele>177</ele>
        <time>2025-01-10T08:17:30.000Z</time>
      </trkpt>
      <trkpt lat="43.55569" lon="6.81962">
        <ele>176.8</ele>
        <time>2025-01-10T08:17:29.000Z</time>
      </trkpt>
      <trkpt lat="43.5557" lon="6.81959">
        <ele>176.7</ele>
        <time>2025-01-10T08:17:28.000Z</time>
      </trkpt>
      <trkpt lat="43.55573" lon="6.81954">
        <ele>176.5</ele>
        <time>2025-01-10T08:17:27.000Z</time>
      </trkpt>
      <trkpt lat="43.55575" lon="6.81951">
        <ele>176.3</ele>
        <time>2025-01-10T08:17:26.000Z</time>
      </trkpt>
      <trkpt lat="43.55577" lon="6.81947">
        <ele>176.1</ele>
        <time>2025-01-10T08:17:25.000Z</time>
      </trkpt>
      <trkpt lat="43.55579" lon="6.81942">
        <ele>175.9</ele>
        <time>2025-01-10T08:17:24.000Z</time>
      </trkpt>
      <trkpt lat="43.55581" lon="6.81939">
        <ele>175.8</ele>
        <time>2025-01-10T08:17:23.000Z</time>
      </trkpt>
      <trkpt lat="43.55583" lon="6.81935">
        <ele>175.6</ele>
        <time>2025-01-10T08:17:22.000Z</time>
      </trkpt>
      <trkpt lat="43.55585" lon="6.8193">
        <ele>175.4</ele>
        <time>2025-01-10T08:17:21.000Z</time>
      </trkpt>
      <trkpt lat="43.55586" lon="6.81926">
        <ele>175.2</ele>
        <time>2025-01-10T08:17:20.000Z</time>
      </trkpt>
      <trkpt lat="43.55587" lon="6.81923">
        <ele>175.1</ele>
        <time>2025-01-10T08:17:19.000Z</time>
      </trkpt>
      <trkpt lat="43.55588" lon="6.81918">
        <ele>175</ele>
        <time>2025-01-10T08:17:18.000Z</time>
      </trkpt>
      <trkpt lat="43.55589" lon="6.81916">
        <ele>174.9</ele>
        <time>2025-01-10T08:17:17.000Z</time>
      </trkpt>
      <trkpt lat="43.5559" lon="6.81912">
        <ele>174.7</ele>
        <time>2025-01-10T08:17:16.000Z</time>
      </trkpt>
      <trkpt lat="43.5559" lon="6.81908">
        <ele>174.5</ele>
        <time>2025-01-10T08:17:15.000Z</time>
      </trkpt>
      <trkpt lat="43.5559" lon="6.81905">
        <ele>174.4</ele>
        <time>2025-01-10T08:17:14.000Z</time>
      </trkpt>
      <trkpt lat="43.55589" lon="6.81901">
        <ele>174.2</ele>
        <time>2025-01-10T08:17:13.000Z</time>
      </trkpt>
      <trkpt lat="43.55588" lon="6.81896">
        <ele>174</ele>
        <time>2025-01-10T08:17:12.000Z</time>
      </trkpt>
      <trkpt lat="43.55587" lon="6.81892">
        <ele>173.8</ele>
        <time>2025-01-10T08:17:11.000Z</time>
      </trkpt>
      <trkpt lat="43.55587" lon="6.81888">
        <ele>173.6</ele>
        <time>2025-01-10T08:17:10.000Z</time>
      </trkpt>
      <trkpt lat="43.55587" lon="6.81883">
        <ele>173.4</ele>
        <time>2025-01-10T08:17:09.000Z</time>
      </trkpt>
      <trkpt lat="43.55587" lon="6.81879">
        <ele>173.3</ele>
        <time>2025-01-10T08:17:08.000Z</time>
      </trkpt>
      <trkpt lat="43.55587" lon="6.81873">
        <ele>173</ele>
        <time>2025-01-10T08:17:07.000Z</time>
      </trkpt>
      <trkpt lat="43.55588" lon="6.81868">
        <ele>172.8</ele>
        <time>2025-01-10T08:17:06.000Z</time>
      </trkpt>
      <trkpt lat="43.55588" lon="6.81864">
        <ele>172.7</ele>
        <time>2025-01-10T08:17:05.000Z</time>
      </trkpt>
      <trkpt lat="43.55588" lon="6.81859">
        <ele>172.5</ele>
        <time>2025-01-10T08:17:04.000Z</time>
      </trkpt>
      <trkpt lat="43.55588" lon="6.81854">
        <ele>172.3</ele>
        <time>2025-01-10T08:17:03.000Z</time>
      </trkpt>
      <trkpt lat="43.55587" lon="6.8185">
        <ele>172.2</ele>
        <time>2025-01-10T08:17:02.000Z</time>
      </trkpt>
      <trkpt lat="43.55587" lon="6.81846">
        <ele>172.1</ele>
        <time>2025-01-10T08:17:01.000Z</time>
      </trkpt>
      <trkpt lat="43.55586" lon="6.8184">
        <ele>171.9</ele>
        <time>2025-01-10T08:17:00.000Z</time>
      </trkpt>
      <trkpt lat="43.55586" lon="6.81836">
        <ele>171.8</ele>
        <time>2025-01-10T08:16:59.000Z</time>
      </trkpt>
      <trkpt lat="43.55585" lon="6.81829">
        <ele>171.6</ele>
        <time>2025-01-10T08:16:58.000Z</time>
      </trkpt>
      <trkpt lat="43.55585" lon="6.81824">
        <ele>171.4</ele>
        <time>2025-01-10T08:16:57.000Z</time>
      </trkpt>
      <trkpt lat="43.55585" lon="6.8182">
        <ele>171.3</ele>
        <time>2025-01-10T08:16:56.000Z</time>
      </trkpt>
      <trkpt lat="43.55585" lon="6.81815">
        <ele>171.1</ele>
        <time>2025-01-10T08:16:55.000Z</time>
      </trkpt>
      <trkpt lat="43.55584" lon="6.81809">
        <ele>171</ele>
        <time>2025-01-10T08:16:54.000Z</time>
      </trkpt>
      <trkpt lat="43.55584" lon="6.81804">
        <ele>170.8</ele>
        <time>2025-01-10T08:16:53.000Z</time>
      </trkpt>
      <trkpt lat="43.55584" lon="6.81799">
        <ele>170.7</ele>
        <time>2025-01-10T08:16:52.000Z</time>
      </trkpt>
      <trkpt lat="43.55584" lon="6.81794">
        <ele>170.6</ele>
        <time>2025-01-10T08:16:51.000Z</time>
      </trkpt>
      <trkpt lat="43.55584" lon="6.81789">
        <ele>170.4</ele>
        <time>2025-01-10T08:16:50.000Z</time>
      </trkpt>
      <trkpt lat="43.55584" lon="6.81784">
        <ele>170.3</ele>
        <time>2025-01-10T08:16:49.000Z</time>
      </trkpt>
      <trkpt lat="43.55584" lon="6.81779">
        <ele>170.2</ele>
        <time>2025-01-10T08:16:48.000Z</time>
      </trkpt>
      <trkpt lat="43.55584" lon="6.81775">
        <ele>170.1</ele>
        <time>2025-01-10T08:16:47.000Z</time>
      </trkpt>
      <trkpt lat="43.55583" lon="6.8177">
        <ele>170</ele>
        <time>2025-01-10T08:16:46.000Z</time>
      </trkpt>
      <trkpt lat="43.55583" lon="6.81764">
        <ele>169.9</ele>
        <time>2025-01-10T08:16:45.000Z</time>
      </trkpt>
      <trkpt lat="43.55583" lon="6.8176">
        <ele>169.8</ele>
        <time>2025-01-10T08:16:44.000Z</time>
      </trkpt>
      <trkpt lat="43.55583" lon="6.81756">
        <ele>169.7</ele>
        <time>2025-01-10T08:16:43.000Z</time>
      </trkpt>
      <trkpt lat="43.55582" lon="6.81751">
        <ele>169.6</ele>
        <time>2025-01-10T08:16:42.000Z</time>
      </trkpt>
      <trkpt lat="43.55582" lon="6.81747">
        <ele>169.5</ele>
        <time>2025-01-10T08:16:41.000Z</time>
      </trkpt>
      <trkpt lat="43.55582" lon="6.81741">
        <ele>169.4</ele>
        <time>2025-01-10T08:16:40.000Z</time>
      </trkpt>
      <trkpt lat="43.55581" lon="6.81735">
        <ele>169.2</ele>
        <time>2025-01-10T08:16:39.000Z</time>
      </trkpt>
      <trkpt lat="43.55581" lon="6.8173">
        <ele>169.1</ele>
        <time>2025-01-10T08:16:38.000Z</time>
      </trkpt>
      <trkpt lat="43.5558" lon="6.81726">
        <ele>169</ele>
        <time>2025-01-10T08:16:37.000Z</time>
      </trkpt>
      <trkpt lat="43.5558" lon="6.8172">
        <ele>168.8</ele>
        <time>2025-01-10T08:16:36.000Z</time>
      </trkpt>
      <trkpt lat="43.55579" lon="6.81714">
        <ele>168.6</ele>
        <time>2025-01-10T08:16:35.000Z</time>
      </trkpt>
      <trkpt lat="43.55579" lon="6.8171">
        <ele>168.5</ele>
        <time>2025-01-10T08:16:34.000Z</time>
      </trkpt>
      <trkpt lat="43.55579" lon="6.81705">
        <ele>168.4</ele>
        <time>2025-01-10T08:16:33.000Z</time>
      </trkpt>
      <trkpt lat="43.55578" lon="6.81698">
        <ele>168.3</ele>
        <time>2025-01-10T08:16:32.000Z</time>
      </trkpt>
      <trkpt lat="43.55578" lon="6.81693">
        <ele>168.2</ele>
        <time>2025-01-10T08:16:31.000Z</time>
      </trkpt>
      <trkpt lat="43.55578" lon="6.81688">
        <ele>168.1</ele>
        <time>2025-01-10T08:16:30.000Z</time>
      </trkpt>
      <trkpt lat="43.55578" lon="6.81683">
        <ele>168</ele>
        <time>2025-01-10T08:16:29.000Z</time>
      </trkpt>
      <trkpt lat="43.55578" lon="6.81678">
        <ele>167.9</ele>
        <time>2025-01-10T08:16:28.000Z</time>
      </trkpt>
      <trkpt lat="43.55577" lon="6.81671">
        <ele>167.8</ele>
        <time>2025-01-10T08:16:27.000Z</time>
      </trkpt>
      <trkpt lat="43.55577" lon="6.81665">
        <ele>167.7</ele>
        <time>2025-01-10T08:16:26.000Z</time>
      </trkpt>
      <trkpt lat="43.55576" lon="6.81661">
        <ele>167.6</ele>
        <time>2025-01-10T08:16:25.000Z</time>
      </trkpt>
      <trkpt lat="43.55576" lon="6.81655">
        <ele>167.5</ele>
        <time>2025-01-10T08:16:24.000Z</time>
      </trkpt>
      <trkpt lat="43.55575" lon="6.81649">
        <ele>167.4</ele>
        <time>2025-01-10T08:16:23.000Z</time>
      </trkpt>
      <trkpt lat="43.55574" lon="6.81644">
        <ele>167.2</ele>
        <time>2025-01-10T08:16:22.000Z</time>
      </trkpt>
      <trkpt lat="43.55574" lon="6.81638">
        <ele>167.1</ele>
        <time>2025-01-10T08:16:21.000Z</time>
      </trkpt>
      <trkpt lat="43.55574" lon="6.81634">
        <ele>167</ele>
        <time>2025-01-10T08:16:20.000Z</time>
      </trkpt>
      <trkpt lat="43.55574" lon="6.81628">
        <ele>166.8</ele>
        <time>2025-01-10T08:16:19.000Z</time>
      </trkpt>
      <trkpt lat="43.55574" lon="6.81621">
        <ele>166.7</ele>
        <time>2025-01-10T08:16:18.000Z</time>
      </trkpt>
      <trkpt lat="43.55575" lon="6.81616">
        <ele>166.5</ele>
        <time>2025-01-10T08:16:17.000Z</time>
      </trkpt>
      <trkpt lat="43.55576" lon="6.81611">
        <ele>166.4</ele>
        <time>2025-01-10T08:16:16.000Z</time>
      </trkpt>
      <trkpt lat="43.55576" lon="6.81606">
        <ele>166.2</ele>
        <time>2025-01-10T08:16:15.000Z</time>
      </trkpt>
      <trkpt lat="43.55577" lon="6.81599">
        <ele>166.1</ele>
        <time>2025-01-10T08:16:14.000Z</time>
      </trkpt>
      <trkpt lat="43.55578" lon="6.81594">
        <ele>165.9</ele>
        <time>2025-01-10T08:16:13.000Z</time>
      </trkpt>
      <trkpt lat="43.55579" lon="6.8159">
        <ele>165.8</ele>
        <time>2025-01-10T08:16:12.000Z</time>
      </trkpt>
      <trkpt lat="43.5558" lon="6.81584">
        <ele>165.7</ele>
        <time>2025-01-10T08:16:11.000Z</time>
      </trkpt>
      <trkpt lat="43.5558" lon="6.81579">
        <ele>165.5</ele>
        <time>2025-01-10T08:16:10.000Z</time>
      </trkpt>
      <trkpt lat="43.55581" lon="6.81574">
        <ele>165.4</ele>
        <time>2025-01-10T08:16:09.000Z</time>
      </trkpt>
      <trkpt lat="43.55582" lon="6.81569">
        <ele>165.3</ele>
        <time>2025-01-10T08:16:08.000Z</time>
      </trkpt>
      <trkpt lat="43.55582" lon="6.81565">
        <ele>165.2</ele>
        <time>2025-01-10T08:16:07.000Z</time>
      </trkpt>
      <trkpt lat="43.55583" lon="6.8156">
        <ele>165</ele>
        <time>2025-01-10T08:16:06.000Z</time>
      </trkpt>
      <trkpt lat="43.55584" lon="6.81554">
        <ele>164.9</ele>
        <time>2025-01-10T08:16:05.000Z</time>
      </trkpt>
      <trkpt lat="43.55585" lon="6.81549">
        <ele>164.7</ele>
        <time>2025-01-10T08:16:04.000Z</time>
      </trkpt>
      <trkpt lat="43.55586" lon="6.81545">
        <ele>164.6</ele>
        <time>2025-01-10T08:16:03.000Z</time>
      </trkpt>
      <trkpt lat="43.55587" lon="6.81539">
        <ele>164.5</ele>
        <time>2025-01-10T08:16:02.000Z</time>
      </trkpt>
      <trkpt lat="43.55587" lon="6.81535">
        <ele>164.3</ele>
        <time>2025-01-10T08:16:01.000Z</time>
      </trkpt>
      <trkpt lat="43.55588" lon="6.81529">
        <ele>164.2</ele>
        <time>2025-01-10T08:16:00.000Z</time>
      </trkpt>
      <trkpt lat="43.55589" lon="6.81525">
        <ele>164.1</ele>
        <time>2025-01-10T08:15:59.000Z</time>
      </trkpt>
      <trkpt lat="43.5559" lon="6.8152">
        <ele>163.9</ele>
        <time>2025-01-10T08:15:58.000Z</time>
      </trkpt>
      <trkpt lat="43.55591" lon="6.81515">
        <ele>163.8</ele>
        <time>2025-01-10T08:15:57.000Z</time>
      </trkpt>
      <trkpt lat="43.55592" lon="6.8151">
        <ele>163.7</ele>
        <time>2025-01-10T08:15:56.000Z</time>
      </trkpt>
      <trkpt lat="43.55594" lon="6.81505">
        <ele>163.7</ele>
        <time>2025-01-10T08:15:55.000Z</time>
      </trkpt>
      <trkpt lat="43.55595" lon="6.81501">
        <ele>163.6</ele>
        <time>2025-01-10T08:15:54.000Z</time>
      </trkpt>
      <trkpt lat="43.55597" lon="6.81497">
        <ele>163.5</ele>
        <time>2025-01-10T08:15:53.000Z</time>
      </trkpt>
      <trkpt lat="43.55598" lon="6.81493">
        <ele>163.4</ele>
        <time>2025-01-10T08:15:52.000Z</time>
      </trkpt>
      <trkpt lat="43.55601" lon="6.81488">
        <ele>163.3</ele>
        <time>2025-01-10T08:15:51.000Z</time>
      </trkpt>
      <trkpt lat="43.55604" lon="6.81484">
        <ele>163.2</ele>
        <time>2025-01-10T08:15:50.000Z</time>
      </trkpt>
      <trkpt lat="43.55607" lon="6.8148">
        <ele>163.2</ele>
        <time>2025-01-10T08:15:49.000Z</time>
      </trkpt>
      <trkpt lat="43.5561" lon="6.81477">
        <ele>163.1</ele>
        <time>2025-01-10T08:15:48.000Z</time>
      </trkpt>
      <trkpt lat="43.55613" lon="6.81474">
        <ele>163.1</ele>
        <time>2025-01-10T08:15:47.000Z</time>
      </trkpt>
      <trkpt lat="43.55617" lon="6.81472">
        <ele>163</ele>
        <time>2025-01-10T08:15:46.000Z</time>
      </trkpt>
      <trkpt lat="43.55619" lon="6.8147">
        <ele>163</ele>
        <time>2025-01-10T08:15:45.000Z</time>
      </trkpt>
      <trkpt lat="43.55623" lon="6.81467">
        <ele>163</ele>
        <time>2025-01-10T08:15:44.000Z</time>
      </trkpt>
      <trkpt lat="43.55625" lon="6.81464">
        <ele>163</ele>
        <time>2025-01-10T08:15:43.000Z</time>
      </trkpt>
      <trkpt lat="43.55628" lon="6.81462">
        <ele>162.9</ele>
        <time>2025-01-10T08:15:42.000Z</time>
      </trkpt>
      <trkpt lat="43.5563" lon="6.81459">
        <ele>162.9</ele>
        <time>2025-01-10T08:15:41.000Z</time>
      </trkpt>
      <trkpt lat="43.55632" lon="6.81457">
        <ele>162.9</ele>
        <time>2025-01-10T08:15:40.000Z</time>
      </trkpt>
      <trkpt lat="43.55635" lon="6.81454">
        <ele>162.9</ele>
        <time>2025-01-10T08:15:39.000Z</time>
      </trkpt>
      <trkpt lat="43.55639" lon="6.81451">
        <ele>162.9</ele>
        <time>2025-01-10T08:15:38.000Z</time>
      </trkpt>
      <trkpt lat="43.55643" lon="6.81449">
        <ele>162.8</ele>
        <time>2025-01-10T08:15:37.000Z</time>
      </trkpt>
      <trkpt lat="43.55645" lon="6.81447">
        <ele>162.8</ele>
        <time>2025-01-10T08:15:36.000Z</time>
      </trkpt>
      <trkpt lat="43.5565" lon="6.81445">
        <ele>162.8</ele>
        <time>2025-01-10T08:15:35.000Z</time>
      </trkpt>
      <trkpt lat="43.55654" lon="6.81444">
        <ele>162.8</ele>
        <time>2025-01-10T08:15:34.000Z</time>
      </trkpt>
      <trkpt lat="43.55657" lon="6.81443">
        <ele>162.8</ele>
        <time>2025-01-10T08:15:33.000Z</time>
      </trkpt>
      <trkpt lat="43.55661" lon="6.81441">
        <ele>162.8</ele>
        <time>2025-01-10T08:15:32.000Z</time>
      </trkpt>
      <trkpt lat="43.55664" lon="6.8144">
        <ele>162.8</ele>
        <time>2025-01-10T08:15:31.000Z</time>
      </trkpt>
      <trkpt lat="43.55667" lon="6.81438">
        <ele>162.7</ele>
        <time>2025-01-10T08:15:30.000Z</time>
      </trkpt>
      <trkpt lat="43.55671" lon="6.81435">
        <ele>162.7</ele>
        <time>2025-01-10T08:15:29.000Z</time>
      </trkpt>
      <trkpt lat="43.55674" lon="6.81432">
        <ele>162.7</ele>
        <time>2025-01-10T08:15:28.000Z</time>
      </trkpt>
      <trkpt lat="43.55678" lon="6.8143">
        <ele>162.7</ele>
        <time>2025-01-10T08:15:27.000Z</time>
      </trkpt>
      <trkpt lat="43.55682" lon="6.81428">
        <ele>162.7</ele>
        <time>2025-01-10T08:15:26.000Z</time>
      </trkpt>
      <trkpt lat="43.55685" lon="6.81427">
        <ele>162.7</ele>
        <time>2025-01-10T08:15:25.000Z</time>
      </trkpt>
      <trkpt lat="43.55689" lon="6.81426">
        <ele>162.7</ele>
        <time>2025-01-10T08:15:24.000Z</time>
      </trkpt>
      <trkpt lat="43.55693" lon="6.81425">
        <ele>162.7</ele>
        <time>2025-01-10T08:15:23.000Z</time>
      </trkpt>
      <trkpt lat="43.55697" lon="6.81424">
        <ele>162.6</ele>
        <time>2025-01-10T08:15:22.000Z</time>
      </trkpt>
      <trkpt lat="43.557" lon="6.81423">
        <ele>162.6</ele>
        <time>2025-01-10T08:15:21.000Z</time>
      </trkpt>
      <trkpt lat="43.55704" lon="6.81422">
        <ele>162.5</ele>
        <time>2025-01-10T08:15:20.000Z</time>
      </trkpt>
      <trkpt lat="43.55708" lon="6.81421">
        <ele>162.4</ele>
        <time>2025-01-10T08:15:19.000Z</time>
      </trkpt>
      <trkpt lat="43.55711" lon="6.81421">
        <ele>162.4</ele>
        <time>2025-01-10T08:15:18.000Z</time>
      </trkpt>
      <trkpt lat="43.55715" lon="6.8142">
        <ele>162.3</ele>
        <time>2025-01-10T08:15:17.000Z</time>
      </trkpt>
      <trkpt lat="43.55718" lon="6.8142">
        <ele>162.2</ele>
        <time>2025-01-10T08:15:16.000Z</time>
      </trkpt>
      <trkpt lat="43.55721" lon="6.8142">
        <ele>162.2</ele>
        <time>2025-01-10T08:15:15.000Z</time>
      </trkpt>
      <trkpt lat="43.55725" lon="6.81421">
        <ele>162.1</ele>
        <time>2025-01-10T08:15:14.000Z</time>
      </trkpt>
      <trkpt lat="43.55727" lon="6.81421">
        <ele>162.1</ele>
        <time>2025-01-10T08:15:13.000Z</time>
      </trkpt>
      <trkpt lat="43.55731" lon="6.81422">
        <ele>162</ele>
        <time>2025-01-10T08:15:12.000Z</time>
      </trkpt>
      <trkpt lat="43.55734" lon="6.81423">
        <ele>162</ele>
        <time>2025-01-10T08:15:11.000Z</time>
      </trkpt>
      <trkpt lat="43.55737" lon="6.81424">
        <ele>161.9</ele>
        <time>2025-01-10T08:15:10.000Z</time>
      </trkpt>
      <trkpt lat="43.55737" lon="6.81424">
        <ele>161.9</ele>
        <time>2025-01-10T08:15:09.000Z</time>
      </trkpt>
      <trkpt lat="43.55737" lon="6.81424">
        <ele>161.9</ele>
        <time>2025-01-10T08:15:08.000Z</time>
      </trkpt>
      <trkpt lat="43.55737" lon="6.81424">
        <ele>161.9</ele>
        <time>2025-01-10T08:15:07.000Z</time>
      </trkpt>
      <trkpt lat="43.55737" lon="6.81424">
        <ele>161.9</ele>
        <time>2025-01-10T08:15:06.000Z</time>
      </trkpt>
      <trkpt lat="43.55737" lon="6.81424">
        <ele>161.9</ele>
        <time>2025-01-10T08:15:05.000Z</time>
      </trkpt>
      <trkpt lat="43.55737" lon="6.81424">
        <ele>161.9</ele>
        <time>2025-01-10T08:15:04.000Z</time>
      </trkpt>
      <trkpt lat="43.55737" lon="6.81424">
        <ele>161.9</ele>
        <time>2025-01-10T08:15:03.000Z</time>
      </trkpt>
      <trkpt lat="43.55737" lon="6.81424">
        <ele>161.9</ele>
        <time>2025-01-10T08:15:02.000Z</time>
      </trkpt>
      <trkpt lat="43.55737" lon="6.81424">
        <ele>161.9</ele>
        <time>2025-01-10T08:15:01.000Z</time>
      </trkpt>
      <trkpt lat="43.55737" lon="6.81424">
        <ele>161.9</ele>
        <time>2025-01-10T08:15:00.000Z</time>
      </trkpt>
      <trkpt lat="43.55737" lon="6.81424">
        <ele>161.9</ele>
        <time>2025-01-10T08:14:59.000Z</time>
      </trkpt>
      <trkpt lat="43.55737" lon="6.81424">
        <ele>161.9</ele>
        <time>2025-01-10T08:14:58.000Z</time>
      </trkpt>
      <trkpt lat="43.55737" lon="6.81424">
        <ele>161.9</ele>
        <time>2025-01-10T08:14:57.000Z</time>
      </trkpt>
      <trkpt lat="43.55737" lon="6.81424">
        <ele>161.9</ele>
        <time>2025-01-10T08:14:56.000Z</time>
      </trkpt>
      <trkpt lat="43.55737" lon="6.81424">
        <ele>161.9</ele>
        <time>2025-01-10T08:14:55.000Z</time>
      </trkpt>
      <trkpt lat="43.55737" lon="6.81424">
        <ele>161.9</ele>
        <time>2025-01-10T08:14:54.000Z</time>
      </trkpt>
      <trkpt lat="43.55736" lon="6.81424">
        <ele>161.9</ele>
        <time>2025-01-10T08:14:53.000Z</time>
      </trkpt>
      <trkpt lat="43.55736" lon="6.81424">
        <ele>161.9</ele>
        <time>2025-01-10T08:14:52.000Z</time>
      </trkpt>
      <trkpt lat="43.55737" lon="6.81424">
        <ele>161.9</ele>
        <time>2025-01-10T08:14:51.000Z</time>
      </trkpt>
      <trkpt lat="43.55737" lon="6.81423">
        <ele>161.9</ele>
        <time>2025-01-10T08:14:50.000Z</time>
      </trkpt>
      <trkpt lat="43.55738" lon="6.81423">
        <ele>161.9</ele>
        <time>2025-01-10T08:14:49.000Z</time>
      </trkpt>
      <trkpt lat="43.55739" lon="6.81423">
        <ele>161.9</ele>
        <time>2025-01-10T08:14:48.000Z</time>
      </trkpt>
      <trkpt lat="43.55741" lon="6.81422">
        <ele>161.9</ele>
        <time>2025-01-10T08:14:47.000Z</time>
      </trkpt>
      <trkpt lat="43.55743" lon="6.81421">
        <ele>161.9</ele>
        <time>2025-01-10T08:14:46.000Z</time>
      </trkpt>
      <trkpt lat="43.55746" lon="6.8142">
        <ele>161.8</ele>
        <time>2025-01-10T08:14:45.000Z</time>
      </trkpt>
      <trkpt lat="43.55749" lon="6.81418">
        <ele>161.8</ele>
        <time>2025-01-10T08:14:44.000Z</time>
      </trkpt>
      <trkpt lat="43.55753" lon="6.81417">
        <ele>161.8</ele>
        <time>2025-01-10T08:14:43.000Z</time>
      </trkpt>
      <trkpt lat="43.55756" lon="6.81415">
        <ele>161.8</ele>
        <time>2025-01-10T08:14:42.000Z</time>
      </trkpt>
      <trkpt lat="43.55759" lon="6.81413">
        <ele>161.7</ele>
        <time>2025-01-10T08:14:41.000Z</time>
      </trkpt>
      <trkpt lat="43.55761" lon="6.81412">
        <ele>161.7</ele>
        <time>2025-01-10T08:14:40.000Z</time>
      </trkpt>
      <trkpt lat="43.55764" lon="6.81411">
        <ele>161.7</ele>
        <time>2025-01-10T08:14:39.000Z</time>
      </trkpt>
      <trkpt lat="43.55768" lon="6.8141">
        <ele>161.7</ele>
        <time>2025-01-10T08:14:38.000Z</time>
      </trkpt>
      <trkpt lat="43.55771" lon="6.81409">
        <ele>161.7</ele>
        <time>2025-01-10T08:14:37.000Z</time>
      </trkpt>
      <trkpt lat="43.55774" lon="6.81407">
        <ele>161.7</ele>
        <time>2025-01-10T08:14:36.000Z</time>
      </trkpt>
      <trkpt lat="43.55777" lon="6.81405">
        <ele>161.8</ele>
        <time>2025-01-10T08:14:35.000Z</time>
      </trkpt>
      <trkpt lat="43.55781" lon="6.81403">
        <ele>161.8</ele>
        <time>2025-01-10T08:14:34.000Z</time>
      </trkpt>
      <trkpt lat="43.55784" lon="6.81402">
        <ele>161.8</ele>
        <time>2025-01-10T08:14:33.000Z</time>
      </trkpt>
      <trkpt lat="43.55788" lon="6.81399">
        <ele>161.9</ele>
        <time>2025-01-10T08:14:32.000Z</time>
      </trkpt>
      <trkpt lat="43.55791" lon="6.81396">
        <ele>161.9</ele>
        <time>2025-01-10T08:14:31.000Z</time>
        <extensions>
          <visugpx:TrkExtension xmlns:visugpx="https://www.visugpx.com/editgpx/">
            <visugpx:node>1</visugpx:node>
            </visugpx:TrkExtension>
        </extensions>
      </trkpt>
    </trkseg>
  </trk>
  <trk>
    <name><![CDATA[Tour du Lac St Cassien_9]]></name>
    <extensions>
      <line xmlns="http://www.topografix.com/GPX/gpx_style/0/2">
        <color>008888</color>
        <width>4</width>
      </line>
    </extensions>
    <trkseg>
      <trkpt lat="43.58008" lon="6.8419">
        <ele>317.1</ele>
        <time>2025-01-10T08:46:35.000Z</time>
      </trkpt>
      <trkpt lat="43.58006" lon="6.84187">
        <ele>317.3</ele>
        <time>2025-01-10T08:46:34.000Z</time>
        <extensions>
          <visugpx:TrkExtension xmlns:visugpx="https://www.visugpx.com/editgpx/">
            <visugpx:node>1</visugpx:node>
            </visugpx:TrkExtension>
        </extensions>
      </trkpt>
    </trkseg>
  </trk>
  <trk>
    <name><![CDATA[Bagnols -Pennafort -Fille d'Isnard_11]]></name>
    <extensions>
      <line xmlns="http://www.topografix.com/GPX/gpx_style/0/2">
        <color>888800</color>
        <width>4</width>
      </line>
    </extensions>
    <trkseg>
      <trkpt lat="43.57227" lon="6.8272">
        <ele>229.6</ele>
        <time>2025-01-10T08:32:18.000Z</time>
      </trkpt>
      <trkpt lat="43.57224" lon="6.82722">
        <ele>229.6</ele>
        <time>2025-01-10T08:32:17.000Z</time>
      </trkpt>
      <trkpt lat="43.57219" lon="6.82725">
        <ele>229.7</ele>
        <time>2025-01-10T08:32:16.000Z</time>
      </trkpt>
      <trkpt lat="43.57214" lon="6.82728">
        <ele>229.8</ele>
        <time>2025-01-10T08:32:15.000Z</time>
      </trkpt>
      <trkpt lat="43.5721" lon="6.8273">
        <ele>229.8</ele>
        <time>2025-01-10T08:32:14.000Z</time>
      </trkpt>
      <trkpt lat="43.57206" lon="6.82734">
        <ele>229.9</ele>
        <time>2025-01-10T08:32:13.000Z</time>
      </trkpt>
      <trkpt lat="43.57201" lon="6.82737">
        <ele>230.1</ele>
        <time>2025-01-10T08:32:12.000Z</time>
      </trkpt>
      <trkpt lat="43.57196" lon="6.82741">
        <ele>230.2</ele>
        <time>2025-01-10T08:32:11.000Z</time>
        <extensions>
          <visugpx:TrkExtension xmlns:visugpx="https://www.visugpx.com/editgpx/">
            <visugpx:node>1</visugpx:node>
            </visugpx:TrkExtension>
        </extensions>
      </trkpt>
    </trkseg>
  </trk>
  <trk>
    <name><![CDATA[Bagnols -Pennafort -Fille d'Isnard_13]]></name>
    <extensions>
      <line xmlns="http://www.topografix.com/GPX/gpx_style/0/2">
        <color>0000FF</color>
        <width>4</width>
      </line>
    </extensions>
    <trkseg>
      <trkpt lat="43.55173" lon="6.78212">
        <ele>111</ele>
        <time>2025-10-24T09:44:18.000Z</time>
        <extensions>
          <visugpx:TrkExtension xmlns:visugpx="https://www.visugpx.com/editgpx/">
            <visugpx:node>1</visugpx:node>
            </visugpx:TrkExtension>
        </extensions>
      </trkpt>
      <trkpt lat="43.55174" lon="6.78205">
        <ele>111.4</ele>
        <time>2025-10-24T09:44:19.000Z</time>
      </trkpt>
      <trkpt lat="43.55174" lon="6.78199">
        <ele>111.8</ele>
        <time>2025-10-24T09:44:20.000Z</time>
      </trkpt>
      <trkpt lat="43.55175" lon="6.78193">
        <ele>112.2</ele>
        <time>2025-10-24T09:44:21.000Z</time>
      </trkpt>
      <trkpt lat="43.55175" lon="6.78187">
        <ele>112.5</ele>
        <time>2025-10-24T09:44:22.000Z</time>
      </trkpt>
      <trkpt lat="43.55175" lon="6.78182">
        <ele>112.9</ele>
        <time>2025-10-24T09:44:23.000Z</time>
      </trkpt>
      <trkpt lat="43.55174" lon="6.78177">
        <ele>113.2</ele>
        <time>2025-10-24T09:44:24.000Z</time>
      </trkpt>
      <trkpt lat="43.55172" lon="6.78174">
        <ele>113.4</ele>
        <time>2025-10-24T09:44:25.000Z</time>
      </trkpt>
      <trkpt lat="43.5517" lon="6.78172">
        <ele>113.7</ele>
        <time>2025-10-24T09:44:26.000Z</time>
      </trkpt>
      <trkpt lat="43.55169" lon="6.78171">
        <ele>113.8</ele>
        <time>2025-10-24T09:44:27.000Z</time>
      </trkpt>
      <trkpt lat="43.55168" lon="6.7817">
        <ele>113.9</ele>
        <time>2025-10-24T09:44:28.000Z</time>
      </trkpt>
      <trkpt lat="43.55167" lon="6.7817">
        <ele>113.9</ele>
        <time>2025-10-24T09:44:29.000Z</time>
      </trkpt>
      <trkpt lat="43.55167" lon="6.78171">
        <ele>113.9</ele>
        <time>2025-10-24T09:44:30.000Z</time>
      </trkpt>
      <trkpt lat="43.55168" lon="6.78171">
        <ele>114</ele>
        <time>2025-10-24T09:44:31.000Z</time>
      </trkpt>
      <trkpt lat="43.55168" lon="6.78171">
        <ele>114</ele>
        <time>2025-10-24T09:44:32.000Z</time>
      </trkpt>
      <trkpt lat="43.55168" lon="6.78171">
        <ele>114</ele>
        <time>2025-10-24T09:44:33.000Z</time>
      </trkpt>
      <trkpt lat="43.55167" lon="6.78172">
        <ele>114</ele>
        <time>2025-10-24T09:44:34.000Z</time>
      </trkpt>
      <trkpt lat="43.55167" lon="6.78172">
        <ele>114</ele>
        <time>2025-10-24T09:44:35.000Z</time>
      </trkpt>
      <trkpt lat="43.55167" lon="6.78172">
        <ele>114.1</ele>
        <time>2025-10-24T09:44:36.000Z</time>
      </trkpt>
      <trkpt lat="43.55167" lon="6.78173">
        <ele>114.1</ele>
        <time>2025-10-24T09:44:37.000Z</time>
      </trkpt>
      <trkpt lat="43.55167" lon="6.78173">
        <ele>114.1</ele>
        <time>2025-10-24T09:44:38.000Z</time>
      </trkpt>
      <trkpt lat="43.55167" lon="6.78173">
        <ele>114.2</ele>
        <time>2025-10-24T09:44:39.000Z</time>
      </trkpt>
      <trkpt lat="43.55166" lon="6.78173">
        <ele>114.2</ele>
        <time>2025-10-24T09:44:40.000Z</time>
      </trkpt>
      <trkpt lat="43.55166" lon="6.78173">
        <ele>114.2</ele>
        <time>2025-10-24T09:44:41.000Z</time>
      </trkpt>
      <trkpt lat="43.55166" lon="6.78173">
        <ele>114.2</ele>
        <time>2025-10-24T09:44:42.000Z</time>
      </trkpt>
      <trkpt lat="43.55166" lon="6.78173">
        <ele>114.2</ele>
        <time>2025-10-24T09:44:43.000Z</time>
      </trkpt>
      <trkpt lat="43.55166" lon="6.78173">
        <ele>114.2</ele>
        <time>2025-10-24T09:44:44.000Z</time>
      </trkpt>
      <trkpt lat="43.55166" lon="6.78173">
        <ele>114.2</ele>
        <time>2025-10-24T09:44:45.000Z</time>
      </trkpt>
      <trkpt lat="43.55166" lon="6.78173">
        <ele>114.2</ele>
        <time>2025-10-24T09:44:46.000Z</time>
      </trkpt>
      <trkpt lat="43.55166" lon="6.78173">
        <ele>114.2</ele>
        <time>2025-10-24T09:44:47.000Z</time>
      </trkpt>
      <trkpt lat="43.55166" lon="6.78173">
        <ele>114.2</ele>
        <time>2025-10-24T09:44:48.000Z</time>
      </trkpt>
      <trkpt lat="43.55166" lon="6.78173">
        <ele>114.2</ele>
        <time>2025-10-24T09:44:49.000Z</time>
      </trkpt>
      <trkpt lat="43.55166" lon="6.78173">
        <ele>114.2</ele>
        <time>2025-10-24T09:44:50.000Z</time>
      </trkpt>
      <trkpt lat="43.55167" lon="6.78173">
        <ele>114.2</ele>
        <time>2025-10-24T09:44:51.000Z</time>
      </trkpt>
      <trkpt lat="43.55167" lon="6.78173">
        <ele>114.2</ele>
        <time>2025-10-24T09:44:52.000Z</time>
      </trkpt>
      <trkpt lat="43.55167" lon="6.78173">
        <ele>114.2</ele>
        <time>2025-10-24T09:44:53.000Z</time>
      </trkpt>
      <trkpt lat="43.55167" lon="6.78173">
        <ele>114.2</ele>
        <time>2025-10-24T09:44:54.000Z</time>
      </trkpt>
      <trkpt lat="43.55167" lon="6.78173">
        <ele>114.3</ele>
        <time>2025-10-24T09:44:55.000Z</time>
      </trkpt>
      <trkpt lat="43.55167" lon="6.78173">
        <ele>114.3</ele>
        <time>2025-10-24T09:44:56.000Z</time>
      </trkpt>
      <trkpt lat="43.55167" lon="6.78173">
        <ele>114.3</ele>
        <time>2025-10-24T09:44:57.000Z</time>
      </trkpt>
      <trkpt lat="43.55167" lon="6.78173">
        <ele>114.3</ele>
        <time>2025-10-24T09:44:58.000Z</time>
      </trkpt>
      <trkpt lat="43.55167" lon="6.78174">
        <ele>114.3</ele>
        <time>2025-10-24T09:44:59.000Z</time>
      </trkpt>
      <trkpt lat="43.55167" lon="6.78174">
        <ele>114.3</ele>
        <time>2025-10-24T09:45:00.000Z</time>
      </trkpt>
      <trkpt lat="43.55167" lon="6.78174">
        <ele>114.3</ele>
        <time>2025-10-24T09:45:01.000Z</time>
      </trkpt>
      <trkpt lat="43.55167" lon="6.78174">
        <ele>114.4</ele>
        <time>2025-10-24T09:45:02.000Z</time>
      </trkpt>
      <trkpt lat="43.55167" lon="6.78174">
        <ele>114.4</ele>
        <time>2025-10-24T09:45:03.000Z</time>
      </trkpt>
      <trkpt lat="43.55167" lon="6.78174">
        <ele>114.4</ele>
        <time>2025-10-24T09:45:04.000Z</time>
      </trkpt>
      <trkpt lat="43.55167" lon="6.78174">
        <ele>114.4</ele>
        <time>2025-10-24T09:45:05.000Z</time>
      </trkpt>
      <trkpt lat="43.55167" lon="6.78175">
        <ele>114.4</ele>
        <time>2025-10-24T09:45:06.000Z</time>
      </trkpt>
      <trkpt lat="43.55167" lon="6.78175">
        <ele>114.4</ele>
        <time>2025-10-24T09:45:07.000Z</time>
      </trkpt>
      <trkpt lat="43.55167" lon="6.78175">
        <ele>114.4</ele>
        <time>2025-10-24T09:45:08.000Z</time>
      </trkpt>
      <trkpt lat="43.55167" lon="6.78175">
        <ele>114.4</ele>
        <time>2025-10-24T09:45:09.000Z</time>
      </trkpt>
      <trkpt lat="43.55167" lon="6.78175">
        <ele>114.4</ele>
        <time>2025-10-24T09:45:10.000Z</time>
      </trkpt>
      <trkpt lat="43.55167" lon="6.78175">
        <ele>114.4</ele>
        <time>2025-10-24T09:45:11.000Z</time>
      </trkpt>
      <trkpt lat="43.55167" lon="6.78175">
        <ele>114.4</ele>
        <time>2025-10-24T09:45:12.000Z</time>
      </trkpt>
      <trkpt lat="43.55167" lon="6.78175">
        <ele>114.4</ele>
        <time>2025-10-24T09:45:13.000Z</time>
      </trkpt>
      <trkpt lat="43.55167" lon="6.78175">
        <ele>114.4</ele>
        <time>2025-10-24T09:45:14.000Z</time>
      </trkpt>
      <trkpt lat="43.55167" lon="6.78175">
        <ele>114.4</ele>
        <time>2025-10-24T09:45:15.000Z</time>
      </trkpt>
      <trkpt lat="43.55167" lon="6.78175">
        <ele>114.4</ele>
        <time>2025-10-24T09:45:16.000Z</time>
      </trkpt>
      <trkpt lat="43.55167" lon="6.78175">
        <ele>114.4</ele>
        <time>2025-10-24T09:45:17.000Z</time>
      </trkpt>
      <trkpt lat="43.55167" lon="6.78175">
        <ele>114.4</ele>
        <time>2025-10-24T09:45:18.000Z</time>
      </trkpt>
      <trkpt lat="43.55167" lon="6.78175">
        <ele>114.4</ele>
        <time>2025-10-24T09:45:19.000Z</time>
      </trkpt>
      <trkpt lat="43.55167" lon="6.78175">
        <ele>114.4</ele>
        <time>2025-10-24T09:45:20.000Z</time>
      </trkpt>
      <trkpt lat="43.55167" lon="6.78175">
        <ele>114.4</ele>
        <time>2025-10-24T09:45:21.000Z</time>
      </trkpt>
    </trkseg>
  </trk>
  <trk>
    <name><![CDATA[Bagnols -Pennafort -Fille d'Isnard_14]]></name>
    <extensions>
      <line xmlns="http://www.topografix.com/GPX/gpx_style/0/2">
        <color>00FF00</color>
        <width>4</width>
      </line>
    </extensions>
    <trkseg>
      <trkpt lat="43.55696" lon="6.7879">
        <ele>159.9</ele>
        <time>2025-10-24T06:12:59.000Z</time>
      </trkpt>
      <trkpt lat="43.55698" lon="6.78791">
        <ele>160.2</ele>
        <time>2025-10-24T06:13:00.000Z</time>
      </trkpt>
      <trkpt lat="43.557" lon="6.78793">
        <ele>160.3</ele>
        <time>2025-10-24T06:13:01.000Z</time>
      </trkpt>
      <trkpt lat="43.55701" lon="6.78794">
        <ele>160.3</ele>
        <time>2025-10-24T06:13:02.000Z</time>
      </trkpt>
      <trkpt lat="43.55703" lon="6.78796">
        <ele>160.2</ele>
        <time>2025-10-24T06:13:03.000Z</time>
      </trkpt>
      <trkpt lat="43.55704" lon="6.78798">
        <ele>160.2</ele>
        <time>2025-10-24T06:13:04.000Z</time>
      </trkpt>
      <trkpt lat="43.55705" lon="6.78801">
        <ele>160.1</ele>
        <time>2025-10-24T06:13:05.000Z</time>
      </trkpt>
      <trkpt lat="43.55705" lon="6.78804">
        <ele>160</ele>
        <time>2025-10-24T06:13:06.000Z</time>
      </trkpt>
      <trkpt lat="43.55706" lon="6.78808">
        <ele>159.9</ele>
        <time>2025-10-24T06:13:07.000Z</time>
      </trkpt>
      <trkpt lat="43.55706" lon="6.78812">
        <ele>159.8</ele>
        <time>2025-10-24T06:13:08.000Z</time>
      </trkpt>
      <trkpt lat="43.55707" lon="6.78816">
        <ele>159.8</ele>
        <time>2025-10-24T06:13:09.000Z</time>
      </trkpt>
      <trkpt lat="43.55707" lon="6.78821">
        <ele>159.7</ele>
        <time>2025-10-24T06:13:10.000Z</time>
      </trkpt>
      <trkpt lat="43.55708" lon="6.78825">
        <ele>159.6</ele>
        <time>2025-10-24T06:13:11.000Z</time>
      </trkpt>
      <trkpt lat="43.55708" lon="6.78829">
        <ele>159.5</ele>
        <time>2025-10-24T06:13:12.000Z</time>
      </trkpt>
      <trkpt lat="43.55709" lon="6.78833">
        <ele>159.4</ele>
        <time>2025-10-24T06:13:13.000Z</time>
      </trkpt>
      <trkpt lat="43.55709" lon="6.78837">
        <ele>159.3</ele>
        <time>2025-10-24T06:13:14.000Z</time>
      </trkpt>
      <trkpt lat="43.55708" lon="6.7884">
        <ele>159.2</ele>
        <time>2025-10-24T06:13:15.000Z</time>
      </trkpt>
      <trkpt lat="43.55708" lon="6.78844">
        <ele>159.1</ele>
        <time>2025-10-24T06:13:16.000Z</time>
      </trkpt>
      <trkpt lat="43.55707" lon="6.78847">
        <ele>159</ele>
        <time>2025-10-24T06:13:17.000Z</time>
      </trkpt>
      <trkpt lat="43.55706" lon="6.7885">
        <ele>159</ele>
        <time>2025-10-24T06:13:18.000Z</time>
      </trkpt>
      <trkpt lat="43.55705" lon="6.78853">
        <ele>158.9</ele>
        <time>2025-10-24T06:13:19.000Z</time>
      </trkpt>
      <trkpt lat="43.55704" lon="6.78857">
        <ele>158.8</ele>
        <time>2025-10-24T06:13:20.000Z</time>
      </trkpt>
      <trkpt lat="43.55702" lon="6.78861">
        <ele>158.6</ele>
        <time>2025-10-24T06:13:21.000Z</time>
      </trkpt>
      <trkpt lat="43.557" lon="6.78864">
        <ele>158.5</ele>
        <time>2025-10-24T06:13:22.000Z</time>
      </trkpt>
      <trkpt lat="43.55698" lon="6.78867">
        <ele>158.4</ele>
        <time>2025-10-24T06:13:23.000Z</time>
      </trkpt>
      <trkpt lat="43.55696" lon="6.7887">
        <ele>158.4</ele>
        <time>2025-10-24T06:13:24.000Z</time>
      </trkpt>
      <trkpt lat="43.55694" lon="6.78872">
        <ele>158.3</ele>
        <time>2025-10-24T06:13:25.000Z</time>
      </trkpt>
      <trkpt lat="43.55693" lon="6.78874">
        <ele>158.3</ele>
        <time>2025-10-24T06:13:26.000Z</time>
      </trkpt>
      <trkpt lat="43.55691" lon="6.78876">
        <ele>158.2</ele>
        <time>2025-10-24T06:13:27.000Z</time>
      </trkpt>
      <trkpt lat="43.55688" lon="6.78878">
        <ele>158.2</ele>
        <time>2025-10-24T06:13:28.000Z</time>
      </trkpt>
      <trkpt lat="43.55686" lon="6.78879">
        <ele>158.2</ele>
        <time>2025-10-24T06:13:29.000Z</time>
      </trkpt>
      <trkpt lat="43.55684" lon="6.7888">
        <ele>158.2</ele>
        <time>2025-10-24T06:13:30.000Z</time>
      </trkpt>
      <trkpt lat="43.55681" lon="6.78881">
        <ele>158.1</ele>
        <time>2025-10-24T06:13:31.000Z</time>
      </trkpt>
      <trkpt lat="43.55678" lon="6.78882">
        <ele>158.1</ele>
        <time>2025-10-24T06:13:32.000Z</time>
      </trkpt>
      <trkpt lat="43.55675" lon="6.78883">
        <ele>158.1</ele>
        <time>2025-10-24T06:13:33.000Z</time>
      </trkpt>
      <trkpt lat="43.55673" lon="6.78885">
        <ele>158.1</ele>
        <time>2025-10-24T06:13:34.000Z</time>
      </trkpt>
      <trkpt lat="43.5567" lon="6.78886">
        <ele>158.1</ele>
        <time>2025-10-24T06:13:35.000Z</time>
      </trkpt>
      <trkpt lat="43.55667" lon="6.78888">
        <ele>158.2</ele>
        <time>2025-10-24T06:13:36.000Z</time>
      </trkpt>
      <trkpt lat="43.55664" lon="6.7889">
        <ele>158.2</ele>
        <time>2025-10-24T06:13:37.000Z</time>
      </trkpt>
      <trkpt lat="43.55662" lon="6.78893">
        <ele>158.2</ele>
        <time>2025-10-24T06:13:38.000Z</time>
      </trkpt>
      <trkpt lat="43.55659" lon="6.78895">
        <ele>158.2</ele>
        <time>2025-10-24T06:13:39.000Z</time>
      </trkpt>
      <trkpt lat="43.55656" lon="6.78897">
        <ele>158.2</ele>
        <time>2025-10-24T06:13:40.000Z</time>
      </trkpt>
      <trkpt lat="43.55653" lon="6.78898">
        <ele>158.2</ele>
        <time>2025-10-24T06:13:41.000Z</time>
      </trkpt>
      <trkpt lat="43.5565" lon="6.78899">
        <ele>158.2</ele>
        <time>2025-10-24T06:13:42.000Z</time>
      </trkpt>
      <trkpt lat="43.55647" lon="6.78901">
        <ele>158.2</ele>
        <time>2025-10-24T06:13:43.000Z</time>
      </trkpt>
      <trkpt lat="43.55644" lon="6.78903">
        <ele>158.2</ele>
        <time>2025-10-24T06:13:44.000Z</time>
      </trkpt>
      <trkpt lat="43.55642" lon="6.78905">
        <ele>158.2</ele>
        <time>2025-10-24T06:13:45.000Z</time>
      </trkpt>
      <trkpt lat="43.55639" lon="6.78908">
        <ele>158.1</ele>
        <time>2025-10-24T06:13:46.000Z</time>
      </trkpt>
      <trkpt lat="43.55636" lon="6.78912">
        <ele>158.1</ele>
        <time>2025-10-24T06:13:47.000Z</time>
      </trkpt>
      <trkpt lat="43.55633" lon="6.78916">
        <ele>158.1</ele>
        <time>2025-10-24T06:13:48.000Z</time>
      </trkpt>
      <trkpt lat="43.5563" lon="6.7892">
        <ele>158.2</ele>
        <time>2025-10-24T06:13:49.000Z</time>
      </trkpt>
      <trkpt lat="43.55627" lon="6.78924">
        <ele>158.2</ele>
        <time>2025-10-24T06:13:50.000Z</time>
      </trkpt>
      <trkpt lat="43.55624" lon="6.78928">
        <ele>158.2</ele>
        <time>2025-10-24T06:13:51.000Z</time>
      </trkpt>
      <trkpt lat="43.55621" lon="6.78932">
        <ele>158.3</ele>
        <time>2025-10-24T06:13:52.000Z</time>
      </trkpt>
      <trkpt lat="43.55618" lon="6.78936">
        <ele>158.3</ele>
        <time>2025-10-24T06:13:53.000Z</time>
      </trkpt>
      <trkpt lat="43.55615" lon="6.78941">
        <ele>158.4</ele>
        <time>2025-10-24T06:13:54.000Z</time>
      </trkpt>
      <trkpt lat="43.55611" lon="6.78945">
        <ele>158.5</ele>
        <time>2025-10-24T06:13:55.000Z</time>
      </trkpt>
      <trkpt lat="43.55608" lon="6.7895">
        <ele>158.6</ele>
        <time>2025-10-24T06:13:56.000Z</time>
      </trkpt>
      <trkpt lat="43.55606" lon="6.78955">
        <ele>158.6</ele>
        <time>2025-10-24T06:13:57.000Z</time>
      </trkpt>
      <trkpt lat="43.55603" lon="6.7896">
        <ele>158.7</ele>
        <time>2025-10-24T06:13:58.000Z</time>
      </trkpt>
      <trkpt lat="43.556" lon="6.78965">
        <ele>158.7</ele>
        <time>2025-10-24T06:13:59.000Z</time>
      </trkpt>
      <trkpt lat="43.55598" lon="6.7897">
        <ele>158.7</ele>
        <time>2025-10-24T06:14:00.000Z</time>
      </trkpt>
      <trkpt lat="43.55595" lon="6.78975">
        <ele>158.7</ele>
        <time>2025-10-24T06:14:01.000Z</time>
      </trkpt>
      <trkpt lat="43.55592" lon="6.78981">
        <ele>158.6</ele>
        <time>2025-10-24T06:14:02.000Z</time>
      </trkpt>
      <trkpt lat="43.5559" lon="6.78986">
        <ele>158.6</ele>
        <time>2025-10-24T06:14:03.000Z</time>
      </trkpt>
      <trkpt lat="43.55587" lon="6.78991">
        <ele>158.6</ele>
        <time>2025-10-24T06:14:04.000Z</time>
      </trkpt>
      <trkpt lat="43.55584" lon="6.78997">
        <ele>158.5</ele>
        <time>2025-10-24T06:14:05.000Z</time>
      </trkpt>
      <trkpt lat="43.55582" lon="6.79002">
        <ele>158.5</ele>
        <time>2025-10-24T06:14:06.000Z</time>
      </trkpt>
      <trkpt lat="43.5558" lon="6.79008">
        <ele>158.5</ele>
        <time>2025-10-24T06:14:07.000Z</time>
      </trkpt>
      <trkpt lat="43.55577" lon="6.79014">
        <ele>158.5</ele>
        <time>2025-10-24T06:14:08.000Z</time>
      </trkpt>
      <trkpt lat="43.55575" lon="6.7902">
        <ele>158.5</ele>
        <time>2025-10-24T06:14:09.000Z</time>
      </trkpt>
      <trkpt lat="43.55573" lon="6.79026">
        <ele>158.6</ele>
        <time>2025-10-24T06:14:10.000Z</time>
      </trkpt>
      <trkpt lat="43.55571" lon="6.79033">
        <ele>158.6</ele>
        <time>2025-10-24T06:14:11.000Z</time>
      </trkpt>
      <trkpt lat="43.55569" lon="6.79039">
        <ele>158.7</ele>
        <time>2025-10-24T06:14:12.000Z</time>
      </trkpt>
      <trkpt lat="43.55567" lon="6.79045">
        <ele>158.7</ele>
        <time>2025-10-24T06:14:13.000Z</time>
      </trkpt>
      <trkpt lat="43.55565" lon="6.79052">
        <ele>158.8</ele>
        <time>2025-10-24T06:14:14.000Z</time>
      </trkpt>
      <trkpt lat="43.55564" lon="6.79059">
        <ele>158.9</ele>
        <time>2025-10-24T06:14:15.000Z</time>
      </trkpt>
      <trkpt lat="43.55562" lon="6.79066">
        <ele>159</ele>
        <time>2025-10-24T06:14:16.000Z</time>
      </trkpt>
      <trkpt lat="43.55561" lon="6.79072">
        <ele>159.1</ele>
        <time>2025-10-24T06:14:17.000Z</time>
      </trkpt>
      <trkpt lat="43.5556" lon="6.79079">
        <ele>159.2</ele>
        <time>2025-10-24T06:14:18.000Z</time>
      </trkpt>
      <trkpt lat="43.55559" lon="6.79085">
        <ele>159.3</ele>
        <time>2025-10-24T06:14:19.000Z</time>
      </trkpt>
      <trkpt lat="43.55557" lon="6.79091">
        <ele>159.4</ele>
        <time>2025-10-24T06:14:20.000Z</time>
      </trkpt>
      <trkpt lat="43.55556" lon="6.79096">
        <ele>159.4</ele>
        <time>2025-10-24T06:14:21.000Z</time>
      </trkpt>
      <trkpt lat="43.55554" lon="6.79101">
        <ele>159.4</ele>
        <time>2025-10-24T06:14:22.000Z</time>
      </trkpt>
      <trkpt lat="43.55553" lon="6.79106">
        <ele>159.4</ele>
        <time>2025-10-24T06:14:23.000Z</time>
      </trkpt>
      <trkpt lat="43.55552" lon="6.79112">
        <ele>159.3</ele>
        <time>2025-10-24T06:14:24.000Z</time>
      </trkpt>
      <trkpt lat="43.55552" lon="6.79117">
        <ele>159.3</ele>
        <time>2025-10-24T06:14:25.000Z</time>
      </trkpt>
      <trkpt lat="43.55551" lon="6.79123">
        <ele>159.2</ele>
        <time>2025-10-24T06:14:26.000Z</time>
      </trkpt>
      <trkpt lat="43.55551" lon="6.79128">
        <ele>159.1</ele>
        <time>2025-10-24T06:14:27.000Z</time>
      </trkpt>
      <trkpt lat="43.55551" lon="6.79133">
        <ele>158.9</ele>
        <time>2025-10-24T06:14:28.000Z</time>
      </trkpt>
      <trkpt lat="43.5555" lon="6.79138">
        <ele>158.8</ele>
        <time>2025-10-24T06:14:29.000Z</time>
      </trkpt>
      <trkpt lat="43.5555" lon="6.79142">
        <ele>158.6</ele>
        <time>2025-10-24T06:14:30.000Z</time>
      </trkpt>
      <trkpt lat="43.55548" lon="6.79145">
        <ele>158.5</ele>
        <time>2025-10-24T06:14:31.000Z</time>
      </trkpt>
      <trkpt lat="43.55546" lon="6.79148">
        <ele>158.3</ele>
        <time>2025-10-24T06:14:32.000Z</time>
      </trkpt>
      <trkpt lat="43.55543" lon="6.79149">
        <ele>158.1</ele>
        <time>2025-10-24T06:14:33.000Z</time>
      </trkpt>
      <trkpt lat="43.55539" lon="6.7915">
        <ele>157.8</ele>
        <time>2025-10-24T06:14:34.000Z</time>
      </trkpt>
      <trkpt lat="43.55535" lon="6.79151">
        <ele>157.5</ele>
        <time>2025-10-24T06:14:35.000Z</time>
      </trkpt>
      <trkpt lat="43.5553" lon="6.79152">
        <ele>157.2</ele>
        <time>2025-10-24T06:14:36.000Z</time>
      </trkpt>
      <trkpt lat="43.55524" lon="6.79153">
        <ele>157</ele>
        <time>2025-10-24T06:14:37.000Z</time>
      </trkpt>
      <trkpt lat="43.55519" lon="6.79155">
        <ele>156.8</ele>
        <time>2025-10-24T06:14:38.000Z</time>
      </trkpt>
      <trkpt lat="43.55513" lon="6.79159">
        <ele>156.7</ele>
        <time>2025-10-24T06:14:39.000Z</time>
      </trkpt>
      <trkpt lat="43.55508" lon="6.79163">
        <ele>156.7</ele>
        <time>2025-10-24T06:14:40.000Z</time>
      </trkpt>
      <trkpt lat="43.55503" lon="6.79167">
        <ele>156.7</ele>
        <time>2025-10-24T06:14:41.000Z</time>
      </trkpt>
      <trkpt lat="43.55498" lon="6.79172">
        <ele>156.7</ele>
        <time>2025-10-24T06:14:42.000Z</time>
      </trkpt>
      <trkpt lat="43.55495" lon="6.79177">
        <ele>156.7</ele>
        <time>2025-10-24T06:14:43.000Z</time>
      </trkpt>
      <trkpt lat="43.55493" lon="6.79182">
        <ele>156.6</ele>
        <time>2025-10-24T06:14:44.000Z</time>
      </trkpt>
      <trkpt lat="43.55493" lon="6.79188">
        <ele>156.5</ele>
        <time>2025-10-24T06:14:45.000Z</time>
      </trkpt>
      <trkpt lat="43.55492" lon="6.79194">
        <ele>156.4</ele>
        <time>2025-10-24T06:14:46.000Z</time>
      </trkpt>
      <trkpt lat="43.55492" lon="6.79201">
        <ele>156.2</ele>
        <time>2025-10-24T06:14:47.000Z</time>
      </trkpt>
      <trkpt lat="43.55491" lon="6.79207">
        <ele>156.1</ele>
        <time>2025-10-24T06:14:48.000Z</time>
      </trkpt>
      <trkpt lat="43.55491" lon="6.79213">
        <ele>156</ele>
        <time>2025-10-24T06:14:49.000Z</time>
      </trkpt>
      <trkpt lat="43.55491" lon="6.79219">
        <ele>156</ele>
        <time>2025-10-24T06:14:50.000Z</time>
      </trkpt>
      <trkpt lat="43.5549" lon="6.79225">
        <ele>155.9</ele>
        <time>2025-10-24T06:14:51.000Z</time>
      </trkpt>
      <trkpt lat="43.55489" lon="6.7923">
        <ele>155.9</ele>
        <time>2025-10-24T06:14:52.000Z</time>
      </trkpt>
      <trkpt lat="43.55486" lon="6.79234">
        <ele>155.9</ele>
        <time>2025-10-24T06:14:53.000Z</time>
      </trkpt>
      <trkpt lat="43.55484" lon="6.79237">
        <ele>155.8</ele>
        <time>2025-10-24T06:14:54.000Z</time>
      </trkpt>
      <trkpt lat="43.5548" lon="6.79239">
        <ele>155.8</ele>
        <time>2025-10-24T06:14:55.000Z</time>
      </trkpt>
      <trkpt lat="43.55477" lon="6.79242">
        <ele>155.8</ele>
        <time>2025-10-24T06:14:56.000Z</time>
      </trkpt>
      <trkpt lat="43.55473" lon="6.79244">
        <ele>155.8</ele>
        <time>2025-10-24T06:14:57.000Z</time>
      </trkpt>
      <trkpt lat="43.55468" lon="6.79246">
        <ele>155.9</ele>
        <time>2025-10-24T06:14:58.000Z</time>
      </trkpt>
      <trkpt lat="43.55464" lon="6.79247">
        <ele>155.9</ele>
        <time>2025-10-24T06:14:59.000Z</time>
      </trkpt>
      <trkpt lat="43.55459" lon="6.79248">
        <ele>156</ele>
        <time>2025-10-24T06:15:00.000Z</time>
      </trkpt>
      <trkpt lat="43.55454" lon="6.79248">
        <ele>156.1</ele>
        <time>2025-10-24T06:15:01.000Z</time>
      </trkpt>
      <trkpt lat="43.55449" lon="6.79247">
        <ele>156.2</ele>
        <time>2025-10-24T06:15:02.000Z</time>
      </trkpt>
      <trkpt lat="43.55444" lon="6.79245">
        <ele>156.3</ele>
        <time>2025-10-24T06:15:03.000Z</time>
      </trkpt>
      <trkpt lat="43.5544" lon="6.79244">
        <ele>156.5</ele>
        <time>2025-10-24T06:15:04.000Z</time>
      </trkpt>
      <trkpt lat="43.55435" lon="6.79243">
        <ele>156.6</ele>
        <time>2025-10-24T06:15:05.000Z</time>
      </trkpt>
      <trkpt lat="43.5543" lon="6.79243">
        <ele>156.8</ele>
        <time>2025-10-24T06:15:06.000Z</time>
      </trkpt>
      <trkpt lat="43.55425" lon="6.79243">
        <ele>156.9</ele>
        <time>2025-10-24T06:15:07.000Z</time>
      </trkpt>
      <trkpt lat="43.55421" lon="6.79245">
        <ele>157</ele>
        <time>2025-10-24T06:15:08.000Z</time>
      </trkpt>
      <trkpt lat="43.55417" lon="6.79248">
        <ele>157.1</ele>
        <time>2025-10-24T06:15:09.000Z</time>
      </trkpt>
      <trkpt lat="43.55413" lon="6.79251">
        <ele>157.2</ele>
        <time>2025-10-24T06:15:10.000Z</time>
      </trkpt>
      <trkpt lat="43.5541" lon="6.79256">
        <ele>157.4</ele>
        <time>2025-10-24T06:15:11.000Z</time>
      </trkpt>
      <trkpt lat="43.55407" lon="6.7926">
        <ele>157.5</ele>
        <time>2025-10-24T06:15:12.000Z</time>
      </trkpt>
      <trkpt lat="43.55405" lon="6.79265">
        <ele>157.6</ele>
        <time>2025-10-24T06:15:13.000Z</time>
      </trkpt>
      <trkpt lat="43.55403" lon="6.7927">
        <ele>157.8</ele>
        <time>2025-10-24T06:15:14.000Z</time>
      </trkpt>
      <trkpt lat="43.55401" lon="6.79274">
        <ele>157.9</ele>
        <time>2025-10-24T06:15:15.000Z</time>
      </trkpt>
      <trkpt lat="43.55399" lon="6.79278">
        <ele>158.1</ele>
        <time>2025-10-24T06:15:16.000Z</time>
      </trkpt>
      <trkpt lat="43.55397" lon="6.79282">
        <ele>158.2</ele>
        <time>2025-10-24T06:15:17.000Z</time>
      </trkpt>
      <trkpt lat="43.55396" lon="6.79286">
        <ele>158.3</ele>
        <time>2025-10-24T06:15:18.000Z</time>
      </trkpt>
      <trkpt lat="43.55394" lon="6.7929">
        <ele>158.4</ele>
        <time>2025-10-24T06:15:19.000Z</time>
      </trkpt>
      <trkpt lat="43.55392" lon="6.79295">
        <ele>158.5</ele>
        <time>2025-10-24T06:15:20.000Z</time>
      </trkpt>
      <trkpt lat="43.5539" lon="6.79299">
        <ele>158.5</ele>
        <time>2025-10-24T06:15:21.000Z</time>
      </trkpt>
      <trkpt lat="43.55388" lon="6.79303">
        <ele>158.4</ele>
        <time>2025-10-24T06:15:22.000Z</time>
      </trkpt>
      <trkpt lat="43.55385" lon="6.79306">
        <ele>158.4</ele>
        <time>2025-10-24T06:15:23.000Z</time>
      </trkpt>
      <trkpt lat="43.55382" lon="6.79309">
        <ele>158.2</ele>
        <time>2025-10-24T06:15:24.000Z</time>
      </trkpt>
      <trkpt lat="43.55377" lon="6.79312">
        <ele>158</ele>
        <time>2025-10-24T06:15:25.000Z</time>
      </trkpt>
      <trkpt lat="43.55373" lon="6.79314">
        <ele>157.8</ele>
        <time>2025-10-24T06:15:26.000Z</time>
      </trkpt>
      <trkpt lat="43.55367" lon="6.79315">
        <ele>157.6</ele>
        <time>2025-10-24T06:15:27.000Z</time>
      </trkpt>
      <trkpt lat="43.55362" lon="6.79315">
        <ele>157.4</ele>
        <time>2025-10-24T06:15:28.000Z</time>
      </trkpt>
      <trkpt lat="43.55358" lon="6.79314">
        <ele>157.3</ele>
        <time>2025-10-24T06:15:29.000Z</time>
      </trkpt>
      <trkpt lat="43.55354" lon="6.79313">
        <ele>157.2</ele>
        <time>2025-10-24T06:15:30.000Z</time>
      </trkpt>
      <trkpt lat="43.55351" lon="6.79311">
        <ele>157.2</ele>
        <time>2025-10-24T06:15:31.000Z</time>
      </trkpt>
      <trkpt lat="43.55349" lon="6.79308">
        <ele>157.1</ele>
        <time>2025-10-24T06:15:32.000Z</time>
      </trkpt>
      <trkpt lat="43.55346" lon="6.79304">
        <ele>157.1</ele>
        <time>2025-10-24T06:15:33.000Z</time>
      </trkpt>
      <trkpt lat="43.55343" lon="6.79301">
        <ele>157</ele>
        <time>2025-10-24T06:15:34.000Z</time>
      </trkpt>
      <trkpt lat="43.5534" lon="6.79297">
        <ele>157</ele>
        <time>2025-10-24T06:15:35.000Z</time>
      </trkpt>
      <trkpt lat="43.55336" lon="6.79294">
        <ele>157</ele>
        <time>2025-10-24T06:15:36.000Z</time>
      </trkpt>
      <trkpt lat="43.55332" lon="6.79291">
        <ele>156.9</ele>
        <time>2025-10-24T06:15:37.000Z</time>
      </trkpt>
      <trkpt lat="43.55328" lon="6.7929">
        <ele>156.9</ele>
        <time>2025-10-24T06:15:38.000Z</time>
      </trkpt>
      <trkpt lat="43.55324" lon="6.79289">
        <ele>156.8</ele>
        <time>2025-10-24T06:15:39.000Z</time>
      </trkpt>
      <trkpt lat="43.5532" lon="6.79289">
        <ele>156.7</ele>
        <time>2025-10-24T06:15:40.000Z</time>
      </trkpt>
      <trkpt lat="43.55316" lon="6.79289">
        <ele>156.7</ele>
        <time>2025-10-24T06:15:41.000Z</time>
      </trkpt>
      <trkpt lat="43.55312" lon="6.79289">
        <ele>156.6</ele>
        <time>2025-10-24T06:15:42.000Z</time>
      </trkpt>
      <trkpt lat="43.55309" lon="6.7929">
        <ele>156.5</ele>
        <time>2025-10-24T06:15:43.000Z</time>
      </trkpt>
      <trkpt lat="43.55305" lon="6.79291">
        <ele>156.5</ele>
        <time>2025-10-24T06:15:44.000Z</time>
      </trkpt>
      <trkpt lat="43.55302" lon="6.79292">
        <ele>156.4</ele>
        <time>2025-10-24T06:15:45.000Z</time>
      </trkpt>
      <trkpt lat="43.55298" lon="6.79293">
        <ele>156.4</ele>
        <time>2025-10-24T06:15:46.000Z</time>
      </trkpt>
      <trkpt lat="43.55295" lon="6.79295">
        <ele>156.4</ele>
        <time>2025-10-24T06:15:47.000Z</time>
      </trkpt>
      <trkpt lat="43.55291" lon="6.79297">
        <ele>156.3</ele>
        <time>2025-10-24T06:15:48.000Z</time>
      </trkpt>
      <trkpt lat="43.55288" lon="6.79299">
        <ele>156.3</ele>
        <time>2025-10-24T06:15:49.000Z</time>
      </trkpt>
      <trkpt lat="43.55284" lon="6.79302">
        <ele>156.3</ele>
        <time>2025-10-24T06:15:50.000Z</time>
      </trkpt>
      <trkpt lat="43.5528" lon="6.79306">
        <ele>156.3</ele>
        <time>2025-10-24T06:15:51.000Z</time>
      </trkpt>
      <trkpt lat="43.55277" lon="6.7931">
        <ele>156.4</ele>
        <time>2025-10-24T06:15:52.000Z</time>
      </trkpt>
      <trkpt lat="43.55273" lon="6.79313">
        <ele>156.5</ele>
        <time>2025-10-24T06:15:53.000Z</time>
      </trkpt>
      <trkpt lat="43.5527" lon="6.79317">
        <ele>156.6</ele>
        <time>2025-10-24T06:15:54.000Z</time>
      </trkpt>
      <trkpt lat="43.55266" lon="6.79321">
        <ele>156.8</ele>
        <time>2025-10-24T06:15:55.000Z</time>
      </trkpt>
      <trkpt lat="43.55262" lon="6.79324">
        <ele>157</ele>
        <time>2025-10-24T06:15:56.000Z</time>
      </trkpt>
      <trkpt lat="43.55259" lon="6.79328">
        <ele>157.3</ele>
        <time>2025-10-24T06:15:57.000Z</time>
      </trkpt>
      <trkpt lat="43.55255" lon="6.79332">
        <ele>157.6</ele>
        <time>2025-10-24T06:15:58.000Z</time>
      </trkpt>
      <trkpt lat="43.55253" lon="6.79336">
        <ele>157.9</ele>
        <time>2025-10-24T06:15:59.000Z</time>
      </trkpt>
      <trkpt lat="43.55251" lon="6.7934">
        <ele>158.1</ele>
        <time>2025-10-24T06:16:00.000Z</time>
      </trkpt>
      <trkpt lat="43.55249" lon="6.79345">
        <ele>158.3</ele>
        <time>2025-10-24T06:16:01.000Z</time>
      </trkpt>
      <trkpt lat="43.55247" lon="6.79349">
        <ele>158.4</ele>
        <time>2025-10-24T06:16:02.000Z</time>
      </trkpt>
      <trkpt lat="43.55246" lon="6.79353">
        <ele>158.5</ele>
        <time>2025-10-24T06:16:03.000Z</time>
      </trkpt>
      <trkpt lat="43.55244" lon="6.79358">
        <ele>158.6</ele>
        <time>2025-10-24T06:16:04.000Z</time>
      </trkpt>
      <trkpt lat="43.55242" lon="6.79363">
        <ele>158.6</ele>
        <time>2025-10-24T06:16:05.000Z</time>
      </trkpt>
      <trkpt lat="43.5524" lon="6.79367">
        <ele>158.5</ele>
        <time>2025-10-24T06:16:06.000Z</time>
      </trkpt>
      <trkpt lat="43.55238" lon="6.79371">
        <ele>158.4</ele>
        <time>2025-10-24T06:16:07.000Z</time>
      </trkpt>
      <trkpt lat="43.55236" lon="6.79376">
        <ele>158.3</ele>
        <time>2025-10-24T06:16:08.000Z</time>
      </trkpt>
      <trkpt lat="43.55234" lon="6.79381">
        <ele>158.1</ele>
        <time>2025-10-24T06:16:09.000Z</time>
      </trkpt>
      <trkpt lat="43.55231" lon="6.79386">
        <ele>158</ele>
        <time>2025-10-24T06:16:10.000Z</time>
      </trkpt>
      <trkpt lat="43.55229" lon="6.79391">
        <ele>157.8</ele>
        <time>2025-10-24T06:16:11.000Z</time>
      </trkpt>
      <trkpt lat="43.55226" lon="6.79397">
        <ele>157.6</ele>
        <time>2025-10-24T06:16:12.000Z</time>
      </trkpt>
      <trkpt lat="43.55224" lon="6.79402">
        <ele>157.3</ele>
        <time>2025-10-24T06:16:13.000Z</time>
      </trkpt>
      <trkpt lat="43.55222" lon="6.79408">
        <ele>157.1</ele>
        <time>2025-10-24T06:16:14.000Z</time>
      </trkpt>
      <trkpt lat="43.5522" lon="6.79413">
        <ele>157</ele>
        <time>2025-10-24T06:16:15.000Z</time>
      </trkpt>
      <trkpt lat="43.55217" lon="6.79419">
        <ele>156.8</ele>
        <time>2025-10-24T06:16:16.000Z</time>
      </trkpt>
      <trkpt lat="43.55215" lon="6.79424">
        <ele>156.6</ele>
        <time>2025-10-24T06:16:17.000Z</time>
      </trkpt>
      <trkpt lat="43.55212" lon="6.7943">
        <ele>156.6</ele>
        <time>2025-10-24T06:16:18.000Z</time>
      </trkpt>
      <trkpt lat="43.5521" lon="6.79435">
        <ele>156.5</ele>
        <time>2025-10-24T06:16:19.000Z</time>
      </trkpt>
      <trkpt lat="43.55207" lon="6.7944">
        <ele>156.4</ele>
        <time>2025-10-24T06:16:20.000Z</time>
      </trkpt>
      <trkpt lat="43.55205" lon="6.79445">
        <ele>156.4</ele>
        <time>2025-10-24T06:16:21.000Z</time>
      </trkpt>
      <trkpt lat="43.55202" lon="6.79449">
        <ele>156.4</ele>
        <time>2025-10-24T06:16:22.000Z</time>
      </trkpt>
      <trkpt lat="43.552" lon="6.79454">
        <ele>156.4</ele>
        <time>2025-10-24T06:16:23.000Z</time>
      </trkpt>
      <trkpt lat="43.55198" lon="6.79458">
        <ele>156.4</ele>
        <time>2025-10-24T06:16:24.000Z</time>
      </trkpt>
      <trkpt lat="43.55197" lon="6.79462">
        <ele>156.4</ele>
        <time>2025-10-24T06:16:25.000Z</time>
      </trkpt>
      <trkpt lat="43.55197" lon="6.79467">
        <ele>156.5</ele>
        <time>2025-10-24T06:16:26.000Z</time>
      </trkpt>
      <trkpt lat="43.55196" lon="6.79472">
        <ele>156.5</ele>
        <time>2025-10-24T06:16:27.000Z</time>
      </trkpt>
      <trkpt lat="43.55197" lon="6.79477">
        <ele>156.5</ele>
        <time>2025-10-24T06:16:28.000Z</time>
      </trkpt>
      <trkpt lat="43.55198" lon="6.79482">
        <ele>156.5</ele>
        <time>2025-10-24T06:16:29.000Z</time>
      </trkpt>
      <trkpt lat="43.55199" lon="6.79487">
        <ele>156.4</ele>
        <time>2025-10-24T06:16:30.000Z</time>
      </trkpt>
      <trkpt lat="43.552" lon="6.79492">
        <ele>156.4</ele>
        <time>2025-10-24T06:16:31.000Z</time>
      </trkpt>
      <trkpt lat="43.55201" lon="6.79498">
        <ele>156.4</ele>
        <time>2025-10-24T06:16:32.000Z</time>
      </trkpt>
      <trkpt lat="43.55202" lon="6.79504">
        <ele>156.3</ele>
        <time>2025-10-24T06:16:33.000Z</time>
      </trkpt>
      <trkpt lat="43.55203" lon="6.7951">
        <ele>156.3</ele>
        <time>2025-10-24T06:16:34.000Z</time>
      </trkpt>
      <trkpt lat="43.55204" lon="6.79515">
        <ele>156.2</ele>
        <time>2025-10-24T06:16:35.000Z</time>
      </trkpt>
      <trkpt lat="43.55205" lon="6.79521">
        <ele>156.2</ele>
        <time>2025-10-24T06:16:36.000Z</time>
      </trkpt>
      <trkpt lat="43.55206" lon="6.79526">
        <ele>156.2</ele>
        <time>2025-10-24T06:16:37.000Z</time>
      </trkpt>
      <trkpt lat="43.55207" lon="6.79531">
        <ele>156.2</ele>
        <time>2025-10-24T06:16:38.000Z</time>
      </trkpt>
      <trkpt lat="43.55208" lon="6.79536">
        <ele>156.2</ele>
        <time>2025-10-24T06:16:39.000Z</time>
      </trkpt>
      <trkpt lat="43.55209" lon="6.79542">
        <ele>156.2</ele>
        <time>2025-10-24T06:16:40.000Z</time>
      </trkpt>
      <trkpt lat="43.55211" lon="6.79547">
        <ele>156.2</ele>
        <time>2025-10-24T06:16:41.000Z</time>
      </trkpt>
      <trkpt lat="43.55212" lon="6.79552">
        <ele>156.2</ele>
        <time>2025-10-24T06:16:42.000Z</time>
      </trkpt>
      <trkpt lat="43.55214" lon="6.79557">
        <ele>156.3</ele>
        <time>2025-10-24T06:16:43.000Z</time>
      </trkpt>
      <trkpt lat="43.55215" lon="6.79563">
        <ele>156.3</ele>
        <time>2025-10-24T06:16:44.000Z</time>
      </trkpt>
      <trkpt lat="43.55216" lon="6.79568">
        <ele>156.3</ele>
        <time>2025-10-24T06:16:45.000Z</time>
      </trkpt>
      <trkpt lat="43.55218" lon="6.79573">
        <ele>156.3</ele>
        <time>2025-10-24T06:16:46.000Z</time>
      </trkpt>
      <trkpt lat="43.5522" lon="6.79578">
        <ele>156.4</ele>
        <time>2025-10-24T06:16:47.000Z</time>
      </trkpt>
      <trkpt lat="43.55221" lon="6.79583">
        <ele>156.4</ele>
        <time>2025-10-24T06:16:48.000Z</time>
      </trkpt>
      <trkpt lat="43.55223" lon="6.79588">
        <ele>156.4</ele>
        <time>2025-10-24T06:16:49.000Z</time>
      </trkpt>
      <trkpt lat="43.55224" lon="6.79592">
        <ele>156.5</ele>
        <time>2025-10-24T06:16:50.000Z</time>
      </trkpt>
      <trkpt lat="43.55226" lon="6.79597">
        <ele>156.5</ele>
        <time>2025-10-24T06:16:51.000Z</time>
      </trkpt>
      <trkpt lat="43.55228" lon="6.79602">
        <ele>156.5</ele>
        <time>2025-10-24T06:16:52.000Z</time>
      </trkpt>
      <trkpt lat="43.5523" lon="6.79607">
        <ele>156.5</ele>
        <time>2025-10-24T06:16:53.000Z</time>
      </trkpt>
      <trkpt lat="43.55232" lon="6.79611">
        <ele>156.6</ele>
        <time>2025-10-24T06:16:54.000Z</time>
      </trkpt>
      <trkpt lat="43.55235" lon="6.79616">
        <ele>156.6</ele>
        <time>2025-10-24T06:16:55.000Z</time>
      </trkpt>
      <trkpt lat="43.55237" lon="6.7962">
        <ele>156.7</ele>
        <time>2025-10-24T06:16:56.000Z</time>
      </trkpt>
      <trkpt lat="43.5524" lon="6.79623">
        <ele>156.7</ele>
        <time>2025-10-24T06:16:57.000Z</time>
      </trkpt>
      <trkpt lat="43.55242" lon="6.79626">
        <ele>156.7</ele>
        <time>2025-10-24T06:16:58.000Z</time>
      </trkpt>
      <trkpt lat="43.55244" lon="6.79628">
        <ele>156.7</ele>
        <time>2025-10-24T06:16:59.000Z</time>
      </trkpt>
      <trkpt lat="43.55246" lon="6.7963">
        <ele>156.7</ele>
        <time>2025-10-24T06:17:00.000Z</time>
      </trkpt>
      <trkpt lat="43.55247" lon="6.79632">
        <ele>156.7</ele>
        <time>2025-10-24T06:17:01.000Z</time>
      </trkpt>
      <trkpt lat="43.55248" lon="6.79632">
        <ele>156.7</ele>
        <time>2025-10-24T06:17:02.000Z</time>
      </trkpt>
      <trkpt lat="43.55248" lon="6.79633">
        <ele>156.7</ele>
        <time>2025-10-24T06:17:03.000Z</time>
      </trkpt>
      <trkpt lat="43.55249" lon="6.79633">
        <ele>156.7</ele>
        <time>2025-10-24T06:17:04.000Z</time>
      </trkpt>
      <trkpt lat="43.55249" lon="6.79633">
        <ele>156.7</ele>
        <time>2025-10-24T06:17:05.000Z</time>
      </trkpt>
      <trkpt lat="43.5525" lon="6.79633">
        <ele>156.7</ele>
        <time>2025-10-24T06:17:06.000Z</time>
      </trkpt>
      <trkpt lat="43.5525" lon="6.79632">
        <ele>156.7</ele>
        <time>2025-10-24T06:17:07.000Z</time>
      </trkpt>
      <trkpt lat="43.5525" lon="6.79632">
        <ele>156.7</ele>
        <time>2025-10-24T06:17:08.000Z</time>
      </trkpt>
      <trkpt lat="43.5525" lon="6.79632">
        <ele>156.7</ele>
        <time>2025-10-24T06:17:09.000Z</time>
      </trkpt>
      <trkpt lat="43.5525" lon="6.79632">
        <ele>156.7</ele>
        <time>2025-10-24T06:17:10.000Z</time>
      </trkpt>
      <trkpt lat="43.5525" lon="6.79632">
        <ele>156.7</ele>
        <time>2025-10-24T06:17:11.000Z</time>
      </trkpt>
      <trkpt lat="43.55251" lon="6.79631">
        <ele>156.7</ele>
        <time>2025-10-24T06:17:12.000Z</time>
      </trkpt>
      <trkpt lat="43.55251" lon="6.79631">
        <ele>156.7</ele>
        <time>2025-10-24T06:17:13.000Z</time>
      </trkpt>
      <trkpt lat="43.55251" lon="6.79631">
        <ele>156.7</ele>
        <time>2025-10-24T06:17:14.000Z</time>
      </trkpt>
      <trkpt lat="43.55252" lon="6.7963">
        <ele>156.7</ele>
        <time>2025-10-24T06:17:15.000Z</time>
      </trkpt>
      <trkpt lat="43.55252" lon="6.7963">
        <ele>156.7</ele>
        <time>2025-10-24T06:17:16.000Z</time>
      </trkpt>
      <trkpt lat="43.55252" lon="6.7963">
        <ele>156.7</ele>
        <time>2025-10-24T06:17:17.000Z</time>
      </trkpt>
      <trkpt lat="43.55252" lon="6.7963">
        <ele>156.7</ele>
        <time>2025-10-24T06:17:18.000Z</time>
      </trkpt>
      <trkpt lat="43.55252" lon="6.7963">
        <ele>156.7</ele>
        <time>2025-10-24T06:17:19.000Z</time>
      </trkpt>
      <trkpt lat="43.55252" lon="6.7963">
        <ele>156.7</ele>
        <time>2025-10-24T06:17:20.000Z</time>
      </trkpt>
      <trkpt lat="43.55252" lon="6.7963">
        <ele>156.7</ele>
        <time>2025-10-24T06:17:21.000Z</time>
      </trkpt>
      <trkpt lat="43.55252" lon="6.7963">
        <ele>156.7</ele>
        <time>2025-10-24T06:17:22.000Z</time>
      </trkpt>
      <trkpt lat="43.55252" lon="6.7963">
        <ele>156.7</ele>
        <time>2025-10-24T06:17:23.000Z</time>
      </trkpt>
      <trkpt lat="43.55252" lon="6.7963">
        <ele>156.7</ele>
        <time>2025-10-24T06:17:24.000Z</time>
      </trkpt>
      <trkpt lat="43.55252" lon="6.7963">
        <ele>156.7</ele>
        <time>2025-10-24T06:17:25.000Z</time>
      </trkpt>
      <trkpt lat="43.55252" lon="6.79629">
        <ele>156.7</ele>
        <time>2025-10-24T06:17:26.000Z</time>
      </trkpt>
      <trkpt lat="43.55255" lon="6.79628">
        <ele>156.7</ele>
        <time>2025-10-24T06:17:27.000Z</time>
      </trkpt>
      <trkpt lat="43.55259" lon="6.79627">
        <ele>156.6</ele>
        <time>2025-10-24T06:17:28.000Z</time>
      </trkpt>
      <trkpt lat="43.55263" lon="6.79625">
        <ele>156.6</ele>
        <time>2025-10-24T06:17:29.000Z</time>
      </trkpt>
      <trkpt lat="43.55267" lon="6.79623">
        <ele>156.6</ele>
        <time>2025-10-24T06:17:30.000Z</time>
      </trkpt>
      <trkpt lat="43.55271" lon="6.79622">
        <ele>156.7</ele>
        <time>2025-10-24T06:17:31.000Z</time>
      </trkpt>
      <trkpt lat="43.55275" lon="6.7962">
        <ele>156.7</ele>
        <time>2025-10-24T06:17:32.000Z</time>
      </trkpt>
      <trkpt lat="43.5528" lon="6.79618">
        <ele>156.7</ele>
        <time>2025-10-24T06:17:33.000Z</time>
      </trkpt>
      <trkpt lat="43.55284" lon="6.79616">
        <ele>156.7</ele>
        <time>2025-10-24T06:17:34.000Z</time>
      </trkpt>
      <trkpt lat="43.55288" lon="6.79614">
        <ele>156.7</ele>
        <time>2025-10-24T06:17:35.000Z</time>
      </trkpt>
      <trkpt lat="43.55291" lon="6.79612">
        <ele>156.8</ele>
        <time>2025-10-24T06:17:36.000Z</time>
      </trkpt>
      <trkpt lat="43.55295" lon="6.79611">
        <ele>156.8</ele>
        <time>2025-10-24T06:17:37.000Z</time>
      </trkpt>
      <trkpt lat="43.55298" lon="6.79609">
        <ele>156.8</ele>
        <time>2025-10-24T06:17:38.000Z</time>
      </trkpt>
      <trkpt lat="43.55302" lon="6.79608">
        <ele>156.9</ele>
        <time>2025-10-24T06:17:39.000Z</time>
      </trkpt>
      <trkpt lat="43.55306" lon="6.79606">
        <ele>156.9</ele>
        <time>2025-10-24T06:17:40.000Z</time>
      </trkpt>
      <trkpt lat="43.5531" lon="6.79604">
        <ele>156.9</ele>
        <time>2025-10-24T06:17:41.000Z</time>
      </trkpt>
      <trkpt lat="43.55314" lon="6.79603">
        <ele>157</ele>
        <time>2025-10-24T06:17:42.000Z</time>
      </trkpt>
      <trkpt lat="43.55317" lon="6.79601">
        <ele>157</ele>
        <time>2025-10-24T06:17:43.000Z</time>
      </trkpt>
      <trkpt lat="43.55321" lon="6.79599">
        <ele>157.1</ele>
        <time>2025-10-24T06:17:44.000Z</time>
      </trkpt>
      <trkpt lat="43.55325" lon="6.79598">
        <ele>157.2</ele>
        <time>2025-10-24T06:17:45.000Z</time>
      </trkpt>
      <trkpt lat="43.55328" lon="6.79596">
        <ele>157.2</ele>
        <time>2025-10-24T06:17:46.000Z</time>
      </trkpt>
      <trkpt lat="43.55332" lon="6.79595">
        <ele>157.3</ele>
        <time>2025-10-24T06:17:47.000Z</time>
      </trkpt>
      <trkpt lat="43.55335" lon="6.79593">
        <ele>157.3</ele>
        <time>2025-10-24T06:17:48.000Z</time>
      </trkpt>
      <trkpt lat="43.55339" lon="6.79592">
        <ele>157.4</ele>
        <time>2025-10-24T06:17:49.000Z</time>
      </trkpt>
      <trkpt lat="43.55342" lon="6.7959">
        <ele>157.4</ele>
        <time>2025-10-24T06:17:50.000Z</time>
      </trkpt>
      <trkpt lat="43.55346" lon="6.79588">
        <ele>157.4</ele>
        <time>2025-10-24T06:17:51.000Z</time>
      </trkpt>
      <trkpt lat="43.5535" lon="6.79587">
        <ele>157.4</ele>
        <time>2025-10-24T06:17:52.000Z</time>
      </trkpt>
      <trkpt lat="43.55353" lon="6.79585">
        <ele>157.5</ele>
        <time>2025-10-24T06:17:53.000Z</time>
      </trkpt>
      <trkpt lat="43.55357" lon="6.79584">
        <ele>157.5</ele>
        <time>2025-10-24T06:17:54.000Z</time>
      </trkpt>
      <trkpt lat="43.55361" lon="6.79583">
        <ele>157.5</ele>
        <time>2025-10-24T06:17:55.000Z</time>
      </trkpt>
      <trkpt lat="43.55364" lon="6.79581">
        <ele>157.5</ele>
        <time>2025-10-24T06:17:56.000Z</time>
      </trkpt>
      <trkpt lat="43.55367" lon="6.7958">
        <ele>157.6</ele>
        <time>2025-10-24T06:17:57.000Z</time>
      </trkpt>
      <trkpt lat="43.5537" lon="6.79578">
        <ele>157.6</ele>
        <time>2025-10-24T06:17:58.000Z</time>
      </trkpt>
      <trkpt lat="43.55373" lon="6.79576">
        <ele>157.6</ele>
        <time>2025-10-24T06:17:59.000Z</time>
      </trkpt>
      <trkpt lat="43.55375" lon="6.79574">
        <ele>157.6</ele>
        <time>2025-10-24T06:18:00.000Z</time>
      </trkpt>
      <trkpt lat="43.55377" lon="6.79572">
        <ele>157.6</ele>
        <time>2025-10-24T06:18:01.000Z</time>
      </trkpt>
      <trkpt lat="43.55379" lon="6.79569">
        <ele>157.6</ele>
        <time>2025-10-24T06:18:02.000Z</time>
      </trkpt>
      <trkpt lat="43.5538" lon="6.79566">
        <ele>157.7</ele>
        <time>2025-10-24T06:18:03.000Z</time>
      </trkpt>
      <trkpt lat="43.5538" lon="6.79564">
        <ele>157.7</ele>
        <time>2025-10-24T06:18:04.000Z</time>
      </trkpt>
      <trkpt lat="43.55379" lon="6.79561">
        <ele>157.7</ele>
        <time>2025-10-24T06:18:05.000Z</time>
      </trkpt>
      <trkpt lat="43.55377" lon="6.79559">
        <ele>157.7</ele>
        <time>2025-10-24T06:18:06.000Z</time>
      </trkpt>
      <trkpt lat="43.55375" lon="6.79557">
        <ele>157.7</ele>
        <time>2025-10-24T06:18:07.000Z</time>
      </trkpt>
      <trkpt lat="43.55373" lon="6.79555">
        <ele>157.7</ele>
        <time>2025-10-24T06:18:08.000Z</time>
      </trkpt>
      <trkpt lat="43.55371" lon="6.79555">
        <ele>157.7</ele>
        <time>2025-10-24T06:18:09.000Z</time>
      </trkpt>
      <trkpt lat="43.55369" lon="6.79557">
        <ele>157.8</ele>
        <time>2025-10-24T06:18:10.000Z</time>
      </trkpt>
      <trkpt lat="43.55368" lon="6.79559">
        <ele>157.8</ele>
        <time>2025-10-24T06:18:11.000Z</time>
      </trkpt>
      <trkpt lat="43.55368" lon="6.79562">
        <ele>157.8</ele>
        <time>2025-10-24T06:18:12.000Z</time>
      </trkpt>
      <trkpt lat="43.5537" lon="6.79565">
        <ele>157.8</ele>
        <time>2025-10-24T06:18:13.000Z</time>
      </trkpt>
      <trkpt lat="43.55372" lon="6.79568">
        <ele>157.8</ele>
        <time>2025-10-24T06:18:14.000Z</time>
      </trkpt>
      <trkpt lat="43.55375" lon="6.79569">
        <ele>157.8</ele>
        <time>2025-10-24T06:18:15.000Z</time>
      </trkpt>
      <trkpt lat="43.55379" lon="6.7957">
        <ele>157.9</ele>
        <time>2025-10-24T06:18:16.000Z</time>
      </trkpt>
      <trkpt lat="43.55382" lon="6.79572">
        <ele>157.9</ele>
        <time>2025-10-24T06:18:17.000Z</time>
      </trkpt>
      <trkpt lat="43.55386" lon="6.79573">
        <ele>157.9</ele>
        <time>2025-10-24T06:18:18.000Z</time>
      </trkpt>
      <trkpt lat="43.55388" lon="6.79575">
        <ele>157.9</ele>
        <time>2025-10-24T06:18:19.000Z</time>
      </trkpt>
      <trkpt lat="43.55391" lon="6.79578">
        <ele>157.9</ele>
        <time>2025-10-24T06:18:20.000Z</time>
      </trkpt>
      <trkpt lat="43.55394" lon="6.7958">
        <ele>158</ele>
        <time>2025-10-24T06:18:21.000Z</time>
      </trkpt>
      <trkpt lat="43.55397" lon="6.79582">
        <ele>158</ele>
        <time>2025-10-24T06:18:22.000Z</time>
      </trkpt>
      <trkpt lat="43.554" lon="6.79583">
        <ele>158</ele>
        <time>2025-10-24T06:18:23.000Z</time>
      </trkpt>
      <trkpt lat="43.55403" lon="6.79584">
        <ele>158.1</ele>
        <time>2025-10-24T06:18:24.000Z</time>
      </trkpt>
      <trkpt lat="43.55407" lon="6.79585">
        <ele>158.1</ele>
        <time>2025-10-24T06:18:25.000Z</time>
      </trkpt>
      <trkpt lat="43.5541" lon="6.79585">
        <ele>158.2</ele>
        <time>2025-10-24T06:18:26.000Z</time>
      </trkpt>
      <trkpt lat="43.55414" lon="6.79586">
        <ele>158.2</ele>
        <time>2025-10-24T06:18:27.000Z</time>
      </trkpt>
      <trkpt lat="43.55417" lon="6.79586">
        <ele>158.3</ele>
        <time>2025-10-24T06:18:28.000Z</time>
      </trkpt>
      <trkpt lat="43.55421" lon="6.79586">
        <ele>158.3</ele>
        <time>2025-10-24T06:18:29.000Z</time>
      </trkpt>
      <trkpt lat="43.55424" lon="6.79587">
        <ele>158.3</ele>
        <time>2025-10-24T06:18:30.000Z</time>
      </trkpt>
      <trkpt lat="43.55428" lon="6.79588">
        <ele>158.4</ele>
        <time>2025-10-24T06:18:31.000Z</time>
      </trkpt>
      <trkpt lat="43.55432" lon="6.79588">
        <ele>158.5</ele>
        <time>2025-10-24T06:18:32.000Z</time>
      </trkpt>
      <trkpt lat="43.55435" lon="6.79589">
        <ele>158.5</ele>
        <time>2025-10-24T06:18:33.000Z</time>
      </trkpt>
      <trkpt lat="43.55439" lon="6.79589">
        <ele>158.6</ele>
        <time>2025-10-24T06:18:34.000Z</time>
      </trkpt>
      <trkpt lat="43.55442" lon="6.7959">
        <ele>158.6</ele>
        <time>2025-10-24T06:18:35.000Z</time>
      </trkpt>
      <trkpt lat="43.55445" lon="6.7959">
        <ele>158.7</ele>
        <time>2025-10-24T06:18:36.000Z</time>
      </trkpt>
      <trkpt lat="43.55448" lon="6.79589">
        <ele>158.7</ele>
        <time>2025-10-24T06:18:37.000Z</time>
      </trkpt>
      <trkpt lat="43.55451" lon="6.79589">
        <ele>158.7</ele>
        <time>2025-10-24T06:18:38.000Z</time>
      </trkpt>
      <trkpt lat="43.55454" lon="6.79589">
        <ele>158.7</ele>
        <time>2025-10-24T06:18:39.000Z</time>
      </trkpt>
      <trkpt lat="43.55457" lon="6.79589">
        <ele>158.8</ele>
        <time>2025-10-24T06:18:40.000Z</time>
      </trkpt>
      <trkpt lat="43.55461" lon="6.79588">
        <ele>158.8</ele>
        <time>2025-10-24T06:18:41.000Z</time>
      </trkpt>
      <trkpt lat="43.55463" lon="6.79587">
        <ele>158.8</ele>
        <time>2025-10-24T06:18:42.000Z</time>
      </trkpt>
      <trkpt lat="43.55466" lon="6.79587">
        <ele>158.8</ele>
        <time>2025-10-24T06:18:43.000Z</time>
      </trkpt>
      <trkpt lat="43.55469" lon="6.79587">
        <ele>158.9</ele>
        <time>2025-10-24T06:18:44.000Z</time>
      </trkpt>
      <trkpt lat="43.55472" lon="6.79587">
        <ele>158.9</ele>
        <time>2025-10-24T06:18:45.000Z</time>
      </trkpt>
      <trkpt lat="43.55476" lon="6.79588">
        <ele>158.9</ele>
        <time>2025-10-24T06:18:46.000Z</time>
      </trkpt>
      <trkpt lat="43.55479" lon="6.79589">
        <ele>159</ele>
        <time>2025-10-24T06:18:47.000Z</time>
      </trkpt>
      <trkpt lat="43.55482" lon="6.7959">
        <ele>159</ele>
        <time>2025-10-24T06:18:48.000Z</time>
      </trkpt>
      <trkpt lat="43.55485" lon="6.7959">
        <ele>159</ele>
        <time>2025-10-24T06:18:49.000Z</time>
      </trkpt>
      <trkpt lat="43.55489" lon="6.7959">
        <ele>159.1</ele>
        <time>2025-10-24T06:18:50.000Z</time>
      </trkpt>
      <trkpt lat="43.55492" lon="6.7959">
        <ele>159.1</ele>
        <time>2025-10-24T06:18:51.000Z</time>
      </trkpt>
      <trkpt lat="43.55495" lon="6.7959">
        <ele>159.2</ele>
        <time>2025-10-24T06:18:52.000Z</time>
      </trkpt>
      <trkpt lat="43.55498" lon="6.79589">
        <ele>159.2</ele>
        <time>2025-10-24T06:18:53.000Z</time>
      </trkpt>
      <trkpt lat="43.55501" lon="6.79589">
        <ele>159.2</ele>
        <time>2025-10-24T06:18:54.000Z</time>
      </trkpt>
      <trkpt lat="43.55504" lon="6.79589">
        <ele>159.3</ele>
        <time>2025-10-24T06:18:55.000Z</time>
      </trkpt>
      <trkpt lat="43.55506" lon="6.79588">
        <ele>159.3</ele>
        <time>2025-10-24T06:18:56.000Z</time>
      </trkpt>
      <trkpt lat="43.55508" lon="6.79588">
        <ele>159.3</ele>
        <time>2025-10-24T06:18:57.000Z</time>
      </trkpt>
      <trkpt lat="43.5551" lon="6.79587">
        <ele>159.3</ele>
        <time>2025-10-24T06:18:58.000Z</time>
      </trkpt>
      <trkpt lat="43.55512" lon="6.79586">
        <ele>159.3</ele>
        <time>2025-10-24T06:18:59.000Z</time>
      </trkpt>
      <trkpt lat="43.55513" lon="6.79585">
        <ele>159.4</ele>
        <time>2025-10-24T06:19:00.000Z</time>
      </trkpt>
      <trkpt lat="43.55514" lon="6.79583">
        <ele>159.4</ele>
        <time>2025-10-24T06:19:01.000Z</time>
      </trkpt>
      <trkpt lat="43.55515" lon="6.79581">
        <ele>159.2</ele>
        <time>2025-10-24T06:19:02.000Z</time>
      </trkpt>
      <trkpt lat="43.55514" lon="6.79578">
        <ele>159.1</ele>
        <time>2025-10-24T06:19:03.000Z</time>
      </trkpt>
      <trkpt lat="43.55514" lon="6.79575">
        <ele>159</ele>
        <time>2025-10-24T06:19:04.000Z</time>
      </trkpt>
      <trkpt lat="43.55514" lon="6.79573">
        <ele>158.9</ele>
        <time>2025-10-24T06:19:05.000Z</time>
      </trkpt>
      <trkpt lat="43.55514" lon="6.79571">
        <ele>158.9</ele>
        <time>2025-10-24T06:19:06.000Z</time>
      </trkpt>
      <trkpt lat="43.55515" lon="6.7957">
        <ele>158.8</ele>
        <time>2025-10-24T06:19:07.000Z</time>
      </trkpt>
      <trkpt lat="43.55516" lon="6.79568">
        <ele>158.7</ele>
        <time>2025-10-24T06:19:08.000Z</time>
      </trkpt>
      <trkpt lat="43.55517" lon="6.79566">
        <ele>158.6</ele>
        <time>2025-10-24T06:19:09.000Z</time>
      </trkpt>
      <trkpt lat="43.55518" lon="6.79564">
        <ele>158.5</ele>
        <time>2025-10-24T06:19:10.000Z</time>
      </trkpt>
      <trkpt lat="43.55518" lon="6.79562">
        <ele>158.4</ele>
        <time>2025-10-24T06:19:11.000Z</time>
      </trkpt>
      <trkpt lat="43.55518" lon="6.79558">
        <ele>158.3</ele>
        <time>2025-10-24T06:19:12.000Z</time>
      </trkpt>
      <trkpt lat="43.55518" lon="6.79555">
        <ele>158.1</ele>
        <time>2025-10-24T06:19:13.000Z</time>
      </trkpt>
      <trkpt lat="43.55518" lon="6.79551">
        <ele>158</ele>
        <time>2025-10-24T06:19:14.000Z</time>
      </trkpt>
      <trkpt lat="43.55518" lon="6.79546">
        <ele>157.9</ele>
        <time>2025-10-24T06:19:15.000Z</time>
      </trkpt>
      <trkpt lat="43.55519" lon="6.79542">
        <ele>157.8</ele>
        <time>2025-10-24T06:19:16.000Z</time>
      </trkpt>
      <trkpt lat="43.55519" lon="6.79539">
        <ele>157.7</ele>
        <time>2025-10-24T06:19:17.000Z</time>
      </trkpt>
      <trkpt lat="43.55519" lon="6.79535">
        <ele>157.7</ele>
        <time>2025-10-24T06:19:18.000Z</time>
      </trkpt>
      <trkpt lat="43.55519" lon="6.79532">
        <ele>157.7</ele>
        <time>2025-10-24T06:19:19.000Z</time>
      </trkpt>
      <trkpt lat="43.5552" lon="6.79528">
        <ele>157.7</ele>
        <time>2025-10-24T06:19:20.000Z</time>
      </trkpt>
      <trkpt lat="43.55521" lon="6.79525">
        <ele>157.7</ele>
        <time>2025-10-24T06:19:21.000Z</time>
      </trkpt>
      <trkpt lat="43.55522" lon="6.79521">
        <ele>157.8</ele>
        <time>2025-10-24T06:19:22.000Z</time>
      </trkpt>
      <trkpt lat="43.55523" lon="6.79517">
        <ele>157.8</ele>
        <time>2025-10-24T06:19:23.000Z</time>
      </trkpt>
      <trkpt lat="43.55523" lon="6.79513">
        <ele>157.9</ele>
        <time>2025-10-24T06:19:24.000Z</time>
      </trkpt>
      <trkpt lat="43.55524" lon="6.79509">
        <ele>157.9</ele>
        <time>2025-10-24T06:19:25.000Z</time>
      </trkpt>
      <trkpt lat="43.55524" lon="6.79505">
        <ele>157.9</ele>
        <time>2025-10-24T06:19:26.000Z</time>
      </trkpt>
      <trkpt lat="43.55524" lon="6.79501">
        <ele>157.9</ele>
        <time>2025-10-24T06:19:27.000Z</time>
      </trkpt>
      <trkpt lat="43.55524" lon="6.79498">
        <ele>157.9</ele>
        <time>2025-10-24T06:19:28.000Z</time>
      </trkpt>
      <trkpt lat="43.55524" lon="6.79495">
        <ele>157.8</ele>
        <time>2025-10-24T06:19:29.000Z</time>
      </trkpt>
      <trkpt lat="43.55524" lon="6.79492">
        <ele>157.8</ele>
        <time>2025-10-24T06:19:30.000Z</time>
      </trkpt>
      <trkpt lat="43.55524" lon="6.7949">
        <ele>157.7</ele>
        <time>2025-10-24T06:19:31.000Z</time>
      </trkpt>
      <trkpt lat="43.55524" lon="6.79487">
        <ele>157.6</ele>
        <time>2025-10-24T06:19:32.000Z</time>
      </trkpt>
      <trkpt lat="43.55525" lon="6.79486">
        <ele>157.5</ele>
        <time>2025-10-24T06:19:33.000Z</time>
      </trkpt>
      <trkpt lat="43.55526" lon="6.79484">
        <ele>157.4</ele>
        <time>2025-10-24T06:19:34.000Z</time>
      </trkpt>
      <trkpt lat="43.55528" lon="6.79481">
        <ele>157.2</ele>
        <time>2025-10-24T06:19:35.000Z</time>
      </trkpt>
      <trkpt lat="43.55528" lon="6.79479">
        <ele>157</ele>
        <time>2025-10-24T06:19:36.000Z</time>
      </trkpt>
      <trkpt lat="43.55529" lon="6.79476">
        <ele>156.8</ele>
        <time>2025-10-24T06:19:37.000Z</time>
      </trkpt>
      <trkpt lat="43.55529" lon="6.79474">
        <ele>156.6</ele>
        <time>2025-10-24T06:19:38.000Z</time>
      </trkpt>
      <trkpt lat="43.5553" lon="6.79474">
        <ele>156.5</ele>
        <time>2025-10-24T06:19:39.000Z</time>
      </trkpt>
      <trkpt lat="43.5553" lon="6.79473">
        <ele>156.5</ele>
        <time>2025-10-24T06:19:40.000Z</time>
      </trkpt>
      <trkpt lat="43.5553" lon="6.79471">
        <ele>156.3</ele>
        <time>2025-10-24T06:19:41.000Z</time>
      </trkpt>
      <trkpt lat="43.55529" lon="6.79469">
        <ele>156</ele>
        <time>2025-10-24T06:19:42.000Z</time>
      </trkpt>
      <trkpt lat="43.55529" lon="6.79467">
        <ele>155.8</ele>
        <time>2025-10-24T06:19:43.000Z</time>
      </trkpt>
      <trkpt lat="43.55527" lon="6.79465">
        <ele>155.5</ele>
        <time>2025-10-24T06:19:44.000Z</time>
      </trkpt>
      <trkpt lat="43.55526" lon="6.79464">
        <ele>155.2</ele>
        <time>2025-10-24T06:19:45.000Z</time>
      </trkpt>
      <trkpt lat="43.55525" lon="6.79463">
        <ele>155</ele>
        <time>2025-10-24T06:19:46.000Z</time>
      </trkpt>
      <trkpt lat="43.55525" lon="6.79462">
        <ele>154.8</ele>
        <time>2025-10-24T06:19:47.000Z</time>
      </trkpt>
      <trkpt lat="43.55524" lon="6.79461">
        <ele>154.4</ele>
        <time>2025-10-24T06:19:48.000Z</time>
      </trkpt>
      <trkpt lat="43.55522" lon="6.79459">
        <ele>154.1</ele>
        <time>2025-10-24T06:19:49.000Z</time>
      </trkpt>
      <trkpt lat="43.5552" lon="6.79458">
        <ele>153.6</ele>
        <time>2025-10-24T06:19:50.000Z</time>
      </trkpt>
      <trkpt lat="43.55518" lon="6.79457">
        <ele>153.2</ele>
        <time>2025-10-24T06:19:51.000Z</time>
      </trkpt>
      <trkpt lat="43.55516" lon="6.79456">
        <ele>152.8</ele>
        <time>2025-10-24T06:19:52.000Z</time>
      </trkpt>
      <trkpt lat="43.55514" lon="6.79454">
        <ele>152.5</ele>
        <time>2025-10-24T06:19:53.000Z</time>
      </trkpt>
      <trkpt lat="43.55514" lon="6.79453">
        <ele>152.3</ele>
        <time>2025-10-24T06:19:54.000Z</time>
      </trkpt>
      <trkpt lat="43.55513" lon="6.79452">
        <ele>152.2</ele>
        <time>2025-10-24T06:19:55.000Z</time>
      </trkpt>
      <trkpt lat="43.55513" lon="6.7945">
        <ele>152</ele>
        <time>2025-10-24T06:19:56.000Z</time>
      </trkpt>
      <trkpt lat="43.55513" lon="6.79448">
        <ele>151.8</ele>
        <time>2025-10-24T06:19:57.000Z</time>
      </trkpt>
      <trkpt lat="43.55513" lon="6.79446">
        <ele>151.6</ele>
        <time>2025-10-24T06:19:58.000Z</time>
      </trkpt>
      <trkpt lat="43.55514" lon="6.79445">
        <ele>151.4</ele>
        <time>2025-10-24T06:19:59.000Z</time>
      </trkpt>
      <trkpt lat="43.55515" lon="6.79443">
        <ele>151.2</ele>
        <time>2025-10-24T06:20:00.000Z</time>
      </trkpt>
      <trkpt lat="43.55516" lon="6.79442">
        <ele>151</ele>
        <time>2025-10-24T06:20:01.000Z</time>
      </trkpt>
      <trkpt lat="43.55517" lon="6.79441">
        <ele>150.8</ele>
        <time>2025-10-24T06:20:02.000Z</time>
      </trkpt>
      <trkpt lat="43.55518" lon="6.7944">
        <ele>150.5</ele>
        <time>2025-10-24T06:20:03.000Z</time>
      </trkpt>
      <trkpt lat="43.55519" lon="6.79437">
        <ele>150.2</ele>
        <time>2025-10-24T06:20:04.000Z</time>
      </trkpt>
      <trkpt lat="43.5552" lon="6.79435">
        <ele>149.9</ele>
        <time>2025-10-24T06:20:05.000Z</time>
      </trkpt>
      <trkpt lat="43.55518" lon="6.79433">
        <ele>149.9</ele>
        <time>2025-10-24T06:20:06.000Z</time>
      </trkpt>
      <trkpt lat="43.55517" lon="6.79433">
        <ele>149.9</ele>
        <time>2025-10-24T06:20:07.000Z</time>
      </trkpt>
      <trkpt lat="43.55517" lon="6.79433">
        <ele>149.9</ele>
        <time>2025-10-24T06:20:08.000Z</time>
      </trkpt>
      <trkpt lat="43.55516" lon="6.79433">
        <ele>149.9</ele>
        <time>2025-10-24T06:20:09.000Z</time>
      </trkpt>
      <trkpt lat="43.55516" lon="6.79433">
        <ele>149.9</ele>
        <time>2025-10-24T06:20:10.000Z</time>
      </trkpt>
      <trkpt lat="43.55516" lon="6.79433">
        <ele>149.9</ele>
        <time>2025-10-24T06:20:11.000Z</time>
      </trkpt>
      <trkpt lat="43.55515" lon="6.79433">
        <ele>149.9</ele>
        <time>2025-10-24T06:20:12.000Z</time>
      </trkpt>
      <trkpt lat="43.55515" lon="6.79433">
        <ele>149.9</ele>
        <time>2025-10-24T06:20:13.000Z</time>
      </trkpt>
      <trkpt lat="43.55515" lon="6.79433">
        <ele>149.9</ele>
        <time>2025-10-24T06:20:14.000Z</time>
      </trkpt>
      <trkpt lat="43.55515" lon="6.79432">
        <ele>149.9</ele>
        <time>2025-10-24T06:20:15.000Z</time>
      </trkpt>
      <trkpt lat="43.55515" lon="6.79433">
        <ele>149.9</ele>
        <time>2025-10-24T06:20:16.000Z</time>
      </trkpt>
      <trkpt lat="43.55516" lon="6.79433">
        <ele>149.9</ele>
        <time>2025-10-24T06:20:17.000Z</time>
      </trkpt>
      <trkpt lat="43.55516" lon="6.79434">
        <ele>149.8</ele>
        <time>2025-10-24T06:20:18.000Z</time>
      </trkpt>
      <trkpt lat="43.55516" lon="6.79434">
        <ele>149.8</ele>
        <time>2025-10-24T06:20:19.000Z</time>
      </trkpt>
      <trkpt lat="43.55516" lon="6.79434">
        <ele>149.8</ele>
        <time>2025-10-24T06:20:20.000Z</time>
      </trkpt>
      <trkpt lat="43.55516" lon="6.79434">
        <ele>149.8</ele>
        <time>2025-10-24T06:20:21.000Z</time>
      </trkpt>
      <trkpt lat="43.55516" lon="6.79434">
        <ele>149.8</ele>
        <time>2025-10-24T06:20:22.000Z</time>
      </trkpt>
      <trkpt lat="43.55516" lon="6.79434">
        <ele>149.8</ele>
        <time>2025-10-24T06:20:23.000Z</time>
      </trkpt>
      <trkpt lat="43.55516" lon="6.79434">
        <ele>149.8</ele>
        <time>2025-10-24T06:20:24.000Z</time>
      </trkpt>
      <trkpt lat="43.55516" lon="6.79434">
        <ele>149.8</ele>
        <time>2025-10-24T06:20:25.000Z</time>
      </trkpt>
      <trkpt lat="43.55516" lon="6.79434">
        <ele>149.8</ele>
        <time>2025-10-24T06:20:26.000Z</time>
      </trkpt>
      <trkpt lat="43.55516" lon="6.79434">
        <ele>149.8</ele>
        <time>2025-10-24T06:20:27.000Z</time>
      </trkpt>
      <trkpt lat="43.55516" lon="6.79434">
        <ele>149.8</ele>
        <time>2025-10-24T06:20:28.000Z</time>
      </trkpt>
      <trkpt lat="43.55513" lon="6.79433">
        <ele>149.8</ele>
        <time>2025-10-24T06:20:29.000Z</time>
      </trkpt>
      <trkpt lat="43.55509" lon="6.79432">
        <ele>149.8</ele>
        <time>2025-10-24T06:20:30.000Z</time>
      </trkpt>
      <trkpt lat="43.55506" lon="6.79432">
        <ele>149.7</ele>
        <time>2025-10-24T06:20:31.000Z</time>
      </trkpt>
      <trkpt lat="43.55502" lon="6.79432">
        <ele>149.7</ele>
        <time>2025-10-24T06:20:32.000Z</time>
      </trkpt>
      <trkpt lat="43.55499" lon="6.79432">
        <ele>149.7</ele>
        <time>2025-10-24T06:20:33.000Z</time>
      </trkpt>
      <trkpt lat="43.55495" lon="6.79431">
        <ele>149.7</ele>
        <time>2025-10-24T06:20:34.000Z</time>
      </trkpt>
      <trkpt lat="43.55492" lon="6.79431">
        <ele>149.7</ele>
        <time>2025-10-24T06:20:35.000Z</time>
      </trkpt>
      <trkpt lat="43.55489" lon="6.79431">
        <ele>149.7</ele>
        <time>2025-10-24T06:20:36.000Z</time>
      </trkpt>
      <trkpt lat="43.55486" lon="6.79432">
        <ele>149.7</ele>
        <time>2025-10-24T06:20:37.000Z</time>
      </trkpt>
      <trkpt lat="43.55483" lon="6.79432">
        <ele>149.7</ele>
        <time>2025-10-24T06:20:38.000Z</time>
      </trkpt>
      <trkpt lat="43.5548" lon="6.79431">
        <ele>149.7</ele>
        <time>2025-10-24T06:20:39.000Z</time>
      </trkpt>
      <trkpt lat="43.55476" lon="6.79431">
        <ele>149.7</ele>
        <time>2025-10-24T06:20:40.000Z</time>
      </trkpt>
      <trkpt lat="43.55473" lon="6.79431">
        <ele>149.7</ele>
        <time>2025-10-24T06:20:41.000Z</time>
      </trkpt>
      <trkpt lat="43.55469" lon="6.79431">
        <ele>149.7</ele>
        <time>2025-10-24T06:20:42.000Z</time>
      </trkpt>
      <trkpt lat="43.55466" lon="6.7943">
        <ele>149.7</ele>
        <time>2025-10-24T06:20:43.000Z</time>
      </trkpt>
      <trkpt lat="43.55462" lon="6.7943">
        <ele>149.7</ele>
        <time>2025-10-24T06:20:44.000Z</time>
      </trkpt>
      <trkpt lat="43.55459" lon="6.7943">
        <ele>149.7</ele>
        <time>2025-10-24T06:20:45.000Z</time>
      </trkpt>
      <trkpt lat="43.55456" lon="6.79429">
        <ele>149.7</ele>
        <time>2025-10-24T06:20:46.000Z</time>
      </trkpt>
      <trkpt lat="43.55453" lon="6.79429">
        <ele>149.7</ele>
        <time>2025-10-24T06:20:47.000Z</time>
      </trkpt>
      <trkpt lat="43.5545" lon="6.79429">
        <ele>149.7</ele>
        <time>2025-10-24T06:20:48.000Z</time>
      </trkpt>
      <trkpt lat="43.55447" lon="6.79429">
        <ele>149.7</ele>
        <time>2025-10-24T06:20:49.000Z</time>
      </trkpt>
      <trkpt lat="43.55443" lon="6.7943">
        <ele>149.8</ele>
        <time>2025-10-24T06:20:50.000Z</time>
      </trkpt>
      <trkpt lat="43.5544" lon="6.79431">
        <ele>149.9</ele>
        <time>2025-10-24T06:20:51.000Z</time>
        <extensions>
          <visugpx:TrkExtension xmlns:visugpx="https://www.visugpx.com/editgpx/">
            <visugpx:node>1</visugpx:node>
            </visugpx:TrkExtension>
        </extensions>
      </trkpt>
    </trkseg>
  </trk>
  <trk>
    <name><![CDATA[Bagnols -Pennafort -Fille d'Isnard_15]]></name>
    <extensions>
      <line xmlns="http://www.topografix.com/GPX/gpx_style/0/2">
        <color>FF0000</color>
        <opacity>1</opacity>
        <width>4</width>
      </line>
    </extensions>
    <trkseg>
      <trkpt lat="43.5544" lon="6.79431">
        <ele>149.9</ele>
        <time>2025-10-24T06:20:51.000Z</time>
      </trkpt>
      <trkpt lat="43.55438" lon="6.79432">
        <ele>149.9</ele>
        <time>2025-10-24T06:20:52.000Z</time>
      </trkpt>
      <trkpt lat="43.55435" lon="6.79433">
        <ele>150</ele>
        <time>2025-10-24T06:20:53.000Z</time>
      </trkpt>
      <trkpt lat="43.55433" lon="6.79434">
        <ele>150.1</ele>
        <time>2025-10-24T06:20:54.000Z</time>
      </trkpt>
      <trkpt lat="43.5543" lon="6.79436">
        <ele>150.2</ele>
        <time>2025-10-24T06:20:55.000Z</time>
      </trkpt>
      <trkpt lat="43.55428" lon="6.79437">
        <ele>150.3</ele>
        <time>2025-10-24T06:20:56.000Z</time>
      </trkpt>
      <trkpt lat="43.55426" lon="6.79437">
        <ele>150.3</ele>
        <time>2025-10-24T06:20:57.000Z</time>
      </trkpt>
      <trkpt lat="43.55423" lon="6.79438">
        <ele>150.4</ele>
        <time>2025-10-24T06:20:58.000Z</time>
      </trkpt>
      <trkpt lat="43.5542" lon="6.79439">
        <ele>150.5</ele>
        <time>2025-10-24T06:20:59.000Z</time>
      </trkpt>
      <trkpt lat="43.55417" lon="6.7944">
        <ele>150.5</ele>
        <time>2025-10-24T06:21:00.000Z</time>
      </trkpt>
      <trkpt lat="43.55414" lon="6.79441">
        <ele>150.6</ele>
        <time>2025-10-24T06:21:01.000Z</time>
      </trkpt>
      <trkpt lat="43.55411" lon="6.79442">
        <ele>150.6</ele>
        <time>2025-10-24T06:21:02.000Z</time>
      </trkpt>
      <trkpt lat="43.55408" lon="6.79443">
        <ele>150.7</ele>
        <time>2025-10-24T06:21:03.000Z</time>
      </trkpt>
      <trkpt lat="43.55405" lon="6.79445">
        <ele>150.7</ele>
        <time>2025-10-24T06:21:04.000Z</time>
      </trkpt>
      <trkpt lat="43.55401" lon="6.79446">
        <ele>150.8</ele>
        <time>2025-10-24T06:21:05.000Z</time>
      </trkpt>
      <trkpt lat="43.55398" lon="6.79448">
        <ele>150.8</ele>
        <time>2025-10-24T06:21:06.000Z</time>
      </trkpt>
      <trkpt lat="43.55396" lon="6.7945">
        <ele>150.9</ele>
        <time>2025-10-24T06:21:07.000Z</time>
      </trkpt>
      <trkpt lat="43.55393" lon="6.79452">
        <ele>150.9</ele>
        <time>2025-10-24T06:21:08.000Z</time>
      </trkpt>
      <trkpt lat="43.5539" lon="6.79454">
        <ele>151</ele>
        <time>2025-10-24T06:21:09.000Z</time>
      </trkpt>
      <trkpt lat="43.55387" lon="6.79457">
        <ele>151</ele>
        <time>2025-10-24T06:21:10.000Z</time>
      </trkpt>
      <trkpt lat="43.55385" lon="6.7946">
        <ele>151.1</ele>
        <time>2025-10-24T06:21:11.000Z</time>
      </trkpt>
      <trkpt lat="43.55382" lon="6.79463">
        <ele>151.1</ele>
        <time>2025-10-24T06:21:12.000Z</time>
      </trkpt>
      <trkpt lat="43.5538" lon="6.79466">
        <ele>151.2</ele>
        <time>2025-10-24T06:21:13.000Z</time>
      </trkpt>
      <trkpt lat="43.55377" lon="6.79469">
        <ele>151.2</ele>
        <time>2025-10-24T06:21:14.000Z</time>
      </trkpt>
      <trkpt lat="43.55375" lon="6.79472">
        <ele>151.2</ele>
        <time>2025-10-24T06:21:15.000Z</time>
      </trkpt>
      <trkpt lat="43.55372" lon="6.79476">
        <ele>151.2</ele>
        <time>2025-10-24T06:21:16.000Z</time>
      </trkpt>
      <trkpt lat="43.55369" lon="6.79479">
        <ele>151.2</ele>
        <time>2025-10-24T06:21:17.000Z</time>
      </trkpt>
      <trkpt lat="43.55367" lon="6.79482">
        <ele>151.2</ele>
        <time>2025-10-24T06:21:18.000Z</time>
      </trkpt>
      <trkpt lat="43.55364" lon="6.79485">
        <ele>151.2</ele>
        <time>2025-10-24T06:21:19.000Z</time>
      </trkpt>
      <trkpt lat="43.55362" lon="6.79487">
        <ele>151.2</ele>
        <time>2025-10-24T06:21:20.000Z</time>
      </trkpt>
      <trkpt lat="43.55359" lon="6.7949">
        <ele>151.2</ele>
        <time>2025-10-24T06:21:21.000Z</time>
      </trkpt>
      <trkpt lat="43.55356" lon="6.79493">
        <ele>151.1</ele>
        <time>2025-10-24T06:21:22.000Z</time>
      </trkpt>
      <trkpt lat="43.55353" lon="6.79495">
        <ele>151.1</ele>
        <time>2025-10-24T06:21:23.000Z</time>
      </trkpt>
      <trkpt lat="43.55351" lon="6.79498">
        <ele>151.1</ele>
        <time>2025-10-24T06:21:24.000Z</time>
      </trkpt>
      <trkpt lat="43.55348" lon="6.79501">
        <ele>151.1</ele>
        <time>2025-10-24T06:21:25.000Z</time>
      </trkpt>
      <trkpt lat="43.55346" lon="6.79504">
        <ele>151</ele>
        <time>2025-10-24T06:21:26.000Z</time>
      </trkpt>
      <trkpt lat="43.55343" lon="6.79507">
        <ele>151</ele>
        <time>2025-10-24T06:21:27.000Z</time>
      </trkpt>
      <trkpt lat="43.5534" lon="6.7951">
        <ele>151</ele>
        <time>2025-10-24T06:21:28.000Z</time>
      </trkpt>
      <trkpt lat="43.55337" lon="6.79513">
        <ele>150.9</ele>
        <time>2025-10-24T06:21:29.000Z</time>
      </trkpt>
      <trkpt lat="43.55334" lon="6.79515">
        <ele>150.9</ele>
        <time>2025-10-24T06:21:30.000Z</time>
      </trkpt>
      <trkpt lat="43.55331" lon="6.79517">
        <ele>150.9</ele>
        <time>2025-10-24T06:21:31.000Z</time>
      </trkpt>
      <trkpt lat="43.55328" lon="6.79519">
        <ele>150.9</ele>
        <time>2025-10-24T06:21:32.000Z</time>
      </trkpt>
      <trkpt lat="43.55324" lon="6.79521">
        <ele>150.8</ele>
        <time>2025-10-24T06:21:33.000Z</time>
      </trkpt>
      <trkpt lat="43.55321" lon="6.79523">
        <ele>150.8</ele>
        <time>2025-10-24T06:21:34.000Z</time>
      </trkpt>
      <trkpt lat="43.55318" lon="6.79525">
        <ele>150.8</ele>
        <time>2025-10-24T06:21:35.000Z</time>
      </trkpt>
      <trkpt lat="43.55315" lon="6.79527">
        <ele>150.8</ele>
        <time>2025-10-24T06:21:36.000Z</time>
      </trkpt>
      <trkpt lat="43.55312" lon="6.79529">
        <ele>150.8</ele>
        <time>2025-10-24T06:21:37.000Z</time>
      </trkpt>
      <trkpt lat="43.55309" lon="6.79532">
        <ele>150.9</ele>
        <time>2025-10-24T06:21:38.000Z</time>
      </trkpt>
      <trkpt lat="43.55307" lon="6.79535">
        <ele>150.9</ele>
        <time>2025-10-24T06:21:39.000Z</time>
      </trkpt>
      <trkpt lat="43.55304" lon="6.79537">
        <ele>150.9</ele>
        <time>2025-10-24T06:21:40.000Z</time>
        <extensions>
          <visugpx:TrkExtension xmlns:visugpx="https://www.visugpx.com/editgpx/">
            <visugpx:node>1</visugpx:node>
            </visugpx:TrkExtension>
        </extensions>
      </trkpt>
    </trkseg>
  </trk>
  <trk>
    <name><![CDATA[Bagnols -Pennafort -Fille d'Isnard_12]]></name>
    <trkseg>
      <trkpt lat="43.55439" lon="6.79419">
        <ele>149.7</ele>
        <time>2025-10-24T06:27:29.000Z</time>
      </trkpt>
      <trkpt lat="43.55442" lon="6.79421">
        <ele>149.7</ele>
        <time>2025-10-24T06:27:30.000Z</time>
      </trkpt>
      <trkpt lat="43.55444" lon="6.79424">
        <ele>149.8</ele>
        <time>2025-10-24T06:27:31.000Z</time>
      </trkpt>
      <trkpt lat="43.55447" lon="6.79425">
        <ele>149.8</ele>
        <time>2025-10-24T06:27:32.000Z</time>
      </trkpt>
      <trkpt lat="43.5545" lon="6.79427">
        <ele>149.7</ele>
        <time>2025-10-24T06:27:33.000Z</time>
      </trkpt>
      <trkpt lat="43.55453" lon="6.79429">
        <ele>149.7</ele>
        <time>2025-10-24T06:27:34.000Z</time>
      </trkpt>
      <trkpt lat="43.55456" lon="6.7943">
        <ele>149.7</ele>
        <time>2025-10-24T06:27:35.000Z</time>
      </trkpt>
      <trkpt lat="43.55459" lon="6.79431">
        <ele>149.7</ele>
        <time>2025-10-24T06:27:36.000Z</time>
      </trkpt>
      <trkpt lat="43.55462" lon="6.79431">
        <ele>149.7</ele>
        <time>2025-10-24T06:27:37.000Z</time>
      </trkpt>
      <trkpt lat="43.55465" lon="6.79432">
        <ele>149.7</ele>
        <time>2025-10-24T06:27:38.000Z</time>
      </trkpt>
      <trkpt lat="43.55469" lon="6.79432">
        <ele>149.7</ele>
        <time>2025-10-24T06:27:39.000Z</time>
      </trkpt>
      <trkpt lat="43.55472" lon="6.79432">
        <ele>149.7</ele>
        <time>2025-10-24T06:27:40.000Z</time>
      </trkpt>
      <trkpt lat="43.55475" lon="6.79432">
        <ele>149.7</ele>
        <time>2025-10-24T06:27:41.000Z</time>
      </trkpt>
      <trkpt lat="43.55479" lon="6.79432">
        <ele>149.7</ele>
        <time>2025-10-24T06:27:42.000Z</time>
      </trkpt>
      <trkpt lat="43.55482" lon="6.79432">
        <ele>149.7</ele>
        <time>2025-10-24T06:27:43.000Z</time>
      </trkpt>
      <trkpt lat="43.55486" lon="6.79432">
        <ele>149.7</ele>
        <time>2025-10-24T06:27:44.000Z</time>
      </trkpt>
      <trkpt lat="43.55489" lon="6.79432">
        <ele>149.7</ele>
        <time>2025-10-24T06:27:45.000Z</time>
      </trkpt>
      <trkpt lat="43.55492" lon="6.79432">
        <ele>149.7</ele>
        <time>2025-10-24T06:27:46.000Z</time>
      </trkpt>
      <trkpt lat="43.55495" lon="6.79432">
        <ele>149.7</ele>
        <time>2025-10-24T06:27:47.000Z</time>
      </trkpt>
      <trkpt lat="43.55498" lon="6.79432">
        <ele>149.7</ele>
        <time>2025-10-24T06:27:48.000Z</time>
      </trkpt>
      <trkpt lat="43.555" lon="6.79433">
        <ele>149.7</ele>
        <time>2025-10-24T06:27:49.000Z</time>
      </trkpt>
      <trkpt lat="43.55503" lon="6.79434">
        <ele>149.7</ele>
        <time>2025-10-24T06:27:50.000Z</time>
      </trkpt>
      <trkpt lat="43.55506" lon="6.79434">
        <ele>149.7</ele>
        <time>2025-10-24T06:27:51.000Z</time>
      </trkpt>
      <trkpt lat="43.55509" lon="6.79435">
        <ele>149.8</ele>
        <time>2025-10-24T06:27:52.000Z</time>
      </trkpt>
      <trkpt lat="43.55512" lon="6.79435">
        <ele>149.8</ele>
        <time>2025-10-24T06:27:53.000Z</time>
      </trkpt>
      <trkpt lat="43.55514" lon="6.79435">
        <ele>149.8</ele>
        <time>2025-10-24T06:27:54.000Z</time>
      </trkpt>
      <trkpt lat="43.55517" lon="6.79435">
        <ele>149.9</ele>
        <time>2025-10-24T06:27:55.000Z</time>
      </trkpt>
      <trkpt lat="43.55518" lon="6.79435">
        <ele>149.9</ele>
        <time>2025-10-24T06:27:56.000Z</time>
      </trkpt>
      <trkpt lat="43.5552" lon="6.79435">
        <ele>149.9</ele>
        <time>2025-10-24T06:27:57.000Z</time>
      </trkpt>
      <trkpt lat="43.55521" lon="6.79436">
        <ele>149.9</ele>
        <time>2025-10-24T06:27:58.000Z</time>
      </trkpt>
      <trkpt lat="43.55521" lon="6.79438">
        <ele>150.2</ele>
        <time>2025-10-24T06:27:59.000Z</time>
      </trkpt>
      <trkpt lat="43.55521" lon="6.7944">
        <ele>150.4</ele>
        <time>2025-10-24T06:28:00.000Z</time>
      </trkpt>
      <trkpt lat="43.5552" lon="6.79441">
        <ele>150.6</ele>
        <time>2025-10-24T06:28:01.000Z</time>
      </trkpt>
      <trkpt lat="43.55518" lon="6.79443">
        <ele>150.9</ele>
        <time>2025-10-24T06:28:02.000Z</time>
      </trkpt>
      <trkpt lat="43.55517" lon="6.79444">
        <ele>151.2</ele>
        <time>2025-10-24T06:28:03.000Z</time>
      </trkpt>
      <trkpt lat="43.55516" lon="6.79445">
        <ele>151.3</ele>
        <time>2025-10-24T06:28:04.000Z</time>
      </trkpt>
      <trkpt lat="43.55515" lon="6.79446">
        <ele>151.5</ele>
        <time>2025-10-24T06:28:05.000Z</time>
      </trkpt>
      <trkpt lat="43.55515" lon="6.79446">
        <ele>151.5</ele>
        <time>2025-10-24T06:28:06.000Z</time>
      </trkpt>
      <trkpt lat="43.55515" lon="6.79446">
        <ele>151.5</ele>
        <time>2025-10-24T06:28:07.000Z</time>
      </trkpt>
      <trkpt lat="43.55515" lon="6.79447">
        <ele>151.6</ele>
        <time>2025-10-24T06:28:08.000Z</time>
      </trkpt>
      <trkpt lat="43.55515" lon="6.79448">
        <ele>151.7</ele>
        <time>2025-10-24T06:28:09.000Z</time>
      </trkpt>
      <trkpt lat="43.55515" lon="6.79449">
        <ele>151.8</ele>
        <time>2025-10-24T06:28:10.000Z</time>
      </trkpt>
      <trkpt lat="43.55515" lon="6.7945">
        <ele>151.9</ele>
        <time>2025-10-24T06:28:11.000Z</time>
      </trkpt>
      <trkpt lat="43.55514" lon="6.79451">
        <ele>152.1</ele>
        <time>2025-10-24T06:28:12.000Z</time>
      </trkpt>
      <trkpt lat="43.55514" lon="6.79453">
        <ele>152.2</ele>
        <time>2025-10-24T06:28:13.000Z</time>
      </trkpt>
      <trkpt lat="43.55514" lon="6.79454">
        <ele>152.4</ele>
        <time>2025-10-24T06:28:14.000Z</time>
      </trkpt>
      <trkpt lat="43.55515" lon="6.79456">
        <ele>152.6</ele>
        <time>2025-10-24T06:28:15.000Z</time>
      </trkpt>
      <trkpt lat="43.55516" lon="6.79457">
        <ele>152.8</ele>
        <time>2025-10-24T06:28:16.000Z</time>
      </trkpt>
      <trkpt lat="43.55517" lon="6.79459">
        <ele>153.1</ele>
        <time>2025-10-24T06:28:17.000Z</time>
      </trkpt>
      <trkpt lat="43.55519" lon="6.7946">
        <ele>153.4</ele>
        <time>2025-10-24T06:28:18.000Z</time>
      </trkpt>
      <trkpt lat="43.5552" lon="6.7946">
        <ele>153.6</ele>
        <time>2025-10-24T06:28:19.000Z</time>
      </trkpt>
      <trkpt lat="43.55521" lon="6.79461">
        <ele>153.8</ele>
        <time>2025-10-24T06:28:20.000Z</time>
      </trkpt>
      <trkpt lat="43.55521" lon="6.79462">
        <ele>154</ele>
        <time>2025-10-24T06:28:21.000Z</time>
      </trkpt>
      <trkpt lat="43.55523" lon="6.79462">
        <ele>154.3</ele>
        <time>2025-10-24T06:28:22.000Z</time>
      </trkpt>
      <trkpt lat="43.55524" lon="6.79463">
        <ele>154.5</ele>
        <time>2025-10-24T06:28:23.000Z</time>
      </trkpt>
      <trkpt lat="43.55525" lon="6.79465">
        <ele>154.8</ele>
        <time>2025-10-24T06:28:24.000Z</time>
      </trkpt>
      <trkpt lat="43.55526" lon="6.79466">
        <ele>155.1</ele>
        <time>2025-10-24T06:28:25.000Z</time>
      </trkpt>
      <trkpt lat="43.55526" lon="6.79466">
        <ele>155.2</ele>
        <time>2025-10-24T06:28:26.000Z</time>
      </trkpt>
      <trkpt lat="43.55527" lon="6.79467">
        <ele>155.3</ele>
        <time>2025-10-24T06:28:27.000Z</time>
      </trkpt>
      <trkpt lat="43.55527" lon="6.79467">
        <ele>155.4</ele>
        <time>2025-10-24T06:28:28.000Z</time>
      </trkpt>
      <trkpt lat="43.55527" lon="6.79467">
        <ele>155.4</ele>
        <time>2025-10-24T06:28:29.000Z</time>
      </trkpt>
      <trkpt lat="43.55527" lon="6.79467">
        <ele>155.4</ele>
        <time>2025-10-24T06:28:30.000Z</time>
      </trkpt>
      <trkpt lat="43.55527" lon="6.79468">
        <ele>155.5</ele>
        <time>2025-10-24T06:28:31.000Z</time>
      </trkpt>
      <trkpt lat="43.55527" lon="6.79469">
        <ele>155.6</ele>
        <time>2025-10-24T06:28:32.000Z</time>
      </trkpt>
      <trkpt lat="43.55528" lon="6.7947">
        <ele>155.7</ele>
        <time>2025-10-24T06:28:33.000Z</time>
      </trkpt>
      <trkpt lat="43.55528" lon="6.7947">
        <ele>155.9</ele>
        <time>2025-10-24T06:28:34.000Z</time>
      </trkpt>
      <trkpt lat="43.55529" lon="6.79471">
        <ele>156</ele>
        <time>2025-10-24T06:28:35.000Z</time>
      </trkpt>
      <trkpt lat="43.55529" lon="6.79472">
        <ele>156.1</ele>
        <time>2025-10-24T06:28:36.000Z</time>
      </trkpt>
      <trkpt lat="43.55529" lon="6.79473">
        <ele>156.2</ele>
        <time>2025-10-24T06:28:37.000Z</time>
      </trkpt>
      <trkpt lat="43.55529" lon="6.79475">
        <ele>156.4</ele>
        <time>2025-10-24T06:28:38.000Z</time>
      </trkpt>
      <trkpt lat="43.55528" lon="6.79477">
        <ele>156.6</ele>
        <time>2025-10-24T06:28:39.000Z</time>
      </trkpt>
      <trkpt lat="43.55528" lon="6.79479">
        <ele>156.8</ele>
        <time>2025-10-24T06:28:40.000Z</time>
      </trkpt>
      <trkpt lat="43.55527" lon="6.79481">
        <ele>157</ele>
        <time>2025-10-24T06:28:41.000Z</time>
      </trkpt>
      <trkpt lat="43.55526" lon="6.79484">
        <ele>157.2</ele>
        <time>2025-10-24T06:28:42.000Z</time>
      </trkpt>
      <trkpt lat="43.55525" lon="6.79486">
        <ele>157.3</ele>
        <time>2025-10-24T06:28:43.000Z</time>
      </trkpt>
      <trkpt lat="43.55524" lon="6.79488">
        <ele>157.5</ele>
        <time>2025-10-24T06:28:44.000Z</time>
      </trkpt>
      <trkpt lat="43.55523" lon="6.7949">
        <ele>157.6</ele>
        <time>2025-10-24T06:28:45.000Z</time>
      </trkpt>
      <trkpt lat="43.55522" lon="6.79493">
        <ele>157.7</ele>
        <time>2025-10-24T06:28:46.000Z</time>
      </trkpt>
      <trkpt lat="43.55522" lon="6.79496">
        <ele>157.8</ele>
        <time>2025-10-24T06:28:47.000Z</time>
      </trkpt>
      <trkpt lat="43.55522" lon="6.79498">
        <ele>157.8</ele>
        <time>2025-10-24T06:28:48.000Z</time>
      </trkpt>
      <trkpt lat="43.55522" lon="6.79501">
        <ele>157.9</ele>
        <time>2025-10-24T06:28:49.000Z</time>
      </trkpt>
      <trkpt lat="43.55522" lon="6.79505">
        <ele>157.9</ele>
        <time>2025-10-24T06:28:50.000Z</time>
      </trkpt>
      <trkpt lat="43.55522" lon="6.79508">
        <ele>157.9</ele>
        <time>2025-10-24T06:28:51.000Z</time>
      </trkpt>
      <trkpt lat="43.55522" lon="6.79512">
        <ele>157.9</ele>
        <time>2025-10-24T06:28:52.000Z</time>
      </trkpt>
      <trkpt lat="43.55521" lon="6.79515">
        <ele>157.9</ele>
        <time>2025-10-24T06:28:53.000Z</time>
      </trkpt>
      <trkpt lat="43.55521" lon="6.79518">
        <ele>157.9</ele>
        <time>2025-10-24T06:28:54.000Z</time>
      </trkpt>
      <trkpt lat="43.5552" lon="6.79522">
        <ele>157.8</ele>
        <time>2025-10-24T06:28:55.000Z</time>
      </trkpt>
      <trkpt lat="43.55519" lon="6.79525">
        <ele>157.8</ele>
        <time>2025-10-24T06:28:56.000Z</time>
      </trkpt>
      <trkpt lat="43.55518" lon="6.79528">
        <ele>157.7</ele>
        <time>2025-10-24T06:28:57.000Z</time>
      </trkpt>
      <trkpt lat="43.55517" lon="6.79532">
        <ele>157.7</ele>
        <time>2025-10-24T06:28:58.000Z</time>
      </trkpt>
      <trkpt lat="43.55517" lon="6.79535">
        <ele>157.7</ele>
        <time>2025-10-24T06:28:59.000Z</time>
      </trkpt>
      <trkpt lat="43.55517" lon="6.79538">
        <ele>157.7</ele>
        <time>2025-10-24T06:29:00.000Z</time>
      </trkpt>
      <trkpt lat="43.55516" lon="6.79542">
        <ele>157.7</ele>
        <time>2025-10-24T06:29:01.000Z</time>
      </trkpt>
      <trkpt lat="43.55516" lon="6.79545">
        <ele>157.8</ele>
        <time>2025-10-24T06:29:02.000Z</time>
      </trkpt>
      <trkpt lat="43.55515" lon="6.79549">
        <ele>157.8</ele>
        <time>2025-10-24T06:29:03.000Z</time>
      </trkpt>
      <trkpt lat="43.55515" lon="6.79553">
        <ele>157.9</ele>
        <time>2025-10-24T06:29:04.000Z</time>
      </trkpt>
      <trkpt lat="43.55515" lon="6.79556">
        <ele>158.1</ele>
        <time>2025-10-24T06:29:05.000Z</time>
      </trkpt>
      <trkpt lat="43.55516" lon="6.7956">
        <ele>158.2</ele>
        <time>2025-10-24T06:29:06.000Z</time>
      </trkpt>
      <trkpt lat="43.55515" lon="6.79563">
        <ele>158.3</ele>
        <time>2025-10-24T06:29:07.000Z</time>
      </trkpt>
      <trkpt lat="43.55515" lon="6.79566">
        <ele>158.4</ele>
        <time>2025-10-24T06:29:08.000Z</time>
      </trkpt>
      <trkpt lat="43.55514" lon="6.79568">
        <ele>158.5</ele>
        <time>2025-10-24T06:29:09.000Z</time>
      </trkpt>
      <trkpt lat="43.55513" lon="6.7957">
        <ele>158.6</ele>
        <time>2025-10-24T06:29:10.000Z</time>
      </trkpt>
      <trkpt lat="43.55511" lon="6.79572">
        <ele>158.8</ele>
        <time>2025-10-24T06:29:11.000Z</time>
      </trkpt>
      <trkpt lat="43.55511" lon="6.79575">
        <ele>158.9</ele>
        <time>2025-10-24T06:29:12.000Z</time>
      </trkpt>
      <trkpt lat="43.55511" lon="6.79579">
        <ele>159</ele>
        <time>2025-10-24T06:29:13.000Z</time>
      </trkpt>
      <trkpt lat="43.55511" lon="6.79582">
        <ele>159.1</ele>
        <time>2025-10-24T06:29:14.000Z</time>
      </trkpt>
      <trkpt lat="43.55513" lon="6.79584">
        <ele>159.2</ele>
        <time>2025-10-24T06:29:15.000Z</time>
      </trkpt>
      <trkpt lat="43.55515" lon="6.79587">
        <ele>159.4</ele>
        <time>2025-10-24T06:29:16.000Z</time>
      </trkpt>
      <trkpt lat="43.55517" lon="6.79589">
        <ele>159.4</ele>
        <time>2025-10-24T06:29:17.000Z</time>
      </trkpt>
      <trkpt lat="43.55519" lon="6.7959">
        <ele>159.4</ele>
        <time>2025-10-24T06:29:18.000Z</time>
      </trkpt>
      <trkpt lat="43.55522" lon="6.79592">
        <ele>159.4</ele>
        <time>2025-10-24T06:29:19.000Z</time>
      </trkpt>
      <trkpt lat="43.55525" lon="6.79593">
        <ele>159.5</ele>
        <time>2025-10-24T06:29:20.000Z</time>
      </trkpt>
      <trkpt lat="43.55528" lon="6.79595">
        <ele>159.5</ele>
        <time>2025-10-24T06:29:21.000Z</time>
      </trkpt>
      <trkpt lat="43.55531" lon="6.79596">
        <ele>159.5</ele>
        <time>2025-10-24T06:29:22.000Z</time>
      </trkpt>
      <trkpt lat="43.55534" lon="6.79597">
        <ele>159.6</ele>
        <time>2025-10-24T06:29:23.000Z</time>
      </trkpt>
      <trkpt lat="43.55536" lon="6.79599">
        <ele>159.6</ele>
        <time>2025-10-24T06:29:24.000Z</time>
      </trkpt>
      <trkpt lat="43.55539" lon="6.796">
        <ele>159.6</ele>
        <time>2025-10-24T06:29:25.000Z</time>
      </trkpt>
      <trkpt lat="43.55543" lon="6.796">
        <ele>159.6</ele>
        <time>2025-10-24T06:29:26.000Z</time>
      </trkpt>
      <trkpt lat="43.55546" lon="6.79601">
        <ele>159.6</ele>
        <time>2025-10-24T06:29:27.000Z</time>
      </trkpt>
      <trkpt lat="43.55549" lon="6.79601">
        <ele>159.6</ele>
        <time>2025-10-24T06:29:28.000Z</time>
      </trkpt>
      <trkpt lat="43.55552" lon="6.79601">
        <ele>159.7</ele>
        <time>2025-10-24T06:29:29.000Z</time>
      </trkpt>
      <trkpt lat="43.55555" lon="6.79602">
        <ele>159.7</ele>
        <time>2025-10-24T06:29:30.000Z</time>
      </trkpt>
      <trkpt lat="43.55558" lon="6.79603">
        <ele>159.7</ele>
        <time>2025-10-24T06:29:31.000Z</time>
      </trkpt>
      <trkpt lat="43.55561" lon="6.79605">
        <ele>159.7</ele>
        <time>2025-10-24T06:29:32.000Z</time>
      </trkpt>
      <trkpt lat="43.55564" lon="6.79606">
        <ele>159.7</ele>
        <time>2025-10-24T06:29:33.000Z</time>
      </trkpt>
      <trkpt lat="43.55566" lon="6.79608">
        <ele>159.7</ele>
        <time>2025-10-24T06:29:34.000Z</time>
      </trkpt>
      <trkpt lat="43.55568" lon="6.79609">
        <ele>159.7</ele>
        <time>2025-10-24T06:29:35.000Z</time>
      </trkpt>
      <trkpt lat="43.5557" lon="6.79611">
        <ele>159.7</ele>
        <time>2025-10-24T06:29:36.000Z</time>
      </trkpt>
      <trkpt lat="43.55572" lon="6.79613">
        <ele>159.7</ele>
        <time>2025-10-24T06:29:37.000Z</time>
      </trkpt>
      <trkpt lat="43.55574" lon="6.79615">
        <ele>159.7</ele>
        <time>2025-10-24T06:29:38.000Z</time>
      </trkpt>
      <trkpt lat="43.55577" lon="6.79617">
        <ele>159.7</ele>
        <time>2025-10-24T06:29:39.000Z</time>
      </trkpt>
      <trkpt lat="43.55579" lon="6.7962">
        <ele>159.7</ele>
        <time>2025-10-24T06:29:40.000Z</time>
      </trkpt>
      <trkpt lat="43.55582" lon="6.79623">
        <ele>159.6</ele>
        <time>2025-10-24T06:29:41.000Z</time>
      </trkpt>
      <trkpt lat="43.55585" lon="6.79626">
        <ele>159.6</ele>
        <time>2025-10-24T06:29:42.000Z</time>
      </trkpt>
      <trkpt lat="43.55588" lon="6.7963">
        <ele>159.6</ele>
        <time>2025-10-24T06:29:43.000Z</time>
      </trkpt>
      <trkpt lat="43.5559" lon="6.79633">
        <ele>159.5</ele>
        <time>2025-10-24T06:29:44.000Z</time>
      </trkpt>
      <trkpt lat="43.55593" lon="6.79636">
        <ele>159.5</ele>
        <time>2025-10-24T06:29:45.000Z</time>
      </trkpt>
      <trkpt lat="43.55596" lon="6.79639">
        <ele>159.5</ele>
        <time>2025-10-24T06:29:46.000Z</time>
      </trkpt>
      <trkpt lat="43.556" lon="6.79642">
        <ele>159.4</ele>
        <time>2025-10-24T06:29:47.000Z</time>
      </trkpt>
      <trkpt lat="43.55603" lon="6.79644">
        <ele>159.4</ele>
        <time>2025-10-24T06:29:48.000Z</time>
      </trkpt>
      <trkpt lat="43.55607" lon="6.79646">
        <ele>159.4</ele>
        <time>2025-10-24T06:29:49.000Z</time>
      </trkpt>
      <trkpt lat="43.55611" lon="6.79648">
        <ele>159.4</ele>
        <time>2025-10-24T06:29:50.000Z</time>
      </trkpt>
      <trkpt lat="43.55614" lon="6.7965">
        <ele>159.4</ele>
        <time>2025-10-24T06:29:51.000Z</time>
      </trkpt>
      <trkpt lat="43.55618" lon="6.79651">
        <ele>159.4</ele>
        <time>2025-10-24T06:29:52.000Z</time>
      </trkpt>
      <trkpt lat="43.55621" lon="6.79652">
        <ele>159.4</ele>
        <time>2025-10-24T06:29:53.000Z</time>
      </trkpt>
      <trkpt lat="43.55625" lon="6.79653">
        <ele>159.4</ele>
        <time>2025-10-24T06:29:54.000Z</time>
      </trkpt>
      <trkpt lat="43.55628" lon="6.79653">
        <ele>159.4</ele>
        <time>2025-10-24T06:29:55.000Z</time>
      </trkpt>
      <trkpt lat="43.55632" lon="6.79652">
        <ele>159.5</ele>
        <time>2025-10-24T06:29:56.000Z</time>
      </trkpt>
      <trkpt lat="43.55635" lon="6.7965">
        <ele>159.5</ele>
        <time>2025-10-24T06:29:57.000Z</time>
      </trkpt>
      <trkpt lat="43.55638" lon="6.79649">
        <ele>159.5</ele>
        <time>2025-10-24T06:29:58.000Z</time>
      </trkpt>
      <trkpt lat="43.55641" lon="6.79648">
        <ele>159.6</ele>
        <time>2025-10-24T06:29:59.000Z</time>
      </trkpt>
      <trkpt lat="43.55643" lon="6.79648">
        <ele>159.6</ele>
        <time>2025-10-24T06:30:00.000Z</time>
      </trkpt>
      <trkpt lat="43.55646" lon="6.79648">
        <ele>159.7</ele>
        <time>2025-10-24T06:30:01.000Z</time>
      </trkpt>
      <trkpt lat="43.55648" lon="6.79649">
        <ele>159.7</ele>
        <time>2025-10-24T06:30:02.000Z</time>
      </trkpt>
      <trkpt lat="43.55649" lon="6.79651">
        <ele>159.7</ele>
        <time>2025-10-24T06:30:03.000Z</time>
      </trkpt>
      <trkpt lat="43.55651" lon="6.79653">
        <ele>159.7</ele>
        <time>2025-10-24T06:30:04.000Z</time>
      </trkpt>
      <trkpt lat="43.55651" lon="6.79655">
        <ele>159.7</ele>
        <time>2025-10-24T06:30:05.000Z</time>
      </trkpt>
      <trkpt lat="43.55652" lon="6.79658">
        <ele>159.7</ele>
        <time>2025-10-24T06:30:06.000Z</time>
      </trkpt>
      <trkpt lat="43.55653" lon="6.7966">
        <ele>159.8</ele>
        <time>2025-10-24T06:30:07.000Z</time>
      </trkpt>
      <trkpt lat="43.55654" lon="6.79663">
        <ele>159.8</ele>
        <time>2025-10-24T06:30:08.000Z</time>
      </trkpt>
      <trkpt lat="43.55655" lon="6.79666">
        <ele>159.9</ele>
        <time>2025-10-24T06:30:09.000Z</time>
      </trkpt>
      <trkpt lat="43.55656" lon="6.79669">
        <ele>160</ele>
        <time>2025-10-24T06:30:10.000Z</time>
      </trkpt>
      <trkpt lat="43.55657" lon="6.79672">
        <ele>160</ele>
        <time>2025-10-24T06:30:11.000Z</time>
      </trkpt>
      <trkpt lat="43.55658" lon="6.79677">
        <ele>160.1</ele>
        <time>2025-10-24T06:30:12.000Z</time>
      </trkpt>
      <trkpt lat="43.55659" lon="6.7968">
        <ele>160.2</ele>
        <time>2025-10-24T06:30:13.000Z</time>
      </trkpt>
      <trkpt lat="43.55661" lon="6.79684">
        <ele>160.4</ele>
        <time>2025-10-24T06:30:14.000Z</time>
      </trkpt>
      <trkpt lat="43.55664" lon="6.79687">
        <ele>160.5</ele>
        <time>2025-10-24T06:30:15.000Z</time>
      </trkpt>
      <trkpt lat="43.55667" lon="6.7969">
        <ele>160.6</ele>
        <time>2025-10-24T06:30:16.000Z</time>
      </trkpt>
      <trkpt lat="43.5567" lon="6.79692">
        <ele>160.7</ele>
        <time>2025-10-24T06:30:17.000Z</time>
      </trkpt>
      <trkpt lat="43.55673" lon="6.79694">
        <ele>160.9</ele>
        <time>2025-10-24T06:30:18.000Z</time>
      </trkpt>
      <trkpt lat="43.55676" lon="6.79697">
        <ele>161</ele>
        <time>2025-10-24T06:30:19.000Z</time>
      </trkpt>
      <trkpt lat="43.55679" lon="6.79699">
        <ele>161.2</ele>
        <time>2025-10-24T06:30:20.000Z</time>
      </trkpt>
      <trkpt lat="43.55682" lon="6.79701">
        <ele>161.3</ele>
        <time>2025-10-24T06:30:21.000Z</time>
      </trkpt>
      <trkpt lat="43.55685" lon="6.79703">
        <ele>161.4</ele>
        <time>2025-10-24T06:30:22.000Z</time>
      </trkpt>
      <trkpt lat="43.55688" lon="6.79704">
        <ele>161.6</ele>
        <time>2025-10-24T06:30:23.000Z</time>
      </trkpt>
      <trkpt lat="43.55692" lon="6.79704">
        <ele>161.7</ele>
        <time>2025-10-24T06:30:24.000Z</time>
      </trkpt>
      <trkpt lat="43.55695" lon="6.79705">
        <ele>161.8</ele>
        <time>2025-10-24T06:30:25.000Z</time>
      </trkpt>
      <trkpt lat="43.55698" lon="6.79706">
        <ele>161.8</ele>
        <time>2025-10-24T06:30:26.000Z</time>
      </trkpt>
      <trkpt lat="43.557" lon="6.79709">
        <ele>161.9</ele>
        <time>2025-10-24T06:30:27.000Z</time>
      </trkpt>
      <trkpt lat="43.55703" lon="6.79711">
        <ele>162</ele>
        <time>2025-10-24T06:30:28.000Z</time>
      </trkpt>
      <trkpt lat="43.55706" lon="6.79714">
        <ele>162.1</ele>
        <time>2025-10-24T06:30:29.000Z</time>
      </trkpt>
      <trkpt lat="43.55708" lon="6.79716">
        <ele>162.2</ele>
        <time>2025-10-24T06:30:30.000Z</time>
      </trkpt>
      <trkpt lat="43.55711" lon="6.79719">
        <ele>162.2</ele>
        <time>2025-10-24T06:30:31.000Z</time>
      </trkpt>
      <trkpt lat="43.55714" lon="6.7972">
        <ele>162.3</ele>
        <time>2025-10-24T06:30:32.000Z</time>
      </trkpt>
      <trkpt lat="43.55718" lon="6.79722">
        <ele>162.4</ele>
        <time>2025-10-24T06:30:33.000Z</time>
      </trkpt>
      <trkpt lat="43.5572" lon="6.79723">
        <ele>162.5</ele>
        <time>2025-10-24T06:30:34.000Z</time>
      </trkpt>
      <trkpt lat="43.55723" lon="6.79725">
        <ele>162.5</ele>
        <time>2025-10-24T06:30:35.000Z</time>
      </trkpt>
      <trkpt lat="43.55726" lon="6.79726">
        <ele>162.3</ele>
        <time>2025-10-24T06:30:36.000Z</time>
      </trkpt>
      <trkpt lat="43.55728" lon="6.79727">
        <ele>162</ele>
        <time>2025-10-24T06:30:37.000Z</time>
      </trkpt>
      <trkpt lat="43.5573" lon="6.79727">
        <ele>161.9</ele>
        <time>2025-10-24T06:30:38.000Z</time>
      </trkpt>
      <trkpt lat="43.55733" lon="6.79727">
        <ele>161.7</ele>
        <time>2025-10-24T06:30:39.000Z</time>
      </trkpt>
      <trkpt lat="43.55735" lon="6.79727">
        <ele>161.5</ele>
        <time>2025-10-24T06:30:40.000Z</time>
      </trkpt>
      <trkpt lat="43.55737" lon="6.79727">
        <ele>161.3</ele>
        <time>2025-10-24T06:30:41.000Z</time>
      </trkpt>
      <trkpt lat="43.55739" lon="6.79726">
        <ele>161.1</ele>
        <time>2025-10-24T06:30:42.000Z</time>
      </trkpt>
      <trkpt lat="43.55741" lon="6.79724">
        <ele>160.9</ele>
        <time>2025-10-24T06:30:43.000Z</time>
      </trkpt>
      <trkpt lat="43.55743" lon="6.79722">
        <ele>160.7</ele>
        <time>2025-10-24T06:30:44.000Z</time>
      </trkpt>
      <trkpt lat="43.55744" lon="6.79719">
        <ele>160.4</ele>
        <time>2025-10-24T06:30:45.000Z</time>
      </trkpt>
      <trkpt lat="43.55746" lon="6.79715">
        <ele>160.1</ele>
        <time>2025-10-24T06:30:46.000Z</time>
      </trkpt>
      <trkpt lat="43.55748" lon="6.79712">
        <ele>159.9</ele>
        <time>2025-10-24T06:30:47.000Z</time>
      </trkpt>
      <trkpt lat="43.5575" lon="6.79709">
        <ele>159.6</ele>
        <time>2025-10-24T06:30:48.000Z</time>
      </trkpt>
      <trkpt lat="43.55752" lon="6.79705">
        <ele>159.3</ele>
        <time>2025-10-24T06:30:49.000Z</time>
      </trkpt>
      <trkpt lat="43.55754" lon="6.79701">
        <ele>159.1</ele>
        <time>2025-10-24T06:30:50.000Z</time>
      </trkpt>
      <trkpt lat="43.55755" lon="6.79697">
        <ele>158.9</ele>
        <time>2025-10-24T06:30:51.000Z</time>
      </trkpt>
      <trkpt lat="43.55757" lon="6.79693">
        <ele>158.7</ele>
        <time>2025-10-24T06:30:52.000Z</time>
      </trkpt>
      <trkpt lat="43.55758" lon="6.79689">
        <ele>158.5</ele>
        <time>2025-10-24T06:30:53.000Z</time>
      </trkpt>
      <trkpt lat="43.5576" lon="6.79686">
        <ele>158.4</ele>
        <time>2025-10-24T06:30:54.000Z</time>
      </trkpt>
      <trkpt lat="43.55762" lon="6.79683">
        <ele>158.2</ele>
        <time>2025-10-24T06:30:55.000Z</time>
      </trkpt>
      <trkpt lat="43.55763" lon="6.79679">
        <ele>158.1</ele>
        <time>2025-10-24T06:30:56.000Z</time>
      </trkpt>
      <trkpt lat="43.55766" lon="6.79675">
        <ele>158</ele>
        <time>2025-10-24T06:30:57.000Z</time>
      </trkpt>
      <trkpt lat="43.55768" lon="6.79671">
        <ele>157.8</ele>
        <time>2025-10-24T06:30:58.000Z</time>
      </trkpt>
      <trkpt lat="43.55769" lon="6.79668">
        <ele>157.7</ele>
        <time>2025-10-24T06:30:59.000Z</time>
      </trkpt>
      <trkpt lat="43.55771" lon="6.79664">
        <ele>157.6</ele>
        <time>2025-10-24T06:31:00.000Z</time>
      </trkpt>
      <trkpt lat="43.55773" lon="6.79661">
        <ele>157.4</ele>
        <time>2025-10-24T06:31:01.000Z</time>
      </trkpt>
      <trkpt lat="43.55774" lon="6.79659">
        <ele>157.3</ele>
        <time>2025-10-24T06:31:02.000Z</time>
      </trkpt>
      <trkpt lat="43.55774" lon="6.79658">
        <ele>157.2</ele>
        <time>2025-10-24T06:31:03.000Z</time>
      </trkpt>
      <trkpt lat="43.55774" lon="6.79657">
        <ele>157.2</ele>
        <time>2025-10-24T06:31:04.000Z</time>
      </trkpt>
      <trkpt lat="43.55775" lon="6.79656">
        <ele>157.1</ele>
        <time>2025-10-24T06:31:05.000Z</time>
      </trkpt>
      <trkpt lat="43.55775" lon="6.79656">
        <ele>157.1</ele>
        <time>2025-10-24T06:31:06.000Z</time>
      </trkpt>
      <trkpt lat="43.55774" lon="6.79656">
        <ele>157.1</ele>
        <time>2025-10-24T06:31:07.000Z</time>
      </trkpt>
      <trkpt lat="43.55774" lon="6.79655">
        <ele>157</ele>
        <time>2025-10-24T06:31:08.000Z</time>
      </trkpt>
      <trkpt lat="43.55774" lon="6.79655">
        <ele>157</ele>
        <time>2025-10-24T06:31:09.000Z</time>
      </trkpt>
      <trkpt lat="43.55774" lon="6.79655">
        <ele>157</ele>
        <time>2025-10-24T06:31:10.000Z</time>
      </trkpt>
      <trkpt lat="43.55774" lon="6.79655">
        <ele>156.9</ele>
        <time>2025-10-24T06:31:11.000Z</time>
      </trkpt>
      <trkpt lat="43.55773" lon="6.79655">
        <ele>156.9</ele>
        <time>2025-10-24T06:31:12.000Z</time>
      </trkpt>
      <trkpt lat="43.55773" lon="6.79655">
        <ele>156.9</ele>
        <time>2025-10-24T06:31:13.000Z</time>
      </trkpt>
      <trkpt lat="43.55773" lon="6.79655">
        <ele>156.8</ele>
        <time>2025-10-24T06:31:14.000Z</time>
      </trkpt>
      <trkpt lat="43.55773" lon="6.79655">
        <ele>156.8</ele>
        <time>2025-10-24T06:31:15.000Z</time>
      </trkpt>
      <trkpt lat="43.55773" lon="6.79656">
        <ele>156.8</ele>
        <time>2025-10-24T06:31:16.000Z</time>
      </trkpt>
      <trkpt lat="43.55773" lon="6.79655">
        <ele>156.8</ele>
        <time>2025-10-24T06:31:17.000Z</time>
      </trkpt>
      <trkpt lat="43.55773" lon="6.79655">
        <ele>156.8</ele>
        <time>2025-10-24T06:31:18.000Z</time>
      </trkpt>
      <trkpt lat="43.55773" lon="6.79655">
        <ele>156.8</ele>
        <time>2025-10-24T06:31:19.000Z</time>
      </trkpt>
      <trkpt lat="43.55773" lon="6.79655">
        <ele>156.8</ele>
        <time>2025-10-24T06:31:20.000Z</time>
      </trkpt>
      <trkpt lat="43.55773" lon="6.79655">
        <ele>156.8</ele>
        <time>2025-10-24T06:31:21.000Z</time>
      </trkpt>
      <trkpt lat="43.55773" lon="6.79655">
        <ele>156.8</ele>
        <time>2025-10-24T06:31:22.000Z</time>
      </trkpt>
      <trkpt lat="43.55773" lon="6.79655">
        <ele>156.8</ele>
        <time>2025-10-24T06:31:23.000Z</time>
      </trkpt>
      <trkpt lat="43.55773" lon="6.79655">
        <ele>156.7</ele>
        <time>2025-10-24T06:31:24.000Z</time>
      </trkpt>
      <trkpt lat="43.55774" lon="6.79652">
        <ele>156.5</ele>
        <time>2025-10-24T06:31:25.000Z</time>
      </trkpt>
      <trkpt lat="43.55775" lon="6.7965">
        <ele>156.3</ele>
        <time>2025-10-24T06:31:26.000Z</time>
      </trkpt>
      <trkpt lat="43.55777" lon="6.79648">
        <ele>156.1</ele>
        <time>2025-10-24T06:31:27.000Z</time>
      </trkpt>
      <trkpt lat="43.55778" lon="6.79645">
        <ele>155.8</ele>
        <time>2025-10-24T06:31:28.000Z</time>
      </trkpt>
      <trkpt lat="43.55779" lon="6.79642">
        <ele>155.5</ele>
        <time>2025-10-24T06:31:29.000Z</time>
      </trkpt>
      <trkpt lat="43.5578" lon="6.79639">
        <ele>155.2</ele>
        <time>2025-10-24T06:31:30.000Z</time>
      </trkpt>
      <trkpt lat="43.55781" lon="6.79634">
        <ele>154.8</ele>
        <time>2025-10-24T06:31:31.000Z</time>
      </trkpt>
      <trkpt lat="43.55781" lon="6.79629">
        <ele>154.3</ele>
        <time>2025-10-24T06:31:32.000Z</time>
      </trkpt>
      <trkpt lat="43.55782" lon="6.79626">
        <ele>154</ele>
        <time>2025-10-24T06:31:33.000Z</time>
      </trkpt>
      <trkpt lat="43.55784" lon="6.79622">
        <ele>153.7</ele>
        <time>2025-10-24T06:31:34.000Z</time>
      </trkpt>
      <trkpt lat="43.55786" lon="6.79619">
        <ele>153.3</ele>
        <time>2025-10-24T06:31:35.000Z</time>
      </trkpt>
      <trkpt lat="43.55788" lon="6.79616">
        <ele>153</ele>
        <time>2025-10-24T06:31:36.000Z</time>
      </trkpt>
      <trkpt lat="43.55789" lon="6.79614">
        <ele>152.8</ele>
        <time>2025-10-24T06:31:37.000Z</time>
      </trkpt>
      <trkpt lat="43.55791" lon="6.79611">
        <ele>152.5</ele>
        <time>2025-10-24T06:31:38.000Z</time>
      </trkpt>
      <trkpt lat="43.55792" lon="6.79608">
        <ele>152.2</ele>
        <time>2025-10-24T06:31:39.000Z</time>
      </trkpt>
      <trkpt lat="43.55793" lon="6.79605">
        <ele>151.9</ele>
        <time>2025-10-24T06:31:40.000Z</time>
      </trkpt>
      <trkpt lat="43.55794" lon="6.79602">
        <ele>151.7</ele>
        <time>2025-10-24T06:31:41.000Z</time>
      </trkpt>
      <trkpt lat="43.55795" lon="6.79598">
        <ele>151.4</ele>
        <time>2025-10-24T06:31:42.000Z</time>
      </trkpt>
      <trkpt lat="43.55796" lon="6.79594">
        <ele>151.1</ele>
        <time>2025-10-24T06:31:43.000Z</time>
      </trkpt>
      <trkpt lat="43.55797" lon="6.7959">
        <ele>150.9</ele>
        <time>2025-10-24T06:31:44.000Z</time>
      </trkpt>
      <trkpt lat="43.55797" lon="6.79586">
        <ele>150.7</ele>
        <time>2025-10-24T06:31:45.000Z</time>
      </trkpt>
      <trkpt lat="43.55798" lon="6.79583">
        <ele>150.5</ele>
        <time>2025-10-24T06:31:46.000Z</time>
      </trkpt>
      <trkpt lat="43.558" lon="6.7958">
        <ele>150.3</ele>
        <time>2025-10-24T06:31:47.000Z</time>
      </trkpt>
      <trkpt lat="43.55801" lon="6.79577">
        <ele>150.1</ele>
        <time>2025-10-24T06:31:48.000Z</time>
      </trkpt>
      <trkpt lat="43.55803" lon="6.79575">
        <ele>149.9</ele>
        <time>2025-10-24T06:31:49.000Z</time>
      </trkpt>
      <trkpt lat="43.55804" lon="6.79572">
        <ele>149.8</ele>
        <time>2025-10-24T06:31:50.000Z</time>
      </trkpt>
      <trkpt lat="43.55804" lon="6.7957">
        <ele>149.7</ele>
        <time>2025-10-24T06:31:51.000Z</time>
      </trkpt>
      <trkpt lat="43.55803" lon="6.79568">
        <ele>149.6</ele>
        <time>2025-10-24T06:31:52.000Z</time>
      </trkpt>
      <trkpt lat="43.55803" lon="6.79565">
        <ele>149.5</ele>
        <time>2025-10-24T06:31:53.000Z</time>
      </trkpt>
      <trkpt lat="43.55802" lon="6.79561">
        <ele>149.3</ele>
        <time>2025-10-24T06:31:54.000Z</time>
      </trkpt>
      <trkpt lat="43.55801" lon="6.79558">
        <ele>149.2</ele>
        <time>2025-10-24T06:31:55.000Z</time>
      </trkpt>
      <trkpt lat="43.558" lon="6.79554">
        <ele>149</ele>
        <time>2025-10-24T06:31:56.000Z</time>
      </trkpt>
      <trkpt lat="43.55799" lon="6.7955">
        <ele>148.8</ele>
        <time>2025-10-24T06:31:57.000Z</time>
      </trkpt>
      <trkpt lat="43.55798" lon="6.79546">
        <ele>148.6</ele>
        <time>2025-10-24T06:31:58.000Z</time>
      </trkpt>
      <trkpt lat="43.55797" lon="6.79542">
        <ele>148.4</ele>
        <time>2025-10-24T06:31:59.000Z</time>
      </trkpt>
      <trkpt lat="43.55796" lon="6.79539">
        <ele>148.3</ele>
        <time>2025-10-24T06:32:00.000Z</time>
      </trkpt>
      <trkpt lat="43.55795" lon="6.79535">
        <ele>148.1</ele>
        <time>2025-10-24T06:32:01.000Z</time>
      </trkpt>
      <trkpt lat="43.55794" lon="6.79531">
        <ele>148</ele>
        <time>2025-10-24T06:32:02.000Z</time>
      </trkpt>
      <trkpt lat="43.55792" lon="6.79528">
        <ele>147.8</ele>
        <time>2025-10-24T06:32:03.000Z</time>
      </trkpt>
      <trkpt lat="43.55791" lon="6.79524">
        <ele>147.6</ele>
        <time>2025-10-24T06:32:04.000Z</time>
      </trkpt>
      <trkpt lat="43.5579" lon="6.79521">
        <ele>147.4</ele>
        <time>2025-10-24T06:32:05.000Z</time>
      </trkpt>
      <trkpt lat="43.55788" lon="6.79518">
        <ele>147.3</ele>
        <time>2025-10-24T06:32:06.000Z</time>
      </trkpt>
      <trkpt lat="43.55787" lon="6.79516">
        <ele>147.2</ele>
        <time>2025-10-24T06:32:07.000Z</time>
      </trkpt>
      <trkpt lat="43.55786" lon="6.79514">
        <ele>147.1</ele>
        <time>2025-10-24T06:32:08.000Z</time>
      </trkpt>
      <trkpt lat="43.55785" lon="6.79511">
        <ele>146.9</ele>
        <time>2025-10-24T06:32:09.000Z</time>
      </trkpt>
      <trkpt lat="43.55784" lon="6.79509">
        <ele>147</ele>
        <time>2025-10-24T06:32:10.000Z</time>
      </trkpt>
      <trkpt lat="43.55783" lon="6.79507">
        <ele>147</ele>
        <time>2025-10-24T06:32:11.000Z</time>
      </trkpt>
      <trkpt lat="43.55783" lon="6.79505">
        <ele>147</ele>
        <time>2025-10-24T06:32:12.000Z</time>
      </trkpt>
      <trkpt lat="43.55783" lon="6.79503">
        <ele>147.1</ele>
        <time>2025-10-24T06:32:13.000Z</time>
      </trkpt>
      <trkpt lat="43.55783" lon="6.79501">
        <ele>147.2</ele>
        <time>2025-10-24T06:32:14.000Z</time>
      </trkpt>
      <trkpt lat="43.55782" lon="6.79499">
        <ele>147.3</ele>
        <time>2025-10-24T06:32:15.000Z</time>
      </trkpt>
      <trkpt lat="43.55781" lon="6.79497">
        <ele>147.4</ele>
        <time>2025-10-24T06:32:16.000Z</time>
      </trkpt>
      <trkpt lat="43.5578" lon="6.79496">
        <ele>147.4</ele>
        <time>2025-10-24T06:32:17.000Z</time>
      </trkpt>
      <trkpt lat="43.55779" lon="6.79496">
        <ele>147.5</ele>
        <time>2025-10-24T06:32:18.000Z</time>
      </trkpt>
      <trkpt lat="43.55778" lon="6.79496">
        <ele>147.5</ele>
        <time>2025-10-24T06:32:19.000Z</time>
      </trkpt>
      <trkpt lat="43.55778" lon="6.79496">
        <ele>147.4</ele>
        <time>2025-10-24T06:32:20.000Z</time>
      </trkpt>
      <trkpt lat="43.55778" lon="6.79496">
        <ele>147.5</ele>
        <time>2025-10-24T06:32:21.000Z</time>
      </trkpt>
      <trkpt lat="43.55778" lon="6.79496">
        <ele>147.6</ele>
        <time>2025-10-24T06:32:22.000Z</time>
      </trkpt>
      <trkpt lat="43.55777" lon="6.79495">
        <ele>147.6</ele>
        <time>2025-10-24T06:32:23.000Z</time>
      </trkpt>
      <trkpt lat="43.55775" lon="6.79493">
        <ele>147.6</ele>
        <time>2025-10-24T06:32:24.000Z</time>
      </trkpt>
      <trkpt lat="43.55774" lon="6.79491">
        <ele>147.6</ele>
        <time>2025-10-24T06:32:25.000Z</time>
      </trkpt>
      <trkpt lat="43.55772" lon="6.7949">
        <ele>147.6</ele>
        <time>2025-10-24T06:32:26.000Z</time>
      </trkpt>
      <trkpt lat="43.55771" lon="6.79489">
        <ele>147.6</ele>
        <time>2025-10-24T06:32:27.000Z</time>
      </trkpt>
      <trkpt lat="43.55771" lon="6.79489">
        <ele>147.6</ele>
        <time>2025-10-24T06:32:28.000Z</time>
      </trkpt>
      <trkpt lat="43.5577" lon="6.79489">
        <ele>147.6</ele>
        <time>2025-10-24T06:32:29.000Z</time>
      </trkpt>
      <trkpt lat="43.5577" lon="6.79489">
        <ele>147.6</ele>
        <time>2025-10-24T06:32:30.000Z</time>
      </trkpt>
      <trkpt lat="43.5577" lon="6.79489">
        <ele>147.7</ele>
        <time>2025-10-24T06:32:31.000Z</time>
      </trkpt>
      <trkpt lat="43.5577" lon="6.79488">
        <ele>147.7</ele>
        <time>2025-10-24T06:32:32.000Z</time>
      </trkpt>
      <trkpt lat="43.5577" lon="6.79488">
        <ele>147.7</ele>
        <time>2025-10-24T06:32:33.000Z</time>
      </trkpt>
      <trkpt lat="43.55769" lon="6.79487">
        <ele>147.6</ele>
        <time>2025-10-24T06:32:34.000Z</time>
      </trkpt>
      <trkpt lat="43.55768" lon="6.79486">
        <ele>147.6</ele>
        <time>2025-10-24T06:32:35.000Z</time>
      </trkpt>
      <trkpt lat="43.55766" lon="6.79484">
        <ele>147.7</ele>
        <time>2025-10-24T06:32:36.000Z</time>
      </trkpt>
      <trkpt lat="43.55765" lon="6.79481">
        <ele>147.6</ele>
        <time>2025-10-24T06:32:37.000Z</time>
      </trkpt>
      <trkpt lat="43.55764" lon="6.79478">
        <ele>147.6</ele>
        <time>2025-10-24T06:32:38.000Z</time>
      </trkpt>
      <trkpt lat="43.55763" lon="6.79475">
        <ele>147.6</ele>
        <time>2025-10-24T06:32:39.000Z</time>
      </trkpt>
      <trkpt lat="43.55762" lon="6.79472">
        <ele>147.6</ele>
        <time>2025-10-24T06:32:40.000Z</time>
      </trkpt>
      <trkpt lat="43.5576" lon="6.79468">
        <ele>147.7</ele>
        <time>2025-10-24T06:32:41.000Z</time>
      </trkpt>
      <trkpt lat="43.55758" lon="6.79466">
        <ele>147.7</ele>
        <time>2025-10-24T06:32:42.000Z</time>
      </trkpt>
      <trkpt lat="43.55755" lon="6.79464">
        <ele>147.7</ele>
        <time>2025-10-24T06:32:43.000Z</time>
      </trkpt>
      <trkpt lat="43.55753" lon="6.79462">
        <ele>147.8</ele>
        <time>2025-10-24T06:32:44.000Z</time>
      </trkpt>
      <trkpt lat="43.5575" lon="6.79461">
        <ele>147.9</ele>
        <time>2025-10-24T06:32:45.000Z</time>
      </trkpt>
      <trkpt lat="43.55746" lon="6.79458">
        <ele>148</ele>
        <time>2025-10-24T06:32:46.000Z</time>
      </trkpt>
      <trkpt lat="43.55744" lon="6.79457">
        <ele>148</ele>
        <time>2025-10-24T06:32:47.000Z</time>
      </trkpt>
      <trkpt lat="43.55742" lon="6.79455">
        <ele>148</ele>
        <time>2025-10-24T06:32:48.000Z</time>
      </trkpt>
      <trkpt lat="43.5574" lon="6.79454">
        <ele>148.1</ele>
        <time>2025-10-24T06:32:49.000Z</time>
      </trkpt>
      <trkpt lat="43.55738" lon="6.79452">
        <ele>148.1</ele>
        <time>2025-10-24T06:32:50.000Z</time>
      </trkpt>
      <trkpt lat="43.55735" lon="6.79449">
        <ele>148.2</ele>
        <time>2025-10-24T06:32:51.000Z</time>
      </trkpt>
      <trkpt lat="43.55733" lon="6.79447">
        <ele>148.2</ele>
        <time>2025-10-24T06:32:52.000Z</time>
      </trkpt>
      <trkpt lat="43.55728" lon="6.79445">
        <ele>148.3</ele>
        <time>2025-10-24T06:32:53.000Z</time>
      </trkpt>
      <trkpt lat="43.55726" lon="6.79444">
        <ele>148.4</ele>
        <time>2025-10-24T06:32:54.000Z</time>
      </trkpt>
      <trkpt lat="43.55723" lon="6.79444">
        <ele>148.4</ele>
        <time>2025-10-24T06:32:55.000Z</time>
      </trkpt>
      <trkpt lat="43.55719" lon="6.79444">
        <ele>148.5</ele>
        <time>2025-10-24T06:32:56.000Z</time>
      </trkpt>
      <trkpt lat="43.55715" lon="6.79445">
        <ele>148.5</ele>
        <time>2025-10-24T06:32:57.000Z</time>
      </trkpt>
      <trkpt lat="43.55712" lon="6.79446">
        <ele>148.6</ele>
        <time>2025-10-24T06:32:58.000Z</time>
      </trkpt>
      <trkpt lat="43.55709" lon="6.79448">
        <ele>148.6</ele>
        <time>2025-10-24T06:32:59.000Z</time>
      </trkpt>
      <trkpt lat="43.55705" lon="6.79449">
        <ele>148.7</ele>
        <time>2025-10-24T06:33:00.000Z</time>
      </trkpt>
      <trkpt lat="43.55701" lon="6.7945">
        <ele>148.7</ele>
        <time>2025-10-24T06:33:01.000Z</time>
      </trkpt>
      <trkpt lat="43.55697" lon="6.79451">
        <ele>148.8</ele>
        <time>2025-10-24T06:33:02.000Z</time>
      </trkpt>
      <trkpt lat="43.55694" lon="6.79452">
        <ele>148.8</ele>
        <time>2025-10-24T06:33:03.000Z</time>
      </trkpt>
      <trkpt lat="43.5569" lon="6.79453">
        <ele>148.8</ele>
        <time>2025-10-24T06:33:04.000Z</time>
      </trkpt>
      <trkpt lat="43.55685" lon="6.79453">
        <ele>148.8</ele>
        <time>2025-10-24T06:33:05.000Z</time>
      </trkpt>
      <trkpt lat="43.55681" lon="6.79454">
        <ele>148.9</ele>
        <time>2025-10-24T06:33:06.000Z</time>
      </trkpt>
      <trkpt lat="43.55677" lon="6.79455">
        <ele>148.9</ele>
        <time>2025-10-24T06:33:07.000Z</time>
      </trkpt>
      <trkpt lat="43.55674" lon="6.79456">
        <ele>148.9</ele>
        <time>2025-10-24T06:33:08.000Z</time>
      </trkpt>
      <trkpt lat="43.55671" lon="6.79456">
        <ele>148.9</ele>
        <time>2025-10-24T06:33:09.000Z</time>
      </trkpt>
      <trkpt lat="43.55666" lon="6.79457">
        <ele>149</ele>
        <time>2025-10-24T06:33:10.000Z</time>
        <extensions>
          <visugpx:TrkExtension xmlns:visugpx="https://www.visugpx.com/editgpx/">
            <visugpx:node>1</visugpx:node>
            </visugpx:TrkExtension>
        </extensions>
      </trkpt>
    </trkseg>
  </trk>
  <trk>
    <name><![CDATA[Bagnols -Pennafort -Fille d'Isnard_13]]></name>
    <trkseg>
      <trkpt lat="43.58837" lon="6.77305">
        <ele>153.4</ele>
        <time>2025-01-10T10:42:54.000Z</time>
      </trkpt>
      <trkpt lat="43.58842" lon="6.77309">
        <ele>153.4</ele>
        <time>2025-01-10T10:42:53.000Z</time>
      </trkpt>
      <trkpt lat="43.58846" lon="6.77313">
        <ele>153.4</ele>
        <time>2025-01-10T10:42:52.000Z</time>
      </trkpt>
      <trkpt lat="43.58849" lon="6.77316">
        <ele>153.4</ele>
        <time>2025-01-10T10:42:51.000Z</time>
      </trkpt>
      <trkpt lat="43.58854" lon="6.77319">
        <ele>153.4</ele>
        <time>2025-01-10T10:42:50.000Z</time>
      </trkpt>
      <trkpt lat="43.58858" lon="6.77322">
        <ele>153.4</ele>
        <time>2025-01-10T10:42:49.000Z</time>
      </trkpt>
      <trkpt lat="43.58862" lon="6.77325">
        <ele>153.5</ele>
        <time>2025-01-10T10:42:48.000Z</time>
      </trkpt>
      <trkpt lat="43.58866" lon="6.77328">
        <ele>153.5</ele>
        <time>2025-01-10T10:42:47.000Z</time>
      </trkpt>
      <trkpt lat="43.58869" lon="6.77331">
        <ele>153.6</ele>
        <time>2025-01-10T10:42:46.000Z</time>
      </trkpt>
      <trkpt lat="43.58873" lon="6.77334">
        <ele>153.7</ele>
        <time>2025-01-10T10:42:45.000Z</time>
      </trkpt>
      <trkpt lat="43.58878" lon="6.77338">
        <ele>153.8</ele>
        <time>2025-01-10T10:42:44.000Z</time>
      </trkpt>
      <trkpt lat="43.58883" lon="6.77343">
        <ele>153.9</ele>
        <time>2025-01-10T10:42:43.000Z</time>
      </trkpt>
      <trkpt lat="43.58888" lon="6.77347">
        <ele>154</ele>
        <time>2025-01-10T10:42:42.000Z</time>
      </trkpt>
      <trkpt lat="43.58893" lon="6.77351">
        <ele>154.1</ele>
        <time>2025-01-10T10:42:41.000Z</time>
      </trkpt>
      <trkpt lat="43.58898" lon="6.77355">
        <ele>154.2</ele>
        <time>2025-01-10T10:42:40.000Z</time>
      </trkpt>
      <trkpt lat="43.58903" lon="6.7736">
        <ele>154.2</ele>
        <time>2025-01-10T10:42:39.000Z</time>
      </trkpt>
      <trkpt lat="43.5891" lon="6.77365">
        <ele>154.3</ele>
        <time>2025-01-10T10:42:38.000Z</time>
      </trkpt>
      <trkpt lat="43.58915" lon="6.77368">
        <ele>154.4</ele>
        <time>2025-01-10T10:42:37.000Z</time>
      </trkpt>
      <trkpt lat="43.58922" lon="6.77371">
        <ele>154.5</ele>
        <time>2025-01-10T10:42:36.000Z</time>
      </trkpt>
      <trkpt lat="43.58929" lon="6.77374">
        <ele>154.6</ele>
        <time>2025-01-10T10:42:35.000Z</time>
      </trkpt>
      <trkpt lat="43.58936" lon="6.77374">
        <ele>154.7</ele>
        <time>2025-01-10T10:42:34.000Z</time>
      </trkpt>
      <trkpt lat="43.58944" lon="6.77374">
        <ele>154.9</ele>
        <time>2025-01-10T10:42:33.000Z</time>
      </trkpt>
      <trkpt lat="43.58953" lon="6.77373">
        <ele>155.3</ele>
        <time>2025-01-10T10:42:32.000Z</time>
      </trkpt>
      <trkpt lat="43.58959" lon="6.77373">
        <ele>155.5</ele>
        <time>2025-01-10T10:42:31.000Z</time>
      </trkpt>
      <trkpt lat="43.58966" lon="6.77372">
        <ele>155.8</ele>
        <time>2025-01-10T10:42:30.000Z</time>
      </trkpt>
      <trkpt lat="43.58975" lon="6.77371">
        <ele>156.3</ele>
        <time>2025-01-10T10:42:29.000Z</time>
      </trkpt>
      <trkpt lat="43.58983" lon="6.7737">
        <ele>156.7</ele>
        <time>2025-01-10T10:42:28.000Z</time>
      </trkpt>
      <trkpt lat="43.58989" lon="6.7737">
        <ele>157</ele>
        <time>2025-01-10T10:42:27.000Z</time>
      </trkpt>
      <trkpt lat="43.58995" lon="6.77368">
        <ele>157.4</ele>
        <time>2025-01-10T10:42:26.000Z</time>
      </trkpt>
      <trkpt lat="43.59002" lon="6.77367">
        <ele>157.9</ele>
        <time>2025-01-10T10:42:25.000Z</time>
      </trkpt>
      <trkpt lat="43.59009" lon="6.77365">
        <ele>158.3</ele>
        <time>2025-01-10T10:42:24.000Z</time>
      </trkpt>
      <trkpt lat="43.59015" lon="6.77363">
        <ele>158.7</ele>
        <time>2025-01-10T10:42:23.000Z</time>
      </trkpt>
      <trkpt lat="43.59022" lon="6.7736">
        <ele>159.2</ele>
        <time>2025-01-10T10:42:22.000Z</time>
      </trkpt>
      <trkpt lat="43.59028" lon="6.77357">
        <ele>159.6</ele>
        <time>2025-01-10T10:42:21.000Z</time>
      </trkpt>
      <trkpt lat="43.59034" lon="6.77354">
        <ele>160</ele>
        <time>2025-01-10T10:42:20.000Z</time>
      </trkpt>
      <trkpt lat="43.59041" lon="6.77351">
        <ele>160.5</ele>
        <time>2025-01-10T10:42:19.000Z</time>
      </trkpt>
      <trkpt lat="43.59047" lon="6.77348">
        <ele>161</ele>
        <time>2025-01-10T10:42:18.000Z</time>
      </trkpt>
      <trkpt lat="43.59051" lon="6.77346">
        <ele>161.3</ele>
        <time>2025-01-10T10:42:17.000Z</time>
      </trkpt>
      <trkpt lat="43.59057" lon="6.77343">
        <ele>161.7</ele>
        <time>2025-01-10T10:42:16.000Z</time>
      </trkpt>
      <trkpt lat="43.59061" lon="6.77342">
        <ele>162</ele>
        <time>2025-01-10T10:42:15.000Z</time>
      </trkpt>
      <trkpt lat="43.59064" lon="6.77342">
        <ele>162.2</ele>
        <time>2025-01-10T10:42:14.000Z</time>
      </trkpt>
      <trkpt lat="43.59067" lon="6.77342">
        <ele>162.4</ele>
        <time>2025-01-10T10:42:13.000Z</time>
      </trkpt>
      <trkpt lat="43.5907" lon="6.77343">
        <ele>162.6</ele>
        <time>2025-01-10T10:42:12.000Z</time>
      </trkpt>
      <trkpt lat="43.59071" lon="6.77345">
        <ele>162.6</ele>
        <time>2025-01-10T10:42:11.000Z</time>
      </trkpt>
      <trkpt lat="43.59071" lon="6.77348">
        <ele>162.7</ele>
        <time>2025-01-10T10:42:10.000Z</time>
      </trkpt>
      <trkpt lat="43.59071" lon="6.77351">
        <ele>162.7</ele>
        <time>2025-01-10T10:42:09.000Z</time>
      </trkpt>
      <trkpt lat="43.59069" lon="6.77355">
        <ele>162.7</ele>
        <time>2025-01-10T10:42:08.000Z</time>
      </trkpt>
      <trkpt lat="43.59067" lon="6.77358">
        <ele>162.8</ele>
        <time>2025-01-10T10:42:07.000Z</time>
      </trkpt>
      <trkpt lat="43.59065" lon="6.77363">
        <ele>162.8</ele>
        <time>2025-01-10T10:42:06.000Z</time>
      </trkpt>
      <trkpt lat="43.59062" lon="6.77367">
        <ele>162.8</ele>
        <time>2025-01-10T10:42:05.000Z</time>
      </trkpt>
      <trkpt lat="43.59059" lon="6.77372">
        <ele>162.7</ele>
        <time>2025-01-10T10:42:04.000Z</time>
      </trkpt>
      <trkpt lat="43.59056" lon="6.77377">
        <ele>162.6</ele>
        <time>2025-01-10T10:42:03.000Z</time>
      </trkpt>
      <trkpt lat="43.59053" lon="6.77381">
        <ele>162.5</ele>
        <time>2025-01-10T10:42:02.000Z</time>
      </trkpt>
      <trkpt lat="43.5905" lon="6.77386">
        <ele>162.4</ele>
        <time>2025-01-10T10:42:01.000Z</time>
      </trkpt>
      <trkpt lat="43.59047" lon="6.77391">
        <ele>162.3</ele>
        <time>2025-01-10T10:42:00.000Z</time>
      </trkpt>
      <trkpt lat="43.59044" lon="6.77395">
        <ele>162.1</ele>
        <time>2025-01-10T10:41:59.000Z</time>
      </trkpt>
      <trkpt lat="43.59041" lon="6.77401">
        <ele>162</ele>
        <time>2025-01-10T10:41:58.000Z</time>
      </trkpt>
      <trkpt lat="43.59038" lon="6.77406">
        <ele>161.8</ele>
        <time>2025-01-10T10:41:57.000Z</time>
      </trkpt>
      <trkpt lat="43.59035" lon="6.77411">
        <ele>161.7</ele>
        <time>2025-01-10T10:41:56.000Z</time>
      </trkpt>
      <trkpt lat="43.59033" lon="6.77416">
        <ele>161.5</ele>
        <time>2025-01-10T10:41:55.000Z</time>
      </trkpt>
      <trkpt lat="43.5903" lon="6.77421">
        <ele>161.3</ele>
        <time>2025-01-10T10:41:54.000Z</time>
      </trkpt>
      <trkpt lat="43.59027" lon="6.77427">
        <ele>161.1</ele>
        <time>2025-01-10T10:41:53.000Z</time>
      </trkpt>
      <trkpt lat="43.59025" lon="6.77432">
        <ele>161</ele>
        <time>2025-01-10T10:41:52.000Z</time>
      </trkpt>
      <trkpt lat="43.59022" lon="6.77437">
        <ele>160.8</ele>
        <time>2025-01-10T10:41:51.000Z</time>
      </trkpt>
      <trkpt lat="43.5902" lon="6.77441">
        <ele>160.6</ele>
        <time>2025-01-10T10:41:50.000Z</time>
      </trkpt>
      <trkpt lat="43.59017" lon="6.77446">
        <ele>160.5</ele>
        <time>2025-01-10T10:41:49.000Z</time>
      </trkpt>
      <trkpt lat="43.59014" lon="6.7745">
        <ele>160.3</ele>
        <time>2025-01-10T10:41:48.000Z</time>
      </trkpt>
      <trkpt lat="43.59011" lon="6.77455">
        <ele>160.2</ele>
        <time>2025-01-10T10:41:47.000Z</time>
      </trkpt>
      <trkpt lat="43.59008" lon="6.77459">
        <ele>160</ele>
        <time>2025-01-10T10:41:46.000Z</time>
      </trkpt>
      <trkpt lat="43.59006" lon="6.77464">
        <ele>159.9</ele>
        <time>2025-01-10T10:41:45.000Z</time>
      </trkpt>
      <trkpt lat="43.59003" lon="6.77469">
        <ele>159.8</ele>
        <time>2025-01-10T10:41:44.000Z</time>
      </trkpt>
      <trkpt lat="43.59" lon="6.77473">
        <ele>159.8</ele>
        <time>2025-01-10T10:41:43.000Z</time>
      </trkpt>
      <trkpt lat="43.58997" lon="6.77478">
        <ele>159.7</ele>
        <time>2025-01-10T10:41:42.000Z</time>
      </trkpt>
      <trkpt lat="43.58994" lon="6.77483">
        <ele>159.7</ele>
        <time>2025-01-10T10:41:41.000Z</time>
      </trkpt>
      <trkpt lat="43.58991" lon="6.77488">
        <ele>159.6</ele>
        <time>2025-01-10T10:41:40.000Z</time>
      </trkpt>
      <trkpt lat="43.58988" lon="6.77494">
        <ele>159.6</ele>
        <time>2025-01-10T10:41:39.000Z</time>
      </trkpt>
      <trkpt lat="43.58985" lon="6.775">
        <ele>159.7</ele>
        <time>2025-01-10T10:41:38.000Z</time>
      </trkpt>
      <trkpt lat="43.58982" lon="6.77507">
        <ele>159.7</ele>
        <time>2025-01-10T10:41:37.000Z</time>
      </trkpt>
      <trkpt lat="43.58979" lon="6.77514">
        <ele>159.8</ele>
        <time>2025-01-10T10:41:36.000Z</time>
      </trkpt>
      <trkpt lat="43.58976" lon="6.77521">
        <ele>159.8</ele>
        <time>2025-01-10T10:41:35.000Z</time>
      </trkpt>
      <trkpt lat="43.58974" lon="6.77529">
        <ele>160</ele>
        <time>2025-01-10T10:41:34.000Z</time>
      </trkpt>
      <trkpt lat="43.58971" lon="6.77536">
        <ele>160.1</ele>
        <time>2025-01-10T10:41:33.000Z</time>
      </trkpt>
      <trkpt lat="43.58969" lon="6.77544">
        <ele>160.3</ele>
        <time>2025-01-10T10:41:32.000Z</time>
      </trkpt>
      <trkpt lat="43.58967" lon="6.77553">
        <ele>160.5</ele>
        <time>2025-01-10T10:41:31.000Z</time>
      </trkpt>
      <trkpt lat="43.58965" lon="6.7756">
        <ele>160.7</ele>
        <time>2025-01-10T10:41:30.000Z</time>
      </trkpt>
      <trkpt lat="43.58963" lon="6.77568">
        <ele>161</ele>
        <time>2025-01-10T10:41:29.000Z</time>
      </trkpt>
      <trkpt lat="43.58961" lon="6.77576">
        <ele>161.3</ele>
        <time>2025-01-10T10:41:28.000Z</time>
      </trkpt>
      <trkpt lat="43.58959" lon="6.77584">
        <ele>161.6</ele>
        <time>2025-01-10T10:41:27.000Z</time>
      </trkpt>
      <trkpt lat="43.58958" lon="6.7759">
        <ele>161.8</ele>
        <time>2025-01-10T10:41:26.000Z</time>
      </trkpt>
      <trkpt lat="43.58956" lon="6.77597">
        <ele>162</ele>
        <time>2025-01-10T10:41:25.000Z</time>
      </trkpt>
      <trkpt lat="43.58954" lon="6.77604">
        <ele>162.2</ele>
        <time>2025-01-10T10:41:24.000Z</time>
      </trkpt>
      <trkpt lat="43.58952" lon="6.77611">
        <ele>162.3</ele>
        <time>2025-01-10T10:41:23.000Z</time>
      </trkpt>
      <trkpt lat="43.5895" lon="6.77618">
        <ele>162.4</ele>
        <time>2025-01-10T10:41:22.000Z</time>
      </trkpt>
      <trkpt lat="43.58948" lon="6.77625">
        <ele>162.6</ele>
        <time>2025-01-10T10:41:21.000Z</time>
      </trkpt>
      <trkpt lat="43.58947" lon="6.77632">
        <ele>162.7</ele>
        <time>2025-01-10T10:41:20.000Z</time>
      </trkpt>
      <trkpt lat="43.58945" lon="6.7764">
        <ele>162.8</ele>
        <time>2025-01-10T10:41:19.000Z</time>
      </trkpt>
      <trkpt lat="43.58943" lon="6.77647">
        <ele>162.9</ele>
        <time>2025-01-10T10:41:18.000Z</time>
      </trkpt>
      <trkpt lat="43.58941" lon="6.77654">
        <ele>163.1</ele>
        <time>2025-01-10T10:41:17.000Z</time>
      </trkpt>
      <trkpt lat="43.58939" lon="6.7766">
        <ele>163.2</ele>
        <time>2025-01-10T10:41:16.000Z</time>
      </trkpt>
      <trkpt lat="43.58937" lon="6.77667">
        <ele>163.3</ele>
        <time>2025-01-10T10:41:15.000Z</time>
      </trkpt>
      <trkpt lat="43.58935" lon="6.77672">
        <ele>163.4</ele>
        <time>2025-01-10T10:41:14.000Z</time>
      </trkpt>
      <trkpt lat="43.58934" lon="6.77678">
        <ele>163.4</ele>
        <time>2025-01-10T10:41:13.000Z</time>
      </trkpt>
      <trkpt lat="43.58932" lon="6.77684">
        <ele>163.4</ele>
        <time>2025-01-10T10:41:12.000Z</time>
      </trkpt>
      <trkpt lat="43.5893" lon="6.7769">
        <ele>163.4</ele>
        <time>2025-01-10T10:41:11.000Z</time>
      </trkpt>
      <trkpt lat="43.58928" lon="6.77696">
        <ele>163.3</ele>
        <time>2025-01-10T10:41:10.000Z</time>
      </trkpt>
      <trkpt lat="43.58926" lon="6.77702">
        <ele>163.2</ele>
        <time>2025-01-10T10:41:09.000Z</time>
      </trkpt>
      <trkpt lat="43.58924" lon="6.77708">
        <ele>163.1</ele>
        <time>2025-01-10T10:41:08.000Z</time>
      </trkpt>
      <trkpt lat="43.58922" lon="6.77714">
        <ele>163</ele>
        <time>2025-01-10T10:41:07.000Z</time>
      </trkpt>
      <trkpt lat="43.5892" lon="6.77719">
        <ele>162.9</ele>
        <time>2025-01-10T10:41:06.000Z</time>
      </trkpt>
      <trkpt lat="43.58918" lon="6.77725">
        <ele>162.8</ele>
        <time>2025-01-10T10:41:05.000Z</time>
      </trkpt>
      <trkpt lat="43.58916" lon="6.7773">
        <ele>162.6</ele>
        <time>2025-01-10T10:41:04.000Z</time>
      </trkpt>
      <trkpt lat="43.58914" lon="6.77735">
        <ele>162.5</ele>
        <time>2025-01-10T10:41:03.000Z</time>
      </trkpt>
      <trkpt lat="43.58912" lon="6.7774">
        <ele>162.3</ele>
        <time>2025-01-10T10:41:02.000Z</time>
      </trkpt>
      <trkpt lat="43.5891" lon="6.77745">
        <ele>162.2</ele>
        <time>2025-01-10T10:41:01.000Z</time>
      </trkpt>
      <trkpt lat="43.58909" lon="6.7775">
        <ele>162</ele>
        <time>2025-01-10T10:41:00.000Z</time>
      </trkpt>
      <trkpt lat="43.58908" lon="6.77756">
        <ele>161.8</ele>
        <time>2025-01-10T10:40:59.000Z</time>
      </trkpt>
      <trkpt lat="43.58908" lon="6.77761">
        <ele>161.6</ele>
        <time>2025-01-10T10:40:58.000Z</time>
      </trkpt>
      <trkpt lat="43.58909" lon="6.77766">
        <ele>161.3</ele>
        <time>2025-01-10T10:40:57.000Z</time>
      </trkpt>
      <trkpt lat="43.5891" lon="6.7777">
        <ele>161.1</ele>
        <time>2025-01-10T10:40:56.000Z</time>
      </trkpt>
      <trkpt lat="43.58913" lon="6.77775">
        <ele>160.8</ele>
        <time>2025-01-10T10:40:55.000Z</time>
      </trkpt>
      <trkpt lat="43.58915" lon="6.77779">
        <ele>160.5</ele>
        <time>2025-01-10T10:40:54.000Z</time>
      </trkpt>
      <trkpt lat="43.58917" lon="6.77783">
        <ele>160.2</ele>
        <time>2025-01-10T10:40:53.000Z</time>
      </trkpt>
      <trkpt lat="43.58919" lon="6.77787">
        <ele>159.8</ele>
        <time>2025-01-10T10:40:52.000Z</time>
      </trkpt>
      <trkpt lat="43.58922" lon="6.7779">
        <ele>159.5</ele>
        <time>2025-01-10T10:40:51.000Z</time>
      </trkpt>
      <trkpt lat="43.58924" lon="6.77794">
        <ele>159.2</ele>
        <time>2025-01-10T10:40:50.000Z</time>
      </trkpt>
      <trkpt lat="43.58925" lon="6.77798">
        <ele>158.9</ele>
        <time>2025-01-10T10:40:49.000Z</time>
      </trkpt>
      <trkpt lat="43.58927" lon="6.77803">
        <ele>158.6</ele>
        <time>2025-01-10T10:40:48.000Z</time>
      </trkpt>
      <trkpt lat="43.58928" lon="6.77809">
        <ele>158.3</ele>
        <time>2025-01-10T10:40:47.000Z</time>
      </trkpt>
      <trkpt lat="43.58927" lon="6.77816">
        <ele>158</ele>
        <time>2025-01-10T10:40:46.000Z</time>
      </trkpt>
      <trkpt lat="43.58924" lon="6.77823">
        <ele>157.8</ele>
        <time>2025-01-10T10:40:45.000Z</time>
      </trkpt>
      <trkpt lat="43.58921" lon="6.7783">
        <ele>157.7</ele>
        <time>2025-01-10T10:40:44.000Z</time>
      </trkpt>
      <trkpt lat="43.58915" lon="6.77835">
        <ele>157.6</ele>
        <time>2025-01-10T10:40:43.000Z</time>
      </trkpt>
      <trkpt lat="43.58909" lon="6.7784">
        <ele>157.7</ele>
        <time>2025-01-10T10:40:42.000Z</time>
      </trkpt>
      <trkpt lat="43.58902" lon="6.77843">
        <ele>157.9</ele>
        <time>2025-01-10T10:40:41.000Z</time>
      </trkpt>
      <trkpt lat="43.58896" lon="6.77846">
        <ele>158.2</ele>
        <time>2025-01-10T10:40:40.000Z</time>
      </trkpt>
      <trkpt lat="43.5889" lon="6.77849">
        <ele>158.6</ele>
        <time>2025-01-10T10:40:39.000Z</time>
      </trkpt>
      <trkpt lat="43.58884" lon="6.77851">
        <ele>159</ele>
        <time>2025-01-10T10:40:38.000Z</time>
      </trkpt>
      <trkpt lat="43.58879" lon="6.77854">
        <ele>159.5</ele>
        <time>2025-01-10T10:40:37.000Z</time>
      </trkpt>
      <trkpt lat="43.58874" lon="6.77857">
        <ele>159.8</ele>
        <time>2025-01-10T10:40:36.000Z</time>
      </trkpt>
      <trkpt lat="43.5887" lon="6.77861">
        <ele>160.1</ele>
        <time>2025-01-10T10:40:35.000Z</time>
      </trkpt>
      <trkpt lat="43.58866" lon="6.77865">
        <ele>160.4</ele>
        <time>2025-01-10T10:40:34.000Z</time>
      </trkpt>
      <trkpt lat="43.58862" lon="6.77869">
        <ele>160.7</ele>
        <time>2025-01-10T10:40:33.000Z</time>
      </trkpt>
      <trkpt lat="43.58858" lon="6.77873">
        <ele>161</ele>
        <time>2025-01-10T10:40:32.000Z</time>
      </trkpt>
      <trkpt lat="43.58855" lon="6.77877">
        <ele>161.2</ele>
        <time>2025-01-10T10:40:31.000Z</time>
      </trkpt>
      <trkpt lat="43.58852" lon="6.77881">
        <ele>161.5</ele>
        <time>2025-01-10T10:40:30.000Z</time>
      </trkpt>
      <trkpt lat="43.58849" lon="6.77883">
        <ele>161.7</ele>
        <time>2025-01-10T10:40:29.000Z</time>
      </trkpt>
      <trkpt lat="43.58847" lon="6.77886">
        <ele>161.8</ele>
        <time>2025-01-10T10:40:28.000Z</time>
      </trkpt>
      <trkpt lat="43.58845" lon="6.77889">
        <ele>162</ele>
        <time>2025-01-10T10:40:27.000Z</time>
      </trkpt>
      <trkpt lat="43.58843" lon="6.77891">
        <ele>162.2</ele>
        <time>2025-01-10T10:40:26.000Z</time>
      </trkpt>
      <trkpt lat="43.58841" lon="6.77894">
        <ele>162.3</ele>
        <time>2025-01-10T10:40:25.000Z</time>
      </trkpt>
      <trkpt lat="43.5884" lon="6.77896">
        <ele>162.5</ele>
        <time>2025-01-10T10:40:24.000Z</time>
      </trkpt>
      <trkpt lat="43.58839" lon="6.77898">
        <ele>162.6</ele>
        <time>2025-01-10T10:40:23.000Z</time>
      </trkpt>
      <trkpt lat="43.58838" lon="6.779">
        <ele>162.7</ele>
        <time>2025-01-10T10:40:22.000Z</time>
      </trkpt>
      <trkpt lat="43.58837" lon="6.779">
        <ele>162.8</ele>
        <time>2025-01-10T10:40:21.000Z</time>
      </trkpt>
      <trkpt lat="43.58836" lon="6.77901">
        <ele>162.8</ele>
        <time>2025-01-10T10:40:20.000Z</time>
      </trkpt>
      <trkpt lat="43.58836" lon="6.77901">
        <ele>162.9</ele>
        <time>2025-01-10T10:40:19.000Z</time>
      </trkpt>
      <trkpt lat="43.58836" lon="6.77902">
        <ele>163</ele>
        <time>2025-01-10T10:40:18.000Z</time>
      </trkpt>
      <trkpt lat="43.58837" lon="6.77902">
        <ele>163.1</ele>
        <time>2025-01-10T10:40:17.000Z</time>
      </trkpt>
      <trkpt lat="43.58837" lon="6.77902">
        <ele>163.2</ele>
        <time>2025-01-10T10:40:16.000Z</time>
      </trkpt>
      <trkpt lat="43.58838" lon="6.77902">
        <ele>163.3</ele>
        <time>2025-01-10T10:40:15.000Z</time>
      </trkpt>
      <trkpt lat="43.58838" lon="6.77902">
        <ele>163.4</ele>
        <time>2025-01-10T10:40:14.000Z</time>
      </trkpt>
      <trkpt lat="43.58838" lon="6.77902">
        <ele>163.5</ele>
        <time>2025-01-10T10:40:13.000Z</time>
      </trkpt>
      <trkpt lat="43.58838" lon="6.77902">
        <ele>163.7</ele>
        <time>2025-01-10T10:40:12.000Z</time>
      </trkpt>
      <trkpt lat="43.58837" lon="6.77902">
        <ele>163.8</ele>
        <time>2025-01-10T10:40:11.000Z</time>
      </trkpt>
      <trkpt lat="43.58837" lon="6.77902">
        <ele>163.9</ele>
        <time>2025-01-10T10:40:10.000Z</time>
      </trkpt>
      <trkpt lat="43.58837" lon="6.77903">
        <ele>164</ele>
        <time>2025-01-10T10:40:09.000Z</time>
      </trkpt>
      <trkpt lat="43.58838" lon="6.77903">
        <ele>164.1</ele>
        <time>2025-01-10T10:40:08.000Z</time>
      </trkpt>
      <trkpt lat="43.58838" lon="6.77903">
        <ele>164.2</ele>
        <time>2025-01-10T10:40:07.000Z</time>
      </trkpt>
      <trkpt lat="43.58838" lon="6.77903">
        <ele>164.7</ele>
        <time>2025-01-10T10:40:06.000Z</time>
      </trkpt>
      <trkpt lat="43.58839" lon="6.77903">
        <ele>164.8</ele>
        <time>2025-01-10T10:40:05.000Z</time>
      </trkpt>
      <trkpt lat="43.5884" lon="6.77903">
        <ele>164.9</ele>
        <time>2025-01-10T10:40:04.000Z</time>
      </trkpt>
      <trkpt lat="43.58841" lon="6.77903">
        <ele>165.1</ele>
        <time>2025-01-10T10:40:03.000Z</time>
      </trkpt>
      <trkpt lat="43.58843" lon="6.77903">
        <ele>165.5</ele>
        <time>2025-01-10T10:40:02.000Z</time>
      </trkpt>
      <trkpt lat="43.58846" lon="6.77902">
        <ele>166</ele>
        <time>2025-01-10T10:40:01.000Z</time>
      </trkpt>
      <trkpt lat="43.58848" lon="6.77902">
        <ele>166.4</ele>
        <time>2025-01-10T10:40:00.000Z</time>
      </trkpt>
      <trkpt lat="43.5885" lon="6.77901">
        <ele>166.5</ele>
        <time>2025-01-10T10:39:59.000Z</time>
      </trkpt>
      <trkpt lat="43.58852" lon="6.779">
        <ele>167</ele>
        <time>2025-01-10T10:39:58.000Z</time>
      </trkpt>
      <trkpt lat="43.58853" lon="6.77899">
        <ele>166.6</ele>
        <time>2025-01-10T10:39:57.000Z</time>
      </trkpt>
      <trkpt lat="43.58855" lon="6.77897">
        <ele>167.1</ele>
        <time>2025-01-10T10:39:56.000Z</time>
      </trkpt>
      <trkpt lat="43.58857" lon="6.77896">
        <ele>167.7</ele>
        <time>2025-01-10T10:39:55.000Z</time>
      </trkpt>
      <trkpt lat="43.58858" lon="6.77894">
        <ele>167.3</ele>
        <time>2025-01-10T10:39:54.000Z</time>
      </trkpt>
      <trkpt lat="43.58859" lon="6.77892">
        <ele>167.4</ele>
        <time>2025-01-10T10:39:53.000Z</time>
      </trkpt>
      <trkpt lat="43.58861" lon="6.77891">
        <ele>167.9</ele>
        <time>2025-01-10T10:39:52.000Z</time>
      </trkpt>
      <trkpt lat="43.58862" lon="6.77892">
        <ele>168</ele>
        <time>2025-01-10T10:39:51.000Z</time>
      </trkpt>
      <trkpt lat="43.58864" lon="6.77894">
        <ele>168.5</ele>
        <time>2025-01-10T10:39:50.000Z</time>
      </trkpt>
      <trkpt lat="43.58863" lon="6.77897">
        <ele>169.1</ele>
        <time>2025-01-10T10:39:49.000Z</time>
      </trkpt>
      <trkpt lat="43.58861" lon="6.77903">
        <ele>169.3</ele>
        <time>2025-01-10T10:39:48.000Z</time>
      </trkpt>
      <trkpt lat="43.58859" lon="6.77907">
        <ele>169.5</ele>
        <time>2025-01-10T10:39:47.000Z</time>
      </trkpt>
      <trkpt lat="43.58858" lon="6.7791">
        <ele>170.1</ele>
        <time>2025-01-10T10:39:46.000Z</time>
      </trkpt>
      <trkpt lat="43.58858" lon="6.77913">
        <ele>170.6</ele>
        <time>2025-01-10T10:39:45.000Z</time>
      </trkpt>
      <trkpt lat="43.58857" lon="6.77915">
        <ele>170.7</ele>
        <time>2025-01-10T10:39:44.000Z</time>
      </trkpt>
      <trkpt lat="43.58856" lon="6.77917">
        <ele>170.5</ele>
        <time>2025-01-10T10:39:43.000Z</time>
      </trkpt>
      <trkpt lat="43.58856" lon="6.77917">
        <ele>171</ele>
        <time>2025-01-10T10:39:42.000Z</time>
      </trkpt>
      <trkpt lat="43.58856" lon="6.77917">
        <ele>171.1</ele>
        <time>2025-01-10T10:39:41.000Z</time>
      </trkpt>
      <trkpt lat="43.58856" lon="6.77918">
        <ele>171.2</ele>
        <time>2025-01-10T10:39:40.000Z</time>
      </trkpt>
      <trkpt lat="43.58856" lon="6.77918">
        <ele>171.3</ele>
        <time>2025-01-10T10:39:39.000Z</time>
      </trkpt>
      <trkpt lat="43.58857" lon="6.77919">
        <ele>171.9</ele>
        <time>2025-01-10T10:39:38.000Z</time>
      </trkpt>
      <trkpt lat="43.58859" lon="6.7792">
        <ele>172</ele>
        <time>2025-01-10T10:39:37.000Z</time>
      </trkpt>
      <trkpt lat="43.58861" lon="6.7792">
        <ele>172.5</ele>
        <time>2025-01-10T10:39:36.000Z</time>
      </trkpt>
      <trkpt lat="43.58862" lon="6.77921">
        <ele>173</ele>
        <time>2025-01-10T10:39:35.000Z</time>
      </trkpt>
      <trkpt lat="43.58864" lon="6.77922">
        <ele>173.5</ele>
        <time>2025-01-10T10:39:34.000Z</time>
      </trkpt>
      <trkpt lat="43.58866" lon="6.77923">
        <ele>173.6</ele>
        <time>2025-01-10T10:39:33.000Z</time>
      </trkpt>
      <trkpt lat="43.58868" lon="6.77924">
        <ele>174</ele>
        <time>2025-01-10T10:39:32.000Z</time>
      </trkpt>
      <trkpt lat="43.58871" lon="6.77926">
        <ele>174.8</ele>
        <time>2025-01-10T10:39:31.000Z</time>
      </trkpt>
      <trkpt lat="43.58873" lon="6.77927">
        <ele>175.2</ele>
        <time>2025-01-10T10:39:30.000Z</time>
      </trkpt>
      <trkpt lat="43.58875" lon="6.77928">
        <ele>175.3</ele>
        <time>2025-01-10T10:39:29.000Z</time>
      </trkpt>
      <trkpt lat="43.58879" lon="6.77931">
        <ele>176.4</ele>
        <time>2025-01-10T10:39:28.000Z</time>
      </trkpt>
      <trkpt lat="43.58882" lon="6.77932">
        <ele>176.7</ele>
        <time>2025-01-10T10:39:27.000Z</time>
      </trkpt>
      <trkpt lat="43.58885" lon="6.77934">
        <ele>177.5</ele>
        <time>2025-01-10T10:39:26.000Z</time>
      </trkpt>
      <trkpt lat="43.58889" lon="6.77936">
        <ele>177.9</ele>
        <time>2025-01-10T10:39:25.000Z</time>
      </trkpt>
      <trkpt lat="43.58892" lon="6.77938">
        <ele>178.3</ele>
        <time>2025-01-10T10:39:24.000Z</time>
      </trkpt>
      <trkpt lat="43.58896" lon="6.7794">
        <ele>179.1</ele>
        <time>2025-01-10T10:39:23.000Z</time>
      </trkpt>
      <trkpt lat="43.58898" lon="6.77941">
        <ele>179.4</ele>
        <time>2025-01-10T10:39:22.000Z</time>
      </trkpt>
      <trkpt lat="43.58902" lon="6.77943">
        <ele>180.2</ele>
        <time>2025-01-10T10:39:21.000Z</time>
      </trkpt>
      <trkpt lat="43.58905" lon="6.77944">
        <ele>180.5</ele>
        <time>2025-01-10T10:39:20.000Z</time>
      </trkpt>
      <trkpt lat="43.58908" lon="6.77945">
        <ele>180.9</ele>
        <time>2025-01-10T10:39:19.000Z</time>
      </trkpt>
      <trkpt lat="43.58912" lon="6.77946">
        <ele>181.2</ele>
        <time>2025-01-10T10:39:18.000Z</time>
      </trkpt>
      <trkpt lat="43.58916" lon="6.77947">
        <ele>182</ele>
        <time>2025-01-10T10:39:17.000Z</time>
      </trkpt>
      <trkpt lat="43.58919" lon="6.77948">
        <ele>182.6</ele>
        <time>2025-01-10T10:39:16.000Z</time>
      </trkpt>
      <trkpt lat="43.58923" lon="6.77949">
        <ele>182.9</ele>
        <time>2025-01-10T10:39:15.000Z</time>
      </trkpt>
      <trkpt lat="43.58926" lon="6.7795">
        <ele>183.3</ele>
        <time>2025-01-10T10:39:14.000Z</time>
      </trkpt>
      <trkpt lat="43.58929" lon="6.77952">
        <ele>184</ele>
        <time>2025-01-10T10:39:13.000Z</time>
      </trkpt>
      <trkpt lat="43.58931" lon="6.77953">
        <ele>184.2</ele>
        <time>2025-01-10T10:39:12.000Z</time>
      </trkpt>
      <trkpt lat="43.58934" lon="6.77955">
        <ele>184.5</ele>
        <time>2025-01-10T10:39:11.000Z</time>
      </trkpt>
      <trkpt lat="43.58936" lon="6.77956">
        <ele>185.3</ele>
        <time>2025-01-10T10:39:10.000Z</time>
      </trkpt>
      <trkpt lat="43.58939" lon="6.77958">
        <ele>185.6</ele>
        <time>2025-01-10T10:39:09.000Z</time>
      </trkpt>
      <trkpt lat="43.58941" lon="6.7796">
        <ele>186.4</ele>
        <time>2025-01-10T10:39:08.000Z</time>
      </trkpt>
      <trkpt lat="43.58942" lon="6.77962">
        <ele>186.5</ele>
        <time>2025-01-10T10:39:07.000Z</time>
      </trkpt>
      <trkpt lat="43.58943" lon="6.77964">
        <ele>187</ele>
        <time>2025-01-10T10:39:06.000Z</time>
      </trkpt>
      <trkpt lat="43.58944" lon="6.77966">
        <ele>187.2</ele>
        <time>2025-01-10T10:39:05.000Z</time>
      </trkpt>
      <trkpt lat="43.58945" lon="6.77969">
        <ele>187.9</ele>
        <time>2025-01-10T10:39:04.000Z</time>
      </trkpt>
      <trkpt lat="43.58947" lon="6.77972">
        <ele>188.1</ele>
        <time>2025-01-10T10:39:03.000Z</time>
      </trkpt>
      <trkpt lat="43.5895" lon="6.77975">
        <ele>188.3</ele>
        <time>2025-01-10T10:39:02.000Z</time>
      </trkpt>
      <trkpt lat="43.58953" lon="6.77977">
        <ele>188.6</ele>
        <time>2025-01-10T10:39:01.000Z</time>
      </trkpt>
      <trkpt lat="43.58956" lon="6.77979">
        <ele>188.8</ele>
        <time>2025-01-10T10:39:00.000Z</time>
      </trkpt>
      <trkpt lat="43.58959" lon="6.77982">
        <ele>189.1</ele>
        <time>2025-01-10T10:38:59.000Z</time>
      </trkpt>
      <trkpt lat="43.58961" lon="6.77984">
        <ele>189.3</ele>
        <time>2025-01-10T10:38:58.000Z</time>
      </trkpt>
      <trkpt lat="43.58962" lon="6.77985">
        <ele>189.5</ele>
        <time>2025-01-10T10:38:57.000Z</time>
      </trkpt>
      <trkpt lat="43.58963" lon="6.77986">
        <ele>189.5</ele>
        <time>2025-01-10T10:38:56.000Z</time>
      </trkpt>
      <trkpt lat="43.58963" lon="6.77987">
        <ele>189.6</ele>
        <time>2025-01-10T10:38:55.000Z</time>
      </trkpt>
      <trkpt lat="43.58963" lon="6.77987">
        <ele>189.6</ele>
        <time>2025-01-10T10:38:54.000Z</time>
      </trkpt>
      <trkpt lat="43.58963" lon="6.77987">
        <ele>189.6</ele>
        <time>2025-01-10T10:38:53.000Z</time>
      </trkpt>
      <trkpt lat="43.58963" lon="6.77987">
        <ele>189.6</ele>
        <time>2025-01-10T10:38:52.000Z</time>
      </trkpt>
      <trkpt lat="43.58963" lon="6.77987">
        <ele>189.6</ele>
        <time>2025-01-10T10:38:51.000Z</time>
      </trkpt>
      <trkpt lat="43.58963" lon="6.77987">
        <ele>189.6</ele>
        <time>2025-01-10T10:38:50.000Z</time>
      </trkpt>
      <trkpt lat="43.58963" lon="6.77987">
        <ele>189.6</ele>
        <time>2025-01-10T10:38:49.000Z</time>
      </trkpt>
      <trkpt lat="43.58964" lon="6.77987">
        <ele>189.7</ele>
        <time>2025-01-10T10:38:48.000Z</time>
      </trkpt>
      <trkpt lat="43.58963" lon="6.77987">
        <ele>189.7</ele>
        <time>2025-01-10T10:38:47.000Z</time>
      </trkpt>
      <trkpt lat="43.58964" lon="6.77986">
        <ele>189.7</ele>
        <time>2025-01-10T10:38:46.000Z</time>
      </trkpt>
      <trkpt lat="43.58964" lon="6.77986">
        <ele>189.7</ele>
        <time>2025-01-10T10:38:45.000Z</time>
      </trkpt>
      <trkpt lat="43.58964" lon="6.77986">
        <ele>189.8</ele>
        <time>2025-01-10T10:38:44.000Z</time>
      </trkpt>
      <trkpt lat="43.58964" lon="6.77987">
        <ele>189.8</ele>
        <time>2025-01-10T10:38:43.000Z</time>
      </trkpt>
      <trkpt lat="43.58965" lon="6.77987">
        <ele>189.8</ele>
        <time>2025-01-10T10:38:42.000Z</time>
      </trkpt>
      <trkpt lat="43.58966" lon="6.77987">
        <ele>190</ele>
        <time>2025-01-10T10:38:41.000Z</time>
      </trkpt>
      <trkpt lat="43.58968" lon="6.77989">
        <ele>190.1</ele>
        <time>2025-01-10T10:38:40.000Z</time>
      </trkpt>
      <trkpt lat="43.5897" lon="6.77992">
        <ele>190.5</ele>
        <time>2025-01-10T10:38:39.000Z</time>
      </trkpt>
      <trkpt lat="43.58971" lon="6.77997">
        <ele>190.9</ele>
        <time>2025-01-10T10:38:38.000Z</time>
      </trkpt>
      <trkpt lat="43.58972" lon="6.78001">
        <ele>191.3</ele>
        <time>2025-01-10T10:38:37.000Z</time>
      </trkpt>
      <trkpt lat="43.58972" lon="6.78006">
        <ele>191.6</ele>
        <time>2025-01-10T10:38:36.000Z</time>
      </trkpt>
      <trkpt lat="43.58972" lon="6.78011">
        <ele>192.1</ele>
        <time>2025-01-10T10:38:35.000Z</time>
      </trkpt>
      <trkpt lat="43.58972" lon="6.78015">
        <ele>192.5</ele>
        <time>2025-01-10T10:38:34.000Z</time>
      </trkpt>
      <trkpt lat="43.58973" lon="6.78019">
        <ele>192.9</ele>
        <time>2025-01-10T10:38:33.000Z</time>
      </trkpt>
      <trkpt lat="43.58974" lon="6.78023">
        <ele>193.3</ele>
        <time>2025-01-10T10:38:32.000Z</time>
      </trkpt>
      <trkpt lat="43.58975" lon="6.78027">
        <ele>193.7</ele>
        <time>2025-01-10T10:38:31.000Z</time>
      </trkpt>
      <trkpt lat="43.58977" lon="6.7803">
        <ele>194.1</ele>
        <time>2025-01-10T10:38:30.000Z</time>
      </trkpt>
      <trkpt lat="43.58978" lon="6.78033">
        <ele>194.5</ele>
        <time>2025-01-10T10:38:29.000Z</time>
      </trkpt>
      <trkpt lat="43.5898" lon="6.78035">
        <ele>194.9</ele>
        <time>2025-01-10T10:38:28.000Z</time>
      </trkpt>
      <trkpt lat="43.58982" lon="6.78037">
        <ele>195.1</ele>
        <time>2025-01-10T10:38:27.000Z</time>
      </trkpt>
      <trkpt lat="43.58984" lon="6.78037">
        <ele>195.4</ele>
        <time>2025-01-10T10:38:26.000Z</time>
      </trkpt>
      <trkpt lat="43.58986" lon="6.78038">
        <ele>195.8</ele>
        <time>2025-01-10T10:38:25.000Z</time>
      </trkpt>
      <trkpt lat="43.58988" lon="6.78039">
        <ele>196.2</ele>
        <time>2025-01-10T10:38:24.000Z</time>
      </trkpt>
      <trkpt lat="43.58991" lon="6.78041">
        <ele>196.5</ele>
        <time>2025-01-10T10:38:23.000Z</time>
      </trkpt>
      <trkpt lat="43.58993" lon="6.78044">
        <ele>197</ele>
        <time>2025-01-10T10:38:22.000Z</time>
      </trkpt>
      <trkpt lat="43.58995" lon="6.78048">
        <ele>197.5</ele>
        <time>2025-01-10T10:38:21.000Z</time>
      </trkpt>
      <trkpt lat="43.58997" lon="6.78053">
        <ele>197.9</ele>
        <time>2025-01-10T10:38:20.000Z</time>
      </trkpt>
      <trkpt lat="43.58999" lon="6.78057">
        <ele>198.4</ele>
        <time>2025-01-10T10:38:19.000Z</time>
      </trkpt>
      <trkpt lat="43.59001" lon="6.7806">
        <ele>198.8</ele>
        <time>2025-01-10T10:38:18.000Z</time>
      </trkpt>
      <trkpt lat="43.59003" lon="6.78063">
        <ele>199.3</ele>
        <time>2025-01-10T10:38:17.000Z</time>
      </trkpt>
      <trkpt lat="43.59006" lon="6.78066">
        <ele>199.6</ele>
        <time>2025-01-10T10:38:16.000Z</time>
      </trkpt>
      <trkpt lat="43.59008" lon="6.78069">
        <ele>200</ele>
        <time>2025-01-10T10:38:15.000Z</time>
      </trkpt>
      <trkpt lat="43.5901" lon="6.78072">
        <ele>200.4</ele>
        <time>2025-01-10T10:38:14.000Z</time>
      </trkpt>
      <trkpt lat="43.59013" lon="6.78076">
        <ele>200.9</ele>
        <time>2025-01-10T10:38:13.000Z</time>
      </trkpt>
      <trkpt lat="43.59014" lon="6.78081">
        <ele>201.3</ele>
        <time>2025-01-10T10:38:12.000Z</time>
      </trkpt>
      <trkpt lat="43.59015" lon="6.78086">
        <ele>201.8</ele>
        <time>2025-01-10T10:38:11.000Z</time>
      </trkpt>
      <trkpt lat="43.59016" lon="6.78091">
        <ele>202.2</ele>
        <time>2025-01-10T10:38:10.000Z</time>
      </trkpt>
      <trkpt lat="43.59017" lon="6.78096">
        <ele>202.7</ele>
        <time>2025-01-10T10:38:09.000Z</time>
      </trkpt>
      <trkpt lat="43.59018" lon="6.781">
        <ele>203.1</ele>
        <time>2025-01-10T10:38:08.000Z</time>
      </trkpt>
      <trkpt lat="43.5902" lon="6.78103">
        <ele>203.5</ele>
        <time>2025-01-10T10:38:07.000Z</time>
      </trkpt>
      <trkpt lat="43.59022" lon="6.78106">
        <ele>203.9</ele>
        <time>2025-01-10T10:38:06.000Z</time>
      </trkpt>
      <trkpt lat="43.59024" lon="6.78108">
        <ele>204.3</ele>
        <time>2025-01-10T10:38:05.000Z</time>
      </trkpt>
      <trkpt lat="43.59026" lon="6.78109">
        <ele>204.7</ele>
        <time>2025-01-10T10:38:04.000Z</time>
      </trkpt>
      <trkpt lat="43.59029" lon="6.78111">
        <ele>205.1</ele>
        <time>2025-01-10T10:38:03.000Z</time>
      </trkpt>
      <trkpt lat="43.59031" lon="6.78112">
        <ele>205.6</ele>
        <time>2025-01-10T10:38:02.000Z</time>
      </trkpt>
      <trkpt lat="43.59033" lon="6.78114">
        <ele>206</ele>
        <time>2025-01-10T10:38:01.000Z</time>
      </trkpt>
      <trkpt lat="43.59035" lon="6.78117">
        <ele>206.4</ele>
        <time>2025-01-10T10:38:00.000Z</time>
      </trkpt>
      <trkpt lat="43.59036" lon="6.7812">
        <ele>206.9</ele>
        <time>2025-01-10T10:37:59.000Z</time>
      </trkpt>
      <trkpt lat="43.59037" lon="6.78125">
        <ele>207.4</ele>
        <time>2025-01-10T10:37:58.000Z</time>
      </trkpt>
      <trkpt lat="43.59038" lon="6.78129">
        <ele>208</ele>
        <time>2025-01-10T10:37:57.000Z</time>
      </trkpt>
      <trkpt lat="43.59039" lon="6.78134">
        <ele>208.5</ele>
        <time>2025-01-10T10:37:56.000Z</time>
      </trkpt>
      <trkpt lat="43.5904" lon="6.78138">
        <ele>209</ele>
        <time>2025-01-10T10:37:55.000Z</time>
      </trkpt>
      <trkpt lat="43.59042" lon="6.78142">
        <ele>209.6</ele>
        <time>2025-01-10T10:37:54.000Z</time>
      </trkpt>
      <trkpt lat="43.59043" lon="6.78147">
        <ele>210.1</ele>
        <time>2025-01-10T10:37:53.000Z</time>
      </trkpt>
      <trkpt lat="43.59045" lon="6.78152">
        <ele>210.7</ele>
        <time>2025-01-10T10:37:52.000Z</time>
      </trkpt>
      <trkpt lat="43.59047" lon="6.78158">
        <ele>211.2</ele>
        <time>2025-01-10T10:37:51.000Z</time>
      </trkpt>
      <trkpt lat="43.59049" lon="6.78163">
        <ele>211.8</ele>
        <time>2025-01-10T10:37:50.000Z</time>
      </trkpt>
      <trkpt lat="43.59051" lon="6.78167">
        <ele>212.2</ele>
        <time>2025-01-10T10:37:49.000Z</time>
      </trkpt>
      <trkpt lat="43.59052" lon="6.78172">
        <ele>212.7</ele>
        <time>2025-01-10T10:37:48.000Z</time>
      </trkpt>
      <trkpt lat="43.59054" lon="6.78177">
        <ele>213.2</ele>
        <time>2025-01-10T10:37:47.000Z</time>
      </trkpt>
      <trkpt lat="43.59056" lon="6.78182">
        <ele>213.7</ele>
        <time>2025-01-10T10:37:46.000Z</time>
      </trkpt>
      <trkpt lat="43.59057" lon="6.78187">
        <ele>214.2</ele>
        <time>2025-01-10T10:37:45.000Z</time>
      </trkpt>
      <trkpt lat="43.59059" lon="6.78193">
        <ele>214.7</ele>
        <time>2025-01-10T10:37:44.000Z</time>
      </trkpt>
      <trkpt lat="43.5906" lon="6.78199">
        <ele>215.3</ele>
        <time>2025-01-10T10:37:43.000Z</time>
      </trkpt>
      <trkpt lat="43.59062" lon="6.78205">
        <ele>215.9</ele>
        <time>2025-01-10T10:37:42.000Z</time>
      </trkpt>
      <trkpt lat="43.59063" lon="6.78212">
        <ele>216.5</ele>
        <time>2025-01-10T10:37:41.000Z</time>
      </trkpt>
      <trkpt lat="43.59064" lon="6.78218">
        <ele>217.1</ele>
        <time>2025-01-10T10:37:40.000Z</time>
      </trkpt>
      <trkpt lat="43.59065" lon="6.78224">
        <ele>217.6</ele>
        <time>2025-01-10T10:37:39.000Z</time>
      </trkpt>
      <trkpt lat="43.59067" lon="6.7823">
        <ele>218.2</ele>
        <time>2025-01-10T10:37:38.000Z</time>
      </trkpt>
      <trkpt lat="43.59068" lon="6.78235">
        <ele>218.6</ele>
        <time>2025-01-10T10:37:37.000Z</time>
      </trkpt>
      <trkpt lat="43.59069" lon="6.78239">
        <ele>219</ele>
        <time>2025-01-10T10:37:36.000Z</time>
      </trkpt>
      <trkpt lat="43.5907" lon="6.78243">
        <ele>219.4</ele>
        <time>2025-01-10T10:37:35.000Z</time>
      </trkpt>
      <trkpt lat="43.59072" lon="6.78247">
        <ele>219.7</ele>
        <time>2025-01-10T10:37:34.000Z</time>
      </trkpt>
      <trkpt lat="43.59073" lon="6.78251">
        <ele>220.1</ele>
        <time>2025-01-10T10:37:33.000Z</time>
      </trkpt>
      <trkpt lat="43.59075" lon="6.78254">
        <ele>220.3</ele>
        <time>2025-01-10T10:37:32.000Z</time>
      </trkpt>
      <trkpt lat="43.59076" lon="6.78257">
        <ele>220.6</ele>
        <time>2025-01-10T10:37:31.000Z</time>
      </trkpt>
      <trkpt lat="43.59078" lon="6.7826">
        <ele>220.8</ele>
        <time>2025-01-10T10:37:30.000Z</time>
      </trkpt>
      <trkpt lat="43.59079" lon="6.78264">
        <ele>221</ele>
        <time>2025-01-10T10:37:29.000Z</time>
      </trkpt>
      <trkpt lat="43.59081" lon="6.78268">
        <ele>221.3</ele>
        <time>2025-01-10T10:37:28.000Z</time>
      </trkpt>
      <trkpt lat="43.59082" lon="6.78273">
        <ele>221.6</ele>
        <time>2025-01-10T10:37:27.000Z</time>
      </trkpt>
      <trkpt lat="43.59084" lon="6.78278">
        <ele>221.9</ele>
        <time>2025-01-10T10:37:26.000Z</time>
      </trkpt>
      <trkpt lat="43.59086" lon="6.78283">
        <ele>222.2</ele>
        <time>2025-01-10T10:37:25.000Z</time>
      </trkpt>
      <trkpt lat="43.59088" lon="6.78289">
        <ele>222.5</ele>
        <time>2025-01-10T10:37:24.000Z</time>
      </trkpt>
      <trkpt lat="43.59089" lon="6.78295">
        <ele>222.9</ele>
        <time>2025-01-10T10:37:23.000Z</time>
      </trkpt>
      <trkpt lat="43.5909" lon="6.78301">
        <ele>223.2</ele>
        <time>2025-01-10T10:37:22.000Z</time>
      </trkpt>
      <trkpt lat="43.59091" lon="6.78307">
        <ele>223.5</ele>
        <time>2025-01-10T10:37:21.000Z</time>
      </trkpt>
      <trkpt lat="43.59092" lon="6.78312">
        <ele>223.7</ele>
        <time>2025-01-10T10:37:20.000Z</time>
      </trkpt>
      <trkpt lat="43.59093" lon="6.78317">
        <ele>223.9</ele>
        <time>2025-01-10T10:37:19.000Z</time>
      </trkpt>
      <trkpt lat="43.59094" lon="6.78321">
        <ele>224</ele>
        <time>2025-01-10T10:37:18.000Z</time>
      </trkpt>
      <trkpt lat="43.59095" lon="6.78326">
        <ele>224.2</ele>
        <time>2025-01-10T10:37:17.000Z</time>
      </trkpt>
      <trkpt lat="43.59096" lon="6.7833">
        <ele>224.3</ele>
        <time>2025-01-10T10:37:16.000Z</time>
      </trkpt>
      <trkpt lat="43.59097" lon="6.78334">
        <ele>224.4</ele>
        <time>2025-01-10T10:37:15.000Z</time>
      </trkpt>
      <trkpt lat="43.59096" lon="6.78339">
        <ele>224.4</ele>
        <time>2025-01-10T10:37:14.000Z</time>
      </trkpt>
      <trkpt lat="43.59096" lon="6.78343">
        <ele>224.4</ele>
        <time>2025-01-10T10:37:13.000Z</time>
      </trkpt>
      <trkpt lat="43.59096" lon="6.78343">
        <ele>224.4</ele>
        <time>2025-01-10T10:37:12.000Z</time>
      </trkpt>
      <trkpt lat="43.59096" lon="6.78343">
        <ele>224.4</ele>
        <time>2025-01-10T10:37:11.000Z</time>
      </trkpt>
      <trkpt lat="43.59096" lon="6.78343">
        <ele>224.4</ele>
        <time>2025-01-10T10:37:10.000Z</time>
      </trkpt>
      <trkpt lat="43.59096" lon="6.78343">
        <ele>224.4</ele>
        <time>2025-01-10T10:37:09.000Z</time>
      </trkpt>
      <trkpt lat="43.59096" lon="6.78343">
        <ele>224.4</ele>
        <time>2025-01-10T10:37:08.000Z</time>
      </trkpt>
      <trkpt lat="43.59096" lon="6.78343">
        <ele>224.4</ele>
        <time>2025-01-10T10:37:07.000Z</time>
      </trkpt>
      <trkpt lat="43.59096" lon="6.78343">
        <ele>224.4</ele>
        <time>2025-01-10T10:37:06.000Z</time>
      </trkpt>
      <trkpt lat="43.59096" lon="6.78343">
        <ele>224.4</ele>
        <time>2025-01-10T10:37:05.000Z</time>
      </trkpt>
      <trkpt lat="43.59096" lon="6.78343">
        <ele>224.4</ele>
        <time>2025-01-10T10:37:04.000Z</time>
      </trkpt>
      <trkpt lat="43.59096" lon="6.78342">
        <ele>224.4</ele>
        <time>2025-01-10T10:37:03.000Z</time>
      </trkpt>
      <trkpt lat="43.59096" lon="6.78342">
        <ele>224.4</ele>
        <time>2025-01-10T10:37:02.000Z</time>
      </trkpt>
      <trkpt lat="43.59096" lon="6.78341">
        <ele>224.4</ele>
        <time>2025-01-10T10:37:01.000Z</time>
      </trkpt>
      <trkpt lat="43.59096" lon="6.78341">
        <ele>224.4</ele>
        <time>2025-01-10T10:37:00.000Z</time>
      </trkpt>
      <trkpt lat="43.59096" lon="6.78341">
        <ele>224.4</ele>
        <time>2025-01-10T10:36:59.000Z</time>
      </trkpt>
      <trkpt lat="43.59096" lon="6.78341">
        <ele>224.4</ele>
        <time>2025-01-10T10:36:58.000Z</time>
      </trkpt>
      <trkpt lat="43.59096" lon="6.78341">
        <ele>224.4</ele>
        <time>2025-01-10T10:36:57.000Z</time>
      </trkpt>
      <trkpt lat="43.59096" lon="6.78341">
        <ele>224.4</ele>
        <time>2025-01-10T10:36:56.000Z</time>
      </trkpt>
      <trkpt lat="43.59096" lon="6.78341">
        <ele>224.4</ele>
        <time>2025-01-10T10:36:55.000Z</time>
      </trkpt>
      <trkpt lat="43.59096" lon="6.78341">
        <ele>224.4</ele>
        <time>2025-01-10T10:36:54.000Z</time>
      </trkpt>
      <trkpt lat="43.59097" lon="6.78341">
        <ele>224.4</ele>
        <time>2025-01-10T10:36:53.000Z</time>
      </trkpt>
      <trkpt lat="43.59098" lon="6.78342">
        <ele>224.4</ele>
        <time>2025-01-10T10:36:52.000Z</time>
      </trkpt>
      <trkpt lat="43.591" lon="6.78343">
        <ele>224.3</ele>
        <time>2025-01-10T10:36:51.000Z</time>
      </trkpt>
      <trkpt lat="43.59102" lon="6.78345">
        <ele>224.3</ele>
        <time>2025-01-10T10:36:50.000Z</time>
      </trkpt>
      <trkpt lat="43.59104" lon="6.78348">
        <ele>224.2</ele>
        <time>2025-01-10T10:36:49.000Z</time>
      </trkpt>
      <trkpt lat="43.59107" lon="6.78352">
        <ele>224.2</ele>
        <time>2025-01-10T10:36:48.000Z</time>
      </trkpt>
      <trkpt lat="43.5911" lon="6.78356">
        <ele>224.1</ele>
        <time>2025-01-10T10:36:47.000Z</time>
      </trkpt>
      <trkpt lat="43.59112" lon="6.78361">
        <ele>224</ele>
        <time>2025-01-10T10:36:46.000Z</time>
      </trkpt>
      <trkpt lat="43.59116" lon="6.78366">
        <ele>223.9</ele>
        <time>2025-01-10T10:36:45.000Z</time>
      </trkpt>
      <trkpt lat="43.59119" lon="6.78371">
        <ele>223.8</ele>
        <time>2025-01-10T10:36:44.000Z</time>
      </trkpt>
      <trkpt lat="43.59122" lon="6.78376">
        <ele>223.7</ele>
        <time>2025-01-10T10:36:43.000Z</time>
      </trkpt>
      <trkpt lat="43.59125" lon="6.78382">
        <ele>223.6</ele>
        <time>2025-01-10T10:36:42.000Z</time>
      </trkpt>
      <trkpt lat="43.59128" lon="6.78389">
        <ele>223.5</ele>
        <time>2025-01-10T10:36:41.000Z</time>
      </trkpt>
      <trkpt lat="43.5913" lon="6.78395">
        <ele>223.4</ele>
        <time>2025-01-10T10:36:40.000Z</time>
      </trkpt>
      <trkpt lat="43.59132" lon="6.78402">
        <ele>223.3</ele>
        <time>2025-01-10T10:36:39.000Z</time>
      </trkpt>
      <trkpt lat="43.59135" lon="6.78409">
        <ele>223.1</ele>
        <time>2025-01-10T10:36:38.000Z</time>
      </trkpt>
      <trkpt lat="43.59137" lon="6.78415">
        <ele>222.9</ele>
        <time>2025-01-10T10:36:37.000Z</time>
      </trkpt>
      <trkpt lat="43.59139" lon="6.78421">
        <ele>222.7</ele>
        <time>2025-01-10T10:36:36.000Z</time>
      </trkpt>
      <trkpt lat="43.59142" lon="6.78427">
        <ele>222.4</ele>
        <time>2025-01-10T10:36:35.000Z</time>
      </trkpt>
      <trkpt lat="43.59145" lon="6.78433">
        <ele>222.2</ele>
        <time>2025-01-10T10:36:34.000Z</time>
      </trkpt>
      <trkpt lat="43.59148" lon="6.78438">
        <ele>221.9</ele>
        <time>2025-01-10T10:36:33.000Z</time>
      </trkpt>
      <trkpt lat="43.59151" lon="6.78444">
        <ele>221.7</ele>
        <time>2025-01-10T10:36:32.000Z</time>
      </trkpt>
      <trkpt lat="43.59155" lon="6.7845">
        <ele>221.5</ele>
        <time>2025-01-10T10:36:31.000Z</time>
      </trkpt>
      <trkpt lat="43.59158" lon="6.78456">
        <ele>221.4</ele>
        <time>2025-01-10T10:36:30.000Z</time>
      </trkpt>
      <trkpt lat="43.59161" lon="6.78462">
        <ele>221.2</ele>
        <time>2025-01-10T10:36:29.000Z</time>
      </trkpt>
      <trkpt lat="43.59164" lon="6.78467">
        <ele>221.1</ele>
        <time>2025-01-10T10:36:28.000Z</time>
      </trkpt>
      <trkpt lat="43.59167" lon="6.78473">
        <ele>221</ele>
        <time>2025-01-10T10:36:27.000Z</time>
      </trkpt>
      <trkpt lat="43.5917" lon="6.78479">
        <ele>220.8</ele>
        <time>2025-01-10T10:36:26.000Z</time>
      </trkpt>
      <trkpt lat="43.59173" lon="6.78484">
        <ele>220.6</ele>
        <time>2025-01-10T10:36:25.000Z</time>
      </trkpt>
      <trkpt lat="43.59176" lon="6.78489">
        <ele>220.4</ele>
        <time>2025-01-10T10:36:24.000Z</time>
      </trkpt>
      <trkpt lat="43.59179" lon="6.78494">
        <ele>220.2</ele>
        <time>2025-01-10T10:36:23.000Z</time>
      </trkpt>
      <trkpt lat="43.59182" lon="6.78499">
        <ele>220</ele>
        <time>2025-01-10T10:36:22.000Z</time>
      </trkpt>
      <trkpt lat="43.59185" lon="6.78504">
        <ele>219.7</ele>
        <time>2025-01-10T10:36:21.000Z</time>
      </trkpt>
      <trkpt lat="43.59188" lon="6.78509">
        <ele>219.5</ele>
        <time>2025-01-10T10:36:20.000Z</time>
      </trkpt>
      <trkpt lat="43.59191" lon="6.78514">
        <ele>219.1</ele>
        <time>2025-01-10T10:36:19.000Z</time>
      </trkpt>
      <trkpt lat="43.59193" lon="6.78518">
        <ele>218.9</ele>
        <time>2025-01-10T10:36:18.000Z</time>
      </trkpt>
      <trkpt lat="43.59197" lon="6.78525">
        <ele>218.5</ele>
        <time>2025-01-10T10:36:17.000Z</time>
      </trkpt>
      <trkpt lat="43.59199" lon="6.7853">
        <ele>218.2</ele>
        <time>2025-01-10T10:36:16.000Z</time>
      </trkpt>
      <trkpt lat="43.59203" lon="6.78535">
        <ele>217.8</ele>
        <time>2025-01-10T10:36:15.000Z</time>
      </trkpt>
      <trkpt lat="43.59206" lon="6.7854">
        <ele>217.5</ele>
        <time>2025-01-10T10:36:14.000Z</time>
      </trkpt>
      <trkpt lat="43.59209" lon="6.78545">
        <ele>217.1</ele>
        <time>2025-01-10T10:36:13.000Z</time>
      </trkpt>
      <trkpt lat="43.59212" lon="6.7855">
        <ele>216.8</ele>
        <time>2025-01-10T10:36:12.000Z</time>
      </trkpt>
      <trkpt lat="43.59215" lon="6.78555">
        <ele>216.5</ele>
        <time>2025-01-10T10:36:11.000Z</time>
      </trkpt>
      <trkpt lat="43.59218" lon="6.7856">
        <ele>216.1</ele>
        <time>2025-01-10T10:36:10.000Z</time>
      </trkpt>
      <trkpt lat="43.59221" lon="6.78564">
        <ele>215.7</ele>
        <time>2025-01-10T10:36:09.000Z</time>
      </trkpt>
      <trkpt lat="43.59224" lon="6.78569">
        <ele>215.4</ele>
        <time>2025-01-10T10:36:08.000Z</time>
      </trkpt>
      <trkpt lat="43.59227" lon="6.78574">
        <ele>215</ele>
        <time>2025-01-10T10:36:07.000Z</time>
      </trkpt>
      <trkpt lat="43.59229" lon="6.7858">
        <ele>214.7</ele>
        <time>2025-01-10T10:36:06.000Z</time>
      </trkpt>
      <trkpt lat="43.59232" lon="6.78585">
        <ele>214.4</ele>
        <time>2025-01-10T10:36:05.000Z</time>
      </trkpt>
      <trkpt lat="43.59234" lon="6.78591">
        <ele>214.1</ele>
        <time>2025-01-10T10:36:04.000Z</time>
      </trkpt>
      <trkpt lat="43.59237" lon="6.78595">
        <ele>213.9</ele>
        <time>2025-01-10T10:36:03.000Z</time>
      </trkpt>
      <trkpt lat="43.5924" lon="6.786">
        <ele>213.7</ele>
        <time>2025-01-10T10:36:02.000Z</time>
      </trkpt>
      <trkpt lat="43.59244" lon="6.78604">
        <ele>213.6</ele>
        <time>2025-01-10T10:36:01.000Z</time>
      </trkpt>
      <trkpt lat="43.59247" lon="6.78608">
        <ele>213.5</ele>
        <time>2025-01-10T10:36:00.000Z</time>
      </trkpt>
      <trkpt lat="43.59252" lon="6.78611">
        <ele>213.5</ele>
        <time>2025-01-10T10:35:59.000Z</time>
      </trkpt>
      <trkpt lat="43.59256" lon="6.78614">
        <ele>213.5</ele>
        <time>2025-01-10T10:35:58.000Z</time>
      </trkpt>
      <trkpt lat="43.59261" lon="6.78616">
        <ele>213.6</ele>
        <time>2025-01-10T10:35:57.000Z</time>
      </trkpt>
      <trkpt lat="43.59266" lon="6.78618">
        <ele>213.7</ele>
        <time>2025-01-10T10:35:56.000Z</time>
      </trkpt>
      <trkpt lat="43.59271" lon="6.7862">
        <ele>213.7</ele>
        <time>2025-01-10T10:35:55.000Z</time>
      </trkpt>
      <trkpt lat="43.59276" lon="6.78622">
        <ele>213.8</ele>
        <time>2025-01-10T10:35:54.000Z</time>
      </trkpt>
      <trkpt lat="43.59281" lon="6.78623">
        <ele>213.8</ele>
        <time>2025-01-10T10:35:53.000Z</time>
      </trkpt>
      <trkpt lat="43.59286" lon="6.78625">
        <ele>213.8</ele>
        <time>2025-01-10T10:35:52.000Z</time>
      </trkpt>
      <trkpt lat="43.5929" lon="6.78628">
        <ele>213.7</ele>
        <time>2025-01-10T10:35:51.000Z</time>
      </trkpt>
      <trkpt lat="43.59295" lon="6.78631">
        <ele>213.6</ele>
        <time>2025-01-10T10:35:50.000Z</time>
      </trkpt>
      <trkpt lat="43.59299" lon="6.78634">
        <ele>213.5</ele>
        <time>2025-01-10T10:35:49.000Z</time>
      </trkpt>
      <trkpt lat="43.59303" lon="6.78637">
        <ele>213.3</ele>
        <time>2025-01-10T10:35:48.000Z</time>
      </trkpt>
      <trkpt lat="43.59307" lon="6.7864">
        <ele>213.1</ele>
        <time>2025-01-10T10:35:47.000Z</time>
      </trkpt>
      <trkpt lat="43.59311" lon="6.78643">
        <ele>212.9</ele>
        <time>2025-01-10T10:35:46.000Z</time>
      </trkpt>
      <trkpt lat="43.59315" lon="6.78645">
        <ele>212.7</ele>
        <time>2025-01-10T10:35:45.000Z</time>
      </trkpt>
      <trkpt lat="43.5932" lon="6.78648">
        <ele>212.4</ele>
        <time>2025-01-10T10:35:44.000Z</time>
      </trkpt>
      <trkpt lat="43.59323" lon="6.78651">
        <ele>212.1</ele>
        <time>2025-01-10T10:35:43.000Z</time>
      </trkpt>
      <trkpt lat="43.59327" lon="6.78655">
        <ele>211.8</ele>
        <time>2025-01-10T10:35:42.000Z</time>
      </trkpt>
      <trkpt lat="43.59331" lon="6.78658">
        <ele>211.6</ele>
        <time>2025-01-10T10:35:41.000Z</time>
      </trkpt>
      <trkpt lat="43.59335" lon="6.78663">
        <ele>211.3</ele>
        <time>2025-01-10T10:35:40.000Z</time>
      </trkpt>
      <trkpt lat="43.59338" lon="6.78668">
        <ele>211</ele>
        <time>2025-01-10T10:35:39.000Z</time>
      </trkpt>
      <trkpt lat="43.59341" lon="6.78673">
        <ele>210.7</ele>
        <time>2025-01-10T10:35:38.000Z</time>
      </trkpt>
      <trkpt lat="43.59344" lon="6.78677">
        <ele>210.5</ele>
        <time>2025-01-10T10:35:37.000Z</time>
      </trkpt>
      <trkpt lat="43.59347" lon="6.78682">
        <ele>210.3</ele>
        <time>2025-01-10T10:35:36.000Z</time>
      </trkpt>
      <trkpt lat="43.59351" lon="6.78689">
        <ele>210</ele>
        <time>2025-01-10T10:35:35.000Z</time>
      </trkpt>
      <trkpt lat="43.59354" lon="6.78694">
        <ele>209.7</ele>
        <time>2025-01-10T10:35:34.000Z</time>
      </trkpt>
      <trkpt lat="43.59357" lon="6.78698">
        <ele>209.5</ele>
        <time>2025-01-10T10:35:33.000Z</time>
      </trkpt>
      <trkpt lat="43.5936" lon="6.78703">
        <ele>209.3</ele>
        <time>2025-01-10T10:35:32.000Z</time>
      </trkpt>
      <trkpt lat="43.59365" lon="6.7871">
        <ele>209</ele>
        <time>2025-01-10T10:35:31.000Z</time>
      </trkpt>
      <trkpt lat="43.59367" lon="6.78714">
        <ele>208.8</ele>
        <time>2025-01-10T10:35:30.000Z</time>
      </trkpt>
      <trkpt lat="43.59371" lon="6.78719">
        <ele>208.6</ele>
        <time>2025-01-10T10:35:29.000Z</time>
      </trkpt>
      <trkpt lat="43.59375" lon="6.78724">
        <ele>208.4</ele>
        <time>2025-01-10T10:35:28.000Z</time>
      </trkpt>
      <trkpt lat="43.59379" lon="6.78731">
        <ele>208.3</ele>
        <time>2025-01-10T10:35:27.000Z</time>
      </trkpt>
      <trkpt lat="43.59382" lon="6.78735">
        <ele>208.1</ele>
        <time>2025-01-10T10:35:26.000Z</time>
      </trkpt>
      <trkpt lat="43.59386" lon="6.78741">
        <ele>208.1</ele>
        <time>2025-01-10T10:35:25.000Z</time>
      </trkpt>
      <trkpt lat="43.59389" lon="6.78746">
        <ele>208</ele>
        <time>2025-01-10T10:35:24.000Z</time>
      </trkpt>
      <trkpt lat="43.59393" lon="6.78751">
        <ele>207.9</ele>
        <time>2025-01-10T10:35:23.000Z</time>
      </trkpt>
      <trkpt lat="43.59397" lon="6.78756">
        <ele>207.8</ele>
        <time>2025-01-10T10:35:22.000Z</time>
      </trkpt>
      <trkpt lat="43.594" lon="6.7876">
        <ele>207.8</ele>
        <time>2025-01-10T10:35:21.000Z</time>
      </trkpt>
      <trkpt lat="43.59404" lon="6.78765">
        <ele>207.8</ele>
        <time>2025-01-10T10:35:20.000Z</time>
      </trkpt>
      <trkpt lat="43.59408" lon="6.78769">
        <ele>207.8</ele>
        <time>2025-01-10T10:35:19.000Z</time>
      </trkpt>
      <trkpt lat="43.59413" lon="6.78772">
        <ele>207.8</ele>
        <time>2025-01-10T10:35:18.000Z</time>
      </trkpt>
      <trkpt lat="43.59417" lon="6.78775">
        <ele>207.8</ele>
        <time>2025-01-10T10:35:17.000Z</time>
      </trkpt>
      <trkpt lat="43.59422" lon="6.78777">
        <ele>207.9</ele>
        <time>2025-01-10T10:35:16.000Z</time>
      </trkpt>
      <trkpt lat="43.59427" lon="6.78779">
        <ele>207.9</ele>
        <time>2025-01-10T10:35:15.000Z</time>
      </trkpt>
      <trkpt lat="43.59433" lon="6.7878">
        <ele>208</ele>
        <time>2025-01-10T10:35:14.000Z</time>
      </trkpt>
      <trkpt lat="43.59438" lon="6.78781">
        <ele>208.1</ele>
        <time>2025-01-10T10:35:13.000Z</time>
      </trkpt>
      <trkpt lat="43.59442" lon="6.78782">
        <ele>208.2</ele>
        <time>2025-01-10T10:35:12.000Z</time>
      </trkpt>
      <trkpt lat="43.59447" lon="6.78783">
        <ele>208.3</ele>
        <time>2025-01-10T10:35:11.000Z</time>
      </trkpt>
      <trkpt lat="43.59452" lon="6.78783">
        <ele>208.5</ele>
        <time>2025-01-10T10:35:10.000Z</time>
      </trkpt>
      <trkpt lat="43.59457" lon="6.78783">
        <ele>208.6</ele>
        <time>2025-01-10T10:35:09.000Z</time>
      </trkpt>
      <trkpt lat="43.59462" lon="6.78783">
        <ele>208.7</ele>
        <time>2025-01-10T10:35:08.000Z</time>
      </trkpt>
      <trkpt lat="43.59466" lon="6.78783">
        <ele>208.8</ele>
        <time>2025-01-10T10:35:07.000Z</time>
      </trkpt>
      <trkpt lat="43.59472" lon="6.78783">
        <ele>208.9</ele>
        <time>2025-01-10T10:35:06.000Z</time>
      </trkpt>
      <trkpt lat="43.59477" lon="6.78783">
        <ele>209</ele>
        <time>2025-01-10T10:35:05.000Z</time>
      </trkpt>
      <trkpt lat="43.59482" lon="6.78783">
        <ele>209</ele>
        <time>2025-01-10T10:35:04.000Z</time>
      </trkpt>
      <trkpt lat="43.59487" lon="6.78784">
        <ele>209.1</ele>
        <time>2025-01-10T10:35:03.000Z</time>
      </trkpt>
      <trkpt lat="43.59492" lon="6.78786">
        <ele>209.2</ele>
        <time>2025-01-10T10:35:02.000Z</time>
      </trkpt>
      <trkpt lat="43.59497" lon="6.78788">
        <ele>209.2</ele>
        <time>2025-01-10T10:35:01.000Z</time>
      </trkpt>
      <trkpt lat="43.59501" lon="6.7879">
        <ele>209.2</ele>
        <time>2025-01-10T10:35:00.000Z</time>
      </trkpt>
      <trkpt lat="43.59506" lon="6.78793">
        <ele>209.2</ele>
        <time>2025-01-10T10:34:59.000Z</time>
      </trkpt>
      <trkpt lat="43.5951" lon="6.78795">
        <ele>209.2</ele>
        <time>2025-01-10T10:34:58.000Z</time>
      </trkpt>
      <trkpt lat="43.59515" lon="6.78798">
        <ele>209.2</ele>
        <time>2025-01-10T10:34:57.000Z</time>
      </trkpt>
      <trkpt lat="43.59519" lon="6.788">
        <ele>209.2</ele>
        <time>2025-01-10T10:34:56.000Z</time>
      </trkpt>
      <trkpt lat="43.59523" lon="6.78802">
        <ele>209.2</ele>
        <time>2025-01-10T10:34:55.000Z</time>
      </trkpt>
      <trkpt lat="43.59527" lon="6.78804">
        <ele>209.2</ele>
        <time>2025-01-10T10:34:54.000Z</time>
      </trkpt>
      <trkpt lat="43.5953" lon="6.78806">
        <ele>209.1</ele>
        <time>2025-01-10T10:34:53.000Z</time>
      </trkpt>
      <trkpt lat="43.59533" lon="6.78807">
        <ele>209.1</ele>
        <time>2025-01-10T10:34:52.000Z</time>
      </trkpt>
      <trkpt lat="43.59535" lon="6.78807">
        <ele>209.1</ele>
        <time>2025-01-10T10:34:51.000Z</time>
      </trkpt>
      <trkpt lat="43.59536" lon="6.78807">
        <ele>209.1</ele>
        <time>2025-01-10T10:34:50.000Z</time>
      </trkpt>
      <trkpt lat="43.59536" lon="6.78807">
        <ele>209.1</ele>
        <time>2025-01-10T10:34:49.000Z</time>
      </trkpt>
      <trkpt lat="43.59536" lon="6.78807">
        <ele>209.1</ele>
        <time>2025-01-10T10:34:48.000Z</time>
      </trkpt>
      <trkpt lat="43.59537" lon="6.78807">
        <ele>209.1</ele>
        <time>2025-01-10T10:34:47.000Z</time>
      </trkpt>
      <trkpt lat="43.59539" lon="6.78808">
        <ele>209.1</ele>
        <time>2025-01-10T10:34:46.000Z</time>
      </trkpt>
      <trkpt lat="43.5954" lon="6.78808">
        <ele>209.1</ele>
        <time>2025-01-10T10:34:45.000Z</time>
      </trkpt>
      <trkpt lat="43.59542" lon="6.7881">
        <ele>209.1</ele>
        <time>2025-01-10T10:34:44.000Z</time>
      </trkpt>
      <trkpt lat="43.59545" lon="6.78811">
        <ele>209.1</ele>
        <time>2025-01-10T10:34:43.000Z</time>
      </trkpt>
      <trkpt lat="43.59548" lon="6.78813">
        <ele>209</ele>
        <time>2025-01-10T10:34:42.000Z</time>
      </trkpt>
      <trkpt lat="43.59552" lon="6.78814">
        <ele>209</ele>
        <time>2025-01-10T10:34:41.000Z</time>
      </trkpt>
      <trkpt lat="43.59556" lon="6.78815">
        <ele>209</ele>
        <time>2025-01-10T10:34:40.000Z</time>
      </trkpt>
      <trkpt lat="43.59561" lon="6.78816">
        <ele>209</ele>
        <time>2025-01-10T10:34:39.000Z</time>
      </trkpt>
      <trkpt lat="43.59563" lon="6.78817">
        <ele>209</ele>
        <time>2025-01-10T10:34:38.000Z</time>
      </trkpt>
      <trkpt lat="43.59565" lon="6.78818">
        <ele>209</ele>
        <time>2025-01-10T10:34:37.000Z</time>
      </trkpt>
      <trkpt lat="43.59567" lon="6.78818">
        <ele>209</ele>
        <time>2025-01-10T10:34:36.000Z</time>
      </trkpt>
      <trkpt lat="43.59569" lon="6.78819">
        <ele>209</ele>
        <time>2025-01-10T10:34:35.000Z</time>
      </trkpt>
      <trkpt lat="43.59571" lon="6.7882">
        <ele>209</ele>
        <time>2025-01-10T10:34:34.000Z</time>
      </trkpt>
      <trkpt lat="43.59573" lon="6.7882">
        <ele>209</ele>
        <time>2025-01-10T10:34:33.000Z</time>
      </trkpt>
      <trkpt lat="43.59575" lon="6.78821">
        <ele>208.9</ele>
        <time>2025-01-10T10:34:32.000Z</time>
      </trkpt>
      <trkpt lat="43.59577" lon="6.78822">
        <ele>208.9</ele>
        <time>2025-01-10T10:34:31.000Z</time>
      </trkpt>
      <trkpt lat="43.5958" lon="6.78823">
        <ele>208.9</ele>
        <time>2025-01-10T10:34:30.000Z</time>
      </trkpt>
      <trkpt lat="43.59582" lon="6.78823">
        <ele>208.9</ele>
        <time>2025-01-10T10:34:29.000Z</time>
      </trkpt>
      <trkpt lat="43.59584" lon="6.78824">
        <ele>208.9</ele>
        <time>2025-01-10T10:34:28.000Z</time>
      </trkpt>
      <trkpt lat="43.59586" lon="6.78825">
        <ele>208.9</ele>
        <time>2025-01-10T10:34:27.000Z</time>
      </trkpt>
      <trkpt lat="43.59588" lon="6.78826">
        <ele>209</ele>
        <time>2025-01-10T10:34:26.000Z</time>
      </trkpt>
      <trkpt lat="43.59591" lon="6.78827">
        <ele>209.1</ele>
        <time>2025-01-10T10:34:25.000Z</time>
      </trkpt>
      <trkpt lat="43.59592" lon="6.78828">
        <ele>209.2</ele>
        <time>2025-01-10T10:34:24.000Z</time>
      </trkpt>
      <trkpt lat="43.59594" lon="6.78829">
        <ele>209.3</ele>
        <time>2025-01-10T10:34:23.000Z</time>
      </trkpt>
      <trkpt lat="43.59596" lon="6.78831">
        <ele>209.4</ele>
        <time>2025-01-10T10:34:22.000Z</time>
      </trkpt>
      <trkpt lat="43.596" lon="6.78833">
        <ele>209.7</ele>
        <time>2025-01-10T10:34:21.000Z</time>
      </trkpt>
      <trkpt lat="43.59604" lon="6.78836">
        <ele>209.9</ele>
        <time>2025-01-10T10:34:20.000Z</time>
      </trkpt>
      <trkpt lat="43.59608" lon="6.78839">
        <ele>210.2</ele>
        <time>2025-01-10T10:34:19.000Z</time>
      </trkpt>
      <trkpt lat="43.59612" lon="6.78844">
        <ele>210.6</ele>
        <time>2025-01-10T10:34:18.000Z</time>
      </trkpt>
      <trkpt lat="43.59617" lon="6.7885">
        <ele>211</ele>
        <time>2025-01-10T10:34:17.000Z</time>
      </trkpt>
      <trkpt lat="43.5962" lon="6.78858">
        <ele>211.5</ele>
        <time>2025-01-10T10:34:16.000Z</time>
      </trkpt>
      <trkpt lat="43.59623" lon="6.78867">
        <ele>212.1</ele>
        <time>2025-01-10T10:34:15.000Z</time>
      </trkpt>
      <trkpt lat="43.59626" lon="6.78877">
        <ele>212.7</ele>
        <time>2025-01-10T10:34:14.000Z</time>
      </trkpt>
      <trkpt lat="43.59629" lon="6.78889">
        <ele>213.5</ele>
        <time>2025-01-10T10:34:13.000Z</time>
      </trkpt>
      <trkpt lat="43.59632" lon="6.78901">
        <ele>214.4</ele>
        <time>2025-01-10T10:34:12.000Z</time>
      </trkpt>
      <trkpt lat="43.59637" lon="6.78912">
        <ele>215.4</ele>
        <time>2025-01-10T10:34:11.000Z</time>
      </trkpt>
      <trkpt lat="43.59641" lon="6.78921">
        <ele>216.5</ele>
        <time>2025-01-10T10:34:10.000Z</time>
      </trkpt>
      <trkpt lat="43.59646" lon="6.78931">
        <ele>217.6</ele>
        <time>2025-01-10T10:34:09.000Z</time>
      </trkpt>
      <trkpt lat="43.59647" lon="6.78932">
        <ele>217.8</ele>
        <time>2025-01-10T10:34:08.000Z</time>
      </trkpt>
      <trkpt lat="43.59648" lon="6.78934">
        <ele>218.1</ele>
        <time>2025-01-10T10:34:07.000Z</time>
      </trkpt>
      <trkpt lat="43.59649" lon="6.78935">
        <ele>218.3</ele>
        <time>2025-01-10T10:34:06.000Z</time>
      </trkpt>
      <trkpt lat="43.5965" lon="6.78936">
        <ele>218.5</ele>
        <time>2025-01-10T10:34:05.000Z</time>
      </trkpt>
      <trkpt lat="43.59651" lon="6.78938">
        <ele>218.7</ele>
        <time>2025-01-10T10:34:04.000Z</time>
      </trkpt>
      <trkpt lat="43.59652" lon="6.78939">
        <ele>219</ele>
        <time>2025-01-10T10:34:03.000Z</time>
      </trkpt>
      <trkpt lat="43.59654" lon="6.78941">
        <ele>219.2</ele>
        <time>2025-01-10T10:34:02.000Z</time>
      </trkpt>
      <trkpt lat="43.59655" lon="6.78942">
        <ele>219.4</ele>
        <time>2025-01-10T10:34:01.000Z</time>
      </trkpt>
      <trkpt lat="43.59656" lon="6.78944">
        <ele>219.6</ele>
        <time>2025-01-10T10:34:00.000Z</time>
      </trkpt>
      <trkpt lat="43.59657" lon="6.78945">
        <ele>219.8</ele>
        <time>2025-01-10T10:33:59.000Z</time>
      </trkpt>
      <trkpt lat="43.59658" lon="6.78947">
        <ele>220.1</ele>
        <time>2025-01-10T10:33:58.000Z</time>
      </trkpt>
      <trkpt lat="43.59659" lon="6.78948">
        <ele>220.3</ele>
        <time>2025-01-10T10:33:57.000Z</time>
      </trkpt>
      <trkpt lat="43.5966" lon="6.7895">
        <ele>220.5</ele>
        <time>2025-01-10T10:33:56.000Z</time>
      </trkpt>
      <trkpt lat="43.59662" lon="6.78951">
        <ele>220.7</ele>
        <time>2025-01-10T10:33:55.000Z</time>
      </trkpt>
      <trkpt lat="43.59663" lon="6.78953">
        <ele>221</ele>
        <time>2025-01-10T10:33:54.000Z</time>
      </trkpt>
      <trkpt lat="43.59664" lon="6.78954">
        <ele>221.2</ele>
        <time>2025-01-10T10:33:53.000Z</time>
      </trkpt>
      <trkpt lat="43.59665" lon="6.78956">
        <ele>221.4</ele>
        <time>2025-01-10T10:33:52.000Z</time>
      </trkpt>
      <trkpt lat="43.59666" lon="6.78957">
        <ele>221.6</ele>
        <time>2025-01-10T10:33:51.000Z</time>
      </trkpt>
      <trkpt lat="43.59667" lon="6.78959">
        <ele>221.8</ele>
        <time>2025-01-10T10:33:50.000Z</time>
      </trkpt>
      <trkpt lat="43.59668" lon="6.7896">
        <ele>222</ele>
        <time>2025-01-10T10:33:49.000Z</time>
      </trkpt>
      <trkpt lat="43.5967" lon="6.78962">
        <ele>222.2</ele>
        <time>2025-01-10T10:33:48.000Z</time>
      </trkpt>
      <trkpt lat="43.59671" lon="6.78963">
        <ele>222.5</ele>
        <time>2025-01-10T10:33:47.000Z</time>
      </trkpt>
      <trkpt lat="43.59672" lon="6.78965">
        <ele>222.7</ele>
        <time>2025-01-10T10:33:46.000Z</time>
      </trkpt>
      <trkpt lat="43.59673" lon="6.78966">
        <ele>222.9</ele>
        <time>2025-01-10T10:33:45.000Z</time>
      </trkpt>
      <trkpt lat="43.59674" lon="6.78968">
        <ele>223.1</ele>
        <time>2025-01-10T10:33:44.000Z</time>
      </trkpt>
      <trkpt lat="43.59676" lon="6.78969">
        <ele>223.3</ele>
        <time>2025-01-10T10:33:43.000Z</time>
      </trkpt>
      <trkpt lat="43.59676" lon="6.7897">
        <ele>223.4</ele>
        <time>2025-01-10T10:33:42.000Z</time>
      </trkpt>
      <trkpt lat="43.59676" lon="6.7897">
        <ele>223.4</ele>
        <time>2025-01-10T10:33:41.000Z</time>
      </trkpt>
      <trkpt lat="43.59677" lon="6.78971">
        <ele>223.5</ele>
        <time>2025-01-10T10:33:40.000Z</time>
      </trkpt>
      <trkpt lat="43.59678" lon="6.78974">
        <ele>223.8</ele>
        <time>2025-01-10T10:33:39.000Z</time>
      </trkpt>
      <trkpt lat="43.59679" lon="6.78979">
        <ele>224.2</ele>
        <time>2025-01-10T10:33:38.000Z</time>
      </trkpt>
      <trkpt lat="43.59681" lon="6.78984">
        <ele>224.6</ele>
        <time>2025-01-10T10:33:37.000Z</time>
      </trkpt>
      <trkpt lat="43.59681" lon="6.7899">
        <ele>225</ele>
        <time>2025-01-10T10:33:36.000Z</time>
      </trkpt>
      <trkpt lat="43.59682" lon="6.78997">
        <ele>225.4</ele>
        <time>2025-01-10T10:33:35.000Z</time>
      </trkpt>
      <trkpt lat="43.59683" lon="6.79003">
        <ele>225.7</ele>
        <time>2025-01-10T10:33:34.000Z</time>
      </trkpt>
      <trkpt lat="43.59684" lon="6.79009">
        <ele>225.9</ele>
        <time>2025-01-10T10:33:33.000Z</time>
      </trkpt>
      <trkpt lat="43.59685" lon="6.79015">
        <ele>226.1</ele>
        <time>2025-01-10T10:33:32.000Z</time>
      </trkpt>
      <trkpt lat="43.59686" lon="6.79021">
        <ele>226.3</ele>
        <time>2025-01-10T10:33:31.000Z</time>
      </trkpt>
      <trkpt lat="43.59686" lon="6.79027">
        <ele>226.5</ele>
        <time>2025-01-10T10:33:30.000Z</time>
      </trkpt>
      <trkpt lat="43.59687" lon="6.79033">
        <ele>226.6</ele>
        <time>2025-01-10T10:33:29.000Z</time>
      </trkpt>
      <trkpt lat="43.59688" lon="6.79039">
        <ele>226.8</ele>
        <time>2025-01-10T10:33:28.000Z</time>
      </trkpt>
      <trkpt lat="43.5969" lon="6.79045">
        <ele>227</ele>
        <time>2025-01-10T10:33:27.000Z</time>
      </trkpt>
      <trkpt lat="43.59693" lon="6.7905">
        <ele>227.1</ele>
        <time>2025-01-10T10:33:26.000Z</time>
      </trkpt>
      <trkpt lat="43.59696" lon="6.79055">
        <ele>227.3</ele>
        <time>2025-01-10T10:33:25.000Z</time>
      </trkpt>
      <trkpt lat="43.59699" lon="6.79059">
        <ele>227.5</ele>
        <time>2025-01-10T10:33:24.000Z</time>
      </trkpt>
      <trkpt lat="43.59703" lon="6.79064">
        <ele>227.7</ele>
        <time>2025-01-10T10:33:23.000Z</time>
      </trkpt>
      <trkpt lat="43.59706" lon="6.79067">
        <ele>227.9</ele>
        <time>2025-01-10T10:33:22.000Z</time>
      </trkpt>
      <trkpt lat="43.5971" lon="6.79071">
        <ele>228.2</ele>
        <time>2025-01-10T10:33:21.000Z</time>
      </trkpt>
      <trkpt lat="43.59713" lon="6.79073">
        <ele>228.4</ele>
        <time>2025-01-10T10:33:20.000Z</time>
      </trkpt>
      <trkpt lat="43.59715" lon="6.79074">
        <ele>228.6</ele>
        <time>2025-01-10T10:33:19.000Z</time>
      </trkpt>
      <trkpt lat="43.59718" lon="6.79074">
        <ele>228.8</ele>
        <time>2025-01-10T10:33:18.000Z</time>
      </trkpt>
      <trkpt lat="43.5972" lon="6.79072">
        <ele>228.9</ele>
        <time>2025-01-10T10:33:17.000Z</time>
      </trkpt>
      <trkpt lat="43.59722" lon="6.7907">
        <ele>229.1</ele>
        <time>2025-01-10T10:33:16.000Z</time>
      </trkpt>
      <trkpt lat="43.59724" lon="6.79069">
        <ele>229.3</ele>
        <time>2025-01-10T10:33:15.000Z</time>
      </trkpt>
      <trkpt lat="43.59727" lon="6.79069">
        <ele>229.4</ele>
        <time>2025-01-10T10:33:14.000Z</time>
      </trkpt>
      <trkpt lat="43.59727" lon="6.79069">
        <ele>229.4</ele>
        <time>2025-01-10T10:33:13.000Z</time>
      </trkpt>
      <trkpt lat="43.59727" lon="6.79069">
        <ele>229.4</ele>
        <time>2025-01-10T10:33:12.000Z</time>
      </trkpt>
      <trkpt lat="43.59727" lon="6.79069">
        <ele>229.4</ele>
        <time>2025-01-10T10:33:11.000Z</time>
      </trkpt>
      <trkpt lat="43.59727" lon="6.79069">
        <ele>229.4</ele>
        <time>2025-01-10T10:33:10.000Z</time>
      </trkpt>
      <trkpt lat="43.59727" lon="6.79069">
        <ele>229.4</ele>
        <time>2025-01-10T10:33:09.000Z</time>
      </trkpt>
      <trkpt lat="43.59727" lon="6.79069">
        <ele>229.5</ele>
        <time>2025-01-10T10:33:08.000Z</time>
      </trkpt>
      <trkpt lat="43.59726" lon="6.79069">
        <ele>229.5</ele>
        <time>2025-01-10T10:33:07.000Z</time>
      </trkpt>
      <trkpt lat="43.59726" lon="6.79069">
        <ele>229.5</ele>
        <time>2025-01-10T10:33:06.000Z</time>
      </trkpt>
      <trkpt lat="43.59727" lon="6.79069">
        <ele>229.5</ele>
        <time>2025-01-10T10:33:05.000Z</time>
      </trkpt>
      <trkpt lat="43.59727" lon="6.79069">
        <ele>229.5</ele>
        <time>2025-01-10T10:33:04.000Z</time>
      </trkpt>
      <trkpt lat="43.59727" lon="6.79069">
        <ele>229.5</ele>
        <time>2025-01-10T10:33:03.000Z</time>
      </trkpt>
      <trkpt lat="43.59727" lon="6.79068">
        <ele>229.6</ele>
        <time>2025-01-10T10:33:02.000Z</time>
      </trkpt>
      <trkpt lat="43.59727" lon="6.79069">
        <ele>229.6</ele>
        <time>2025-01-10T10:33:01.000Z</time>
      </trkpt>
      <trkpt lat="43.59727" lon="6.79068">
        <ele>229.6</ele>
        <time>2025-01-10T10:33:00.000Z</time>
      </trkpt>
      <trkpt lat="43.59727" lon="6.79068">
        <ele>229.6</ele>
        <time>2025-01-10T10:32:59.000Z</time>
      </trkpt>
      <trkpt lat="43.59727" lon="6.79068">
        <ele>229.6</ele>
        <time>2025-01-10T10:32:58.000Z</time>
      </trkpt>
      <trkpt lat="43.59726" lon="6.79069">
        <ele>229.6</ele>
        <time>2025-01-10T10:32:57.000Z</time>
      </trkpt>
      <trkpt lat="43.59726" lon="6.7907">
        <ele>229.6</ele>
        <time>2025-01-10T10:32:56.000Z</time>
      </trkpt>
      <trkpt lat="43.59725" lon="6.79072">
        <ele>229.6</ele>
        <time>2025-01-10T10:32:55.000Z</time>
      </trkpt>
      <trkpt lat="43.59723" lon="6.79075">
        <ele>229.7</ele>
        <time>2025-01-10T10:32:54.000Z</time>
      </trkpt>
      <trkpt lat="43.59722" lon="6.79078">
        <ele>229.7</ele>
        <time>2025-01-10T10:32:53.000Z</time>
      </trkpt>
      <trkpt lat="43.59721" lon="6.79081">
        <ele>229.7</ele>
        <time>2025-01-10T10:32:52.000Z</time>
      </trkpt>
      <trkpt lat="43.59719" lon="6.79085">
        <ele>229.8</ele>
        <time>2025-01-10T10:32:51.000Z</time>
      </trkpt>
      <trkpt lat="43.59718" lon="6.7909">
        <ele>229.8</ele>
        <time>2025-01-10T10:32:50.000Z</time>
      </trkpt>
      <trkpt lat="43.59716" lon="6.79094">
        <ele>229.9</ele>
        <time>2025-01-10T10:32:49.000Z</time>
      </trkpt>
      <trkpt lat="43.59714" lon="6.79098">
        <ele>229.9</ele>
        <time>2025-01-10T10:32:48.000Z</time>
      </trkpt>
      <trkpt lat="43.59712" lon="6.79102">
        <ele>230</ele>
        <time>2025-01-10T10:32:47.000Z</time>
      </trkpt>
      <trkpt lat="43.59709" lon="6.79105">
        <ele>230</ele>
        <time>2025-01-10T10:32:46.000Z</time>
      </trkpt>
      <trkpt lat="43.59707" lon="6.79109">
        <ele>229.9</ele>
        <time>2025-01-10T10:32:45.000Z</time>
      </trkpt>
      <trkpt lat="43.59705" lon="6.79112">
        <ele>229.7</ele>
        <time>2025-01-10T10:32:44.000Z</time>
      </trkpt>
      <trkpt lat="43.59702" lon="6.79116">
        <ele>229.5</ele>
        <time>2025-01-10T10:32:43.000Z</time>
      </trkpt>
      <trkpt lat="43.59699" lon="6.7912">
        <ele>229.3</ele>
        <time>2025-01-10T10:32:42.000Z</time>
      </trkpt>
      <trkpt lat="43.59696" lon="6.79124">
        <ele>229</ele>
        <time>2025-01-10T10:32:41.000Z</time>
      </trkpt>
      <trkpt lat="43.59693" lon="6.79129">
        <ele>228.7</ele>
        <time>2025-01-10T10:32:40.000Z</time>
      </trkpt>
      <trkpt lat="43.59691" lon="6.79133">
        <ele>228.4</ele>
        <time>2025-01-10T10:32:39.000Z</time>
      </trkpt>
      <trkpt lat="43.59688" lon="6.79137">
        <ele>228.2</ele>
        <time>2025-01-10T10:32:38.000Z</time>
      </trkpt>
      <trkpt lat="43.59686" lon="6.79141">
        <ele>227.9</ele>
        <time>2025-01-10T10:32:37.000Z</time>
      </trkpt>
      <trkpt lat="43.59683" lon="6.79145">
        <ele>227.6</ele>
        <time>2025-01-10T10:32:36.000Z</time>
      </trkpt>
      <trkpt lat="43.59681" lon="6.79149">
        <ele>227.3</ele>
        <time>2025-01-10T10:32:35.000Z</time>
      </trkpt>
      <trkpt lat="43.59679" lon="6.79152">
        <ele>227.1</ele>
        <time>2025-01-10T10:32:34.000Z</time>
      </trkpt>
      <trkpt lat="43.59677" lon="6.79155">
        <ele>226.8</ele>
        <time>2025-01-10T10:32:33.000Z</time>
      </trkpt>
      <trkpt lat="43.59675" lon="6.79158">
        <ele>226.6</ele>
        <time>2025-01-10T10:32:32.000Z</time>
      </trkpt>
      <trkpt lat="43.59672" lon="6.79161">
        <ele>226.3</ele>
        <time>2025-01-10T10:32:31.000Z</time>
      </trkpt>
      <trkpt lat="43.5967" lon="6.79164">
        <ele>226</ele>
        <time>2025-01-10T10:32:30.000Z</time>
      </trkpt>
      <trkpt lat="43.59668" lon="6.79168">
        <ele>225.7</ele>
        <time>2025-01-10T10:32:29.000Z</time>
      </trkpt>
      <trkpt lat="43.59665" lon="6.79173">
        <ele>225.3</ele>
        <time>2025-01-10T10:32:28.000Z</time>
      </trkpt>
      <trkpt lat="43.59663" lon="6.79177">
        <ele>224.9</ele>
        <time>2025-01-10T10:32:27.000Z</time>
      </trkpt>
      <trkpt lat="43.59661" lon="6.79182">
        <ele>224.5</ele>
        <time>2025-01-10T10:32:26.000Z</time>
      </trkpt>
      <trkpt lat="43.59659" lon="6.79186">
        <ele>224.1</ele>
        <time>2025-01-10T10:32:25.000Z</time>
      </trkpt>
      <trkpt lat="43.59657" lon="6.79192">
        <ele>223.6</ele>
        <time>2025-01-10T10:32:24.000Z</time>
      </trkpt>
      <trkpt lat="43.59654" lon="6.79197">
        <ele>223.1</ele>
        <time>2025-01-10T10:32:23.000Z</time>
      </trkpt>
      <trkpt lat="43.59651" lon="6.79203">
        <ele>222.6</ele>
        <time>2025-01-10T10:32:22.000Z</time>
      </trkpt>
      <trkpt lat="43.59649" lon="6.79208">
        <ele>222.2</ele>
        <time>2025-01-10T10:32:21.000Z</time>
      </trkpt>
      <trkpt lat="43.59646" lon="6.79213">
        <ele>221.8</ele>
        <time>2025-01-10T10:32:20.000Z</time>
      </trkpt>
      <trkpt lat="43.59643" lon="6.79218">
        <ele>221.4</ele>
        <time>2025-01-10T10:32:19.000Z</time>
      </trkpt>
      <trkpt lat="43.5964" lon="6.79223">
        <ele>221</ele>
        <time>2025-01-10T10:32:18.000Z</time>
      </trkpt>
      <trkpt lat="43.59637" lon="6.79227">
        <ele>220.7</ele>
        <time>2025-01-10T10:32:17.000Z</time>
      </trkpt>
      <trkpt lat="43.59634" lon="6.79232">
        <ele>220.3</ele>
        <time>2025-01-10T10:32:16.000Z</time>
      </trkpt>
      <trkpt lat="43.59631" lon="6.79237">
        <ele>220</ele>
        <time>2025-01-10T10:32:15.000Z</time>
      </trkpt>
      <trkpt lat="43.59629" lon="6.79242">
        <ele>219.7</ele>
        <time>2025-01-10T10:32:14.000Z</time>
      </trkpt>
      <trkpt lat="43.59627" lon="6.79247">
        <ele>219.3</ele>
        <time>2025-01-10T10:32:13.000Z</time>
      </trkpt>
      <trkpt lat="43.59624" lon="6.79252">
        <ele>218.9</ele>
        <time>2025-01-10T10:32:12.000Z</time>
      </trkpt>
      <trkpt lat="43.59622" lon="6.79257">
        <ele>218.5</ele>
        <time>2025-01-10T10:32:11.000Z</time>
      </trkpt>
      <trkpt lat="43.59619" lon="6.79261">
        <ele>218.1</ele>
        <time>2025-01-10T10:32:10.000Z</time>
      </trkpt>
      <trkpt lat="43.59616" lon="6.79266">
        <ele>217.6</ele>
        <time>2025-01-10T10:32:09.000Z</time>
      </trkpt>
      <trkpt lat="43.59612" lon="6.79269">
        <ele>217.1</ele>
        <time>2025-01-10T10:32:08.000Z</time>
      </trkpt>
      <trkpt lat="43.59608" lon="6.79272">
        <ele>216.6</ele>
        <time>2025-01-10T10:32:07.000Z</time>
      </trkpt>
      <trkpt lat="43.59604" lon="6.79275">
        <ele>216</ele>
        <time>2025-01-10T10:32:06.000Z</time>
      </trkpt>
      <trkpt lat="43.59599" lon="6.79277">
        <ele>215.4</ele>
        <time>2025-01-10T10:32:05.000Z</time>
      </trkpt>
      <trkpt lat="43.59594" lon="6.7928">
        <ele>214.9</ele>
        <time>2025-01-10T10:32:04.000Z</time>
      </trkpt>
      <trkpt lat="43.59588" lon="6.79282">
        <ele>214.3</ele>
        <time>2025-01-10T10:32:03.000Z</time>
      </trkpt>
      <trkpt lat="43.59582" lon="6.79286">
        <ele>213.9</ele>
        <time>2025-01-10T10:32:02.000Z</time>
      </trkpt>
      <trkpt lat="43.59575" lon="6.79289">
        <ele>213.6</ele>
        <time>2025-01-10T10:32:01.000Z</time>
      </trkpt>
      <trkpt lat="43.59568" lon="6.79293">
        <ele>213.4</ele>
        <time>2025-01-10T10:32:00.000Z</time>
      </trkpt>
      <trkpt lat="43.59562" lon="6.79297">
        <ele>213.5</ele>
        <time>2025-01-10T10:31:59.000Z</time>
      </trkpt>
      <trkpt lat="43.59556" lon="6.79302">
        <ele>213.7</ele>
        <time>2025-01-10T10:31:58.000Z</time>
      </trkpt>
      <trkpt lat="43.5955" lon="6.79306">
        <ele>214.1</ele>
        <time>2025-01-10T10:31:57.000Z</time>
      </trkpt>
      <trkpt lat="43.59545" lon="6.79312">
        <ele>214.6</ele>
        <time>2025-01-10T10:31:56.000Z</time>
      </trkpt>
      <trkpt lat="43.59539" lon="6.79318">
        <ele>215.1</ele>
        <time>2025-01-10T10:31:55.000Z</time>
      </trkpt>
      <trkpt lat="43.59534" lon="6.79325">
        <ele>215.6</ele>
        <time>2025-01-10T10:31:54.000Z</time>
      </trkpt>
      <trkpt lat="43.59528" lon="6.79332">
        <ele>216.1</ele>
        <time>2025-01-10T10:31:53.000Z</time>
      </trkpt>
      <trkpt lat="43.59522" lon="6.79339">
        <ele>216.7</ele>
        <time>2025-01-10T10:31:52.000Z</time>
      </trkpt>
      <trkpt lat="43.59516" lon="6.79344">
        <ele>217.2</ele>
        <time>2025-01-10T10:31:51.000Z</time>
      </trkpt>
      <trkpt lat="43.5951" lon="6.7935">
        <ele>217.9</ele>
        <time>2025-01-10T10:31:50.000Z</time>
      </trkpt>
      <trkpt lat="43.59504" lon="6.79355">
        <ele>218.5</ele>
        <time>2025-01-10T10:31:49.000Z</time>
      </trkpt>
      <trkpt lat="43.59499" lon="6.7936">
        <ele>219.1</ele>
        <time>2025-01-10T10:31:48.000Z</time>
      </trkpt>
      <trkpt lat="43.59495" lon="6.79366">
        <ele>219.6</ele>
        <time>2025-01-10T10:31:47.000Z</time>
      </trkpt>
      <trkpt lat="43.59491" lon="6.79371">
        <ele>220.1</ele>
        <time>2025-01-10T10:31:46.000Z</time>
      </trkpt>
      <trkpt lat="43.59488" lon="6.79377">
        <ele>220.6</ele>
        <time>2025-01-10T10:31:45.000Z</time>
      </trkpt>
      <trkpt lat="43.59485" lon="6.79383">
        <ele>221</ele>
        <time>2025-01-10T10:31:44.000Z</time>
      </trkpt>
      <trkpt lat="43.59483" lon="6.79389">
        <ele>221.3</ele>
        <time>2025-01-10T10:31:43.000Z</time>
      </trkpt>
      <trkpt lat="43.59481" lon="6.79395">
        <ele>221.7</ele>
        <time>2025-01-10T10:31:42.000Z</time>
      </trkpt>
      <trkpt lat="43.5948" lon="6.79402">
        <ele>222.1</ele>
        <time>2025-01-10T10:31:41.000Z</time>
      </trkpt>
      <trkpt lat="43.59479" lon="6.79409">
        <ele>222.4</ele>
        <time>2025-01-10T10:31:40.000Z</time>
      </trkpt>
      <trkpt lat="43.59478" lon="6.79417">
        <ele>222.8</ele>
        <time>2025-01-10T10:31:39.000Z</time>
      </trkpt>
      <trkpt lat="43.59477" lon="6.79425">
        <ele>223.1</ele>
        <time>2025-01-10T10:31:38.000Z</time>
      </trkpt>
      <trkpt lat="43.59476" lon="6.79433">
        <ele>223.4</ele>
        <time>2025-01-10T10:31:37.000Z</time>
      </trkpt>
      <trkpt lat="43.59475" lon="6.79442">
        <ele>223.6</ele>
        <time>2025-01-10T10:31:36.000Z</time>
      </trkpt>
      <trkpt lat="43.59473" lon="6.79451">
        <ele>223.8</ele>
        <time>2025-01-10T10:31:35.000Z</time>
      </trkpt>
      <trkpt lat="43.59471" lon="6.7946">
        <ele>223.9</ele>
        <time>2025-01-10T10:31:34.000Z</time>
      </trkpt>
      <trkpt lat="43.5947" lon="6.79469">
        <ele>224</ele>
        <time>2025-01-10T10:31:33.000Z</time>
      </trkpt>
      <trkpt lat="43.59467" lon="6.79477">
        <ele>224.1</ele>
        <time>2025-01-10T10:31:32.000Z</time>
      </trkpt>
      <trkpt lat="43.59463" lon="6.79485">
        <ele>224.1</ele>
        <time>2025-01-10T10:31:31.000Z</time>
      </trkpt>
      <trkpt lat="43.59458" lon="6.79493">
        <ele>224.3</ele>
        <time>2025-01-10T10:31:30.000Z</time>
      </trkpt>
      <trkpt lat="43.59452" lon="6.79498">
        <ele>224.5</ele>
        <time>2025-01-10T10:31:29.000Z</time>
      </trkpt>
      <trkpt lat="43.59445" lon="6.79503">
        <ele>224.9</ele>
        <time>2025-01-10T10:31:28.000Z</time>
      </trkpt>
      <trkpt lat="43.59439" lon="6.79507">
        <ele>225.4</ele>
        <time>2025-01-10T10:31:27.000Z</time>
      </trkpt>
      <trkpt lat="43.59432" lon="6.7951">
        <ele>225.8</ele>
        <time>2025-01-10T10:31:26.000Z</time>
      </trkpt>
      <trkpt lat="43.59427" lon="6.79512">
        <ele>226.2</ele>
        <time>2025-01-10T10:31:25.000Z</time>
      </trkpt>
      <trkpt lat="43.59421" lon="6.79514">
        <ele>226.5</ele>
        <time>2025-01-10T10:31:24.000Z</time>
      </trkpt>
      <trkpt lat="43.59417" lon="6.79516">
        <ele>226.8</ele>
        <time>2025-01-10T10:31:23.000Z</time>
      </trkpt>
      <trkpt lat="43.59411" lon="6.79517">
        <ele>227.1</ele>
        <time>2025-01-10T10:31:22.000Z</time>
      </trkpt>
      <trkpt lat="43.59406" lon="6.79518">
        <ele>227.4</ele>
        <time>2025-01-10T10:31:21.000Z</time>
      </trkpt>
      <trkpt lat="43.59401" lon="6.79519">
        <ele>227.7</ele>
        <time>2025-01-10T10:31:20.000Z</time>
      </trkpt>
      <trkpt lat="43.59395" lon="6.7952">
        <ele>228</ele>
        <time>2025-01-10T10:31:19.000Z</time>
      </trkpt>
      <trkpt lat="43.5939" lon="6.79522">
        <ele>228.3</ele>
        <time>2025-01-10T10:31:18.000Z</time>
      </trkpt>
      <trkpt lat="43.59385" lon="6.79523">
        <ele>228.5</ele>
        <time>2025-01-10T10:31:17.000Z</time>
      </trkpt>
      <trkpt lat="43.59381" lon="6.79526">
        <ele>228.8</ele>
        <time>2025-01-10T10:31:16.000Z</time>
      </trkpt>
      <trkpt lat="43.59377" lon="6.79529">
        <ele>229</ele>
        <time>2025-01-10T10:31:15.000Z</time>
      </trkpt>
      <trkpt lat="43.59374" lon="6.79531">
        <ele>229.2</ele>
        <time>2025-01-10T10:31:14.000Z</time>
      </trkpt>
      <trkpt lat="43.5937" lon="6.79536">
        <ele>229.5</ele>
        <time>2025-01-10T10:31:13.000Z</time>
      </trkpt>
      <trkpt lat="43.59367" lon="6.7954">
        <ele>229.7</ele>
        <time>2025-01-10T10:31:12.000Z</time>
      </trkpt>
      <trkpt lat="43.59364" lon="6.79544">
        <ele>229.9</ele>
        <time>2025-01-10T10:31:11.000Z</time>
      </trkpt>
      <trkpt lat="43.59362" lon="6.79548">
        <ele>230.2</ele>
        <time>2025-01-10T10:31:10.000Z</time>
      </trkpt>
      <trkpt lat="43.5936" lon="6.79553">
        <ele>230.4</ele>
        <time>2025-01-10T10:31:09.000Z</time>
      </trkpt>
      <trkpt lat="43.59358" lon="6.79557">
        <ele>230.5</ele>
        <time>2025-01-10T10:31:08.000Z</time>
      </trkpt>
      <trkpt lat="43.59355" lon="6.79561">
        <ele>230.5</ele>
        <time>2025-01-10T10:31:07.000Z</time>
      </trkpt>
      <trkpt lat="43.59352" lon="6.79564">
        <ele>230.6</ele>
        <time>2025-01-10T10:31:06.000Z</time>
      </trkpt>
      <trkpt lat="43.59349" lon="6.79567">
        <ele>230.6</ele>
        <time>2025-01-10T10:31:05.000Z</time>
      </trkpt>
      <trkpt lat="43.59345" lon="6.79569">
        <ele>230.5</ele>
        <time>2025-01-10T10:31:04.000Z</time>
      </trkpt>
      <trkpt lat="43.59342" lon="6.79571">
        <ele>230.4</ele>
        <time>2025-01-10T10:31:03.000Z</time>
      </trkpt>
      <trkpt lat="43.59338" lon="6.79573">
        <ele>230.2</ele>
        <time>2025-01-10T10:31:02.000Z</time>
      </trkpt>
      <trkpt lat="43.59335" lon="6.79575">
        <ele>230.1</ele>
        <time>2025-01-10T10:31:01.000Z</time>
      </trkpt>
      <trkpt lat="43.59331" lon="6.79577">
        <ele>229.9</ele>
        <time>2025-01-10T10:31:00.000Z</time>
      </trkpt>
      <trkpt lat="43.59328" lon="6.79579">
        <ele>229.7</ele>
        <time>2025-01-10T10:30:59.000Z</time>
      </trkpt>
      <trkpt lat="43.59324" lon="6.79581">
        <ele>229.4</ele>
        <time>2025-01-10T10:30:58.000Z</time>
      </trkpt>
      <trkpt lat="43.5932" lon="6.79584">
        <ele>229.1</ele>
        <time>2025-01-10T10:30:57.000Z</time>
      </trkpt>
      <trkpt lat="43.59317" lon="6.79586">
        <ele>228.8</ele>
        <time>2025-01-10T10:30:56.000Z</time>
      </trkpt>
      <trkpt lat="43.59314" lon="6.79587">
        <ele>228.6</ele>
        <time>2025-01-10T10:30:55.000Z</time>
      </trkpt>
      <trkpt lat="43.59311" lon="6.79589">
        <ele>228.3</ele>
        <time>2025-01-10T10:30:54.000Z</time>
      </trkpt>
      <trkpt lat="43.59309" lon="6.79592">
        <ele>228</ele>
        <time>2025-01-10T10:30:53.000Z</time>
      </trkpt>
      <trkpt lat="43.59306" lon="6.79594">
        <ele>227.7</ele>
        <time>2025-01-10T10:30:52.000Z</time>
      </trkpt>
      <trkpt lat="43.59304" lon="6.79597">
        <ele>227.4</ele>
        <time>2025-01-10T10:30:51.000Z</time>
      </trkpt>
      <trkpt lat="43.59301" lon="6.796">
        <ele>227.1</ele>
        <time>2025-01-10T10:30:50.000Z</time>
      </trkpt>
      <trkpt lat="43.593" lon="6.79603">
        <ele>226.8</ele>
        <time>2025-01-10T10:30:49.000Z</time>
      </trkpt>
      <trkpt lat="43.59298" lon="6.79607">
        <ele>226.5</ele>
        <time>2025-01-10T10:30:48.000Z</time>
      </trkpt>
      <trkpt lat="43.59297" lon="6.79611">
        <ele>226.2</ele>
        <time>2025-01-10T10:30:47.000Z</time>
      </trkpt>
      <trkpt lat="43.59295" lon="6.79615">
        <ele>225.8</ele>
        <time>2025-01-10T10:30:46.000Z</time>
      </trkpt>
      <trkpt lat="43.59294" lon="6.79619">
        <ele>225.4</ele>
        <time>2025-01-10T10:30:45.000Z</time>
      </trkpt>
      <trkpt lat="43.59294" lon="6.79625">
        <ele>224.9</ele>
        <time>2025-01-10T10:30:44.000Z</time>
      </trkpt>
      <trkpt lat="43.59293" lon="6.79629">
        <ele>224.6</ele>
        <time>2025-01-10T10:30:43.000Z</time>
      </trkpt>
      <trkpt lat="43.59293" lon="6.79633">
        <ele>224.1</ele>
        <time>2025-01-10T10:30:42.000Z</time>
      </trkpt>
      <trkpt lat="43.59292" lon="6.79638">
        <ele>223.7</ele>
        <time>2025-01-10T10:30:41.000Z</time>
      </trkpt>
      <trkpt lat="43.59291" lon="6.79642">
        <ele>223.2</ele>
        <time>2025-01-10T10:30:40.000Z</time>
      </trkpt>
      <trkpt lat="43.59288" lon="6.79646">
        <ele>222.7</ele>
        <time>2025-01-10T10:30:39.000Z</time>
      </trkpt>
      <trkpt lat="43.59285" lon="6.79649">
        <ele>222.2</ele>
        <time>2025-01-10T10:30:38.000Z</time>
      </trkpt>
      <trkpt lat="43.59283" lon="6.79651">
        <ele>221.9</ele>
        <time>2025-01-10T10:30:37.000Z</time>
      </trkpt>
      <trkpt lat="43.59279" lon="6.79652">
        <ele>221.4</ele>
        <time>2025-01-10T10:30:36.000Z</time>
      </trkpt>
      <trkpt lat="43.59276" lon="6.79654">
        <ele>221.1</ele>
        <time>2025-01-10T10:30:35.000Z</time>
      </trkpt>
      <trkpt lat="43.59273" lon="6.79655">
        <ele>220.7</ele>
        <time>2025-01-10T10:30:34.000Z</time>
      </trkpt>
      <trkpt lat="43.5927" lon="6.79656">
        <ele>220.4</ele>
        <time>2025-01-10T10:30:33.000Z</time>
      </trkpt>
      <trkpt lat="43.59267" lon="6.79657">
        <ele>220.1</ele>
        <time>2025-01-10T10:30:32.000Z</time>
      </trkpt>
      <trkpt lat="43.59264" lon="6.79659">
        <ele>219.8</ele>
        <time>2025-01-10T10:30:31.000Z</time>
      </trkpt>
      <trkpt lat="43.59261" lon="6.7966">
        <ele>219.6</ele>
        <time>2025-01-10T10:30:30.000Z</time>
      </trkpt>
      <trkpt lat="43.59259" lon="6.79663">
        <ele>219.3</ele>
        <time>2025-01-10T10:30:29.000Z</time>
      </trkpt>
      <trkpt lat="43.59258" lon="6.79665">
        <ele>218.7</ele>
        <time>2025-01-10T10:30:28.000Z</time>
      </trkpt>
      <trkpt lat="43.59257" lon="6.79668">
        <ele>218.4</ele>
        <time>2025-01-10T10:30:27.000Z</time>
      </trkpt>
      <trkpt lat="43.59257" lon="6.79671">
        <ele>218.2</ele>
        <time>2025-01-10T10:30:26.000Z</time>
      </trkpt>
      <trkpt lat="43.59258" lon="6.79675">
        <ele>217.8</ele>
        <time>2025-01-10T10:30:25.000Z</time>
      </trkpt>
      <trkpt lat="43.59259" lon="6.79677">
        <ele>217.6</ele>
        <time>2025-01-10T10:30:24.000Z</time>
      </trkpt>
      <trkpt lat="43.59261" lon="6.7968">
        <ele>217.3</ele>
        <time>2025-01-10T10:30:23.000Z</time>
      </trkpt>
      <trkpt lat="43.59263" lon="6.79682">
        <ele>217</ele>
        <time>2025-01-10T10:30:22.000Z</time>
      </trkpt>
      <trkpt lat="43.59266" lon="6.79685">
        <ele>216.8</ele>
        <time>2025-01-10T10:30:21.000Z</time>
      </trkpt>
      <trkpt lat="43.59268" lon="6.79687">
        <ele>216.6</ele>
        <time>2025-01-10T10:30:20.000Z</time>
      </trkpt>
      <trkpt lat="43.5927" lon="6.79689">
        <ele>216.4</ele>
        <time>2025-01-10T10:30:19.000Z</time>
      </trkpt>
      <trkpt lat="43.5927" lon="6.79689">
        <ele>216.4</ele>
        <time>2025-01-10T10:30:18.000Z</time>
      </trkpt>
      <trkpt lat="43.5927" lon="6.79689">
        <ele>216.4</ele>
        <time>2025-01-10T10:30:17.000Z</time>
      </trkpt>
      <trkpt lat="43.5927" lon="6.79689">
        <ele>216.4</ele>
        <time>2025-01-10T10:30:16.000Z</time>
      </trkpt>
      <trkpt lat="43.5927" lon="6.79689">
        <ele>216.4</ele>
        <time>2025-01-10T10:30:15.000Z</time>
      </trkpt>
      <trkpt lat="43.5927" lon="6.79689">
        <ele>216.4</ele>
        <time>2025-01-10T10:30:14.000Z</time>
      </trkpt>
      <trkpt lat="43.5927" lon="6.79689">
        <ele>216.4</ele>
        <time>2025-01-10T10:30:13.000Z</time>
      </trkpt>
      <trkpt lat="43.5927" lon="6.79689">
        <ele>216.4</ele>
        <time>2025-01-10T10:30:12.000Z</time>
      </trkpt>
      <trkpt lat="43.5927" lon="6.79689">
        <ele>216.4</ele>
        <time>2025-01-10T10:30:11.000Z</time>
      </trkpt>
      <trkpt lat="43.5927" lon="6.79689">
        <ele>216.4</ele>
        <time>2025-01-10T10:30:10.000Z</time>
      </trkpt>
      <trkpt lat="43.5927" lon="6.79689">
        <ele>216.4</ele>
        <time>2025-01-10T10:30:09.000Z</time>
      </trkpt>
      <trkpt lat="43.5927" lon="6.79689">
        <ele>216.4</ele>
        <time>2025-01-10T10:30:08.000Z</time>
      </trkpt>
      <trkpt lat="43.5927" lon="6.79689">
        <ele>216.4</ele>
        <time>2025-01-10T10:30:07.000Z</time>
      </trkpt>
      <trkpt lat="43.5927" lon="6.79689">
        <ele>216.4</ele>
        <time>2025-01-10T10:30:06.000Z</time>
      </trkpt>
      <trkpt lat="43.5927" lon="6.79689">
        <ele>216.4</ele>
        <time>2025-01-10T10:30:05.000Z</time>
      </trkpt>
      <trkpt lat="43.5927" lon="6.79689">
        <ele>216.4</ele>
        <time>2025-01-10T10:30:04.000Z</time>
      </trkpt>
      <trkpt lat="43.5927" lon="6.79689">
        <ele>216.3</ele>
        <time>2025-01-10T10:30:03.000Z</time>
      </trkpt>
      <trkpt lat="43.5927" lon="6.79689">
        <ele>216.3</ele>
        <time>2025-01-10T10:30:02.000Z</time>
      </trkpt>
      <trkpt lat="43.5927" lon="6.79689">
        <ele>216.3</ele>
        <time>2025-01-10T10:30:01.000Z</time>
      </trkpt>
      <trkpt lat="43.5927" lon="6.79689">
        <ele>216.3</ele>
        <time>2025-01-10T10:30:00.000Z</time>
      </trkpt>
      <trkpt lat="43.5927" lon="6.79689">
        <ele>216.3</ele>
        <time>2025-01-10T10:29:59.000Z</time>
      </trkpt>
      <trkpt lat="43.5927" lon="6.79689">
        <ele>216.3</ele>
        <time>2025-01-10T10:29:58.000Z</time>
      </trkpt>
      <trkpt lat="43.5927" lon="6.79689">
        <ele>216.3</ele>
        <time>2025-01-10T10:29:57.000Z</time>
      </trkpt>
      <trkpt lat="43.5927" lon="6.79689">
        <ele>216.3</ele>
        <time>2025-01-10T10:29:56.000Z</time>
      </trkpt>
      <trkpt lat="43.5927" lon="6.79689">
        <ele>216.3</ele>
        <time>2025-01-10T10:29:55.000Z</time>
      </trkpt>
      <trkpt lat="43.5927" lon="6.79689">
        <ele>216.3</ele>
        <time>2025-01-10T10:29:54.000Z</time>
      </trkpt>
      <trkpt lat="43.5927" lon="6.79689">
        <ele>216.3</ele>
        <time>2025-01-10T10:29:53.000Z</time>
      </trkpt>
      <trkpt lat="43.5927" lon="6.79689">
        <ele>216.3</ele>
        <time>2025-01-10T10:29:52.000Z</time>
      </trkpt>
      <trkpt lat="43.5927" lon="6.79689">
        <ele>216.3</ele>
        <time>2025-01-10T10:29:51.000Z</time>
      </trkpt>
      <trkpt lat="43.5927" lon="6.79689">
        <ele>216.3</ele>
        <time>2025-01-10T10:29:50.000Z</time>
      </trkpt>
      <trkpt lat="43.5927" lon="6.79689">
        <ele>216.3</ele>
        <time>2025-01-10T10:29:49.000Z</time>
      </trkpt>
      <trkpt lat="43.5927" lon="6.79689">
        <ele>216.3</ele>
        <time>2025-01-10T10:29:48.000Z</time>
      </trkpt>
      <trkpt lat="43.5927" lon="6.79689">
        <ele>216.3</ele>
        <time>2025-01-10T10:29:47.000Z</time>
      </trkpt>
      <trkpt lat="43.5927" lon="6.79689">
        <ele>216.3</ele>
        <time>2025-01-10T10:29:46.000Z</time>
      </trkpt>
      <trkpt lat="43.5927" lon="6.79689">
        <ele>216.3</ele>
        <time>2025-01-10T10:29:45.000Z</time>
      </trkpt>
      <trkpt lat="43.5927" lon="6.79689">
        <ele>216.3</ele>
        <time>2025-01-10T10:29:44.000Z</time>
      </trkpt>
      <trkpt lat="43.5927" lon="6.79689">
        <ele>216.3</ele>
        <time>2025-01-10T10:29:43.000Z</time>
      </trkpt>
      <trkpt lat="43.5927" lon="6.79689">
        <ele>216.3</ele>
        <time>2025-01-10T10:29:42.000Z</time>
      </trkpt>
      <trkpt lat="43.5927" lon="6.79689">
        <ele>216.3</ele>
        <time>2025-01-10T10:29:41.000Z</time>
      </trkpt>
      <trkpt lat="43.5927" lon="6.79689">
        <ele>216.3</ele>
        <time>2025-01-10T10:29:40.000Z</time>
      </trkpt>
      <trkpt lat="43.5927" lon="6.79689">
        <ele>216.3</ele>
        <time>2025-01-10T10:29:39.000Z</time>
      </trkpt>
      <trkpt lat="43.5927" lon="6.79689">
        <ele>216.3</ele>
        <time>2025-01-10T10:29:38.000Z</time>
      </trkpt>
      <trkpt lat="43.5927" lon="6.79688">
        <ele>216.3</ele>
        <time>2025-01-10T10:29:37.000Z</time>
      </trkpt>
      <trkpt lat="43.5927" lon="6.79688">
        <ele>216.2</ele>
        <time>2025-01-10T10:29:36.000Z</time>
      </trkpt>
      <trkpt lat="43.5927" lon="6.79689">
        <ele>216.2</ele>
        <time>2025-01-10T10:29:35.000Z</time>
      </trkpt>
      <trkpt lat="43.59271" lon="6.79689">
        <ele>216.2</ele>
        <time>2025-01-10T10:29:34.000Z</time>
      </trkpt>
      <trkpt lat="43.59271" lon="6.79689">
        <ele>216.2</ele>
        <time>2025-01-10T10:29:33.000Z</time>
      </trkpt>
      <trkpt lat="43.59272" lon="6.79689">
        <ele>216.1</ele>
        <time>2025-01-10T10:29:32.000Z</time>
      </trkpt>
      <trkpt lat="43.59272" lon="6.7969">
        <ele>216.1</ele>
        <time>2025-01-10T10:29:31.000Z</time>
      </trkpt>
      <trkpt lat="43.59274" lon="6.79691">
        <ele>215.9</ele>
        <time>2025-01-10T10:29:30.000Z</time>
      </trkpt>
      <trkpt lat="43.59275" lon="6.79693">
        <ele>215.8</ele>
        <time>2025-01-10T10:29:29.000Z</time>
      </trkpt>
      <trkpt lat="43.59277" lon="6.79697">
        <ele>215.6</ele>
        <time>2025-01-10T10:29:28.000Z</time>
      </trkpt>
      <trkpt lat="43.59278" lon="6.79701">
        <ele>215.4</ele>
        <time>2025-01-10T10:29:27.000Z</time>
      </trkpt>
      <trkpt lat="43.59278" lon="6.79706">
        <ele>215.2</ele>
        <time>2025-01-10T10:29:26.000Z</time>
      </trkpt>
      <trkpt lat="43.59278" lon="6.7971">
        <ele>215</ele>
        <time>2025-01-10T10:29:25.000Z</time>
      </trkpt>
      <trkpt lat="43.59278" lon="6.79715">
        <ele>214.9</ele>
        <time>2025-01-10T10:29:24.000Z</time>
      </trkpt>
      <trkpt lat="43.59276" lon="6.7972">
        <ele>214.7</ele>
        <time>2025-01-10T10:29:23.000Z</time>
      </trkpt>
      <trkpt lat="43.59274" lon="6.79724">
        <ele>214.6</ele>
        <time>2025-01-10T10:29:22.000Z</time>
      </trkpt>
      <trkpt lat="43.59271" lon="6.79727">
        <ele>214.5</ele>
        <time>2025-01-10T10:29:21.000Z</time>
      </trkpt>
      <trkpt lat="43.59268" lon="6.7973">
        <ele>214.4</ele>
        <time>2025-01-10T10:29:20.000Z</time>
      </trkpt>
      <trkpt lat="43.59268" lon="6.7973">
        <ele>214.4</ele>
        <time>2025-01-10T10:29:19.000Z</time>
      </trkpt>
      <trkpt lat="43.59268" lon="6.7973">
        <ele>214.4</ele>
        <time>2025-01-10T10:29:18.000Z</time>
      </trkpt>
      <trkpt lat="43.59268" lon="6.7973">
        <ele>214.4</ele>
        <time>2025-01-10T10:29:17.000Z</time>
      </trkpt>
      <trkpt lat="43.59268" lon="6.7973">
        <ele>214.4</ele>
        <time>2025-01-10T10:29:16.000Z</time>
      </trkpt>
      <trkpt lat="43.59268" lon="6.7973">
        <ele>214.4</ele>
        <time>2025-01-10T10:29:15.000Z</time>
      </trkpt>
      <trkpt lat="43.59267" lon="6.7973">
        <ele>214.4</ele>
        <time>2025-01-10T10:29:14.000Z</time>
      </trkpt>
      <trkpt lat="43.59267" lon="6.7973">
        <ele>214.4</ele>
        <time>2025-01-10T10:29:13.000Z</time>
      </trkpt>
      <trkpt lat="43.59266" lon="6.7973">
        <ele>214.4</ele>
        <time>2025-01-10T10:29:12.000Z</time>
      </trkpt>
      <trkpt lat="43.59265" lon="6.7973">
        <ele>214.3</ele>
        <time>2025-01-10T10:29:11.000Z</time>
      </trkpt>
      <trkpt lat="43.59265" lon="6.79731">
        <ele>214.3</ele>
        <time>2025-01-10T10:29:10.000Z</time>
      </trkpt>
      <trkpt lat="43.59265" lon="6.79731">
        <ele>214.3</ele>
        <time>2025-01-10T10:29:09.000Z</time>
      </trkpt>
      <trkpt lat="43.59264" lon="6.79731">
        <ele>214.3</ele>
        <time>2025-01-10T10:29:08.000Z</time>
      </trkpt>
      <trkpt lat="43.59263" lon="6.79731">
        <ele>214.3</ele>
        <time>2025-01-10T10:29:07.000Z</time>
      </trkpt>
      <trkpt lat="43.59263" lon="6.79732">
        <ele>214.3</ele>
        <time>2025-01-10T10:29:06.000Z</time>
      </trkpt>
      <trkpt lat="43.59262" lon="6.79732">
        <ele>214.2</ele>
        <time>2025-01-10T10:29:05.000Z</time>
      </trkpt>
      <trkpt lat="43.59261" lon="6.79731">
        <ele>214.2</ele>
        <time>2025-01-10T10:29:04.000Z</time>
      </trkpt>
      <trkpt lat="43.59261" lon="6.79731">
        <ele>214.2</ele>
        <time>2025-01-10T10:29:03.000Z</time>
      </trkpt>
      <trkpt lat="43.59261" lon="6.79731">
        <ele>214.2</ele>
        <time>2025-01-10T10:29:02.000Z</time>
      </trkpt>
      <trkpt lat="43.59262" lon="6.79732">
        <ele>214.2</ele>
        <time>2025-01-10T10:29:01.000Z</time>
      </trkpt>
      <trkpt lat="43.59262" lon="6.79732">
        <ele>214.2</ele>
        <time>2025-01-10T10:29:00.000Z</time>
      </trkpt>
      <trkpt lat="43.59262" lon="6.79732">
        <ele>214.2</ele>
        <time>2025-01-10T10:28:59.000Z</time>
      </trkpt>
      <trkpt lat="43.59262" lon="6.79732">
        <ele>214.2</ele>
        <time>2025-01-10T10:28:58.000Z</time>
      </trkpt>
      <trkpt lat="43.59262" lon="6.79732">
        <ele>214.2</ele>
        <time>2025-01-10T10:28:57.000Z</time>
      </trkpt>
      <trkpt lat="43.59262" lon="6.79732">
        <ele>214.2</ele>
        <time>2025-01-10T10:28:56.000Z</time>
      </trkpt>
      <trkpt lat="43.59262" lon="6.79732">
        <ele>214.2</ele>
        <time>2025-01-10T10:28:55.000Z</time>
      </trkpt>
      <trkpt lat="43.59263" lon="6.79731">
        <ele>214.2</ele>
        <time>2025-01-10T10:28:54.000Z</time>
      </trkpt>
      <trkpt lat="43.59263" lon="6.79731">
        <ele>214.2</ele>
        <time>2025-01-10T10:28:53.000Z</time>
      </trkpt>
      <trkpt lat="43.59265" lon="6.79731">
        <ele>214.1</ele>
        <time>2025-01-10T10:28:52.000Z</time>
      </trkpt>
      <trkpt lat="43.59267" lon="6.7973">
        <ele>214.1</ele>
        <time>2025-01-10T10:28:51.000Z</time>
      </trkpt>
      <trkpt lat="43.5927" lon="6.7973">
        <ele>214</ele>
        <time>2025-01-10T10:28:50.000Z</time>
      </trkpt>
      <trkpt lat="43.59273" lon="6.79731">
        <ele>214.4</ele>
        <time>2025-01-10T10:28:49.000Z</time>
      </trkpt>
      <trkpt lat="43.59275" lon="6.79732">
        <ele>214.8</ele>
        <time>2025-01-10T10:28:48.000Z</time>
      </trkpt>
      <trkpt lat="43.59278" lon="6.79733">
        <ele>215.1</ele>
        <time>2025-01-10T10:28:47.000Z</time>
      </trkpt>
      <trkpt lat="43.5928" lon="6.79734">
        <ele>215.4</ele>
        <time>2025-01-10T10:28:46.000Z</time>
      </trkpt>
      <trkpt lat="43.59281" lon="6.79735">
        <ele>215.7</ele>
        <time>2025-01-10T10:28:45.000Z</time>
      </trkpt>
      <trkpt lat="43.59282" lon="6.79735">
        <ele>215.8</ele>
        <time>2025-01-10T10:28:44.000Z</time>
      </trkpt>
      <trkpt lat="43.59283" lon="6.79735">
        <ele>216</ele>
        <time>2025-01-10T10:28:43.000Z</time>
      </trkpt>
      <trkpt lat="43.59285" lon="6.79736">
        <ele>216.2</ele>
        <time>2025-01-10T10:28:42.000Z</time>
      </trkpt>
      <trkpt lat="43.59287" lon="6.79737">
        <ele>216.5</ele>
        <time>2025-01-10T10:28:41.000Z</time>
      </trkpt>
      <trkpt lat="43.5929" lon="6.79737">
        <ele>216.8</ele>
        <time>2025-01-10T10:28:40.000Z</time>
      </trkpt>
      <trkpt lat="43.59292" lon="6.79738">
        <ele>217.2</ele>
        <time>2025-01-10T10:28:39.000Z</time>
      </trkpt>
      <trkpt lat="43.59295" lon="6.79739">
        <ele>217.5</ele>
        <time>2025-01-10T10:28:38.000Z</time>
      </trkpt>
      <trkpt lat="43.59297" lon="6.79741">
        <ele>217.8</ele>
        <time>2025-01-10T10:28:37.000Z</time>
      </trkpt>
      <trkpt lat="43.59299" lon="6.79742">
        <ele>218.1</ele>
        <time>2025-01-10T10:28:36.000Z</time>
      </trkpt>
      <trkpt lat="43.59301" lon="6.79744">
        <ele>218.3</ele>
        <time>2025-01-10T10:28:35.000Z</time>
      </trkpt>
      <trkpt lat="43.59303" lon="6.79746">
        <ele>218.5</ele>
        <time>2025-01-10T10:28:34.000Z</time>
      </trkpt>
      <trkpt lat="43.59305" lon="6.79748">
        <ele>218.7</ele>
        <time>2025-01-10T10:28:33.000Z</time>
      </trkpt>
      <trkpt lat="43.59307" lon="6.79749">
        <ele>218.9</ele>
        <time>2025-01-10T10:28:32.000Z</time>
      </trkpt>
      <trkpt lat="43.5931" lon="6.79751">
        <ele>219.1</ele>
        <time>2025-01-10T10:28:31.000Z</time>
      </trkpt>
      <trkpt lat="43.59312" lon="6.79751">
        <ele>219.2</ele>
        <time>2025-01-10T10:28:30.000Z</time>
      </trkpt>
      <trkpt lat="43.59316" lon="6.79752">
        <ele>219.4</ele>
        <time>2025-01-10T10:28:29.000Z</time>
      </trkpt>
      <trkpt lat="43.59318" lon="6.79752">
        <ele>219.4</ele>
        <time>2025-01-10T10:28:28.000Z</time>
      </trkpt>
      <trkpt lat="43.59321" lon="6.79751">
        <ele>219.5</ele>
        <time>2025-01-10T10:28:27.000Z</time>
      </trkpt>
      <trkpt lat="43.59325" lon="6.79751">
        <ele>219.6</ele>
        <time>2025-01-10T10:28:26.000Z</time>
      </trkpt>
      <trkpt lat="43.59328" lon="6.79751">
        <ele>219.7</ele>
        <time>2025-01-10T10:28:25.000Z</time>
      </trkpt>
      <trkpt lat="43.59333" lon="6.79751">
        <ele>219.9</ele>
        <time>2025-01-10T10:28:24.000Z</time>
      </trkpt>
      <trkpt lat="43.59336" lon="6.79751">
        <ele>220</ele>
        <time>2025-01-10T10:28:23.000Z</time>
      </trkpt>
      <trkpt lat="43.5934" lon="6.79751">
        <ele>220.3</ele>
        <time>2025-01-10T10:28:22.000Z</time>
      </trkpt>
      <trkpt lat="43.59344" lon="6.7975">
        <ele>220.6</ele>
        <time>2025-01-10T10:28:21.000Z</time>
      </trkpt>
      <trkpt lat="43.59349" lon="6.7975">
        <ele>221</ele>
        <time>2025-01-10T10:28:20.000Z</time>
      </trkpt>
      <trkpt lat="43.59353" lon="6.79749">
        <ele>221.4</ele>
        <time>2025-01-10T10:28:19.000Z</time>
      </trkpt>
      <trkpt lat="43.59357" lon="6.79749">
        <ele>221.9</ele>
        <time>2025-01-10T10:28:18.000Z</time>
      </trkpt>
      <trkpt lat="43.59362" lon="6.7975">
        <ele>222.5</ele>
        <time>2025-01-10T10:28:17.000Z</time>
      </trkpt>
      <trkpt lat="43.59366" lon="6.79752">
        <ele>223</ele>
        <time>2025-01-10T10:28:16.000Z</time>
      </trkpt>
      <trkpt lat="43.59371" lon="6.79753">
        <ele>223.7</ele>
        <time>2025-01-10T10:28:15.000Z</time>
      </trkpt>
      <trkpt lat="43.59375" lon="6.79755">
        <ele>224.1</ele>
        <time>2025-01-10T10:28:14.000Z</time>
      </trkpt>
      <trkpt lat="43.59379" lon="6.79756">
        <ele>224.6</ele>
        <time>2025-01-10T10:28:13.000Z</time>
      </trkpt>
      <trkpt lat="43.59382" lon="6.79758">
        <ele>225</ele>
        <time>2025-01-10T10:28:12.000Z</time>
      </trkpt>
      <trkpt lat="43.59386" lon="6.79759">
        <ele>225.5</ele>
        <time>2025-01-10T10:28:11.000Z</time>
      </trkpt>
      <trkpt lat="43.59392" lon="6.7976">
        <ele>226.1</ele>
        <time>2025-01-10T10:28:10.000Z</time>
      </trkpt>
      <trkpt lat="43.59395" lon="6.79761">
        <ele>226.5</ele>
        <time>2025-01-10T10:28:09.000Z</time>
      </trkpt>
      <trkpt lat="43.59399" lon="6.79763">
        <ele>227.1</ele>
        <time>2025-01-10T10:28:08.000Z</time>
      </trkpt>
      <trkpt lat="43.59403" lon="6.79764">
        <ele>227.6</ele>
        <time>2025-01-10T10:28:07.000Z</time>
      </trkpt>
      <trkpt lat="43.59407" lon="6.79766">
        <ele>228.1</ele>
        <time>2025-01-10T10:28:06.000Z</time>
      </trkpt>
      <trkpt lat="43.59411" lon="6.79767">
        <ele>228.6</ele>
        <time>2025-01-10T10:28:05.000Z</time>
      </trkpt>
      <trkpt lat="43.59415" lon="6.79769">
        <ele>229.1</ele>
        <time>2025-01-10T10:28:04.000Z</time>
      </trkpt>
      <trkpt lat="43.59419" lon="6.79771">
        <ele>229.6</ele>
        <time>2025-01-10T10:28:03.000Z</time>
      </trkpt>
      <trkpt lat="43.59423" lon="6.79772">
        <ele>230.2</ele>
        <time>2025-01-10T10:28:02.000Z</time>
      </trkpt>
      <trkpt lat="43.59428" lon="6.79774">
        <ele>231</ele>
        <time>2025-01-10T10:28:01.000Z</time>
      </trkpt>
      <trkpt lat="43.59433" lon="6.79776">
        <ele>231.6</ele>
        <time>2025-01-10T10:28:00.000Z</time>
      </trkpt>
      <trkpt lat="43.59436" lon="6.79777">
        <ele>232</ele>
        <time>2025-01-10T10:27:59.000Z</time>
      </trkpt>
      <trkpt lat="43.5944" lon="6.79778">
        <ele>232.5</ele>
        <time>2025-01-10T10:27:58.000Z</time>
      </trkpt>
      <trkpt lat="43.59444" lon="6.7978">
        <ele>233</ele>
        <time>2025-01-10T10:27:57.000Z</time>
      </trkpt>
      <trkpt lat="43.59448" lon="6.79781">
        <ele>233.5</ele>
        <time>2025-01-10T10:27:56.000Z</time>
      </trkpt>
      <trkpt lat="43.59452" lon="6.79781">
        <ele>234</ele>
        <time>2025-01-10T10:27:55.000Z</time>
      </trkpt>
      <trkpt lat="43.59456" lon="6.79782">
        <ele>234.4</ele>
        <time>2025-01-10T10:27:54.000Z</time>
      </trkpt>
      <trkpt lat="43.59459" lon="6.79783">
        <ele>234.9</ele>
        <time>2025-01-10T10:27:53.000Z</time>
      </trkpt>
      <trkpt lat="43.59463" lon="6.79784">
        <ele>235.3</ele>
        <time>2025-01-10T10:27:52.000Z</time>
      </trkpt>
      <trkpt lat="43.59465" lon="6.79784">
        <ele>235.6</ele>
        <time>2025-01-10T10:27:51.000Z</time>
      </trkpt>
      <trkpt lat="43.59468" lon="6.79782">
        <ele>235.9</ele>
        <time>2025-01-10T10:27:50.000Z</time>
      </trkpt>
      <trkpt lat="43.59471" lon="6.7978">
        <ele>236.2</ele>
        <time>2025-01-10T10:27:49.000Z</time>
      </trkpt>
      <trkpt lat="43.59475" lon="6.79777">
        <ele>236.5</ele>
        <time>2025-01-10T10:27:48.000Z</time>
      </trkpt>
      <trkpt lat="43.5948" lon="6.79774">
        <ele>236.8</ele>
        <time>2025-01-10T10:27:47.000Z</time>
      </trkpt>
      <trkpt lat="43.59483" lon="6.79772">
        <ele>237.1</ele>
        <time>2025-01-10T10:27:46.000Z</time>
      </trkpt>
      <trkpt lat="43.59486" lon="6.7977">
        <ele>237.3</ele>
        <time>2025-01-10T10:27:45.000Z</time>
      </trkpt>
      <trkpt lat="43.59489" lon="6.79768">
        <ele>237.5</ele>
        <time>2025-01-10T10:27:44.000Z</time>
      </trkpt>
      <trkpt lat="43.59491" lon="6.79767">
        <ele>237.7</ele>
        <time>2025-01-10T10:27:43.000Z</time>
      </trkpt>
      <trkpt lat="43.59492" lon="6.79766">
        <ele>237.8</ele>
        <time>2025-01-10T10:27:42.000Z</time>
      </trkpt>
      <trkpt lat="43.59492" lon="6.79766">
        <ele>237.8</ele>
        <time>2025-01-10T10:27:41.000Z</time>
      </trkpt>
      <trkpt lat="43.59492" lon="6.79765">
        <ele>237.9</ele>
        <time>2025-01-10T10:27:40.000Z</time>
      </trkpt>
      <trkpt lat="43.59493" lon="6.79764">
        <ele>238</ele>
        <time>2025-01-10T10:27:39.000Z</time>
      </trkpt>
      <trkpt lat="43.59494" lon="6.79761">
        <ele>238.2</ele>
        <time>2025-01-10T10:27:38.000Z</time>
      </trkpt>
      <trkpt lat="43.59497" lon="6.79758">
        <ele>238.5</ele>
        <time>2025-01-10T10:27:37.000Z</time>
      </trkpt>
      <trkpt lat="43.595" lon="6.79754">
        <ele>238.9</ele>
        <time>2025-01-10T10:27:36.000Z</time>
      </trkpt>
      <trkpt lat="43.59504" lon="6.79751">
        <ele>239.3</ele>
        <time>2025-01-10T10:27:35.000Z</time>
      </trkpt>
      <trkpt lat="43.59509" lon="6.79748">
        <ele>239.8</ele>
        <time>2025-01-10T10:27:34.000Z</time>
      </trkpt>
      <trkpt lat="43.59514" lon="6.79746">
        <ele>240.3</ele>
        <time>2025-01-10T10:27:33.000Z</time>
      </trkpt>
      <trkpt lat="43.59519" lon="6.79742">
        <ele>240.8</ele>
        <time>2025-01-10T10:27:32.000Z</time>
      </trkpt>
      <trkpt lat="43.59522" lon="6.79739">
        <ele>241.2</ele>
        <time>2025-01-10T10:27:31.000Z</time>
      </trkpt>
      <trkpt lat="43.59525" lon="6.79736">
        <ele>241.4</ele>
        <time>2025-01-10T10:27:30.000Z</time>
      </trkpt>
      <trkpt lat="43.59526" lon="6.79734">
        <ele>241.5</ele>
        <time>2025-01-10T10:27:29.000Z</time>
      </trkpt>
      <trkpt lat="43.59527" lon="6.79733">
        <ele>241.6</ele>
        <time>2025-01-10T10:27:28.000Z</time>
      </trkpt>
      <trkpt lat="43.59527" lon="6.79732">
        <ele>241.6</ele>
        <time>2025-01-10T10:27:27.000Z</time>
      </trkpt>
      <trkpt lat="43.59527" lon="6.79731">
        <ele>241.6</ele>
        <time>2025-01-10T10:27:26.000Z</time>
      </trkpt>
      <trkpt lat="43.59528" lon="6.79731">
        <ele>241.6</ele>
        <time>2025-01-10T10:27:25.000Z</time>
      </trkpt>
      <trkpt lat="43.59529" lon="6.7973">
        <ele>241.7</ele>
        <time>2025-01-10T10:27:24.000Z</time>
      </trkpt>
      <trkpt lat="43.5953" lon="6.79728">
        <ele>241.8</ele>
        <time>2025-01-10T10:27:23.000Z</time>
      </trkpt>
      <trkpt lat="43.59533" lon="6.79726">
        <ele>241.8</ele>
        <time>2025-01-10T10:27:22.000Z</time>
      </trkpt>
      <trkpt lat="43.59536" lon="6.79724">
        <ele>241.9</ele>
        <time>2025-01-10T10:27:21.000Z</time>
      </trkpt>
      <trkpt lat="43.59538" lon="6.79722">
        <ele>241.9</ele>
        <time>2025-01-10T10:27:20.000Z</time>
      </trkpt>
      <trkpt lat="43.5954" lon="6.7972">
        <ele>241.9</ele>
        <time>2025-01-10T10:27:19.000Z</time>
      </trkpt>
      <trkpt lat="43.59542" lon="6.79718">
        <ele>241.9</ele>
        <time>2025-01-10T10:27:18.000Z</time>
      </trkpt>
      <trkpt lat="43.59543" lon="6.79717">
        <ele>241.9</ele>
        <time>2025-01-10T10:27:17.000Z</time>
      </trkpt>
      <trkpt lat="43.59545" lon="6.79716">
        <ele>241.9</ele>
        <time>2025-01-10T10:27:16.000Z</time>
      </trkpt>
      <trkpt lat="43.59544" lon="6.79714">
        <ele>241.9</ele>
        <time>2025-01-10T10:27:15.000Z</time>
      </trkpt>
      <trkpt lat="43.59544" lon="6.79713">
        <ele>241.9</ele>
        <time>2025-01-10T10:27:14.000Z</time>
      </trkpt>
      <trkpt lat="43.59545" lon="6.79713">
        <ele>241.9</ele>
        <time>2025-01-10T10:27:13.000Z</time>
      </trkpt>
      <trkpt lat="43.59545" lon="6.79714">
        <ele>241.9</ele>
        <time>2025-01-10T10:27:12.000Z</time>
      </trkpt>
      <trkpt lat="43.59545" lon="6.79714">
        <ele>241.9</ele>
        <time>2025-01-10T10:27:11.000Z</time>
      </trkpt>
      <trkpt lat="43.59545" lon="6.79714">
        <ele>241.9</ele>
        <time>2025-01-10T10:27:10.000Z</time>
      </trkpt>
      <trkpt lat="43.59544" lon="6.79714">
        <ele>241.9</ele>
        <time>2025-01-10T10:27:09.000Z</time>
      </trkpt>
      <trkpt lat="43.59544" lon="6.79714">
        <ele>241.9</ele>
        <time>2025-01-10T10:27:08.000Z</time>
      </trkpt>
      <trkpt lat="43.59544" lon="6.79715">
        <ele>241.9</ele>
        <time>2025-01-10T10:27:07.000Z</time>
      </trkpt>
      <trkpt lat="43.59544" lon="6.79715">
        <ele>241.9</ele>
        <time>2025-01-10T10:27:06.000Z</time>
      </trkpt>
      <trkpt lat="43.59544" lon="6.79715">
        <ele>241.9</ele>
        <time>2025-01-10T10:27:05.000Z</time>
      </trkpt>
      <trkpt lat="43.59544" lon="6.79715">
        <ele>241.9</ele>
        <time>2025-01-10T10:27:04.000Z</time>
      </trkpt>
      <trkpt lat="43.59544" lon="6.79716">
        <ele>241.9</ele>
        <time>2025-01-10T10:27:03.000Z</time>
      </trkpt>
      <trkpt lat="43.59545" lon="6.79716">
        <ele>241.9</ele>
        <time>2025-01-10T10:27:02.000Z</time>
      </trkpt>
      <trkpt lat="43.59546" lon="6.79717">
        <ele>241.9</ele>
        <time>2025-01-10T10:27:01.000Z</time>
      </trkpt>
      <trkpt lat="43.59548" lon="6.79719">
        <ele>241.9</ele>
        <time>2025-01-10T10:27:00.000Z</time>
      </trkpt>
      <trkpt lat="43.5955" lon="6.79722">
        <ele>241.9</ele>
        <time>2025-01-10T10:26:59.000Z</time>
      </trkpt>
      <trkpt lat="43.59554" lon="6.79726">
        <ele>241.9</ele>
        <time>2025-01-10T10:26:58.000Z</time>
      </trkpt>
      <trkpt lat="43.59557" lon="6.79731">
        <ele>241.9</ele>
        <time>2025-01-10T10:26:57.000Z</time>
      </trkpt>
      <trkpt lat="43.59561" lon="6.79737">
        <ele>241.9</ele>
        <time>2025-01-10T10:26:56.000Z</time>
      </trkpt>
      <trkpt lat="43.59565" lon="6.79743">
        <ele>241.9</ele>
        <time>2025-01-10T10:26:55.000Z</time>
      </trkpt>
      <trkpt lat="43.5957" lon="6.79748">
        <ele>242</ele>
        <time>2025-01-10T10:26:54.000Z</time>
      </trkpt>
      <trkpt lat="43.59574" lon="6.79754">
        <ele>242</ele>
        <time>2025-01-10T10:26:53.000Z</time>
      </trkpt>
      <trkpt lat="43.59579" lon="6.79759">
        <ele>242.1</ele>
        <time>2025-01-10T10:26:52.000Z</time>
      </trkpt>
      <trkpt lat="43.59583" lon="6.79765">
        <ele>242.2</ele>
        <time>2025-01-10T10:26:51.000Z</time>
      </trkpt>
      <trkpt lat="43.59588" lon="6.79771">
        <ele>242.4</ele>
        <time>2025-01-10T10:26:50.000Z</time>
      </trkpt>
      <trkpt lat="43.59592" lon="6.79776">
        <ele>242.5</ele>
        <time>2025-01-10T10:26:49.000Z</time>
      </trkpt>
      <trkpt lat="43.59597" lon="6.79781">
        <ele>242.7</ele>
        <time>2025-01-10T10:26:48.000Z</time>
      </trkpt>
      <trkpt lat="43.59601" lon="6.79787">
        <ele>242.8</ele>
        <time>2025-01-10T10:26:47.000Z</time>
      </trkpt>
      <trkpt lat="43.59606" lon="6.79792">
        <ele>243</ele>
        <time>2025-01-10T10:26:46.000Z</time>
      </trkpt>
      <trkpt lat="43.5961" lon="6.79798">
        <ele>243.2</ele>
        <time>2025-01-10T10:26:45.000Z</time>
      </trkpt>
      <trkpt lat="43.59615" lon="6.79803">
        <ele>243.3</ele>
        <time>2025-01-10T10:26:44.000Z</time>
      </trkpt>
      <trkpt lat="43.59619" lon="6.79809">
        <ele>243.5</ele>
        <time>2025-01-10T10:26:43.000Z</time>
      </trkpt>
      <trkpt lat="43.59624" lon="6.79815">
        <ele>243.6</ele>
        <time>2025-01-10T10:26:42.000Z</time>
      </trkpt>
      <trkpt lat="43.59628" lon="6.79821">
        <ele>243.8</ele>
        <time>2025-01-10T10:26:41.000Z</time>
      </trkpt>
      <trkpt lat="43.59632" lon="6.79827">
        <ele>244</ele>
        <time>2025-01-10T10:26:40.000Z</time>
      </trkpt>
      <trkpt lat="43.59636" lon="6.79833">
        <ele>244.2</ele>
        <time>2025-01-10T10:26:39.000Z</time>
      </trkpt>
      <trkpt lat="43.5964" lon="6.79839">
        <ele>244.4</ele>
        <time>2025-01-10T10:26:38.000Z</time>
      </trkpt>
      <trkpt lat="43.59643" lon="6.79846">
        <ele>244.6</ele>
        <time>2025-01-10T10:26:37.000Z</time>
      </trkpt>
      <trkpt lat="43.59647" lon="6.79852">
        <ele>244.7</ele>
        <time>2025-01-10T10:26:36.000Z</time>
      </trkpt>
      <trkpt lat="43.5965" lon="6.79858">
        <ele>244.9</ele>
        <time>2025-01-10T10:26:35.000Z</time>
      </trkpt>
      <trkpt lat="43.59653" lon="6.79864">
        <ele>245.1</ele>
        <time>2025-01-10T10:26:34.000Z</time>
      </trkpt>
      <trkpt lat="43.59656" lon="6.79871">
        <ele>245.2</ele>
        <time>2025-01-10T10:26:33.000Z</time>
      </trkpt>
      <trkpt lat="43.59659" lon="6.79878">
        <ele>245.4</ele>
        <time>2025-01-10T10:26:32.000Z</time>
      </trkpt>
      <trkpt lat="43.59662" lon="6.79884">
        <ele>245.5</ele>
        <time>2025-01-10T10:26:31.000Z</time>
      </trkpt>
      <trkpt lat="43.59665" lon="6.7989">
        <ele>245.6</ele>
        <time>2025-01-10T10:26:30.000Z</time>
      </trkpt>
      <trkpt lat="43.59668" lon="6.79897">
        <ele>245.7</ele>
        <time>2025-01-10T10:26:29.000Z</time>
      </trkpt>
      <trkpt lat="43.59671" lon="6.79903">
        <ele>245.8</ele>
        <time>2025-01-10T10:26:28.000Z</time>
      </trkpt>
      <trkpt lat="43.59674" lon="6.79909">
        <ele>245.8</ele>
        <time>2025-01-10T10:26:27.000Z</time>
      </trkpt>
      <trkpt lat="43.59677" lon="6.79915">
        <ele>245.9</ele>
        <time>2025-01-10T10:26:26.000Z</time>
      </trkpt>
      <trkpt lat="43.59679" lon="6.79922">
        <ele>246</ele>
        <time>2025-01-10T10:26:25.000Z</time>
      </trkpt>
      <trkpt lat="43.59682" lon="6.79927">
        <ele>246.1</ele>
        <time>2025-01-10T10:26:24.000Z</time>
      </trkpt>
      <trkpt lat="43.59684" lon="6.79933">
        <ele>246.2</ele>
        <time>2025-01-10T10:26:23.000Z</time>
      </trkpt>
      <trkpt lat="43.59687" lon="6.79939">
        <ele>246.3</ele>
        <time>2025-01-10T10:26:22.000Z</time>
      </trkpt>
      <trkpt lat="43.59689" lon="6.79945">
        <ele>246.4</ele>
        <time>2025-01-10T10:26:21.000Z</time>
      </trkpt>
      <trkpt lat="43.59691" lon="6.7995">
        <ele>246.5</ele>
        <time>2025-01-10T10:26:20.000Z</time>
      </trkpt>
      <trkpt lat="43.59693" lon="6.79956">
        <ele>246.6</ele>
        <time>2025-01-10T10:26:19.000Z</time>
      </trkpt>
      <trkpt lat="43.59696" lon="6.79962">
        <ele>246.7</ele>
        <time>2025-01-10T10:26:18.000Z</time>
      </trkpt>
      <trkpt lat="43.59698" lon="6.79967">
        <ele>246.8</ele>
        <time>2025-01-10T10:26:17.000Z</time>
      </trkpt>
      <trkpt lat="43.597" lon="6.79973">
        <ele>246.8</ele>
        <time>2025-01-10T10:26:16.000Z</time>
      </trkpt>
      <trkpt lat="43.59702" lon="6.79979">
        <ele>246.9</ele>
        <time>2025-01-10T10:26:15.000Z</time>
      </trkpt>
      <trkpt lat="43.59704" lon="6.79984">
        <ele>247</ele>
        <time>2025-01-10T10:26:14.000Z</time>
      </trkpt>
      <trkpt lat="43.59707" lon="6.7999">
        <ele>247.1</ele>
        <time>2025-01-10T10:26:13.000Z</time>
      </trkpt>
      <trkpt lat="43.59709" lon="6.79996">
        <ele>247.2</ele>
        <time>2025-01-10T10:26:12.000Z</time>
      </trkpt>
      <trkpt lat="43.59712" lon="6.80002">
        <ele>247.3</ele>
        <time>2025-01-10T10:26:11.000Z</time>
      </trkpt>
      <trkpt lat="43.59715" lon="6.80007">
        <ele>247.4</ele>
        <time>2025-01-10T10:26:10.000Z</time>
      </trkpt>
      <trkpt lat="43.59717" lon="6.80013">
        <ele>247.4</ele>
        <time>2025-01-10T10:26:09.000Z</time>
      </trkpt>
      <trkpt lat="43.5972" lon="6.80018">
        <ele>247.5</ele>
        <time>2025-01-10T10:26:08.000Z</time>
      </trkpt>
      <trkpt lat="43.59723" lon="6.80023">
        <ele>247.6</ele>
        <time>2025-01-10T10:26:07.000Z</time>
      </trkpt>
      <trkpt lat="43.59725" lon="6.80028">
        <ele>247.7</ele>
        <time>2025-01-10T10:26:06.000Z</time>
      </trkpt>
      <trkpt lat="43.59728" lon="6.80034">
        <ele>247.7</ele>
        <time>2025-01-10T10:26:05.000Z</time>
      </trkpt>
      <trkpt lat="43.59731" lon="6.80039">
        <ele>247.8</ele>
        <time>2025-01-10T10:26:04.000Z</time>
      </trkpt>
      <trkpt lat="43.59734" lon="6.80044">
        <ele>247.8</ele>
        <time>2025-01-10T10:26:03.000Z</time>
      </trkpt>
      <trkpt lat="43.59737" lon="6.80049">
        <ele>247.9</ele>
        <time>2025-01-10T10:26:02.000Z</time>
      </trkpt>
      <trkpt lat="43.5974" lon="6.80053">
        <ele>247.9</ele>
        <time>2025-01-10T10:26:01.000Z</time>
      </trkpt>
      <trkpt lat="43.59743" lon="6.80058">
        <ele>248</ele>
        <time>2025-01-10T10:26:00.000Z</time>
      </trkpt>
      <trkpt lat="43.59746" lon="6.80063">
        <ele>248</ele>
        <time>2025-01-10T10:25:59.000Z</time>
      </trkpt>
      <trkpt lat="43.59749" lon="6.80067">
        <ele>248</ele>
        <time>2025-01-10T10:25:58.000Z</time>
      </trkpt>
      <trkpt lat="43.59753" lon="6.80071">
        <ele>248</ele>
        <time>2025-01-10T10:25:57.000Z</time>
      </trkpt>
      <trkpt lat="43.59756" lon="6.80075">
        <ele>248</ele>
        <time>2025-01-10T10:25:56.000Z</time>
      </trkpt>
      <trkpt lat="43.5976" lon="6.80079">
        <ele>248</ele>
        <time>2025-01-10T10:25:55.000Z</time>
      </trkpt>
      <trkpt lat="43.59764" lon="6.80083">
        <ele>248</ele>
        <time>2025-01-10T10:25:54.000Z</time>
      </trkpt>
      <trkpt lat="43.59768" lon="6.80086">
        <ele>247.9</ele>
        <time>2025-01-10T10:25:53.000Z</time>
      </trkpt>
      <trkpt lat="43.59772" lon="6.80089">
        <ele>247.9</ele>
        <time>2025-01-10T10:25:52.000Z</time>
      </trkpt>
      <trkpt lat="43.59775" lon="6.80092">
        <ele>247.9</ele>
        <time>2025-01-10T10:25:51.000Z</time>
      </trkpt>
      <trkpt lat="43.59779" lon="6.80095">
        <ele>247.8</ele>
        <time>2025-01-10T10:25:50.000Z</time>
      </trkpt>
      <trkpt lat="43.59783" lon="6.80098">
        <ele>247.7</ele>
        <time>2025-01-10T10:25:49.000Z</time>
      </trkpt>
      <trkpt lat="43.59787" lon="6.80101">
        <ele>247.7</ele>
        <time>2025-01-10T10:25:48.000Z</time>
      </trkpt>
      <trkpt lat="43.59791" lon="6.80104">
        <ele>247.6</ele>
        <time>2025-01-10T10:25:47.000Z</time>
      </trkpt>
      <trkpt lat="43.59794" lon="6.80107">
        <ele>247.6</ele>
        <time>2025-01-10T10:25:46.000Z</time>
      </trkpt>
      <trkpt lat="43.59797" lon="6.8011">
        <ele>247.5</ele>
        <time>2025-01-10T10:25:45.000Z</time>
      </trkpt>
      <trkpt lat="43.598" lon="6.80113">
        <ele>247.5</ele>
        <time>2025-01-10T10:25:44.000Z</time>
      </trkpt>
      <trkpt lat="43.59802" lon="6.80116">
        <ele>247.4</ele>
        <time>2025-01-10T10:25:43.000Z</time>
      </trkpt>
      <trkpt lat="43.59803" lon="6.80119">
        <ele>247.4</ele>
        <time>2025-01-10T10:25:42.000Z</time>
      </trkpt>
      <trkpt lat="43.59804" lon="6.80123">
        <ele>247.4</ele>
        <time>2025-01-10T10:25:41.000Z</time>
      </trkpt>
      <trkpt lat="43.59804" lon="6.80126">
        <ele>247.3</ele>
        <time>2025-01-10T10:25:40.000Z</time>
      </trkpt>
      <trkpt lat="43.59805" lon="6.80129">
        <ele>247.3</ele>
        <time>2025-01-10T10:25:39.000Z</time>
      </trkpt>
      <trkpt lat="43.59804" lon="6.80133">
        <ele>247.2</ele>
        <time>2025-01-10T10:25:38.000Z</time>
      </trkpt>
      <trkpt lat="43.59803" lon="6.80135">
        <ele>247</ele>
        <time>2025-01-10T10:25:37.000Z</time>
      </trkpt>
      <trkpt lat="43.59801" lon="6.80138">
        <ele>246.9</ele>
        <time>2025-01-10T10:25:36.000Z</time>
      </trkpt>
      <trkpt lat="43.59799" lon="6.80141">
        <ele>246.8</ele>
        <time>2025-01-10T10:25:35.000Z</time>
      </trkpt>
      <trkpt lat="43.59797" lon="6.80144">
        <ele>246.7</ele>
        <time>2025-01-10T10:25:34.000Z</time>
      </trkpt>
      <trkpt lat="43.59795" lon="6.80147">
        <ele>246.6</ele>
        <time>2025-01-10T10:25:33.000Z</time>
      </trkpt>
      <trkpt lat="43.59792" lon="6.8015">
        <ele>246.5</ele>
        <time>2025-01-10T10:25:32.000Z</time>
      </trkpt>
      <trkpt lat="43.5979" lon="6.80152">
        <ele>246.4</ele>
        <time>2025-01-10T10:25:31.000Z</time>
      </trkpt>
      <trkpt lat="43.59787" lon="6.80154">
        <ele>246.3</ele>
        <time>2025-01-10T10:25:30.000Z</time>
      </trkpt>
      <trkpt lat="43.59784" lon="6.80156">
        <ele>246.2</ele>
        <time>2025-01-10T10:25:29.000Z</time>
      </trkpt>
      <trkpt lat="43.59781" lon="6.80157">
        <ele>246.1</ele>
        <time>2025-01-10T10:25:28.000Z</time>
      </trkpt>
      <trkpt lat="43.59778" lon="6.80158">
        <ele>246</ele>
        <time>2025-01-10T10:25:27.000Z</time>
      </trkpt>
      <trkpt lat="43.59774" lon="6.80159">
        <ele>245.9</ele>
        <time>2025-01-10T10:25:26.000Z</time>
      </trkpt>
      <trkpt lat="43.59771" lon="6.8016">
        <ele>245.8</ele>
        <time>2025-01-10T10:25:25.000Z</time>
      </trkpt>
      <trkpt lat="43.59768" lon="6.80161">
        <ele>245.7</ele>
        <time>2025-01-10T10:25:24.000Z</time>
      </trkpt>
      <trkpt lat="43.59764" lon="6.80161">
        <ele>245.6</ele>
        <time>2025-01-10T10:25:23.000Z</time>
      </trkpt>
      <trkpt lat="43.59761" lon="6.80162">
        <ele>245.5</ele>
        <time>2025-01-10T10:25:22.000Z</time>
      </trkpt>
      <trkpt lat="43.59757" lon="6.80162">
        <ele>245.4</ele>
        <time>2025-01-10T10:25:21.000Z</time>
      </trkpt>
      <trkpt lat="43.59754" lon="6.80161">
        <ele>245.3</ele>
        <time>2025-01-10T10:25:20.000Z</time>
      </trkpt>
      <trkpt lat="43.5975" lon="6.80158">
        <ele>245.1</ele>
        <time>2025-01-10T10:25:19.000Z</time>
      </trkpt>
      <trkpt lat="43.59747" lon="6.80155">
        <ele>245</ele>
        <time>2025-01-10T10:25:18.000Z</time>
      </trkpt>
      <trkpt lat="43.59745" lon="6.8015">
        <ele>244.9</ele>
        <time>2025-01-10T10:25:17.000Z</time>
      </trkpt>
      <trkpt lat="43.59742" lon="6.80145">
        <ele>244.7</ele>
        <time>2025-01-10T10:25:16.000Z</time>
      </trkpt>
      <trkpt lat="43.59741" lon="6.80139">
        <ele>244.6</ele>
        <time>2025-01-10T10:25:15.000Z</time>
      </trkpt>
      <trkpt lat="43.5974" lon="6.80133">
        <ele>244.4</ele>
        <time>2025-01-10T10:25:14.000Z</time>
      </trkpt>
      <trkpt lat="43.59739" lon="6.80126">
        <ele>244.3</ele>
        <time>2025-01-10T10:25:13.000Z</time>
      </trkpt>
      <trkpt lat="43.59739" lon="6.8012">
        <ele>244.2</ele>
        <time>2025-01-10T10:25:12.000Z</time>
      </trkpt>
      <trkpt lat="43.59739" lon="6.80115">
        <ele>244</ele>
        <time>2025-01-10T10:25:11.000Z</time>
      </trkpt>
      <trkpt lat="43.59738" lon="6.8011">
        <ele>243.9</ele>
        <time>2025-01-10T10:25:10.000Z</time>
      </trkpt>
      <trkpt lat="43.59738" lon="6.80105">
        <ele>243.8</ele>
        <time>2025-01-10T10:25:09.000Z</time>
      </trkpt>
      <trkpt lat="43.59739" lon="6.801">
        <ele>243.7</ele>
        <time>2025-01-10T10:25:08.000Z</time>
      </trkpt>
      <trkpt lat="43.59739" lon="6.80096">
        <ele>243.6</ele>
        <time>2025-01-10T10:25:07.000Z</time>
      </trkpt>
      <trkpt lat="43.5974" lon="6.80093">
        <ele>243.5</ele>
        <time>2025-01-10T10:25:06.000Z</time>
      </trkpt>
      <trkpt lat="43.59742" lon="6.8009">
        <ele>243.4</ele>
        <time>2025-01-10T10:25:05.000Z</time>
      </trkpt>
      <trkpt lat="43.59743" lon="6.80088">
        <ele>243.4</ele>
        <time>2025-01-10T10:25:04.000Z</time>
      </trkpt>
      <trkpt lat="43.59745" lon="6.80088">
        <ele>243.3</ele>
        <time>2025-01-10T10:25:03.000Z</time>
      </trkpt>
      <trkpt lat="43.59746" lon="6.80089">
        <ele>243.3</ele>
        <time>2025-01-10T10:25:02.000Z</time>
      </trkpt>
      <trkpt lat="43.59747" lon="6.80091">
        <ele>243.2</ele>
        <time>2025-01-10T10:25:01.000Z</time>
      </trkpt>
      <trkpt lat="43.59746" lon="6.80092">
        <ele>243.2</ele>
        <time>2025-01-10T10:25:00.000Z</time>
      </trkpt>
      <trkpt lat="43.59744" lon="6.80093">
        <ele>243.1</ele>
        <time>2025-01-10T10:24:59.000Z</time>
      </trkpt>
      <trkpt lat="43.59742" lon="6.80093">
        <ele>243.1</ele>
        <time>2025-01-10T10:24:58.000Z</time>
      </trkpt>
      <trkpt lat="43.59741" lon="6.80094">
        <ele>243</ele>
        <time>2025-01-10T10:24:57.000Z</time>
      </trkpt>
      <trkpt lat="43.59739" lon="6.80095">
        <ele>243</ele>
        <time>2025-01-10T10:24:56.000Z</time>
      </trkpt>
      <trkpt lat="43.59738" lon="6.80098">
        <ele>242.9</ele>
        <time>2025-01-10T10:24:55.000Z</time>
      </trkpt>
      <trkpt lat="43.59737" lon="6.80101">
        <ele>242.8</ele>
        <time>2025-01-10T10:24:54.000Z</time>
      </trkpt>
      <trkpt lat="43.59737" lon="6.80104">
        <ele>242.7</ele>
        <time>2025-01-10T10:24:53.000Z</time>
      </trkpt>
      <trkpt lat="43.59736" lon="6.80107">
        <ele>242.7</ele>
        <time>2025-01-10T10:24:52.000Z</time>
      </trkpt>
      <trkpt lat="43.59736" lon="6.80111">
        <ele>242.6</ele>
        <time>2025-01-10T10:24:51.000Z</time>
      </trkpt>
      <trkpt lat="43.59737" lon="6.80115">
        <ele>242.5</ele>
        <time>2025-01-10T10:24:50.000Z</time>
      </trkpt>
      <trkpt lat="43.59737" lon="6.80119">
        <ele>242.4</ele>
        <time>2025-01-10T10:24:49.000Z</time>
      </trkpt>
      <trkpt lat="43.59737" lon="6.80124">
        <ele>242.3</ele>
        <time>2025-01-10T10:24:48.000Z</time>
      </trkpt>
      <trkpt lat="43.59738" lon="6.80128">
        <ele>242.2</ele>
        <time>2025-01-10T10:24:47.000Z</time>
      </trkpt>
      <trkpt lat="43.59738" lon="6.80132">
        <ele>242.1</ele>
        <time>2025-01-10T10:24:46.000Z</time>
      </trkpt>
      <trkpt lat="43.59739" lon="6.80136">
        <ele>242</ele>
        <time>2025-01-10T10:24:45.000Z</time>
      </trkpt>
      <trkpt lat="43.59739" lon="6.8014">
        <ele>241.9</ele>
        <time>2025-01-10T10:24:44.000Z</time>
      </trkpt>
      <trkpt lat="43.5974" lon="6.80144">
        <ele>241.8</ele>
        <time>2025-01-10T10:24:43.000Z</time>
      </trkpt>
      <trkpt lat="43.59742" lon="6.80148">
        <ele>241.7</ele>
        <time>2025-01-10T10:24:42.000Z</time>
      </trkpt>
      <trkpt lat="43.59744" lon="6.80151">
        <ele>241.6</ele>
        <time>2025-01-10T10:24:41.000Z</time>
      </trkpt>
      <trkpt lat="43.59746" lon="6.80154">
        <ele>241.7</ele>
        <time>2025-01-10T10:24:40.000Z</time>
      </trkpt>
      <trkpt lat="43.59748" lon="6.80156">
        <ele>242</ele>
        <time>2025-01-10T10:24:39.000Z</time>
      </trkpt>
      <trkpt lat="43.59751" lon="6.80158">
        <ele>242.2</ele>
        <time>2025-01-10T10:24:38.000Z</time>
      </trkpt>
      <trkpt lat="43.59755" lon="6.8016">
        <ele>242.5</ele>
        <time>2025-01-10T10:24:37.000Z</time>
      </trkpt>
      <trkpt lat="43.59758" lon="6.80161">
        <ele>242.8</ele>
        <time>2025-01-10T10:24:36.000Z</time>
      </trkpt>
      <trkpt lat="43.59761" lon="6.80161">
        <ele>243</ele>
        <time>2025-01-10T10:24:35.000Z</time>
      </trkpt>
      <trkpt lat="43.59764" lon="6.8016">
        <ele>243.3</ele>
        <time>2025-01-10T10:24:34.000Z</time>
      </trkpt>
      <trkpt lat="43.59767" lon="6.8016">
        <ele>243.5</ele>
        <time>2025-01-10T10:24:33.000Z</time>
      </trkpt>
      <trkpt lat="43.5977" lon="6.80159">
        <ele>243.8</ele>
        <time>2025-01-10T10:24:32.000Z</time>
      </trkpt>
      <trkpt lat="43.59774" lon="6.80157">
        <ele>244.1</ele>
        <time>2025-01-10T10:24:31.000Z</time>
      </trkpt>
      <trkpt lat="43.59778" lon="6.80155">
        <ele>244.5</ele>
        <time>2025-01-10T10:24:30.000Z</time>
      </trkpt>
      <trkpt lat="43.59783" lon="6.80153">
        <ele>244.8</ele>
        <time>2025-01-10T10:24:29.000Z</time>
      </trkpt>
      <trkpt lat="43.59787" lon="6.8015">
        <ele>245.2</ele>
        <time>2025-01-10T10:24:28.000Z</time>
      </trkpt>
      <trkpt lat="43.59791" lon="6.80147">
        <ele>245.6</ele>
        <time>2025-01-10T10:24:27.000Z</time>
      </trkpt>
      <trkpt lat="43.59794" lon="6.80144">
        <ele>245.9</ele>
        <time>2025-01-10T10:24:26.000Z</time>
      </trkpt>
      <trkpt lat="43.59797" lon="6.80141">
        <ele>246.2</ele>
        <time>2025-01-10T10:24:25.000Z</time>
      </trkpt>
      <trkpt lat="43.598" lon="6.80138">
        <ele>246.5</ele>
        <time>2025-01-10T10:24:24.000Z</time>
      </trkpt>
      <trkpt lat="43.59802" lon="6.80136">
        <ele>246.7</ele>
        <time>2025-01-10T10:24:23.000Z</time>
      </trkpt>
      <trkpt lat="43.59805" lon="6.80134">
        <ele>246.9</ele>
        <time>2025-01-10T10:24:22.000Z</time>
      </trkpt>
      <trkpt lat="43.59806" lon="6.80134">
        <ele>247</ele>
        <time>2025-01-10T10:24:21.000Z</time>
      </trkpt>
      <trkpt lat="43.59807" lon="6.80135">
        <ele>247.1</ele>
        <time>2025-01-10T10:24:20.000Z</time>
      </trkpt>
      <trkpt lat="43.59808" lon="6.80135">
        <ele>247.1</ele>
        <time>2025-01-10T10:24:19.000Z</time>
      </trkpt>
      <trkpt lat="43.59807" lon="6.80135">
        <ele>247.2</ele>
        <time>2025-01-10T10:24:18.000Z</time>
      </trkpt>
      <trkpt lat="43.59807" lon="6.80135">
        <ele>247.2</ele>
        <time>2025-01-10T10:24:17.000Z</time>
      </trkpt>
      <trkpt lat="43.59807" lon="6.80136">
        <ele>247.2</ele>
        <time>2025-01-10T10:24:16.000Z</time>
      </trkpt>
      <trkpt lat="43.59807" lon="6.80136">
        <ele>247.2</ele>
        <time>2025-01-10T10:24:15.000Z</time>
      </trkpt>
      <trkpt lat="43.59807" lon="6.80136">
        <ele>247.2</ele>
        <time>2025-01-10T10:24:14.000Z</time>
      </trkpt>
      <trkpt lat="43.59807" lon="6.80136">
        <ele>247.2</ele>
        <time>2025-01-10T10:24:13.000Z</time>
      </trkpt>
      <trkpt lat="43.59807" lon="6.80136">
        <ele>247.2</ele>
        <time>2025-01-10T10:24:12.000Z</time>
      </trkpt>
      <trkpt lat="43.59807" lon="6.80136">
        <ele>247.2</ele>
        <time>2025-01-10T10:24:11.000Z</time>
      </trkpt>
      <trkpt lat="43.59806" lon="6.80136">
        <ele>247.2</ele>
        <time>2025-01-10T10:24:10.000Z</time>
      </trkpt>
      <trkpt lat="43.59806" lon="6.80136">
        <ele>247.2</ele>
        <time>2025-01-10T10:24:09.000Z</time>
      </trkpt>
      <trkpt lat="43.59807" lon="6.80137">
        <ele>247.2</ele>
        <time>2025-01-10T10:24:08.000Z</time>
      </trkpt>
      <trkpt lat="43.59807" lon="6.80138">
        <ele>247.2</ele>
        <time>2025-01-10T10:24:07.000Z</time>
      </trkpt>
      <trkpt lat="43.59808" lon="6.80139">
        <ele>247.1</ele>
        <time>2025-01-10T10:24:06.000Z</time>
      </trkpt>
      <trkpt lat="43.59809" lon="6.80142">
        <ele>247</ele>
        <time>2025-01-10T10:24:05.000Z</time>
      </trkpt>
      <trkpt lat="43.59811" lon="6.80145">
        <ele>246.9</ele>
        <time>2025-01-10T10:24:04.000Z</time>
      </trkpt>
      <trkpt lat="43.59813" lon="6.80149">
        <ele>246.8</ele>
        <time>2025-01-10T10:24:03.000Z</time>
      </trkpt>
      <trkpt lat="43.59815" lon="6.80152">
        <ele>246.6</ele>
        <time>2025-01-10T10:24:02.000Z</time>
      </trkpt>
      <trkpt lat="43.59818" lon="6.80156">
        <ele>246.5</ele>
        <time>2025-01-10T10:24:01.000Z</time>
      </trkpt>
      <trkpt lat="43.5982" lon="6.80159">
        <ele>246.3</ele>
        <time>2025-01-10T10:24:00.000Z</time>
      </trkpt>
      <trkpt lat="43.59823" lon="6.80162">
        <ele>246.2</ele>
        <time>2025-01-10T10:23:59.000Z</time>
      </trkpt>
      <trkpt lat="43.59826" lon="6.80166">
        <ele>246</ele>
        <time>2025-01-10T10:23:58.000Z</time>
      </trkpt>
      <trkpt lat="43.59829" lon="6.8017">
        <ele>245.8</ele>
        <time>2025-01-10T10:23:57.000Z</time>
      </trkpt>
      <trkpt lat="43.59832" lon="6.80174">
        <ele>245.6</ele>
        <time>2025-01-10T10:23:56.000Z</time>
      </trkpt>
      <trkpt lat="43.59836" lon="6.80178">
        <ele>245.4</ele>
        <time>2025-01-10T10:23:55.000Z</time>
      </trkpt>
      <trkpt lat="43.59839" lon="6.80182">
        <ele>245.2</ele>
        <time>2025-01-10T10:23:54.000Z</time>
      </trkpt>
      <trkpt lat="43.59842" lon="6.80187">
        <ele>245.1</ele>
        <time>2025-01-10T10:23:53.000Z</time>
      </trkpt>
      <trkpt lat="43.59845" lon="6.80191">
        <ele>244.9</ele>
        <time>2025-01-10T10:23:52.000Z</time>
      </trkpt>
      <trkpt lat="43.59848" lon="6.80196">
        <ele>244.7</ele>
        <time>2025-01-10T10:23:51.000Z</time>
      </trkpt>
      <trkpt lat="43.59851" lon="6.802">
        <ele>244.6</ele>
        <time>2025-01-10T10:23:50.000Z</time>
      </trkpt>
      <trkpt lat="43.59854" lon="6.80204">
        <ele>244.5</ele>
        <time>2025-01-10T10:23:49.000Z</time>
      </trkpt>
      <trkpt lat="43.59857" lon="6.80209">
        <ele>244.3</ele>
        <time>2025-01-10T10:23:48.000Z</time>
      </trkpt>
      <trkpt lat="43.5986" lon="6.80213">
        <ele>244.2</ele>
        <time>2025-01-10T10:23:47.000Z</time>
      </trkpt>
      <trkpt lat="43.59863" lon="6.80218">
        <ele>244</ele>
        <time>2025-01-10T10:23:46.000Z</time>
      </trkpt>
      <trkpt lat="43.59866" lon="6.80223">
        <ele>243.9</ele>
        <time>2025-01-10T10:23:45.000Z</time>
      </trkpt>
      <trkpt lat="43.59869" lon="6.80227">
        <ele>243.7</ele>
        <time>2025-01-10T10:23:44.000Z</time>
      </trkpt>
      <trkpt lat="43.59872" lon="6.80232">
        <ele>243.5</ele>
        <time>2025-01-10T10:23:43.000Z</time>
      </trkpt>
      <trkpt lat="43.59874" lon="6.80237">
        <ele>243.4</ele>
        <time>2025-01-10T10:23:42.000Z</time>
      </trkpt>
      <trkpt lat="43.59878" lon="6.80241">
        <ele>243.2</ele>
        <time>2025-01-10T10:23:41.000Z</time>
      </trkpt>
      <trkpt lat="43.59881" lon="6.80246">
        <ele>243</ele>
        <time>2025-01-10T10:23:40.000Z</time>
      </trkpt>
      <trkpt lat="43.59884" lon="6.8025">
        <ele>242.9</ele>
        <time>2025-01-10T10:23:39.000Z</time>
      </trkpt>
      <trkpt lat="43.59886" lon="6.80255">
        <ele>242.7</ele>
        <time>2025-01-10T10:23:38.000Z</time>
      </trkpt>
      <trkpt lat="43.59889" lon="6.80259">
        <ele>242.6</ele>
        <time>2025-01-10T10:23:37.000Z</time>
      </trkpt>
      <trkpt lat="43.59892" lon="6.80264">
        <ele>242.5</ele>
        <time>2025-01-10T10:23:36.000Z</time>
      </trkpt>
      <trkpt lat="43.59895" lon="6.80269">
        <ele>242.3</ele>
        <time>2025-01-10T10:23:35.000Z</time>
      </trkpt>
      <trkpt lat="43.59898" lon="6.80274">
        <ele>242.2</ele>
        <time>2025-01-10T10:23:34.000Z</time>
      </trkpt>
      <trkpt lat="43.599" lon="6.80278">
        <ele>242.1</ele>
        <time>2025-01-10T10:23:33.000Z</time>
      </trkpt>
      <trkpt lat="43.59903" lon="6.80283">
        <ele>241.9</ele>
        <time>2025-01-10T10:23:32.000Z</time>
      </trkpt>
      <trkpt lat="43.59906" lon="6.80288">
        <ele>241.8</ele>
        <time>2025-01-10T10:23:31.000Z</time>
      </trkpt>
      <trkpt lat="43.59908" lon="6.80293">
        <ele>241.6</ele>
        <time>2025-01-10T10:23:30.000Z</time>
      </trkpt>
      <trkpt lat="43.59912" lon="6.80298">
        <ele>241.5</ele>
        <time>2025-01-10T10:23:29.000Z</time>
      </trkpt>
      <trkpt lat="43.59915" lon="6.80303">
        <ele>241.3</ele>
        <time>2025-01-10T10:23:28.000Z</time>
      </trkpt>
      <trkpt lat="43.59918" lon="6.80307">
        <ele>241.2</ele>
        <time>2025-01-10T10:23:27.000Z</time>
      </trkpt>
      <trkpt lat="43.59921" lon="6.80312">
        <ele>241.1</ele>
        <time>2025-01-10T10:23:26.000Z</time>
      </trkpt>
      <trkpt lat="43.59923" lon="6.80317">
        <ele>240.9</ele>
        <time>2025-01-10T10:23:25.000Z</time>
      </trkpt>
      <trkpt lat="43.59926" lon="6.80321">
        <ele>240.8</ele>
        <time>2025-01-10T10:23:24.000Z</time>
      </trkpt>
      <trkpt lat="43.59928" lon="6.80324">
        <ele>240.7</ele>
        <time>2025-01-10T10:23:23.000Z</time>
      </trkpt>
      <trkpt lat="43.59931" lon="6.80328">
        <ele>240.6</ele>
        <time>2025-01-10T10:23:22.000Z</time>
      </trkpt>
      <trkpt lat="43.59933" lon="6.80331">
        <ele>240.5</ele>
        <time>2025-01-10T10:23:21.000Z</time>
      </trkpt>
      <trkpt lat="43.59933" lon="6.80332">
        <ele>240.5</ele>
        <time>2025-01-10T10:23:20.000Z</time>
      </trkpt>
      <trkpt lat="43.59933" lon="6.80332">
        <ele>240.5</ele>
        <time>2025-01-10T10:23:19.000Z</time>
      </trkpt>
      <trkpt lat="43.59933" lon="6.80332">
        <ele>240.5</ele>
        <time>2025-01-10T10:23:18.000Z</time>
      </trkpt>
      <trkpt lat="43.59933" lon="6.80332">
        <ele>240.5</ele>
        <time>2025-01-10T10:23:17.000Z</time>
      </trkpt>
      <trkpt lat="43.59933" lon="6.80332">
        <ele>240.5</ele>
        <time>2025-01-10T10:23:16.000Z</time>
      </trkpt>
      <trkpt lat="43.59933" lon="6.80332">
        <ele>240.5</ele>
        <time>2025-01-10T10:23:15.000Z</time>
      </trkpt>
      <trkpt lat="43.59933" lon="6.80333">
        <ele>240.5</ele>
        <time>2025-01-10T10:23:14.000Z</time>
      </trkpt>
      <trkpt lat="43.59933" lon="6.80333">
        <ele>240.5</ele>
        <time>2025-01-10T10:23:13.000Z</time>
      </trkpt>
      <trkpt lat="43.59933" lon="6.80333">
        <ele>240.5</ele>
        <time>2025-01-10T10:23:12.000Z</time>
      </trkpt>
      <trkpt lat="43.59933" lon="6.80333">
        <ele>240.4</ele>
        <time>2025-01-10T10:23:11.000Z</time>
      </trkpt>
      <trkpt lat="43.59933" lon="6.80333">
        <ele>240.4</ele>
        <time>2025-01-10T10:23:10.000Z</time>
      </trkpt>
      <trkpt lat="43.59933" lon="6.80333">
        <ele>240.4</ele>
        <time>2025-01-10T10:23:09.000Z</time>
      </trkpt>
      <trkpt lat="43.59933" lon="6.80333">
        <ele>240.4</ele>
        <time>2025-01-10T10:23:08.000Z</time>
      </trkpt>
      <trkpt lat="43.59933" lon="6.80333">
        <ele>240.4</ele>
        <time>2025-01-10T10:23:07.000Z</time>
      </trkpt>
      <trkpt lat="43.59933" lon="6.80333">
        <ele>240.4</ele>
        <time>2025-01-10T10:23:06.000Z</time>
      </trkpt>
      <trkpt lat="43.59933" lon="6.80333">
        <ele>240.4</ele>
        <time>2025-01-10T10:23:05.000Z</time>
      </trkpt>
      <trkpt lat="43.59933" lon="6.80333">
        <ele>240.4</ele>
        <time>2025-01-10T10:23:04.000Z</time>
      </trkpt>
      <trkpt lat="43.59933" lon="6.80333">
        <ele>240.4</ele>
        <time>2025-01-10T10:23:03.000Z</time>
      </trkpt>
      <trkpt lat="43.59933" lon="6.80333">
        <ele>240.4</ele>
        <time>2025-01-10T10:23:02.000Z</time>
      </trkpt>
      <trkpt lat="43.59933" lon="6.80333">
        <ele>240.4</ele>
        <time>2025-01-10T10:23:01.000Z</time>
      </trkpt>
      <trkpt lat="43.59933" lon="6.80333">
        <ele>240.4</ele>
        <time>2025-01-10T10:23:00.000Z</time>
      </trkpt>
      <trkpt lat="43.59933" lon="6.80333">
        <ele>240.4</ele>
        <time>2025-01-10T10:22:59.000Z</time>
      </trkpt>
      <trkpt lat="43.59933" lon="6.80333">
        <ele>240.4</ele>
        <time>2025-01-10T10:22:58.000Z</time>
      </trkpt>
      <trkpt lat="43.59933" lon="6.80333">
        <ele>240.4</ele>
        <time>2025-01-10T10:22:57.000Z</time>
      </trkpt>
      <trkpt lat="43.59934" lon="6.80333">
        <ele>240.4</ele>
        <time>2025-01-10T10:22:56.000Z</time>
      </trkpt>
      <trkpt lat="43.59934" lon="6.80333">
        <ele>240.4</ele>
        <time>2025-01-10T10:22:55.000Z</time>
      </trkpt>
      <trkpt lat="43.59934" lon="6.80333">
        <ele>240.4</ele>
        <time>2025-01-10T10:22:54.000Z</time>
      </trkpt>
      <trkpt lat="43.59934" lon="6.80332">
        <ele>240.4</ele>
        <time>2025-01-10T10:22:53.000Z</time>
      </trkpt>
      <trkpt lat="43.59934" lon="6.80332">
        <ele>240.4</ele>
        <time>2025-01-10T10:22:52.000Z</time>
      </trkpt>
      <trkpt lat="43.59934" lon="6.80332">
        <ele>240.4</ele>
        <time>2025-01-10T10:22:51.000Z</time>
      </trkpt>
      <trkpt lat="43.59934" lon="6.80332">
        <ele>240.4</ele>
        <time>2025-01-10T10:22:50.000Z</time>
      </trkpt>
      <trkpt lat="43.59934" lon="6.80332">
        <ele>240.4</ele>
        <time>2025-01-10T10:22:49.000Z</time>
      </trkpt>
      <trkpt lat="43.59934" lon="6.80332">
        <ele>240.4</ele>
        <time>2025-01-10T10:22:48.000Z</time>
      </trkpt>
      <trkpt lat="43.59934" lon="6.80331">
        <ele>240.3</ele>
        <time>2025-01-10T10:22:47.000Z</time>
      </trkpt>
      <trkpt lat="43.59934" lon="6.80331">
        <ele>240.3</ele>
        <time>2025-01-10T10:22:46.000Z</time>
      </trkpt>
      <trkpt lat="43.59935" lon="6.80331">
        <ele>240.3</ele>
        <time>2025-01-10T10:22:45.000Z</time>
      </trkpt>
      <trkpt lat="43.59934" lon="6.80332">
        <ele>240.3</ele>
        <time>2025-01-10T10:22:44.000Z</time>
      </trkpt>
      <trkpt lat="43.59935" lon="6.80332">
        <ele>240.3</ele>
        <time>2025-01-10T10:22:43.000Z</time>
      </trkpt>
      <trkpt lat="43.59935" lon="6.80331">
        <ele>240.3</ele>
        <time>2025-01-10T10:22:42.000Z</time>
      </trkpt>
      <trkpt lat="43.59935" lon="6.80331">
        <ele>240.3</ele>
        <time>2025-01-10T10:22:41.000Z</time>
      </trkpt>
      <trkpt lat="43.59936" lon="6.80332">
        <ele>240.3</ele>
        <time>2025-01-10T10:22:40.000Z</time>
      </trkpt>
      <trkpt lat="43.59937" lon="6.80333">
        <ele>240.2</ele>
        <time>2025-01-10T10:22:39.000Z</time>
      </trkpt>
      <trkpt lat="43.59938" lon="6.80335">
        <ele>240.2</ele>
        <time>2025-01-10T10:22:38.000Z</time>
      </trkpt>
      <trkpt lat="43.5994" lon="6.80338">
        <ele>240.1</ele>
        <time>2025-01-10T10:22:37.000Z</time>
      </trkpt>
      <trkpt lat="43.59942" lon="6.80341">
        <ele>240</ele>
        <time>2025-01-10T10:22:36.000Z</time>
      </trkpt>
      <trkpt lat="43.59944" lon="6.80345">
        <ele>239.9</ele>
        <time>2025-01-10T10:22:35.000Z</time>
      </trkpt>
      <trkpt lat="43.59946" lon="6.80349">
        <ele>239.7</ele>
        <time>2025-01-10T10:22:34.000Z</time>
      </trkpt>
      <trkpt lat="43.59949" lon="6.80354">
        <ele>239.6</ele>
        <time>2025-01-10T10:22:33.000Z</time>
      </trkpt>
      <trkpt lat="43.59952" lon="6.80358">
        <ele>239.5</ele>
        <time>2025-01-10T10:22:32.000Z</time>
      </trkpt>
      <trkpt lat="43.59954" lon="6.80362">
        <ele>239.3</ele>
        <time>2025-01-10T10:22:31.000Z</time>
      </trkpt>
      <trkpt lat="43.59957" lon="6.80366">
        <ele>239.2</ele>
        <time>2025-01-10T10:22:30.000Z</time>
      </trkpt>
      <trkpt lat="43.5996" lon="6.8037">
        <ele>239</ele>
        <time>2025-01-10T10:22:29.000Z</time>
      </trkpt>
      <trkpt lat="43.59963" lon="6.80375">
        <ele>238.9</ele>
        <time>2025-01-10T10:22:28.000Z</time>
      </trkpt>
      <trkpt lat="43.59966" lon="6.80379">
        <ele>238.8</ele>
        <time>2025-01-10T10:22:27.000Z</time>
      </trkpt>
      <trkpt lat="43.59968" lon="6.80384">
        <ele>238.6</ele>
        <time>2025-01-10T10:22:26.000Z</time>
      </trkpt>
      <trkpt lat="43.59971" lon="6.80389">
        <ele>238.5</ele>
        <time>2025-01-10T10:22:25.000Z</time>
      </trkpt>
      <trkpt lat="43.59974" lon="6.80393">
        <ele>238.3</ele>
        <time>2025-01-10T10:22:24.000Z</time>
      </trkpt>
      <trkpt lat="43.59977" lon="6.80398">
        <ele>238.2</ele>
        <time>2025-01-10T10:22:23.000Z</time>
      </trkpt>
      <trkpt lat="43.59981" lon="6.80402">
        <ele>238.1</ele>
        <time>2025-01-10T10:22:22.000Z</time>
      </trkpt>
      <trkpt lat="43.59984" lon="6.80407">
        <ele>237.9</ele>
        <time>2025-01-10T10:22:21.000Z</time>
      </trkpt>
      <trkpt lat="43.59987" lon="6.80412">
        <ele>237.8</ele>
        <time>2025-01-10T10:22:20.000Z</time>
      </trkpt>
      <trkpt lat="43.59989" lon="6.80418">
        <ele>237.7</ele>
        <time>2025-01-10T10:22:19.000Z</time>
      </trkpt>
      <trkpt lat="43.59992" lon="6.80422">
        <ele>237.5</ele>
        <time>2025-01-10T10:22:18.000Z</time>
      </trkpt>
      <trkpt lat="43.59996" lon="6.80427">
        <ele>237.4</ele>
        <time>2025-01-10T10:22:17.000Z</time>
      </trkpt>
      <trkpt lat="43.59999" lon="6.80432">
        <ele>237.3</ele>
        <time>2025-01-10T10:22:16.000Z</time>
      </trkpt>
      <trkpt lat="43.60002" lon="6.80436">
        <ele>237.1</ele>
        <time>2025-01-10T10:22:15.000Z</time>
      </trkpt>
      <trkpt lat="43.60005" lon="6.8044">
        <ele>237</ele>
        <time>2025-01-10T10:22:14.000Z</time>
      </trkpt>
      <trkpt lat="43.60008" lon="6.80445">
        <ele>236.8</ele>
        <time>2025-01-10T10:22:13.000Z</time>
      </trkpt>
      <trkpt lat="43.60011" lon="6.80449">
        <ele>236.7</ele>
        <time>2025-01-10T10:22:12.000Z</time>
      </trkpt>
      <trkpt lat="43.60014" lon="6.80453">
        <ele>236.5</ele>
        <time>2025-01-10T10:22:11.000Z</time>
      </trkpt>
      <trkpt lat="43.60017" lon="6.80458">
        <ele>236.4</ele>
        <time>2025-01-10T10:22:10.000Z</time>
      </trkpt>
      <trkpt lat="43.60019" lon="6.80463">
        <ele>236.2</ele>
        <time>2025-01-10T10:22:09.000Z</time>
      </trkpt>
      <trkpt lat="43.60022" lon="6.80468">
        <ele>236.1</ele>
        <time>2025-01-10T10:22:08.000Z</time>
      </trkpt>
      <trkpt lat="43.60024" lon="6.80473">
        <ele>235.9</ele>
        <time>2025-01-10T10:22:07.000Z</time>
      </trkpt>
      <trkpt lat="43.60027" lon="6.80478">
        <ele>235.8</ele>
        <time>2025-01-10T10:22:06.000Z</time>
      </trkpt>
      <trkpt lat="43.6003" lon="6.80482">
        <ele>235.7</ele>
        <time>2025-01-10T10:22:05.000Z</time>
      </trkpt>
      <trkpt lat="43.60033" lon="6.80486">
        <ele>235.5</ele>
        <time>2025-01-10T10:22:04.000Z</time>
      </trkpt>
      <trkpt lat="43.60036" lon="6.8049">
        <ele>235.4</ele>
        <time>2025-01-10T10:22:03.000Z</time>
      </trkpt>
      <trkpt lat="43.60039" lon="6.80494">
        <ele>235.3</ele>
        <time>2025-01-10T10:22:02.000Z</time>
      </trkpt>
      <trkpt lat="43.60042" lon="6.80499">
        <ele>235.3</ele>
        <time>2025-01-10T10:22:01.000Z</time>
      </trkpt>
      <trkpt lat="43.60045" lon="6.80503">
        <ele>235.2</ele>
        <time>2025-01-10T10:22:00.000Z</time>
      </trkpt>
      <trkpt lat="43.60048" lon="6.80507">
        <ele>235.1</ele>
        <time>2025-01-10T10:21:59.000Z</time>
      </trkpt>
      <trkpt lat="43.6005" lon="6.80512">
        <ele>235</ele>
        <time>2025-01-10T10:21:58.000Z</time>
      </trkpt>
      <trkpt lat="43.60053" lon="6.80517">
        <ele>234.9</ele>
        <time>2025-01-10T10:21:57.000Z</time>
      </trkpt>
      <trkpt lat="43.60056" lon="6.80521">
        <ele>234.8</ele>
        <time>2025-01-10T10:21:56.000Z</time>
      </trkpt>
      <trkpt lat="43.60059" lon="6.80525">
        <ele>234.7</ele>
        <time>2025-01-10T10:21:55.000Z</time>
      </trkpt>
      <trkpt lat="43.60062" lon="6.80529">
        <ele>234.7</ele>
        <time>2025-01-10T10:21:54.000Z</time>
      </trkpt>
      <trkpt lat="43.60065" lon="6.80533">
        <ele>234.6</ele>
        <time>2025-01-10T10:21:53.000Z</time>
      </trkpt>
      <trkpt lat="43.60067" lon="6.80537">
        <ele>234.5</ele>
        <time>2025-01-10T10:21:52.000Z</time>
      </trkpt>
      <trkpt lat="43.6007" lon="6.80541">
        <ele>234.4</ele>
        <time>2025-01-10T10:21:51.000Z</time>
      </trkpt>
      <trkpt lat="43.60073" lon="6.80545">
        <ele>234.3</ele>
        <time>2025-01-10T10:21:50.000Z</time>
      </trkpt>
      <trkpt lat="43.60075" lon="6.80548">
        <ele>234.3</ele>
        <time>2025-01-10T10:21:49.000Z</time>
      </trkpt>
      <trkpt lat="43.60077" lon="6.80551">
        <ele>234.2</ele>
        <time>2025-01-10T10:21:48.000Z</time>
      </trkpt>
      <trkpt lat="43.60079" lon="6.80554">
        <ele>234.1</ele>
        <time>2025-01-10T10:21:47.000Z</time>
      </trkpt>
      <trkpt lat="43.60081" lon="6.80557">
        <ele>234.1</ele>
        <time>2025-01-10T10:21:46.000Z</time>
      </trkpt>
      <trkpt lat="43.60083" lon="6.8056">
        <ele>234</ele>
        <time>2025-01-10T10:21:45.000Z</time>
      </trkpt>
      <trkpt lat="43.60085" lon="6.80564">
        <ele>233.8</ele>
        <time>2025-01-10T10:21:44.000Z</time>
      </trkpt>
      <trkpt lat="43.60088" lon="6.80568">
        <ele>233.7</ele>
        <time>2025-01-10T10:21:43.000Z</time>
      </trkpt>
      <trkpt lat="43.6009" lon="6.80571">
        <ele>233.5</ele>
        <time>2025-01-10T10:21:42.000Z</time>
      </trkpt>
      <trkpt lat="43.60093" lon="6.80575">
        <ele>233.4</ele>
        <time>2025-01-10T10:21:41.000Z</time>
      </trkpt>
      <trkpt lat="43.60096" lon="6.80579">
        <ele>233.2</ele>
        <time>2025-01-10T10:21:40.000Z</time>
      </trkpt>
      <trkpt lat="43.60099" lon="6.80583">
        <ele>233</ele>
        <time>2025-01-10T10:21:39.000Z</time>
      </trkpt>
      <trkpt lat="43.60102" lon="6.80586">
        <ele>232.9</ele>
        <time>2025-01-10T10:21:38.000Z</time>
      </trkpt>
      <trkpt lat="43.60105" lon="6.8059">
        <ele>232.8</ele>
        <time>2025-01-10T10:21:37.000Z</time>
      </trkpt>
      <trkpt lat="43.60108" lon="6.80593">
        <ele>232.6</ele>
        <time>2025-01-10T10:21:36.000Z</time>
      </trkpt>
      <trkpt lat="43.60111" lon="6.80596">
        <ele>232.5</ele>
        <time>2025-01-10T10:21:35.000Z</time>
      </trkpt>
      <trkpt lat="43.60114" lon="6.80599">
        <ele>232.4</ele>
        <time>2025-01-10T10:21:34.000Z</time>
      </trkpt>
      <trkpt lat="43.60117" lon="6.80602">
        <ele>232.3</ele>
        <time>2025-01-10T10:21:33.000Z</time>
      </trkpt>
      <trkpt lat="43.6012" lon="6.80605">
        <ele>232.2</ele>
        <time>2025-01-10T10:21:32.000Z</time>
      </trkpt>
      <trkpt lat="43.60123" lon="6.80607">
        <ele>232.1</ele>
        <time>2025-01-10T10:21:31.000Z</time>
      </trkpt>
      <trkpt lat="43.60126" lon="6.8061">
        <ele>232</ele>
        <time>2025-01-10T10:21:30.000Z</time>
      </trkpt>
      <trkpt lat="43.6013" lon="6.80613">
        <ele>231.9</ele>
        <time>2025-01-10T10:21:29.000Z</time>
      </trkpt>
      <trkpt lat="43.60133" lon="6.80615">
        <ele>231.8</ele>
        <time>2025-01-10T10:21:28.000Z</time>
      </trkpt>
      <trkpt lat="43.60136" lon="6.80618">
        <ele>231.6</ele>
        <time>2025-01-10T10:21:27.000Z</time>
      </trkpt>
      <trkpt lat="43.60139" lon="6.80621">
        <ele>231.5</ele>
        <time>2025-01-10T10:21:26.000Z</time>
      </trkpt>
      <trkpt lat="43.60142" lon="6.80624">
        <ele>231.4</ele>
        <time>2025-01-10T10:21:25.000Z</time>
      </trkpt>
      <trkpt lat="43.60146" lon="6.80627">
        <ele>231.3</ele>
        <time>2025-01-10T10:21:24.000Z</time>
      </trkpt>
      <trkpt lat="43.60149" lon="6.8063">
        <ele>231.2</ele>
        <time>2025-01-10T10:21:23.000Z</time>
      </trkpt>
      <trkpt lat="43.60152" lon="6.80632">
        <ele>231.1</ele>
        <time>2025-01-10T10:21:22.000Z</time>
      </trkpt>
      <trkpt lat="43.60155" lon="6.80635">
        <ele>230.9</ele>
        <time>2025-01-10T10:21:21.000Z</time>
      </trkpt>
      <trkpt lat="43.60158" lon="6.80638">
        <ele>230.8</ele>
        <time>2025-01-10T10:21:20.000Z</time>
      </trkpt>
      <trkpt lat="43.60162" lon="6.8064">
        <ele>230.7</ele>
        <time>2025-01-10T10:21:19.000Z</time>
      </trkpt>
      <trkpt lat="43.60165" lon="6.80643">
        <ele>230.5</ele>
        <time>2025-01-10T10:21:18.000Z</time>
      </trkpt>
      <trkpt lat="43.60168" lon="6.80646">
        <ele>230.4</ele>
        <time>2025-01-10T10:21:17.000Z</time>
      </trkpt>
      <trkpt lat="43.60171" lon="6.80649">
        <ele>230.3</ele>
        <time>2025-01-10T10:21:16.000Z</time>
      </trkpt>
      <trkpt lat="43.60175" lon="6.80652">
        <ele>230.1</ele>
        <time>2025-01-10T10:21:15.000Z</time>
      </trkpt>
      <trkpt lat="43.60178" lon="6.80654">
        <ele>230</ele>
        <time>2025-01-10T10:21:14.000Z</time>
      </trkpt>
      <trkpt lat="43.60181" lon="6.80657">
        <ele>229.9</ele>
        <time>2025-01-10T10:21:13.000Z</time>
      </trkpt>
      <trkpt lat="43.60185" lon="6.80659">
        <ele>229.8</ele>
        <time>2025-01-10T10:21:12.000Z</time>
      </trkpt>
      <trkpt lat="43.60188" lon="6.80662">
        <ele>229.6</ele>
        <time>2025-01-10T10:21:11.000Z</time>
      </trkpt>
      <trkpt lat="43.60192" lon="6.80664">
        <ele>229.5</ele>
        <time>2025-01-10T10:21:10.000Z</time>
      </trkpt>
      <trkpt lat="43.60195" lon="6.80667">
        <ele>229.3</ele>
        <time>2025-01-10T10:21:09.000Z</time>
      </trkpt>
      <trkpt lat="43.60198" lon="6.80669">
        <ele>229.2</ele>
        <time>2025-01-10T10:21:08.000Z</time>
      </trkpt>
      <trkpt lat="43.60202" lon="6.80672">
        <ele>229.1</ele>
        <time>2025-01-10T10:21:07.000Z</time>
      </trkpt>
      <trkpt lat="43.60205" lon="6.80676">
        <ele>228.9</ele>
        <time>2025-01-10T10:21:06.000Z</time>
      </trkpt>
      <trkpt lat="43.60208" lon="6.80679">
        <ele>228.7</ele>
        <time>2025-01-10T10:21:05.000Z</time>
      </trkpt>
      <trkpt lat="43.60212" lon="6.80683">
        <ele>228.5</ele>
        <time>2025-01-10T10:21:04.000Z</time>
      </trkpt>
      <trkpt lat="43.60215" lon="6.80686">
        <ele>228.4</ele>
        <time>2025-01-10T10:21:03.000Z</time>
      </trkpt>
      <trkpt lat="43.60219" lon="6.80689">
        <ele>228.2</ele>
        <time>2025-01-10T10:21:02.000Z</time>
      </trkpt>
      <trkpt lat="43.60222" lon="6.80693">
        <ele>228.1</ele>
        <time>2025-01-10T10:21:01.000Z</time>
      </trkpt>
      <trkpt lat="43.60226" lon="6.80696">
        <ele>228</ele>
        <time>2025-01-10T10:21:00.000Z</time>
      </trkpt>
      <trkpt lat="43.6023" lon="6.80698">
        <ele>227.9</ele>
        <time>2025-01-10T10:20:59.000Z</time>
      </trkpt>
      <trkpt lat="43.60233" lon="6.80701">
        <ele>227.8</ele>
        <time>2025-01-10T10:20:58.000Z</time>
      </trkpt>
      <trkpt lat="43.60237" lon="6.80704">
        <ele>227.7</ele>
        <time>2025-01-10T10:20:57.000Z</time>
      </trkpt>
      <trkpt lat="43.60241" lon="6.80707">
        <ele>227.6</ele>
        <time>2025-01-10T10:20:56.000Z</time>
      </trkpt>
      <trkpt lat="43.60244" lon="6.80711">
        <ele>227.5</ele>
        <time>2025-01-10T10:20:55.000Z</time>
      </trkpt>
      <trkpt lat="43.60248" lon="6.80714">
        <ele>227.4</ele>
        <time>2025-01-10T10:20:54.000Z</time>
      </trkpt>
      <trkpt lat="43.60251" lon="6.80717">
        <ele>227.3</ele>
        <time>2025-01-10T10:20:53.000Z</time>
      </trkpt>
      <trkpt lat="43.60255" lon="6.8072">
        <ele>227.2</ele>
        <time>2025-01-10T10:20:52.000Z</time>
      </trkpt>
      <trkpt lat="43.60258" lon="6.80722">
        <ele>227.1</ele>
        <time>2025-01-10T10:20:51.000Z</time>
      </trkpt>
      <trkpt lat="43.60262" lon="6.80725">
        <ele>227</ele>
        <time>2025-01-10T10:20:50.000Z</time>
      </trkpt>
      <trkpt lat="43.60265" lon="6.80727">
        <ele>226.9</ele>
        <time>2025-01-10T10:20:49.000Z</time>
      </trkpt>
      <trkpt lat="43.60269" lon="6.8073">
        <ele>226.8</ele>
        <time>2025-01-10T10:20:48.000Z</time>
      </trkpt>
      <trkpt lat="43.60273" lon="6.80733">
        <ele>226.6</ele>
        <time>2025-01-10T10:20:47.000Z</time>
      </trkpt>
      <trkpt lat="43.60277" lon="6.80736">
        <ele>226.5</ele>
        <time>2025-01-10T10:20:46.000Z</time>
      </trkpt>
      <trkpt lat="43.6028" lon="6.80739">
        <ele>226.4</ele>
        <time>2025-01-10T10:20:45.000Z</time>
      </trkpt>
      <trkpt lat="43.60284" lon="6.80742">
        <ele>226.3</ele>
        <time>2025-01-10T10:20:44.000Z</time>
      </trkpt>
      <trkpt lat="43.60288" lon="6.80745">
        <ele>226.1</ele>
        <time>2025-01-10T10:20:43.000Z</time>
      </trkpt>
      <trkpt lat="43.60291" lon="6.80749">
        <ele>225.9</ele>
        <time>2025-01-10T10:20:42.000Z</time>
      </trkpt>
      <trkpt lat="43.60295" lon="6.80751">
        <ele>225.8</ele>
        <time>2025-01-10T10:20:41.000Z</time>
      </trkpt>
      <trkpt lat="43.60299" lon="6.80754">
        <ele>225.6</ele>
        <time>2025-01-10T10:20:40.000Z</time>
      </trkpt>
      <trkpt lat="43.60302" lon="6.80756">
        <ele>225.5</ele>
        <time>2025-01-10T10:20:39.000Z</time>
      </trkpt>
      <trkpt lat="43.60306" lon="6.80758">
        <ele>225.4</ele>
        <time>2025-01-10T10:20:38.000Z</time>
      </trkpt>
      <trkpt lat="43.60309" lon="6.80761">
        <ele>225.2</ele>
        <time>2025-01-10T10:20:37.000Z</time>
      </trkpt>
      <trkpt lat="43.60313" lon="6.80764">
        <ele>225.1</ele>
        <time>2025-01-10T10:20:36.000Z</time>
      </trkpt>
      <trkpt lat="43.60316" lon="6.80768">
        <ele>224.9</ele>
        <time>2025-01-10T10:20:35.000Z</time>
      </trkpt>
      <trkpt lat="43.6032" lon="6.80771">
        <ele>224.8</ele>
        <time>2025-01-10T10:20:34.000Z</time>
      </trkpt>
      <trkpt lat="43.60323" lon="6.80774">
        <ele>224.7</ele>
        <time>2025-01-10T10:20:33.000Z</time>
      </trkpt>
      <trkpt lat="43.60326" lon="6.80777">
        <ele>224.6</ele>
        <time>2025-01-10T10:20:32.000Z</time>
      </trkpt>
      <trkpt lat="43.6033" lon="6.8078">
        <ele>224.5</ele>
        <time>2025-01-10T10:20:31.000Z</time>
      </trkpt>
      <trkpt lat="43.60334" lon="6.80783">
        <ele>224.3</ele>
        <time>2025-01-10T10:20:30.000Z</time>
      </trkpt>
      <trkpt lat="43.60337" lon="6.80786">
        <ele>224.2</ele>
        <time>2025-01-10T10:20:29.000Z</time>
      </trkpt>
      <trkpt lat="43.60341" lon="6.80789">
        <ele>224.1</ele>
        <time>2025-01-10T10:20:28.000Z</time>
      </trkpt>
      <trkpt lat="43.60344" lon="6.80791">
        <ele>224</ele>
        <time>2025-01-10T10:20:27.000Z</time>
      </trkpt>
      <trkpt lat="43.60348" lon="6.80793">
        <ele>223.9</ele>
        <time>2025-01-10T10:20:26.000Z</time>
      </trkpt>
      <trkpt lat="43.60352" lon="6.80795">
        <ele>223.8</ele>
        <time>2025-01-10T10:20:25.000Z</time>
      </trkpt>
      <trkpt lat="43.60356" lon="6.80797">
        <ele>223.7</ele>
        <time>2025-01-10T10:20:24.000Z</time>
      </trkpt>
      <trkpt lat="43.6036" lon="6.80799">
        <ele>223.5</ele>
        <time>2025-01-10T10:20:23.000Z</time>
      </trkpt>
      <trkpt lat="43.60364" lon="6.80801">
        <ele>223.4</ele>
        <time>2025-01-10T10:20:22.000Z</time>
      </trkpt>
      <trkpt lat="43.60368" lon="6.80803">
        <ele>223.3</ele>
        <time>2025-01-10T10:20:21.000Z</time>
      </trkpt>
      <trkpt lat="43.60372" lon="6.80804">
        <ele>223.1</ele>
        <time>2025-01-10T10:20:20.000Z</time>
      </trkpt>
      <trkpt lat="43.60376" lon="6.80806">
        <ele>223</ele>
        <time>2025-01-10T10:20:19.000Z</time>
      </trkpt>
      <trkpt lat="43.60379" lon="6.80807">
        <ele>222.9</ele>
        <time>2025-01-10T10:20:18.000Z</time>
      </trkpt>
      <trkpt lat="43.60383" lon="6.80809">
        <ele>222.9</ele>
        <time>2025-01-10T10:20:17.000Z</time>
      </trkpt>
      <trkpt lat="43.60387" lon="6.80811">
        <ele>222.8</ele>
        <time>2025-01-10T10:20:16.000Z</time>
      </trkpt>
      <trkpt lat="43.60391" lon="6.80812">
        <ele>222.7</ele>
        <time>2025-01-10T10:20:15.000Z</time>
      </trkpt>
      <trkpt lat="43.60394" lon="6.80814">
        <ele>222.6</ele>
        <time>2025-01-10T10:20:14.000Z</time>
      </trkpt>
      <trkpt lat="43.60398" lon="6.80815">
        <ele>222.5</ele>
        <time>2025-01-10T10:20:13.000Z</time>
      </trkpt>
      <trkpt lat="43.60402" lon="6.80816">
        <ele>222.4</ele>
        <time>2025-01-10T10:20:12.000Z</time>
      </trkpt>
      <trkpt lat="43.60405" lon="6.80816">
        <ele>222.3</ele>
        <time>2025-01-10T10:20:11.000Z</time>
      </trkpt>
      <trkpt lat="43.60409" lon="6.80817">
        <ele>222.2</ele>
        <time>2025-01-10T10:20:10.000Z</time>
      </trkpt>
      <trkpt lat="43.60413" lon="6.80818">
        <ele>222.1</ele>
        <time>2025-01-10T10:20:09.000Z</time>
      </trkpt>
      <trkpt lat="43.60417" lon="6.80819">
        <ele>221.9</ele>
        <time>2025-01-10T10:20:08.000Z</time>
      </trkpt>
      <trkpt lat="43.60421" lon="6.80821">
        <ele>221.8</ele>
        <time>2025-01-10T10:20:07.000Z</time>
      </trkpt>
      <trkpt lat="43.60425" lon="6.80821">
        <ele>221.6</ele>
        <time>2025-01-10T10:20:06.000Z</time>
      </trkpt>
      <trkpt lat="43.60429" lon="6.80822">
        <ele>221.5</ele>
        <time>2025-01-10T10:20:05.000Z</time>
      </trkpt>
      <trkpt lat="43.60433" lon="6.80823">
        <ele>221.3</ele>
        <time>2025-01-10T10:20:04.000Z</time>
      </trkpt>
      <trkpt lat="43.60437" lon="6.80823">
        <ele>221.2</ele>
        <time>2025-01-10T10:20:03.000Z</time>
      </trkpt>
      <trkpt lat="43.60441" lon="6.80824">
        <ele>221</ele>
        <time>2025-01-10T10:20:02.000Z</time>
      </trkpt>
      <trkpt lat="43.60445" lon="6.80824">
        <ele>220.9</ele>
        <time>2025-01-10T10:20:01.000Z</time>
      </trkpt>
      <trkpt lat="43.60449" lon="6.80825">
        <ele>220.8</ele>
        <time>2025-01-10T10:20:00.000Z</time>
      </trkpt>
      <trkpt lat="43.60454" lon="6.80827">
        <ele>220.6</ele>
        <time>2025-01-10T10:19:59.000Z</time>
      </trkpt>
      <trkpt lat="43.60458" lon="6.80828">
        <ele>220.5</ele>
        <time>2025-01-10T10:19:58.000Z</time>
      </trkpt>
      <trkpt lat="43.60462" lon="6.80829">
        <ele>220.3</ele>
        <time>2025-01-10T10:19:57.000Z</time>
      </trkpt>
      <trkpt lat="43.60467" lon="6.8083">
        <ele>220.1</ele>
        <time>2025-01-10T10:19:56.000Z</time>
      </trkpt>
      <trkpt lat="43.60471" lon="6.80832">
        <ele>220</ele>
        <time>2025-01-10T10:19:55.000Z</time>
      </trkpt>
      <trkpt lat="43.60475" lon="6.80834">
        <ele>219.8</ele>
        <time>2025-01-10T10:19:54.000Z</time>
      </trkpt>
      <trkpt lat="43.60479" lon="6.80836">
        <ele>219.7</ele>
        <time>2025-01-10T10:19:53.000Z</time>
      </trkpt>
      <trkpt lat="43.60483" lon="6.80838">
        <ele>219.5</ele>
        <time>2025-01-10T10:19:52.000Z</time>
      </trkpt>
      <trkpt lat="43.60488" lon="6.80839">
        <ele>219.4</ele>
        <time>2025-01-10T10:19:51.000Z</time>
      </trkpt>
      <trkpt lat="43.60492" lon="6.80841">
        <ele>219.2</ele>
        <time>2025-01-10T10:19:50.000Z</time>
      </trkpt>
      <trkpt lat="43.60496" lon="6.80843">
        <ele>219.1</ele>
        <time>2025-01-10T10:19:49.000Z</time>
      </trkpt>
      <trkpt lat="43.60499" lon="6.80845">
        <ele>218.9</ele>
        <time>2025-01-10T10:19:48.000Z</time>
      </trkpt>
      <trkpt lat="43.60503" lon="6.80848">
        <ele>218.8</ele>
        <time>2025-01-10T10:19:47.000Z</time>
      </trkpt>
      <trkpt lat="43.60507" lon="6.80851">
        <ele>218.7</ele>
        <time>2025-01-10T10:19:46.000Z</time>
      </trkpt>
      <trkpt lat="43.6051" lon="6.80854">
        <ele>218.5</ele>
        <time>2025-01-10T10:19:45.000Z</time>
      </trkpt>
      <trkpt lat="43.60514" lon="6.80858">
        <ele>218.4</ele>
        <time>2025-01-10T10:19:44.000Z</time>
      </trkpt>
      <trkpt lat="43.60517" lon="6.80862">
        <ele>218.3</ele>
        <time>2025-01-10T10:19:43.000Z</time>
      </trkpt>
      <trkpt lat="43.6052" lon="6.80865">
        <ele>218.2</ele>
        <time>2025-01-10T10:19:42.000Z</time>
      </trkpt>
      <trkpt lat="43.60524" lon="6.80869">
        <ele>218.1</ele>
        <time>2025-01-10T10:19:41.000Z</time>
      </trkpt>
      <trkpt lat="43.60527" lon="6.80872">
        <ele>218</ele>
        <time>2025-01-10T10:19:40.000Z</time>
      </trkpt>
      <trkpt lat="43.60531" lon="6.80876">
        <ele>217.8</ele>
        <time>2025-01-10T10:19:39.000Z</time>
      </trkpt>
      <trkpt lat="43.60534" lon="6.8088">
        <ele>217.7</ele>
        <time>2025-01-10T10:19:38.000Z</time>
      </trkpt>
      <trkpt lat="43.60537" lon="6.80884">
        <ele>217.6</ele>
        <time>2025-01-10T10:19:37.000Z</time>
      </trkpt>
      <trkpt lat="43.6054" lon="6.80888">
        <ele>217.5</ele>
        <time>2025-01-10T10:19:36.000Z</time>
      </trkpt>
      <trkpt lat="43.60543" lon="6.80892">
        <ele>217.4</ele>
        <time>2025-01-10T10:19:35.000Z</time>
      </trkpt>
      <trkpt lat="43.60545" lon="6.80896">
        <ele>217.3</ele>
        <time>2025-01-10T10:19:34.000Z</time>
      </trkpt>
      <trkpt lat="43.60549" lon="6.80901">
        <ele>217.2</ele>
        <time>2025-01-10T10:19:33.000Z</time>
      </trkpt>
      <trkpt lat="43.60551" lon="6.80905">
        <ele>217.1</ele>
        <time>2025-01-10T10:19:32.000Z</time>
      </trkpt>
      <trkpt lat="43.60554" lon="6.8091">
        <ele>217</ele>
        <time>2025-01-10T10:19:31.000Z</time>
      </trkpt>
      <trkpt lat="43.60556" lon="6.80914">
        <ele>216.9</ele>
        <time>2025-01-10T10:19:30.000Z</time>
      </trkpt>
      <trkpt lat="43.60559" lon="6.80919">
        <ele>216.7</ele>
        <time>2025-01-10T10:19:29.000Z</time>
      </trkpt>
      <trkpt lat="43.60561" lon="6.80924">
        <ele>216.6</ele>
        <time>2025-01-10T10:19:28.000Z</time>
      </trkpt>
      <trkpt lat="43.60564" lon="6.80928">
        <ele>216.5</ele>
        <time>2025-01-10T10:19:27.000Z</time>
      </trkpt>
      <trkpt lat="43.60566" lon="6.80932">
        <ele>216.3</ele>
        <time>2025-01-10T10:19:26.000Z</time>
      </trkpt>
      <trkpt lat="43.60569" lon="6.80936">
        <ele>216.2</ele>
        <time>2025-01-10T10:19:25.000Z</time>
      </trkpt>
      <trkpt lat="43.60572" lon="6.8094">
        <ele>216.1</ele>
        <time>2025-01-10T10:19:24.000Z</time>
      </trkpt>
      <trkpt lat="43.60575" lon="6.80944">
        <ele>216</ele>
        <time>2025-01-10T10:19:23.000Z</time>
      </trkpt>
      <trkpt lat="43.60577" lon="6.80947">
        <ele>215.8</ele>
        <time>2025-01-10T10:19:22.000Z</time>
      </trkpt>
      <trkpt lat="43.6058" lon="6.80952">
        <ele>215.7</ele>
        <time>2025-01-10T10:19:21.000Z</time>
      </trkpt>
      <trkpt lat="43.60582" lon="6.80957">
        <ele>215.6</ele>
        <time>2025-01-10T10:19:20.000Z</time>
      </trkpt>
      <trkpt lat="43.60584" lon="6.80961">
        <ele>215.5</ele>
        <time>2025-01-10T10:19:19.000Z</time>
      </trkpt>
      <trkpt lat="43.60586" lon="6.80966">
        <ele>215.4</ele>
        <time>2025-01-10T10:19:18.000Z</time>
      </trkpt>
      <trkpt lat="43.60588" lon="6.80971">
        <ele>215.2</ele>
        <time>2025-01-10T10:19:17.000Z</time>
      </trkpt>
      <trkpt lat="43.6059" lon="6.80975">
        <ele>215.1</ele>
        <time>2025-01-10T10:19:16.000Z</time>
      </trkpt>
      <trkpt lat="43.60593" lon="6.80979">
        <ele>215</ele>
        <time>2025-01-10T10:19:15.000Z</time>
      </trkpt>
      <trkpt lat="43.60595" lon="6.80983">
        <ele>214.9</ele>
        <time>2025-01-10T10:19:14.000Z</time>
      </trkpt>
      <trkpt lat="43.60598" lon="6.80987">
        <ele>214.8</ele>
        <time>2025-01-10T10:19:13.000Z</time>
      </trkpt>
      <trkpt lat="43.606" lon="6.80991">
        <ele>214.7</ele>
        <time>2025-01-10T10:19:12.000Z</time>
      </trkpt>
      <trkpt lat="43.60603" lon="6.80995">
        <ele>214.6</ele>
        <time>2025-01-10T10:19:11.000Z</time>
      </trkpt>
      <trkpt lat="43.60605" lon="6.80999">
        <ele>214.5</ele>
        <time>2025-01-10T10:19:10.000Z</time>
      </trkpt>
      <trkpt lat="43.60608" lon="6.81002">
        <ele>214.4</ele>
        <time>2025-01-10T10:19:09.000Z</time>
      </trkpt>
      <trkpt lat="43.6061" lon="6.81006">
        <ele>214.3</ele>
        <time>2025-01-10T10:19:08.000Z</time>
      </trkpt>
      <trkpt lat="43.60613" lon="6.8101">
        <ele>214.3</ele>
        <time>2025-01-10T10:19:07.000Z</time>
      </trkpt>
      <trkpt lat="43.60616" lon="6.81013">
        <ele>214.2</ele>
        <time>2025-01-10T10:19:06.000Z</time>
      </trkpt>
      <trkpt lat="43.60619" lon="6.81017">
        <ele>214.1</ele>
        <time>2025-01-10T10:19:05.000Z</time>
      </trkpt>
      <trkpt lat="43.60621" lon="6.81019">
        <ele>214.1</ele>
        <time>2025-01-10T10:19:04.000Z</time>
      </trkpt>
      <trkpt lat="43.60624" lon="6.81022">
        <ele>214</ele>
        <time>2025-01-10T10:19:03.000Z</time>
      </trkpt>
      <trkpt lat="43.60626" lon="6.81025">
        <ele>213.9</ele>
        <time>2025-01-10T10:19:02.000Z</time>
      </trkpt>
      <trkpt lat="43.60628" lon="6.81028">
        <ele>213.9</ele>
        <time>2025-01-10T10:19:01.000Z</time>
      </trkpt>
      <trkpt lat="43.60631" lon="6.8103">
        <ele>213.8</ele>
        <time>2025-01-10T10:19:00.000Z</time>
      </trkpt>
      <trkpt lat="43.60633" lon="6.81033">
        <ele>213.7</ele>
        <time>2025-01-10T10:18:59.000Z</time>
      </trkpt>
      <trkpt lat="43.60636" lon="6.81035">
        <ele>213.7</ele>
        <time>2025-01-10T10:18:58.000Z</time>
      </trkpt>
      <trkpt lat="43.60639" lon="6.81037">
        <ele>213.6</ele>
        <time>2025-01-10T10:18:57.000Z</time>
      </trkpt>
      <trkpt lat="43.60642" lon="6.8104">
        <ele>213.4</ele>
        <time>2025-01-10T10:18:56.000Z</time>
      </trkpt>
      <trkpt lat="43.60645" lon="6.81043">
        <ele>213.3</ele>
        <time>2025-01-10T10:18:55.000Z</time>
      </trkpt>
      <trkpt lat="43.60648" lon="6.81046">
        <ele>213.2</ele>
        <time>2025-01-10T10:18:54.000Z</time>
      </trkpt>
      <trkpt lat="43.60652" lon="6.81048">
        <ele>213.1</ele>
        <time>2025-01-10T10:18:53.000Z</time>
      </trkpt>
      <trkpt lat="43.60655" lon="6.8105">
        <ele>213</ele>
        <time>2025-01-10T10:18:52.000Z</time>
      </trkpt>
      <trkpt lat="43.60659" lon="6.81052">
        <ele>212.9</ele>
        <time>2025-01-10T10:18:51.000Z</time>
      </trkpt>
      <trkpt lat="43.60663" lon="6.81054">
        <ele>212.8</ele>
        <time>2025-01-10T10:18:50.000Z</time>
      </trkpt>
      <trkpt lat="43.60667" lon="6.81056">
        <ele>212.6</ele>
        <time>2025-01-10T10:18:49.000Z</time>
      </trkpt>
      <trkpt lat="43.6067" lon="6.81059">
        <ele>212.5</ele>
        <time>2025-01-10T10:18:48.000Z</time>
      </trkpt>
      <trkpt lat="43.60674" lon="6.81061">
        <ele>212.4</ele>
        <time>2025-01-10T10:18:47.000Z</time>
      </trkpt>
      <trkpt lat="43.60677" lon="6.81063">
        <ele>212.3</ele>
        <time>2025-01-10T10:18:46.000Z</time>
      </trkpt>
      <trkpt lat="43.60681" lon="6.81064">
        <ele>212.1</ele>
        <time>2025-01-10T10:18:45.000Z</time>
      </trkpt>
      <trkpt lat="43.60685" lon="6.81066">
        <ele>212</ele>
        <time>2025-01-10T10:18:44.000Z</time>
      </trkpt>
      <trkpt lat="43.60688" lon="6.81067">
        <ele>211.9</ele>
        <time>2025-01-10T10:18:43.000Z</time>
      </trkpt>
      <trkpt lat="43.60692" lon="6.81068">
        <ele>211.8</ele>
        <time>2025-01-10T10:18:42.000Z</time>
      </trkpt>
      <trkpt lat="43.60696" lon="6.81069">
        <ele>211.7</ele>
        <time>2025-01-10T10:18:41.000Z</time>
      </trkpt>
      <trkpt lat="43.607" lon="6.81071">
        <ele>211.5</ele>
        <time>2025-01-10T10:18:40.000Z</time>
      </trkpt>
      <trkpt lat="43.60704" lon="6.81073">
        <ele>211.4</ele>
        <time>2025-01-10T10:18:39.000Z</time>
      </trkpt>
      <trkpt lat="43.60708" lon="6.81075">
        <ele>211.3</ele>
        <time>2025-01-10T10:18:38.000Z</time>
      </trkpt>
      <trkpt lat="43.60712" lon="6.81076">
        <ele>211.1</ele>
        <time>2025-01-10T10:18:37.000Z</time>
      </trkpt>
      <trkpt lat="43.60716" lon="6.81077">
        <ele>211</ele>
        <time>2025-01-10T10:18:36.000Z</time>
      </trkpt>
      <trkpt lat="43.6072" lon="6.81078">
        <ele>210.8</ele>
        <time>2025-01-10T10:18:35.000Z</time>
      </trkpt>
      <trkpt lat="43.60724" lon="6.81078">
        <ele>210.7</ele>
        <time>2025-01-10T10:18:34.000Z</time>
      </trkpt>
      <trkpt lat="43.60727" lon="6.81079">
        <ele>210.6</ele>
        <time>2025-01-10T10:18:33.000Z</time>
      </trkpt>
      <trkpt lat="43.60731" lon="6.81081">
        <ele>210.4</ele>
        <time>2025-01-10T10:18:32.000Z</time>
      </trkpt>
      <trkpt lat="43.60735" lon="6.81081">
        <ele>210.3</ele>
        <time>2025-01-10T10:18:31.000Z</time>
      </trkpt>
      <trkpt lat="43.60739" lon="6.81082">
        <ele>210.1</ele>
        <time>2025-01-10T10:18:30.000Z</time>
      </trkpt>
      <trkpt lat="43.60742" lon="6.81083">
        <ele>210</ele>
        <time>2025-01-10T10:18:29.000Z</time>
      </trkpt>
      <trkpt lat="43.60746" lon="6.81083">
        <ele>209.8</ele>
        <time>2025-01-10T10:18:28.000Z</time>
      </trkpt>
      <trkpt lat="43.6075" lon="6.81084">
        <ele>209.7</ele>
        <time>2025-01-10T10:18:27.000Z</time>
      </trkpt>
      <trkpt lat="43.60754" lon="6.81085">
        <ele>209.5</ele>
        <time>2025-01-10T10:18:26.000Z</time>
      </trkpt>
      <trkpt lat="43.60758" lon="6.81086">
        <ele>209.4</ele>
        <time>2025-01-10T10:18:25.000Z</time>
      </trkpt>
      <trkpt lat="43.60762" lon="6.81088">
        <ele>209.2</ele>
        <time>2025-01-10T10:18:24.000Z</time>
      </trkpt>
      <trkpt lat="43.60766" lon="6.81089">
        <ele>209.1</ele>
        <time>2025-01-10T10:18:23.000Z</time>
      </trkpt>
      <trkpt lat="43.60769" lon="6.81091">
        <ele>208.9</ele>
        <time>2025-01-10T10:18:22.000Z</time>
      </trkpt>
      <trkpt lat="43.60773" lon="6.81092">
        <ele>208.8</ele>
        <time>2025-01-10T10:18:21.000Z</time>
      </trkpt>
      <trkpt lat="43.60777" lon="6.81094">
        <ele>208.6</ele>
        <time>2025-01-10T10:18:20.000Z</time>
      </trkpt>
      <trkpt lat="43.6078" lon="6.81096">
        <ele>208.5</ele>
        <time>2025-01-10T10:18:19.000Z</time>
      </trkpt>
      <trkpt lat="43.60784" lon="6.81097">
        <ele>208.3</ele>
        <time>2025-01-10T10:18:18.000Z</time>
      </trkpt>
      <trkpt lat="43.60788" lon="6.811">
        <ele>208.2</ele>
        <time>2025-01-10T10:18:17.000Z</time>
      </trkpt>
      <trkpt lat="43.60791" lon="6.81102">
        <ele>208</ele>
        <time>2025-01-10T10:18:16.000Z</time>
      </trkpt>
      <trkpt lat="43.60795" lon="6.81104">
        <ele>207.9</ele>
        <time>2025-01-10T10:18:15.000Z</time>
      </trkpt>
      <trkpt lat="43.60798" lon="6.81106">
        <ele>207.7</ele>
        <time>2025-01-10T10:18:14.000Z</time>
      </trkpt>
      <trkpt lat="43.60802" lon="6.81108">
        <ele>207.5</ele>
        <time>2025-01-10T10:18:13.000Z</time>
      </trkpt>
      <trkpt lat="43.60805" lon="6.81111">
        <ele>207.3</ele>
        <time>2025-01-10T10:18:12.000Z</time>
      </trkpt>
      <trkpt lat="43.60808" lon="6.81114">
        <ele>207.2</ele>
        <time>2025-01-10T10:18:11.000Z</time>
      </trkpt>
      <trkpt lat="43.60811" lon="6.81117">
        <ele>207</ele>
        <time>2025-01-10T10:18:10.000Z</time>
      </trkpt>
      <trkpt lat="43.60815" lon="6.8112">
        <ele>206.8</ele>
        <time>2025-01-10T10:18:09.000Z</time>
      </trkpt>
      <trkpt lat="43.60818" lon="6.81123">
        <ele>206.6</ele>
        <time>2025-01-10T10:18:08.000Z</time>
      </trkpt>
      <trkpt lat="43.60821" lon="6.81126">
        <ele>206.4</ele>
        <time>2025-01-10T10:18:07.000Z</time>
      </trkpt>
      <trkpt lat="43.60824" lon="6.81129">
        <ele>206.2</ele>
        <time>2025-01-10T10:18:06.000Z</time>
      </trkpt>
      <trkpt lat="43.60828" lon="6.81132">
        <ele>206</ele>
        <time>2025-01-10T10:18:05.000Z</time>
      </trkpt>
      <trkpt lat="43.60831" lon="6.81136">
        <ele>205.8</ele>
        <time>2025-01-10T10:18:04.000Z</time>
      </trkpt>
      <trkpt lat="43.60834" lon="6.81138">
        <ele>205.6</ele>
        <time>2025-01-10T10:18:03.000Z</time>
      </trkpt>
      <trkpt lat="43.60837" lon="6.81142">
        <ele>205.5</ele>
        <time>2025-01-10T10:18:02.000Z</time>
      </trkpt>
      <trkpt lat="43.6084" lon="6.81145">
        <ele>205.3</ele>
        <time>2025-01-10T10:18:01.000Z</time>
      </trkpt>
      <trkpt lat="43.60843" lon="6.81148">
        <ele>205.2</ele>
        <time>2025-01-10T10:18:00.000Z</time>
      </trkpt>
      <trkpt lat="43.60845" lon="6.81152">
        <ele>205.1</ele>
        <time>2025-01-10T10:17:59.000Z</time>
      </trkpt>
      <trkpt lat="43.60849" lon="6.81155">
        <ele>205</ele>
        <time>2025-01-10T10:17:58.000Z</time>
      </trkpt>
      <trkpt lat="43.60852" lon="6.81159">
        <ele>204.9</ele>
        <time>2025-01-10T10:17:57.000Z</time>
      </trkpt>
      <trkpt lat="43.60855" lon="6.81164">
        <ele>204.8</ele>
        <time>2025-01-10T10:17:56.000Z</time>
      </trkpt>
      <trkpt lat="43.60857" lon="6.81168">
        <ele>204.7</ele>
        <time>2025-01-10T10:17:55.000Z</time>
      </trkpt>
      <trkpt lat="43.6086" lon="6.81172">
        <ele>204.7</ele>
        <time>2025-01-10T10:17:54.000Z</time>
      </trkpt>
      <trkpt lat="43.60863" lon="6.81177">
        <ele>204.6</ele>
        <time>2025-01-10T10:17:53.000Z</time>
      </trkpt>
      <trkpt lat="43.60865" lon="6.81181">
        <ele>204.6</ele>
        <time>2025-01-10T10:17:52.000Z</time>
      </trkpt>
      <trkpt lat="43.60868" lon="6.81186">
        <ele>204.5</ele>
        <time>2025-01-10T10:17:51.000Z</time>
      </trkpt>
      <trkpt lat="43.6087" lon="6.8119">
        <ele>204.5</ele>
        <time>2025-01-10T10:17:50.000Z</time>
      </trkpt>
      <trkpt lat="43.60873" lon="6.81195">
        <ele>204.4</ele>
        <time>2025-01-10T10:17:49.000Z</time>
      </trkpt>
      <trkpt lat="43.60875" lon="6.812">
        <ele>204.4</ele>
        <time>2025-01-10T10:17:48.000Z</time>
      </trkpt>
      <trkpt lat="43.60877" lon="6.81205">
        <ele>204.3</ele>
        <time>2025-01-10T10:17:47.000Z</time>
      </trkpt>
      <trkpt lat="43.60879" lon="6.8121">
        <ele>204.2</ele>
        <time>2025-01-10T10:17:46.000Z</time>
      </trkpt>
      <trkpt lat="43.6088" lon="6.81215">
        <ele>204.1</ele>
        <time>2025-01-10T10:17:45.000Z</time>
      </trkpt>
      <trkpt lat="43.60882" lon="6.8122">
        <ele>204</ele>
        <time>2025-01-10T10:17:44.000Z</time>
      </trkpt>
      <trkpt lat="43.60884" lon="6.81225">
        <ele>203.9</ele>
        <time>2025-01-10T10:17:43.000Z</time>
      </trkpt>
      <trkpt lat="43.60885" lon="6.8123">
        <ele>203.8</ele>
        <time>2025-01-10T10:17:42.000Z</time>
      </trkpt>
      <trkpt lat="43.60887" lon="6.81235">
        <ele>203.7</ele>
        <time>2025-01-10T10:17:41.000Z</time>
      </trkpt>
      <trkpt lat="43.60889" lon="6.8124">
        <ele>203.6</ele>
        <time>2025-01-10T10:17:40.000Z</time>
      </trkpt>
      <trkpt lat="43.6089" lon="6.81245">
        <ele>203.5</ele>
        <time>2025-01-10T10:17:39.000Z</time>
      </trkpt>
      <trkpt lat="43.60892" lon="6.8125">
        <ele>203.4</ele>
        <time>2025-01-10T10:17:38.000Z</time>
      </trkpt>
      <trkpt lat="43.60893" lon="6.81255">
        <ele>203.3</ele>
        <time>2025-01-10T10:17:37.000Z</time>
      </trkpt>
      <trkpt lat="43.60894" lon="6.8126">
        <ele>203.2</ele>
        <time>2025-01-10T10:17:36.000Z</time>
      </trkpt>
      <trkpt lat="43.60896" lon="6.81265">
        <ele>203.1</ele>
        <time>2025-01-10T10:17:35.000Z</time>
      </trkpt>
      <trkpt lat="43.60897" lon="6.8127">
        <ele>203</ele>
        <time>2025-01-10T10:17:34.000Z</time>
      </trkpt>
      <trkpt lat="43.60899" lon="6.81275">
        <ele>202.9</ele>
        <time>2025-01-10T10:17:33.000Z</time>
      </trkpt>
      <trkpt lat="43.609" lon="6.81279">
        <ele>202.8</ele>
        <time>2025-01-10T10:17:32.000Z</time>
      </trkpt>
      <trkpt lat="43.60901" lon="6.81283">
        <ele>202.7</ele>
        <time>2025-01-10T10:17:31.000Z</time>
      </trkpt>
      <trkpt lat="43.60902" lon="6.81288">
        <ele>202.6</ele>
        <time>2025-01-10T10:17:30.000Z</time>
      </trkpt>
      <trkpt lat="43.60904" lon="6.81292">
        <ele>202.5</ele>
        <time>2025-01-10T10:17:29.000Z</time>
      </trkpt>
      <trkpt lat="43.60905" lon="6.81296">
        <ele>202.4</ele>
        <time>2025-01-10T10:17:28.000Z</time>
      </trkpt>
      <trkpt lat="43.60906" lon="6.81301">
        <ele>202.2</ele>
        <time>2025-01-10T10:17:27.000Z</time>
      </trkpt>
      <trkpt lat="43.60908" lon="6.81305">
        <ele>202.1</ele>
        <time>2025-01-10T10:17:26.000Z</time>
      </trkpt>
      <trkpt lat="43.60909" lon="6.8131">
        <ele>202</ele>
        <time>2025-01-10T10:17:25.000Z</time>
      </trkpt>
      <trkpt lat="43.60911" lon="6.81314">
        <ele>201.9</ele>
        <time>2025-01-10T10:17:24.000Z</time>
      </trkpt>
      <trkpt lat="43.60912" lon="6.81318">
        <ele>201.8</ele>
        <time>2025-01-10T10:17:23.000Z</time>
      </trkpt>
      <trkpt lat="43.60914" lon="6.81323">
        <ele>201.6</ele>
        <time>2025-01-10T10:17:22.000Z</time>
      </trkpt>
      <trkpt lat="43.60915" lon="6.81328">
        <ele>201.5</ele>
        <time>2025-01-10T10:17:21.000Z</time>
      </trkpt>
      <trkpt lat="43.60916" lon="6.81333">
        <ele>201.4</ele>
        <time>2025-01-10T10:17:20.000Z</time>
      </trkpt>
      <trkpt lat="43.60917" lon="6.81338">
        <ele>201.3</ele>
        <time>2025-01-10T10:17:19.000Z</time>
      </trkpt>
      <trkpt lat="43.60919" lon="6.81343">
        <ele>201.1</ele>
        <time>2025-01-10T10:17:18.000Z</time>
      </trkpt>
      <trkpt lat="43.6092" lon="6.81347">
        <ele>201</ele>
        <time>2025-01-10T10:17:17.000Z</time>
      </trkpt>
      <trkpt lat="43.60922" lon="6.81352">
        <ele>200.9</ele>
        <time>2025-01-10T10:17:16.000Z</time>
      </trkpt>
      <trkpt lat="43.60924" lon="6.81356">
        <ele>200.8</ele>
        <time>2025-01-10T10:17:15.000Z</time>
      </trkpt>
      <trkpt lat="43.60926" lon="6.81361">
        <ele>200.7</ele>
        <time>2025-01-10T10:17:14.000Z</time>
      </trkpt>
      <trkpt lat="43.60928" lon="6.81365">
        <ele>200.6</ele>
        <time>2025-01-10T10:17:13.000Z</time>
      </trkpt>
      <trkpt lat="43.60931" lon="6.81369">
        <ele>200.4</ele>
        <time>2025-01-10T10:17:12.000Z</time>
      </trkpt>
      <trkpt lat="43.60933" lon="6.81373">
        <ele>200.3</ele>
        <time>2025-01-10T10:17:11.000Z</time>
      </trkpt>
      <trkpt lat="43.60935" lon="6.81378">
        <ele>200.2</ele>
        <time>2025-01-10T10:17:10.000Z</time>
      </trkpt>
      <trkpt lat="43.60938" lon="6.81382">
        <ele>200.1</ele>
        <time>2025-01-10T10:17:09.000Z</time>
      </trkpt>
      <trkpt lat="43.6094" lon="6.81386">
        <ele>200</ele>
        <time>2025-01-10T10:17:08.000Z</time>
      </trkpt>
      <trkpt lat="43.60942" lon="6.8139">
        <ele>199.9</ele>
        <time>2025-01-10T10:17:07.000Z</time>
      </trkpt>
      <trkpt lat="43.60945" lon="6.81394">
        <ele>199.8</ele>
        <time>2025-01-10T10:17:06.000Z</time>
      </trkpt>
      <trkpt lat="43.60947" lon="6.81398">
        <ele>199.6</ele>
        <time>2025-01-10T10:17:05.000Z</time>
      </trkpt>
      <trkpt lat="43.6095" lon="6.81403">
        <ele>199.5</ele>
        <time>2025-01-10T10:17:04.000Z</time>
      </trkpt>
      <trkpt lat="43.60952" lon="6.81407">
        <ele>199.4</ele>
        <time>2025-01-10T10:17:03.000Z</time>
      </trkpt>
      <trkpt lat="43.60955" lon="6.8141">
        <ele>199.2</ele>
        <time>2025-01-10T10:17:02.000Z</time>
      </trkpt>
      <trkpt lat="43.60958" lon="6.81414">
        <ele>199.1</ele>
        <time>2025-01-10T10:17:01.000Z</time>
      </trkpt>
      <trkpt lat="43.6096" lon="6.81417">
        <ele>199</ele>
        <time>2025-01-10T10:17:00.000Z</time>
      </trkpt>
      <trkpt lat="43.60963" lon="6.8142">
        <ele>198.8</ele>
        <time>2025-01-10T10:16:59.000Z</time>
      </trkpt>
      <trkpt lat="43.60966" lon="6.81424">
        <ele>198.7</ele>
        <time>2025-01-10T10:16:58.000Z</time>
      </trkpt>
      <trkpt lat="43.60969" lon="6.81427">
        <ele>198.5</ele>
        <time>2025-01-10T10:16:57.000Z</time>
      </trkpt>
      <trkpt lat="43.60972" lon="6.8143">
        <ele>198.4</ele>
        <time>2025-01-10T10:16:56.000Z</time>
      </trkpt>
      <trkpt lat="43.60975" lon="6.81433">
        <ele>198.3</ele>
        <time>2025-01-10T10:16:55.000Z</time>
      </trkpt>
      <trkpt lat="43.60978" lon="6.81436">
        <ele>198.1</ele>
        <time>2025-01-10T10:16:54.000Z</time>
      </trkpt>
      <trkpt lat="43.60981" lon="6.81439">
        <ele>198</ele>
        <time>2025-01-10T10:16:53.000Z</time>
      </trkpt>
      <trkpt lat="43.60985" lon="6.81442">
        <ele>197.8</ele>
        <time>2025-01-10T10:16:52.000Z</time>
      </trkpt>
      <trkpt lat="43.60988" lon="6.81444">
        <ele>197.7</ele>
        <time>2025-01-10T10:16:51.000Z</time>
      </trkpt>
      <trkpt lat="43.60992" lon="6.81446">
        <ele>197.5</ele>
        <time>2025-01-10T10:16:50.000Z</time>
      </trkpt>
      <trkpt lat="43.60995" lon="6.81449">
        <ele>197.4</ele>
        <time>2025-01-10T10:16:49.000Z</time>
      </trkpt>
      <trkpt lat="43.60999" lon="6.81451">
        <ele>197.3</ele>
        <time>2025-01-10T10:16:48.000Z</time>
      </trkpt>
      <trkpt lat="43.61003" lon="6.81454">
        <ele>197.1</ele>
        <time>2025-01-10T10:16:47.000Z</time>
      </trkpt>
      <trkpt lat="43.61006" lon="6.81456">
        <ele>197</ele>
        <time>2025-01-10T10:16:46.000Z</time>
      </trkpt>
      <trkpt lat="43.6101" lon="6.81459">
        <ele>196.8</ele>
        <time>2025-01-10T10:16:45.000Z</time>
      </trkpt>
      <trkpt lat="43.61014" lon="6.81461">
        <ele>196.7</ele>
        <time>2025-01-10T10:16:44.000Z</time>
      </trkpt>
      <trkpt lat="43.61017" lon="6.81463">
        <ele>196.6</ele>
        <time>2025-01-10T10:16:43.000Z</time>
      </trkpt>
      <trkpt lat="43.61021" lon="6.81465">
        <ele>196.4</ele>
        <time>2025-01-10T10:16:42.000Z</time>
      </trkpt>
      <trkpt lat="43.61025" lon="6.81467">
        <ele>196.3</ele>
        <time>2025-01-10T10:16:41.000Z</time>
      </trkpt>
      <trkpt lat="43.61028" lon="6.81469">
        <ele>196.2</ele>
        <time>2025-01-10T10:16:40.000Z</time>
      </trkpt>
      <trkpt lat="43.61032" lon="6.81471">
        <ele>196.1</ele>
        <time>2025-01-10T10:16:39.000Z</time>
      </trkpt>
      <trkpt lat="43.61036" lon="6.81473">
        <ele>195.9</ele>
        <time>2025-01-10T10:16:38.000Z</time>
      </trkpt>
      <trkpt lat="43.6104" lon="6.81475">
        <ele>195.8</ele>
        <time>2025-01-10T10:16:37.000Z</time>
      </trkpt>
      <trkpt lat="43.61044" lon="6.81477">
        <ele>195.7</ele>
        <time>2025-01-10T10:16:36.000Z</time>
      </trkpt>
      <trkpt lat="43.61048" lon="6.81479">
        <ele>195.6</ele>
        <time>2025-01-10T10:16:35.000Z</time>
      </trkpt>
      <trkpt lat="43.61052" lon="6.81481">
        <ele>195.5</ele>
        <time>2025-01-10T10:16:34.000Z</time>
      </trkpt>
      <trkpt lat="43.61056" lon="6.81483">
        <ele>195.3</ele>
        <time>2025-01-10T10:16:33.000Z</time>
      </trkpt>
      <trkpt lat="43.6106" lon="6.81485">
        <ele>195.2</ele>
        <time>2025-01-10T10:16:32.000Z</time>
      </trkpt>
      <trkpt lat="43.61064" lon="6.81487">
        <ele>195.1</ele>
        <time>2025-01-10T10:16:31.000Z</time>
      </trkpt>
      <trkpt lat="43.61069" lon="6.8149">
        <ele>195</ele>
        <time>2025-01-10T10:16:30.000Z</time>
      </trkpt>
      <trkpt lat="43.61073" lon="6.81492">
        <ele>194.9</ele>
        <time>2025-01-10T10:16:29.000Z</time>
      </trkpt>
      <trkpt lat="43.61077" lon="6.81494">
        <ele>194.8</ele>
        <time>2025-01-10T10:16:28.000Z</time>
      </trkpt>
      <trkpt lat="43.61081" lon="6.81496">
        <ele>194.7</ele>
        <time>2025-01-10T10:16:27.000Z</time>
      </trkpt>
      <trkpt lat="43.61085" lon="6.81498">
        <ele>194.7</ele>
        <time>2025-01-10T10:16:26.000Z</time>
      </trkpt>
      <trkpt lat="43.61089" lon="6.81499">
        <ele>194.6</ele>
        <time>2025-01-10T10:16:25.000Z</time>
      </trkpt>
      <trkpt lat="43.61093" lon="6.81501">
        <ele>194.5</ele>
        <time>2025-01-10T10:16:24.000Z</time>
      </trkpt>
      <trkpt lat="43.61096" lon="6.81502">
        <ele>194.4</ele>
        <time>2025-01-10T10:16:23.000Z</time>
      </trkpt>
      <trkpt lat="43.61099" lon="6.81505">
        <ele>194.3</ele>
        <time>2025-01-10T10:16:22.000Z</time>
      </trkpt>
      <trkpt lat="43.61101" lon="6.81508">
        <ele>194.2</ele>
        <time>2025-01-10T10:16:21.000Z</time>
      </trkpt>
      <trkpt lat="43.61104" lon="6.81512">
        <ele>194.1</ele>
        <time>2025-01-10T10:16:20.000Z</time>
      </trkpt>
      <trkpt lat="43.61107" lon="6.81516">
        <ele>194</ele>
        <time>2025-01-10T10:16:19.000Z</time>
      </trkpt>
      <trkpt lat="43.6111" lon="6.81519">
        <ele>193.8</ele>
        <time>2025-01-10T10:16:18.000Z</time>
      </trkpt>
      <trkpt lat="43.61114" lon="6.81523">
        <ele>193.7</ele>
        <time>2025-01-10T10:16:17.000Z</time>
      </trkpt>
      <trkpt lat="43.61117" lon="6.81526">
        <ele>193.6</ele>
        <time>2025-01-10T10:16:16.000Z</time>
      </trkpt>
      <trkpt lat="43.61121" lon="6.81529">
        <ele>193.5</ele>
        <time>2025-01-10T10:16:15.000Z</time>
      </trkpt>
      <trkpt lat="43.61124" lon="6.81532">
        <ele>193.4</ele>
        <time>2025-01-10T10:16:14.000Z</time>
      </trkpt>
      <trkpt lat="43.61127" lon="6.81536">
        <ele>193.3</ele>
        <time>2025-01-10T10:16:13.000Z</time>
      </trkpt>
      <trkpt lat="43.61129" lon="6.8154">
        <ele>193.2</ele>
        <time>2025-01-10T10:16:12.000Z</time>
      </trkpt>
      <trkpt lat="43.61132" lon="6.81543">
        <ele>193.2</ele>
        <time>2025-01-10T10:16:11.000Z</time>
      </trkpt>
      <trkpt lat="43.61135" lon="6.81546">
        <ele>193.1</ele>
        <time>2025-01-10T10:16:10.000Z</time>
      </trkpt>
      <trkpt lat="43.61137" lon="6.81549">
        <ele>193</ele>
        <time>2025-01-10T10:16:09.000Z</time>
      </trkpt>
      <trkpt lat="43.6114" lon="6.81553">
        <ele>192.7</ele>
        <time>2025-01-10T10:16:08.000Z</time>
      </trkpt>
      <trkpt lat="43.61142" lon="6.81557">
        <ele>192.3</ele>
        <time>2025-01-10T10:16:07.000Z</time>
      </trkpt>
      <trkpt lat="43.61144" lon="6.81561">
        <ele>192</ele>
        <time>2025-01-10T10:16:06.000Z</time>
      </trkpt>
      <trkpt lat="43.61146" lon="6.81567">
        <ele>191.9</ele>
        <time>2025-01-10T10:16:05.000Z</time>
      </trkpt>
      <trkpt lat="43.61148" lon="6.81572">
        <ele>191.8</ele>
        <time>2025-01-10T10:16:04.000Z</time>
      </trkpt>
      <trkpt lat="43.6115" lon="6.81577">
        <ele>191.7</ele>
        <time>2025-01-10T10:16:03.000Z</time>
      </trkpt>
      <trkpt lat="43.61153" lon="6.81582">
        <ele>191.6</ele>
        <time>2025-01-10T10:16:02.000Z</time>
      </trkpt>
      <trkpt lat="43.61155" lon="6.81587">
        <ele>191.5</ele>
        <time>2025-01-10T10:16:01.000Z</time>
      </trkpt>
      <trkpt lat="43.61158" lon="6.81591">
        <ele>191.4</ele>
        <time>2025-01-10T10:16:00.000Z</time>
      </trkpt>
      <trkpt lat="43.6116" lon="6.81596">
        <ele>191.2</ele>
        <time>2025-01-10T10:15:59.000Z</time>
      </trkpt>
      <trkpt lat="43.61163" lon="6.81602">
        <ele>191.1</ele>
        <time>2025-01-10T10:15:58.000Z</time>
      </trkpt>
      <trkpt lat="43.61165" lon="6.81607">
        <ele>190.9</ele>
        <time>2025-01-10T10:15:57.000Z</time>
      </trkpt>
      <trkpt lat="43.61167" lon="6.81612">
        <ele>190.8</ele>
        <time>2025-01-10T10:15:56.000Z</time>
      </trkpt>
      <trkpt lat="43.61169" lon="6.81618">
        <ele>190.6</ele>
        <time>2025-01-10T10:15:55.000Z</time>
      </trkpt>
      <trkpt lat="43.61171" lon="6.81623">
        <ele>190.5</ele>
        <time>2025-01-10T10:15:54.000Z</time>
      </trkpt>
      <trkpt lat="43.61173" lon="6.81629">
        <ele>190.3</ele>
        <time>2025-01-10T10:15:53.000Z</time>
      </trkpt>
      <trkpt lat="43.61174" lon="6.81634">
        <ele>190.1</ele>
        <time>2025-01-10T10:15:52.000Z</time>
      </trkpt>
      <trkpt lat="43.61176" lon="6.8164">
        <ele>190</ele>
        <time>2025-01-10T10:15:51.000Z</time>
      </trkpt>
      <trkpt lat="43.61177" lon="6.81645">
        <ele>189.8</ele>
        <time>2025-01-10T10:15:50.000Z</time>
      </trkpt>
      <trkpt lat="43.61178" lon="6.8165">
        <ele>189.6</ele>
        <time>2025-01-10T10:15:49.000Z</time>
      </trkpt>
      <trkpt lat="43.61179" lon="6.81655">
        <ele>189.5</ele>
        <time>2025-01-10T10:15:48.000Z</time>
      </trkpt>
      <trkpt lat="43.6118" lon="6.81661">
        <ele>189.3</ele>
        <time>2025-01-10T10:15:47.000Z</time>
      </trkpt>
      <trkpt lat="43.6118" lon="6.81666">
        <ele>189.1</ele>
        <time>2025-01-10T10:15:46.000Z</time>
      </trkpt>
      <trkpt lat="43.61181" lon="6.81672">
        <ele>188.9</ele>
        <time>2025-01-10T10:15:45.000Z</time>
      </trkpt>
      <trkpt lat="43.61181" lon="6.81677">
        <ele>188.8</ele>
        <time>2025-01-10T10:15:44.000Z</time>
      </trkpt>
      <trkpt lat="43.61182" lon="6.81681">
        <ele>188.6</ele>
        <time>2025-01-10T10:15:43.000Z</time>
      </trkpt>
      <trkpt lat="43.61183" lon="6.81684">
        <ele>188.5</ele>
        <time>2025-01-10T10:15:42.000Z</time>
      </trkpt>
      <trkpt lat="43.61185" lon="6.81687">
        <ele>188.4</ele>
        <time>2025-01-10T10:15:41.000Z</time>
      </trkpt>
      <trkpt lat="43.61187" lon="6.81689">
        <ele>188.3</ele>
        <time>2025-01-10T10:15:40.000Z</time>
      </trkpt>
      <trkpt lat="43.6119" lon="6.8169">
        <ele>188.1</ele>
        <time>2025-01-10T10:15:39.000Z</time>
      </trkpt>
      <trkpt lat="43.61193" lon="6.81691">
        <ele>188</ele>
        <time>2025-01-10T10:15:38.000Z</time>
      </trkpt>
      <trkpt lat="43.61196" lon="6.8169">
        <ele>187.9</ele>
        <time>2025-01-10T10:15:37.000Z</time>
      </trkpt>
      <trkpt lat="43.61199" lon="6.81689">
        <ele>187.7</ele>
        <time>2025-01-10T10:15:36.000Z</time>
      </trkpt>
      <trkpt lat="43.61201" lon="6.81688">
        <ele>187.6</ele>
        <time>2025-01-10T10:15:35.000Z</time>
      </trkpt>
      <trkpt lat="43.61201" lon="6.81688">
        <ele>187.6</ele>
        <time>2025-01-10T10:15:34.000Z</time>
      </trkpt>
      <trkpt lat="43.61201" lon="6.81688">
        <ele>187.6</ele>
        <time>2025-01-10T10:15:33.000Z</time>
      </trkpt>
      <trkpt lat="43.61201" lon="6.81688">
        <ele>187.6</ele>
        <time>2025-01-10T10:15:32.000Z</time>
      </trkpt>
      <trkpt lat="43.61201" lon="6.81688">
        <ele>187.6</ele>
        <time>2025-01-10T10:15:31.000Z</time>
      </trkpt>
      <trkpt lat="43.61201" lon="6.81688">
        <ele>187.6</ele>
        <time>2025-01-10T10:15:30.000Z</time>
      </trkpt>
      <trkpt lat="43.61201" lon="6.81688">
        <ele>187.6</ele>
        <time>2025-01-10T10:15:29.000Z</time>
      </trkpt>
      <trkpt lat="43.61201" lon="6.81688">
        <ele>187.6</ele>
        <time>2025-01-10T10:15:28.000Z</time>
      </trkpt>
      <trkpt lat="43.61201" lon="6.81688">
        <ele>187.6</ele>
        <time>2025-01-10T10:15:27.000Z</time>
      </trkpt>
      <trkpt lat="43.61201" lon="6.81688">
        <ele>187.6</ele>
        <time>2025-01-10T10:15:26.000Z</time>
      </trkpt>
      <trkpt lat="43.61201" lon="6.81688">
        <ele>187.6</ele>
        <time>2025-01-10T10:15:25.000Z</time>
      </trkpt>
      <trkpt lat="43.61201" lon="6.81688">
        <ele>187.6</ele>
        <time>2025-01-10T10:15:24.000Z</time>
      </trkpt>
      <trkpt lat="43.61201" lon="6.81688">
        <ele>187.6</ele>
        <time>2025-01-10T10:15:23.000Z</time>
      </trkpt>
      <trkpt lat="43.61201" lon="6.81688">
        <ele>187.6</ele>
        <time>2025-01-10T10:15:22.000Z</time>
      </trkpt>
      <trkpt lat="43.61201" lon="6.81688">
        <ele>187.6</ele>
        <time>2025-01-10T10:15:21.000Z</time>
      </trkpt>
      <trkpt lat="43.61201" lon="6.81688">
        <ele>187.6</ele>
        <time>2025-01-10T10:15:20.000Z</time>
      </trkpt>
      <trkpt lat="43.61201" lon="6.81687">
        <ele>187.6</ele>
        <time>2025-01-10T10:15:19.000Z</time>
      </trkpt>
      <trkpt lat="43.61201" lon="6.81687">
        <ele>187.6</ele>
        <time>2025-01-10T10:15:18.000Z</time>
      </trkpt>
      <trkpt lat="43.61201" lon="6.81686">
        <ele>187.6</ele>
        <time>2025-01-10T10:15:17.000Z</time>
      </trkpt>
      <trkpt lat="43.61201" lon="6.81686">
        <ele>187.6</ele>
        <time>2025-01-10T10:15:16.000Z</time>
      </trkpt>
      <trkpt lat="43.61201" lon="6.81686">
        <ele>187.5</ele>
        <time>2025-01-10T10:15:15.000Z</time>
      </trkpt>
      <trkpt lat="43.61201" lon="6.81685">
        <ele>187.5</ele>
        <time>2025-01-10T10:15:14.000Z</time>
      </trkpt>
      <trkpt lat="43.612" lon="6.81683">
        <ele>187.5</ele>
        <time>2025-01-10T10:15:13.000Z</time>
      </trkpt>
      <trkpt lat="43.612" lon="6.81683">
        <ele>187.4</ele>
        <time>2025-01-10T10:15:12.000Z</time>
      </trkpt>
      <trkpt lat="43.612" lon="6.81683">
        <ele>187.4</ele>
        <time>2025-01-10T10:15:11.000Z</time>
      </trkpt>
      <trkpt lat="43.612" lon="6.81683">
        <ele>187.4</ele>
        <time>2025-01-10T10:15:10.000Z</time>
      </trkpt>
      <trkpt lat="43.612" lon="6.81683">
        <ele>187.4</ele>
        <time>2025-01-10T10:15:09.000Z</time>
      </trkpt>
      <trkpt lat="43.61201" lon="6.81684">
        <ele>187.3</ele>
        <time>2025-01-10T10:15:08.000Z</time>
      </trkpt>
      <trkpt lat="43.61201" lon="6.81684">
        <ele>187.3</ele>
        <time>2025-01-10T10:15:07.000Z</time>
      </trkpt>
      <trkpt lat="43.61201" lon="6.81686">
        <ele>187.3</ele>
        <time>2025-01-10T10:15:06.000Z</time>
      </trkpt>
      <trkpt lat="43.61202" lon="6.81688">
        <ele>187.2</ele>
        <time>2025-01-10T10:15:05.000Z</time>
      </trkpt>
      <trkpt lat="43.61202" lon="6.81692">
        <ele>187.1</ele>
        <time>2025-01-10T10:15:04.000Z</time>
      </trkpt>
      <trkpt lat="43.61202" lon="6.81696">
        <ele>186.9</ele>
        <time>2025-01-10T10:15:03.000Z</time>
      </trkpt>
      <trkpt lat="43.61203" lon="6.81701">
        <ele>186.7</ele>
        <time>2025-01-10T10:15:02.000Z</time>
      </trkpt>
      <trkpt lat="43.61204" lon="6.81706">
        <ele>186.6</ele>
        <time>2025-01-10T10:15:01.000Z</time>
      </trkpt>
      <trkpt lat="43.61205" lon="6.81711">
        <ele>186.3</ele>
        <time>2025-01-10T10:15:00.000Z</time>
      </trkpt>
      <trkpt lat="43.61206" lon="6.81717">
        <ele>186.1</ele>
        <time>2025-01-10T10:14:59.000Z</time>
      </trkpt>
      <trkpt lat="43.61207" lon="6.81723">
        <ele>185.9</ele>
        <time>2025-01-10T10:14:58.000Z</time>
      </trkpt>
      <trkpt lat="43.61208" lon="6.81729">
        <ele>185.6</ele>
        <time>2025-01-10T10:14:57.000Z</time>
      </trkpt>
      <trkpt lat="43.61209" lon="6.81735">
        <ele>185.4</ele>
        <time>2025-01-10T10:14:56.000Z</time>
      </trkpt>
      <trkpt lat="43.61209" lon="6.81741">
        <ele>185.1</ele>
        <time>2025-01-10T10:14:55.000Z</time>
      </trkpt>
      <trkpt lat="43.6121" lon="6.81747">
        <ele>184.9</ele>
        <time>2025-01-10T10:14:54.000Z</time>
      </trkpt>
      <trkpt lat="43.61211" lon="6.81753">
        <ele>184.7</ele>
        <time>2025-01-10T10:14:53.000Z</time>
      </trkpt>
      <trkpt lat="43.61212" lon="6.81759">
        <ele>184.6</ele>
        <time>2025-01-10T10:14:52.000Z</time>
      </trkpt>
      <trkpt lat="43.61213" lon="6.81765">
        <ele>184.6</ele>
        <time>2025-01-10T10:14:51.000Z</time>
      </trkpt>
      <trkpt lat="43.61214" lon="6.81771">
        <ele>184.5</ele>
        <time>2025-01-10T10:14:50.000Z</time>
      </trkpt>
      <trkpt lat="43.61215" lon="6.81777">
        <ele>184.3</ele>
        <time>2025-01-10T10:14:49.000Z</time>
      </trkpt>
      <trkpt lat="43.61217" lon="6.81783">
        <ele>184</ele>
        <time>2025-01-10T10:14:48.000Z</time>
      </trkpt>
      <trkpt lat="43.61218" lon="6.8179">
        <ele>183.8</ele>
        <time>2025-01-10T10:14:47.000Z</time>
      </trkpt>
      <trkpt lat="43.61219" lon="6.81795">
        <ele>183.6</ele>
        <time>2025-01-10T10:14:46.000Z</time>
      </trkpt>
      <trkpt lat="43.6122" lon="6.81801">
        <ele>183.4</ele>
        <time>2025-01-10T10:14:45.000Z</time>
      </trkpt>
      <trkpt lat="43.61222" lon="6.81807">
        <ele>183.2</ele>
        <time>2025-01-10T10:14:44.000Z</time>
      </trkpt>
      <trkpt lat="43.61223" lon="6.81812">
        <ele>183</ele>
        <time>2025-01-10T10:14:43.000Z</time>
      </trkpt>
      <trkpt lat="43.61225" lon="6.81818">
        <ele>182.8</ele>
        <time>2025-01-10T10:14:42.000Z</time>
      </trkpt>
      <trkpt lat="43.61227" lon="6.81824">
        <ele>182.6</ele>
        <time>2025-01-10T10:14:41.000Z</time>
      </trkpt>
      <trkpt lat="43.61228" lon="6.81831">
        <ele>182.4</ele>
        <time>2025-01-10T10:14:40.000Z</time>
      </trkpt>
      <trkpt lat="43.6123" lon="6.81837">
        <ele>182.1</ele>
        <time>2025-01-10T10:14:39.000Z</time>
      </trkpt>
      <trkpt lat="43.61232" lon="6.81843">
        <ele>181.9</ele>
        <time>2025-01-10T10:14:38.000Z</time>
      </trkpt>
      <trkpt lat="43.61235" lon="6.81849">
        <ele>181.7</ele>
        <time>2025-01-10T10:14:37.000Z</time>
      </trkpt>
      <trkpt lat="43.61237" lon="6.81855">
        <ele>181.6</ele>
        <time>2025-01-10T10:14:36.000Z</time>
      </trkpt>
      <trkpt lat="43.61239" lon="6.81861">
        <ele>181.6</ele>
        <time>2025-01-10T10:14:35.000Z</time>
      </trkpt>
      <trkpt lat="43.61242" lon="6.81867">
        <ele>181.5</ele>
        <time>2025-01-10T10:14:34.000Z</time>
      </trkpt>
      <trkpt lat="43.61245" lon="6.81875">
        <ele>181.5</ele>
        <time>2025-01-10T10:14:33.000Z</time>
      </trkpt>
      <trkpt lat="43.61247" lon="6.81879">
        <ele>181.5</ele>
        <time>2025-01-10T10:14:32.000Z</time>
      </trkpt>
      <trkpt lat="43.61248" lon="6.8188">
        <ele>181.5</ele>
        <time>2025-01-10T10:14:31.000Z</time>
      </trkpt>
      <trkpt lat="43.61248" lon="6.81881">
        <ele>181.5</ele>
        <time>2025-01-10T10:14:30.000Z</time>
      </trkpt>
      <trkpt lat="43.61249" lon="6.81882">
        <ele>181.4</ele>
        <time>2025-01-10T10:14:29.000Z</time>
      </trkpt>
      <trkpt lat="43.61249" lon="6.81883">
        <ele>181.4</ele>
        <time>2025-01-10T10:14:28.000Z</time>
      </trkpt>
      <trkpt lat="43.6125" lon="6.81884">
        <ele>181.4</ele>
        <time>2025-01-10T10:14:27.000Z</time>
      </trkpt>
      <trkpt lat="43.6125" lon="6.81885">
        <ele>181.4</ele>
        <time>2025-01-10T10:14:26.000Z</time>
      </trkpt>
      <trkpt lat="43.61251" lon="6.81886">
        <ele>181.4</ele>
        <time>2025-01-10T10:14:25.000Z</time>
      </trkpt>
      <trkpt lat="43.61251" lon="6.81887">
        <ele>181.4</ele>
        <time>2025-01-10T10:14:24.000Z</time>
      </trkpt>
      <trkpt lat="43.61252" lon="6.81887">
        <ele>181.4</ele>
        <time>2025-01-10T10:14:23.000Z</time>
      </trkpt>
      <trkpt lat="43.61253" lon="6.81888">
        <ele>181.4</ele>
        <time>2025-01-10T10:14:22.000Z</time>
      </trkpt>
      <trkpt lat="43.61253" lon="6.81889">
        <ele>181.4</ele>
        <time>2025-01-10T10:14:21.000Z</time>
      </trkpt>
      <trkpt lat="43.61254" lon="6.8189">
        <ele>181.4</ele>
        <time>2025-01-10T10:14:20.000Z</time>
      </trkpt>
      <trkpt lat="43.61254" lon="6.81891">
        <ele>181.4</ele>
        <time>2025-01-10T10:14:19.000Z</time>
      </trkpt>
      <trkpt lat="43.61255" lon="6.81892">
        <ele>181.3</ele>
        <time>2025-01-10T10:14:18.000Z</time>
      </trkpt>
      <trkpt lat="43.61255" lon="6.81893">
        <ele>181.3</ele>
        <time>2025-01-10T10:14:17.000Z</time>
      </trkpt>
      <trkpt lat="43.61256" lon="6.81894">
        <ele>181.3</ele>
        <time>2025-01-10T10:14:16.000Z</time>
      </trkpt>
      <trkpt lat="43.61256" lon="6.81895">
        <ele>181.2</ele>
        <time>2025-01-10T10:14:15.000Z</time>
      </trkpt>
      <trkpt lat="43.61257" lon="6.81896">
        <ele>181.2</ele>
        <time>2025-01-10T10:14:14.000Z</time>
      </trkpt>
      <trkpt lat="43.61257" lon="6.81896">
        <ele>181.1</ele>
        <time>2025-01-10T10:14:13.000Z</time>
      </trkpt>
      <trkpt lat="43.61258" lon="6.81897">
        <ele>181.1</ele>
        <time>2025-01-10T10:14:12.000Z</time>
      </trkpt>
      <trkpt lat="43.61258" lon="6.81898">
        <ele>181</ele>
        <time>2025-01-10T10:14:11.000Z</time>
      </trkpt>
      <trkpt lat="43.61259" lon="6.81899">
        <ele>181</ele>
        <time>2025-01-10T10:14:10.000Z</time>
      </trkpt>
      <trkpt lat="43.61259" lon="6.819">
        <ele>181</ele>
        <time>2025-01-10T10:14:09.000Z</time>
      </trkpt>
      <trkpt lat="43.6126" lon="6.81901">
        <ele>180.9</ele>
        <time>2025-01-10T10:14:08.000Z</time>
      </trkpt>
      <trkpt lat="43.61261" lon="6.81902">
        <ele>180.9</ele>
        <time>2025-01-10T10:14:07.000Z</time>
      </trkpt>
      <trkpt lat="43.61261" lon="6.81903">
        <ele>180.8</ele>
        <time>2025-01-10T10:14:06.000Z</time>
      </trkpt>
      <trkpt lat="43.61262" lon="6.81904">
        <ele>180.8</ele>
        <time>2025-01-10T10:14:05.000Z</time>
      </trkpt>
      <trkpt lat="43.61262" lon="6.81905">
        <ele>180.8</ele>
        <time>2025-01-10T10:14:04.000Z</time>
      </trkpt>
      <trkpt lat="43.61263" lon="6.81906">
        <ele>180.7</ele>
        <time>2025-01-10T10:14:03.000Z</time>
      </trkpt>
      <trkpt lat="43.61263" lon="6.81906">
        <ele>180.7</ele>
        <time>2025-01-10T10:14:02.000Z</time>
      </trkpt>
      <trkpt lat="43.61264" lon="6.81907">
        <ele>180.6</ele>
        <time>2025-01-10T10:14:01.000Z</time>
      </trkpt>
      <trkpt lat="43.61264" lon="6.81908">
        <ele>180.6</ele>
        <time>2025-01-10T10:14:00.000Z</time>
      </trkpt>
      <trkpt lat="43.61265" lon="6.81909">
        <ele>180.6</ele>
        <time>2025-01-10T10:13:59.000Z</time>
      </trkpt>
      <trkpt lat="43.61265" lon="6.8191">
        <ele>180.5</ele>
        <time>2025-01-10T10:13:58.000Z</time>
      </trkpt>
      <trkpt lat="43.61266" lon="6.81911">
        <ele>180.5</ele>
        <time>2025-01-10T10:13:57.000Z</time>
      </trkpt>
      <trkpt lat="43.61266" lon="6.81912">
        <ele>180.4</ele>
        <time>2025-01-10T10:13:56.000Z</time>
      </trkpt>
      <trkpt lat="43.61267" lon="6.81913">
        <ele>180.4</ele>
        <time>2025-01-10T10:13:55.000Z</time>
      </trkpt>
      <trkpt lat="43.61267" lon="6.81914">
        <ele>180.3</ele>
        <time>2025-01-10T10:13:54.000Z</time>
      </trkpt>
      <trkpt lat="43.61268" lon="6.81915">
        <ele>180.3</ele>
        <time>2025-01-10T10:13:53.000Z</time>
      </trkpt>
      <trkpt lat="43.61268" lon="6.81915">
        <ele>180.3</ele>
        <time>2025-01-10T10:13:52.000Z</time>
      </trkpt>
      <trkpt lat="43.61269" lon="6.81916">
        <ele>180.2</ele>
        <time>2025-01-10T10:13:51.000Z</time>
      </trkpt>
      <trkpt lat="43.6127" lon="6.81918">
        <ele>180.2</ele>
        <time>2025-01-10T10:13:50.000Z</time>
      </trkpt>
      <trkpt lat="43.6127" lon="6.81918">
        <ele>180.1</ele>
        <time>2025-01-10T10:13:49.000Z</time>
      </trkpt>
      <trkpt lat="43.6127" lon="6.81919">
        <ele>180.1</ele>
        <time>2025-01-10T10:13:48.000Z</time>
      </trkpt>
      <trkpt lat="43.61271" lon="6.81919">
        <ele>180.1</ele>
        <time>2025-01-10T10:13:47.000Z</time>
      </trkpt>
      <trkpt lat="43.61272" lon="6.81921">
        <ele>180</ele>
        <time>2025-01-10T10:13:46.000Z</time>
      </trkpt>
      <trkpt lat="43.61274" lon="6.81925">
        <ele>179.8</ele>
        <time>2025-01-10T10:13:45.000Z</time>
      </trkpt>
      <trkpt lat="43.61277" lon="6.8193">
        <ele>179.6</ele>
        <time>2025-01-10T10:13:44.000Z</time>
      </trkpt>
      <trkpt lat="43.6128" lon="6.81934">
        <ele>179.3</ele>
        <time>2025-01-10T10:13:43.000Z</time>
      </trkpt>
      <trkpt lat="43.61283" lon="6.81939">
        <ele>179</ele>
        <time>2025-01-10T10:13:42.000Z</time>
      </trkpt>
      <trkpt lat="43.61287" lon="6.81943">
        <ele>178.8</ele>
        <time>2025-01-10T10:13:41.000Z</time>
      </trkpt>
      <trkpt lat="43.6129" lon="6.81947">
        <ele>178.5</ele>
        <time>2025-01-10T10:13:40.000Z</time>
      </trkpt>
      <trkpt lat="43.61294" lon="6.81951">
        <ele>178.2</ele>
        <time>2025-01-10T10:13:39.000Z</time>
      </trkpt>
      <trkpt lat="43.61298" lon="6.81955">
        <ele>177.9</ele>
        <time>2025-01-10T10:13:38.000Z</time>
      </trkpt>
      <trkpt lat="43.61302" lon="6.81959">
        <ele>177.6</ele>
        <time>2025-01-10T10:13:37.000Z</time>
      </trkpt>
      <trkpt lat="43.61306" lon="6.81963">
        <ele>177.3</ele>
        <time>2025-01-10T10:13:36.000Z</time>
      </trkpt>
      <trkpt lat="43.6131" lon="6.81967">
        <ele>177</ele>
        <time>2025-01-10T10:13:35.000Z</time>
      </trkpt>
      <trkpt lat="43.61314" lon="6.81971">
        <ele>176.6</ele>
        <time>2025-01-10T10:13:34.000Z</time>
      </trkpt>
      <trkpt lat="43.61319" lon="6.81975">
        <ele>176.3</ele>
        <time>2025-01-10T10:13:33.000Z</time>
      </trkpt>
      <trkpt lat="43.61323" lon="6.81979">
        <ele>175.9</ele>
        <time>2025-01-10T10:13:32.000Z</time>
      </trkpt>
      <trkpt lat="43.61327" lon="6.81983">
        <ele>175.6</ele>
        <time>2025-01-10T10:13:31.000Z</time>
      </trkpt>
      <trkpt lat="43.61331" lon="6.81987">
        <ele>175.2</ele>
        <time>2025-01-10T10:13:30.000Z</time>
      </trkpt>
      <trkpt lat="43.61335" lon="6.81991">
        <ele>174.9</ele>
        <time>2025-01-10T10:13:29.000Z</time>
      </trkpt>
      <trkpt lat="43.6134" lon="6.81995">
        <ele>174.5</ele>
        <time>2025-01-10T10:13:28.000Z</time>
      </trkpt>
      <trkpt lat="43.61344" lon="6.81999">
        <ele>174.1</ele>
        <time>2025-01-10T10:13:27.000Z</time>
      </trkpt>
      <trkpt lat="43.61348" lon="6.82004">
        <ele>173.6</ele>
        <time>2025-01-10T10:13:26.000Z</time>
      </trkpt>
      <trkpt lat="43.61352" lon="6.82008">
        <ele>173.2</ele>
        <time>2025-01-10T10:13:25.000Z</time>
      </trkpt>
      <trkpt lat="43.61356" lon="6.82012">
        <ele>172.8</ele>
        <time>2025-01-10T10:13:24.000Z</time>
      </trkpt>
      <trkpt lat="43.6136" lon="6.82017">
        <ele>172.4</ele>
        <time>2025-01-10T10:13:23.000Z</time>
      </trkpt>
      <trkpt lat="43.61365" lon="6.82021">
        <ele>171.9</ele>
        <time>2025-01-10T10:13:22.000Z</time>
      </trkpt>
      <trkpt lat="43.61369" lon="6.82026">
        <ele>171.4</ele>
        <time>2025-01-10T10:13:21.000Z</time>
      </trkpt>
      <trkpt lat="43.61373" lon="6.82032">
        <ele>170.9</ele>
        <time>2025-01-10T10:13:20.000Z</time>
      </trkpt>
      <trkpt lat="43.61377" lon="6.82038">
        <ele>170.4</ele>
        <time>2025-01-10T10:13:19.000Z</time>
      </trkpt>
      <trkpt lat="43.61381" lon="6.82043">
        <ele>169.9</ele>
        <time>2025-01-10T10:13:18.000Z</time>
      </trkpt>
      <trkpt lat="43.61384" lon="6.82049">
        <ele>169.5</ele>
        <time>2025-01-10T10:13:17.000Z</time>
      </trkpt>
      <trkpt lat="43.61389" lon="6.82054">
        <ele>169</ele>
        <time>2025-01-10T10:13:16.000Z</time>
      </trkpt>
      <trkpt lat="43.61393" lon="6.8206">
        <ele>168.6</ele>
        <time>2025-01-10T10:13:15.000Z</time>
      </trkpt>
      <trkpt lat="43.61397" lon="6.82066">
        <ele>168.2</ele>
        <time>2025-01-10T10:13:14.000Z</time>
      </trkpt>
      <trkpt lat="43.61401" lon="6.82071">
        <ele>167.9</ele>
        <time>2025-01-10T10:13:13.000Z</time>
      </trkpt>
      <trkpt lat="43.61405" lon="6.82076">
        <ele>167.6</ele>
        <time>2025-01-10T10:13:12.000Z</time>
      </trkpt>
      <trkpt lat="43.61411" lon="6.8208">
        <ele>167.3</ele>
        <time>2025-01-10T10:13:11.000Z</time>
      </trkpt>
      <trkpt lat="43.61416" lon="6.82084">
        <ele>167.1</ele>
        <time>2025-01-10T10:13:10.000Z</time>
      </trkpt>
      <trkpt lat="43.61421" lon="6.82087">
        <ele>166.9</ele>
        <time>2025-01-10T10:13:09.000Z</time>
      </trkpt>
      <trkpt lat="43.61427" lon="6.82089">
        <ele>166.7</ele>
        <time>2025-01-10T10:13:08.000Z</time>
      </trkpt>
      <trkpt lat="43.61432" lon="6.82091">
        <ele>166.5</ele>
        <time>2025-01-10T10:13:07.000Z</time>
      </trkpt>
      <trkpt lat="43.61438" lon="6.82093">
        <ele>166.4</ele>
        <time>2025-01-10T10:13:06.000Z</time>
      </trkpt>
      <trkpt lat="43.61444" lon="6.82094">
        <ele>166.3</ele>
        <time>2025-01-10T10:13:05.000Z</time>
      </trkpt>
      <trkpt lat="43.61449" lon="6.82095">
        <ele>166.2</ele>
        <time>2025-01-10T10:13:04.000Z</time>
      </trkpt>
      <trkpt lat="43.61455" lon="6.82097">
        <ele>166.1</ele>
        <time>2025-01-10T10:13:03.000Z</time>
      </trkpt>
      <trkpt lat="43.6146" lon="6.82099">
        <ele>166.1</ele>
        <time>2025-01-10T10:13:02.000Z</time>
      </trkpt>
      <trkpt lat="43.61465" lon="6.821">
        <ele>166.1</ele>
        <time>2025-01-10T10:13:01.000Z</time>
      </trkpt>
      <trkpt lat="43.61471" lon="6.82102">
        <ele>166.1</ele>
        <time>2025-01-10T10:13:00.000Z</time>
      </trkpt>
      <trkpt lat="43.61476" lon="6.82104">
        <ele>166.2</ele>
        <time>2025-01-10T10:12:59.000Z</time>
      </trkpt>
      <trkpt lat="43.61481" lon="6.82106">
        <ele>166.2</ele>
        <time>2025-01-10T10:12:58.000Z</time>
      </trkpt>
      <trkpt lat="43.61487" lon="6.82108">
        <ele>166.3</ele>
        <time>2025-01-10T10:12:57.000Z</time>
      </trkpt>
      <trkpt lat="43.61492" lon="6.8211">
        <ele>166.4</ele>
        <time>2025-01-10T10:12:56.000Z</time>
      </trkpt>
      <trkpt lat="43.61497" lon="6.82112">
        <ele>166.5</ele>
        <time>2025-01-10T10:12:55.000Z</time>
      </trkpt>
      <trkpt lat="43.61502" lon="6.82114">
        <ele>166.7</ele>
        <time>2025-01-10T10:12:54.000Z</time>
      </trkpt>
      <trkpt lat="43.61508" lon="6.82116">
        <ele>166.8</ele>
        <time>2025-01-10T10:12:53.000Z</time>
      </trkpt>
      <trkpt lat="43.61512" lon="6.82117">
        <ele>166.9</ele>
        <time>2025-01-10T10:12:52.000Z</time>
      </trkpt>
      <trkpt lat="43.61516" lon="6.82118">
        <ele>167</ele>
        <time>2025-01-10T10:12:51.000Z</time>
      </trkpt>
      <trkpt lat="43.61521" lon="6.8212">
        <ele>167.1</ele>
        <time>2025-01-10T10:12:50.000Z</time>
      </trkpt>
      <trkpt lat="43.61525" lon="6.82122">
        <ele>167.1</ele>
        <time>2025-01-10T10:12:49.000Z</time>
      </trkpt>
      <trkpt lat="43.6153" lon="6.82123">
        <ele>167.2</ele>
        <time>2025-01-10T10:12:48.000Z</time>
      </trkpt>
      <trkpt lat="43.61535" lon="6.82125">
        <ele>167.2</ele>
        <time>2025-01-10T10:12:47.000Z</time>
      </trkpt>
      <trkpt lat="43.61538" lon="6.82126">
        <ele>167.3</ele>
        <time>2025-01-10T10:12:46.000Z</time>
      </trkpt>
      <trkpt lat="43.61543" lon="6.82127">
        <ele>167.3</ele>
        <time>2025-01-10T10:12:45.000Z</time>
      </trkpt>
      <trkpt lat="43.61548" lon="6.82128">
        <ele>167.3</ele>
        <time>2025-01-10T10:12:44.000Z</time>
      </trkpt>
      <trkpt lat="43.61552" lon="6.8213">
        <ele>167.3</ele>
        <time>2025-01-10T10:12:43.000Z</time>
      </trkpt>
      <trkpt lat="43.61557" lon="6.82131">
        <ele>167.3</ele>
        <time>2025-01-10T10:12:42.000Z</time>
      </trkpt>
      <trkpt lat="43.61562" lon="6.82133">
        <ele>167.3</ele>
        <time>2025-01-10T10:12:41.000Z</time>
      </trkpt>
      <trkpt lat="43.61567" lon="6.82135">
        <ele>167.2</ele>
        <time>2025-01-10T10:12:40.000Z</time>
      </trkpt>
      <trkpt lat="43.61572" lon="6.82137">
        <ele>167.2</ele>
        <time>2025-01-10T10:12:39.000Z</time>
      </trkpt>
      <trkpt lat="43.61577" lon="6.82139">
        <ele>167.1</ele>
        <time>2025-01-10T10:12:38.000Z</time>
      </trkpt>
      <trkpt lat="43.61581" lon="6.8214">
        <ele>167.1</ele>
        <time>2025-01-10T10:12:37.000Z</time>
      </trkpt>
      <trkpt lat="43.61586" lon="6.82142">
        <ele>167</ele>
        <time>2025-01-10T10:12:36.000Z</time>
      </trkpt>
      <trkpt lat="43.61591" lon="6.82143">
        <ele>166.9</ele>
        <time>2025-01-10T10:12:35.000Z</time>
      </trkpt>
      <trkpt lat="43.61596" lon="6.82145">
        <ele>166.8</ele>
        <time>2025-01-10T10:12:34.000Z</time>
      </trkpt>
      <trkpt lat="43.61601" lon="6.82147">
        <ele>166.7</ele>
        <time>2025-01-10T10:12:33.000Z</time>
      </trkpt>
      <trkpt lat="43.61606" lon="6.8215">
        <ele>166.6</ele>
        <time>2025-01-10T10:12:32.000Z</time>
      </trkpt>
      <trkpt lat="43.6161" lon="6.82152">
        <ele>166.5</ele>
        <time>2025-01-10T10:12:31.000Z</time>
      </trkpt>
      <trkpt lat="43.61614" lon="6.82155">
        <ele>166.4</ele>
        <time>2025-01-10T10:12:30.000Z</time>
      </trkpt>
      <trkpt lat="43.61619" lon="6.82159">
        <ele>166.2</ele>
        <time>2025-01-10T10:12:29.000Z</time>
      </trkpt>
      <trkpt lat="43.61624" lon="6.82163">
        <ele>166</ele>
        <time>2025-01-10T10:12:28.000Z</time>
      </trkpt>
      <trkpt lat="43.61627" lon="6.82166">
        <ele>165.9</ele>
        <time>2025-01-10T10:12:27.000Z</time>
      </trkpt>
      <trkpt lat="43.61631" lon="6.8217">
        <ele>165.8</ele>
        <time>2025-01-10T10:12:26.000Z</time>
      </trkpt>
      <trkpt lat="43.61635" lon="6.82174">
        <ele>165.6</ele>
        <time>2025-01-10T10:12:25.000Z</time>
      </trkpt>
      <trkpt lat="43.61639" lon="6.82178">
        <ele>165.5</ele>
        <time>2025-01-10T10:12:24.000Z</time>
      </trkpt>
      <trkpt lat="43.61644" lon="6.82183">
        <ele>165.3</ele>
        <time>2025-01-10T10:12:23.000Z</time>
      </trkpt>
      <trkpt lat="43.61648" lon="6.82187">
        <ele>165.1</ele>
        <time>2025-01-10T10:12:22.000Z</time>
      </trkpt>
      <trkpt lat="43.61651" lon="6.82191">
        <ele>165</ele>
        <time>2025-01-10T10:12:21.000Z</time>
      </trkpt>
      <trkpt lat="43.61654" lon="6.82195">
        <ele>164.8</ele>
        <time>2025-01-10T10:12:20.000Z</time>
      </trkpt>
      <trkpt lat="43.61658" lon="6.82199">
        <ele>164.7</ele>
        <time>2025-01-10T10:12:19.000Z</time>
      </trkpt>
      <trkpt lat="43.61662" lon="6.82204">
        <ele>164.5</ele>
        <time>2025-01-10T10:12:18.000Z</time>
      </trkpt>
      <trkpt lat="43.61665" lon="6.82208">
        <ele>164.3</ele>
        <time>2025-01-10T10:12:17.000Z</time>
      </trkpt>
      <trkpt lat="43.61669" lon="6.82211">
        <ele>164.2</ele>
        <time>2025-01-10T10:12:16.000Z</time>
      </trkpt>
      <trkpt lat="43.61673" lon="6.82214">
        <ele>164</ele>
        <time>2025-01-10T10:12:15.000Z</time>
      </trkpt>
      <trkpt lat="43.61676" lon="6.82218">
        <ele>163.8</ele>
        <time>2025-01-10T10:12:14.000Z</time>
      </trkpt>
      <trkpt lat="43.6168" lon="6.8222">
        <ele>163.6</ele>
        <time>2025-01-10T10:12:13.000Z</time>
      </trkpt>
      <trkpt lat="43.61684" lon="6.82223">
        <ele>163.4</ele>
        <time>2025-01-10T10:12:12.000Z</time>
      </trkpt>
      <trkpt lat="43.61688" lon="6.82226">
        <ele>163.2</ele>
        <time>2025-01-10T10:12:11.000Z</time>
      </trkpt>
      <trkpt lat="43.61691" lon="6.82228">
        <ele>163</ele>
        <time>2025-01-10T10:12:10.000Z</time>
      </trkpt>
      <trkpt lat="43.61695" lon="6.8223">
        <ele>162.8</ele>
        <time>2025-01-10T10:12:09.000Z</time>
      </trkpt>
      <trkpt lat="43.61699" lon="6.82231">
        <ele>162.6</ele>
        <time>2025-01-10T10:12:08.000Z</time>
      </trkpt>
      <trkpt lat="43.61703" lon="6.82233">
        <ele>162.4</ele>
        <time>2025-01-10T10:12:07.000Z</time>
      </trkpt>
      <trkpt lat="43.61708" lon="6.82234">
        <ele>162.2</ele>
        <time>2025-01-10T10:12:06.000Z</time>
      </trkpt>
      <trkpt lat="43.61712" lon="6.82235">
        <ele>162</ele>
        <time>2025-01-10T10:12:05.000Z</time>
      </trkpt>
      <trkpt lat="43.61716" lon="6.82236">
        <ele>161.8</ele>
        <time>2025-01-10T10:12:04.000Z</time>
      </trkpt>
      <trkpt lat="43.61721" lon="6.82237">
        <ele>161.6</ele>
        <time>2025-01-10T10:12:03.000Z</time>
      </trkpt>
      <trkpt lat="43.61725" lon="6.82238">
        <ele>161.4</ele>
        <time>2025-01-10T10:12:02.000Z</time>
      </trkpt>
      <trkpt lat="43.61729" lon="6.82238">
        <ele>161.2</ele>
        <time>2025-01-10T10:12:01.000Z</time>
      </trkpt>
      <trkpt lat="43.61733" lon="6.82239">
        <ele>161</ele>
        <time>2025-01-10T10:12:00.000Z</time>
      </trkpt>
      <trkpt lat="43.61737" lon="6.8224">
        <ele>160.8</ele>
        <time>2025-01-10T10:11:59.000Z</time>
      </trkpt>
      <trkpt lat="43.61742" lon="6.82242">
        <ele>160.6</ele>
        <time>2025-01-10T10:11:58.000Z</time>
      </trkpt>
      <trkpt lat="43.61746" lon="6.82244">
        <ele>160.4</ele>
        <time>2025-01-10T10:11:57.000Z</time>
      </trkpt>
      <trkpt lat="43.61749" lon="6.82246">
        <ele>160.2</ele>
        <time>2025-01-10T10:11:56.000Z</time>
      </trkpt>
      <trkpt lat="43.61753" lon="6.82248">
        <ele>160</ele>
        <time>2025-01-10T10:11:55.000Z</time>
      </trkpt>
      <trkpt lat="43.61757" lon="6.8225">
        <ele>159.8</ele>
        <time>2025-01-10T10:11:54.000Z</time>
      </trkpt>
      <trkpt lat="43.61761" lon="6.82252">
        <ele>159.7</ele>
        <time>2025-01-10T10:11:53.000Z</time>
      </trkpt>
      <trkpt lat="43.61765" lon="6.82255">
        <ele>159.5</ele>
        <time>2025-01-10T10:11:52.000Z</time>
      </trkpt>
      <trkpt lat="43.61768" lon="6.82257">
        <ele>159.3</ele>
        <time>2025-01-10T10:11:51.000Z</time>
      </trkpt>
      <trkpt lat="43.61772" lon="6.8226">
        <ele>159.1</ele>
        <time>2025-01-10T10:11:50.000Z</time>
      </trkpt>
      <trkpt lat="43.61775" lon="6.82263">
        <ele>158.9</ele>
        <time>2025-01-10T10:11:49.000Z</time>
      </trkpt>
      <trkpt lat="43.61779" lon="6.82266">
        <ele>158.7</ele>
        <time>2025-01-10T10:11:48.000Z</time>
      </trkpt>
      <trkpt lat="43.61782" lon="6.82269">
        <ele>158.5</ele>
        <time>2025-01-10T10:11:47.000Z</time>
      </trkpt>
      <trkpt lat="43.61784" lon="6.82272">
        <ele>158.4</ele>
        <time>2025-01-10T10:11:46.000Z</time>
      </trkpt>
      <trkpt lat="43.61787" lon="6.82275">
        <ele>158.2</ele>
        <time>2025-01-10T10:11:45.000Z</time>
      </trkpt>
      <trkpt lat="43.6179" lon="6.82278">
        <ele>158</ele>
        <time>2025-01-10T10:11:44.000Z</time>
      </trkpt>
      <trkpt lat="43.61793" lon="6.82282">
        <ele>157.8</ele>
        <time>2025-01-10T10:11:43.000Z</time>
      </trkpt>
      <trkpt lat="43.61795" lon="6.82285">
        <ele>157.6</ele>
        <time>2025-01-10T10:11:42.000Z</time>
      </trkpt>
      <trkpt lat="43.61797" lon="6.82287">
        <ele>157.5</ele>
        <time>2025-01-10T10:11:41.000Z</time>
      </trkpt>
      <trkpt lat="43.618" lon="6.8229">
        <ele>157.3</ele>
        <time>2025-01-10T10:11:40.000Z</time>
      </trkpt>
      <trkpt lat="43.61803" lon="6.82293">
        <ele>157.2</ele>
        <time>2025-01-10T10:11:39.000Z</time>
      </trkpt>
      <trkpt lat="43.61806" lon="6.82296">
        <ele>157</ele>
        <time>2025-01-10T10:11:38.000Z</time>
      </trkpt>
      <trkpt lat="43.61808" lon="6.82299">
        <ele>156.8</ele>
        <time>2025-01-10T10:11:37.000Z</time>
      </trkpt>
      <trkpt lat="43.6181" lon="6.82301">
        <ele>156.7</ele>
        <time>2025-01-10T10:11:36.000Z</time>
      </trkpt>
      <trkpt lat="43.61813" lon="6.82304">
        <ele>156.5</ele>
        <time>2025-01-10T10:11:35.000Z</time>
      </trkpt>
      <trkpt lat="43.61816" lon="6.82307">
        <ele>156.4</ele>
        <time>2025-01-10T10:11:34.000Z</time>
      </trkpt>
      <trkpt lat="43.61818" lon="6.82311">
        <ele>156.2</ele>
        <time>2025-01-10T10:11:33.000Z</time>
      </trkpt>
      <trkpt lat="43.6182" lon="6.82315">
        <ele>156.1</ele>
        <time>2025-01-10T10:11:32.000Z</time>
      </trkpt>
      <trkpt lat="43.61821" lon="6.8232">
        <ele>155.8</ele>
        <time>2025-01-10T10:11:31.000Z</time>
      </trkpt>
      <trkpt lat="43.61822" lon="6.82323">
        <ele>155.6</ele>
        <time>2025-01-10T10:11:30.000Z</time>
      </trkpt>
      <trkpt lat="43.61824" lon="6.82328">
        <ele>155.3</ele>
        <time>2025-01-10T10:11:29.000Z</time>
      </trkpt>
      <trkpt lat="43.61824" lon="6.82328">
        <ele>155.3</ele>
        <time>2025-01-10T10:11:28.000Z</time>
      </trkpt>
      <trkpt lat="43.61824" lon="6.82328">
        <ele>155.3</ele>
        <time>2025-01-10T10:11:27.000Z</time>
      </trkpt>
      <trkpt lat="43.61824" lon="6.82328">
        <ele>155.2</ele>
        <time>2025-01-10T10:11:26.000Z</time>
      </trkpt>
      <trkpt lat="43.61824" lon="6.82328">
        <ele>155.2</ele>
        <time>2025-01-10T10:11:25.000Z</time>
      </trkpt>
      <trkpt lat="43.61823" lon="6.82328">
        <ele>155.2</ele>
        <time>2025-01-10T10:11:24.000Z</time>
      </trkpt>
      <trkpt lat="43.61823" lon="6.82328">
        <ele>155.2</ele>
        <time>2025-01-10T10:11:23.000Z</time>
      </trkpt>
      <trkpt lat="43.61823" lon="6.82328">
        <ele>155.2</ele>
        <time>2025-01-10T10:11:22.000Z</time>
      </trkpt>
      <trkpt lat="43.61823" lon="6.82327">
        <ele>155.1</ele>
        <time>2025-01-10T10:11:21.000Z</time>
      </trkpt>
      <trkpt lat="43.61822" lon="6.82327">
        <ele>155.1</ele>
        <time>2025-01-10T10:11:20.000Z</time>
      </trkpt>
      <trkpt lat="43.61822" lon="6.82327">
        <ele>155.1</ele>
        <time>2025-01-10T10:11:19.000Z</time>
      </trkpt>
      <trkpt lat="43.61822" lon="6.82327">
        <ele>155.1</ele>
        <time>2025-01-10T10:11:18.000Z</time>
      </trkpt>
      <trkpt lat="43.61822" lon="6.82327">
        <ele>155.1</ele>
        <time>2025-01-10T10:11:17.000Z</time>
      </trkpt>
      <trkpt lat="43.61822" lon="6.82327">
        <ele>155.1</ele>
        <time>2025-01-10T10:11:16.000Z</time>
      </trkpt>
      <trkpt lat="43.61822" lon="6.82327">
        <ele>155.1</ele>
        <time>2025-01-10T10:11:15.000Z</time>
      </trkpt>
      <trkpt lat="43.61822" lon="6.82327">
        <ele>155.1</ele>
        <time>2025-01-10T10:11:14.000Z</time>
      </trkpt>
      <trkpt lat="43.61822" lon="6.82327">
        <ele>155.1</ele>
        <time>2025-01-10T10:11:13.000Z</time>
      </trkpt>
      <trkpt lat="43.61822" lon="6.82327">
        <ele>155.1</ele>
        <time>2025-01-10T10:11:12.000Z</time>
      </trkpt>
      <trkpt lat="43.61822" lon="6.82327">
        <ele>155.1</ele>
        <time>2025-01-10T10:11:11.000Z</time>
      </trkpt>
      <trkpt lat="43.61822" lon="6.82327">
        <ele>155.1</ele>
        <time>2025-01-10T10:11:10.000Z</time>
      </trkpt>
      <trkpt lat="43.61822" lon="6.82327">
        <ele>155.1</ele>
        <time>2025-01-10T10:11:09.000Z</time>
      </trkpt>
      <trkpt lat="43.61822" lon="6.82327">
        <ele>155.1</ele>
        <time>2025-01-10T10:11:08.000Z</time>
      </trkpt>
      <trkpt lat="43.61822" lon="6.82327">
        <ele>155.1</ele>
        <time>2025-01-10T10:11:07.000Z</time>
      </trkpt>
      <trkpt lat="43.61822" lon="6.82327">
        <ele>155.1</ele>
        <time>2025-01-10T10:11:06.000Z</time>
      </trkpt>
      <trkpt lat="43.61822" lon="6.82327">
        <ele>155.1</ele>
        <time>2025-01-10T10:11:05.000Z</time>
      </trkpt>
      <trkpt lat="43.61822" lon="6.82327">
        <ele>155.1</ele>
        <time>2025-01-10T10:11:04.000Z</time>
      </trkpt>
      <trkpt lat="43.61822" lon="6.82327">
        <ele>155.1</ele>
        <time>2025-01-10T10:11:03.000Z</time>
      </trkpt>
      <trkpt lat="43.61823" lon="6.82328">
        <ele>155</ele>
        <time>2025-01-10T10:11:02.000Z</time>
      </trkpt>
      <trkpt lat="43.61823" lon="6.82329">
        <ele>154.9</ele>
        <time>2025-01-10T10:11:01.000Z</time>
      </trkpt>
      <trkpt lat="43.61824" lon="6.8233">
        <ele>154.8</ele>
        <time>2025-01-10T10:11:00.000Z</time>
      </trkpt>
      <trkpt lat="43.61824" lon="6.82331">
        <ele>154.8</ele>
        <time>2025-01-10T10:10:59.000Z</time>
      </trkpt>
      <trkpt lat="43.61825" lon="6.82332">
        <ele>154.7</ele>
        <time>2025-01-10T10:10:58.000Z</time>
      </trkpt>
      <trkpt lat="43.61825" lon="6.82333">
        <ele>154.6</ele>
        <time>2025-01-10T10:10:57.000Z</time>
      </trkpt>
      <trkpt lat="43.61825" lon="6.82334">
        <ele>154.5</ele>
        <time>2025-01-10T10:10:56.000Z</time>
      </trkpt>
      <trkpt lat="43.61826" lon="6.82335">
        <ele>154.4</ele>
        <time>2025-01-10T10:10:55.000Z</time>
      </trkpt>
      <trkpt lat="43.61826" lon="6.82336">
        <ele>154.3</ele>
        <time>2025-01-10T10:10:54.000Z</time>
      </trkpt>
      <trkpt lat="43.61827" lon="6.82336">
        <ele>154.2</ele>
        <time>2025-01-10T10:10:53.000Z</time>
      </trkpt>
      <trkpt lat="43.61827" lon="6.82336">
        <ele>154.2</ele>
        <time>2025-01-10T10:10:52.000Z</time>
      </trkpt>
      <trkpt lat="43.61827" lon="6.82336">
        <ele>154.2</ele>
        <time>2025-01-10T10:10:51.000Z</time>
      </trkpt>
      <trkpt lat="43.61827" lon="6.82336">
        <ele>154.2</ele>
        <time>2025-01-10T10:10:50.000Z</time>
      </trkpt>
      <trkpt lat="43.61827" lon="6.82336">
        <ele>154.2</ele>
        <time>2025-01-10T10:10:49.000Z</time>
      </trkpt>
      <trkpt lat="43.61827" lon="6.82336">
        <ele>154.2</ele>
        <time>2025-01-10T10:10:48.000Z</time>
      </trkpt>
      <trkpt lat="43.61827" lon="6.82336">
        <ele>154.2</ele>
        <time>2025-01-10T10:10:47.000Z</time>
      </trkpt>
      <trkpt lat="43.61827" lon="6.82336">
        <ele>154.2</ele>
        <time>2025-01-10T10:10:46.000Z</time>
      </trkpt>
      <trkpt lat="43.61827" lon="6.82336">
        <ele>154.2</ele>
        <time>2025-01-10T10:10:45.000Z</time>
      </trkpt>
      <trkpt lat="43.61827" lon="6.82336">
        <ele>154.2</ele>
        <time>2025-01-10T10:10:44.000Z</time>
      </trkpt>
      <trkpt lat="43.61827" lon="6.82336">
        <ele>154.2</ele>
        <time>2025-01-10T10:10:43.000Z</time>
      </trkpt>
      <trkpt lat="43.61827" lon="6.82336">
        <ele>154.2</ele>
        <time>2025-01-10T10:10:42.000Z</time>
      </trkpt>
      <trkpt lat="43.61827" lon="6.82336">
        <ele>154.2</ele>
        <time>2025-01-10T10:10:41.000Z</time>
      </trkpt>
      <trkpt lat="43.61827" lon="6.82336">
        <ele>154.2</ele>
        <time>2025-01-10T10:10:40.000Z</time>
      </trkpt>
      <trkpt lat="43.61827" lon="6.82336">
        <ele>154.2</ele>
        <time>2025-01-10T10:10:39.000Z</time>
      </trkpt>
      <trkpt lat="43.61827" lon="6.82336">
        <ele>154.2</ele>
        <time>2025-01-10T10:10:38.000Z</time>
      </trkpt>
      <trkpt lat="43.61827" lon="6.82336">
        <ele>154.2</ele>
        <time>2025-01-10T10:10:37.000Z</time>
      </trkpt>
      <trkpt lat="43.61827" lon="6.82336">
        <ele>154.2</ele>
        <time>2025-01-10T10:10:36.000Z</time>
      </trkpt>
      <trkpt lat="43.61827" lon="6.82336">
        <ele>154.2</ele>
        <time>2025-01-10T10:10:35.000Z</time>
      </trkpt>
      <trkpt lat="43.61827" lon="6.82336">
        <ele>154.2</ele>
        <time>2025-01-10T10:10:34.000Z</time>
      </trkpt>
      <trkpt lat="43.61827" lon="6.82336">
        <ele>154.2</ele>
        <time>2025-01-10T10:10:33.000Z</time>
      </trkpt>
      <trkpt lat="43.61827" lon="6.82336">
        <ele>154.2</ele>
        <time>2025-01-10T10:10:32.000Z</time>
      </trkpt>
      <trkpt lat="43.61827" lon="6.82336">
        <ele>154.2</ele>
        <time>2025-01-10T10:10:31.000Z</time>
      </trkpt>
      <trkpt lat="43.61827" lon="6.82336">
        <ele>154.2</ele>
        <time>2025-01-10T10:10:30.000Z</time>
      </trkpt>
      <trkpt lat="43.61827" lon="6.82336">
        <ele>154.2</ele>
        <time>2025-01-10T10:10:29.000Z</time>
      </trkpt>
      <trkpt lat="43.61827" lon="6.82336">
        <ele>154.2</ele>
        <time>2025-01-10T10:10:28.000Z</time>
      </trkpt>
      <trkpt lat="43.61827" lon="6.82336">
        <ele>154.2</ele>
        <time>2025-01-10T10:10:27.000Z</time>
      </trkpt>
      <trkpt lat="43.61827" lon="6.82336">
        <ele>154.2</ele>
        <time>2025-01-10T10:10:26.000Z</time>
      </trkpt>
      <trkpt lat="43.61827" lon="6.82336">
        <ele>154.2</ele>
        <time>2025-01-10T10:10:25.000Z</time>
      </trkpt>
      <trkpt lat="43.61827" lon="6.82336">
        <ele>154.2</ele>
        <time>2025-01-10T10:10:24.000Z</time>
      </trkpt>
      <trkpt lat="43.61827" lon="6.82336">
        <ele>154.2</ele>
        <time>2025-01-10T10:10:23.000Z</time>
      </trkpt>
      <trkpt lat="43.61827" lon="6.82336">
        <ele>154.2</ele>
        <time>2025-01-10T10:10:22.000Z</time>
      </trkpt>
      <trkpt lat="43.61827" lon="6.82336">
        <ele>154.2</ele>
        <time>2025-01-10T10:10:21.000Z</time>
      </trkpt>
      <trkpt lat="43.61827" lon="6.82336">
        <ele>154.2</ele>
        <time>2025-01-10T10:10:20.000Z</time>
      </trkpt>
      <trkpt lat="43.61827" lon="6.82336">
        <ele>154.2</ele>
        <time>2025-01-10T10:10:19.000Z</time>
      </trkpt>
      <trkpt lat="43.61827" lon="6.82336">
        <ele>154.2</ele>
        <time>2025-01-10T10:10:18.000Z</time>
      </trkpt>
      <trkpt lat="43.61827" lon="6.82336">
        <ele>154.2</ele>
        <time>2025-01-10T10:10:17.000Z</time>
      </trkpt>
      <trkpt lat="43.61827" lon="6.82336">
        <ele>154.2</ele>
        <time>2025-01-10T10:10:16.000Z</time>
      </trkpt>
      <trkpt lat="43.61827" lon="6.82336">
        <ele>154.2</ele>
        <time>2025-01-10T10:10:15.000Z</time>
      </trkpt>
      <trkpt lat="43.61827" lon="6.82336">
        <ele>154.2</ele>
        <time>2025-01-10T10:10:14.000Z</time>
      </trkpt>
      <trkpt lat="43.61827" lon="6.82336">
        <ele>154.2</ele>
        <time>2025-01-10T10:10:13.000Z</time>
      </trkpt>
      <trkpt lat="43.61827" lon="6.82336">
        <ele>154.2</ele>
        <time>2025-01-10T10:10:12.000Z</time>
      </trkpt>
      <trkpt lat="43.61828" lon="6.82337">
        <ele>154.1</ele>
        <time>2025-01-10T10:10:11.000Z</time>
      </trkpt>
      <trkpt lat="43.61827" lon="6.82337">
        <ele>154.1</ele>
        <time>2025-01-10T10:10:10.000Z</time>
      </trkpt>
      <trkpt lat="43.61828" lon="6.82337">
        <ele>154</ele>
        <time>2025-01-10T10:10:09.000Z</time>
      </trkpt>
      <trkpt lat="43.61828" lon="6.82337">
        <ele>154</ele>
        <time>2025-01-10T10:10:08.000Z</time>
      </trkpt>
      <trkpt lat="43.61828" lon="6.82337">
        <ele>154</ele>
        <time>2025-01-10T10:10:07.000Z</time>
      </trkpt>
      <trkpt lat="43.61827" lon="6.82338">
        <ele>153.9</ele>
        <time>2025-01-10T10:10:06.000Z</time>
      </trkpt>
      <trkpt lat="43.61827" lon="6.82338">
        <ele>153.9</ele>
        <time>2025-01-10T10:10:05.000Z</time>
      </trkpt>
      <trkpt lat="43.61827" lon="6.82338">
        <ele>153.9</ele>
        <time>2025-01-10T10:10:04.000Z</time>
      </trkpt>
      <trkpt lat="43.61827" lon="6.82338">
        <ele>153.9</ele>
        <time>2025-01-10T10:10:03.000Z</time>
      </trkpt>
      <trkpt lat="43.61827" lon="6.82338">
        <ele>153.8</ele>
        <time>2025-01-10T10:10:02.000Z</time>
      </trkpt>
      <trkpt lat="43.61827" lon="6.82339">
        <ele>153.8</ele>
        <time>2025-01-10T10:10:01.000Z</time>
      </trkpt>
      <trkpt lat="43.61828" lon="6.82339">
        <ele>153.7</ele>
        <time>2025-01-10T10:10:00.000Z</time>
      </trkpt>
      <trkpt lat="43.61828" lon="6.82339">
        <ele>153.7</ele>
        <time>2025-01-10T10:09:59.000Z</time>
      </trkpt>
      <trkpt lat="43.61828" lon="6.8234">
        <ele>153.6</ele>
        <time>2025-01-10T10:09:58.000Z</time>
      </trkpt>
      <trkpt lat="43.61829" lon="6.8234">
        <ele>153.5</ele>
        <time>2025-01-10T10:09:57.000Z</time>
      </trkpt>
      <trkpt lat="43.6183" lon="6.82341">
        <ele>153.3</ele>
        <time>2025-01-10T10:09:56.000Z</time>
      </trkpt>
      <trkpt lat="43.61831" lon="6.82343">
        <ele>153.2</ele>
        <time>2025-01-10T10:09:55.000Z</time>
      </trkpt>
      <trkpt lat="43.61833" lon="6.82344">
        <ele>152.9</ele>
        <time>2025-01-10T10:09:54.000Z</time>
      </trkpt>
      <trkpt lat="43.61834" lon="6.82346">
        <ele>152.7</ele>
        <time>2025-01-10T10:09:53.000Z</time>
      </trkpt>
      <trkpt lat="43.61836" lon="6.82348">
        <ele>152.3</ele>
        <time>2025-01-10T10:09:52.000Z</time>
      </trkpt>
      <trkpt lat="43.61838" lon="6.8235">
        <ele>152.1</ele>
        <time>2025-01-10T10:09:51.000Z</time>
      </trkpt>
      <trkpt lat="43.6184" lon="6.82352">
        <ele>151.8</ele>
        <time>2025-01-10T10:09:50.000Z</time>
      </trkpt>
      <trkpt lat="43.61841" lon="6.82353">
        <ele>151.6</ele>
        <time>2025-01-10T10:09:49.000Z</time>
      </trkpt>
      <trkpt lat="43.61843" lon="6.82355">
        <ele>151.3</ele>
        <time>2025-01-10T10:09:48.000Z</time>
      </trkpt>
      <trkpt lat="43.61844" lon="6.82357">
        <ele>151.1</ele>
        <time>2025-01-10T10:09:47.000Z</time>
      </trkpt>
      <trkpt lat="43.61846" lon="6.82359">
        <ele>150.8</ele>
        <time>2025-01-10T10:09:46.000Z</time>
      </trkpt>
      <trkpt lat="43.61847" lon="6.8236">
        <ele>150.7</ele>
        <time>2025-01-10T10:09:45.000Z</time>
      </trkpt>
      <trkpt lat="43.61847" lon="6.8236">
        <ele>150.6</ele>
        <time>2025-01-10T10:09:44.000Z</time>
      </trkpt>
      <trkpt lat="43.61847" lon="6.82361">
        <ele>150.6</ele>
        <time>2025-01-10T10:09:43.000Z</time>
      </trkpt>
      <trkpt lat="43.61847" lon="6.82361">
        <ele>150.6</ele>
        <time>2025-01-10T10:09:42.000Z</time>
      </trkpt>
      <trkpt lat="43.61847" lon="6.82361">
        <ele>150.6</ele>
        <time>2025-01-10T10:09:41.000Z</time>
      </trkpt>
      <trkpt lat="43.61847" lon="6.82361">
        <ele>150.6</ele>
        <time>2025-01-10T10:09:40.000Z</time>
      </trkpt>
      <trkpt lat="43.61847" lon="6.82361">
        <ele>150.5</ele>
        <time>2025-01-10T10:09:39.000Z</time>
      </trkpt>
      <trkpt lat="43.61848" lon="6.82361">
        <ele>150.5</ele>
        <time>2025-01-10T10:09:38.000Z</time>
      </trkpt>
      <trkpt lat="43.61848" lon="6.82361">
        <ele>150.5</ele>
        <time>2025-01-10T10:09:37.000Z</time>
      </trkpt>
      <trkpt lat="43.61848" lon="6.82362">
        <ele>150.4</ele>
        <time>2025-01-10T10:09:36.000Z</time>
      </trkpt>
      <trkpt lat="43.61848" lon="6.82362">
        <ele>150.4</ele>
        <time>2025-01-10T10:09:35.000Z</time>
      </trkpt>
      <trkpt lat="43.61848" lon="6.82362">
        <ele>150.4</ele>
        <time>2025-01-10T10:09:34.000Z</time>
      </trkpt>
      <trkpt lat="43.61848" lon="6.82363">
        <ele>150.3</ele>
        <time>2025-01-10T10:09:33.000Z</time>
      </trkpt>
      <trkpt lat="43.61849" lon="6.82363">
        <ele>150.3</ele>
        <time>2025-01-10T10:09:32.000Z</time>
      </trkpt>
      <trkpt lat="43.61851" lon="6.82365">
        <ele>150.1</ele>
        <time>2025-01-10T10:09:31.000Z</time>
      </trkpt>
      <trkpt lat="43.61852" lon="6.82367">
        <ele>149.8</ele>
        <time>2025-01-10T10:09:30.000Z</time>
      </trkpt>
      <trkpt lat="43.61854" lon="6.82369">
        <ele>149.6</ele>
        <time>2025-01-10T10:09:29.000Z</time>
      </trkpt>
      <trkpt lat="43.61856" lon="6.82371">
        <ele>149.4</ele>
        <time>2025-01-10T10:09:28.000Z</time>
      </trkpt>
      <trkpt lat="43.61858" lon="6.82374">
        <ele>149.1</ele>
        <time>2025-01-10T10:09:27.000Z</time>
      </trkpt>
      <trkpt lat="43.61861" lon="6.82377">
        <ele>148.7</ele>
        <time>2025-01-10T10:09:26.000Z</time>
      </trkpt>
      <trkpt lat="43.61864" lon="6.82379">
        <ele>148.4</ele>
        <time>2025-01-10T10:09:25.000Z</time>
      </trkpt>
      <trkpt lat="43.61866" lon="6.82381">
        <ele>148.2</ele>
        <time>2025-01-10T10:09:24.000Z</time>
      </trkpt>
      <trkpt lat="43.61869" lon="6.82382">
        <ele>147.9</ele>
        <time>2025-01-10T10:09:23.000Z</time>
      </trkpt>
      <trkpt lat="43.61871" lon="6.82384">
        <ele>147.7</ele>
        <time>2025-01-10T10:09:22.000Z</time>
      </trkpt>
      <trkpt lat="43.61874" lon="6.82386">
        <ele>147.3</ele>
        <time>2025-01-10T10:09:21.000Z</time>
      </trkpt>
      <trkpt lat="43.61877" lon="6.82388">
        <ele>147</ele>
        <time>2025-01-10T10:09:20.000Z</time>
      </trkpt>
      <trkpt lat="43.61879" lon="6.82389">
        <ele>146.8</ele>
        <time>2025-01-10T10:09:19.000Z</time>
      </trkpt>
      <trkpt lat="43.61882" lon="6.82391">
        <ele>146.4</ele>
        <time>2025-01-10T10:09:18.000Z</time>
      </trkpt>
      <trkpt lat="43.61885" lon="6.82393">
        <ele>146.1</ele>
        <time>2025-01-10T10:09:17.000Z</time>
      </trkpt>
      <trkpt lat="43.61888" lon="6.82396">
        <ele>145.7</ele>
        <time>2025-01-10T10:09:16.000Z</time>
      </trkpt>
      <trkpt lat="43.61891" lon="6.82398">
        <ele>145.4</ele>
        <time>2025-01-10T10:09:15.000Z</time>
      </trkpt>
      <trkpt lat="43.61894" lon="6.824">
        <ele>145.1</ele>
        <time>2025-01-10T10:09:14.000Z</time>
      </trkpt>
      <trkpt lat="43.61896" lon="6.82402">
        <ele>144.8</ele>
        <time>2025-01-10T10:09:13.000Z</time>
      </trkpt>
      <trkpt lat="43.61899" lon="6.82405">
        <ele>144.5</ele>
        <time>2025-01-10T10:09:12.000Z</time>
      </trkpt>
      <trkpt lat="43.61901" lon="6.82409">
        <ele>144.1</ele>
        <time>2025-01-10T10:09:11.000Z</time>
      </trkpt>
      <trkpt lat="43.61903" lon="6.82411">
        <ele>143.9</ele>
        <time>2025-01-10T10:09:10.000Z</time>
      </trkpt>
      <trkpt lat="43.61905" lon="6.82413">
        <ele>143.6</ele>
        <time>2025-01-10T10:09:09.000Z</time>
      </trkpt>
      <trkpt lat="43.61908" lon="6.82415">
        <ele>143.4</ele>
        <time>2025-01-10T10:09:08.000Z</time>
      </trkpt>
      <trkpt lat="43.6191" lon="6.82417">
        <ele>143.1</ele>
        <time>2025-01-10T10:09:07.000Z</time>
      </trkpt>
      <trkpt lat="43.61913" lon="6.82418">
        <ele>142.8</ele>
        <time>2025-01-10T10:09:06.000Z</time>
      </trkpt>
      <trkpt lat="43.61915" lon="6.8242">
        <ele>142.6</ele>
        <time>2025-01-10T10:09:05.000Z</time>
      </trkpt>
      <trkpt lat="43.61917" lon="6.82421">
        <ele>142.4</ele>
        <time>2025-01-10T10:09:04.000Z</time>
      </trkpt>
      <trkpt lat="43.61918" lon="6.82421">
        <ele>142.3</ele>
        <time>2025-01-10T10:09:03.000Z</time>
      </trkpt>
      <trkpt lat="43.6192" lon="6.82421">
        <ele>142.1</ele>
        <time>2025-01-10T10:09:02.000Z</time>
      </trkpt>
      <trkpt lat="43.61922" lon="6.82421">
        <ele>141.9</ele>
        <time>2025-01-10T10:09:01.000Z</time>
      </trkpt>
      <trkpt lat="43.61925" lon="6.82421">
        <ele>141.6</ele>
        <time>2025-01-10T10:09:00.000Z</time>
      </trkpt>
      <trkpt lat="43.61927" lon="6.82421">
        <ele>141.3</ele>
        <time>2025-01-10T10:08:59.000Z</time>
      </trkpt>
      <trkpt lat="43.6193" lon="6.82421">
        <ele>141</ele>
        <time>2025-01-10T10:08:58.000Z</time>
      </trkpt>
      <trkpt lat="43.61932" lon="6.82421">
        <ele>140.7</ele>
        <time>2025-01-10T10:08:57.000Z</time>
      </trkpt>
      <trkpt lat="43.61935" lon="6.82421">
        <ele>140.4</ele>
        <time>2025-01-10T10:08:56.000Z</time>
      </trkpt>
      <trkpt lat="43.61937" lon="6.82421">
        <ele>140</ele>
        <time>2025-01-10T10:08:55.000Z</time>
      </trkpt>
      <trkpt lat="43.61939" lon="6.82421">
        <ele>139.8</ele>
        <time>2025-01-10T10:08:54.000Z</time>
      </trkpt>
      <trkpt lat="43.61941" lon="6.82421">
        <ele>139.5</ele>
        <time>2025-01-10T10:08:53.000Z</time>
      </trkpt>
      <trkpt lat="43.61944" lon="6.82422">
        <ele>139</ele>
        <time>2025-01-10T10:08:52.000Z</time>
      </trkpt>
      <trkpt lat="43.61947" lon="6.82423">
        <ele>138.6</ele>
        <time>2025-01-10T10:08:51.000Z</time>
      </trkpt>
      <trkpt lat="43.61949" lon="6.82424">
        <ele>138.2</ele>
        <time>2025-01-10T10:08:50.000Z</time>
      </trkpt>
      <trkpt lat="43.61951" lon="6.82425">
        <ele>137.8</ele>
        <time>2025-01-10T10:08:49.000Z</time>
      </trkpt>
      <trkpt lat="43.61953" lon="6.82426">
        <ele>137.5</ele>
        <time>2025-01-10T10:08:48.000Z</time>
      </trkpt>
      <trkpt lat="43.61955" lon="6.82427">
        <ele>137.1</ele>
        <time>2025-01-10T10:08:47.000Z</time>
      </trkpt>
      <trkpt lat="43.61958" lon="6.82428">
        <ele>136.7</ele>
        <time>2025-01-10T10:08:46.000Z</time>
      </trkpt>
      <trkpt lat="43.61961" lon="6.82429">
        <ele>136.2</ele>
        <time>2025-01-10T10:08:45.000Z</time>
      </trkpt>
      <trkpt lat="43.61963" lon="6.82431">
        <ele>135.8</ele>
        <time>2025-01-10T10:08:44.000Z</time>
      </trkpt>
      <trkpt lat="43.61965" lon="6.82432">
        <ele>135.5</ele>
        <time>2025-01-10T10:08:43.000Z</time>
      </trkpt>
      <trkpt lat="43.61967" lon="6.82434">
        <ele>135.1</ele>
        <time>2025-01-10T10:08:42.000Z</time>
      </trkpt>
      <trkpt lat="43.6197" lon="6.82435">
        <ele>134.7</ele>
        <time>2025-01-10T10:08:41.000Z</time>
      </trkpt>
      <trkpt lat="43.61972" lon="6.82437">
        <ele>134.2</ele>
        <time>2025-01-10T10:08:40.000Z</time>
      </trkpt>
      <trkpt lat="43.61975" lon="6.82438">
        <ele>133.8</ele>
        <time>2025-01-10T10:08:39.000Z</time>
      </trkpt>
      <trkpt lat="43.61977" lon="6.82438">
        <ele>133.5</ele>
        <time>2025-01-10T10:08:38.000Z</time>
      </trkpt>
      <trkpt lat="43.61979" lon="6.82439">
        <ele>133.2</ele>
        <time>2025-01-10T10:08:37.000Z</time>
      </trkpt>
      <trkpt lat="43.61981" lon="6.82441">
        <ele>132.8</ele>
        <time>2025-01-10T10:08:36.000Z</time>
      </trkpt>
      <trkpt lat="43.61983" lon="6.82443">
        <ele>132.3</ele>
        <time>2025-01-10T10:08:35.000Z</time>
      </trkpt>
      <trkpt lat="43.61985" lon="6.82445">
        <ele>132</ele>
        <time>2025-01-10T10:08:34.000Z</time>
      </trkpt>
      <trkpt lat="43.61987" lon="6.82447">
        <ele>131.6</ele>
        <time>2025-01-10T10:08:33.000Z</time>
      </trkpt>
      <trkpt lat="43.61989" lon="6.82448">
        <ele>131.3</ele>
        <time>2025-01-10T10:08:32.000Z</time>
      </trkpt>
      <trkpt lat="43.61991" lon="6.82449">
        <ele>131</ele>
        <time>2025-01-10T10:08:31.000Z</time>
      </trkpt>
      <trkpt lat="43.61993" lon="6.8245">
        <ele>130.6</ele>
        <time>2025-01-10T10:08:30.000Z</time>
      </trkpt>
      <trkpt lat="43.61996" lon="6.82451">
        <ele>130.2</ele>
        <time>2025-01-10T10:08:29.000Z</time>
      </trkpt>
      <trkpt lat="43.61998" lon="6.82452">
        <ele>129.8</ele>
        <time>2025-01-10T10:08:28.000Z</time>
      </trkpt>
      <trkpt lat="43.62" lon="6.82454">
        <ele>129.5</ele>
        <time>2025-01-10T10:08:27.000Z</time>
      </trkpt>
      <trkpt lat="43.62002" lon="6.82456">
        <ele>129.2</ele>
        <time>2025-01-10T10:08:26.000Z</time>
      </trkpt>
      <trkpt lat="43.62004" lon="6.82458">
        <ele>128.9</ele>
        <time>2025-01-10T10:08:25.000Z</time>
      </trkpt>
      <trkpt lat="43.62006" lon="6.82459">
        <ele>128.5</ele>
        <time>2025-01-10T10:08:24.000Z</time>
      </trkpt>
      <trkpt lat="43.62008" lon="6.82461">
        <ele>128.3</ele>
        <time>2025-01-10T10:08:23.000Z</time>
      </trkpt>
      <trkpt lat="43.6201" lon="6.82462">
        <ele>128</ele>
        <time>2025-01-10T10:08:22.000Z</time>
      </trkpt>
      <trkpt lat="43.62012" lon="6.82464">
        <ele>127.7</ele>
        <time>2025-01-10T10:08:21.000Z</time>
      </trkpt>
      <trkpt lat="43.62014" lon="6.82465">
        <ele>127.4</ele>
        <time>2025-01-10T10:08:20.000Z</time>
      </trkpt>
      <trkpt lat="43.62016" lon="6.82467">
        <ele>127</ele>
        <time>2025-01-10T10:08:19.000Z</time>
      </trkpt>
      <trkpt lat="43.62019" lon="6.82468">
        <ele>126.7</ele>
        <time>2025-01-10T10:08:18.000Z</time>
      </trkpt>
      <trkpt lat="43.62021" lon="6.82469">
        <ele>126.4</ele>
        <time>2025-01-10T10:08:17.000Z</time>
      </trkpt>
      <trkpt lat="43.62023" lon="6.82471">
        <ele>126.1</ele>
        <time>2025-01-10T10:08:16.000Z</time>
      </trkpt>
      <trkpt lat="43.62026" lon="6.82472">
        <ele>125.6</ele>
        <time>2025-01-10T10:08:15.000Z</time>
      </trkpt>
      <trkpt lat="43.62028" lon="6.82473">
        <ele>125.4</ele>
        <time>2025-01-10T10:08:14.000Z</time>
      </trkpt>
      <trkpt lat="43.6203" lon="6.82474">
        <ele>125</ele>
        <time>2025-01-10T10:08:13.000Z</time>
      </trkpt>
      <trkpt lat="43.62032" lon="6.82474">
        <ele>124.8</ele>
        <time>2025-01-10T10:08:12.000Z</time>
      </trkpt>
      <trkpt lat="43.62034" lon="6.82475">
        <ele>124.5</ele>
        <time>2025-01-10T10:08:11.000Z</time>
      </trkpt>
      <trkpt lat="43.62037" lon="6.82477">
        <ele>124.1</ele>
        <time>2025-01-10T10:08:10.000Z</time>
      </trkpt>
      <trkpt lat="43.62039" lon="6.82479">
        <ele>123.8</ele>
        <time>2025-01-10T10:08:09.000Z</time>
      </trkpt>
      <trkpt lat="43.62042" lon="6.8248">
        <ele>123.4</ele>
        <time>2025-01-10T10:08:08.000Z</time>
      </trkpt>
      <trkpt lat="43.62044" lon="6.82481">
        <ele>123.1</ele>
        <time>2025-01-10T10:08:07.000Z</time>
      </trkpt>
      <trkpt lat="43.62047" lon="6.82482">
        <ele>122.9</ele>
        <time>2025-01-10T10:08:06.000Z</time>
      </trkpt>
      <trkpt lat="43.6205" lon="6.82483">
        <ele>122.5</ele>
        <time>2025-01-10T10:08:05.000Z</time>
      </trkpt>
      <trkpt lat="43.62053" lon="6.82484">
        <ele>122.2</ele>
        <time>2025-01-10T10:08:04.000Z</time>
      </trkpt>
      <trkpt lat="43.62054" lon="6.82486">
        <ele>122</ele>
        <time>2025-01-10T10:08:03.000Z</time>
      </trkpt>
      <trkpt lat="43.62056" lon="6.82488">
        <ele>121.7</ele>
        <time>2025-01-10T10:08:02.000Z</time>
      </trkpt>
      <trkpt lat="43.62059" lon="6.82489">
        <ele>121.4</ele>
        <time>2025-01-10T10:08:01.000Z</time>
      </trkpt>
      <trkpt lat="43.62061" lon="6.82491">
        <ele>121.1</ele>
        <time>2025-01-10T10:08:00.000Z</time>
      </trkpt>
      <trkpt lat="43.62062" lon="6.82492">
        <ele>120.9</ele>
        <time>2025-01-10T10:07:59.000Z</time>
      </trkpt>
      <trkpt lat="43.62063" lon="6.82492">
        <ele>120.8</ele>
        <time>2025-01-10T10:07:58.000Z</time>
      </trkpt>
      <trkpt lat="43.62063" lon="6.82493">
        <ele>120.8</ele>
        <time>2025-01-10T10:07:57.000Z</time>
      </trkpt>
      <trkpt lat="43.62064" lon="6.82494">
        <ele>120.7</ele>
        <time>2025-01-10T10:07:56.000Z</time>
      </trkpt>
      <trkpt lat="43.62064" lon="6.82494">
        <ele>120.6</ele>
        <time>2025-01-10T10:07:55.000Z</time>
      </trkpt>
      <trkpt lat="43.62066" lon="6.82495">
        <ele>120.5</ele>
        <time>2025-01-10T10:07:54.000Z</time>
      </trkpt>
      <trkpt lat="43.62068" lon="6.82495">
        <ele>120.2</ele>
        <time>2025-01-10T10:07:53.000Z</time>
      </trkpt>
      <trkpt lat="43.6207" lon="6.82495">
        <ele>120</ele>
        <time>2025-01-10T10:07:52.000Z</time>
      </trkpt>
      <trkpt lat="43.62072" lon="6.82495">
        <ele>119.7</ele>
        <time>2025-01-10T10:07:51.000Z</time>
      </trkpt>
      <trkpt lat="43.62074" lon="6.82495">
        <ele>119.5</ele>
        <time>2025-01-10T10:07:50.000Z</time>
      </trkpt>
      <trkpt lat="43.62077" lon="6.82495">
        <ele>119.1</ele>
        <time>2025-01-10T10:07:49.000Z</time>
      </trkpt>
      <trkpt lat="43.62079" lon="6.82496">
        <ele>118.9</ele>
        <time>2025-01-10T10:07:48.000Z</time>
      </trkpt>
      <trkpt lat="43.62081" lon="6.82496">
        <ele>118.7</ele>
        <time>2025-01-10T10:07:47.000Z</time>
      </trkpt>
      <trkpt lat="43.62083" lon="6.82496">
        <ele>118.5</ele>
        <time>2025-01-10T10:07:46.000Z</time>
      </trkpt>
      <trkpt lat="43.62085" lon="6.82497">
        <ele>118.3</ele>
        <time>2025-01-10T10:07:45.000Z</time>
      </trkpt>
      <trkpt lat="43.62087" lon="6.82498">
        <ele>118</ele>
        <time>2025-01-10T10:07:44.000Z</time>
      </trkpt>
      <trkpt lat="43.6209" lon="6.82499">
        <ele>117.7</ele>
        <time>2025-01-10T10:07:43.000Z</time>
      </trkpt>
      <trkpt lat="43.62092" lon="6.825">
        <ele>117.4</ele>
        <time>2025-01-10T10:07:42.000Z</time>
      </trkpt>
      <trkpt lat="43.62094" lon="6.82501">
        <ele>117.2</ele>
        <time>2025-01-10T10:07:41.000Z</time>
      </trkpt>
      <trkpt lat="43.62096" lon="6.82503">
        <ele>117</ele>
        <time>2025-01-10T10:07:40.000Z</time>
      </trkpt>
      <trkpt lat="43.62098" lon="6.82503">
        <ele>116.8</ele>
        <time>2025-01-10T10:07:39.000Z</time>
      </trkpt>
      <trkpt lat="43.621" lon="6.82504">
        <ele>116.5</ele>
        <time>2025-01-10T10:07:38.000Z</time>
      </trkpt>
      <trkpt lat="43.62102" lon="6.82506">
        <ele>116.3</ele>
        <time>2025-01-10T10:07:37.000Z</time>
      </trkpt>
      <trkpt lat="43.62104" lon="6.82506">
        <ele>116.1</ele>
        <time>2025-01-10T10:07:36.000Z</time>
      </trkpt>
      <trkpt lat="43.62106" lon="6.82507">
        <ele>115.9</ele>
        <time>2025-01-10T10:07:35.000Z</time>
      </trkpt>
      <trkpt lat="43.62108" lon="6.82507">
        <ele>115.7</ele>
        <time>2025-01-10T10:07:34.000Z</time>
      </trkpt>
      <trkpt lat="43.62111" lon="6.82507">
        <ele>115.5</ele>
        <time>2025-01-10T10:07:33.000Z</time>
      </trkpt>
      <trkpt lat="43.62113" lon="6.82507">
        <ele>115.3</ele>
        <time>2025-01-10T10:07:32.000Z</time>
      </trkpt>
      <trkpt lat="43.62115" lon="6.82507">
        <ele>115.1</ele>
        <time>2025-01-10T10:07:31.000Z</time>
      </trkpt>
      <trkpt lat="43.62119" lon="6.82507">
        <ele>114.8</ele>
        <time>2025-01-10T10:07:30.000Z</time>
      </trkpt>
      <trkpt lat="43.62122" lon="6.82507">
        <ele>114.6</ele>
        <time>2025-01-10T10:07:29.000Z</time>
      </trkpt>
      <trkpt lat="43.62126" lon="6.82507">
        <ele>114.3</ele>
        <time>2025-01-10T10:07:28.000Z</time>
      </trkpt>
      <trkpt lat="43.62129" lon="6.82507">
        <ele>114</ele>
        <time>2025-01-10T10:07:27.000Z</time>
      </trkpt>
      <trkpt lat="43.62132" lon="6.82506">
        <ele>113.8</ele>
        <time>2025-01-10T10:07:26.000Z</time>
      </trkpt>
      <trkpt lat="43.62134" lon="6.82506">
        <ele>113.6</ele>
        <time>2025-01-10T10:07:25.000Z</time>
      </trkpt>
      <trkpt lat="43.62137" lon="6.82506">
        <ele>113.3</ele>
        <time>2025-01-10T10:07:24.000Z</time>
      </trkpt>
      <trkpt lat="43.6214" lon="6.82505">
        <ele>113</ele>
        <time>2025-01-10T10:07:23.000Z</time>
      </trkpt>
      <trkpt lat="43.6214" lon="6.82505">
        <ele>113</ele>
        <time>2025-01-10T10:07:22.000Z</time>
      </trkpt>
      <trkpt lat="43.6214" lon="6.82505">
        <ele>113</ele>
        <time>2025-01-10T10:07:21.000Z</time>
      </trkpt>
      <trkpt lat="43.6214" lon="6.82505">
        <ele>113</ele>
        <time>2025-01-10T10:07:20.000Z</time>
      </trkpt>
      <trkpt lat="43.6214" lon="6.82505">
        <ele>113</ele>
        <time>2025-01-10T10:07:19.000Z</time>
      </trkpt>
      <trkpt lat="43.6214" lon="6.82506">
        <ele>113</ele>
        <time>2025-01-10T10:07:18.000Z</time>
      </trkpt>
      <trkpt lat="43.6214" lon="6.82506">
        <ele>113</ele>
        <time>2025-01-10T10:07:17.000Z</time>
      </trkpt>
      <trkpt lat="43.6214" lon="6.82506">
        <ele>112.9</ele>
        <time>2025-01-10T10:07:16.000Z</time>
      </trkpt>
      <trkpt lat="43.6214" lon="6.82506">
        <ele>112.9</ele>
        <time>2025-01-10T10:07:15.000Z</time>
      </trkpt>
      <trkpt lat="43.6214" lon="6.82506">
        <ele>112.9</ele>
        <time>2025-01-10T10:07:14.000Z</time>
      </trkpt>
      <trkpt lat="43.6214" lon="6.82506">
        <ele>112.9</ele>
        <time>2025-01-10T10:07:13.000Z</time>
      </trkpt>
      <trkpt lat="43.6214" lon="6.82506">
        <ele>112.9</ele>
        <time>2025-01-10T10:07:12.000Z</time>
      </trkpt>
      <trkpt lat="43.6214" lon="6.82506">
        <ele>112.9</ele>
        <time>2025-01-10T10:07:11.000Z</time>
      </trkpt>
      <trkpt lat="43.6214" lon="6.82506">
        <ele>112.9</ele>
        <time>2025-01-10T10:07:10.000Z</time>
      </trkpt>
      <trkpt lat="43.6214" lon="6.82506">
        <ele>112.9</ele>
        <time>2025-01-10T10:07:09.000Z</time>
      </trkpt>
      <trkpt lat="43.6214" lon="6.82506">
        <ele>112.9</ele>
        <time>2025-01-10T10:07:08.000Z</time>
      </trkpt>
      <trkpt lat="43.6214" lon="6.82506">
        <ele>112.9</ele>
        <time>2025-01-10T10:07:07.000Z</time>
      </trkpt>
      <trkpt lat="43.62139" lon="6.82506">
        <ele>112.9</ele>
        <time>2025-01-10T10:07:06.000Z</time>
      </trkpt>
      <trkpt lat="43.62139" lon="6.82506">
        <ele>112.9</ele>
        <time>2025-01-10T10:07:05.000Z</time>
      </trkpt>
      <trkpt lat="43.62139" lon="6.82506">
        <ele>112.9</ele>
        <time>2025-01-10T10:07:04.000Z</time>
      </trkpt>
      <trkpt lat="43.62139" lon="6.82506">
        <ele>112.9</ele>
        <time>2025-01-10T10:07:03.000Z</time>
      </trkpt>
      <trkpt lat="43.62139" lon="6.82506">
        <ele>112.9</ele>
        <time>2025-01-10T10:07:02.000Z</time>
      </trkpt>
      <trkpt lat="43.62139" lon="6.82506">
        <ele>112.9</ele>
        <time>2025-01-10T10:07:01.000Z</time>
      </trkpt>
      <trkpt lat="43.62139" lon="6.82506">
        <ele>112.9</ele>
        <time>2025-01-10T10:07:00.000Z</time>
      </trkpt>
      <trkpt lat="43.62139" lon="6.82506">
        <ele>112.9</ele>
        <time>2025-01-10T10:06:59.000Z</time>
      </trkpt>
      <trkpt lat="43.62139" lon="6.82506">
        <ele>112.9</ele>
        <time>2025-01-10T10:06:58.000Z</time>
      </trkpt>
      <trkpt lat="43.6214" lon="6.82507">
        <ele>112.8</ele>
        <time>2025-01-10T10:06:57.000Z</time>
      </trkpt>
      <trkpt lat="43.6214" lon="6.82507">
        <ele>112.7</ele>
        <time>2025-01-10T10:06:56.000Z</time>
      </trkpt>
      <trkpt lat="43.6214" lon="6.82508">
        <ele>112.7</ele>
        <time>2025-01-10T10:06:55.000Z</time>
      </trkpt>
      <trkpt lat="43.62141" lon="6.82508">
        <ele>112.7</ele>
        <time>2025-01-10T10:06:54.000Z</time>
      </trkpt>
      <trkpt lat="43.62141" lon="6.82509">
        <ele>112.6</ele>
        <time>2025-01-10T10:06:53.000Z</time>
      </trkpt>
      <trkpt lat="43.62141" lon="6.8251">
        <ele>112.5</ele>
        <time>2025-01-10T10:06:52.000Z</time>
      </trkpt>
      <trkpt lat="43.62141" lon="6.8251">
        <ele>112.5</ele>
        <time>2025-01-10T10:06:51.000Z</time>
      </trkpt>
      <trkpt lat="43.62142" lon="6.8251">
        <ele>112.5</ele>
        <time>2025-01-10T10:06:50.000Z</time>
      </trkpt>
      <trkpt lat="43.62142" lon="6.82509">
        <ele>112.5</ele>
        <time>2025-01-10T10:06:49.000Z</time>
      </trkpt>
      <trkpt lat="43.62142" lon="6.82509">
        <ele>112.5</ele>
        <time>2025-01-10T10:06:48.000Z</time>
      </trkpt>
      <trkpt lat="43.62142" lon="6.82509">
        <ele>112.4</ele>
        <time>2025-01-10T10:06:47.000Z</time>
      </trkpt>
      <trkpt lat="43.62142" lon="6.82509">
        <ele>112.4</ele>
        <time>2025-01-10T10:06:46.000Z</time>
      </trkpt>
      <trkpt lat="43.62143" lon="6.82509">
        <ele>112.4</ele>
        <time>2025-01-10T10:06:45.000Z</time>
      </trkpt>
      <trkpt lat="43.62143" lon="6.82509">
        <ele>112.4</ele>
        <time>2025-01-10T10:06:44.000Z</time>
      </trkpt>
      <trkpt lat="43.62143" lon="6.82509">
        <ele>112.4</ele>
        <time>2025-01-10T10:06:43.000Z</time>
      </trkpt>
      <trkpt lat="43.62143" lon="6.8251">
        <ele>112.3</ele>
        <time>2025-01-10T10:06:42.000Z</time>
      </trkpt>
      <trkpt lat="43.62144" lon="6.8251">
        <ele>112.3</ele>
        <time>2025-01-10T10:06:41.000Z</time>
      </trkpt>
      <trkpt lat="43.62145" lon="6.82509">
        <ele>112.2</ele>
        <time>2025-01-10T10:06:40.000Z</time>
      </trkpt>
      <trkpt lat="43.62146" lon="6.82509">
        <ele>112.1</ele>
        <time>2025-01-10T10:06:39.000Z</time>
      </trkpt>
      <trkpt lat="43.62147" lon="6.82508">
        <ele>112</ele>
        <time>2025-01-10T10:06:38.000Z</time>
      </trkpt>
      <trkpt lat="43.62147" lon="6.82508">
        <ele>111.9</ele>
        <time>2025-01-10T10:06:37.000Z</time>
      </trkpt>
      <trkpt lat="43.62149" lon="6.82507">
        <ele>111.7</ele>
        <time>2025-01-10T10:06:36.000Z</time>
      </trkpt>
      <trkpt lat="43.6215" lon="6.82506">
        <ele>111.6</ele>
        <time>2025-01-10T10:06:35.000Z</time>
      </trkpt>
      <trkpt lat="43.6215" lon="6.82505">
        <ele>111.5</ele>
        <time>2025-01-10T10:06:34.000Z</time>
      </trkpt>
      <trkpt lat="43.62151" lon="6.82503">
        <ele>111.4</ele>
        <time>2025-01-10T10:06:33.000Z</time>
      </trkpt>
      <trkpt lat="43.62152" lon="6.82502">
        <ele>111.2</ele>
        <time>2025-01-10T10:06:32.000Z</time>
      </trkpt>
      <trkpt lat="43.62153" lon="6.82502">
        <ele>111.1</ele>
        <time>2025-01-10T10:06:31.000Z</time>
      </trkpt>
      <trkpt lat="43.62153" lon="6.82502">
        <ele>111.1</ele>
        <time>2025-01-10T10:06:30.000Z</time>
      </trkpt>
      <trkpt lat="43.62153" lon="6.82502">
        <ele>111</ele>
        <time>2025-01-10T10:06:29.000Z</time>
      </trkpt>
      <trkpt lat="43.62153" lon="6.82502">
        <ele>111</ele>
        <time>2025-01-10T10:06:28.000Z</time>
      </trkpt>
      <trkpt lat="43.62153" lon="6.82502">
        <ele>111</ele>
        <time>2025-01-10T10:06:27.000Z</time>
      </trkpt>
      <trkpt lat="43.62153" lon="6.82503">
        <ele>110.9</ele>
        <time>2025-01-10T10:06:26.000Z</time>
      </trkpt>
      <trkpt lat="43.62154" lon="6.82503">
        <ele>110.9</ele>
        <time>2025-01-10T10:06:25.000Z</time>
      </trkpt>
      <trkpt lat="43.62155" lon="6.82502">
        <ele>110.7</ele>
        <time>2025-01-10T10:06:24.000Z</time>
      </trkpt>
      <trkpt lat="43.62157" lon="6.82501">
        <ele>110.5</ele>
        <time>2025-01-10T10:06:23.000Z</time>
      </trkpt>
      <trkpt lat="43.62159" lon="6.825">
        <ele>110.2</ele>
        <time>2025-01-10T10:06:22.000Z</time>
      </trkpt>
      <trkpt lat="43.62161" lon="6.82499">
        <ele>109.9</ele>
        <time>2025-01-10T10:06:21.000Z</time>
      </trkpt>
      <trkpt lat="43.62163" lon="6.82499">
        <ele>109.6</ele>
        <time>2025-01-10T10:06:20.000Z</time>
      </trkpt>
      <trkpt lat="43.62166" lon="6.82498">
        <ele>109.3</ele>
        <time>2025-01-10T10:06:19.000Z</time>
      </trkpt>
      <trkpt lat="43.62168" lon="6.82498">
        <ele>109</ele>
        <time>2025-01-10T10:06:18.000Z</time>
      </trkpt>
      <trkpt lat="43.6217" lon="6.82497">
        <ele>108.8</ele>
        <time>2025-01-10T10:06:17.000Z</time>
      </trkpt>
      <trkpt lat="43.62172" lon="6.82496">
        <ele>108.5</ele>
        <time>2025-01-10T10:06:16.000Z</time>
      </trkpt>
      <trkpt lat="43.62175" lon="6.82496">
        <ele>108.2</ele>
        <time>2025-01-10T10:06:15.000Z</time>
      </trkpt>
      <trkpt lat="43.62177" lon="6.82495">
        <ele>107.9</ele>
        <time>2025-01-10T10:06:14.000Z</time>
      </trkpt>
      <trkpt lat="43.62179" lon="6.82494">
        <ele>107.6</ele>
        <time>2025-01-10T10:06:13.000Z</time>
      </trkpt>
      <trkpt lat="43.62182" lon="6.82494">
        <ele>107.3</ele>
        <time>2025-01-10T10:06:12.000Z</time>
      </trkpt>
      <trkpt lat="43.62185" lon="6.82494">
        <ele>107</ele>
        <time>2025-01-10T10:06:11.000Z</time>
      </trkpt>
      <trkpt lat="43.62187" lon="6.82495">
        <ele>106.7</ele>
        <time>2025-01-10T10:06:10.000Z</time>
      </trkpt>
      <trkpt lat="43.62189" lon="6.82496">
        <ele>106.5</ele>
        <time>2025-01-10T10:06:09.000Z</time>
      </trkpt>
      <trkpt lat="43.6219" lon="6.82497">
        <ele>106.3</ele>
        <time>2025-01-10T10:06:08.000Z</time>
      </trkpt>
      <trkpt lat="43.62191" lon="6.82498">
        <ele>106.2</ele>
        <time>2025-01-10T10:06:07.000Z</time>
      </trkpt>
      <trkpt lat="43.62192" lon="6.82498">
        <ele>106.1</ele>
        <time>2025-01-10T10:06:06.000Z</time>
      </trkpt>
      <trkpt lat="43.62191" lon="6.82498">
        <ele>106.1</ele>
        <time>2025-01-10T10:06:05.000Z</time>
      </trkpt>
      <trkpt lat="43.62191" lon="6.82498">
        <ele>106.1</ele>
        <time>2025-01-10T10:06:04.000Z</time>
      </trkpt>
      <trkpt lat="43.62191" lon="6.82498">
        <ele>106.1</ele>
        <time>2025-01-10T10:06:03.000Z</time>
      </trkpt>
      <trkpt lat="43.62191" lon="6.82499">
        <ele>106.1</ele>
        <time>2025-01-10T10:06:02.000Z</time>
      </trkpt>
      <trkpt lat="43.62191" lon="6.82499">
        <ele>106</ele>
        <time>2025-01-10T10:06:01.000Z</time>
      </trkpt>
      <trkpt lat="43.62192" lon="6.82499">
        <ele>106</ele>
        <time>2025-01-10T10:06:00.000Z</time>
      </trkpt>
      <trkpt lat="43.62192" lon="6.82499">
        <ele>106</ele>
        <time>2025-01-10T10:05:59.000Z</time>
      </trkpt>
      <trkpt lat="43.62192" lon="6.825">
        <ele>106</ele>
        <time>2025-01-10T10:05:58.000Z</time>
      </trkpt>
      <trkpt lat="43.62192" lon="6.825">
        <ele>105.9</ele>
        <time>2025-01-10T10:05:57.000Z</time>
      </trkpt>
      <trkpt lat="43.62192" lon="6.82501">
        <ele>105.9</ele>
        <time>2025-01-10T10:05:56.000Z</time>
      </trkpt>
      <trkpt lat="43.62192" lon="6.82501">
        <ele>105.8</ele>
        <time>2025-01-10T10:05:55.000Z</time>
      </trkpt>
      <trkpt lat="43.62192" lon="6.82503">
        <ele>105.7</ele>
        <time>2025-01-10T10:05:54.000Z</time>
      </trkpt>
      <trkpt lat="43.62192" lon="6.82504">
        <ele>105.6</ele>
        <time>2025-01-10T10:05:53.000Z</time>
      </trkpt>
      <trkpt lat="43.62192" lon="6.82505">
        <ele>105.5</ele>
        <time>2025-01-10T10:05:52.000Z</time>
      </trkpt>
      <trkpt lat="43.62192" lon="6.82507">
        <ele>105.3</ele>
        <time>2025-01-10T10:05:51.000Z</time>
      </trkpt>
      <trkpt lat="43.62192" lon="6.82508">
        <ele>105.2</ele>
        <time>2025-01-10T10:05:50.000Z</time>
      </trkpt>
      <trkpt lat="43.62192" lon="6.8251">
        <ele>105.1</ele>
        <time>2025-01-10T10:05:49.000Z</time>
      </trkpt>
      <trkpt lat="43.62192" lon="6.82511">
        <ele>105</ele>
        <time>2025-01-10T10:05:48.000Z</time>
      </trkpt>
      <trkpt lat="43.62192" lon="6.82512">
        <ele>104.9</ele>
        <time>2025-01-10T10:05:47.000Z</time>
      </trkpt>
      <trkpt lat="43.62192" lon="6.82514">
        <ele>104.7</ele>
        <time>2025-01-10T10:05:46.000Z</time>
      </trkpt>
      <trkpt lat="43.62191" lon="6.82515">
        <ele>104.6</ele>
        <time>2025-01-10T10:05:45.000Z</time>
      </trkpt>
      <trkpt lat="43.62191" lon="6.82516">
        <ele>104.5</ele>
        <time>2025-01-10T10:05:44.000Z</time>
      </trkpt>
      <trkpt lat="43.62191" lon="6.82517">
        <ele>104.4</ele>
        <time>2025-01-10T10:05:43.000Z</time>
      </trkpt>
      <trkpt lat="43.6219" lon="6.82518">
        <ele>104.3</ele>
        <time>2025-01-10T10:05:42.000Z</time>
      </trkpt>
      <trkpt lat="43.6219" lon="6.8252">
        <ele>104.2</ele>
        <time>2025-01-10T10:05:41.000Z</time>
      </trkpt>
      <trkpt lat="43.62189" lon="6.82521">
        <ele>104</ele>
        <time>2025-01-10T10:05:40.000Z</time>
      </trkpt>
      <trkpt lat="43.62189" lon="6.82522">
        <ele>103.9</ele>
        <time>2025-01-10T10:05:39.000Z</time>
      </trkpt>
      <trkpt lat="43.62188" lon="6.82523">
        <ele>103.8</ele>
        <time>2025-01-10T10:05:38.000Z</time>
      </trkpt>
      <trkpt lat="43.62188" lon="6.82524">
        <ele>103.7</ele>
        <time>2025-01-10T10:05:37.000Z</time>
      </trkpt>
      <trkpt lat="43.62187" lon="6.82526">
        <ele>103.6</ele>
        <time>2025-01-10T10:05:36.000Z</time>
      </trkpt>
      <trkpt lat="43.62187" lon="6.82527">
        <ele>103.5</ele>
        <time>2025-01-10T10:05:35.000Z</time>
      </trkpt>
      <trkpt lat="43.62187" lon="6.82528">
        <ele>103.4</ele>
        <time>2025-01-10T10:05:34.000Z</time>
      </trkpt>
      <trkpt lat="43.62186" lon="6.82529">
        <ele>103.4</ele>
        <time>2025-01-10T10:05:33.000Z</time>
      </trkpt>
      <trkpt lat="43.62186" lon="6.8253">
        <ele>103.3</ele>
        <time>2025-01-10T10:05:32.000Z</time>
      </trkpt>
      <trkpt lat="43.62186" lon="6.82531">
        <ele>103.2</ele>
        <time>2025-01-10T10:05:31.000Z</time>
      </trkpt>
      <trkpt lat="43.62185" lon="6.82532">
        <ele>103.1</ele>
        <time>2025-01-10T10:05:30.000Z</time>
      </trkpt>
      <trkpt lat="43.62185" lon="6.82532">
        <ele>103.1</ele>
        <time>2025-01-10T10:05:29.000Z</time>
      </trkpt>
      <trkpt lat="43.62184" lon="6.82533">
        <ele>103</ele>
        <time>2025-01-10T10:05:28.000Z</time>
      </trkpt>
      <trkpt lat="43.62184" lon="6.82534">
        <ele>102.9</ele>
        <time>2025-01-10T10:05:27.000Z</time>
      </trkpt>
      <trkpt lat="43.62183" lon="6.82535">
        <ele>102.8</ele>
        <time>2025-01-10T10:05:26.000Z</time>
      </trkpt>
      <trkpt lat="43.62182" lon="6.82536">
        <ele>102.7</ele>
        <time>2025-01-10T10:05:25.000Z</time>
      </trkpt>
      <trkpt lat="43.62182" lon="6.82537">
        <ele>102.6</ele>
        <time>2025-01-10T10:05:24.000Z</time>
      </trkpt>
      <trkpt lat="43.62181" lon="6.82538">
        <ele>102.5</ele>
        <time>2025-01-10T10:05:23.000Z</time>
      </trkpt>
      <trkpt lat="43.6218" lon="6.82538">
        <ele>102.5</ele>
        <time>2025-01-10T10:05:22.000Z</time>
      </trkpt>
      <trkpt lat="43.6218" lon="6.82539">
        <ele>102.4</ele>
        <time>2025-01-10T10:05:21.000Z</time>
      </trkpt>
      <trkpt lat="43.62179" lon="6.8254">
        <ele>102.4</ele>
        <time>2025-01-10T10:05:20.000Z</time>
      </trkpt>
      <trkpt lat="43.62179" lon="6.8254">
        <ele>102.3</ele>
        <time>2025-01-10T10:05:19.000Z</time>
      </trkpt>
      <trkpt lat="43.62178" lon="6.82542">
        <ele>102.2</ele>
        <time>2025-01-10T10:05:18.000Z</time>
      </trkpt>
      <trkpt lat="43.62178" lon="6.82543">
        <ele>102.1</ele>
        <time>2025-01-10T10:05:17.000Z</time>
      </trkpt>
      <trkpt lat="43.62176" lon="6.82546">
        <ele>101.9</ele>
        <time>2025-01-10T10:05:16.000Z</time>
      </trkpt>
      <trkpt lat="43.62175" lon="6.82548">
        <ele>101.7</ele>
        <time>2025-01-10T10:05:15.000Z</time>
      </trkpt>
      <trkpt lat="43.62173" lon="6.8255">
        <ele>101.5</ele>
        <time>2025-01-10T10:05:14.000Z</time>
      </trkpt>
      <trkpt lat="43.62172" lon="6.82553">
        <ele>101.3</ele>
        <time>2025-01-10T10:05:13.000Z</time>
      </trkpt>
      <trkpt lat="43.62171" lon="6.82555">
        <ele>101.1</ele>
        <time>2025-01-10T10:05:12.000Z</time>
      </trkpt>
      <trkpt lat="43.6217" lon="6.82556">
        <ele>101</ele>
        <time>2025-01-10T10:05:11.000Z</time>
      </trkpt>
      <trkpt lat="43.6217" lon="6.82556">
        <ele>101</ele>
        <time>2025-01-10T10:05:10.000Z</time>
      </trkpt>
      <trkpt lat="43.62171" lon="6.82556">
        <ele>101</ele>
        <time>2025-01-10T10:05:09.000Z</time>
      </trkpt>
      <trkpt lat="43.62171" lon="6.82556">
        <ele>101</ele>
        <time>2025-01-10T10:05:08.000Z</time>
      </trkpt>
      <trkpt lat="43.62171" lon="6.82556">
        <ele>101</ele>
        <time>2025-01-10T10:05:07.000Z</time>
      </trkpt>
      <trkpt lat="43.62171" lon="6.82556">
        <ele>101</ele>
        <time>2025-01-10T10:05:06.000Z</time>
      </trkpt>
      <trkpt lat="43.62171" lon="6.82556">
        <ele>101</ele>
        <time>2025-01-10T10:05:05.000Z</time>
      </trkpt>
      <trkpt lat="43.62171" lon="6.82556">
        <ele>101</ele>
        <time>2025-01-10T10:05:04.000Z</time>
      </trkpt>
      <trkpt lat="43.62171" lon="6.82556">
        <ele>101</ele>
        <time>2025-01-10T10:05:03.000Z</time>
      </trkpt>
      <trkpt lat="43.62171" lon="6.82556">
        <ele>101</ele>
        <time>2025-01-10T10:05:02.000Z</time>
      </trkpt>
      <trkpt lat="43.6217" lon="6.82556">
        <ele>100.9</ele>
        <time>2025-01-10T10:05:01.000Z</time>
      </trkpt>
      <trkpt lat="43.62169" lon="6.82554">
        <ele>100.8</ele>
        <time>2025-01-10T10:05:00.000Z</time>
      </trkpt>
      <trkpt lat="43.62169" lon="6.82553">
        <ele>100.7</ele>
        <time>2025-01-10T10:04:59.000Z</time>
      </trkpt>
      <trkpt lat="43.62169" lon="6.82553">
        <ele>100.7</ele>
        <time>2025-01-10T10:04:58.000Z</time>
      </trkpt>
      <trkpt lat="43.62169" lon="6.82553">
        <ele>100.7</ele>
        <time>2025-01-10T10:04:57.000Z</time>
      </trkpt>
      <trkpt lat="43.62169" lon="6.82553">
        <ele>100.7</ele>
        <time>2025-01-10T10:04:56.000Z</time>
      </trkpt>
      <trkpt lat="43.62169" lon="6.82554">
        <ele>100.6</ele>
        <time>2025-01-10T10:04:55.000Z</time>
      </trkpt>
      <trkpt lat="43.62169" lon="6.82554">
        <ele>100.6</ele>
        <time>2025-01-10T10:04:54.000Z</time>
      </trkpt>
      <trkpt lat="43.62169" lon="6.82554">
        <ele>100.6</ele>
        <time>2025-01-10T10:04:53.000Z</time>
      </trkpt>
      <trkpt lat="43.62169" lon="6.82554">
        <ele>100.6</ele>
        <time>2025-01-10T10:04:52.000Z</time>
      </trkpt>
      <trkpt lat="43.62169" lon="6.82555">
        <ele>100.6</ele>
        <time>2025-01-10T10:04:51.000Z</time>
      </trkpt>
      <trkpt lat="43.62169" lon="6.82555">
        <ele>100.5</ele>
        <time>2025-01-10T10:04:50.000Z</time>
      </trkpt>
      <trkpt lat="43.62169" lon="6.82554">
        <ele>100.5</ele>
        <time>2025-01-10T10:04:49.000Z</time>
      </trkpt>
      <trkpt lat="43.62169" lon="6.82555">
        <ele>100.5</ele>
        <time>2025-01-10T10:04:48.000Z</time>
      </trkpt>
      <trkpt lat="43.62168" lon="6.82556">
        <ele>100.4</ele>
        <time>2025-01-10T10:04:47.000Z</time>
      </trkpt>
      <trkpt lat="43.62168" lon="6.82556">
        <ele>100.4</ele>
        <time>2025-01-10T10:04:46.000Z</time>
      </trkpt>
      <trkpt lat="43.62167" lon="6.82558">
        <ele>100.3</ele>
        <time>2025-01-10T10:04:45.000Z</time>
      </trkpt>
      <trkpt lat="43.62167" lon="6.82559">
        <ele>100.2</ele>
        <time>2025-01-10T10:04:44.000Z</time>
      </trkpt>
      <trkpt lat="43.62166" lon="6.8256">
        <ele>100.1</ele>
        <time>2025-01-10T10:04:43.000Z</time>
      </trkpt>
      <trkpt lat="43.62166" lon="6.82561">
        <ele>100</ele>
        <time>2025-01-10T10:04:42.000Z</time>
      </trkpt>
      <trkpt lat="43.62165" lon="6.82562">
        <ele>99.9</ele>
        <time>2025-01-10T10:04:41.000Z</time>
      </trkpt>
      <trkpt lat="43.62165" lon="6.82563">
        <ele>99.8</ele>
        <time>2025-01-10T10:04:40.000Z</time>
      </trkpt>
      <trkpt lat="43.62164" lon="6.82564">
        <ele>99.7</ele>
        <time>2025-01-10T10:04:39.000Z</time>
      </trkpt>
      <trkpt lat="43.62163" lon="6.82565">
        <ele>99.6</ele>
        <time>2025-01-10T10:04:38.000Z</time>
      </trkpt>
      <trkpt lat="43.62163" lon="6.82565">
        <ele>99.6</ele>
        <time>2025-01-10T10:04:37.000Z</time>
      </trkpt>
      <trkpt lat="43.62162" lon="6.82566">
        <ele>99.5</ele>
        <time>2025-01-10T10:04:36.000Z</time>
      </trkpt>
      <trkpt lat="43.62161" lon="6.82567">
        <ele>99.4</ele>
        <time>2025-01-10T10:04:35.000Z</time>
      </trkpt>
      <trkpt lat="43.6216" lon="6.82567">
        <ele>99.3</ele>
        <time>2025-01-10T10:04:34.000Z</time>
      </trkpt>
      <trkpt lat="43.62159" lon="6.82568">
        <ele>99.2</ele>
        <time>2025-01-10T10:04:33.000Z</time>
      </trkpt>
      <trkpt lat="43.62158" lon="6.82568">
        <ele>99.1</ele>
        <time>2025-01-10T10:04:32.000Z</time>
      </trkpt>
      <trkpt lat="43.62157" lon="6.82569">
        <ele>99</ele>
        <time>2025-01-10T10:04:31.000Z</time>
      </trkpt>
      <trkpt lat="43.62157" lon="6.82569">
        <ele>98.9</ele>
        <time>2025-01-10T10:04:30.000Z</time>
      </trkpt>
      <trkpt lat="43.62156" lon="6.8257">
        <ele>98.8</ele>
        <time>2025-01-10T10:04:29.000Z</time>
      </trkpt>
      <trkpt lat="43.62155" lon="6.82571">
        <ele>98.7</ele>
        <time>2025-01-10T10:04:28.000Z</time>
      </trkpt>
      <trkpt lat="43.62155" lon="6.82571">
        <ele>98.6</ele>
        <time>2025-01-10T10:04:27.000Z</time>
      </trkpt>
      <trkpt lat="43.62154" lon="6.82572">
        <ele>98.6</ele>
        <time>2025-01-10T10:04:26.000Z</time>
      </trkpt>
      <trkpt lat="43.62154" lon="6.82573">
        <ele>98.5</ele>
        <time>2025-01-10T10:04:25.000Z</time>
      </trkpt>
      <trkpt lat="43.62153" lon="6.82574">
        <ele>98.4</ele>
        <time>2025-01-10T10:04:24.000Z</time>
      </trkpt>
      <trkpt lat="43.62152" lon="6.82574">
        <ele>98.3</ele>
        <time>2025-01-10T10:04:23.000Z</time>
      </trkpt>
      <trkpt lat="43.62152" lon="6.82575">
        <ele>98.2</ele>
        <time>2025-01-10T10:04:22.000Z</time>
      </trkpt>
      <trkpt lat="43.62151" lon="6.82576">
        <ele>98.1</ele>
        <time>2025-01-10T10:04:21.000Z</time>
      </trkpt>
      <trkpt lat="43.6215" lon="6.82576">
        <ele>98.1</ele>
        <time>2025-01-10T10:04:20.000Z</time>
      </trkpt>
      <trkpt lat="43.62149" lon="6.82577">
        <ele>98</ele>
        <time>2025-01-10T10:04:19.000Z</time>
      </trkpt>
      <trkpt lat="43.62148" lon="6.82578">
        <ele>97.9</ele>
        <time>2025-01-10T10:04:18.000Z</time>
      </trkpt>
      <trkpt lat="43.62148" lon="6.82578">
        <ele>97.8</ele>
        <time>2025-01-10T10:04:17.000Z</time>
      </trkpt>
      <trkpt lat="43.62147" lon="6.82579">
        <ele>97.7</ele>
        <time>2025-01-10T10:04:16.000Z</time>
      </trkpt>
      <trkpt lat="43.62147" lon="6.82579">
        <ele>97.6</ele>
        <time>2025-01-10T10:04:15.000Z</time>
      </trkpt>
      <trkpt lat="43.62146" lon="6.8258">
        <ele>97.5</ele>
        <time>2025-01-10T10:04:14.000Z</time>
      </trkpt>
      <trkpt lat="43.62145" lon="6.82581">
        <ele>97.4</ele>
        <time>2025-01-10T10:04:13.000Z</time>
      </trkpt>
      <trkpt lat="43.62144" lon="6.82582">
        <ele>97.3</ele>
        <time>2025-01-10T10:04:12.000Z</time>
      </trkpt>
      <trkpt lat="43.62143" lon="6.82582">
        <ele>97.2</ele>
        <time>2025-01-10T10:04:11.000Z</time>
      </trkpt>
      <trkpt lat="43.62142" lon="6.82582">
        <ele>97.1</ele>
        <time>2025-01-10T10:04:10.000Z</time>
      </trkpt>
      <trkpt lat="43.62142" lon="6.82582">
        <ele>97.1</ele>
        <time>2025-01-10T10:04:09.000Z</time>
      </trkpt>
      <trkpt lat="43.62141" lon="6.82582">
        <ele>97</ele>
        <time>2025-01-10T10:04:08.000Z</time>
      </trkpt>
      <trkpt lat="43.62141" lon="6.82582">
        <ele>97</ele>
        <time>2025-01-10T10:04:07.000Z</time>
      </trkpt>
      <trkpt lat="43.62141" lon="6.82582">
        <ele>97</ele>
        <time>2025-01-10T10:04:06.000Z</time>
      </trkpt>
      <trkpt lat="43.62141" lon="6.82583">
        <ele>96.9</ele>
        <time>2025-01-10T10:04:05.000Z</time>
      </trkpt>
      <trkpt lat="43.6214" lon="6.82583">
        <ele>96.9</ele>
        <time>2025-01-10T10:04:04.000Z</time>
      </trkpt>
      <trkpt lat="43.6214" lon="6.82583">
        <ele>96.9</ele>
        <time>2025-01-10T10:04:03.000Z</time>
      </trkpt>
      <trkpt lat="43.6214" lon="6.82583">
        <ele>96.8</ele>
        <time>2025-01-10T10:04:02.000Z</time>
      </trkpt>
      <trkpt lat="43.62139" lon="6.82584">
        <ele>96.7</ele>
        <time>2025-01-10T10:04:01.000Z</time>
      </trkpt>
      <trkpt lat="43.62138" lon="6.82585">
        <ele>96.6</ele>
        <time>2025-01-10T10:04:00.000Z</time>
      </trkpt>
      <trkpt lat="43.62137" lon="6.82585">
        <ele>96.5</ele>
        <time>2025-01-10T10:03:59.000Z</time>
      </trkpt>
      <trkpt lat="43.62135" lon="6.82586">
        <ele>96.3</ele>
        <time>2025-01-10T10:03:58.000Z</time>
      </trkpt>
      <trkpt lat="43.62134" lon="6.82588">
        <ele>96.1</ele>
        <time>2025-01-10T10:03:57.000Z</time>
      </trkpt>
      <trkpt lat="43.62132" lon="6.8259">
        <ele>95.9</ele>
        <time>2025-01-10T10:03:56.000Z</time>
      </trkpt>
      <trkpt lat="43.6213" lon="6.82593">
        <ele>95.7</ele>
        <time>2025-01-10T10:03:55.000Z</time>
      </trkpt>
      <trkpt lat="43.62128" lon="6.82595">
        <ele>95.4</ele>
        <time>2025-01-10T10:03:54.000Z</time>
      </trkpt>
      <trkpt lat="43.62126" lon="6.82598">
        <ele>95.2</ele>
        <time>2025-01-10T10:03:53.000Z</time>
      </trkpt>
      <trkpt lat="43.62124" lon="6.82601">
        <ele>95</ele>
        <time>2025-01-10T10:03:52.000Z</time>
      </trkpt>
      <trkpt lat="43.62123" lon="6.82604">
        <ele>94.7</ele>
        <time>2025-01-10T10:03:51.000Z</time>
      </trkpt>
      <trkpt lat="43.62121" lon="6.82607">
        <ele>94.5</ele>
        <time>2025-01-10T10:03:50.000Z</time>
      </trkpt>
      <trkpt lat="43.62121" lon="6.82608">
        <ele>94.5</ele>
        <time>2025-01-10T10:03:49.000Z</time>
      </trkpt>
      <trkpt lat="43.62121" lon="6.82608">
        <ele>94.5</ele>
        <time>2025-01-10T10:03:48.000Z</time>
      </trkpt>
      <trkpt lat="43.62121" lon="6.82608">
        <ele>94.5</ele>
        <time>2025-01-10T10:03:47.000Z</time>
      </trkpt>
      <trkpt lat="43.62121" lon="6.82608">
        <ele>94.5</ele>
        <time>2025-01-10T10:03:46.000Z</time>
      </trkpt>
      <trkpt lat="43.62121" lon="6.82608">
        <ele>94.5</ele>
        <time>2025-01-10T10:03:45.000Z</time>
      </trkpt>
      <trkpt lat="43.62121" lon="6.82608">
        <ele>94.5</ele>
        <time>2025-01-10T10:03:44.000Z</time>
      </trkpt>
      <trkpt lat="43.62122" lon="6.82608">
        <ele>94.5</ele>
        <time>2025-01-10T10:03:43.000Z</time>
      </trkpt>
      <trkpt lat="43.62122" lon="6.82608">
        <ele>94.5</ele>
        <time>2025-01-10T10:03:42.000Z</time>
      </trkpt>
      <trkpt lat="43.62122" lon="6.82608">
        <ele>94.4</ele>
        <time>2025-01-10T10:03:41.000Z</time>
      </trkpt>
      <trkpt lat="43.62122" lon="6.82608">
        <ele>94.4</ele>
        <time>2025-01-10T10:03:40.000Z</time>
      </trkpt>
      <trkpt lat="43.62122" lon="6.82608">
        <ele>94.4</ele>
        <time>2025-01-10T10:03:39.000Z</time>
      </trkpt>
      <trkpt lat="43.62122" lon="6.82608">
        <ele>94.4</ele>
        <time>2025-01-10T10:03:38.000Z</time>
      </trkpt>
      <trkpt lat="43.62122" lon="6.82608">
        <ele>94.4</ele>
        <time>2025-01-10T10:03:37.000Z</time>
      </trkpt>
      <trkpt lat="43.62122" lon="6.82608">
        <ele>94.4</ele>
        <time>2025-01-10T10:03:36.000Z</time>
      </trkpt>
      <trkpt lat="43.62122" lon="6.82608">
        <ele>94.4</ele>
        <time>2025-01-10T10:03:35.000Z</time>
      </trkpt>
      <trkpt lat="43.62122" lon="6.82608">
        <ele>94.4</ele>
        <time>2025-01-10T10:03:34.000Z</time>
      </trkpt>
      <trkpt lat="43.62122" lon="6.82608">
        <ele>94.4</ele>
        <time>2025-01-10T10:03:33.000Z</time>
      </trkpt>
      <trkpt lat="43.62122" lon="6.82608">
        <ele>94.4</ele>
        <time>2025-01-10T10:03:32.000Z</time>
      </trkpt>
      <trkpt lat="43.62122" lon="6.82608">
        <ele>94.4</ele>
        <time>2025-01-10T10:03:31.000Z</time>
      </trkpt>
      <trkpt lat="43.62122" lon="6.82608">
        <ele>94.4</ele>
        <time>2025-01-10T10:03:30.000Z</time>
      </trkpt>
      <trkpt lat="43.62122" lon="6.82608">
        <ele>94.4</ele>
        <time>2025-01-10T10:03:29.000Z</time>
      </trkpt>
      <trkpt lat="43.62122" lon="6.82608">
        <ele>94.4</ele>
        <time>2025-01-10T10:03:28.000Z</time>
      </trkpt>
      <trkpt lat="43.62122" lon="6.82608">
        <ele>94.4</ele>
        <time>2025-01-10T10:03:27.000Z</time>
      </trkpt>
      <trkpt lat="43.62122" lon="6.82608">
        <ele>94.4</ele>
        <time>2025-01-10T10:03:26.000Z</time>
      </trkpt>
      <trkpt lat="43.62122" lon="6.82608">
        <ele>94.4</ele>
        <time>2025-01-10T10:03:25.000Z</time>
      </trkpt>
      <trkpt lat="43.62122" lon="6.82608">
        <ele>94.4</ele>
        <time>2025-01-10T10:03:24.000Z</time>
      </trkpt>
      <trkpt lat="43.62121" lon="6.82609">
        <ele>94.2</ele>
        <time>2025-01-10T10:03:23.000Z</time>
      </trkpt>
      <trkpt lat="43.6212" lon="6.82609">
        <ele>94.2</ele>
        <time>2025-01-10T10:03:22.000Z</time>
      </trkpt>
      <trkpt lat="43.62119" lon="6.82609">
        <ele>94.1</ele>
        <time>2025-01-10T10:03:21.000Z</time>
      </trkpt>
      <trkpt lat="43.62118" lon="6.82609">
        <ele>94</ele>
        <time>2025-01-10T10:03:20.000Z</time>
      </trkpt>
      <trkpt lat="43.62118" lon="6.82609">
        <ele>94</ele>
        <time>2025-01-10T10:03:19.000Z</time>
      </trkpt>
      <trkpt lat="43.62118" lon="6.82609">
        <ele>94</ele>
        <time>2025-01-10T10:03:18.000Z</time>
      </trkpt>
      <trkpt lat="43.62117" lon="6.82609">
        <ele>93.9</ele>
        <time>2025-01-10T10:03:17.000Z</time>
      </trkpt>
      <trkpt lat="43.62117" lon="6.82608">
        <ele>93.9</ele>
        <time>2025-01-10T10:03:16.000Z</time>
      </trkpt>
      <trkpt lat="43.62117" lon="6.82608">
        <ele>93.9</ele>
        <time>2025-01-10T10:03:15.000Z</time>
      </trkpt>
      <trkpt lat="43.62117" lon="6.82608">
        <ele>93.9</ele>
        <time>2025-01-10T10:03:14.000Z</time>
      </trkpt>
      <trkpt lat="43.62117" lon="6.82608">
        <ele>93.9</ele>
        <time>2025-01-10T10:03:13.000Z</time>
      </trkpt>
      <trkpt lat="43.62117" lon="6.82608">
        <ele>93.8</ele>
        <time>2025-01-10T10:03:12.000Z</time>
      </trkpt>
      <trkpt lat="43.62117" lon="6.82608">
        <ele>93.8</ele>
        <time>2025-01-10T10:03:11.000Z</time>
      </trkpt>
      <trkpt lat="43.62116" lon="6.82608">
        <ele>93.8</ele>
        <time>2025-01-10T10:03:10.000Z</time>
      </trkpt>
      <trkpt lat="43.62116" lon="6.8261">
        <ele>93.7</ele>
        <time>2025-01-10T10:03:09.000Z</time>
      </trkpt>
      <trkpt lat="43.62117" lon="6.82613">
        <ele>93.5</ele>
        <time>2025-01-10T10:03:08.000Z</time>
      </trkpt>
      <trkpt lat="43.62117" lon="6.82616">
        <ele>93.4</ele>
        <time>2025-01-10T10:03:07.000Z</time>
      </trkpt>
      <trkpt lat="43.62118" lon="6.82619">
        <ele>93.2</ele>
        <time>2025-01-10T10:03:06.000Z</time>
      </trkpt>
      <trkpt lat="43.6212" lon="6.82622">
        <ele>93</ele>
        <time>2025-01-10T10:03:05.000Z</time>
      </trkpt>
      <trkpt lat="43.62121" lon="6.82626">
        <ele>92.8</ele>
        <time>2025-01-10T10:03:04.000Z</time>
      </trkpt>
      <trkpt lat="43.62123" lon="6.82628">
        <ele>92.6</ele>
        <time>2025-01-10T10:03:03.000Z</time>
      </trkpt>
      <trkpt lat="43.62125" lon="6.82631">
        <ele>92.4</ele>
        <time>2025-01-10T10:03:02.000Z</time>
      </trkpt>
      <trkpt lat="43.62127" lon="6.82635">
        <ele>92.2</ele>
        <time>2025-01-10T10:03:01.000Z</time>
      </trkpt>
      <trkpt lat="43.6213" lon="6.82638">
        <ele>92</ele>
        <time>2025-01-10T10:03:00.000Z</time>
      </trkpt>
      <trkpt lat="43.62132" lon="6.82642">
        <ele>91.7</ele>
        <time>2025-01-10T10:02:59.000Z</time>
      </trkpt>
      <trkpt lat="43.62134" lon="6.82645">
        <ele>91.5</ele>
        <time>2025-01-10T10:02:58.000Z</time>
      </trkpt>
      <trkpt lat="43.62137" lon="6.82649">
        <ele>91.3</ele>
        <time>2025-01-10T10:02:57.000Z</time>
      </trkpt>
      <trkpt lat="43.62139" lon="6.82652">
        <ele>91.1</ele>
        <time>2025-01-10T10:02:56.000Z</time>
      </trkpt>
      <trkpt lat="43.62141" lon="6.82655">
        <ele>90.9</ele>
        <time>2025-01-10T10:02:55.000Z</time>
      </trkpt>
      <trkpt lat="43.62144" lon="6.82658">
        <ele>90.7</ele>
        <time>2025-01-10T10:02:54.000Z</time>
      </trkpt>
      <trkpt lat="43.62146" lon="6.82661">
        <ele>90.4</ele>
        <time>2025-01-10T10:02:53.000Z</time>
      </trkpt>
      <trkpt lat="43.62148" lon="6.82664">
        <ele>90.2</ele>
        <time>2025-01-10T10:02:52.000Z</time>
      </trkpt>
      <trkpt lat="43.6215" lon="6.82668">
        <ele>90.1</ele>
        <time>2025-01-10T10:02:51.000Z</time>
      </trkpt>
      <trkpt lat="43.62152" lon="6.82672">
        <ele>89.9</ele>
        <time>2025-01-10T10:02:50.000Z</time>
      </trkpt>
      <trkpt lat="43.62153" lon="6.82676">
        <ele>89.7</ele>
        <time>2025-01-10T10:02:49.000Z</time>
      </trkpt>
      <trkpt lat="43.62154" lon="6.8268">
        <ele>89.5</ele>
        <time>2025-01-10T10:02:48.000Z</time>
      </trkpt>
      <trkpt lat="43.62155" lon="6.82684">
        <ele>89.4</ele>
        <time>2025-01-10T10:02:47.000Z</time>
      </trkpt>
      <trkpt lat="43.62155" lon="6.82689">
        <ele>89.2</ele>
        <time>2025-01-10T10:02:46.000Z</time>
      </trkpt>
      <trkpt lat="43.62155" lon="6.82693">
        <ele>89</ele>
        <time>2025-01-10T10:02:45.000Z</time>
      </trkpt>
      <trkpt lat="43.62155" lon="6.82698">
        <ele>88.9</ele>
        <time>2025-01-10T10:02:44.000Z</time>
      </trkpt>
      <trkpt lat="43.62154" lon="6.82703">
        <ele>88.7</ele>
        <time>2025-01-10T10:02:43.000Z</time>
      </trkpt>
      <trkpt lat="43.62153" lon="6.82707">
        <ele>88.6</ele>
        <time>2025-01-10T10:02:42.000Z</time>
      </trkpt>
      <trkpt lat="43.62152" lon="6.82712">
        <ele>88.4</ele>
        <time>2025-01-10T10:02:41.000Z</time>
      </trkpt>
      <trkpt lat="43.62151" lon="6.82716">
        <ele>88.3</ele>
        <time>2025-01-10T10:02:40.000Z</time>
      </trkpt>
      <trkpt lat="43.62151" lon="6.8272">
        <ele>88.2</ele>
        <time>2025-01-10T10:02:39.000Z</time>
      </trkpt>
      <trkpt lat="43.6215" lon="6.82725">
        <ele>88.1</ele>
        <time>2025-01-10T10:02:38.000Z</time>
      </trkpt>
      <trkpt lat="43.62149" lon="6.82728">
        <ele>88</ele>
        <time>2025-01-10T10:02:37.000Z</time>
      </trkpt>
      <trkpt lat="43.62149" lon="6.82729">
        <ele>88</ele>
        <time>2025-01-10T10:02:36.000Z</time>
      </trkpt>
      <trkpt lat="43.62149" lon="6.82729">
        <ele>88</ele>
        <time>2025-01-10T10:02:35.000Z</time>
      </trkpt>
      <trkpt lat="43.62149" lon="6.82729">
        <ele>88</ele>
        <time>2025-01-10T10:02:34.000Z</time>
      </trkpt>
      <trkpt lat="43.62149" lon="6.82729">
        <ele>88</ele>
        <time>2025-01-10T10:02:33.000Z</time>
      </trkpt>
      <trkpt lat="43.62149" lon="6.82729">
        <ele>88</ele>
        <time>2025-01-10T10:02:32.000Z</time>
      </trkpt>
      <trkpt lat="43.62149" lon="6.82729">
        <ele>88</ele>
        <time>2025-01-10T10:02:31.000Z</time>
      </trkpt>
      <trkpt lat="43.62149" lon="6.82729">
        <ele>88</ele>
        <time>2025-01-10T10:02:30.000Z</time>
      </trkpt>
      <trkpt lat="43.62149" lon="6.82729">
        <ele>88</ele>
        <time>2025-01-10T10:02:29.000Z</time>
      </trkpt>
      <trkpt lat="43.62149" lon="6.82729">
        <ele>88</ele>
        <time>2025-01-10T10:02:28.000Z</time>
      </trkpt>
      <trkpt lat="43.62149" lon="6.82729">
        <ele>88</ele>
        <time>2025-01-10T10:02:27.000Z</time>
      </trkpt>
      <trkpt lat="43.62149" lon="6.82729">
        <ele>88</ele>
        <time>2025-01-10T10:02:26.000Z</time>
      </trkpt>
      <trkpt lat="43.62149" lon="6.82729">
        <ele>88</ele>
        <time>2025-01-10T10:02:25.000Z</time>
      </trkpt>
      <trkpt lat="43.62149" lon="6.82729">
        <ele>88</ele>
        <time>2025-01-10T10:02:24.000Z</time>
      </trkpt>
      <trkpt lat="43.62149" lon="6.82729">
        <ele>88</ele>
        <time>2025-01-10T10:02:23.000Z</time>
      </trkpt>
      <trkpt lat="43.62149" lon="6.82729">
        <ele>88</ele>
        <time>2025-01-10T10:02:22.000Z</time>
      </trkpt>
      <trkpt lat="43.62149" lon="6.82729">
        <ele>87.9</ele>
        <time>2025-01-10T10:02:21.000Z</time>
      </trkpt>
      <trkpt lat="43.62148" lon="6.82729">
        <ele>87.9</ele>
        <time>2025-01-10T10:02:20.000Z</time>
      </trkpt>
      <trkpt lat="43.62148" lon="6.82729">
        <ele>87.9</ele>
        <time>2025-01-10T10:02:19.000Z</time>
      </trkpt>
      <trkpt lat="43.62148" lon="6.82728">
        <ele>87.9</ele>
        <time>2025-01-10T10:02:18.000Z</time>
      </trkpt>
      <trkpt lat="43.62148" lon="6.82728">
        <ele>87.9</ele>
        <time>2025-01-10T10:02:17.000Z</time>
      </trkpt>
      <trkpt lat="43.62147" lon="6.82728">
        <ele>87.9</ele>
        <time>2025-01-10T10:02:16.000Z</time>
      </trkpt>
      <trkpt lat="43.62147" lon="6.82728">
        <ele>87.8</ele>
        <time>2025-01-10T10:02:15.000Z</time>
      </trkpt>
      <trkpt lat="43.62147" lon="6.82727">
        <ele>87.8</ele>
        <time>2025-01-10T10:02:14.000Z</time>
      </trkpt>
      <trkpt lat="43.62147" lon="6.82728">
        <ele>87.8</ele>
        <time>2025-01-10T10:02:13.000Z</time>
      </trkpt>
      <trkpt lat="43.62147" lon="6.82728">
        <ele>87.8</ele>
        <time>2025-01-10T10:02:12.000Z</time>
      </trkpt>
      <trkpt lat="43.62148" lon="6.82729">
        <ele>87.8</ele>
        <time>2025-01-10T10:02:11.000Z</time>
      </trkpt>
      <trkpt lat="43.62147" lon="6.8273">
        <ele>87.8</ele>
        <time>2025-01-10T10:02:10.000Z</time>
      </trkpt>
      <trkpt lat="43.62147" lon="6.82732">
        <ele>87.7</ele>
        <time>2025-01-10T10:02:09.000Z</time>
      </trkpt>
      <trkpt lat="43.62146" lon="6.82733">
        <ele>87.7</ele>
        <time>2025-01-10T10:02:08.000Z</time>
      </trkpt>
      <trkpt lat="43.62146" lon="6.82735">
        <ele>87.6</ele>
        <time>2025-01-10T10:02:07.000Z</time>
      </trkpt>
      <trkpt lat="43.62145" lon="6.82736">
        <ele>87.6</ele>
        <time>2025-01-10T10:02:06.000Z</time>
      </trkpt>
      <trkpt lat="43.62144" lon="6.82736">
        <ele>87.6</ele>
        <time>2025-01-10T10:02:05.000Z</time>
      </trkpt>
      <trkpt lat="43.62143" lon="6.82737">
        <ele>87.5</ele>
        <time>2025-01-10T10:02:04.000Z</time>
      </trkpt>
      <trkpt lat="43.62142" lon="6.82737">
        <ele>87.5</ele>
        <time>2025-01-10T10:02:03.000Z</time>
      </trkpt>
      <trkpt lat="43.62141" lon="6.82738">
        <ele>87.5</ele>
        <time>2025-01-10T10:02:02.000Z</time>
      </trkpt>
      <trkpt lat="43.6214" lon="6.82739">
        <ele>87.5</ele>
        <time>2025-01-10T10:02:01.000Z</time>
      </trkpt>
      <trkpt lat="43.62139" lon="6.82739">
        <ele>87.4</ele>
        <time>2025-01-10T10:02:00.000Z</time>
      </trkpt>
      <trkpt lat="43.62138" lon="6.8274">
        <ele>87.4</ele>
        <time>2025-01-10T10:01:59.000Z</time>
      </trkpt>
      <trkpt lat="43.62137" lon="6.8274">
        <ele>87.4</ele>
        <time>2025-01-10T10:01:58.000Z</time>
      </trkpt>
      <trkpt lat="43.62137" lon="6.82741">
        <ele>87.4</ele>
        <time>2025-01-10T10:01:57.000Z</time>
      </trkpt>
      <trkpt lat="43.62136" lon="6.82742">
        <ele>87.4</ele>
        <time>2025-01-10T10:01:56.000Z</time>
      </trkpt>
      <trkpt lat="43.62136" lon="6.82742">
        <ele>87.4</ele>
        <time>2025-01-10T10:01:55.000Z</time>
      </trkpt>
      <trkpt lat="43.62136" lon="6.82743">
        <ele>87.4</ele>
        <time>2025-01-10T10:01:54.000Z</time>
      </trkpt>
      <trkpt lat="43.62136" lon="6.82743">
        <ele>87.4</ele>
        <time>2025-01-10T10:01:53.000Z</time>
      </trkpt>
      <trkpt lat="43.62136" lon="6.82744">
        <ele>87.3</ele>
        <time>2025-01-10T10:01:52.000Z</time>
      </trkpt>
      <trkpt lat="43.62137" lon="6.82744">
        <ele>87.3</ele>
        <time>2025-01-10T10:01:51.000Z</time>
      </trkpt>
      <trkpt lat="43.62137" lon="6.82745">
        <ele>87.3</ele>
        <time>2025-01-10T10:01:50.000Z</time>
      </trkpt>
      <trkpt lat="43.62137" lon="6.82746">
        <ele>87.3</ele>
        <time>2025-01-10T10:01:49.000Z</time>
      </trkpt>
      <trkpt lat="43.62137" lon="6.82747">
        <ele>87.3</ele>
        <time>2025-01-10T10:01:48.000Z</time>
      </trkpt>
      <trkpt lat="43.62137" lon="6.82748">
        <ele>87.3</ele>
        <time>2025-01-10T10:01:47.000Z</time>
      </trkpt>
      <trkpt lat="43.62137" lon="6.82749">
        <ele>87.3</ele>
        <time>2025-01-10T10:01:46.000Z</time>
      </trkpt>
      <trkpt lat="43.62137" lon="6.8275">
        <ele>87.3</ele>
        <time>2025-01-10T10:01:45.000Z</time>
      </trkpt>
      <trkpt lat="43.62137" lon="6.8275">
        <ele>87.3</ele>
        <time>2025-01-10T10:01:44.000Z</time>
      </trkpt>
      <trkpt lat="43.62137" lon="6.82751">
        <ele>87.3</ele>
        <time>2025-01-10T10:01:43.000Z</time>
      </trkpt>
      <trkpt lat="43.62137" lon="6.82752">
        <ele>87.3</ele>
        <time>2025-01-10T10:01:42.000Z</time>
      </trkpt>
      <trkpt lat="43.62138" lon="6.82752">
        <ele>87.3</ele>
        <time>2025-01-10T10:01:41.000Z</time>
      </trkpt>
      <trkpt lat="43.62138" lon="6.82752">
        <ele>87.2</ele>
        <time>2025-01-10T10:01:40.000Z</time>
      </trkpt>
      <trkpt lat="43.62139" lon="6.82754">
        <ele>87.2</ele>
        <time>2025-01-10T10:01:39.000Z</time>
      </trkpt>
      <trkpt lat="43.62139" lon="6.82754">
        <ele>87.2</ele>
        <time>2025-01-10T10:01:38.000Z</time>
      </trkpt>
      <trkpt lat="43.62138" lon="6.82755">
        <ele>87.2</ele>
        <time>2025-01-10T10:01:37.000Z</time>
      </trkpt>
      <trkpt lat="43.62138" lon="6.82755">
        <ele>87.2</ele>
        <time>2025-01-10T10:01:36.000Z</time>
      </trkpt>
      <trkpt lat="43.62138" lon="6.82755">
        <ele>87.2</ele>
        <time>2025-01-10T10:01:35.000Z</time>
      </trkpt>
      <trkpt lat="43.62139" lon="6.82755">
        <ele>87.2</ele>
        <time>2025-01-10T10:01:34.000Z</time>
      </trkpt>
      <trkpt lat="43.62139" lon="6.82757">
        <ele>87.2</ele>
        <time>2025-01-10T10:01:33.000Z</time>
      </trkpt>
      <trkpt lat="43.62139" lon="6.82759">
        <ele>87.2</ele>
        <time>2025-01-10T10:01:32.000Z</time>
      </trkpt>
      <trkpt lat="43.62138" lon="6.82763">
        <ele>87.2</ele>
        <time>2025-01-10T10:01:31.000Z</time>
      </trkpt>
      <trkpt lat="43.62138" lon="6.82767">
        <ele>87.2</ele>
        <time>2025-01-10T10:01:30.000Z</time>
      </trkpt>
      <trkpt lat="43.62137" lon="6.82771">
        <ele>87.2</ele>
        <time>2025-01-10T10:01:29.000Z</time>
      </trkpt>
      <trkpt lat="43.62136" lon="6.82777">
        <ele>87.2</ele>
        <time>2025-01-10T10:01:28.000Z</time>
      </trkpt>
      <trkpt lat="43.62135" lon="6.82782">
        <ele>87.2</ele>
        <time>2025-01-10T10:01:27.000Z</time>
      </trkpt>
      <trkpt lat="43.62134" lon="6.82788">
        <ele>87.2</ele>
        <time>2025-01-10T10:01:26.000Z</time>
      </trkpt>
      <trkpt lat="43.62133" lon="6.82794">
        <ele>87.3</ele>
        <time>2025-01-10T10:01:25.000Z</time>
      </trkpt>
      <trkpt lat="43.62132" lon="6.82801">
        <ele>87.3</ele>
        <time>2025-01-10T10:01:24.000Z</time>
      </trkpt>
      <trkpt lat="43.62131" lon="6.82807">
        <ele>87.5</ele>
        <time>2025-01-10T10:01:23.000Z</time>
      </trkpt>
      <trkpt lat="43.6213" lon="6.82813">
        <ele>87.6</ele>
        <time>2025-01-10T10:01:22.000Z</time>
      </trkpt>
      <trkpt lat="43.62129" lon="6.82819">
        <ele>87.7</ele>
        <time>2025-01-10T10:01:21.000Z</time>
      </trkpt>
      <trkpt lat="43.62128" lon="6.82824">
        <ele>87.9</ele>
        <time>2025-01-10T10:01:20.000Z</time>
      </trkpt>
      <trkpt lat="43.62127" lon="6.82829">
        <ele>88</ele>
        <time>2025-01-10T10:01:19.000Z</time>
      </trkpt>
      <trkpt lat="43.62126" lon="6.82835">
        <ele>88.2</ele>
        <time>2025-01-10T10:01:18.000Z</time>
      </trkpt>
      <trkpt lat="43.62126" lon="6.8284">
        <ele>88.4</ele>
        <time>2025-01-10T10:01:17.000Z</time>
      </trkpt>
      <trkpt lat="43.62125" lon="6.82845">
        <ele>88.6</ele>
        <time>2025-01-10T10:01:16.000Z</time>
      </trkpt>
      <trkpt lat="43.62125" lon="6.82851">
        <ele>88.8</ele>
        <time>2025-01-10T10:01:15.000Z</time>
      </trkpt>
      <trkpt lat="43.62125" lon="6.82858">
        <ele>89.1</ele>
        <time>2025-01-10T10:01:14.000Z</time>
      </trkpt>
      <trkpt lat="43.62125" lon="6.82863">
        <ele>89.3</ele>
        <time>2025-01-10T10:01:13.000Z</time>
      </trkpt>
      <trkpt lat="43.62126" lon="6.82869">
        <ele>89.5</ele>
        <time>2025-01-10T10:01:12.000Z</time>
      </trkpt>
      <trkpt lat="43.62127" lon="6.82875">
        <ele>89.7</ele>
        <time>2025-01-10T10:01:11.000Z</time>
      </trkpt>
      <trkpt lat="43.62128" lon="6.8288">
        <ele>89.9</ele>
        <time>2025-01-10T10:01:10.000Z</time>
      </trkpt>
      <trkpt lat="43.62129" lon="6.82886">
        <ele>90.1</ele>
        <time>2025-01-10T10:01:09.000Z</time>
      </trkpt>
      <trkpt lat="43.62131" lon="6.8289">
        <ele>90.3</ele>
        <time>2025-01-10T10:01:08.000Z</time>
      </trkpt>
      <trkpt lat="43.62133" lon="6.82895">
        <ele>90.4</ele>
        <time>2025-01-10T10:01:07.000Z</time>
      </trkpt>
      <trkpt lat="43.62136" lon="6.829">
        <ele>90.5</ele>
        <time>2025-01-10T10:01:06.000Z</time>
      </trkpt>
      <trkpt lat="43.62138" lon="6.82904">
        <ele>90.6</ele>
        <time>2025-01-10T10:01:05.000Z</time>
      </trkpt>
      <trkpt lat="43.6214" lon="6.82908">
        <ele>90.7</ele>
        <time>2025-01-10T10:01:04.000Z</time>
      </trkpt>
      <trkpt lat="43.62143" lon="6.82912">
        <ele>90.7</ele>
        <time>2025-01-10T10:01:03.000Z</time>
      </trkpt>
      <trkpt lat="43.62145" lon="6.82916">
        <ele>90.8</ele>
        <time>2025-01-10T10:01:02.000Z</time>
      </trkpt>
      <trkpt lat="43.62147" lon="6.82919">
        <ele>90.8</ele>
        <time>2025-01-10T10:01:01.000Z</time>
      </trkpt>
      <trkpt lat="43.6215" lon="6.82923">
        <ele>90.8</ele>
        <time>2025-01-10T10:01:00.000Z</time>
      </trkpt>
      <trkpt lat="43.62152" lon="6.82927">
        <ele>90.9</ele>
        <time>2025-01-10T10:00:59.000Z</time>
      </trkpt>
      <trkpt lat="43.62155" lon="6.82931">
        <ele>90.9</ele>
        <time>2025-01-10T10:00:58.000Z</time>
      </trkpt>
      <trkpt lat="43.62157" lon="6.82935">
        <ele>90.9</ele>
        <time>2025-01-10T10:00:57.000Z</time>
      </trkpt>
      <trkpt lat="43.62159" lon="6.82939">
        <ele>91</ele>
        <time>2025-01-10T10:00:56.000Z</time>
      </trkpt>
      <trkpt lat="43.62161" lon="6.82943">
        <ele>91</ele>
        <time>2025-01-10T10:00:55.000Z</time>
      </trkpt>
      <trkpt lat="43.62163" lon="6.82946">
        <ele>91.1</ele>
        <time>2025-01-10T10:00:54.000Z</time>
      </trkpt>
      <trkpt lat="43.62165" lon="6.8295">
        <ele>91.1</ele>
        <time>2025-01-10T10:00:53.000Z</time>
      </trkpt>
      <trkpt lat="43.62167" lon="6.82953">
        <ele>91.2</ele>
        <time>2025-01-10T10:00:52.000Z</time>
      </trkpt>
      <trkpt lat="43.62169" lon="6.82958">
        <ele>91.2</ele>
        <time>2025-01-10T10:00:51.000Z</time>
      </trkpt>
      <trkpt lat="43.62172" lon="6.82962">
        <ele>91.3</ele>
        <time>2025-01-10T10:00:50.000Z</time>
      </trkpt>
      <trkpt lat="43.62173" lon="6.82965">
        <ele>91.3</ele>
        <time>2025-01-10T10:00:49.000Z</time>
      </trkpt>
      <trkpt lat="43.62175" lon="6.82968">
        <ele>91.3</ele>
        <time>2025-01-10T10:00:48.000Z</time>
      </trkpt>
      <trkpt lat="43.62177" lon="6.8297">
        <ele>91.3</ele>
        <time>2025-01-10T10:00:47.000Z</time>
      </trkpt>
      <trkpt lat="43.6218" lon="6.82971">
        <ele>91.3</ele>
        <time>2025-01-10T10:00:46.000Z</time>
      </trkpt>
      <trkpt lat="43.62182" lon="6.82971">
        <ele>90.7</ele>
        <time>2025-01-10T10:00:45.000Z</time>
      </trkpt>
      <trkpt lat="43.62184" lon="6.8297">
        <ele>90.3</ele>
        <time>2025-01-10T10:00:44.000Z</time>
      </trkpt>
      <trkpt lat="43.62185" lon="6.82969">
        <ele>89.9</ele>
        <time>2025-01-10T10:00:43.000Z</time>
      </trkpt>
      <trkpt lat="43.62186" lon="6.82968">
        <ele>89.6</ele>
        <time>2025-01-10T10:00:42.000Z</time>
      </trkpt>
      <trkpt lat="43.62186" lon="6.82968">
        <ele>89.5</ele>
        <time>2025-01-10T10:00:41.000Z</time>
      </trkpt>
      <trkpt lat="43.62187" lon="6.82968">
        <ele>89.4</ele>
        <time>2025-01-10T10:00:40.000Z</time>
      </trkpt>
      <trkpt lat="43.62186" lon="6.82968">
        <ele>89.4</ele>
        <time>2025-01-10T10:00:39.000Z</time>
      </trkpt>
      <trkpt lat="43.62187" lon="6.82968">
        <ele>89.3</ele>
        <time>2025-01-10T10:00:38.000Z</time>
      </trkpt>
      <trkpt lat="43.62186" lon="6.82967">
        <ele>89.3</ele>
        <time>2025-01-10T10:00:37.000Z</time>
      </trkpt>
      <trkpt lat="43.62186" lon="6.82967">
        <ele>89.2</ele>
        <time>2025-01-10T10:00:36.000Z</time>
      </trkpt>
      <trkpt lat="43.62186" lon="6.82967">
        <ele>89.2</ele>
        <time>2025-01-10T10:00:35.000Z</time>
      </trkpt>
      <trkpt lat="43.62186" lon="6.82967">
        <ele>89.1</ele>
        <time>2025-01-10T10:00:34.000Z</time>
      </trkpt>
      <trkpt lat="43.62187" lon="6.82967">
        <ele>89</ele>
        <time>2025-01-10T10:00:33.000Z</time>
      </trkpt>
      <trkpt lat="43.62188" lon="6.82966">
        <ele>88.7</ele>
        <time>2025-01-10T10:00:32.000Z</time>
      </trkpt>
      <trkpt lat="43.62188" lon="6.82966">
        <ele>88.6</ele>
        <time>2025-01-10T10:00:31.000Z</time>
      </trkpt>
      <trkpt lat="43.62188" lon="6.82966">
        <ele>88.5</ele>
        <time>2025-01-10T10:00:30.000Z</time>
      </trkpt>
      <trkpt lat="43.62189" lon="6.82966">
        <ele>88.4</ele>
        <time>2025-01-10T10:00:29.000Z</time>
      </trkpt>
      <trkpt lat="43.62189" lon="6.82966">
        <ele>88.3</ele>
        <time>2025-01-10T10:00:28.000Z</time>
      </trkpt>
      <trkpt lat="43.62189" lon="6.82966">
        <ele>88.2</ele>
        <time>2025-01-10T10:00:27.000Z</time>
      </trkpt>
      <trkpt lat="43.62189" lon="6.82966">
        <ele>88.2</ele>
        <time>2025-01-10T10:00:26.000Z</time>
      </trkpt>
      <trkpt lat="43.6219" lon="6.82966">
        <ele>88.1</ele>
        <time>2025-01-10T10:00:25.000Z</time>
      </trkpt>
      <trkpt lat="43.6219" lon="6.82966">
        <ele>88</ele>
        <time>2025-01-10T10:00:24.000Z</time>
      </trkpt>
      <trkpt lat="43.6219" lon="6.82967">
        <ele>87.9</ele>
        <time>2025-01-10T10:00:23.000Z</time>
      </trkpt>
      <trkpt lat="43.62191" lon="6.82967">
        <ele>87.8</ele>
        <time>2025-01-10T10:00:22.000Z</time>
      </trkpt>
      <trkpt lat="43.62191" lon="6.82967">
        <ele>87.7</ele>
        <time>2025-01-10T10:00:21.000Z</time>
      </trkpt>
      <trkpt lat="43.6219" lon="6.82968">
        <ele>87.7</ele>
        <time>2025-01-10T10:00:20.000Z</time>
      </trkpt>
      <trkpt lat="43.6219" lon="6.82968">
        <ele>87.5</ele>
        <time>2025-01-10T10:00:19.000Z</time>
      </trkpt>
      <trkpt lat="43.6219" lon="6.82969">
        <ele>87.5</ele>
        <time>2025-01-10T10:00:18.000Z</time>
      </trkpt>
      <trkpt lat="43.6219" lon="6.82969">
        <ele>87.5</ele>
        <time>2025-01-10T10:00:17.000Z</time>
      </trkpt>
      <trkpt lat="43.6219" lon="6.82969">
        <ele>87.5</ele>
        <time>2025-01-10T10:00:16.000Z</time>
      </trkpt>
      <trkpt lat="43.6219" lon="6.82969">
        <ele>87.4</ele>
        <time>2025-01-10T10:00:15.000Z</time>
      </trkpt>
      <trkpt lat="43.6219" lon="6.82969">
        <ele>87.4</ele>
        <time>2025-01-10T10:00:14.000Z</time>
      </trkpt>
      <trkpt lat="43.6219" lon="6.82969">
        <ele>87.3</ele>
        <time>2025-01-10T10:00:13.000Z</time>
      </trkpt>
      <trkpt lat="43.6219" lon="6.8297">
        <ele>87.2</ele>
        <time>2025-01-10T10:00:12.000Z</time>
      </trkpt>
      <trkpt lat="43.6219" lon="6.8297">
        <ele>87.2</ele>
        <time>2025-01-10T10:00:11.000Z</time>
      </trkpt>
      <trkpt lat="43.6219" lon="6.8297">
        <ele>87.2</ele>
        <time>2025-01-10T10:00:10.000Z</time>
      </trkpt>
      <trkpt lat="43.6219" lon="6.8297">
        <ele>87.2</ele>
        <time>2025-01-10T10:00:09.000Z</time>
      </trkpt>
      <trkpt lat="43.6219" lon="6.8297">
        <ele>87.1</ele>
        <time>2025-01-10T10:00:08.000Z</time>
      </trkpt>
      <trkpt lat="43.6219" lon="6.8297">
        <ele>87.1</ele>
        <time>2025-01-10T10:00:07.000Z</time>
      </trkpt>
      <trkpt lat="43.6219" lon="6.8297">
        <ele>87.1</ele>
        <time>2025-01-10T10:00:06.000Z</time>
      </trkpt>
      <trkpt lat="43.6219" lon="6.8297">
        <ele>87.1</ele>
        <time>2025-01-10T10:00:05.000Z</time>
      </trkpt>
      <trkpt lat="43.6219" lon="6.8297">
        <ele>87.1</ele>
        <time>2025-01-10T10:00:04.000Z</time>
      </trkpt>
      <trkpt lat="43.6219" lon="6.8297">
        <ele>87.1</ele>
        <time>2025-01-10T10:00:03.000Z</time>
      </trkpt>
      <trkpt lat="43.6219" lon="6.8297">
        <ele>87.1</ele>
        <time>2025-01-10T10:00:02.000Z</time>
      </trkpt>
      <trkpt lat="43.6219" lon="6.8297">
        <ele>87.1</ele>
        <time>2025-01-10T10:00:01.000Z</time>
      </trkpt>
      <trkpt lat="43.6219" lon="6.8297">
        <ele>87.1</ele>
        <time>2025-01-10T10:00:00.000Z</time>
      </trkpt>
      <trkpt lat="43.6219" lon="6.8297">
        <ele>87.1</ele>
        <time>2025-01-10T09:59:59.000Z</time>
      </trkpt>
      <trkpt lat="43.6219" lon="6.8297">
        <ele>87.1</ele>
        <time>2025-01-10T09:59:58.000Z</time>
      </trkpt>
      <trkpt lat="43.6219" lon="6.8297">
        <ele>87.1</ele>
        <time>2025-01-10T09:59:57.000Z</time>
      </trkpt>
      <trkpt lat="43.6219" lon="6.8297">
        <ele>87.1</ele>
        <time>2025-01-10T09:59:56.000Z</time>
      </trkpt>
      <trkpt lat="43.6219" lon="6.8297">
        <ele>87.1</ele>
        <time>2025-01-10T09:59:55.000Z</time>
      </trkpt>
      <trkpt lat="43.6219" lon="6.8297">
        <ele>87.1</ele>
        <time>2025-01-10T09:59:54.000Z</time>
      </trkpt>
      <trkpt lat="43.6219" lon="6.8297">
        <ele>87</ele>
        <time>2025-01-10T09:59:53.000Z</time>
      </trkpt>
      <trkpt lat="43.6219" lon="6.8297">
        <ele>87</ele>
        <time>2025-01-10T09:59:52.000Z</time>
      </trkpt>
      <trkpt lat="43.6219" lon="6.8297">
        <ele>87</ele>
        <time>2025-01-10T09:59:51.000Z</time>
      </trkpt>
      <trkpt lat="43.62191" lon="6.8297">
        <ele>86.9</ele>
        <time>2025-01-10T09:59:50.000Z</time>
      </trkpt>
      <trkpt lat="43.62191" lon="6.82969">
        <ele>86.8</ele>
        <time>2025-01-10T09:59:49.000Z</time>
      </trkpt>
      <trkpt lat="43.62191" lon="6.82968">
        <ele>86.6</ele>
        <time>2025-01-10T09:59:48.000Z</time>
      </trkpt>
      <trkpt lat="43.62191" lon="6.82967">
        <ele>86.4</ele>
        <time>2025-01-10T09:59:47.000Z</time>
      </trkpt>
      <trkpt lat="43.62191" lon="6.82968">
        <ele>86.5</ele>
        <time>2025-01-10T09:59:46.000Z</time>
      </trkpt>
      <trkpt lat="43.6219" lon="6.82968">
        <ele>86.7</ele>
        <time>2025-01-10T09:59:45.000Z</time>
      </trkpt>
      <trkpt lat="43.62189" lon="6.82968">
        <ele>86.8</ele>
        <time>2025-01-10T09:59:44.000Z</time>
      </trkpt>
      <trkpt lat="43.62189" lon="6.82969">
        <ele>86.9</ele>
        <time>2025-01-10T09:59:43.000Z</time>
      </trkpt>
      <trkpt lat="43.62189" lon="6.82969">
        <ele>86.9</ele>
        <time>2025-01-10T09:59:42.000Z</time>
      </trkpt>
      <trkpt lat="43.62189" lon="6.82969">
        <ele>86.9</ele>
        <time>2025-01-10T09:59:41.000Z</time>
      </trkpt>
      <trkpt lat="43.6219" lon="6.82969">
        <ele>87.1</ele>
        <time>2025-01-10T09:59:40.000Z</time>
      </trkpt>
      <trkpt lat="43.62191" lon="6.8297">
        <ele>87.2</ele>
        <time>2025-01-10T09:59:39.000Z</time>
      </trkpt>
      <trkpt lat="43.62191" lon="6.8297">
        <ele>87.3</ele>
        <time>2025-01-10T09:59:38.000Z</time>
      </trkpt>
      <trkpt lat="43.62191" lon="6.8297">
        <ele>87.3</ele>
        <time>2025-01-10T09:59:37.000Z</time>
      </trkpt>
      <trkpt lat="43.62191" lon="6.82969">
        <ele>87.3</ele>
        <time>2025-01-10T09:59:36.000Z</time>
      </trkpt>
      <trkpt lat="43.6219" lon="6.82969">
        <ele>87.4</ele>
        <time>2025-01-10T09:59:35.000Z</time>
      </trkpt>
      <trkpt lat="43.6219" lon="6.82968">
        <ele>87.6</ele>
        <time>2025-01-10T09:59:34.000Z</time>
      </trkpt>
      <trkpt lat="43.62189" lon="6.82968">
        <ele>87.7</ele>
        <time>2025-01-10T09:59:33.000Z</time>
      </trkpt>
      <trkpt lat="43.62188" lon="6.82969">
        <ele>87.9</ele>
        <time>2025-01-10T09:59:32.000Z</time>
      </trkpt>
      <trkpt lat="43.62187" lon="6.8297">
        <ele>88.2</ele>
        <time>2025-01-10T09:59:31.000Z</time>
      </trkpt>
      <trkpt lat="43.62186" lon="6.82971">
        <ele>88.5</ele>
        <time>2025-01-10T09:59:30.000Z</time>
      </trkpt>
      <trkpt lat="43.62185" lon="6.82972">
        <ele>88.8</ele>
        <time>2025-01-10T09:59:29.000Z</time>
      </trkpt>
      <trkpt lat="43.62183" lon="6.82973">
        <ele>89</ele>
        <time>2025-01-10T09:59:28.000Z</time>
      </trkpt>
      <trkpt lat="43.62182" lon="6.82974">
        <ele>89.3</ele>
        <time>2025-01-10T09:59:27.000Z</time>
      </trkpt>
      <trkpt lat="43.62181" lon="6.82975">
        <ele>89.6</ele>
        <time>2025-01-10T09:59:26.000Z</time>
      </trkpt>
      <trkpt lat="43.6218" lon="6.82976">
        <ele>89.9</ele>
        <time>2025-01-10T09:59:25.000Z</time>
      </trkpt>
      <trkpt lat="43.62178" lon="6.82976">
        <ele>90.1</ele>
        <time>2025-01-10T09:59:24.000Z</time>
      </trkpt>
      <trkpt lat="43.62177" lon="6.82975">
        <ele>90.4</ele>
        <time>2025-01-10T09:59:23.000Z</time>
      </trkpt>
      <trkpt lat="43.62176" lon="6.82975">
        <ele>90.6</ele>
        <time>2025-01-10T09:59:22.000Z</time>
      </trkpt>
      <trkpt lat="43.62175" lon="6.82974">
        <ele>90.8</ele>
        <time>2025-01-10T09:59:21.000Z</time>
      </trkpt>
      <trkpt lat="43.62175" lon="6.82973">
        <ele>90.9</ele>
        <time>2025-01-10T09:59:20.000Z</time>
      </trkpt>
      <trkpt lat="43.62175" lon="6.82973">
        <ele>91</ele>
        <time>2025-01-10T09:59:19.000Z</time>
      </trkpt>
      <trkpt lat="43.62175" lon="6.82972">
        <ele>91.1</ele>
        <time>2025-01-10T09:59:18.000Z</time>
      </trkpt>
      <trkpt lat="43.62174" lon="6.82971">
        <ele>91.3</ele>
        <time>2025-01-10T09:59:17.000Z</time>
      </trkpt>
      <trkpt lat="43.62175" lon="6.82971">
        <ele>91.3</ele>
        <time>2025-01-10T09:59:16.000Z</time>
      </trkpt>
      <trkpt lat="43.62175" lon="6.82971">
        <ele>91.3</ele>
        <time>2025-01-10T09:59:15.000Z</time>
      </trkpt>
      <trkpt lat="43.62175" lon="6.82971">
        <ele>91.2</ele>
        <time>2025-01-10T09:59:14.000Z</time>
      </trkpt>
      <trkpt lat="43.62176" lon="6.82973">
        <ele>91.2</ele>
        <time>2025-01-10T09:59:13.000Z</time>
      </trkpt>
      <trkpt lat="43.62177" lon="6.82976">
        <ele>91.2</ele>
        <time>2025-01-10T09:59:12.000Z</time>
      </trkpt>
      <trkpt lat="43.62179" lon="6.8298">
        <ele>91.2</ele>
        <time>2025-01-10T09:59:11.000Z</time>
      </trkpt>
      <trkpt lat="43.6218" lon="6.82986">
        <ele>91.1</ele>
        <time>2025-01-10T09:59:10.000Z</time>
      </trkpt>
      <trkpt lat="43.62181" lon="6.82991">
        <ele>91.1</ele>
        <time>2025-01-10T09:59:09.000Z</time>
      </trkpt>
      <trkpt lat="43.62182" lon="6.82996">
        <ele>90.9</ele>
        <time>2025-01-10T09:59:08.000Z</time>
      </trkpt>
      <trkpt lat="43.62183" lon="6.83002">
        <ele>90.7</ele>
        <time>2025-01-10T09:59:07.000Z</time>
      </trkpt>
      <trkpt lat="43.62184" lon="6.83007">
        <ele>90.4</ele>
        <time>2025-01-10T09:59:06.000Z</time>
      </trkpt>
      <trkpt lat="43.62184" lon="6.83012">
        <ele>90.1</ele>
        <time>2025-01-10T09:59:05.000Z</time>
      </trkpt>
      <trkpt lat="43.62184" lon="6.83016">
        <ele>89.8</ele>
        <time>2025-01-10T09:59:04.000Z</time>
      </trkpt>
      <trkpt lat="43.62185" lon="6.83021">
        <ele>89.5</ele>
        <time>2025-01-10T09:59:03.000Z</time>
      </trkpt>
      <trkpt lat="43.62186" lon="6.83027">
        <ele>89.2</ele>
        <time>2025-01-10T09:59:02.000Z</time>
      </trkpt>
      <trkpt lat="43.62187" lon="6.83032">
        <ele>89</ele>
        <time>2025-01-10T09:59:01.000Z</time>
      </trkpt>
      <trkpt lat="43.62188" lon="6.83036">
        <ele>88.7</ele>
        <time>2025-01-10T09:59:00.000Z</time>
      </trkpt>
      <trkpt lat="43.62189" lon="6.83041">
        <ele>88.6</ele>
        <time>2025-01-10T09:58:59.000Z</time>
      </trkpt>
      <trkpt lat="43.6219" lon="6.83046">
        <ele>88.4</ele>
        <time>2025-01-10T09:58:58.000Z</time>
      </trkpt>
      <trkpt lat="43.6219" lon="6.83052">
        <ele>88.3</ele>
        <time>2025-01-10T09:58:57.000Z</time>
      </trkpt>
      <trkpt lat="43.6219" lon="6.83057">
        <ele>88.2</ele>
        <time>2025-01-10T09:58:56.000Z</time>
      </trkpt>
      <trkpt lat="43.6219" lon="6.83062">
        <ele>88.2</ele>
        <time>2025-01-10T09:58:55.000Z</time>
      </trkpt>
      <trkpt lat="43.6219" lon="6.83067">
        <ele>88.2</ele>
        <time>2025-01-10T09:58:54.000Z</time>
      </trkpt>
      <trkpt lat="43.62189" lon="6.83072">
        <ele>88.2</ele>
        <time>2025-01-10T09:58:53.000Z</time>
      </trkpt>
      <trkpt lat="43.62188" lon="6.83077">
        <ele>88.2</ele>
        <time>2025-01-10T09:58:52.000Z</time>
      </trkpt>
      <trkpt lat="43.62187" lon="6.83082">
        <ele>88.3</ele>
        <time>2025-01-10T09:58:51.000Z</time>
      </trkpt>
      <trkpt lat="43.62185" lon="6.83086">
        <ele>88.3</ele>
        <time>2025-01-10T09:58:50.000Z</time>
      </trkpt>
      <trkpt lat="43.62184" lon="6.83091">
        <ele>88.4</ele>
        <time>2025-01-10T09:58:49.000Z</time>
      </trkpt>
      <trkpt lat="43.62183" lon="6.83096">
        <ele>88.4</ele>
        <time>2025-01-10T09:58:48.000Z</time>
      </trkpt>
      <trkpt lat="43.62181" lon="6.83101">
        <ele>88.5</ele>
        <time>2025-01-10T09:58:47.000Z</time>
      </trkpt>
      <trkpt lat="43.62179" lon="6.83105">
        <ele>88.5</ele>
        <time>2025-01-10T09:58:46.000Z</time>
      </trkpt>
      <trkpt lat="43.62177" lon="6.83109">
        <ele>88.6</ele>
        <time>2025-01-10T09:58:45.000Z</time>
      </trkpt>
      <trkpt lat="43.62174" lon="6.83112">
        <ele>88.6</ele>
        <time>2025-01-10T09:58:44.000Z</time>
      </trkpt>
      <trkpt lat="43.62172" lon="6.83115">
        <ele>88.6</ele>
        <time>2025-01-10T09:58:43.000Z</time>
      </trkpt>
      <trkpt lat="43.62169" lon="6.83119">
        <ele>88.6</ele>
        <time>2025-01-10T09:58:42.000Z</time>
      </trkpt>
      <trkpt lat="43.62167" lon="6.83122">
        <ele>88.6</ele>
        <time>2025-01-10T09:58:41.000Z</time>
      </trkpt>
      <trkpt lat="43.62165" lon="6.83126">
        <ele>88.6</ele>
        <time>2025-01-10T09:58:40.000Z</time>
      </trkpt>
      <trkpt lat="43.62163" lon="6.83131">
        <ele>88.6</ele>
        <time>2025-01-10T09:58:39.000Z</time>
      </trkpt>
      <trkpt lat="43.62162" lon="6.83135">
        <ele>88.6</ele>
        <time>2025-01-10T09:58:38.000Z</time>
      </trkpt>
      <trkpt lat="43.6216" lon="6.8314">
        <ele>88.6</ele>
        <time>2025-01-10T09:58:37.000Z</time>
      </trkpt>
      <trkpt lat="43.62158" lon="6.83145">
        <ele>88.5</ele>
        <time>2025-01-10T09:58:36.000Z</time>
      </trkpt>
      <trkpt lat="43.62157" lon="6.83149">
        <ele>88.5</ele>
        <time>2025-01-10T09:58:35.000Z</time>
      </trkpt>
      <trkpt lat="43.62156" lon="6.83154">
        <ele>88.5</ele>
        <time>2025-01-10T09:58:34.000Z</time>
      </trkpt>
      <trkpt lat="43.62155" lon="6.8316">
        <ele>88.5</ele>
        <time>2025-01-10T09:58:33.000Z</time>
      </trkpt>
      <trkpt lat="43.62154" lon="6.83165">
        <ele>88.5</ele>
        <time>2025-01-10T09:58:32.000Z</time>
      </trkpt>
      <trkpt lat="43.62153" lon="6.83169">
        <ele>88.5</ele>
        <time>2025-01-10T09:58:31.000Z</time>
      </trkpt>
      <trkpt lat="43.62151" lon="6.83173">
        <ele>88.5</ele>
        <time>2025-01-10T09:58:30.000Z</time>
      </trkpt>
      <trkpt lat="43.62149" lon="6.83177">
        <ele>88.5</ele>
        <time>2025-01-10T09:58:29.000Z</time>
      </trkpt>
      <trkpt lat="43.62147" lon="6.83181">
        <ele>88.4</ele>
        <time>2025-01-10T09:58:28.000Z</time>
      </trkpt>
      <trkpt lat="43.62144" lon="6.83185">
        <ele>88.4</ele>
        <time>2025-01-10T09:58:27.000Z</time>
      </trkpt>
      <trkpt lat="43.62141" lon="6.83189">
        <ele>88.4</ele>
        <time>2025-01-10T09:58:26.000Z</time>
      </trkpt>
      <trkpt lat="43.62138" lon="6.83193">
        <ele>88.4</ele>
        <time>2025-01-10T09:58:25.000Z</time>
      </trkpt>
      <trkpt lat="43.62135" lon="6.83197">
        <ele>88.4</ele>
        <time>2025-01-10T09:58:24.000Z</time>
      </trkpt>
      <trkpt lat="43.62132" lon="6.83201">
        <ele>88.4</ele>
        <time>2025-01-10T09:58:23.000Z</time>
      </trkpt>
      <trkpt lat="43.62129" lon="6.83205">
        <ele>88.3</ele>
        <time>2025-01-10T09:58:22.000Z</time>
      </trkpt>
      <trkpt lat="43.62126" lon="6.83209">
        <ele>88.3</ele>
        <time>2025-01-10T09:58:21.000Z</time>
      </trkpt>
      <trkpt lat="43.62123" lon="6.83214">
        <ele>88.2</ele>
        <time>2025-01-10T09:58:20.000Z</time>
      </trkpt>
      <trkpt lat="43.62121" lon="6.83218">
        <ele>88.1</ele>
        <time>2025-01-10T09:58:19.000Z</time>
      </trkpt>
      <trkpt lat="43.62119" lon="6.83223">
        <ele>88.1</ele>
        <time>2025-01-10T09:58:18.000Z</time>
      </trkpt>
      <trkpt lat="43.62117" lon="6.83227">
        <ele>87.9</ele>
        <time>2025-01-10T09:58:17.000Z</time>
      </trkpt>
      <trkpt lat="43.62115" lon="6.83232">
        <ele>87.8</ele>
        <time>2025-01-10T09:58:16.000Z</time>
      </trkpt>
      <trkpt lat="43.62115" lon="6.83237">
        <ele>87.7</ele>
        <time>2025-01-10T09:58:15.000Z</time>
      </trkpt>
      <trkpt lat="43.62114" lon="6.83243">
        <ele>87.6</ele>
        <time>2025-01-10T09:58:14.000Z</time>
      </trkpt>
      <trkpt lat="43.62112" lon="6.83249">
        <ele>87.5</ele>
        <time>2025-01-10T09:58:13.000Z</time>
      </trkpt>
      <trkpt lat="43.6211" lon="6.83255">
        <ele>87.4</ele>
        <time>2025-01-10T09:58:12.000Z</time>
      </trkpt>
      <trkpt lat="43.62108" lon="6.8326">
        <ele>87.3</ele>
        <time>2025-01-10T09:58:11.000Z</time>
      </trkpt>
      <trkpt lat="43.62105" lon="6.83266">
        <ele>87.2</ele>
        <time>2025-01-10T09:58:10.000Z</time>
      </trkpt>
      <trkpt lat="43.62102" lon="6.83271">
        <ele>87.2</ele>
        <time>2025-01-10T09:58:09.000Z</time>
      </trkpt>
      <trkpt lat="43.62099" lon="6.83276">
        <ele>87.2</ele>
        <time>2025-01-10T09:58:08.000Z</time>
      </trkpt>
      <trkpt lat="43.62095" lon="6.83281">
        <ele>87.2</ele>
        <time>2025-01-10T09:58:07.000Z</time>
      </trkpt>
      <trkpt lat="43.62092" lon="6.83285">
        <ele>87.2</ele>
        <time>2025-01-10T09:58:06.000Z</time>
      </trkpt>
      <trkpt lat="43.62089" lon="6.83289">
        <ele>87.2</ele>
        <time>2025-01-10T09:58:05.000Z</time>
      </trkpt>
      <trkpt lat="43.62085" lon="6.83294">
        <ele>87.2</ele>
        <time>2025-01-10T09:58:04.000Z</time>
      </trkpt>
      <trkpt lat="43.62081" lon="6.83299">
        <ele>87.3</ele>
        <time>2025-01-10T09:58:03.000Z</time>
      </trkpt>
      <trkpt lat="43.62079" lon="6.83302">
        <ele>87.3</ele>
        <time>2025-01-10T09:58:02.000Z</time>
      </trkpt>
      <trkpt lat="43.62076" lon="6.83306">
        <ele>87.3</ele>
        <time>2025-01-10T09:58:01.000Z</time>
      </trkpt>
      <trkpt lat="43.62073" lon="6.8331">
        <ele>87.4</ele>
        <time>2025-01-10T09:58:00.000Z</time>
      </trkpt>
      <trkpt lat="43.62069" lon="6.83312">
        <ele>87.4</ele>
        <time>2025-01-10T09:57:59.000Z</time>
      </trkpt>
      <trkpt lat="43.62066" lon="6.83315">
        <ele>87.5</ele>
        <time>2025-01-10T09:57:58.000Z</time>
      </trkpt>
      <trkpt lat="43.62063" lon="6.83317">
        <ele>87.5</ele>
        <time>2025-01-10T09:57:57.000Z</time>
      </trkpt>
      <trkpt lat="43.6206" lon="6.8332">
        <ele>87.6</ele>
        <time>2025-01-10T09:57:56.000Z</time>
      </trkpt>
      <trkpt lat="43.62057" lon="6.83323">
        <ele>87.6</ele>
        <time>2025-01-10T09:57:55.000Z</time>
      </trkpt>
      <trkpt lat="43.62053" lon="6.83329">
        <ele>87.6</ele>
        <time>2025-01-10T09:57:54.000Z</time>
      </trkpt>
      <trkpt lat="43.62049" lon="6.83333">
        <ele>87.6</ele>
        <time>2025-01-10T09:57:53.000Z</time>
      </trkpt>
      <trkpt lat="43.62046" lon="6.83337">
        <ele>87.6</ele>
        <time>2025-01-10T09:57:52.000Z</time>
      </trkpt>
      <trkpt lat="43.62043" lon="6.8334">
        <ele>87.6</ele>
        <time>2025-01-10T09:57:51.000Z</time>
      </trkpt>
      <trkpt lat="43.6204" lon="6.83344">
        <ele>87.6</ele>
        <time>2025-01-10T09:57:50.000Z</time>
      </trkpt>
      <trkpt lat="43.62038" lon="6.83347">
        <ele>87.5</ele>
        <time>2025-01-10T09:57:49.000Z</time>
      </trkpt>
      <trkpt lat="43.62035" lon="6.83351">
        <ele>87.4</ele>
        <time>2025-01-10T09:57:48.000Z</time>
      </trkpt>
      <trkpt lat="43.62032" lon="6.83355">
        <ele>87.3</ele>
        <time>2025-01-10T09:57:47.000Z</time>
      </trkpt>
      <trkpt lat="43.6203" lon="6.83358">
        <ele>87.2</ele>
        <time>2025-01-10T09:57:46.000Z</time>
      </trkpt>
      <trkpt lat="43.62028" lon="6.83361">
        <ele>87.1</ele>
        <time>2025-01-10T09:57:45.000Z</time>
      </trkpt>
      <trkpt lat="43.62025" lon="6.83364">
        <ele>87</ele>
        <time>2025-01-10T09:57:44.000Z</time>
      </trkpt>
      <trkpt lat="43.62022" lon="6.83368">
        <ele>86.8</ele>
        <time>2025-01-10T09:57:43.000Z</time>
      </trkpt>
      <trkpt lat="43.6202" lon="6.83373">
        <ele>86.6</ele>
        <time>2025-01-10T09:57:42.000Z</time>
      </trkpt>
      <trkpt lat="43.62018" lon="6.83377">
        <ele>86.4</ele>
        <time>2025-01-10T09:57:41.000Z</time>
      </trkpt>
      <trkpt lat="43.62016" lon="6.83382">
        <ele>86.2</ele>
        <time>2025-01-10T09:57:40.000Z</time>
      </trkpt>
      <trkpt lat="43.62015" lon="6.83387">
        <ele>86.1</ele>
        <time>2025-01-10T09:57:39.000Z</time>
      </trkpt>
      <trkpt lat="43.62013" lon="6.83392">
        <ele>85.9</ele>
        <time>2025-01-10T09:57:38.000Z</time>
      </trkpt>
      <trkpt lat="43.62012" lon="6.83398">
        <ele>85.8</ele>
        <time>2025-01-10T09:57:37.000Z</time>
      </trkpt>
      <trkpt lat="43.6201" lon="6.83403">
        <ele>85.7</ele>
        <time>2025-01-10T09:57:36.000Z</time>
      </trkpt>
      <trkpt lat="43.62009" lon="6.83408">
        <ele>85.7</ele>
        <time>2025-01-10T09:57:35.000Z</time>
      </trkpt>
      <trkpt lat="43.62008" lon="6.83414">
        <ele>85.6</ele>
        <time>2025-01-10T09:57:34.000Z</time>
      </trkpt>
      <trkpt lat="43.62008" lon="6.83419">
        <ele>85.6</ele>
        <time>2025-01-10T09:57:33.000Z</time>
      </trkpt>
      <trkpt lat="43.62009" lon="6.83425">
        <ele>85.6</ele>
        <time>2025-01-10T09:57:32.000Z</time>
      </trkpt>
      <trkpt lat="43.62009" lon="6.8343">
        <ele>85.5</ele>
        <time>2025-01-10T09:57:31.000Z</time>
      </trkpt>
      <trkpt lat="43.62009" lon="6.83436">
        <ele>85.5</ele>
        <time>2025-01-10T09:57:30.000Z</time>
      </trkpt>
      <trkpt lat="43.6201" lon="6.83442">
        <ele>85.4</ele>
        <time>2025-01-10T09:57:29.000Z</time>
      </trkpt>
      <trkpt lat="43.6201" lon="6.83448">
        <ele>85.4</ele>
        <time>2025-01-10T09:57:28.000Z</time>
      </trkpt>
      <trkpt lat="43.6201" lon="6.83454">
        <ele>85.4</ele>
        <time>2025-01-10T09:57:27.000Z</time>
      </trkpt>
      <trkpt lat="43.62008" lon="6.8346">
        <ele>85.4</ele>
        <time>2025-01-10T09:57:26.000Z</time>
      </trkpt>
      <trkpt lat="43.62006" lon="6.83465">
        <ele>85.4</ele>
        <time>2025-01-10T09:57:25.000Z</time>
      </trkpt>
      <trkpt lat="43.62005" lon="6.83471">
        <ele>85.4</ele>
        <time>2025-01-10T09:57:24.000Z</time>
      </trkpt>
      <trkpt lat="43.62003" lon="6.83477">
        <ele>85.4</ele>
        <time>2025-01-10T09:57:23.000Z</time>
      </trkpt>
      <trkpt lat="43.62001" lon="6.83482">
        <ele>85.4</ele>
        <time>2025-01-10T09:57:22.000Z</time>
      </trkpt>
      <trkpt lat="43.62" lon="6.83488">
        <ele>85.5</ele>
        <time>2025-01-10T09:57:21.000Z</time>
      </trkpt>
      <trkpt lat="43.61998" lon="6.83493">
        <ele>85.5</ele>
        <time>2025-01-10T09:57:20.000Z</time>
      </trkpt>
      <trkpt lat="43.61995" lon="6.83498">
        <ele>85.5</ele>
        <time>2025-01-10T09:57:19.000Z</time>
      </trkpt>
      <trkpt lat="43.61993" lon="6.83503">
        <ele>85.5</ele>
        <time>2025-01-10T09:57:18.000Z</time>
      </trkpt>
      <trkpt lat="43.6199" lon="6.83508">
        <ele>85.6</ele>
        <time>2025-01-10T09:57:17.000Z</time>
      </trkpt>
      <trkpt lat="43.61988" lon="6.83512">
        <ele>85.6</ele>
        <time>2025-01-10T09:57:16.000Z</time>
      </trkpt>
      <trkpt lat="43.61984" lon="6.83516">
        <ele>85.6</ele>
        <time>2025-01-10T09:57:15.000Z</time>
      </trkpt>
      <trkpt lat="43.61981" lon="6.83519">
        <ele>85.7</ele>
        <time>2025-01-10T09:57:14.000Z</time>
      </trkpt>
      <trkpt lat="43.61978" lon="6.83522">
        <ele>85.7</ele>
        <time>2025-01-10T09:57:13.000Z</time>
      </trkpt>
      <trkpt lat="43.61975" lon="6.83525">
        <ele>85.8</ele>
        <time>2025-01-10T09:57:12.000Z</time>
      </trkpt>
      <trkpt lat="43.61971" lon="6.83528">
        <ele>85.9</ele>
        <time>2025-01-10T09:57:11.000Z</time>
      </trkpt>
      <trkpt lat="43.61967" lon="6.83532">
        <ele>86</ele>
        <time>2025-01-10T09:57:10.000Z</time>
      </trkpt>
      <trkpt lat="43.61963" lon="6.83535">
        <ele>86.1</ele>
        <time>2025-01-10T09:57:09.000Z</time>
      </trkpt>
      <trkpt lat="43.61959" lon="6.83538">
        <ele>86.2</ele>
        <time>2025-01-10T09:57:08.000Z</time>
      </trkpt>
      <trkpt lat="43.61956" lon="6.83541">
        <ele>86.3</ele>
        <time>2025-01-10T09:57:07.000Z</time>
      </trkpt>
      <trkpt lat="43.61952" lon="6.83543">
        <ele>86.4</ele>
        <time>2025-01-10T09:57:06.000Z</time>
      </trkpt>
      <trkpt lat="43.61947" lon="6.83544">
        <ele>86.4</ele>
        <time>2025-01-10T09:57:05.000Z</time>
      </trkpt>
      <trkpt lat="43.61943" lon="6.83544">
        <ele>86.4</ele>
        <time>2025-01-10T09:57:04.000Z</time>
      </trkpt>
      <trkpt lat="43.61938" lon="6.83544">
        <ele>86.4</ele>
        <time>2025-01-10T09:57:03.000Z</time>
      </trkpt>
      <trkpt lat="43.61934" lon="6.83544">
        <ele>86.4</ele>
        <time>2025-01-10T09:57:02.000Z</time>
      </trkpt>
      <trkpt lat="43.61929" lon="6.83545">
        <ele>86.5</ele>
        <time>2025-01-10T09:57:01.000Z</time>
      </trkpt>
      <trkpt lat="43.61924" lon="6.83545">
        <ele>86.5</ele>
        <time>2025-01-10T09:57:00.000Z</time>
      </trkpt>
      <trkpt lat="43.6192" lon="6.83546">
        <ele>86.5</ele>
        <time>2025-01-10T09:56:59.000Z</time>
      </trkpt>
      <trkpt lat="43.61916" lon="6.83547">
        <ele>86.6</ele>
        <time>2025-01-10T09:56:58.000Z</time>
      </trkpt>
      <trkpt lat="43.61912" lon="6.83548">
        <ele>86.6</ele>
        <time>2025-01-10T09:56:57.000Z</time>
      </trkpt>
      <trkpt lat="43.61908" lon="6.83548">
        <ele>86.7</ele>
        <time>2025-01-10T09:56:56.000Z</time>
      </trkpt>
      <trkpt lat="43.61904" lon="6.83548">
        <ele>86.8</ele>
        <time>2025-01-10T09:56:55.000Z</time>
      </trkpt>
      <trkpt lat="43.619" lon="6.83548">
        <ele>87</ele>
        <time>2025-01-10T09:56:54.000Z</time>
      </trkpt>
      <trkpt lat="43.61895" lon="6.83547">
        <ele>87.2</ele>
        <time>2025-01-10T09:56:53.000Z</time>
      </trkpt>
      <trkpt lat="43.61891" lon="6.83546">
        <ele>87.5</ele>
        <time>2025-01-10T09:56:52.000Z</time>
      </trkpt>
      <trkpt lat="43.61887" lon="6.83546">
        <ele>87.7</ele>
        <time>2025-01-10T09:56:51.000Z</time>
      </trkpt>
      <trkpt lat="43.61882" lon="6.83545">
        <ele>88</ele>
        <time>2025-01-10T09:56:50.000Z</time>
      </trkpt>
      <trkpt lat="43.61878" lon="6.83545">
        <ele>88.2</ele>
        <time>2025-01-10T09:56:49.000Z</time>
      </trkpt>
      <trkpt lat="43.61875" lon="6.83545">
        <ele>88.5</ele>
        <time>2025-01-10T09:56:48.000Z</time>
      </trkpt>
      <trkpt lat="43.61871" lon="6.83544">
        <ele>88.7</ele>
        <time>2025-01-10T09:56:47.000Z</time>
      </trkpt>
      <trkpt lat="43.61867" lon="6.83544">
        <ele>89</ele>
        <time>2025-01-10T09:56:46.000Z</time>
      </trkpt>
      <trkpt lat="43.61864" lon="6.83543">
        <ele>89.2</ele>
        <time>2025-01-10T09:56:45.000Z</time>
      </trkpt>
      <trkpt lat="43.6186" lon="6.83542">
        <ele>89.5</ele>
        <time>2025-01-10T09:56:44.000Z</time>
      </trkpt>
      <trkpt lat="43.61857" lon="6.83541">
        <ele>89.7</ele>
        <time>2025-01-10T09:56:43.000Z</time>
      </trkpt>
      <trkpt lat="43.61855" lon="6.83541">
        <ele>90</ele>
        <time>2025-01-10T09:56:42.000Z</time>
      </trkpt>
      <trkpt lat="43.61852" lon="6.8354">
        <ele>90.2</ele>
        <time>2025-01-10T09:56:41.000Z</time>
      </trkpt>
      <trkpt lat="43.6185" lon="6.8354">
        <ele>90.4</ele>
        <time>2025-01-10T09:56:40.000Z</time>
      </trkpt>
      <trkpt lat="43.61847" lon="6.8354">
        <ele>90.6</ele>
        <time>2025-01-10T09:56:39.000Z</time>
      </trkpt>
      <trkpt lat="43.61844" lon="6.8354">
        <ele>90.8</ele>
        <time>2025-01-10T09:56:38.000Z</time>
      </trkpt>
      <trkpt lat="43.61842" lon="6.8354">
        <ele>91.1</ele>
        <time>2025-01-10T09:56:37.000Z</time>
      </trkpt>
      <trkpt lat="43.61839" lon="6.83541">
        <ele>91.3</ele>
        <time>2025-01-10T09:56:36.000Z</time>
      </trkpt>
      <trkpt lat="43.61836" lon="6.83541">
        <ele>91.5</ele>
        <time>2025-01-10T09:56:35.000Z</time>
      </trkpt>
      <trkpt lat="43.61833" lon="6.83542">
        <ele>91.6</ele>
        <time>2025-01-10T09:56:34.000Z</time>
      </trkpt>
      <trkpt lat="43.6183" lon="6.83543">
        <ele>91.8</ele>
        <time>2025-01-10T09:56:33.000Z</time>
      </trkpt>
      <trkpt lat="43.61827" lon="6.83544">
        <ele>91.8</ele>
        <time>2025-01-10T09:56:32.000Z</time>
      </trkpt>
      <trkpt lat="43.61824" lon="6.83546">
        <ele>91.8</ele>
        <time>2025-01-10T09:56:31.000Z</time>
      </trkpt>
      <trkpt lat="43.61821" lon="6.83548">
        <ele>91.8</ele>
        <time>2025-01-10T09:56:30.000Z</time>
      </trkpt>
      <trkpt lat="43.61818" lon="6.8355">
        <ele>91.6</ele>
        <time>2025-01-10T09:56:29.000Z</time>
      </trkpt>
      <trkpt lat="43.61815" lon="6.83552">
        <ele>91.4</ele>
        <time>2025-01-10T09:56:28.000Z</time>
      </trkpt>
      <trkpt lat="43.61813" lon="6.83554">
        <ele>91.1</ele>
        <time>2025-01-10T09:56:27.000Z</time>
      </trkpt>
      <trkpt lat="43.61809" lon="6.83556">
        <ele>90.7</ele>
        <time>2025-01-10T09:56:26.000Z</time>
      </trkpt>
      <trkpt lat="43.61806" lon="6.83558">
        <ele>90.3</ele>
        <time>2025-01-10T09:56:25.000Z</time>
      </trkpt>
      <trkpt lat="43.61803" lon="6.83561">
        <ele>89.7</ele>
        <time>2025-01-10T09:56:24.000Z</time>
      </trkpt>
      <trkpt lat="43.618" lon="6.83563">
        <ele>89.2</ele>
        <time>2025-01-10T09:56:23.000Z</time>
      </trkpt>
      <trkpt lat="43.61797" lon="6.83565">
        <ele>88.7</ele>
        <time>2025-01-10T09:56:22.000Z</time>
      </trkpt>
      <trkpt lat="43.61793" lon="6.83568">
        <ele>88.1</ele>
        <time>2025-01-10T09:56:21.000Z</time>
      </trkpt>
      <trkpt lat="43.6179" lon="6.83571">
        <ele>87.6</ele>
        <time>2025-01-10T09:56:20.000Z</time>
      </trkpt>
      <trkpt lat="43.61787" lon="6.83575">
        <ele>87.1</ele>
        <time>2025-01-10T09:56:19.000Z</time>
      </trkpt>
      <trkpt lat="43.61783" lon="6.83578">
        <ele>86.6</ele>
        <time>2025-01-10T09:56:18.000Z</time>
      </trkpt>
      <trkpt lat="43.61779" lon="6.83582">
        <ele>86.2</ele>
        <time>2025-01-10T09:56:17.000Z</time>
      </trkpt>
      <trkpt lat="43.61775" lon="6.83584">
        <ele>85.8</ele>
        <time>2025-01-10T09:56:16.000Z</time>
      </trkpt>
      <trkpt lat="43.6177" lon="6.83586">
        <ele>85.4</ele>
        <time>2025-01-10T09:56:15.000Z</time>
      </trkpt>
      <trkpt lat="43.61765" lon="6.83588">
        <ele>85.2</ele>
        <time>2025-01-10T09:56:14.000Z</time>
      </trkpt>
      <trkpt lat="43.61761" lon="6.8359">
        <ele>85.1</ele>
        <time>2025-01-10T09:56:13.000Z</time>
      </trkpt>
      <trkpt lat="43.61758" lon="6.83593">
        <ele>85</ele>
        <time>2025-01-10T09:56:12.000Z</time>
      </trkpt>
      <trkpt lat="43.61755" lon="6.83596">
        <ele>84.9</ele>
        <time>2025-01-10T09:56:11.000Z</time>
      </trkpt>
      <trkpt lat="43.61752" lon="6.836">
        <ele>84.9</ele>
        <time>2025-01-10T09:56:10.000Z</time>
      </trkpt>
      <trkpt lat="43.6175" lon="6.83604">
        <ele>85</ele>
        <time>2025-01-10T09:56:09.000Z</time>
      </trkpt>
      <trkpt lat="43.61748" lon="6.83609">
        <ele>85.1</ele>
        <time>2025-01-10T09:56:08.000Z</time>
      </trkpt>
      <trkpt lat="43.61747" lon="6.83614">
        <ele>85.3</ele>
        <time>2025-01-10T09:56:07.000Z</time>
      </trkpt>
      <trkpt lat="43.61746" lon="6.83618">
        <ele>85.5</ele>
        <time>2025-01-10T09:56:06.000Z</time>
      </trkpt>
      <trkpt lat="43.61745" lon="6.83622">
        <ele>85.7</ele>
        <time>2025-01-10T09:56:05.000Z</time>
      </trkpt>
      <trkpt lat="43.61744" lon="6.83626">
        <ele>85.9</ele>
        <time>2025-01-10T09:56:04.000Z</time>
      </trkpt>
      <trkpt lat="43.61742" lon="6.83629">
        <ele>86.1</ele>
        <time>2025-01-10T09:56:03.000Z</time>
      </trkpt>
      <trkpt lat="43.61741" lon="6.83632">
        <ele>86.3</ele>
        <time>2025-01-10T09:56:02.000Z</time>
      </trkpt>
      <trkpt lat="43.6174" lon="6.83636">
        <ele>86.6</ele>
        <time>2025-01-10T09:56:01.000Z</time>
      </trkpt>
      <trkpt lat="43.6174" lon="6.83639">
        <ele>86.7</ele>
        <time>2025-01-10T09:56:00.000Z</time>
      </trkpt>
      <trkpt lat="43.61739" lon="6.83643">
        <ele>86.9</ele>
        <time>2025-01-10T09:55:59.000Z</time>
      </trkpt>
      <trkpt lat="43.6174" lon="6.83647">
        <ele>87.1</ele>
        <time>2025-01-10T09:55:58.000Z</time>
      </trkpt>
      <trkpt lat="43.6174" lon="6.83651">
        <ele>87.2</ele>
        <time>2025-01-10T09:55:57.000Z</time>
      </trkpt>
      <trkpt lat="43.61741" lon="6.83656">
        <ele>87.3</ele>
        <time>2025-01-10T09:55:56.000Z</time>
      </trkpt>
      <trkpt lat="43.61742" lon="6.83661">
        <ele>87.4</ele>
        <time>2025-01-10T09:55:55.000Z</time>
      </trkpt>
      <trkpt lat="43.61742" lon="6.83667">
        <ele>87.4</ele>
        <time>2025-01-10T09:55:54.000Z</time>
      </trkpt>
      <trkpt lat="43.61743" lon="6.83672">
        <ele>87.4</ele>
        <time>2025-01-10T09:55:53.000Z</time>
      </trkpt>
      <trkpt lat="43.61744" lon="6.83677">
        <ele>87.3</ele>
        <time>2025-01-10T09:55:52.000Z</time>
      </trkpt>
      <trkpt lat="43.61746" lon="6.83681">
        <ele>87.3</ele>
        <time>2025-01-10T09:55:51.000Z</time>
      </trkpt>
      <trkpt lat="43.61748" lon="6.83685">
        <ele>87.3</ele>
        <time>2025-01-10T09:55:50.000Z</time>
      </trkpt>
      <trkpt lat="43.61751" lon="6.83688">
        <ele>87.2</ele>
        <time>2025-01-10T09:55:49.000Z</time>
      </trkpt>
      <trkpt lat="43.61754" lon="6.83692">
        <ele>87.2</ele>
        <time>2025-01-10T09:55:48.000Z</time>
      </trkpt>
      <trkpt lat="43.61758" lon="6.83695">
        <ele>87.1</ele>
        <time>2025-01-10T09:55:47.000Z</time>
      </trkpt>
      <trkpt lat="43.61762" lon="6.83697">
        <ele>87.1</ele>
        <time>2025-01-10T09:55:46.000Z</time>
      </trkpt>
      <trkpt lat="43.61765" lon="6.83699">
        <ele>87</ele>
        <time>2025-01-10T09:55:45.000Z</time>
      </trkpt>
      <trkpt lat="43.61769" lon="6.83702">
        <ele>86.8</ele>
        <time>2025-01-10T09:55:44.000Z</time>
      </trkpt>
      <trkpt lat="43.61771" lon="6.83706">
        <ele>86.7</ele>
        <time>2025-01-10T09:55:43.000Z</time>
      </trkpt>
      <trkpt lat="43.61773" lon="6.8371">
        <ele>86.6</ele>
        <time>2025-01-10T09:55:42.000Z</time>
      </trkpt>
      <trkpt lat="43.61773" lon="6.83715">
        <ele>86.5</ele>
        <time>2025-01-10T09:55:41.000Z</time>
      </trkpt>
      <trkpt lat="43.61773" lon="6.8372">
        <ele>86.4</ele>
        <time>2025-01-10T09:55:40.000Z</time>
      </trkpt>
      <trkpt lat="43.61772" lon="6.83726">
        <ele>86.3</ele>
        <time>2025-01-10T09:55:39.000Z</time>
      </trkpt>
      <trkpt lat="43.61772" lon="6.83731">
        <ele>86.3</ele>
        <time>2025-01-10T09:55:38.000Z</time>
      </trkpt>
      <trkpt lat="43.61771" lon="6.83736">
        <ele>86.2</ele>
        <time>2025-01-10T09:55:37.000Z</time>
      </trkpt>
      <trkpt lat="43.6177" lon="6.83742">
        <ele>86.1</ele>
        <time>2025-01-10T09:55:36.000Z</time>
      </trkpt>
      <trkpt lat="43.61769" lon="6.83748">
        <ele>86.1</ele>
        <time>2025-01-10T09:55:35.000Z</time>
      </trkpt>
      <trkpt lat="43.61767" lon="6.83755">
        <ele>86</ele>
        <time>2025-01-10T09:55:34.000Z</time>
      </trkpt>
      <trkpt lat="43.61766" lon="6.83761">
        <ele>86</ele>
        <time>2025-01-10T09:55:33.000Z</time>
      </trkpt>
      <trkpt lat="43.61764" lon="6.83767">
        <ele>85.9</ele>
        <time>2025-01-10T09:55:32.000Z</time>
      </trkpt>
      <trkpt lat="43.61761" lon="6.83772">
        <ele>85.9</ele>
        <time>2025-01-10T09:55:31.000Z</time>
      </trkpt>
      <trkpt lat="43.61759" lon="6.83778">
        <ele>85.8</ele>
        <time>2025-01-10T09:55:30.000Z</time>
      </trkpt>
      <trkpt lat="43.61755" lon="6.83783">
        <ele>85.8</ele>
        <time>2025-01-10T09:55:29.000Z</time>
      </trkpt>
      <trkpt lat="43.61752" lon="6.83787">
        <ele>85.7</ele>
        <time>2025-01-10T09:55:28.000Z</time>
      </trkpt>
      <trkpt lat="43.61748" lon="6.83791">
        <ele>85.5</ele>
        <time>2025-01-10T09:55:27.000Z</time>
      </trkpt>
      <trkpt lat="43.61744" lon="6.83795">
        <ele>85.4</ele>
        <time>2025-01-10T09:55:26.000Z</time>
      </trkpt>
      <trkpt lat="43.6174" lon="6.83798">
        <ele>85.3</ele>
        <time>2025-01-10T09:55:25.000Z</time>
      </trkpt>
      <trkpt lat="43.61735" lon="6.83802">
        <ele>85.1</ele>
        <time>2025-01-10T09:55:24.000Z</time>
      </trkpt>
      <trkpt lat="43.61731" lon="6.83805">
        <ele>85</ele>
        <time>2025-01-10T09:55:23.000Z</time>
      </trkpt>
      <trkpt lat="43.61727" lon="6.83809">
        <ele>84.9</ele>
        <time>2025-01-10T09:55:22.000Z</time>
      </trkpt>
      <trkpt lat="43.61723" lon="6.83812">
        <ele>84.8</ele>
        <time>2025-01-10T09:55:21.000Z</time>
      </trkpt>
      <trkpt lat="43.61718" lon="6.83815">
        <ele>84.7</ele>
        <time>2025-01-10T09:55:20.000Z</time>
      </trkpt>
      <trkpt lat="43.61714" lon="6.83818">
        <ele>84.7</ele>
        <time>2025-01-10T09:55:19.000Z</time>
      </trkpt>
      <trkpt lat="43.61709" lon="6.8382">
        <ele>84.6</ele>
        <time>2025-01-10T09:55:18.000Z</time>
      </trkpt>
      <trkpt lat="43.61705" lon="6.83823">
        <ele>84.6</ele>
        <time>2025-01-10T09:55:17.000Z</time>
      </trkpt>
      <trkpt lat="43.61701" lon="6.83825">
        <ele>84.5</ele>
        <time>2025-01-10T09:55:16.000Z</time>
      </trkpt>
      <trkpt lat="43.61697" lon="6.83828">
        <ele>84.5</ele>
        <time>2025-01-10T09:55:15.000Z</time>
      </trkpt>
      <trkpt lat="43.61693" lon="6.83831">
        <ele>84.5</ele>
        <time>2025-01-10T09:55:14.000Z</time>
      </trkpt>
      <trkpt lat="43.61689" lon="6.83834">
        <ele>84.5</ele>
        <time>2025-01-10T09:55:13.000Z</time>
      </trkpt>
      <trkpt lat="43.61685" lon="6.83836">
        <ele>84.6</ele>
        <time>2025-01-10T09:55:12.000Z</time>
      </trkpt>
      <trkpt lat="43.61681" lon="6.8384">
        <ele>84.6</ele>
        <time>2025-01-10T09:55:11.000Z</time>
      </trkpt>
      <trkpt lat="43.61676" lon="6.83843">
        <ele>84.7</ele>
        <time>2025-01-10T09:55:10.000Z</time>
      </trkpt>
      <trkpt lat="43.61671" lon="6.83847">
        <ele>84.7</ele>
        <time>2025-01-10T09:55:09.000Z</time>
      </trkpt>
      <trkpt lat="43.61667" lon="6.8385">
        <ele>84.9</ele>
        <time>2025-01-10T09:55:08.000Z</time>
      </trkpt>
      <trkpt lat="43.61662" lon="6.83853">
        <ele>85</ele>
        <time>2025-01-10T09:55:07.000Z</time>
      </trkpt>
      <trkpt lat="43.61658" lon="6.83856">
        <ele>85.2</ele>
        <time>2025-01-10T09:55:06.000Z</time>
      </trkpt>
      <trkpt lat="43.61653" lon="6.8386">
        <ele>85.4</ele>
        <time>2025-01-10T09:55:05.000Z</time>
      </trkpt>
      <trkpt lat="43.61649" lon="6.83863">
        <ele>85.7</ele>
        <time>2025-01-10T09:55:04.000Z</time>
      </trkpt>
      <trkpt lat="43.61644" lon="6.83867">
        <ele>85.9</ele>
        <time>2025-01-10T09:55:03.000Z</time>
      </trkpt>
      <trkpt lat="43.6164" lon="6.83871">
        <ele>86.2</ele>
        <time>2025-01-10T09:55:02.000Z</time>
      </trkpt>
      <trkpt lat="43.61636" lon="6.83876">
        <ele>86.4</ele>
        <time>2025-01-10T09:55:01.000Z</time>
      </trkpt>
      <trkpt lat="43.61631" lon="6.8388">
        <ele>86.7</ele>
        <time>2025-01-10T09:55:00.000Z</time>
      </trkpt>
      <trkpt lat="43.61627" lon="6.83884">
        <ele>86.9</ele>
        <time>2025-01-10T09:54:59.000Z</time>
      </trkpt>
      <trkpt lat="43.61622" lon="6.83888">
        <ele>87.2</ele>
        <time>2025-01-10T09:54:58.000Z</time>
      </trkpt>
      <trkpt lat="43.61618" lon="6.83892">
        <ele>87.4</ele>
        <time>2025-01-10T09:54:57.000Z</time>
      </trkpt>
      <trkpt lat="43.61613" lon="6.83895">
        <ele>87.7</ele>
        <time>2025-01-10T09:54:56.000Z</time>
      </trkpt>
      <trkpt lat="43.61608" lon="6.83898">
        <ele>87.9</ele>
        <time>2025-01-10T09:54:55.000Z</time>
      </trkpt>
      <trkpt lat="43.61603" lon="6.83902">
        <ele>88.2</ele>
        <time>2025-01-10T09:54:54.000Z</time>
      </trkpt>
      <trkpt lat="43.61599" lon="6.83905">
        <ele>88.4</ele>
        <time>2025-01-10T09:54:53.000Z</time>
      </trkpt>
      <trkpt lat="43.61594" lon="6.83908">
        <ele>88.6</ele>
        <time>2025-01-10T09:54:52.000Z</time>
      </trkpt>
      <trkpt lat="43.6159" lon="6.83912">
        <ele>88.9</ele>
        <time>2025-01-10T09:54:51.000Z</time>
      </trkpt>
      <trkpt lat="43.61586" lon="6.83915">
        <ele>89.1</ele>
        <time>2025-01-10T09:54:50.000Z</time>
      </trkpt>
      <trkpt lat="43.61582" lon="6.83918">
        <ele>89.3</ele>
        <time>2025-01-10T09:54:49.000Z</time>
      </trkpt>
      <trkpt lat="43.61578" lon="6.83922">
        <ele>89.6</ele>
        <time>2025-01-10T09:54:48.000Z</time>
      </trkpt>
      <trkpt lat="43.61573" lon="6.83926">
        <ele>89.8</ele>
        <time>2025-01-10T09:54:47.000Z</time>
      </trkpt>
      <trkpt lat="43.61569" lon="6.8393">
        <ele>90.1</ele>
        <time>2025-01-10T09:54:46.000Z</time>
      </trkpt>
      <trkpt lat="43.61564" lon="6.83935">
        <ele>90.2</ele>
        <time>2025-01-10T09:54:45.000Z</time>
      </trkpt>
      <trkpt lat="43.61559" lon="6.8394">
        <ele>90.3</ele>
        <time>2025-01-10T09:54:44.000Z</time>
      </trkpt>
      <trkpt lat="43.61554" lon="6.83945">
        <ele>90.4</ele>
        <time>2025-01-10T09:54:43.000Z</time>
      </trkpt>
      <trkpt lat="43.61549" lon="6.83949">
        <ele>90.5</ele>
        <time>2025-01-10T09:54:42.000Z</time>
      </trkpt>
      <trkpt lat="43.61545" lon="6.83953">
        <ele>90.7</ele>
        <time>2025-01-10T09:54:41.000Z</time>
      </trkpt>
      <trkpt lat="43.61541" lon="6.83957">
        <ele>90.8</ele>
        <time>2025-01-10T09:54:40.000Z</time>
      </trkpt>
      <trkpt lat="43.61537" lon="6.8396">
        <ele>91</ele>
        <time>2025-01-10T09:54:39.000Z</time>
      </trkpt>
      <trkpt lat="43.61534" lon="6.83964">
        <ele>91.3</ele>
        <time>2025-01-10T09:54:38.000Z</time>
      </trkpt>
      <trkpt lat="43.61531" lon="6.83966">
        <ele>91.4</ele>
        <time>2025-01-10T09:54:37.000Z</time>
      </trkpt>
      <trkpt lat="43.61527" lon="6.83969">
        <ele>91.7</ele>
        <time>2025-01-10T09:54:36.000Z</time>
      </trkpt>
      <trkpt lat="43.61525" lon="6.83972">
        <ele>91.9</ele>
        <time>2025-01-10T09:54:35.000Z</time>
      </trkpt>
      <trkpt lat="43.61522" lon="6.83974">
        <ele>92.1</ele>
        <time>2025-01-10T09:54:34.000Z</time>
      </trkpt>
      <trkpt lat="43.6152" lon="6.83975">
        <ele>92.3</ele>
        <time>2025-01-10T09:54:33.000Z</time>
      </trkpt>
      <trkpt lat="43.61517" lon="6.83975">
        <ele>92.5</ele>
        <time>2025-01-10T09:54:32.000Z</time>
      </trkpt>
      <trkpt lat="43.61514" lon="6.83975">
        <ele>92.8</ele>
        <time>2025-01-10T09:54:31.000Z</time>
      </trkpt>
      <trkpt lat="43.61511" lon="6.83974">
        <ele>93</ele>
        <time>2025-01-10T09:54:30.000Z</time>
      </trkpt>
      <trkpt lat="43.61508" lon="6.83972">
        <ele>93.2</ele>
        <time>2025-01-10T09:54:29.000Z</time>
      </trkpt>
      <trkpt lat="43.61506" lon="6.83969">
        <ele>93.4</ele>
        <time>2025-01-10T09:54:28.000Z</time>
      </trkpt>
      <trkpt lat="43.61503" lon="6.83967">
        <ele>93.5</ele>
        <time>2025-01-10T09:54:27.000Z</time>
      </trkpt>
      <trkpt lat="43.61501" lon="6.83965">
        <ele>93.7</ele>
        <time>2025-01-10T09:54:26.000Z</time>
      </trkpt>
      <trkpt lat="43.61499" lon="6.83962">
        <ele>93.8</ele>
        <time>2025-01-10T09:54:25.000Z</time>
      </trkpt>
      <trkpt lat="43.61498" lon="6.8396">
        <ele>93.8</ele>
        <time>2025-01-10T09:54:24.000Z</time>
      </trkpt>
      <trkpt lat="43.61497" lon="6.83957">
        <ele>93.8</ele>
        <time>2025-01-10T09:54:23.000Z</time>
      </trkpt>
      <trkpt lat="43.61496" lon="6.83955">
        <ele>93.9</ele>
        <time>2025-01-10T09:54:22.000Z</time>
      </trkpt>
      <trkpt lat="43.61495" lon="6.83954">
        <ele>93.9</ele>
        <time>2025-01-10T09:54:21.000Z</time>
      </trkpt>
      <trkpt lat="43.61495" lon="6.83952">
        <ele>93.8</ele>
        <time>2025-01-10T09:54:20.000Z</time>
      </trkpt>
      <trkpt lat="43.61494" lon="6.8395">
        <ele>93.8</ele>
        <time>2025-01-10T09:54:19.000Z</time>
      </trkpt>
      <trkpt lat="43.61493" lon="6.83948">
        <ele>93.8</ele>
        <time>2025-01-10T09:54:18.000Z</time>
      </trkpt>
      <trkpt lat="43.61492" lon="6.83945">
        <ele>93.7</ele>
        <time>2025-01-10T09:54:17.000Z</time>
      </trkpt>
      <trkpt lat="43.61491" lon="6.83942">
        <ele>93.6</ele>
        <time>2025-01-10T09:54:16.000Z</time>
      </trkpt>
      <trkpt lat="43.6149" lon="6.83939">
        <ele>93.4</ele>
        <time>2025-01-10T09:54:15.000Z</time>
      </trkpt>
      <trkpt lat="43.61489" lon="6.83935">
        <ele>93.2</ele>
        <time>2025-01-10T09:54:14.000Z</time>
      </trkpt>
      <trkpt lat="43.61487" lon="6.83931">
        <ele>93</ele>
        <time>2025-01-10T09:54:13.000Z</time>
      </trkpt>
      <trkpt lat="43.61486" lon="6.83927">
        <ele>92.8</ele>
        <time>2025-01-10T09:54:12.000Z</time>
      </trkpt>
      <trkpt lat="43.61485" lon="6.83924">
        <ele>92.6</ele>
        <time>2025-01-10T09:54:11.000Z</time>
      </trkpt>
      <trkpt lat="43.61484" lon="6.8392">
        <ele>92.3</ele>
        <time>2025-01-10T09:54:10.000Z</time>
      </trkpt>
      <trkpt lat="43.61483" lon="6.83917">
        <ele>92.1</ele>
        <time>2025-01-10T09:54:09.000Z</time>
      </trkpt>
      <trkpt lat="43.61482" lon="6.83914">
        <ele>91.9</ele>
        <time>2025-01-10T09:54:08.000Z</time>
      </trkpt>
      <trkpt lat="43.61481" lon="6.8391">
        <ele>91.6</ele>
        <time>2025-01-10T09:54:07.000Z</time>
      </trkpt>
      <trkpt lat="43.6148" lon="6.83907">
        <ele>91.4</ele>
        <time>2025-01-10T09:54:06.000Z</time>
      </trkpt>
      <trkpt lat="43.61479" lon="6.83903">
        <ele>91.1</ele>
        <time>2025-01-10T09:54:05.000Z</time>
      </trkpt>
      <trkpt lat="43.61479" lon="6.83899">
        <ele>90.9</ele>
        <time>2025-01-10T09:54:04.000Z</time>
      </trkpt>
      <trkpt lat="43.61478" lon="6.83896">
        <ele>90.6</ele>
        <time>2025-01-10T09:54:03.000Z</time>
      </trkpt>
      <trkpt lat="43.61478" lon="6.83893">
        <ele>90.4</ele>
        <time>2025-01-10T09:54:02.000Z</time>
      </trkpt>
      <trkpt lat="43.61478" lon="6.8389">
        <ele>90.2</ele>
        <time>2025-01-10T09:54:01.000Z</time>
      </trkpt>
      <trkpt lat="43.61477" lon="6.83887">
        <ele>90</ele>
        <time>2025-01-10T09:54:00.000Z</time>
      </trkpt>
      <trkpt lat="43.61477" lon="6.83884">
        <ele>89.8</ele>
        <time>2025-01-10T09:53:59.000Z</time>
      </trkpt>
      <trkpt lat="43.61476" lon="6.8388">
        <ele>89.5</ele>
        <time>2025-01-10T09:53:58.000Z</time>
      </trkpt>
      <trkpt lat="43.61475" lon="6.83876">
        <ele>89.3</ele>
        <time>2025-01-10T09:53:57.000Z</time>
      </trkpt>
      <trkpt lat="43.61475" lon="6.83872">
        <ele>89</ele>
        <time>2025-01-10T09:53:56.000Z</time>
      </trkpt>
      <trkpt lat="43.61474" lon="6.83868">
        <ele>88.7</ele>
        <time>2025-01-10T09:53:55.000Z</time>
      </trkpt>
      <trkpt lat="43.61474" lon="6.83863">
        <ele>88.4</ele>
        <time>2025-01-10T09:53:54.000Z</time>
      </trkpt>
      <trkpt lat="43.61473" lon="6.83858">
        <ele>88.1</ele>
        <time>2025-01-10T09:53:53.000Z</time>
      </trkpt>
      <trkpt lat="43.61472" lon="6.83854">
        <ele>87.8</ele>
        <time>2025-01-10T09:53:52.000Z</time>
      </trkpt>
      <trkpt lat="43.61471" lon="6.83851">
        <ele>87.5</ele>
        <time>2025-01-10T09:53:51.000Z</time>
      </trkpt>
      <trkpt lat="43.61469" lon="6.83847">
        <ele>87.2</ele>
        <time>2025-01-10T09:53:50.000Z</time>
      </trkpt>
      <trkpt lat="43.61468" lon="6.83843">
        <ele>86.9</ele>
        <time>2025-01-10T09:53:49.000Z</time>
      </trkpt>
      <trkpt lat="43.61467" lon="6.8384">
        <ele>86.7</ele>
        <time>2025-01-10T09:53:48.000Z</time>
      </trkpt>
      <trkpt lat="43.61465" lon="6.83836">
        <ele>86.4</ele>
        <time>2025-01-10T09:53:47.000Z</time>
      </trkpt>
      <trkpt lat="43.61464" lon="6.83833">
        <ele>86.1</ele>
        <time>2025-01-10T09:53:46.000Z</time>
      </trkpt>
      <trkpt lat="43.61462" lon="6.83829">
        <ele>85.9</ele>
        <time>2025-01-10T09:53:45.000Z</time>
      </trkpt>
      <trkpt lat="43.6146" lon="6.83825">
        <ele>85.6</ele>
        <time>2025-01-10T09:53:44.000Z</time>
      </trkpt>
      <trkpt lat="43.61459" lon="6.83822">
        <ele>85.4</ele>
        <time>2025-01-10T09:53:43.000Z</time>
      </trkpt>
      <trkpt lat="43.61457" lon="6.83818">
        <ele>85.2</ele>
        <time>2025-01-10T09:53:42.000Z</time>
      </trkpt>
      <trkpt lat="43.61456" lon="6.83814">
        <ele>84.9</ele>
        <time>2025-01-10T09:53:41.000Z</time>
      </trkpt>
      <trkpt lat="43.61455" lon="6.8381">
        <ele>84.7</ele>
        <time>2025-01-10T09:53:40.000Z</time>
      </trkpt>
      <trkpt lat="43.61454" lon="6.83807">
        <ele>84.6</ele>
        <time>2025-01-10T09:53:39.000Z</time>
      </trkpt>
      <trkpt lat="43.61454" lon="6.83806">
        <ele>84.5</ele>
        <time>2025-01-10T09:53:38.000Z</time>
      </trkpt>
      <trkpt lat="43.61454" lon="6.83806">
        <ele>84.5</ele>
        <time>2025-01-10T09:53:37.000Z</time>
      </trkpt>
      <trkpt lat="43.61454" lon="6.83806">
        <ele>84.5</ele>
        <time>2025-01-10T09:53:36.000Z</time>
      </trkpt>
      <trkpt lat="43.61454" lon="6.83806">
        <ele>84.5</ele>
        <time>2025-01-10T09:53:35.000Z</time>
      </trkpt>
      <trkpt lat="43.61454" lon="6.83806">
        <ele>84.5</ele>
        <time>2025-01-10T09:53:34.000Z</time>
      </trkpt>
      <trkpt lat="43.61454" lon="6.83806">
        <ele>84.5</ele>
        <time>2025-01-10T09:53:33.000Z</time>
      </trkpt>
      <trkpt lat="43.61454" lon="6.83806">
        <ele>84.5</ele>
        <time>2025-01-10T09:53:32.000Z</time>
      </trkpt>
      <trkpt lat="43.61454" lon="6.83806">
        <ele>84.5</ele>
        <time>2025-01-10T09:53:31.000Z</time>
      </trkpt>
      <trkpt lat="43.61454" lon="6.83806">
        <ele>84.5</ele>
        <time>2025-01-10T09:53:30.000Z</time>
      </trkpt>
      <trkpt lat="43.61454" lon="6.83806">
        <ele>84.5</ele>
        <time>2025-01-10T09:53:29.000Z</time>
      </trkpt>
      <trkpt lat="43.61454" lon="6.83806">
        <ele>84.5</ele>
        <time>2025-01-10T09:53:28.000Z</time>
      </trkpt>
      <trkpt lat="43.61453" lon="6.83806">
        <ele>84.5</ele>
        <time>2025-01-10T09:53:27.000Z</time>
      </trkpt>
      <trkpt lat="43.61453" lon="6.83806">
        <ele>84.5</ele>
        <time>2025-01-10T09:53:26.000Z</time>
      </trkpt>
      <trkpt lat="43.61452" lon="6.83806">
        <ele>84.4</ele>
        <time>2025-01-10T09:53:25.000Z</time>
      </trkpt>
      <trkpt lat="43.61452" lon="6.83806">
        <ele>84.4</ele>
        <time>2025-01-10T09:53:24.000Z</time>
      </trkpt>
      <trkpt lat="43.61452" lon="6.83806">
        <ele>84.4</ele>
        <time>2025-01-10T09:53:23.000Z</time>
      </trkpt>
      <trkpt lat="43.61451" lon="6.83805">
        <ele>84.3</ele>
        <time>2025-01-10T09:53:22.000Z</time>
      </trkpt>
      <trkpt lat="43.61451" lon="6.83805">
        <ele>84.3</ele>
        <time>2025-01-10T09:53:21.000Z</time>
      </trkpt>
      <trkpt lat="43.61451" lon="6.83805">
        <ele>84.3</ele>
        <time>2025-01-10T09:53:20.000Z</time>
      </trkpt>
      <trkpt lat="43.6145" lon="6.83804">
        <ele>84.3</ele>
        <time>2025-01-10T09:53:19.000Z</time>
      </trkpt>
      <trkpt lat="43.61451" lon="6.83804">
        <ele>84.2</ele>
        <time>2025-01-10T09:53:18.000Z</time>
      </trkpt>
      <trkpt lat="43.61452" lon="6.83804">
        <ele>84.2</ele>
        <time>2025-01-10T09:53:17.000Z</time>
      </trkpt>
      <trkpt lat="43.61452" lon="6.83804">
        <ele>84.1</ele>
        <time>2025-01-10T09:53:16.000Z</time>
      </trkpt>
      <trkpt lat="43.61453" lon="6.83805">
        <ele>84.1</ele>
        <time>2025-01-10T09:53:15.000Z</time>
      </trkpt>
      <trkpt lat="43.61453" lon="6.83806">
        <ele>84</ele>
        <time>2025-01-10T09:53:14.000Z</time>
      </trkpt>
      <trkpt lat="43.61454" lon="6.83806">
        <ele>83.9</ele>
        <time>2025-01-10T09:53:13.000Z</time>
      </trkpt>
      <trkpt lat="43.61455" lon="6.83807">
        <ele>83.9</ele>
        <time>2025-01-10T09:53:12.000Z</time>
      </trkpt>
      <trkpt lat="43.61455" lon="6.83807">
        <ele>83.9</ele>
        <time>2025-01-10T09:53:11.000Z</time>
      </trkpt>
      <trkpt lat="43.61455" lon="6.83807">
        <ele>83.9</ele>
        <time>2025-01-10T09:53:10.000Z</time>
      </trkpt>
      <trkpt lat="43.61455" lon="6.83807">
        <ele>83.9</ele>
        <time>2025-01-10T09:53:09.000Z</time>
      </trkpt>
      <trkpt lat="43.61455" lon="6.83807">
        <ele>83.9</ele>
        <time>2025-01-10T09:53:08.000Z</time>
      </trkpt>
      <trkpt lat="43.61455" lon="6.83807">
        <ele>83.9</ele>
        <time>2025-01-10T09:53:07.000Z</time>
      </trkpt>
      <trkpt lat="43.61455" lon="6.83807">
        <ele>83.9</ele>
        <time>2025-01-10T09:53:06.000Z</time>
      </trkpt>
      <trkpt lat="43.61455" lon="6.83807">
        <ele>83.9</ele>
        <time>2025-01-10T09:53:05.000Z</time>
      </trkpt>
      <trkpt lat="43.61455" lon="6.83807">
        <ele>83.9</ele>
        <time>2025-01-10T09:53:04.000Z</time>
      </trkpt>
      <trkpt lat="43.61455" lon="6.83807">
        <ele>83.9</ele>
        <time>2025-01-10T09:53:03.000Z</time>
      </trkpt>
      <trkpt lat="43.61455" lon="6.83807">
        <ele>83.9</ele>
        <time>2025-01-10T09:53:02.000Z</time>
      </trkpt>
      <trkpt lat="43.61455" lon="6.83807">
        <ele>83.9</ele>
        <time>2025-01-10T09:53:01.000Z</time>
      </trkpt>
      <trkpt lat="43.61455" lon="6.83807">
        <ele>83.9</ele>
        <time>2025-01-10T09:53:00.000Z</time>
      </trkpt>
      <trkpt lat="43.61455" lon="6.83807">
        <ele>83.9</ele>
        <time>2025-01-10T09:52:59.000Z</time>
      </trkpt>
      <trkpt lat="43.61455" lon="6.83807">
        <ele>83.9</ele>
        <time>2025-01-10T09:52:58.000Z</time>
      </trkpt>
      <trkpt lat="43.61455" lon="6.83807">
        <ele>83.9</ele>
        <time>2025-01-10T09:52:57.000Z</time>
      </trkpt>
      <trkpt lat="43.61455" lon="6.83807">
        <ele>83.9</ele>
        <time>2025-01-10T09:52:56.000Z</time>
      </trkpt>
      <trkpt lat="43.61455" lon="6.83807">
        <ele>83.9</ele>
        <time>2025-01-10T09:52:55.000Z</time>
      </trkpt>
      <trkpt lat="43.61455" lon="6.83807">
        <ele>83.9</ele>
        <time>2025-01-10T09:52:54.000Z</time>
      </trkpt>
      <trkpt lat="43.61455" lon="6.83807">
        <ele>83.9</ele>
        <time>2025-01-10T09:52:53.000Z</time>
      </trkpt>
      <trkpt lat="43.61455" lon="6.83807">
        <ele>83.9</ele>
        <time>2025-01-10T09:52:52.000Z</time>
      </trkpt>
      <trkpt lat="43.61455" lon="6.83807">
        <ele>83.9</ele>
        <time>2025-01-10T09:52:51.000Z</time>
      </trkpt>
      <trkpt lat="43.61455" lon="6.83807">
        <ele>83.9</ele>
        <time>2025-01-10T09:52:50.000Z</time>
      </trkpt>
      <trkpt lat="43.61455" lon="6.83807">
        <ele>83.9</ele>
        <time>2025-01-10T09:52:49.000Z</time>
      </trkpt>
      <trkpt lat="43.61455" lon="6.83807">
        <ele>83.9</ele>
        <time>2025-01-10T09:52:48.000Z</time>
      </trkpt>
      <trkpt lat="43.61455" lon="6.83807">
        <ele>83.9</ele>
        <time>2025-01-10T09:52:47.000Z</time>
      </trkpt>
      <trkpt lat="43.61455" lon="6.83807">
        <ele>83.9</ele>
        <time>2025-01-10T09:52:46.000Z</time>
      </trkpt>
      <trkpt lat="43.61455" lon="6.83807">
        <ele>83.9</ele>
        <time>2025-01-10T09:52:45.000Z</time>
      </trkpt>
      <trkpt lat="43.61455" lon="6.83807">
        <ele>83.9</ele>
        <time>2025-01-10T09:52:44.000Z</time>
      </trkpt>
      <trkpt lat="43.61455" lon="6.83807">
        <ele>83.9</ele>
        <time>2025-01-10T09:52:43.000Z</time>
      </trkpt>
      <trkpt lat="43.61455" lon="6.83807">
        <ele>83.9</ele>
        <time>2025-01-10T09:52:42.000Z</time>
      </trkpt>
      <trkpt lat="43.61455" lon="6.83807">
        <ele>83.9</ele>
        <time>2025-01-10T09:52:41.000Z</time>
      </trkpt>
      <trkpt lat="43.61455" lon="6.83807">
        <ele>83.9</ele>
        <time>2025-01-10T09:52:40.000Z</time>
      </trkpt>
      <trkpt lat="43.61455" lon="6.83807">
        <ele>83.9</ele>
        <time>2025-01-10T09:52:39.000Z</time>
      </trkpt>
      <trkpt lat="43.61455" lon="6.83807">
        <ele>83.9</ele>
        <time>2025-01-10T09:52:38.000Z</time>
      </trkpt>
      <trkpt lat="43.61455" lon="6.83807">
        <ele>83.9</ele>
        <time>2025-01-10T09:52:37.000Z</time>
      </trkpt>
      <trkpt lat="43.61455" lon="6.83807">
        <ele>83.9</ele>
        <time>2025-01-10T09:52:36.000Z</time>
      </trkpt>
      <trkpt lat="43.61455" lon="6.83807">
        <ele>83.9</ele>
        <time>2025-01-10T09:52:35.000Z</time>
      </trkpt>
      <trkpt lat="43.61455" lon="6.83807">
        <ele>83.9</ele>
        <time>2025-01-10T09:52:34.000Z</time>
      </trkpt>
      <trkpt lat="43.61455" lon="6.83807">
        <ele>83.9</ele>
        <time>2025-01-10T09:52:33.000Z</time>
      </trkpt>
      <trkpt lat="43.61455" lon="6.83807">
        <ele>83.9</ele>
        <time>2025-01-10T09:52:32.000Z</time>
      </trkpt>
      <trkpt lat="43.61455" lon="6.83807">
        <ele>83.9</ele>
        <time>2025-01-10T09:52:31.000Z</time>
      </trkpt>
      <trkpt lat="43.61455" lon="6.83807">
        <ele>83.9</ele>
        <time>2025-01-10T09:52:30.000Z</time>
      </trkpt>
      <trkpt lat="43.61455" lon="6.83807">
        <ele>83.9</ele>
        <time>2025-01-10T09:52:29.000Z</time>
      </trkpt>
      <trkpt lat="43.61455" lon="6.83807">
        <ele>83.9</ele>
        <time>2025-01-10T09:52:28.000Z</time>
      </trkpt>
      <trkpt lat="43.61455" lon="6.83807">
        <ele>83.9</ele>
        <time>2025-01-10T09:52:27.000Z</time>
      </trkpt>
      <trkpt lat="43.61455" lon="6.83807">
        <ele>83.9</ele>
        <time>2025-01-10T09:52:26.000Z</time>
      </trkpt>
      <trkpt lat="43.61455" lon="6.83807">
        <ele>83.9</ele>
        <time>2025-01-10T09:52:25.000Z</time>
      </trkpt>
      <trkpt lat="43.61455" lon="6.83807">
        <ele>83.9</ele>
        <time>2025-01-10T09:52:24.000Z</time>
      </trkpt>
      <trkpt lat="43.61455" lon="6.83807">
        <ele>83.9</ele>
        <time>2025-01-10T09:52:23.000Z</time>
      </trkpt>
      <trkpt lat="43.61455" lon="6.83807">
        <ele>83.9</ele>
        <time>2025-01-10T09:52:22.000Z</time>
      </trkpt>
      <trkpt lat="43.61455" lon="6.83807">
        <ele>83.9</ele>
        <time>2025-01-10T09:52:21.000Z</time>
      </trkpt>
      <trkpt lat="43.61455" lon="6.83807">
        <ele>83.9</ele>
        <time>2025-01-10T09:52:20.000Z</time>
      </trkpt>
      <trkpt lat="43.61455" lon="6.83807">
        <ele>83.9</ele>
        <time>2025-01-10T09:52:19.000Z</time>
      </trkpt>
      <trkpt lat="43.61454" lon="6.83807">
        <ele>83.9</ele>
        <time>2025-01-10T09:52:18.000Z</time>
      </trkpt>
      <trkpt lat="43.61454" lon="6.83807">
        <ele>83.9</ele>
        <time>2025-01-10T09:52:17.000Z</time>
      </trkpt>
      <trkpt lat="43.61454" lon="6.83807">
        <ele>83.9</ele>
        <time>2025-01-10T09:52:16.000Z</time>
      </trkpt>
      <trkpt lat="43.61454" lon="6.83807">
        <ele>83.9</ele>
        <time>2025-01-10T09:52:15.000Z</time>
      </trkpt>
      <trkpt lat="43.61454" lon="6.83807">
        <ele>83.9</ele>
        <time>2025-01-10T09:52:14.000Z</time>
      </trkpt>
      <trkpt lat="43.61454" lon="6.83807">
        <ele>83.9</ele>
        <time>2025-01-10T09:52:13.000Z</time>
      </trkpt>
      <trkpt lat="43.61454" lon="6.83807">
        <ele>83.8</ele>
        <time>2025-01-10T09:52:12.000Z</time>
      </trkpt>
      <trkpt lat="43.61454" lon="6.83807">
        <ele>83.8</ele>
        <time>2025-01-10T09:52:11.000Z</time>
      </trkpt>
      <trkpt lat="43.61454" lon="6.83807">
        <ele>83.8</ele>
        <time>2025-01-10T09:52:10.000Z</time>
      </trkpt>
      <trkpt lat="43.61454" lon="6.83807">
        <ele>83.8</ele>
        <time>2025-01-10T09:52:09.000Z</time>
      </trkpt>
      <trkpt lat="43.61454" lon="6.83807">
        <ele>83.8</ele>
        <time>2025-01-10T09:52:08.000Z</time>
      </trkpt>
      <trkpt lat="43.61454" lon="6.83807">
        <ele>83.8</ele>
        <time>2025-01-10T09:52:07.000Z</time>
      </trkpt>
      <trkpt lat="43.61454" lon="6.83807">
        <ele>83.8</ele>
        <time>2025-01-10T09:52:06.000Z</time>
      </trkpt>
      <trkpt lat="43.61454" lon="6.83807">
        <ele>83.8</ele>
        <time>2025-01-10T09:52:05.000Z</time>
      </trkpt>
      <trkpt lat="43.61454" lon="6.83807">
        <ele>83.8</ele>
        <time>2025-01-10T09:52:04.000Z</time>
      </trkpt>
      <trkpt lat="43.61454" lon="6.83807">
        <ele>83.8</ele>
        <time>2025-01-10T09:52:03.000Z</time>
      </trkpt>
      <trkpt lat="43.61454" lon="6.83807">
        <ele>83.8</ele>
        <time>2025-01-10T09:52:02.000Z</time>
      </trkpt>
      <trkpt lat="43.61454" lon="6.83807">
        <ele>83.8</ele>
        <time>2025-01-10T09:52:01.000Z</time>
      </trkpt>
      <trkpt lat="43.61454" lon="6.83807">
        <ele>83.8</ele>
        <time>2025-01-10T09:52:00.000Z</time>
      </trkpt>
      <trkpt lat="43.61454" lon="6.83807">
        <ele>83.8</ele>
        <time>2025-01-10T09:51:59.000Z</time>
      </trkpt>
      <trkpt lat="43.61454" lon="6.83807">
        <ele>83.8</ele>
        <time>2025-01-10T09:51:58.000Z</time>
      </trkpt>
      <trkpt lat="43.61454" lon="6.83807">
        <ele>83.8</ele>
        <time>2025-01-10T09:51:57.000Z</time>
      </trkpt>
      <trkpt lat="43.61454" lon="6.83807">
        <ele>83.8</ele>
        <time>2025-01-10T09:51:56.000Z</time>
      </trkpt>
      <trkpt lat="43.61454" lon="6.83807">
        <ele>83.8</ele>
        <time>2025-01-10T09:51:55.000Z</time>
      </trkpt>
      <trkpt lat="43.61454" lon="6.83807">
        <ele>83.8</ele>
        <time>2025-01-10T09:51:54.000Z</time>
      </trkpt>
      <trkpt lat="43.61454" lon="6.83807">
        <ele>83.8</ele>
        <time>2025-01-10T09:51:53.000Z</time>
      </trkpt>
      <trkpt lat="43.61454" lon="6.83807">
        <ele>83.8</ele>
        <time>2025-01-10T09:51:52.000Z</time>
      </trkpt>
      <trkpt lat="43.61454" lon="6.83807">
        <ele>83.8</ele>
        <time>2025-01-10T09:51:51.000Z</time>
      </trkpt>
      <trkpt lat="43.61454" lon="6.83807">
        <ele>83.8</ele>
        <time>2025-01-10T09:51:50.000Z</time>
      </trkpt>
      <trkpt lat="43.61454" lon="6.83807">
        <ele>83.8</ele>
        <time>2025-01-10T09:51:49.000Z</time>
      </trkpt>
      <trkpt lat="43.61454" lon="6.83807">
        <ele>83.8</ele>
        <time>2025-01-10T09:51:48.000Z</time>
      </trkpt>
      <trkpt lat="43.61454" lon="6.83807">
        <ele>83.8</ele>
        <time>2025-01-10T09:51:47.000Z</time>
      </trkpt>
      <trkpt lat="43.61454" lon="6.83807">
        <ele>83.8</ele>
        <time>2025-01-10T09:51:46.000Z</time>
      </trkpt>
      <trkpt lat="43.61454" lon="6.83807">
        <ele>83.8</ele>
        <time>2025-01-10T09:51:45.000Z</time>
      </trkpt>
      <trkpt lat="43.61454" lon="6.83807">
        <ele>83.8</ele>
        <time>2025-01-10T09:51:44.000Z</time>
      </trkpt>
      <trkpt lat="43.61454" lon="6.83807">
        <ele>83.8</ele>
        <time>2025-01-10T09:51:43.000Z</time>
      </trkpt>
      <trkpt lat="43.61454" lon="6.83807">
        <ele>83.8</ele>
        <time>2025-01-10T09:51:42.000Z</time>
      </trkpt>
      <trkpt lat="43.61454" lon="6.83807">
        <ele>83.8</ele>
        <time>2025-01-10T09:51:41.000Z</time>
      </trkpt>
      <trkpt lat="43.61454" lon="6.83807">
        <ele>83.8</ele>
        <time>2025-01-10T09:51:40.000Z</time>
      </trkpt>
      <trkpt lat="43.61454" lon="6.83807">
        <ele>83.8</ele>
        <time>2025-01-10T09:51:39.000Z</time>
      </trkpt>
      <trkpt lat="43.61454" lon="6.83807">
        <ele>83.8</ele>
        <time>2025-01-10T09:51:38.000Z</time>
      </trkpt>
      <trkpt lat="43.61454" lon="6.83807">
        <ele>83.8</ele>
        <time>2025-01-10T09:51:37.000Z</time>
      </trkpt>
      <trkpt lat="43.61454" lon="6.83807">
        <ele>83.8</ele>
        <time>2025-01-10T09:51:36.000Z</time>
      </trkpt>
      <trkpt lat="43.61454" lon="6.83807">
        <ele>83.8</ele>
        <time>2025-01-10T09:51:35.000Z</time>
      </trkpt>
      <trkpt lat="43.61454" lon="6.83807">
        <ele>83.8</ele>
        <time>2025-01-10T09:51:34.000Z</time>
      </trkpt>
      <trkpt lat="43.61454" lon="6.83807">
        <ele>83.8</ele>
        <time>2025-01-10T09:51:33.000Z</time>
      </trkpt>
      <trkpt lat="43.61454" lon="6.83807">
        <ele>83.8</ele>
        <time>2025-01-10T09:51:32.000Z</time>
      </trkpt>
      <trkpt lat="43.61454" lon="6.83807">
        <ele>83.7</ele>
        <time>2025-01-10T09:51:31.000Z</time>
      </trkpt>
      <trkpt lat="43.61454" lon="6.83807">
        <ele>83.7</ele>
        <time>2025-01-10T09:51:30.000Z</time>
      </trkpt>
      <trkpt lat="43.61454" lon="6.83807">
        <ele>83.7</ele>
        <time>2025-01-10T09:51:29.000Z</time>
      </trkpt>
      <trkpt lat="43.61454" lon="6.83807">
        <ele>83.7</ele>
        <time>2025-01-10T09:51:28.000Z</time>
      </trkpt>
      <trkpt lat="43.61454" lon="6.83808">
        <ele>83.7</ele>
        <time>2025-01-10T09:51:27.000Z</time>
      </trkpt>
      <trkpt lat="43.61454" lon="6.83808">
        <ele>83.7</ele>
        <time>2025-01-10T09:51:26.000Z</time>
      </trkpt>
      <trkpt lat="43.61454" lon="6.83808">
        <ele>83.7</ele>
        <time>2025-01-10T09:51:25.000Z</time>
      </trkpt>
      <trkpt lat="43.61454" lon="6.83808">
        <ele>83.7</ele>
        <time>2025-01-10T09:51:24.000Z</time>
      </trkpt>
      <trkpt lat="43.61454" lon="6.83808">
        <ele>83.7</ele>
        <time>2025-01-10T09:51:23.000Z</time>
      </trkpt>
      <trkpt lat="43.61454" lon="6.83808">
        <ele>83.7</ele>
        <time>2025-01-10T09:51:22.000Z</time>
      </trkpt>
      <trkpt lat="43.61454" lon="6.83808">
        <ele>83.7</ele>
        <time>2025-01-10T09:51:21.000Z</time>
      </trkpt>
      <trkpt lat="43.61454" lon="6.83808">
        <ele>83.7</ele>
        <time>2025-01-10T09:51:20.000Z</time>
      </trkpt>
      <trkpt lat="43.61454" lon="6.83808">
        <ele>83.7</ele>
        <time>2025-01-10T09:51:19.000Z</time>
      </trkpt>
      <trkpt lat="43.61454" lon="6.83808">
        <ele>83.7</ele>
        <time>2025-01-10T09:51:18.000Z</time>
      </trkpt>
      <trkpt lat="43.61454" lon="6.83808">
        <ele>83.7</ele>
        <time>2025-01-10T09:51:17.000Z</time>
      </trkpt>
      <trkpt lat="43.61454" lon="6.83808">
        <ele>83.7</ele>
        <time>2025-01-10T09:51:16.000Z</time>
      </trkpt>
      <trkpt lat="43.61454" lon="6.83808">
        <ele>83.7</ele>
        <time>2025-01-10T09:51:15.000Z</time>
      </trkpt>
      <trkpt lat="43.61454" lon="6.83808">
        <ele>83.7</ele>
        <time>2025-01-10T09:51:14.000Z</time>
      </trkpt>
      <trkpt lat="43.61454" lon="6.83808">
        <ele>83.7</ele>
        <time>2025-01-10T09:51:13.000Z</time>
      </trkpt>
      <trkpt lat="43.61454" lon="6.83808">
        <ele>83.7</ele>
        <time>2025-01-10T09:51:12.000Z</time>
      </trkpt>
      <trkpt lat="43.61454" lon="6.83808">
        <ele>83.7</ele>
        <time>2025-01-10T09:51:11.000Z</time>
      </trkpt>
      <trkpt lat="43.61454" lon="6.83808">
        <ele>83.7</ele>
        <time>2025-01-10T09:51:10.000Z</time>
      </trkpt>
      <trkpt lat="43.61454" lon="6.83808">
        <ele>83.7</ele>
        <time>2025-01-10T09:51:09.000Z</time>
      </trkpt>
      <trkpt lat="43.61454" lon="6.83808">
        <ele>83.7</ele>
        <time>2025-01-10T09:51:08.000Z</time>
      </trkpt>
      <trkpt lat="43.61454" lon="6.83808">
        <ele>83.7</ele>
        <time>2025-01-10T09:51:07.000Z</time>
      </trkpt>
      <trkpt lat="43.61454" lon="6.83808">
        <ele>83.7</ele>
        <time>2025-01-10T09:51:06.000Z</time>
      </trkpt>
      <trkpt lat="43.61454" lon="6.83808">
        <ele>83.7</ele>
        <time>2025-01-10T09:51:05.000Z</time>
      </trkpt>
      <trkpt lat="43.61454" lon="6.83808">
        <ele>83.7</ele>
        <time>2025-01-10T09:51:04.000Z</time>
      </trkpt>
      <trkpt lat="43.61454" lon="6.83808">
        <ele>83.7</ele>
        <time>2025-01-10T09:51:03.000Z</time>
      </trkpt>
      <trkpt lat="43.61454" lon="6.83808">
        <ele>83.7</ele>
        <time>2025-01-10T09:51:02.000Z</time>
      </trkpt>
      <trkpt lat="43.61454" lon="6.83808">
        <ele>83.7</ele>
        <time>2025-01-10T09:51:01.000Z</time>
      </trkpt>
      <trkpt lat="43.61454" lon="6.83808">
        <ele>83.7</ele>
        <time>2025-01-10T09:51:00.000Z</time>
      </trkpt>
      <trkpt lat="43.61454" lon="6.83808">
        <ele>83.7</ele>
        <time>2025-01-10T09:50:59.000Z</time>
      </trkpt>
      <trkpt lat="43.61454" lon="6.83808">
        <ele>83.7</ele>
        <time>2025-01-10T09:50:58.000Z</time>
      </trkpt>
      <trkpt lat="43.61454" lon="6.83808">
        <ele>83.7</ele>
        <time>2025-01-10T09:50:57.000Z</time>
      </trkpt>
      <trkpt lat="43.61454" lon="6.83808">
        <ele>83.7</ele>
        <time>2025-01-10T09:50:56.000Z</time>
      </trkpt>
      <trkpt lat="43.61454" lon="6.83808">
        <ele>83.6</ele>
        <time>2025-01-10T09:50:55.000Z</time>
      </trkpt>
      <trkpt lat="43.61454" lon="6.83808">
        <ele>83.6</ele>
        <time>2025-01-10T09:50:54.000Z</time>
      </trkpt>
      <trkpt lat="43.61454" lon="6.83808">
        <ele>83.6</ele>
        <time>2025-01-10T09:50:53.000Z</time>
      </trkpt>
      <trkpt lat="43.61454" lon="6.83808">
        <ele>83.6</ele>
        <time>2025-01-10T09:50:52.000Z</time>
      </trkpt>
      <trkpt lat="43.61454" lon="6.83808">
        <ele>83.6</ele>
        <time>2025-01-10T09:50:51.000Z</time>
      </trkpt>
      <trkpt lat="43.61454" lon="6.83808">
        <ele>83.6</ele>
        <time>2025-01-10T09:50:50.000Z</time>
      </trkpt>
      <trkpt lat="43.61454" lon="6.83808">
        <ele>83.6</ele>
        <time>2025-01-10T09:50:49.000Z</time>
      </trkpt>
      <trkpt lat="43.61453" lon="6.83808">
        <ele>83.6</ele>
        <time>2025-01-10T09:50:48.000Z</time>
      </trkpt>
      <trkpt lat="43.61453" lon="6.83808">
        <ele>83.6</ele>
        <time>2025-01-10T09:50:47.000Z</time>
      </trkpt>
      <trkpt lat="43.61453" lon="6.83808">
        <ele>83.6</ele>
        <time>2025-01-10T09:50:46.000Z</time>
      </trkpt>
      <trkpt lat="43.61453" lon="6.83808">
        <ele>83.6</ele>
        <time>2025-01-10T09:50:45.000Z</time>
      </trkpt>
      <trkpt lat="43.61453" lon="6.83808">
        <ele>83.6</ele>
        <time>2025-01-10T09:50:44.000Z</time>
      </trkpt>
      <trkpt lat="43.61453" lon="6.83808">
        <ele>83.6</ele>
        <time>2025-01-10T09:50:43.000Z</time>
      </trkpt>
      <trkpt lat="43.61453" lon="6.83807">
        <ele>83.6</ele>
        <time>2025-01-10T09:50:42.000Z</time>
      </trkpt>
      <trkpt lat="43.61453" lon="6.83807">
        <ele>83.6</ele>
        <time>2025-01-10T09:50:41.000Z</time>
      </trkpt>
      <trkpt lat="43.61453" lon="6.83807">
        <ele>83.6</ele>
        <time>2025-01-10T09:50:40.000Z</time>
      </trkpt>
      <trkpt lat="43.61453" lon="6.83807">
        <ele>83.6</ele>
        <time>2025-01-10T09:50:39.000Z</time>
      </trkpt>
      <trkpt lat="43.61453" lon="6.83807">
        <ele>83.6</ele>
        <time>2025-01-10T09:50:38.000Z</time>
      </trkpt>
      <trkpt lat="43.61453" lon="6.83807">
        <ele>83.6</ele>
        <time>2025-01-10T09:50:37.000Z</time>
      </trkpt>
      <trkpt lat="43.61453" lon="6.83807">
        <ele>83.6</ele>
        <time>2025-01-10T09:50:36.000Z</time>
      </trkpt>
      <trkpt lat="43.61453" lon="6.83807">
        <ele>83.6</ele>
        <time>2025-01-10T09:50:35.000Z</time>
      </trkpt>
      <trkpt lat="43.61453" lon="6.83807">
        <ele>83.6</ele>
        <time>2025-01-10T09:50:34.000Z</time>
      </trkpt>
      <trkpt lat="43.61453" lon="6.83807">
        <ele>83.5</ele>
        <time>2025-01-10T09:50:33.000Z</time>
      </trkpt>
      <trkpt lat="43.61453" lon="6.83806">
        <ele>83.5</ele>
        <time>2025-01-10T09:50:32.000Z</time>
      </trkpt>
      <trkpt lat="43.61453" lon="6.83806">
        <ele>83.5</ele>
        <time>2025-01-10T09:50:31.000Z</time>
      </trkpt>
      <trkpt lat="43.61453" lon="6.83806">
        <ele>83.5</ele>
        <time>2025-01-10T09:50:30.000Z</time>
      </trkpt>
      <trkpt lat="43.61453" lon="6.83806">
        <ele>83.5</ele>
        <time>2025-01-10T09:50:29.000Z</time>
      </trkpt>
      <trkpt lat="43.61453" lon="6.83805">
        <ele>83.5</ele>
        <time>2025-01-10T09:50:28.000Z</time>
      </trkpt>
      <trkpt lat="43.61453" lon="6.83805">
        <ele>83.5</ele>
        <time>2025-01-10T09:50:27.000Z</time>
      </trkpt>
      <trkpt lat="43.61453" lon="6.83805">
        <ele>83.5</ele>
        <time>2025-01-10T09:50:26.000Z</time>
      </trkpt>
      <trkpt lat="43.61453" lon="6.83805">
        <ele>83.5</ele>
        <time>2025-01-10T09:50:25.000Z</time>
      </trkpt>
      <trkpt lat="43.61453" lon="6.83805">
        <ele>83.5</ele>
        <time>2025-01-10T09:50:24.000Z</time>
      </trkpt>
      <trkpt lat="43.61453" lon="6.83805">
        <ele>83.5</ele>
        <time>2025-01-10T09:50:23.000Z</time>
      </trkpt>
      <trkpt lat="43.61453" lon="6.83805">
        <ele>83.5</ele>
        <time>2025-01-10T09:50:22.000Z</time>
      </trkpt>
      <trkpt lat="43.61453" lon="6.83805">
        <ele>83.5</ele>
        <time>2025-01-10T09:50:21.000Z</time>
      </trkpt>
      <trkpt lat="43.61453" lon="6.83805">
        <ele>83.5</ele>
        <time>2025-01-10T09:50:20.000Z</time>
      </trkpt>
      <trkpt lat="43.61453" lon="6.83805">
        <ele>83.5</ele>
        <time>2025-01-10T09:50:19.000Z</time>
      </trkpt>
      <trkpt lat="43.61453" lon="6.83805">
        <ele>83.5</ele>
        <time>2025-01-10T09:50:18.000Z</time>
      </trkpt>
      <trkpt lat="43.61453" lon="6.83804">
        <ele>83.4</ele>
        <time>2025-01-10T09:50:17.000Z</time>
      </trkpt>
      <trkpt lat="43.61453" lon="6.83804">
        <ele>83.4</ele>
        <time>2025-01-10T09:50:16.000Z</time>
      </trkpt>
      <trkpt lat="43.61453" lon="6.83804">
        <ele>83.4</ele>
        <time>2025-01-10T09:50:15.000Z</time>
      </trkpt>
      <trkpt lat="43.61452" lon="6.83804">
        <ele>83.4</ele>
        <time>2025-01-10T09:50:14.000Z</time>
      </trkpt>
      <trkpt lat="43.61451" lon="6.83804">
        <ele>83.3</ele>
        <time>2025-01-10T09:50:13.000Z</time>
      </trkpt>
      <trkpt lat="43.61451" lon="6.83804">
        <ele>83.3</ele>
        <time>2025-01-10T09:50:12.000Z</time>
      </trkpt>
      <trkpt lat="43.6145" lon="6.83804">
        <ele>83.3</ele>
        <time>2025-01-10T09:50:11.000Z</time>
      </trkpt>
      <trkpt lat="43.6145" lon="6.83804">
        <ele>83.2</ele>
        <time>2025-01-10T09:50:10.000Z</time>
      </trkpt>
      <trkpt lat="43.6145" lon="6.83804">
        <ele>83.2</ele>
        <time>2025-01-10T09:50:09.000Z</time>
      </trkpt>
      <trkpt lat="43.6145" lon="6.83804">
        <ele>83.2</ele>
        <time>2025-01-10T09:50:08.000Z</time>
      </trkpt>
      <trkpt lat="43.6145" lon="6.83804">
        <ele>83.2</ele>
        <time>2025-01-10T09:50:07.000Z</time>
      </trkpt>
      <trkpt lat="43.61449" lon="6.83804">
        <ele>83.2</ele>
        <time>2025-01-10T09:50:06.000Z</time>
      </trkpt>
      <trkpt lat="43.61449" lon="6.83804">
        <ele>83.2</ele>
        <time>2025-01-10T09:50:05.000Z</time>
      </trkpt>
      <trkpt lat="43.61449" lon="6.83804">
        <ele>83.2</ele>
        <time>2025-01-10T09:50:04.000Z</time>
      </trkpt>
      <trkpt lat="43.61449" lon="6.83804">
        <ele>83.2</ele>
        <time>2025-01-10T09:50:03.000Z</time>
      </trkpt>
      <trkpt lat="43.61449" lon="6.83803">
        <ele>83.2</ele>
        <time>2025-01-10T09:50:02.000Z</time>
      </trkpt>
      <trkpt lat="43.61449" lon="6.83803">
        <ele>83.2</ele>
        <time>2025-01-10T09:50:01.000Z</time>
      </trkpt>
      <trkpt lat="43.61449" lon="6.83803">
        <ele>83.2</ele>
        <time>2025-01-10T09:50:00.000Z</time>
      </trkpt>
      <trkpt lat="43.61449" lon="6.83803">
        <ele>83.2</ele>
        <time>2025-01-10T09:49:59.000Z</time>
      </trkpt>
      <trkpt lat="43.61449" lon="6.83803">
        <ele>83.2</ele>
        <time>2025-01-10T09:49:58.000Z</time>
      </trkpt>
      <trkpt lat="43.61449" lon="6.83803">
        <ele>83.2</ele>
        <time>2025-01-10T09:49:57.000Z</time>
      </trkpt>
      <trkpt lat="43.61449" lon="6.83803">
        <ele>83.2</ele>
        <time>2025-01-10T09:49:56.000Z</time>
      </trkpt>
      <trkpt lat="43.61449" lon="6.83803">
        <ele>83.2</ele>
        <time>2025-01-10T09:49:55.000Z</time>
      </trkpt>
      <trkpt lat="43.61449" lon="6.83803">
        <ele>83.2</ele>
        <time>2025-01-10T09:49:54.000Z</time>
      </trkpt>
      <trkpt lat="43.61449" lon="6.83803">
        <ele>83.2</ele>
        <time>2025-01-10T09:49:53.000Z</time>
      </trkpt>
      <trkpt lat="43.61449" lon="6.83803">
        <ele>83.2</ele>
        <time>2025-01-10T09:49:52.000Z</time>
      </trkpt>
      <trkpt lat="43.61449" lon="6.83803">
        <ele>83.2</ele>
        <time>2025-01-10T09:49:51.000Z</time>
      </trkpt>
      <trkpt lat="43.61449" lon="6.83803">
        <ele>83.2</ele>
        <time>2025-01-10T09:49:50.000Z</time>
      </trkpt>
      <trkpt lat="43.61449" lon="6.83803">
        <ele>83.2</ele>
        <time>2025-01-10T09:49:49.000Z</time>
      </trkpt>
      <trkpt lat="43.61449" lon="6.83803">
        <ele>83.2</ele>
        <time>2025-01-10T09:49:48.000Z</time>
      </trkpt>
      <trkpt lat="43.61449" lon="6.83803">
        <ele>83.2</ele>
        <time>2025-01-10T09:49:47.000Z</time>
      </trkpt>
      <trkpt lat="43.61449" lon="6.83803">
        <ele>83.2</ele>
        <time>2025-01-10T09:49:46.000Z</time>
      </trkpt>
      <trkpt lat="43.61449" lon="6.83804">
        <ele>83.2</ele>
        <time>2025-01-10T09:49:45.000Z</time>
      </trkpt>
      <trkpt lat="43.61449" lon="6.83804">
        <ele>83.1</ele>
        <time>2025-01-10T09:49:44.000Z</time>
      </trkpt>
      <trkpt lat="43.61449" lon="6.83804">
        <ele>83.1</ele>
        <time>2025-01-10T09:49:43.000Z</time>
      </trkpt>
      <trkpt lat="43.61449" lon="6.83804">
        <ele>83.1</ele>
        <time>2025-01-10T09:49:42.000Z</time>
      </trkpt>
      <trkpt lat="43.61449" lon="6.83804">
        <ele>83.1</ele>
        <time>2025-01-10T09:49:41.000Z</time>
      </trkpt>
      <trkpt lat="43.61449" lon="6.83804">
        <ele>83.1</ele>
        <time>2025-01-10T09:49:40.000Z</time>
      </trkpt>
      <trkpt lat="43.61449" lon="6.83804">
        <ele>83.1</ele>
        <time>2025-01-10T09:49:39.000Z</time>
      </trkpt>
      <trkpt lat="43.61449" lon="6.83804">
        <ele>83.1</ele>
        <time>2025-01-10T09:49:38.000Z</time>
      </trkpt>
      <trkpt lat="43.61449" lon="6.83804">
        <ele>83.1</ele>
        <time>2025-01-10T09:49:37.000Z</time>
      </trkpt>
      <trkpt lat="43.61449" lon="6.83804">
        <ele>83.1</ele>
        <time>2025-01-10T09:49:36.000Z</time>
      </trkpt>
      <trkpt lat="43.6145" lon="6.83804">
        <ele>83.1</ele>
        <time>2025-01-10T09:49:35.000Z</time>
      </trkpt>
      <trkpt lat="43.6145" lon="6.83804">
        <ele>83.1</ele>
        <time>2025-01-10T09:49:34.000Z</time>
      </trkpt>
      <trkpt lat="43.6145" lon="6.83804">
        <ele>83.1</ele>
        <time>2025-01-10T09:49:33.000Z</time>
      </trkpt>
      <trkpt lat="43.6145" lon="6.83804">
        <ele>83.1</ele>
        <time>2025-01-10T09:49:32.000Z</time>
      </trkpt>
      <trkpt lat="43.6145" lon="6.83804">
        <ele>83.1</ele>
        <time>2025-01-10T09:49:31.000Z</time>
      </trkpt>
      <trkpt lat="43.6145" lon="6.83804">
        <ele>83.1</ele>
        <time>2025-01-10T09:49:30.000Z</time>
      </trkpt>
      <trkpt lat="43.6145" lon="6.83804">
        <ele>83.1</ele>
        <time>2025-01-10T09:49:29.000Z</time>
      </trkpt>
      <trkpt lat="43.6145" lon="6.83804">
        <ele>83.1</ele>
        <time>2025-01-10T09:49:28.000Z</time>
      </trkpt>
      <trkpt lat="43.6145" lon="6.83804">
        <ele>83.1</ele>
        <time>2025-01-10T09:49:27.000Z</time>
      </trkpt>
      <trkpt lat="43.6145" lon="6.83804">
        <ele>83.1</ele>
        <time>2025-01-10T09:49:26.000Z</time>
      </trkpt>
      <trkpt lat="43.6145" lon="6.83804">
        <ele>83.1</ele>
        <time>2025-01-10T09:49:25.000Z</time>
      </trkpt>
      <trkpt lat="43.6145" lon="6.83805">
        <ele>83.1</ele>
        <time>2025-01-10T09:49:24.000Z</time>
      </trkpt>
      <trkpt lat="43.6145" lon="6.83805">
        <ele>83.1</ele>
        <time>2025-01-10T09:49:23.000Z</time>
      </trkpt>
      <trkpt lat="43.6145" lon="6.83806">
        <ele>83</ele>
        <time>2025-01-10T09:49:22.000Z</time>
      </trkpt>
      <trkpt lat="43.6145" lon="6.83806">
        <ele>83</ele>
        <time>2025-01-10T09:49:21.000Z</time>
      </trkpt>
      <trkpt lat="43.6145" lon="6.83806">
        <ele>83</ele>
        <time>2025-01-10T09:49:20.000Z</time>
      </trkpt>
      <trkpt lat="43.6145" lon="6.83806">
        <ele>83</ele>
        <time>2025-01-10T09:49:19.000Z</time>
      </trkpt>
      <trkpt lat="43.6145" lon="6.83806">
        <ele>83</ele>
        <time>2025-01-10T09:49:18.000Z</time>
      </trkpt>
      <trkpt lat="43.6145" lon="6.83806">
        <ele>83</ele>
        <time>2025-01-10T09:49:17.000Z</time>
      </trkpt>
      <trkpt lat="43.6145" lon="6.83806">
        <ele>83</ele>
        <time>2025-01-10T09:49:16.000Z</time>
      </trkpt>
      <trkpt lat="43.6145" lon="6.83807">
        <ele>83</ele>
        <time>2025-01-10T09:49:15.000Z</time>
      </trkpt>
      <trkpt lat="43.6145" lon="6.83807">
        <ele>83</ele>
        <time>2025-01-10T09:49:14.000Z</time>
      </trkpt>
      <trkpt lat="43.6145" lon="6.83807">
        <ele>83</ele>
        <time>2025-01-10T09:49:13.000Z</time>
      </trkpt>
      <trkpt lat="43.6145" lon="6.83807">
        <ele>83</ele>
        <time>2025-01-10T09:49:12.000Z</time>
      </trkpt>
      <trkpt lat="43.6145" lon="6.83808">
        <ele>82.9</ele>
        <time>2025-01-10T09:49:11.000Z</time>
      </trkpt>
      <trkpt lat="43.61451" lon="6.83809">
        <ele>82.9</ele>
        <time>2025-01-10T09:49:10.000Z</time>
      </trkpt>
      <trkpt lat="43.61451" lon="6.8381">
        <ele>82.8</ele>
        <time>2025-01-10T09:49:09.000Z</time>
      </trkpt>
      <trkpt lat="43.61452" lon="6.83811">
        <ele>82.8</ele>
        <time>2025-01-10T09:49:08.000Z</time>
      </trkpt>
      <trkpt lat="43.61452" lon="6.83812">
        <ele>82.7</ele>
        <time>2025-01-10T09:49:07.000Z</time>
      </trkpt>
      <trkpt lat="43.61452" lon="6.83812">
        <ele>82.7</ele>
        <time>2025-01-10T09:49:06.000Z</time>
      </trkpt>
      <trkpt lat="43.61452" lon="6.83812">
        <ele>82.7</ele>
        <time>2025-01-10T09:49:05.000Z</time>
      </trkpt>
      <trkpt lat="43.61452" lon="6.83812">
        <ele>82.7</ele>
        <time>2025-01-10T09:49:04.000Z</time>
      </trkpt>
      <trkpt lat="43.61452" lon="6.83812">
        <ele>82.7</ele>
        <time>2025-01-10T09:49:03.000Z</time>
      </trkpt>
      <trkpt lat="43.61452" lon="6.83812">
        <ele>82.7</ele>
        <time>2025-01-10T09:49:02.000Z</time>
      </trkpt>
      <trkpt lat="43.61452" lon="6.83812">
        <ele>82.7</ele>
        <time>2025-01-10T09:49:01.000Z</time>
      </trkpt>
      <trkpt lat="43.61452" lon="6.83812">
        <ele>82.7</ele>
        <time>2025-01-10T09:49:00.000Z</time>
      </trkpt>
      <trkpt lat="43.61452" lon="6.83812">
        <ele>82.7</ele>
        <time>2025-01-10T09:48:59.000Z</time>
      </trkpt>
      <trkpt lat="43.61452" lon="6.83812">
        <ele>82.7</ele>
        <time>2025-01-10T09:48:58.000Z</time>
      </trkpt>
      <trkpt lat="43.61452" lon="6.83812">
        <ele>82.7</ele>
        <time>2025-01-10T09:48:57.000Z</time>
      </trkpt>
      <trkpt lat="43.61452" lon="6.83812">
        <ele>82.7</ele>
        <time>2025-01-10T09:48:56.000Z</time>
      </trkpt>
      <trkpt lat="43.61452" lon="6.83812">
        <ele>82.7</ele>
        <time>2025-01-10T09:48:55.000Z</time>
      </trkpt>
      <trkpt lat="43.61452" lon="6.83812">
        <ele>82.7</ele>
        <time>2025-01-10T09:48:54.000Z</time>
      </trkpt>
      <trkpt lat="43.61452" lon="6.83812">
        <ele>82.7</ele>
        <time>2025-01-10T09:48:53.000Z</time>
      </trkpt>
      <trkpt lat="43.61452" lon="6.83812">
        <ele>82.7</ele>
        <time>2025-01-10T09:48:52.000Z</time>
      </trkpt>
      <trkpt lat="43.61452" lon="6.83812">
        <ele>82.7</ele>
        <time>2025-01-10T09:48:51.000Z</time>
      </trkpt>
      <trkpt lat="43.61452" lon="6.83812">
        <ele>82.7</ele>
        <time>2025-01-10T09:48:50.000Z</time>
      </trkpt>
      <trkpt lat="43.61452" lon="6.83812">
        <ele>82.7</ele>
        <time>2025-01-10T09:48:49.000Z</time>
      </trkpt>
      <trkpt lat="43.61452" lon="6.83812">
        <ele>82.6</ele>
        <time>2025-01-10T09:48:48.000Z</time>
      </trkpt>
      <trkpt lat="43.61452" lon="6.83811">
        <ele>82.6</ele>
        <time>2025-01-10T09:48:47.000Z</time>
      </trkpt>
      <trkpt lat="43.61452" lon="6.83811">
        <ele>82.6</ele>
        <time>2025-01-10T09:48:46.000Z</time>
      </trkpt>
      <trkpt lat="43.61452" lon="6.83811">
        <ele>82.6</ele>
        <time>2025-01-10T09:48:45.000Z</time>
      </trkpt>
      <trkpt lat="43.61452" lon="6.8381">
        <ele>82.6</ele>
        <time>2025-01-10T09:48:44.000Z</time>
      </trkpt>
      <trkpt lat="43.61452" lon="6.8381">
        <ele>82.5</ele>
        <time>2025-01-10T09:48:43.000Z</time>
      </trkpt>
      <trkpt lat="43.61451" lon="6.83809">
        <ele>82.5</ele>
        <time>2025-01-10T09:48:42.000Z</time>
      </trkpt>
      <trkpt lat="43.61451" lon="6.83809">
        <ele>82.5</ele>
        <time>2025-01-10T09:48:41.000Z</time>
      </trkpt>
      <trkpt lat="43.61451" lon="6.83809">
        <ele>82.5</ele>
        <time>2025-01-10T09:48:40.000Z</time>
      </trkpt>
      <trkpt lat="43.61451" lon="6.83809">
        <ele>82.5</ele>
        <time>2025-01-10T09:48:39.000Z</time>
      </trkpt>
      <trkpt lat="43.61451" lon="6.83809">
        <ele>82.5</ele>
        <time>2025-01-10T09:48:38.000Z</time>
      </trkpt>
      <trkpt lat="43.61451" lon="6.83809">
        <ele>82.5</ele>
        <time>2025-01-10T09:48:37.000Z</time>
      </trkpt>
      <trkpt lat="43.6145" lon="6.83809">
        <ele>82.5</ele>
        <time>2025-01-10T09:48:36.000Z</time>
      </trkpt>
      <trkpt lat="43.6145" lon="6.83809">
        <ele>82.5</ele>
        <time>2025-01-10T09:48:35.000Z</time>
      </trkpt>
      <trkpt lat="43.6145" lon="6.83809">
        <ele>82.5</ele>
        <time>2025-01-10T09:48:34.000Z</time>
      </trkpt>
      <trkpt lat="43.6145" lon="6.83809">
        <ele>82.5</ele>
        <time>2025-01-10T09:48:33.000Z</time>
      </trkpt>
      <trkpt lat="43.6145" lon="6.83809">
        <ele>82.4</ele>
        <time>2025-01-10T09:48:32.000Z</time>
      </trkpt>
      <trkpt lat="43.6145" lon="6.83809">
        <ele>82.4</ele>
        <time>2025-01-10T09:48:31.000Z</time>
      </trkpt>
      <trkpt lat="43.6145" lon="6.83809">
        <ele>82.4</ele>
        <time>2025-01-10T09:48:30.000Z</time>
      </trkpt>
      <trkpt lat="43.6145" lon="6.83809">
        <ele>82.4</ele>
        <time>2025-01-10T09:48:29.000Z</time>
      </trkpt>
      <trkpt lat="43.6145" lon="6.83809">
        <ele>82.4</ele>
        <time>2025-01-10T09:48:28.000Z</time>
      </trkpt>
      <trkpt lat="43.6145" lon="6.83809">
        <ele>82.4</ele>
        <time>2025-01-10T09:48:27.000Z</time>
      </trkpt>
      <trkpt lat="43.6145" lon="6.83809">
        <ele>82.4</ele>
        <time>2025-01-10T09:48:26.000Z</time>
      </trkpt>
      <trkpt lat="43.6145" lon="6.83809">
        <ele>82.4</ele>
        <time>2025-01-10T09:48:25.000Z</time>
      </trkpt>
      <trkpt lat="43.6145" lon="6.83809">
        <ele>82.4</ele>
        <time>2025-01-10T09:48:24.000Z</time>
      </trkpt>
      <trkpt lat="43.6145" lon="6.83809">
        <ele>82.4</ele>
        <time>2025-01-10T09:48:23.000Z</time>
      </trkpt>
      <trkpt lat="43.6145" lon="6.83809">
        <ele>82.4</ele>
        <time>2025-01-10T09:48:22.000Z</time>
      </trkpt>
      <trkpt lat="43.6145" lon="6.83809">
        <ele>82.4</ele>
        <time>2025-01-10T09:48:21.000Z</time>
      </trkpt>
      <trkpt lat="43.6145" lon="6.83809">
        <ele>82.4</ele>
        <time>2025-01-10T09:48:20.000Z</time>
      </trkpt>
      <trkpt lat="43.6145" lon="6.83809">
        <ele>82.4</ele>
        <time>2025-01-10T09:48:19.000Z</time>
      </trkpt>
      <trkpt lat="43.6145" lon="6.83809">
        <ele>82.4</ele>
        <time>2025-01-10T09:48:18.000Z</time>
      </trkpt>
      <trkpt lat="43.6145" lon="6.83809">
        <ele>82.4</ele>
        <time>2025-01-10T09:48:17.000Z</time>
      </trkpt>
      <trkpt lat="43.6145" lon="6.83809">
        <ele>82.4</ele>
        <time>2025-01-10T09:48:16.000Z</time>
      </trkpt>
      <trkpt lat="43.6145" lon="6.83809">
        <ele>82.4</ele>
        <time>2025-01-10T09:48:15.000Z</time>
      </trkpt>
      <trkpt lat="43.6145" lon="6.83809">
        <ele>82.4</ele>
        <time>2025-01-10T09:48:14.000Z</time>
      </trkpt>
      <trkpt lat="43.6145" lon="6.83809">
        <ele>82.4</ele>
        <time>2025-01-10T09:48:13.000Z</time>
      </trkpt>
      <trkpt lat="43.6145" lon="6.83809">
        <ele>82.4</ele>
        <time>2025-01-10T09:48:12.000Z</time>
      </trkpt>
      <trkpt lat="43.6145" lon="6.83809">
        <ele>82.4</ele>
        <time>2025-01-10T09:48:11.000Z</time>
      </trkpt>
      <trkpt lat="43.6145" lon="6.83809">
        <ele>82.4</ele>
        <time>2025-01-10T09:48:10.000Z</time>
      </trkpt>
      <trkpt lat="43.6145" lon="6.83809">
        <ele>82.4</ele>
        <time>2025-01-10T09:48:09.000Z</time>
      </trkpt>
      <trkpt lat="43.6145" lon="6.83809">
        <ele>82.4</ele>
        <time>2025-01-10T09:48:08.000Z</time>
      </trkpt>
      <trkpt lat="43.6145" lon="6.83809">
        <ele>82.4</ele>
        <time>2025-01-10T09:48:07.000Z</time>
      </trkpt>
      <trkpt lat="43.6145" lon="6.83809">
        <ele>82.4</ele>
        <time>2025-01-10T09:48:06.000Z</time>
      </trkpt>
      <trkpt lat="43.6145" lon="6.83809">
        <ele>82.4</ele>
        <time>2025-01-10T09:48:05.000Z</time>
      </trkpt>
      <trkpt lat="43.6145" lon="6.83809">
        <ele>82.4</ele>
        <time>2025-01-10T09:48:04.000Z</time>
      </trkpt>
      <trkpt lat="43.6145" lon="6.83809">
        <ele>82.4</ele>
        <time>2025-01-10T09:48:03.000Z</time>
      </trkpt>
      <trkpt lat="43.6145" lon="6.83809">
        <ele>82.4</ele>
        <time>2025-01-10T09:48:02.000Z</time>
      </trkpt>
      <trkpt lat="43.6145" lon="6.83809">
        <ele>82.4</ele>
        <time>2025-01-10T09:48:01.000Z</time>
      </trkpt>
      <trkpt lat="43.61449" lon="6.83809">
        <ele>82.3</ele>
        <time>2025-01-10T09:48:00.000Z</time>
      </trkpt>
      <trkpt lat="43.61449" lon="6.83809">
        <ele>82.3</ele>
        <time>2025-01-10T09:47:59.000Z</time>
      </trkpt>
      <trkpt lat="43.61449" lon="6.83809">
        <ele>82.3</ele>
        <time>2025-01-10T09:47:58.000Z</time>
      </trkpt>
      <trkpt lat="43.61449" lon="6.83809">
        <ele>82.3</ele>
        <time>2025-01-10T09:47:57.000Z</time>
      </trkpt>
      <trkpt lat="43.61449" lon="6.83809">
        <ele>82.3</ele>
        <time>2025-01-10T09:47:56.000Z</time>
      </trkpt>
      <trkpt lat="43.61449" lon="6.83809">
        <ele>82.3</ele>
        <time>2025-01-10T09:47:55.000Z</time>
      </trkpt>
      <trkpt lat="43.61449" lon="6.83809">
        <ele>82.3</ele>
        <time>2025-01-10T09:47:54.000Z</time>
      </trkpt>
      <trkpt lat="43.61449" lon="6.83809">
        <ele>82.3</ele>
        <time>2025-01-10T09:47:53.000Z</time>
      </trkpt>
      <trkpt lat="43.61449" lon="6.83809">
        <ele>82.3</ele>
        <time>2025-01-10T09:47:52.000Z</time>
      </trkpt>
      <trkpt lat="43.6145" lon="6.83809">
        <ele>82.3</ele>
        <time>2025-01-10T09:47:51.000Z</time>
      </trkpt>
      <trkpt lat="43.61451" lon="6.83809">
        <ele>82.3</ele>
        <time>2025-01-10T09:47:50.000Z</time>
      </trkpt>
      <trkpt lat="43.61451" lon="6.83808">
        <ele>82.2</ele>
        <time>2025-01-10T09:47:49.000Z</time>
      </trkpt>
      <trkpt lat="43.61452" lon="6.83808">
        <ele>82.2</ele>
        <time>2025-01-10T09:47:48.000Z</time>
      </trkpt>
      <trkpt lat="43.61452" lon="6.83808">
        <ele>82.2</ele>
        <time>2025-01-10T09:47:47.000Z</time>
      </trkpt>
      <trkpt lat="43.61452" lon="6.83808">
        <ele>82.1</ele>
        <time>2025-01-10T09:47:46.000Z</time>
      </trkpt>
      <trkpt lat="43.61452" lon="6.83808">
        <ele>82.1</ele>
        <time>2025-01-10T09:47:45.000Z</time>
      </trkpt>
      <trkpt lat="43.61453" lon="6.83808">
        <ele>82.1</ele>
        <time>2025-01-10T09:47:44.000Z</time>
      </trkpt>
      <trkpt lat="43.61453" lon="6.83808">
        <ele>82</ele>
        <time>2025-01-10T09:47:43.000Z</time>
      </trkpt>
      <trkpt lat="43.61454" lon="6.83807">
        <ele>82</ele>
        <time>2025-01-10T09:47:42.000Z</time>
      </trkpt>
      <trkpt lat="43.61454" lon="6.83807">
        <ele>82</ele>
        <time>2025-01-10T09:47:41.000Z</time>
      </trkpt>
      <trkpt lat="43.61454" lon="6.83807">
        <ele>82</ele>
        <time>2025-01-10T09:47:40.000Z</time>
      </trkpt>
      <trkpt lat="43.61453" lon="6.83806">
        <ele>82</ele>
        <time>2025-01-10T09:47:39.000Z</time>
      </trkpt>
      <trkpt lat="43.61453" lon="6.83804">
        <ele>81.9</ele>
        <time>2025-01-10T09:47:38.000Z</time>
      </trkpt>
      <trkpt lat="43.61453" lon="6.83803">
        <ele>81.9</ele>
        <time>2025-01-10T09:47:37.000Z</time>
      </trkpt>
      <trkpt lat="43.61453" lon="6.83802">
        <ele>81.8</ele>
        <time>2025-01-10T09:47:36.000Z</time>
      </trkpt>
      <trkpt lat="43.61453" lon="6.83801">
        <ele>81.8</ele>
        <time>2025-01-10T09:47:35.000Z</time>
      </trkpt>
      <trkpt lat="43.61454" lon="6.838">
        <ele>81.7</ele>
        <time>2025-01-10T09:47:34.000Z</time>
      </trkpt>
      <trkpt lat="43.61454" lon="6.83799">
        <ele>81.7</ele>
        <time>2025-01-10T09:47:33.000Z</time>
      </trkpt>
      <trkpt lat="43.61454" lon="6.83798">
        <ele>81.7</ele>
        <time>2025-01-10T09:47:32.000Z</time>
      </trkpt>
      <trkpt lat="43.61455" lon="6.83796">
        <ele>81.6</ele>
        <time>2025-01-10T09:47:31.000Z</time>
      </trkpt>
      <trkpt lat="43.61455" lon="6.83795">
        <ele>81.6</ele>
        <time>2025-01-10T09:47:30.000Z</time>
      </trkpt>
      <trkpt lat="43.61456" lon="6.83795">
        <ele>81.6</ele>
        <time>2025-01-10T09:47:29.000Z</time>
      </trkpt>
      <trkpt lat="43.61456" lon="6.83794">
        <ele>81.6</ele>
        <time>2025-01-10T09:47:28.000Z</time>
      </trkpt>
      <trkpt lat="43.61456" lon="6.83794">
        <ele>81.5</ele>
        <time>2025-01-10T09:47:27.000Z</time>
      </trkpt>
      <trkpt lat="43.61456" lon="6.83793">
        <ele>81.5</ele>
        <time>2025-01-10T09:47:26.000Z</time>
      </trkpt>
      <trkpt lat="43.61456" lon="6.83793">
        <ele>81.5</ele>
        <time>2025-01-10T09:47:25.000Z</time>
      </trkpt>
      <trkpt lat="43.61456" lon="6.83793">
        <ele>81.5</ele>
        <time>2025-01-10T09:47:24.000Z</time>
      </trkpt>
      <trkpt lat="43.61456" lon="6.83794">
        <ele>81.5</ele>
        <time>2025-01-10T09:47:23.000Z</time>
      </trkpt>
      <trkpt lat="43.61457" lon="6.83794">
        <ele>81.5</ele>
        <time>2025-01-10T09:47:22.000Z</time>
      </trkpt>
      <trkpt lat="43.61456" lon="6.83793">
        <ele>81.5</ele>
        <time>2025-01-10T09:47:21.000Z</time>
      </trkpt>
      <trkpt lat="43.61456" lon="6.83793">
        <ele>81.5</ele>
        <time>2025-01-10T09:47:20.000Z</time>
      </trkpt>
      <trkpt lat="43.61456" lon="6.83793">
        <ele>81.5</ele>
        <time>2025-01-10T09:47:19.000Z</time>
      </trkpt>
      <trkpt lat="43.61455" lon="6.83792">
        <ele>81.5</ele>
        <time>2025-01-10T09:47:18.000Z</time>
      </trkpt>
      <trkpt lat="43.61455" lon="6.83792">
        <ele>81.4</ele>
        <time>2025-01-10T09:47:17.000Z</time>
      </trkpt>
      <trkpt lat="43.61454" lon="6.8379">
        <ele>81.4</ele>
        <time>2025-01-10T09:47:16.000Z</time>
      </trkpt>
      <trkpt lat="43.61453" lon="6.83789">
        <ele>81.4</ele>
        <time>2025-01-10T09:47:15.000Z</time>
      </trkpt>
      <trkpt lat="43.61452" lon="6.83788">
        <ele>81.4</ele>
        <time>2025-01-10T09:47:14.000Z</time>
      </trkpt>
      <trkpt lat="43.61451" lon="6.83788">
        <ele>81.4</ele>
        <time>2025-01-10T09:47:13.000Z</time>
      </trkpt>
      <trkpt lat="43.6145" lon="6.83788">
        <ele>81.4</ele>
        <time>2025-01-10T09:47:12.000Z</time>
      </trkpt>
      <trkpt lat="43.61448" lon="6.83789">
        <ele>81.4</ele>
        <time>2025-01-10T09:47:11.000Z</time>
      </trkpt>
      <trkpt lat="43.61446" lon="6.83791">
        <ele>81.5</ele>
        <time>2025-01-10T09:47:10.000Z</time>
      </trkpt>
      <trkpt lat="43.61442" lon="6.83794">
        <ele>81.6</ele>
        <time>2025-01-10T09:47:09.000Z</time>
      </trkpt>
      <trkpt lat="43.61438" lon="6.83795">
        <ele>81.8</ele>
        <time>2025-01-10T09:47:08.000Z</time>
      </trkpt>
      <trkpt lat="43.61432" lon="6.83797">
        <ele>82.1</ele>
        <time>2025-01-10T09:47:07.000Z</time>
      </trkpt>
      <trkpt lat="43.61428" lon="6.83797">
        <ele>82.4</ele>
        <time>2025-01-10T09:47:06.000Z</time>
      </trkpt>
      <trkpt lat="43.61425" lon="6.83798">
        <ele>82.6</ele>
        <time>2025-01-10T09:47:05.000Z</time>
      </trkpt>
      <trkpt lat="43.61422" lon="6.83798">
        <ele>82.8</ele>
        <time>2025-01-10T09:47:04.000Z</time>
      </trkpt>
      <trkpt lat="43.61419" lon="6.83798">
        <ele>83</ele>
        <time>2025-01-10T09:47:03.000Z</time>
      </trkpt>
      <trkpt lat="43.61417" lon="6.83797">
        <ele>83.2</ele>
        <time>2025-01-10T09:47:02.000Z</time>
      </trkpt>
      <trkpt lat="43.61414" lon="6.83797">
        <ele>83.3</ele>
        <time>2025-01-10T09:47:01.000Z</time>
      </trkpt>
      <trkpt lat="43.61412" lon="6.83795">
        <ele>83.5</ele>
        <time>2025-01-10T09:47:00.000Z</time>
      </trkpt>
      <trkpt lat="43.6141" lon="6.83794">
        <ele>83.6</ele>
        <time>2025-01-10T09:46:59.000Z</time>
      </trkpt>
      <trkpt lat="43.61409" lon="6.83793">
        <ele>83.8</ele>
        <time>2025-01-10T09:46:58.000Z</time>
      </trkpt>
      <trkpt lat="43.61407" lon="6.83793">
        <ele>83.8</ele>
        <time>2025-01-10T09:46:57.000Z</time>
      </trkpt>
      <trkpt lat="43.61406" lon="6.83792">
        <ele>83.9</ele>
        <time>2025-01-10T09:46:56.000Z</time>
      </trkpt>
      <trkpt lat="43.61405" lon="6.83791">
        <ele>84</ele>
        <time>2025-01-10T09:46:55.000Z</time>
      </trkpt>
      <trkpt lat="43.61405" lon="6.8379">
        <ele>84</ele>
        <time>2025-01-10T09:46:54.000Z</time>
      </trkpt>
      <trkpt lat="43.61404" lon="6.8379">
        <ele>84</ele>
        <time>2025-01-10T09:46:53.000Z</time>
      </trkpt>
      <trkpt lat="43.61404" lon="6.83789">
        <ele>84.1</ele>
        <time>2025-01-10T09:46:52.000Z</time>
      </trkpt>
      <trkpt lat="43.61404" lon="6.83789">
        <ele>84.1</ele>
        <time>2025-01-10T09:46:51.000Z</time>
      </trkpt>
      <trkpt lat="43.61403" lon="6.83789">
        <ele>84.1</ele>
        <time>2025-01-10T09:46:50.000Z</time>
      </trkpt>
      <trkpt lat="43.61403" lon="6.83789">
        <ele>84.1</ele>
        <time>2025-01-10T09:46:49.000Z</time>
      </trkpt>
      <trkpt lat="43.61402" lon="6.83789">
        <ele>84.1</ele>
        <time>2025-01-10T09:46:48.000Z</time>
      </trkpt>
      <trkpt lat="43.61401" lon="6.83789">
        <ele>84.2</ele>
        <time>2025-01-10T09:46:47.000Z</time>
      </trkpt>
      <trkpt lat="43.614" lon="6.8379">
        <ele>84.2</ele>
        <time>2025-01-10T09:46:46.000Z</time>
      </trkpt>
      <trkpt lat="43.61397" lon="6.83792">
        <ele>84.3</ele>
        <time>2025-01-10T09:46:45.000Z</time>
      </trkpt>
      <trkpt lat="43.61394" lon="6.83794">
        <ele>84.4</ele>
        <time>2025-01-10T09:46:44.000Z</time>
      </trkpt>
      <trkpt lat="43.61391" lon="6.83797">
        <ele>84.5</ele>
        <time>2025-01-10T09:46:43.000Z</time>
      </trkpt>
      <trkpt lat="43.61388" lon="6.83801">
        <ele>84.5</ele>
        <time>2025-01-10T09:46:42.000Z</time>
      </trkpt>
      <trkpt lat="43.61386" lon="6.83806">
        <ele>84.7</ele>
        <time>2025-01-10T09:46:41.000Z</time>
      </trkpt>
      <trkpt lat="43.61382" lon="6.83811">
        <ele>84.9</ele>
        <time>2025-01-10T09:46:40.000Z</time>
      </trkpt>
      <trkpt lat="43.6138" lon="6.83816">
        <ele>85.2</ele>
        <time>2025-01-10T09:46:39.000Z</time>
      </trkpt>
      <trkpt lat="43.61378" lon="6.83821">
        <ele>85.6</ele>
        <time>2025-01-10T09:46:38.000Z</time>
      </trkpt>
      <trkpt lat="43.61374" lon="6.83825">
        <ele>86</ele>
        <time>2025-01-10T09:46:37.000Z</time>
      </trkpt>
      <trkpt lat="43.61371" lon="6.83829">
        <ele>86.4</ele>
        <time>2025-01-10T09:46:36.000Z</time>
      </trkpt>
      <trkpt lat="43.61368" lon="6.83832">
        <ele>86.8</ele>
        <time>2025-01-10T09:46:35.000Z</time>
      </trkpt>
      <trkpt lat="43.61364" lon="6.83834">
        <ele>87.1</ele>
        <time>2025-01-10T09:46:34.000Z</time>
      </trkpt>
      <trkpt lat="43.61361" lon="6.83837">
        <ele>87.4</ele>
        <time>2025-01-10T09:46:33.000Z</time>
      </trkpt>
      <trkpt lat="43.61359" lon="6.8384">
        <ele>87.7</ele>
        <time>2025-01-10T09:46:32.000Z</time>
      </trkpt>
      <trkpt lat="43.61356" lon="6.83843">
        <ele>87.8</ele>
        <time>2025-01-10T09:46:31.000Z</time>
      </trkpt>
      <trkpt lat="43.61355" lon="6.83846">
        <ele>88</ele>
        <time>2025-01-10T09:46:30.000Z</time>
      </trkpt>
      <trkpt lat="43.61353" lon="6.8385">
        <ele>88.1</ele>
        <time>2025-01-10T09:46:29.000Z</time>
      </trkpt>
      <trkpt lat="43.61352" lon="6.83854">
        <ele>88.1</ele>
        <time>2025-01-10T09:46:28.000Z</time>
      </trkpt>
      <trkpt lat="43.6135" lon="6.83858">
        <ele>88.1</ele>
        <time>2025-01-10T09:46:27.000Z</time>
      </trkpt>
      <trkpt lat="43.61349" lon="6.83862">
        <ele>88.1</ele>
        <time>2025-01-10T09:46:26.000Z</time>
      </trkpt>
      <trkpt lat="43.61347" lon="6.83865">
        <ele>88</ele>
        <time>2025-01-10T09:46:25.000Z</time>
      </trkpt>
      <trkpt lat="43.61345" lon="6.83869">
        <ele>87.9</ele>
        <time>2025-01-10T09:46:24.000Z</time>
      </trkpt>
      <trkpt lat="43.61344" lon="6.83873">
        <ele>87.7</ele>
        <time>2025-01-10T09:46:23.000Z</time>
      </trkpt>
      <trkpt lat="43.61344" lon="6.83877">
        <ele>87.6</ele>
        <time>2025-01-10T09:46:22.000Z</time>
      </trkpt>
      <trkpt lat="43.61343" lon="6.83881">
        <ele>87.4</ele>
        <time>2025-01-10T09:46:21.000Z</time>
      </trkpt>
      <trkpt lat="43.61342" lon="6.83886">
        <ele>87.2</ele>
        <time>2025-01-10T09:46:20.000Z</time>
      </trkpt>
      <trkpt lat="43.61343" lon="6.8389">
        <ele>86.9</ele>
        <time>2025-01-10T09:46:19.000Z</time>
      </trkpt>
      <trkpt lat="43.61343" lon="6.83895">
        <ele>86.5</ele>
        <time>2025-01-10T09:46:18.000Z</time>
      </trkpt>
      <trkpt lat="43.61342" lon="6.839">
        <ele>86.1</ele>
        <time>2025-01-10T09:46:17.000Z</time>
      </trkpt>
      <trkpt lat="43.61342" lon="6.83903">
        <ele>85.8</ele>
        <time>2025-01-10T09:46:16.000Z</time>
      </trkpt>
      <trkpt lat="43.61342" lon="6.83907">
        <ele>85.5</ele>
        <time>2025-01-10T09:46:15.000Z</time>
      </trkpt>
      <trkpt lat="43.61342" lon="6.83911">
        <ele>85.1</ele>
        <time>2025-01-10T09:46:14.000Z</time>
      </trkpt>
      <trkpt lat="43.61341" lon="6.83913">
        <ele>84.8</ele>
        <time>2025-01-10T09:46:13.000Z</time>
      </trkpt>
      <trkpt lat="43.61341" lon="6.83917">
        <ele>84.5</ele>
        <time>2025-01-10T09:46:12.000Z</time>
      </trkpt>
      <trkpt lat="43.61339" lon="6.8392">
        <ele>84.1</ele>
        <time>2025-01-10T09:46:11.000Z</time>
      </trkpt>
      <trkpt lat="43.61336" lon="6.83922">
        <ele>83.7</ele>
        <time>2025-01-10T09:46:10.000Z</time>
      </trkpt>
      <trkpt lat="43.61334" lon="6.83924">
        <ele>83.3</ele>
        <time>2025-01-10T09:46:09.000Z</time>
      </trkpt>
      <trkpt lat="43.61331" lon="6.83927">
        <ele>82.8</ele>
        <time>2025-01-10T09:46:08.000Z</time>
      </trkpt>
      <trkpt lat="43.61328" lon="6.8393">
        <ele>82.4</ele>
        <time>2025-01-10T09:46:07.000Z</time>
      </trkpt>
      <trkpt lat="43.61325" lon="6.83932">
        <ele>82</ele>
        <time>2025-01-10T09:46:06.000Z</time>
      </trkpt>
      <trkpt lat="43.61323" lon="6.83934">
        <ele>81.7</ele>
        <time>2025-01-10T09:46:05.000Z</time>
      </trkpt>
      <trkpt lat="43.61321" lon="6.83938">
        <ele>81.3</ele>
        <time>2025-01-10T09:46:04.000Z</time>
      </trkpt>
      <trkpt lat="43.6132" lon="6.83943">
        <ele>80.9</ele>
        <time>2025-01-10T09:46:03.000Z</time>
      </trkpt>
      <trkpt lat="43.61318" lon="6.83948">
        <ele>80.5</ele>
        <time>2025-01-10T09:46:02.000Z</time>
      </trkpt>
      <trkpt lat="43.61316" lon="6.83951">
        <ele>80.2</ele>
        <time>2025-01-10T09:46:01.000Z</time>
      </trkpt>
      <trkpt lat="43.61313" lon="6.83956">
        <ele>79.9</ele>
        <time>2025-01-10T09:46:00.000Z</time>
      </trkpt>
      <trkpt lat="43.61311" lon="6.83962">
        <ele>79.6</ele>
        <time>2025-01-10T09:45:59.000Z</time>
      </trkpt>
      <trkpt lat="43.61308" lon="6.83965">
        <ele>79.3</ele>
        <time>2025-01-10T09:45:58.000Z</time>
      </trkpt>
      <trkpt lat="43.61305" lon="6.8397">
        <ele>79.1</ele>
        <time>2025-01-10T09:45:57.000Z</time>
      </trkpt>
      <trkpt lat="43.61303" lon="6.83974">
        <ele>78.9</ele>
        <time>2025-01-10T09:45:56.000Z</time>
      </trkpt>
      <trkpt lat="43.613" lon="6.83978">
        <ele>78.8</ele>
        <time>2025-01-10T09:45:55.000Z</time>
      </trkpt>
      <trkpt lat="43.61297" lon="6.83983">
        <ele>78.7</ele>
        <time>2025-01-10T09:45:54.000Z</time>
      </trkpt>
      <trkpt lat="43.61294" lon="6.83988">
        <ele>78.6</ele>
        <time>2025-01-10T09:45:53.000Z</time>
      </trkpt>
      <trkpt lat="43.61292" lon="6.83994">
        <ele>78.6</ele>
        <time>2025-01-10T09:45:52.000Z</time>
      </trkpt>
      <trkpt lat="43.6129" lon="6.84">
        <ele>78.7</ele>
        <time>2025-01-10T09:45:51.000Z</time>
      </trkpt>
      <trkpt lat="43.61287" lon="6.84007">
        <ele>78.9</ele>
        <time>2025-01-10T09:45:50.000Z</time>
      </trkpt>
      <trkpt lat="43.61284" lon="6.84013">
        <ele>79.1</ele>
        <time>2025-01-10T09:45:49.000Z</time>
      </trkpt>
      <trkpt lat="43.61283" lon="6.8402">
        <ele>79.5</ele>
        <time>2025-01-10T09:45:48.000Z</time>
      </trkpt>
      <trkpt lat="43.6128" lon="6.84027">
        <ele>79.9</ele>
        <time>2025-01-10T09:45:47.000Z</time>
      </trkpt>
      <trkpt lat="43.61279" lon="6.84033">
        <ele>80.3</ele>
        <time>2025-01-10T09:45:46.000Z</time>
      </trkpt>
      <trkpt lat="43.61277" lon="6.84039">
        <ele>80.7</ele>
        <time>2025-01-10T09:45:45.000Z</time>
      </trkpt>
      <trkpt lat="43.61275" lon="6.84046">
        <ele>81.1</ele>
        <time>2025-01-10T09:45:44.000Z</time>
      </trkpt>
      <trkpt lat="43.61274" lon="6.84052">
        <ele>81.5</ele>
        <time>2025-01-10T09:45:43.000Z</time>
      </trkpt>
      <trkpt lat="43.61273" lon="6.84058">
        <ele>81.9</ele>
        <time>2025-01-10T09:45:42.000Z</time>
      </trkpt>
      <trkpt lat="43.61272" lon="6.84064">
        <ele>82.3</ele>
        <time>2025-01-10T09:45:41.000Z</time>
      </trkpt>
      <trkpt lat="43.61271" lon="6.8407">
        <ele>82.6</ele>
        <time>2025-01-10T09:45:40.000Z</time>
      </trkpt>
      <trkpt lat="43.6127" lon="6.84075">
        <ele>82.9</ele>
        <time>2025-01-10T09:45:39.000Z</time>
      </trkpt>
      <trkpt lat="43.61269" lon="6.84081">
        <ele>83.2</ele>
        <time>2025-01-10T09:45:38.000Z</time>
      </trkpt>
      <trkpt lat="43.61267" lon="6.84087">
        <ele>83.6</ele>
        <time>2025-01-10T09:45:37.000Z</time>
      </trkpt>
      <trkpt lat="43.61265" lon="6.84093">
        <ele>83.9</ele>
        <time>2025-01-10T09:45:36.000Z</time>
      </trkpt>
      <trkpt lat="43.61264" lon="6.84099">
        <ele>84.2</ele>
        <time>2025-01-10T09:45:35.000Z</time>
      </trkpt>
      <trkpt lat="43.61262" lon="6.84104">
        <ele>84.5</ele>
        <time>2025-01-10T09:45:34.000Z</time>
      </trkpt>
      <trkpt lat="43.6126" lon="6.84111">
        <ele>84.7</ele>
        <time>2025-01-10T09:45:33.000Z</time>
      </trkpt>
      <trkpt lat="43.61259" lon="6.84116">
        <ele>84.9</ele>
        <time>2025-01-10T09:45:32.000Z</time>
      </trkpt>
      <trkpt lat="43.61258" lon="6.84122">
        <ele>85</ele>
        <time>2025-01-10T09:45:31.000Z</time>
      </trkpt>
      <trkpt lat="43.61257" lon="6.84127">
        <ele>85.1</ele>
        <time>2025-01-10T09:45:30.000Z</time>
      </trkpt>
      <trkpt lat="43.61254" lon="6.84132">
        <ele>85.2</ele>
        <time>2025-01-10T09:45:29.000Z</time>
      </trkpt>
      <trkpt lat="43.61252" lon="6.84138">
        <ele>85.3</ele>
        <time>2025-01-10T09:45:28.000Z</time>
      </trkpt>
      <trkpt lat="43.61249" lon="6.84142">
        <ele>85.3</ele>
        <time>2025-01-10T09:45:27.000Z</time>
      </trkpt>
      <trkpt lat="43.61246" lon="6.84145">
        <ele>85.3</ele>
        <time>2025-01-10T09:45:26.000Z</time>
      </trkpt>
      <trkpt lat="43.61243" lon="6.84147">
        <ele>85.3</ele>
        <time>2025-01-10T09:45:25.000Z</time>
      </trkpt>
      <trkpt lat="43.6124" lon="6.84149">
        <ele>85.3</ele>
        <time>2025-01-10T09:45:24.000Z</time>
      </trkpt>
      <trkpt lat="43.61236" lon="6.8415">
        <ele>85.2</ele>
        <time>2025-01-10T09:45:23.000Z</time>
      </trkpt>
      <trkpt lat="43.61233" lon="6.84152">
        <ele>85.2</ele>
        <time>2025-01-10T09:45:22.000Z</time>
      </trkpt>
      <trkpt lat="43.6123" lon="6.84153">
        <ele>85.2</ele>
        <time>2025-01-10T09:45:21.000Z</time>
      </trkpt>
      <trkpt lat="43.61227" lon="6.84155">
        <ele>85.3</ele>
        <time>2025-01-10T09:45:20.000Z</time>
      </trkpt>
      <trkpt lat="43.61224" lon="6.84157">
        <ele>85.3</ele>
        <time>2025-01-10T09:45:19.000Z</time>
      </trkpt>
      <trkpt lat="43.61222" lon="6.84159">
        <ele>85.4</ele>
        <time>2025-01-10T09:45:18.000Z</time>
      </trkpt>
      <trkpt lat="43.61219" lon="6.84162">
        <ele>85.5</ele>
        <time>2025-01-10T09:45:17.000Z</time>
      </trkpt>
      <trkpt lat="43.61217" lon="6.84166">
        <ele>85.6</ele>
        <time>2025-01-10T09:45:16.000Z</time>
      </trkpt>
      <trkpt lat="43.61214" lon="6.84171">
        <ele>85.8</ele>
        <time>2025-01-10T09:45:15.000Z</time>
      </trkpt>
      <trkpt lat="43.61212" lon="6.84176">
        <ele>86.1</ele>
        <time>2025-01-10T09:45:14.000Z</time>
      </trkpt>
      <trkpt lat="43.61208" lon="6.8418">
        <ele>86.4</ele>
        <time>2025-01-10T09:45:13.000Z</time>
      </trkpt>
      <trkpt lat="43.61205" lon="6.84185">
        <ele>86.8</ele>
        <time>2025-01-10T09:45:12.000Z</time>
      </trkpt>
      <trkpt lat="43.61203" lon="6.84189">
        <ele>87.2</ele>
        <time>2025-01-10T09:45:11.000Z</time>
      </trkpt>
      <trkpt lat="43.61201" lon="6.84194">
        <ele>87.5</ele>
        <time>2025-01-10T09:45:10.000Z</time>
      </trkpt>
      <trkpt lat="43.61199" lon="6.84198">
        <ele>87.8</ele>
        <time>2025-01-10T09:45:09.000Z</time>
      </trkpt>
      <trkpt lat="43.61197" lon="6.84203">
        <ele>88.1</ele>
        <time>2025-01-10T09:45:08.000Z</time>
      </trkpt>
      <trkpt lat="43.61196" lon="6.84207">
        <ele>88.3</ele>
        <time>2025-01-10T09:45:07.000Z</time>
      </trkpt>
      <trkpt lat="43.61195" lon="6.84212">
        <ele>88.5</ele>
        <time>2025-01-10T09:45:06.000Z</time>
      </trkpt>
      <trkpt lat="43.61193" lon="6.84216">
        <ele>88.6</ele>
        <time>2025-01-10T09:45:05.000Z</time>
      </trkpt>
      <trkpt lat="43.6119" lon="6.84221">
        <ele>88.7</ele>
        <time>2025-01-10T09:45:04.000Z</time>
      </trkpt>
      <trkpt lat="43.61188" lon="6.84225">
        <ele>88.8</ele>
        <time>2025-01-10T09:45:03.000Z</time>
      </trkpt>
      <trkpt lat="43.61185" lon="6.8423">
        <ele>88.8</ele>
        <time>2025-01-10T09:45:02.000Z</time>
      </trkpt>
      <trkpt lat="43.61183" lon="6.84235">
        <ele>88.8</ele>
        <time>2025-01-10T09:45:01.000Z</time>
      </trkpt>
      <trkpt lat="43.61182" lon="6.8424">
        <ele>88.8</ele>
        <time>2025-01-10T09:45:00.000Z</time>
      </trkpt>
      <trkpt lat="43.61181" lon="6.84245">
        <ele>88.8</ele>
        <time>2025-01-10T09:44:59.000Z</time>
      </trkpt>
      <trkpt lat="43.61181" lon="6.84252">
        <ele>88.8</ele>
        <time>2025-01-10T09:44:58.000Z</time>
      </trkpt>
      <trkpt lat="43.61181" lon="6.84258">
        <ele>88.8</ele>
        <time>2025-01-10T09:44:57.000Z</time>
      </trkpt>
      <trkpt lat="43.61181" lon="6.84264">
        <ele>88.8</ele>
        <time>2025-01-10T09:44:56.000Z</time>
      </trkpt>
      <trkpt lat="43.61182" lon="6.84271">
        <ele>88.7</ele>
        <time>2025-01-10T09:44:55.000Z</time>
      </trkpt>
      <trkpt lat="43.61184" lon="6.84277">
        <ele>88.6</ele>
        <time>2025-01-10T09:44:54.000Z</time>
      </trkpt>
      <trkpt lat="43.61185" lon="6.84282">
        <ele>88.5</ele>
        <time>2025-01-10T09:44:53.000Z</time>
      </trkpt>
      <trkpt lat="43.61187" lon="6.84287">
        <ele>88.4</ele>
        <time>2025-01-10T09:44:52.000Z</time>
      </trkpt>
      <trkpt lat="43.6119" lon="6.84291">
        <ele>88.3</ele>
        <time>2025-01-10T09:44:51.000Z</time>
      </trkpt>
      <trkpt lat="43.61192" lon="6.84295">
        <ele>88.2</ele>
        <time>2025-01-10T09:44:50.000Z</time>
      </trkpt>
      <trkpt lat="43.61195" lon="6.84299">
        <ele>88.1</ele>
        <time>2025-01-10T09:44:49.000Z</time>
      </trkpt>
      <trkpt lat="43.61199" lon="6.84303">
        <ele>87.9</ele>
        <time>2025-01-10T09:44:48.000Z</time>
      </trkpt>
      <trkpt lat="43.61203" lon="6.84306">
        <ele>87.8</ele>
        <time>2025-01-10T09:44:47.000Z</time>
      </trkpt>
      <trkpt lat="43.61207" lon="6.84309">
        <ele>87.8</ele>
        <time>2025-01-10T09:44:46.000Z</time>
      </trkpt>
      <trkpt lat="43.61211" lon="6.84312">
        <ele>87.8</ele>
        <time>2025-01-10T09:44:45.000Z</time>
      </trkpt>
      <trkpt lat="43.61215" lon="6.84315">
        <ele>87.8</ele>
        <time>2025-01-10T09:44:44.000Z</time>
      </trkpt>
      <trkpt lat="43.6122" lon="6.84317">
        <ele>87.9</ele>
        <time>2025-01-10T09:44:43.000Z</time>
      </trkpt>
      <trkpt lat="43.61224" lon="6.84318">
        <ele>88</ele>
        <time>2025-01-10T09:44:42.000Z</time>
      </trkpt>
      <trkpt lat="43.61228" lon="6.8432">
        <ele>88.1</ele>
        <time>2025-01-10T09:44:41.000Z</time>
      </trkpt>
      <trkpt lat="43.61232" lon="6.84321">
        <ele>88.1</ele>
        <time>2025-01-10T09:44:40.000Z</time>
      </trkpt>
      <trkpt lat="43.61235" lon="6.84323">
        <ele>88.2</ele>
        <time>2025-01-10T09:44:39.000Z</time>
      </trkpt>
      <trkpt lat="43.61238" lon="6.84325">
        <ele>88.2</ele>
        <time>2025-01-10T09:44:38.000Z</time>
      </trkpt>
      <trkpt lat="43.6124" lon="6.84327">
        <ele>88.2</ele>
        <time>2025-01-10T09:44:37.000Z</time>
      </trkpt>
      <trkpt lat="43.61241" lon="6.84328">
        <ele>88.2</ele>
        <time>2025-01-10T09:44:36.000Z</time>
      </trkpt>
      <trkpt lat="43.61242" lon="6.84331">
        <ele>88.2</ele>
        <time>2025-01-10T09:44:35.000Z</time>
      </trkpt>
      <trkpt lat="43.61243" lon="6.84333">
        <ele>88.2</ele>
        <time>2025-01-10T09:44:34.000Z</time>
      </trkpt>
      <trkpt lat="43.61245" lon="6.84335">
        <ele>88.1</ele>
        <time>2025-01-10T09:44:33.000Z</time>
      </trkpt>
      <trkpt lat="43.61246" lon="6.84338">
        <ele>88.1</ele>
        <time>2025-01-10T09:44:32.000Z</time>
      </trkpt>
      <trkpt lat="43.61248" lon="6.84342">
        <ele>87.8</ele>
        <time>2025-01-10T09:44:31.000Z</time>
      </trkpt>
      <trkpt lat="43.6125" lon="6.84347">
        <ele>87.6</ele>
        <time>2025-01-10T09:44:30.000Z</time>
      </trkpt>
      <trkpt lat="43.61251" lon="6.84354">
        <ele>87.3</ele>
        <time>2025-01-10T09:44:29.000Z</time>
      </trkpt>
      <trkpt lat="43.61253" lon="6.8436">
        <ele>87</ele>
        <time>2025-01-10T09:44:28.000Z</time>
      </trkpt>
      <trkpt lat="43.61254" lon="6.84366">
        <ele>86.7</ele>
        <time>2025-01-10T09:44:27.000Z</time>
      </trkpt>
      <trkpt lat="43.61254" lon="6.84373">
        <ele>86.3</ele>
        <time>2025-01-10T09:44:26.000Z</time>
      </trkpt>
      <trkpt lat="43.61254" lon="6.84379">
        <ele>86</ele>
        <time>2025-01-10T09:44:25.000Z</time>
      </trkpt>
      <trkpt lat="43.61253" lon="6.84385">
        <ele>85.7</ele>
        <time>2025-01-10T09:44:24.000Z</time>
      </trkpt>
      <trkpt lat="43.61251" lon="6.8439">
        <ele>85.4</ele>
        <time>2025-01-10T09:44:23.000Z</time>
      </trkpt>
      <trkpt lat="43.61248" lon="6.84395">
        <ele>85.1</ele>
        <time>2025-01-10T09:44:22.000Z</time>
      </trkpt>
      <trkpt lat="43.61245" lon="6.84399">
        <ele>84.8</ele>
        <time>2025-01-10T09:44:21.000Z</time>
      </trkpt>
      <trkpt lat="43.61242" lon="6.84402">
        <ele>84.5</ele>
        <time>2025-01-10T09:44:20.000Z</time>
      </trkpt>
      <trkpt lat="43.61238" lon="6.84405">
        <ele>84.2</ele>
        <time>2025-01-10T09:44:19.000Z</time>
      </trkpt>
      <trkpt lat="43.61234" lon="6.84408">
        <ele>83.9</ele>
        <time>2025-01-10T09:44:18.000Z</time>
      </trkpt>
      <trkpt lat="43.61229" lon="6.84411">
        <ele>83.7</ele>
        <time>2025-01-10T09:44:17.000Z</time>
      </trkpt>
      <trkpt lat="43.61225" lon="6.84413">
        <ele>83.4</ele>
        <time>2025-01-10T09:44:16.000Z</time>
      </trkpt>
      <trkpt lat="43.61221" lon="6.84415">
        <ele>83.1</ele>
        <time>2025-01-10T09:44:15.000Z</time>
      </trkpt>
      <trkpt lat="43.61217" lon="6.84417">
        <ele>82.8</ele>
        <time>2025-01-10T09:44:14.000Z</time>
      </trkpt>
      <trkpt lat="43.61213" lon="6.84419">
        <ele>82.6</ele>
        <time>2025-01-10T09:44:13.000Z</time>
      </trkpt>
      <trkpt lat="43.61209" lon="6.84421">
        <ele>82.3</ele>
        <time>2025-01-10T09:44:12.000Z</time>
      </trkpt>
      <trkpt lat="43.61204" lon="6.84423">
        <ele>82</ele>
        <time>2025-01-10T09:44:11.000Z</time>
      </trkpt>
      <trkpt lat="43.612" lon="6.84425">
        <ele>81.7</ele>
        <time>2025-01-10T09:44:10.000Z</time>
      </trkpt>
      <trkpt lat="43.61196" lon="6.84428">
        <ele>81.4</ele>
        <time>2025-01-10T09:44:09.000Z</time>
      </trkpt>
      <trkpt lat="43.61192" lon="6.8443">
        <ele>81.1</ele>
        <time>2025-01-10T09:44:08.000Z</time>
      </trkpt>
      <trkpt lat="43.61188" lon="6.84432">
        <ele>80.8</ele>
        <time>2025-01-10T09:44:07.000Z</time>
      </trkpt>
      <trkpt lat="43.61184" lon="6.84434">
        <ele>80.5</ele>
        <time>2025-01-10T09:44:06.000Z</time>
      </trkpt>
      <trkpt lat="43.6118" lon="6.84436">
        <ele>80.3</ele>
        <time>2025-01-10T09:44:05.000Z</time>
      </trkpt>
      <trkpt lat="43.61176" lon="6.84437">
        <ele>80</ele>
        <time>2025-01-10T09:44:04.000Z</time>
      </trkpt>
      <trkpt lat="43.61172" lon="6.84439">
        <ele>79.8</ele>
        <time>2025-01-10T09:44:03.000Z</time>
      </trkpt>
      <trkpt lat="43.61168" lon="6.84441">
        <ele>79.6</ele>
        <time>2025-01-10T09:44:02.000Z</time>
      </trkpt>
      <trkpt lat="43.61164" lon="6.84443">
        <ele>79.4</ele>
        <time>2025-01-10T09:44:01.000Z</time>
      </trkpt>
      <trkpt lat="43.6116" lon="6.84445">
        <ele>79.1</ele>
        <time>2025-01-10T09:44:00.000Z</time>
      </trkpt>
      <trkpt lat="43.61155" lon="6.84446">
        <ele>78.9</ele>
        <time>2025-01-10T09:43:59.000Z</time>
      </trkpt>
      <trkpt lat="43.6115" lon="6.84448">
        <ele>78.7</ele>
        <time>2025-01-10T09:43:58.000Z</time>
      </trkpt>
      <trkpt lat="43.61146" lon="6.8445">
        <ele>78.4</ele>
        <time>2025-01-10T09:43:57.000Z</time>
      </trkpt>
      <trkpt lat="43.61141" lon="6.84452">
        <ele>78.2</ele>
        <time>2025-01-10T09:43:56.000Z</time>
      </trkpt>
      <trkpt lat="43.61137" lon="6.84454">
        <ele>78</ele>
        <time>2025-01-10T09:43:55.000Z</time>
      </trkpt>
      <trkpt lat="43.61133" lon="6.84456">
        <ele>77.8</ele>
        <time>2025-01-10T09:43:54.000Z</time>
      </trkpt>
      <trkpt lat="43.6113" lon="6.84458">
        <ele>77.6</ele>
        <time>2025-01-10T09:43:53.000Z</time>
      </trkpt>
      <trkpt lat="43.61126" lon="6.8446">
        <ele>77.4</ele>
        <time>2025-01-10T09:43:52.000Z</time>
      </trkpt>
      <trkpt lat="43.61123" lon="6.84463">
        <ele>77.2</ele>
        <time>2025-01-10T09:43:51.000Z</time>
      </trkpt>
      <trkpt lat="43.61119" lon="6.84465">
        <ele>77</ele>
        <time>2025-01-10T09:43:50.000Z</time>
      </trkpt>
      <trkpt lat="43.61115" lon="6.84469">
        <ele>76.7</ele>
        <time>2025-01-10T09:43:49.000Z</time>
      </trkpt>
      <trkpt lat="43.61112" lon="6.84472">
        <ele>76.5</ele>
        <time>2025-01-10T09:43:48.000Z</time>
      </trkpt>
      <trkpt lat="43.61108" lon="6.84476">
        <ele>76.3</ele>
        <time>2025-01-10T09:43:47.000Z</time>
      </trkpt>
      <trkpt lat="43.61105" lon="6.8448">
        <ele>76</ele>
        <time>2025-01-10T09:43:46.000Z</time>
      </trkpt>
      <trkpt lat="43.61102" lon="6.84483">
        <ele>75.8</ele>
        <time>2025-01-10T09:43:45.000Z</time>
      </trkpt>
      <trkpt lat="43.61098" lon="6.84487">
        <ele>75.5</ele>
        <time>2025-01-10T09:43:44.000Z</time>
      </trkpt>
      <trkpt lat="43.61095" lon="6.84491">
        <ele>75.3</ele>
        <time>2025-01-10T09:43:43.000Z</time>
      </trkpt>
      <trkpt lat="43.61092" lon="6.84494">
        <ele>75.1</ele>
        <time>2025-01-10T09:43:42.000Z</time>
      </trkpt>
      <trkpt lat="43.61089" lon="6.84497">
        <ele>74.9</ele>
        <time>2025-01-10T09:43:41.000Z</time>
      </trkpt>
      <trkpt lat="43.61086" lon="6.845">
        <ele>74.7</ele>
        <time>2025-01-10T09:43:40.000Z</time>
      </trkpt>
      <trkpt lat="43.61085" lon="6.84502">
        <ele>74.6</ele>
        <time>2025-01-10T09:43:39.000Z</time>
      </trkpt>
      <trkpt lat="43.61085" lon="6.84503">
        <ele>74.6</ele>
        <time>2025-01-10T09:43:38.000Z</time>
      </trkpt>
      <trkpt lat="43.61085" lon="6.84503">
        <ele>74.6</ele>
        <time>2025-01-10T09:43:37.000Z</time>
      </trkpt>
      <trkpt lat="43.61085" lon="6.84503">
        <ele>74.6</ele>
        <time>2025-01-10T09:43:36.000Z</time>
      </trkpt>
      <trkpt lat="43.61085" lon="6.84503">
        <ele>74.6</ele>
        <time>2025-01-10T09:43:35.000Z</time>
      </trkpt>
      <trkpt lat="43.61085" lon="6.84503">
        <ele>74.6</ele>
        <time>2025-01-10T09:43:34.000Z</time>
      </trkpt>
      <trkpt lat="43.61085" lon="6.84503">
        <ele>74.6</ele>
        <time>2025-01-10T09:43:33.000Z</time>
      </trkpt>
      <trkpt lat="43.61085" lon="6.84503">
        <ele>74.6</ele>
        <time>2025-01-10T09:43:32.000Z</time>
      </trkpt>
      <trkpt lat="43.61085" lon="6.84503">
        <ele>74.6</ele>
        <time>2025-01-10T09:43:31.000Z</time>
      </trkpt>
      <trkpt lat="43.61085" lon="6.84503">
        <ele>74.6</ele>
        <time>2025-01-10T09:43:30.000Z</time>
      </trkpt>
      <trkpt lat="43.61085" lon="6.84503">
        <ele>74.6</ele>
        <time>2025-01-10T09:43:29.000Z</time>
      </trkpt>
      <trkpt lat="43.61085" lon="6.84503">
        <ele>74.6</ele>
        <time>2025-01-10T09:43:28.000Z</time>
      </trkpt>
      <trkpt lat="43.61085" lon="6.84503">
        <ele>74.6</ele>
        <time>2025-01-10T09:43:27.000Z</time>
      </trkpt>
      <trkpt lat="43.61085" lon="6.84503">
        <ele>74.5</ele>
        <time>2025-01-10T09:43:26.000Z</time>
      </trkpt>
      <trkpt lat="43.61085" lon="6.84503">
        <ele>74.5</ele>
        <time>2025-01-10T09:43:25.000Z</time>
      </trkpt>
      <trkpt lat="43.61085" lon="6.84503">
        <ele>74.5</ele>
        <time>2025-01-10T09:43:24.000Z</time>
      </trkpt>
      <trkpt lat="43.61085" lon="6.84503">
        <ele>74.5</ele>
        <time>2025-01-10T09:43:23.000Z</time>
      </trkpt>
      <trkpt lat="43.61085" lon="6.84503">
        <ele>74.5</ele>
        <time>2025-01-10T09:43:22.000Z</time>
      </trkpt>
      <trkpt lat="43.61085" lon="6.84503">
        <ele>74.5</ele>
        <time>2025-01-10T09:43:21.000Z</time>
      </trkpt>
      <trkpt lat="43.61085" lon="6.84503">
        <ele>74.5</ele>
        <time>2025-01-10T09:43:20.000Z</time>
      </trkpt>
      <trkpt lat="43.61085" lon="6.84503">
        <ele>74.5</ele>
        <time>2025-01-10T09:43:19.000Z</time>
      </trkpt>
      <trkpt lat="43.61086" lon="6.84503">
        <ele>74.5</ele>
        <time>2025-01-10T09:43:18.000Z</time>
      </trkpt>
      <trkpt lat="43.61086" lon="6.84503">
        <ele>74.5</ele>
        <time>2025-01-10T09:43:17.000Z</time>
      </trkpt>
      <trkpt lat="43.61086" lon="6.84503">
        <ele>74.5</ele>
        <time>2025-01-10T09:43:16.000Z</time>
      </trkpt>
      <trkpt lat="43.61086" lon="6.84503">
        <ele>74.5</ele>
        <time>2025-01-10T09:43:15.000Z</time>
      </trkpt>
      <trkpt lat="43.61086" lon="6.84503">
        <ele>74.5</ele>
        <time>2025-01-10T09:43:14.000Z</time>
      </trkpt>
      <trkpt lat="43.61086" lon="6.84503">
        <ele>74.5</ele>
        <time>2025-01-10T09:43:13.000Z</time>
      </trkpt>
      <trkpt lat="43.61086" lon="6.84503">
        <ele>74.5</ele>
        <time>2025-01-10T09:43:12.000Z</time>
      </trkpt>
      <trkpt lat="43.61086" lon="6.84503">
        <ele>74.5</ele>
        <time>2025-01-10T09:43:11.000Z</time>
      </trkpt>
      <trkpt lat="43.61086" lon="6.84503">
        <ele>74.5</ele>
        <time>2025-01-10T09:43:10.000Z</time>
      </trkpt>
      <trkpt lat="43.61086" lon="6.84503">
        <ele>74.5</ele>
        <time>2025-01-10T09:43:09.000Z</time>
      </trkpt>
      <trkpt lat="43.61086" lon="6.84503">
        <ele>74.5</ele>
        <time>2025-01-10T09:43:08.000Z</time>
      </trkpt>
      <trkpt lat="43.61086" lon="6.84503">
        <ele>74.5</ele>
        <time>2025-01-10T09:43:07.000Z</time>
      </trkpt>
      <trkpt lat="43.61086" lon="6.84503">
        <ele>74.5</ele>
        <time>2025-01-10T09:43:06.000Z</time>
      </trkpt>
      <trkpt lat="43.61086" lon="6.84503">
        <ele>74.5</ele>
        <time>2025-01-10T09:43:05.000Z</time>
      </trkpt>
      <trkpt lat="43.61086" lon="6.84503">
        <ele>74.5</ele>
        <time>2025-01-10T09:43:04.000Z</time>
      </trkpt>
      <trkpt lat="43.61086" lon="6.84503">
        <ele>74.5</ele>
        <time>2025-01-10T09:43:03.000Z</time>
      </trkpt>
      <trkpt lat="43.61086" lon="6.84503">
        <ele>74.5</ele>
        <time>2025-01-10T09:43:02.000Z</time>
      </trkpt>
      <trkpt lat="43.61086" lon="6.84503">
        <ele>74.5</ele>
        <time>2025-01-10T09:43:01.000Z</time>
      </trkpt>
      <trkpt lat="43.61086" lon="6.84503">
        <ele>74.5</ele>
        <time>2025-01-10T09:43:00.000Z</time>
      </trkpt>
      <trkpt lat="43.61086" lon="6.84503">
        <ele>74.5</ele>
        <time>2025-01-10T09:42:59.000Z</time>
      </trkpt>
      <trkpt lat="43.61086" lon="6.84503">
        <ele>74.5</ele>
        <time>2025-01-10T09:42:58.000Z</time>
      </trkpt>
      <trkpt lat="43.61086" lon="6.84503">
        <ele>74.5</ele>
        <time>2025-01-10T09:42:57.000Z</time>
      </trkpt>
      <trkpt lat="43.61086" lon="6.84503">
        <ele>74.5</ele>
        <time>2025-01-10T09:42:56.000Z</time>
      </trkpt>
      <trkpt lat="43.61086" lon="6.84503">
        <ele>74.5</ele>
        <time>2025-01-10T09:42:55.000Z</time>
      </trkpt>
      <trkpt lat="43.61087" lon="6.84503">
        <ele>74.4</ele>
        <time>2025-01-10T09:42:54.000Z</time>
      </trkpt>
      <trkpt lat="43.61087" lon="6.84503">
        <ele>74.4</ele>
        <time>2025-01-10T09:42:53.000Z</time>
      </trkpt>
      <trkpt lat="43.61087" lon="6.84503">
        <ele>74.4</ele>
        <time>2025-01-10T09:42:52.000Z</time>
      </trkpt>
      <trkpt lat="43.61087" lon="6.84503">
        <ele>74.4</ele>
        <time>2025-01-10T09:42:51.000Z</time>
      </trkpt>
      <trkpt lat="43.61087" lon="6.84503">
        <ele>74.4</ele>
        <time>2025-01-10T09:42:50.000Z</time>
      </trkpt>
      <trkpt lat="43.61088" lon="6.84503">
        <ele>74.4</ele>
        <time>2025-01-10T09:42:49.000Z</time>
      </trkpt>
      <trkpt lat="43.61088" lon="6.84502">
        <ele>74.4</ele>
        <time>2025-01-10T09:42:48.000Z</time>
      </trkpt>
      <trkpt lat="43.61088" lon="6.84502">
        <ele>74.4</ele>
        <time>2025-01-10T09:42:47.000Z</time>
      </trkpt>
      <trkpt lat="43.61087" lon="6.84502">
        <ele>74.3</ele>
        <time>2025-01-10T09:42:46.000Z</time>
      </trkpt>
      <trkpt lat="43.61087" lon="6.84503">
        <ele>74.3</ele>
        <time>2025-01-10T09:42:45.000Z</time>
      </trkpt>
      <trkpt lat="43.61087" lon="6.84504">
        <ele>74.3</ele>
        <time>2025-01-10T09:42:44.000Z</time>
      </trkpt>
      <trkpt lat="43.61086" lon="6.84504">
        <ele>74.2</ele>
        <time>2025-01-10T09:42:43.000Z</time>
      </trkpt>
      <trkpt lat="43.61086" lon="6.84504">
        <ele>74.2</ele>
        <time>2025-01-10T09:42:42.000Z</time>
      </trkpt>
      <trkpt lat="43.61086" lon="6.84504">
        <ele>74.2</ele>
        <time>2025-01-10T09:42:41.000Z</time>
      </trkpt>
      <trkpt lat="43.61086" lon="6.84504">
        <ele>74.2</ele>
        <time>2025-01-10T09:42:40.000Z</time>
      </trkpt>
      <trkpt lat="43.61086" lon="6.84504">
        <ele>74.2</ele>
        <time>2025-01-10T09:42:39.000Z</time>
      </trkpt>
      <trkpt lat="43.61086" lon="6.84504">
        <ele>74.2</ele>
        <time>2025-01-10T09:42:38.000Z</time>
      </trkpt>
      <trkpt lat="43.61085" lon="6.84504">
        <ele>74.1</ele>
        <time>2025-01-10T09:42:37.000Z</time>
      </trkpt>
      <trkpt lat="43.61084" lon="6.84505">
        <ele>74.1</ele>
        <time>2025-01-10T09:42:36.000Z</time>
      </trkpt>
      <trkpt lat="43.61083" lon="6.84505">
        <ele>74.1</ele>
        <time>2025-01-10T09:42:35.000Z</time>
      </trkpt>
      <trkpt lat="43.61082" lon="6.84506">
        <ele>74</ele>
        <time>2025-01-10T09:42:34.000Z</time>
      </trkpt>
      <trkpt lat="43.61081" lon="6.84506">
        <ele>74</ele>
        <time>2025-01-10T09:42:33.000Z</time>
      </trkpt>
      <trkpt lat="43.6108" lon="6.84506">
        <ele>73.9</ele>
        <time>2025-01-10T09:42:32.000Z</time>
      </trkpt>
      <trkpt lat="43.61078" lon="6.84507">
        <ele>73.8</ele>
        <time>2025-01-10T09:42:31.000Z</time>
      </trkpt>
      <trkpt lat="43.61075" lon="6.84508">
        <ele>73.7</ele>
        <time>2025-01-10T09:42:30.000Z</time>
      </trkpt>
      <trkpt lat="43.61072" lon="6.84509">
        <ele>73.6</ele>
        <time>2025-01-10T09:42:29.000Z</time>
      </trkpt>
      <trkpt lat="43.6107" lon="6.84509">
        <ele>73.5</ele>
        <time>2025-01-10T09:42:28.000Z</time>
      </trkpt>
      <trkpt lat="43.6107" lon="6.8451">
        <ele>73.5</ele>
        <time>2025-01-10T09:42:27.000Z</time>
      </trkpt>
      <trkpt lat="43.6107" lon="6.8451">
        <ele>73.5</ele>
        <time>2025-01-10T09:42:26.000Z</time>
      </trkpt>
      <trkpt lat="43.6107" lon="6.8451">
        <ele>73.5</ele>
        <time>2025-01-10T09:42:25.000Z</time>
      </trkpt>
      <trkpt lat="43.6107" lon="6.8451">
        <ele>73.5</ele>
        <time>2025-01-10T09:42:24.000Z</time>
      </trkpt>
      <trkpt lat="43.6107" lon="6.8451">
        <ele>73.5</ele>
        <time>2025-01-10T09:42:23.000Z</time>
      </trkpt>
      <trkpt lat="43.6107" lon="6.8451">
        <ele>73.5</ele>
        <time>2025-01-10T09:42:22.000Z</time>
      </trkpt>
      <trkpt lat="43.61069" lon="6.8451">
        <ele>73.5</ele>
        <time>2025-01-10T09:42:21.000Z</time>
      </trkpt>
      <trkpt lat="43.61069" lon="6.8451">
        <ele>73.4</ele>
        <time>2025-01-10T09:42:20.000Z</time>
      </trkpt>
      <trkpt lat="43.61068" lon="6.8451">
        <ele>73.4</ele>
        <time>2025-01-10T09:42:19.000Z</time>
      </trkpt>
      <trkpt lat="43.61068" lon="6.8451">
        <ele>73.4</ele>
        <time>2025-01-10T09:42:18.000Z</time>
      </trkpt>
      <trkpt lat="43.61068" lon="6.8451">
        <ele>73.4</ele>
        <time>2025-01-10T09:42:17.000Z</time>
      </trkpt>
      <trkpt lat="43.61068" lon="6.8451">
        <ele>73.4</ele>
        <time>2025-01-10T09:42:16.000Z</time>
      </trkpt>
      <trkpt lat="43.61068" lon="6.8451">
        <ele>73.4</ele>
        <time>2025-01-10T09:42:15.000Z</time>
      </trkpt>
      <trkpt lat="43.61068" lon="6.8451">
        <ele>73.4</ele>
        <time>2025-01-10T09:42:14.000Z</time>
      </trkpt>
      <trkpt lat="43.61068" lon="6.8451">
        <ele>73.4</ele>
        <time>2025-01-10T09:42:13.000Z</time>
      </trkpt>
      <trkpt lat="43.61068" lon="6.8451">
        <ele>73.4</ele>
        <time>2025-01-10T09:42:12.000Z</time>
      </trkpt>
      <trkpt lat="43.61068" lon="6.8451">
        <ele>73.4</ele>
        <time>2025-01-10T09:42:11.000Z</time>
      </trkpt>
      <trkpt lat="43.61068" lon="6.8451">
        <ele>73.4</ele>
        <time>2025-01-10T09:42:10.000Z</time>
      </trkpt>
      <trkpt lat="43.61068" lon="6.8451">
        <ele>73.4</ele>
        <time>2025-01-10T09:42:09.000Z</time>
      </trkpt>
      <trkpt lat="43.61068" lon="6.8451">
        <ele>73.4</ele>
        <time>2025-01-10T09:42:08.000Z</time>
      </trkpt>
      <trkpt lat="43.61068" lon="6.8451">
        <ele>73.4</ele>
        <time>2025-01-10T09:42:07.000Z</time>
      </trkpt>
      <trkpt lat="43.61068" lon="6.8451">
        <ele>73.4</ele>
        <time>2025-01-10T09:42:06.000Z</time>
      </trkpt>
      <trkpt lat="43.61068" lon="6.8451">
        <ele>73.4</ele>
        <time>2025-01-10T09:42:05.000Z</time>
      </trkpt>
      <trkpt lat="43.61068" lon="6.8451">
        <ele>73.4</ele>
        <time>2025-01-10T09:42:04.000Z</time>
      </trkpt>
      <trkpt lat="43.61068" lon="6.8451">
        <ele>73.4</ele>
        <time>2025-01-10T09:42:03.000Z</time>
      </trkpt>
      <trkpt lat="43.61068" lon="6.8451">
        <ele>73.4</ele>
        <time>2025-01-10T09:42:02.000Z</time>
      </trkpt>
      <trkpt lat="43.61068" lon="6.8451">
        <ele>73.4</ele>
        <time>2025-01-10T09:42:01.000Z</time>
      </trkpt>
      <trkpt lat="43.61068" lon="6.84511">
        <ele>73.4</ele>
        <time>2025-01-10T09:42:00.000Z</time>
      </trkpt>
      <trkpt lat="43.61068" lon="6.8451">
        <ele>73.4</ele>
        <time>2025-01-10T09:41:59.000Z</time>
      </trkpt>
      <trkpt lat="43.61068" lon="6.8451">
        <ele>73.4</ele>
        <time>2025-01-10T09:41:58.000Z</time>
      </trkpt>
      <trkpt lat="43.61068" lon="6.84509">
        <ele>73.3</ele>
        <time>2025-01-10T09:41:57.000Z</time>
      </trkpt>
      <trkpt lat="43.61068" lon="6.84509">
        <ele>73.3</ele>
        <time>2025-01-10T09:41:56.000Z</time>
      </trkpt>
      <trkpt lat="43.61068" lon="6.84509">
        <ele>73.3</ele>
        <time>2025-01-10T09:41:55.000Z</time>
      </trkpt>
      <trkpt lat="43.61068" lon="6.8451">
        <ele>73.3</ele>
        <time>2025-01-10T09:41:54.000Z</time>
      </trkpt>
      <trkpt lat="43.61068" lon="6.84509">
        <ele>73.3</ele>
        <time>2025-01-10T09:41:53.000Z</time>
      </trkpt>
      <trkpt lat="43.61069" lon="6.84509">
        <ele>73.3</ele>
        <time>2025-01-10T09:41:52.000Z</time>
      </trkpt>
      <trkpt lat="43.61069" lon="6.8451">
        <ele>73.2</ele>
        <time>2025-01-10T09:41:51.000Z</time>
      </trkpt>
      <trkpt lat="43.6107" lon="6.84511">
        <ele>73.2</ele>
        <time>2025-01-10T09:41:50.000Z</time>
      </trkpt>
      <trkpt lat="43.6107" lon="6.84511">
        <ele>73.2</ele>
        <time>2025-01-10T09:41:49.000Z</time>
      </trkpt>
      <trkpt lat="43.6107" lon="6.8451">
        <ele>73.2</ele>
        <time>2025-01-10T09:41:48.000Z</time>
      </trkpt>
      <trkpt lat="43.6107" lon="6.8451">
        <ele>73.1</ele>
        <time>2025-01-10T09:41:47.000Z</time>
      </trkpt>
      <trkpt lat="43.61069" lon="6.84509">
        <ele>73.1</ele>
        <time>2025-01-10T09:41:46.000Z</time>
      </trkpt>
      <trkpt lat="43.61067" lon="6.84507">
        <ele>73</ele>
        <time>2025-01-10T09:41:45.000Z</time>
      </trkpt>
      <trkpt lat="43.61064" lon="6.84506">
        <ele>72.9</ele>
        <time>2025-01-10T09:41:44.000Z</time>
      </trkpt>
      <trkpt lat="43.61061" lon="6.84504">
        <ele>72.8</ele>
        <time>2025-01-10T09:41:43.000Z</time>
      </trkpt>
      <trkpt lat="43.61056" lon="6.84501">
        <ele>72.6</ele>
        <time>2025-01-10T09:41:42.000Z</time>
      </trkpt>
      <trkpt lat="43.61052" lon="6.84499">
        <ele>72.5</ele>
        <time>2025-01-10T09:41:41.000Z</time>
      </trkpt>
      <trkpt lat="43.61048" lon="6.84496">
        <ele>72.4</ele>
        <time>2025-01-10T09:41:40.000Z</time>
      </trkpt>
      <trkpt lat="43.61043" lon="6.84494">
        <ele>72.3</ele>
        <time>2025-01-10T09:41:39.000Z</time>
      </trkpt>
      <trkpt lat="43.61038" lon="6.84492">
        <ele>72.2</ele>
        <time>2025-01-10T09:41:38.000Z</time>
      </trkpt>
      <trkpt lat="43.61033" lon="6.84491">
        <ele>72.1</ele>
        <time>2025-01-10T09:41:37.000Z</time>
      </trkpt>
      <trkpt lat="43.61029" lon="6.84489">
        <ele>72</ele>
        <time>2025-01-10T09:41:36.000Z</time>
      </trkpt>
      <trkpt lat="43.61023" lon="6.84488">
        <ele>71.9</ele>
        <time>2025-01-10T09:41:35.000Z</time>
      </trkpt>
      <trkpt lat="43.61018" lon="6.84487">
        <ele>71.9</ele>
        <time>2025-01-10T09:41:34.000Z</time>
      </trkpt>
      <trkpt lat="43.61013" lon="6.84486">
        <ele>71.9</ele>
        <time>2025-01-10T09:41:33.000Z</time>
      </trkpt>
      <trkpt lat="43.61007" lon="6.84484">
        <ele>71.9</ele>
        <time>2025-01-10T09:41:32.000Z</time>
      </trkpt>
      <trkpt lat="43.61002" lon="6.84483">
        <ele>71.9</ele>
        <time>2025-01-10T09:41:31.000Z</time>
      </trkpt>
      <trkpt lat="43.60997" lon="6.84483">
        <ele>71.9</ele>
        <time>2025-01-10T09:41:30.000Z</time>
      </trkpt>
      <trkpt lat="43.60992" lon="6.84484">
        <ele>71.9</ele>
        <time>2025-01-10T09:41:29.000Z</time>
      </trkpt>
      <trkpt lat="43.60988" lon="6.84485">
        <ele>71.9</ele>
        <time>2025-01-10T09:41:28.000Z</time>
      </trkpt>
      <trkpt lat="43.60982" lon="6.84486">
        <ele>71.9</ele>
        <time>2025-01-10T09:41:27.000Z</time>
      </trkpt>
      <trkpt lat="43.60977" lon="6.84488">
        <ele>71.9</ele>
        <time>2025-01-10T09:41:26.000Z</time>
      </trkpt>
      <trkpt lat="43.60972" lon="6.84489">
        <ele>71.9</ele>
        <time>2025-01-10T09:41:25.000Z</time>
      </trkpt>
      <trkpt lat="43.60967" lon="6.84491">
        <ele>71.9</ele>
        <time>2025-01-10T09:41:24.000Z</time>
      </trkpt>
      <trkpt lat="43.60962" lon="6.84493">
        <ele>71.9</ele>
        <time>2025-01-10T09:41:23.000Z</time>
      </trkpt>
      <trkpt lat="43.60958" lon="6.84495">
        <ele>71.9</ele>
        <time>2025-01-10T09:41:22.000Z</time>
      </trkpt>
      <trkpt lat="43.60953" lon="6.84498">
        <ele>71.9</ele>
        <time>2025-01-10T09:41:21.000Z</time>
      </trkpt>
      <trkpt lat="43.60949" lon="6.845">
        <ele>71.9</ele>
        <time>2025-01-10T09:41:20.000Z</time>
      </trkpt>
      <trkpt lat="43.60946" lon="6.84502">
        <ele>71.9</ele>
        <time>2025-01-10T09:41:19.000Z</time>
      </trkpt>
      <trkpt lat="43.60943" lon="6.84504">
        <ele>71.9</ele>
        <time>2025-01-10T09:41:18.000Z</time>
      </trkpt>
      <trkpt lat="43.60941" lon="6.84505">
        <ele>72</ele>
        <time>2025-01-10T09:41:17.000Z</time>
      </trkpt>
      <trkpt lat="43.60939" lon="6.84506">
        <ele>72</ele>
        <time>2025-01-10T09:41:16.000Z</time>
      </trkpt>
      <trkpt lat="43.60939" lon="6.84506">
        <ele>72</ele>
        <time>2025-01-10T09:41:15.000Z</time>
      </trkpt>
      <trkpt lat="43.60938" lon="6.84506">
        <ele>72</ele>
        <time>2025-01-10T09:41:14.000Z</time>
      </trkpt>
      <trkpt lat="43.60938" lon="6.84506">
        <ele>72</ele>
        <time>2025-01-10T09:41:13.000Z</time>
      </trkpt>
      <trkpt lat="43.60938" lon="6.84507">
        <ele>72</ele>
        <time>2025-01-10T09:41:12.000Z</time>
      </trkpt>
      <trkpt lat="43.60936" lon="6.84508">
        <ele>72</ele>
        <time>2025-01-10T09:41:11.000Z</time>
      </trkpt>
      <trkpt lat="43.60938" lon="6.84508">
        <ele>72</ele>
        <time>2025-01-10T09:41:10.000Z</time>
      </trkpt>
      <trkpt lat="43.60938" lon="6.84507">
        <ele>72</ele>
        <time>2025-01-10T09:41:09.000Z</time>
      </trkpt>
      <trkpt lat="43.60938" lon="6.84507">
        <ele>72</ele>
        <time>2025-01-10T09:41:08.000Z</time>
      </trkpt>
      <trkpt lat="43.60939" lon="6.84506">
        <ele>72</ele>
        <time>2025-01-10T09:41:07.000Z</time>
      </trkpt>
      <trkpt lat="43.60939" lon="6.84505">
        <ele>72</ele>
        <time>2025-01-10T09:41:06.000Z</time>
      </trkpt>
      <trkpt lat="43.6094" lon="6.84505">
        <ele>72</ele>
        <time>2025-01-10T09:41:05.000Z</time>
      </trkpt>
      <trkpt lat="43.6094" lon="6.84504">
        <ele>72</ele>
        <time>2025-01-10T09:41:04.000Z</time>
      </trkpt>
      <trkpt lat="43.6094" lon="6.84504">
        <ele>72</ele>
        <time>2025-01-10T09:41:03.000Z</time>
      </trkpt>
      <trkpt lat="43.6094" lon="6.84504">
        <ele>72</ele>
        <time>2025-01-10T09:41:02.000Z</time>
      </trkpt>
      <trkpt lat="43.6094" lon="6.84504">
        <ele>72.1</ele>
        <time>2025-01-10T09:41:01.000Z</time>
      </trkpt>
      <trkpt lat="43.6094" lon="6.84504">
        <ele>72.1</ele>
        <time>2025-01-10T09:41:00.000Z</time>
      </trkpt>
      <trkpt lat="43.60939" lon="6.84504">
        <ele>72.1</ele>
        <time>2025-01-10T09:40:59.000Z</time>
      </trkpt>
      <trkpt lat="43.60937" lon="6.84504">
        <ele>72.1</ele>
        <time>2025-01-10T09:40:58.000Z</time>
      </trkpt>
      <trkpt lat="43.60934" lon="6.84504">
        <ele>72.1</ele>
        <time>2025-01-10T09:40:57.000Z</time>
      </trkpt>
      <trkpt lat="43.60931" lon="6.84504">
        <ele>72.2</ele>
        <time>2025-01-10T09:40:56.000Z</time>
      </trkpt>
      <trkpt lat="43.60927" lon="6.84505">
        <ele>72.2</ele>
        <time>2025-01-10T09:40:55.000Z</time>
      </trkpt>
      <trkpt lat="43.6092" lon="6.84506">
        <ele>72.4</ele>
        <time>2025-01-10T09:40:54.000Z</time>
      </trkpt>
      <trkpt lat="43.60914" lon="6.84507">
        <ele>72.6</ele>
        <time>2025-01-10T09:40:53.000Z</time>
      </trkpt>
      <trkpt lat="43.60909" lon="6.84509">
        <ele>72.7</ele>
        <time>2025-01-10T09:40:52.000Z</time>
      </trkpt>
      <trkpt lat="43.60903" lon="6.84512">
        <ele>72.9</ele>
        <time>2025-01-10T09:40:51.000Z</time>
      </trkpt>
      <trkpt lat="43.60897" lon="6.84515">
        <ele>73.1</ele>
        <time>2025-01-10T09:40:50.000Z</time>
      </trkpt>
      <trkpt lat="43.60891" lon="6.84517">
        <ele>73.3</ele>
        <time>2025-01-10T09:40:49.000Z</time>
      </trkpt>
      <trkpt lat="43.60885" lon="6.8452">
        <ele>73.5</ele>
        <time>2025-01-10T09:40:48.000Z</time>
      </trkpt>
      <trkpt lat="43.6088" lon="6.84524">
        <ele>73.7</ele>
        <time>2025-01-10T09:40:47.000Z</time>
      </trkpt>
      <trkpt lat="43.60874" lon="6.84526">
        <ele>73.9</ele>
        <time>2025-01-10T09:40:46.000Z</time>
      </trkpt>
      <trkpt lat="43.60869" lon="6.84529">
        <ele>74.1</ele>
        <time>2025-01-10T09:40:45.000Z</time>
      </trkpt>
      <trkpt lat="43.60863" lon="6.84531">
        <ele>74.3</ele>
        <time>2025-01-10T09:40:44.000Z</time>
      </trkpt>
      <trkpt lat="43.60858" lon="6.84534">
        <ele>74.5</ele>
        <time>2025-01-10T09:40:43.000Z</time>
      </trkpt>
      <trkpt lat="43.60853" lon="6.84535">
        <ele>74.7</ele>
        <time>2025-01-10T09:40:42.000Z</time>
      </trkpt>
      <trkpt lat="43.60848" lon="6.84537">
        <ele>74.9</ele>
        <time>2025-01-10T09:40:41.000Z</time>
      </trkpt>
      <trkpt lat="43.60843" lon="6.84539">
        <ele>75.1</ele>
        <time>2025-01-10T09:40:40.000Z</time>
      </trkpt>
      <trkpt lat="43.60838" lon="6.84541">
        <ele>75.3</ele>
        <time>2025-01-10T09:40:39.000Z</time>
      </trkpt>
      <trkpt lat="43.60833" lon="6.84542">
        <ele>75.5</ele>
        <time>2025-01-10T09:40:38.000Z</time>
      </trkpt>
      <trkpt lat="43.60829" lon="6.84544">
        <ele>75.6</ele>
        <time>2025-01-10T09:40:37.000Z</time>
      </trkpt>
      <trkpt lat="43.60824" lon="6.84546">
        <ele>75.7</ele>
        <time>2025-01-10T09:40:36.000Z</time>
      </trkpt>
      <trkpt lat="43.60819" lon="6.84548">
        <ele>75.9</ele>
        <time>2025-01-10T09:40:35.000Z</time>
      </trkpt>
      <trkpt lat="43.60815" lon="6.84549">
        <ele>76</ele>
        <time>2025-01-10T09:40:34.000Z</time>
      </trkpt>
      <trkpt lat="43.6081" lon="6.84551">
        <ele>76.1</ele>
        <time>2025-01-10T09:40:33.000Z</time>
      </trkpt>
      <trkpt lat="43.60805" lon="6.84552">
        <ele>76.1</ele>
        <time>2025-01-10T09:40:32.000Z</time>
      </trkpt>
      <trkpt lat="43.60801" lon="6.84553">
        <ele>76.2</ele>
        <time>2025-01-10T09:40:31.000Z</time>
      </trkpt>
      <trkpt lat="43.60797" lon="6.84554">
        <ele>76.2</ele>
        <time>2025-01-10T09:40:30.000Z</time>
      </trkpt>
      <trkpt lat="43.60794" lon="6.84555">
        <ele>76.2</ele>
        <time>2025-01-10T09:40:29.000Z</time>
      </trkpt>
      <trkpt lat="43.60791" lon="6.84556">
        <ele>76.2</ele>
        <time>2025-01-10T09:40:28.000Z</time>
      </trkpt>
      <trkpt lat="43.60789" lon="6.84558">
        <ele>76.2</ele>
        <time>2025-01-10T09:40:27.000Z</time>
      </trkpt>
      <trkpt lat="43.60789" lon="6.84558">
        <ele>76.2</ele>
        <time>2025-01-10T09:40:26.000Z</time>
      </trkpt>
      <trkpt lat="43.60789" lon="6.84558">
        <ele>76.2</ele>
        <time>2025-01-10T09:40:25.000Z</time>
      </trkpt>
      <trkpt lat="43.60789" lon="6.84558">
        <ele>76.2</ele>
        <time>2025-01-10T09:40:24.000Z</time>
      </trkpt>
      <trkpt lat="43.60789" lon="6.84558">
        <ele>76.2</ele>
        <time>2025-01-10T09:40:23.000Z</time>
      </trkpt>
      <trkpt lat="43.60789" lon="6.84558">
        <ele>76.2</ele>
        <time>2025-01-10T09:40:22.000Z</time>
      </trkpt>
      <trkpt lat="43.60789" lon="6.84558">
        <ele>76.2</ele>
        <time>2025-01-10T09:40:21.000Z</time>
      </trkpt>
      <trkpt lat="43.60789" lon="6.84557">
        <ele>76.2</ele>
        <time>2025-01-10T09:40:20.000Z</time>
      </trkpt>
      <trkpt lat="43.60789" lon="6.84557">
        <ele>76.2</ele>
        <time>2025-01-10T09:40:19.000Z</time>
      </trkpt>
      <trkpt lat="43.60789" lon="6.84557">
        <ele>76.2</ele>
        <time>2025-01-10T09:40:18.000Z</time>
      </trkpt>
      <trkpt lat="43.60789" lon="6.84557">
        <ele>76.2</ele>
        <time>2025-01-10T09:40:17.000Z</time>
      </trkpt>
      <trkpt lat="43.60789" lon="6.84557">
        <ele>76.2</ele>
        <time>2025-01-10T09:40:16.000Z</time>
      </trkpt>
      <trkpt lat="43.60789" lon="6.84557">
        <ele>76.2</ele>
        <time>2025-01-10T09:40:15.000Z</time>
      </trkpt>
      <trkpt lat="43.60789" lon="6.84557">
        <ele>76.2</ele>
        <time>2025-01-10T09:40:14.000Z</time>
      </trkpt>
      <trkpt lat="43.60789" lon="6.84558">
        <ele>76.2</ele>
        <time>2025-01-10T09:40:13.000Z</time>
      </trkpt>
      <trkpt lat="43.60789" lon="6.84558">
        <ele>76.2</ele>
        <time>2025-01-10T09:40:12.000Z</time>
      </trkpt>
      <trkpt lat="43.6079" lon="6.84558">
        <ele>76.2</ele>
        <time>2025-01-10T09:40:11.000Z</time>
      </trkpt>
      <trkpt lat="43.6079" lon="6.84558">
        <ele>76.1</ele>
        <time>2025-01-10T09:40:10.000Z</time>
      </trkpt>
      <trkpt lat="43.6079" lon="6.84558">
        <ele>76.1</ele>
        <time>2025-01-10T09:40:09.000Z</time>
      </trkpt>
      <trkpt lat="43.60791" lon="6.84559">
        <ele>76.1</ele>
        <time>2025-01-10T09:40:08.000Z</time>
      </trkpt>
      <trkpt lat="43.6079" lon="6.84559">
        <ele>76.1</ele>
        <time>2025-01-10T09:40:07.000Z</time>
      </trkpt>
      <trkpt lat="43.6079" lon="6.84559">
        <ele>76.1</ele>
        <time>2025-01-10T09:40:06.000Z</time>
      </trkpt>
      <trkpt lat="43.60789" lon="6.84559">
        <ele>76.1</ele>
        <time>2025-01-10T09:40:05.000Z</time>
      </trkpt>
      <trkpt lat="43.60787" lon="6.8456">
        <ele>76.1</ele>
        <time>2025-01-10T09:40:04.000Z</time>
      </trkpt>
      <trkpt lat="43.60785" lon="6.8456">
        <ele>76.1</ele>
        <time>2025-01-10T09:40:03.000Z</time>
      </trkpt>
      <trkpt lat="43.60781" lon="6.84561">
        <ele>76</ele>
        <time>2025-01-10T09:40:02.000Z</time>
      </trkpt>
      <trkpt lat="43.60777" lon="6.84562">
        <ele>76</ele>
        <time>2025-01-10T09:40:01.000Z</time>
      </trkpt>
      <trkpt lat="43.60773" lon="6.84562">
        <ele>76</ele>
        <time>2025-01-10T09:40:00.000Z</time>
      </trkpt>
      <trkpt lat="43.60769" lon="6.84563">
        <ele>75.9</ele>
        <time>2025-01-10T09:39:59.000Z</time>
      </trkpt>
      <trkpt lat="43.60764" lon="6.84563">
        <ele>75.8</ele>
        <time>2025-01-10T09:39:58.000Z</time>
      </trkpt>
      <trkpt lat="43.60759" lon="6.84564">
        <ele>75.8</ele>
        <time>2025-01-10T09:39:57.000Z</time>
      </trkpt>
      <trkpt lat="43.60754" lon="6.84564">
        <ele>75.7</ele>
        <time>2025-01-10T09:39:56.000Z</time>
      </trkpt>
      <trkpt lat="43.60749" lon="6.84564">
        <ele>75.7</ele>
        <time>2025-01-10T09:39:55.000Z</time>
      </trkpt>
      <trkpt lat="43.60744" lon="6.84564">
        <ele>75.6</ele>
        <time>2025-01-10T09:39:54.000Z</time>
      </trkpt>
      <trkpt lat="43.60739" lon="6.84564">
        <ele>75.5</ele>
        <time>2025-01-10T09:39:53.000Z</time>
      </trkpt>
      <trkpt lat="43.60732" lon="6.84563">
        <ele>75.5</ele>
        <time>2025-01-10T09:39:52.000Z</time>
      </trkpt>
      <trkpt lat="43.60726" lon="6.84561">
        <ele>75.5</ele>
        <time>2025-01-10T09:39:51.000Z</time>
      </trkpt>
      <trkpt lat="43.60721" lon="6.84558">
        <ele>75.5</ele>
        <time>2025-01-10T09:39:50.000Z</time>
      </trkpt>
      <trkpt lat="43.60715" lon="6.84555">
        <ele>75.6</ele>
        <time>2025-01-10T09:39:49.000Z</time>
      </trkpt>
      <trkpt lat="43.6071" lon="6.84552">
        <ele>75.6</ele>
        <time>2025-01-10T09:39:48.000Z</time>
      </trkpt>
      <trkpt lat="43.60705" lon="6.84548">
        <ele>75.7</ele>
        <time>2025-01-10T09:39:47.000Z</time>
      </trkpt>
      <trkpt lat="43.607" lon="6.84544">
        <ele>75.7</ele>
        <time>2025-01-10T09:39:46.000Z</time>
      </trkpt>
      <trkpt lat="43.60696" lon="6.84539">
        <ele>75.7</ele>
        <time>2025-01-10T09:39:45.000Z</time>
      </trkpt>
      <trkpt lat="43.60691" lon="6.84534">
        <ele>75.8</ele>
        <time>2025-01-10T09:39:44.000Z</time>
      </trkpt>
      <trkpt lat="43.60688" lon="6.84529">
        <ele>75.8</ele>
        <time>2025-01-10T09:39:43.000Z</time>
      </trkpt>
      <trkpt lat="43.60683" lon="6.84523">
        <ele>75.9</ele>
        <time>2025-01-10T09:39:42.000Z</time>
      </trkpt>
      <trkpt lat="43.60679" lon="6.84517">
        <ele>76</ele>
        <time>2025-01-10T09:39:41.000Z</time>
      </trkpt>
      <trkpt lat="43.60675" lon="6.84512">
        <ele>76</ele>
        <time>2025-01-10T09:39:40.000Z</time>
      </trkpt>
      <trkpt lat="43.6067" lon="6.84507">
        <ele>76.1</ele>
        <time>2025-01-10T09:39:39.000Z</time>
      </trkpt>
      <trkpt lat="43.60666" lon="6.84502">
        <ele>76.2</ele>
        <time>2025-01-10T09:39:38.000Z</time>
      </trkpt>
      <trkpt lat="43.60661" lon="6.84497">
        <ele>76.3</ele>
        <time>2025-01-10T09:39:37.000Z</time>
      </trkpt>
      <trkpt lat="43.60656" lon="6.84491">
        <ele>76.4</ele>
        <time>2025-01-10T09:39:36.000Z</time>
      </trkpt>
      <trkpt lat="43.60651" lon="6.84486">
        <ele>76.5</ele>
        <time>2025-01-10T09:39:35.000Z</time>
      </trkpt>
      <trkpt lat="43.60645" lon="6.84482">
        <ele>76.7</ele>
        <time>2025-01-10T09:39:34.000Z</time>
      </trkpt>
      <trkpt lat="43.6064" lon="6.84477">
        <ele>76.9</ele>
        <time>2025-01-10T09:39:33.000Z</time>
      </trkpt>
      <trkpt lat="43.60634" lon="6.84472">
        <ele>77.1</ele>
        <time>2025-01-10T09:39:32.000Z</time>
      </trkpt>
      <trkpt lat="43.60628" lon="6.84468">
        <ele>77.3</ele>
        <time>2025-01-10T09:39:31.000Z</time>
      </trkpt>
      <trkpt lat="43.60623" lon="6.84463">
        <ele>77.5</ele>
        <time>2025-01-10T09:39:30.000Z</time>
      </trkpt>
      <trkpt lat="43.60618" lon="6.84459">
        <ele>77.8</ele>
        <time>2025-01-10T09:39:29.000Z</time>
      </trkpt>
      <trkpt lat="43.60612" lon="6.84454">
        <ele>78.1</ele>
        <time>2025-01-10T09:39:28.000Z</time>
      </trkpt>
      <trkpt lat="43.60608" lon="6.8445">
        <ele>78.3</ele>
        <time>2025-01-10T09:39:27.000Z</time>
      </trkpt>
      <trkpt lat="43.60603" lon="6.84447">
        <ele>78.6</ele>
        <time>2025-01-10T09:39:26.000Z</time>
      </trkpt>
      <trkpt lat="43.606" lon="6.84444">
        <ele>78.8</ele>
        <time>2025-01-10T09:39:25.000Z</time>
      </trkpt>
      <trkpt lat="43.60594" lon="6.84441">
        <ele>79</ele>
        <time>2025-01-10T09:39:24.000Z</time>
      </trkpt>
      <trkpt lat="43.60589" lon="6.8444">
        <ele>79.2</ele>
        <time>2025-01-10T09:39:23.000Z</time>
      </trkpt>
      <trkpt lat="43.60584" lon="6.84441">
        <ele>79.4</ele>
        <time>2025-01-10T09:39:22.000Z</time>
      </trkpt>
      <trkpt lat="43.60579" lon="6.84442">
        <ele>79.5</ele>
        <time>2025-01-10T09:39:21.000Z</time>
      </trkpt>
      <trkpt lat="43.60573" lon="6.84444">
        <ele>79.5</ele>
        <time>2025-01-10T09:39:20.000Z</time>
      </trkpt>
      <trkpt lat="43.60567" lon="6.84448">
        <ele>79.5</ele>
        <time>2025-01-10T09:39:19.000Z</time>
      </trkpt>
      <trkpt lat="43.60561" lon="6.84452">
        <ele>79.5</ele>
        <time>2025-01-10T09:39:18.000Z</time>
      </trkpt>
      <trkpt lat="43.60555" lon="6.84457">
        <ele>79.5</ele>
        <time>2025-01-10T09:39:17.000Z</time>
      </trkpt>
      <trkpt lat="43.60549" lon="6.84461">
        <ele>79.5</ele>
        <time>2025-01-10T09:39:16.000Z</time>
      </trkpt>
      <trkpt lat="43.60542" lon="6.84464">
        <ele>79.5</ele>
        <time>2025-01-10T09:39:15.000Z</time>
      </trkpt>
      <trkpt lat="43.60536" lon="6.84465">
        <ele>79.5</ele>
        <time>2025-01-10T09:39:14.000Z</time>
      </trkpt>
      <trkpt lat="43.6053" lon="6.84462">
        <ele>79.6</ele>
        <time>2025-01-10T09:39:13.000Z</time>
      </trkpt>
      <trkpt lat="43.60524" lon="6.84456">
        <ele>79.7</ele>
        <time>2025-01-10T09:39:12.000Z</time>
      </trkpt>
      <trkpt lat="43.6052" lon="6.8445">
        <ele>79.8</ele>
        <time>2025-01-10T09:39:11.000Z</time>
      </trkpt>
      <trkpt lat="43.60515" lon="6.8444">
        <ele>79.9</ele>
        <time>2025-01-10T09:39:10.000Z</time>
      </trkpt>
      <trkpt lat="43.60511" lon="6.84426">
        <ele>80.1</ele>
        <time>2025-01-10T09:39:09.000Z</time>
      </trkpt>
      <trkpt lat="43.60508" lon="6.84417">
        <ele>80.4</ele>
        <time>2025-01-10T09:39:08.000Z</time>
      </trkpt>
      <trkpt lat="43.60504" lon="6.84403">
        <ele>80.8</ele>
        <time>2025-01-10T09:39:07.000Z</time>
      </trkpt>
      <trkpt lat="43.60499" lon="6.84392">
        <ele>81.2</ele>
        <time>2025-01-10T09:39:06.000Z</time>
      </trkpt>
      <trkpt lat="43.60493" lon="6.84382">
        <ele>81.7</ele>
        <time>2025-01-10T09:39:05.000Z</time>
      </trkpt>
      <trkpt lat="43.60487" lon="6.84372">
        <ele>82.3</ele>
        <time>2025-01-10T09:39:04.000Z</time>
      </trkpt>
      <trkpt lat="43.60481" lon="6.84362">
        <ele>82.9</ele>
        <time>2025-01-10T09:39:03.000Z</time>
      </trkpt>
      <trkpt lat="43.60476" lon="6.84351">
        <ele>83.7</ele>
        <time>2025-01-10T09:39:02.000Z</time>
      </trkpt>
      <trkpt lat="43.60471" lon="6.8434">
        <ele>84.4</ele>
        <time>2025-01-10T09:39:01.000Z</time>
      </trkpt>
      <trkpt lat="43.60469" lon="6.84327">
        <ele>85.3</ele>
        <time>2025-01-10T09:39:00.000Z</time>
      </trkpt>
      <trkpt lat="43.60467" lon="6.84312">
        <ele>86.2</ele>
        <time>2025-01-10T09:38:59.000Z</time>
      </trkpt>
      <trkpt lat="43.60466" lon="6.843">
        <ele>87.1</ele>
        <time>2025-01-10T09:38:58.000Z</time>
      </trkpt>
      <trkpt lat="43.60466" lon="6.8429">
        <ele>87.7</ele>
        <time>2025-01-10T09:38:57.000Z</time>
      </trkpt>
      <trkpt lat="43.60463" lon="6.84277">
        <ele>88.6</ele>
        <time>2025-01-10T09:38:56.000Z</time>
      </trkpt>
      <trkpt lat="43.60459" lon="6.84268">
        <ele>89.3</ele>
        <time>2025-01-10T09:38:55.000Z</time>
      </trkpt>
      <trkpt lat="43.60455" lon="6.84261">
        <ele>89.8</ele>
        <time>2025-01-10T09:38:54.000Z</time>
      </trkpt>
      <trkpt lat="43.60447" lon="6.84254">
        <ele>90.5</ele>
        <time>2025-01-10T09:38:53.000Z</time>
      </trkpt>
      <trkpt lat="43.60438" lon="6.84251">
        <ele>91.1</ele>
        <time>2025-01-10T09:38:52.000Z</time>
      </trkpt>
      <trkpt lat="43.60429" lon="6.84248">
        <ele>91.7</ele>
        <time>2025-01-10T09:38:51.000Z</time>
      </trkpt>
      <trkpt lat="43.6042" lon="6.84246">
        <ele>92.3</ele>
        <time>2025-01-10T09:38:50.000Z</time>
      </trkpt>
      <trkpt lat="43.60413" lon="6.84244">
        <ele>92.8</ele>
        <time>2025-01-10T09:38:49.000Z</time>
      </trkpt>
      <trkpt lat="43.60403" lon="6.84242">
        <ele>93.5</ele>
        <time>2025-01-10T09:38:48.000Z</time>
      </trkpt>
      <trkpt lat="43.60393" lon="6.8424">
        <ele>94.2</ele>
        <time>2025-01-10T09:38:47.000Z</time>
      </trkpt>
      <trkpt lat="43.60384" lon="6.84239">
        <ele>94.8</ele>
        <time>2025-01-10T09:38:46.000Z</time>
      </trkpt>
      <trkpt lat="43.60377" lon="6.84238">
        <ele>95.3</ele>
        <time>2025-01-10T09:38:45.000Z</time>
      </trkpt>
      <trkpt lat="43.60366" lon="6.84237">
        <ele>96.1</ele>
        <time>2025-01-10T09:38:44.000Z</time>
      </trkpt>
      <trkpt lat="43.60358" lon="6.84237">
        <ele>96.8</ele>
        <time>2025-01-10T09:38:43.000Z</time>
      </trkpt>
      <trkpt lat="43.60349" lon="6.84236">
        <ele>97.4</ele>
        <time>2025-01-10T09:38:42.000Z</time>
      </trkpt>
      <trkpt lat="43.60341" lon="6.84235">
        <ele>97.9</ele>
        <time>2025-01-10T09:38:41.000Z</time>
      </trkpt>
      <trkpt lat="43.60333" lon="6.84235">
        <ele>98.5</ele>
        <time>2025-01-10T09:38:40.000Z</time>
      </trkpt>
      <trkpt lat="43.60325" lon="6.84235">
        <ele>98.9</ele>
        <time>2025-01-10T09:38:39.000Z</time>
      </trkpt>
      <trkpt lat="43.60318" lon="6.84235">
        <ele>99.2</ele>
        <time>2025-01-10T09:38:38.000Z</time>
      </trkpt>
      <trkpt lat="43.60311" lon="6.84235">
        <ele>99.6</ele>
        <time>2025-01-10T09:38:37.000Z</time>
      </trkpt>
      <trkpt lat="43.60303" lon="6.84235">
        <ele>100</ele>
        <time>2025-01-10T09:38:36.000Z</time>
      </trkpt>
      <trkpt lat="43.60296" lon="6.84236">
        <ele>100.4</ele>
        <time>2025-01-10T09:38:35.000Z</time>
      </trkpt>
      <trkpt lat="43.60289" lon="6.84236">
        <ele>100.9</ele>
        <time>2025-01-10T09:38:34.000Z</time>
      </trkpt>
      <trkpt lat="43.60282" lon="6.84237">
        <ele>101.3</ele>
        <time>2025-01-10T09:38:33.000Z</time>
      </trkpt>
      <trkpt lat="43.60275" lon="6.84237">
        <ele>101.7</ele>
        <time>2025-01-10T09:38:32.000Z</time>
      </trkpt>
      <trkpt lat="43.60269" lon="6.84238">
        <ele>102.1</ele>
        <time>2025-01-10T09:38:31.000Z</time>
      </trkpt>
      <trkpt lat="43.60263" lon="6.84239">
        <ele>102.4</ele>
        <time>2025-01-10T09:38:30.000Z</time>
      </trkpt>
      <trkpt lat="43.60257" lon="6.8424">
        <ele>102.8</ele>
        <time>2025-01-10T09:38:29.000Z</time>
      </trkpt>
      <trkpt lat="43.60252" lon="6.8424">
        <ele>103.1</ele>
        <time>2025-01-10T09:38:28.000Z</time>
      </trkpt>
      <trkpt lat="43.60246" lon="6.84242">
        <ele>103.4</ele>
        <time>2025-01-10T09:38:27.000Z</time>
      </trkpt>
      <trkpt lat="43.60241" lon="6.84243">
        <ele>103.7</ele>
        <time>2025-01-10T09:38:26.000Z</time>
      </trkpt>
      <trkpt lat="43.60236" lon="6.84245">
        <ele>104</ele>
        <time>2025-01-10T09:38:25.000Z</time>
      </trkpt>
      <trkpt lat="43.60231" lon="6.84246">
        <ele>104.3</ele>
        <time>2025-01-10T09:38:24.000Z</time>
      </trkpt>
      <trkpt lat="43.60227" lon="6.84247">
        <ele>104.5</ele>
        <time>2025-01-10T09:38:23.000Z</time>
      </trkpt>
      <trkpt lat="43.60222" lon="6.84247">
        <ele>104.7</ele>
        <time>2025-01-10T09:38:22.000Z</time>
      </trkpt>
      <trkpt lat="43.60218" lon="6.84247">
        <ele>104.9</ele>
        <time>2025-01-10T09:38:21.000Z</time>
      </trkpt>
      <trkpt lat="43.60215" lon="6.84247">
        <ele>105.1</ele>
        <time>2025-01-10T09:38:20.000Z</time>
      </trkpt>
      <trkpt lat="43.60211" lon="6.84247">
        <ele>104.7</ele>
        <time>2025-01-10T09:38:19.000Z</time>
      </trkpt>
      <trkpt lat="43.60211" lon="6.84247">
        <ele>104.6</ele>
        <time>2025-01-10T09:38:18.000Z</time>
      </trkpt>
      <trkpt lat="43.60211" lon="6.84246">
        <ele>104.6</ele>
        <time>2025-01-10T09:38:17.000Z</time>
      </trkpt>
      <trkpt lat="43.60211" lon="6.84246">
        <ele>104.5</ele>
        <time>2025-01-10T09:38:16.000Z</time>
      </trkpt>
      <trkpt lat="43.60211" lon="6.84246">
        <ele>104.5</ele>
        <time>2025-01-10T09:38:15.000Z</time>
      </trkpt>
      <trkpt lat="43.60211" lon="6.84246">
        <ele>104.5</ele>
        <time>2025-01-10T09:38:14.000Z</time>
      </trkpt>
      <trkpt lat="43.60211" lon="6.84246">
        <ele>104.5</ele>
        <time>2025-01-10T09:38:13.000Z</time>
      </trkpt>
      <trkpt lat="43.60211" lon="6.84245">
        <ele>104.4</ele>
        <time>2025-01-10T09:38:12.000Z</time>
      </trkpt>
      <trkpt lat="43.60211" lon="6.84245">
        <ele>104.4</ele>
        <time>2025-01-10T09:38:11.000Z</time>
      </trkpt>
      <trkpt lat="43.60211" lon="6.84245">
        <ele>104.3</ele>
        <time>2025-01-10T09:38:10.000Z</time>
      </trkpt>
      <trkpt lat="43.60211" lon="6.84245">
        <ele>104.3</ele>
        <time>2025-01-10T09:38:09.000Z</time>
      </trkpt>
      <trkpt lat="43.60211" lon="6.84245">
        <ele>104.3</ele>
        <time>2025-01-10T09:38:08.000Z</time>
      </trkpt>
      <trkpt lat="43.60211" lon="6.84245">
        <ele>104.3</ele>
        <time>2025-01-10T09:38:07.000Z</time>
      </trkpt>
      <trkpt lat="43.60211" lon="6.84245">
        <ele>104.3</ele>
        <time>2025-01-10T09:38:06.000Z</time>
      </trkpt>
      <trkpt lat="43.60211" lon="6.84245">
        <ele>104.3</ele>
        <time>2025-01-10T09:38:05.000Z</time>
      </trkpt>
      <trkpt lat="43.60211" lon="6.84245">
        <ele>104.3</ele>
        <time>2025-01-10T09:38:04.000Z</time>
      </trkpt>
      <trkpt lat="43.60211" lon="6.84245">
        <ele>104.3</ele>
        <time>2025-01-10T09:38:03.000Z</time>
      </trkpt>
      <trkpt lat="43.60211" lon="6.84245">
        <ele>104.3</ele>
        <time>2025-01-10T09:38:02.000Z</time>
      </trkpt>
      <trkpt lat="43.60211" lon="6.84245">
        <ele>104.3</ele>
        <time>2025-01-10T09:38:01.000Z</time>
      </trkpt>
      <trkpt lat="43.60211" lon="6.84245">
        <ele>104.3</ele>
        <time>2025-01-10T09:38:00.000Z</time>
      </trkpt>
      <trkpt lat="43.60211" lon="6.84245">
        <ele>104.3</ele>
        <time>2025-01-10T09:37:59.000Z</time>
      </trkpt>
      <trkpt lat="43.60211" lon="6.84245">
        <ele>104.3</ele>
        <time>2025-01-10T09:37:58.000Z</time>
      </trkpt>
      <trkpt lat="43.60211" lon="6.84245">
        <ele>104.3</ele>
        <time>2025-01-10T09:37:57.000Z</time>
      </trkpt>
      <trkpt lat="43.60211" lon="6.84245">
        <ele>104.3</ele>
        <time>2025-01-10T09:37:56.000Z</time>
      </trkpt>
      <trkpt lat="43.60211" lon="6.84245">
        <ele>104.2</ele>
        <time>2025-01-10T09:37:55.000Z</time>
      </trkpt>
      <trkpt lat="43.60211" lon="6.84245">
        <ele>104.2</ele>
        <time>2025-01-10T09:37:54.000Z</time>
      </trkpt>
      <trkpt lat="43.60211" lon="6.84245">
        <ele>104.1</ele>
        <time>2025-01-10T09:37:53.000Z</time>
      </trkpt>
      <trkpt lat="43.60211" lon="6.84245">
        <ele>104.1</ele>
        <time>2025-01-10T09:37:52.000Z</time>
      </trkpt>
      <trkpt lat="43.60211" lon="6.84246">
        <ele>104.1</ele>
        <time>2025-01-10T09:37:51.000Z</time>
      </trkpt>
      <trkpt lat="43.60211" lon="6.84246">
        <ele>104.1</ele>
        <time>2025-01-10T09:37:50.000Z</time>
      </trkpt>
      <trkpt lat="43.60211" lon="6.84246">
        <ele>104.1</ele>
        <time>2025-01-10T09:37:49.000Z</time>
      </trkpt>
      <trkpt lat="43.60211" lon="6.84246">
        <ele>104.1</ele>
        <time>2025-01-10T09:37:48.000Z</time>
      </trkpt>
      <trkpt lat="43.60211" lon="6.84246">
        <ele>104.1</ele>
        <time>2025-01-10T09:37:47.000Z</time>
      </trkpt>
      <trkpt lat="43.60211" lon="6.84246">
        <ele>104.1</ele>
        <time>2025-01-10T09:37:46.000Z</time>
      </trkpt>
      <trkpt lat="43.60211" lon="6.84246">
        <ele>104.1</ele>
        <time>2025-01-10T09:37:45.000Z</time>
      </trkpt>
      <trkpt lat="43.60211" lon="6.84246">
        <ele>104.1</ele>
        <time>2025-01-10T09:37:44.000Z</time>
      </trkpt>
      <trkpt lat="43.60211" lon="6.84246">
        <ele>104.1</ele>
        <time>2025-01-10T09:37:43.000Z</time>
      </trkpt>
      <trkpt lat="43.60211" lon="6.84246">
        <ele>104.1</ele>
        <time>2025-01-10T09:37:42.000Z</time>
      </trkpt>
      <trkpt lat="43.60211" lon="6.84246">
        <ele>104.1</ele>
        <time>2025-01-10T09:37:41.000Z</time>
      </trkpt>
      <trkpt lat="43.60211" lon="6.84246">
        <ele>104.1</ele>
        <time>2025-01-10T09:37:40.000Z</time>
      </trkpt>
      <trkpt lat="43.60211" lon="6.84246">
        <ele>104.1</ele>
        <time>2025-01-10T09:37:39.000Z</time>
      </trkpt>
      <trkpt lat="43.60211" lon="6.84246">
        <ele>104.1</ele>
        <time>2025-01-10T09:37:38.000Z</time>
      </trkpt>
      <trkpt lat="43.60211" lon="6.84246">
        <ele>104.1</ele>
        <time>2025-01-10T09:37:37.000Z</time>
      </trkpt>
      <trkpt lat="43.60212" lon="6.84246">
        <ele>103.9</ele>
        <time>2025-01-10T09:37:36.000Z</time>
      </trkpt>
      <trkpt lat="43.60213" lon="6.84247">
        <ele>103.8</ele>
        <time>2025-01-10T09:37:35.000Z</time>
      </trkpt>
      <trkpt lat="43.60214" lon="6.84247">
        <ele>103.6</ele>
        <time>2025-01-10T09:37:34.000Z</time>
      </trkpt>
      <trkpt lat="43.60215" lon="6.84246">
        <ele>103.4</ele>
        <time>2025-01-10T09:37:33.000Z</time>
      </trkpt>
      <trkpt lat="43.60215" lon="6.84246">
        <ele>103.3</ele>
        <time>2025-01-10T09:37:32.000Z</time>
      </trkpt>
      <trkpt lat="43.60216" lon="6.84246">
        <ele>103.2</ele>
        <time>2025-01-10T09:37:31.000Z</time>
      </trkpt>
      <trkpt lat="43.60216" lon="6.84246">
        <ele>103.1</ele>
        <time>2025-01-10T09:37:30.000Z</time>
      </trkpt>
      <trkpt lat="43.60217" lon="6.84245">
        <ele>103.1</ele>
        <time>2025-01-10T09:37:29.000Z</time>
      </trkpt>
      <trkpt lat="43.60217" lon="6.84246">
        <ele>103.1</ele>
        <time>2025-01-10T09:37:28.000Z</time>
      </trkpt>
      <trkpt lat="43.60217" lon="6.84246">
        <ele>103</ele>
        <time>2025-01-10T09:37:27.000Z</time>
      </trkpt>
      <trkpt lat="43.60216" lon="6.84246">
        <ele>103</ele>
        <time>2025-01-10T09:37:26.000Z</time>
      </trkpt>
      <trkpt lat="43.60216" lon="6.84246">
        <ele>102.9</ele>
        <time>2025-01-10T09:37:25.000Z</time>
      </trkpt>
      <trkpt lat="43.60215" lon="6.84246">
        <ele>102.7</ele>
        <time>2025-01-10T09:37:24.000Z</time>
      </trkpt>
      <trkpt lat="43.60214" lon="6.84246">
        <ele>102.5</ele>
        <time>2025-01-10T09:37:23.000Z</time>
      </trkpt>
      <trkpt lat="43.60212" lon="6.84245">
        <ele>102.1</ele>
        <time>2025-01-10T09:37:22.000Z</time>
      </trkpt>
      <trkpt lat="43.60209" lon="6.84245">
        <ele>101.6</ele>
        <time>2025-01-10T09:37:21.000Z</time>
      </trkpt>
      <trkpt lat="43.60207" lon="6.84245">
        <ele>101</ele>
        <time>2025-01-10T09:37:20.000Z</time>
      </trkpt>
      <trkpt lat="43.60204" lon="6.84245">
        <ele>100.5</ele>
        <time>2025-01-10T09:37:19.000Z</time>
      </trkpt>
      <trkpt lat="43.60201" lon="6.84245">
        <ele>100</ele>
        <time>2025-01-10T09:37:18.000Z</time>
      </trkpt>
      <trkpt lat="43.60199" lon="6.84245">
        <ele>99.4</ele>
        <time>2025-01-10T09:37:17.000Z</time>
      </trkpt>
      <trkpt lat="43.60196" lon="6.84245">
        <ele>98.8</ele>
        <time>2025-01-10T09:37:16.000Z</time>
      </trkpt>
      <trkpt lat="43.60193" lon="6.84244">
        <ele>98.1</ele>
        <time>2025-01-10T09:37:15.000Z</time>
      </trkpt>
      <trkpt lat="43.6019" lon="6.84244">
        <ele>97.5</ele>
        <time>2025-01-10T09:37:14.000Z</time>
      </trkpt>
      <trkpt lat="43.60187" lon="6.84243">
        <ele>96.9</ele>
        <time>2025-01-10T09:37:13.000Z</time>
      </trkpt>
      <trkpt lat="43.60185" lon="6.84243">
        <ele>96.4</ele>
        <time>2025-01-10T09:37:12.000Z</time>
      </trkpt>
      <trkpt lat="43.60182" lon="6.84242">
        <ele>95.8</ele>
        <time>2025-01-10T09:37:11.000Z</time>
      </trkpt>
      <trkpt lat="43.6018" lon="6.84242">
        <ele>95.2</ele>
        <time>2025-01-10T09:37:10.000Z</time>
      </trkpt>
      <trkpt lat="43.60177" lon="6.84241">
        <ele>94.6</ele>
        <time>2025-01-10T09:37:09.000Z</time>
      </trkpt>
      <trkpt lat="43.60174" lon="6.8424">
        <ele>94</ele>
        <time>2025-01-10T09:37:08.000Z</time>
      </trkpt>
      <trkpt lat="43.60172" lon="6.84239">
        <ele>93.5</ele>
        <time>2025-01-10T09:37:07.000Z</time>
      </trkpt>
      <trkpt lat="43.60169" lon="6.84239">
        <ele>92.9</ele>
        <time>2025-01-10T09:37:06.000Z</time>
      </trkpt>
      <trkpt lat="43.60167" lon="6.84238">
        <ele>92.4</ele>
        <time>2025-01-10T09:37:05.000Z</time>
      </trkpt>
      <trkpt lat="43.60164" lon="6.84238">
        <ele>91.8</ele>
        <time>2025-01-10T09:37:04.000Z</time>
      </trkpt>
      <trkpt lat="43.60162" lon="6.84238">
        <ele>91.2</ele>
        <time>2025-01-10T09:37:03.000Z</time>
      </trkpt>
      <trkpt lat="43.60159" lon="6.84238">
        <ele>90.7</ele>
        <time>2025-01-10T09:37:02.000Z</time>
      </trkpt>
      <trkpt lat="43.60157" lon="6.84237">
        <ele>90.2</ele>
        <time>2025-01-10T09:37:01.000Z</time>
      </trkpt>
      <trkpt lat="43.60154" lon="6.84237">
        <ele>89.7</ele>
        <time>2025-01-10T09:37:00.000Z</time>
      </trkpt>
      <trkpt lat="43.60152" lon="6.84237">
        <ele>89.1</ele>
        <time>2025-01-10T09:36:59.000Z</time>
      </trkpt>
      <trkpt lat="43.60149" lon="6.84237">
        <ele>88.6</ele>
        <time>2025-01-10T09:36:58.000Z</time>
      </trkpt>
      <trkpt lat="43.60147" lon="6.84238">
        <ele>88</ele>
        <time>2025-01-10T09:36:57.000Z</time>
      </trkpt>
      <trkpt lat="43.60144" lon="6.84238">
        <ele>87.4</ele>
        <time>2025-01-10T09:36:56.000Z</time>
      </trkpt>
      <trkpt lat="43.60142" lon="6.84239">
        <ele>86.9</ele>
        <time>2025-01-10T09:36:55.000Z</time>
      </trkpt>
      <trkpt lat="43.6014" lon="6.84241">
        <ele>86.4</ele>
        <time>2025-01-10T09:36:54.000Z</time>
      </trkpt>
      <trkpt lat="43.60139" lon="6.84243">
        <ele>85.8</ele>
        <time>2025-01-10T09:36:53.000Z</time>
      </trkpt>
      <trkpt lat="43.60137" lon="6.84246">
        <ele>85</ele>
        <time>2025-01-10T09:36:52.000Z</time>
      </trkpt>
      <trkpt lat="43.60137" lon="6.84249">
        <ele>84.8</ele>
        <time>2025-01-10T09:36:51.000Z</time>
      </trkpt>
      <trkpt lat="43.60136" lon="6.84253">
        <ele>84.6</ele>
        <time>2025-01-10T09:36:50.000Z</time>
      </trkpt>
      <trkpt lat="43.60136" lon="6.84256">
        <ele>84.4</ele>
        <time>2025-01-10T09:36:49.000Z</time>
      </trkpt>
      <trkpt lat="43.60137" lon="6.84259">
        <ele>84.3</ele>
        <time>2025-01-10T09:36:48.000Z</time>
      </trkpt>
      <trkpt lat="43.60137" lon="6.84263">
        <ele>84.1</ele>
        <time>2025-01-10T09:36:47.000Z</time>
      </trkpt>
      <trkpt lat="43.60137" lon="6.84266">
        <ele>83.9</ele>
        <time>2025-01-10T09:36:46.000Z</time>
      </trkpt>
      <trkpt lat="43.60138" lon="6.8427">
        <ele>83.8</ele>
        <time>2025-01-10T09:36:45.000Z</time>
      </trkpt>
      <trkpt lat="43.60138" lon="6.84274">
        <ele>83.7</ele>
        <time>2025-01-10T09:36:44.000Z</time>
      </trkpt>
      <trkpt lat="43.60138" lon="6.84278">
        <ele>83.6</ele>
        <time>2025-01-10T09:36:43.000Z</time>
      </trkpt>
      <trkpt lat="43.60138" lon="6.84281">
        <ele>83.5</ele>
        <time>2025-01-10T09:36:42.000Z</time>
      </trkpt>
      <trkpt lat="43.60138" lon="6.84285">
        <ele>83.5</ele>
        <time>2025-01-10T09:36:41.000Z</time>
      </trkpt>
      <trkpt lat="43.60138" lon="6.84289">
        <ele>83.4</ele>
        <time>2025-01-10T09:36:40.000Z</time>
      </trkpt>
      <trkpt lat="43.60138" lon="6.84293">
        <ele>83.4</ele>
        <time>2025-01-10T09:36:39.000Z</time>
      </trkpt>
      <trkpt lat="43.60138" lon="6.84297">
        <ele>83.4</ele>
        <time>2025-01-10T09:36:38.000Z</time>
      </trkpt>
      <trkpt lat="43.60138" lon="6.84301">
        <ele>83.4</ele>
        <time>2025-01-10T09:36:37.000Z</time>
      </trkpt>
      <trkpt lat="43.60138" lon="6.84305">
        <ele>83.4</ele>
        <time>2025-01-10T09:36:36.000Z</time>
      </trkpt>
      <trkpt lat="43.60138" lon="6.84309">
        <ele>83.4</ele>
        <time>2025-01-10T09:36:35.000Z</time>
      </trkpt>
      <trkpt lat="43.60137" lon="6.84314">
        <ele>83.5</ele>
        <time>2025-01-10T09:36:34.000Z</time>
      </trkpt>
      <trkpt lat="43.60136" lon="6.84318">
        <ele>83.5</ele>
        <time>2025-01-10T09:36:33.000Z</time>
      </trkpt>
      <trkpt lat="43.60135" lon="6.84322">
        <ele>83.6</ele>
        <time>2025-01-10T09:36:32.000Z</time>
      </trkpt>
      <trkpt lat="43.60134" lon="6.84326">
        <ele>83.6</ele>
        <time>2025-01-10T09:36:31.000Z</time>
      </trkpt>
      <trkpt lat="43.60132" lon="6.8433">
        <ele>83.8</ele>
        <time>2025-01-10T09:36:30.000Z</time>
      </trkpt>
      <trkpt lat="43.60129" lon="6.84333">
        <ele>83.9</ele>
        <time>2025-01-10T09:36:29.000Z</time>
      </trkpt>
      <trkpt lat="43.60127" lon="6.84337">
        <ele>84.1</ele>
        <time>2025-01-10T09:36:28.000Z</time>
      </trkpt>
      <trkpt lat="43.60124" lon="6.8434">
        <ele>84.3</ele>
        <time>2025-01-10T09:36:27.000Z</time>
      </trkpt>
      <trkpt lat="43.60121" lon="6.84342">
        <ele>84.5</ele>
        <time>2025-01-10T09:36:26.000Z</time>
      </trkpt>
      <trkpt lat="43.60119" lon="6.84345">
        <ele>84.6</ele>
        <time>2025-01-10T09:36:25.000Z</time>
      </trkpt>
      <trkpt lat="43.60117" lon="6.84347">
        <ele>84.8</ele>
        <time>2025-01-10T09:36:24.000Z</time>
      </trkpt>
      <trkpt lat="43.60115" lon="6.84349">
        <ele>84.8</ele>
        <time>2025-01-10T09:36:23.000Z</time>
      </trkpt>
      <trkpt lat="43.60113" lon="6.84351">
        <ele>84.9</ele>
        <time>2025-01-10T09:36:22.000Z</time>
      </trkpt>
      <trkpt lat="43.60113" lon="6.84352">
        <ele>84.9</ele>
        <time>2025-01-10T09:36:21.000Z</time>
      </trkpt>
      <trkpt lat="43.60113" lon="6.84352">
        <ele>84.9</ele>
        <time>2025-01-10T09:36:20.000Z</time>
      </trkpt>
      <trkpt lat="43.60112" lon="6.84352">
        <ele>85</ele>
        <time>2025-01-10T09:36:19.000Z</time>
      </trkpt>
      <trkpt lat="43.60112" lon="6.84352">
        <ele>85</ele>
        <time>2025-01-10T09:36:18.000Z</time>
      </trkpt>
      <trkpt lat="43.60112" lon="6.84352">
        <ele>85</ele>
        <time>2025-01-10T09:36:17.000Z</time>
      </trkpt>
      <trkpt lat="43.60112" lon="6.84352">
        <ele>85</ele>
        <time>2025-01-10T09:36:16.000Z</time>
      </trkpt>
      <trkpt lat="43.60111" lon="6.84352">
        <ele>85</ele>
        <time>2025-01-10T09:36:15.000Z</time>
      </trkpt>
      <trkpt lat="43.6011" lon="6.84352">
        <ele>85</ele>
        <time>2025-01-10T09:36:14.000Z</time>
      </trkpt>
      <trkpt lat="43.6011" lon="6.84352">
        <ele>85</ele>
        <time>2025-01-10T09:36:13.000Z</time>
      </trkpt>
      <trkpt lat="43.60109" lon="6.84352">
        <ele>85.1</ele>
        <time>2025-01-10T09:36:12.000Z</time>
      </trkpt>
      <trkpt lat="43.60109" lon="6.84352">
        <ele>85.1</ele>
        <time>2025-01-10T09:36:11.000Z</time>
      </trkpt>
      <trkpt lat="43.60109" lon="6.84352">
        <ele>85.1</ele>
        <time>2025-01-10T09:36:10.000Z</time>
      </trkpt>
      <trkpt lat="43.60108" lon="6.84352">
        <ele>85.1</ele>
        <time>2025-01-10T09:36:09.000Z</time>
      </trkpt>
      <trkpt lat="43.60108" lon="6.84352">
        <ele>85.1</ele>
        <time>2025-01-10T09:36:08.000Z</time>
      </trkpt>
      <trkpt lat="43.60108" lon="6.84352">
        <ele>85.1</ele>
        <time>2025-01-10T09:36:07.000Z</time>
      </trkpt>
      <trkpt lat="43.60108" lon="6.84352">
        <ele>85.1</ele>
        <time>2025-01-10T09:36:06.000Z</time>
      </trkpt>
      <trkpt lat="43.60108" lon="6.84352">
        <ele>85.1</ele>
        <time>2025-01-10T09:36:05.000Z</time>
      </trkpt>
      <trkpt lat="43.60108" lon="6.84352">
        <ele>85.1</ele>
        <time>2025-01-10T09:36:04.000Z</time>
      </trkpt>
      <trkpt lat="43.60108" lon="6.84352">
        <ele>85.1</ele>
        <time>2025-01-10T09:36:03.000Z</time>
      </trkpt>
      <trkpt lat="43.60108" lon="6.84352">
        <ele>85.1</ele>
        <time>2025-01-10T09:36:02.000Z</time>
      </trkpt>
      <trkpt lat="43.60108" lon="6.84352">
        <ele>85.1</ele>
        <time>2025-01-10T09:36:01.000Z</time>
      </trkpt>
      <trkpt lat="43.60108" lon="6.84352">
        <ele>85.1</ele>
        <time>2025-01-10T09:36:00.000Z</time>
      </trkpt>
      <trkpt lat="43.60108" lon="6.84352">
        <ele>85.1</ele>
        <time>2025-01-10T09:35:59.000Z</time>
      </trkpt>
      <trkpt lat="43.60108" lon="6.84352">
        <ele>85.1</ele>
        <time>2025-01-10T09:35:58.000Z</time>
      </trkpt>
      <trkpt lat="43.60108" lon="6.84352">
        <ele>85.1</ele>
        <time>2025-01-10T09:35:57.000Z</time>
      </trkpt>
      <trkpt lat="43.60108" lon="6.84352">
        <ele>85.1</ele>
        <time>2025-01-10T09:35:56.000Z</time>
      </trkpt>
      <trkpt lat="43.60108" lon="6.84352">
        <ele>85.1</ele>
        <time>2025-01-10T09:35:55.000Z</time>
      </trkpt>
      <trkpt lat="43.60108" lon="6.84352">
        <ele>85.1</ele>
        <time>2025-01-10T09:35:54.000Z</time>
      </trkpt>
      <trkpt lat="43.60108" lon="6.84352">
        <ele>85.1</ele>
        <time>2025-01-10T09:35:53.000Z</time>
      </trkpt>
      <trkpt lat="43.60108" lon="6.84352">
        <ele>85.1</ele>
        <time>2025-01-10T09:35:52.000Z</time>
      </trkpt>
      <trkpt lat="43.60108" lon="6.84352">
        <ele>85.1</ele>
        <time>2025-01-10T09:35:51.000Z</time>
      </trkpt>
      <trkpt lat="43.60108" lon="6.84352">
        <ele>85.1</ele>
        <time>2025-01-10T09:35:50.000Z</time>
      </trkpt>
      <trkpt lat="43.60108" lon="6.84352">
        <ele>85.1</ele>
        <time>2025-01-10T09:35:49.000Z</time>
      </trkpt>
      <trkpt lat="43.60108" lon="6.84352">
        <ele>85.1</ele>
        <time>2025-01-10T09:35:48.000Z</time>
      </trkpt>
      <trkpt lat="43.60108" lon="6.84352">
        <ele>85.1</ele>
        <time>2025-01-10T09:35:47.000Z</time>
      </trkpt>
      <trkpt lat="43.60108" lon="6.84352">
        <ele>85.1</ele>
        <time>2025-01-10T09:35:46.000Z</time>
      </trkpt>
      <trkpt lat="43.60108" lon="6.84352">
        <ele>85.1</ele>
        <time>2025-01-10T09:35:45.000Z</time>
      </trkpt>
      <trkpt lat="43.60107" lon="6.84352">
        <ele>85.1</ele>
        <time>2025-01-10T09:35:44.000Z</time>
      </trkpt>
      <trkpt lat="43.60107" lon="6.84352">
        <ele>85.1</ele>
        <time>2025-01-10T09:35:43.000Z</time>
      </trkpt>
      <trkpt lat="43.60107" lon="6.84352">
        <ele>85.2</ele>
        <time>2025-01-10T09:35:42.000Z</time>
      </trkpt>
      <trkpt lat="43.60106" lon="6.84352">
        <ele>85.2</ele>
        <time>2025-01-10T09:35:41.000Z</time>
      </trkpt>
      <trkpt lat="43.60106" lon="6.84352">
        <ele>85.2</ele>
        <time>2025-01-10T09:35:40.000Z</time>
      </trkpt>
      <trkpt lat="43.60105" lon="6.84353">
        <ele>85.2</ele>
        <time>2025-01-10T09:35:39.000Z</time>
      </trkpt>
      <trkpt lat="43.60105" lon="6.84353">
        <ele>85.2</ele>
        <time>2025-01-10T09:35:38.000Z</time>
      </trkpt>
      <trkpt lat="43.60105" lon="6.84355">
        <ele>85.2</ele>
        <time>2025-01-10T09:35:37.000Z</time>
      </trkpt>
      <trkpt lat="43.60106" lon="6.84357">
        <ele>85.2</ele>
        <time>2025-01-10T09:35:36.000Z</time>
      </trkpt>
      <trkpt lat="43.60106" lon="6.84357">
        <ele>85.2</ele>
        <time>2025-01-10T09:35:35.000Z</time>
      </trkpt>
      <trkpt lat="43.60106" lon="6.84358">
        <ele>85.2</ele>
        <time>2025-01-10T09:35:34.000Z</time>
      </trkpt>
      <trkpt lat="43.60106" lon="6.84358">
        <ele>85.2</ele>
        <time>2025-01-10T09:35:33.000Z</time>
      </trkpt>
      <trkpt lat="43.60106" lon="6.84358">
        <ele>85.2</ele>
        <time>2025-01-10T09:35:32.000Z</time>
      </trkpt>
      <trkpt lat="43.60106" lon="6.84358">
        <ele>85.2</ele>
        <time>2025-01-10T09:35:31.000Z</time>
      </trkpt>
      <trkpt lat="43.60106" lon="6.84357">
        <ele>85.2</ele>
        <time>2025-01-10T09:35:30.000Z</time>
      </trkpt>
      <trkpt lat="43.60107" lon="6.84357">
        <ele>85.2</ele>
        <time>2025-01-10T09:35:29.000Z</time>
      </trkpt>
      <trkpt lat="43.60107" lon="6.84357">
        <ele>85.2</ele>
        <time>2025-01-10T09:35:28.000Z</time>
      </trkpt>
      <trkpt lat="43.60108" lon="6.84357">
        <ele>85.2</ele>
        <time>2025-01-10T09:35:27.000Z</time>
      </trkpt>
      <trkpt lat="43.60108" lon="6.84357">
        <ele>85.2</ele>
        <time>2025-01-10T09:35:26.000Z</time>
      </trkpt>
      <trkpt lat="43.60108" lon="6.84357">
        <ele>85.2</ele>
        <time>2025-01-10T09:35:25.000Z</time>
      </trkpt>
      <trkpt lat="43.60108" lon="6.84356">
        <ele>85.2</ele>
        <time>2025-01-10T09:35:24.000Z</time>
      </trkpt>
      <trkpt lat="43.60108" lon="6.84356">
        <ele>85.2</ele>
        <time>2025-01-10T09:35:23.000Z</time>
      </trkpt>
      <trkpt lat="43.60108" lon="6.84356">
        <ele>85.2</ele>
        <time>2025-01-10T09:35:22.000Z</time>
      </trkpt>
      <trkpt lat="43.60108" lon="6.84356">
        <ele>85.2</ele>
        <time>2025-01-10T09:35:21.000Z</time>
      </trkpt>
      <trkpt lat="43.60108" lon="6.84356">
        <ele>85.2</ele>
        <time>2025-01-10T09:35:20.000Z</time>
      </trkpt>
      <trkpt lat="43.60108" lon="6.84356">
        <ele>85.1</ele>
        <time>2025-01-10T09:35:19.000Z</time>
      </trkpt>
      <trkpt lat="43.60108" lon="6.84355">
        <ele>85.1</ele>
        <time>2025-01-10T09:35:18.000Z</time>
      </trkpt>
      <trkpt lat="43.60109" lon="6.84355">
        <ele>85.1</ele>
        <time>2025-01-10T09:35:17.000Z</time>
      </trkpt>
      <trkpt lat="43.60109" lon="6.84355">
        <ele>85.1</ele>
        <time>2025-01-10T09:35:16.000Z</time>
      </trkpt>
      <trkpt lat="43.60109" lon="6.84356">
        <ele>85.1</ele>
        <time>2025-01-10T09:35:15.000Z</time>
      </trkpt>
      <trkpt lat="43.60108" lon="6.84357">
        <ele>85.1</ele>
        <time>2025-01-10T09:35:14.000Z</time>
      </trkpt>
      <trkpt lat="43.60107" lon="6.8436">
        <ele>85.1</ele>
        <time>2025-01-10T09:35:13.000Z</time>
      </trkpt>
      <trkpt lat="43.60107" lon="6.84363">
        <ele>85</ele>
        <time>2025-01-10T09:35:12.000Z</time>
      </trkpt>
      <trkpt lat="43.60107" lon="6.84367">
        <ele>85</ele>
        <time>2025-01-10T09:35:11.000Z</time>
      </trkpt>
      <trkpt lat="43.60107" lon="6.84372">
        <ele>84.9</ele>
        <time>2025-01-10T09:35:10.000Z</time>
      </trkpt>
      <trkpt lat="43.60107" lon="6.84377">
        <ele>84.9</ele>
        <time>2025-01-10T09:35:09.000Z</time>
      </trkpt>
      <trkpt lat="43.60107" lon="6.84383">
        <ele>84.9</ele>
        <time>2025-01-10T09:35:08.000Z</time>
      </trkpt>
      <trkpt lat="43.60108" lon="6.84391">
        <ele>85</ele>
        <time>2025-01-10T09:35:07.000Z</time>
      </trkpt>
      <trkpt lat="43.60109" lon="6.84399">
        <ele>85.2</ele>
        <time>2025-01-10T09:35:06.000Z</time>
      </trkpt>
      <trkpt lat="43.6011" lon="6.84408">
        <ele>85.5</ele>
        <time>2025-01-10T09:35:05.000Z</time>
      </trkpt>
      <trkpt lat="43.60111" lon="6.84418">
        <ele>85.9</ele>
        <time>2025-01-10T09:35:04.000Z</time>
      </trkpt>
      <trkpt lat="43.60113" lon="6.84429">
        <ele>86.3</ele>
        <time>2025-01-10T09:35:03.000Z</time>
      </trkpt>
      <trkpt lat="43.60114" lon="6.8444">
        <ele>86.8</ele>
        <time>2025-01-10T09:35:02.000Z</time>
      </trkpt>
      <trkpt lat="43.60116" lon="6.8445">
        <ele>87.4</ele>
        <time>2025-01-10T09:35:01.000Z</time>
      </trkpt>
      <trkpt lat="43.60117" lon="6.84459">
        <ele>88</ele>
        <time>2025-01-10T09:35:00.000Z</time>
      </trkpt>
      <trkpt lat="43.60117" lon="6.84468">
        <ele>88.6</ele>
        <time>2025-01-10T09:34:59.000Z</time>
      </trkpt>
      <trkpt lat="43.60117" lon="6.84475">
        <ele>89.2</ele>
        <time>2025-01-10T09:34:58.000Z</time>
      </trkpt>
      <trkpt lat="43.60117" lon="6.8448">
        <ele>89.6</ele>
        <time>2025-01-10T09:34:57.000Z</time>
      </trkpt>
      <trkpt lat="43.60115" lon="6.84485">
        <ele>90.1</ele>
        <time>2025-01-10T09:34:56.000Z</time>
      </trkpt>
      <trkpt lat="43.60113" lon="6.8449">
        <ele>90.5</ele>
        <time>2025-01-10T09:34:55.000Z</time>
      </trkpt>
      <trkpt lat="43.60111" lon="6.84493">
        <ele>90.9</ele>
        <time>2025-01-10T09:34:54.000Z</time>
      </trkpt>
      <trkpt lat="43.60109" lon="6.84496">
        <ele>91.2</ele>
        <time>2025-01-10T09:34:53.000Z</time>
      </trkpt>
      <trkpt lat="43.60107" lon="6.84498">
        <ele>91.6</ele>
        <time>2025-01-10T09:34:52.000Z</time>
      </trkpt>
      <trkpt lat="43.60104" lon="6.84498">
        <ele>92</ele>
        <time>2025-01-10T09:34:51.000Z</time>
      </trkpt>
      <trkpt lat="43.601" lon="6.84498">
        <ele>92.5</ele>
        <time>2025-01-10T09:34:50.000Z</time>
      </trkpt>
      <trkpt lat="43.60097" lon="6.84497">
        <ele>92.9</ele>
        <time>2025-01-10T09:34:49.000Z</time>
      </trkpt>
      <trkpt lat="43.60093" lon="6.84497">
        <ele>93.4</ele>
        <time>2025-01-10T09:34:48.000Z</time>
      </trkpt>
      <trkpt lat="43.6009" lon="6.84498">
        <ele>93.8</ele>
        <time>2025-01-10T09:34:47.000Z</time>
      </trkpt>
      <trkpt lat="43.60087" lon="6.84498">
        <ele>94.3</ele>
        <time>2025-01-10T09:34:46.000Z</time>
      </trkpt>
      <trkpt lat="43.60082" lon="6.84498">
        <ele>94.8</ele>
        <time>2025-01-10T09:34:45.000Z</time>
      </trkpt>
      <trkpt lat="43.60078" lon="6.84499">
        <ele>95.4</ele>
        <time>2025-01-10T09:34:44.000Z</time>
      </trkpt>
      <trkpt lat="43.60072" lon="6.84498">
        <ele>96</ele>
        <time>2025-01-10T09:34:43.000Z</time>
      </trkpt>
      <trkpt lat="43.60067" lon="6.84497">
        <ele>96.6</ele>
        <time>2025-01-10T09:34:42.000Z</time>
      </trkpt>
      <trkpt lat="43.60061" lon="6.84494">
        <ele>97.2</ele>
        <time>2025-01-10T09:34:41.000Z</time>
      </trkpt>
      <trkpt lat="43.60054" lon="6.84491">
        <ele>98</ele>
        <time>2025-01-10T09:34:40.000Z</time>
      </trkpt>
      <trkpt lat="43.60047" lon="6.84486">
        <ele>98.8</ele>
        <time>2025-01-10T09:34:39.000Z</time>
      </trkpt>
      <trkpt lat="43.60039" lon="6.84481">
        <ele>99.7</ele>
        <time>2025-01-10T09:34:38.000Z</time>
      </trkpt>
      <trkpt lat="43.60031" lon="6.84476">
        <ele>100.9</ele>
        <time>2025-01-10T09:34:37.000Z</time>
      </trkpt>
      <trkpt lat="43.60022" lon="6.84471">
        <ele>102.2</ele>
        <time>2025-01-10T09:34:36.000Z</time>
      </trkpt>
      <trkpt lat="43.60015" lon="6.84465">
        <ele>103.4</ele>
        <time>2025-01-10T09:34:35.000Z</time>
      </trkpt>
      <trkpt lat="43.60009" lon="6.8446">
        <ele>104.5</ele>
        <time>2025-01-10T09:34:34.000Z</time>
      </trkpt>
      <trkpt lat="43.60003" lon="6.84455">
        <ele>105.4</ele>
        <time>2025-01-10T09:34:33.000Z</time>
      </trkpt>
      <trkpt lat="43.59997" lon="6.84449">
        <ele>106.3</ele>
        <time>2025-01-10T09:34:32.000Z</time>
      </trkpt>
      <trkpt lat="43.59992" lon="6.84444">
        <ele>107.1</ele>
        <time>2025-01-10T09:34:31.000Z</time>
      </trkpt>
      <trkpt lat="43.59987" lon="6.84438">
        <ele>107.8</ele>
        <time>2025-01-10T09:34:30.000Z</time>
      </trkpt>
      <trkpt lat="43.59983" lon="6.84432">
        <ele>108.5</ele>
        <time>2025-01-10T09:34:29.000Z</time>
      </trkpt>
      <trkpt lat="43.59979" lon="6.84426">
        <ele>109.2</ele>
        <time>2025-01-10T09:34:28.000Z</time>
      </trkpt>
      <trkpt lat="43.59974" lon="6.84419">
        <ele>109.8</ele>
        <time>2025-01-10T09:34:27.000Z</time>
      </trkpt>
      <trkpt lat="43.5997" lon="6.84411">
        <ele>110.4</ele>
        <time>2025-01-10T09:34:26.000Z</time>
      </trkpt>
      <trkpt lat="43.59966" lon="6.84403">
        <ele>111.1</ele>
        <time>2025-01-10T09:34:25.000Z</time>
      </trkpt>
      <trkpt lat="43.59962" lon="6.84394">
        <ele>111.7</ele>
        <time>2025-01-10T09:34:24.000Z</time>
      </trkpt>
      <trkpt lat="43.59958" lon="6.84385">
        <ele>112.4</ele>
        <time>2025-01-10T09:34:23.000Z</time>
      </trkpt>
      <trkpt lat="43.59954" lon="6.84376">
        <ele>113</ele>
        <time>2025-01-10T09:34:22.000Z</time>
      </trkpt>
      <trkpt lat="43.59951" lon="6.84367">
        <ele>113.7</ele>
        <time>2025-01-10T09:34:21.000Z</time>
      </trkpt>
      <trkpt lat="43.59947" lon="6.84358">
        <ele>114.6</ele>
        <time>2025-01-10T09:34:20.000Z</time>
      </trkpt>
      <trkpt lat="43.59945" lon="6.84352">
        <ele>115.2</ele>
        <time>2025-01-10T09:34:19.000Z</time>
      </trkpt>
      <trkpt lat="43.59942" lon="6.84345">
        <ele>115.8</ele>
        <time>2025-01-10T09:34:18.000Z</time>
      </trkpt>
      <trkpt lat="43.5994" lon="6.84338">
        <ele>116.4</ele>
        <time>2025-01-10T09:34:17.000Z</time>
      </trkpt>
      <trkpt lat="43.59938" lon="6.84331">
        <ele>117</ele>
        <time>2025-01-10T09:34:16.000Z</time>
      </trkpt>
      <trkpt lat="43.59935" lon="6.84324">
        <ele>117.5</ele>
        <time>2025-01-10T09:34:15.000Z</time>
      </trkpt>
      <trkpt lat="43.59933" lon="6.84318">
        <ele>118</ele>
        <time>2025-01-10T09:34:14.000Z</time>
      </trkpt>
      <trkpt lat="43.59932" lon="6.84316">
        <ele>118.2</ele>
        <time>2025-01-10T09:34:13.000Z</time>
      </trkpt>
      <trkpt lat="43.59932" lon="6.84314">
        <ele>118.3</ele>
        <time>2025-01-10T09:34:12.000Z</time>
      </trkpt>
      <trkpt lat="43.59932" lon="6.84312">
        <ele>118.4</ele>
        <time>2025-01-10T09:34:11.000Z</time>
      </trkpt>
      <trkpt lat="43.59932" lon="6.8431">
        <ele>118.6</ele>
        <time>2025-01-10T09:34:10.000Z</time>
      </trkpt>
      <trkpt lat="43.59931" lon="6.84308">
        <ele>118.7</ele>
        <time>2025-01-10T09:34:09.000Z</time>
      </trkpt>
      <trkpt lat="43.59931" lon="6.84306">
        <ele>118.8</ele>
        <time>2025-01-10T09:34:08.000Z</time>
      </trkpt>
      <trkpt lat="43.59931" lon="6.84304">
        <ele>118.9</ele>
        <time>2025-01-10T09:34:07.000Z</time>
      </trkpt>
      <trkpt lat="43.59931" lon="6.84302">
        <ele>119.1</ele>
        <time>2025-01-10T09:34:06.000Z</time>
      </trkpt>
      <trkpt lat="43.59931" lon="6.843">
        <ele>119.2</ele>
        <time>2025-01-10T09:34:05.000Z</time>
      </trkpt>
      <trkpt lat="43.5993" lon="6.84298">
        <ele>119.3</ele>
        <time>2025-01-10T09:34:04.000Z</time>
      </trkpt>
      <trkpt lat="43.5993" lon="6.84295">
        <ele>119.4</ele>
        <time>2025-01-10T09:34:03.000Z</time>
      </trkpt>
      <trkpt lat="43.5993" lon="6.84293">
        <ele>119.5</ele>
        <time>2025-01-10T09:34:02.000Z</time>
      </trkpt>
      <trkpt lat="43.5993" lon="6.84291">
        <ele>119.5</ele>
        <time>2025-01-10T09:34:01.000Z</time>
      </trkpt>
      <trkpt lat="43.5993" lon="6.84289">
        <ele>119.6</ele>
        <time>2025-01-10T09:34:00.000Z</time>
      </trkpt>
      <trkpt lat="43.59929" lon="6.84287">
        <ele>119.7</ele>
        <time>2025-01-10T09:33:59.000Z</time>
      </trkpt>
      <trkpt lat="43.59929" lon="6.84285">
        <ele>119.8</ele>
        <time>2025-01-10T09:33:58.000Z</time>
      </trkpt>
      <trkpt lat="43.59929" lon="6.84283">
        <ele>119.9</ele>
        <time>2025-01-10T09:33:57.000Z</time>
      </trkpt>
      <trkpt lat="43.59929" lon="6.84281">
        <ele>119.9</ele>
        <time>2025-01-10T09:33:56.000Z</time>
      </trkpt>
      <trkpt lat="43.59928" lon="6.84279">
        <ele>120</ele>
        <time>2025-01-10T09:33:55.000Z</time>
      </trkpt>
      <trkpt lat="43.59928" lon="6.84277">
        <ele>120.1</ele>
        <time>2025-01-10T09:33:54.000Z</time>
      </trkpt>
      <trkpt lat="43.59928" lon="6.84275">
        <ele>120.2</ele>
        <time>2025-01-10T09:33:53.000Z</time>
      </trkpt>
      <trkpt lat="43.59928" lon="6.84275">
        <ele>120.2</ele>
        <time>2025-01-10T09:33:52.000Z</time>
      </trkpt>
      <trkpt lat="43.59928" lon="6.84274">
        <ele>120.2</ele>
        <time>2025-01-10T09:33:51.000Z</time>
      </trkpt>
      <trkpt lat="43.59927" lon="6.84273">
        <ele>120.2</ele>
        <time>2025-01-10T09:33:50.000Z</time>
      </trkpt>
      <trkpt lat="43.59925" lon="6.84271">
        <ele>120.2</ele>
        <time>2025-01-10T09:33:49.000Z</time>
      </trkpt>
      <trkpt lat="43.59922" lon="6.84269">
        <ele>120.2</ele>
        <time>2025-01-10T09:33:48.000Z</time>
      </trkpt>
      <trkpt lat="43.59919" lon="6.84267">
        <ele>120.2</ele>
        <time>2025-01-10T09:33:47.000Z</time>
      </trkpt>
      <trkpt lat="43.59916" lon="6.84264">
        <ele>120.2</ele>
        <time>2025-01-10T09:33:46.000Z</time>
      </trkpt>
      <trkpt lat="43.59912" lon="6.8426">
        <ele>120.4</ele>
        <time>2025-01-10T09:33:45.000Z</time>
      </trkpt>
      <trkpt lat="43.59907" lon="6.84255">
        <ele>120.7</ele>
        <time>2025-01-10T09:33:44.000Z</time>
      </trkpt>
      <trkpt lat="43.59903" lon="6.84249">
        <ele>121.1</ele>
        <time>2025-01-10T09:33:43.000Z</time>
      </trkpt>
      <trkpt lat="43.59898" lon="6.84242">
        <ele>121.5</ele>
        <time>2025-01-10T09:33:42.000Z</time>
      </trkpt>
      <trkpt lat="43.59893" lon="6.84233">
        <ele>122.1</ele>
        <time>2025-01-10T09:33:41.000Z</time>
      </trkpt>
      <trkpt lat="43.59889" lon="6.84225">
        <ele>122.7</ele>
        <time>2025-01-10T09:33:40.000Z</time>
      </trkpt>
      <trkpt lat="43.59886" lon="6.84218">
        <ele>123.3</ele>
        <time>2025-01-10T09:33:39.000Z</time>
      </trkpt>
      <trkpt lat="43.59884" lon="6.84213">
        <ele>123.8</ele>
        <time>2025-01-10T09:33:38.000Z</time>
      </trkpt>
      <trkpt lat="43.59882" lon="6.84209">
        <ele>124.2</ele>
        <time>2025-01-10T09:33:37.000Z</time>
      </trkpt>
      <trkpt lat="43.5988" lon="6.84206">
        <ele>124.6</ele>
        <time>2025-01-10T09:33:36.000Z</time>
      </trkpt>
      <trkpt lat="43.5988" lon="6.84204">
        <ele>124.8</ele>
        <time>2025-01-10T09:33:35.000Z</time>
      </trkpt>
      <trkpt lat="43.5988" lon="6.84203">
        <ele>124.9</ele>
        <time>2025-01-10T09:33:34.000Z</time>
      </trkpt>
      <trkpt lat="43.5988" lon="6.84203">
        <ele>124.9</ele>
        <time>2025-01-10T09:33:33.000Z</time>
      </trkpt>
      <trkpt lat="43.59881" lon="6.84203">
        <ele>124.9</ele>
        <time>2025-01-10T09:33:32.000Z</time>
      </trkpt>
      <trkpt lat="43.59881" lon="6.84204">
        <ele>125</ele>
        <time>2025-01-10T09:33:31.000Z</time>
      </trkpt>
      <trkpt lat="43.5988" lon="6.84205">
        <ele>125.1</ele>
        <time>2025-01-10T09:33:30.000Z</time>
      </trkpt>
      <trkpt lat="43.5988" lon="6.84205">
        <ele>125.2</ele>
        <time>2025-01-10T09:33:29.000Z</time>
      </trkpt>
      <trkpt lat="43.5988" lon="6.84206">
        <ele>125.2</ele>
        <time>2025-01-10T09:33:28.000Z</time>
      </trkpt>
      <trkpt lat="43.5988" lon="6.84205">
        <ele>125.3</ele>
        <time>2025-01-10T09:33:27.000Z</time>
      </trkpt>
      <trkpt lat="43.59881" lon="6.84205">
        <ele>125.3</ele>
        <time>2025-01-10T09:33:26.000Z</time>
      </trkpt>
      <trkpt lat="43.59881" lon="6.84205">
        <ele>125.4</ele>
        <time>2025-01-10T09:33:25.000Z</time>
      </trkpt>
      <trkpt lat="43.59881" lon="6.84205">
        <ele>125.4</ele>
        <time>2025-01-10T09:33:24.000Z</time>
      </trkpt>
      <trkpt lat="43.59881" lon="6.84205">
        <ele>125.4</ele>
        <time>2025-01-10T09:33:23.000Z</time>
      </trkpt>
      <trkpt lat="43.59881" lon="6.84205">
        <ele>125.5</ele>
        <time>2025-01-10T09:33:22.000Z</time>
      </trkpt>
      <trkpt lat="43.59882" lon="6.84206">
        <ele>125.6</ele>
        <time>2025-01-10T09:33:21.000Z</time>
      </trkpt>
      <trkpt lat="43.59882" lon="6.84206">
        <ele>125.7</ele>
        <time>2025-01-10T09:33:20.000Z</time>
      </trkpt>
      <trkpt lat="43.59883" lon="6.84207">
        <ele>125.7</ele>
        <time>2025-01-10T09:33:19.000Z</time>
      </trkpt>
      <trkpt lat="43.59883" lon="6.84206">
        <ele>125.8</ele>
        <time>2025-01-10T09:33:18.000Z</time>
      </trkpt>
      <trkpt lat="43.59882" lon="6.84205">
        <ele>125.9</ele>
        <time>2025-01-10T09:33:17.000Z</time>
      </trkpt>
      <trkpt lat="43.59881" lon="6.84204">
        <ele>126.1</ele>
        <time>2025-01-10T09:33:16.000Z</time>
      </trkpt>
      <trkpt lat="43.59879" lon="6.842">
        <ele>126.6</ele>
        <time>2025-01-10T09:33:15.000Z</time>
      </trkpt>
      <trkpt lat="43.59877" lon="6.84195">
        <ele>127.2</ele>
        <time>2025-01-10T09:33:14.000Z</time>
      </trkpt>
      <trkpt lat="43.59874" lon="6.84189">
        <ele>127.9</ele>
        <time>2025-01-10T09:33:13.000Z</time>
      </trkpt>
      <trkpt lat="43.59872" lon="6.84183">
        <ele>128.7</ele>
        <time>2025-01-10T09:33:12.000Z</time>
      </trkpt>
      <trkpt lat="43.59869" lon="6.84177">
        <ele>129.6</ele>
        <time>2025-01-10T09:33:11.000Z</time>
      </trkpt>
      <trkpt lat="43.59867" lon="6.8417">
        <ele>130.7</ele>
        <time>2025-01-10T09:33:10.000Z</time>
      </trkpt>
      <trkpt lat="43.59864" lon="6.84163">
        <ele>132</ele>
        <time>2025-01-10T09:33:09.000Z</time>
      </trkpt>
      <trkpt lat="43.59862" lon="6.84156">
        <ele>133.5</ele>
        <time>2025-01-10T09:33:08.000Z</time>
      </trkpt>
      <trkpt lat="43.5986" lon="6.8415">
        <ele>134.9</ele>
        <time>2025-01-10T09:33:07.000Z</time>
      </trkpt>
      <trkpt lat="43.59858" lon="6.84144">
        <ele>136.1</ele>
        <time>2025-01-10T09:33:06.000Z</time>
      </trkpt>
      <trkpt lat="43.59856" lon="6.84138">
        <ele>137.6</ele>
        <time>2025-01-10T09:33:05.000Z</time>
      </trkpt>
      <trkpt lat="43.59855" lon="6.84132">
        <ele>138.7</ele>
        <time>2025-01-10T09:33:04.000Z</time>
      </trkpt>
      <trkpt lat="43.59854" lon="6.84128">
        <ele>139.5</ele>
        <time>2025-01-10T09:33:03.000Z</time>
      </trkpt>
      <trkpt lat="43.59853" lon="6.84124">
        <ele>140.4</ele>
        <time>2025-01-10T09:33:02.000Z</time>
      </trkpt>
      <trkpt lat="43.59851" lon="6.8412">
        <ele>141.3</ele>
        <time>2025-01-10T09:33:01.000Z</time>
      </trkpt>
      <trkpt lat="43.59849" lon="6.84115">
        <ele>142.2</ele>
        <time>2025-01-10T09:33:00.000Z</time>
      </trkpt>
      <trkpt lat="43.59847" lon="6.84111">
        <ele>142.8</ele>
        <time>2025-01-10T09:32:59.000Z</time>
      </trkpt>
      <trkpt lat="43.59844" lon="6.84107">
        <ele>143.5</ele>
        <time>2025-01-10T09:32:58.000Z</time>
      </trkpt>
      <trkpt lat="43.59842" lon="6.84103">
        <ele>144.2</ele>
        <time>2025-01-10T09:32:57.000Z</time>
      </trkpt>
      <trkpt lat="43.5984" lon="6.84099">
        <ele>145</ele>
        <time>2025-01-10T09:32:56.000Z</time>
      </trkpt>
      <trkpt lat="43.59837" lon="6.84094">
        <ele>145.8</ele>
        <time>2025-01-10T09:32:55.000Z</time>
      </trkpt>
      <trkpt lat="43.59834" lon="6.8409">
        <ele>146.7</ele>
        <time>2025-01-10T09:32:54.000Z</time>
      </trkpt>
      <trkpt lat="43.59831" lon="6.84086">
        <ele>147.7</ele>
        <time>2025-01-10T09:32:53.000Z</time>
      </trkpt>
      <trkpt lat="43.59828" lon="6.84081">
        <ele>148.6</ele>
        <time>2025-01-10T09:32:52.000Z</time>
      </trkpt>
      <trkpt lat="43.59825" lon="6.84076">
        <ele>149.5</ele>
        <time>2025-01-10T09:32:51.000Z</time>
      </trkpt>
      <trkpt lat="43.59822" lon="6.84071">
        <ele>150.4</ele>
        <time>2025-01-10T09:32:50.000Z</time>
      </trkpt>
      <trkpt lat="43.59821" lon="6.84065">
        <ele>151.2</ele>
        <time>2025-01-10T09:32:49.000Z</time>
      </trkpt>
      <trkpt lat="43.59819" lon="6.84058">
        <ele>152.1</ele>
        <time>2025-01-10T09:32:48.000Z</time>
      </trkpt>
      <trkpt lat="43.59817" lon="6.84052">
        <ele>152.8</ele>
        <time>2025-01-10T09:32:47.000Z</time>
      </trkpt>
      <trkpt lat="43.59815" lon="6.84045">
        <ele>153.5</ele>
        <time>2025-01-10T09:32:46.000Z</time>
      </trkpt>
      <trkpt lat="43.59813" lon="6.8404">
        <ele>154</ele>
        <time>2025-01-10T09:32:45.000Z</time>
      </trkpt>
      <trkpt lat="43.5981" lon="6.84033">
        <ele>154.8</ele>
        <time>2025-01-10T09:32:44.000Z</time>
      </trkpt>
      <trkpt lat="43.59806" lon="6.84027">
        <ele>155.6</ele>
        <time>2025-01-10T09:32:43.000Z</time>
      </trkpt>
      <trkpt lat="43.59803" lon="6.8402">
        <ele>156.4</ele>
        <time>2025-01-10T09:32:42.000Z</time>
      </trkpt>
      <trkpt lat="43.598" lon="6.84014">
        <ele>157.4</ele>
        <time>2025-01-10T09:32:41.000Z</time>
      </trkpt>
      <trkpt lat="43.59796" lon="6.84007">
        <ele>158.6</ele>
        <time>2025-01-10T09:32:40.000Z</time>
      </trkpt>
      <trkpt lat="43.59794" lon="6.84001">
        <ele>159.5</ele>
        <time>2025-01-10T09:32:39.000Z</time>
      </trkpt>
      <trkpt lat="43.59791" lon="6.83995">
        <ele>160.6</ele>
        <time>2025-01-10T09:32:38.000Z</time>
      </trkpt>
      <trkpt lat="43.59787" lon="6.83989">
        <ele>161.7</ele>
        <time>2025-01-10T09:32:37.000Z</time>
      </trkpt>
      <trkpt lat="43.59784" lon="6.83981">
        <ele>162.9</ele>
        <time>2025-01-10T09:32:36.000Z</time>
      </trkpt>
      <trkpt lat="43.59783" lon="6.83974">
        <ele>163.7</ele>
        <time>2025-01-10T09:32:35.000Z</time>
      </trkpt>
      <trkpt lat="43.5978" lon="6.83969">
        <ele>164.4</ele>
        <time>2025-01-10T09:32:34.000Z</time>
      </trkpt>
      <trkpt lat="43.59777" lon="6.83964">
        <ele>165</ele>
        <time>2025-01-10T09:32:33.000Z</time>
      </trkpt>
      <trkpt lat="43.59774" lon="6.83959">
        <ele>165.5</ele>
        <time>2025-01-10T09:32:32.000Z</time>
      </trkpt>
      <trkpt lat="43.5977" lon="6.83955">
        <ele>165.9</ele>
        <time>2025-01-10T09:32:31.000Z</time>
      </trkpt>
      <trkpt lat="43.59764" lon="6.83951">
        <ele>166.4</ele>
        <time>2025-01-10T09:32:30.000Z</time>
      </trkpt>
      <trkpt lat="43.59761" lon="6.8395">
        <ele>166.6</ele>
        <time>2025-01-10T09:32:29.000Z</time>
      </trkpt>
      <trkpt lat="43.59757" lon="6.83949">
        <ele>166.9</ele>
        <time>2025-01-10T09:32:28.000Z</time>
      </trkpt>
      <trkpt lat="43.59752" lon="6.83949">
        <ele>167.3</ele>
        <time>2025-01-10T09:32:27.000Z</time>
      </trkpt>
      <trkpt lat="43.59748" lon="6.8395">
        <ele>167.6</ele>
        <time>2025-01-10T09:32:26.000Z</time>
      </trkpt>
      <trkpt lat="43.59744" lon="6.83951">
        <ele>168</ele>
        <time>2025-01-10T09:32:25.000Z</time>
      </trkpt>
      <trkpt lat="43.59739" lon="6.83952">
        <ele>168.4</ele>
        <time>2025-01-10T09:32:24.000Z</time>
      </trkpt>
      <trkpt lat="43.59736" lon="6.83953">
        <ele>168.7</ele>
        <time>2025-01-10T09:32:23.000Z</time>
      </trkpt>
      <trkpt lat="43.59732" lon="6.83955">
        <ele>169.1</ele>
        <time>2025-01-10T09:32:22.000Z</time>
      </trkpt>
      <trkpt lat="43.59728" lon="6.83957">
        <ele>169.6</ele>
        <time>2025-01-10T09:32:21.000Z</time>
      </trkpt>
      <trkpt lat="43.59724" lon="6.83959">
        <ele>170.1</ele>
        <time>2025-01-10T09:32:20.000Z</time>
      </trkpt>
      <trkpt lat="43.59719" lon="6.83962">
        <ele>170.6</ele>
        <time>2025-01-10T09:32:19.000Z</time>
      </trkpt>
      <trkpt lat="43.59715" lon="6.83965">
        <ele>171.1</ele>
        <time>2025-01-10T09:32:18.000Z</time>
      </trkpt>
      <trkpt lat="43.5971" lon="6.83968">
        <ele>171.8</ele>
        <time>2025-01-10T09:32:17.000Z</time>
      </trkpt>
      <trkpt lat="43.59705" lon="6.83972">
        <ele>172.6</ele>
        <time>2025-01-10T09:32:16.000Z</time>
      </trkpt>
      <trkpt lat="43.59701" lon="6.83975">
        <ele>173.2</ele>
        <time>2025-01-10T09:32:15.000Z</time>
      </trkpt>
      <trkpt lat="43.59698" lon="6.83977">
        <ele>173.6</ele>
        <time>2025-01-10T09:32:14.000Z</time>
      </trkpt>
      <trkpt lat="43.59695" lon="6.8398">
        <ele>174.1</ele>
        <time>2025-01-10T09:32:13.000Z</time>
      </trkpt>
      <trkpt lat="43.59692" lon="6.83982">
        <ele>174.7</ele>
        <time>2025-01-10T09:32:12.000Z</time>
      </trkpt>
      <trkpt lat="43.59689" lon="6.83985">
        <ele>175.4</ele>
        <time>2025-01-10T09:32:11.000Z</time>
      </trkpt>
      <trkpt lat="43.59686" lon="6.83987">
        <ele>175.9</ele>
        <time>2025-01-10T09:32:10.000Z</time>
      </trkpt>
      <trkpt lat="43.59683" lon="6.8399">
        <ele>176.5</ele>
        <time>2025-01-10T09:32:09.000Z</time>
      </trkpt>
      <trkpt lat="43.5968" lon="6.83993">
        <ele>177.2</ele>
        <time>2025-01-10T09:32:08.000Z</time>
      </trkpt>
      <trkpt lat="43.59676" lon="6.83996">
        <ele>178</ele>
        <time>2025-01-10T09:32:07.000Z</time>
      </trkpt>
      <trkpt lat="43.59672" lon="6.83999">
        <ele>178.7</ele>
        <time>2025-01-10T09:32:06.000Z</time>
      </trkpt>
      <trkpt lat="43.59668" lon="6.84002">
        <ele>179.4</ele>
        <time>2025-01-10T09:32:05.000Z</time>
      </trkpt>
      <trkpt lat="43.59666" lon="6.84006">
        <ele>179.9</ele>
        <time>2025-01-10T09:32:04.000Z</time>
      </trkpt>
      <trkpt lat="43.59663" lon="6.84009">
        <ele>180.4</ele>
        <time>2025-01-10T09:32:03.000Z</time>
      </trkpt>
      <trkpt lat="43.59661" lon="6.84013">
        <ele>181</ele>
        <time>2025-01-10T09:32:02.000Z</time>
      </trkpt>
      <trkpt lat="43.59659" lon="6.84017">
        <ele>181.6</ele>
        <time>2025-01-10T09:32:01.000Z</time>
      </trkpt>
      <trkpt lat="43.59656" lon="6.84022">
        <ele>182.3</ele>
        <time>2025-01-10T09:32:00.000Z</time>
      </trkpt>
      <trkpt lat="43.59653" lon="6.84027">
        <ele>183.1</ele>
        <time>2025-01-10T09:31:59.000Z</time>
      </trkpt>
      <trkpt lat="43.5965" lon="6.84031">
        <ele>183.7</ele>
        <time>2025-01-10T09:31:58.000Z</time>
      </trkpt>
      <trkpt lat="43.59646" lon="6.84036">
        <ele>184.6</ele>
        <time>2025-01-10T09:31:57.000Z</time>
      </trkpt>
      <trkpt lat="43.59642" lon="6.8404">
        <ele>185.2</ele>
        <time>2025-01-10T09:31:56.000Z</time>
      </trkpt>
      <trkpt lat="43.59639" lon="6.84044">
        <ele>185.9</ele>
        <time>2025-01-10T09:31:55.000Z</time>
      </trkpt>
      <trkpt lat="43.59635" lon="6.84048">
        <ele>186.7</ele>
        <time>2025-01-10T09:31:54.000Z</time>
      </trkpt>
      <trkpt lat="43.59632" lon="6.84051">
        <ele>187.3</ele>
        <time>2025-01-10T09:31:53.000Z</time>
      </trkpt>
      <trkpt lat="43.59627" lon="6.84056">
        <ele>188.4</ele>
        <time>2025-01-10T09:31:52.000Z</time>
      </trkpt>
      <trkpt lat="43.59622" lon="6.84059">
        <ele>189.2</ele>
        <time>2025-01-10T09:31:51.000Z</time>
      </trkpt>
      <trkpt lat="43.59618" lon="6.84062">
        <ele>190</ele>
        <time>2025-01-10T09:31:50.000Z</time>
      </trkpt>
      <trkpt lat="43.59613" lon="6.84065">
        <ele>190.8</ele>
        <time>2025-01-10T09:31:49.000Z</time>
      </trkpt>
      <trkpt lat="43.59608" lon="6.84067">
        <ele>191.4</ele>
        <time>2025-01-10T09:31:48.000Z</time>
      </trkpt>
      <trkpt lat="43.59604" lon="6.8407">
        <ele>192</ele>
        <time>2025-01-10T09:31:47.000Z</time>
      </trkpt>
      <trkpt lat="43.596" lon="6.84072">
        <ele>192.5</ele>
        <time>2025-01-10T09:31:46.000Z</time>
      </trkpt>
      <trkpt lat="43.59596" lon="6.84073">
        <ele>192.9</ele>
        <time>2025-01-10T09:31:45.000Z</time>
      </trkpt>
      <trkpt lat="43.59592" lon="6.84075">
        <ele>193.3</ele>
        <time>2025-01-10T09:31:44.000Z</time>
      </trkpt>
      <trkpt lat="43.59588" lon="6.84076">
        <ele>193.6</ele>
        <time>2025-01-10T09:31:43.000Z</time>
      </trkpt>
      <trkpt lat="43.59585" lon="6.84077">
        <ele>194</ele>
        <time>2025-01-10T09:31:42.000Z</time>
      </trkpt>
      <trkpt lat="43.59581" lon="6.84079">
        <ele>194.4</ele>
        <time>2025-01-10T09:31:41.000Z</time>
      </trkpt>
      <trkpt lat="43.59577" lon="6.84081">
        <ele>194.9</ele>
        <time>2025-01-10T09:31:40.000Z</time>
      </trkpt>
      <trkpt lat="43.59572" lon="6.84082">
        <ele>195.5</ele>
        <time>2025-01-10T09:31:39.000Z</time>
      </trkpt>
      <trkpt lat="43.59567" lon="6.84084">
        <ele>196.2</ele>
        <time>2025-01-10T09:31:38.000Z</time>
      </trkpt>
      <trkpt lat="43.59562" lon="6.84085">
        <ele>197</ele>
        <time>2025-01-10T09:31:37.000Z</time>
      </trkpt>
      <trkpt lat="43.59557" lon="6.84086">
        <ele>197.6</ele>
        <time>2025-01-10T09:31:36.000Z</time>
      </trkpt>
      <trkpt lat="43.59553" lon="6.84086">
        <ele>198.1</ele>
        <time>2025-01-10T09:31:35.000Z</time>
      </trkpt>
      <trkpt lat="43.59549" lon="6.84088">
        <ele>198.6</ele>
        <time>2025-01-10T09:31:34.000Z</time>
      </trkpt>
      <trkpt lat="43.59546" lon="6.84089">
        <ele>199</ele>
        <time>2025-01-10T09:31:33.000Z</time>
      </trkpt>
      <trkpt lat="43.59542" lon="6.8409">
        <ele>199.5</ele>
        <time>2025-01-10T09:31:32.000Z</time>
      </trkpt>
      <trkpt lat="43.59539" lon="6.84092">
        <ele>200.1</ele>
        <time>2025-01-10T09:31:31.000Z</time>
      </trkpt>
      <trkpt lat="43.59536" lon="6.84095">
        <ele>200.6</ele>
        <time>2025-01-10T09:31:30.000Z</time>
      </trkpt>
      <trkpt lat="43.59533" lon="6.84098">
        <ele>201.1</ele>
        <time>2025-01-10T09:31:29.000Z</time>
      </trkpt>
      <trkpt lat="43.59531" lon="6.84102">
        <ele>201.7</ele>
        <time>2025-01-10T09:31:28.000Z</time>
      </trkpt>
      <trkpt lat="43.59529" lon="6.84107">
        <ele>202.3</ele>
        <time>2025-01-10T09:31:27.000Z</time>
      </trkpt>
      <trkpt lat="43.59527" lon="6.84111">
        <ele>202.9</ele>
        <time>2025-01-10T09:31:26.000Z</time>
      </trkpt>
      <trkpt lat="43.59523" lon="6.84115">
        <ele>203.7</ele>
        <time>2025-01-10T09:31:25.000Z</time>
      </trkpt>
      <trkpt lat="43.5952" lon="6.84119">
        <ele>204.4</ele>
        <time>2025-01-10T09:31:24.000Z</time>
      </trkpt>
      <trkpt lat="43.59515" lon="6.84123">
        <ele>205.3</ele>
        <time>2025-01-10T09:31:23.000Z</time>
      </trkpt>
      <trkpt lat="43.59511" lon="6.84127">
        <ele>206.1</ele>
        <time>2025-01-10T09:31:22.000Z</time>
      </trkpt>
      <trkpt lat="43.59506" lon="6.8413">
        <ele>206.8</ele>
        <time>2025-01-10T09:31:21.000Z</time>
      </trkpt>
      <trkpt lat="43.59502" lon="6.84131">
        <ele>207.5</ele>
        <time>2025-01-10T09:31:20.000Z</time>
      </trkpt>
      <trkpt lat="43.59497" lon="6.84132">
        <ele>208.1</ele>
        <time>2025-01-10T09:31:19.000Z</time>
      </trkpt>
      <trkpt lat="43.59492" lon="6.84133">
        <ele>208.6</ele>
        <time>2025-01-10T09:31:18.000Z</time>
      </trkpt>
      <trkpt lat="43.59488" lon="6.84133">
        <ele>209.1</ele>
        <time>2025-01-10T09:31:17.000Z</time>
      </trkpt>
      <trkpt lat="43.59481" lon="6.84135">
        <ele>209.8</ele>
        <time>2025-01-10T09:31:16.000Z</time>
      </trkpt>
      <trkpt lat="43.59475" lon="6.84137">
        <ele>210.4</ele>
        <time>2025-01-10T09:31:15.000Z</time>
      </trkpt>
      <trkpt lat="43.59469" lon="6.84139">
        <ele>211</ele>
        <time>2025-01-10T09:31:14.000Z</time>
      </trkpt>
      <trkpt lat="43.59465" lon="6.8414">
        <ele>211.4</ele>
        <time>2025-01-10T09:31:13.000Z</time>
      </trkpt>
      <trkpt lat="43.59458" lon="6.84142">
        <ele>212</ele>
        <time>2025-01-10T09:31:12.000Z</time>
      </trkpt>
      <trkpt lat="43.59453" lon="6.84144">
        <ele>212.5</ele>
        <time>2025-01-10T09:31:11.000Z</time>
      </trkpt>
      <trkpt lat="43.59447" lon="6.84146">
        <ele>213</ele>
        <time>2025-01-10T09:31:10.000Z</time>
      </trkpt>
      <trkpt lat="43.59441" lon="6.84148">
        <ele>213.5</ele>
        <time>2025-01-10T09:31:09.000Z</time>
      </trkpt>
      <trkpt lat="43.59436" lon="6.84151">
        <ele>214</ele>
        <time>2025-01-10T09:31:08.000Z</time>
      </trkpt>
      <trkpt lat="43.59432" lon="6.84153">
        <ele>214.4</ele>
        <time>2025-01-10T09:31:07.000Z</time>
      </trkpt>
      <trkpt lat="43.59427" lon="6.84156">
        <ele>214.8</ele>
        <time>2025-01-10T09:31:06.000Z</time>
      </trkpt>
      <trkpt lat="43.59423" lon="6.84158">
        <ele>215.2</ele>
        <time>2025-01-10T09:31:05.000Z</time>
      </trkpt>
      <trkpt lat="43.59419" lon="6.84159">
        <ele>215.7</ele>
        <time>2025-01-10T09:31:04.000Z</time>
      </trkpt>
      <trkpt lat="43.59415" lon="6.84161">
        <ele>216.1</ele>
        <time>2025-01-10T09:31:03.000Z</time>
      </trkpt>
      <trkpt lat="43.59412" lon="6.84162">
        <ele>216.5</ele>
        <time>2025-01-10T09:31:02.000Z</time>
      </trkpt>
      <trkpt lat="43.59408" lon="6.84164">
        <ele>217</ele>
        <time>2025-01-10T09:31:01.000Z</time>
      </trkpt>
      <trkpt lat="43.59404" lon="6.84166">
        <ele>217.4</ele>
        <time>2025-01-10T09:31:00.000Z</time>
      </trkpt>
      <trkpt lat="43.59401" lon="6.84168">
        <ele>217.8</ele>
        <time>2025-01-10T09:30:59.000Z</time>
      </trkpt>
      <trkpt lat="43.59397" lon="6.84169">
        <ele>218.1</ele>
        <time>2025-01-10T09:30:58.000Z</time>
      </trkpt>
      <trkpt lat="43.59393" lon="6.84171">
        <ele>218.4</ele>
        <time>2025-01-10T09:30:57.000Z</time>
      </trkpt>
      <trkpt lat="43.59389" lon="6.84173">
        <ele>218.7</ele>
        <time>2025-01-10T09:30:56.000Z</time>
      </trkpt>
      <trkpt lat="43.59384" lon="6.84175">
        <ele>218.8</ele>
        <time>2025-01-10T09:30:55.000Z</time>
      </trkpt>
      <trkpt lat="43.59381" lon="6.84177">
        <ele>218.9</ele>
        <time>2025-01-10T09:30:54.000Z</time>
      </trkpt>
      <trkpt lat="43.59377" lon="6.84178">
        <ele>218.9</ele>
        <time>2025-01-10T09:30:53.000Z</time>
      </trkpt>
      <trkpt lat="43.59375" lon="6.84179">
        <ele>218.9</ele>
        <time>2025-01-10T09:30:52.000Z</time>
      </trkpt>
      <trkpt lat="43.59373" lon="6.8418">
        <ele>218.9</ele>
        <time>2025-01-10T09:30:51.000Z</time>
      </trkpt>
      <trkpt lat="43.59372" lon="6.8418">
        <ele>218.8</ele>
        <time>2025-01-10T09:30:50.000Z</time>
      </trkpt>
      <trkpt lat="43.59371" lon="6.8418">
        <ele>218.8</ele>
        <time>2025-01-10T09:30:49.000Z</time>
      </trkpt>
      <trkpt lat="43.5937" lon="6.8418">
        <ele>218.8</ele>
        <time>2025-01-10T09:30:48.000Z</time>
      </trkpt>
      <trkpt lat="43.5937" lon="6.84179">
        <ele>218.8</ele>
        <time>2025-01-10T09:30:47.000Z</time>
      </trkpt>
      <trkpt lat="43.5937" lon="6.84179">
        <ele>218.8</ele>
        <time>2025-01-10T09:30:46.000Z</time>
      </trkpt>
      <trkpt lat="43.59369" lon="6.84179">
        <ele>218.8</ele>
        <time>2025-01-10T09:30:45.000Z</time>
      </trkpt>
      <trkpt lat="43.59367" lon="6.84179">
        <ele>218.8</ele>
        <time>2025-01-10T09:30:44.000Z</time>
      </trkpt>
      <trkpt lat="43.59365" lon="6.8418">
        <ele>218.8</ele>
        <time>2025-01-10T09:30:43.000Z</time>
      </trkpt>
      <trkpt lat="43.59363" lon="6.8418">
        <ele>218.8</ele>
        <time>2025-01-10T09:30:42.000Z</time>
      </trkpt>
      <trkpt lat="43.5936" lon="6.8418">
        <ele>218.7</ele>
        <time>2025-01-10T09:30:41.000Z</time>
      </trkpt>
      <trkpt lat="43.5936" lon="6.8418">
        <ele>218.7</ele>
        <time>2025-01-10T09:30:40.000Z</time>
      </trkpt>
      <trkpt lat="43.5936" lon="6.84179">
        <ele>218.7</ele>
        <time>2025-01-10T09:30:39.000Z</time>
      </trkpt>
      <trkpt lat="43.5936" lon="6.84179">
        <ele>218.7</ele>
        <time>2025-01-10T09:30:38.000Z</time>
      </trkpt>
      <trkpt lat="43.5936" lon="6.84179">
        <ele>218.7</ele>
        <time>2025-01-10T09:30:37.000Z</time>
      </trkpt>
      <trkpt lat="43.5936" lon="6.84179">
        <ele>218.7</ele>
        <time>2025-01-10T09:30:36.000Z</time>
      </trkpt>
      <trkpt lat="43.5936" lon="6.84179">
        <ele>218.7</ele>
        <time>2025-01-10T09:30:35.000Z</time>
      </trkpt>
      <trkpt lat="43.5936" lon="6.84179">
        <ele>218.7</ele>
        <time>2025-01-10T09:30:34.000Z</time>
      </trkpt>
      <trkpt lat="43.5936" lon="6.84179">
        <ele>218.7</ele>
        <time>2025-01-10T09:30:33.000Z</time>
      </trkpt>
      <trkpt lat="43.5936" lon="6.84179">
        <ele>218.7</ele>
        <time>2025-01-10T09:30:32.000Z</time>
      </trkpt>
      <trkpt lat="43.5936" lon="6.84179">
        <ele>218.7</ele>
        <time>2025-01-10T09:30:31.000Z</time>
      </trkpt>
      <trkpt lat="43.5936" lon="6.84179">
        <ele>218.7</ele>
        <time>2025-01-10T09:30:30.000Z</time>
      </trkpt>
      <trkpt lat="43.5936" lon="6.84179">
        <ele>218.7</ele>
        <time>2025-01-10T09:30:29.000Z</time>
      </trkpt>
      <trkpt lat="43.5936" lon="6.84179">
        <ele>218.7</ele>
        <time>2025-01-10T09:30:28.000Z</time>
      </trkpt>
      <trkpt lat="43.5936" lon="6.84179">
        <ele>218.7</ele>
        <time>2025-01-10T09:30:27.000Z</time>
      </trkpt>
      <trkpt lat="43.5936" lon="6.84179">
        <ele>218.7</ele>
        <time>2025-01-10T09:30:26.000Z</time>
      </trkpt>
      <trkpt lat="43.5936" lon="6.84179">
        <ele>218.7</ele>
        <time>2025-01-10T09:30:25.000Z</time>
      </trkpt>
      <trkpt lat="43.5936" lon="6.84179">
        <ele>218.7</ele>
        <time>2025-01-10T09:30:24.000Z</time>
      </trkpt>
      <trkpt lat="43.5936" lon="6.84179">
        <ele>218.7</ele>
        <time>2025-01-10T09:30:23.000Z</time>
      </trkpt>
      <trkpt lat="43.5936" lon="6.84179">
        <ele>218.7</ele>
        <time>2025-01-10T09:30:22.000Z</time>
      </trkpt>
      <trkpt lat="43.5936" lon="6.84179">
        <ele>218.7</ele>
        <time>2025-01-10T09:30:21.000Z</time>
      </trkpt>
      <trkpt lat="43.5936" lon="6.84179">
        <ele>218.7</ele>
        <time>2025-01-10T09:30:20.000Z</time>
      </trkpt>
      <trkpt lat="43.5936" lon="6.84179">
        <ele>218.7</ele>
        <time>2025-01-10T09:30:19.000Z</time>
      </trkpt>
      <trkpt lat="43.5936" lon="6.84179">
        <ele>218.7</ele>
        <time>2025-01-10T09:30:18.000Z</time>
      </trkpt>
      <trkpt lat="43.5936" lon="6.8418">
        <ele>218.7</ele>
        <time>2025-01-10T09:30:17.000Z</time>
      </trkpt>
      <trkpt lat="43.5936" lon="6.8418">
        <ele>218.7</ele>
        <time>2025-01-10T09:30:16.000Z</time>
      </trkpt>
      <trkpt lat="43.5936" lon="6.8418">
        <ele>218.7</ele>
        <time>2025-01-10T09:30:15.000Z</time>
      </trkpt>
      <trkpt lat="43.5936" lon="6.8418">
        <ele>218.7</ele>
        <time>2025-01-10T09:30:14.000Z</time>
      </trkpt>
      <trkpt lat="43.5936" lon="6.8418">
        <ele>218.7</ele>
        <time>2025-01-10T09:30:13.000Z</time>
      </trkpt>
      <trkpt lat="43.5936" lon="6.8418">
        <ele>218.7</ele>
        <time>2025-01-10T09:30:12.000Z</time>
      </trkpt>
      <trkpt lat="43.5936" lon="6.8418">
        <ele>218.7</ele>
        <time>2025-01-10T09:30:11.000Z</time>
      </trkpt>
      <trkpt lat="43.5936" lon="6.8418">
        <ele>218.7</ele>
        <time>2025-01-10T09:30:10.000Z</time>
      </trkpt>
      <trkpt lat="43.5936" lon="6.8418">
        <ele>218.7</ele>
        <time>2025-01-10T09:30:09.000Z</time>
      </trkpt>
      <trkpt lat="43.5936" lon="6.8418">
        <ele>218.7</ele>
        <time>2025-01-10T09:30:08.000Z</time>
      </trkpt>
      <trkpt lat="43.59361" lon="6.8418">
        <ele>218.7</ele>
        <time>2025-01-10T09:30:07.000Z</time>
      </trkpt>
      <trkpt lat="43.59361" lon="6.84179">
        <ele>218.7</ele>
        <time>2025-01-10T09:30:06.000Z</time>
      </trkpt>
      <trkpt lat="43.59361" lon="6.84179">
        <ele>218.7</ele>
        <time>2025-01-10T09:30:05.000Z</time>
      </trkpt>
      <trkpt lat="43.59361" lon="6.84179">
        <ele>218.7</ele>
        <time>2025-01-10T09:30:04.000Z</time>
      </trkpt>
      <trkpt lat="43.59361" lon="6.84179">
        <ele>218.7</ele>
        <time>2025-01-10T09:30:03.000Z</time>
      </trkpt>
      <trkpt lat="43.59361" lon="6.84179">
        <ele>218.7</ele>
        <time>2025-01-10T09:30:02.000Z</time>
      </trkpt>
      <trkpt lat="43.59361" lon="6.84179">
        <ele>218.7</ele>
        <time>2025-01-10T09:30:01.000Z</time>
      </trkpt>
      <trkpt lat="43.59361" lon="6.84179">
        <ele>218.7</ele>
        <time>2025-01-10T09:30:00.000Z</time>
      </trkpt>
      <trkpt lat="43.59361" lon="6.84179">
        <ele>218.7</ele>
        <time>2025-01-10T09:29:59.000Z</time>
      </trkpt>
      <trkpt lat="43.59361" lon="6.84179">
        <ele>218.7</ele>
        <time>2025-01-10T09:29:58.000Z</time>
      </trkpt>
      <trkpt lat="43.59361" lon="6.84179">
        <ele>218.7</ele>
        <time>2025-01-10T09:29:57.000Z</time>
      </trkpt>
      <trkpt lat="43.59361" lon="6.84179">
        <ele>218.7</ele>
        <time>2025-01-10T09:29:56.000Z</time>
      </trkpt>
      <trkpt lat="43.59361" lon="6.84179">
        <ele>218.7</ele>
        <time>2025-01-10T09:29:55.000Z</time>
      </trkpt>
      <trkpt lat="43.5936" lon="6.84179">
        <ele>218.7</ele>
        <time>2025-01-10T09:29:54.000Z</time>
      </trkpt>
      <trkpt lat="43.5936" lon="6.84179">
        <ele>218.7</ele>
        <time>2025-01-10T09:29:53.000Z</time>
      </trkpt>
      <trkpt lat="43.59359" lon="6.84179">
        <ele>218.7</ele>
        <time>2025-01-10T09:29:52.000Z</time>
      </trkpt>
      <trkpt lat="43.59359" lon="6.8418">
        <ele>218.7</ele>
        <time>2025-01-10T09:29:51.000Z</time>
      </trkpt>
      <trkpt lat="43.5936" lon="6.84181">
        <ele>218.7</ele>
        <time>2025-01-10T09:29:50.000Z</time>
      </trkpt>
      <trkpt lat="43.5936" lon="6.84181">
        <ele>218.7</ele>
        <time>2025-01-10T09:29:49.000Z</time>
      </trkpt>
      <trkpt lat="43.5936" lon="6.84181">
        <ele>218.7</ele>
        <time>2025-01-10T09:29:48.000Z</time>
      </trkpt>
      <trkpt lat="43.5936" lon="6.84181">
        <ele>218.7</ele>
        <time>2025-01-10T09:29:47.000Z</time>
      </trkpt>
      <trkpt lat="43.5936" lon="6.84181">
        <ele>218.7</ele>
        <time>2025-01-10T09:29:46.000Z</time>
      </trkpt>
      <trkpt lat="43.59361" lon="6.84182">
        <ele>218.7</ele>
        <time>2025-01-10T09:29:45.000Z</time>
      </trkpt>
      <trkpt lat="43.59361" lon="6.84183">
        <ele>218.7</ele>
        <time>2025-01-10T09:29:44.000Z</time>
      </trkpt>
      <trkpt lat="43.59361" lon="6.84183">
        <ele>218.7</ele>
        <time>2025-01-10T09:29:43.000Z</time>
      </trkpt>
      <trkpt lat="43.59361" lon="6.84184">
        <ele>218.7</ele>
        <time>2025-01-10T09:29:42.000Z</time>
      </trkpt>
      <trkpt lat="43.5936" lon="6.84185">
        <ele>218.7</ele>
        <time>2025-01-10T09:29:41.000Z</time>
      </trkpt>
      <trkpt lat="43.59359" lon="6.84186">
        <ele>218.8</ele>
        <time>2025-01-10T09:29:40.000Z</time>
      </trkpt>
      <trkpt lat="43.59357" lon="6.84187">
        <ele>218.8</ele>
        <time>2025-01-10T09:29:39.000Z</time>
      </trkpt>
      <trkpt lat="43.59353" lon="6.84187">
        <ele>218.8</ele>
        <time>2025-01-10T09:29:38.000Z</time>
      </trkpt>
      <trkpt lat="43.59349" lon="6.84188">
        <ele>218.9</ele>
        <time>2025-01-10T09:29:37.000Z</time>
      </trkpt>
      <trkpt lat="43.59344" lon="6.84188">
        <ele>219.1</ele>
        <time>2025-01-10T09:29:36.000Z</time>
      </trkpt>
      <trkpt lat="43.59339" lon="6.84189">
        <ele>219.3</ele>
        <time>2025-01-10T09:29:35.000Z</time>
      </trkpt>
      <trkpt lat="43.59333" lon="6.84189">
        <ele>219.5</ele>
        <time>2025-01-10T09:29:34.000Z</time>
      </trkpt>
      <trkpt lat="43.59328" lon="6.84189">
        <ele>219.8</ele>
        <time>2025-01-10T09:29:33.000Z</time>
      </trkpt>
      <trkpt lat="43.59324" lon="6.84189">
        <ele>220.1</ele>
        <time>2025-01-10T09:29:32.000Z</time>
      </trkpt>
      <trkpt lat="43.59319" lon="6.84189">
        <ele>220.4</ele>
        <time>2025-01-10T09:29:31.000Z</time>
      </trkpt>
      <trkpt lat="43.59315" lon="6.84189">
        <ele>220.7</ele>
        <time>2025-01-10T09:29:30.000Z</time>
      </trkpt>
      <trkpt lat="43.59312" lon="6.84188">
        <ele>220.9</ele>
        <time>2025-01-10T09:29:29.000Z</time>
      </trkpt>
      <trkpt lat="43.59308" lon="6.84187">
        <ele>221.1</ele>
        <time>2025-01-10T09:29:28.000Z</time>
      </trkpt>
      <trkpt lat="43.59305" lon="6.84187">
        <ele>221.3</ele>
        <time>2025-01-10T09:29:27.000Z</time>
      </trkpt>
      <trkpt lat="43.59303" lon="6.84185">
        <ele>221.5</ele>
        <time>2025-01-10T09:29:26.000Z</time>
      </trkpt>
      <trkpt lat="43.59302" lon="6.84185">
        <ele>221.5</ele>
        <time>2025-01-10T09:29:25.000Z</time>
      </trkpt>
      <trkpt lat="43.59302" lon="6.84185">
        <ele>221.5</ele>
        <time>2025-01-10T09:29:24.000Z</time>
      </trkpt>
      <trkpt lat="43.59302" lon="6.84185">
        <ele>221.5</ele>
        <time>2025-01-10T09:29:23.000Z</time>
      </trkpt>
      <trkpt lat="43.59302" lon="6.84185">
        <ele>221.5</ele>
        <time>2025-01-10T09:29:22.000Z</time>
      </trkpt>
      <trkpt lat="43.59302" lon="6.84185">
        <ele>221.5</ele>
        <time>2025-01-10T09:29:21.000Z</time>
      </trkpt>
      <trkpt lat="43.59302" lon="6.84185">
        <ele>221.5</ele>
        <time>2025-01-10T09:29:20.000Z</time>
      </trkpt>
      <trkpt lat="43.59302" lon="6.84185">
        <ele>221.5</ele>
        <time>2025-01-10T09:29:19.000Z</time>
      </trkpt>
      <trkpt lat="43.59302" lon="6.84185">
        <ele>221.5</ele>
        <time>2025-01-10T09:29:18.000Z</time>
      </trkpt>
      <trkpt lat="43.59302" lon="6.84186">
        <ele>221.5</ele>
        <time>2025-01-10T09:29:17.000Z</time>
      </trkpt>
      <trkpt lat="43.59302" lon="6.84186">
        <ele>221.5</ele>
        <time>2025-01-10T09:29:16.000Z</time>
      </trkpt>
      <trkpt lat="43.59301" lon="6.84186">
        <ele>221.6</ele>
        <time>2025-01-10T09:29:15.000Z</time>
      </trkpt>
      <trkpt lat="43.59301" lon="6.84186">
        <ele>221.6</ele>
        <time>2025-01-10T09:29:14.000Z</time>
      </trkpt>
      <trkpt lat="43.59302" lon="6.84186">
        <ele>221.6</ele>
        <time>2025-01-10T09:29:13.000Z</time>
      </trkpt>
      <trkpt lat="43.59302" lon="6.84186">
        <ele>221.6</ele>
        <time>2025-01-10T09:29:12.000Z</time>
      </trkpt>
      <trkpt lat="43.59301" lon="6.84186">
        <ele>221.6</ele>
        <time>2025-01-10T09:29:11.000Z</time>
      </trkpt>
      <trkpt lat="43.59301" lon="6.84186">
        <ele>221.6</ele>
        <time>2025-01-10T09:29:10.000Z</time>
      </trkpt>
      <trkpt lat="43.59302" lon="6.84186">
        <ele>221.6</ele>
        <time>2025-01-10T09:29:09.000Z</time>
      </trkpt>
      <trkpt lat="43.59302" lon="6.84184">
        <ele>221.7</ele>
        <time>2025-01-10T09:29:08.000Z</time>
      </trkpt>
      <trkpt lat="43.59304" lon="6.84184">
        <ele>221.7</ele>
        <time>2025-01-10T09:29:07.000Z</time>
      </trkpt>
      <trkpt lat="43.59304" lon="6.84185">
        <ele>221.8</ele>
        <time>2025-01-10T09:29:06.000Z</time>
      </trkpt>
      <trkpt lat="43.59305" lon="6.84185">
        <ele>221.8</ele>
        <time>2025-01-10T09:29:05.000Z</time>
      </trkpt>
      <trkpt lat="43.59305" lon="6.84185">
        <ele>221.8</ele>
        <time>2025-01-10T09:29:04.000Z</time>
      </trkpt>
      <trkpt lat="43.59305" lon="6.84185">
        <ele>221.8</ele>
        <time>2025-01-10T09:29:03.000Z</time>
      </trkpt>
      <trkpt lat="43.59306" lon="6.84185">
        <ele>221.8</ele>
        <time>2025-01-10T09:29:02.000Z</time>
      </trkpt>
      <trkpt lat="43.59306" lon="6.84186">
        <ele>221.8</ele>
        <time>2025-01-10T09:29:01.000Z</time>
      </trkpt>
      <trkpt lat="43.59307" lon="6.84186">
        <ele>221.8</ele>
        <time>2025-01-10T09:29:00.000Z</time>
      </trkpt>
      <trkpt lat="43.59307" lon="6.84188">
        <ele>221.9</ele>
        <time>2025-01-10T09:28:59.000Z</time>
      </trkpt>
      <trkpt lat="43.59307" lon="6.84187">
        <ele>221.9</ele>
        <time>2025-01-10T09:28:58.000Z</time>
      </trkpt>
      <trkpt lat="43.59307" lon="6.84187">
        <ele>221.9</ele>
        <time>2025-01-10T09:28:57.000Z</time>
      </trkpt>
      <trkpt lat="43.59307" lon="6.84187">
        <ele>221.9</ele>
        <time>2025-01-10T09:28:56.000Z</time>
      </trkpt>
      <trkpt lat="43.59308" lon="6.84187">
        <ele>221.9</ele>
        <time>2025-01-10T09:28:55.000Z</time>
      </trkpt>
      <trkpt lat="43.59308" lon="6.84186">
        <ele>221.9</ele>
        <time>2025-01-10T09:28:54.000Z</time>
      </trkpt>
      <trkpt lat="43.59309" lon="6.84186">
        <ele>221.9</ele>
        <time>2025-01-10T09:28:53.000Z</time>
      </trkpt>
      <trkpt lat="43.59309" lon="6.84186">
        <ele>221.9</ele>
        <time>2025-01-10T09:28:52.000Z</time>
      </trkpt>
      <trkpt lat="43.59309" lon="6.84186">
        <ele>221.9</ele>
        <time>2025-01-10T09:28:51.000Z</time>
      </trkpt>
      <trkpt lat="43.59308" lon="6.84184">
        <ele>221.9</ele>
        <time>2025-01-10T09:28:50.000Z</time>
      </trkpt>
      <trkpt lat="43.59306" lon="6.84182">
        <ele>221.9</ele>
        <time>2025-01-10T09:28:49.000Z</time>
      </trkpt>
      <trkpt lat="43.59304" lon="6.8418">
        <ele>221.9</ele>
        <time>2025-01-10T09:28:48.000Z</time>
      </trkpt>
      <trkpt lat="43.59301" lon="6.84177">
        <ele>221.9</ele>
        <time>2025-01-10T09:28:47.000Z</time>
      </trkpt>
      <trkpt lat="43.59298" lon="6.84174">
        <ele>221.8</ele>
        <time>2025-01-10T09:28:46.000Z</time>
      </trkpt>
      <trkpt lat="43.59295" lon="6.84171">
        <ele>221.6</ele>
        <time>2025-01-10T09:28:45.000Z</time>
      </trkpt>
      <trkpt lat="43.59292" lon="6.84167">
        <ele>221.5</ele>
        <time>2025-01-10T09:28:44.000Z</time>
      </trkpt>
      <trkpt lat="43.59289" lon="6.84163">
        <ele>221.2</ele>
        <time>2025-01-10T09:28:43.000Z</time>
      </trkpt>
      <trkpt lat="43.59287" lon="6.84159">
        <ele>221</ele>
        <time>2025-01-10T09:28:42.000Z</time>
      </trkpt>
      <trkpt lat="43.59283" lon="6.84155">
        <ele>220.7</ele>
        <time>2025-01-10T09:28:41.000Z</time>
      </trkpt>
      <trkpt lat="43.59279" lon="6.8415">
        <ele>220.3</ele>
        <time>2025-01-10T09:28:40.000Z</time>
      </trkpt>
      <trkpt lat="43.59274" lon="6.84146">
        <ele>220</ele>
        <time>2025-01-10T09:28:39.000Z</time>
      </trkpt>
      <trkpt lat="43.5927" lon="6.84142">
        <ele>219.6</ele>
        <time>2025-01-10T09:28:38.000Z</time>
      </trkpt>
      <trkpt lat="43.59266" lon="6.84137">
        <ele>219.2</ele>
        <time>2025-01-10T09:28:37.000Z</time>
      </trkpt>
      <trkpt lat="43.59261" lon="6.84134">
        <ele>218.9</ele>
        <time>2025-01-10T09:28:36.000Z</time>
      </trkpt>
      <trkpt lat="43.59254" lon="6.84129">
        <ele>218.5</ele>
        <time>2025-01-10T09:28:35.000Z</time>
      </trkpt>
      <trkpt lat="43.59249" lon="6.84125">
        <ele>218.2</ele>
        <time>2025-01-10T09:28:34.000Z</time>
      </trkpt>
      <trkpt lat="43.59244" lon="6.84123">
        <ele>218</ele>
        <time>2025-01-10T09:28:33.000Z</time>
      </trkpt>
      <trkpt lat="43.59239" lon="6.8412">
        <ele>217.9</ele>
        <time>2025-01-10T09:28:32.000Z</time>
      </trkpt>
      <trkpt lat="43.59232" lon="6.84118">
        <ele>217.8</ele>
        <time>2025-01-10T09:28:31.000Z</time>
      </trkpt>
      <trkpt lat="43.59226" lon="6.84117">
        <ele>217.8</ele>
        <time>2025-01-10T09:28:30.000Z</time>
      </trkpt>
      <trkpt lat="43.59221" lon="6.84116">
        <ele>217.9</ele>
        <time>2025-01-10T09:28:29.000Z</time>
      </trkpt>
      <trkpt lat="43.59215" lon="6.84116">
        <ele>218</ele>
        <time>2025-01-10T09:28:28.000Z</time>
      </trkpt>
      <trkpt lat="43.5921" lon="6.84115">
        <ele>218.1</ele>
        <time>2025-01-10T09:28:27.000Z</time>
      </trkpt>
      <trkpt lat="43.59205" lon="6.84113">
        <ele>218.3</ele>
        <time>2025-01-10T09:28:26.000Z</time>
      </trkpt>
      <trkpt lat="43.592" lon="6.84112">
        <ele>218.5</ele>
        <time>2025-01-10T09:28:25.000Z</time>
      </trkpt>
      <trkpt lat="43.59195" lon="6.8411">
        <ele>218.7</ele>
        <time>2025-01-10T09:28:24.000Z</time>
      </trkpt>
      <trkpt lat="43.59191" lon="6.84107">
        <ele>218.9</ele>
        <time>2025-01-10T09:28:23.000Z</time>
      </trkpt>
      <trkpt lat="43.59187" lon="6.84105">
        <ele>219.1</ele>
        <time>2025-01-10T09:28:22.000Z</time>
      </trkpt>
      <trkpt lat="43.59182" lon="6.84102">
        <ele>219.4</ele>
        <time>2025-01-10T09:28:21.000Z</time>
      </trkpt>
      <trkpt lat="43.59178" lon="6.84099">
        <ele>219.5</ele>
        <time>2025-01-10T09:28:20.000Z</time>
      </trkpt>
      <trkpt lat="43.59174" lon="6.84096">
        <ele>219.6</ele>
        <time>2025-01-10T09:28:19.000Z</time>
      </trkpt>
      <trkpt lat="43.59168" lon="6.84093">
        <ele>219.7</ele>
        <time>2025-01-10T09:28:18.000Z</time>
      </trkpt>
      <trkpt lat="43.59164" lon="6.8409">
        <ele>219.7</ele>
        <time>2025-01-10T09:28:17.000Z</time>
      </trkpt>
      <trkpt lat="43.59159" lon="6.84088">
        <ele>219.7</ele>
        <time>2025-01-10T09:28:16.000Z</time>
      </trkpt>
      <trkpt lat="43.59154" lon="6.84085">
        <ele>219.7</ele>
        <time>2025-01-10T09:28:15.000Z</time>
      </trkpt>
      <trkpt lat="43.59149" lon="6.84082">
        <ele>219.7</ele>
        <time>2025-01-10T09:28:14.000Z</time>
      </trkpt>
      <trkpt lat="43.59144" lon="6.84078">
        <ele>219.6</ele>
        <time>2025-01-10T09:28:13.000Z</time>
      </trkpt>
      <trkpt lat="43.5914" lon="6.84075">
        <ele>219.6</ele>
        <time>2025-01-10T09:28:12.000Z</time>
      </trkpt>
      <trkpt lat="43.59136" lon="6.84072">
        <ele>219.6</ele>
        <time>2025-01-10T09:28:11.000Z</time>
      </trkpt>
      <trkpt lat="43.59131" lon="6.8407">
        <ele>219.6</ele>
        <time>2025-01-10T09:28:10.000Z</time>
      </trkpt>
      <trkpt lat="43.59126" lon="6.84068">
        <ele>219.6</ele>
        <time>2025-01-10T09:28:09.000Z</time>
      </trkpt>
      <trkpt lat="43.59121" lon="6.84068">
        <ele>219.6</ele>
        <time>2025-01-10T09:28:08.000Z</time>
      </trkpt>
      <trkpt lat="43.59116" lon="6.84069">
        <ele>219.6</ele>
        <time>2025-01-10T09:28:07.000Z</time>
      </trkpt>
      <trkpt lat="43.59114" lon="6.84068">
        <ele>219.6</ele>
        <time>2025-01-10T09:28:06.000Z</time>
      </trkpt>
      <trkpt lat="43.5911" lon="6.84067">
        <ele>219.6</ele>
        <time>2025-01-10T09:28:05.000Z</time>
      </trkpt>
      <trkpt lat="43.59107" lon="6.84065">
        <ele>219.7</ele>
        <time>2025-01-10T09:28:04.000Z</time>
      </trkpt>
      <trkpt lat="43.59106" lon="6.84063">
        <ele>219.7</ele>
        <time>2025-01-10T09:28:03.000Z</time>
      </trkpt>
      <trkpt lat="43.59103" lon="6.8406">
        <ele>219.8</ele>
        <time>2025-01-10T09:28:02.000Z</time>
      </trkpt>
      <trkpt lat="43.591" lon="6.84057">
        <ele>219.9</ele>
        <time>2025-01-10T09:28:01.000Z</time>
      </trkpt>
      <trkpt lat="43.59097" lon="6.84054">
        <ele>220.1</ele>
        <time>2025-01-10T09:28:00.000Z</time>
      </trkpt>
      <trkpt lat="43.59095" lon="6.84051">
        <ele>220.2</ele>
        <time>2025-01-10T09:27:59.000Z</time>
      </trkpt>
      <trkpt lat="43.59093" lon="6.84048">
        <ele>220.3</ele>
        <time>2025-01-10T09:27:58.000Z</time>
      </trkpt>
      <trkpt lat="43.5909" lon="6.84045">
        <ele>220.5</ele>
        <time>2025-01-10T09:27:57.000Z</time>
      </trkpt>
      <trkpt lat="43.59088" lon="6.84041">
        <ele>220.6</ele>
        <time>2025-01-10T09:27:56.000Z</time>
      </trkpt>
      <trkpt lat="43.59086" lon="6.84036">
        <ele>220.8</ele>
        <time>2025-01-10T09:27:55.000Z</time>
      </trkpt>
      <trkpt lat="43.59085" lon="6.84031">
        <ele>221</ele>
        <time>2025-01-10T09:27:54.000Z</time>
      </trkpt>
      <trkpt lat="43.59086" lon="6.84024">
        <ele>221.2</ele>
        <time>2025-01-10T09:27:53.000Z</time>
      </trkpt>
      <trkpt lat="43.59086" lon="6.84021">
        <ele>221.3</ele>
        <time>2025-01-10T09:27:52.000Z</time>
      </trkpt>
      <trkpt lat="43.59085" lon="6.84017">
        <ele>221.4</ele>
        <time>2025-01-10T09:27:51.000Z</time>
      </trkpt>
      <trkpt lat="43.59085" lon="6.84014">
        <ele>221.4</ele>
        <time>2025-01-10T09:27:50.000Z</time>
      </trkpt>
      <trkpt lat="43.59085" lon="6.84011">
        <ele>221.5</ele>
        <time>2025-01-10T09:27:49.000Z</time>
      </trkpt>
      <trkpt lat="43.59085" lon="6.84007">
        <ele>221.5</ele>
        <time>2025-01-10T09:27:48.000Z</time>
      </trkpt>
      <trkpt lat="43.59085" lon="6.84002">
        <ele>221.5</ele>
        <time>2025-01-10T09:27:47.000Z</time>
      </trkpt>
      <trkpt lat="43.59085" lon="6.83999">
        <ele>221.6</ele>
        <time>2025-01-10T09:27:46.000Z</time>
      </trkpt>
      <trkpt lat="43.59086" lon="6.83995">
        <ele>221.6</ele>
        <time>2025-01-10T09:27:45.000Z</time>
      </trkpt>
      <trkpt lat="43.59086" lon="6.83992">
        <ele>221.6</ele>
        <time>2025-01-10T09:27:44.000Z</time>
      </trkpt>
      <trkpt lat="43.59087" lon="6.83988">
        <ele>221.6</ele>
        <time>2025-01-10T09:27:43.000Z</time>
      </trkpt>
      <trkpt lat="43.59088" lon="6.83984">
        <ele>221.5</ele>
        <time>2025-01-10T09:27:42.000Z</time>
      </trkpt>
      <trkpt lat="43.59088" lon="6.8398">
        <ele>221.5</ele>
        <time>2025-01-10T09:27:41.000Z</time>
      </trkpt>
      <trkpt lat="43.5909" lon="6.83976">
        <ele>221.5</ele>
        <time>2025-01-10T09:27:40.000Z</time>
      </trkpt>
      <trkpt lat="43.59091" lon="6.83972">
        <ele>221.4</ele>
        <time>2025-01-10T09:27:39.000Z</time>
      </trkpt>
      <trkpt lat="43.59092" lon="6.83968">
        <ele>221.4</ele>
        <time>2025-01-10T09:27:38.000Z</time>
      </trkpt>
      <trkpt lat="43.59093" lon="6.83963">
        <ele>221.3</ele>
        <time>2025-01-10T09:27:37.000Z</time>
      </trkpt>
      <trkpt lat="43.59094" lon="6.83958">
        <ele>221.2</ele>
        <time>2025-01-10T09:27:36.000Z</time>
      </trkpt>
      <trkpt lat="43.59095" lon="6.83954">
        <ele>221</ele>
        <time>2025-01-10T09:27:35.000Z</time>
      </trkpt>
      <trkpt lat="43.59096" lon="6.83949">
        <ele>220.9</ele>
        <time>2025-01-10T09:27:34.000Z</time>
      </trkpt>
      <trkpt lat="43.59096" lon="6.83944">
        <ele>220.7</ele>
        <time>2025-01-10T09:27:33.000Z</time>
      </trkpt>
      <trkpt lat="43.59096" lon="6.83939">
        <ele>220.5</ele>
        <time>2025-01-10T09:27:32.000Z</time>
      </trkpt>
      <trkpt lat="43.59097" lon="6.83933">
        <ele>220.2</ele>
        <time>2025-01-10T09:27:31.000Z</time>
      </trkpt>
      <trkpt lat="43.59097" lon="6.83928">
        <ele>219.9</ele>
        <time>2025-01-10T09:27:30.000Z</time>
      </trkpt>
      <trkpt lat="43.59097" lon="6.83922">
        <ele>219.6</ele>
        <time>2025-01-10T09:27:29.000Z</time>
      </trkpt>
      <trkpt lat="43.59096" lon="6.83916">
        <ele>219.2</ele>
        <time>2025-01-10T09:27:28.000Z</time>
      </trkpt>
      <trkpt lat="43.59096" lon="6.83911">
        <ele>218.9</ele>
        <time>2025-01-10T09:27:27.000Z</time>
      </trkpt>
      <trkpt lat="43.59096" lon="6.83906">
        <ele>218.6</ele>
        <time>2025-01-10T09:27:26.000Z</time>
      </trkpt>
      <trkpt lat="43.59096" lon="6.839">
        <ele>218.2</ele>
        <time>2025-01-10T09:27:25.000Z</time>
      </trkpt>
      <trkpt lat="43.59096" lon="6.83895">
        <ele>217.9</ele>
        <time>2025-01-10T09:27:24.000Z</time>
      </trkpt>
      <trkpt lat="43.59096" lon="6.83889">
        <ele>217.5</ele>
        <time>2025-01-10T09:27:23.000Z</time>
      </trkpt>
      <trkpt lat="43.59096" lon="6.83883">
        <ele>217.2</ele>
        <time>2025-01-10T09:27:22.000Z</time>
      </trkpt>
      <trkpt lat="43.59096" lon="6.83878">
        <ele>217</ele>
        <time>2025-01-10T09:27:21.000Z</time>
      </trkpt>
      <trkpt lat="43.59096" lon="6.83872">
        <ele>216.7</ele>
        <time>2025-01-10T09:27:20.000Z</time>
      </trkpt>
      <trkpt lat="43.59096" lon="6.83867">
        <ele>216.5</ele>
        <time>2025-01-10T09:27:19.000Z</time>
      </trkpt>
      <trkpt lat="43.59094" lon="6.83861">
        <ele>216.3</ele>
        <time>2025-01-10T09:27:18.000Z</time>
      </trkpt>
      <trkpt lat="43.59092" lon="6.83856">
        <ele>216.2</ele>
        <time>2025-01-10T09:27:17.000Z</time>
      </trkpt>
      <trkpt lat="43.5909" lon="6.83852">
        <ele>216</ele>
        <time>2025-01-10T09:27:16.000Z</time>
      </trkpt>
      <trkpt lat="43.59088" lon="6.83847">
        <ele>215.9</ele>
        <time>2025-01-10T09:27:15.000Z</time>
      </trkpt>
      <trkpt lat="43.59087" lon="6.83842">
        <ele>215.8</ele>
        <time>2025-01-10T09:27:14.000Z</time>
      </trkpt>
      <trkpt lat="43.59086" lon="6.83838">
        <ele>215.7</ele>
        <time>2025-01-10T09:27:13.000Z</time>
      </trkpt>
      <trkpt lat="43.59086" lon="6.83833">
        <ele>215.6</ele>
        <time>2025-01-10T09:27:12.000Z</time>
      </trkpt>
      <trkpt lat="43.59086" lon="6.83828">
        <ele>215.5</ele>
        <time>2025-01-10T09:27:11.000Z</time>
      </trkpt>
      <trkpt lat="43.59087" lon="6.83824">
        <ele>215.4</ele>
        <time>2025-01-10T09:27:10.000Z</time>
      </trkpt>
      <trkpt lat="43.59088" lon="6.8382">
        <ele>215.4</ele>
        <time>2025-01-10T09:27:09.000Z</time>
      </trkpt>
      <trkpt lat="43.59088" lon="6.83817">
        <ele>215.3</ele>
        <time>2025-01-10T09:27:08.000Z</time>
      </trkpt>
      <trkpt lat="43.5909" lon="6.83813">
        <ele>215.2</ele>
        <time>2025-01-10T09:27:07.000Z</time>
      </trkpt>
      <trkpt lat="43.59091" lon="6.83809">
        <ele>215.2</ele>
        <time>2025-01-10T09:27:06.000Z</time>
      </trkpt>
      <trkpt lat="43.59092" lon="6.83805">
        <ele>215.1</ele>
        <time>2025-01-10T09:27:05.000Z</time>
      </trkpt>
      <trkpt lat="43.59093" lon="6.83802">
        <ele>215</ele>
        <time>2025-01-10T09:27:04.000Z</time>
      </trkpt>
      <trkpt lat="43.59094" lon="6.83799">
        <ele>215</ele>
        <time>2025-01-10T09:27:03.000Z</time>
      </trkpt>
      <trkpt lat="43.59095" lon="6.83797">
        <ele>214.9</ele>
        <time>2025-01-10T09:27:02.000Z</time>
      </trkpt>
      <trkpt lat="43.59096" lon="6.83796">
        <ele>214.9</ele>
        <time>2025-01-10T09:27:01.000Z</time>
      </trkpt>
      <trkpt lat="43.59096" lon="6.83796">
        <ele>214.9</ele>
        <time>2025-01-10T09:27:00.000Z</time>
      </trkpt>
      <trkpt lat="43.59095" lon="6.83795">
        <ele>214.9</ele>
        <time>2025-01-10T09:26:59.000Z</time>
      </trkpt>
      <trkpt lat="43.59095" lon="6.83795">
        <ele>214.9</ele>
        <time>2025-01-10T09:26:58.000Z</time>
      </trkpt>
      <trkpt lat="43.59096" lon="6.83794">
        <ele>214.9</ele>
        <time>2025-01-10T09:26:57.000Z</time>
      </trkpt>
      <trkpt lat="43.59095" lon="6.83793">
        <ele>214.9</ele>
        <time>2025-01-10T09:26:56.000Z</time>
      </trkpt>
      <trkpt lat="43.59096" lon="6.83793">
        <ele>214.9</ele>
        <time>2025-01-10T09:26:55.000Z</time>
      </trkpt>
      <trkpt lat="43.59096" lon="6.83793">
        <ele>214.9</ele>
        <time>2025-01-10T09:26:54.000Z</time>
      </trkpt>
      <trkpt lat="43.59096" lon="6.83793">
        <ele>214.9</ele>
        <time>2025-01-10T09:26:53.000Z</time>
      </trkpt>
      <trkpt lat="43.59096" lon="6.83792">
        <ele>214.9</ele>
        <time>2025-01-10T09:26:52.000Z</time>
      </trkpt>
      <trkpt lat="43.59096" lon="6.83792">
        <ele>214.9</ele>
        <time>2025-01-10T09:26:51.000Z</time>
      </trkpt>
      <trkpt lat="43.59095" lon="6.83792">
        <ele>214.8</ele>
        <time>2025-01-10T09:26:50.000Z</time>
      </trkpt>
      <trkpt lat="43.59095" lon="6.83792">
        <ele>214.8</ele>
        <time>2025-01-10T09:26:49.000Z</time>
      </trkpt>
      <trkpt lat="43.59095" lon="6.83792">
        <ele>214.8</ele>
        <time>2025-01-10T09:26:48.000Z</time>
      </trkpt>
      <trkpt lat="43.59095" lon="6.83792">
        <ele>214.8</ele>
        <time>2025-01-10T09:26:47.000Z</time>
      </trkpt>
      <trkpt lat="43.59096" lon="6.83792">
        <ele>214.8</ele>
        <time>2025-01-10T09:26:46.000Z</time>
      </trkpt>
      <trkpt lat="43.59096" lon="6.83793">
        <ele>214.8</ele>
        <time>2025-01-10T09:26:45.000Z</time>
      </trkpt>
      <trkpt lat="43.59097" lon="6.83793">
        <ele>214.8</ele>
        <time>2025-01-10T09:26:44.000Z</time>
      </trkpt>
      <trkpt lat="43.59097" lon="6.83793">
        <ele>214.8</ele>
        <time>2025-01-10T09:26:43.000Z</time>
      </trkpt>
      <trkpt lat="43.59097" lon="6.83793">
        <ele>214.8</ele>
        <time>2025-01-10T09:26:42.000Z</time>
      </trkpt>
      <trkpt lat="43.59097" lon="6.83791">
        <ele>214.8</ele>
        <time>2025-01-10T09:26:41.000Z</time>
      </trkpt>
      <trkpt lat="43.59097" lon="6.83788">
        <ele>214.7</ele>
        <time>2025-01-10T09:26:40.000Z</time>
      </trkpt>
      <trkpt lat="43.59097" lon="6.83784">
        <ele>214.7</ele>
        <time>2025-01-10T09:26:39.000Z</time>
      </trkpt>
      <trkpt lat="43.59096" lon="6.83781">
        <ele>214.7</ele>
        <time>2025-01-10T09:26:38.000Z</time>
      </trkpt>
      <trkpt lat="43.59096" lon="6.83779">
        <ele>214.6</ele>
        <time>2025-01-10T09:26:37.000Z</time>
      </trkpt>
      <trkpt lat="43.59095" lon="6.83776">
        <ele>214.6</ele>
        <time>2025-01-10T09:26:36.000Z</time>
      </trkpt>
      <trkpt lat="43.59095" lon="6.83774">
        <ele>214.6</ele>
        <time>2025-01-10T09:26:35.000Z</time>
      </trkpt>
      <trkpt lat="43.59095" lon="6.83774">
        <ele>214.6</ele>
        <time>2025-01-10T09:26:34.000Z</time>
      </trkpt>
      <trkpt lat="43.59095" lon="6.83774">
        <ele>214.6</ele>
        <time>2025-01-10T09:26:33.000Z</time>
      </trkpt>
      <trkpt lat="43.59095" lon="6.83774">
        <ele>214.6</ele>
        <time>2025-01-10T09:26:32.000Z</time>
      </trkpt>
      <trkpt lat="43.59095" lon="6.83774">
        <ele>214.6</ele>
        <time>2025-01-10T09:26:31.000Z</time>
      </trkpt>
      <trkpt lat="43.59095" lon="6.83774">
        <ele>214.6</ele>
        <time>2025-01-10T09:26:30.000Z</time>
      </trkpt>
      <trkpt lat="43.59095" lon="6.83774">
        <ele>214.6</ele>
        <time>2025-01-10T09:26:29.000Z</time>
      </trkpt>
      <trkpt lat="43.59095" lon="6.83774">
        <ele>214.6</ele>
        <time>2025-01-10T09:26:28.000Z</time>
      </trkpt>
      <trkpt lat="43.59095" lon="6.83774">
        <ele>214.6</ele>
        <time>2025-01-10T09:26:27.000Z</time>
      </trkpt>
      <trkpt lat="43.59095" lon="6.83774">
        <ele>214.6</ele>
        <time>2025-01-10T09:26:26.000Z</time>
      </trkpt>
      <trkpt lat="43.59095" lon="6.83774">
        <ele>214.6</ele>
        <time>2025-01-10T09:26:25.000Z</time>
      </trkpt>
      <trkpt lat="43.59095" lon="6.83774">
        <ele>214.6</ele>
        <time>2025-01-10T09:26:24.000Z</time>
      </trkpt>
      <trkpt lat="43.59095" lon="6.83774">
        <ele>214.6</ele>
        <time>2025-01-10T09:26:23.000Z</time>
      </trkpt>
      <trkpt lat="43.59095" lon="6.83774">
        <ele>214.6</ele>
        <time>2025-01-10T09:26:22.000Z</time>
      </trkpt>
      <trkpt lat="43.59095" lon="6.83774">
        <ele>214.6</ele>
        <time>2025-01-10T09:26:21.000Z</time>
      </trkpt>
      <trkpt lat="43.59095" lon="6.83774">
        <ele>214.6</ele>
        <time>2025-01-10T09:26:20.000Z</time>
      </trkpt>
      <trkpt lat="43.59095" lon="6.83773">
        <ele>214.6</ele>
        <time>2025-01-10T09:26:19.000Z</time>
      </trkpt>
      <trkpt lat="43.59096" lon="6.83773">
        <ele>214.6</ele>
        <time>2025-01-10T09:26:18.000Z</time>
      </trkpt>
      <trkpt lat="43.59097" lon="6.83773">
        <ele>214.6</ele>
        <time>2025-01-10T09:26:17.000Z</time>
      </trkpt>
      <trkpt lat="43.59097" lon="6.83773">
        <ele>214.6</ele>
        <time>2025-01-10T09:26:16.000Z</time>
      </trkpt>
      <trkpt lat="43.59097" lon="6.83774">
        <ele>214.6</ele>
        <time>2025-01-10T09:26:15.000Z</time>
      </trkpt>
      <trkpt lat="43.59097" lon="6.83774">
        <ele>214.6</ele>
        <time>2025-01-10T09:26:14.000Z</time>
      </trkpt>
      <trkpt lat="43.59097" lon="6.83774">
        <ele>214.6</ele>
        <time>2025-01-10T09:26:13.000Z</time>
      </trkpt>
      <trkpt lat="43.59097" lon="6.83774">
        <ele>214.6</ele>
        <time>2025-01-10T09:26:12.000Z</time>
      </trkpt>
      <trkpt lat="43.59097" lon="6.83773">
        <ele>214.6</ele>
        <time>2025-01-10T09:26:11.000Z</time>
      </trkpt>
      <trkpt lat="43.59098" lon="6.83772">
        <ele>214.5</ele>
        <time>2025-01-10T09:26:10.000Z</time>
      </trkpt>
      <trkpt lat="43.59098" lon="6.83772">
        <ele>214.5</ele>
        <time>2025-01-10T09:26:09.000Z</time>
      </trkpt>
      <trkpt lat="43.59098" lon="6.83772">
        <ele>214.5</ele>
        <time>2025-01-10T09:26:08.000Z</time>
      </trkpt>
      <trkpt lat="43.59098" lon="6.83772">
        <ele>214.5</ele>
        <time>2025-01-10T09:26:07.000Z</time>
      </trkpt>
      <trkpt lat="43.59098" lon="6.83772">
        <ele>214.5</ele>
        <time>2025-01-10T09:26:06.000Z</time>
      </trkpt>
      <trkpt lat="43.59099" lon="6.83771">
        <ele>214.5</ele>
        <time>2025-01-10T09:26:05.000Z</time>
      </trkpt>
      <trkpt lat="43.59099" lon="6.83771">
        <ele>214.5</ele>
        <time>2025-01-10T09:26:04.000Z</time>
      </trkpt>
      <trkpt lat="43.59099" lon="6.8377">
        <ele>214.5</ele>
        <time>2025-01-10T09:26:03.000Z</time>
      </trkpt>
      <trkpt lat="43.591" lon="6.83769">
        <ele>214.5</ele>
        <time>2025-01-10T09:26:02.000Z</time>
      </trkpt>
      <trkpt lat="43.591" lon="6.83769">
        <ele>214.5</ele>
        <time>2025-01-10T09:26:01.000Z</time>
      </trkpt>
      <trkpt lat="43.59101" lon="6.83769">
        <ele>214.5</ele>
        <time>2025-01-10T09:26:00.000Z</time>
      </trkpt>
      <trkpt lat="43.59101" lon="6.83768">
        <ele>214.5</ele>
        <time>2025-01-10T09:25:59.000Z</time>
      </trkpt>
      <trkpt lat="43.59102" lon="6.83768">
        <ele>214.5</ele>
        <time>2025-01-10T09:25:58.000Z</time>
      </trkpt>
      <trkpt lat="43.59102" lon="6.83767">
        <ele>214.5</ele>
        <time>2025-01-10T09:25:57.000Z</time>
      </trkpt>
      <trkpt lat="43.59102" lon="6.83767">
        <ele>214.5</ele>
        <time>2025-01-10T09:25:56.000Z</time>
      </trkpt>
      <trkpt lat="43.59103" lon="6.83766">
        <ele>214.5</ele>
        <time>2025-01-10T09:25:55.000Z</time>
      </trkpt>
      <trkpt lat="43.59103" lon="6.83765">
        <ele>214.5</ele>
        <time>2025-01-10T09:25:54.000Z</time>
      </trkpt>
      <trkpt lat="43.59104" lon="6.83764">
        <ele>214.5</ele>
        <time>2025-01-10T09:25:53.000Z</time>
      </trkpt>
      <trkpt lat="43.59104" lon="6.83764">
        <ele>214.5</ele>
        <time>2025-01-10T09:25:52.000Z</time>
      </trkpt>
      <trkpt lat="43.59104" lon="6.83765">
        <ele>214.5</ele>
        <time>2025-01-10T09:25:51.000Z</time>
      </trkpt>
      <trkpt lat="43.59103" lon="6.83765">
        <ele>214.5</ele>
        <time>2025-01-10T09:25:50.000Z</time>
      </trkpt>
      <trkpt lat="43.59103" lon="6.83764">
        <ele>214.5</ele>
        <time>2025-01-10T09:25:49.000Z</time>
      </trkpt>
      <trkpt lat="43.59103" lon="6.83764">
        <ele>214.5</ele>
        <time>2025-01-10T09:25:48.000Z</time>
      </trkpt>
      <trkpt lat="43.59103" lon="6.83764">
        <ele>214.5</ele>
        <time>2025-01-10T09:25:47.000Z</time>
      </trkpt>
      <trkpt lat="43.59103" lon="6.83764">
        <ele>214.5</ele>
        <time>2025-01-10T09:25:46.000Z</time>
      </trkpt>
      <trkpt lat="43.59103" lon="6.83764">
        <ele>214.4</ele>
        <time>2025-01-10T09:25:45.000Z</time>
      </trkpt>
      <trkpt lat="43.59102" lon="6.83763">
        <ele>214.4</ele>
        <time>2025-01-10T09:25:44.000Z</time>
      </trkpt>
      <trkpt lat="43.59101" lon="6.83763">
        <ele>214.4</ele>
        <time>2025-01-10T09:25:43.000Z</time>
      </trkpt>
      <trkpt lat="43.59101" lon="6.83763">
        <ele>214.4</ele>
        <time>2025-01-10T09:25:42.000Z</time>
      </trkpt>
      <trkpt lat="43.591" lon="6.83763">
        <ele>214.4</ele>
        <time>2025-01-10T09:25:41.000Z</time>
      </trkpt>
      <trkpt lat="43.591" lon="6.83763">
        <ele>214.4</ele>
        <time>2025-01-10T09:25:40.000Z</time>
      </trkpt>
      <trkpt lat="43.591" lon="6.83762">
        <ele>214.4</ele>
        <time>2025-01-10T09:25:39.000Z</time>
      </trkpt>
      <trkpt lat="43.591" lon="6.8376">
        <ele>214.4</ele>
        <time>2025-01-10T09:25:38.000Z</time>
      </trkpt>
      <trkpt lat="43.59099" lon="6.83759">
        <ele>214.4</ele>
        <time>2025-01-10T09:25:37.000Z</time>
      </trkpt>
      <trkpt lat="43.59099" lon="6.83758">
        <ele>214.4</ele>
        <time>2025-01-10T09:25:36.000Z</time>
      </trkpt>
      <trkpt lat="43.59099" lon="6.83757">
        <ele>214.4</ele>
        <time>2025-01-10T09:25:35.000Z</time>
      </trkpt>
      <trkpt lat="43.59099" lon="6.83755">
        <ele>214.4</ele>
        <time>2025-01-10T09:25:34.000Z</time>
      </trkpt>
      <trkpt lat="43.59099" lon="6.83753">
        <ele>214.4</ele>
        <time>2025-01-10T09:25:33.000Z</time>
      </trkpt>
      <trkpt lat="43.59099" lon="6.83751">
        <ele>214.4</ele>
        <time>2025-01-10T09:25:32.000Z</time>
      </trkpt>
      <trkpt lat="43.59099" lon="6.83748">
        <ele>214.4</ele>
        <time>2025-01-10T09:25:31.000Z</time>
      </trkpt>
      <trkpt lat="43.59099" lon="6.83747">
        <ele>214.3</ele>
        <time>2025-01-10T09:25:30.000Z</time>
      </trkpt>
      <trkpt lat="43.59099" lon="6.83747">
        <ele>214.3</ele>
        <time>2025-01-10T09:25:29.000Z</time>
      </trkpt>
      <trkpt lat="43.59099" lon="6.83747">
        <ele>214.3</ele>
        <time>2025-01-10T09:25:28.000Z</time>
      </trkpt>
      <trkpt lat="43.59099" lon="6.83747">
        <ele>214.3</ele>
        <time>2025-01-10T09:25:27.000Z</time>
      </trkpt>
      <trkpt lat="43.59099" lon="6.83747">
        <ele>214.3</ele>
        <time>2025-01-10T09:25:26.000Z</time>
      </trkpt>
      <trkpt lat="43.59099" lon="6.83747">
        <ele>214.3</ele>
        <time>2025-01-10T09:25:25.000Z</time>
      </trkpt>
      <trkpt lat="43.59099" lon="6.83747">
        <ele>214.3</ele>
        <time>2025-01-10T09:25:24.000Z</time>
      </trkpt>
      <trkpt lat="43.59099" lon="6.83747">
        <ele>214.3</ele>
        <time>2025-01-10T09:25:23.000Z</time>
      </trkpt>
      <trkpt lat="43.59098" lon="6.83747">
        <ele>214.3</ele>
        <time>2025-01-10T09:25:22.000Z</time>
      </trkpt>
      <trkpt lat="43.59098" lon="6.83747">
        <ele>214.3</ele>
        <time>2025-01-10T09:25:21.000Z</time>
      </trkpt>
      <trkpt lat="43.59098" lon="6.83747">
        <ele>214.3</ele>
        <time>2025-01-10T09:25:20.000Z</time>
      </trkpt>
      <trkpt lat="43.59098" lon="6.83747">
        <ele>214.3</ele>
        <time>2025-01-10T09:25:19.000Z</time>
      </trkpt>
      <trkpt lat="43.59098" lon="6.83747">
        <ele>214.3</ele>
        <time>2025-01-10T09:25:18.000Z</time>
      </trkpt>
      <trkpt lat="43.59098" lon="6.83747">
        <ele>214.3</ele>
        <time>2025-01-10T09:25:17.000Z</time>
      </trkpt>
      <trkpt lat="43.59098" lon="6.83747">
        <ele>214.3</ele>
        <time>2025-01-10T09:25:16.000Z</time>
      </trkpt>
      <trkpt lat="43.59098" lon="6.83747">
        <ele>214.3</ele>
        <time>2025-01-10T09:25:15.000Z</time>
      </trkpt>
      <trkpt lat="43.59098" lon="6.83747">
        <ele>214.3</ele>
        <time>2025-01-10T09:25:14.000Z</time>
      </trkpt>
      <trkpt lat="43.59098" lon="6.83747">
        <ele>214.3</ele>
        <time>2025-01-10T09:25:13.000Z</time>
      </trkpt>
      <trkpt lat="43.59098" lon="6.83747">
        <ele>214.3</ele>
        <time>2025-01-10T09:25:12.000Z</time>
      </trkpt>
      <trkpt lat="43.59098" lon="6.83747">
        <ele>214.3</ele>
        <time>2025-01-10T09:25:11.000Z</time>
      </trkpt>
      <trkpt lat="43.59098" lon="6.83747">
        <ele>214.3</ele>
        <time>2025-01-10T09:25:10.000Z</time>
      </trkpt>
      <trkpt lat="43.59098" lon="6.83747">
        <ele>214.3</ele>
        <time>2025-01-10T09:25:09.000Z</time>
      </trkpt>
      <trkpt lat="43.59097" lon="6.83747">
        <ele>214.3</ele>
        <time>2025-01-10T09:25:08.000Z</time>
      </trkpt>
      <trkpt lat="43.59097" lon="6.83746">
        <ele>214.3</ele>
        <time>2025-01-10T09:25:07.000Z</time>
      </trkpt>
      <trkpt lat="43.59097" lon="6.83746">
        <ele>214.3</ele>
        <time>2025-01-10T09:25:06.000Z</time>
      </trkpt>
      <trkpt lat="43.59097" lon="6.83746">
        <ele>214.3</ele>
        <time>2025-01-10T09:25:05.000Z</time>
      </trkpt>
      <trkpt lat="43.59097" lon="6.83746">
        <ele>214.3</ele>
        <time>2025-01-10T09:25:04.000Z</time>
      </trkpt>
      <trkpt lat="43.59097" lon="6.83746">
        <ele>214.3</ele>
        <time>2025-01-10T09:25:03.000Z</time>
      </trkpt>
      <trkpt lat="43.59097" lon="6.83746">
        <ele>214.3</ele>
        <time>2025-01-10T09:25:02.000Z</time>
      </trkpt>
      <trkpt lat="43.59097" lon="6.83745">
        <ele>214.3</ele>
        <time>2025-01-10T09:25:01.000Z</time>
      </trkpt>
      <trkpt lat="43.59097" lon="6.83745">
        <ele>214.3</ele>
        <time>2025-01-10T09:25:00.000Z</time>
      </trkpt>
      <trkpt lat="43.59097" lon="6.83745">
        <ele>214.3</ele>
        <time>2025-01-10T09:24:59.000Z</time>
      </trkpt>
      <trkpt lat="43.59097" lon="6.83746">
        <ele>214.3</ele>
        <time>2025-01-10T09:24:58.000Z</time>
      </trkpt>
      <trkpt lat="43.59096" lon="6.83746">
        <ele>214.3</ele>
        <time>2025-01-10T09:24:57.000Z</time>
      </trkpt>
      <trkpt lat="43.59096" lon="6.83746">
        <ele>214.3</ele>
        <time>2025-01-10T09:24:56.000Z</time>
      </trkpt>
      <trkpt lat="43.59096" lon="6.83746">
        <ele>214.3</ele>
        <time>2025-01-10T09:24:55.000Z</time>
      </trkpt>
      <trkpt lat="43.59095" lon="6.83746">
        <ele>214.3</ele>
        <time>2025-01-10T09:24:54.000Z</time>
      </trkpt>
      <trkpt lat="43.59095" lon="6.83747">
        <ele>214.3</ele>
        <time>2025-01-10T09:24:53.000Z</time>
      </trkpt>
      <trkpt lat="43.59095" lon="6.83747">
        <ele>214.3</ele>
        <time>2025-01-10T09:24:52.000Z</time>
      </trkpt>
      <trkpt lat="43.59095" lon="6.83747">
        <ele>214.3</ele>
        <time>2025-01-10T09:24:51.000Z</time>
      </trkpt>
      <trkpt lat="43.59095" lon="6.83747">
        <ele>214.3</ele>
        <time>2025-01-10T09:24:50.000Z</time>
      </trkpt>
      <trkpt lat="43.59095" lon="6.83747">
        <ele>214.3</ele>
        <time>2025-01-10T09:24:49.000Z</time>
      </trkpt>
      <trkpt lat="43.59095" lon="6.83747">
        <ele>214.3</ele>
        <time>2025-01-10T09:24:48.000Z</time>
      </trkpt>
      <trkpt lat="43.59095" lon="6.83747">
        <ele>214.3</ele>
        <time>2025-01-10T09:24:47.000Z</time>
      </trkpt>
      <trkpt lat="43.59095" lon="6.83747">
        <ele>214.3</ele>
        <time>2025-01-10T09:24:46.000Z</time>
      </trkpt>
      <trkpt lat="43.59095" lon="6.83747">
        <ele>214.3</ele>
        <time>2025-01-10T09:24:45.000Z</time>
      </trkpt>
      <trkpt lat="43.59095" lon="6.83747">
        <ele>214.3</ele>
        <time>2025-01-10T09:24:44.000Z</time>
      </trkpt>
      <trkpt lat="43.59095" lon="6.83747">
        <ele>214.3</ele>
        <time>2025-01-10T09:24:43.000Z</time>
      </trkpt>
      <trkpt lat="43.59095" lon="6.83747">
        <ele>214.3</ele>
        <time>2025-01-10T09:24:42.000Z</time>
      </trkpt>
      <trkpt lat="43.59095" lon="6.83748">
        <ele>214.3</ele>
        <time>2025-01-10T09:24:41.000Z</time>
      </trkpt>
      <trkpt lat="43.59095" lon="6.83748">
        <ele>214.3</ele>
        <time>2025-01-10T09:24:40.000Z</time>
      </trkpt>
      <trkpt lat="43.59095" lon="6.83748">
        <ele>214.3</ele>
        <time>2025-01-10T09:24:39.000Z</time>
      </trkpt>
      <trkpt lat="43.59095" lon="6.83748">
        <ele>214.3</ele>
        <time>2025-01-10T09:24:38.000Z</time>
      </trkpt>
      <trkpt lat="43.59095" lon="6.83748">
        <ele>214.3</ele>
        <time>2025-01-10T09:24:37.000Z</time>
      </trkpt>
      <trkpt lat="43.59095" lon="6.83749">
        <ele>214.3</ele>
        <time>2025-01-10T09:24:36.000Z</time>
      </trkpt>
      <trkpt lat="43.59095" lon="6.83749">
        <ele>214.3</ele>
        <time>2025-01-10T09:24:35.000Z</time>
      </trkpt>
      <trkpt lat="43.59095" lon="6.83749">
        <ele>214.3</ele>
        <time>2025-01-10T09:24:34.000Z</time>
      </trkpt>
      <trkpt lat="43.59095" lon="6.83749">
        <ele>214.3</ele>
        <time>2025-01-10T09:24:33.000Z</time>
      </trkpt>
      <trkpt lat="43.59095" lon="6.83749">
        <ele>214.3</ele>
        <time>2025-01-10T09:24:32.000Z</time>
      </trkpt>
      <trkpt lat="43.59095" lon="6.83749">
        <ele>214.3</ele>
        <time>2025-01-10T09:24:31.000Z</time>
      </trkpt>
      <trkpt lat="43.59095" lon="6.83749">
        <ele>214.3</ele>
        <time>2025-01-10T09:24:30.000Z</time>
      </trkpt>
      <trkpt lat="43.59095" lon="6.83749">
        <ele>214.3</ele>
        <time>2025-01-10T09:24:29.000Z</time>
      </trkpt>
      <trkpt lat="43.59095" lon="6.83749">
        <ele>214.3</ele>
        <time>2025-01-10T09:24:28.000Z</time>
      </trkpt>
      <trkpt lat="43.59095" lon="6.83749">
        <ele>214.3</ele>
        <time>2025-01-10T09:24:27.000Z</time>
      </trkpt>
      <trkpt lat="43.59095" lon="6.83749">
        <ele>214.3</ele>
        <time>2025-01-10T09:24:26.000Z</time>
      </trkpt>
      <trkpt lat="43.59095" lon="6.83749">
        <ele>214.3</ele>
        <time>2025-01-10T09:24:25.000Z</time>
      </trkpt>
      <trkpt lat="43.59095" lon="6.83749">
        <ele>214.3</ele>
        <time>2025-01-10T09:24:24.000Z</time>
      </trkpt>
      <trkpt lat="43.59095" lon="6.83749">
        <ele>214.3</ele>
        <time>2025-01-10T09:24:23.000Z</time>
      </trkpt>
      <trkpt lat="43.59095" lon="6.83749">
        <ele>214.3</ele>
        <time>2025-01-10T09:24:22.000Z</time>
      </trkpt>
      <trkpt lat="43.59095" lon="6.83749">
        <ele>214.3</ele>
        <time>2025-01-10T09:24:21.000Z</time>
      </trkpt>
      <trkpt lat="43.59095" lon="6.83749">
        <ele>214.3</ele>
        <time>2025-01-10T09:24:20.000Z</time>
      </trkpt>
      <trkpt lat="43.59095" lon="6.83749">
        <ele>214.3</ele>
        <time>2025-01-10T09:24:19.000Z</time>
      </trkpt>
      <trkpt lat="43.59095" lon="6.83749">
        <ele>214.3</ele>
        <time>2025-01-10T09:24:18.000Z</time>
      </trkpt>
      <trkpt lat="43.59095" lon="6.83749">
        <ele>214.3</ele>
        <time>2025-01-10T09:24:17.000Z</time>
      </trkpt>
      <trkpt lat="43.59095" lon="6.83749">
        <ele>214.3</ele>
        <time>2025-01-10T09:24:16.000Z</time>
      </trkpt>
      <trkpt lat="43.59096" lon="6.83749">
        <ele>214.3</ele>
        <time>2025-01-10T09:24:15.000Z</time>
      </trkpt>
      <trkpt lat="43.59096" lon="6.83749">
        <ele>214.3</ele>
        <time>2025-01-10T09:24:14.000Z</time>
      </trkpt>
      <trkpt lat="43.59096" lon="6.83749">
        <ele>214.3</ele>
        <time>2025-01-10T09:24:13.000Z</time>
      </trkpt>
      <trkpt lat="43.59096" lon="6.83749">
        <ele>214.3</ele>
        <time>2025-01-10T09:24:12.000Z</time>
      </trkpt>
      <trkpt lat="43.59096" lon="6.83749">
        <ele>214.3</ele>
        <time>2025-01-10T09:24:11.000Z</time>
      </trkpt>
      <trkpt lat="43.59096" lon="6.83749">
        <ele>214.3</ele>
        <time>2025-01-10T09:24:10.000Z</time>
      </trkpt>
      <trkpt lat="43.59097" lon="6.83749">
        <ele>214.3</ele>
        <time>2025-01-10T09:24:09.000Z</time>
      </trkpt>
      <trkpt lat="43.59096" lon="6.83748">
        <ele>214.2</ele>
        <time>2025-01-10T09:24:08.000Z</time>
      </trkpt>
      <trkpt lat="43.59096" lon="6.83748">
        <ele>214.2</ele>
        <time>2025-01-10T09:24:07.000Z</time>
      </trkpt>
      <trkpt lat="43.59097" lon="6.83748">
        <ele>214.2</ele>
        <time>2025-01-10T09:24:06.000Z</time>
      </trkpt>
      <trkpt lat="43.59097" lon="6.83748">
        <ele>214.2</ele>
        <time>2025-01-10T09:24:05.000Z</time>
      </trkpt>
      <trkpt lat="43.59097" lon="6.83749">
        <ele>214.2</ele>
        <time>2025-01-10T09:24:04.000Z</time>
      </trkpt>
      <trkpt lat="43.59096" lon="6.8375">
        <ele>214.2</ele>
        <time>2025-01-10T09:24:03.000Z</time>
      </trkpt>
      <trkpt lat="43.59096" lon="6.83752">
        <ele>214.2</ele>
        <time>2025-01-10T09:24:02.000Z</time>
      </trkpt>
      <trkpt lat="43.59095" lon="6.83753">
        <ele>214.2</ele>
        <time>2025-01-10T09:24:01.000Z</time>
      </trkpt>
      <trkpt lat="43.59094" lon="6.83755">
        <ele>214.2</ele>
        <time>2025-01-10T09:24:00.000Z</time>
      </trkpt>
      <trkpt lat="43.59094" lon="6.83756">
        <ele>214.2</ele>
        <time>2025-01-10T09:23:59.000Z</time>
      </trkpt>
      <trkpt lat="43.59094" lon="6.83757">
        <ele>214.2</ele>
        <time>2025-01-10T09:23:58.000Z</time>
      </trkpt>
      <trkpt lat="43.59093" lon="6.83757">
        <ele>214.1</ele>
        <time>2025-01-10T09:23:57.000Z</time>
      </trkpt>
      <trkpt lat="43.59093" lon="6.83758">
        <ele>214.1</ele>
        <time>2025-01-10T09:23:56.000Z</time>
      </trkpt>
      <trkpt lat="43.59093" lon="6.83759">
        <ele>214.1</ele>
        <time>2025-01-10T09:23:55.000Z</time>
      </trkpt>
      <trkpt lat="43.59093" lon="6.8376">
        <ele>214.1</ele>
        <time>2025-01-10T09:23:54.000Z</time>
      </trkpt>
      <trkpt lat="43.59093" lon="6.83761">
        <ele>214.1</ele>
        <time>2025-01-10T09:23:53.000Z</time>
      </trkpt>
      <trkpt lat="43.59094" lon="6.83762">
        <ele>214.1</ele>
        <time>2025-01-10T09:23:52.000Z</time>
      </trkpt>
      <trkpt lat="43.59094" lon="6.83763">
        <ele>214.1</ele>
        <time>2025-01-10T09:23:51.000Z</time>
      </trkpt>
      <trkpt lat="43.59094" lon="6.83764">
        <ele>214.1</ele>
        <time>2025-01-10T09:23:50.000Z</time>
      </trkpt>
      <trkpt lat="43.59094" lon="6.83765">
        <ele>214.1</ele>
        <time>2025-01-10T09:23:49.000Z</time>
      </trkpt>
      <trkpt lat="43.59094" lon="6.83766">
        <ele>214.1</ele>
        <time>2025-01-10T09:23:48.000Z</time>
      </trkpt>
      <trkpt lat="43.59094" lon="6.83766">
        <ele>214.1</ele>
        <time>2025-01-10T09:23:47.000Z</time>
      </trkpt>
      <trkpt lat="43.59095" lon="6.83767">
        <ele>214.1</ele>
        <time>2025-01-10T09:23:46.000Z</time>
      </trkpt>
      <trkpt lat="43.59094" lon="6.83767">
        <ele>214.1</ele>
        <time>2025-01-10T09:23:45.000Z</time>
      </trkpt>
      <trkpt lat="43.59094" lon="6.83768">
        <ele>214.1</ele>
        <time>2025-01-10T09:23:44.000Z</time>
      </trkpt>
      <trkpt lat="43.59093" lon="6.83769">
        <ele>214.1</ele>
        <time>2025-01-10T09:23:43.000Z</time>
      </trkpt>
      <trkpt lat="43.59094" lon="6.8377">
        <ele>214.1</ele>
        <time>2025-01-10T09:23:42.000Z</time>
      </trkpt>
      <trkpt lat="43.59094" lon="6.8377">
        <ele>214.1</ele>
        <time>2025-01-10T09:23:41.000Z</time>
      </trkpt>
      <trkpt lat="43.59093" lon="6.8377">
        <ele>214.1</ele>
        <time>2025-01-10T09:23:40.000Z</time>
      </trkpt>
      <trkpt lat="43.59093" lon="6.8377">
        <ele>214.1</ele>
        <time>2025-01-10T09:23:39.000Z</time>
      </trkpt>
      <trkpt lat="43.59093" lon="6.8377">
        <ele>214.1</ele>
        <time>2025-01-10T09:23:38.000Z</time>
      </trkpt>
      <trkpt lat="43.59093" lon="6.8377">
        <ele>214.1</ele>
        <time>2025-01-10T09:23:37.000Z</time>
      </trkpt>
      <trkpt lat="43.59093" lon="6.8377">
        <ele>214.1</ele>
        <time>2025-01-10T09:23:36.000Z</time>
      </trkpt>
      <trkpt lat="43.59093" lon="6.8377">
        <ele>214.1</ele>
        <time>2025-01-10T09:23:35.000Z</time>
      </trkpt>
      <trkpt lat="43.59093" lon="6.83769">
        <ele>214.1</ele>
        <time>2025-01-10T09:23:34.000Z</time>
      </trkpt>
      <trkpt lat="43.59093" lon="6.83769">
        <ele>214.1</ele>
        <time>2025-01-10T09:23:33.000Z</time>
      </trkpt>
      <trkpt lat="43.59093" lon="6.83769">
        <ele>214.1</ele>
        <time>2025-01-10T09:23:32.000Z</time>
      </trkpt>
      <trkpt lat="43.59093" lon="6.83769">
        <ele>214.1</ele>
        <time>2025-01-10T09:23:31.000Z</time>
      </trkpt>
      <trkpt lat="43.59094" lon="6.83769">
        <ele>214.1</ele>
        <time>2025-01-10T09:23:30.000Z</time>
      </trkpt>
      <trkpt lat="43.59094" lon="6.83769">
        <ele>214.1</ele>
        <time>2025-01-10T09:23:29.000Z</time>
      </trkpt>
      <trkpt lat="43.59094" lon="6.83769">
        <ele>214.1</ele>
        <time>2025-01-10T09:23:28.000Z</time>
      </trkpt>
      <trkpt lat="43.59094" lon="6.83769">
        <ele>214.1</ele>
        <time>2025-01-10T09:23:27.000Z</time>
      </trkpt>
      <trkpt lat="43.59094" lon="6.83769">
        <ele>214.1</ele>
        <time>2025-01-10T09:23:26.000Z</time>
      </trkpt>
      <trkpt lat="43.59094" lon="6.83769">
        <ele>214.1</ele>
        <time>2025-01-10T09:23:25.000Z</time>
      </trkpt>
      <trkpt lat="43.59094" lon="6.83769">
        <ele>214.1</ele>
        <time>2025-01-10T09:23:24.000Z</time>
      </trkpt>
      <trkpt lat="43.59094" lon="6.83769">
        <ele>214.1</ele>
        <time>2025-01-10T09:23:23.000Z</time>
      </trkpt>
      <trkpt lat="43.59094" lon="6.83769">
        <ele>214.1</ele>
        <time>2025-01-10T09:23:22.000Z</time>
      </trkpt>
      <trkpt lat="43.59094" lon="6.83769">
        <ele>214.1</ele>
        <time>2025-01-10T09:23:21.000Z</time>
      </trkpt>
      <trkpt lat="43.59094" lon="6.83769">
        <ele>214.1</ele>
        <time>2025-01-10T09:23:20.000Z</time>
      </trkpt>
      <trkpt lat="43.59094" lon="6.83769">
        <ele>214.1</ele>
        <time>2025-01-10T09:23:19.000Z</time>
      </trkpt>
      <trkpt lat="43.59094" lon="6.83769">
        <ele>214.1</ele>
        <time>2025-01-10T09:23:18.000Z</time>
      </trkpt>
      <trkpt lat="43.59094" lon="6.83769">
        <ele>214.1</ele>
        <time>2025-01-10T09:23:17.000Z</time>
      </trkpt>
      <trkpt lat="43.59094" lon="6.8377">
        <ele>214.1</ele>
        <time>2025-01-10T09:23:16.000Z</time>
      </trkpt>
      <trkpt lat="43.59093" lon="6.83771">
        <ele>214.1</ele>
        <time>2025-01-10T09:23:15.000Z</time>
      </trkpt>
      <trkpt lat="43.59092" lon="6.83772">
        <ele>214.1</ele>
        <time>2025-01-10T09:23:14.000Z</time>
      </trkpt>
      <trkpt lat="43.59092" lon="6.83773">
        <ele>214.1</ele>
        <time>2025-01-10T09:23:13.000Z</time>
      </trkpt>
      <trkpt lat="43.59093" lon="6.83774">
        <ele>214.1</ele>
        <time>2025-01-10T09:23:12.000Z</time>
      </trkpt>
      <trkpt lat="43.59093" lon="6.83775">
        <ele>214.1</ele>
        <time>2025-01-10T09:23:11.000Z</time>
      </trkpt>
      <trkpt lat="43.59093" lon="6.83776">
        <ele>214.1</ele>
        <time>2025-01-10T09:23:10.000Z</time>
      </trkpt>
      <trkpt lat="43.59092" lon="6.83778">
        <ele>214.1</ele>
        <time>2025-01-10T09:23:09.000Z</time>
      </trkpt>
      <trkpt lat="43.59092" lon="6.83779">
        <ele>214.1</ele>
        <time>2025-01-10T09:23:08.000Z</time>
      </trkpt>
      <trkpt lat="43.59092" lon="6.83779">
        <ele>214.1</ele>
        <time>2025-01-10T09:23:07.000Z</time>
      </trkpt>
      <trkpt lat="43.59093" lon="6.83779">
        <ele>214.2</ele>
        <time>2025-01-10T09:23:06.000Z</time>
      </trkpt>
      <trkpt lat="43.59092" lon="6.83778">
        <ele>214.2</ele>
        <time>2025-01-10T09:23:05.000Z</time>
      </trkpt>
      <trkpt lat="43.59092" lon="6.83777">
        <ele>214.2</ele>
        <time>2025-01-10T09:23:04.000Z</time>
      </trkpt>
      <trkpt lat="43.59093" lon="6.83775">
        <ele>214.2</ele>
        <time>2025-01-10T09:23:03.000Z</time>
      </trkpt>
      <trkpt lat="43.59093" lon="6.83773">
        <ele>214.2</ele>
        <time>2025-01-10T09:23:02.000Z</time>
      </trkpt>
      <trkpt lat="43.59093" lon="6.83771">
        <ele>214.2</ele>
        <time>2025-01-10T09:23:01.000Z</time>
      </trkpt>
      <trkpt lat="43.59094" lon="6.83769">
        <ele>214.2</ele>
        <time>2025-01-10T09:23:00.000Z</time>
      </trkpt>
      <trkpt lat="43.59094" lon="6.83768">
        <ele>214.2</ele>
        <time>2025-01-10T09:22:59.000Z</time>
      </trkpt>
      <trkpt lat="43.59094" lon="6.83767">
        <ele>214.2</ele>
        <time>2025-01-10T09:22:58.000Z</time>
      </trkpt>
      <trkpt lat="43.59094" lon="6.83767">
        <ele>214.2</ele>
        <time>2025-01-10T09:22:57.000Z</time>
      </trkpt>
      <trkpt lat="43.59094" lon="6.83767">
        <ele>214.2</ele>
        <time>2025-01-10T09:22:56.000Z</time>
      </trkpt>
      <trkpt lat="43.59094" lon="6.83767">
        <ele>214.2</ele>
        <time>2025-01-10T09:22:55.000Z</time>
      </trkpt>
      <trkpt lat="43.59094" lon="6.83767">
        <ele>214.2</ele>
        <time>2025-01-10T09:22:54.000Z</time>
      </trkpt>
      <trkpt lat="43.59094" lon="6.83767">
        <ele>214.2</ele>
        <time>2025-01-10T09:22:53.000Z</time>
      </trkpt>
      <trkpt lat="43.59094" lon="6.83767">
        <ele>214.2</ele>
        <time>2025-01-10T09:22:52.000Z</time>
      </trkpt>
      <trkpt lat="43.59094" lon="6.83767">
        <ele>214.2</ele>
        <time>2025-01-10T09:22:51.000Z</time>
      </trkpt>
      <trkpt lat="43.59094" lon="6.83767">
        <ele>214.3</ele>
        <time>2025-01-10T09:22:50.000Z</time>
      </trkpt>
      <trkpt lat="43.59094" lon="6.83767">
        <ele>214.3</ele>
        <time>2025-01-10T09:22:49.000Z</time>
      </trkpt>
      <trkpt lat="43.59094" lon="6.83767">
        <ele>214.3</ele>
        <time>2025-01-10T09:22:48.000Z</time>
      </trkpt>
      <trkpt lat="43.59094" lon="6.83767">
        <ele>214.3</ele>
        <time>2025-01-10T09:22:47.000Z</time>
      </trkpt>
      <trkpt lat="43.59094" lon="6.83767">
        <ele>214.3</ele>
        <time>2025-01-10T09:22:46.000Z</time>
      </trkpt>
      <trkpt lat="43.59094" lon="6.83767">
        <ele>214.3</ele>
        <time>2025-01-10T09:22:45.000Z</time>
      </trkpt>
      <trkpt lat="43.59094" lon="6.83767">
        <ele>214.3</ele>
        <time>2025-01-10T09:22:44.000Z</time>
      </trkpt>
      <trkpt lat="43.59094" lon="6.83767">
        <ele>214.3</ele>
        <time>2025-01-10T09:22:43.000Z</time>
      </trkpt>
      <trkpt lat="43.59094" lon="6.83768">
        <ele>214.3</ele>
        <time>2025-01-10T09:22:42.000Z</time>
      </trkpt>
      <trkpt lat="43.59094" lon="6.83768">
        <ele>214.3</ele>
        <time>2025-01-10T09:22:41.000Z</time>
      </trkpt>
      <trkpt lat="43.59094" lon="6.83768">
        <ele>214.3</ele>
        <time>2025-01-10T09:22:40.000Z</time>
      </trkpt>
      <trkpt lat="43.59094" lon="6.83768">
        <ele>214.3</ele>
        <time>2025-01-10T09:22:39.000Z</time>
      </trkpt>
      <trkpt lat="43.59094" lon="6.83768">
        <ele>214.3</ele>
        <time>2025-01-10T09:22:38.000Z</time>
      </trkpt>
      <trkpt lat="43.59094" lon="6.83768">
        <ele>214.3</ele>
        <time>2025-01-10T09:22:37.000Z</time>
      </trkpt>
      <trkpt lat="43.59094" lon="6.83769">
        <ele>214.3</ele>
        <time>2025-01-10T09:22:36.000Z</time>
      </trkpt>
      <trkpt lat="43.59094" lon="6.83769">
        <ele>214.3</ele>
        <time>2025-01-10T09:22:35.000Z</time>
      </trkpt>
      <trkpt lat="43.59094" lon="6.83769">
        <ele>214.3</ele>
        <time>2025-01-10T09:22:34.000Z</time>
      </trkpt>
      <trkpt lat="43.59094" lon="6.83769">
        <ele>214.3</ele>
        <time>2025-01-10T09:22:33.000Z</time>
      </trkpt>
      <trkpt lat="43.59094" lon="6.83769">
        <ele>214.3</ele>
        <time>2025-01-10T09:22:32.000Z</time>
      </trkpt>
      <trkpt lat="43.59094" lon="6.83769">
        <ele>214.3</ele>
        <time>2025-01-10T09:22:31.000Z</time>
      </trkpt>
      <trkpt lat="43.59094" lon="6.83769">
        <ele>214.3</ele>
        <time>2025-01-10T09:22:30.000Z</time>
      </trkpt>
      <trkpt lat="43.59094" lon="6.8377">
        <ele>214.3</ele>
        <time>2025-01-10T09:22:29.000Z</time>
      </trkpt>
      <trkpt lat="43.59094" lon="6.8377">
        <ele>214.3</ele>
        <time>2025-01-10T09:22:28.000Z</time>
      </trkpt>
      <trkpt lat="43.59094" lon="6.8377">
        <ele>214.3</ele>
        <time>2025-01-10T09:22:27.000Z</time>
      </trkpt>
      <trkpt lat="43.59094" lon="6.8377">
        <ele>214.3</ele>
        <time>2025-01-10T09:22:26.000Z</time>
      </trkpt>
      <trkpt lat="43.59094" lon="6.8377">
        <ele>214.3</ele>
        <time>2025-01-10T09:22:25.000Z</time>
      </trkpt>
      <trkpt lat="43.59094" lon="6.8377">
        <ele>214.3</ele>
        <time>2025-01-10T09:22:24.000Z</time>
      </trkpt>
      <trkpt lat="43.59094" lon="6.8377">
        <ele>214.3</ele>
        <time>2025-01-10T09:22:23.000Z</time>
      </trkpt>
      <trkpt lat="43.59094" lon="6.8377">
        <ele>214.3</ele>
        <time>2025-01-10T09:22:22.000Z</time>
      </trkpt>
      <trkpt lat="43.59094" lon="6.8377">
        <ele>214.3</ele>
        <time>2025-01-10T09:22:21.000Z</time>
      </trkpt>
      <trkpt lat="43.59094" lon="6.8377">
        <ele>214.3</ele>
        <time>2025-01-10T09:22:20.000Z</time>
      </trkpt>
      <trkpt lat="43.59094" lon="6.8377">
        <ele>214.3</ele>
        <time>2025-01-10T09:22:19.000Z</time>
      </trkpt>
      <trkpt lat="43.59094" lon="6.8377">
        <ele>214.3</ele>
        <time>2025-01-10T09:22:18.000Z</time>
      </trkpt>
      <trkpt lat="43.59094" lon="6.8377">
        <ele>214.3</ele>
        <time>2025-01-10T09:22:17.000Z</time>
      </trkpt>
      <trkpt lat="43.59094" lon="6.8377">
        <ele>214.3</ele>
        <time>2025-01-10T09:22:16.000Z</time>
      </trkpt>
      <trkpt lat="43.59094" lon="6.8377">
        <ele>214.3</ele>
        <time>2025-01-10T09:22:15.000Z</time>
      </trkpt>
      <trkpt lat="43.59094" lon="6.8377">
        <ele>214.3</ele>
        <time>2025-01-10T09:22:14.000Z</time>
      </trkpt>
      <trkpt lat="43.59093" lon="6.8377">
        <ele>214.3</ele>
        <time>2025-01-10T09:22:13.000Z</time>
      </trkpt>
      <trkpt lat="43.59093" lon="6.8377">
        <ele>214.3</ele>
        <time>2025-01-10T09:22:12.000Z</time>
      </trkpt>
      <trkpt lat="43.59093" lon="6.8377">
        <ele>214.3</ele>
        <time>2025-01-10T09:22:11.000Z</time>
      </trkpt>
      <trkpt lat="43.59093" lon="6.8377">
        <ele>214.3</ele>
        <time>2025-01-10T09:22:10.000Z</time>
      </trkpt>
      <trkpt lat="43.59093" lon="6.8377">
        <ele>214.3</ele>
        <time>2025-01-10T09:22:09.000Z</time>
      </trkpt>
      <trkpt lat="43.59093" lon="6.8377">
        <ele>214.3</ele>
        <time>2025-01-10T09:22:08.000Z</time>
      </trkpt>
      <trkpt lat="43.59093" lon="6.8377">
        <ele>214.3</ele>
        <time>2025-01-10T09:22:07.000Z</time>
      </trkpt>
      <trkpt lat="43.59093" lon="6.8377">
        <ele>214.3</ele>
        <time>2025-01-10T09:22:06.000Z</time>
      </trkpt>
      <trkpt lat="43.59093" lon="6.8377">
        <ele>214.3</ele>
        <time>2025-01-10T09:22:05.000Z</time>
      </trkpt>
      <trkpt lat="43.59093" lon="6.83771">
        <ele>214.3</ele>
        <time>2025-01-10T09:22:04.000Z</time>
      </trkpt>
      <trkpt lat="43.59093" lon="6.83771">
        <ele>214.3</ele>
        <time>2025-01-10T09:22:03.000Z</time>
      </trkpt>
      <trkpt lat="43.59093" lon="6.83771">
        <ele>214.3</ele>
        <time>2025-01-10T09:22:02.000Z</time>
      </trkpt>
      <trkpt lat="43.59092" lon="6.83771">
        <ele>214.3</ele>
        <time>2025-01-10T09:22:01.000Z</time>
      </trkpt>
      <trkpt lat="43.59092" lon="6.83771">
        <ele>214.3</ele>
        <time>2025-01-10T09:22:00.000Z</time>
      </trkpt>
      <trkpt lat="43.59092" lon="6.83771">
        <ele>214.3</ele>
        <time>2025-01-10T09:21:59.000Z</time>
      </trkpt>
      <trkpt lat="43.59092" lon="6.83771">
        <ele>214.3</ele>
        <time>2025-01-10T09:21:58.000Z</time>
      </trkpt>
      <trkpt lat="43.59091" lon="6.83771">
        <ele>214.3</ele>
        <time>2025-01-10T09:21:57.000Z</time>
      </trkpt>
      <trkpt lat="43.59091" lon="6.83771">
        <ele>214.4</ele>
        <time>2025-01-10T09:21:56.000Z</time>
      </trkpt>
      <trkpt lat="43.5909" lon="6.83771">
        <ele>214.4</ele>
        <time>2025-01-10T09:21:55.000Z</time>
      </trkpt>
      <trkpt lat="43.5909" lon="6.83771">
        <ele>214.4</ele>
        <time>2025-01-10T09:21:54.000Z</time>
      </trkpt>
      <trkpt lat="43.5909" lon="6.83771">
        <ele>214.4</ele>
        <time>2025-01-10T09:21:53.000Z</time>
      </trkpt>
      <trkpt lat="43.5909" lon="6.83771">
        <ele>214.4</ele>
        <time>2025-01-10T09:21:52.000Z</time>
      </trkpt>
      <trkpt lat="43.5909" lon="6.8377">
        <ele>214.4</ele>
        <time>2025-01-10T09:21:51.000Z</time>
      </trkpt>
      <trkpt lat="43.5909" lon="6.8377">
        <ele>214.4</ele>
        <time>2025-01-10T09:21:50.000Z</time>
      </trkpt>
      <trkpt lat="43.59089" lon="6.8377">
        <ele>214.4</ele>
        <time>2025-01-10T09:21:49.000Z</time>
      </trkpt>
      <trkpt lat="43.59089" lon="6.8377">
        <ele>214.4</ele>
        <time>2025-01-10T09:21:48.000Z</time>
      </trkpt>
      <trkpt lat="43.59089" lon="6.8377">
        <ele>214.4</ele>
        <time>2025-01-10T09:21:47.000Z</time>
      </trkpt>
      <trkpt lat="43.59089" lon="6.8377">
        <ele>214.4</ele>
        <time>2025-01-10T09:21:46.000Z</time>
      </trkpt>
      <trkpt lat="43.59089" lon="6.8377">
        <ele>214.4</ele>
        <time>2025-01-10T09:21:45.000Z</time>
      </trkpt>
      <trkpt lat="43.59089" lon="6.8377">
        <ele>214.4</ele>
        <time>2025-01-10T09:21:44.000Z</time>
      </trkpt>
      <trkpt lat="43.59089" lon="6.8377">
        <ele>214.4</ele>
        <time>2025-01-10T09:21:43.000Z</time>
      </trkpt>
      <trkpt lat="43.59089" lon="6.8377">
        <ele>214.4</ele>
        <time>2025-01-10T09:21:42.000Z</time>
      </trkpt>
      <trkpt lat="43.59089" lon="6.8377">
        <ele>214.4</ele>
        <time>2025-01-10T09:21:41.000Z</time>
      </trkpt>
      <trkpt lat="43.59089" lon="6.8377">
        <ele>214.4</ele>
        <time>2025-01-10T09:21:40.000Z</time>
      </trkpt>
      <trkpt lat="43.59089" lon="6.8377">
        <ele>214.4</ele>
        <time>2025-01-10T09:21:39.000Z</time>
      </trkpt>
      <trkpt lat="43.59088" lon="6.8377">
        <ele>214.4</ele>
        <time>2025-01-10T09:21:38.000Z</time>
      </trkpt>
      <trkpt lat="43.59088" lon="6.8377">
        <ele>214.4</ele>
        <time>2025-01-10T09:21:37.000Z</time>
      </trkpt>
      <trkpt lat="43.59088" lon="6.8377">
        <ele>214.4</ele>
        <time>2025-01-10T09:21:36.000Z</time>
      </trkpt>
      <trkpt lat="43.59088" lon="6.8377">
        <ele>214.4</ele>
        <time>2025-01-10T09:21:35.000Z</time>
      </trkpt>
      <trkpt lat="43.59088" lon="6.83769">
        <ele>214.4</ele>
        <time>2025-01-10T09:21:34.000Z</time>
      </trkpt>
      <trkpt lat="43.59088" lon="6.83769">
        <ele>214.4</ele>
        <time>2025-01-10T09:21:33.000Z</time>
      </trkpt>
      <trkpt lat="43.59088" lon="6.83769">
        <ele>214.4</ele>
        <time>2025-01-10T09:21:32.000Z</time>
      </trkpt>
      <trkpt lat="43.59088" lon="6.83769">
        <ele>214.4</ele>
        <time>2025-01-10T09:21:31.000Z</time>
      </trkpt>
      <trkpt lat="43.59088" lon="6.83769">
        <ele>214.4</ele>
        <time>2025-01-10T09:21:30.000Z</time>
      </trkpt>
      <trkpt lat="43.59088" lon="6.83769">
        <ele>214.4</ele>
        <time>2025-01-10T09:21:29.000Z</time>
      </trkpt>
      <trkpt lat="43.59088" lon="6.83769">
        <ele>214.4</ele>
        <time>2025-01-10T09:21:28.000Z</time>
      </trkpt>
      <trkpt lat="43.59088" lon="6.83769">
        <ele>214.4</ele>
        <time>2025-01-10T09:21:27.000Z</time>
      </trkpt>
      <trkpt lat="43.59088" lon="6.83769">
        <ele>214.4</ele>
        <time>2025-01-10T09:21:26.000Z</time>
      </trkpt>
      <trkpt lat="43.59088" lon="6.83769">
        <ele>214.4</ele>
        <time>2025-01-10T09:21:25.000Z</time>
      </trkpt>
      <trkpt lat="43.59088" lon="6.83768">
        <ele>214.4</ele>
        <time>2025-01-10T09:21:24.000Z</time>
      </trkpt>
      <trkpt lat="43.59088" lon="6.83768">
        <ele>214.4</ele>
        <time>2025-01-10T09:21:23.000Z</time>
      </trkpt>
      <trkpt lat="43.59088" lon="6.83768">
        <ele>214.4</ele>
        <time>2025-01-10T09:21:22.000Z</time>
      </trkpt>
      <trkpt lat="43.59088" lon="6.83768">
        <ele>214.4</ele>
        <time>2025-01-10T09:21:21.000Z</time>
      </trkpt>
      <trkpt lat="43.59088" lon="6.83768">
        <ele>214.4</ele>
        <time>2025-01-10T09:21:20.000Z</time>
      </trkpt>
      <trkpt lat="43.59088" lon="6.83768">
        <ele>214.4</ele>
        <time>2025-01-10T09:21:19.000Z</time>
      </trkpt>
      <trkpt lat="43.59088" lon="6.83768">
        <ele>214.4</ele>
        <time>2025-01-10T09:21:18.000Z</time>
      </trkpt>
      <trkpt lat="43.59088" lon="6.83768">
        <ele>214.4</ele>
        <time>2025-01-10T09:21:17.000Z</time>
      </trkpt>
      <trkpt lat="43.59088" lon="6.83768">
        <ele>214.4</ele>
        <time>2025-01-10T09:21:16.000Z</time>
      </trkpt>
      <trkpt lat="43.59088" lon="6.83768">
        <ele>214.4</ele>
        <time>2025-01-10T09:21:15.000Z</time>
      </trkpt>
      <trkpt lat="43.59088" lon="6.83768">
        <ele>214.4</ele>
        <time>2025-01-10T09:21:14.000Z</time>
      </trkpt>
      <trkpt lat="43.59087" lon="6.83768">
        <ele>214.4</ele>
        <time>2025-01-10T09:21:13.000Z</time>
      </trkpt>
      <trkpt lat="43.59087" lon="6.83768">
        <ele>214.4</ele>
        <time>2025-01-10T09:21:12.000Z</time>
      </trkpt>
      <trkpt lat="43.59087" lon="6.83768">
        <ele>214.4</ele>
        <time>2025-01-10T09:21:11.000Z</time>
      </trkpt>
      <trkpt lat="43.59087" lon="6.83768">
        <ele>214.4</ele>
        <time>2025-01-10T09:21:10.000Z</time>
      </trkpt>
      <trkpt lat="43.59087" lon="6.83768">
        <ele>214.4</ele>
        <time>2025-01-10T09:21:09.000Z</time>
      </trkpt>
      <trkpt lat="43.59087" lon="6.83768">
        <ele>214.4</ele>
        <time>2025-01-10T09:21:08.000Z</time>
      </trkpt>
      <trkpt lat="43.59087" lon="6.83768">
        <ele>214.4</ele>
        <time>2025-01-10T09:21:07.000Z</time>
      </trkpt>
      <trkpt lat="43.59087" lon="6.83769">
        <ele>214.4</ele>
        <time>2025-01-10T09:21:06.000Z</time>
      </trkpt>
      <trkpt lat="43.59087" lon="6.83769">
        <ele>214.4</ele>
        <time>2025-01-10T09:21:05.000Z</time>
      </trkpt>
      <trkpt lat="43.59087" lon="6.83769">
        <ele>214.4</ele>
        <time>2025-01-10T09:21:04.000Z</time>
      </trkpt>
      <trkpt lat="43.59087" lon="6.8377">
        <ele>214.5</ele>
        <time>2025-01-10T09:21:03.000Z</time>
      </trkpt>
      <trkpt lat="43.59087" lon="6.8377">
        <ele>214.5</ele>
        <time>2025-01-10T09:21:02.000Z</time>
      </trkpt>
      <trkpt lat="43.59087" lon="6.83771">
        <ele>214.5</ele>
        <time>2025-01-10T09:21:01.000Z</time>
      </trkpt>
      <trkpt lat="43.59087" lon="6.83771">
        <ele>214.5</ele>
        <time>2025-01-10T09:21:00.000Z</time>
      </trkpt>
      <trkpt lat="43.59087" lon="6.83771">
        <ele>214.5</ele>
        <time>2025-01-10T09:20:59.000Z</time>
      </trkpt>
      <trkpt lat="43.59087" lon="6.83772">
        <ele>214.5</ele>
        <time>2025-01-10T09:20:58.000Z</time>
      </trkpt>
      <trkpt lat="43.59087" lon="6.83772">
        <ele>214.5</ele>
        <time>2025-01-10T09:20:57.000Z</time>
      </trkpt>
      <trkpt lat="43.59087" lon="6.83772">
        <ele>214.5</ele>
        <time>2025-01-10T09:20:56.000Z</time>
      </trkpt>
      <trkpt lat="43.59087" lon="6.83772">
        <ele>214.5</ele>
        <time>2025-01-10T09:20:55.000Z</time>
      </trkpt>
      <trkpt lat="43.59087" lon="6.83772">
        <ele>214.5</ele>
        <time>2025-01-10T09:20:54.000Z</time>
      </trkpt>
      <trkpt lat="43.59087" lon="6.83772">
        <ele>214.5</ele>
        <time>2025-01-10T09:20:53.000Z</time>
      </trkpt>
      <trkpt lat="43.59087" lon="6.83773">
        <ele>214.5</ele>
        <time>2025-01-10T09:20:52.000Z</time>
      </trkpt>
      <trkpt lat="43.59087" lon="6.83773">
        <ele>214.5</ele>
        <time>2025-01-10T09:20:51.000Z</time>
      </trkpt>
      <trkpt lat="43.59087" lon="6.83773">
        <ele>214.5</ele>
        <time>2025-01-10T09:20:50.000Z</time>
      </trkpt>
      <trkpt lat="43.59087" lon="6.83773">
        <ele>214.5</ele>
        <time>2025-01-10T09:20:49.000Z</time>
      </trkpt>
      <trkpt lat="43.59087" lon="6.83773">
        <ele>214.5</ele>
        <time>2025-01-10T09:20:48.000Z</time>
      </trkpt>
      <trkpt lat="43.59087" lon="6.83773">
        <ele>214.5</ele>
        <time>2025-01-10T09:20:47.000Z</time>
      </trkpt>
      <trkpt lat="43.59087" lon="6.83773">
        <ele>214.5</ele>
        <time>2025-01-10T09:20:46.000Z</time>
      </trkpt>
      <trkpt lat="43.59087" lon="6.83773">
        <ele>214.5</ele>
        <time>2025-01-10T09:20:45.000Z</time>
      </trkpt>
      <trkpt lat="43.59087" lon="6.83773">
        <ele>214.5</ele>
        <time>2025-01-10T09:20:44.000Z</time>
      </trkpt>
      <trkpt lat="43.59088" lon="6.83773">
        <ele>214.5</ele>
        <time>2025-01-10T09:20:43.000Z</time>
      </trkpt>
      <trkpt lat="43.59088" lon="6.83773">
        <ele>214.5</ele>
        <time>2025-01-10T09:20:42.000Z</time>
      </trkpt>
      <trkpt lat="43.59088" lon="6.83773">
        <ele>214.5</ele>
        <time>2025-01-10T09:20:41.000Z</time>
      </trkpt>
      <trkpt lat="43.59088" lon="6.83773">
        <ele>214.5</ele>
        <time>2025-01-10T09:20:40.000Z</time>
      </trkpt>
      <trkpt lat="43.59088" lon="6.83773">
        <ele>214.5</ele>
        <time>2025-01-10T09:20:39.000Z</time>
      </trkpt>
      <trkpt lat="43.59088" lon="6.83773">
        <ele>214.5</ele>
        <time>2025-01-10T09:20:38.000Z</time>
      </trkpt>
      <trkpt lat="43.59088" lon="6.83773">
        <ele>214.5</ele>
        <time>2025-01-10T09:20:37.000Z</time>
      </trkpt>
      <trkpt lat="43.59088" lon="6.83773">
        <ele>214.5</ele>
        <time>2025-01-10T09:20:36.000Z</time>
      </trkpt>
      <trkpt lat="43.59088" lon="6.83773">
        <ele>214.5</ele>
        <time>2025-01-10T09:20:35.000Z</time>
      </trkpt>
      <trkpt lat="43.59088" lon="6.83773">
        <ele>214.5</ele>
        <time>2025-01-10T09:20:34.000Z</time>
      </trkpt>
      <trkpt lat="43.59088" lon="6.83773">
        <ele>214.5</ele>
        <time>2025-01-10T09:20:33.000Z</time>
      </trkpt>
      <trkpt lat="43.59088" lon="6.83773">
        <ele>214.5</ele>
        <time>2025-01-10T09:20:32.000Z</time>
      </trkpt>
      <trkpt lat="43.59088" lon="6.83773">
        <ele>214.5</ele>
        <time>2025-01-10T09:20:31.000Z</time>
      </trkpt>
      <trkpt lat="43.59088" lon="6.83773">
        <ele>214.5</ele>
        <time>2025-01-10T09:20:30.000Z</time>
      </trkpt>
      <trkpt lat="43.59088" lon="6.83773">
        <ele>214.5</ele>
        <time>2025-01-10T09:20:29.000Z</time>
      </trkpt>
      <trkpt lat="43.59088" lon="6.83773">
        <ele>214.5</ele>
        <time>2025-01-10T09:20:28.000Z</time>
      </trkpt>
      <trkpt lat="43.59088" lon="6.83773">
        <ele>214.5</ele>
        <time>2025-01-10T09:20:27.000Z</time>
      </trkpt>
      <trkpt lat="43.59088" lon="6.83773">
        <ele>214.5</ele>
        <time>2025-01-10T09:20:26.000Z</time>
      </trkpt>
      <trkpt lat="43.59087" lon="6.83773">
        <ele>214.5</ele>
        <time>2025-01-10T09:20:25.000Z</time>
      </trkpt>
      <trkpt lat="43.59087" lon="6.83773">
        <ele>214.5</ele>
        <time>2025-01-10T09:20:24.000Z</time>
      </trkpt>
      <trkpt lat="43.59087" lon="6.83773">
        <ele>214.5</ele>
        <time>2025-01-10T09:20:23.000Z</time>
      </trkpt>
      <trkpt lat="43.59087" lon="6.83773">
        <ele>214.5</ele>
        <time>2025-01-10T09:20:22.000Z</time>
      </trkpt>
      <trkpt lat="43.59087" lon="6.83774">
        <ele>214.5</ele>
        <time>2025-01-10T09:20:21.000Z</time>
      </trkpt>
      <trkpt lat="43.59088" lon="6.83774">
        <ele>214.5</ele>
        <time>2025-01-10T09:20:20.000Z</time>
      </trkpt>
      <trkpt lat="43.59089" lon="6.83774">
        <ele>214.5</ele>
        <time>2025-01-10T09:20:19.000Z</time>
      </trkpt>
      <trkpt lat="43.59089" lon="6.83774">
        <ele>214.5</ele>
        <time>2025-01-10T09:20:18.000Z</time>
      </trkpt>
      <trkpt lat="43.5909" lon="6.83774">
        <ele>214.5</ele>
        <time>2025-01-10T09:20:17.000Z</time>
      </trkpt>
      <trkpt lat="43.5909" lon="6.83774">
        <ele>214.6</ele>
        <time>2025-01-10T09:20:16.000Z</time>
      </trkpt>
      <trkpt lat="43.59089" lon="6.83774">
        <ele>214.6</ele>
        <time>2025-01-10T09:20:15.000Z</time>
      </trkpt>
      <trkpt lat="43.59089" lon="6.83775">
        <ele>214.6</ele>
        <time>2025-01-10T09:20:14.000Z</time>
      </trkpt>
      <trkpt lat="43.59089" lon="6.83775">
        <ele>214.6</ele>
        <time>2025-01-10T09:20:13.000Z</time>
      </trkpt>
      <trkpt lat="43.5909" lon="6.83776">
        <ele>214.6</ele>
        <time>2025-01-10T09:20:12.000Z</time>
      </trkpt>
      <trkpt lat="43.5909" lon="6.83777">
        <ele>214.6</ele>
        <time>2025-01-10T09:20:11.000Z</time>
      </trkpt>
      <trkpt lat="43.5909" lon="6.83777">
        <ele>214.6</ele>
        <time>2025-01-10T09:20:10.000Z</time>
      </trkpt>
      <trkpt lat="43.5909" lon="6.83776">
        <ele>214.6</ele>
        <time>2025-01-10T09:20:09.000Z</time>
      </trkpt>
      <trkpt lat="43.5909" lon="6.83776">
        <ele>214.6</ele>
        <time>2025-01-10T09:20:08.000Z</time>
      </trkpt>
      <trkpt lat="43.5909" lon="6.83776">
        <ele>214.6</ele>
        <time>2025-01-10T09:20:07.000Z</time>
      </trkpt>
      <trkpt lat="43.5909" lon="6.83776">
        <ele>214.6</ele>
        <time>2025-01-10T09:20:06.000Z</time>
      </trkpt>
      <trkpt lat="43.5909" lon="6.83776">
        <ele>214.6</ele>
        <time>2025-01-10T09:20:05.000Z</time>
      </trkpt>
      <trkpt lat="43.5909" lon="6.83776">
        <ele>214.6</ele>
        <time>2025-01-10T09:20:04.000Z</time>
      </trkpt>
      <trkpt lat="43.5909" lon="6.83775">
        <ele>214.6</ele>
        <time>2025-01-10T09:20:03.000Z</time>
      </trkpt>
      <trkpt lat="43.59091" lon="6.83774">
        <ele>214.6</ele>
        <time>2025-01-10T09:20:02.000Z</time>
      </trkpt>
      <trkpt lat="43.59091" lon="6.83773">
        <ele>214.6</ele>
        <time>2025-01-10T09:20:01.000Z</time>
      </trkpt>
      <trkpt lat="43.59091" lon="6.83771">
        <ele>214.6</ele>
        <time>2025-01-10T09:20:00.000Z</time>
      </trkpt>
      <trkpt lat="43.5909" lon="6.8377">
        <ele>214.6</ele>
        <time>2025-01-10T09:19:59.000Z</time>
      </trkpt>
      <trkpt lat="43.59089" lon="6.8377">
        <ele>214.6</ele>
        <time>2025-01-10T09:19:58.000Z</time>
      </trkpt>
      <trkpt lat="43.59088" lon="6.8377">
        <ele>214.6</ele>
        <time>2025-01-10T09:19:57.000Z</time>
      </trkpt>
      <trkpt lat="43.59089" lon="6.83771">
        <ele>214.6</ele>
        <time>2025-01-10T09:19:56.000Z</time>
      </trkpt>
      <trkpt lat="43.59088" lon="6.83771">
        <ele>214.6</ele>
        <time>2025-01-10T09:19:55.000Z</time>
      </trkpt>
      <trkpt lat="43.59088" lon="6.83772">
        <ele>214.6</ele>
        <time>2025-01-10T09:19:54.000Z</time>
      </trkpt>
      <trkpt lat="43.59087" lon="6.83772">
        <ele>214.6</ele>
        <time>2025-01-10T09:19:53.000Z</time>
      </trkpt>
      <trkpt lat="43.59087" lon="6.83772">
        <ele>214.6</ele>
        <time>2025-01-10T09:19:52.000Z</time>
      </trkpt>
      <trkpt lat="43.59087" lon="6.83773">
        <ele>214.6</ele>
        <time>2025-01-10T09:19:51.000Z</time>
      </trkpt>
      <trkpt lat="43.59087" lon="6.83774">
        <ele>214.6</ele>
        <time>2025-01-10T09:19:50.000Z</time>
      </trkpt>
      <trkpt lat="43.59086" lon="6.83774">
        <ele>214.6</ele>
        <time>2025-01-10T09:19:49.000Z</time>
      </trkpt>
      <trkpt lat="43.59087" lon="6.83774">
        <ele>214.6</ele>
        <time>2025-01-10T09:19:48.000Z</time>
      </trkpt>
      <trkpt lat="43.59087" lon="6.83773">
        <ele>214.5</ele>
        <time>2025-01-10T09:19:47.000Z</time>
      </trkpt>
      <trkpt lat="43.59087" lon="6.83773">
        <ele>214.5</ele>
        <time>2025-01-10T09:19:46.000Z</time>
      </trkpt>
      <trkpt lat="43.59088" lon="6.83773">
        <ele>214.5</ele>
        <time>2025-01-10T09:19:45.000Z</time>
      </trkpt>
      <trkpt lat="43.59088" lon="6.83774">
        <ele>214.5</ele>
        <time>2025-01-10T09:19:44.000Z</time>
      </trkpt>
      <trkpt lat="43.59089" lon="6.83775">
        <ele>214.5</ele>
        <time>2025-01-10T09:19:43.000Z</time>
      </trkpt>
      <trkpt lat="43.5909" lon="6.83776">
        <ele>214.5</ele>
        <time>2025-01-10T09:19:42.000Z</time>
      </trkpt>
      <trkpt lat="43.59091" lon="6.83776">
        <ele>214.5</ele>
        <time>2025-01-10T09:19:41.000Z</time>
      </trkpt>
      <trkpt lat="43.59091" lon="6.83776">
        <ele>214.4</ele>
        <time>2025-01-10T09:19:40.000Z</time>
      </trkpt>
      <trkpt lat="43.59091" lon="6.83776">
        <ele>214.4</ele>
        <time>2025-01-10T09:19:39.000Z</time>
      </trkpt>
      <trkpt lat="43.59091" lon="6.83776">
        <ele>214.4</ele>
        <time>2025-01-10T09:19:38.000Z</time>
      </trkpt>
      <trkpt lat="43.59092" lon="6.83776">
        <ele>214.4</ele>
        <time>2025-01-10T09:19:37.000Z</time>
      </trkpt>
      <trkpt lat="43.59092" lon="6.83777">
        <ele>214.4</ele>
        <time>2025-01-10T09:19:36.000Z</time>
      </trkpt>
      <trkpt lat="43.59092" lon="6.83777">
        <ele>214.4</ele>
        <time>2025-01-10T09:19:35.000Z</time>
      </trkpt>
      <trkpt lat="43.59092" lon="6.83777">
        <ele>214.4</ele>
        <time>2025-01-10T09:19:34.000Z</time>
      </trkpt>
      <trkpt lat="43.59092" lon="6.83777">
        <ele>214.4</ele>
        <time>2025-01-10T09:19:33.000Z</time>
      </trkpt>
      <trkpt lat="43.59092" lon="6.83777">
        <ele>214.4</ele>
        <time>2025-01-10T09:19:32.000Z</time>
      </trkpt>
      <trkpt lat="43.59093" lon="6.83778">
        <ele>214.4</ele>
        <time>2025-01-10T09:19:31.000Z</time>
      </trkpt>
      <trkpt lat="43.59093" lon="6.83778">
        <ele>214.4</ele>
        <time>2025-01-10T09:19:30.000Z</time>
      </trkpt>
      <trkpt lat="43.59093" lon="6.83778">
        <ele>214.4</ele>
        <time>2025-01-10T09:19:29.000Z</time>
      </trkpt>
      <trkpt lat="43.59093" lon="6.83778">
        <ele>214.4</ele>
        <time>2025-01-10T09:19:28.000Z</time>
      </trkpt>
      <trkpt lat="43.59094" lon="6.83778">
        <ele>214.3</ele>
        <time>2025-01-10T09:19:27.000Z</time>
      </trkpt>
      <trkpt lat="43.59094" lon="6.83778">
        <ele>214.3</ele>
        <time>2025-01-10T09:19:26.000Z</time>
      </trkpt>
      <trkpt lat="43.59094" lon="6.83779">
        <ele>214.3</ele>
        <time>2025-01-10T09:19:25.000Z</time>
      </trkpt>
      <trkpt lat="43.59094" lon="6.83779">
        <ele>214.3</ele>
        <time>2025-01-10T09:19:24.000Z</time>
      </trkpt>
      <trkpt lat="43.59094" lon="6.83779">
        <ele>214.3</ele>
        <time>2025-01-10T09:19:23.000Z</time>
      </trkpt>
      <trkpt lat="43.59094" lon="6.83779">
        <ele>214.3</ele>
        <time>2025-01-10T09:19:22.000Z</time>
      </trkpt>
      <trkpt lat="43.59094" lon="6.83779">
        <ele>214.3</ele>
        <time>2025-01-10T09:19:21.000Z</time>
      </trkpt>
      <trkpt lat="43.59094" lon="6.83779">
        <ele>214.3</ele>
        <time>2025-01-10T09:19:20.000Z</time>
      </trkpt>
      <trkpt lat="43.59094" lon="6.83779">
        <ele>214.3</ele>
        <time>2025-01-10T09:19:19.000Z</time>
      </trkpt>
      <trkpt lat="43.59094" lon="6.83779">
        <ele>214.3</ele>
        <time>2025-01-10T09:19:18.000Z</time>
      </trkpt>
      <trkpt lat="43.59094" lon="6.83779">
        <ele>214.3</ele>
        <time>2025-01-10T09:19:17.000Z</time>
      </trkpt>
      <trkpt lat="43.59094" lon="6.83779">
        <ele>214.3</ele>
        <time>2025-01-10T09:19:16.000Z</time>
      </trkpt>
      <trkpt lat="43.59094" lon="6.83779">
        <ele>214.3</ele>
        <time>2025-01-10T09:19:15.000Z</time>
      </trkpt>
      <trkpt lat="43.59094" lon="6.83779">
        <ele>214.3</ele>
        <time>2025-01-10T09:19:14.000Z</time>
      </trkpt>
      <trkpt lat="43.59094" lon="6.83779">
        <ele>214.3</ele>
        <time>2025-01-10T09:19:13.000Z</time>
      </trkpt>
      <trkpt lat="43.59094" lon="6.83779">
        <ele>214.3</ele>
        <time>2025-01-10T09:19:12.000Z</time>
      </trkpt>
      <trkpt lat="43.59094" lon="6.83779">
        <ele>214.3</ele>
        <time>2025-01-10T09:19:11.000Z</time>
      </trkpt>
      <trkpt lat="43.59094" lon="6.83779">
        <ele>214.3</ele>
        <time>2025-01-10T09:19:10.000Z</time>
      </trkpt>
      <trkpt lat="43.59094" lon="6.83779">
        <ele>214.3</ele>
        <time>2025-01-10T09:19:09.000Z</time>
      </trkpt>
      <trkpt lat="43.59093" lon="6.83779">
        <ele>214.3</ele>
        <time>2025-01-10T09:19:08.000Z</time>
      </trkpt>
      <trkpt lat="43.59093" lon="6.83779">
        <ele>214.3</ele>
        <time>2025-01-10T09:19:07.000Z</time>
      </trkpt>
      <trkpt lat="43.59093" lon="6.83779">
        <ele>214.3</ele>
        <time>2025-01-10T09:19:06.000Z</time>
      </trkpt>
      <trkpt lat="43.59093" lon="6.83779">
        <ele>214.3</ele>
        <time>2025-01-10T09:19:05.000Z</time>
      </trkpt>
      <trkpt lat="43.59093" lon="6.83779">
        <ele>214.3</ele>
        <time>2025-01-10T09:19:04.000Z</time>
      </trkpt>
      <trkpt lat="43.59092" lon="6.83779">
        <ele>214.3</ele>
        <time>2025-01-10T09:19:03.000Z</time>
      </trkpt>
      <trkpt lat="43.59092" lon="6.83779">
        <ele>214.3</ele>
        <time>2025-01-10T09:19:02.000Z</time>
      </trkpt>
      <trkpt lat="43.59092" lon="6.83778">
        <ele>214.3</ele>
        <time>2025-01-10T09:19:01.000Z</time>
      </trkpt>
      <trkpt lat="43.59092" lon="6.83778">
        <ele>214.2</ele>
        <time>2025-01-10T09:19:00.000Z</time>
      </trkpt>
      <trkpt lat="43.59092" lon="6.83777">
        <ele>214.2</ele>
        <time>2025-01-10T09:18:59.000Z</time>
      </trkpt>
      <trkpt lat="43.59092" lon="6.83777">
        <ele>214.2</ele>
        <time>2025-01-10T09:18:58.000Z</time>
      </trkpt>
      <trkpt lat="43.59092" lon="6.83777">
        <ele>214.2</ele>
        <time>2025-01-10T09:18:57.000Z</time>
      </trkpt>
      <trkpt lat="43.59092" lon="6.83777">
        <ele>214.2</ele>
        <time>2025-01-10T09:18:56.000Z</time>
      </trkpt>
      <trkpt lat="43.59092" lon="6.83777">
        <ele>214.2</ele>
        <time>2025-01-10T09:18:55.000Z</time>
      </trkpt>
      <trkpt lat="43.59092" lon="6.83777">
        <ele>214.2</ele>
        <time>2025-01-10T09:18:54.000Z</time>
      </trkpt>
      <trkpt lat="43.59092" lon="6.83777">
        <ele>214.2</ele>
        <time>2025-01-10T09:18:53.000Z</time>
      </trkpt>
      <trkpt lat="43.59092" lon="6.83777">
        <ele>214.2</ele>
        <time>2025-01-10T09:18:52.000Z</time>
      </trkpt>
      <trkpt lat="43.59092" lon="6.83777">
        <ele>214.2</ele>
        <time>2025-01-10T09:18:51.000Z</time>
      </trkpt>
      <trkpt lat="43.59092" lon="6.83777">
        <ele>214.2</ele>
        <time>2025-01-10T09:18:50.000Z</time>
      </trkpt>
      <trkpt lat="43.59092" lon="6.83777">
        <ele>214.2</ele>
        <time>2025-01-10T09:18:49.000Z</time>
      </trkpt>
      <trkpt lat="43.59092" lon="6.83777">
        <ele>214.2</ele>
        <time>2025-01-10T09:18:48.000Z</time>
      </trkpt>
      <trkpt lat="43.59092" lon="6.83777">
        <ele>214.2</ele>
        <time>2025-01-10T09:18:47.000Z</time>
      </trkpt>
      <trkpt lat="43.59092" lon="6.83777">
        <ele>214.2</ele>
        <time>2025-01-10T09:18:46.000Z</time>
      </trkpt>
      <trkpt lat="43.59092" lon="6.83777">
        <ele>214.2</ele>
        <time>2025-01-10T09:18:45.000Z</time>
      </trkpt>
      <trkpt lat="43.59092" lon="6.83777">
        <ele>214.2</ele>
        <time>2025-01-10T09:18:44.000Z</time>
      </trkpt>
      <trkpt lat="43.59092" lon="6.83777">
        <ele>214.2</ele>
        <time>2025-01-10T09:18:43.000Z</time>
      </trkpt>
      <trkpt lat="43.59092" lon="6.83777">
        <ele>214.2</ele>
        <time>2025-01-10T09:18:42.000Z</time>
      </trkpt>
      <trkpt lat="43.59092" lon="6.83776">
        <ele>214.2</ele>
        <time>2025-01-10T09:18:41.000Z</time>
      </trkpt>
      <trkpt lat="43.59092" lon="6.83776">
        <ele>214.2</ele>
        <time>2025-01-10T09:18:40.000Z</time>
      </trkpt>
      <trkpt lat="43.59093" lon="6.83776">
        <ele>214.2</ele>
        <time>2025-01-10T09:18:39.000Z</time>
      </trkpt>
      <trkpt lat="43.59093" lon="6.83776">
        <ele>214.2</ele>
        <time>2025-01-10T09:18:38.000Z</time>
      </trkpt>
      <trkpt lat="43.59093" lon="6.83776">
        <ele>214.2</ele>
        <time>2025-01-10T09:18:37.000Z</time>
      </trkpt>
      <trkpt lat="43.59093" lon="6.83776">
        <ele>214.2</ele>
        <time>2025-01-10T09:18:36.000Z</time>
      </trkpt>
      <trkpt lat="43.59093" lon="6.83776">
        <ele>214.2</ele>
        <time>2025-01-10T09:18:35.000Z</time>
      </trkpt>
      <trkpt lat="43.59093" lon="6.83776">
        <ele>214.2</ele>
        <time>2025-01-10T09:18:34.000Z</time>
      </trkpt>
      <trkpt lat="43.59093" lon="6.83776">
        <ele>214.2</ele>
        <time>2025-01-10T09:18:33.000Z</time>
      </trkpt>
      <trkpt lat="43.59093" lon="6.83776">
        <ele>214.2</ele>
        <time>2025-01-10T09:18:32.000Z</time>
      </trkpt>
      <trkpt lat="43.59093" lon="6.83776">
        <ele>214.2</ele>
        <time>2025-01-10T09:18:31.000Z</time>
      </trkpt>
      <trkpt lat="43.59093" lon="6.83776">
        <ele>214.2</ele>
        <time>2025-01-10T09:18:30.000Z</time>
      </trkpt>
      <trkpt lat="43.59093" lon="6.83776">
        <ele>214.2</ele>
        <time>2025-01-10T09:18:29.000Z</time>
      </trkpt>
      <trkpt lat="43.59093" lon="6.83777">
        <ele>214.2</ele>
        <time>2025-01-10T09:18:28.000Z</time>
      </trkpt>
      <trkpt lat="43.59093" lon="6.83777">
        <ele>214.2</ele>
        <time>2025-01-10T09:18:27.000Z</time>
      </trkpt>
      <trkpt lat="43.59093" lon="6.83777">
        <ele>214.2</ele>
        <time>2025-01-10T09:18:26.000Z</time>
      </trkpt>
      <trkpt lat="43.59093" lon="6.83777">
        <ele>214.2</ele>
        <time>2025-01-10T09:18:25.000Z</time>
      </trkpt>
      <trkpt lat="43.59092" lon="6.83777">
        <ele>214.2</ele>
        <time>2025-01-10T09:18:24.000Z</time>
      </trkpt>
      <trkpt lat="43.59092" lon="6.83777">
        <ele>214.2</ele>
        <time>2025-01-10T09:18:23.000Z</time>
      </trkpt>
      <trkpt lat="43.59092" lon="6.83777">
        <ele>214.2</ele>
        <time>2025-01-10T09:18:22.000Z</time>
      </trkpt>
      <trkpt lat="43.59092" lon="6.83777">
        <ele>214.2</ele>
        <time>2025-01-10T09:18:21.000Z</time>
      </trkpt>
      <trkpt lat="43.59092" lon="6.83777">
        <ele>214.2</ele>
        <time>2025-01-10T09:18:20.000Z</time>
      </trkpt>
      <trkpt lat="43.59092" lon="6.83777">
        <ele>214.2</ele>
        <time>2025-01-10T09:18:19.000Z</time>
      </trkpt>
      <trkpt lat="43.59092" lon="6.83777">
        <ele>214.2</ele>
        <time>2025-01-10T09:18:18.000Z</time>
      </trkpt>
      <trkpt lat="43.59092" lon="6.83777">
        <ele>214.2</ele>
        <time>2025-01-10T09:18:17.000Z</time>
      </trkpt>
      <trkpt lat="43.59092" lon="6.83777">
        <ele>214.2</ele>
        <time>2025-01-10T09:18:16.000Z</time>
      </trkpt>
      <trkpt lat="43.59092" lon="6.83777">
        <ele>214.2</ele>
        <time>2025-01-10T09:18:15.000Z</time>
      </trkpt>
      <trkpt lat="43.59092" lon="6.83777">
        <ele>214.2</ele>
        <time>2025-01-10T09:18:14.000Z</time>
      </trkpt>
      <trkpt lat="43.59092" lon="6.83777">
        <ele>214.2</ele>
        <time>2025-01-10T09:18:13.000Z</time>
      </trkpt>
      <trkpt lat="43.59092" lon="6.83777">
        <ele>214.2</ele>
        <time>2025-01-10T09:18:12.000Z</time>
      </trkpt>
      <trkpt lat="43.59092" lon="6.83777">
        <ele>214.2</ele>
        <time>2025-01-10T09:18:11.000Z</time>
      </trkpt>
      <trkpt lat="43.59092" lon="6.83777">
        <ele>214.2</ele>
        <time>2025-01-10T09:18:10.000Z</time>
      </trkpt>
      <trkpt lat="43.59092" lon="6.83777">
        <ele>214.2</ele>
        <time>2025-01-10T09:18:09.000Z</time>
      </trkpt>
      <trkpt lat="43.59092" lon="6.83777">
        <ele>214.2</ele>
        <time>2025-01-10T09:18:08.000Z</time>
      </trkpt>
      <trkpt lat="43.59091" lon="6.83778">
        <ele>214.1</ele>
        <time>2025-01-10T09:18:07.000Z</time>
      </trkpt>
      <trkpt lat="43.59091" lon="6.83779">
        <ele>214.1</ele>
        <time>2025-01-10T09:18:06.000Z</time>
      </trkpt>
      <trkpt lat="43.59091" lon="6.8378">
        <ele>214.1</ele>
        <time>2025-01-10T09:18:05.000Z</time>
      </trkpt>
      <trkpt lat="43.59091" lon="6.83781">
        <ele>214</ele>
        <time>2025-01-10T09:18:04.000Z</time>
      </trkpt>
      <trkpt lat="43.59092" lon="6.8378">
        <ele>214</ele>
        <time>2025-01-10T09:18:03.000Z</time>
      </trkpt>
      <trkpt lat="43.59092" lon="6.83779">
        <ele>214</ele>
        <time>2025-01-10T09:18:02.000Z</time>
      </trkpt>
      <trkpt lat="43.59091" lon="6.83778">
        <ele>214</ele>
        <time>2025-01-10T09:18:01.000Z</time>
      </trkpt>
      <trkpt lat="43.59091" lon="6.83777">
        <ele>213.9</ele>
        <time>2025-01-10T09:18:00.000Z</time>
      </trkpt>
      <trkpt lat="43.59091" lon="6.83777">
        <ele>213.9</ele>
        <time>2025-01-10T09:17:59.000Z</time>
      </trkpt>
      <trkpt lat="43.59091" lon="6.83778">
        <ele>213.9</ele>
        <time>2025-01-10T09:17:58.000Z</time>
      </trkpt>
      <trkpt lat="43.59091" lon="6.83778">
        <ele>213.9</ele>
        <time>2025-01-10T09:17:57.000Z</time>
      </trkpt>
      <trkpt lat="43.59091" lon="6.83777">
        <ele>213.9</ele>
        <time>2025-01-10T09:17:56.000Z</time>
      </trkpt>
      <trkpt lat="43.59091" lon="6.83776">
        <ele>213.9</ele>
        <time>2025-01-10T09:17:55.000Z</time>
      </trkpt>
      <trkpt lat="43.59091" lon="6.83774">
        <ele>213.8</ele>
        <time>2025-01-10T09:17:54.000Z</time>
      </trkpt>
      <trkpt lat="43.59091" lon="6.83771">
        <ele>213.7</ele>
        <time>2025-01-10T09:17:53.000Z</time>
      </trkpt>
      <trkpt lat="43.59091" lon="6.83766">
        <ele>213.6</ele>
        <time>2025-01-10T09:17:52.000Z</time>
      </trkpt>
      <trkpt lat="43.5909" lon="6.83761">
        <ele>213.5</ele>
        <time>2025-01-10T09:17:51.000Z</time>
      </trkpt>
      <trkpt lat="43.5909" lon="6.83756">
        <ele>213.4</ele>
        <time>2025-01-10T09:17:50.000Z</time>
      </trkpt>
      <trkpt lat="43.59089" lon="6.83751">
        <ele>213.3</ele>
        <time>2025-01-10T09:17:49.000Z</time>
      </trkpt>
      <trkpt lat="43.59089" lon="6.83746">
        <ele>213.1</ele>
        <time>2025-01-10T09:17:48.000Z</time>
      </trkpt>
      <trkpt lat="43.59087" lon="6.83741">
        <ele>213</ele>
        <time>2025-01-10T09:17:47.000Z</time>
      </trkpt>
      <trkpt lat="43.59087" lon="6.83737">
        <ele>212.9</ele>
        <time>2025-01-10T09:17:46.000Z</time>
      </trkpt>
      <trkpt lat="43.59089" lon="6.83732">
        <ele>212.8</ele>
        <time>2025-01-10T09:17:45.000Z</time>
      </trkpt>
      <trkpt lat="43.59092" lon="6.83728">
        <ele>212.7</ele>
        <time>2025-01-10T09:17:44.000Z</time>
      </trkpt>
      <trkpt lat="43.59096" lon="6.83725">
        <ele>212.6</ele>
        <time>2025-01-10T09:17:43.000Z</time>
      </trkpt>
      <trkpt lat="43.59099" lon="6.83722">
        <ele>212.6</ele>
        <time>2025-01-10T09:17:42.000Z</time>
      </trkpt>
      <trkpt lat="43.59102" lon="6.83719">
        <ele>212.6</ele>
        <time>2025-01-10T09:17:41.000Z</time>
      </trkpt>
      <trkpt lat="43.59105" lon="6.83716">
        <ele>212.6</ele>
        <time>2025-01-10T09:17:40.000Z</time>
      </trkpt>
      <trkpt lat="43.59108" lon="6.83712">
        <ele>212.6</ele>
        <time>2025-01-10T09:17:39.000Z</time>
      </trkpt>
      <trkpt lat="43.5911" lon="6.83709">
        <ele>212.7</ele>
        <time>2025-01-10T09:17:38.000Z</time>
      </trkpt>
      <trkpt lat="43.59113" lon="6.83705">
        <ele>212.9</ele>
        <time>2025-01-10T09:17:37.000Z</time>
      </trkpt>
      <trkpt lat="43.59115" lon="6.83701">
        <ele>213</ele>
        <time>2025-01-10T09:17:36.000Z</time>
      </trkpt>
      <trkpt lat="43.59117" lon="6.83697">
        <ele>213.2</ele>
        <time>2025-01-10T09:17:35.000Z</time>
      </trkpt>
      <trkpt lat="43.59119" lon="6.83693">
        <ele>213.4</ele>
        <time>2025-01-10T09:17:34.000Z</time>
      </trkpt>
      <trkpt lat="43.59122" lon="6.83688">
        <ele>213.6</ele>
        <time>2025-01-10T09:17:33.000Z</time>
      </trkpt>
      <trkpt lat="43.59124" lon="6.83682">
        <ele>213.9</ele>
        <time>2025-01-10T09:17:32.000Z</time>
      </trkpt>
      <trkpt lat="43.59125" lon="6.83675">
        <ele>214.2</ele>
        <time>2025-01-10T09:17:31.000Z</time>
      </trkpt>
      <trkpt lat="43.59125" lon="6.83668">
        <ele>214.4</ele>
        <time>2025-01-10T09:17:30.000Z</time>
      </trkpt>
      <trkpt lat="43.59124" lon="6.8366">
        <ele>214.6</ele>
        <time>2025-01-10T09:17:29.000Z</time>
      </trkpt>
      <trkpt lat="43.59122" lon="6.83654">
        <ele>214.8</ele>
        <time>2025-01-10T09:17:28.000Z</time>
      </trkpt>
      <trkpt lat="43.59119" lon="6.83648">
        <ele>214.9</ele>
        <time>2025-01-10T09:17:27.000Z</time>
      </trkpt>
      <trkpt lat="43.59116" lon="6.83643">
        <ele>215</ele>
        <time>2025-01-10T09:17:26.000Z</time>
      </trkpt>
      <trkpt lat="43.59115" lon="6.83638">
        <ele>215.1</ele>
        <time>2025-01-10T09:17:25.000Z</time>
      </trkpt>
      <trkpt lat="43.59113" lon="6.83633">
        <ele>215.1</ele>
        <time>2025-01-10T09:17:24.000Z</time>
      </trkpt>
      <trkpt lat="43.59112" lon="6.83628">
        <ele>215.2</ele>
        <time>2025-01-10T09:17:23.000Z</time>
      </trkpt>
      <trkpt lat="43.59113" lon="6.83624">
        <ele>215.3</ele>
        <time>2025-01-10T09:17:22.000Z</time>
      </trkpt>
      <trkpt lat="43.59115" lon="6.8362">
        <ele>215.4</ele>
        <time>2025-01-10T09:17:21.000Z</time>
      </trkpt>
      <trkpt lat="43.59119" lon="6.83618">
        <ele>215.6</ele>
        <time>2025-01-10T09:17:20.000Z</time>
      </trkpt>
      <trkpt lat="43.59124" lon="6.83618">
        <ele>215.8</ele>
        <time>2025-01-10T09:17:19.000Z</time>
      </trkpt>
      <trkpt lat="43.59128" lon="6.83617">
        <ele>216.1</ele>
        <time>2025-01-10T09:17:18.000Z</time>
      </trkpt>
      <trkpt lat="43.59132" lon="6.83615">
        <ele>216.4</ele>
        <time>2025-01-10T09:17:17.000Z</time>
      </trkpt>
      <trkpt lat="43.59135" lon="6.83612">
        <ele>216.7</ele>
        <time>2025-01-10T09:17:16.000Z</time>
      </trkpt>
      <trkpt lat="43.59138" lon="6.83609">
        <ele>217</ele>
        <time>2025-01-10T09:17:15.000Z</time>
      </trkpt>
      <trkpt lat="43.59142" lon="6.83604">
        <ele>217.4</ele>
        <time>2025-01-10T09:17:14.000Z</time>
      </trkpt>
      <trkpt lat="43.59144" lon="6.836">
        <ele>217.6</ele>
        <time>2025-01-10T09:17:13.000Z</time>
      </trkpt>
      <trkpt lat="43.59146" lon="6.83596">
        <ele>217.9</ele>
        <time>2025-01-10T09:17:12.000Z</time>
      </trkpt>
      <trkpt lat="43.59148" lon="6.8359">
        <ele>218.1</ele>
        <time>2025-01-10T09:17:11.000Z</time>
      </trkpt>
      <trkpt lat="43.59149" lon="6.83584">
        <ele>218.3</ele>
        <time>2025-01-10T09:17:10.000Z</time>
      </trkpt>
      <trkpt lat="43.5915" lon="6.83578">
        <ele>218.5</ele>
        <time>2025-01-10T09:17:09.000Z</time>
      </trkpt>
      <trkpt lat="43.59151" lon="6.83572">
        <ele>218.6</ele>
        <time>2025-01-10T09:17:08.000Z</time>
      </trkpt>
      <trkpt lat="43.59152" lon="6.83566">
        <ele>218.7</ele>
        <time>2025-01-10T09:17:07.000Z</time>
      </trkpt>
      <trkpt lat="43.59154" lon="6.8356">
        <ele>218.8</ele>
        <time>2025-01-10T09:17:06.000Z</time>
      </trkpt>
      <trkpt lat="43.59155" lon="6.83554">
        <ele>218.8</ele>
        <time>2025-01-10T09:17:05.000Z</time>
      </trkpt>
      <trkpt lat="43.59156" lon="6.83548">
        <ele>218.8</ele>
        <time>2025-01-10T09:17:04.000Z</time>
      </trkpt>
      <trkpt lat="43.59156" lon="6.83542">
        <ele>218.9</ele>
        <time>2025-01-10T09:17:03.000Z</time>
      </trkpt>
      <trkpt lat="43.59156" lon="6.83536">
        <ele>218.9</ele>
        <time>2025-01-10T09:17:02.000Z</time>
      </trkpt>
      <trkpt lat="43.59156" lon="6.8353">
        <ele>219</ele>
        <time>2025-01-10T09:17:01.000Z</time>
      </trkpt>
      <trkpt lat="43.59156" lon="6.83525">
        <ele>219</ele>
        <time>2025-01-10T09:17:00.000Z</time>
      </trkpt>
      <trkpt lat="43.59157" lon="6.83519">
        <ele>219</ele>
        <time>2025-01-10T09:16:59.000Z</time>
      </trkpt>
      <trkpt lat="43.59157" lon="6.83514">
        <ele>219</ele>
        <time>2025-01-10T09:16:58.000Z</time>
      </trkpt>
      <trkpt lat="43.59158" lon="6.83509">
        <ele>218.9</ele>
        <time>2025-01-10T09:16:57.000Z</time>
      </trkpt>
      <trkpt lat="43.59159" lon="6.83505">
        <ele>218.9</ele>
        <time>2025-01-10T09:16:56.000Z</time>
      </trkpt>
      <trkpt lat="43.5916" lon="6.83502">
        <ele>218.8</ele>
        <time>2025-01-10T09:16:55.000Z</time>
      </trkpt>
      <trkpt lat="43.59161" lon="6.83498">
        <ele>218.7</ele>
        <time>2025-01-10T09:16:54.000Z</time>
      </trkpt>
      <trkpt lat="43.59163" lon="6.83495">
        <ele>218.6</ele>
        <time>2025-01-10T09:16:53.000Z</time>
      </trkpt>
      <trkpt lat="43.59164" lon="6.83492">
        <ele>218.5</ele>
        <time>2025-01-10T09:16:52.000Z</time>
      </trkpt>
      <trkpt lat="43.59165" lon="6.83489">
        <ele>218.4</ele>
        <time>2025-01-10T09:16:51.000Z</time>
      </trkpt>
      <trkpt lat="43.59167" lon="6.83486">
        <ele>218.3</ele>
        <time>2025-01-10T09:16:50.000Z</time>
      </trkpt>
      <trkpt lat="43.59169" lon="6.83483">
        <ele>218.2</ele>
        <time>2025-01-10T09:16:49.000Z</time>
      </trkpt>
      <trkpt lat="43.59172" lon="6.83479">
        <ele>218</ele>
        <time>2025-01-10T09:16:48.000Z</time>
      </trkpt>
      <trkpt lat="43.59174" lon="6.83476">
        <ele>217.9</ele>
        <time>2025-01-10T09:16:47.000Z</time>
      </trkpt>
      <trkpt lat="43.59177" lon="6.83473">
        <ele>217.8</ele>
        <time>2025-01-10T09:16:46.000Z</time>
      </trkpt>
      <trkpt lat="43.5918" lon="6.83469">
        <ele>217.7</ele>
        <time>2025-01-10T09:16:45.000Z</time>
      </trkpt>
      <trkpt lat="43.59181" lon="6.83465">
        <ele>217.6</ele>
        <time>2025-01-10T09:16:44.000Z</time>
      </trkpt>
      <trkpt lat="43.59184" lon="6.83461">
        <ele>217.5</ele>
        <time>2025-01-10T09:16:43.000Z</time>
      </trkpt>
      <trkpt lat="43.59185" lon="6.83456">
        <ele>217.4</ele>
        <time>2025-01-10T09:16:42.000Z</time>
      </trkpt>
      <trkpt lat="43.59188" lon="6.83452">
        <ele>217.4</ele>
        <time>2025-01-10T09:16:41.000Z</time>
      </trkpt>
      <trkpt lat="43.59189" lon="6.83446">
        <ele>217.3</ele>
        <time>2025-01-10T09:16:40.000Z</time>
      </trkpt>
      <trkpt lat="43.59191" lon="6.83441">
        <ele>217.3</ele>
        <time>2025-01-10T09:16:39.000Z</time>
      </trkpt>
      <trkpt lat="43.59192" lon="6.83436">
        <ele>217.3</ele>
        <time>2025-01-10T09:16:38.000Z</time>
      </trkpt>
      <trkpt lat="43.59192" lon="6.8343">
        <ele>217.3</ele>
        <time>2025-01-10T09:16:37.000Z</time>
      </trkpt>
      <trkpt lat="43.59192" lon="6.83424">
        <ele>217.3</ele>
        <time>2025-01-10T09:16:36.000Z</time>
      </trkpt>
      <trkpt lat="43.59193" lon="6.83419">
        <ele>217.3</ele>
        <time>2025-01-10T09:16:35.000Z</time>
      </trkpt>
      <trkpt lat="43.59194" lon="6.83413">
        <ele>217.3</ele>
        <time>2025-01-10T09:16:34.000Z</time>
      </trkpt>
      <trkpt lat="43.59195" lon="6.83408">
        <ele>217.2</ele>
        <time>2025-01-10T09:16:33.000Z</time>
      </trkpt>
      <trkpt lat="43.59198" lon="6.83403">
        <ele>217.1</ele>
        <time>2025-01-10T09:16:32.000Z</time>
      </trkpt>
      <trkpt lat="43.59201" lon="6.83398">
        <ele>217</ele>
        <time>2025-01-10T09:16:31.000Z</time>
      </trkpt>
      <trkpt lat="43.59204" lon="6.83396">
        <ele>216.9</ele>
        <time>2025-01-10T09:16:30.000Z</time>
      </trkpt>
      <trkpt lat="43.59206" lon="6.83393">
        <ele>216.7</ele>
        <time>2025-01-10T09:16:29.000Z</time>
      </trkpt>
      <trkpt lat="43.59207" lon="6.8339">
        <ele>216.5</ele>
        <time>2025-01-10T09:16:28.000Z</time>
      </trkpt>
      <trkpt lat="43.59209" lon="6.83387">
        <ele>216.3</ele>
        <time>2025-01-10T09:16:27.000Z</time>
      </trkpt>
      <trkpt lat="43.59212" lon="6.83385">
        <ele>216.1</ele>
        <time>2025-01-10T09:16:26.000Z</time>
      </trkpt>
      <trkpt lat="43.59214" lon="6.83383">
        <ele>215.8</ele>
        <time>2025-01-10T09:16:25.000Z</time>
      </trkpt>
      <trkpt lat="43.59216" lon="6.8338">
        <ele>215.6</ele>
        <time>2025-01-10T09:16:24.000Z</time>
      </trkpt>
      <trkpt lat="43.59218" lon="6.83378">
        <ele>215.4</ele>
        <time>2025-01-10T09:16:23.000Z</time>
      </trkpt>
      <trkpt lat="43.5922" lon="6.83376">
        <ele>215.1</ele>
        <time>2025-01-10T09:16:22.000Z</time>
      </trkpt>
      <trkpt lat="43.59223" lon="6.83374">
        <ele>214.9</ele>
        <time>2025-01-10T09:16:21.000Z</time>
      </trkpt>
      <trkpt lat="43.59224" lon="6.83373">
        <ele>214.7</ele>
        <time>2025-01-10T09:16:20.000Z</time>
      </trkpt>
      <trkpt lat="43.59227" lon="6.83371">
        <ele>214.5</ele>
        <time>2025-01-10T09:16:19.000Z</time>
      </trkpt>
      <trkpt lat="43.59229" lon="6.83368">
        <ele>214.2</ele>
        <time>2025-01-10T09:16:18.000Z</time>
      </trkpt>
      <trkpt lat="43.59231" lon="6.83366">
        <ele>214</ele>
        <time>2025-01-10T09:16:17.000Z</time>
      </trkpt>
      <trkpt lat="43.59232" lon="6.83364">
        <ele>213.8</ele>
        <time>2025-01-10T09:16:16.000Z</time>
      </trkpt>
      <trkpt lat="43.59233" lon="6.83362">
        <ele>213.6</ele>
        <time>2025-01-10T09:16:15.000Z</time>
      </trkpt>
      <trkpt lat="43.59234" lon="6.83361">
        <ele>213.5</ele>
        <time>2025-01-10T09:16:14.000Z</time>
      </trkpt>
      <trkpt lat="43.59233" lon="6.8336">
        <ele>213.5</ele>
        <time>2025-01-10T09:16:13.000Z</time>
      </trkpt>
      <trkpt lat="43.59232" lon="6.83359">
        <ele>213.4</ele>
        <time>2025-01-10T09:16:12.000Z</time>
      </trkpt>
      <trkpt lat="43.59232" lon="6.83359">
        <ele>213.4</ele>
        <time>2025-01-10T09:16:11.000Z</time>
      </trkpt>
      <trkpt lat="43.59232" lon="6.83359">
        <ele>213.4</ele>
        <time>2025-01-10T09:16:10.000Z</time>
      </trkpt>
      <trkpt lat="43.59233" lon="6.83359">
        <ele>213.3</ele>
        <time>2025-01-10T09:16:09.000Z</time>
      </trkpt>
      <trkpt lat="43.59233" lon="6.83358">
        <ele>213.3</ele>
        <time>2025-01-10T09:16:08.000Z</time>
      </trkpt>
      <trkpt lat="43.59233" lon="6.83358">
        <ele>213.3</ele>
        <time>2025-01-10T09:16:07.000Z</time>
      </trkpt>
      <trkpt lat="43.59233" lon="6.83358">
        <ele>213.2</ele>
        <time>2025-01-10T09:16:06.000Z</time>
      </trkpt>
      <trkpt lat="43.59234" lon="6.83358">
        <ele>213.2</ele>
        <time>2025-01-10T09:16:05.000Z</time>
      </trkpt>
      <trkpt lat="43.59234" lon="6.83359">
        <ele>213.2</ele>
        <time>2025-01-10T09:16:04.000Z</time>
      </trkpt>
      <trkpt lat="43.59235" lon="6.83359">
        <ele>213.1</ele>
        <time>2025-01-10T09:16:03.000Z</time>
      </trkpt>
      <trkpt lat="43.59236" lon="6.8336">
        <ele>213</ele>
        <time>2025-01-10T09:16:02.000Z</time>
      </trkpt>
      <trkpt lat="43.59237" lon="6.83361">
        <ele>212.9</ele>
        <time>2025-01-10T09:16:01.000Z</time>
      </trkpt>
      <trkpt lat="43.59239" lon="6.83361">
        <ele>212.7</ele>
        <time>2025-01-10T09:16:00.000Z</time>
      </trkpt>
      <trkpt lat="43.5924" lon="6.83362">
        <ele>212.6</ele>
        <time>2025-01-10T09:15:59.000Z</time>
      </trkpt>
      <trkpt lat="43.59241" lon="6.83362">
        <ele>212.6</ele>
        <time>2025-01-10T09:15:58.000Z</time>
      </trkpt>
      <trkpt lat="43.59242" lon="6.83361">
        <ele>212.5</ele>
        <time>2025-01-10T09:15:57.000Z</time>
      </trkpt>
      <trkpt lat="43.59242" lon="6.8336">
        <ele>212.5</ele>
        <time>2025-01-10T09:15:56.000Z</time>
      </trkpt>
      <trkpt lat="43.59242" lon="6.83359">
        <ele>212.4</ele>
        <time>2025-01-10T09:15:55.000Z</time>
      </trkpt>
      <trkpt lat="43.59242" lon="6.83357">
        <ele>212.2</ele>
        <time>2025-01-10T09:15:54.000Z</time>
      </trkpt>
      <trkpt lat="43.59242" lon="6.83353">
        <ele>212.1</ele>
        <time>2025-01-10T09:15:53.000Z</time>
      </trkpt>
      <trkpt lat="43.59242" lon="6.8335">
        <ele>211.9</ele>
        <time>2025-01-10T09:15:52.000Z</time>
      </trkpt>
      <trkpt lat="43.59242" lon="6.83347">
        <ele>211.7</ele>
        <time>2025-01-10T09:15:51.000Z</time>
      </trkpt>
      <trkpt lat="43.59243" lon="6.83343">
        <ele>211.4</ele>
        <time>2025-01-10T09:15:50.000Z</time>
      </trkpt>
      <trkpt lat="43.59243" lon="6.83339">
        <ele>211.3</ele>
        <time>2025-01-10T09:15:49.000Z</time>
      </trkpt>
      <trkpt lat="43.59242" lon="6.83333">
        <ele>211.1</ele>
        <time>2025-01-10T09:15:48.000Z</time>
      </trkpt>
      <trkpt lat="43.59241" lon="6.83328">
        <ele>210.9</ele>
        <time>2025-01-10T09:15:47.000Z</time>
      </trkpt>
      <trkpt lat="43.59239" lon="6.83323">
        <ele>210.8</ele>
        <time>2025-01-10T09:15:46.000Z</time>
      </trkpt>
      <trkpt lat="43.59238" lon="6.83318">
        <ele>210.7</ele>
        <time>2025-01-10T09:15:45.000Z</time>
      </trkpt>
      <trkpt lat="43.59236" lon="6.83314">
        <ele>210.5</ele>
        <time>2025-01-10T09:15:44.000Z</time>
      </trkpt>
      <trkpt lat="43.59234" lon="6.8331">
        <ele>210.4</ele>
        <time>2025-01-10T09:15:43.000Z</time>
      </trkpt>
      <trkpt lat="43.59232" lon="6.83306">
        <ele>210.4</ele>
        <time>2025-01-10T09:15:42.000Z</time>
      </trkpt>
      <trkpt lat="43.59231" lon="6.83303">
        <ele>210.3</ele>
        <time>2025-01-10T09:15:41.000Z</time>
      </trkpt>
      <trkpt lat="43.59229" lon="6.83301">
        <ele>210.2</ele>
        <time>2025-01-10T09:15:40.000Z</time>
      </trkpt>
      <trkpt lat="43.59226" lon="6.83298">
        <ele>210.2</ele>
        <time>2025-01-10T09:15:39.000Z</time>
      </trkpt>
      <trkpt lat="43.59223" lon="6.83296">
        <ele>210.1</ele>
        <time>2025-01-10T09:15:38.000Z</time>
      </trkpt>
      <trkpt lat="43.59219" lon="6.83293">
        <ele>210</ele>
        <time>2025-01-10T09:15:37.000Z</time>
      </trkpt>
      <trkpt lat="43.59215" lon="6.83291">
        <ele>209.9</ele>
        <time>2025-01-10T09:15:36.000Z</time>
      </trkpt>
      <trkpt lat="43.59211" lon="6.83288">
        <ele>209.9</ele>
        <time>2025-01-10T09:15:35.000Z</time>
      </trkpt>
      <trkpt lat="43.59207" lon="6.83285">
        <ele>209.8</ele>
        <time>2025-01-10T09:15:34.000Z</time>
      </trkpt>
      <trkpt lat="43.59204" lon="6.83283">
        <ele>209.8</ele>
        <time>2025-01-10T09:15:33.000Z</time>
      </trkpt>
      <trkpt lat="43.59199" lon="6.8328">
        <ele>209.8</ele>
        <time>2025-01-10T09:15:32.000Z</time>
      </trkpt>
      <trkpt lat="43.59195" lon="6.83277">
        <ele>209.8</ele>
        <time>2025-01-10T09:15:31.000Z</time>
      </trkpt>
      <trkpt lat="43.59192" lon="6.83274">
        <ele>209.8</ele>
        <time>2025-01-10T09:15:30.000Z</time>
      </trkpt>
      <trkpt lat="43.59189" lon="6.83271">
        <ele>209.7</ele>
        <time>2025-01-10T09:15:29.000Z</time>
      </trkpt>
      <trkpt lat="43.59184" lon="6.83267">
        <ele>209.7</ele>
        <time>2025-01-10T09:15:28.000Z</time>
      </trkpt>
      <trkpt lat="43.59181" lon="6.83264">
        <ele>209.7</ele>
        <time>2025-01-10T09:15:27.000Z</time>
      </trkpt>
      <trkpt lat="43.59176" lon="6.83261">
        <ele>209.7</ele>
        <time>2025-01-10T09:15:26.000Z</time>
      </trkpt>
      <trkpt lat="43.59173" lon="6.83257">
        <ele>209.7</ele>
        <time>2025-01-10T09:15:25.000Z</time>
      </trkpt>
      <trkpt lat="43.5917" lon="6.83254">
        <ele>209.7</ele>
        <time>2025-01-10T09:15:24.000Z</time>
      </trkpt>
      <trkpt lat="43.59165" lon="6.8325">
        <ele>209.6</ele>
        <time>2025-01-10T09:15:23.000Z</time>
      </trkpt>
      <trkpt lat="43.59162" lon="6.83247">
        <ele>209.6</ele>
        <time>2025-01-10T09:15:22.000Z</time>
      </trkpt>
      <trkpt lat="43.59158" lon="6.83244">
        <ele>209.6</ele>
        <time>2025-01-10T09:15:21.000Z</time>
      </trkpt>
      <trkpt lat="43.59156" lon="6.83241">
        <ele>209.6</ele>
        <time>2025-01-10T09:15:20.000Z</time>
      </trkpt>
      <trkpt lat="43.59152" lon="6.83238">
        <ele>209.6</ele>
        <time>2025-01-10T09:15:19.000Z</time>
      </trkpt>
      <trkpt lat="43.59148" lon="6.83236">
        <ele>209.6</ele>
        <time>2025-01-10T09:15:18.000Z</time>
      </trkpt>
      <trkpt lat="43.59145" lon="6.83234">
        <ele>209.6</ele>
        <time>2025-01-10T09:15:17.000Z</time>
      </trkpt>
      <trkpt lat="43.59141" lon="6.83231">
        <ele>209.5</ele>
        <time>2025-01-10T09:15:16.000Z</time>
      </trkpt>
      <trkpt lat="43.59138" lon="6.83229">
        <ele>209.5</ele>
        <time>2025-01-10T09:15:15.000Z</time>
      </trkpt>
      <trkpt lat="43.59132" lon="6.83225">
        <ele>209.4</ele>
        <time>2025-01-10T09:15:14.000Z</time>
      </trkpt>
      <trkpt lat="43.59128" lon="6.83222">
        <ele>209.3</ele>
        <time>2025-01-10T09:15:13.000Z</time>
      </trkpt>
      <trkpt lat="43.59124" lon="6.83219">
        <ele>209.2</ele>
        <time>2025-01-10T09:15:12.000Z</time>
      </trkpt>
      <trkpt lat="43.59119" lon="6.83216">
        <ele>209.2</ele>
        <time>2025-01-10T09:15:11.000Z</time>
      </trkpt>
      <trkpt lat="43.59114" lon="6.83212">
        <ele>209.1</ele>
        <time>2025-01-10T09:15:10.000Z</time>
      </trkpt>
      <trkpt lat="43.59109" lon="6.83208">
        <ele>209</ele>
        <time>2025-01-10T09:15:09.000Z</time>
      </trkpt>
      <trkpt lat="43.59105" lon="6.83204">
        <ele>209</ele>
        <time>2025-01-10T09:15:08.000Z</time>
      </trkpt>
      <trkpt lat="43.59101" lon="6.83199">
        <ele>208.9</ele>
        <time>2025-01-10T09:15:07.000Z</time>
      </trkpt>
      <trkpt lat="43.59097" lon="6.83195">
        <ele>208.9</ele>
        <time>2025-01-10T09:15:06.000Z</time>
      </trkpt>
      <trkpt lat="43.59094" lon="6.83193">
        <ele>209</ele>
        <time>2025-01-10T09:15:05.000Z</time>
      </trkpt>
      <trkpt lat="43.5909" lon="6.83189">
        <ele>209</ele>
        <time>2025-01-10T09:15:04.000Z</time>
      </trkpt>
      <trkpt lat="43.59086" lon="6.83186">
        <ele>209</ele>
        <time>2025-01-10T09:15:03.000Z</time>
      </trkpt>
      <trkpt lat="43.59083" lon="6.83183">
        <ele>209.1</ele>
        <time>2025-01-10T09:15:02.000Z</time>
      </trkpt>
      <trkpt lat="43.59081" lon="6.83181">
        <ele>209.1</ele>
        <time>2025-01-10T09:15:01.000Z</time>
      </trkpt>
      <trkpt lat="43.59078" lon="6.83179">
        <ele>209.1</ele>
        <time>2025-01-10T09:15:00.000Z</time>
      </trkpt>
      <trkpt lat="43.59076" lon="6.83177">
        <ele>209.2</ele>
        <time>2025-01-10T09:14:59.000Z</time>
      </trkpt>
      <trkpt lat="43.59072" lon="6.83175">
        <ele>209.2</ele>
        <time>2025-01-10T09:14:58.000Z</time>
      </trkpt>
      <trkpt lat="43.59069" lon="6.83174">
        <ele>209.2</ele>
        <time>2025-01-10T09:14:57.000Z</time>
      </trkpt>
      <trkpt lat="43.59065" lon="6.83173">
        <ele>209.2</ele>
        <time>2025-01-10T09:14:56.000Z</time>
      </trkpt>
      <trkpt lat="43.59061" lon="6.83172">
        <ele>209.3</ele>
        <time>2025-01-10T09:14:55.000Z</time>
      </trkpt>
      <trkpt lat="43.59056" lon="6.83171">
        <ele>209.2</ele>
        <time>2025-01-10T09:14:54.000Z</time>
      </trkpt>
      <trkpt lat="43.59052" lon="6.8317">
        <ele>209.2</ele>
        <time>2025-01-10T09:14:53.000Z</time>
      </trkpt>
      <trkpt lat="43.59049" lon="6.83168">
        <ele>209.1</ele>
        <time>2025-01-10T09:14:52.000Z</time>
      </trkpt>
      <trkpt lat="43.59046" lon="6.83165">
        <ele>209</ele>
        <time>2025-01-10T09:14:51.000Z</time>
      </trkpt>
      <trkpt lat="43.59046" lon="6.83165">
        <ele>209</ele>
        <time>2025-01-10T09:14:50.000Z</time>
      </trkpt>
      <trkpt lat="43.59046" lon="6.83165">
        <ele>209</ele>
        <time>2025-01-10T09:14:49.000Z</time>
      </trkpt>
      <trkpt lat="43.59046" lon="6.83165">
        <ele>209</ele>
        <time>2025-01-10T09:14:48.000Z</time>
      </trkpt>
      <trkpt lat="43.59046" lon="6.83165">
        <ele>209</ele>
        <time>2025-01-10T09:14:47.000Z</time>
      </trkpt>
      <trkpt lat="43.59046" lon="6.83165">
        <ele>209</ele>
        <time>2025-01-10T09:14:46.000Z</time>
      </trkpt>
      <trkpt lat="43.59046" lon="6.83165">
        <ele>209</ele>
        <time>2025-01-10T09:14:45.000Z</time>
      </trkpt>
      <trkpt lat="43.59046" lon="6.83165">
        <ele>209</ele>
        <time>2025-01-10T09:14:44.000Z</time>
      </trkpt>
      <trkpt lat="43.59046" lon="6.83165">
        <ele>209</ele>
        <time>2025-01-10T09:14:43.000Z</time>
      </trkpt>
      <trkpt lat="43.59046" lon="6.83165">
        <ele>209</ele>
        <time>2025-01-10T09:14:42.000Z</time>
      </trkpt>
      <trkpt lat="43.59046" lon="6.83165">
        <ele>209</ele>
        <time>2025-01-10T09:14:41.000Z</time>
      </trkpt>
      <trkpt lat="43.59046" lon="6.83165">
        <ele>209</ele>
        <time>2025-01-10T09:14:40.000Z</time>
      </trkpt>
      <trkpt lat="43.59045" lon="6.83166">
        <ele>209</ele>
        <time>2025-01-10T09:14:39.000Z</time>
      </trkpt>
      <trkpt lat="43.59045" lon="6.83166">
        <ele>209</ele>
        <time>2025-01-10T09:14:38.000Z</time>
      </trkpt>
      <trkpt lat="43.59045" lon="6.83166">
        <ele>209</ele>
        <time>2025-01-10T09:14:37.000Z</time>
      </trkpt>
      <trkpt lat="43.59045" lon="6.83166">
        <ele>209</ele>
        <time>2025-01-10T09:14:36.000Z</time>
      </trkpt>
      <trkpt lat="43.59045" lon="6.83167">
        <ele>209</ele>
        <time>2025-01-10T09:14:35.000Z</time>
      </trkpt>
      <trkpt lat="43.59045" lon="6.83167">
        <ele>209</ele>
        <time>2025-01-10T09:14:34.000Z</time>
      </trkpt>
      <trkpt lat="43.59045" lon="6.83167">
        <ele>209</ele>
        <time>2025-01-10T09:14:33.000Z</time>
      </trkpt>
      <trkpt lat="43.59045" lon="6.83167">
        <ele>209</ele>
        <time>2025-01-10T09:14:32.000Z</time>
      </trkpt>
      <trkpt lat="43.59044" lon="6.83167">
        <ele>209</ele>
        <time>2025-01-10T09:14:31.000Z</time>
      </trkpt>
      <trkpt lat="43.59043" lon="6.83168">
        <ele>209</ele>
        <time>2025-01-10T09:14:30.000Z</time>
      </trkpt>
      <trkpt lat="43.59043" lon="6.83168">
        <ele>208.9</ele>
        <time>2025-01-10T09:14:29.000Z</time>
      </trkpt>
      <trkpt lat="43.59042" lon="6.83168">
        <ele>208.9</ele>
        <time>2025-01-10T09:14:28.000Z</time>
      </trkpt>
      <trkpt lat="43.59041" lon="6.83168">
        <ele>208.9</ele>
        <time>2025-01-10T09:14:27.000Z</time>
      </trkpt>
      <trkpt lat="43.59041" lon="6.83166">
        <ele>208.9</ele>
        <time>2025-01-10T09:14:26.000Z</time>
      </trkpt>
      <trkpt lat="43.5904" lon="6.83164">
        <ele>208.9</ele>
        <time>2025-01-10T09:14:25.000Z</time>
      </trkpt>
      <trkpt lat="43.5904" lon="6.83164">
        <ele>208.9</ele>
        <time>2025-01-10T09:14:24.000Z</time>
      </trkpt>
      <trkpt lat="43.5904" lon="6.83164">
        <ele>208.9</ele>
        <time>2025-01-10T09:14:23.000Z</time>
      </trkpt>
      <trkpt lat="43.5904" lon="6.83164">
        <ele>208.9</ele>
        <time>2025-01-10T09:14:22.000Z</time>
      </trkpt>
      <trkpt lat="43.5904" lon="6.83164">
        <ele>208.9</ele>
        <time>2025-01-10T09:14:21.000Z</time>
      </trkpt>
      <trkpt lat="43.5904" lon="6.83164">
        <ele>208.9</ele>
        <time>2025-01-10T09:14:20.000Z</time>
      </trkpt>
      <trkpt lat="43.5904" lon="6.83164">
        <ele>208.9</ele>
        <time>2025-01-10T09:14:19.000Z</time>
      </trkpt>
      <trkpt lat="43.5904" lon="6.83164">
        <ele>208.9</ele>
        <time>2025-01-10T09:14:18.000Z</time>
      </trkpt>
      <trkpt lat="43.5904" lon="6.83164">
        <ele>208.8</ele>
        <time>2025-01-10T09:14:17.000Z</time>
      </trkpt>
      <trkpt lat="43.5904" lon="6.83164">
        <ele>208.8</ele>
        <time>2025-01-10T09:14:16.000Z</time>
      </trkpt>
      <trkpt lat="43.5904" lon="6.83164">
        <ele>208.8</ele>
        <time>2025-01-10T09:14:15.000Z</time>
      </trkpt>
      <trkpt lat="43.5904" lon="6.83164">
        <ele>208.8</ele>
        <time>2025-01-10T09:14:14.000Z</time>
      </trkpt>
      <trkpt lat="43.5904" lon="6.83164">
        <ele>208.8</ele>
        <time>2025-01-10T09:14:13.000Z</time>
      </trkpt>
      <trkpt lat="43.5904" lon="6.83164">
        <ele>208.8</ele>
        <time>2025-01-10T09:14:12.000Z</time>
      </trkpt>
      <trkpt lat="43.5904" lon="6.83164">
        <ele>208.8</ele>
        <time>2025-01-10T09:14:11.000Z</time>
      </trkpt>
      <trkpt lat="43.5904" lon="6.83164">
        <ele>208.8</ele>
        <time>2025-01-10T09:14:10.000Z</time>
      </trkpt>
      <trkpt lat="43.5904" lon="6.83164">
        <ele>208.8</ele>
        <time>2025-01-10T09:14:09.000Z</time>
      </trkpt>
      <trkpt lat="43.5904" lon="6.83164">
        <ele>208.8</ele>
        <time>2025-01-10T09:14:08.000Z</time>
      </trkpt>
      <trkpt lat="43.5904" lon="6.83164">
        <ele>208.8</ele>
        <time>2025-01-10T09:14:07.000Z</time>
      </trkpt>
      <trkpt lat="43.5904" lon="6.83164">
        <ele>208.8</ele>
        <time>2025-01-10T09:14:06.000Z</time>
      </trkpt>
      <trkpt lat="43.5904" lon="6.83165">
        <ele>208.8</ele>
        <time>2025-01-10T09:14:05.000Z</time>
      </trkpt>
      <trkpt lat="43.5904" lon="6.83165">
        <ele>208.8</ele>
        <time>2025-01-10T09:14:04.000Z</time>
      </trkpt>
      <trkpt lat="43.5904" lon="6.83165">
        <ele>208.8</ele>
        <time>2025-01-10T09:14:03.000Z</time>
      </trkpt>
      <trkpt lat="43.5904" lon="6.83165">
        <ele>208.8</ele>
        <time>2025-01-10T09:14:02.000Z</time>
      </trkpt>
      <trkpt lat="43.5904" lon="6.83165">
        <ele>208.8</ele>
        <time>2025-01-10T09:14:01.000Z</time>
      </trkpt>
      <trkpt lat="43.59039" lon="6.83165">
        <ele>208.8</ele>
        <time>2025-01-10T09:14:00.000Z</time>
      </trkpt>
      <trkpt lat="43.59039" lon="6.83165">
        <ele>208.8</ele>
        <time>2025-01-10T09:13:59.000Z</time>
      </trkpt>
      <trkpt lat="43.59039" lon="6.83165">
        <ele>208.8</ele>
        <time>2025-01-10T09:13:58.000Z</time>
      </trkpt>
      <trkpt lat="43.59039" lon="6.83165">
        <ele>208.8</ele>
        <time>2025-01-10T09:13:57.000Z</time>
      </trkpt>
      <trkpt lat="43.59039" lon="6.83165">
        <ele>208.8</ele>
        <time>2025-01-10T09:13:56.000Z</time>
      </trkpt>
      <trkpt lat="43.59039" lon="6.83165">
        <ele>208.8</ele>
        <time>2025-01-10T09:13:55.000Z</time>
      </trkpt>
      <trkpt lat="43.59039" lon="6.83165">
        <ele>208.8</ele>
        <time>2025-01-10T09:13:54.000Z</time>
      </trkpt>
      <trkpt lat="43.59038" lon="6.83165">
        <ele>208.8</ele>
        <time>2025-01-10T09:13:53.000Z</time>
      </trkpt>
      <trkpt lat="43.59038" lon="6.83165">
        <ele>208.8</ele>
        <time>2025-01-10T09:13:52.000Z</time>
      </trkpt>
      <trkpt lat="43.59038" lon="6.83165">
        <ele>208.8</ele>
        <time>2025-01-10T09:13:51.000Z</time>
      </trkpt>
      <trkpt lat="43.59038" lon="6.83165">
        <ele>208.8</ele>
        <time>2025-01-10T09:13:50.000Z</time>
      </trkpt>
      <trkpt lat="43.59037" lon="6.83165">
        <ele>208.8</ele>
        <time>2025-01-10T09:13:49.000Z</time>
      </trkpt>
      <trkpt lat="43.59037" lon="6.83165">
        <ele>208.8</ele>
        <time>2025-01-10T09:13:48.000Z</time>
      </trkpt>
      <trkpt lat="43.59036" lon="6.83165">
        <ele>208.8</ele>
        <time>2025-01-10T09:13:47.000Z</time>
      </trkpt>
      <trkpt lat="43.59036" lon="6.83166">
        <ele>208.8</ele>
        <time>2025-01-10T09:13:46.000Z</time>
      </trkpt>
      <trkpt lat="43.59036" lon="6.83167">
        <ele>208.8</ele>
        <time>2025-01-10T09:13:45.000Z</time>
      </trkpt>
      <trkpt lat="43.59036" lon="6.83167">
        <ele>208.8</ele>
        <time>2025-01-10T09:13:44.000Z</time>
      </trkpt>
      <trkpt lat="43.59035" lon="6.83167">
        <ele>208.8</ele>
        <time>2025-01-10T09:13:43.000Z</time>
      </trkpt>
      <trkpt lat="43.59035" lon="6.83167">
        <ele>208.8</ele>
        <time>2025-01-10T09:13:42.000Z</time>
      </trkpt>
      <trkpt lat="43.59035" lon="6.83167">
        <ele>208.8</ele>
        <time>2025-01-10T09:13:41.000Z</time>
      </trkpt>
      <trkpt lat="43.59035" lon="6.83168">
        <ele>208.8</ele>
        <time>2025-01-10T09:13:40.000Z</time>
      </trkpt>
      <trkpt lat="43.59035" lon="6.83168">
        <ele>208.8</ele>
        <time>2025-01-10T09:13:39.000Z</time>
      </trkpt>
      <trkpt lat="43.59034" lon="6.83168">
        <ele>208.8</ele>
        <time>2025-01-10T09:13:38.000Z</time>
      </trkpt>
      <trkpt lat="43.59034" lon="6.83168">
        <ele>208.8</ele>
        <time>2025-01-10T09:13:37.000Z</time>
      </trkpt>
      <trkpt lat="43.59034" lon="6.83168">
        <ele>208.8</ele>
        <time>2025-01-10T09:13:36.000Z</time>
      </trkpt>
      <trkpt lat="43.59034" lon="6.83169">
        <ele>208.8</ele>
        <time>2025-01-10T09:13:35.000Z</time>
      </trkpt>
      <trkpt lat="43.59033" lon="6.83169">
        <ele>208.8</ele>
        <time>2025-01-10T09:13:34.000Z</time>
      </trkpt>
      <trkpt lat="43.59033" lon="6.83169">
        <ele>208.8</ele>
        <time>2025-01-10T09:13:33.000Z</time>
      </trkpt>
      <trkpt lat="43.59033" lon="6.83169">
        <ele>208.8</ele>
        <time>2025-01-10T09:13:32.000Z</time>
      </trkpt>
      <trkpt lat="43.59033" lon="6.83169">
        <ele>208.8</ele>
        <time>2025-01-10T09:13:31.000Z</time>
      </trkpt>
      <trkpt lat="43.59033" lon="6.83169">
        <ele>208.8</ele>
        <time>2025-01-10T09:13:30.000Z</time>
      </trkpt>
      <trkpt lat="43.59033" lon="6.83169">
        <ele>208.8</ele>
        <time>2025-01-10T09:13:29.000Z</time>
      </trkpt>
      <trkpt lat="43.59033" lon="6.83169">
        <ele>208.8</ele>
        <time>2025-01-10T09:13:28.000Z</time>
      </trkpt>
      <trkpt lat="43.59032" lon="6.83169">
        <ele>208.8</ele>
        <time>2025-01-10T09:13:27.000Z</time>
      </trkpt>
      <trkpt lat="43.59032" lon="6.83169">
        <ele>208.8</ele>
        <time>2025-01-10T09:13:26.000Z</time>
      </trkpt>
      <trkpt lat="43.59032" lon="6.83169">
        <ele>208.8</ele>
        <time>2025-01-10T09:13:25.000Z</time>
      </trkpt>
      <trkpt lat="43.59032" lon="6.83169">
        <ele>208.8</ele>
        <time>2025-01-10T09:13:24.000Z</time>
      </trkpt>
      <trkpt lat="43.59032" lon="6.83169">
        <ele>208.8</ele>
        <time>2025-01-10T09:13:23.000Z</time>
      </trkpt>
      <trkpt lat="43.59031" lon="6.83169">
        <ele>208.8</ele>
        <time>2025-01-10T09:13:22.000Z</time>
      </trkpt>
      <trkpt lat="43.59031" lon="6.83169">
        <ele>208.8</ele>
        <time>2025-01-10T09:13:21.000Z</time>
      </trkpt>
      <trkpt lat="43.59031" lon="6.83169">
        <ele>208.8</ele>
        <time>2025-01-10T09:13:20.000Z</time>
      </trkpt>
      <trkpt lat="43.59031" lon="6.83169">
        <ele>208.8</ele>
        <time>2025-01-10T09:13:19.000Z</time>
      </trkpt>
      <trkpt lat="43.59031" lon="6.83169">
        <ele>208.8</ele>
        <time>2025-01-10T09:13:18.000Z</time>
      </trkpt>
      <trkpt lat="43.59031" lon="6.83169">
        <ele>208.8</ele>
        <time>2025-01-10T09:13:17.000Z</time>
      </trkpt>
      <trkpt lat="43.59031" lon="6.83169">
        <ele>208.8</ele>
        <time>2025-01-10T09:13:16.000Z</time>
      </trkpt>
      <trkpt lat="43.59031" lon="6.83169">
        <ele>208.8</ele>
        <time>2025-01-10T09:13:15.000Z</time>
      </trkpt>
      <trkpt lat="43.59031" lon="6.83169">
        <ele>208.8</ele>
        <time>2025-01-10T09:13:14.000Z</time>
      </trkpt>
      <trkpt lat="43.59031" lon="6.83168">
        <ele>208.8</ele>
        <time>2025-01-10T09:13:13.000Z</time>
      </trkpt>
      <trkpt lat="43.59031" lon="6.83168">
        <ele>208.8</ele>
        <time>2025-01-10T09:13:12.000Z</time>
      </trkpt>
      <trkpt lat="43.59031" lon="6.83167">
        <ele>208.8</ele>
        <time>2025-01-10T09:13:11.000Z</time>
      </trkpt>
      <trkpt lat="43.59031" lon="6.83167">
        <ele>208.8</ele>
        <time>2025-01-10T09:13:10.000Z</time>
      </trkpt>
      <trkpt lat="43.59031" lon="6.83167">
        <ele>208.8</ele>
        <time>2025-01-10T09:13:09.000Z</time>
      </trkpt>
      <trkpt lat="43.59031" lon="6.83167">
        <ele>208.8</ele>
        <time>2025-01-10T09:13:08.000Z</time>
      </trkpt>
      <trkpt lat="43.59031" lon="6.83167">
        <ele>208.8</ele>
        <time>2025-01-10T09:13:07.000Z</time>
      </trkpt>
      <trkpt lat="43.59031" lon="6.83167">
        <ele>208.8</ele>
        <time>2025-01-10T09:13:06.000Z</time>
      </trkpt>
      <trkpt lat="43.59032" lon="6.83167">
        <ele>208.8</ele>
        <time>2025-01-10T09:13:05.000Z</time>
      </trkpt>
      <trkpt lat="43.59033" lon="6.83167">
        <ele>208.8</ele>
        <time>2025-01-10T09:13:04.000Z</time>
      </trkpt>
      <trkpt lat="43.59033" lon="6.83167">
        <ele>208.8</ele>
        <time>2025-01-10T09:13:03.000Z</time>
      </trkpt>
      <trkpt lat="43.59034" lon="6.83167">
        <ele>208.8</ele>
        <time>2025-01-10T09:13:02.000Z</time>
      </trkpt>
      <trkpt lat="43.59034" lon="6.83167">
        <ele>208.8</ele>
        <time>2025-01-10T09:13:01.000Z</time>
      </trkpt>
      <trkpt lat="43.59034" lon="6.83167">
        <ele>208.8</ele>
        <time>2025-01-10T09:13:00.000Z</time>
      </trkpt>
      <trkpt lat="43.59034" lon="6.83166">
        <ele>208.8</ele>
        <time>2025-01-10T09:12:59.000Z</time>
      </trkpt>
      <trkpt lat="43.59034" lon="6.83166">
        <ele>208.8</ele>
        <time>2025-01-10T09:12:58.000Z</time>
      </trkpt>
      <trkpt lat="43.59034" lon="6.83166">
        <ele>208.8</ele>
        <time>2025-01-10T09:12:57.000Z</time>
      </trkpt>
      <trkpt lat="43.59034" lon="6.83165">
        <ele>208.8</ele>
        <time>2025-01-10T09:12:56.000Z</time>
      </trkpt>
      <trkpt lat="43.59034" lon="6.83165">
        <ele>208.8</ele>
        <time>2025-01-10T09:12:55.000Z</time>
      </trkpt>
      <trkpt lat="43.59034" lon="6.83165">
        <ele>208.8</ele>
        <time>2025-01-10T09:12:54.000Z</time>
      </trkpt>
      <trkpt lat="43.59034" lon="6.83165">
        <ele>208.8</ele>
        <time>2025-01-10T09:12:53.000Z</time>
      </trkpt>
      <trkpt lat="43.59034" lon="6.83165">
        <ele>208.8</ele>
        <time>2025-01-10T09:12:52.000Z</time>
      </trkpt>
      <trkpt lat="43.59034" lon="6.83165">
        <ele>208.8</ele>
        <time>2025-01-10T09:12:51.000Z</time>
      </trkpt>
      <trkpt lat="43.59034" lon="6.83165">
        <ele>208.8</ele>
        <time>2025-01-10T09:12:50.000Z</time>
      </trkpt>
      <trkpt lat="43.59034" lon="6.83165">
        <ele>208.8</ele>
        <time>2025-01-10T09:12:49.000Z</time>
      </trkpt>
      <trkpt lat="43.59035" lon="6.83165">
        <ele>208.8</ele>
        <time>2025-01-10T09:12:48.000Z</time>
      </trkpt>
      <trkpt lat="43.59036" lon="6.83165">
        <ele>208.8</ele>
        <time>2025-01-10T09:12:47.000Z</time>
      </trkpt>
      <trkpt lat="43.59037" lon="6.83165">
        <ele>208.8</ele>
        <time>2025-01-10T09:12:46.000Z</time>
      </trkpt>
      <trkpt lat="43.59038" lon="6.83165">
        <ele>208.8</ele>
        <time>2025-01-10T09:12:45.000Z</time>
      </trkpt>
      <trkpt lat="43.59039" lon="6.83164">
        <ele>208.8</ele>
        <time>2025-01-10T09:12:44.000Z</time>
      </trkpt>
      <trkpt lat="43.59039" lon="6.83163">
        <ele>208.8</ele>
        <time>2025-01-10T09:12:43.000Z</time>
      </trkpt>
      <trkpt lat="43.5904" lon="6.83163">
        <ele>208.8</ele>
        <time>2025-01-10T09:12:42.000Z</time>
      </trkpt>
      <trkpt lat="43.5904" lon="6.83162">
        <ele>208.9</ele>
        <time>2025-01-10T09:12:41.000Z</time>
      </trkpt>
      <trkpt lat="43.5904" lon="6.83162">
        <ele>208.9</ele>
        <time>2025-01-10T09:12:40.000Z</time>
      </trkpt>
      <trkpt lat="43.5904" lon="6.83162">
        <ele>208.9</ele>
        <time>2025-01-10T09:12:39.000Z</time>
      </trkpt>
      <trkpt lat="43.5904" lon="6.83162">
        <ele>208.9</ele>
        <time>2025-01-10T09:12:38.000Z</time>
      </trkpt>
      <trkpt lat="43.5904" lon="6.83162">
        <ele>208.9</ele>
        <time>2025-01-10T09:12:37.000Z</time>
      </trkpt>
      <trkpt lat="43.5904" lon="6.83162">
        <ele>208.9</ele>
        <time>2025-01-10T09:12:36.000Z</time>
      </trkpt>
      <trkpt lat="43.5904" lon="6.83162">
        <ele>208.9</ele>
        <time>2025-01-10T09:12:35.000Z</time>
      </trkpt>
      <trkpt lat="43.5904" lon="6.83162">
        <ele>208.9</ele>
        <time>2025-01-10T09:12:34.000Z</time>
      </trkpt>
      <trkpt lat="43.5904" lon="6.83162">
        <ele>208.9</ele>
        <time>2025-01-10T09:12:33.000Z</time>
      </trkpt>
      <trkpt lat="43.5904" lon="6.83162">
        <ele>208.9</ele>
        <time>2025-01-10T09:12:32.000Z</time>
      </trkpt>
      <trkpt lat="43.59039" lon="6.83162">
        <ele>208.9</ele>
        <time>2025-01-10T09:12:31.000Z</time>
      </trkpt>
      <trkpt lat="43.59039" lon="6.83162">
        <ele>208.9</ele>
        <time>2025-01-10T09:12:30.000Z</time>
      </trkpt>
      <trkpt lat="43.59039" lon="6.83163">
        <ele>208.9</ele>
        <time>2025-01-10T09:12:29.000Z</time>
      </trkpt>
      <trkpt lat="43.59039" lon="6.83163">
        <ele>208.9</ele>
        <time>2025-01-10T09:12:28.000Z</time>
      </trkpt>
      <trkpt lat="43.59038" lon="6.83163">
        <ele>208.9</ele>
        <time>2025-01-10T09:12:27.000Z</time>
      </trkpt>
      <trkpt lat="43.59038" lon="6.83163">
        <ele>208.9</ele>
        <time>2025-01-10T09:12:26.000Z</time>
      </trkpt>
      <trkpt lat="43.59038" lon="6.83164">
        <ele>208.9</ele>
        <time>2025-01-10T09:12:25.000Z</time>
      </trkpt>
      <trkpt lat="43.59038" lon="6.83164">
        <ele>208.9</ele>
        <time>2025-01-10T09:12:24.000Z</time>
      </trkpt>
      <trkpt lat="43.59038" lon="6.83164">
        <ele>208.9</ele>
        <time>2025-01-10T09:12:23.000Z</time>
      </trkpt>
      <trkpt lat="43.59038" lon="6.83164">
        <ele>208.9</ele>
        <time>2025-01-10T09:12:22.000Z</time>
      </trkpt>
      <trkpt lat="43.59037" lon="6.83164">
        <ele>208.9</ele>
        <time>2025-01-10T09:12:21.000Z</time>
      </trkpt>
      <trkpt lat="43.59037" lon="6.83164">
        <ele>208.9</ele>
        <time>2025-01-10T09:12:20.000Z</time>
      </trkpt>
      <trkpt lat="43.59037" lon="6.83164">
        <ele>208.9</ele>
        <time>2025-01-10T09:12:19.000Z</time>
      </trkpt>
      <trkpt lat="43.59037" lon="6.83164">
        <ele>208.9</ele>
        <time>2025-01-10T09:12:18.000Z</time>
      </trkpt>
      <trkpt lat="43.59037" lon="6.83164">
        <ele>208.9</ele>
        <time>2025-01-10T09:12:17.000Z</time>
      </trkpt>
      <trkpt lat="43.59037" lon="6.83164">
        <ele>208.9</ele>
        <time>2025-01-10T09:12:16.000Z</time>
      </trkpt>
      <trkpt lat="43.59037" lon="6.83164">
        <ele>208.9</ele>
        <time>2025-01-10T09:12:15.000Z</time>
      </trkpt>
      <trkpt lat="43.59037" lon="6.83164">
        <ele>208.9</ele>
        <time>2025-01-10T09:12:14.000Z</time>
      </trkpt>
      <trkpt lat="43.59037" lon="6.83164">
        <ele>208.9</ele>
        <time>2025-01-10T09:12:13.000Z</time>
      </trkpt>
      <trkpt lat="43.59037" lon="6.83164">
        <ele>208.9</ele>
        <time>2025-01-10T09:12:12.000Z</time>
      </trkpt>
      <trkpt lat="43.59037" lon="6.83164">
        <ele>208.9</ele>
        <time>2025-01-10T09:12:11.000Z</time>
      </trkpt>
      <trkpt lat="43.59037" lon="6.83164">
        <ele>208.9</ele>
        <time>2025-01-10T09:12:10.000Z</time>
      </trkpt>
      <trkpt lat="43.59037" lon="6.83164">
        <ele>208.9</ele>
        <time>2025-01-10T09:12:09.000Z</time>
      </trkpt>
      <trkpt lat="43.59036" lon="6.83164">
        <ele>208.9</ele>
        <time>2025-01-10T09:12:08.000Z</time>
      </trkpt>
      <trkpt lat="43.59036" lon="6.83164">
        <ele>208.9</ele>
        <time>2025-01-10T09:12:07.000Z</time>
      </trkpt>
      <trkpt lat="43.59036" lon="6.83164">
        <ele>208.9</ele>
        <time>2025-01-10T09:12:06.000Z</time>
      </trkpt>
      <trkpt lat="43.59036" lon="6.83164">
        <ele>208.9</ele>
        <time>2025-01-10T09:12:05.000Z</time>
      </trkpt>
      <trkpt lat="43.59036" lon="6.83164">
        <ele>208.9</ele>
        <time>2025-01-10T09:12:04.000Z</time>
      </trkpt>
      <trkpt lat="43.59036" lon="6.83164">
        <ele>208.9</ele>
        <time>2025-01-10T09:12:03.000Z</time>
      </trkpt>
      <trkpt lat="43.59036" lon="6.83164">
        <ele>208.9</ele>
        <time>2025-01-10T09:12:02.000Z</time>
      </trkpt>
      <trkpt lat="43.59036" lon="6.83164">
        <ele>208.9</ele>
        <time>2025-01-10T09:12:01.000Z</time>
      </trkpt>
      <trkpt lat="43.59036" lon="6.83164">
        <ele>208.9</ele>
        <time>2025-01-10T09:12:00.000Z</time>
      </trkpt>
      <trkpt lat="43.59036" lon="6.83164">
        <ele>208.9</ele>
        <time>2025-01-10T09:11:59.000Z</time>
      </trkpt>
      <trkpt lat="43.59036" lon="6.83164">
        <ele>208.9</ele>
        <time>2025-01-10T09:11:58.000Z</time>
      </trkpt>
      <trkpt lat="43.59036" lon="6.83164">
        <ele>208.9</ele>
        <time>2025-01-10T09:11:57.000Z</time>
      </trkpt>
      <trkpt lat="43.59037" lon="6.83164">
        <ele>208.9</ele>
        <time>2025-01-10T09:11:56.000Z</time>
      </trkpt>
      <trkpt lat="43.59036" lon="6.83163">
        <ele>208.9</ele>
        <time>2025-01-10T09:11:55.000Z</time>
      </trkpt>
      <trkpt lat="43.59036" lon="6.83162">
        <ele>208.9</ele>
        <time>2025-01-10T09:11:54.000Z</time>
      </trkpt>
      <trkpt lat="43.59036" lon="6.83161">
        <ele>208.9</ele>
        <time>2025-01-10T09:11:53.000Z</time>
      </trkpt>
      <trkpt lat="43.59037" lon="6.83161">
        <ele>208.9</ele>
        <time>2025-01-10T09:11:52.000Z</time>
      </trkpt>
      <trkpt lat="43.59038" lon="6.83162">
        <ele>209</ele>
        <time>2025-01-10T09:11:51.000Z</time>
      </trkpt>
      <trkpt lat="43.59039" lon="6.83162">
        <ele>209</ele>
        <time>2025-01-10T09:11:50.000Z</time>
      </trkpt>
      <trkpt lat="43.59039" lon="6.83162">
        <ele>209</ele>
        <time>2025-01-10T09:11:49.000Z</time>
      </trkpt>
      <trkpt lat="43.5904" lon="6.83162">
        <ele>209</ele>
        <time>2025-01-10T09:11:48.000Z</time>
      </trkpt>
      <trkpt lat="43.5904" lon="6.83162">
        <ele>209</ele>
        <time>2025-01-10T09:11:47.000Z</time>
      </trkpt>
      <trkpt lat="43.59041" lon="6.83161">
        <ele>209</ele>
        <time>2025-01-10T09:11:46.000Z</time>
      </trkpt>
      <trkpt lat="43.59041" lon="6.83161">
        <ele>209</ele>
        <time>2025-01-10T09:11:45.000Z</time>
      </trkpt>
      <trkpt lat="43.59042" lon="6.83161">
        <ele>209</ele>
        <time>2025-01-10T09:11:44.000Z</time>
      </trkpt>
      <trkpt lat="43.59042" lon="6.83161">
        <ele>209</ele>
        <time>2025-01-10T09:11:43.000Z</time>
      </trkpt>
      <trkpt lat="43.59043" lon="6.83162">
        <ele>209.1</ele>
        <time>2025-01-10T09:11:42.000Z</time>
      </trkpt>
      <trkpt lat="43.59044" lon="6.83162">
        <ele>209.1</ele>
        <time>2025-01-10T09:11:41.000Z</time>
      </trkpt>
      <trkpt lat="43.59044" lon="6.83162">
        <ele>209.1</ele>
        <time>2025-01-10T09:11:40.000Z</time>
      </trkpt>
      <trkpt lat="43.59044" lon="6.83162">
        <ele>209.1</ele>
        <time>2025-01-10T09:11:39.000Z</time>
      </trkpt>
      <trkpt lat="43.59044" lon="6.83162">
        <ele>209.1</ele>
        <time>2025-01-10T09:11:38.000Z</time>
      </trkpt>
      <trkpt lat="43.59044" lon="6.83162">
        <ele>209.1</ele>
        <time>2025-01-10T09:11:37.000Z</time>
      </trkpt>
      <trkpt lat="43.59044" lon="6.83162">
        <ele>209.1</ele>
        <time>2025-01-10T09:11:36.000Z</time>
      </trkpt>
      <trkpt lat="43.59044" lon="6.83162">
        <ele>209.1</ele>
        <time>2025-01-10T09:11:35.000Z</time>
      </trkpt>
      <trkpt lat="43.59044" lon="6.83162">
        <ele>209.1</ele>
        <time>2025-01-10T09:11:34.000Z</time>
      </trkpt>
      <trkpt lat="43.59044" lon="6.83162">
        <ele>209.1</ele>
        <time>2025-01-10T09:11:33.000Z</time>
      </trkpt>
      <trkpt lat="43.59044" lon="6.83162">
        <ele>209.1</ele>
        <time>2025-01-10T09:11:32.000Z</time>
      </trkpt>
      <trkpt lat="43.59044" lon="6.83162">
        <ele>209.1</ele>
        <time>2025-01-10T09:11:31.000Z</time>
      </trkpt>
      <trkpt lat="43.59044" lon="6.83161">
        <ele>209.1</ele>
        <time>2025-01-10T09:11:30.000Z</time>
      </trkpt>
      <trkpt lat="43.59044" lon="6.83161">
        <ele>209.1</ele>
        <time>2025-01-10T09:11:29.000Z</time>
      </trkpt>
      <trkpt lat="43.59044" lon="6.83161">
        <ele>209.1</ele>
        <time>2025-01-10T09:11:28.000Z</time>
      </trkpt>
      <trkpt lat="43.59044" lon="6.83161">
        <ele>209.1</ele>
        <time>2025-01-10T09:11:27.000Z</time>
      </trkpt>
      <trkpt lat="43.59044" lon="6.83161">
        <ele>209.1</ele>
        <time>2025-01-10T09:11:26.000Z</time>
      </trkpt>
      <trkpt lat="43.59044" lon="6.83161">
        <ele>209.1</ele>
        <time>2025-01-10T09:11:25.000Z</time>
      </trkpt>
      <trkpt lat="43.59044" lon="6.83161">
        <ele>209.1</ele>
        <time>2025-01-10T09:11:24.000Z</time>
      </trkpt>
      <trkpt lat="43.59044" lon="6.83161">
        <ele>209.1</ele>
        <time>2025-01-10T09:11:23.000Z</time>
      </trkpt>
      <trkpt lat="43.59044" lon="6.83161">
        <ele>209.1</ele>
        <time>2025-01-10T09:11:22.000Z</time>
      </trkpt>
      <trkpt lat="43.59044" lon="6.83161">
        <ele>209.1</ele>
        <time>2025-01-10T09:11:21.000Z</time>
      </trkpt>
      <trkpt lat="43.59044" lon="6.83161">
        <ele>209.1</ele>
        <time>2025-01-10T09:11:20.000Z</time>
      </trkpt>
      <trkpt lat="43.59044" lon="6.83161">
        <ele>209.1</ele>
        <time>2025-01-10T09:11:19.000Z</time>
      </trkpt>
      <trkpt lat="43.59044" lon="6.83161">
        <ele>209.1</ele>
        <time>2025-01-10T09:11:18.000Z</time>
      </trkpt>
      <trkpt lat="43.59044" lon="6.8316">
        <ele>209.1</ele>
        <time>2025-01-10T09:11:17.000Z</time>
      </trkpt>
      <trkpt lat="43.59044" lon="6.8316">
        <ele>209.1</ele>
        <time>2025-01-10T09:11:16.000Z</time>
      </trkpt>
      <trkpt lat="43.59044" lon="6.8316">
        <ele>209.1</ele>
        <time>2025-01-10T09:11:15.000Z</time>
      </trkpt>
      <trkpt lat="43.59044" lon="6.8316">
        <ele>209.1</ele>
        <time>2025-01-10T09:11:14.000Z</time>
      </trkpt>
      <trkpt lat="43.59044" lon="6.8316">
        <ele>209.1</ele>
        <time>2025-01-10T09:11:13.000Z</time>
      </trkpt>
      <trkpt lat="43.59044" lon="6.8316">
        <ele>209.1</ele>
        <time>2025-01-10T09:11:12.000Z</time>
      </trkpt>
      <trkpt lat="43.59044" lon="6.8316">
        <ele>209.1</ele>
        <time>2025-01-10T09:11:11.000Z</time>
      </trkpt>
      <trkpt lat="43.59044" lon="6.8316">
        <ele>209.1</ele>
        <time>2025-01-10T09:11:10.000Z</time>
      </trkpt>
      <trkpt lat="43.59044" lon="6.8316">
        <ele>209.1</ele>
        <time>2025-01-10T09:11:09.000Z</time>
      </trkpt>
      <trkpt lat="43.59044" lon="6.8316">
        <ele>209.1</ele>
        <time>2025-01-10T09:11:08.000Z</time>
      </trkpt>
      <trkpt lat="43.59044" lon="6.8316">
        <ele>209.1</ele>
        <time>2025-01-10T09:11:07.000Z</time>
      </trkpt>
      <trkpt lat="43.59044" lon="6.8316">
        <ele>209.1</ele>
        <time>2025-01-10T09:11:06.000Z</time>
      </trkpt>
      <trkpt lat="43.59044" lon="6.8316">
        <ele>209.1</ele>
        <time>2025-01-10T09:11:05.000Z</time>
      </trkpt>
      <trkpt lat="43.59044" lon="6.8316">
        <ele>209.1</ele>
        <time>2025-01-10T09:11:04.000Z</time>
      </trkpt>
      <trkpt lat="43.59044" lon="6.8316">
        <ele>209.1</ele>
        <time>2025-01-10T09:11:03.000Z</time>
      </trkpt>
      <trkpt lat="43.59044" lon="6.8316">
        <ele>209.1</ele>
        <time>2025-01-10T09:11:02.000Z</time>
      </trkpt>
      <trkpt lat="43.59044" lon="6.8316">
        <ele>209.1</ele>
        <time>2025-01-10T09:11:01.000Z</time>
      </trkpt>
      <trkpt lat="43.59044" lon="6.8316">
        <ele>209.1</ele>
        <time>2025-01-10T09:11:00.000Z</time>
      </trkpt>
      <trkpt lat="43.59044" lon="6.8316">
        <ele>209.1</ele>
        <time>2025-01-10T09:10:59.000Z</time>
      </trkpt>
      <trkpt lat="43.59043" lon="6.8316">
        <ele>209.1</ele>
        <time>2025-01-10T09:10:58.000Z</time>
      </trkpt>
      <trkpt lat="43.59042" lon="6.8316">
        <ele>209.2</ele>
        <time>2025-01-10T09:10:57.000Z</time>
      </trkpt>
      <trkpt lat="43.59042" lon="6.8316">
        <ele>209.2</ele>
        <time>2025-01-10T09:10:56.000Z</time>
      </trkpt>
      <trkpt lat="43.59042" lon="6.8316">
        <ele>209.2</ele>
        <time>2025-01-10T09:10:55.000Z</time>
      </trkpt>
      <trkpt lat="43.59042" lon="6.8316">
        <ele>209.2</ele>
        <time>2025-01-10T09:10:54.000Z</time>
      </trkpt>
      <trkpt lat="43.59042" lon="6.8316">
        <ele>209.2</ele>
        <time>2025-01-10T09:10:53.000Z</time>
      </trkpt>
      <trkpt lat="43.59042" lon="6.8316">
        <ele>209.2</ele>
        <time>2025-01-10T09:10:52.000Z</time>
      </trkpt>
      <trkpt lat="43.59042" lon="6.8316">
        <ele>209.2</ele>
        <time>2025-01-10T09:10:51.000Z</time>
      </trkpt>
      <trkpt lat="43.59041" lon="6.8316">
        <ele>209.2</ele>
        <time>2025-01-10T09:10:50.000Z</time>
      </trkpt>
      <trkpt lat="43.59041" lon="6.8316">
        <ele>209.2</ele>
        <time>2025-01-10T09:10:49.000Z</time>
      </trkpt>
      <trkpt lat="43.5904" lon="6.8316">
        <ele>209.2</ele>
        <time>2025-01-10T09:10:48.000Z</time>
      </trkpt>
      <trkpt lat="43.5904" lon="6.83161">
        <ele>209.2</ele>
        <time>2025-01-10T09:10:47.000Z</time>
      </trkpt>
      <trkpt lat="43.5904" lon="6.83161">
        <ele>209.2</ele>
        <time>2025-01-10T09:10:46.000Z</time>
      </trkpt>
      <trkpt lat="43.5904" lon="6.83161">
        <ele>209.2</ele>
        <time>2025-01-10T09:10:45.000Z</time>
      </trkpt>
      <trkpt lat="43.5904" lon="6.83162">
        <ele>209.2</ele>
        <time>2025-01-10T09:10:44.000Z</time>
      </trkpt>
      <trkpt lat="43.59039" lon="6.83162">
        <ele>209.2</ele>
        <time>2025-01-10T09:10:43.000Z</time>
      </trkpt>
      <trkpt lat="43.59039" lon="6.83162">
        <ele>209.3</ele>
        <time>2025-01-10T09:10:42.000Z</time>
      </trkpt>
      <trkpt lat="43.59039" lon="6.83162">
        <ele>209.3</ele>
        <time>2025-01-10T09:10:41.000Z</time>
      </trkpt>
      <trkpt lat="43.59039" lon="6.83162">
        <ele>209.3</ele>
        <time>2025-01-10T09:10:40.000Z</time>
      </trkpt>
      <trkpt lat="43.59039" lon="6.83162">
        <ele>209.3</ele>
        <time>2025-01-10T09:10:39.000Z</time>
      </trkpt>
      <trkpt lat="43.59038" lon="6.83162">
        <ele>209.3</ele>
        <time>2025-01-10T09:10:38.000Z</time>
      </trkpt>
      <trkpt lat="43.59038" lon="6.83162">
        <ele>209.3</ele>
        <time>2025-01-10T09:10:37.000Z</time>
      </trkpt>
      <trkpt lat="43.59038" lon="6.83163">
        <ele>209.3</ele>
        <time>2025-01-10T09:10:36.000Z</time>
      </trkpt>
      <trkpt lat="43.59038" lon="6.83163">
        <ele>209.3</ele>
        <time>2025-01-10T09:10:35.000Z</time>
      </trkpt>
      <trkpt lat="43.59038" lon="6.83163">
        <ele>209.3</ele>
        <time>2025-01-10T09:10:34.000Z</time>
      </trkpt>
      <trkpt lat="43.59038" lon="6.83163">
        <ele>209.3</ele>
        <time>2025-01-10T09:10:33.000Z</time>
      </trkpt>
      <trkpt lat="43.59038" lon="6.83163">
        <ele>209.3</ele>
        <time>2025-01-10T09:10:32.000Z</time>
      </trkpt>
      <trkpt lat="43.59038" lon="6.83163">
        <ele>209.3</ele>
        <time>2025-01-10T09:10:31.000Z</time>
      </trkpt>
      <trkpt lat="43.59038" lon="6.83163">
        <ele>209.3</ele>
        <time>2025-01-10T09:10:30.000Z</time>
      </trkpt>
      <trkpt lat="43.59038" lon="6.83164">
        <ele>209.3</ele>
        <time>2025-01-10T09:10:29.000Z</time>
      </trkpt>
      <trkpt lat="43.59038" lon="6.83164">
        <ele>209.3</ele>
        <time>2025-01-10T09:10:28.000Z</time>
      </trkpt>
      <trkpt lat="43.59038" lon="6.83164">
        <ele>209.3</ele>
        <time>2025-01-10T09:10:27.000Z</time>
      </trkpt>
      <trkpt lat="43.59038" lon="6.83164">
        <ele>209.3</ele>
        <time>2025-01-10T09:10:26.000Z</time>
      </trkpt>
      <trkpt lat="43.59038" lon="6.83164">
        <ele>209.3</ele>
        <time>2025-01-10T09:10:25.000Z</time>
      </trkpt>
      <trkpt lat="43.59038" lon="6.83164">
        <ele>209.3</ele>
        <time>2025-01-10T09:10:24.000Z</time>
      </trkpt>
      <trkpt lat="43.59038" lon="6.83164">
        <ele>209.3</ele>
        <time>2025-01-10T09:10:23.000Z</time>
      </trkpt>
      <trkpt lat="43.59038" lon="6.83164">
        <ele>209.3</ele>
        <time>2025-01-10T09:10:22.000Z</time>
      </trkpt>
      <trkpt lat="43.59038" lon="6.83164">
        <ele>209.3</ele>
        <time>2025-01-10T09:10:21.000Z</time>
      </trkpt>
      <trkpt lat="43.59038" lon="6.83164">
        <ele>209.3</ele>
        <time>2025-01-10T09:10:20.000Z</time>
      </trkpt>
      <trkpt lat="43.59038" lon="6.83164">
        <ele>209.3</ele>
        <time>2025-01-10T09:10:19.000Z</time>
      </trkpt>
      <trkpt lat="43.59038" lon="6.83164">
        <ele>209.3</ele>
        <time>2025-01-10T09:10:18.000Z</time>
      </trkpt>
      <trkpt lat="43.59038" lon="6.83164">
        <ele>209.3</ele>
        <time>2025-01-10T09:10:17.000Z</time>
      </trkpt>
      <trkpt lat="43.59038" lon="6.83164">
        <ele>209.3</ele>
        <time>2025-01-10T09:10:16.000Z</time>
      </trkpt>
      <trkpt lat="43.59038" lon="6.83164">
        <ele>209.3</ele>
        <time>2025-01-10T09:10:15.000Z</time>
      </trkpt>
      <trkpt lat="43.59038" lon="6.83164">
        <ele>209.3</ele>
        <time>2025-01-10T09:10:14.000Z</time>
      </trkpt>
      <trkpt lat="43.59038" lon="6.83164">
        <ele>209.3</ele>
        <time>2025-01-10T09:10:13.000Z</time>
      </trkpt>
      <trkpt lat="43.59038" lon="6.83164">
        <ele>209.3</ele>
        <time>2025-01-10T09:10:12.000Z</time>
      </trkpt>
      <trkpt lat="43.59038" lon="6.83164">
        <ele>209.3</ele>
        <time>2025-01-10T09:10:11.000Z</time>
      </trkpt>
      <trkpt lat="43.59038" lon="6.83164">
        <ele>209.3</ele>
        <time>2025-01-10T09:10:10.000Z</time>
      </trkpt>
      <trkpt lat="43.59038" lon="6.83164">
        <ele>209.3</ele>
        <time>2025-01-10T09:10:09.000Z</time>
      </trkpt>
      <trkpt lat="43.59038" lon="6.83164">
        <ele>209.4</ele>
        <time>2025-01-10T09:10:08.000Z</time>
      </trkpt>
      <trkpt lat="43.59038" lon="6.83163">
        <ele>209.4</ele>
        <time>2025-01-10T09:10:07.000Z</time>
      </trkpt>
      <trkpt lat="43.59038" lon="6.83163">
        <ele>209.4</ele>
        <time>2025-01-10T09:10:06.000Z</time>
      </trkpt>
      <trkpt lat="43.59037" lon="6.83163">
        <ele>209.4</ele>
        <time>2025-01-10T09:10:05.000Z</time>
      </trkpt>
      <trkpt lat="43.59038" lon="6.83162">
        <ele>209.4</ele>
        <time>2025-01-10T09:10:04.000Z</time>
      </trkpt>
      <trkpt lat="43.59039" lon="6.83164">
        <ele>209.5</ele>
        <time>2025-01-10T09:10:03.000Z</time>
      </trkpt>
      <trkpt lat="43.59041" lon="6.83164">
        <ele>209.5</ele>
        <time>2025-01-10T09:10:02.000Z</time>
      </trkpt>
      <trkpt lat="43.59041" lon="6.83164">
        <ele>209.5</ele>
        <time>2025-01-10T09:10:01.000Z</time>
      </trkpt>
      <trkpt lat="43.59041" lon="6.83164">
        <ele>209.6</ele>
        <time>2025-01-10T09:10:00.000Z</time>
      </trkpt>
      <trkpt lat="43.59041" lon="6.83163">
        <ele>209.6</ele>
        <time>2025-01-10T09:09:59.000Z</time>
      </trkpt>
      <trkpt lat="43.59041" lon="6.83165">
        <ele>209.6</ele>
        <time>2025-01-10T09:09:58.000Z</time>
      </trkpt>
      <trkpt lat="43.59041" lon="6.83165">
        <ele>209.6</ele>
        <time>2025-01-10T09:09:57.000Z</time>
      </trkpt>
      <trkpt lat="43.59041" lon="6.83165">
        <ele>209.6</ele>
        <time>2025-01-10T09:09:56.000Z</time>
      </trkpt>
      <trkpt lat="43.5904" lon="6.83164">
        <ele>209.6</ele>
        <time>2025-01-10T09:09:55.000Z</time>
      </trkpt>
      <trkpt lat="43.5904" lon="6.83164">
        <ele>209.7</ele>
        <time>2025-01-10T09:09:54.000Z</time>
      </trkpt>
      <trkpt lat="43.59038" lon="6.83164">
        <ele>209.7</ele>
        <time>2025-01-10T09:09:53.000Z</time>
      </trkpt>
      <trkpt lat="43.59036" lon="6.83164">
        <ele>209.8</ele>
        <time>2025-01-10T09:09:52.000Z</time>
      </trkpt>
      <trkpt lat="43.59034" lon="6.83163">
        <ele>209.9</ele>
        <time>2025-01-10T09:09:51.000Z</time>
      </trkpt>
      <trkpt lat="43.59029" lon="6.83161">
        <ele>210.1</ele>
        <time>2025-01-10T09:09:50.000Z</time>
      </trkpt>
      <trkpt lat="43.59026" lon="6.83159">
        <ele>210.3</ele>
        <time>2025-01-10T09:09:49.000Z</time>
      </trkpt>
      <trkpt lat="43.59021" lon="6.83156">
        <ele>210.6</ele>
        <time>2025-01-10T09:09:48.000Z</time>
      </trkpt>
      <trkpt lat="43.59017" lon="6.83153">
        <ele>210.9</ele>
        <time>2025-01-10T09:09:47.000Z</time>
      </trkpt>
      <trkpt lat="43.59011" lon="6.8315">
        <ele>211.2</ele>
        <time>2025-01-10T09:09:46.000Z</time>
      </trkpt>
      <trkpt lat="43.59007" lon="6.83149">
        <ele>211.5</ele>
        <time>2025-01-10T09:09:45.000Z</time>
      </trkpt>
      <trkpt lat="43.59003" lon="6.83149">
        <ele>211.7</ele>
        <time>2025-01-10T09:09:44.000Z</time>
      </trkpt>
      <trkpt lat="43.58998" lon="6.8315">
        <ele>211.9</ele>
        <time>2025-01-10T09:09:43.000Z</time>
      </trkpt>
      <trkpt lat="43.58994" lon="6.83151">
        <ele>212</ele>
        <time>2025-01-10T09:09:42.000Z</time>
      </trkpt>
      <trkpt lat="43.58989" lon="6.83151">
        <ele>212.2</ele>
        <time>2025-01-10T09:09:41.000Z</time>
      </trkpt>
      <trkpt lat="43.58986" lon="6.83151">
        <ele>212.3</ele>
        <time>2025-01-10T09:09:40.000Z</time>
      </trkpt>
      <trkpt lat="43.58983" lon="6.83149">
        <ele>212.4</ele>
        <time>2025-01-10T09:09:39.000Z</time>
      </trkpt>
      <trkpt lat="43.5898" lon="6.83144">
        <ele>212.6</ele>
        <time>2025-01-10T09:09:38.000Z</time>
      </trkpt>
      <trkpt lat="43.58979" lon="6.83138">
        <ele>212.7</ele>
        <time>2025-01-10T09:09:37.000Z</time>
      </trkpt>
      <trkpt lat="43.58979" lon="6.83132">
        <ele>212.9</ele>
        <time>2025-01-10T09:09:36.000Z</time>
      </trkpt>
      <trkpt lat="43.58979" lon="6.83127">
        <ele>213.1</ele>
        <time>2025-01-10T09:09:35.000Z</time>
      </trkpt>
      <trkpt lat="43.58978" lon="6.83122">
        <ele>213.2</ele>
        <time>2025-01-10T09:09:34.000Z</time>
      </trkpt>
      <trkpt lat="43.58977" lon="6.83117">
        <ele>213.3</ele>
        <time>2025-01-10T09:09:33.000Z</time>
      </trkpt>
      <trkpt lat="43.58975" lon="6.83114">
        <ele>213.4</ele>
        <time>2025-01-10T09:09:32.000Z</time>
      </trkpt>
      <trkpt lat="43.58972" lon="6.83111">
        <ele>213.6</ele>
        <time>2025-01-10T09:09:31.000Z</time>
      </trkpt>
      <trkpt lat="43.58968" lon="6.83108">
        <ele>213.7</ele>
        <time>2025-01-10T09:09:30.000Z</time>
      </trkpt>
      <trkpt lat="43.58965" lon="6.83107">
        <ele>213.7</ele>
        <time>2025-01-10T09:09:29.000Z</time>
      </trkpt>
      <trkpt lat="43.5896" lon="6.83107">
        <ele>213.8</ele>
        <time>2025-01-10T09:09:28.000Z</time>
      </trkpt>
      <trkpt lat="43.58956" lon="6.83108">
        <ele>213.9</ele>
        <time>2025-01-10T09:09:27.000Z</time>
      </trkpt>
      <trkpt lat="43.58953" lon="6.83108">
        <ele>214</ele>
        <time>2025-01-10T09:09:26.000Z</time>
      </trkpt>
      <trkpt lat="43.58948" lon="6.83109">
        <ele>214.1</ele>
        <time>2025-01-10T09:09:25.000Z</time>
      </trkpt>
      <trkpt lat="43.58942" lon="6.83108">
        <ele>214.2</ele>
        <time>2025-01-10T09:09:24.000Z</time>
      </trkpt>
      <trkpt lat="43.58936" lon="6.83109">
        <ele>214.4</ele>
        <time>2025-01-10T09:09:23.000Z</time>
      </trkpt>
      <trkpt lat="43.58931" lon="6.83109">
        <ele>214.6</ele>
        <time>2025-01-10T09:09:22.000Z</time>
      </trkpt>
      <trkpt lat="43.58926" lon="6.83114">
        <ele>214.8</ele>
        <time>2025-01-10T09:09:21.000Z</time>
      </trkpt>
      <trkpt lat="43.58922" lon="6.83115">
        <ele>214.9</ele>
        <time>2025-01-10T09:09:20.000Z</time>
      </trkpt>
      <trkpt lat="43.58918" lon="6.83118">
        <ele>215.1</ele>
        <time>2025-01-10T09:09:19.000Z</time>
      </trkpt>
      <trkpt lat="43.58914" lon="6.8312">
        <ele>215.2</ele>
        <time>2025-01-10T09:09:18.000Z</time>
      </trkpt>
      <trkpt lat="43.5891" lon="6.83122">
        <ele>215.4</ele>
        <time>2025-01-10T09:09:17.000Z</time>
      </trkpt>
      <trkpt lat="43.58906" lon="6.83124">
        <ele>215.5</ele>
        <time>2025-01-10T09:09:16.000Z</time>
      </trkpt>
      <trkpt lat="43.58904" lon="6.83124">
        <ele>215.6</ele>
        <time>2025-01-10T09:09:15.000Z</time>
      </trkpt>
      <trkpt lat="43.58901" lon="6.83122">
        <ele>215.7</ele>
        <time>2025-01-10T09:09:14.000Z</time>
      </trkpt>
      <trkpt lat="43.58899" lon="6.83117">
        <ele>215.9</ele>
        <time>2025-01-10T09:09:13.000Z</time>
      </trkpt>
      <trkpt lat="43.58896" lon="6.8311">
        <ele>216.1</ele>
        <time>2025-01-10T09:09:12.000Z</time>
      </trkpt>
      <trkpt lat="43.58895" lon="6.83103">
        <ele>216.4</ele>
        <time>2025-01-10T09:09:11.000Z</time>
      </trkpt>
      <trkpt lat="43.58894" lon="6.83096">
        <ele>216.6</ele>
        <time>2025-01-10T09:09:10.000Z</time>
      </trkpt>
      <trkpt lat="43.58893" lon="6.83088">
        <ele>216.9</ele>
        <time>2025-01-10T09:09:09.000Z</time>
      </trkpt>
      <trkpt lat="43.58891" lon="6.83081">
        <ele>217.3</ele>
        <time>2025-01-10T09:09:08.000Z</time>
      </trkpt>
      <trkpt lat="43.58889" lon="6.83073">
        <ele>217.6</ele>
        <time>2025-01-10T09:09:07.000Z</time>
      </trkpt>
      <trkpt lat="43.58887" lon="6.83066">
        <ele>217.9</ele>
        <time>2025-01-10T09:09:06.000Z</time>
      </trkpt>
      <trkpt lat="43.58885" lon="6.83059">
        <ele>218.3</ele>
        <time>2025-01-10T09:09:05.000Z</time>
      </trkpt>
      <trkpt lat="43.58884" lon="6.83052">
        <ele>218.7</ele>
        <time>2025-01-10T09:09:04.000Z</time>
      </trkpt>
      <trkpt lat="43.58884" lon="6.83044">
        <ele>219.1</ele>
        <time>2025-01-10T09:09:03.000Z</time>
      </trkpt>
      <trkpt lat="43.58884" lon="6.83037">
        <ele>219.6</ele>
        <time>2025-01-10T09:09:02.000Z</time>
      </trkpt>
      <trkpt lat="43.58885" lon="6.83029">
        <ele>220</ele>
        <time>2025-01-10T09:09:01.000Z</time>
      </trkpt>
      <trkpt lat="43.58884" lon="6.83022">
        <ele>220.5</ele>
        <time>2025-01-10T09:09:00.000Z</time>
      </trkpt>
      <trkpt lat="43.58884" lon="6.83015">
        <ele>220.9</ele>
        <time>2025-01-10T09:08:59.000Z</time>
      </trkpt>
      <trkpt lat="43.58884" lon="6.83009">
        <ele>221.2</ele>
        <time>2025-01-10T09:08:58.000Z</time>
      </trkpt>
      <trkpt lat="43.58885" lon="6.83003">
        <ele>221.5</ele>
        <time>2025-01-10T09:08:57.000Z</time>
      </trkpt>
      <trkpt lat="43.58885" lon="6.83002">
        <ele>221.5</ele>
        <time>2025-01-10T09:08:56.000Z</time>
      </trkpt>
      <trkpt lat="43.58885" lon="6.83002">
        <ele>221.6</ele>
        <time>2025-01-10T09:08:55.000Z</time>
      </trkpt>
      <trkpt lat="43.58885" lon="6.83001">
        <ele>221.6</ele>
        <time>2025-01-10T09:08:54.000Z</time>
      </trkpt>
      <trkpt lat="43.58885" lon="6.83001">
        <ele>221.6</ele>
        <time>2025-01-10T09:08:53.000Z</time>
      </trkpt>
      <trkpt lat="43.58885" lon="6.83">
        <ele>221.7</ele>
        <time>2025-01-10T09:08:52.000Z</time>
      </trkpt>
      <trkpt lat="43.58885" lon="6.82999">
        <ele>221.7</ele>
        <time>2025-01-10T09:08:51.000Z</time>
      </trkpt>
      <trkpt lat="43.58885" lon="6.82999">
        <ele>221.7</ele>
        <time>2025-01-10T09:08:50.000Z</time>
      </trkpt>
      <trkpt lat="43.58885" lon="6.82998">
        <ele>221.7</ele>
        <time>2025-01-10T09:08:49.000Z</time>
      </trkpt>
      <trkpt lat="43.58885" lon="6.82997">
        <ele>221.8</ele>
        <time>2025-01-10T09:08:48.000Z</time>
      </trkpt>
      <trkpt lat="43.58885" lon="6.82997">
        <ele>221.8</ele>
        <time>2025-01-10T09:08:47.000Z</time>
      </trkpt>
      <trkpt lat="43.58886" lon="6.82996">
        <ele>221.8</ele>
        <time>2025-01-10T09:08:46.000Z</time>
      </trkpt>
      <trkpt lat="43.58886" lon="6.82996">
        <ele>221.9</ele>
        <time>2025-01-10T09:08:45.000Z</time>
      </trkpt>
      <trkpt lat="43.58886" lon="6.82995">
        <ele>221.9</ele>
        <time>2025-01-10T09:08:44.000Z</time>
      </trkpt>
      <trkpt lat="43.58886" lon="6.82994">
        <ele>221.9</ele>
        <time>2025-01-10T09:08:43.000Z</time>
      </trkpt>
      <trkpt lat="43.58886" lon="6.82994">
        <ele>221.9</ele>
        <time>2025-01-10T09:08:42.000Z</time>
      </trkpt>
      <trkpt lat="43.58886" lon="6.82993">
        <ele>222</ele>
        <time>2025-01-10T09:08:41.000Z</time>
      </trkpt>
      <trkpt lat="43.58886" lon="6.82993">
        <ele>222</ele>
        <time>2025-01-10T09:08:40.000Z</time>
      </trkpt>
      <trkpt lat="43.58886" lon="6.82992">
        <ele>222</ele>
        <time>2025-01-10T09:08:39.000Z</time>
      </trkpt>
      <trkpt lat="43.58886" lon="6.82991">
        <ele>222</ele>
        <time>2025-01-10T09:08:38.000Z</time>
      </trkpt>
      <trkpt lat="43.58886" lon="6.82991">
        <ele>222.1</ele>
        <time>2025-01-10T09:08:37.000Z</time>
      </trkpt>
      <trkpt lat="43.58886" lon="6.8299">
        <ele>222.1</ele>
        <time>2025-01-10T09:08:36.000Z</time>
      </trkpt>
      <trkpt lat="43.58887" lon="6.82989">
        <ele>222.1</ele>
        <time>2025-01-10T09:08:35.000Z</time>
      </trkpt>
      <trkpt lat="43.58887" lon="6.82989">
        <ele>222.1</ele>
        <time>2025-01-10T09:08:34.000Z</time>
      </trkpt>
      <trkpt lat="43.58887" lon="6.82988">
        <ele>222.2</ele>
        <time>2025-01-10T09:08:33.000Z</time>
      </trkpt>
      <trkpt lat="43.58887" lon="6.82988">
        <ele>222.2</ele>
        <time>2025-01-10T09:08:32.000Z</time>
      </trkpt>
      <trkpt lat="43.58887" lon="6.82987">
        <ele>222.2</ele>
        <time>2025-01-10T09:08:31.000Z</time>
      </trkpt>
      <trkpt lat="43.58887" lon="6.82986">
        <ele>222.2</ele>
        <time>2025-01-10T09:08:30.000Z</time>
      </trkpt>
      <trkpt lat="43.58887" lon="6.82986">
        <ele>222.2</ele>
        <time>2025-01-10T09:08:29.000Z</time>
      </trkpt>
      <trkpt lat="43.58887" lon="6.82985">
        <ele>222.3</ele>
        <time>2025-01-10T09:08:28.000Z</time>
      </trkpt>
      <trkpt lat="43.58887" lon="6.82985">
        <ele>222.3</ele>
        <time>2025-01-10T09:08:27.000Z</time>
      </trkpt>
      <trkpt lat="43.58887" lon="6.82984">
        <ele>222.3</ele>
        <time>2025-01-10T09:08:26.000Z</time>
      </trkpt>
      <trkpt lat="43.58887" lon="6.82983">
        <ele>222.3</ele>
        <time>2025-01-10T09:08:25.000Z</time>
      </trkpt>
      <trkpt lat="43.58887" lon="6.82983">
        <ele>222.4</ele>
        <time>2025-01-10T09:08:24.000Z</time>
      </trkpt>
      <trkpt lat="43.58888" lon="6.82982">
        <ele>222.4</ele>
        <time>2025-01-10T09:08:23.000Z</time>
      </trkpt>
      <trkpt lat="43.58888" lon="6.82981">
        <ele>222.4</ele>
        <time>2025-01-10T09:08:22.000Z</time>
      </trkpt>
      <trkpt lat="43.58888" lon="6.82981">
        <ele>222.4</ele>
        <time>2025-01-10T09:08:21.000Z</time>
      </trkpt>
      <trkpt lat="43.58888" lon="6.8298">
        <ele>222.4</ele>
        <time>2025-01-10T09:08:20.000Z</time>
      </trkpt>
      <trkpt lat="43.58888" lon="6.8298">
        <ele>222.5</ele>
        <time>2025-01-10T09:08:19.000Z</time>
      </trkpt>
      <trkpt lat="43.58888" lon="6.82979">
        <ele>222.5</ele>
        <time>2025-01-10T09:08:18.000Z</time>
      </trkpt>
      <trkpt lat="43.58888" lon="6.82978">
        <ele>222.5</ele>
        <time>2025-01-10T09:08:17.000Z</time>
      </trkpt>
      <trkpt lat="43.58888" lon="6.82978">
        <ele>222.5</ele>
        <time>2025-01-10T09:08:16.000Z</time>
      </trkpt>
      <trkpt lat="43.58888" lon="6.82977">
        <ele>222.5</ele>
        <time>2025-01-10T09:08:15.000Z</time>
      </trkpt>
      <trkpt lat="43.58888" lon="6.82977">
        <ele>222.6</ele>
        <time>2025-01-10T09:08:14.000Z</time>
      </trkpt>
      <trkpt lat="43.58888" lon="6.82976">
        <ele>222.6</ele>
        <time>2025-01-10T09:08:13.000Z</time>
      </trkpt>
      <trkpt lat="43.58889" lon="6.82975">
        <ele>222.6</ele>
        <time>2025-01-10T09:08:12.000Z</time>
      </trkpt>
      <trkpt lat="43.58889" lon="6.82975">
        <ele>222.6</ele>
        <time>2025-01-10T09:08:11.000Z</time>
      </trkpt>
      <trkpt lat="43.58889" lon="6.82974">
        <ele>222.6</ele>
        <time>2025-01-10T09:08:10.000Z</time>
      </trkpt>
      <trkpt lat="43.58889" lon="6.82973">
        <ele>222.6</ele>
        <time>2025-01-10T09:08:09.000Z</time>
      </trkpt>
      <trkpt lat="43.58889" lon="6.82973">
        <ele>222.7</ele>
        <time>2025-01-10T09:08:08.000Z</time>
      </trkpt>
      <trkpt lat="43.58889" lon="6.82972">
        <ele>222.7</ele>
        <time>2025-01-10T09:08:07.000Z</time>
      </trkpt>
      <trkpt lat="43.58889" lon="6.82972">
        <ele>222.7</ele>
        <time>2025-01-10T09:08:06.000Z</time>
      </trkpt>
      <trkpt lat="43.58889" lon="6.82971">
        <ele>222.7</ele>
        <time>2025-01-10T09:08:05.000Z</time>
      </trkpt>
      <trkpt lat="43.58889" lon="6.8297">
        <ele>222.7</ele>
        <time>2025-01-10T09:08:04.000Z</time>
      </trkpt>
      <trkpt lat="43.58889" lon="6.8297">
        <ele>222.7</ele>
        <time>2025-01-10T09:08:03.000Z</time>
      </trkpt>
      <trkpt lat="43.58889" lon="6.82969">
        <ele>222.8</ele>
        <time>2025-01-10T09:08:02.000Z</time>
      </trkpt>
      <trkpt lat="43.5889" lon="6.82968">
        <ele>222.8</ele>
        <time>2025-01-10T09:08:01.000Z</time>
      </trkpt>
      <trkpt lat="43.5889" lon="6.82968">
        <ele>222.8</ele>
        <time>2025-01-10T09:08:00.000Z</time>
      </trkpt>
      <trkpt lat="43.5889" lon="6.82967">
        <ele>222.8</ele>
        <time>2025-01-10T09:07:59.000Z</time>
      </trkpt>
      <trkpt lat="43.5889" lon="6.82967">
        <ele>222.8</ele>
        <time>2025-01-10T09:07:58.000Z</time>
      </trkpt>
      <trkpt lat="43.5889" lon="6.82966">
        <ele>222.9</ele>
        <time>2025-01-10T09:07:57.000Z</time>
      </trkpt>
      <trkpt lat="43.5889" lon="6.82965">
        <ele>222.9</ele>
        <time>2025-01-10T09:07:56.000Z</time>
      </trkpt>
      <trkpt lat="43.5889" lon="6.82965">
        <ele>222.9</ele>
        <time>2025-01-10T09:07:55.000Z</time>
      </trkpt>
      <trkpt lat="43.5889" lon="6.82964">
        <ele>222.9</ele>
        <time>2025-01-10T09:07:54.000Z</time>
      </trkpt>
      <trkpt lat="43.58891" lon="6.82964">
        <ele>222.9</ele>
        <time>2025-01-10T09:07:53.000Z</time>
      </trkpt>
      <trkpt lat="43.58891" lon="6.82963">
        <ele>222.9</ele>
        <time>2025-01-10T09:07:52.000Z</time>
      </trkpt>
      <trkpt lat="43.5889" lon="6.82962">
        <ele>223</ele>
        <time>2025-01-10T09:07:51.000Z</time>
      </trkpt>
      <trkpt lat="43.58888" lon="6.82961">
        <ele>223.1</ele>
        <time>2025-01-10T09:07:50.000Z</time>
      </trkpt>
      <trkpt lat="43.58885" lon="6.82959">
        <ele>223.3</ele>
        <time>2025-01-10T09:07:49.000Z</time>
      </trkpt>
      <trkpt lat="43.58883" lon="6.82957">
        <ele>223.5</ele>
        <time>2025-01-10T09:07:48.000Z</time>
      </trkpt>
      <trkpt lat="43.58877" lon="6.82955">
        <ele>224</ele>
        <time>2025-01-10T09:07:47.000Z</time>
      </trkpt>
      <trkpt lat="43.58872" lon="6.82954">
        <ele>224.4</ele>
        <time>2025-01-10T09:07:46.000Z</time>
      </trkpt>
      <trkpt lat="43.58867" lon="6.82953">
        <ele>224.8</ele>
        <time>2025-01-10T09:07:45.000Z</time>
      </trkpt>
      <trkpt lat="43.5886" lon="6.82951">
        <ele>225.4</ele>
        <time>2025-01-10T09:07:44.000Z</time>
      </trkpt>
      <trkpt lat="43.58855" lon="6.82951">
        <ele>225.9</ele>
        <time>2025-01-10T09:07:43.000Z</time>
      </trkpt>
      <trkpt lat="43.58847" lon="6.82949">
        <ele>226.7</ele>
        <time>2025-01-10T09:07:42.000Z</time>
      </trkpt>
      <trkpt lat="43.58841" lon="6.82949">
        <ele>227.4</ele>
        <time>2025-01-10T09:07:41.000Z</time>
      </trkpt>
      <trkpt lat="43.58836" lon="6.82948">
        <ele>228</ele>
        <time>2025-01-10T09:07:40.000Z</time>
      </trkpt>
      <trkpt lat="43.5883" lon="6.82947">
        <ele>228.8</ele>
        <time>2025-01-10T09:07:39.000Z</time>
      </trkpt>
      <trkpt lat="43.58824" lon="6.82946">
        <ele>229.5</ele>
        <time>2025-01-10T09:07:38.000Z</time>
      </trkpt>
      <trkpt lat="43.5882" lon="6.82945">
        <ele>230.1</ele>
        <time>2025-01-10T09:07:37.000Z</time>
      </trkpt>
      <trkpt lat="43.58815" lon="6.82943">
        <ele>230.6</ele>
        <time>2025-01-10T09:07:36.000Z</time>
      </trkpt>
      <trkpt lat="43.58811" lon="6.82942">
        <ele>231.1</ele>
        <time>2025-01-10T09:07:35.000Z</time>
      </trkpt>
      <trkpt lat="43.58807" lon="6.82941">
        <ele>231.4</ele>
        <time>2025-01-10T09:07:34.000Z</time>
      </trkpt>
      <trkpt lat="43.58802" lon="6.82939">
        <ele>231.8</ele>
        <time>2025-01-10T09:07:33.000Z</time>
      </trkpt>
      <trkpt lat="43.58799" lon="6.82938">
        <ele>232.1</ele>
        <time>2025-01-10T09:07:32.000Z</time>
      </trkpt>
      <trkpt lat="43.58796" lon="6.82937">
        <ele>232.2</ele>
        <time>2025-01-10T09:07:31.000Z</time>
      </trkpt>
      <trkpt lat="43.58793" lon="6.82936">
        <ele>232.3</ele>
        <time>2025-01-10T09:07:30.000Z</time>
      </trkpt>
      <trkpt lat="43.58789" lon="6.82934">
        <ele>232.4</ele>
        <time>2025-01-10T09:07:29.000Z</time>
      </trkpt>
      <trkpt lat="43.58785" lon="6.82931">
        <ele>232.5</ele>
        <time>2025-01-10T09:07:28.000Z</time>
      </trkpt>
      <trkpt lat="43.58782" lon="6.82929">
        <ele>232.5</ele>
        <time>2025-01-10T09:07:27.000Z</time>
      </trkpt>
      <trkpt lat="43.58779" lon="6.82927">
        <ele>232.5</ele>
        <time>2025-01-10T09:07:26.000Z</time>
      </trkpt>
      <trkpt lat="43.58775" lon="6.82925">
        <ele>232.5</ele>
        <time>2025-01-10T09:07:25.000Z</time>
      </trkpt>
      <trkpt lat="43.58772" lon="6.82922">
        <ele>232.4</ele>
        <time>2025-01-10T09:07:24.000Z</time>
      </trkpt>
      <trkpt lat="43.58769" lon="6.82919">
        <ele>232.4</ele>
        <time>2025-01-10T09:07:23.000Z</time>
      </trkpt>
      <trkpt lat="43.58767" lon="6.82914">
        <ele>232.4</ele>
        <time>2025-01-10T09:07:22.000Z</time>
      </trkpt>
      <trkpt lat="43.58766" lon="6.82908">
        <ele>232.4</ele>
        <time>2025-01-10T09:07:21.000Z</time>
      </trkpt>
      <trkpt lat="43.58765" lon="6.82902">
        <ele>232.5</ele>
        <time>2025-01-10T09:07:20.000Z</time>
      </trkpt>
      <trkpt lat="43.58766" lon="6.82896">
        <ele>232.7</ele>
        <time>2025-01-10T09:07:19.000Z</time>
      </trkpt>
      <trkpt lat="43.58766" lon="6.82889">
        <ele>232.9</ele>
        <time>2025-01-10T09:07:18.000Z</time>
      </trkpt>
      <trkpt lat="43.58765" lon="6.82883">
        <ele>233.2</ele>
        <time>2025-01-10T09:07:17.000Z</time>
      </trkpt>
      <trkpt lat="43.58763" lon="6.82878">
        <ele>233.5</ele>
        <time>2025-01-10T09:07:16.000Z</time>
      </trkpt>
      <trkpt lat="43.5876" lon="6.82872">
        <ele>234</ele>
        <time>2025-01-10T09:07:15.000Z</time>
      </trkpt>
      <trkpt lat="43.58755" lon="6.82867">
        <ele>234.7</ele>
        <time>2025-01-10T09:07:14.000Z</time>
      </trkpt>
      <trkpt lat="43.58751" lon="6.82864">
        <ele>235.3</ele>
        <time>2025-01-10T09:07:13.000Z</time>
      </trkpt>
      <trkpt lat="43.58747" lon="6.82861">
        <ele>236</ele>
        <time>2025-01-10T09:07:12.000Z</time>
      </trkpt>
      <trkpt lat="43.58741" lon="6.82858">
        <ele>236.9</ele>
        <time>2025-01-10T09:07:11.000Z</time>
      </trkpt>
      <trkpt lat="43.58736" lon="6.82856">
        <ele>237.5</ele>
        <time>2025-01-10T09:07:10.000Z</time>
      </trkpt>
      <trkpt lat="43.58732" lon="6.82856">
        <ele>238.2</ele>
        <time>2025-01-10T09:07:09.000Z</time>
      </trkpt>
      <trkpt lat="43.58728" lon="6.82855">
        <ele>238.7</ele>
        <time>2025-01-10T09:07:08.000Z</time>
      </trkpt>
      <trkpt lat="43.58724" lon="6.82856">
        <ele>239.1</ele>
        <time>2025-01-10T09:07:07.000Z</time>
      </trkpt>
      <trkpt lat="43.58722" lon="6.82856">
        <ele>239.5</ele>
        <time>2025-01-10T09:07:06.000Z</time>
      </trkpt>
      <trkpt lat="43.58717" lon="6.82857">
        <ele>240.2</ele>
        <time>2025-01-10T09:07:05.000Z</time>
      </trkpt>
      <trkpt lat="43.58713" lon="6.82857">
        <ele>240.7</ele>
        <time>2025-01-10T09:07:04.000Z</time>
      </trkpt>
      <trkpt lat="43.5871" lon="6.82857">
        <ele>241.1</ele>
        <time>2025-01-10T09:07:03.000Z</time>
      </trkpt>
      <trkpt lat="43.58705" lon="6.82858">
        <ele>241.6</ele>
        <time>2025-01-10T09:07:02.000Z</time>
      </trkpt>
      <trkpt lat="43.58701" lon="6.8286">
        <ele>241.9</ele>
        <time>2025-01-10T09:07:01.000Z</time>
      </trkpt>
      <trkpt lat="43.58697" lon="6.82861">
        <ele>242.2</ele>
        <time>2025-01-10T09:07:00.000Z</time>
      </trkpt>
      <trkpt lat="43.58695" lon="6.82863">
        <ele>242.5</ele>
        <time>2025-01-10T09:06:59.000Z</time>
      </trkpt>
      <trkpt lat="43.58692" lon="6.82865">
        <ele>242.7</ele>
        <time>2025-01-10T09:06:58.000Z</time>
      </trkpt>
      <trkpt lat="43.58688" lon="6.82868">
        <ele>242.9</ele>
        <time>2025-01-10T09:06:57.000Z</time>
      </trkpt>
      <trkpt lat="43.58684" lon="6.82871">
        <ele>243.3</ele>
        <time>2025-01-10T09:06:56.000Z</time>
      </trkpt>
      <trkpt lat="43.5868" lon="6.82873">
        <ele>243.5</ele>
        <time>2025-01-10T09:06:55.000Z</time>
      </trkpt>
      <trkpt lat="43.58676" lon="6.82876">
        <ele>243.8</ele>
        <time>2025-01-10T09:06:54.000Z</time>
      </trkpt>
      <trkpt lat="43.58671" lon="6.82879">
        <ele>244.2</ele>
        <time>2025-01-10T09:06:53.000Z</time>
      </trkpt>
      <trkpt lat="43.58666" lon="6.82883">
        <ele>244.6</ele>
        <time>2025-01-10T09:06:52.000Z</time>
      </trkpt>
      <trkpt lat="43.58662" lon="6.82887">
        <ele>245.1</ele>
        <time>2025-01-10T09:06:51.000Z</time>
      </trkpt>
      <trkpt lat="43.58658" lon="6.82892">
        <ele>245.5</ele>
        <time>2025-01-10T09:06:50.000Z</time>
      </trkpt>
      <trkpt lat="43.58654" lon="6.82896">
        <ele>246</ele>
        <time>2025-01-10T09:06:49.000Z</time>
      </trkpt>
      <trkpt lat="43.5865" lon="6.829">
        <ele>246.4</ele>
        <time>2025-01-10T09:06:48.000Z</time>
      </trkpt>
      <trkpt lat="43.58646" lon="6.82904">
        <ele>246.9</ele>
        <time>2025-01-10T09:06:47.000Z</time>
      </trkpt>
      <trkpt lat="43.58642" lon="6.82908">
        <ele>247.4</ele>
        <time>2025-01-10T09:06:46.000Z</time>
      </trkpt>
      <trkpt lat="43.58639" lon="6.82912">
        <ele>247.7</ele>
        <time>2025-01-10T09:06:45.000Z</time>
      </trkpt>
      <trkpt lat="43.58636" lon="6.82915">
        <ele>248.1</ele>
        <time>2025-01-10T09:06:44.000Z</time>
      </trkpt>
      <trkpt lat="43.58634" lon="6.82918">
        <ele>248.4</ele>
        <time>2025-01-10T09:06:43.000Z</time>
      </trkpt>
      <trkpt lat="43.5863" lon="6.82921">
        <ele>248.9</ele>
        <time>2025-01-10T09:06:42.000Z</time>
      </trkpt>
      <trkpt lat="43.58627" lon="6.82923">
        <ele>249.1</ele>
        <time>2025-01-10T09:06:41.000Z</time>
      </trkpt>
      <trkpt lat="43.58624" lon="6.82925">
        <ele>249.4</ele>
        <time>2025-01-10T09:06:40.000Z</time>
      </trkpt>
      <trkpt lat="43.58621" lon="6.82927">
        <ele>249.6</ele>
        <time>2025-01-10T09:06:39.000Z</time>
      </trkpt>
      <trkpt lat="43.58618" lon="6.82929">
        <ele>249.8</ele>
        <time>2025-01-10T09:06:38.000Z</time>
      </trkpt>
      <trkpt lat="43.58615" lon="6.82931">
        <ele>250</ele>
        <time>2025-01-10T09:06:37.000Z</time>
      </trkpt>
      <trkpt lat="43.58611" lon="6.82933">
        <ele>250.1</ele>
        <time>2025-01-10T09:06:36.000Z</time>
      </trkpt>
      <trkpt lat="43.58607" lon="6.82934">
        <ele>250.1</ele>
        <time>2025-01-10T09:06:35.000Z</time>
      </trkpt>
      <trkpt lat="43.58602" lon="6.82935">
        <ele>250</ele>
        <time>2025-01-10T09:06:34.000Z</time>
      </trkpt>
      <trkpt lat="43.58598" lon="6.82936">
        <ele>249.9</ele>
        <time>2025-01-10T09:06:33.000Z</time>
      </trkpt>
      <trkpt lat="43.58593" lon="6.82936">
        <ele>249.8</ele>
        <time>2025-01-10T09:06:32.000Z</time>
      </trkpt>
      <trkpt lat="43.58589" lon="6.82937">
        <ele>249.8</ele>
        <time>2025-01-10T09:06:31.000Z</time>
      </trkpt>
      <trkpt lat="43.58584" lon="6.82938">
        <ele>249.7</ele>
        <time>2025-01-10T09:06:30.000Z</time>
      </trkpt>
      <trkpt lat="43.5858" lon="6.82939">
        <ele>249.7</ele>
        <time>2025-01-10T09:06:29.000Z</time>
      </trkpt>
      <trkpt lat="43.58575" lon="6.8294">
        <ele>249.7</ele>
        <time>2025-01-10T09:06:28.000Z</time>
      </trkpt>
      <trkpt lat="43.5857" lon="6.82941">
        <ele>249.8</ele>
        <time>2025-01-10T09:06:27.000Z</time>
      </trkpt>
      <trkpt lat="43.58566" lon="6.82942">
        <ele>249.8</ele>
        <time>2025-01-10T09:06:26.000Z</time>
      </trkpt>
      <trkpt lat="43.58562" lon="6.82943">
        <ele>249.8</ele>
        <time>2025-01-10T09:06:25.000Z</time>
      </trkpt>
      <trkpt lat="43.58557" lon="6.82944">
        <ele>249.9</ele>
        <time>2025-01-10T09:06:24.000Z</time>
      </trkpt>
      <trkpt lat="43.58552" lon="6.82945">
        <ele>249.9</ele>
        <time>2025-01-10T09:06:23.000Z</time>
      </trkpt>
      <trkpt lat="43.58548" lon="6.82946">
        <ele>249.9</ele>
        <time>2025-01-10T09:06:22.000Z</time>
      </trkpt>
      <trkpt lat="43.58543" lon="6.82946">
        <ele>249.9</ele>
        <time>2025-01-10T09:06:21.000Z</time>
      </trkpt>
      <trkpt lat="43.58538" lon="6.82947">
        <ele>249.9</ele>
        <time>2025-01-10T09:06:20.000Z</time>
      </trkpt>
      <trkpt lat="43.58533" lon="6.82949">
        <ele>250</ele>
        <time>2025-01-10T09:06:19.000Z</time>
      </trkpt>
      <trkpt lat="43.58527" lon="6.8295">
        <ele>250</ele>
        <time>2025-01-10T09:06:18.000Z</time>
      </trkpt>
      <trkpt lat="43.58523" lon="6.82952">
        <ele>250.1</ele>
        <time>2025-01-10T09:06:17.000Z</time>
      </trkpt>
      <trkpt lat="43.58517" lon="6.82955">
        <ele>250.2</ele>
        <time>2025-01-10T09:06:16.000Z</time>
      </trkpt>
      <trkpt lat="43.58512" lon="6.82958">
        <ele>250.4</ele>
        <time>2025-01-10T09:06:15.000Z</time>
      </trkpt>
      <trkpt lat="43.58508" lon="6.82962">
        <ele>250.7</ele>
        <time>2025-01-10T09:06:14.000Z</time>
      </trkpt>
      <trkpt lat="43.58504" lon="6.82966">
        <ele>250.9</ele>
        <time>2025-01-10T09:06:13.000Z</time>
      </trkpt>
      <trkpt lat="43.585" lon="6.82971">
        <ele>251.2</ele>
        <time>2025-01-10T09:06:12.000Z</time>
      </trkpt>
      <trkpt lat="43.58496" lon="6.82975">
        <ele>251.4</ele>
        <time>2025-01-10T09:06:11.000Z</time>
      </trkpt>
      <trkpt lat="43.58492" lon="6.8298">
        <ele>251.8</ele>
        <time>2025-01-10T09:06:10.000Z</time>
      </trkpt>
      <trkpt lat="43.58489" lon="6.82986">
        <ele>252.2</ele>
        <time>2025-01-10T09:06:09.000Z</time>
      </trkpt>
      <trkpt lat="43.58487" lon="6.82992">
        <ele>252.6</ele>
        <time>2025-01-10T09:06:08.000Z</time>
      </trkpt>
      <trkpt lat="43.58486" lon="6.82998">
        <ele>253.1</ele>
        <time>2025-01-10T09:06:07.000Z</time>
      </trkpt>
      <trkpt lat="43.58486" lon="6.83003">
        <ele>253.6</ele>
        <time>2025-01-10T09:06:06.000Z</time>
      </trkpt>
      <trkpt lat="43.58487" lon="6.83008">
        <ele>254.1</ele>
        <time>2025-01-10T09:06:05.000Z</time>
      </trkpt>
      <trkpt lat="43.58489" lon="6.83012">
        <ele>254.6</ele>
        <time>2025-01-10T09:06:04.000Z</time>
      </trkpt>
      <trkpt lat="43.58491" lon="6.83015">
        <ele>255.3</ele>
        <time>2025-01-10T09:06:03.000Z</time>
      </trkpt>
      <trkpt lat="43.58494" lon="6.83018">
        <ele>255.9</ele>
        <time>2025-01-10T09:06:02.000Z</time>
      </trkpt>
      <trkpt lat="43.58498" lon="6.83019">
        <ele>256.5</ele>
        <time>2025-01-10T09:06:01.000Z</time>
      </trkpt>
      <trkpt lat="43.58501" lon="6.83019">
        <ele>257.1</ele>
        <time>2025-01-10T09:06:00.000Z</time>
      </trkpt>
      <trkpt lat="43.58504" lon="6.83018">
        <ele>257.7</ele>
        <time>2025-01-10T09:05:59.000Z</time>
      </trkpt>
      <trkpt lat="43.58508" lon="6.83016">
        <ele>258.3</ele>
        <time>2025-01-10T09:05:58.000Z</time>
      </trkpt>
      <trkpt lat="43.58512" lon="6.83014">
        <ele>258.9</ele>
        <time>2025-01-10T09:05:57.000Z</time>
      </trkpt>
      <trkpt lat="43.58516" lon="6.83013">
        <ele>259.5</ele>
        <time>2025-01-10T09:05:56.000Z</time>
      </trkpt>
      <trkpt lat="43.5852" lon="6.83012">
        <ele>260</ele>
        <time>2025-01-10T09:05:55.000Z</time>
      </trkpt>
      <trkpt lat="43.58524" lon="6.83012">
        <ele>260.5</ele>
        <time>2025-01-10T09:05:54.000Z</time>
      </trkpt>
      <trkpt lat="43.58529" lon="6.83013">
        <ele>261</ele>
        <time>2025-01-10T09:05:53.000Z</time>
      </trkpt>
      <trkpt lat="43.58533" lon="6.83015">
        <ele>261.5</ele>
        <time>2025-01-10T09:05:52.000Z</time>
      </trkpt>
      <trkpt lat="43.58537" lon="6.83016">
        <ele>261.9</ele>
        <time>2025-01-10T09:05:51.000Z</time>
      </trkpt>
      <trkpt lat="43.58542" lon="6.83017">
        <ele>262.3</ele>
        <time>2025-01-10T09:05:50.000Z</time>
      </trkpt>
      <trkpt lat="43.58546" lon="6.83019">
        <ele>262.6</ele>
        <time>2025-01-10T09:05:49.000Z</time>
      </trkpt>
      <trkpt lat="43.5855" lon="6.8302">
        <ele>262.9</ele>
        <time>2025-01-10T09:05:48.000Z</time>
      </trkpt>
      <trkpt lat="43.58555" lon="6.83022">
        <ele>263.1</ele>
        <time>2025-01-10T09:05:47.000Z</time>
      </trkpt>
      <trkpt lat="43.5856" lon="6.83024">
        <ele>263.3</ele>
        <time>2025-01-10T09:05:46.000Z</time>
      </trkpt>
      <trkpt lat="43.58564" lon="6.83026">
        <ele>263.4</ele>
        <time>2025-01-10T09:05:45.000Z</time>
      </trkpt>
      <trkpt lat="43.58568" lon="6.83027">
        <ele>263.6</ele>
        <time>2025-01-10T09:05:44.000Z</time>
      </trkpt>
      <trkpt lat="43.58573" lon="6.83027">
        <ele>263.8</ele>
        <time>2025-01-10T09:05:43.000Z</time>
      </trkpt>
      <trkpt lat="43.58576" lon="6.83028">
        <ele>264</ele>
        <time>2025-01-10T09:05:42.000Z</time>
      </trkpt>
      <trkpt lat="43.5858" lon="6.83027">
        <ele>264.2</ele>
        <time>2025-01-10T09:05:41.000Z</time>
      </trkpt>
      <trkpt lat="43.58583" lon="6.83027">
        <ele>264.4</ele>
        <time>2025-01-10T09:05:40.000Z</time>
      </trkpt>
      <trkpt lat="43.58586" lon="6.83026">
        <ele>264.6</ele>
        <time>2025-01-10T09:05:39.000Z</time>
      </trkpt>
      <trkpt lat="43.58588" lon="6.83025">
        <ele>264.8</ele>
        <time>2025-01-10T09:05:38.000Z</time>
      </trkpt>
      <trkpt lat="43.58591" lon="6.83024">
        <ele>265</ele>
        <time>2025-01-10T09:05:37.000Z</time>
      </trkpt>
      <trkpt lat="43.58593" lon="6.83023">
        <ele>265.2</ele>
        <time>2025-01-10T09:05:36.000Z</time>
      </trkpt>
      <trkpt lat="43.58595" lon="6.83021">
        <ele>265.4</ele>
        <time>2025-01-10T09:05:35.000Z</time>
      </trkpt>
      <trkpt lat="43.58596" lon="6.83021">
        <ele>265.5</ele>
        <time>2025-01-10T09:05:34.000Z</time>
      </trkpt>
      <trkpt lat="43.58597" lon="6.83021">
        <ele>265.6</ele>
        <time>2025-01-10T09:05:33.000Z</time>
      </trkpt>
      <trkpt lat="43.58597" lon="6.8302">
        <ele>265.6</ele>
        <time>2025-01-10T09:05:32.000Z</time>
      </trkpt>
      <trkpt lat="43.58596" lon="6.8302">
        <ele>265.6</ele>
        <time>2025-01-10T09:05:31.000Z</time>
      </trkpt>
      <trkpt lat="43.58596" lon="6.8302">
        <ele>265.7</ele>
        <time>2025-01-10T09:05:30.000Z</time>
      </trkpt>
      <trkpt lat="43.58596" lon="6.83021">
        <ele>265.7</ele>
        <time>2025-01-10T09:05:29.000Z</time>
      </trkpt>
      <trkpt lat="43.58596" lon="6.83021">
        <ele>265.7</ele>
        <time>2025-01-10T09:05:28.000Z</time>
      </trkpt>
      <trkpt lat="43.58596" lon="6.83021">
        <ele>265.8</ele>
        <time>2025-01-10T09:05:27.000Z</time>
      </trkpt>
      <trkpt lat="43.58597" lon="6.83021">
        <ele>265.9</ele>
        <time>2025-01-10T09:05:26.000Z</time>
      </trkpt>
      <trkpt lat="43.58598" lon="6.83021">
        <ele>266</ele>
        <time>2025-01-10T09:05:25.000Z</time>
      </trkpt>
      <trkpt lat="43.586" lon="6.8302">
        <ele>266.2</ele>
        <time>2025-01-10T09:05:24.000Z</time>
      </trkpt>
      <trkpt lat="43.58602" lon="6.8302">
        <ele>266.5</ele>
        <time>2025-01-10T09:05:23.000Z</time>
      </trkpt>
      <trkpt lat="43.58605" lon="6.83019">
        <ele>266.8</ele>
        <time>2025-01-10T09:05:22.000Z</time>
      </trkpt>
      <trkpt lat="43.58607" lon="6.83019">
        <ele>267.2</ele>
        <time>2025-01-10T09:05:21.000Z</time>
      </trkpt>
      <trkpt lat="43.5861" lon="6.83019">
        <ele>267.7</ele>
        <time>2025-01-10T09:05:20.000Z</time>
      </trkpt>
      <trkpt lat="43.58614" lon="6.83019">
        <ele>268.2</ele>
        <time>2025-01-10T09:05:19.000Z</time>
      </trkpt>
      <trkpt lat="43.58617" lon="6.8302">
        <ele>268.8</ele>
        <time>2025-01-10T09:05:18.000Z</time>
      </trkpt>
      <trkpt lat="43.5862" lon="6.83022">
        <ele>269.3</ele>
        <time>2025-01-10T09:05:17.000Z</time>
      </trkpt>
      <trkpt lat="43.58622" lon="6.83024">
        <ele>269.7</ele>
        <time>2025-01-10T09:05:16.000Z</time>
      </trkpt>
      <trkpt lat="43.58625" lon="6.83025">
        <ele>270.1</ele>
        <time>2025-01-10T09:05:15.000Z</time>
      </trkpt>
      <trkpt lat="43.58626" lon="6.83026">
        <ele>270.4</ele>
        <time>2025-01-10T09:05:14.000Z</time>
      </trkpt>
      <trkpt lat="43.58628" lon="6.83026">
        <ele>270.7</ele>
        <time>2025-01-10T09:05:13.000Z</time>
      </trkpt>
      <trkpt lat="43.58631" lon="6.83024">
        <ele>271</ele>
        <time>2025-01-10T09:05:12.000Z</time>
      </trkpt>
      <trkpt lat="43.58632" lon="6.83022">
        <ele>271.3</ele>
        <time>2025-01-10T09:05:11.000Z</time>
      </trkpt>
      <trkpt lat="43.58633" lon="6.83019">
        <ele>271</ele>
        <time>2025-01-10T09:05:10.000Z</time>
      </trkpt>
      <trkpt lat="43.58634" lon="6.83016">
        <ele>270.6</ele>
        <time>2025-01-10T09:05:09.000Z</time>
      </trkpt>
      <trkpt lat="43.58635" lon="6.83013">
        <ele>270</ele>
        <time>2025-01-10T09:05:08.000Z</time>
      </trkpt>
      <trkpt lat="43.58636" lon="6.83008">
        <ele>269.5</ele>
        <time>2025-01-10T09:05:07.000Z</time>
      </trkpt>
      <trkpt lat="43.58638" lon="6.83004">
        <ele>268.9</ele>
        <time>2025-01-10T09:05:06.000Z</time>
      </trkpt>
      <trkpt lat="43.58639" lon="6.83">
        <ele>268.3</ele>
        <time>2025-01-10T09:05:05.000Z</time>
      </trkpt>
      <trkpt lat="43.58641" lon="6.82996">
        <ele>267.8</ele>
        <time>2025-01-10T09:05:04.000Z</time>
      </trkpt>
      <trkpt lat="43.58643" lon="6.82993">
        <ele>267.2</ele>
        <time>2025-01-10T09:05:03.000Z</time>
      </trkpt>
      <trkpt lat="43.58645" lon="6.82989">
        <ele>266.6</ele>
        <time>2025-01-10T09:05:02.000Z</time>
      </trkpt>
      <trkpt lat="43.58647" lon="6.82985">
        <ele>266.1</ele>
        <time>2025-01-10T09:05:01.000Z</time>
      </trkpt>
      <trkpt lat="43.58649" lon="6.82981">
        <ele>265.5</ele>
        <time>2025-01-10T09:05:00.000Z</time>
      </trkpt>
      <trkpt lat="43.58651" lon="6.82977">
        <ele>264.8</ele>
        <time>2025-01-10T09:04:59.000Z</time>
      </trkpt>
      <trkpt lat="43.58652" lon="6.82976">
        <ele>264.6</ele>
        <time>2025-01-10T09:04:58.000Z</time>
      </trkpt>
      <trkpt lat="43.58653" lon="6.82975">
        <ele>264.5</ele>
        <time>2025-01-10T09:04:57.000Z</time>
      </trkpt>
      <trkpt lat="43.58653" lon="6.82974">
        <ele>264.3</ele>
        <time>2025-01-10T09:04:56.000Z</time>
      </trkpt>
      <trkpt lat="43.58654" lon="6.82973">
        <ele>264.1</ele>
        <time>2025-01-10T09:04:55.000Z</time>
      </trkpt>
      <trkpt lat="43.58655" lon="6.82972">
        <ele>264</ele>
        <time>2025-01-10T09:04:54.000Z</time>
      </trkpt>
      <trkpt lat="43.58655" lon="6.82972">
        <ele>263.8</ele>
        <time>2025-01-10T09:04:53.000Z</time>
      </trkpt>
      <trkpt lat="43.58656" lon="6.82971">
        <ele>263.7</ele>
        <time>2025-01-10T09:04:52.000Z</time>
      </trkpt>
      <trkpt lat="43.58657" lon="6.8297">
        <ele>263.5</ele>
        <time>2025-01-10T09:04:51.000Z</time>
      </trkpt>
      <trkpt lat="43.58657" lon="6.82969">
        <ele>263.3</ele>
        <time>2025-01-10T09:04:50.000Z</time>
      </trkpt>
      <trkpt lat="43.58658" lon="6.82968">
        <ele>263.2</ele>
        <time>2025-01-10T09:04:49.000Z</time>
      </trkpt>
      <trkpt lat="43.58659" lon="6.82967">
        <ele>263</ele>
        <time>2025-01-10T09:04:48.000Z</time>
      </trkpt>
      <trkpt lat="43.5866" lon="6.82966">
        <ele>262.9</ele>
        <time>2025-01-10T09:04:47.000Z</time>
      </trkpt>
      <trkpt lat="43.5866" lon="6.82966">
        <ele>262.7</ele>
        <time>2025-01-10T09:04:46.000Z</time>
      </trkpt>
      <trkpt lat="43.58661" lon="6.82965">
        <ele>262.5</ele>
        <time>2025-01-10T09:04:45.000Z</time>
      </trkpt>
      <trkpt lat="43.58662" lon="6.82964">
        <ele>262.4</ele>
        <time>2025-01-10T09:04:44.000Z</time>
      </trkpt>
      <trkpt lat="43.58662" lon="6.82963">
        <ele>262.2</ele>
        <time>2025-01-10T09:04:43.000Z</time>
      </trkpt>
      <trkpt lat="43.58663" lon="6.82962">
        <ele>262.1</ele>
        <time>2025-01-10T09:04:42.000Z</time>
      </trkpt>
      <trkpt lat="43.58664" lon="6.82961">
        <ele>261.9</ele>
        <time>2025-01-10T09:04:41.000Z</time>
      </trkpt>
      <trkpt lat="43.58664" lon="6.8296">
        <ele>261.8</ele>
        <time>2025-01-10T09:04:40.000Z</time>
      </trkpt>
      <trkpt lat="43.58665" lon="6.8296">
        <ele>261.6</ele>
        <time>2025-01-10T09:04:39.000Z</time>
      </trkpt>
      <trkpt lat="43.58666" lon="6.82959">
        <ele>261.4</ele>
        <time>2025-01-10T09:04:38.000Z</time>
      </trkpt>
      <trkpt lat="43.58666" lon="6.82958">
        <ele>261.3</ele>
        <time>2025-01-10T09:04:37.000Z</time>
      </trkpt>
      <trkpt lat="43.58667" lon="6.82957">
        <ele>261.1</ele>
        <time>2025-01-10T09:04:36.000Z</time>
      </trkpt>
      <trkpt lat="43.58668" lon="6.82956">
        <ele>260.9</ele>
        <time>2025-01-10T09:04:35.000Z</time>
      </trkpt>
      <trkpt lat="43.58669" lon="6.82955">
        <ele>260.8</ele>
        <time>2025-01-10T09:04:34.000Z</time>
      </trkpt>
      <trkpt lat="43.58669" lon="6.82954">
        <ele>260.6</ele>
        <time>2025-01-10T09:04:33.000Z</time>
      </trkpt>
      <trkpt lat="43.5867" lon="6.82954">
        <ele>260.5</ele>
        <time>2025-01-10T09:04:32.000Z</time>
      </trkpt>
      <trkpt lat="43.58671" lon="6.82953">
        <ele>260.3</ele>
        <time>2025-01-10T09:04:31.000Z</time>
      </trkpt>
      <trkpt lat="43.58671" lon="6.82952">
        <ele>260.2</ele>
        <time>2025-01-10T09:04:30.000Z</time>
      </trkpt>
      <trkpt lat="43.58672" lon="6.82951">
        <ele>260</ele>
        <time>2025-01-10T09:04:29.000Z</time>
      </trkpt>
      <trkpt lat="43.58673" lon="6.8295">
        <ele>259.8</ele>
        <time>2025-01-10T09:04:28.000Z</time>
      </trkpt>
      <trkpt lat="43.58674" lon="6.82949">
        <ele>259.6</ele>
        <time>2025-01-10T09:04:27.000Z</time>
      </trkpt>
      <trkpt lat="43.58674" lon="6.8295">
        <ele>259.6</ele>
        <time>2025-01-10T09:04:26.000Z</time>
      </trkpt>
      <trkpt lat="43.58673" lon="6.8295">
        <ele>259.7</ele>
        <time>2025-01-10T09:04:25.000Z</time>
      </trkpt>
      <trkpt lat="43.58672" lon="6.82951">
        <ele>259.9</ele>
        <time>2025-01-10T09:04:24.000Z</time>
      </trkpt>
      <trkpt lat="43.5867" lon="6.82952">
        <ele>260.3</ele>
        <time>2025-01-10T09:04:23.000Z</time>
      </trkpt>
      <trkpt lat="43.58668" lon="6.82955">
        <ele>260.8</ele>
        <time>2025-01-10T09:04:22.000Z</time>
      </trkpt>
      <trkpt lat="43.58665" lon="6.82957">
        <ele>261.4</ele>
        <time>2025-01-10T09:04:21.000Z</time>
      </trkpt>
      <trkpt lat="43.58662" lon="6.82961">
        <ele>262</ele>
        <time>2025-01-10T09:04:20.000Z</time>
      </trkpt>
      <trkpt lat="43.58659" lon="6.82964">
        <ele>262.7</ele>
        <time>2025-01-10T09:04:19.000Z</time>
      </trkpt>
      <trkpt lat="43.58657" lon="6.82968">
        <ele>263.3</ele>
        <time>2025-01-10T09:04:18.000Z</time>
      </trkpt>
      <trkpt lat="43.58655" lon="6.82972">
        <ele>263.9</ele>
        <time>2025-01-10T09:04:17.000Z</time>
      </trkpt>
      <trkpt lat="43.58653" lon="6.82976">
        <ele>264.5</ele>
        <time>2025-01-10T09:04:16.000Z</time>
      </trkpt>
      <trkpt lat="43.58651" lon="6.8298">
        <ele>265.1</ele>
        <time>2025-01-10T09:04:15.000Z</time>
      </trkpt>
      <trkpt lat="43.58649" lon="6.82984">
        <ele>265.7</ele>
        <time>2025-01-10T09:04:14.000Z</time>
      </trkpt>
      <trkpt lat="43.58647" lon="6.82988">
        <ele>266.2</ele>
        <time>2025-01-10T09:04:13.000Z</time>
      </trkpt>
      <trkpt lat="43.58645" lon="6.82992">
        <ele>266.8</ele>
        <time>2025-01-10T09:04:12.000Z</time>
      </trkpt>
      <trkpt lat="43.58643" lon="6.82996">
        <ele>267.4</ele>
        <time>2025-01-10T09:04:11.000Z</time>
      </trkpt>
      <trkpt lat="43.58642" lon="6.83001">
        <ele>268</ele>
        <time>2025-01-10T09:04:10.000Z</time>
      </trkpt>
      <trkpt lat="43.5864" lon="6.83005">
        <ele>268.6</ele>
        <time>2025-01-10T09:04:09.000Z</time>
      </trkpt>
      <trkpt lat="43.58638" lon="6.83009">
        <ele>269.1</ele>
        <time>2025-01-10T09:04:08.000Z</time>
      </trkpt>
      <trkpt lat="43.58637" lon="6.83012">
        <ele>269.6</ele>
        <time>2025-01-10T09:04:07.000Z</time>
      </trkpt>
      <trkpt lat="43.58636" lon="6.83015">
        <ele>270</ele>
        <time>2025-01-10T09:04:06.000Z</time>
      </trkpt>
      <trkpt lat="43.58635" lon="6.83018">
        <ele>270.4</ele>
        <time>2025-01-10T09:04:05.000Z</time>
      </trkpt>
      <trkpt lat="43.58635" lon="6.83018">
        <ele>270.4</ele>
        <time>2025-01-10T09:04:04.000Z</time>
      </trkpt>
      <trkpt lat="43.58635" lon="6.83018">
        <ele>270.4</ele>
        <time>2025-01-10T09:04:03.000Z</time>
      </trkpt>
      <trkpt lat="43.58635" lon="6.83018">
        <ele>270.4</ele>
        <time>2025-01-10T09:04:02.000Z</time>
      </trkpt>
      <trkpt lat="43.58635" lon="6.83018">
        <ele>270.4</ele>
        <time>2025-01-10T09:04:01.000Z</time>
      </trkpt>
      <trkpt lat="43.58635" lon="6.83018">
        <ele>270.5</ele>
        <time>2025-01-10T09:04:00.000Z</time>
      </trkpt>
      <trkpt lat="43.58635" lon="6.83018">
        <ele>270.5</ele>
        <time>2025-01-10T09:03:59.000Z</time>
      </trkpt>
      <trkpt lat="43.58635" lon="6.83018">
        <ele>270.5</ele>
        <time>2025-01-10T09:03:58.000Z</time>
      </trkpt>
      <trkpt lat="43.58635" lon="6.83018">
        <ele>270.5</ele>
        <time>2025-01-10T09:03:57.000Z</time>
      </trkpt>
      <trkpt lat="43.58635" lon="6.83019">
        <ele>270.5</ele>
        <time>2025-01-10T09:03:56.000Z</time>
      </trkpt>
      <trkpt lat="43.58635" lon="6.83019">
        <ele>270.5</ele>
        <time>2025-01-10T09:03:55.000Z</time>
      </trkpt>
      <trkpt lat="43.58635" lon="6.83019">
        <ele>270.5</ele>
        <time>2025-01-10T09:03:54.000Z</time>
      </trkpt>
      <trkpt lat="43.58635" lon="6.83019">
        <ele>270.5</ele>
        <time>2025-01-10T09:03:53.000Z</time>
      </trkpt>
      <trkpt lat="43.58635" lon="6.83019">
        <ele>270.5</ele>
        <time>2025-01-10T09:03:52.000Z</time>
      </trkpt>
      <trkpt lat="43.58635" lon="6.83019">
        <ele>270.5</ele>
        <time>2025-01-10T09:03:51.000Z</time>
      </trkpt>
      <trkpt lat="43.58635" lon="6.83019">
        <ele>270.5</ele>
        <time>2025-01-10T09:03:50.000Z</time>
      </trkpt>
      <trkpt lat="43.58635" lon="6.83019">
        <ele>270.5</ele>
        <time>2025-01-10T09:03:49.000Z</time>
      </trkpt>
      <trkpt lat="43.58635" lon="6.83019">
        <ele>270.5</ele>
        <time>2025-01-10T09:03:48.000Z</time>
      </trkpt>
      <trkpt lat="43.58635" lon="6.83019">
        <ele>270.5</ele>
        <time>2025-01-10T09:03:47.000Z</time>
      </trkpt>
      <trkpt lat="43.58635" lon="6.83019">
        <ele>270.5</ele>
        <time>2025-01-10T09:03:46.000Z</time>
      </trkpt>
      <trkpt lat="43.58635" lon="6.83019">
        <ele>270.5</ele>
        <time>2025-01-10T09:03:45.000Z</time>
      </trkpt>
      <trkpt lat="43.58635" lon="6.83019">
        <ele>270.5</ele>
        <time>2025-01-10T09:03:44.000Z</time>
      </trkpt>
      <trkpt lat="43.58635" lon="6.83019">
        <ele>270.5</ele>
        <time>2025-01-10T09:03:43.000Z</time>
      </trkpt>
      <trkpt lat="43.58635" lon="6.83019">
        <ele>270.5</ele>
        <time>2025-01-10T09:03:42.000Z</time>
      </trkpt>
      <trkpt lat="43.58635" lon="6.83019">
        <ele>270.5</ele>
        <time>2025-01-10T09:03:41.000Z</time>
      </trkpt>
      <trkpt lat="43.58635" lon="6.83019">
        <ele>270.5</ele>
        <time>2025-01-10T09:03:40.000Z</time>
      </trkpt>
      <trkpt lat="43.58635" lon="6.83019">
        <ele>270.5</ele>
        <time>2025-01-10T09:03:39.000Z</time>
      </trkpt>
      <trkpt lat="43.58635" lon="6.83019">
        <ele>270.6</ele>
        <time>2025-01-10T09:03:38.000Z</time>
      </trkpt>
      <trkpt lat="43.58635" lon="6.83019">
        <ele>270.6</ele>
        <time>2025-01-10T09:03:37.000Z</time>
      </trkpt>
      <trkpt lat="43.58635" lon="6.83019">
        <ele>270.6</ele>
        <time>2025-01-10T09:03:36.000Z</time>
      </trkpt>
      <trkpt lat="43.58635" lon="6.8302">
        <ele>270.7</ele>
        <time>2025-01-10T09:03:35.000Z</time>
      </trkpt>
      <trkpt lat="43.58635" lon="6.8302">
        <ele>270.7</ele>
        <time>2025-01-10T09:03:34.000Z</time>
      </trkpt>
      <trkpt lat="43.58635" lon="6.8302">
        <ele>270.8</ele>
        <time>2025-01-10T09:03:33.000Z</time>
      </trkpt>
      <trkpt lat="43.58635" lon="6.8302">
        <ele>270.8</ele>
        <time>2025-01-10T09:03:32.000Z</time>
      </trkpt>
      <trkpt lat="43.58636" lon="6.8302">
        <ele>270.9</ele>
        <time>2025-01-10T09:03:31.000Z</time>
      </trkpt>
      <trkpt lat="43.58636" lon="6.8302">
        <ele>270.9</ele>
        <time>2025-01-10T09:03:30.000Z</time>
      </trkpt>
      <trkpt lat="43.58636" lon="6.8302">
        <ele>271</ele>
        <time>2025-01-10T09:03:29.000Z</time>
      </trkpt>
      <trkpt lat="43.58635" lon="6.83021">
        <ele>271</ele>
        <time>2025-01-10T09:03:28.000Z</time>
      </trkpt>
      <trkpt lat="43.58636" lon="6.83021">
        <ele>271.1</ele>
        <time>2025-01-10T09:03:27.000Z</time>
      </trkpt>
      <trkpt lat="43.58635" lon="6.83023">
        <ele>271.2</ele>
        <time>2025-01-10T09:03:26.000Z</time>
      </trkpt>
      <trkpt lat="43.58635" lon="6.83024">
        <ele>271.4</ele>
        <time>2025-01-10T09:03:25.000Z</time>
      </trkpt>
      <trkpt lat="43.58634" lon="6.83025">
        <ele>271.5</ele>
        <time>2025-01-10T09:03:24.000Z</time>
      </trkpt>
      <trkpt lat="43.58633" lon="6.83025">
        <ele>271.6</ele>
        <time>2025-01-10T09:03:23.000Z</time>
      </trkpt>
      <trkpt lat="43.58632" lon="6.83026">
        <ele>271.8</ele>
        <time>2025-01-10T09:03:22.000Z</time>
      </trkpt>
      <trkpt lat="43.58631" lon="6.83026">
        <ele>271.9</ele>
        <time>2025-01-10T09:03:21.000Z</time>
      </trkpt>
      <trkpt lat="43.58631" lon="6.83026">
        <ele>272</ele>
        <time>2025-01-10T09:03:20.000Z</time>
      </trkpt>
      <trkpt lat="43.58631" lon="6.83026">
        <ele>272</ele>
        <time>2025-01-10T09:03:19.000Z</time>
      </trkpt>
      <trkpt lat="43.5863" lon="6.83026">
        <ele>272.1</ele>
        <time>2025-01-10T09:03:18.000Z</time>
      </trkpt>
      <trkpt lat="43.5863" lon="6.83026">
        <ele>272.2</ele>
        <time>2025-01-10T09:03:17.000Z</time>
      </trkpt>
      <trkpt lat="43.5863" lon="6.83027">
        <ele>272.2</ele>
        <time>2025-01-10T09:03:16.000Z</time>
      </trkpt>
      <trkpt lat="43.5863" lon="6.83026">
        <ele>272.3</ele>
        <time>2025-01-10T09:03:15.000Z</time>
      </trkpt>
      <trkpt lat="43.5863" lon="6.83026">
        <ele>272.3</ele>
        <time>2025-01-10T09:03:14.000Z</time>
      </trkpt>
      <trkpt lat="43.5863" lon="6.83026">
        <ele>272.4</ele>
        <time>2025-01-10T09:03:13.000Z</time>
      </trkpt>
      <trkpt lat="43.5863" lon="6.83025">
        <ele>272.5</ele>
        <time>2025-01-10T09:03:12.000Z</time>
      </trkpt>
      <trkpt lat="43.5863" lon="6.83025">
        <ele>272.5</ele>
        <time>2025-01-10T09:03:11.000Z</time>
      </trkpt>
      <trkpt lat="43.5863" lon="6.83025">
        <ele>272.6</ele>
        <time>2025-01-10T09:03:10.000Z</time>
      </trkpt>
      <trkpt lat="43.5863" lon="6.83025">
        <ele>272.7</ele>
        <time>2025-01-10T09:03:09.000Z</time>
      </trkpt>
      <trkpt lat="43.58629" lon="6.83024">
        <ele>272.9</ele>
        <time>2025-01-10T09:03:08.000Z</time>
      </trkpt>
      <trkpt lat="43.58629" lon="6.83024">
        <ele>273</ele>
        <time>2025-01-10T09:03:07.000Z</time>
      </trkpt>
      <trkpt lat="43.58629" lon="6.83024">
        <ele>273</ele>
        <time>2025-01-10T09:03:06.000Z</time>
      </trkpt>
      <trkpt lat="43.58629" lon="6.83023">
        <ele>273.2</ele>
        <time>2025-01-10T09:03:05.000Z</time>
      </trkpt>
      <trkpt lat="43.58631" lon="6.83023">
        <ele>273.5</ele>
        <time>2025-01-10T09:03:04.000Z</time>
      </trkpt>
      <trkpt lat="43.58634" lon="6.83022">
        <ele>274.1</ele>
        <time>2025-01-10T09:03:03.000Z</time>
      </trkpt>
      <trkpt lat="43.58638" lon="6.83022">
        <ele>274.9</ele>
        <time>2025-01-10T09:03:02.000Z</time>
      </trkpt>
      <trkpt lat="43.58641" lon="6.83021">
        <ele>275.4</ele>
        <time>2025-01-10T09:03:01.000Z</time>
      </trkpt>
      <trkpt lat="43.58646" lon="6.83022">
        <ele>276.3</ele>
        <time>2025-01-10T09:03:00.000Z</time>
      </trkpt>
      <trkpt lat="43.5865" lon="6.83023">
        <ele>277.1</ele>
        <time>2025-01-10T09:02:59.000Z</time>
      </trkpt>
      <trkpt lat="43.58655" lon="6.83025">
        <ele>278</ele>
        <time>2025-01-10T09:02:58.000Z</time>
      </trkpt>
      <trkpt lat="43.58658" lon="6.83027">
        <ele>278.6</ele>
        <time>2025-01-10T09:02:57.000Z</time>
      </trkpt>
      <trkpt lat="43.58661" lon="6.83029">
        <ele>279.2</ele>
        <time>2025-01-10T09:02:56.000Z</time>
      </trkpt>
      <trkpt lat="43.58662" lon="6.83032">
        <ele>279.7</ele>
        <time>2025-01-10T09:02:55.000Z</time>
      </trkpt>
      <trkpt lat="43.58662" lon="6.83036">
        <ele>280.3</ele>
        <time>2025-01-10T09:02:54.000Z</time>
      </trkpt>
      <trkpt lat="43.58662" lon="6.83042">
        <ele>281</ele>
        <time>2025-01-10T09:02:53.000Z</time>
      </trkpt>
      <trkpt lat="43.58661" lon="6.83047">
        <ele>281.6</ele>
        <time>2025-01-10T09:02:52.000Z</time>
      </trkpt>
      <trkpt lat="43.58659" lon="6.83051">
        <ele>282.1</ele>
        <time>2025-01-10T09:02:51.000Z</time>
      </trkpt>
      <trkpt lat="43.58659" lon="6.83055">
        <ele>282.6</ele>
        <time>2025-01-10T09:02:50.000Z</time>
      </trkpt>
      <trkpt lat="43.58659" lon="6.83061">
        <ele>283.3</ele>
        <time>2025-01-10T09:02:49.000Z</time>
      </trkpt>
      <trkpt lat="43.58659" lon="6.83067">
        <ele>284</ele>
        <time>2025-01-10T09:02:48.000Z</time>
      </trkpt>
      <trkpt lat="43.5866" lon="6.83073">
        <ele>284.7</ele>
        <time>2025-01-10T09:02:47.000Z</time>
      </trkpt>
      <trkpt lat="43.58662" lon="6.8308">
        <ele>285.6</ele>
        <time>2025-01-10T09:02:46.000Z</time>
      </trkpt>
      <trkpt lat="43.58664" lon="6.83086">
        <ele>286.4</ele>
        <time>2025-01-10T09:02:45.000Z</time>
      </trkpt>
      <trkpt lat="43.58665" lon="6.83092">
        <ele>287.3</ele>
        <time>2025-01-10T09:02:44.000Z</time>
      </trkpt>
      <trkpt lat="43.58667" lon="6.83098">
        <ele>288.1</ele>
        <time>2025-01-10T09:02:43.000Z</time>
      </trkpt>
      <trkpt lat="43.58669" lon="6.83103">
        <ele>288.8</ele>
        <time>2025-01-10T09:02:42.000Z</time>
      </trkpt>
      <trkpt lat="43.58671" lon="6.83108">
        <ele>289.6</ele>
        <time>2025-01-10T09:02:41.000Z</time>
      </trkpt>
      <trkpt lat="43.58674" lon="6.83114">
        <ele>290.4</ele>
        <time>2025-01-10T09:02:40.000Z</time>
      </trkpt>
      <trkpt lat="43.58676" lon="6.83119">
        <ele>291.3</ele>
        <time>2025-01-10T09:02:39.000Z</time>
      </trkpt>
      <trkpt lat="43.58678" lon="6.83126">
        <ele>292.2</ele>
        <time>2025-01-10T09:02:38.000Z</time>
      </trkpt>
      <trkpt lat="43.5868" lon="6.83133">
        <ele>293</ele>
        <time>2025-01-10T09:02:37.000Z</time>
      </trkpt>
      <trkpt lat="43.58682" lon="6.8314">
        <ele>293.7</ele>
        <time>2025-01-10T09:02:36.000Z</time>
      </trkpt>
      <trkpt lat="43.58683" lon="6.83147">
        <ele>294.4</ele>
        <time>2025-01-10T09:02:35.000Z</time>
      </trkpt>
      <trkpt lat="43.58684" lon="6.83155">
        <ele>295.1</ele>
        <time>2025-01-10T09:02:34.000Z</time>
      </trkpt>
      <trkpt lat="43.58683" lon="6.83163">
        <ele>295.7</ele>
        <time>2025-01-10T09:02:33.000Z</time>
      </trkpt>
      <trkpt lat="43.58682" lon="6.8317">
        <ele>296.3</ele>
        <time>2025-01-10T09:02:32.000Z</time>
      </trkpt>
      <trkpt lat="43.58681" lon="6.83178">
        <ele>297</ele>
        <time>2025-01-10T09:02:31.000Z</time>
      </trkpt>
      <trkpt lat="43.58681" lon="6.83185">
        <ele>297.7</ele>
        <time>2025-01-10T09:02:30.000Z</time>
      </trkpt>
      <trkpt lat="43.5868" lon="6.83191">
        <ele>298.4</ele>
        <time>2025-01-10T09:02:29.000Z</time>
      </trkpt>
      <trkpt lat="43.5868" lon="6.83197">
        <ele>299.2</ele>
        <time>2025-01-10T09:02:28.000Z</time>
      </trkpt>
      <trkpt lat="43.5868" lon="6.83202">
        <ele>299.9</ele>
        <time>2025-01-10T09:02:27.000Z</time>
      </trkpt>
      <trkpt lat="43.5868" lon="6.83207">
        <ele>300.5</ele>
        <time>2025-01-10T09:02:26.000Z</time>
      </trkpt>
      <trkpt lat="43.58681" lon="6.83211">
        <ele>301.1</ele>
        <time>2025-01-10T09:02:25.000Z</time>
      </trkpt>
      <trkpt lat="43.58682" lon="6.83217">
        <ele>301.9</ele>
        <time>2025-01-10T09:02:24.000Z</time>
      </trkpt>
      <trkpt lat="43.58683" lon="6.83223">
        <ele>302.7</ele>
        <time>2025-01-10T09:02:23.000Z</time>
      </trkpt>
      <trkpt lat="43.58685" lon="6.8323">
        <ele>303.6</ele>
        <time>2025-01-10T09:02:22.000Z</time>
      </trkpt>
      <trkpt lat="43.58686" lon="6.83237">
        <ele>304.4</ele>
        <time>2025-01-10T09:02:21.000Z</time>
      </trkpt>
      <trkpt lat="43.58688" lon="6.83244">
        <ele>305.3</ele>
        <time>2025-01-10T09:02:20.000Z</time>
      </trkpt>
      <trkpt lat="43.5869" lon="6.8325">
        <ele>306.1</ele>
        <time>2025-01-10T09:02:19.000Z</time>
      </trkpt>
      <trkpt lat="43.58692" lon="6.83257">
        <ele>306.9</ele>
        <time>2025-01-10T09:02:18.000Z</time>
      </trkpt>
      <trkpt lat="43.58693" lon="6.83263">
        <ele>307.6</ele>
        <time>2025-01-10T09:02:17.000Z</time>
      </trkpt>
      <trkpt lat="43.58694" lon="6.83269">
        <ele>308.3</ele>
        <time>2025-01-10T09:02:16.000Z</time>
      </trkpt>
      <trkpt lat="43.58695" lon="6.83274">
        <ele>308.8</ele>
        <time>2025-01-10T09:02:15.000Z</time>
      </trkpt>
      <trkpt lat="43.58695" lon="6.83279">
        <ele>309.4</ele>
        <time>2025-01-10T09:02:14.000Z</time>
      </trkpt>
      <trkpt lat="43.58696" lon="6.83285">
        <ele>309.9</ele>
        <time>2025-01-10T09:02:13.000Z</time>
      </trkpt>
      <trkpt lat="43.58696" lon="6.83291">
        <ele>310.4</ele>
        <time>2025-01-10T09:02:12.000Z</time>
      </trkpt>
      <trkpt lat="43.58696" lon="6.83297">
        <ele>310.8</ele>
        <time>2025-01-10T09:02:11.000Z</time>
      </trkpt>
      <trkpt lat="43.58697" lon="6.83304">
        <ele>311.3</ele>
        <time>2025-01-10T09:02:10.000Z</time>
      </trkpt>
      <trkpt lat="43.58699" lon="6.83311">
        <ele>311.6</ele>
        <time>2025-01-10T09:02:09.000Z</time>
      </trkpt>
      <trkpt lat="43.587" lon="6.83319">
        <ele>312</ele>
        <time>2025-01-10T09:02:08.000Z</time>
      </trkpt>
      <trkpt lat="43.58702" lon="6.83327">
        <ele>312.4</ele>
        <time>2025-01-10T09:02:07.000Z</time>
      </trkpt>
      <trkpt lat="43.58705" lon="6.83334">
        <ele>312.8</ele>
        <time>2025-01-10T09:02:06.000Z</time>
      </trkpt>
      <trkpt lat="43.58707" lon="6.83341">
        <ele>313.2</ele>
        <time>2025-01-10T09:02:05.000Z</time>
      </trkpt>
      <trkpt lat="43.58709" lon="6.83348">
        <ele>313.7</ele>
        <time>2025-01-10T09:02:04.000Z</time>
      </trkpt>
      <trkpt lat="43.58712" lon="6.83355">
        <ele>314.3</ele>
        <time>2025-01-10T09:02:03.000Z</time>
      </trkpt>
      <trkpt lat="43.58713" lon="6.83362">
        <ele>314.8</ele>
        <time>2025-01-10T09:02:02.000Z</time>
      </trkpt>
      <trkpt lat="43.58715" lon="6.83369">
        <ele>315.3</ele>
        <time>2025-01-10T09:02:01.000Z</time>
      </trkpt>
      <trkpt lat="43.58715" lon="6.83376">
        <ele>315.9</ele>
        <time>2025-01-10T09:02:00.000Z</time>
      </trkpt>
      <trkpt lat="43.58715" lon="6.83382">
        <ele>316.4</ele>
        <time>2025-01-10T09:01:59.000Z</time>
      </trkpt>
      <trkpt lat="43.58716" lon="6.83388">
        <ele>316.9</ele>
        <time>2025-01-10T09:01:58.000Z</time>
      </trkpt>
      <trkpt lat="43.58716" lon="6.83395">
        <ele>317.4</ele>
        <time>2025-01-10T09:01:57.000Z</time>
      </trkpt>
      <trkpt lat="43.58717" lon="6.83401">
        <ele>317.9</ele>
        <time>2025-01-10T09:01:56.000Z</time>
      </trkpt>
      <trkpt lat="43.58717" lon="6.83407">
        <ele>318.4</ele>
        <time>2025-01-10T09:01:55.000Z</time>
      </trkpt>
      <trkpt lat="43.58718" lon="6.83412">
        <ele>318.8</ele>
        <time>2025-01-10T09:01:54.000Z</time>
      </trkpt>
      <trkpt lat="43.58719" lon="6.83418">
        <ele>319.2</ele>
        <time>2025-01-10T09:01:53.000Z</time>
      </trkpt>
      <trkpt lat="43.5872" lon="6.83423">
        <ele>319.6</ele>
        <time>2025-01-10T09:01:52.000Z</time>
      </trkpt>
      <trkpt lat="43.5872" lon="6.83429">
        <ele>319.9</ele>
        <time>2025-01-10T09:01:51.000Z</time>
      </trkpt>
      <trkpt lat="43.5872" lon="6.83434">
        <ele>320.2</ele>
        <time>2025-01-10T09:01:50.000Z</time>
      </trkpt>
      <trkpt lat="43.58721" lon="6.83439">
        <ele>320.4</ele>
        <time>2025-01-10T09:01:49.000Z</time>
      </trkpt>
      <trkpt lat="43.58722" lon="6.83444">
        <ele>320.6</ele>
        <time>2025-01-10T09:01:48.000Z</time>
      </trkpt>
      <trkpt lat="43.58722" lon="6.83449">
        <ele>320.8</ele>
        <time>2025-01-10T09:01:47.000Z</time>
      </trkpt>
      <trkpt lat="43.58723" lon="6.83455">
        <ele>321</ele>
        <time>2025-01-10T09:01:46.000Z</time>
      </trkpt>
      <trkpt lat="43.58724" lon="6.8346">
        <ele>321.1</ele>
        <time>2025-01-10T09:01:45.000Z</time>
      </trkpt>
      <trkpt lat="43.58724" lon="6.83466">
        <ele>321.2</ele>
        <time>2025-01-10T09:01:44.000Z</time>
      </trkpt>
      <trkpt lat="43.58725" lon="6.83471">
        <ele>321.2</ele>
        <time>2025-01-10T09:01:43.000Z</time>
      </trkpt>
      <trkpt lat="43.58725" lon="6.83476">
        <ele>321.1</ele>
        <time>2025-01-10T09:01:42.000Z</time>
      </trkpt>
      <trkpt lat="43.58726" lon="6.83481">
        <ele>321</ele>
        <time>2025-01-10T09:01:41.000Z</time>
      </trkpt>
      <trkpt lat="43.58728" lon="6.83486">
        <ele>320.9</ele>
        <time>2025-01-10T09:01:40.000Z</time>
      </trkpt>
      <trkpt lat="43.58729" lon="6.83491">
        <ele>320.8</ele>
        <time>2025-01-10T09:01:39.000Z</time>
      </trkpt>
      <trkpt lat="43.58731" lon="6.83496">
        <ele>320.6</ele>
        <time>2025-01-10T09:01:38.000Z</time>
      </trkpt>
      <trkpt lat="43.58733" lon="6.83501">
        <ele>320.4</ele>
        <time>2025-01-10T09:01:37.000Z</time>
      </trkpt>
      <trkpt lat="43.58736" lon="6.83506">
        <ele>320.1</ele>
        <time>2025-01-10T09:01:36.000Z</time>
      </trkpt>
      <trkpt lat="43.58739" lon="6.83511">
        <ele>319.9</ele>
        <time>2025-01-10T09:01:35.000Z</time>
      </trkpt>
      <trkpt lat="43.58742" lon="6.83516">
        <ele>319.6</ele>
        <time>2025-01-10T09:01:34.000Z</time>
      </trkpt>
      <trkpt lat="43.58745" lon="6.83521">
        <ele>319.4</ele>
        <time>2025-01-10T09:01:33.000Z</time>
      </trkpt>
      <trkpt lat="43.58748" lon="6.83526">
        <ele>319.1</ele>
        <time>2025-01-10T09:01:32.000Z</time>
      </trkpt>
      <trkpt lat="43.58751" lon="6.83531">
        <ele>319</ele>
        <time>2025-01-10T09:01:31.000Z</time>
      </trkpt>
      <trkpt lat="43.58753" lon="6.83537">
        <ele>318.9</ele>
        <time>2025-01-10T09:01:30.000Z</time>
      </trkpt>
      <trkpt lat="43.58755" lon="6.83544">
        <ele>318.8</ele>
        <time>2025-01-10T09:01:29.000Z</time>
      </trkpt>
      <trkpt lat="43.58757" lon="6.8355">
        <ele>318.8</ele>
        <time>2025-01-10T09:01:28.000Z</time>
      </trkpt>
      <trkpt lat="43.58759" lon="6.83556">
        <ele>318.7</ele>
        <time>2025-01-10T09:01:27.000Z</time>
      </trkpt>
      <trkpt lat="43.5876" lon="6.83562">
        <ele>318.7</ele>
        <time>2025-01-10T09:01:26.000Z</time>
      </trkpt>
      <trkpt lat="43.58761" lon="6.83568">
        <ele>318.7</ele>
        <time>2025-01-10T09:01:25.000Z</time>
      </trkpt>
      <trkpt lat="43.58764" lon="6.83575">
        <ele>318.8</ele>
        <time>2025-01-10T09:01:24.000Z</time>
      </trkpt>
      <trkpt lat="43.58767" lon="6.83581">
        <ele>318.9</ele>
        <time>2025-01-10T09:01:23.000Z</time>
      </trkpt>
      <trkpt lat="43.58772" lon="6.83587">
        <ele>318.9</ele>
        <time>2025-01-10T09:01:22.000Z</time>
      </trkpt>
      <trkpt lat="43.58777" lon="6.83591">
        <ele>319</ele>
        <time>2025-01-10T09:01:21.000Z</time>
      </trkpt>
      <trkpt lat="43.58783" lon="6.83595">
        <ele>319.1</ele>
        <time>2025-01-10T09:01:20.000Z</time>
      </trkpt>
      <trkpt lat="43.58788" lon="6.83599">
        <ele>319.2</ele>
        <time>2025-01-10T09:01:19.000Z</time>
      </trkpt>
      <trkpt lat="43.58794" lon="6.83604">
        <ele>319.3</ele>
        <time>2025-01-10T09:01:18.000Z</time>
      </trkpt>
      <trkpt lat="43.58799" lon="6.83611">
        <ele>319.4</ele>
        <time>2025-01-10T09:01:17.000Z</time>
      </trkpt>
      <trkpt lat="43.58803" lon="6.83618">
        <ele>319.6</ele>
        <time>2025-01-10T09:01:16.000Z</time>
      </trkpt>
      <trkpt lat="43.58806" lon="6.83627">
        <ele>319.8</ele>
        <time>2025-01-10T09:01:15.000Z</time>
      </trkpt>
      <trkpt lat="43.58809" lon="6.83636">
        <ele>320.1</ele>
        <time>2025-01-10T09:01:14.000Z</time>
      </trkpt>
      <trkpt lat="43.58812" lon="6.83644">
        <ele>320.5</ele>
        <time>2025-01-10T09:01:13.000Z</time>
      </trkpt>
      <trkpt lat="43.58814" lon="6.83652">
        <ele>320.9</ele>
        <time>2025-01-10T09:01:12.000Z</time>
      </trkpt>
      <trkpt lat="43.58816" lon="6.8366">
        <ele>321.3</ele>
        <time>2025-01-10T09:01:11.000Z</time>
      </trkpt>
      <trkpt lat="43.58818" lon="6.83668">
        <ele>321.7</ele>
        <time>2025-01-10T09:01:10.000Z</time>
      </trkpt>
      <trkpt lat="43.58819" lon="6.83676">
        <ele>322.1</ele>
        <time>2025-01-10T09:01:09.000Z</time>
      </trkpt>
      <trkpt lat="43.58819" lon="6.83684">
        <ele>322.4</ele>
        <time>2025-01-10T09:01:08.000Z</time>
      </trkpt>
      <trkpt lat="43.58819" lon="6.83693">
        <ele>322.7</ele>
        <time>2025-01-10T09:01:07.000Z</time>
      </trkpt>
      <trkpt lat="43.58819" lon="6.83701">
        <ele>323.1</ele>
        <time>2025-01-10T09:01:06.000Z</time>
      </trkpt>
      <trkpt lat="43.58818" lon="6.83709">
        <ele>323.4</ele>
        <time>2025-01-10T09:01:05.000Z</time>
      </trkpt>
      <trkpt lat="43.58816" lon="6.83717">
        <ele>323.7</ele>
        <time>2025-01-10T09:01:04.000Z</time>
      </trkpt>
      <trkpt lat="43.58815" lon="6.83726">
        <ele>324.2</ele>
        <time>2025-01-10T09:01:03.000Z</time>
      </trkpt>
      <trkpt lat="43.58815" lon="6.83727">
        <ele>324.2</ele>
        <time>2025-01-10T09:01:02.000Z</time>
      </trkpt>
      <trkpt lat="43.58814" lon="6.83728">
        <ele>324.3</ele>
        <time>2025-01-10T09:01:01.000Z</time>
      </trkpt>
      <trkpt lat="43.58814" lon="6.83729">
        <ele>324.4</ele>
        <time>2025-01-10T09:01:00.000Z</time>
      </trkpt>
      <trkpt lat="43.58814" lon="6.8373">
        <ele>324.4</ele>
        <time>2025-01-10T09:00:59.000Z</time>
      </trkpt>
      <trkpt lat="43.58814" lon="6.83731">
        <ele>324.5</ele>
        <time>2025-01-10T09:00:58.000Z</time>
      </trkpt>
      <trkpt lat="43.58813" lon="6.83732">
        <ele>324.6</ele>
        <time>2025-01-10T09:00:57.000Z</time>
      </trkpt>
      <trkpt lat="43.58813" lon="6.83733">
        <ele>324.6</ele>
        <time>2025-01-10T09:00:56.000Z</time>
      </trkpt>
      <trkpt lat="43.58813" lon="6.83734">
        <ele>324.7</ele>
        <time>2025-01-10T09:00:55.000Z</time>
      </trkpt>
      <trkpt lat="43.58813" lon="6.83735">
        <ele>324.8</ele>
        <time>2025-01-10T09:00:54.000Z</time>
      </trkpt>
      <trkpt lat="43.58812" lon="6.83736">
        <ele>324.8</ele>
        <time>2025-01-10T09:00:53.000Z</time>
      </trkpt>
      <trkpt lat="43.58812" lon="6.83737">
        <ele>324.9</ele>
        <time>2025-01-10T09:00:52.000Z</time>
      </trkpt>
      <trkpt lat="43.58812" lon="6.83738">
        <ele>325</ele>
        <time>2025-01-10T09:00:51.000Z</time>
      </trkpt>
      <trkpt lat="43.58811" lon="6.8374">
        <ele>325</ele>
        <time>2025-01-10T09:00:50.000Z</time>
      </trkpt>
      <trkpt lat="43.58811" lon="6.83741">
        <ele>325.1</ele>
        <time>2025-01-10T09:00:49.000Z</time>
      </trkpt>
      <trkpt lat="43.58811" lon="6.83742">
        <ele>325.2</ele>
        <time>2025-01-10T09:00:48.000Z</time>
      </trkpt>
      <trkpt lat="43.58811" lon="6.83743">
        <ele>325.2</ele>
        <time>2025-01-10T09:00:47.000Z</time>
      </trkpt>
      <trkpt lat="43.5881" lon="6.83744">
        <ele>325.3</ele>
        <time>2025-01-10T09:00:46.000Z</time>
      </trkpt>
      <trkpt lat="43.5881" lon="6.83745">
        <ele>325.4</ele>
        <time>2025-01-10T09:00:45.000Z</time>
      </trkpt>
      <trkpt lat="43.5881" lon="6.83746">
        <ele>325.4</ele>
        <time>2025-01-10T09:00:44.000Z</time>
      </trkpt>
      <trkpt lat="43.58809" lon="6.83747">
        <ele>325.5</ele>
        <time>2025-01-10T09:00:43.000Z</time>
      </trkpt>
      <trkpt lat="43.58809" lon="6.83748">
        <ele>325.6</ele>
        <time>2025-01-10T09:00:42.000Z</time>
      </trkpt>
      <trkpt lat="43.58809" lon="6.83749">
        <ele>325.6</ele>
        <time>2025-01-10T09:00:41.000Z</time>
      </trkpt>
      <trkpt lat="43.58809" lon="6.8375">
        <ele>325.7</ele>
        <time>2025-01-10T09:00:40.000Z</time>
      </trkpt>
      <trkpt lat="43.58808" lon="6.83751">
        <ele>325.8</ele>
        <time>2025-01-10T09:00:39.000Z</time>
      </trkpt>
      <trkpt lat="43.58808" lon="6.83752">
        <ele>325.8</ele>
        <time>2025-01-10T09:00:38.000Z</time>
      </trkpt>
      <trkpt lat="43.58808" lon="6.83753">
        <ele>325.9</ele>
        <time>2025-01-10T09:00:37.000Z</time>
      </trkpt>
      <trkpt lat="43.58807" lon="6.83755">
        <ele>325.9</ele>
        <time>2025-01-10T09:00:36.000Z</time>
      </trkpt>
      <trkpt lat="43.58807" lon="6.83756">
        <ele>326</ele>
        <time>2025-01-10T09:00:35.000Z</time>
      </trkpt>
      <trkpt lat="43.58807" lon="6.83757">
        <ele>326.1</ele>
        <time>2025-01-10T09:00:34.000Z</time>
      </trkpt>
      <trkpt lat="43.58807" lon="6.83758">
        <ele>326.1</ele>
        <time>2025-01-10T09:00:33.000Z</time>
      </trkpt>
      <trkpt lat="43.58806" lon="6.83759">
        <ele>326.2</ele>
        <time>2025-01-10T09:00:32.000Z</time>
      </trkpt>
      <trkpt lat="43.58806" lon="6.8376">
        <ele>326.2</ele>
        <time>2025-01-10T09:00:31.000Z</time>
      </trkpt>
      <trkpt lat="43.58806" lon="6.83761">
        <ele>326.2</ele>
        <time>2025-01-10T09:00:30.000Z</time>
      </trkpt>
      <trkpt lat="43.58805" lon="6.83762">
        <ele>326.2</ele>
        <time>2025-01-10T09:00:29.000Z</time>
      </trkpt>
      <trkpt lat="43.58805" lon="6.83763">
        <ele>326.2</ele>
        <time>2025-01-10T09:00:28.000Z</time>
      </trkpt>
      <trkpt lat="43.58805" lon="6.83764">
        <ele>326.2</ele>
        <time>2025-01-10T09:00:27.000Z</time>
      </trkpt>
      <trkpt lat="43.58805" lon="6.83765">
        <ele>326.2</ele>
        <time>2025-01-10T09:00:26.000Z</time>
      </trkpt>
      <trkpt lat="43.58804" lon="6.83766">
        <ele>326.2</ele>
        <time>2025-01-10T09:00:25.000Z</time>
      </trkpt>
      <trkpt lat="43.58804" lon="6.83767">
        <ele>326.3</ele>
        <time>2025-01-10T09:00:24.000Z</time>
      </trkpt>
      <trkpt lat="43.58804" lon="6.83768">
        <ele>326.3</ele>
        <time>2025-01-10T09:00:23.000Z</time>
      </trkpt>
      <trkpt lat="43.58803" lon="6.8377">
        <ele>326.3</ele>
        <time>2025-01-10T09:00:22.000Z</time>
      </trkpt>
      <trkpt lat="43.58803" lon="6.83771">
        <ele>326.3</ele>
        <time>2025-01-10T09:00:21.000Z</time>
      </trkpt>
      <trkpt lat="43.58803" lon="6.83772">
        <ele>326.3</ele>
        <time>2025-01-10T09:00:20.000Z</time>
      </trkpt>
      <trkpt lat="43.58803" lon="6.83773">
        <ele>326.3</ele>
        <time>2025-01-10T09:00:19.000Z</time>
      </trkpt>
      <trkpt lat="43.58802" lon="6.83774">
        <ele>326.3</ele>
        <time>2025-01-10T09:00:18.000Z</time>
      </trkpt>
      <trkpt lat="43.58802" lon="6.83774">
        <ele>326.3</ele>
        <time>2025-01-10T09:00:17.000Z</time>
      </trkpt>
      <trkpt lat="43.58802" lon="6.83775">
        <ele>326.3</ele>
        <time>2025-01-10T09:00:16.000Z</time>
      </trkpt>
      <trkpt lat="43.58801" lon="6.83776">
        <ele>326.3</ele>
        <time>2025-01-10T09:00:15.000Z</time>
      </trkpt>
      <trkpt lat="43.588" lon="6.83779">
        <ele>326.3</ele>
        <time>2025-01-10T09:00:14.000Z</time>
      </trkpt>
      <trkpt lat="43.58799" lon="6.83783">
        <ele>326.5</ele>
        <time>2025-01-10T09:00:13.000Z</time>
      </trkpt>
      <trkpt lat="43.58797" lon="6.83788">
        <ele>326.7</ele>
        <time>2025-01-10T09:00:12.000Z</time>
      </trkpt>
      <trkpt lat="43.58795" lon="6.83794">
        <ele>326.9</ele>
        <time>2025-01-10T09:00:11.000Z</time>
      </trkpt>
      <trkpt lat="43.58793" lon="6.838">
        <ele>327.2</ele>
        <time>2025-01-10T09:00:10.000Z</time>
      </trkpt>
      <trkpt lat="43.58792" lon="6.83807">
        <ele>327.4</ele>
        <time>2025-01-10T09:00:09.000Z</time>
      </trkpt>
      <trkpt lat="43.58791" lon="6.83813">
        <ele>327.6</ele>
        <time>2025-01-10T09:00:08.000Z</time>
      </trkpt>
      <trkpt lat="43.5879" lon="6.8382">
        <ele>327.8</ele>
        <time>2025-01-10T09:00:07.000Z</time>
      </trkpt>
      <trkpt lat="43.5879" lon="6.83826">
        <ele>328</ele>
        <time>2025-01-10T09:00:06.000Z</time>
      </trkpt>
      <trkpt lat="43.58789" lon="6.83832">
        <ele>328.2</ele>
        <time>2025-01-10T09:00:05.000Z</time>
      </trkpt>
      <trkpt lat="43.58789" lon="6.83838">
        <ele>328.4</ele>
        <time>2025-01-10T09:00:04.000Z</time>
      </trkpt>
      <trkpt lat="43.5879" lon="6.83843">
        <ele>328.5</ele>
        <time>2025-01-10T09:00:03.000Z</time>
      </trkpt>
      <trkpt lat="43.5879" lon="6.83847">
        <ele>328.6</ele>
        <time>2025-01-10T09:00:02.000Z</time>
      </trkpt>
      <trkpt lat="43.58792" lon="6.83852">
        <ele>328.7</ele>
        <time>2025-01-10T09:00:01.000Z</time>
      </trkpt>
      <trkpt lat="43.58793" lon="6.83856">
        <ele>328.8</ele>
        <time>2025-01-10T09:00:00.000Z</time>
      </trkpt>
      <trkpt lat="43.58794" lon="6.8386">
        <ele>328.8</ele>
        <time>2025-01-10T08:59:59.000Z</time>
      </trkpt>
      <trkpt lat="43.58796" lon="6.83864">
        <ele>328.8</ele>
        <time>2025-01-10T08:59:58.000Z</time>
      </trkpt>
      <trkpt lat="43.58798" lon="6.83868">
        <ele>328.8</ele>
        <time>2025-01-10T08:59:57.000Z</time>
      </trkpt>
      <trkpt lat="43.58801" lon="6.83872">
        <ele>328.8</ele>
        <time>2025-01-10T08:59:56.000Z</time>
      </trkpt>
      <trkpt lat="43.58803" lon="6.83876">
        <ele>328.7</ele>
        <time>2025-01-10T08:59:55.000Z</time>
      </trkpt>
      <trkpt lat="43.58806" lon="6.83879">
        <ele>328.5</ele>
        <time>2025-01-10T08:59:54.000Z</time>
      </trkpt>
      <trkpt lat="43.58809" lon="6.83883">
        <ele>328.4</ele>
        <time>2025-01-10T08:59:53.000Z</time>
      </trkpt>
      <trkpt lat="43.58813" lon="6.83887">
        <ele>328.2</ele>
        <time>2025-01-10T08:59:52.000Z</time>
      </trkpt>
      <trkpt lat="43.58816" lon="6.8389">
        <ele>328</ele>
        <time>2025-01-10T08:59:51.000Z</time>
      </trkpt>
      <trkpt lat="43.58819" lon="6.83894">
        <ele>327.8</ele>
        <time>2025-01-10T08:59:50.000Z</time>
      </trkpt>
      <trkpt lat="43.58822" lon="6.83898">
        <ele>327.6</ele>
        <time>2025-01-10T08:59:49.000Z</time>
      </trkpt>
      <trkpt lat="43.58825" lon="6.83901">
        <ele>327.4</ele>
        <time>2025-01-10T08:59:48.000Z</time>
      </trkpt>
      <trkpt lat="43.58829" lon="6.83905">
        <ele>327.2</ele>
        <time>2025-01-10T08:59:47.000Z</time>
      </trkpt>
      <trkpt lat="43.58832" lon="6.83909">
        <ele>327</ele>
        <time>2025-01-10T08:59:46.000Z</time>
      </trkpt>
      <trkpt lat="43.58836" lon="6.83913">
        <ele>326.9</ele>
        <time>2025-01-10T08:59:45.000Z</time>
      </trkpt>
      <trkpt lat="43.58839" lon="6.83917">
        <ele>326.7</ele>
        <time>2025-01-10T08:59:44.000Z</time>
      </trkpt>
      <trkpt lat="43.58842" lon="6.8392">
        <ele>326.6</ele>
        <time>2025-01-10T08:59:43.000Z</time>
      </trkpt>
      <trkpt lat="43.58843" lon="6.83921">
        <ele>326.6</ele>
        <time>2025-01-10T08:59:42.000Z</time>
      </trkpt>
      <trkpt lat="43.58843" lon="6.83922">
        <ele>326.5</ele>
        <time>2025-01-10T08:59:41.000Z</time>
      </trkpt>
      <trkpt lat="43.58844" lon="6.83922">
        <ele>326.5</ele>
        <time>2025-01-10T08:59:40.000Z</time>
      </trkpt>
      <trkpt lat="43.58845" lon="6.83923">
        <ele>326.5</ele>
        <time>2025-01-10T08:59:39.000Z</time>
      </trkpt>
      <trkpt lat="43.58845" lon="6.83924">
        <ele>326.4</ele>
        <time>2025-01-10T08:59:38.000Z</time>
      </trkpt>
      <trkpt lat="43.58846" lon="6.83925">
        <ele>326.4</ele>
        <time>2025-01-10T08:59:37.000Z</time>
      </trkpt>
      <trkpt lat="43.58847" lon="6.83925">
        <ele>326.4</ele>
        <time>2025-01-10T08:59:36.000Z</time>
      </trkpt>
      <trkpt lat="43.58847" lon="6.83926">
        <ele>326.3</ele>
        <time>2025-01-10T08:59:35.000Z</time>
      </trkpt>
      <trkpt lat="43.58848" lon="6.83927">
        <ele>326.3</ele>
        <time>2025-01-10T08:59:34.000Z</time>
      </trkpt>
      <trkpt lat="43.58849" lon="6.83928">
        <ele>326.3</ele>
        <time>2025-01-10T08:59:33.000Z</time>
      </trkpt>
      <trkpt lat="43.58849" lon="6.83928">
        <ele>326.2</ele>
        <time>2025-01-10T08:59:32.000Z</time>
      </trkpt>
      <trkpt lat="43.5885" lon="6.83929">
        <ele>326.2</ele>
        <time>2025-01-10T08:59:31.000Z</time>
      </trkpt>
      <trkpt lat="43.58851" lon="6.8393">
        <ele>326.2</ele>
        <time>2025-01-10T08:59:30.000Z</time>
      </trkpt>
      <trkpt lat="43.58851" lon="6.83931">
        <ele>326.1</ele>
        <time>2025-01-10T08:59:29.000Z</time>
      </trkpt>
      <trkpt lat="43.58852" lon="6.83931">
        <ele>326.1</ele>
        <time>2025-01-10T08:59:28.000Z</time>
      </trkpt>
      <trkpt lat="43.58853" lon="6.83932">
        <ele>326.1</ele>
        <time>2025-01-10T08:59:27.000Z</time>
      </trkpt>
      <trkpt lat="43.58853" lon="6.83933">
        <ele>326</ele>
        <time>2025-01-10T08:59:26.000Z</time>
      </trkpt>
      <trkpt lat="43.58854" lon="6.83934">
        <ele>326</ele>
        <time>2025-01-10T08:59:25.000Z</time>
      </trkpt>
      <trkpt lat="43.58855" lon="6.83934">
        <ele>326</ele>
        <time>2025-01-10T08:59:24.000Z</time>
      </trkpt>
      <trkpt lat="43.58855" lon="6.83935">
        <ele>325.9</ele>
        <time>2025-01-10T08:59:23.000Z</time>
      </trkpt>
      <trkpt lat="43.58856" lon="6.83936">
        <ele>325.9</ele>
        <time>2025-01-10T08:59:22.000Z</time>
      </trkpt>
      <trkpt lat="43.58856" lon="6.83937">
        <ele>325.9</ele>
        <time>2025-01-10T08:59:21.000Z</time>
      </trkpt>
      <trkpt lat="43.58857" lon="6.83937">
        <ele>325.8</ele>
        <time>2025-01-10T08:59:20.000Z</time>
      </trkpt>
      <trkpt lat="43.58858" lon="6.83938">
        <ele>325.8</ele>
        <time>2025-01-10T08:59:19.000Z</time>
      </trkpt>
      <trkpt lat="43.58858" lon="6.83939">
        <ele>325.8</ele>
        <time>2025-01-10T08:59:18.000Z</time>
      </trkpt>
      <trkpt lat="43.58859" lon="6.8394">
        <ele>325.7</ele>
        <time>2025-01-10T08:59:17.000Z</time>
      </trkpt>
      <trkpt lat="43.5886" lon="6.8394">
        <ele>325.7</ele>
        <time>2025-01-10T08:59:16.000Z</time>
      </trkpt>
      <trkpt lat="43.5886" lon="6.83941">
        <ele>325.7</ele>
        <time>2025-01-10T08:59:15.000Z</time>
      </trkpt>
      <trkpt lat="43.58861" lon="6.83942">
        <ele>325.7</ele>
        <time>2025-01-10T08:59:14.000Z</time>
      </trkpt>
      <trkpt lat="43.58862" lon="6.83943">
        <ele>325.6</ele>
        <time>2025-01-10T08:59:13.000Z</time>
      </trkpt>
      <trkpt lat="43.58862" lon="6.83943">
        <ele>325.6</ele>
        <time>2025-01-10T08:59:12.000Z</time>
      </trkpt>
      <trkpt lat="43.58863" lon="6.83944">
        <ele>325.6</ele>
        <time>2025-01-10T08:59:11.000Z</time>
      </trkpt>
      <trkpt lat="43.58864" lon="6.83945">
        <ele>325.5</ele>
        <time>2025-01-10T08:59:10.000Z</time>
      </trkpt>
      <trkpt lat="43.58865" lon="6.83946">
        <ele>325.5</ele>
        <time>2025-01-10T08:59:09.000Z</time>
      </trkpt>
      <trkpt lat="43.58865" lon="6.83946">
        <ele>325.5</ele>
        <time>2025-01-10T08:59:08.000Z</time>
      </trkpt>
      <trkpt lat="43.58866" lon="6.83948">
        <ele>325.5</ele>
        <time>2025-01-10T08:59:07.000Z</time>
      </trkpt>
      <trkpt lat="43.58866" lon="6.8395">
        <ele>325.4</ele>
        <time>2025-01-10T08:59:06.000Z</time>
      </trkpt>
      <trkpt lat="43.58867" lon="6.83954">
        <ele>325.3</ele>
        <time>2025-01-10T08:59:05.000Z</time>
      </trkpt>
      <trkpt lat="43.58867" lon="6.83958">
        <ele>325.2</ele>
        <time>2025-01-10T08:59:04.000Z</time>
      </trkpt>
      <trkpt lat="43.58867" lon="6.83963">
        <ele>325.1</ele>
        <time>2025-01-10T08:59:03.000Z</time>
      </trkpt>
      <trkpt lat="43.58867" lon="6.83969">
        <ele>324.9</ele>
        <time>2025-01-10T08:59:02.000Z</time>
      </trkpt>
      <trkpt lat="43.58866" lon="6.83976">
        <ele>324.8</ele>
        <time>2025-01-10T08:59:01.000Z</time>
      </trkpt>
      <trkpt lat="43.58866" lon="6.83984">
        <ele>325</ele>
        <time>2025-01-10T08:59:00.000Z</time>
      </trkpt>
      <trkpt lat="43.58865" lon="6.83991">
        <ele>325.2</ele>
        <time>2025-01-10T08:58:59.000Z</time>
      </trkpt>
      <trkpt lat="43.58864" lon="6.83998">
        <ele>325.4</ele>
        <time>2025-01-10T08:58:58.000Z</time>
      </trkpt>
      <trkpt lat="43.58862" lon="6.84005">
        <ele>325.6</ele>
        <time>2025-01-10T08:58:57.000Z</time>
      </trkpt>
      <trkpt lat="43.58861" lon="6.84011">
        <ele>325.8</ele>
        <time>2025-01-10T08:58:56.000Z</time>
      </trkpt>
      <trkpt lat="43.58858" lon="6.84017">
        <ele>326</ele>
        <time>2025-01-10T08:58:55.000Z</time>
      </trkpt>
      <trkpt lat="43.58856" lon="6.84022">
        <ele>326.1</ele>
        <time>2025-01-10T08:58:54.000Z</time>
      </trkpt>
      <trkpt lat="43.58854" lon="6.84027">
        <ele>326.2</ele>
        <time>2025-01-10T08:58:53.000Z</time>
      </trkpt>
      <trkpt lat="43.58853" lon="6.84033">
        <ele>326.4</ele>
        <time>2025-01-10T08:58:52.000Z</time>
      </trkpt>
      <trkpt lat="43.58852" lon="6.84039">
        <ele>326.5</ele>
        <time>2025-01-10T08:58:51.000Z</time>
      </trkpt>
      <trkpt lat="43.58851" lon="6.84045">
        <ele>326.5</ele>
        <time>2025-01-10T08:58:50.000Z</time>
      </trkpt>
      <trkpt lat="43.58851" lon="6.8405">
        <ele>326.6</ele>
        <time>2025-01-10T08:58:49.000Z</time>
      </trkpt>
      <trkpt lat="43.58851" lon="6.84056">
        <ele>326.7</ele>
        <time>2025-01-10T08:58:48.000Z</time>
      </trkpt>
      <trkpt lat="43.58851" lon="6.84062">
        <ele>326.7</ele>
        <time>2025-01-10T08:58:47.000Z</time>
      </trkpt>
      <trkpt lat="43.58851" lon="6.84068">
        <ele>326.9</ele>
        <time>2025-01-10T08:58:46.000Z</time>
      </trkpt>
      <trkpt lat="43.58851" lon="6.84074">
        <ele>327.3</ele>
        <time>2025-01-10T08:58:45.000Z</time>
      </trkpt>
      <trkpt lat="43.58851" lon="6.84082">
        <ele>327.7</ele>
        <time>2025-01-10T08:58:44.000Z</time>
      </trkpt>
      <trkpt lat="43.58852" lon="6.84087">
        <ele>328</ele>
        <time>2025-01-10T08:58:43.000Z</time>
      </trkpt>
      <trkpt lat="43.58852" lon="6.84094">
        <ele>328.4</ele>
        <time>2025-01-10T08:58:42.000Z</time>
      </trkpt>
      <trkpt lat="43.58852" lon="6.84101">
        <ele>328.7</ele>
        <time>2025-01-10T08:58:41.000Z</time>
      </trkpt>
      <trkpt lat="43.58853" lon="6.84107">
        <ele>329</ele>
        <time>2025-01-10T08:58:40.000Z</time>
      </trkpt>
      <trkpt lat="43.58855" lon="6.84113">
        <ele>329.3</ele>
        <time>2025-01-10T08:58:39.000Z</time>
      </trkpt>
      <trkpt lat="43.58857" lon="6.84118">
        <ele>329.6</ele>
        <time>2025-01-10T08:58:38.000Z</time>
      </trkpt>
      <trkpt lat="43.5886" lon="6.84123">
        <ele>329.9</ele>
        <time>2025-01-10T08:58:37.000Z</time>
      </trkpt>
      <trkpt lat="43.58864" lon="6.84127">
        <ele>330.2</ele>
        <time>2025-01-10T08:58:36.000Z</time>
      </trkpt>
      <trkpt lat="43.58868" lon="6.8413">
        <ele>330.5</ele>
        <time>2025-01-10T08:58:35.000Z</time>
      </trkpt>
      <trkpt lat="43.58872" lon="6.84132">
        <ele>330.7</ele>
        <time>2025-01-10T08:58:34.000Z</time>
      </trkpt>
      <trkpt lat="43.58876" lon="6.84134">
        <ele>331</ele>
        <time>2025-01-10T08:58:33.000Z</time>
      </trkpt>
      <trkpt lat="43.5888" lon="6.84136">
        <ele>331.1</ele>
        <time>2025-01-10T08:58:32.000Z</time>
      </trkpt>
      <trkpt lat="43.58883" lon="6.84137">
        <ele>331.2</ele>
        <time>2025-01-10T08:58:31.000Z</time>
      </trkpt>
      <trkpt lat="43.58886" lon="6.84138">
        <ele>331.3</ele>
        <time>2025-01-10T08:58:30.000Z</time>
      </trkpt>
      <trkpt lat="43.5889" lon="6.84138">
        <ele>331.3</ele>
        <time>2025-01-10T08:58:29.000Z</time>
      </trkpt>
      <trkpt lat="43.58893" lon="6.84139">
        <ele>331.3</ele>
        <time>2025-01-10T08:58:28.000Z</time>
      </trkpt>
      <trkpt lat="43.58897" lon="6.84139">
        <ele>330.9</ele>
        <time>2025-01-10T08:58:27.000Z</time>
      </trkpt>
      <trkpt lat="43.589" lon="6.8414">
        <ele>330.6</ele>
        <time>2025-01-10T08:58:26.000Z</time>
      </trkpt>
      <trkpt lat="43.58903" lon="6.84141">
        <ele>330.3</ele>
        <time>2025-01-10T08:58:25.000Z</time>
      </trkpt>
      <trkpt lat="43.58907" lon="6.84142">
        <ele>329.9</ele>
        <time>2025-01-10T08:58:24.000Z</time>
        <extensions>
          <visugpx:TrkExtension xmlns:visugpx="https://www.visugpx.com/editgpx/">
            <visugpx:node>1</visugpx:node>
            </visugpx:TrkExtension>
        </extensions>
      </trkpt>
    </trkseg>
  </trk>
  <trk>
    <name><![CDATA[Bagnols -Pennafort -Fille d'Isnard_14]]></name>
    <trkseg>
      <trkpt lat="43.58648" lon="6.77154">
        <ele>154.5</ele>
        <time>2025-10-24T08:53:56.000Z</time>
      </trkpt>
      <trkpt lat="43.58648" lon="6.77151">
        <ele>154.5</ele>
        <time>2025-10-24T08:53:57.000Z</time>
      </trkpt>
      <trkpt lat="43.58646" lon="6.7715">
        <ele>154.5</ele>
        <time>2025-10-24T08:53:58.000Z</time>
      </trkpt>
      <trkpt lat="43.58644" lon="6.77149">
        <ele>154.6</ele>
        <time>2025-10-24T08:53:59.000Z</time>
      </trkpt>
      <trkpt lat="43.58641" lon="6.77149">
        <ele>154.7</ele>
        <time>2025-10-24T08:54:00.000Z</time>
      </trkpt>
      <trkpt lat="43.58637" lon="6.77149">
        <ele>154.8</ele>
        <time>2025-10-24T08:54:01.000Z</time>
      </trkpt>
      <trkpt lat="43.58634" lon="6.77149">
        <ele>154.9</ele>
        <time>2025-10-24T08:54:02.000Z</time>
      </trkpt>
      <trkpt lat="43.5863" lon="6.77149">
        <ele>154.9</ele>
        <time>2025-10-24T08:54:03.000Z</time>
      </trkpt>
      <trkpt lat="43.58627" lon="6.77149">
        <ele>155</ele>
        <time>2025-10-24T08:54:04.000Z</time>
      </trkpt>
      <trkpt lat="43.58624" lon="6.77149">
        <ele>155</ele>
        <time>2025-10-24T08:54:05.000Z</time>
      </trkpt>
      <trkpt lat="43.5862" lon="6.7715">
        <ele>155.1</ele>
        <time>2025-10-24T08:54:06.000Z</time>
      </trkpt>
      <trkpt lat="43.58615" lon="6.7715">
        <ele>155.2</ele>
        <time>2025-10-24T08:54:07.000Z</time>
      </trkpt>
      <trkpt lat="43.58611" lon="6.7715">
        <ele>155.2</ele>
        <time>2025-10-24T08:54:08.000Z</time>
      </trkpt>
      <trkpt lat="43.58607" lon="6.77149">
        <ele>155.3</ele>
        <time>2025-10-24T08:54:09.000Z</time>
      </trkpt>
      <trkpt lat="43.58602" lon="6.77149">
        <ele>155.4</ele>
        <time>2025-10-24T08:54:10.000Z</time>
      </trkpt>
      <trkpt lat="43.58598" lon="6.77149">
        <ele>155.6</ele>
        <time>2025-10-24T08:54:11.000Z</time>
      </trkpt>
      <trkpt lat="43.58594" lon="6.77149">
        <ele>155.7</ele>
        <time>2025-10-24T08:54:12.000Z</time>
      </trkpt>
      <trkpt lat="43.5859" lon="6.7715">
        <ele>155.8</ele>
        <time>2025-10-24T08:54:13.000Z</time>
      </trkpt>
      <trkpt lat="43.58586" lon="6.7715">
        <ele>155.9</ele>
        <time>2025-10-24T08:54:14.000Z</time>
      </trkpt>
      <trkpt lat="43.58583" lon="6.7715">
        <ele>156</ele>
        <time>2025-10-24T08:54:15.000Z</time>
      </trkpt>
      <trkpt lat="43.5858" lon="6.77151">
        <ele>156.1</ele>
        <time>2025-10-24T08:54:16.000Z</time>
      </trkpt>
      <trkpt lat="43.58576" lon="6.77151">
        <ele>156.3</ele>
        <time>2025-10-24T08:54:17.000Z</time>
      </trkpt>
      <trkpt lat="43.58573" lon="6.77152">
        <ele>156.4</ele>
        <time>2025-10-24T08:54:18.000Z</time>
      </trkpt>
      <trkpt lat="43.5857" lon="6.77152">
        <ele>156.6</ele>
        <time>2025-10-24T08:54:19.000Z</time>
      </trkpt>
      <trkpt lat="43.58565" lon="6.77153">
        <ele>156.8</ele>
        <time>2025-10-24T08:54:20.000Z</time>
      </trkpt>
      <trkpt lat="43.58562" lon="6.77154">
        <ele>157.1</ele>
        <time>2025-10-24T08:54:21.000Z</time>
      </trkpt>
      <trkpt lat="43.58558" lon="6.77155">
        <ele>157.3</ele>
        <time>2025-10-24T08:54:22.000Z</time>
      </trkpt>
      <trkpt lat="43.58555" lon="6.77156">
        <ele>157.5</ele>
        <time>2025-10-24T08:54:23.000Z</time>
      </trkpt>
      <trkpt lat="43.5855" lon="6.77157">
        <ele>157.9</ele>
        <time>2025-10-24T08:54:24.000Z</time>
      </trkpt>
      <trkpt lat="43.58546" lon="6.77158">
        <ele>158.2</ele>
        <time>2025-10-24T08:54:25.000Z</time>
      </trkpt>
      <trkpt lat="43.58542" lon="6.77159">
        <ele>158.4</ele>
        <time>2025-10-24T08:54:26.000Z</time>
      </trkpt>
      <trkpt lat="43.58539" lon="6.7716">
        <ele>158.7</ele>
        <time>2025-10-24T08:54:27.000Z</time>
      </trkpt>
      <trkpt lat="43.58534" lon="6.77162">
        <ele>159</ele>
        <time>2025-10-24T08:54:28.000Z</time>
      </trkpt>
      <trkpt lat="43.58529" lon="6.77164">
        <ele>159.3</ele>
        <time>2025-10-24T08:54:29.000Z</time>
      </trkpt>
      <trkpt lat="43.58525" lon="6.77166">
        <ele>159.6</ele>
        <time>2025-10-24T08:54:30.000Z</time>
      </trkpt>
      <trkpt lat="43.5852" lon="6.77167">
        <ele>159.8</ele>
        <time>2025-10-24T08:54:31.000Z</time>
      </trkpt>
      <trkpt lat="43.58517" lon="6.77169">
        <ele>160</ele>
        <time>2025-10-24T08:54:32.000Z</time>
      </trkpt>
      <trkpt lat="43.58512" lon="6.77172">
        <ele>160.2</ele>
        <time>2025-10-24T08:54:33.000Z</time>
      </trkpt>
      <trkpt lat="43.58507" lon="6.77173">
        <ele>160.5</ele>
        <time>2025-10-24T08:54:34.000Z</time>
      </trkpt>
      <trkpt lat="43.58503" lon="6.77175">
        <ele>160.7</ele>
        <time>2025-10-24T08:54:35.000Z</time>
      </trkpt>
      <trkpt lat="43.58499" lon="6.77177">
        <ele>160.9</ele>
        <time>2025-10-24T08:54:36.000Z</time>
      </trkpt>
      <trkpt lat="43.58494" lon="6.77178">
        <ele>161.1</ele>
        <time>2025-10-24T08:54:37.000Z</time>
      </trkpt>
      <trkpt lat="43.5849" lon="6.7718">
        <ele>161.3</ele>
        <time>2025-10-24T08:54:38.000Z</time>
      </trkpt>
      <trkpt lat="43.58485" lon="6.77182">
        <ele>161.5</ele>
        <time>2025-10-24T08:54:39.000Z</time>
      </trkpt>
      <trkpt lat="43.58481" lon="6.77183">
        <ele>161.6</ele>
        <time>2025-10-24T08:54:40.000Z</time>
      </trkpt>
      <trkpt lat="43.58476" lon="6.77184">
        <ele>161.8</ele>
        <time>2025-10-24T08:54:41.000Z</time>
      </trkpt>
      <trkpt lat="43.58472" lon="6.77185">
        <ele>162</ele>
        <time>2025-10-24T08:54:42.000Z</time>
      </trkpt>
      <trkpt lat="43.58467" lon="6.77186">
        <ele>162.1</ele>
        <time>2025-10-24T08:54:43.000Z</time>
      </trkpt>
      <trkpt lat="43.58462" lon="6.77187">
        <ele>162.3</ele>
        <time>2025-10-24T08:54:44.000Z</time>
      </trkpt>
      <trkpt lat="43.58457" lon="6.77187">
        <ele>162.4</ele>
        <time>2025-10-24T08:54:45.000Z</time>
      </trkpt>
      <trkpt lat="43.58453" lon="6.77187">
        <ele>162.5</ele>
        <time>2025-10-24T08:54:46.000Z</time>
      </trkpt>
      <trkpt lat="43.58448" lon="6.77187">
        <ele>162.6</ele>
        <time>2025-10-24T08:54:47.000Z</time>
      </trkpt>
      <trkpt lat="43.58444" lon="6.77188">
        <ele>162.6</ele>
        <time>2025-10-24T08:54:48.000Z</time>
      </trkpt>
      <trkpt lat="43.58439" lon="6.77189">
        <ele>162.7</ele>
        <time>2025-10-24T08:54:49.000Z</time>
      </trkpt>
      <trkpt lat="43.58435" lon="6.77189">
        <ele>162.8</ele>
        <time>2025-10-24T08:54:50.000Z</time>
      </trkpt>
      <trkpt lat="43.5843" lon="6.7719">
        <ele>162.9</ele>
        <time>2025-10-24T08:54:51.000Z</time>
      </trkpt>
      <trkpt lat="43.58425" lon="6.7719">
        <ele>163</ele>
        <time>2025-10-24T08:54:52.000Z</time>
      </trkpt>
      <trkpt lat="43.5842" lon="6.77191">
        <ele>163.1</ele>
        <time>2025-10-24T08:54:53.000Z</time>
      </trkpt>
      <trkpt lat="43.58415" lon="6.7719">
        <ele>163.2</ele>
        <time>2025-10-24T08:54:54.000Z</time>
      </trkpt>
      <trkpt lat="43.5841" lon="6.7719">
        <ele>163.4</ele>
        <time>2025-10-24T08:54:55.000Z</time>
      </trkpt>
      <trkpt lat="43.58404" lon="6.77189">
        <ele>163.6</ele>
        <time>2025-10-24T08:54:56.000Z</time>
      </trkpt>
      <trkpt lat="43.584" lon="6.77188">
        <ele>163.8</ele>
        <time>2025-10-24T08:54:57.000Z</time>
      </trkpt>
      <trkpt lat="43.58396" lon="6.77187">
        <ele>164</ele>
        <time>2025-10-24T08:54:58.000Z</time>
      </trkpt>
      <trkpt lat="43.58391" lon="6.77186">
        <ele>164.2</ele>
        <time>2025-10-24T08:54:59.000Z</time>
      </trkpt>
      <trkpt lat="43.58386" lon="6.77185">
        <ele>164.4</ele>
        <time>2025-10-24T08:55:00.000Z</time>
      </trkpt>
      <trkpt lat="43.58382" lon="6.77184">
        <ele>164.6</ele>
        <time>2025-10-24T08:55:01.000Z</time>
      </trkpt>
      <trkpt lat="43.58377" lon="6.77184">
        <ele>164.9</ele>
        <time>2025-10-24T08:55:02.000Z</time>
      </trkpt>
      <trkpt lat="43.58374" lon="6.77183">
        <ele>165.1</ele>
        <time>2025-10-24T08:55:03.000Z</time>
      </trkpt>
      <trkpt lat="43.58368" lon="6.77183">
        <ele>165.4</ele>
        <time>2025-10-24T08:55:04.000Z</time>
      </trkpt>
      <trkpt lat="43.58364" lon="6.77183">
        <ele>165.7</ele>
        <time>2025-10-24T08:55:05.000Z</time>
      </trkpt>
      <trkpt lat="43.58361" lon="6.77182">
        <ele>165.9</ele>
        <time>2025-10-24T08:55:06.000Z</time>
      </trkpt>
      <trkpt lat="43.58356" lon="6.77182">
        <ele>166.2</ele>
        <time>2025-10-24T08:55:07.000Z</time>
      </trkpt>
      <trkpt lat="43.58353" lon="6.77182">
        <ele>166.3</ele>
        <time>2025-10-24T08:55:08.000Z</time>
      </trkpt>
      <trkpt lat="43.58349" lon="6.77182">
        <ele>166.5</ele>
        <time>2025-10-24T08:55:09.000Z</time>
      </trkpt>
      <trkpt lat="43.58346" lon="6.77182">
        <ele>166.6</ele>
        <time>2025-10-24T08:55:10.000Z</time>
      </trkpt>
      <trkpt lat="43.58343" lon="6.77182">
        <ele>166.7</ele>
        <time>2025-10-24T08:55:11.000Z</time>
      </trkpt>
      <trkpt lat="43.58341" lon="6.77181">
        <ele>166.8</ele>
        <time>2025-10-24T08:55:12.000Z</time>
      </trkpt>
      <trkpt lat="43.58339" lon="6.77181">
        <ele>166.7</ele>
        <time>2025-10-24T08:55:13.000Z</time>
      </trkpt>
      <trkpt lat="43.58336" lon="6.77181">
        <ele>166.6</ele>
        <time>2025-10-24T08:55:14.000Z</time>
      </trkpt>
      <trkpt lat="43.58333" lon="6.77181">
        <ele>166.4</ele>
        <time>2025-10-24T08:55:15.000Z</time>
      </trkpt>
      <trkpt lat="43.5833" lon="6.77181">
        <ele>166.3</ele>
        <time>2025-10-24T08:55:16.000Z</time>
      </trkpt>
      <trkpt lat="43.58327" lon="6.77182">
        <ele>166</ele>
        <time>2025-10-24T08:55:17.000Z</time>
      </trkpt>
      <trkpt lat="43.58324" lon="6.77183">
        <ele>165.8</ele>
        <time>2025-10-24T08:55:18.000Z</time>
      </trkpt>
      <trkpt lat="43.5832" lon="6.77184">
        <ele>165.5</ele>
        <time>2025-10-24T08:55:19.000Z</time>
      </trkpt>
      <trkpt lat="43.58316" lon="6.77185">
        <ele>165.2</ele>
        <time>2025-10-24T08:55:20.000Z</time>
      </trkpt>
      <trkpt lat="43.58311" lon="6.77186">
        <ele>164.9</ele>
        <time>2025-10-24T08:55:21.000Z</time>
      </trkpt>
      <trkpt lat="43.58307" lon="6.77187">
        <ele>164.4</ele>
        <time>2025-10-24T08:55:22.000Z</time>
      </trkpt>
      <trkpt lat="43.58302" lon="6.77188">
        <ele>164</ele>
        <time>2025-10-24T08:55:23.000Z</time>
      </trkpt>
      <trkpt lat="43.58297" lon="6.77189">
        <ele>163.5</ele>
        <time>2025-10-24T08:55:24.000Z</time>
      </trkpt>
      <trkpt lat="43.58292" lon="6.7719">
        <ele>162.9</ele>
        <time>2025-10-24T08:55:25.000Z</time>
      </trkpt>
      <trkpt lat="43.58286" lon="6.77191">
        <ele>162.3</ele>
        <time>2025-10-24T08:55:26.000Z</time>
      </trkpt>
      <trkpt lat="43.58281" lon="6.77191">
        <ele>161.7</ele>
        <time>2025-10-24T08:55:27.000Z</time>
      </trkpt>
      <trkpt lat="43.58276" lon="6.77192">
        <ele>161</ele>
        <time>2025-10-24T08:55:28.000Z</time>
      </trkpt>
      <trkpt lat="43.58271" lon="6.77192">
        <ele>160.4</ele>
        <time>2025-10-24T08:55:29.000Z</time>
      </trkpt>
      <trkpt lat="43.58267" lon="6.77193">
        <ele>159.9</ele>
        <time>2025-10-24T08:55:30.000Z</time>
      </trkpt>
      <trkpt lat="43.58263" lon="6.77193">
        <ele>159.4</ele>
        <time>2025-10-24T08:55:31.000Z</time>
      </trkpt>
      <trkpt lat="43.58258" lon="6.77194">
        <ele>158.8</ele>
        <time>2025-10-24T08:55:32.000Z</time>
      </trkpt>
      <trkpt lat="43.58254" lon="6.77194">
        <ele>158.3</ele>
        <time>2025-10-24T08:55:33.000Z</time>
      </trkpt>
      <trkpt lat="43.58249" lon="6.77195">
        <ele>157.8</ele>
        <time>2025-10-24T08:55:34.000Z</time>
      </trkpt>
      <trkpt lat="43.58243" lon="6.77195">
        <ele>157.3</ele>
        <time>2025-10-24T08:55:35.000Z</time>
      </trkpt>
      <trkpt lat="43.58237" lon="6.77195">
        <ele>156.8</ele>
        <time>2025-10-24T08:55:36.000Z</time>
      </trkpt>
      <trkpt lat="43.58231" lon="6.77195">
        <ele>156.4</ele>
        <time>2025-10-24T08:55:37.000Z</time>
      </trkpt>
      <trkpt lat="43.58225" lon="6.77193">
        <ele>156.1</ele>
        <time>2025-10-24T08:55:38.000Z</time>
      </trkpt>
      <trkpt lat="43.58218" lon="6.77191">
        <ele>155.8</ele>
        <time>2025-10-24T08:55:39.000Z</time>
      </trkpt>
      <trkpt lat="43.58212" lon="6.77189">
        <ele>155.6</ele>
        <time>2025-10-24T08:55:40.000Z</time>
      </trkpt>
      <trkpt lat="43.58206" lon="6.77187">
        <ele>155.5</ele>
        <time>2025-10-24T08:55:41.000Z</time>
      </trkpt>
      <trkpt lat="43.582" lon="6.77185">
        <ele>155.4</ele>
        <time>2025-10-24T08:55:42.000Z</time>
      </trkpt>
      <trkpt lat="43.58194" lon="6.77183">
        <ele>155.3</ele>
        <time>2025-10-24T08:55:43.000Z</time>
      </trkpt>
      <trkpt lat="43.58188" lon="6.7718">
        <ele>155.3</ele>
        <time>2025-10-24T08:55:44.000Z</time>
      </trkpt>
      <trkpt lat="43.58182" lon="6.77179">
        <ele>155.3</ele>
        <time>2025-10-24T08:55:45.000Z</time>
      </trkpt>
      <trkpt lat="43.58175" lon="6.77177">
        <ele>155.3</ele>
        <time>2025-10-24T08:55:46.000Z</time>
      </trkpt>
      <trkpt lat="43.5817" lon="6.77176">
        <ele>155.3</ele>
        <time>2025-10-24T08:55:47.000Z</time>
      </trkpt>
      <trkpt lat="43.58164" lon="6.77175">
        <ele>155.3</ele>
        <time>2025-10-24T08:55:48.000Z</time>
      </trkpt>
      <trkpt lat="43.58158" lon="6.77175">
        <ele>155.3</ele>
        <time>2025-10-24T08:55:49.000Z</time>
      </trkpt>
      <trkpt lat="43.58152" lon="6.77175">
        <ele>155.3</ele>
        <time>2025-10-24T08:55:50.000Z</time>
      </trkpt>
      <trkpt lat="43.58146" lon="6.77175">
        <ele>155.2</ele>
        <time>2025-10-24T08:55:51.000Z</time>
      </trkpt>
      <trkpt lat="43.58141" lon="6.77174">
        <ele>155.2</ele>
        <time>2025-10-24T08:55:52.000Z</time>
      </trkpt>
      <trkpt lat="43.58135" lon="6.77174">
        <ele>155.1</ele>
        <time>2025-10-24T08:55:53.000Z</time>
      </trkpt>
      <trkpt lat="43.58129" lon="6.77173">
        <ele>155</ele>
        <time>2025-10-24T08:55:54.000Z</time>
      </trkpt>
      <trkpt lat="43.58124" lon="6.77172">
        <ele>154.9</ele>
        <time>2025-10-24T08:55:55.000Z</time>
      </trkpt>
      <trkpt lat="43.58119" lon="6.7717">
        <ele>154.9</ele>
        <time>2025-10-24T08:55:56.000Z</time>
      </trkpt>
      <trkpt lat="43.58114" lon="6.77167">
        <ele>154.8</ele>
        <time>2025-10-24T08:55:57.000Z</time>
      </trkpt>
      <trkpt lat="43.58109" lon="6.77163">
        <ele>154.7</ele>
        <time>2025-10-24T08:55:58.000Z</time>
      </trkpt>
      <trkpt lat="43.58105" lon="6.7716">
        <ele>154.7</ele>
        <time>2025-10-24T08:55:59.000Z</time>
      </trkpt>
      <trkpt lat="43.58102" lon="6.77155">
        <ele>154.6</ele>
        <time>2025-10-24T08:56:00.000Z</time>
      </trkpt>
      <trkpt lat="43.58098" lon="6.77151">
        <ele>154.5</ele>
        <time>2025-10-24T08:56:01.000Z</time>
      </trkpt>
      <trkpt lat="43.58094" lon="6.77148">
        <ele>154.4</ele>
        <time>2025-10-24T08:56:02.000Z</time>
      </trkpt>
      <trkpt lat="43.58089" lon="6.77146">
        <ele>154.3</ele>
        <time>2025-10-24T08:56:03.000Z</time>
      </trkpt>
      <trkpt lat="43.58084" lon="6.77145">
        <ele>154.2</ele>
        <time>2025-10-24T08:56:04.000Z</time>
      </trkpt>
      <trkpt lat="43.58079" lon="6.77145">
        <ele>154.1</ele>
        <time>2025-10-24T08:56:05.000Z</time>
      </trkpt>
      <trkpt lat="43.58075" lon="6.77147">
        <ele>154</ele>
        <time>2025-10-24T08:56:06.000Z</time>
      </trkpt>
      <trkpt lat="43.58071" lon="6.77149">
        <ele>153.9</ele>
        <time>2025-10-24T08:56:07.000Z</time>
      </trkpt>
      <trkpt lat="43.58067" lon="6.77152">
        <ele>153.7</ele>
        <time>2025-10-24T08:56:08.000Z</time>
      </trkpt>
      <trkpt lat="43.58064" lon="6.77156">
        <ele>153.5</ele>
        <time>2025-10-24T08:56:09.000Z</time>
      </trkpt>
      <trkpt lat="43.58061" lon="6.7716">
        <ele>153.3</ele>
        <time>2025-10-24T08:56:10.000Z</time>
      </trkpt>
      <trkpt lat="43.58059" lon="6.77165">
        <ele>153.1</ele>
        <time>2025-10-24T08:56:11.000Z</time>
      </trkpt>
      <trkpt lat="43.58057" lon="6.77172">
        <ele>152.9</ele>
        <time>2025-10-24T08:56:12.000Z</time>
      </trkpt>
      <trkpt lat="43.58057" lon="6.7718">
        <ele>152.9</ele>
        <time>2025-10-24T08:56:13.000Z</time>
      </trkpt>
      <trkpt lat="43.58057" lon="6.77187">
        <ele>153</ele>
        <time>2025-10-24T08:56:14.000Z</time>
      </trkpt>
      <trkpt lat="43.58059" lon="6.77193">
        <ele>153.2</ele>
        <time>2025-10-24T08:56:15.000Z</time>
      </trkpt>
      <trkpt lat="43.58061" lon="6.77197">
        <ele>153.4</ele>
        <time>2025-10-24T08:56:16.000Z</time>
      </trkpt>
      <trkpt lat="43.58064" lon="6.772">
        <ele>153.6</ele>
        <time>2025-10-24T08:56:17.000Z</time>
      </trkpt>
      <trkpt lat="43.58067" lon="6.77202">
        <ele>153.8</ele>
        <time>2025-10-24T08:56:18.000Z</time>
      </trkpt>
      <trkpt lat="43.5807" lon="6.77204">
        <ele>153.9</ele>
        <time>2025-10-24T08:56:19.000Z</time>
      </trkpt>
      <trkpt lat="43.58072" lon="6.77205">
        <ele>154</ele>
        <time>2025-10-24T08:56:20.000Z</time>
        <extensions>
          <visugpx:TrkExtension xmlns:visugpx="https://www.visugpx.com/editgpx/">
            <visugpx:node>1</visugpx:node>
            </visugpx:TrkExtension>
        </extensions>
      </trkpt>
    </trkseg>
  </trk>
  <trk>
    <name><![CDATA[Bagnols -Pennafort -Fille d'Isnard_15]]></name>
    <trkseg>
      <trkpt lat="43.58077" lon="6.7721">
        <ele>154.7</ele>
        <time>2025-01-10T10:51:57.000Z</time>
        <extensions>
          <visugpx:TrkExtension xmlns:visugpx="https://www.visugpx.com/editgpx/">
            <visugpx:node>1</visugpx:node>
            </visugpx:TrkExtension>
        </extensions>
      </trkpt>
      <trkpt lat="43.58073" lon="6.77207">
        <ele>154.7</ele>
        <time>2025-01-10T10:51:56.000Z</time>
      </trkpt>
      <trkpt lat="43.5807" lon="6.77204">
        <ele>154.6</ele>
        <time>2025-01-10T10:51:55.000Z</time>
      </trkpt>
      <trkpt lat="43.58067" lon="6.77201">
        <ele>154.5</ele>
        <time>2025-01-10T10:51:54.000Z</time>
      </trkpt>
      <trkpt lat="43.58065" lon="6.77199">
        <ele>154.3</ele>
        <time>2025-01-10T10:51:53.000Z</time>
      </trkpt>
      <trkpt lat="43.58061" lon="6.77195">
        <ele>154.1</ele>
        <time>2025-01-10T10:51:52.000Z</time>
      </trkpt>
      <trkpt lat="43.58059" lon="6.77192">
        <ele>153.9</ele>
        <time>2025-01-10T10:51:51.000Z</time>
      </trkpt>
      <trkpt lat="43.58057" lon="6.77186">
        <ele>153.6</ele>
        <time>2025-01-10T10:51:50.000Z</time>
      </trkpt>
      <trkpt lat="43.58056" lon="6.77179">
        <ele>153.4</ele>
        <time>2025-01-10T10:51:49.000Z</time>
      </trkpt>
      <trkpt lat="43.58057" lon="6.77173">
        <ele>153.2</ele>
        <time>2025-01-10T10:51:48.000Z</time>
      </trkpt>
      <trkpt lat="43.58058" lon="6.77166">
        <ele>153.2</ele>
        <time>2025-01-10T10:51:47.000Z</time>
      </trkpt>
      <trkpt lat="43.58059" lon="6.77161">
        <ele>153.3</ele>
        <time>2025-01-10T10:51:46.000Z</time>
      </trkpt>
      <trkpt lat="43.58061" lon="6.77156">
        <ele>153.5</ele>
        <time>2025-01-10T10:51:45.000Z</time>
      </trkpt>
      <trkpt lat="43.58065" lon="6.77151">
        <ele>153.7</ele>
        <time>2025-01-10T10:51:44.000Z</time>
      </trkpt>
      <trkpt lat="43.58068" lon="6.77148">
        <ele>154</ele>
        <time>2025-01-10T10:51:43.000Z</time>
      </trkpt>
      <trkpt lat="43.58071" lon="6.77146">
        <ele>154.2</ele>
        <time>2025-01-10T10:51:42.000Z</time>
      </trkpt>
      <trkpt lat="43.58076" lon="6.77146">
        <ele>154.4</ele>
        <time>2025-01-10T10:51:41.000Z</time>
      </trkpt>
      <trkpt lat="43.58081" lon="6.77145">
        <ele>154.5</ele>
        <time>2025-01-10T10:51:40.000Z</time>
      </trkpt>
      <trkpt lat="43.58088" lon="6.77146">
        <ele>154.7</ele>
        <time>2025-01-10T10:51:39.000Z</time>
      </trkpt>
      <trkpt lat="43.58092" lon="6.77147">
        <ele>154.8</ele>
        <time>2025-01-10T10:51:38.000Z</time>
      </trkpt>
      <trkpt lat="43.58097" lon="6.7715">
        <ele>154.8</ele>
        <time>2025-01-10T10:51:37.000Z</time>
      </trkpt>
      <trkpt lat="43.58102" lon="6.77154">
        <ele>154.9</ele>
        <time>2025-01-10T10:51:36.000Z</time>
      </trkpt>
      <trkpt lat="43.58106" lon="6.77159">
        <ele>155</ele>
        <time>2025-01-10T10:51:35.000Z</time>
      </trkpt>
      <trkpt lat="43.58111" lon="6.77163">
        <ele>155</ele>
        <time>2025-01-10T10:51:34.000Z</time>
      </trkpt>
      <trkpt lat="43.58115" lon="6.77167">
        <ele>155.1</ele>
        <time>2025-01-10T10:51:33.000Z</time>
      </trkpt>
      <trkpt lat="43.58121" lon="6.7717">
        <ele>155.2</ele>
        <time>2025-01-10T10:51:32.000Z</time>
      </trkpt>
      <trkpt lat="43.58126" lon="6.77172">
        <ele>155.2</ele>
        <time>2025-01-10T10:51:31.000Z</time>
      </trkpt>
      <trkpt lat="43.58133" lon="6.77172">
        <ele>155.3</ele>
        <time>2025-01-10T10:51:30.000Z</time>
      </trkpt>
      <trkpt lat="43.58139" lon="6.77172">
        <ele>155.4</ele>
        <time>2025-01-10T10:51:29.000Z</time>
      </trkpt>
      <trkpt lat="43.58145" lon="6.77172">
        <ele>155.5</ele>
        <time>2025-01-10T10:51:28.000Z</time>
      </trkpt>
      <trkpt lat="43.58152" lon="6.77172">
        <ele>155.6</ele>
        <time>2025-01-10T10:51:27.000Z</time>
      </trkpt>
      <trkpt lat="43.58159" lon="6.77173">
        <ele>155.7</ele>
        <time>2025-01-10T10:51:26.000Z</time>
      </trkpt>
      <trkpt lat="43.58166" lon="6.77174">
        <ele>155.7</ele>
        <time>2025-01-10T10:51:25.000Z</time>
      </trkpt>
      <trkpt lat="43.58173" lon="6.77175">
        <ele>155.7</ele>
        <time>2025-01-10T10:51:24.000Z</time>
      </trkpt>
      <trkpt lat="43.58181" lon="6.77178">
        <ele>155.7</ele>
        <time>2025-01-10T10:51:23.000Z</time>
      </trkpt>
      <trkpt lat="43.58189" lon="6.7718">
        <ele>155.7</ele>
        <time>2025-01-10T10:51:22.000Z</time>
      </trkpt>
      <trkpt lat="43.58197" lon="6.77182">
        <ele>155.8</ele>
        <time>2025-01-10T10:51:21.000Z</time>
      </trkpt>
      <trkpt lat="43.58206" lon="6.77185">
        <ele>155.8</ele>
        <time>2025-01-10T10:51:20.000Z</time>
      </trkpt>
      <trkpt lat="43.58215" lon="6.77188">
        <ele>156</ele>
        <time>2025-01-10T10:51:19.000Z</time>
      </trkpt>
      <trkpt lat="43.58225" lon="6.7719">
        <ele>156.3</ele>
        <time>2025-01-10T10:51:18.000Z</time>
      </trkpt>
      <trkpt lat="43.58235" lon="6.77192">
        <ele>156.8</ele>
        <time>2025-01-10T10:51:17.000Z</time>
      </trkpt>
      <trkpt lat="43.58245" lon="6.77194">
        <ele>157.6</ele>
        <time>2025-01-10T10:51:16.000Z</time>
      </trkpt>
      <trkpt lat="43.58254" lon="6.77194">
        <ele>158.5</ele>
        <time>2025-01-10T10:51:15.000Z</time>
      </trkpt>
      <trkpt lat="43.58265" lon="6.77194">
        <ele>159.7</ele>
        <time>2025-01-10T10:51:14.000Z</time>
      </trkpt>
      <trkpt lat="43.58272" lon="6.77193">
        <ele>160.7</ele>
        <time>2025-01-10T10:51:13.000Z</time>
      </trkpt>
      <trkpt lat="43.5828" lon="6.77192">
        <ele>161.7</ele>
        <time>2025-01-10T10:51:12.000Z</time>
      </trkpt>
      <trkpt lat="43.58287" lon="6.77191">
        <ele>162.7</ele>
        <time>2025-01-10T10:51:11.000Z</time>
      </trkpt>
      <trkpt lat="43.58294" lon="6.77189">
        <ele>163.5</ele>
        <time>2025-01-10T10:51:10.000Z</time>
      </trkpt>
      <trkpt lat="43.583" lon="6.77187">
        <ele>164.3</ele>
        <time>2025-01-10T10:51:09.000Z</time>
      </trkpt>
      <trkpt lat="43.58306" lon="6.77185">
        <ele>164.8</ele>
        <time>2025-01-10T10:51:08.000Z</time>
      </trkpt>
      <trkpt lat="43.58311" lon="6.77184">
        <ele>165.4</ele>
        <time>2025-01-10T10:51:07.000Z</time>
      </trkpt>
      <trkpt lat="43.58316" lon="6.77182">
        <ele>165.8</ele>
        <time>2025-01-10T10:51:06.000Z</time>
      </trkpt>
      <trkpt lat="43.58321" lon="6.77181">
        <ele>166.1</ele>
        <time>2025-01-10T10:51:05.000Z</time>
      </trkpt>
      <trkpt lat="43.58325" lon="6.77181">
        <ele>166.4</ele>
        <time>2025-01-10T10:51:04.000Z</time>
      </trkpt>
      <trkpt lat="43.58329" lon="6.7718">
        <ele>166.7</ele>
        <time>2025-01-10T10:51:03.000Z</time>
      </trkpt>
      <trkpt lat="43.58333" lon="6.77179">
        <ele>166.9</ele>
        <time>2025-01-10T10:51:02.000Z</time>
      </trkpt>
      <trkpt lat="43.58336" lon="6.77179">
        <ele>167</ele>
        <time>2025-01-10T10:51:01.000Z</time>
      </trkpt>
      <trkpt lat="43.58339" lon="6.77179">
        <ele>167.2</ele>
        <time>2025-01-10T10:51:00.000Z</time>
      </trkpt>
      <trkpt lat="43.58341" lon="6.77178">
        <ele>167.3</ele>
        <time>2025-01-10T10:50:59.000Z</time>
      </trkpt>
      <trkpt lat="43.58343" lon="6.77178">
        <ele>167.2</ele>
        <time>2025-01-10T10:50:58.000Z</time>
      </trkpt>
      <trkpt lat="43.58345" lon="6.77178">
        <ele>167.1</ele>
        <time>2025-01-10T10:50:57.000Z</time>
      </trkpt>
      <trkpt lat="43.58347" lon="6.77178">
        <ele>167.1</ele>
        <time>2025-01-10T10:50:56.000Z</time>
      </trkpt>
      <trkpt lat="43.58349" lon="6.77178">
        <ele>167</ele>
        <time>2025-01-10T10:50:55.000Z</time>
      </trkpt>
      <trkpt lat="43.58351" lon="6.77179">
        <ele>166.9</ele>
        <time>2025-01-10T10:50:54.000Z</time>
      </trkpt>
      <trkpt lat="43.58354" lon="6.77179">
        <ele>166.8</ele>
        <time>2025-01-10T10:50:53.000Z</time>
      </trkpt>
      <trkpt lat="43.58357" lon="6.77178">
        <ele>166.6</ele>
        <time>2025-01-10T10:50:52.000Z</time>
      </trkpt>
      <trkpt lat="43.5836" lon="6.77178">
        <ele>166.4</ele>
        <time>2025-01-10T10:50:51.000Z</time>
      </trkpt>
      <trkpt lat="43.58364" lon="6.77179">
        <ele>166.2</ele>
        <time>2025-01-10T10:50:50.000Z</time>
      </trkpt>
      <trkpt lat="43.58366" lon="6.7718">
        <ele>166</ele>
        <time>2025-01-10T10:50:49.000Z</time>
      </trkpt>
      <trkpt lat="43.58369" lon="6.77183">
        <ele>165.8</ele>
        <time>2025-01-10T10:50:48.000Z</time>
      </trkpt>
      <trkpt lat="43.5837" lon="6.77185">
        <ele>165.7</ele>
        <time>2025-01-10T10:50:47.000Z</time>
      </trkpt>
      <trkpt lat="43.58372" lon="6.77186">
        <ele>165.5</ele>
        <time>2025-01-10T10:50:46.000Z</time>
      </trkpt>
      <trkpt lat="43.58374" lon="6.77187">
        <ele>165.4</ele>
        <time>2025-01-10T10:50:45.000Z</time>
      </trkpt>
      <trkpt lat="43.58377" lon="6.77188">
        <ele>165.2</ele>
        <time>2025-01-10T10:50:44.000Z</time>
      </trkpt>
      <trkpt lat="43.5838" lon="6.77189">
        <ele>165</ele>
        <time>2025-01-10T10:50:43.000Z</time>
      </trkpt>
      <trkpt lat="43.58383" lon="6.7719">
        <ele>164.9</ele>
        <time>2025-01-10T10:50:42.000Z</time>
      </trkpt>
      <trkpt lat="43.58387" lon="6.77191">
        <ele>164.7</ele>
        <time>2025-01-10T10:50:41.000Z</time>
      </trkpt>
      <trkpt lat="43.5839" lon="6.77192">
        <ele>164.5</ele>
        <time>2025-01-10T10:50:40.000Z</time>
      </trkpt>
      <trkpt lat="43.58394" lon="6.77192">
        <ele>164.3</ele>
        <time>2025-01-10T10:50:39.000Z</time>
      </trkpt>
      <trkpt lat="43.58397" lon="6.77193">
        <ele>164.1</ele>
        <time>2025-01-10T10:50:38.000Z</time>
      </trkpt>
      <trkpt lat="43.58401" lon="6.77193">
        <ele>163.9</ele>
        <time>2025-01-10T10:50:37.000Z</time>
      </trkpt>
      <trkpt lat="43.58405" lon="6.77192">
        <ele>163.8</ele>
        <time>2025-01-10T10:50:36.000Z</time>
      </trkpt>
      <trkpt lat="43.58409" lon="6.77191">
        <ele>163.6</ele>
        <time>2025-01-10T10:50:35.000Z</time>
      </trkpt>
      <trkpt lat="43.58412" lon="6.7719">
        <ele>163.5</ele>
        <time>2025-01-10T10:50:34.000Z</time>
      </trkpt>
      <trkpt lat="43.58416" lon="6.77189">
        <ele>163.4</ele>
        <time>2025-01-10T10:50:33.000Z</time>
      </trkpt>
      <trkpt lat="43.5842" lon="6.77188">
        <ele>163.3</ele>
        <time>2025-01-10T10:50:32.000Z</time>
      </trkpt>
      <trkpt lat="43.58424" lon="6.77187">
        <ele>163.2</ele>
        <time>2025-01-10T10:50:31.000Z</time>
      </trkpt>
      <trkpt lat="43.58428" lon="6.77187">
        <ele>163.1</ele>
        <time>2025-01-10T10:50:30.000Z</time>
      </trkpt>
      <trkpt lat="43.58432" lon="6.77186">
        <ele>163</ele>
        <time>2025-01-10T10:50:29.000Z</time>
      </trkpt>
      <trkpt lat="43.58436" lon="6.77186">
        <ele>163</ele>
        <time>2025-01-10T10:50:28.000Z</time>
      </trkpt>
      <trkpt lat="43.5844" lon="6.77185">
        <ele>162.9</ele>
        <time>2025-01-10T10:50:27.000Z</time>
      </trkpt>
      <trkpt lat="43.58443" lon="6.77185">
        <ele>162.9</ele>
        <time>2025-01-10T10:50:26.000Z</time>
      </trkpt>
      <trkpt lat="43.58447" lon="6.77184">
        <ele>162.8</ele>
        <time>2025-01-10T10:50:25.000Z</time>
      </trkpt>
      <trkpt lat="43.58452" lon="6.77184">
        <ele>162.7</ele>
        <time>2025-01-10T10:50:24.000Z</time>
      </trkpt>
      <trkpt lat="43.58457" lon="6.77184">
        <ele>162.6</ele>
        <time>2025-01-10T10:50:23.000Z</time>
      </trkpt>
      <trkpt lat="43.58461" lon="6.77183">
        <ele>162.5</ele>
        <time>2025-01-10T10:50:22.000Z</time>
      </trkpt>
      <trkpt lat="43.58466" lon="6.77183">
        <ele>162.4</ele>
        <time>2025-01-10T10:50:21.000Z</time>
      </trkpt>
      <trkpt lat="43.58471" lon="6.77182">
        <ele>162.3</ele>
        <time>2025-01-10T10:50:20.000Z</time>
      </trkpt>
      <trkpt lat="43.58475" lon="6.77182">
        <ele>162.1</ele>
        <time>2025-01-10T10:50:19.000Z</time>
      </trkpt>
      <trkpt lat="43.58479" lon="6.77181">
        <ele>162</ele>
        <time>2025-01-10T10:50:18.000Z</time>
      </trkpt>
      <trkpt lat="43.58483" lon="6.7718">
        <ele>161.8</ele>
        <time>2025-01-10T10:50:17.000Z</time>
      </trkpt>
      <trkpt lat="43.58488" lon="6.77178">
        <ele>161.6</ele>
        <time>2025-01-10T10:50:16.000Z</time>
      </trkpt>
      <trkpt lat="43.58492" lon="6.77176">
        <ele>161.5</ele>
        <time>2025-01-10T10:50:15.000Z</time>
      </trkpt>
      <trkpt lat="43.58497" lon="6.77174">
        <ele>161.3</ele>
        <time>2025-01-10T10:50:14.000Z</time>
      </trkpt>
      <trkpt lat="43.58501" lon="6.77173">
        <ele>161.1</ele>
        <time>2025-01-10T10:50:13.000Z</time>
      </trkpt>
      <trkpt lat="43.58506" lon="6.77171">
        <ele>160.9</ele>
        <time>2025-01-10T10:50:12.000Z</time>
      </trkpt>
      <trkpt lat="43.5851" lon="6.77168">
        <ele>160.6</ele>
        <time>2025-01-10T10:50:11.000Z</time>
      </trkpt>
      <trkpt lat="43.58515" lon="6.77166">
        <ele>160.4</ele>
        <time>2025-01-10T10:50:10.000Z</time>
      </trkpt>
      <trkpt lat="43.5852" lon="6.77164">
        <ele>160.1</ele>
        <time>2025-01-10T10:50:09.000Z</time>
      </trkpt>
      <trkpt lat="43.58524" lon="6.77162">
        <ele>159.9</ele>
        <time>2025-01-10T10:50:08.000Z</time>
      </trkpt>
      <trkpt lat="43.58529" lon="6.77159">
        <ele>159.6</ele>
        <time>2025-01-10T10:50:07.000Z</time>
      </trkpt>
      <trkpt lat="43.58535" lon="6.77157">
        <ele>159.3</ele>
        <time>2025-01-10T10:50:06.000Z</time>
      </trkpt>
      <trkpt lat="43.58539" lon="6.77156">
        <ele>159</ele>
        <time>2025-01-10T10:50:05.000Z</time>
      </trkpt>
      <trkpt lat="43.58543" lon="6.77154">
        <ele>158.7</ele>
        <time>2025-01-10T10:50:04.000Z</time>
      </trkpt>
      <trkpt lat="43.58548" lon="6.77152">
        <ele>158.4</ele>
        <time>2025-01-10T10:50:03.000Z</time>
      </trkpt>
      <trkpt lat="43.58553" lon="6.77151">
        <ele>158</ele>
        <time>2025-01-10T10:50:02.000Z</time>
      </trkpt>
      <trkpt lat="43.58559" lon="6.7715">
        <ele>157.6</ele>
        <time>2025-01-10T10:50:01.000Z</time>
      </trkpt>
      <trkpt lat="43.58563" lon="6.77149">
        <ele>157.4</ele>
        <time>2025-01-10T10:50:00.000Z</time>
      </trkpt>
      <trkpt lat="43.58568" lon="6.77149">
        <ele>157</ele>
        <time>2025-01-10T10:49:59.000Z</time>
      </trkpt>
      <trkpt lat="43.58573" lon="6.77148">
        <ele>156.8</ele>
        <time>2025-01-10T10:49:58.000Z</time>
      </trkpt>
      <trkpt lat="43.58578" lon="6.77148">
        <ele>156.7</ele>
        <time>2025-01-10T10:49:57.000Z</time>
      </trkpt>
      <trkpt lat="43.58583" lon="6.77147">
        <ele>156.5</ele>
        <time>2025-01-10T10:49:56.000Z</time>
      </trkpt>
      <trkpt lat="43.58587" lon="6.77146">
        <ele>156.3</ele>
        <time>2025-01-10T10:49:55.000Z</time>
      </trkpt>
      <trkpt lat="43.58592" lon="6.77146">
        <ele>156.2</ele>
        <time>2025-01-10T10:49:54.000Z</time>
      </trkpt>
      <trkpt lat="43.58597" lon="6.77146">
        <ele>156</ele>
        <time>2025-01-10T10:49:53.000Z</time>
      </trkpt>
      <trkpt lat="43.58602" lon="6.77146">
        <ele>155.9</ele>
        <time>2025-01-10T10:49:52.000Z</time>
      </trkpt>
      <trkpt lat="43.58608" lon="6.77145">
        <ele>155.8</ele>
        <time>2025-01-10T10:49:51.000Z</time>
      </trkpt>
      <trkpt lat="43.58612" lon="6.77145">
        <ele>155.6</ele>
        <time>2025-01-10T10:49:50.000Z</time>
      </trkpt>
      <trkpt lat="43.58616" lon="6.77145">
        <ele>155.6</ele>
        <time>2025-01-10T10:49:49.000Z</time>
      </trkpt>
      <trkpt lat="43.5862" lon="6.77145">
        <ele>155.5</ele>
        <time>2025-01-10T10:49:48.000Z</time>
      </trkpt>
      <trkpt lat="43.58625" lon="6.77144">
        <ele>155.4</ele>
        <time>2025-01-10T10:49:47.000Z</time>
      </trkpt>
      <trkpt lat="43.58629" lon="6.77144">
        <ele>155.3</ele>
        <time>2025-01-10T10:49:46.000Z</time>
      </trkpt>
      <trkpt lat="43.58633" lon="6.77145">
        <ele>155.3</ele>
        <time>2025-01-10T10:49:45.000Z</time>
      </trkpt>
      <trkpt lat="43.58637" lon="6.77145">
        <ele>155.2</ele>
        <time>2025-01-10T10:49:44.000Z</time>
      </trkpt>
      <trkpt lat="43.5864" lon="6.77146">
        <ele>155.1</ele>
        <time>2025-01-10T10:49:43.000Z</time>
      </trkpt>
      <trkpt lat="43.58644" lon="6.77147">
        <ele>155</ele>
        <time>2025-01-10T10:49:42.000Z</time>
      </trkpt>
      <trkpt lat="43.58648" lon="6.77148">
        <ele>154.9</ele>
        <time>2025-01-10T10:49:41.000Z</time>
      </trkpt>
      <trkpt lat="43.58652" lon="6.77149">
        <ele>154.8</ele>
        <time>2025-01-10T10:49:40.000Z</time>
      </trkpt>
      <trkpt lat="43.58654" lon="6.77149">
        <ele>154.7</ele>
        <time>2025-01-10T10:49:39.000Z</time>
      </trkpt>
      <trkpt lat="43.58658" lon="6.77151">
        <ele>154.5</ele>
        <time>2025-01-10T10:49:38.000Z</time>
      </trkpt>
      <trkpt lat="43.58662" lon="6.77152">
        <ele>154.4</ele>
        <time>2025-01-10T10:49:37.000Z</time>
      </trkpt>
    </trkseg>
  </trk>
  <trk>
    <name><![CDATA[Bagnols -Pennafort -Fille d'Isnard_16]]></name>
    <trkseg>
      <trkpt lat="43.55739" lon="6.79722">
        <ele>161.4</ele>
        <time>2025-10-24T06:39:19.000Z</time>
      </trkpt>
      <trkpt lat="43.55737" lon="6.79725">
        <ele>161.7</ele>
        <time>2025-10-24T06:39:20.000Z</time>
      </trkpt>
      <trkpt lat="43.55735" lon="6.79729">
        <ele>162</ele>
        <time>2025-10-24T06:39:21.000Z</time>
      </trkpt>
      <trkpt lat="43.55735" lon="6.79732">
        <ele>162.2</ele>
        <time>2025-10-24T06:39:22.000Z</time>
      </trkpt>
      <trkpt lat="43.55735" lon="6.79735">
        <ele>162.5</ele>
        <time>2025-10-24T06:39:23.000Z</time>
      </trkpt>
      <trkpt lat="43.55735" lon="6.79739">
        <ele>162.7</ele>
        <time>2025-10-24T06:39:24.000Z</time>
      </trkpt>
      <trkpt lat="43.55735" lon="6.79743">
        <ele>162.7</ele>
        <time>2025-10-24T06:39:25.000Z</time>
      </trkpt>
      <trkpt lat="43.55737" lon="6.79748">
        <ele>162.8</ele>
        <time>2025-10-24T06:39:26.000Z</time>
      </trkpt>
      <trkpt lat="43.55738" lon="6.79751">
        <ele>162.9</ele>
        <time>2025-10-24T06:39:27.000Z</time>
      </trkpt>
      <trkpt lat="43.5574" lon="6.79756">
        <ele>162.9</ele>
        <time>2025-10-24T06:39:28.000Z</time>
      </trkpt>
      <trkpt lat="43.55743" lon="6.79759">
        <ele>163</ele>
        <time>2025-10-24T06:39:29.000Z</time>
      </trkpt>
      <trkpt lat="43.55746" lon="6.79762">
        <ele>163</ele>
        <time>2025-10-24T06:39:30.000Z</time>
      </trkpt>
      <trkpt lat="43.55749" lon="6.79765">
        <ele>163</ele>
        <time>2025-10-24T06:39:31.000Z</time>
      </trkpt>
      <trkpt lat="43.55752" lon="6.79768">
        <ele>163.1</ele>
        <time>2025-10-24T06:39:32.000Z</time>
      </trkpt>
      <trkpt lat="43.55756" lon="6.79771">
        <ele>163.1</ele>
        <time>2025-10-24T06:39:33.000Z</time>
      </trkpt>
      <trkpt lat="43.55759" lon="6.79773">
        <ele>163.1</ele>
        <time>2025-10-24T06:39:34.000Z</time>
      </trkpt>
      <trkpt lat="43.55763" lon="6.79776">
        <ele>163.1</ele>
        <time>2025-10-24T06:39:35.000Z</time>
      </trkpt>
      <trkpt lat="43.55767" lon="6.79779">
        <ele>163.1</ele>
        <time>2025-10-24T06:39:36.000Z</time>
      </trkpt>
      <trkpt lat="43.55771" lon="6.79781">
        <ele>163.2</ele>
        <time>2025-10-24T06:39:37.000Z</time>
      </trkpt>
      <trkpt lat="43.55774" lon="6.79784">
        <ele>163.2</ele>
        <time>2025-10-24T06:39:38.000Z</time>
      </trkpt>
      <trkpt lat="43.55778" lon="6.79788">
        <ele>163.2</ele>
        <time>2025-10-24T06:39:39.000Z</time>
      </trkpt>
      <trkpt lat="43.55781" lon="6.79791">
        <ele>163.2</ele>
        <time>2025-10-24T06:39:40.000Z</time>
      </trkpt>
      <trkpt lat="43.55784" lon="6.79795">
        <ele>163.2</ele>
        <time>2025-10-24T06:39:41.000Z</time>
      </trkpt>
      <trkpt lat="43.55787" lon="6.79799">
        <ele>163.2</ele>
        <time>2025-10-24T06:39:42.000Z</time>
      </trkpt>
      <trkpt lat="43.5579" lon="6.79802">
        <ele>163.2</ele>
        <time>2025-10-24T06:39:43.000Z</time>
      </trkpt>
      <trkpt lat="43.55794" lon="6.79804">
        <ele>163.2</ele>
        <time>2025-10-24T06:39:44.000Z</time>
      </trkpt>
      <trkpt lat="43.55797" lon="6.79806">
        <ele>163.2</ele>
        <time>2025-10-24T06:39:45.000Z</time>
      </trkpt>
      <trkpt lat="43.558" lon="6.79807">
        <ele>163.2</ele>
        <time>2025-10-24T06:39:46.000Z</time>
      </trkpt>
      <trkpt lat="43.55803" lon="6.79808">
        <ele>163.1</ele>
        <time>2025-10-24T06:39:47.000Z</time>
      </trkpt>
      <trkpt lat="43.55806" lon="6.7981">
        <ele>163.1</ele>
        <time>2025-10-24T06:39:48.000Z</time>
      </trkpt>
      <trkpt lat="43.55808" lon="6.79811">
        <ele>163</ele>
        <time>2025-10-24T06:39:49.000Z</time>
      </trkpt>
      <trkpt lat="43.5581" lon="6.79812">
        <ele>162.9</ele>
        <time>2025-10-24T06:39:50.000Z</time>
      </trkpt>
      <trkpt lat="43.55812" lon="6.79813">
        <ele>162.8</ele>
        <time>2025-10-24T06:39:51.000Z</time>
      </trkpt>
      <trkpt lat="43.55813" lon="6.79814">
        <ele>162.7</ele>
        <time>2025-10-24T06:39:52.000Z</time>
      </trkpt>
      <trkpt lat="43.55816" lon="6.79816">
        <ele>162.5</ele>
        <time>2025-10-24T06:39:53.000Z</time>
      </trkpt>
      <trkpt lat="43.55817" lon="6.79815">
        <ele>162.4</ele>
        <time>2025-10-24T06:39:54.000Z</time>
      </trkpt>
      <trkpt lat="43.55818" lon="6.79815">
        <ele>162.3</ele>
        <time>2025-10-24T06:39:55.000Z</time>
      </trkpt>
      <trkpt lat="43.55819" lon="6.79815">
        <ele>162.1</ele>
        <time>2025-10-24T06:39:56.000Z</time>
      </trkpt>
      <trkpt lat="43.5582" lon="6.79815">
        <ele>162</ele>
        <time>2025-10-24T06:39:57.000Z</time>
      </trkpt>
      <trkpt lat="43.55821" lon="6.79815">
        <ele>161.9</ele>
        <time>2025-10-24T06:39:58.000Z</time>
      </trkpt>
      <trkpt lat="43.55822" lon="6.79814">
        <ele>161.8</ele>
        <time>2025-10-24T06:39:59.000Z</time>
      </trkpt>
      <trkpt lat="43.55823" lon="6.79814">
        <ele>161.6</ele>
        <time>2025-10-24T06:40:00.000Z</time>
      </trkpt>
      <trkpt lat="43.55824" lon="6.79814">
        <ele>161.5</ele>
        <time>2025-10-24T06:40:01.000Z</time>
      </trkpt>
      <trkpt lat="43.55825" lon="6.79814">
        <ele>161.4</ele>
        <time>2025-10-24T06:40:02.000Z</time>
      </trkpt>
      <trkpt lat="43.55826" lon="6.79814">
        <ele>161.3</ele>
        <time>2025-10-24T06:40:03.000Z</time>
      </trkpt>
      <trkpt lat="43.55827" lon="6.79813">
        <ele>161.1</ele>
        <time>2025-10-24T06:40:04.000Z</time>
      </trkpt>
      <trkpt lat="43.55828" lon="6.79813">
        <ele>161</ele>
        <time>2025-10-24T06:40:05.000Z</time>
      </trkpt>
      <trkpt lat="43.55829" lon="6.79813">
        <ele>160.9</ele>
        <time>2025-10-24T06:40:06.000Z</time>
      </trkpt>
      <trkpt lat="43.5583" lon="6.79813">
        <ele>160.8</ele>
        <time>2025-10-24T06:40:07.000Z</time>
      </trkpt>
      <trkpt lat="43.55831" lon="6.79813">
        <ele>160.7</ele>
        <time>2025-10-24T06:40:08.000Z</time>
      </trkpt>
      <trkpt lat="43.55832" lon="6.79812">
        <ele>160.6</ele>
        <time>2025-10-24T06:40:09.000Z</time>
      </trkpt>
      <trkpt lat="43.55833" lon="6.79812">
        <ele>160.4</ele>
        <time>2025-10-24T06:40:10.000Z</time>
      </trkpt>
      <trkpt lat="43.55834" lon="6.79812">
        <ele>160.4</ele>
        <time>2025-10-24T06:40:11.000Z</time>
      </trkpt>
      <trkpt lat="43.55835" lon="6.79812">
        <ele>160.3</ele>
        <time>2025-10-24T06:40:12.000Z</time>
      </trkpt>
      <trkpt lat="43.55836" lon="6.79812">
        <ele>160.2</ele>
        <time>2025-10-24T06:40:13.000Z</time>
      </trkpt>
      <trkpt lat="43.55837" lon="6.79812">
        <ele>160.1</ele>
        <time>2025-10-24T06:40:14.000Z</time>
      </trkpt>
      <trkpt lat="43.55838" lon="6.79811">
        <ele>160.1</ele>
        <time>2025-10-24T06:40:15.000Z</time>
      </trkpt>
      <trkpt lat="43.55839" lon="6.79811">
        <ele>160</ele>
        <time>2025-10-24T06:40:16.000Z</time>
      </trkpt>
      <trkpt lat="43.5584" lon="6.79811">
        <ele>160</ele>
        <time>2025-10-24T06:40:17.000Z</time>
      </trkpt>
      <trkpt lat="43.55841" lon="6.79811">
        <ele>159.9</ele>
        <time>2025-10-24T06:40:18.000Z</time>
      </trkpt>
      <trkpt lat="43.55842" lon="6.79811">
        <ele>159.9</ele>
        <time>2025-10-24T06:40:19.000Z</time>
      </trkpt>
      <trkpt lat="43.55843" lon="6.7981">
        <ele>159.9</ele>
        <time>2025-10-24T06:40:20.000Z</time>
      </trkpt>
      <trkpt lat="43.55848" lon="6.79808">
        <ele>159.9</ele>
        <time>2025-10-24T06:40:21.000Z</time>
      </trkpt>
      <trkpt lat="43.55853" lon="6.79806">
        <ele>160</ele>
        <time>2025-10-24T06:40:22.000Z</time>
      </trkpt>
      <trkpt lat="43.55858" lon="6.79803">
        <ele>160.2</ele>
        <time>2025-10-24T06:40:23.000Z</time>
      </trkpt>
      <trkpt lat="43.55861" lon="6.79802">
        <ele>160.5</ele>
        <time>2025-10-24T06:40:24.000Z</time>
      </trkpt>
      <trkpt lat="43.55864" lon="6.798">
        <ele>160.7</ele>
        <time>2025-10-24T06:40:25.000Z</time>
      </trkpt>
      <trkpt lat="43.55868" lon="6.79799">
        <ele>160.9</ele>
        <time>2025-10-24T06:40:26.000Z</time>
      </trkpt>
      <trkpt lat="43.55871" lon="6.79798">
        <ele>161.1</ele>
        <time>2025-10-24T06:40:27.000Z</time>
      </trkpt>
      <trkpt lat="43.55874" lon="6.79797">
        <ele>161.3</ele>
        <time>2025-10-24T06:40:28.000Z</time>
      </trkpt>
      <trkpt lat="43.55878" lon="6.79796">
        <ele>161.4</ele>
        <time>2025-10-24T06:40:29.000Z</time>
      </trkpt>
      <trkpt lat="43.55881" lon="6.79795">
        <ele>161.5</ele>
        <time>2025-10-24T06:40:30.000Z</time>
      </trkpt>
      <trkpt lat="43.55884" lon="6.79795">
        <ele>161.5</ele>
        <time>2025-10-24T06:40:31.000Z</time>
      </trkpt>
      <trkpt lat="43.55888" lon="6.79794">
        <ele>161.5</ele>
        <time>2025-10-24T06:40:32.000Z</time>
      </trkpt>
      <trkpt lat="43.55891" lon="6.79793">
        <ele>161.5</ele>
        <time>2025-10-24T06:40:33.000Z</time>
      </trkpt>
      <trkpt lat="43.55895" lon="6.79793">
        <ele>161.5</ele>
        <time>2025-10-24T06:40:34.000Z</time>
      </trkpt>
      <trkpt lat="43.55898" lon="6.79792">
        <ele>161.5</ele>
        <time>2025-10-24T06:40:35.000Z</time>
      </trkpt>
      <trkpt lat="43.55902" lon="6.79792">
        <ele>161.5</ele>
        <time>2025-10-24T06:40:36.000Z</time>
      </trkpt>
      <trkpt lat="43.55905" lon="6.79793">
        <ele>161.5</ele>
        <time>2025-10-24T06:40:37.000Z</time>
      </trkpt>
      <trkpt lat="43.55908" lon="6.79794">
        <ele>161.5</ele>
        <time>2025-10-24T06:40:38.000Z</time>
      </trkpt>
      <trkpt lat="43.55911" lon="6.79794">
        <ele>161.5</ele>
        <time>2025-10-24T06:40:39.000Z</time>
      </trkpt>
      <trkpt lat="43.55913" lon="6.79795">
        <ele>161.5</ele>
        <time>2025-10-24T06:40:40.000Z</time>
      </trkpt>
      <trkpt lat="43.55914" lon="6.79794">
        <ele>161.5</ele>
        <time>2025-10-24T06:40:41.000Z</time>
      </trkpt>
      <trkpt lat="43.55914" lon="6.79795">
        <ele>161.5</ele>
        <time>2025-10-24T06:40:42.000Z</time>
      </trkpt>
      <trkpt lat="43.55914" lon="6.79795">
        <ele>161.5</ele>
        <time>2025-10-24T06:40:43.000Z</time>
      </trkpt>
      <trkpt lat="43.55914" lon="6.79795">
        <ele>161.5</ele>
        <time>2025-10-24T06:40:44.000Z</time>
      </trkpt>
      <trkpt lat="43.55913" lon="6.79795">
        <ele>161.5</ele>
        <time>2025-10-24T06:40:45.000Z</time>
      </trkpt>
      <trkpt lat="43.55914" lon="6.79796">
        <ele>161.5</ele>
        <time>2025-10-24T06:40:46.000Z</time>
      </trkpt>
      <trkpt lat="43.55916" lon="6.79797">
        <ele>161.5</ele>
        <time>2025-10-24T06:40:47.000Z</time>
      </trkpt>
      <trkpt lat="43.55918" lon="6.79798">
        <ele>161.5</ele>
        <time>2025-10-24T06:40:48.000Z</time>
      </trkpt>
      <trkpt lat="43.55921" lon="6.798">
        <ele>161.5</ele>
        <time>2025-10-24T06:40:49.000Z</time>
      </trkpt>
      <trkpt lat="43.55924" lon="6.79801">
        <ele>161.5</ele>
        <time>2025-10-24T06:40:50.000Z</time>
      </trkpt>
      <trkpt lat="43.55927" lon="6.79803">
        <ele>161.5</ele>
        <time>2025-10-24T06:40:51.000Z</time>
      </trkpt>
      <trkpt lat="43.55931" lon="6.79805">
        <ele>161.5</ele>
        <time>2025-10-24T06:40:52.000Z</time>
      </trkpt>
      <trkpt lat="43.55934" lon="6.79808">
        <ele>161.4</ele>
        <time>2025-10-24T06:40:53.000Z</time>
      </trkpt>
      <trkpt lat="43.55937" lon="6.7981">
        <ele>161.4</ele>
        <time>2025-10-24T06:40:54.000Z</time>
      </trkpt>
      <trkpt lat="43.5594" lon="6.79813">
        <ele>161.4</ele>
        <time>2025-10-24T06:40:55.000Z</time>
      </trkpt>
      <trkpt lat="43.55944" lon="6.79815">
        <ele>161.3</ele>
        <time>2025-10-24T06:40:56.000Z</time>
      </trkpt>
      <trkpt lat="43.55947" lon="6.79818">
        <ele>161.2</ele>
        <time>2025-10-24T06:40:57.000Z</time>
      </trkpt>
      <trkpt lat="43.55951" lon="6.7982">
        <ele>161.2</ele>
        <time>2025-10-24T06:40:58.000Z</time>
      </trkpt>
      <trkpt lat="43.55954" lon="6.79823">
        <ele>161.1</ele>
        <time>2025-10-24T06:40:59.000Z</time>
      </trkpt>
      <trkpt lat="43.55957" lon="6.79826">
        <ele>161</ele>
        <time>2025-10-24T06:41:00.000Z</time>
      </trkpt>
      <trkpt lat="43.55961" lon="6.79828">
        <ele>161</ele>
        <time>2025-10-24T06:41:01.000Z</time>
      </trkpt>
      <trkpt lat="43.55965" lon="6.79831">
        <ele>160.9</ele>
        <time>2025-10-24T06:41:02.000Z</time>
      </trkpt>
      <trkpt lat="43.55969" lon="6.79833">
        <ele>160.8</ele>
        <time>2025-10-24T06:41:03.000Z</time>
      </trkpt>
      <trkpt lat="43.55973" lon="6.79836">
        <ele>160.8</ele>
        <time>2025-10-24T06:41:04.000Z</time>
      </trkpt>
      <trkpt lat="43.55977" lon="6.79838">
        <ele>160.8</ele>
        <time>2025-10-24T06:41:05.000Z</time>
      </trkpt>
      <trkpt lat="43.55982" lon="6.7984">
        <ele>160.8</ele>
        <time>2025-10-24T06:41:06.000Z</time>
      </trkpt>
      <trkpt lat="43.55986" lon="6.79841">
        <ele>160.8</ele>
        <time>2025-10-24T06:41:07.000Z</time>
      </trkpt>
      <trkpt lat="43.5599" lon="6.79842">
        <ele>160.9</ele>
        <time>2025-10-24T06:41:08.000Z</time>
      </trkpt>
      <trkpt lat="43.55994" lon="6.79843">
        <ele>161</ele>
        <time>2025-10-24T06:41:09.000Z</time>
      </trkpt>
      <trkpt lat="43.55998" lon="6.79845">
        <ele>161.1</ele>
        <time>2025-10-24T06:41:10.000Z</time>
      </trkpt>
      <trkpt lat="43.56001" lon="6.79846">
        <ele>161.1</ele>
        <time>2025-10-24T06:41:11.000Z</time>
      </trkpt>
      <trkpt lat="43.56005" lon="6.79846">
        <ele>161.2</ele>
        <time>2025-10-24T06:41:12.000Z</time>
      </trkpt>
      <trkpt lat="43.56008" lon="6.79847">
        <ele>161.3</ele>
        <time>2025-10-24T06:41:13.000Z</time>
      </trkpt>
      <trkpt lat="43.56012" lon="6.79848">
        <ele>161.4</ele>
        <time>2025-10-24T06:41:14.000Z</time>
      </trkpt>
      <trkpt lat="43.56015" lon="6.7985">
        <ele>161.4</ele>
        <time>2025-10-24T06:41:15.000Z</time>
      </trkpt>
      <trkpt lat="43.56019" lon="6.79851">
        <ele>161.5</ele>
        <time>2025-10-24T06:41:16.000Z</time>
      </trkpt>
      <trkpt lat="43.56022" lon="6.79853">
        <ele>161.6</ele>
        <time>2025-10-24T06:41:17.000Z</time>
      </trkpt>
      <trkpt lat="43.56026" lon="6.79855">
        <ele>161.6</ele>
        <time>2025-10-24T06:41:18.000Z</time>
      </trkpt>
      <trkpt lat="43.56029" lon="6.79857">
        <ele>161.7</ele>
        <time>2025-10-24T06:41:19.000Z</time>
      </trkpt>
      <trkpt lat="43.56032" lon="6.7986">
        <ele>161.8</ele>
        <time>2025-10-24T06:41:20.000Z</time>
      </trkpt>
      <trkpt lat="43.56035" lon="6.79863">
        <ele>161.8</ele>
        <time>2025-10-24T06:41:21.000Z</time>
      </trkpt>
      <trkpt lat="43.56039" lon="6.79866">
        <ele>162</ele>
        <time>2025-10-24T06:41:22.000Z</time>
      </trkpt>
      <trkpt lat="43.56042" lon="6.79868">
        <ele>162.1</ele>
        <time>2025-10-24T06:41:23.000Z</time>
      </trkpt>
      <trkpt lat="43.56046" lon="6.79871">
        <ele>162.3</ele>
        <time>2025-10-24T06:41:24.000Z</time>
      </trkpt>
      <trkpt lat="43.56049" lon="6.79874">
        <ele>162.5</ele>
        <time>2025-10-24T06:41:25.000Z</time>
      </trkpt>
      <trkpt lat="43.56051" lon="6.79877">
        <ele>162.8</ele>
        <time>2025-10-24T06:41:26.000Z</time>
      </trkpt>
      <trkpt lat="43.56053" lon="6.79881">
        <ele>163</ele>
        <time>2025-10-24T06:41:27.000Z</time>
      </trkpt>
      <trkpt lat="43.56055" lon="6.79884">
        <ele>163.2</ele>
        <time>2025-10-24T06:41:28.000Z</time>
      </trkpt>
      <trkpt lat="43.56056" lon="6.79889">
        <ele>163.4</ele>
        <time>2025-10-24T06:41:29.000Z</time>
      </trkpt>
      <trkpt lat="43.56057" lon="6.79893">
        <ele>163.5</ele>
        <time>2025-10-24T06:41:30.000Z</time>
      </trkpt>
      <trkpt lat="43.56058" lon="6.79897">
        <ele>163.7</ele>
        <time>2025-10-24T06:41:31.000Z</time>
      </trkpt>
      <trkpt lat="43.56059" lon="6.79902">
        <ele>163.8</ele>
        <time>2025-10-24T06:41:32.000Z</time>
      </trkpt>
      <trkpt lat="43.5606" lon="6.79907">
        <ele>163.9</ele>
        <time>2025-10-24T06:41:33.000Z</time>
      </trkpt>
      <trkpt lat="43.56062" lon="6.79911">
        <ele>163.9</ele>
        <time>2025-10-24T06:41:34.000Z</time>
      </trkpt>
      <trkpt lat="43.56062" lon="6.79914">
        <ele>163.9</ele>
        <time>2025-10-24T06:41:35.000Z</time>
      </trkpt>
      <trkpt lat="43.56063" lon="6.79917">
        <ele>164</ele>
        <time>2025-10-24T06:41:36.000Z</time>
      </trkpt>
      <trkpt lat="43.56064" lon="6.79921">
        <ele>164</ele>
        <time>2025-10-24T06:41:37.000Z</time>
      </trkpt>
      <trkpt lat="43.56065" lon="6.79925">
        <ele>164</ele>
        <time>2025-10-24T06:41:38.000Z</time>
      </trkpt>
      <trkpt lat="43.56066" lon="6.79929">
        <ele>164</ele>
        <time>2025-10-24T06:41:39.000Z</time>
      </trkpt>
      <trkpt lat="43.56067" lon="6.79933">
        <ele>164</ele>
        <time>2025-10-24T06:41:40.000Z</time>
      </trkpt>
      <trkpt lat="43.56068" lon="6.79935">
        <ele>164</ele>
        <time>2025-10-24T06:41:41.000Z</time>
      </trkpt>
      <trkpt lat="43.56068" lon="6.79937">
        <ele>164</ele>
        <time>2025-10-24T06:41:42.000Z</time>
      </trkpt>
      <trkpt lat="43.56068" lon="6.7994">
        <ele>163.9</ele>
        <time>2025-10-24T06:41:43.000Z</time>
      </trkpt>
      <trkpt lat="43.56068" lon="6.79941">
        <ele>163.9</ele>
        <time>2025-10-24T06:41:44.000Z</time>
      </trkpt>
      <trkpt lat="43.56069" lon="6.79943">
        <ele>163.9</ele>
        <time>2025-10-24T06:41:45.000Z</time>
      </trkpt>
      <trkpt lat="43.56069" lon="6.79943">
        <ele>163.9</ele>
        <time>2025-10-24T06:41:46.000Z</time>
      </trkpt>
      <trkpt lat="43.56069" lon="6.79943">
        <ele>163.9</ele>
        <time>2025-10-24T06:41:47.000Z</time>
      </trkpt>
      <trkpt lat="43.56069" lon="6.79943">
        <ele>163.9</ele>
        <time>2025-10-24T06:41:48.000Z</time>
      </trkpt>
      <trkpt lat="43.5607" lon="6.79942">
        <ele>163.9</ele>
        <time>2025-10-24T06:41:49.000Z</time>
      </trkpt>
      <trkpt lat="43.5607" lon="6.79941">
        <ele>163.9</ele>
        <time>2025-10-24T06:41:50.000Z</time>
      </trkpt>
      <trkpt lat="43.56071" lon="6.79939">
        <ele>163.9</ele>
        <time>2025-10-24T06:41:51.000Z</time>
      </trkpt>
      <trkpt lat="43.56072" lon="6.79937">
        <ele>163.9</ele>
        <time>2025-10-24T06:41:52.000Z</time>
      </trkpt>
      <trkpt lat="43.56072" lon="6.79935">
        <ele>163.9</ele>
        <time>2025-10-24T06:41:53.000Z</time>
      </trkpt>
      <trkpt lat="43.56072" lon="6.79934">
        <ele>163.9</ele>
        <time>2025-10-24T06:41:54.000Z</time>
      </trkpt>
      <trkpt lat="43.56072" lon="6.79934">
        <ele>163.9</ele>
        <time>2025-10-24T06:41:55.000Z</time>
      </trkpt>
      <trkpt lat="43.56072" lon="6.79933">
        <ele>163.9</ele>
        <time>2025-10-24T06:41:56.000Z</time>
      </trkpt>
      <trkpt lat="43.56072" lon="6.79933">
        <ele>163.9</ele>
        <time>2025-10-24T06:41:57.000Z</time>
      </trkpt>
      <trkpt lat="43.56071" lon="6.79931">
        <ele>163.9</ele>
        <time>2025-10-24T06:41:58.000Z</time>
      </trkpt>
      <trkpt lat="43.56069" lon="6.79931">
        <ele>163.8</ele>
        <time>2025-10-24T06:41:59.000Z</time>
      </trkpt>
      <trkpt lat="43.56067" lon="6.79931">
        <ele>163.8</ele>
        <time>2025-10-24T06:42:00.000Z</time>
      </trkpt>
      <trkpt lat="43.56066" lon="6.79932">
        <ele>163.8</ele>
        <time>2025-10-24T06:42:01.000Z</time>
      </trkpt>
      <trkpt lat="43.56064" lon="6.79934">
        <ele>163.7</ele>
        <time>2025-10-24T06:42:02.000Z</time>
      </trkpt>
      <trkpt lat="43.56063" lon="6.79937">
        <ele>163.6</ele>
        <time>2025-10-24T06:42:03.000Z</time>
      </trkpt>
      <trkpt lat="43.56062" lon="6.7994">
        <ele>163.5</ele>
        <time>2025-10-24T06:42:04.000Z</time>
      </trkpt>
      <trkpt lat="43.56062" lon="6.79943">
        <ele>163.4</ele>
        <time>2025-10-24T06:42:05.000Z</time>
      </trkpt>
      <trkpt lat="43.56062" lon="6.79946">
        <ele>163.3</ele>
        <time>2025-10-24T06:42:06.000Z</time>
      </trkpt>
      <trkpt lat="43.56063" lon="6.7995">
        <ele>163.2</ele>
        <time>2025-10-24T06:42:07.000Z</time>
      </trkpt>
      <trkpt lat="43.56065" lon="6.79953">
        <ele>163.1</ele>
        <time>2025-10-24T06:42:08.000Z</time>
      </trkpt>
      <trkpt lat="43.56067" lon="6.79957">
        <ele>162.9</ele>
        <time>2025-10-24T06:42:09.000Z</time>
      </trkpt>
      <trkpt lat="43.56068" lon="6.7996">
        <ele>162.8</ele>
        <time>2025-10-24T06:42:10.000Z</time>
      </trkpt>
      <trkpt lat="43.5607" lon="6.79964">
        <ele>162.6</ele>
        <time>2025-10-24T06:42:11.000Z</time>
      </trkpt>
      <trkpt lat="43.56071" lon="6.79968">
        <ele>162.5</ele>
        <time>2025-10-24T06:42:12.000Z</time>
      </trkpt>
      <trkpt lat="43.56073" lon="6.79972">
        <ele>162.3</ele>
        <time>2025-10-24T06:42:13.000Z</time>
      </trkpt>
      <trkpt lat="43.56075" lon="6.79975">
        <ele>162.2</ele>
        <time>2025-10-24T06:42:14.000Z</time>
      </trkpt>
      <trkpt lat="43.56077" lon="6.79979">
        <ele>162</ele>
        <time>2025-10-24T06:42:15.000Z</time>
      </trkpt>
      <trkpt lat="43.56079" lon="6.79983">
        <ele>161.9</ele>
        <time>2025-10-24T06:42:16.000Z</time>
      </trkpt>
      <trkpt lat="43.5608" lon="6.79987">
        <ele>161.7</ele>
        <time>2025-10-24T06:42:17.000Z</time>
      </trkpt>
      <trkpt lat="43.56083" lon="6.79991">
        <ele>161.5</ele>
        <time>2025-10-24T06:42:18.000Z</time>
      </trkpt>
      <trkpt lat="43.56085" lon="6.79994">
        <ele>161.4</ele>
        <time>2025-10-24T06:42:19.000Z</time>
      </trkpt>
      <trkpt lat="43.56088" lon="6.79998">
        <ele>161.2</ele>
        <time>2025-10-24T06:42:20.000Z</time>
      </trkpt>
      <trkpt lat="43.56091" lon="6.80001">
        <ele>161</ele>
        <time>2025-10-24T06:42:21.000Z</time>
      </trkpt>
      <trkpt lat="43.56094" lon="6.80005">
        <ele>160.8</ele>
        <time>2025-10-24T06:42:22.000Z</time>
      </trkpt>
      <trkpt lat="43.56097" lon="6.80009">
        <ele>160.6</ele>
        <time>2025-10-24T06:42:23.000Z</time>
      </trkpt>
      <trkpt lat="43.561" lon="6.80013">
        <ele>160.5</ele>
        <time>2025-10-24T06:42:24.000Z</time>
      </trkpt>
      <trkpt lat="43.56103" lon="6.80017">
        <ele>160.3</ele>
        <time>2025-10-24T06:42:25.000Z</time>
      </trkpt>
      <trkpt lat="43.56106" lon="6.80022">
        <ele>160.1</ele>
        <time>2025-10-24T06:42:26.000Z</time>
      </trkpt>
      <trkpt lat="43.56109" lon="6.80027">
        <ele>160</ele>
        <time>2025-10-24T06:42:27.000Z</time>
      </trkpt>
      <trkpt lat="43.56111" lon="6.80033">
        <ele>159.8</ele>
        <time>2025-10-24T06:42:28.000Z</time>
      </trkpt>
      <trkpt lat="43.56113" lon="6.80038">
        <ele>159.7</ele>
        <time>2025-10-24T06:42:29.000Z</time>
      </trkpt>
      <trkpt lat="43.56115" lon="6.80043">
        <ele>159.6</ele>
        <time>2025-10-24T06:42:30.000Z</time>
      </trkpt>
      <trkpt lat="43.56116" lon="6.80048">
        <ele>159.6</ele>
        <time>2025-10-24T06:42:31.000Z</time>
      </trkpt>
      <trkpt lat="43.56117" lon="6.80052">
        <ele>159.4</ele>
        <time>2025-10-24T06:42:32.000Z</time>
      </trkpt>
      <trkpt lat="43.56118" lon="6.80055">
        <ele>159.3</ele>
        <time>2025-10-24T06:42:33.000Z</time>
      </trkpt>
      <trkpt lat="43.56118" lon="6.80058">
        <ele>159.2</ele>
        <time>2025-10-24T06:42:34.000Z</time>
      </trkpt>
      <trkpt lat="43.56119" lon="6.80061">
        <ele>159</ele>
        <time>2025-10-24T06:42:35.000Z</time>
      </trkpt>
      <trkpt lat="43.5612" lon="6.80064">
        <ele>158.9</ele>
        <time>2025-10-24T06:42:36.000Z</time>
      </trkpt>
      <trkpt lat="43.56121" lon="6.80067">
        <ele>158.8</ele>
        <time>2025-10-24T06:42:37.000Z</time>
      </trkpt>
      <trkpt lat="43.56122" lon="6.80071">
        <ele>158.6</ele>
        <time>2025-10-24T06:42:38.000Z</time>
      </trkpt>
      <trkpt lat="43.56123" lon="6.80075">
        <ele>158.5</ele>
        <time>2025-10-24T06:42:39.000Z</time>
      </trkpt>
      <trkpt lat="43.56125" lon="6.80078">
        <ele>158.3</ele>
        <time>2025-10-24T06:42:40.000Z</time>
      </trkpt>
      <trkpt lat="43.56127" lon="6.80082">
        <ele>158.1</ele>
        <time>2025-10-24T06:42:41.000Z</time>
      </trkpt>
      <trkpt lat="43.5613" lon="6.80086">
        <ele>157.9</ele>
        <time>2025-10-24T06:42:42.000Z</time>
      </trkpt>
      <trkpt lat="43.56132" lon="6.8009">
        <ele>157.7</ele>
        <time>2025-10-24T06:42:43.000Z</time>
      </trkpt>
      <trkpt lat="43.56135" lon="6.80093">
        <ele>157.5</ele>
        <time>2025-10-24T06:42:44.000Z</time>
      </trkpt>
      <trkpt lat="43.56139" lon="6.80097">
        <ele>157.3</ele>
        <time>2025-10-24T06:42:45.000Z</time>
      </trkpt>
      <trkpt lat="43.56142" lon="6.801">
        <ele>157.1</ele>
        <time>2025-10-24T06:42:46.000Z</time>
      </trkpt>
      <trkpt lat="43.56146" lon="6.80102">
        <ele>156.8</ele>
        <time>2025-10-24T06:42:47.000Z</time>
      </trkpt>
      <trkpt lat="43.56149" lon="6.80104">
        <ele>156.6</ele>
        <time>2025-10-24T06:42:48.000Z</time>
      </trkpt>
      <trkpt lat="43.56153" lon="6.80105">
        <ele>156.4</ele>
        <time>2025-10-24T06:42:49.000Z</time>
      </trkpt>
      <trkpt lat="43.56157" lon="6.80104">
        <ele>156.1</ele>
        <time>2025-10-24T06:42:50.000Z</time>
      </trkpt>
      <trkpt lat="43.5616" lon="6.80102">
        <ele>155.8</ele>
        <time>2025-10-24T06:42:51.000Z</time>
      </trkpt>
      <trkpt lat="43.56164" lon="6.801">
        <ele>155.5</ele>
        <time>2025-10-24T06:42:52.000Z</time>
      </trkpt>
      <trkpt lat="43.56167" lon="6.80098">
        <ele>155.1</ele>
        <time>2025-10-24T06:42:53.000Z</time>
      </trkpt>
      <trkpt lat="43.5617" lon="6.80097">
        <ele>154.8</ele>
        <time>2025-10-24T06:42:54.000Z</time>
      </trkpt>
      <trkpt lat="43.56174" lon="6.80095">
        <ele>154.3</ele>
        <time>2025-10-24T06:42:55.000Z</time>
      </trkpt>
      <trkpt lat="43.56179" lon="6.80093">
        <ele>153.7</ele>
        <time>2025-10-24T06:42:56.000Z</time>
      </trkpt>
      <trkpt lat="43.56184" lon="6.80091">
        <ele>153</ele>
        <time>2025-10-24T06:42:57.000Z</time>
      </trkpt>
      <trkpt lat="43.56189" lon="6.80088">
        <ele>152.3</ele>
        <time>2025-10-24T06:42:58.000Z</time>
      </trkpt>
      <trkpt lat="43.56193" lon="6.80085">
        <ele>151.8</ele>
        <time>2025-10-24T06:42:59.000Z</time>
      </trkpt>
      <trkpt lat="43.56197" lon="6.80082">
        <ele>151.4</ele>
        <time>2025-10-24T06:43:00.000Z</time>
      </trkpt>
      <trkpt lat="43.562" lon="6.80079">
        <ele>151.1</ele>
        <time>2025-10-24T06:43:01.000Z</time>
      </trkpt>
      <trkpt lat="43.56203" lon="6.80078">
        <ele>150.8</ele>
        <time>2025-10-24T06:43:02.000Z</time>
      </trkpt>
      <trkpt lat="43.56205" lon="6.80078">
        <ele>150.7</ele>
        <time>2025-10-24T06:43:03.000Z</time>
      </trkpt>
      <trkpt lat="43.56207" lon="6.80079">
        <ele>150.5</ele>
        <time>2025-10-24T06:43:04.000Z</time>
      </trkpt>
      <trkpt lat="43.56209" lon="6.8008">
        <ele>150.3</ele>
        <time>2025-10-24T06:43:05.000Z</time>
      </trkpt>
      <trkpt lat="43.56211" lon="6.8008">
        <ele>150.1</ele>
        <time>2025-10-24T06:43:06.000Z</time>
      </trkpt>
      <trkpt lat="43.56213" lon="6.80081">
        <ele>149.9</ele>
        <time>2025-10-24T06:43:07.000Z</time>
      </trkpt>
      <trkpt lat="43.56215" lon="6.80082">
        <ele>149.7</ele>
        <time>2025-10-24T06:43:08.000Z</time>
      </trkpt>
      <trkpt lat="43.56217" lon="6.80084">
        <ele>149.5</ele>
        <time>2025-10-24T06:43:09.000Z</time>
      </trkpt>
      <trkpt lat="43.56218" lon="6.80086">
        <ele>149.3</ele>
        <time>2025-10-24T06:43:10.000Z</time>
      </trkpt>
      <trkpt lat="43.56219" lon="6.80088">
        <ele>149.1</ele>
        <time>2025-10-24T06:43:11.000Z</time>
      </trkpt>
      <trkpt lat="43.5622" lon="6.8009">
        <ele>148.9</ele>
        <time>2025-10-24T06:43:12.000Z</time>
      </trkpt>
      <trkpt lat="43.56221" lon="6.80091">
        <ele>148.8</ele>
        <time>2025-10-24T06:43:13.000Z</time>
      </trkpt>
      <trkpt lat="43.56222" lon="6.80091">
        <ele>148.7</ele>
        <time>2025-10-24T06:43:14.000Z</time>
      </trkpt>
      <trkpt lat="43.56223" lon="6.80091">
        <ele>148.6</ele>
        <time>2025-10-24T06:43:15.000Z</time>
      </trkpt>
      <trkpt lat="43.56223" lon="6.80092">
        <ele>148.6</ele>
        <time>2025-10-24T06:43:16.000Z</time>
      </trkpt>
      <trkpt lat="43.56223" lon="6.80092">
        <ele>148.5</ele>
        <time>2025-10-24T06:43:17.000Z</time>
      </trkpt>
      <trkpt lat="43.56223" lon="6.80092">
        <ele>148.5</ele>
        <time>2025-10-24T06:43:18.000Z</time>
      </trkpt>
      <trkpt lat="43.56224" lon="6.80092">
        <ele>148.5</ele>
        <time>2025-10-24T06:43:19.000Z</time>
      </trkpt>
      <trkpt lat="43.56225" lon="6.80093">
        <ele>148.4</ele>
        <time>2025-10-24T06:43:20.000Z</time>
      </trkpt>
      <trkpt lat="43.56225" lon="6.80093">
        <ele>148.4</ele>
        <time>2025-10-24T06:43:21.000Z</time>
      </trkpt>
      <trkpt lat="43.56224" lon="6.80093">
        <ele>148.3</ele>
        <time>2025-10-24T06:43:22.000Z</time>
      </trkpt>
      <trkpt lat="43.56225" lon="6.80093">
        <ele>148.3</ele>
        <time>2025-10-24T06:43:23.000Z</time>
      </trkpt>
      <trkpt lat="43.56226" lon="6.80094">
        <ele>148.2</ele>
        <time>2025-10-24T06:43:24.000Z</time>
      </trkpt>
      <trkpt lat="43.56226" lon="6.80095">
        <ele>148.2</ele>
        <time>2025-10-24T06:43:25.000Z</time>
      </trkpt>
      <trkpt lat="43.56226" lon="6.80095">
        <ele>148.1</ele>
        <time>2025-10-24T06:43:26.000Z</time>
      </trkpt>
      <trkpt lat="43.56227" lon="6.80096">
        <ele>148</ele>
        <time>2025-10-24T06:43:27.000Z</time>
      </trkpt>
      <trkpt lat="43.56227" lon="6.80096">
        <ele>148</ele>
        <time>2025-10-24T06:43:28.000Z</time>
      </trkpt>
      <trkpt lat="43.56227" lon="6.80096">
        <ele>148</ele>
        <time>2025-10-24T06:43:29.000Z</time>
      </trkpt>
      <trkpt lat="43.56227" lon="6.80096">
        <ele>148</ele>
        <time>2025-10-24T06:43:30.000Z</time>
      </trkpt>
      <trkpt lat="43.56227" lon="6.80095">
        <ele>148</ele>
        <time>2025-10-24T06:43:31.000Z</time>
      </trkpt>
      <trkpt lat="43.56227" lon="6.80095">
        <ele>148</ele>
        <time>2025-10-24T06:43:32.000Z</time>
      </trkpt>
      <trkpt lat="43.56227" lon="6.80096">
        <ele>148</ele>
        <time>2025-10-24T06:43:33.000Z</time>
      </trkpt>
      <trkpt lat="43.56228" lon="6.80096">
        <ele>147.9</ele>
        <time>2025-10-24T06:43:34.000Z</time>
      </trkpt>
      <trkpt lat="43.56228" lon="6.80096">
        <ele>147.9</ele>
        <time>2025-10-24T06:43:35.000Z</time>
      </trkpt>
      <trkpt lat="43.56229" lon="6.80097">
        <ele>147.9</ele>
        <time>2025-10-24T06:43:36.000Z</time>
      </trkpt>
      <trkpt lat="43.56228" lon="6.80097">
        <ele>147.9</ele>
        <time>2025-10-24T06:43:37.000Z</time>
      </trkpt>
      <trkpt lat="43.56228" lon="6.80097">
        <ele>147.9</ele>
        <time>2025-10-24T06:43:38.000Z</time>
      </trkpt>
      <trkpt lat="43.56228" lon="6.80097">
        <ele>147.9</ele>
        <time>2025-10-24T06:43:39.000Z</time>
      </trkpt>
      <trkpt lat="43.56228" lon="6.80097">
        <ele>147.9</ele>
        <time>2025-10-24T06:43:40.000Z</time>
      </trkpt>
      <trkpt lat="43.56228" lon="6.80097">
        <ele>147.9</ele>
        <time>2025-10-24T06:43:41.000Z</time>
      </trkpt>
      <trkpt lat="43.56228" lon="6.80097">
        <ele>147.9</ele>
        <time>2025-10-24T06:43:42.000Z</time>
      </trkpt>
      <trkpt lat="43.56228" lon="6.80097">
        <ele>147.9</ele>
        <time>2025-10-24T06:43:43.000Z</time>
      </trkpt>
      <trkpt lat="43.56228" lon="6.80097">
        <ele>147.9</ele>
        <time>2025-10-24T06:43:44.000Z</time>
      </trkpt>
      <trkpt lat="43.56228" lon="6.80097">
        <ele>147.9</ele>
        <time>2025-10-24T06:43:45.000Z</time>
      </trkpt>
      <trkpt lat="43.56228" lon="6.80097">
        <ele>147.9</ele>
        <time>2025-10-24T06:43:46.000Z</time>
      </trkpt>
      <trkpt lat="43.56228" lon="6.80097">
        <ele>147.9</ele>
        <time>2025-10-24T06:43:47.000Z</time>
      </trkpt>
      <trkpt lat="43.56227" lon="6.80101">
        <ele>147.8</ele>
        <time>2025-10-24T06:43:48.000Z</time>
      </trkpt>
      <trkpt lat="43.56225" lon="6.80105">
        <ele>147.8</ele>
        <time>2025-10-24T06:43:49.000Z</time>
      </trkpt>
      <trkpt lat="43.56224" lon="6.80108">
        <ele>147.9</ele>
        <time>2025-10-24T06:43:50.000Z</time>
      </trkpt>
      <trkpt lat="43.56223" lon="6.80112">
        <ele>148</ele>
        <time>2025-10-24T06:43:51.000Z</time>
      </trkpt>
      <trkpt lat="43.56221" lon="6.80116">
        <ele>148.3</ele>
        <time>2025-10-24T06:43:52.000Z</time>
      </trkpt>
      <trkpt lat="43.56219" lon="6.8012">
        <ele>148.6</ele>
        <time>2025-10-24T06:43:53.000Z</time>
      </trkpt>
      <trkpt lat="43.56218" lon="6.80124">
        <ele>149</ele>
        <time>2025-10-24T06:43:54.000Z</time>
      </trkpt>
      <trkpt lat="43.56217" lon="6.80128">
        <ele>149.3</ele>
        <time>2025-10-24T06:43:55.000Z</time>
      </trkpt>
      <trkpt lat="43.56215" lon="6.80131">
        <ele>149.6</ele>
        <time>2025-10-24T06:43:56.000Z</time>
      </trkpt>
      <trkpt lat="43.56215" lon="6.80133">
        <ele>149.7</ele>
        <time>2025-10-24T06:43:57.000Z</time>
      </trkpt>
      <trkpt lat="43.56214" lon="6.80134">
        <ele>149.8</ele>
        <time>2025-10-24T06:43:58.000Z</time>
      </trkpt>
      <trkpt lat="43.56213" lon="6.80135">
        <ele>150</ele>
        <time>2025-10-24T06:43:59.000Z</time>
      </trkpt>
      <trkpt lat="43.56213" lon="6.80135">
        <ele>150</ele>
        <time>2025-10-24T06:44:00.000Z</time>
      </trkpt>
      <trkpt lat="43.56213" lon="6.80135">
        <ele>150</ele>
        <time>2025-10-24T06:44:01.000Z</time>
      </trkpt>
      <trkpt lat="43.56213" lon="6.80135">
        <ele>150.1</ele>
        <time>2025-10-24T06:44:02.000Z</time>
      </trkpt>
      <trkpt lat="43.56213" lon="6.80137">
        <ele>150</ele>
        <time>2025-10-24T06:44:03.000Z</time>
      </trkpt>
      <trkpt lat="43.56215" lon="6.80139">
        <ele>149.9</ele>
        <time>2025-10-24T06:44:04.000Z</time>
      </trkpt>
      <trkpt lat="43.56216" lon="6.80141">
        <ele>149.8</ele>
        <time>2025-10-24T06:44:05.000Z</time>
      </trkpt>
      <trkpt lat="43.56219" lon="6.80144">
        <ele>149.6</ele>
        <time>2025-10-24T06:44:06.000Z</time>
      </trkpt>
      <trkpt lat="43.56222" lon="6.80147">
        <ele>149.4</ele>
        <time>2025-10-24T06:44:07.000Z</time>
      </trkpt>
      <trkpt lat="43.56225" lon="6.80151">
        <ele>149.2</ele>
        <time>2025-10-24T06:44:08.000Z</time>
      </trkpt>
      <trkpt lat="43.56228" lon="6.80155">
        <ele>149</ele>
        <time>2025-10-24T06:44:09.000Z</time>
      </trkpt>
      <trkpt lat="43.56231" lon="6.8016">
        <ele>148.7</ele>
        <time>2025-10-24T06:44:10.000Z</time>
      </trkpt>
      <trkpt lat="43.56233" lon="6.80166">
        <ele>148.5</ele>
        <time>2025-10-24T06:44:11.000Z</time>
      </trkpt>
      <trkpt lat="43.56235" lon="6.80171">
        <ele>148.3</ele>
        <time>2025-10-24T06:44:12.000Z</time>
      </trkpt>
      <trkpt lat="43.56237" lon="6.80177">
        <ele>148.1</ele>
        <time>2025-10-24T06:44:13.000Z</time>
      </trkpt>
      <trkpt lat="43.56239" lon="6.80182">
        <ele>148</ele>
        <time>2025-10-24T06:44:14.000Z</time>
      </trkpt>
      <trkpt lat="43.5624" lon="6.80187">
        <ele>147.8</ele>
        <time>2025-10-24T06:44:15.000Z</time>
      </trkpt>
      <trkpt lat="43.56241" lon="6.80192">
        <ele>147.7</ele>
        <time>2025-10-24T06:44:16.000Z</time>
      </trkpt>
      <trkpt lat="43.56243" lon="6.80197">
        <ele>147.6</ele>
        <time>2025-10-24T06:44:17.000Z</time>
      </trkpt>
      <trkpt lat="43.56244" lon="6.80202">
        <ele>147.6</ele>
        <time>2025-10-24T06:44:18.000Z</time>
      </trkpt>
      <trkpt lat="43.56244" lon="6.80207">
        <ele>147.6</ele>
        <time>2025-10-24T06:44:19.000Z</time>
      </trkpt>
      <trkpt lat="43.56244" lon="6.80211">
        <ele>147.6</ele>
        <time>2025-10-24T06:44:20.000Z</time>
      </trkpt>
      <trkpt lat="43.56244" lon="6.80216">
        <ele>147.7</ele>
        <time>2025-10-24T06:44:21.000Z</time>
      </trkpt>
      <trkpt lat="43.56243" lon="6.80219">
        <ele>147.8</ele>
        <time>2025-10-24T06:44:22.000Z</time>
      </trkpt>
      <trkpt lat="43.56244" lon="6.80223">
        <ele>147.9</ele>
        <time>2025-10-24T06:44:23.000Z</time>
      </trkpt>
      <trkpt lat="43.56244" lon="6.80227">
        <ele>148</ele>
        <time>2025-10-24T06:44:24.000Z</time>
      </trkpt>
      <trkpt lat="43.56244" lon="6.80231">
        <ele>148.2</ele>
        <time>2025-10-24T06:44:25.000Z</time>
      </trkpt>
      <trkpt lat="43.56244" lon="6.80235">
        <ele>148.4</ele>
        <time>2025-10-24T06:44:26.000Z</time>
      </trkpt>
      <trkpt lat="43.56244" lon="6.80238">
        <ele>148.6</ele>
        <time>2025-10-24T06:44:27.000Z</time>
      </trkpt>
      <trkpt lat="43.56243" lon="6.80242">
        <ele>148.8</ele>
        <time>2025-10-24T06:44:28.000Z</time>
      </trkpt>
      <trkpt lat="43.56243" lon="6.80246">
        <ele>149.1</ele>
        <time>2025-10-24T06:44:29.000Z</time>
      </trkpt>
      <trkpt lat="43.56242" lon="6.80249">
        <ele>149.3</ele>
        <time>2025-10-24T06:44:30.000Z</time>
      </trkpt>
      <trkpt lat="43.56241" lon="6.80253">
        <ele>149.6</ele>
        <time>2025-10-24T06:44:31.000Z</time>
      </trkpt>
      <trkpt lat="43.5624" lon="6.80257">
        <ele>149.9</ele>
        <time>2025-10-24T06:44:32.000Z</time>
      </trkpt>
      <trkpt lat="43.5624" lon="6.8026">
        <ele>150.2</ele>
        <time>2025-10-24T06:44:33.000Z</time>
      </trkpt>
      <trkpt lat="43.56238" lon="6.80264">
        <ele>150.5</ele>
        <time>2025-10-24T06:44:34.000Z</time>
      </trkpt>
      <trkpt lat="43.56237" lon="6.80267">
        <ele>150.8</ele>
        <time>2025-10-24T06:44:35.000Z</time>
      </trkpt>
      <trkpt lat="43.56236" lon="6.80271">
        <ele>151</ele>
        <time>2025-10-24T06:44:36.000Z</time>
      </trkpt>
      <trkpt lat="43.56235" lon="6.80274">
        <ele>151.2</ele>
        <time>2025-10-24T06:44:37.000Z</time>
      </trkpt>
      <trkpt lat="43.56234" lon="6.80275">
        <ele>151.4</ele>
        <time>2025-10-24T06:44:38.000Z</time>
      </trkpt>
      <trkpt lat="43.56234" lon="6.80277">
        <ele>151.5</ele>
        <time>2025-10-24T06:44:39.000Z</time>
      </trkpt>
      <trkpt lat="43.56234" lon="6.80277">
        <ele>151.5</ele>
        <time>2025-10-24T06:44:40.000Z</time>
      </trkpt>
      <trkpt lat="43.56234" lon="6.80277">
        <ele>151.5</ele>
        <time>2025-10-24T06:44:41.000Z</time>
      </trkpt>
      <trkpt lat="43.56234" lon="6.80277">
        <ele>151.5</ele>
        <time>2025-10-24T06:44:42.000Z</time>
      </trkpt>
      <trkpt lat="43.56234" lon="6.80277">
        <ele>151.5</ele>
        <time>2025-10-24T06:44:43.000Z</time>
      </trkpt>
      <trkpt lat="43.56234" lon="6.80277">
        <ele>151.5</ele>
        <time>2025-10-24T06:44:44.000Z</time>
      </trkpt>
      <trkpt lat="43.56234" lon="6.80278">
        <ele>151.6</ele>
        <time>2025-10-24T06:44:45.000Z</time>
      </trkpt>
      <trkpt lat="43.56233" lon="6.80281">
        <ele>151.7</ele>
        <time>2025-10-24T06:44:46.000Z</time>
      </trkpt>
      <trkpt lat="43.56233" lon="6.80283">
        <ele>151.9</ele>
        <time>2025-10-24T06:44:47.000Z</time>
      </trkpt>
      <trkpt lat="43.56232" lon="6.80287">
        <ele>152</ele>
        <time>2025-10-24T06:44:48.000Z</time>
      </trkpt>
      <trkpt lat="43.56232" lon="6.8029">
        <ele>152.2</ele>
        <time>2025-10-24T06:44:49.000Z</time>
      </trkpt>
      <trkpt lat="43.56232" lon="6.80293">
        <ele>152.3</ele>
        <time>2025-10-24T06:44:50.000Z</time>
      </trkpt>
      <trkpt lat="43.56231" lon="6.80296">
        <ele>152.4</ele>
        <time>2025-10-24T06:44:51.000Z</time>
      </trkpt>
      <trkpt lat="43.56231" lon="6.80299">
        <ele>152.5</ele>
        <time>2025-10-24T06:44:52.000Z</time>
      </trkpt>
      <trkpt lat="43.5623" lon="6.80302">
        <ele>152.6</ele>
        <time>2025-10-24T06:44:53.000Z</time>
      </trkpt>
      <trkpt lat="43.56229" lon="6.80305">
        <ele>152.7</ele>
        <time>2025-10-24T06:44:54.000Z</time>
      </trkpt>
      <trkpt lat="43.56228" lon="6.80309">
        <ele>152.8</ele>
        <time>2025-10-24T06:44:55.000Z</time>
      </trkpt>
      <trkpt lat="43.56227" lon="6.80312">
        <ele>152.9</ele>
        <time>2025-10-24T06:44:56.000Z</time>
      </trkpt>
      <trkpt lat="43.56226" lon="6.80316">
        <ele>153</ele>
        <time>2025-10-24T06:44:57.000Z</time>
      </trkpt>
      <trkpt lat="43.56225" lon="6.80319">
        <ele>153.1</ele>
        <time>2025-10-24T06:44:58.000Z</time>
      </trkpt>
      <trkpt lat="43.56224" lon="6.80324">
        <ele>153.2</ele>
        <time>2025-10-24T06:44:59.000Z</time>
      </trkpt>
      <trkpt lat="43.56223" lon="6.80329">
        <ele>153.3</ele>
        <time>2025-10-24T06:45:00.000Z</time>
      </trkpt>
      <trkpt lat="43.56222" lon="6.80333">
        <ele>153.4</ele>
        <time>2025-10-24T06:45:01.000Z</time>
      </trkpt>
      <trkpt lat="43.56221" lon="6.80337">
        <ele>153.5</ele>
        <time>2025-10-24T06:45:02.000Z</time>
      </trkpt>
      <trkpt lat="43.5622" lon="6.80342">
        <ele>153.7</ele>
        <time>2025-10-24T06:45:03.000Z</time>
      </trkpt>
      <trkpt lat="43.56219" lon="6.80347">
        <ele>153.8</ele>
        <time>2025-10-24T06:45:04.000Z</time>
      </trkpt>
      <trkpt lat="43.56218" lon="6.80351">
        <ele>154</ele>
        <time>2025-10-24T06:45:05.000Z</time>
      </trkpt>
      <trkpt lat="43.56217" lon="6.80355">
        <ele>154.1</ele>
        <time>2025-10-24T06:45:06.000Z</time>
      </trkpt>
      <trkpt lat="43.56216" lon="6.8036">
        <ele>154.3</ele>
        <time>2025-10-24T06:45:07.000Z</time>
      </trkpt>
      <trkpt lat="43.56215" lon="6.80363">
        <ele>154.4</ele>
        <time>2025-10-24T06:45:08.000Z</time>
      </trkpt>
      <trkpt lat="43.56215" lon="6.80367">
        <ele>154.5</ele>
        <time>2025-10-24T06:45:09.000Z</time>
      </trkpt>
      <trkpt lat="43.56214" lon="6.80371">
        <ele>154.6</ele>
        <time>2025-10-24T06:45:10.000Z</time>
      </trkpt>
      <trkpt lat="43.56214" lon="6.80374">
        <ele>154.8</ele>
        <time>2025-10-24T06:45:11.000Z</time>
      </trkpt>
      <trkpt lat="43.56213" lon="6.80378">
        <ele>154.9</ele>
        <time>2025-10-24T06:45:12.000Z</time>
      </trkpt>
      <trkpt lat="43.56213" lon="6.80381">
        <ele>155</ele>
        <time>2025-10-24T06:45:13.000Z</time>
      </trkpt>
      <trkpt lat="43.56212" lon="6.80384">
        <ele>155</ele>
        <time>2025-10-24T06:45:14.000Z</time>
      </trkpt>
      <trkpt lat="43.56211" lon="6.80387">
        <ele>155.1</ele>
        <time>2025-10-24T06:45:15.000Z</time>
      </trkpt>
      <trkpt lat="43.56209" lon="6.80389">
        <ele>155.2</ele>
        <time>2025-10-24T06:45:16.000Z</time>
      </trkpt>
      <trkpt lat="43.56208" lon="6.80393">
        <ele>155.2</ele>
        <time>2025-10-24T06:45:17.000Z</time>
      </trkpt>
      <trkpt lat="43.56207" lon="6.80396">
        <ele>155.3</ele>
        <time>2025-10-24T06:45:18.000Z</time>
      </trkpt>
      <trkpt lat="43.56206" lon="6.804">
        <ele>155.3</ele>
        <time>2025-10-24T06:45:19.000Z</time>
      </trkpt>
      <trkpt lat="43.56204" lon="6.80404">
        <ele>155.3</ele>
        <time>2025-10-24T06:45:20.000Z</time>
      </trkpt>
      <trkpt lat="43.56203" lon="6.80408">
        <ele>155.4</ele>
        <time>2025-10-24T06:45:21.000Z</time>
      </trkpt>
      <trkpt lat="43.56202" lon="6.80411">
        <ele>155.4</ele>
        <time>2025-10-24T06:45:22.000Z</time>
      </trkpt>
      <trkpt lat="43.562" lon="6.80415">
        <ele>155.3</ele>
        <time>2025-10-24T06:45:23.000Z</time>
      </trkpt>
      <trkpt lat="43.56199" lon="6.80419">
        <ele>155.3</ele>
        <time>2025-10-24T06:45:24.000Z</time>
      </trkpt>
      <trkpt lat="43.56198" lon="6.80423">
        <ele>155.3</ele>
        <time>2025-10-24T06:45:25.000Z</time>
      </trkpt>
      <trkpt lat="43.56196" lon="6.80427">
        <ele>155.2</ele>
        <time>2025-10-24T06:45:26.000Z</time>
      </trkpt>
      <trkpt lat="43.56195" lon="6.80431">
        <ele>155.2</ele>
        <time>2025-10-24T06:45:27.000Z</time>
      </trkpt>
      <trkpt lat="43.56194" lon="6.80434">
        <ele>155.1</ele>
        <time>2025-10-24T06:45:28.000Z</time>
      </trkpt>
      <trkpt lat="43.56193" lon="6.80438">
        <ele>155</ele>
        <time>2025-10-24T06:45:29.000Z</time>
      </trkpt>
      <trkpt lat="43.56192" lon="6.80441">
        <ele>154.9</ele>
        <time>2025-10-24T06:45:30.000Z</time>
      </trkpt>
      <trkpt lat="43.56191" lon="6.80445">
        <ele>154.8</ele>
        <time>2025-10-24T06:45:31.000Z</time>
      </trkpt>
      <trkpt lat="43.56189" lon="6.80448">
        <ele>154.6</ele>
        <time>2025-10-24T06:45:32.000Z</time>
      </trkpt>
      <trkpt lat="43.56187" lon="6.80452">
        <ele>154.4</ele>
        <time>2025-10-24T06:45:33.000Z</time>
      </trkpt>
      <trkpt lat="43.56184" lon="6.80455">
        <ele>154.3</ele>
        <time>2025-10-24T06:45:34.000Z</time>
      </trkpt>
      <trkpt lat="43.56181" lon="6.80459">
        <ele>154</ele>
        <time>2025-10-24T06:45:35.000Z</time>
      </trkpt>
      <trkpt lat="43.56179" lon="6.80464">
        <ele>153.8</ele>
        <time>2025-10-24T06:45:36.000Z</time>
      </trkpt>
      <trkpt lat="43.56176" lon="6.80469">
        <ele>153.5</ele>
        <time>2025-10-24T06:45:37.000Z</time>
      </trkpt>
      <trkpt lat="43.56174" lon="6.80474">
        <ele>153.4</ele>
        <time>2025-10-24T06:45:38.000Z</time>
      </trkpt>
      <trkpt lat="43.56172" lon="6.80479">
        <ele>153.1</ele>
        <time>2025-10-24T06:45:39.000Z</time>
      </trkpt>
      <trkpt lat="43.5617" lon="6.80483">
        <ele>153</ele>
        <time>2025-10-24T06:45:40.000Z</time>
      </trkpt>
      <trkpt lat="43.56167" lon="6.80487">
        <ele>152.8</ele>
        <time>2025-10-24T06:45:41.000Z</time>
      </trkpt>
      <trkpt lat="43.56164" lon="6.80492">
        <ele>152.7</ele>
        <time>2025-10-24T06:45:42.000Z</time>
      </trkpt>
      <trkpt lat="43.56163" lon="6.80495">
        <ele>152.6</ele>
        <time>2025-10-24T06:45:43.000Z</time>
      </trkpt>
      <trkpt lat="43.56161" lon="6.80499">
        <ele>152.6</ele>
        <time>2025-10-24T06:45:44.000Z</time>
      </trkpt>
      <trkpt lat="43.56158" lon="6.80504">
        <ele>152.5</ele>
        <time>2025-10-24T06:45:45.000Z</time>
      </trkpt>
      <trkpt lat="43.56157" lon="6.80507">
        <ele>152.5</ele>
        <time>2025-10-24T06:45:46.000Z</time>
      </trkpt>
      <trkpt lat="43.56155" lon="6.80509">
        <ele>152.5</ele>
        <time>2025-10-24T06:45:47.000Z</time>
      </trkpt>
      <trkpt lat="43.56155" lon="6.8051">
        <ele>152.5</ele>
        <time>2025-10-24T06:45:48.000Z</time>
      </trkpt>
      <trkpt lat="43.56154" lon="6.80511">
        <ele>152.5</ele>
        <time>2025-10-24T06:45:49.000Z</time>
      </trkpt>
      <trkpt lat="43.56154" lon="6.80511">
        <ele>152.5</ele>
        <time>2025-10-24T06:45:50.000Z</time>
      </trkpt>
      <trkpt lat="43.56154" lon="6.80511">
        <ele>152.5</ele>
        <time>2025-10-24T06:45:51.000Z</time>
      </trkpt>
      <trkpt lat="43.56154" lon="6.80511">
        <ele>152.5</ele>
        <time>2025-10-24T06:45:52.000Z</time>
      </trkpt>
      <trkpt lat="43.56154" lon="6.80511">
        <ele>152.5</ele>
        <time>2025-10-24T06:45:53.000Z</time>
      </trkpt>
      <trkpt lat="43.56153" lon="6.80511">
        <ele>152.5</ele>
        <time>2025-10-24T06:45:54.000Z</time>
      </trkpt>
      <trkpt lat="43.56154" lon="6.80511">
        <ele>152.5</ele>
        <time>2025-10-24T06:45:55.000Z</time>
      </trkpt>
      <trkpt lat="43.56154" lon="6.80511">
        <ele>152.5</ele>
        <time>2025-10-24T06:45:56.000Z</time>
      </trkpt>
      <trkpt lat="43.56154" lon="6.80511">
        <ele>152.5</ele>
        <time>2025-10-24T06:45:57.000Z</time>
      </trkpt>
      <trkpt lat="43.56154" lon="6.80511">
        <ele>152.5</ele>
        <time>2025-10-24T06:45:58.000Z</time>
      </trkpt>
      <trkpt lat="43.56153" lon="6.80512">
        <ele>152.5</ele>
        <time>2025-10-24T06:45:59.000Z</time>
      </trkpt>
      <trkpt lat="43.56153" lon="6.80512">
        <ele>152.5</ele>
        <time>2025-10-24T06:46:00.000Z</time>
      </trkpt>
      <trkpt lat="43.56153" lon="6.80511">
        <ele>152.5</ele>
        <time>2025-10-24T06:46:01.000Z</time>
      </trkpt>
      <trkpt lat="43.56153" lon="6.80511">
        <ele>152.5</ele>
        <time>2025-10-24T06:46:02.000Z</time>
      </trkpt>
      <trkpt lat="43.56153" lon="6.80511">
        <ele>152.5</ele>
        <time>2025-10-24T06:46:03.000Z</time>
      </trkpt>
      <trkpt lat="43.56153" lon="6.80511">
        <ele>152.5</ele>
        <time>2025-10-24T06:46:04.000Z</time>
      </trkpt>
      <trkpt lat="43.56153" lon="6.80511">
        <ele>152.5</ele>
        <time>2025-10-24T06:46:05.000Z</time>
      </trkpt>
      <trkpt lat="43.56152" lon="6.80512">
        <ele>152.6</ele>
        <time>2025-10-24T06:46:06.000Z</time>
      </trkpt>
      <trkpt lat="43.56151" lon="6.80515">
        <ele>152.6</ele>
        <time>2025-10-24T06:46:07.000Z</time>
      </trkpt>
      <trkpt lat="43.5615" lon="6.80518">
        <ele>152.6</ele>
        <time>2025-10-24T06:46:08.000Z</time>
      </trkpt>
      <trkpt lat="43.56149" lon="6.80521">
        <ele>152.7</ele>
        <time>2025-10-24T06:46:09.000Z</time>
      </trkpt>
      <trkpt lat="43.56147" lon="6.80523">
        <ele>152.7</ele>
        <time>2025-10-24T06:46:10.000Z</time>
      </trkpt>
      <trkpt lat="43.56147" lon="6.80526">
        <ele>152.8</ele>
        <time>2025-10-24T06:46:11.000Z</time>
      </trkpt>
      <trkpt lat="43.56146" lon="6.80528">
        <ele>152.8</ele>
        <time>2025-10-24T06:46:12.000Z</time>
      </trkpt>
      <trkpt lat="43.56145" lon="6.80531">
        <ele>152.9</ele>
        <time>2025-10-24T06:46:13.000Z</time>
      </trkpt>
      <trkpt lat="43.56143" lon="6.80534">
        <ele>153</ele>
        <time>2025-10-24T06:46:14.000Z</time>
      </trkpt>
      <trkpt lat="43.56142" lon="6.80537">
        <ele>153.1</ele>
        <time>2025-10-24T06:46:15.000Z</time>
      </trkpt>
      <trkpt lat="43.5614" lon="6.8054">
        <ele>153.1</ele>
        <time>2025-10-24T06:46:16.000Z</time>
      </trkpt>
      <trkpt lat="43.56139" lon="6.80544">
        <ele>153.2</ele>
        <time>2025-10-24T06:46:17.000Z</time>
      </trkpt>
      <trkpt lat="43.56138" lon="6.80548">
        <ele>153.3</ele>
        <time>2025-10-24T06:46:18.000Z</time>
      </trkpt>
      <trkpt lat="43.56137" lon="6.80552">
        <ele>153.5</ele>
        <time>2025-10-24T06:46:19.000Z</time>
      </trkpt>
      <trkpt lat="43.56136" lon="6.80556">
        <ele>153.6</ele>
        <time>2025-10-24T06:46:20.000Z</time>
      </trkpt>
      <trkpt lat="43.56134" lon="6.8056">
        <ele>153.8</ele>
        <time>2025-10-24T06:46:21.000Z</time>
      </trkpt>
      <trkpt lat="43.56133" lon="6.80564">
        <ele>154</ele>
        <time>2025-10-24T06:46:22.000Z</time>
      </trkpt>
      <trkpt lat="43.56132" lon="6.80567">
        <ele>154.1</ele>
        <time>2025-10-24T06:46:23.000Z</time>
      </trkpt>
      <trkpt lat="43.56131" lon="6.8057">
        <ele>154.3</ele>
        <time>2025-10-24T06:46:24.000Z</time>
      </trkpt>
      <trkpt lat="43.5613" lon="6.80574">
        <ele>154.5</ele>
        <time>2025-10-24T06:46:25.000Z</time>
      </trkpt>
      <trkpt lat="43.56129" lon="6.80577">
        <ele>154.6</ele>
        <time>2025-10-24T06:46:26.000Z</time>
      </trkpt>
      <trkpt lat="43.56128" lon="6.80581">
        <ele>154.8</ele>
        <time>2025-10-24T06:46:27.000Z</time>
      </trkpt>
      <trkpt lat="43.56127" lon="6.80585">
        <ele>155</ele>
        <time>2025-10-24T06:46:28.000Z</time>
      </trkpt>
      <trkpt lat="43.56126" lon="6.80588">
        <ele>155.2</ele>
        <time>2025-10-24T06:46:29.000Z</time>
      </trkpt>
      <trkpt lat="43.56125" lon="6.80592">
        <ele>155.4</ele>
        <time>2025-10-24T06:46:30.000Z</time>
      </trkpt>
      <trkpt lat="43.56124" lon="6.80596">
        <ele>155.6</ele>
        <time>2025-10-24T06:46:31.000Z</time>
      </trkpt>
      <trkpt lat="43.56123" lon="6.806">
        <ele>155.8</ele>
        <time>2025-10-24T06:46:32.000Z</time>
      </trkpt>
      <trkpt lat="43.56122" lon="6.80604">
        <ele>156</ele>
        <time>2025-10-24T06:46:33.000Z</time>
      </trkpt>
      <trkpt lat="43.5612" lon="6.80608">
        <ele>156.2</ele>
        <time>2025-10-24T06:46:34.000Z</time>
      </trkpt>
      <trkpt lat="43.56119" lon="6.80612">
        <ele>156.4</ele>
        <time>2025-10-24T06:46:35.000Z</time>
      </trkpt>
      <trkpt lat="43.56118" lon="6.80615">
        <ele>156.5</ele>
        <time>2025-10-24T06:46:36.000Z</time>
      </trkpt>
      <trkpt lat="43.56117" lon="6.80619">
        <ele>156.7</ele>
        <time>2025-10-24T06:46:37.000Z</time>
      </trkpt>
      <trkpt lat="43.56116" lon="6.80622">
        <ele>156.9</ele>
        <time>2025-10-24T06:46:38.000Z</time>
      </trkpt>
      <trkpt lat="43.56115" lon="6.80626">
        <ele>157</ele>
        <time>2025-10-24T06:46:39.000Z</time>
      </trkpt>
      <trkpt lat="43.56113" lon="6.8063">
        <ele>157.2</ele>
        <time>2025-10-24T06:46:40.000Z</time>
      </trkpt>
      <trkpt lat="43.56112" lon="6.80633">
        <ele>157.4</ele>
        <time>2025-10-24T06:46:41.000Z</time>
      </trkpt>
      <trkpt lat="43.5611" lon="6.80637">
        <ele>157.6</ele>
        <time>2025-10-24T06:46:42.000Z</time>
      </trkpt>
      <trkpt lat="43.56109" lon="6.80641">
        <ele>157.8</ele>
        <time>2025-10-24T06:46:43.000Z</time>
      </trkpt>
      <trkpt lat="43.56107" lon="6.80644">
        <ele>157.9</ele>
        <time>2025-10-24T06:46:44.000Z</time>
      </trkpt>
      <trkpt lat="43.56106" lon="6.80648">
        <ele>158.1</ele>
        <time>2025-10-24T06:46:45.000Z</time>
      </trkpt>
      <trkpt lat="43.56104" lon="6.80652">
        <ele>158.2</ele>
        <time>2025-10-24T06:46:46.000Z</time>
      </trkpt>
      <trkpt lat="43.56103" lon="6.80655">
        <ele>158.3</ele>
        <time>2025-10-24T06:46:47.000Z</time>
      </trkpt>
      <trkpt lat="43.56102" lon="6.80659">
        <ele>158.4</ele>
        <time>2025-10-24T06:46:48.000Z</time>
      </trkpt>
      <trkpt lat="43.56101" lon="6.80663">
        <ele>158.4</ele>
        <time>2025-10-24T06:46:49.000Z</time>
      </trkpt>
      <trkpt lat="43.561" lon="6.80666">
        <ele>158.5</ele>
        <time>2025-10-24T06:46:50.000Z</time>
      </trkpt>
      <trkpt lat="43.56099" lon="6.8067">
        <ele>158.5</ele>
        <time>2025-10-24T06:46:51.000Z</time>
      </trkpt>
      <trkpt lat="43.56097" lon="6.80673">
        <ele>158.6</ele>
        <time>2025-10-24T06:46:52.000Z</time>
      </trkpt>
      <trkpt lat="43.56096" lon="6.80676">
        <ele>158.6</ele>
        <time>2025-10-24T06:46:53.000Z</time>
      </trkpt>
      <trkpt lat="43.56094" lon="6.8068">
        <ele>158.7</ele>
        <time>2025-10-24T06:46:54.000Z</time>
      </trkpt>
      <trkpt lat="43.56092" lon="6.80684">
        <ele>158.7</ele>
        <time>2025-10-24T06:46:55.000Z</time>
      </trkpt>
      <trkpt lat="43.5609" lon="6.80688">
        <ele>158.8</ele>
        <time>2025-10-24T06:46:56.000Z</time>
      </trkpt>
      <trkpt lat="43.56088" lon="6.80692">
        <ele>158.9</ele>
        <time>2025-10-24T06:46:57.000Z</time>
      </trkpt>
      <trkpt lat="43.56086" lon="6.80696">
        <ele>159</ele>
        <time>2025-10-24T06:46:58.000Z</time>
      </trkpt>
      <trkpt lat="43.56084" lon="6.80699">
        <ele>159.1</ele>
        <time>2025-10-24T06:46:59.000Z</time>
      </trkpt>
      <trkpt lat="43.56083" lon="6.80702">
        <ele>159.2</ele>
        <time>2025-10-24T06:47:00.000Z</time>
      </trkpt>
      <trkpt lat="43.56081" lon="6.80706">
        <ele>159.3</ele>
        <time>2025-10-24T06:47:01.000Z</time>
      </trkpt>
      <trkpt lat="43.5608" lon="6.80709">
        <ele>159.5</ele>
        <time>2025-10-24T06:47:02.000Z</time>
      </trkpt>
      <trkpt lat="43.56078" lon="6.80711">
        <ele>159.6</ele>
        <time>2025-10-24T06:47:03.000Z</time>
      </trkpt>
      <trkpt lat="43.56077" lon="6.80714">
        <ele>159.7</ele>
        <time>2025-10-24T06:47:04.000Z</time>
      </trkpt>
      <trkpt lat="43.56075" lon="6.80716">
        <ele>159.9</ele>
        <time>2025-10-24T06:47:05.000Z</time>
      </trkpt>
      <trkpt lat="43.56073" lon="6.80719">
        <ele>160.1</ele>
        <time>2025-10-24T06:47:06.000Z</time>
      </trkpt>
      <trkpt lat="43.56071" lon="6.80722">
        <ele>160.2</ele>
        <time>2025-10-24T06:47:07.000Z</time>
      </trkpt>
      <trkpt lat="43.56069" lon="6.80725">
        <ele>160.4</ele>
        <time>2025-10-24T06:47:08.000Z</time>
      </trkpt>
      <trkpt lat="43.56066" lon="6.80727">
        <ele>160.5</ele>
        <time>2025-10-24T06:47:09.000Z</time>
      </trkpt>
      <trkpt lat="43.56064" lon="6.8073">
        <ele>160.6</ele>
        <time>2025-10-24T06:47:10.000Z</time>
      </trkpt>
      <trkpt lat="43.56062" lon="6.80733">
        <ele>160.6</ele>
        <time>2025-10-24T06:47:11.000Z</time>
      </trkpt>
      <trkpt lat="43.56061" lon="6.80736">
        <ele>160.6</ele>
        <time>2025-10-24T06:47:12.000Z</time>
      </trkpt>
      <trkpt lat="43.56059" lon="6.80738">
        <ele>160.6</ele>
        <time>2025-10-24T06:47:13.000Z</time>
      </trkpt>
      <trkpt lat="43.56058" lon="6.80741">
        <ele>160.5</ele>
        <time>2025-10-24T06:47:14.000Z</time>
      </trkpt>
      <trkpt lat="43.56057" lon="6.80744">
        <ele>160.4</ele>
        <time>2025-10-24T06:47:15.000Z</time>
      </trkpt>
      <trkpt lat="43.56055" lon="6.80747">
        <ele>160.3</ele>
        <time>2025-10-24T06:47:16.000Z</time>
      </trkpt>
      <trkpt lat="43.56054" lon="6.80751">
        <ele>160.1</ele>
        <time>2025-10-24T06:47:17.000Z</time>
      </trkpt>
      <trkpt lat="43.56052" lon="6.80754">
        <ele>159.9</ele>
        <time>2025-10-24T06:47:18.000Z</time>
      </trkpt>
      <trkpt lat="43.56051" lon="6.80758">
        <ele>159.7</ele>
        <time>2025-10-24T06:47:19.000Z</time>
      </trkpt>
      <trkpt lat="43.56049" lon="6.80762">
        <ele>159.5</ele>
        <time>2025-10-24T06:47:20.000Z</time>
      </trkpt>
      <trkpt lat="43.56048" lon="6.80765">
        <ele>159.3</ele>
        <time>2025-10-24T06:47:21.000Z</time>
      </trkpt>
      <trkpt lat="43.56046" lon="6.80768">
        <ele>159</ele>
        <time>2025-10-24T06:47:22.000Z</time>
      </trkpt>
      <trkpt lat="43.56045" lon="6.80771">
        <ele>158.8</ele>
        <time>2025-10-24T06:47:23.000Z</time>
      </trkpt>
      <trkpt lat="43.56043" lon="6.80774">
        <ele>158.7</ele>
        <time>2025-10-24T06:47:24.000Z</time>
      </trkpt>
      <trkpt lat="43.56042" lon="6.80777">
        <ele>158.5</ele>
        <time>2025-10-24T06:47:25.000Z</time>
      </trkpt>
      <trkpt lat="43.56041" lon="6.80779">
        <ele>158.3</ele>
        <time>2025-10-24T06:47:26.000Z</time>
      </trkpt>
      <trkpt lat="43.56039" lon="6.80782">
        <ele>158.1</ele>
        <time>2025-10-24T06:47:27.000Z</time>
      </trkpt>
      <trkpt lat="43.56037" lon="6.80786">
        <ele>157.9</ele>
        <time>2025-10-24T06:47:28.000Z</time>
      </trkpt>
      <trkpt lat="43.56035" lon="6.80789">
        <ele>157.8</ele>
        <time>2025-10-24T06:47:29.000Z</time>
      </trkpt>
      <trkpt lat="43.56034" lon="6.80793">
        <ele>157.6</ele>
        <time>2025-10-24T06:47:30.000Z</time>
      </trkpt>
      <trkpt lat="43.56032" lon="6.80796">
        <ele>157.5</ele>
        <time>2025-10-24T06:47:31.000Z</time>
      </trkpt>
      <trkpt lat="43.5603" lon="6.808">
        <ele>157.4</ele>
        <time>2025-10-24T06:47:32.000Z</time>
      </trkpt>
      <trkpt lat="43.56028" lon="6.80804">
        <ele>157.3</ele>
        <time>2025-10-24T06:47:33.000Z</time>
      </trkpt>
      <trkpt lat="43.56026" lon="6.80808">
        <ele>157.2</ele>
        <time>2025-10-24T06:47:34.000Z</time>
      </trkpt>
      <trkpt lat="43.56025" lon="6.80811">
        <ele>157.2</ele>
        <time>2025-10-24T06:47:35.000Z</time>
      </trkpt>
      <trkpt lat="43.56023" lon="6.80815">
        <ele>157.2</ele>
        <time>2025-10-24T06:47:36.000Z</time>
      </trkpt>
      <trkpt lat="43.56022" lon="6.80818">
        <ele>157.2</ele>
        <time>2025-10-24T06:47:37.000Z</time>
      </trkpt>
      <trkpt lat="43.5602" lon="6.80821">
        <ele>157.2</ele>
        <time>2025-10-24T06:47:38.000Z</time>
      </trkpt>
      <trkpt lat="43.56019" lon="6.80824">
        <ele>157.2</ele>
        <time>2025-10-24T06:47:39.000Z</time>
      </trkpt>
      <trkpt lat="43.56018" lon="6.80827">
        <ele>157.2</ele>
        <time>2025-10-24T06:47:40.000Z</time>
      </trkpt>
      <trkpt lat="43.56017" lon="6.8083">
        <ele>157.2</ele>
        <time>2025-10-24T06:47:41.000Z</time>
      </trkpt>
      <trkpt lat="43.56016" lon="6.80833">
        <ele>157.2</ele>
        <time>2025-10-24T06:47:42.000Z</time>
      </trkpt>
      <trkpt lat="43.56016" lon="6.80836">
        <ele>157.2</ele>
        <time>2025-10-24T06:47:43.000Z</time>
      </trkpt>
      <trkpt lat="43.56015" lon="6.80838">
        <ele>157.2</ele>
        <time>2025-10-24T06:47:44.000Z</time>
      </trkpt>
      <trkpt lat="43.56014" lon="6.80841">
        <ele>157.2</ele>
        <time>2025-10-24T06:47:45.000Z</time>
      </trkpt>
      <trkpt lat="43.56014" lon="6.80843">
        <ele>157.2</ele>
        <time>2025-10-24T06:47:46.000Z</time>
      </trkpt>
      <trkpt lat="43.56013" lon="6.80845">
        <ele>157.3</ele>
        <time>2025-10-24T06:47:47.000Z</time>
      </trkpt>
      <trkpt lat="43.56012" lon="6.80848">
        <ele>157.3</ele>
        <time>2025-10-24T06:47:48.000Z</time>
      </trkpt>
      <trkpt lat="43.56012" lon="6.80852">
        <ele>157.3</ele>
        <time>2025-10-24T06:47:49.000Z</time>
      </trkpt>
      <trkpt lat="43.56011" lon="6.80855">
        <ele>157.3</ele>
        <time>2025-10-24T06:47:50.000Z</time>
      </trkpt>
      <trkpt lat="43.5601" lon="6.80859">
        <ele>157.4</ele>
        <time>2025-10-24T06:47:51.000Z</time>
      </trkpt>
      <trkpt lat="43.56008" lon="6.80863">
        <ele>157.4</ele>
        <time>2025-10-24T06:47:52.000Z</time>
      </trkpt>
      <trkpt lat="43.56007" lon="6.80866">
        <ele>157.4</ele>
        <time>2025-10-24T06:47:53.000Z</time>
      </trkpt>
      <trkpt lat="43.56006" lon="6.80869">
        <ele>157.5</ele>
        <time>2025-10-24T06:47:54.000Z</time>
      </trkpt>
      <trkpt lat="43.56005" lon="6.80873">
        <ele>157.5</ele>
        <time>2025-10-24T06:47:55.000Z</time>
      </trkpt>
      <trkpt lat="43.56004" lon="6.80876">
        <ele>157.5</ele>
        <time>2025-10-24T06:47:56.000Z</time>
      </trkpt>
      <trkpt lat="43.56003" lon="6.80879">
        <ele>157.6</ele>
        <time>2025-10-24T06:47:57.000Z</time>
      </trkpt>
      <trkpt lat="43.56002" lon="6.80883">
        <ele>157.6</ele>
        <time>2025-10-24T06:47:58.000Z</time>
      </trkpt>
      <trkpt lat="43.56001" lon="6.80886">
        <ele>157.7</ele>
        <time>2025-10-24T06:47:59.000Z</time>
      </trkpt>
      <trkpt lat="43.56001" lon="6.8089">
        <ele>157.8</ele>
        <time>2025-10-24T06:48:00.000Z</time>
      </trkpt>
      <trkpt lat="43.56" lon="6.80894">
        <ele>157.8</ele>
        <time>2025-10-24T06:48:01.000Z</time>
      </trkpt>
      <trkpt lat="43.55999" lon="6.80898">
        <ele>157.9</ele>
        <time>2025-10-24T06:48:02.000Z</time>
      </trkpt>
      <trkpt lat="43.55999" lon="6.80902">
        <ele>158</ele>
        <time>2025-10-24T06:48:03.000Z</time>
      </trkpt>
      <trkpt lat="43.55998" lon="6.80906">
        <ele>158.1</ele>
        <time>2025-10-24T06:48:04.000Z</time>
      </trkpt>
      <trkpt lat="43.55997" lon="6.8091">
        <ele>158.2</ele>
        <time>2025-10-24T06:48:05.000Z</time>
      </trkpt>
      <trkpt lat="43.55996" lon="6.80914">
        <ele>158.3</ele>
        <time>2025-10-24T06:48:06.000Z</time>
      </trkpt>
      <trkpt lat="43.55995" lon="6.80918">
        <ele>158.4</ele>
        <time>2025-10-24T06:48:07.000Z</time>
      </trkpt>
      <trkpt lat="43.55994" lon="6.80922">
        <ele>158.5</ele>
        <time>2025-10-24T06:48:08.000Z</time>
      </trkpt>
      <trkpt lat="43.55993" lon="6.80926">
        <ele>158.7</ele>
        <time>2025-10-24T06:48:09.000Z</time>
      </trkpt>
      <trkpt lat="43.55992" lon="6.8093">
        <ele>158.9</ele>
        <time>2025-10-24T06:48:10.000Z</time>
      </trkpt>
      <trkpt lat="43.55991" lon="6.80933">
        <ele>159.1</ele>
        <time>2025-10-24T06:48:11.000Z</time>
      </trkpt>
      <trkpt lat="43.55989" lon="6.80937">
        <ele>159.3</ele>
        <time>2025-10-24T06:48:12.000Z</time>
      </trkpt>
      <trkpt lat="43.55988" lon="6.80941">
        <ele>159.5</ele>
        <time>2025-10-24T06:48:13.000Z</time>
      </trkpt>
      <trkpt lat="43.55987" lon="6.80944">
        <ele>159.8</ele>
        <time>2025-10-24T06:48:14.000Z</time>
      </trkpt>
      <trkpt lat="43.55986" lon="6.80946">
        <ele>159.9</ele>
        <time>2025-10-24T06:48:15.000Z</time>
      </trkpt>
      <trkpt lat="43.55985" lon="6.80947">
        <ele>160</ele>
        <time>2025-10-24T06:48:16.000Z</time>
      </trkpt>
      <trkpt lat="43.55985" lon="6.80948">
        <ele>160</ele>
        <time>2025-10-24T06:48:17.000Z</time>
      </trkpt>
      <trkpt lat="43.55985" lon="6.80948">
        <ele>160</ele>
        <time>2025-10-24T06:48:18.000Z</time>
      </trkpt>
      <trkpt lat="43.55985" lon="6.80948">
        <ele>160</ele>
        <time>2025-10-24T06:48:19.000Z</time>
      </trkpt>
      <trkpt lat="43.55985" lon="6.80948">
        <ele>160</ele>
        <time>2025-10-24T06:48:20.000Z</time>
      </trkpt>
      <trkpt lat="43.55985" lon="6.80947">
        <ele>160</ele>
        <time>2025-10-24T06:48:21.000Z</time>
      </trkpt>
      <trkpt lat="43.55984" lon="6.80947">
        <ele>159.9</ele>
        <time>2025-10-24T06:48:22.000Z</time>
      </trkpt>
      <trkpt lat="43.55983" lon="6.80947">
        <ele>159.9</ele>
        <time>2025-10-24T06:48:23.000Z</time>
      </trkpt>
      <trkpt lat="43.55983" lon="6.80946">
        <ele>159.8</ele>
        <time>2025-10-24T06:48:24.000Z</time>
      </trkpt>
      <trkpt lat="43.55982" lon="6.80946">
        <ele>159.7</ele>
        <time>2025-10-24T06:48:25.000Z</time>
      </trkpt>
      <trkpt lat="43.55982" lon="6.80945">
        <ele>159.7</ele>
        <time>2025-10-24T06:48:26.000Z</time>
      </trkpt>
      <trkpt lat="43.55982" lon="6.80945">
        <ele>159.7</ele>
        <time>2025-10-24T06:48:27.000Z</time>
      </trkpt>
      <trkpt lat="43.55983" lon="6.80945">
        <ele>159.7</ele>
        <time>2025-10-24T06:48:28.000Z</time>
      </trkpt>
      <trkpt lat="43.55983" lon="6.80945">
        <ele>159.7</ele>
        <time>2025-10-24T06:48:29.000Z</time>
      </trkpt>
      <trkpt lat="43.55983" lon="6.80944">
        <ele>159.6</ele>
        <time>2025-10-24T06:48:30.000Z</time>
      </trkpt>
      <trkpt lat="43.55983" lon="6.80944">
        <ele>159.6</ele>
        <time>2025-10-24T06:48:31.000Z</time>
      </trkpt>
      <trkpt lat="43.55984" lon="6.80944">
        <ele>159.6</ele>
        <time>2025-10-24T06:48:32.000Z</time>
      </trkpt>
      <trkpt lat="43.55984" lon="6.80944">
        <ele>159.6</ele>
        <time>2025-10-24T06:48:33.000Z</time>
      </trkpt>
      <trkpt lat="43.55984" lon="6.80944">
        <ele>159.6</ele>
        <time>2025-10-24T06:48:34.000Z</time>
      </trkpt>
      <trkpt lat="43.55984" lon="6.80944">
        <ele>159.6</ele>
        <time>2025-10-24T06:48:35.000Z</time>
      </trkpt>
      <trkpt lat="43.55984" lon="6.80944">
        <ele>159.6</ele>
        <time>2025-10-24T06:48:36.000Z</time>
      </trkpt>
      <trkpt lat="43.55984" lon="6.80944">
        <ele>159.6</ele>
        <time>2025-10-24T06:48:37.000Z</time>
      </trkpt>
      <trkpt lat="43.55984" lon="6.80944">
        <ele>159.6</ele>
        <time>2025-10-24T06:48:38.000Z</time>
      </trkpt>
      <trkpt lat="43.55984" lon="6.80944">
        <ele>159.6</ele>
        <time>2025-10-24T06:48:39.000Z</time>
      </trkpt>
      <trkpt lat="43.55984" lon="6.80944">
        <ele>159.6</ele>
        <time>2025-10-24T06:48:40.000Z</time>
      </trkpt>
      <trkpt lat="43.55984" lon="6.80944">
        <ele>159.6</ele>
        <time>2025-10-24T06:48:41.000Z</time>
      </trkpt>
      <trkpt lat="43.55984" lon="6.80944">
        <ele>159.6</ele>
        <time>2025-10-24T06:48:42.000Z</time>
      </trkpt>
      <trkpt lat="43.55984" lon="6.80945">
        <ele>159.6</ele>
        <time>2025-10-24T06:48:43.000Z</time>
      </trkpt>
      <trkpt lat="43.55987" lon="6.80947">
        <ele>159.3</ele>
        <time>2025-10-24T06:48:44.000Z</time>
      </trkpt>
      <trkpt lat="43.5599" lon="6.8095">
        <ele>159</ele>
        <time>2025-10-24T06:48:45.000Z</time>
      </trkpt>
      <trkpt lat="43.55993" lon="6.80954">
        <ele>158.7</ele>
        <time>2025-10-24T06:48:46.000Z</time>
      </trkpt>
      <trkpt lat="43.55994" lon="6.80957">
        <ele>158.5</ele>
        <time>2025-10-24T06:48:47.000Z</time>
      </trkpt>
      <trkpt lat="43.55996" lon="6.80961">
        <ele>158.2</ele>
        <time>2025-10-24T06:48:48.000Z</time>
      </trkpt>
      <trkpt lat="43.55997" lon="6.80965">
        <ele>158</ele>
        <time>2025-10-24T06:48:49.000Z</time>
      </trkpt>
      <trkpt lat="43.55999" lon="6.80968">
        <ele>157.7</ele>
        <time>2025-10-24T06:48:50.000Z</time>
      </trkpt>
      <trkpt lat="43.56002" lon="6.80971">
        <ele>157.5</ele>
        <time>2025-10-24T06:48:51.000Z</time>
      </trkpt>
      <trkpt lat="43.56004" lon="6.80973">
        <ele>157.3</ele>
        <time>2025-10-24T06:48:52.000Z</time>
      </trkpt>
      <trkpt lat="43.56006" lon="6.80974">
        <ele>157.1</ele>
        <time>2025-10-24T06:48:53.000Z</time>
      </trkpt>
      <trkpt lat="43.56007" lon="6.80975">
        <ele>157</ele>
        <time>2025-10-24T06:48:54.000Z</time>
      </trkpt>
      <trkpt lat="43.56009" lon="6.80975">
        <ele>156.9</ele>
        <time>2025-10-24T06:48:55.000Z</time>
      </trkpt>
      <trkpt lat="43.5601" lon="6.80976">
        <ele>156.8</ele>
        <time>2025-10-24T06:48:56.000Z</time>
      </trkpt>
      <trkpt lat="43.56012" lon="6.80978">
        <ele>156.7</ele>
        <time>2025-10-24T06:48:57.000Z</time>
      </trkpt>
      <trkpt lat="43.56013" lon="6.80979">
        <ele>156.6</ele>
        <time>2025-10-24T06:48:58.000Z</time>
      </trkpt>
      <trkpt lat="43.56015" lon="6.80981">
        <ele>156.5</ele>
        <time>2025-10-24T06:48:59.000Z</time>
      </trkpt>
      <trkpt lat="43.56016" lon="6.80982">
        <ele>156.4</ele>
        <time>2025-10-24T06:49:00.000Z</time>
      </trkpt>
      <trkpt lat="43.56018" lon="6.80984">
        <ele>156.4</ele>
        <time>2025-10-24T06:49:01.000Z</time>
      </trkpt>
      <trkpt lat="43.56019" lon="6.80985">
        <ele>156.4</ele>
        <time>2025-10-24T06:49:02.000Z</time>
      </trkpt>
      <trkpt lat="43.56021" lon="6.80987">
        <ele>156.3</ele>
        <time>2025-10-24T06:49:03.000Z</time>
      </trkpt>
      <trkpt lat="43.56023" lon="6.80988">
        <ele>156.4</ele>
        <time>2025-10-24T06:49:04.000Z</time>
      </trkpt>
      <trkpt lat="43.56025" lon="6.80989">
        <ele>156.4</ele>
        <time>2025-10-24T06:49:05.000Z</time>
      </trkpt>
      <trkpt lat="43.56027" lon="6.8099">
        <ele>156.4</ele>
        <time>2025-10-24T06:49:06.000Z</time>
      </trkpt>
      <trkpt lat="43.56029" lon="6.80991">
        <ele>156.5</ele>
        <time>2025-10-24T06:49:07.000Z</time>
      </trkpt>
      <trkpt lat="43.5603" lon="6.80991">
        <ele>156.6</ele>
        <time>2025-10-24T06:49:08.000Z</time>
      </trkpt>
      <trkpt lat="43.5603" lon="6.80992">
        <ele>156.6</ele>
        <time>2025-10-24T06:49:09.000Z</time>
      </trkpt>
      <trkpt lat="43.5603" lon="6.80992">
        <ele>156.6</ele>
        <time>2025-10-24T06:49:10.000Z</time>
      </trkpt>
      <trkpt lat="43.56031" lon="6.80992">
        <ele>156.6</ele>
        <time>2025-10-24T06:49:11.000Z</time>
      </trkpt>
      <trkpt lat="43.5603" lon="6.80992">
        <ele>156.6</ele>
        <time>2025-10-24T06:49:12.000Z</time>
      </trkpt>
      <trkpt lat="43.5603" lon="6.80992">
        <ele>156.6</ele>
        <time>2025-10-24T06:49:13.000Z</time>
      </trkpt>
      <trkpt lat="43.5603" lon="6.80992">
        <ele>156.6</ele>
        <time>2025-10-24T06:49:14.000Z</time>
      </trkpt>
      <trkpt lat="43.5603" lon="6.80992">
        <ele>156.6</ele>
        <time>2025-10-24T06:49:15.000Z</time>
      </trkpt>
      <trkpt lat="43.5603" lon="6.80991">
        <ele>156.7</ele>
        <time>2025-10-24T06:49:16.000Z</time>
      </trkpt>
      <trkpt lat="43.5603" lon="6.80991">
        <ele>156.7</ele>
        <time>2025-10-24T06:49:17.000Z</time>
      </trkpt>
      <trkpt lat="43.5603" lon="6.80991">
        <ele>156.7</ele>
        <time>2025-10-24T06:49:18.000Z</time>
      </trkpt>
      <trkpt lat="43.5603" lon="6.80991">
        <ele>156.7</ele>
        <time>2025-10-24T06:49:19.000Z</time>
      </trkpt>
      <trkpt lat="43.5603" lon="6.80991">
        <ele>156.7</ele>
        <time>2025-10-24T06:49:20.000Z</time>
      </trkpt>
      <trkpt lat="43.5603" lon="6.80991">
        <ele>156.7</ele>
        <time>2025-10-24T06:49:21.000Z</time>
      </trkpt>
      <trkpt lat="43.56029" lon="6.80991">
        <ele>156.7</ele>
        <time>2025-10-24T06:49:22.000Z</time>
      </trkpt>
      <trkpt lat="43.56029" lon="6.80991">
        <ele>156.8</ele>
        <time>2025-10-24T06:49:23.000Z</time>
      </trkpt>
      <trkpt lat="43.56029" lon="6.80991">
        <ele>156.8</ele>
        <time>2025-10-24T06:49:24.000Z</time>
      </trkpt>
      <trkpt lat="43.56029" lon="6.80991">
        <ele>156.8</ele>
        <time>2025-10-24T06:49:25.000Z</time>
      </trkpt>
      <trkpt lat="43.56029" lon="6.80991">
        <ele>156.8</ele>
        <time>2025-10-24T06:49:26.000Z</time>
      </trkpt>
      <trkpt lat="43.56029" lon="6.80991">
        <ele>156.8</ele>
        <time>2025-10-24T06:49:27.000Z</time>
      </trkpt>
      <trkpt lat="43.56029" lon="6.80991">
        <ele>156.8</ele>
        <time>2025-10-24T06:49:28.000Z</time>
      </trkpt>
      <trkpt lat="43.56029" lon="6.80991">
        <ele>156.8</ele>
        <time>2025-10-24T06:49:29.000Z</time>
      </trkpt>
      <trkpt lat="43.56029" lon="6.80991">
        <ele>156.8</ele>
        <time>2025-10-24T06:49:30.000Z</time>
      </trkpt>
      <trkpt lat="43.56029" lon="6.80991">
        <ele>156.8</ele>
        <time>2025-10-24T06:49:31.000Z</time>
      </trkpt>
      <trkpt lat="43.56029" lon="6.80991">
        <ele>156.8</ele>
        <time>2025-10-24T06:49:32.000Z</time>
      </trkpt>
      <trkpt lat="43.5603" lon="6.80991">
        <ele>156.8</ele>
        <time>2025-10-24T06:49:33.000Z</time>
      </trkpt>
      <trkpt lat="43.5603" lon="6.80991">
        <ele>156.8</ele>
        <time>2025-10-24T06:49:34.000Z</time>
      </trkpt>
      <trkpt lat="43.5603" lon="6.80991">
        <ele>156.8</ele>
        <time>2025-10-24T06:49:35.000Z</time>
      </trkpt>
      <trkpt lat="43.56031" lon="6.80991">
        <ele>156.9</ele>
        <time>2025-10-24T06:49:36.000Z</time>
      </trkpt>
      <trkpt lat="43.56032" lon="6.80991">
        <ele>157</ele>
        <time>2025-10-24T06:49:37.000Z</time>
      </trkpt>
      <trkpt lat="43.56034" lon="6.80992">
        <ele>157.2</ele>
        <time>2025-10-24T06:49:38.000Z</time>
      </trkpt>
      <trkpt lat="43.56035" lon="6.80993">
        <ele>157.3</ele>
        <time>2025-10-24T06:49:39.000Z</time>
      </trkpt>
      <trkpt lat="43.56035" lon="6.80993">
        <ele>157.3</ele>
        <time>2025-10-24T06:49:40.000Z</time>
      </trkpt>
      <trkpt lat="43.56035" lon="6.80993">
        <ele>157.3</ele>
        <time>2025-10-24T06:49:41.000Z</time>
      </trkpt>
      <trkpt lat="43.56036" lon="6.80992">
        <ele>157.4</ele>
        <time>2025-10-24T06:49:42.000Z</time>
      </trkpt>
      <trkpt lat="43.56036" lon="6.80992">
        <ele>157.5</ele>
        <time>2025-10-24T06:49:43.000Z</time>
      </trkpt>
      <trkpt lat="43.56037" lon="6.80991">
        <ele>157.6</ele>
        <time>2025-10-24T06:49:44.000Z</time>
      </trkpt>
      <trkpt lat="43.56037" lon="6.80992">
        <ele>157.6</ele>
        <time>2025-10-24T06:49:45.000Z</time>
      </trkpt>
      <trkpt lat="43.56036" lon="6.80992">
        <ele>157.5</ele>
        <time>2025-10-24T06:49:46.000Z</time>
      </trkpt>
      <trkpt lat="43.56036" lon="6.80991">
        <ele>157.5</ele>
        <time>2025-10-24T06:49:47.000Z</time>
      </trkpt>
      <trkpt lat="43.56036" lon="6.80992">
        <ele>157.5</ele>
        <time>2025-10-24T06:49:48.000Z</time>
      </trkpt>
      <trkpt lat="43.56035" lon="6.80992">
        <ele>157.3</ele>
        <time>2025-10-24T06:49:49.000Z</time>
      </trkpt>
      <trkpt lat="43.56034" lon="6.80992">
        <ele>157.3</ele>
        <time>2025-10-24T06:49:50.000Z</time>
      </trkpt>
      <trkpt lat="43.56033" lon="6.80991">
        <ele>157.2</ele>
        <time>2025-10-24T06:49:51.000Z</time>
      </trkpt>
      <trkpt lat="43.56032" lon="6.80991">
        <ele>157.1</ele>
        <time>2025-10-24T06:49:52.000Z</time>
      </trkpt>
      <trkpt lat="43.56032" lon="6.80991">
        <ele>157</ele>
        <time>2025-10-24T06:49:53.000Z</time>
      </trkpt>
      <trkpt lat="43.56032" lon="6.8099">
        <ele>157</ele>
        <time>2025-10-24T06:49:54.000Z</time>
      </trkpt>
      <trkpt lat="43.56031" lon="6.8099">
        <ele>156.9</ele>
        <time>2025-10-24T06:49:55.000Z</time>
      </trkpt>
      <trkpt lat="43.56031" lon="6.8099">
        <ele>156.9</ele>
        <time>2025-10-24T06:49:56.000Z</time>
      </trkpt>
      <trkpt lat="43.5603" lon="6.8099">
        <ele>156.8</ele>
        <time>2025-10-24T06:49:57.000Z</time>
      </trkpt>
      <trkpt lat="43.5603" lon="6.8099">
        <ele>156.8</ele>
        <time>2025-10-24T06:49:58.000Z</time>
      </trkpt>
      <trkpt lat="43.56029" lon="6.80991">
        <ele>156.8</ele>
        <time>2025-10-24T06:49:59.000Z</time>
      </trkpt>
      <trkpt lat="43.56029" lon="6.80991">
        <ele>156.7</ele>
        <time>2025-10-24T06:50:00.000Z</time>
      </trkpt>
      <trkpt lat="43.56029" lon="6.80991">
        <ele>156.7</ele>
        <time>2025-10-24T06:50:01.000Z</time>
      </trkpt>
      <trkpt lat="43.56029" lon="6.80991">
        <ele>156.7</ele>
        <time>2025-10-24T06:50:02.000Z</time>
      </trkpt>
      <trkpt lat="43.56029" lon="6.80991">
        <ele>156.7</ele>
        <time>2025-10-24T06:50:03.000Z</time>
      </trkpt>
      <trkpt lat="43.56029" lon="6.80991">
        <ele>156.7</ele>
        <time>2025-10-24T06:50:04.000Z</time>
      </trkpt>
      <trkpt lat="43.56029" lon="6.80992">
        <ele>156.6</ele>
        <time>2025-10-24T06:50:05.000Z</time>
      </trkpt>
      <trkpt lat="43.5603" lon="6.80992">
        <ele>156.6</ele>
        <time>2025-10-24T06:50:06.000Z</time>
      </trkpt>
      <trkpt lat="43.5603" lon="6.80992">
        <ele>156.6</ele>
        <time>2025-10-24T06:50:07.000Z</time>
      </trkpt>
      <trkpt lat="43.56031" lon="6.80993">
        <ele>156.5</ele>
        <time>2025-10-24T06:50:08.000Z</time>
      </trkpt>
      <trkpt lat="43.56031" lon="6.80993">
        <ele>156.5</ele>
        <time>2025-10-24T06:50:09.000Z</time>
      </trkpt>
      <trkpt lat="43.56032" lon="6.80992">
        <ele>156.5</ele>
        <time>2025-10-24T06:50:10.000Z</time>
      </trkpt>
      <trkpt lat="43.56032" lon="6.80992">
        <ele>156.5</ele>
        <time>2025-10-24T06:50:11.000Z</time>
      </trkpt>
      <trkpt lat="43.56032" lon="6.80992">
        <ele>156.5</ele>
        <time>2025-10-24T06:50:12.000Z</time>
      </trkpt>
      <trkpt lat="43.56032" lon="6.80992">
        <ele>156.5</ele>
        <time>2025-10-24T06:50:13.000Z</time>
      </trkpt>
      <trkpt lat="43.56032" lon="6.80992">
        <ele>156.5</ele>
        <time>2025-10-24T06:50:14.000Z</time>
      </trkpt>
      <trkpt lat="43.56032" lon="6.80992">
        <ele>156.5</ele>
        <time>2025-10-24T06:50:15.000Z</time>
      </trkpt>
      <trkpt lat="43.56032" lon="6.80992">
        <ele>156.5</ele>
        <time>2025-10-24T06:50:16.000Z</time>
      </trkpt>
      <trkpt lat="43.56032" lon="6.80992">
        <ele>156.5</ele>
        <time>2025-10-24T06:50:17.000Z</time>
      </trkpt>
      <trkpt lat="43.56032" lon="6.80992">
        <ele>156.5</ele>
        <time>2025-10-24T06:50:18.000Z</time>
      </trkpt>
      <trkpt lat="43.56032" lon="6.80992">
        <ele>156.5</ele>
        <time>2025-10-24T06:50:19.000Z</time>
      </trkpt>
      <trkpt lat="43.56032" lon="6.80992">
        <ele>156.5</ele>
        <time>2025-10-24T06:50:20.000Z</time>
      </trkpt>
      <trkpt lat="43.56032" lon="6.80992">
        <ele>156.5</ele>
        <time>2025-10-24T06:50:21.000Z</time>
      </trkpt>
      <trkpt lat="43.56032" lon="6.80992">
        <ele>156.5</ele>
        <time>2025-10-24T06:50:22.000Z</time>
      </trkpt>
      <trkpt lat="43.56032" lon="6.80992">
        <ele>156.5</ele>
        <time>2025-10-24T06:50:23.000Z</time>
      </trkpt>
      <trkpt lat="43.56032" lon="6.80992">
        <ele>156.5</ele>
        <time>2025-10-24T06:50:24.000Z</time>
      </trkpt>
      <trkpt lat="43.56031" lon="6.80992">
        <ele>156.4</ele>
        <time>2025-10-24T06:50:25.000Z</time>
      </trkpt>
      <trkpt lat="43.56031" lon="6.80992">
        <ele>156.4</ele>
        <time>2025-10-24T06:50:26.000Z</time>
      </trkpt>
      <trkpt lat="43.56031" lon="6.80992">
        <ele>156.4</ele>
        <time>2025-10-24T06:50:27.000Z</time>
      </trkpt>
      <trkpt lat="43.56031" lon="6.80992">
        <ele>156.4</ele>
        <time>2025-10-24T06:50:28.000Z</time>
      </trkpt>
      <trkpt lat="43.5603" lon="6.80992">
        <ele>156.4</ele>
        <time>2025-10-24T06:50:29.000Z</time>
      </trkpt>
      <trkpt lat="43.5603" lon="6.80992">
        <ele>156.4</ele>
        <time>2025-10-24T06:50:30.000Z</time>
      </trkpt>
      <trkpt lat="43.5603" lon="6.80992">
        <ele>156.4</ele>
        <time>2025-10-24T06:50:31.000Z</time>
      </trkpt>
      <trkpt lat="43.56029" lon="6.80992">
        <ele>156.4</ele>
        <time>2025-10-24T06:50:32.000Z</time>
      </trkpt>
      <trkpt lat="43.56029" lon="6.80992">
        <ele>156.4</ele>
        <time>2025-10-24T06:50:33.000Z</time>
      </trkpt>
      <trkpt lat="43.56029" lon="6.80992">
        <ele>156.4</ele>
        <time>2025-10-24T06:50:34.000Z</time>
      </trkpt>
      <trkpt lat="43.56029" lon="6.80992">
        <ele>156.4</ele>
        <time>2025-10-24T06:50:35.000Z</time>
      </trkpt>
      <trkpt lat="43.56029" lon="6.80992">
        <ele>156.4</ele>
        <time>2025-10-24T06:50:36.000Z</time>
      </trkpt>
      <trkpt lat="43.56028" lon="6.80992">
        <ele>156.4</ele>
        <time>2025-10-24T06:50:37.000Z</time>
      </trkpt>
      <trkpt lat="43.56028" lon="6.80992">
        <ele>156.4</ele>
        <time>2025-10-24T06:50:38.000Z</time>
      </trkpt>
      <trkpt lat="43.56028" lon="6.80992">
        <ele>156.4</ele>
        <time>2025-10-24T06:50:39.000Z</time>
      </trkpt>
      <trkpt lat="43.56028" lon="6.80992">
        <ele>156.4</ele>
        <time>2025-10-24T06:50:40.000Z</time>
      </trkpt>
      <trkpt lat="43.56027" lon="6.80992">
        <ele>156.3</ele>
        <time>2025-10-24T06:50:41.000Z</time>
      </trkpt>
      <trkpt lat="43.56027" lon="6.80992">
        <ele>156.3</ele>
        <time>2025-10-24T06:50:42.000Z</time>
      </trkpt>
      <trkpt lat="43.56027" lon="6.80992">
        <ele>156.3</ele>
        <time>2025-10-24T06:50:43.000Z</time>
      </trkpt>
      <trkpt lat="43.56026" lon="6.80992">
        <ele>156.3</ele>
        <time>2025-10-24T06:50:44.000Z</time>
      </trkpt>
      <trkpt lat="43.56026" lon="6.80992">
        <ele>156.3</ele>
        <time>2025-10-24T06:50:45.000Z</time>
      </trkpt>
      <trkpt lat="43.56026" lon="6.80992">
        <ele>156.3</ele>
        <time>2025-10-24T06:50:46.000Z</time>
      </trkpt>
      <trkpt lat="43.56026" lon="6.80992">
        <ele>156.3</ele>
        <time>2025-10-24T06:50:47.000Z</time>
      </trkpt>
      <trkpt lat="43.56026" lon="6.80992">
        <ele>156.3</ele>
        <time>2025-10-24T06:50:48.000Z</time>
      </trkpt>
      <trkpt lat="43.56026" lon="6.80992">
        <ele>156.3</ele>
        <time>2025-10-24T06:50:49.000Z</time>
      </trkpt>
      <trkpt lat="43.56026" lon="6.80992">
        <ele>156.3</ele>
        <time>2025-10-24T06:50:50.000Z</time>
      </trkpt>
      <trkpt lat="43.56025" lon="6.80992">
        <ele>156.4</ele>
        <time>2025-10-24T06:50:51.000Z</time>
      </trkpt>
      <trkpt lat="43.56024" lon="6.8099">
        <ele>156.4</ele>
        <time>2025-10-24T06:50:52.000Z</time>
      </trkpt>
      <trkpt lat="43.56022" lon="6.80988">
        <ele>156.4</ele>
        <time>2025-10-24T06:50:53.000Z</time>
      </trkpt>
      <trkpt lat="43.5602" lon="6.80987">
        <ele>156.5</ele>
        <time>2025-10-24T06:50:54.000Z</time>
      </trkpt>
      <trkpt lat="43.56018" lon="6.80985">
        <ele>156.6</ele>
        <time>2025-10-24T06:50:55.000Z</time>
      </trkpt>
      <trkpt lat="43.56017" lon="6.80983">
        <ele>156.7</ele>
        <time>2025-10-24T06:50:56.000Z</time>
      </trkpt>
      <trkpt lat="43.56015" lon="6.80981">
        <ele>156.8</ele>
        <time>2025-10-24T06:50:57.000Z</time>
      </trkpt>
      <trkpt lat="43.56013" lon="6.80979">
        <ele>157.1</ele>
        <time>2025-10-24T06:50:58.000Z</time>
      </trkpt>
      <trkpt lat="43.56011" lon="6.80976">
        <ele>157.3</ele>
        <time>2025-10-24T06:50:59.000Z</time>
      </trkpt>
      <trkpt lat="43.56008" lon="6.80974">
        <ele>157.5</ele>
        <time>2025-10-24T06:51:00.000Z</time>
      </trkpt>
      <trkpt lat="43.56006" lon="6.80972">
        <ele>157.7</ele>
        <time>2025-10-24T06:51:01.000Z</time>
      </trkpt>
      <trkpt lat="43.56004" lon="6.80971">
        <ele>157.9</ele>
        <time>2025-10-24T06:51:02.000Z</time>
      </trkpt>
      <trkpt lat="43.56002" lon="6.80969">
        <ele>158.1</ele>
        <time>2025-10-24T06:51:03.000Z</time>
      </trkpt>
      <trkpt lat="43.56001" lon="6.80966">
        <ele>158.3</ele>
        <time>2025-10-24T06:51:04.000Z</time>
      </trkpt>
      <trkpt lat="43.56" lon="6.80963">
        <ele>158.5</ele>
        <time>2025-10-24T06:51:05.000Z</time>
      </trkpt>
      <trkpt lat="43.55999" lon="6.80959">
        <ele>158.7</ele>
        <time>2025-10-24T06:51:06.000Z</time>
      </trkpt>
      <trkpt lat="43.55998" lon="6.80956">
        <ele>159</ele>
        <time>2025-10-24T06:51:07.000Z</time>
      </trkpt>
      <trkpt lat="43.55996" lon="6.80953">
        <ele>159.2</ele>
        <time>2025-10-24T06:51:08.000Z</time>
      </trkpt>
      <trkpt lat="43.55994" lon="6.8095">
        <ele>159.4</ele>
        <time>2025-10-24T06:51:09.000Z</time>
      </trkpt>
      <trkpt lat="43.55992" lon="6.80947">
        <ele>159.6</ele>
        <time>2025-10-24T06:51:10.000Z</time>
      </trkpt>
      <trkpt lat="43.5599" lon="6.80946">
        <ele>159.9</ele>
        <time>2025-10-24T06:51:11.000Z</time>
      </trkpt>
      <trkpt lat="43.55987" lon="6.80945">
        <ele>160.1</ele>
        <time>2025-10-24T06:51:12.000Z</time>
      </trkpt>
      <trkpt lat="43.55985" lon="6.80945">
        <ele>160.2</ele>
        <time>2025-10-24T06:51:13.000Z</time>
      </trkpt>
      <trkpt lat="43.55983" lon="6.80946">
        <ele>160.3</ele>
        <time>2025-10-24T06:51:14.000Z</time>
      </trkpt>
      <trkpt lat="43.55982" lon="6.80947">
        <ele>160.4</ele>
        <time>2025-10-24T06:51:15.000Z</time>
      </trkpt>
      <trkpt lat="43.5598" lon="6.8095">
        <ele>160.6</ele>
        <time>2025-10-24T06:51:16.000Z</time>
      </trkpt>
      <trkpt lat="43.55978" lon="6.80952">
        <ele>160.7</ele>
        <time>2025-10-24T06:51:17.000Z</time>
      </trkpt>
      <trkpt lat="43.55976" lon="6.80953">
        <ele>160.9</ele>
        <time>2025-10-24T06:51:18.000Z</time>
      </trkpt>
      <trkpt lat="43.55975" lon="6.80955">
        <ele>161</ele>
        <time>2025-10-24T06:51:19.000Z</time>
      </trkpt>
      <trkpt lat="43.55973" lon="6.80957">
        <ele>161.2</ele>
        <time>2025-10-24T06:51:20.000Z</time>
      </trkpt>
      <trkpt lat="43.55971" lon="6.80959">
        <ele>161.4</ele>
        <time>2025-10-24T06:51:21.000Z</time>
      </trkpt>
      <trkpt lat="43.55969" lon="6.80961">
        <ele>161.6</ele>
        <time>2025-10-24T06:51:22.000Z</time>
      </trkpt>
      <trkpt lat="43.55968" lon="6.80963">
        <ele>161.7</ele>
        <time>2025-10-24T06:51:23.000Z</time>
      </trkpt>
      <trkpt lat="43.55966" lon="6.80964">
        <ele>161.9</ele>
        <time>2025-10-24T06:51:24.000Z</time>
      </trkpt>
      <trkpt lat="43.55964" lon="6.80966">
        <ele>162.1</ele>
        <time>2025-10-24T06:51:25.000Z</time>
      </trkpt>
      <trkpt lat="43.55962" lon="6.80968">
        <ele>162.2</ele>
        <time>2025-10-24T06:51:26.000Z</time>
      </trkpt>
      <trkpt lat="43.5596" lon="6.80969">
        <ele>162.4</ele>
        <time>2025-10-24T06:51:27.000Z</time>
      </trkpt>
      <trkpt lat="43.55958" lon="6.8097">
        <ele>162.5</ele>
        <time>2025-10-24T06:51:28.000Z</time>
      </trkpt>
      <trkpt lat="43.55956" lon="6.80972">
        <ele>162.6</ele>
        <time>2025-10-24T06:51:29.000Z</time>
      </trkpt>
      <trkpt lat="43.55955" lon="6.80975">
        <ele>162.7</ele>
        <time>2025-10-24T06:51:30.000Z</time>
      </trkpt>
      <trkpt lat="43.55953" lon="6.80979">
        <ele>162.8</ele>
        <time>2025-10-24T06:51:31.000Z</time>
      </trkpt>
      <trkpt lat="43.55952" lon="6.80982">
        <ele>162.8</ele>
        <time>2025-10-24T06:51:32.000Z</time>
      </trkpt>
      <trkpt lat="43.55952" lon="6.80984">
        <ele>162.8</ele>
        <time>2025-10-24T06:51:33.000Z</time>
      </trkpt>
      <trkpt lat="43.55951" lon="6.80987">
        <ele>162.9</ele>
        <time>2025-10-24T06:51:34.000Z</time>
      </trkpt>
      <trkpt lat="43.55951" lon="6.8099">
        <ele>162.9</ele>
        <time>2025-10-24T06:51:35.000Z</time>
      </trkpt>
      <trkpt lat="43.5595" lon="6.80992">
        <ele>162.9</ele>
        <time>2025-10-24T06:51:36.000Z</time>
      </trkpt>
      <trkpt lat="43.55949" lon="6.80994">
        <ele>163</ele>
        <time>2025-10-24T06:51:37.000Z</time>
      </trkpt>
      <trkpt lat="43.55948" lon="6.80996">
        <ele>163</ele>
        <time>2025-10-24T06:51:38.000Z</time>
      </trkpt>
      <trkpt lat="43.55946" lon="6.80999">
        <ele>163</ele>
        <time>2025-10-24T06:51:39.000Z</time>
      </trkpt>
      <trkpt lat="43.55945" lon="6.81001">
        <ele>163.1</ele>
        <time>2025-10-24T06:51:40.000Z</time>
      </trkpt>
      <trkpt lat="43.55943" lon="6.81003">
        <ele>163.1</ele>
        <time>2025-10-24T06:51:41.000Z</time>
      </trkpt>
      <trkpt lat="43.55941" lon="6.81005">
        <ele>163.2</ele>
        <time>2025-10-24T06:51:42.000Z</time>
      </trkpt>
      <trkpt lat="43.5594" lon="6.81007">
        <ele>163.2</ele>
        <time>2025-10-24T06:51:43.000Z</time>
      </trkpt>
      <trkpt lat="43.55938" lon="6.8101">
        <ele>163.3</ele>
        <time>2025-10-24T06:51:44.000Z</time>
      </trkpt>
      <trkpt lat="43.55937" lon="6.81011">
        <ele>163.3</ele>
        <time>2025-10-24T06:51:45.000Z</time>
      </trkpt>
      <trkpt lat="43.55935" lon="6.81013">
        <ele>163.4</ele>
        <time>2025-10-24T06:51:46.000Z</time>
      </trkpt>
      <trkpt lat="43.55933" lon="6.81016">
        <ele>163.4</ele>
        <time>2025-10-24T06:51:47.000Z</time>
      </trkpt>
      <trkpt lat="43.55932" lon="6.81018">
        <ele>163.5</ele>
        <time>2025-10-24T06:51:48.000Z</time>
      </trkpt>
      <trkpt lat="43.5593" lon="6.8102">
        <ele>163.6</ele>
        <time>2025-10-24T06:51:49.000Z</time>
      </trkpt>
      <trkpt lat="43.55929" lon="6.81022">
        <ele>163.6</ele>
        <time>2025-10-24T06:51:50.000Z</time>
      </trkpt>
      <trkpt lat="43.55927" lon="6.81025">
        <ele>163.7</ele>
        <time>2025-10-24T06:51:51.000Z</time>
      </trkpt>
      <trkpt lat="43.55926" lon="6.81027">
        <ele>163.7</ele>
        <time>2025-10-24T06:51:52.000Z</time>
      </trkpt>
      <trkpt lat="43.55924" lon="6.8103">
        <ele>163.8</ele>
        <time>2025-10-24T06:51:53.000Z</time>
      </trkpt>
      <trkpt lat="43.55923" lon="6.81033">
        <ele>163.9</ele>
        <time>2025-10-24T06:51:54.000Z</time>
      </trkpt>
      <trkpt lat="43.55921" lon="6.81036">
        <ele>164</ele>
        <time>2025-10-24T06:51:55.000Z</time>
      </trkpt>
      <trkpt lat="43.55919" lon="6.81039">
        <ele>164.1</ele>
        <time>2025-10-24T06:51:56.000Z</time>
      </trkpt>
      <trkpt lat="43.55917" lon="6.81041">
        <ele>164.1</ele>
        <time>2025-10-24T06:51:57.000Z</time>
      </trkpt>
      <trkpt lat="43.55916" lon="6.81045">
        <ele>164.2</ele>
        <time>2025-10-24T06:51:58.000Z</time>
      </trkpt>
      <trkpt lat="43.55914" lon="6.81048">
        <ele>164.2</ele>
        <time>2025-10-24T06:51:59.000Z</time>
      </trkpt>
      <trkpt lat="43.55913" lon="6.81051">
        <ele>164.3</ele>
        <time>2025-10-24T06:52:00.000Z</time>
      </trkpt>
      <trkpt lat="43.55912" lon="6.81054">
        <ele>164.4</ele>
        <time>2025-10-24T06:52:01.000Z</time>
      </trkpt>
      <trkpt lat="43.5591" lon="6.81058">
        <ele>164.4</ele>
        <time>2025-10-24T06:52:02.000Z</time>
      </trkpt>
      <trkpt lat="43.55908" lon="6.81061">
        <ele>164.5</ele>
        <time>2025-10-24T06:52:03.000Z</time>
      </trkpt>
      <trkpt lat="43.55907" lon="6.81064">
        <ele>164.5</ele>
        <time>2025-10-24T06:52:04.000Z</time>
      </trkpt>
      <trkpt lat="43.55905" lon="6.81067">
        <ele>164.5</ele>
        <time>2025-10-24T06:52:05.000Z</time>
      </trkpt>
      <trkpt lat="43.55904" lon="6.81071">
        <ele>164.5</ele>
        <time>2025-10-24T06:52:06.000Z</time>
      </trkpt>
      <trkpt lat="43.55902" lon="6.81074">
        <ele>164.5</ele>
        <time>2025-10-24T06:52:07.000Z</time>
      </trkpt>
      <trkpt lat="43.55901" lon="6.81077">
        <ele>164.5</ele>
        <time>2025-10-24T06:52:08.000Z</time>
      </trkpt>
      <trkpt lat="43.55899" lon="6.8108">
        <ele>164.5</ele>
        <time>2025-10-24T06:52:09.000Z</time>
      </trkpt>
      <trkpt lat="43.55898" lon="6.81082">
        <ele>164.4</ele>
        <time>2025-10-24T06:52:10.000Z</time>
      </trkpt>
      <trkpt lat="43.55896" lon="6.81085">
        <ele>164.4</ele>
        <time>2025-10-24T06:52:11.000Z</time>
      </trkpt>
      <trkpt lat="43.55894" lon="6.81088">
        <ele>164.4</ele>
        <time>2025-10-24T06:52:12.000Z</time>
      </trkpt>
      <trkpt lat="43.55892" lon="6.81092">
        <ele>164.4</ele>
        <time>2025-10-24T06:52:13.000Z</time>
      </trkpt>
      <trkpt lat="43.55891" lon="6.81095">
        <ele>164.3</ele>
        <time>2025-10-24T06:52:14.000Z</time>
      </trkpt>
      <trkpt lat="43.55889" lon="6.81098">
        <ele>164.3</ele>
        <time>2025-10-24T06:52:15.000Z</time>
      </trkpt>
      <trkpt lat="43.55887" lon="6.81101">
        <ele>164.3</ele>
        <time>2025-10-24T06:52:16.000Z</time>
      </trkpt>
      <trkpt lat="43.55886" lon="6.81105">
        <ele>164.3</ele>
        <time>2025-10-24T06:52:17.000Z</time>
      </trkpt>
      <trkpt lat="43.55884" lon="6.81108">
        <ele>164.3</ele>
        <time>2025-10-24T06:52:18.000Z</time>
      </trkpt>
      <trkpt lat="43.55882" lon="6.81111">
        <ele>164.4</ele>
        <time>2025-10-24T06:52:19.000Z</time>
      </trkpt>
      <trkpt lat="43.5588" lon="6.81115">
        <ele>164.4</ele>
        <time>2025-10-24T06:52:20.000Z</time>
      </trkpt>
      <trkpt lat="43.55879" lon="6.81118">
        <ele>164.5</ele>
        <time>2025-10-24T06:52:21.000Z</time>
      </trkpt>
      <trkpt lat="43.55877" lon="6.81122">
        <ele>164.5</ele>
        <time>2025-10-24T06:52:22.000Z</time>
      </trkpt>
      <trkpt lat="43.55876" lon="6.81126">
        <ele>164.6</ele>
        <time>2025-10-24T06:52:23.000Z</time>
      </trkpt>
      <trkpt lat="43.55875" lon="6.8113">
        <ele>164.7</ele>
        <time>2025-10-24T06:52:24.000Z</time>
      </trkpt>
      <trkpt lat="43.55874" lon="6.81133">
        <ele>164.8</ele>
        <time>2025-10-24T06:52:25.000Z</time>
      </trkpt>
      <trkpt lat="43.55873" lon="6.81137">
        <ele>164.9</ele>
        <time>2025-10-24T06:52:26.000Z</time>
      </trkpt>
      <trkpt lat="43.55872" lon="6.8114">
        <ele>165</ele>
        <time>2025-10-24T06:52:27.000Z</time>
      </trkpt>
      <trkpt lat="43.5587" lon="6.81144">
        <ele>165</ele>
        <time>2025-10-24T06:52:28.000Z</time>
      </trkpt>
      <trkpt lat="43.55869" lon="6.81147">
        <ele>165.1</ele>
        <time>2025-10-24T06:52:29.000Z</time>
      </trkpt>
      <trkpt lat="43.55868" lon="6.81151">
        <ele>165.2</ele>
        <time>2025-10-24T06:52:30.000Z</time>
      </trkpt>
      <trkpt lat="43.55867" lon="6.81154">
        <ele>165.3</ele>
        <time>2025-10-24T06:52:31.000Z</time>
      </trkpt>
      <trkpt lat="43.55866" lon="6.81158">
        <ele>165.4</ele>
        <time>2025-10-24T06:52:32.000Z</time>
      </trkpt>
      <trkpt lat="43.55865" lon="6.81162">
        <ele>165.5</ele>
        <time>2025-10-24T06:52:33.000Z</time>
      </trkpt>
      <trkpt lat="43.55864" lon="6.81165">
        <ele>165.6</ele>
        <time>2025-10-24T06:52:34.000Z</time>
      </trkpt>
      <trkpt lat="43.55863" lon="6.81168">
        <ele>165.7</ele>
        <time>2025-10-24T06:52:35.000Z</time>
      </trkpt>
      <trkpt lat="43.55862" lon="6.81172">
        <ele>165.8</ele>
        <time>2025-10-24T06:52:36.000Z</time>
      </trkpt>
      <trkpt lat="43.55861" lon="6.81176">
        <ele>166</ele>
        <time>2025-10-24T06:52:37.000Z</time>
      </trkpt>
      <trkpt lat="43.5586" lon="6.81179">
        <ele>166.1</ele>
        <time>2025-10-24T06:52:38.000Z</time>
      </trkpt>
      <trkpt lat="43.55859" lon="6.81182">
        <ele>166.2</ele>
        <time>2025-10-24T06:52:39.000Z</time>
      </trkpt>
      <trkpt lat="43.55858" lon="6.81186">
        <ele>166.3</ele>
        <time>2025-10-24T06:52:40.000Z</time>
      </trkpt>
      <trkpt lat="43.55857" lon="6.8119">
        <ele>166.4</ele>
        <time>2025-10-24T06:52:41.000Z</time>
      </trkpt>
      <trkpt lat="43.55856" lon="6.81193">
        <ele>166.6</ele>
        <time>2025-10-24T06:52:42.000Z</time>
      </trkpt>
      <trkpt lat="43.55855" lon="6.81196">
        <ele>166.7</ele>
        <time>2025-10-24T06:52:43.000Z</time>
      </trkpt>
      <trkpt lat="43.55853" lon="6.81199">
        <ele>166.7</ele>
        <time>2025-10-24T06:52:44.000Z</time>
      </trkpt>
      <trkpt lat="43.55852" lon="6.81203">
        <ele>166.8</ele>
        <time>2025-10-24T06:52:45.000Z</time>
      </trkpt>
      <trkpt lat="43.55851" lon="6.81206">
        <ele>166.9</ele>
        <time>2025-10-24T06:52:46.000Z</time>
      </trkpt>
      <trkpt lat="43.55849" lon="6.81209">
        <ele>167</ele>
        <time>2025-10-24T06:52:47.000Z</time>
      </trkpt>
      <trkpt lat="43.55848" lon="6.81213">
        <ele>167</ele>
        <time>2025-10-24T06:52:48.000Z</time>
      </trkpt>
      <trkpt lat="43.55846" lon="6.81216">
        <ele>167</ele>
        <time>2025-10-24T06:52:49.000Z</time>
      </trkpt>
      <trkpt lat="43.55845" lon="6.81219">
        <ele>167</ele>
        <time>2025-10-24T06:52:50.000Z</time>
      </trkpt>
      <trkpt lat="43.55844" lon="6.81223">
        <ele>167</ele>
        <time>2025-10-24T06:52:51.000Z</time>
      </trkpt>
      <trkpt lat="43.55842" lon="6.81225">
        <ele>167</ele>
        <time>2025-10-24T06:52:52.000Z</time>
      </trkpt>
      <trkpt lat="43.55841" lon="6.81229">
        <ele>167</ele>
        <time>2025-10-24T06:52:53.000Z</time>
      </trkpt>
      <trkpt lat="43.5584" lon="6.81232">
        <ele>166.9</ele>
        <time>2025-10-24T06:52:54.000Z</time>
      </trkpt>
      <trkpt lat="43.55839" lon="6.81235">
        <ele>166.8</ele>
        <time>2025-10-24T06:52:55.000Z</time>
      </trkpt>
      <trkpt lat="43.55838" lon="6.81238">
        <ele>166.7</ele>
        <time>2025-10-24T06:52:56.000Z</time>
      </trkpt>
      <trkpt lat="43.55837" lon="6.81242">
        <ele>166.5</ele>
        <time>2025-10-24T06:52:57.000Z</time>
      </trkpt>
      <trkpt lat="43.55835" lon="6.81245">
        <ele>166.3</ele>
        <time>2025-10-24T06:52:58.000Z</time>
      </trkpt>
      <trkpt lat="43.55834" lon="6.81249">
        <ele>166.1</ele>
        <time>2025-10-24T06:52:59.000Z</time>
      </trkpt>
      <trkpt lat="43.55831" lon="6.81252">
        <ele>165.9</ele>
        <time>2025-10-24T06:53:00.000Z</time>
      </trkpt>
      <trkpt lat="43.55829" lon="6.81255">
        <ele>165.6</ele>
        <time>2025-10-24T06:53:01.000Z</time>
      </trkpt>
      <trkpt lat="43.55826" lon="6.81258">
        <ele>165.3</ele>
        <time>2025-10-24T06:53:02.000Z</time>
      </trkpt>
      <trkpt lat="43.55824" lon="6.81261">
        <ele>165.1</ele>
        <time>2025-10-24T06:53:03.000Z</time>
      </trkpt>
      <trkpt lat="43.55821" lon="6.81265">
        <ele>164.9</ele>
        <time>2025-10-24T06:53:04.000Z</time>
      </trkpt>
      <trkpt lat="43.55818" lon="6.81267">
        <ele>164.7</ele>
        <time>2025-10-24T06:53:05.000Z</time>
      </trkpt>
      <trkpt lat="43.55816" lon="6.8127">
        <ele>164.5</ele>
        <time>2025-10-24T06:53:06.000Z</time>
      </trkpt>
      <trkpt lat="43.55813" lon="6.81273">
        <ele>164.4</ele>
        <time>2025-10-24T06:53:07.000Z</time>
      </trkpt>
      <trkpt lat="43.55809" lon="6.81275">
        <ele>164.3</ele>
        <time>2025-10-24T06:53:08.000Z</time>
      </trkpt>
      <trkpt lat="43.55806" lon="6.81278">
        <ele>164.2</ele>
        <time>2025-10-24T06:53:09.000Z</time>
      </trkpt>
      <trkpt lat="43.55803" lon="6.81281">
        <ele>164.2</ele>
        <time>2025-10-24T06:53:10.000Z</time>
      </trkpt>
      <trkpt lat="43.558" lon="6.81285">
        <ele>164.2</ele>
        <time>2025-10-24T06:53:11.000Z</time>
      </trkpt>
      <trkpt lat="43.55797" lon="6.81288">
        <ele>164.2</ele>
        <time>2025-10-24T06:53:12.000Z</time>
      </trkpt>
      <trkpt lat="43.55795" lon="6.8129">
        <ele>164.2</ele>
        <time>2025-10-24T06:53:13.000Z</time>
      </trkpt>
      <trkpt lat="43.55794" lon="6.81293">
        <ele>164.3</ele>
        <time>2025-10-24T06:53:14.000Z</time>
      </trkpt>
      <trkpt lat="43.55792" lon="6.81296">
        <ele>164.3</ele>
        <time>2025-10-24T06:53:15.000Z</time>
      </trkpt>
      <trkpt lat="43.55791" lon="6.81298">
        <ele>164.4</ele>
        <time>2025-10-24T06:53:16.000Z</time>
      </trkpt>
      <trkpt lat="43.55791" lon="6.81299">
        <ele>164.3</ele>
        <time>2025-10-24T06:53:17.000Z</time>
      </trkpt>
      <trkpt lat="43.55791" lon="6.81301">
        <ele>164.2</ele>
        <time>2025-10-24T06:53:18.000Z</time>
      </trkpt>
      <trkpt lat="43.55791" lon="6.81303">
        <ele>164.1</ele>
        <time>2025-10-24T06:53:19.000Z</time>
      </trkpt>
      <trkpt lat="43.55791" lon="6.81306">
        <ele>163.9</ele>
        <time>2025-10-24T06:53:20.000Z</time>
      </trkpt>
      <trkpt lat="43.55792" lon="6.8131">
        <ele>163.8</ele>
        <time>2025-10-24T06:53:21.000Z</time>
      </trkpt>
      <trkpt lat="43.55792" lon="6.81313">
        <ele>163.6</ele>
        <time>2025-10-24T06:53:22.000Z</time>
      </trkpt>
      <trkpt lat="43.55793" lon="6.81316">
        <ele>163.4</ele>
        <time>2025-10-24T06:53:23.000Z</time>
      </trkpt>
      <trkpt lat="43.55794" lon="6.8132">
        <ele>163.2</ele>
        <time>2025-10-24T06:53:24.000Z</time>
      </trkpt>
      <trkpt lat="43.55795" lon="6.81323">
        <ele>163</ele>
        <time>2025-10-24T06:53:25.000Z</time>
      </trkpt>
      <trkpt lat="43.55795" lon="6.81327">
        <ele>162.9</ele>
        <time>2025-10-24T06:53:26.000Z</time>
      </trkpt>
      <trkpt lat="43.55796" lon="6.8133">
        <ele>162.7</ele>
        <time>2025-10-24T06:53:27.000Z</time>
      </trkpt>
      <trkpt lat="43.55796" lon="6.81334">
        <ele>162.5</ele>
        <time>2025-10-24T06:53:28.000Z</time>
      </trkpt>
      <trkpt lat="43.55796" lon="6.81337">
        <ele>162.4</ele>
        <time>2025-10-24T06:53:29.000Z</time>
      </trkpt>
      <trkpt lat="43.55796" lon="6.81341">
        <ele>162.2</ele>
        <time>2025-10-24T06:53:30.000Z</time>
      </trkpt>
      <trkpt lat="43.55796" lon="6.81344">
        <ele>162.1</ele>
        <time>2025-10-24T06:53:31.000Z</time>
      </trkpt>
      <trkpt lat="43.55796" lon="6.81346">
        <ele>162.1</ele>
        <time>2025-10-24T06:53:32.000Z</time>
      </trkpt>
      <trkpt lat="43.55796" lon="6.81348">
        <ele>162</ele>
        <time>2025-10-24T06:53:33.000Z</time>
      </trkpt>
      <trkpt lat="43.55795" lon="6.8135">
        <ele>162</ele>
        <time>2025-10-24T06:53:34.000Z</time>
      </trkpt>
      <trkpt lat="43.55794" lon="6.81353">
        <ele>161.9</ele>
        <time>2025-10-24T06:53:35.000Z</time>
      </trkpt>
      <trkpt lat="43.55793" lon="6.81356">
        <ele>161.9</ele>
        <time>2025-10-24T06:53:36.000Z</time>
      </trkpt>
      <trkpt lat="43.55793" lon="6.81359">
        <ele>161.8</ele>
        <time>2025-10-24T06:53:37.000Z</time>
      </trkpt>
      <trkpt lat="43.55793" lon="6.81362">
        <ele>161.8</ele>
        <time>2025-10-24T06:53:38.000Z</time>
      </trkpt>
      <trkpt lat="43.55792" lon="6.81364">
        <ele>161.8</ele>
        <time>2025-10-24T06:53:39.000Z</time>
      </trkpt>
      <trkpt lat="43.55792" lon="6.81365">
        <ele>161.8</ele>
        <time>2025-10-24T06:53:40.000Z</time>
      </trkpt>
      <trkpt lat="43.55791" lon="6.81367">
        <ele>161.8</ele>
        <time>2025-10-24T06:53:41.000Z</time>
      </trkpt>
      <trkpt lat="43.5579" lon="6.81368">
        <ele>161.8</ele>
        <time>2025-10-24T06:53:42.000Z</time>
      </trkpt>
      <trkpt lat="43.55789" lon="6.81369">
        <ele>161.7</ele>
        <time>2025-10-24T06:53:43.000Z</time>
      </trkpt>
      <trkpt lat="43.55789" lon="6.8137">
        <ele>161.7</ele>
        <time>2025-10-24T06:53:44.000Z</time>
      </trkpt>
      <trkpt lat="43.55788" lon="6.81371">
        <ele>161.7</ele>
        <time>2025-10-24T06:53:45.000Z</time>
      </trkpt>
      <trkpt lat="43.55788" lon="6.81372">
        <ele>161.7</ele>
        <time>2025-10-24T06:53:46.000Z</time>
      </trkpt>
      <trkpt lat="43.55788" lon="6.81372">
        <ele>161.7</ele>
        <time>2025-10-24T06:53:47.000Z</time>
      </trkpt>
      <trkpt lat="43.55788" lon="6.81371">
        <ele>161.7</ele>
        <time>2025-10-24T06:53:48.000Z</time>
      </trkpt>
      <trkpt lat="43.55788" lon="6.81371">
        <ele>161.7</ele>
        <time>2025-10-24T06:53:49.000Z</time>
      </trkpt>
      <trkpt lat="43.55789" lon="6.81371">
        <ele>161.7</ele>
        <time>2025-10-24T06:53:50.000Z</time>
      </trkpt>
      <trkpt lat="43.55789" lon="6.81372">
        <ele>161.7</ele>
        <time>2025-10-24T06:53:51.000Z</time>
      </trkpt>
      <trkpt lat="43.55789" lon="6.81372">
        <ele>161.7</ele>
        <time>2025-10-24T06:53:52.000Z</time>
      </trkpt>
      <trkpt lat="43.55789" lon="6.81372">
        <ele>161.7</ele>
        <time>2025-10-24T06:53:53.000Z</time>
      </trkpt>
      <trkpt lat="43.55789" lon="6.81373">
        <ele>161.7</ele>
        <time>2025-10-24T06:53:54.000Z</time>
      </trkpt>
      <trkpt lat="43.55789" lon="6.81374">
        <ele>161.7</ele>
        <time>2025-10-24T06:53:55.000Z</time>
      </trkpt>
      <trkpt lat="43.55789" lon="6.81375">
        <ele>161.7</ele>
        <time>2025-10-24T06:53:56.000Z</time>
      </trkpt>
      <trkpt lat="43.5579" lon="6.81376">
        <ele>161.7</ele>
        <time>2025-10-24T06:53:57.000Z</time>
      </trkpt>
      <trkpt lat="43.5579" lon="6.81377">
        <ele>161.7</ele>
        <time>2025-10-24T06:53:58.000Z</time>
      </trkpt>
      <trkpt lat="43.5579" lon="6.81377">
        <ele>161.7</ele>
        <time>2025-10-24T06:53:59.000Z</time>
      </trkpt>
      <trkpt lat="43.5579" lon="6.81378">
        <ele>161.7</ele>
        <time>2025-10-24T06:54:00.000Z</time>
      </trkpt>
      <trkpt lat="43.5579" lon="6.81378">
        <ele>161.7</ele>
        <time>2025-10-24T06:54:01.000Z</time>
      </trkpt>
      <trkpt lat="43.55791" lon="6.81378">
        <ele>161.7</ele>
        <time>2025-10-24T06:54:02.000Z</time>
      </trkpt>
      <trkpt lat="43.55791" lon="6.81378">
        <ele>161.7</ele>
        <time>2025-10-24T06:54:03.000Z</time>
      </trkpt>
      <trkpt lat="43.55791" lon="6.81379">
        <ele>161.7</ele>
        <time>2025-10-24T06:54:04.000Z</time>
      </trkpt>
      <trkpt lat="43.55791" lon="6.81379">
        <ele>161.7</ele>
        <time>2025-10-24T06:54:05.000Z</time>
      </trkpt>
      <trkpt lat="43.55791" lon="6.81379">
        <ele>161.7</ele>
        <time>2025-10-24T06:54:06.000Z</time>
      </trkpt>
      <trkpt lat="43.55791" lon="6.8138">
        <ele>161.7</ele>
        <time>2025-10-24T06:54:07.000Z</time>
      </trkpt>
      <trkpt lat="43.55791" lon="6.81381">
        <ele>161.7</ele>
        <time>2025-10-24T06:54:08.000Z</time>
      </trkpt>
      <trkpt lat="43.5579" lon="6.81382">
        <ele>161.7</ele>
        <time>2025-10-24T06:54:09.000Z</time>
      </trkpt>
      <trkpt lat="43.5579" lon="6.81382">
        <ele>161.7</ele>
        <time>2025-10-24T06:54:10.000Z</time>
      </trkpt>
      <trkpt lat="43.5579" lon="6.81383">
        <ele>161.7</ele>
        <time>2025-10-24T06:54:11.000Z</time>
      </trkpt>
      <trkpt lat="43.5579" lon="6.81383">
        <ele>161.7</ele>
        <time>2025-10-24T06:54:12.000Z</time>
      </trkpt>
      <trkpt lat="43.5579" lon="6.81384">
        <ele>161.7</ele>
        <time>2025-10-24T06:54:13.000Z</time>
      </trkpt>
      <trkpt lat="43.55789" lon="6.81385">
        <ele>161.7</ele>
        <time>2025-10-24T06:54:14.000Z</time>
      </trkpt>
      <trkpt lat="43.55788" lon="6.81387">
        <ele>161.7</ele>
        <time>2025-10-24T06:54:15.000Z</time>
      </trkpt>
      <trkpt lat="43.55788" lon="6.81388">
        <ele>161.7</ele>
        <time>2025-10-24T06:54:16.000Z</time>
      </trkpt>
      <trkpt lat="43.55787" lon="6.81389">
        <ele>161.7</ele>
        <time>2025-10-24T06:54:17.000Z</time>
      </trkpt>
      <trkpt lat="43.55787" lon="6.81391">
        <ele>161.7</ele>
        <time>2025-10-24T06:54:18.000Z</time>
      </trkpt>
      <trkpt lat="43.55787" lon="6.81394">
        <ele>161.7</ele>
        <time>2025-10-24T06:54:19.000Z</time>
      </trkpt>
      <trkpt lat="43.55788" lon="6.81396">
        <ele>161.6</ele>
        <time>2025-10-24T06:54:20.000Z</time>
      </trkpt>
      <trkpt lat="43.55788" lon="6.81398">
        <ele>161.6</ele>
        <time>2025-10-24T06:54:21.000Z</time>
      </trkpt>
      <trkpt lat="43.55788" lon="6.814">
        <ele>161.6</ele>
        <time>2025-10-24T06:54:22.000Z</time>
      </trkpt>
      <trkpt lat="43.55787" lon="6.81401">
        <ele>161.6</ele>
        <time>2025-10-24T06:54:23.000Z</time>
      </trkpt>
      <trkpt lat="43.55785" lon="6.81402">
        <ele>161.6</ele>
        <time>2025-10-24T06:54:24.000Z</time>
      </trkpt>
      <trkpt lat="43.55783" lon="6.81403">
        <ele>161.6</ele>
        <time>2025-10-24T06:54:25.000Z</time>
      </trkpt>
      <trkpt lat="43.5578" lon="6.81404">
        <ele>161.6</ele>
        <time>2025-10-24T06:54:26.000Z</time>
      </trkpt>
      <trkpt lat="43.55777" lon="6.81406">
        <ele>161.6</ele>
        <time>2025-10-24T06:54:27.000Z</time>
      </trkpt>
      <trkpt lat="43.55774" lon="6.81407">
        <ele>161.6</ele>
        <time>2025-10-24T06:54:28.000Z</time>
      </trkpt>
      <trkpt lat="43.5577" lon="6.81409">
        <ele>161.6</ele>
        <time>2025-10-24T06:54:29.000Z</time>
      </trkpt>
      <trkpt lat="43.55767" lon="6.8141">
        <ele>161.6</ele>
        <time>2025-10-24T06:54:30.000Z</time>
      </trkpt>
      <trkpt lat="43.55764" lon="6.81411">
        <ele>161.6</ele>
        <time>2025-10-24T06:54:31.000Z</time>
      </trkpt>
      <trkpt lat="43.5576" lon="6.81412">
        <ele>161.6</ele>
        <time>2025-10-24T06:54:32.000Z</time>
      </trkpt>
      <trkpt lat="43.55757" lon="6.81413">
        <ele>161.6</ele>
        <time>2025-10-24T06:54:33.000Z</time>
      </trkpt>
      <trkpt lat="43.55754" lon="6.81415">
        <ele>161.6</ele>
        <time>2025-10-24T06:54:34.000Z</time>
      </trkpt>
      <trkpt lat="43.55751" lon="6.81417">
        <ele>161.7</ele>
        <time>2025-10-24T06:54:35.000Z</time>
      </trkpt>
      <trkpt lat="43.55748" lon="6.81419">
        <ele>161.7</ele>
        <time>2025-10-24T06:54:36.000Z</time>
      </trkpt>
      <trkpt lat="43.55744" lon="6.81421">
        <ele>161.7</ele>
        <time>2025-10-24T06:54:37.000Z</time>
      </trkpt>
      <trkpt lat="43.55741" lon="6.81421">
        <ele>161.7</ele>
        <time>2025-10-24T06:54:38.000Z</time>
      </trkpt>
      <trkpt lat="43.55738" lon="6.81422">
        <ele>161.7</ele>
        <time>2025-10-24T06:54:39.000Z</time>
      </trkpt>
      <trkpt lat="43.55734" lon="6.81421">
        <ele>161.7</ele>
        <time>2025-10-24T06:54:40.000Z</time>
      </trkpt>
      <trkpt lat="43.55731" lon="6.8142">
        <ele>161.8</ele>
        <time>2025-10-24T06:54:41.000Z</time>
      </trkpt>
      <trkpt lat="43.55727" lon="6.81419">
        <ele>161.8</ele>
        <time>2025-10-24T06:54:42.000Z</time>
      </trkpt>
      <trkpt lat="43.55724" lon="6.81419">
        <ele>161.8</ele>
        <time>2025-10-24T06:54:43.000Z</time>
      </trkpt>
      <trkpt lat="43.55721" lon="6.81418">
        <ele>161.9</ele>
        <time>2025-10-24T06:54:44.000Z</time>
      </trkpt>
      <trkpt lat="43.55718" lon="6.81418">
        <ele>161.9</ele>
        <time>2025-10-24T06:54:45.000Z</time>
      </trkpt>
      <trkpt lat="43.55715" lon="6.81418">
        <ele>162</ele>
        <time>2025-10-24T06:54:46.000Z</time>
      </trkpt>
      <trkpt lat="43.55712" lon="6.81419">
        <ele>162</ele>
        <time>2025-10-24T06:54:47.000Z</time>
      </trkpt>
      <trkpt lat="43.55709" lon="6.8142">
        <ele>162.1</ele>
        <time>2025-10-24T06:54:48.000Z</time>
      </trkpt>
      <trkpt lat="43.55705" lon="6.8142">
        <ele>162.1</ele>
        <time>2025-10-24T06:54:49.000Z</time>
      </trkpt>
      <trkpt lat="43.55701" lon="6.81421">
        <ele>162.2</ele>
        <time>2025-10-24T06:54:50.000Z</time>
      </trkpt>
      <trkpt lat="43.55697" lon="6.81422">
        <ele>162.3</ele>
        <time>2025-10-24T06:54:51.000Z</time>
      </trkpt>
      <trkpt lat="43.55693" lon="6.81423">
        <ele>162.3</ele>
        <time>2025-10-24T06:54:52.000Z</time>
      </trkpt>
      <trkpt lat="43.5569" lon="6.81424">
        <ele>162.4</ele>
        <time>2025-10-24T06:54:53.000Z</time>
      </trkpt>
      <trkpt lat="43.55686" lon="6.81426">
        <ele>162.4</ele>
        <time>2025-10-24T06:54:54.000Z</time>
      </trkpt>
      <trkpt lat="43.55681" lon="6.81428">
        <ele>162.5</ele>
        <time>2025-10-24T06:54:55.000Z</time>
      </trkpt>
      <trkpt lat="43.55677" lon="6.8143">
        <ele>162.5</ele>
        <time>2025-10-24T06:54:56.000Z</time>
      </trkpt>
      <trkpt lat="43.55673" lon="6.81432">
        <ele>162.5</ele>
        <time>2025-10-24T06:54:57.000Z</time>
      </trkpt>
      <trkpt lat="43.55669" lon="6.81435">
        <ele>162.5</ele>
        <time>2025-10-24T06:54:58.000Z</time>
      </trkpt>
      <trkpt lat="43.55666" lon="6.81438">
        <ele>162.5</ele>
        <time>2025-10-24T06:54:59.000Z</time>
      </trkpt>
      <trkpt lat="43.55662" lon="6.81441">
        <ele>162.5</ele>
        <time>2025-10-24T06:55:00.000Z</time>
      </trkpt>
      <trkpt lat="43.55658" lon="6.81442">
        <ele>162.5</ele>
        <time>2025-10-24T06:55:01.000Z</time>
      </trkpt>
      <trkpt lat="43.55655" lon="6.81443">
        <ele>162.5</ele>
        <time>2025-10-24T06:55:02.000Z</time>
      </trkpt>
      <trkpt lat="43.55652" lon="6.81444">
        <ele>162.5</ele>
        <time>2025-10-24T06:55:03.000Z</time>
      </trkpt>
      <trkpt lat="43.55649" lon="6.81445">
        <ele>162.5</ele>
        <time>2025-10-24T06:55:04.000Z</time>
      </trkpt>
      <trkpt lat="43.55646" lon="6.81447">
        <ele>162.6</ele>
        <time>2025-10-24T06:55:05.000Z</time>
      </trkpt>
      <trkpt lat="43.55643" lon="6.81448">
        <ele>162.6</ele>
        <time>2025-10-24T06:55:06.000Z</time>
      </trkpt>
      <trkpt lat="43.5564" lon="6.8145">
        <ele>162.6</ele>
        <time>2025-10-24T06:55:07.000Z</time>
      </trkpt>
      <trkpt lat="43.55637" lon="6.81452">
        <ele>162.6</ele>
        <time>2025-10-24T06:55:08.000Z</time>
      </trkpt>
      <trkpt lat="43.55634" lon="6.81454">
        <ele>162.7</ele>
        <time>2025-10-24T06:55:09.000Z</time>
      </trkpt>
      <trkpt lat="43.55632" lon="6.81457">
        <ele>162.7</ele>
        <time>2025-10-24T06:55:10.000Z</time>
      </trkpt>
      <trkpt lat="43.5563" lon="6.8146">
        <ele>162.7</ele>
        <time>2025-10-24T06:55:11.000Z</time>
      </trkpt>
      <trkpt lat="43.55627" lon="6.81462">
        <ele>162.7</ele>
        <time>2025-10-24T06:55:12.000Z</time>
      </trkpt>
      <trkpt lat="43.55625" lon="6.81465">
        <ele>162.8</ele>
        <time>2025-10-24T06:55:13.000Z</time>
      </trkpt>
      <trkpt lat="43.55622" lon="6.81467">
        <ele>162.8</ele>
        <time>2025-10-24T06:55:14.000Z</time>
      </trkpt>
      <trkpt lat="43.55619" lon="6.8147">
        <ele>162.8</ele>
        <time>2025-10-24T06:55:15.000Z</time>
      </trkpt>
      <trkpt lat="43.55616" lon="6.81473">
        <ele>162.9</ele>
        <time>2025-10-24T06:55:16.000Z</time>
      </trkpt>
      <trkpt lat="43.55613" lon="6.81475">
        <ele>162.9</ele>
        <time>2025-10-24T06:55:17.000Z</time>
      </trkpt>
      <trkpt lat="43.5561" lon="6.81477">
        <ele>163</ele>
        <time>2025-10-24T06:55:18.000Z</time>
      </trkpt>
      <trkpt lat="43.55607" lon="6.81481">
        <ele>163</ele>
        <time>2025-10-24T06:55:19.000Z</time>
      </trkpt>
      <trkpt lat="43.55606" lon="6.81483">
        <ele>163.1</ele>
        <time>2025-10-24T06:55:20.000Z</time>
      </trkpt>
      <trkpt lat="43.55603" lon="6.81488">
        <ele>163.1</ele>
        <time>2025-10-24T06:55:21.000Z</time>
      </trkpt>
      <trkpt lat="43.556" lon="6.81492">
        <ele>163.2</ele>
        <time>2025-10-24T06:55:22.000Z</time>
      </trkpt>
      <trkpt lat="43.55598" lon="6.81496">
        <ele>163.3</ele>
        <time>2025-10-24T06:55:23.000Z</time>
      </trkpt>
      <trkpt lat="43.55596" lon="6.81499">
        <ele>163.4</ele>
        <time>2025-10-24T06:55:24.000Z</time>
      </trkpt>
      <trkpt lat="43.55594" lon="6.81505">
        <ele>163.5</ele>
        <time>2025-10-24T06:55:25.000Z</time>
      </trkpt>
      <trkpt lat="43.55592" lon="6.8151">
        <ele>163.6</ele>
        <time>2025-10-24T06:55:26.000Z</time>
      </trkpt>
      <trkpt lat="43.55591" lon="6.81516">
        <ele>163.7</ele>
        <time>2025-10-24T06:55:27.000Z</time>
      </trkpt>
      <trkpt lat="43.5559" lon="6.81521">
        <ele>163.8</ele>
        <time>2025-10-24T06:55:28.000Z</time>
      </trkpt>
      <trkpt lat="43.55589" lon="6.81527">
        <ele>164</ele>
        <time>2025-10-24T06:55:29.000Z</time>
      </trkpt>
      <trkpt lat="43.55588" lon="6.81532">
        <ele>164.2</ele>
        <time>2025-10-24T06:55:30.000Z</time>
      </trkpt>
      <trkpt lat="43.55588" lon="6.81538">
        <ele>164.3</ele>
        <time>2025-10-24T06:55:31.000Z</time>
      </trkpt>
      <trkpt lat="43.55587" lon="6.81544">
        <ele>164.5</ele>
        <time>2025-10-24T06:55:32.000Z</time>
      </trkpt>
      <trkpt lat="43.55586" lon="6.81549">
        <ele>164.7</ele>
        <time>2025-10-24T06:55:33.000Z</time>
      </trkpt>
      <trkpt lat="43.55585" lon="6.81554">
        <ele>164.8</ele>
        <time>2025-10-24T06:55:34.000Z</time>
      </trkpt>
      <trkpt lat="43.55584" lon="6.81559">
        <ele>165</ele>
        <time>2025-10-24T06:55:35.000Z</time>
      </trkpt>
      <trkpt lat="43.55583" lon="6.81565">
        <ele>165.1</ele>
        <time>2025-10-24T06:55:36.000Z</time>
      </trkpt>
      <trkpt lat="43.55581" lon="6.81571">
        <ele>165.3</ele>
        <time>2025-10-24T06:55:37.000Z</time>
      </trkpt>
      <trkpt lat="43.55581" lon="6.81577">
        <ele>165.4</ele>
        <time>2025-10-24T06:55:38.000Z</time>
      </trkpt>
      <trkpt lat="43.5558" lon="6.81581">
        <ele>165.5</ele>
        <time>2025-10-24T06:55:39.000Z</time>
      </trkpt>
      <trkpt lat="43.5558" lon="6.81587">
        <ele>165.7</ele>
        <time>2025-10-24T06:55:40.000Z</time>
      </trkpt>
      <trkpt lat="43.55579" lon="6.81593">
        <ele>165.8</ele>
        <time>2025-10-24T06:55:41.000Z</time>
      </trkpt>
      <trkpt lat="43.55578" lon="6.81598">
        <ele>165.9</ele>
        <time>2025-10-24T06:55:42.000Z</time>
      </trkpt>
      <trkpt lat="43.55577" lon="6.81604">
        <ele>166.1</ele>
        <time>2025-10-24T06:55:43.000Z</time>
      </trkpt>
      <trkpt lat="43.55576" lon="6.81609">
        <ele>166.2</ele>
        <time>2025-10-24T06:55:44.000Z</time>
      </trkpt>
      <trkpt lat="43.55575" lon="6.81614">
        <ele>166.4</ele>
        <time>2025-10-24T06:55:45.000Z</time>
      </trkpt>
      <trkpt lat="43.55575" lon="6.8162">
        <ele>166.5</ele>
        <time>2025-10-24T06:55:46.000Z</time>
      </trkpt>
      <trkpt lat="43.55574" lon="6.81625">
        <ele>166.7</ele>
        <time>2025-10-24T06:55:47.000Z</time>
      </trkpt>
      <trkpt lat="43.55574" lon="6.81631">
        <ele>166.8</ele>
        <time>2025-10-24T06:55:48.000Z</time>
      </trkpt>
      <trkpt lat="43.55574" lon="6.81636">
        <ele>167</ele>
        <time>2025-10-24T06:55:49.000Z</time>
      </trkpt>
      <trkpt lat="43.55574" lon="6.81641">
        <ele>167.1</ele>
        <time>2025-10-24T06:55:50.000Z</time>
      </trkpt>
      <trkpt lat="43.55575" lon="6.81647">
        <ele>167.3</ele>
        <time>2025-10-24T06:55:51.000Z</time>
      </trkpt>
      <trkpt lat="43.55575" lon="6.81653">
        <ele>167.4</ele>
        <time>2025-10-24T06:55:52.000Z</time>
      </trkpt>
      <trkpt lat="43.55576" lon="6.81658">
        <ele>167.5</ele>
        <time>2025-10-24T06:55:53.000Z</time>
      </trkpt>
      <trkpt lat="43.55576" lon="6.81663">
        <ele>167.6</ele>
        <time>2025-10-24T06:55:54.000Z</time>
      </trkpt>
      <trkpt lat="43.55577" lon="6.81667">
        <ele>167.6</ele>
        <time>2025-10-24T06:55:55.000Z</time>
      </trkpt>
      <trkpt lat="43.55577" lon="6.81674">
        <ele>167.7</ele>
        <time>2025-10-24T06:55:56.000Z</time>
      </trkpt>
      <trkpt lat="43.55577" lon="6.81679">
        <ele>167.8</ele>
        <time>2025-10-24T06:55:57.000Z</time>
      </trkpt>
      <trkpt lat="43.55577" lon="6.81685">
        <ele>167.9</ele>
        <time>2025-10-24T06:55:58.000Z</time>
      </trkpt>
      <trkpt lat="43.55577" lon="6.8169">
        <ele>167.9</ele>
        <time>2025-10-24T06:55:59.000Z</time>
      </trkpt>
      <trkpt lat="43.55577" lon="6.81695">
        <ele>168</ele>
        <time>2025-10-24T06:56:00.000Z</time>
      </trkpt>
      <trkpt lat="43.55577" lon="6.81702">
        <ele>168.1</ele>
        <time>2025-10-24T06:56:01.000Z</time>
      </trkpt>
      <trkpt lat="43.55578" lon="6.81707">
        <ele>168.2</ele>
        <time>2025-10-24T06:56:02.000Z</time>
      </trkpt>
      <trkpt lat="43.55578" lon="6.81713">
        <ele>168.3</ele>
        <time>2025-10-24T06:56:03.000Z</time>
      </trkpt>
      <trkpt lat="43.55579" lon="6.81719">
        <ele>168.5</ele>
        <time>2025-10-24T06:56:04.000Z</time>
      </trkpt>
      <trkpt lat="43.55579" lon="6.81723">
        <ele>168.6</ele>
        <time>2025-10-24T06:56:05.000Z</time>
      </trkpt>
      <trkpt lat="43.5558" lon="6.8173">
        <ele>168.8</ele>
        <time>2025-10-24T06:56:06.000Z</time>
      </trkpt>
      <trkpt lat="43.5558" lon="6.81735">
        <ele>168.9</ele>
        <time>2025-10-24T06:56:07.000Z</time>
      </trkpt>
      <trkpt lat="43.55581" lon="6.8174">
        <ele>169.1</ele>
        <time>2025-10-24T06:56:08.000Z</time>
      </trkpt>
      <trkpt lat="43.55582" lon="6.81746">
        <ele>169.2</ele>
        <time>2025-10-24T06:56:09.000Z</time>
      </trkpt>
      <trkpt lat="43.55582" lon="6.8175">
        <ele>169.4</ele>
        <time>2025-10-24T06:56:10.000Z</time>
      </trkpt>
      <trkpt lat="43.55582" lon="6.81756">
        <ele>169.5</ele>
        <time>2025-10-24T06:56:11.000Z</time>
      </trkpt>
      <trkpt lat="43.55583" lon="6.81761">
        <ele>169.6</ele>
        <time>2025-10-24T06:56:12.000Z</time>
      </trkpt>
      <trkpt lat="43.55583" lon="6.81766">
        <ele>169.8</ele>
        <time>2025-10-24T06:56:13.000Z</time>
      </trkpt>
      <trkpt lat="43.55583" lon="6.8177">
        <ele>169.9</ele>
        <time>2025-10-24T06:56:14.000Z</time>
      </trkpt>
      <trkpt lat="43.55583" lon="6.81776">
        <ele>170</ele>
        <time>2025-10-24T06:56:15.000Z</time>
      </trkpt>
      <trkpt lat="43.55583" lon="6.81782">
        <ele>170.1</ele>
        <time>2025-10-24T06:56:16.000Z</time>
      </trkpt>
      <trkpt lat="43.55583" lon="6.81787">
        <ele>170.2</ele>
        <time>2025-10-24T06:56:17.000Z</time>
      </trkpt>
      <trkpt lat="43.55584" lon="6.81792">
        <ele>170.3</ele>
        <time>2025-10-24T06:56:18.000Z</time>
      </trkpt>
      <trkpt lat="43.55584" lon="6.81797">
        <ele>170.4</ele>
        <time>2025-10-24T06:56:19.000Z</time>
      </trkpt>
      <trkpt lat="43.55584" lon="6.81802">
        <ele>170.5</ele>
        <time>2025-10-24T06:56:20.000Z</time>
      </trkpt>
      <trkpt lat="43.55584" lon="6.81809">
        <ele>170.7</ele>
        <time>2025-10-24T06:56:21.000Z</time>
      </trkpt>
      <trkpt lat="43.55584" lon="6.81814">
        <ele>170.8</ele>
        <time>2025-10-24T06:56:22.000Z</time>
      </trkpt>
      <trkpt lat="43.55585" lon="6.8182">
        <ele>170.9</ele>
        <time>2025-10-24T06:56:23.000Z</time>
      </trkpt>
      <trkpt lat="43.55585" lon="6.81825">
        <ele>171</ele>
        <time>2025-10-24T06:56:24.000Z</time>
      </trkpt>
      <trkpt lat="43.55585" lon="6.81831">
        <ele>171.2</ele>
        <time>2025-10-24T06:56:25.000Z</time>
      </trkpt>
      <trkpt lat="43.55586" lon="6.81836">
        <ele>171.4</ele>
        <time>2025-10-24T06:56:26.000Z</time>
      </trkpt>
      <trkpt lat="43.55586" lon="6.81842">
        <ele>171.5</ele>
        <time>2025-10-24T06:56:27.000Z</time>
      </trkpt>
      <trkpt lat="43.55587" lon="6.81848">
        <ele>171.7</ele>
        <time>2025-10-24T06:56:28.000Z</time>
      </trkpt>
      <trkpt lat="43.55588" lon="6.81853">
        <ele>172</ele>
        <time>2025-10-24T06:56:29.000Z</time>
      </trkpt>
      <trkpt lat="43.55588" lon="6.8186">
        <ele>172.2</ele>
        <time>2025-10-24T06:56:30.000Z</time>
      </trkpt>
      <trkpt lat="43.55588" lon="6.81865">
        <ele>172.4</ele>
        <time>2025-10-24T06:56:31.000Z</time>
      </trkpt>
      <trkpt lat="43.55588" lon="6.8187">
        <ele>172.7</ele>
        <time>2025-10-24T06:56:32.000Z</time>
      </trkpt>
      <trkpt lat="43.55587" lon="6.81876">
        <ele>172.9</ele>
        <time>2025-10-24T06:56:33.000Z</time>
      </trkpt>
      <trkpt lat="43.55587" lon="6.81881">
        <ele>173.1</ele>
        <time>2025-10-24T06:56:34.000Z</time>
      </trkpt>
      <trkpt lat="43.55587" lon="6.81887">
        <ele>173.4</ele>
        <time>2025-10-24T06:56:35.000Z</time>
      </trkpt>
      <trkpt lat="43.55588" lon="6.81892">
        <ele>173.6</ele>
        <time>2025-10-24T06:56:36.000Z</time>
      </trkpt>
      <trkpt lat="43.55589" lon="6.81897">
        <ele>173.9</ele>
        <time>2025-10-24T06:56:37.000Z</time>
      </trkpt>
      <trkpt lat="43.5559" lon="6.81902">
        <ele>174.1</ele>
        <time>2025-10-24T06:56:38.000Z</time>
      </trkpt>
      <trkpt lat="43.5559" lon="6.81907">
        <ele>174.3</ele>
        <time>2025-10-24T06:56:39.000Z</time>
      </trkpt>
      <trkpt lat="43.5559" lon="6.81912">
        <ele>174.5</ele>
        <time>2025-10-24T06:56:40.000Z</time>
      </trkpt>
      <trkpt lat="43.55589" lon="6.81917">
        <ele>174.7</ele>
        <time>2025-10-24T06:56:41.000Z</time>
      </trkpt>
      <trkpt lat="43.55588" lon="6.81921">
        <ele>174.9</ele>
        <time>2025-10-24T06:56:42.000Z</time>
      </trkpt>
      <trkpt lat="43.55587" lon="6.81926">
        <ele>175</ele>
        <time>2025-10-24T06:56:43.000Z</time>
      </trkpt>
      <trkpt lat="43.55585" lon="6.81931">
        <ele>175.2</ele>
        <time>2025-10-24T06:56:44.000Z</time>
      </trkpt>
      <trkpt lat="43.55584" lon="6.81934">
        <ele>175.3</ele>
        <time>2025-10-24T06:56:45.000Z</time>
      </trkpt>
      <trkpt lat="43.55581" lon="6.8194">
        <ele>175.5</ele>
        <time>2025-10-24T06:56:46.000Z</time>
      </trkpt>
      <trkpt lat="43.55579" lon="6.81944">
        <ele>175.7</ele>
        <time>2025-10-24T06:56:47.000Z</time>
      </trkpt>
      <trkpt lat="43.55577" lon="6.81949">
        <ele>175.9</ele>
        <time>2025-10-24T06:56:48.000Z</time>
      </trkpt>
      <trkpt lat="43.55575" lon="6.81952">
        <ele>176</ele>
        <time>2025-10-24T06:56:49.000Z</time>
      </trkpt>
      <trkpt lat="43.55572" lon="6.81957">
        <ele>176.2</ele>
        <time>2025-10-24T06:56:50.000Z</time>
      </trkpt>
      <trkpt lat="43.5557" lon="6.81961">
        <ele>176.4</ele>
        <time>2025-10-24T06:56:51.000Z</time>
      </trkpt>
      <trkpt lat="43.55567" lon="6.81965">
        <ele>176.6</ele>
        <time>2025-10-24T06:56:52.000Z</time>
      </trkpt>
      <trkpt lat="43.55565" lon="6.8197">
        <ele>176.7</ele>
        <time>2025-10-24T06:56:53.000Z</time>
      </trkpt>
      <trkpt lat="43.55563" lon="6.81974">
        <ele>176.9</ele>
        <time>2025-10-24T06:56:54.000Z</time>
      </trkpt>
      <trkpt lat="43.55562" lon="6.81979">
        <ele>177.1</ele>
        <time>2025-10-24T06:56:55.000Z</time>
      </trkpt>
      <trkpt lat="43.55561" lon="6.81985">
        <ele>177.2</ele>
        <time>2025-10-24T06:56:56.000Z</time>
      </trkpt>
      <trkpt lat="43.55561" lon="6.8199">
        <ele>177.4</ele>
        <time>2025-10-24T06:56:57.000Z</time>
      </trkpt>
      <trkpt lat="43.5556" lon="6.81996">
        <ele>177.6</ele>
        <time>2025-10-24T06:56:58.000Z</time>
      </trkpt>
      <trkpt lat="43.5556" lon="6.82001">
        <ele>177.8</ele>
        <time>2025-10-24T06:56:59.000Z</time>
      </trkpt>
      <trkpt lat="43.55558" lon="6.82007">
        <ele>178</ele>
        <time>2025-10-24T06:57:00.000Z</time>
      </trkpt>
      <trkpt lat="43.55556" lon="6.82011">
        <ele>178.2</ele>
        <time>2025-10-24T06:57:01.000Z</time>
      </trkpt>
      <trkpt lat="43.55554" lon="6.82016">
        <ele>178.4</ele>
        <time>2025-10-24T06:57:02.000Z</time>
      </trkpt>
      <trkpt lat="43.55552" lon="6.82021">
        <ele>178.6</ele>
        <time>2025-10-24T06:57:03.000Z</time>
      </trkpt>
      <trkpt lat="43.5555" lon="6.82025">
        <ele>178.8</ele>
        <time>2025-10-24T06:57:04.000Z</time>
      </trkpt>
      <trkpt lat="43.55548" lon="6.82029">
        <ele>179</ele>
        <time>2025-10-24T06:57:05.000Z</time>
      </trkpt>
      <trkpt lat="43.55546" lon="6.82033">
        <ele>179.2</ele>
        <time>2025-10-24T06:57:06.000Z</time>
      </trkpt>
      <trkpt lat="43.55543" lon="6.82038">
        <ele>179.3</ele>
        <time>2025-10-24T06:57:07.000Z</time>
      </trkpt>
      <trkpt lat="43.55542" lon="6.82043">
        <ele>179.5</ele>
        <time>2025-10-24T06:57:08.000Z</time>
      </trkpt>
      <trkpt lat="43.55541" lon="6.82048">
        <ele>179.6</ele>
        <time>2025-10-24T06:57:09.000Z</time>
      </trkpt>
      <trkpt lat="43.5554" lon="6.82053">
        <ele>179.8</ele>
        <time>2025-10-24T06:57:10.000Z</time>
      </trkpt>
      <trkpt lat="43.5554" lon="6.82058">
        <ele>179.9</ele>
        <time>2025-10-24T06:57:11.000Z</time>
      </trkpt>
      <trkpt lat="43.5554" lon="6.82064">
        <ele>180</ele>
        <time>2025-10-24T06:57:12.000Z</time>
      </trkpt>
      <trkpt lat="43.55539" lon="6.82069">
        <ele>180.1</ele>
        <time>2025-10-24T06:57:13.000Z</time>
      </trkpt>
      <trkpt lat="43.55538" lon="6.82074">
        <ele>180.2</ele>
        <time>2025-10-24T06:57:14.000Z</time>
      </trkpt>
      <trkpt lat="43.55536" lon="6.82078">
        <ele>180.3</ele>
        <time>2025-10-24T06:57:15.000Z</time>
      </trkpt>
      <trkpt lat="43.55535" lon="6.82083">
        <ele>180.4</ele>
        <time>2025-10-24T06:57:16.000Z</time>
      </trkpt>
      <trkpt lat="43.55533" lon="6.82087">
        <ele>180.4</ele>
        <time>2025-10-24T06:57:17.000Z</time>
      </trkpt>
      <trkpt lat="43.55532" lon="6.82091">
        <ele>180.4</ele>
        <time>2025-10-24T06:57:18.000Z</time>
      </trkpt>
      <trkpt lat="43.55531" lon="6.82096">
        <ele>180.4</ele>
        <time>2025-10-24T06:57:19.000Z</time>
      </trkpt>
      <trkpt lat="43.5553" lon="6.82101">
        <ele>180.5</ele>
        <time>2025-10-24T06:57:20.000Z</time>
      </trkpt>
      <trkpt lat="43.55528" lon="6.82105">
        <ele>180.5</ele>
        <time>2025-10-24T06:57:21.000Z</time>
      </trkpt>
      <trkpt lat="43.55526" lon="6.82109">
        <ele>180.5</ele>
        <time>2025-10-24T06:57:22.000Z</time>
      </trkpt>
      <trkpt lat="43.55523" lon="6.82113">
        <ele>180.4</ele>
        <time>2025-10-24T06:57:23.000Z</time>
      </trkpt>
      <trkpt lat="43.5552" lon="6.82116">
        <ele>180.4</ele>
        <time>2025-10-24T06:57:24.000Z</time>
      </trkpt>
      <trkpt lat="43.55518" lon="6.8212">
        <ele>180.4</ele>
        <time>2025-10-24T06:57:25.000Z</time>
      </trkpt>
      <trkpt lat="43.55515" lon="6.82124">
        <ele>180.4</ele>
        <time>2025-10-24T06:57:26.000Z</time>
      </trkpt>
      <trkpt lat="43.55513" lon="6.82129">
        <ele>180.4</ele>
        <time>2025-10-24T06:57:27.000Z</time>
      </trkpt>
      <trkpt lat="43.55511" lon="6.82134">
        <ele>180.4</ele>
        <time>2025-10-24T06:57:28.000Z</time>
      </trkpt>
      <trkpt lat="43.55509" lon="6.8214">
        <ele>180.5</ele>
        <time>2025-10-24T06:57:29.000Z</time>
      </trkpt>
      <trkpt lat="43.55507" lon="6.82145">
        <ele>180.5</ele>
        <time>2025-10-24T06:57:30.000Z</time>
      </trkpt>
      <trkpt lat="43.55505" lon="6.82149">
        <ele>180.6</ele>
        <time>2025-10-24T06:57:31.000Z</time>
      </trkpt>
      <trkpt lat="43.55503" lon="6.82153">
        <ele>180.6</ele>
        <time>2025-10-24T06:57:32.000Z</time>
      </trkpt>
      <trkpt lat="43.55501" lon="6.82158">
        <ele>180.7</ele>
        <time>2025-10-24T06:57:33.000Z</time>
      </trkpt>
      <trkpt lat="43.555" lon="6.82162">
        <ele>180.7</ele>
        <time>2025-10-24T06:57:34.000Z</time>
      </trkpt>
      <trkpt lat="43.55499" lon="6.82167">
        <ele>180.7</ele>
        <time>2025-10-24T06:57:35.000Z</time>
      </trkpt>
      <trkpt lat="43.55498" lon="6.82172">
        <ele>180.7</ele>
        <time>2025-10-24T06:57:36.000Z</time>
      </trkpt>
      <trkpt lat="43.55496" lon="6.82176">
        <ele>180.7</ele>
        <time>2025-10-24T06:57:37.000Z</time>
      </trkpt>
      <trkpt lat="43.55495" lon="6.82181">
        <ele>180.7</ele>
        <time>2025-10-24T06:57:38.000Z</time>
      </trkpt>
      <trkpt lat="43.55493" lon="6.82185">
        <ele>180.7</ele>
        <time>2025-10-24T06:57:39.000Z</time>
      </trkpt>
      <trkpt lat="43.55491" lon="6.82189">
        <ele>180.7</ele>
        <time>2025-10-24T06:57:40.000Z</time>
      </trkpt>
      <trkpt lat="43.55489" lon="6.82191">
        <ele>180.7</ele>
        <time>2025-10-24T06:57:41.000Z</time>
      </trkpt>
      <trkpt lat="43.55486" lon="6.82192">
        <ele>180.6</ele>
        <time>2025-10-24T06:57:42.000Z</time>
      </trkpt>
      <trkpt lat="43.55483" lon="6.82193">
        <ele>180.6</ele>
        <time>2025-10-24T06:57:43.000Z</time>
      </trkpt>
      <trkpt lat="43.5548" lon="6.82195">
        <ele>180.6</ele>
        <time>2025-10-24T06:57:44.000Z</time>
      </trkpt>
      <trkpt lat="43.55478" lon="6.82198">
        <ele>180.5</ele>
        <time>2025-10-24T06:57:45.000Z</time>
      </trkpt>
      <trkpt lat="43.55476" lon="6.82201">
        <ele>180.5</ele>
        <time>2025-10-24T06:57:46.000Z</time>
      </trkpt>
      <trkpt lat="43.55473" lon="6.82205">
        <ele>180.4</ele>
        <time>2025-10-24T06:57:47.000Z</time>
      </trkpt>
      <trkpt lat="43.55471" lon="6.82209">
        <ele>180.3</ele>
        <time>2025-10-24T06:57:48.000Z</time>
      </trkpt>
      <trkpt lat="43.55469" lon="6.82213">
        <ele>180.3</ele>
        <time>2025-10-24T06:57:49.000Z</time>
      </trkpt>
      <trkpt lat="43.55467" lon="6.82216">
        <ele>180.3</ele>
        <time>2025-10-24T06:57:50.000Z</time>
      </trkpt>
      <trkpt lat="43.55463" lon="6.8222">
        <ele>180.2</ele>
        <time>2025-10-24T06:57:51.000Z</time>
      </trkpt>
      <trkpt lat="43.5546" lon="6.82223">
        <ele>180.2</ele>
        <time>2025-10-24T06:57:52.000Z</time>
      </trkpt>
      <trkpt lat="43.55457" lon="6.82226">
        <ele>180.1</ele>
        <time>2025-10-24T06:57:53.000Z</time>
      </trkpt>
      <trkpt lat="43.55455" lon="6.82229">
        <ele>180.1</ele>
        <time>2025-10-24T06:57:54.000Z</time>
      </trkpt>
      <trkpt lat="43.55452" lon="6.82233">
        <ele>180</ele>
        <time>2025-10-24T06:57:55.000Z</time>
      </trkpt>
      <trkpt lat="43.55449" lon="6.82237">
        <ele>179.9</ele>
        <time>2025-10-24T06:57:56.000Z</time>
      </trkpt>
      <trkpt lat="43.55446" lon="6.82241">
        <ele>179.9</ele>
        <time>2025-10-24T06:57:57.000Z</time>
      </trkpt>
      <trkpt lat="43.55443" lon="6.82244">
        <ele>179.9</ele>
        <time>2025-10-24T06:57:58.000Z</time>
      </trkpt>
      <trkpt lat="43.55441" lon="6.82248">
        <ele>179.9</ele>
        <time>2025-10-24T06:57:59.000Z</time>
      </trkpt>
      <trkpt lat="43.55438" lon="6.82251">
        <ele>179.8</ele>
        <time>2025-10-24T06:58:00.000Z</time>
      </trkpt>
      <trkpt lat="43.55436" lon="6.82255">
        <ele>179.8</ele>
        <time>2025-10-24T06:58:01.000Z</time>
      </trkpt>
      <trkpt lat="43.55433" lon="6.82257">
        <ele>179.8</ele>
        <time>2025-10-24T06:58:02.000Z</time>
      </trkpt>
      <trkpt lat="43.55429" lon="6.8226">
        <ele>179.8</ele>
        <time>2025-10-24T06:58:03.000Z</time>
      </trkpt>
      <trkpt lat="43.55426" lon="6.82261">
        <ele>179.8</ele>
        <time>2025-10-24T06:58:04.000Z</time>
      </trkpt>
      <trkpt lat="43.55423" lon="6.82263">
        <ele>179.8</ele>
        <time>2025-10-24T06:58:05.000Z</time>
      </trkpt>
      <trkpt lat="43.5542" lon="6.82264">
        <ele>179.7</ele>
        <time>2025-10-24T06:58:06.000Z</time>
      </trkpt>
      <trkpt lat="43.55418" lon="6.82265">
        <ele>179.7</ele>
        <time>2025-10-24T06:58:07.000Z</time>
      </trkpt>
      <trkpt lat="43.55416" lon="6.82265">
        <ele>179.7</ele>
        <time>2025-10-24T06:58:08.000Z</time>
      </trkpt>
      <trkpt lat="43.55415" lon="6.82266">
        <ele>179.7</ele>
        <time>2025-10-24T06:58:09.000Z</time>
      </trkpt>
      <trkpt lat="43.55414" lon="6.82266">
        <ele>179.7</ele>
        <time>2025-10-24T06:58:10.000Z</time>
      </trkpt>
      <trkpt lat="43.55413" lon="6.82266">
        <ele>179.7</ele>
        <time>2025-10-24T06:58:11.000Z</time>
      </trkpt>
      <trkpt lat="43.55413" lon="6.82267">
        <ele>179.7</ele>
        <time>2025-10-24T06:58:12.000Z</time>
      </trkpt>
      <trkpt lat="43.55412" lon="6.82267">
        <ele>179.7</ele>
        <time>2025-10-24T06:58:13.000Z</time>
      </trkpt>
      <trkpt lat="43.55411" lon="6.82267">
        <ele>179.6</ele>
        <time>2025-10-24T06:58:14.000Z</time>
      </trkpt>
      <trkpt lat="43.55411" lon="6.82268">
        <ele>179.6</ele>
        <time>2025-10-24T06:58:15.000Z</time>
      </trkpt>
      <trkpt lat="43.5541" lon="6.82268">
        <ele>179.6</ele>
        <time>2025-10-24T06:58:16.000Z</time>
      </trkpt>
      <trkpt lat="43.55409" lon="6.82268">
        <ele>179.6</ele>
        <time>2025-10-24T06:58:17.000Z</time>
      </trkpt>
      <trkpt lat="43.55408" lon="6.82269">
        <ele>179.6</ele>
        <time>2025-10-24T06:58:18.000Z</time>
      </trkpt>
      <trkpt lat="43.55408" lon="6.82269">
        <ele>179.6</ele>
        <time>2025-10-24T06:58:19.000Z</time>
      </trkpt>
      <trkpt lat="43.55407" lon="6.82269">
        <ele>179.6</ele>
        <time>2025-10-24T06:58:20.000Z</time>
      </trkpt>
      <trkpt lat="43.55406" lon="6.82269">
        <ele>179.6</ele>
        <time>2025-10-24T06:58:21.000Z</time>
      </trkpt>
      <trkpt lat="43.55406" lon="6.8227">
        <ele>179.6</ele>
        <time>2025-10-24T06:58:22.000Z</time>
      </trkpt>
      <trkpt lat="43.55405" lon="6.8227">
        <ele>179.6</ele>
        <time>2025-10-24T06:58:23.000Z</time>
      </trkpt>
      <trkpt lat="43.55404" lon="6.8227">
        <ele>179.5</ele>
        <time>2025-10-24T06:58:24.000Z</time>
      </trkpt>
      <trkpt lat="43.55404" lon="6.82271">
        <ele>179.5</ele>
        <time>2025-10-24T06:58:25.000Z</time>
      </trkpt>
      <trkpt lat="43.55403" lon="6.82271">
        <ele>179.5</ele>
        <time>2025-10-24T06:58:26.000Z</time>
      </trkpt>
      <trkpt lat="43.55402" lon="6.82271">
        <ele>179.5</ele>
        <time>2025-10-24T06:58:27.000Z</time>
      </trkpt>
      <trkpt lat="43.55401" lon="6.82272">
        <ele>179.5</ele>
        <time>2025-10-24T06:58:28.000Z</time>
      </trkpt>
      <trkpt lat="43.55401" lon="6.82272">
        <ele>179.5</ele>
        <time>2025-10-24T06:58:29.000Z</time>
      </trkpt>
      <trkpt lat="43.554" lon="6.82272">
        <ele>179.5</ele>
        <time>2025-10-24T06:58:30.000Z</time>
      </trkpt>
      <trkpt lat="43.55399" lon="6.82273">
        <ele>179.5</ele>
        <time>2025-10-24T06:58:31.000Z</time>
      </trkpt>
      <trkpt lat="43.55399" lon="6.82273">
        <ele>179.5</ele>
        <time>2025-10-24T06:58:32.000Z</time>
      </trkpt>
      <trkpt lat="43.55398" lon="6.82273">
        <ele>179.4</ele>
        <time>2025-10-24T06:58:33.000Z</time>
      </trkpt>
      <trkpt lat="43.55397" lon="6.82274">
        <ele>179.4</ele>
        <time>2025-10-24T06:58:34.000Z</time>
      </trkpt>
      <trkpt lat="43.55396" lon="6.82274">
        <ele>179.4</ele>
        <time>2025-10-24T06:58:35.000Z</time>
      </trkpt>
      <trkpt lat="43.55396" lon="6.82274">
        <ele>179.4</ele>
        <time>2025-10-24T06:58:36.000Z</time>
      </trkpt>
      <trkpt lat="43.55395" lon="6.82274">
        <ele>179.4</ele>
        <time>2025-10-24T06:58:37.000Z</time>
      </trkpt>
      <trkpt lat="43.55394" lon="6.82275">
        <ele>179.4</ele>
        <time>2025-10-24T06:58:38.000Z</time>
      </trkpt>
      <trkpt lat="43.55394" lon="6.82275">
        <ele>179.4</ele>
        <time>2025-10-24T06:58:39.000Z</time>
      </trkpt>
      <trkpt lat="43.55393" lon="6.82275">
        <ele>179.4</ele>
        <time>2025-10-24T06:58:40.000Z</time>
      </trkpt>
      <trkpt lat="43.55392" lon="6.82276">
        <ele>179.4</ele>
        <time>2025-10-24T06:58:41.000Z</time>
      </trkpt>
      <trkpt lat="43.55392" lon="6.82276">
        <ele>179.3</ele>
        <time>2025-10-24T06:58:42.000Z</time>
      </trkpt>
      <trkpt lat="43.55391" lon="6.82276">
        <ele>179.3</ele>
        <time>2025-10-24T06:58:43.000Z</time>
      </trkpt>
      <trkpt lat="43.5539" lon="6.82277">
        <ele>179.3</ele>
        <time>2025-10-24T06:58:44.000Z</time>
      </trkpt>
      <trkpt lat="43.55389" lon="6.82277">
        <ele>179.3</ele>
        <time>2025-10-24T06:58:45.000Z</time>
      </trkpt>
      <trkpt lat="43.55389" lon="6.82277">
        <ele>179.3</ele>
        <time>2025-10-24T06:58:46.000Z</time>
      </trkpt>
      <trkpt lat="43.55385" lon="6.82281">
        <ele>179.2</ele>
        <time>2025-10-24T06:58:47.000Z</time>
      </trkpt>
      <trkpt lat="43.55381" lon="6.82284">
        <ele>179.2</ele>
        <time>2025-10-24T06:58:48.000Z</time>
      </trkpt>
      <trkpt lat="43.55377" lon="6.82286">
        <ele>179.1</ele>
        <time>2025-10-24T06:58:49.000Z</time>
      </trkpt>
      <trkpt lat="43.55374" lon="6.82289">
        <ele>179.1</ele>
        <time>2025-10-24T06:58:50.000Z</time>
      </trkpt>
      <trkpt lat="43.5537" lon="6.82292">
        <ele>179</ele>
        <time>2025-10-24T06:58:51.000Z</time>
      </trkpt>
      <trkpt lat="43.55366" lon="6.82295">
        <ele>178.9</ele>
        <time>2025-10-24T06:58:52.000Z</time>
      </trkpt>
      <trkpt lat="43.55363" lon="6.82298">
        <ele>178.8</ele>
        <time>2025-10-24T06:58:53.000Z</time>
      </trkpt>
      <trkpt lat="43.5536" lon="6.82301">
        <ele>178.7</ele>
        <time>2025-10-24T06:58:54.000Z</time>
      </trkpt>
      <trkpt lat="43.55357" lon="6.82305">
        <ele>178.7</ele>
        <time>2025-10-24T06:58:55.000Z</time>
      </trkpt>
      <trkpt lat="43.55354" lon="6.82309">
        <ele>178.6</ele>
        <time>2025-10-24T06:58:56.000Z</time>
      </trkpt>
      <trkpt lat="43.55352" lon="6.82313">
        <ele>178.5</ele>
        <time>2025-10-24T06:58:57.000Z</time>
      </trkpt>
      <trkpt lat="43.55349" lon="6.82318">
        <ele>178.4</ele>
        <time>2025-10-24T06:58:58.000Z</time>
      </trkpt>
      <trkpt lat="43.55347" lon="6.82323">
        <ele>178.3</ele>
        <time>2025-10-24T06:58:59.000Z</time>
      </trkpt>
      <trkpt lat="43.55344" lon="6.82329">
        <ele>178.2</ele>
        <time>2025-10-24T06:59:00.000Z</time>
      </trkpt>
      <trkpt lat="43.55342" lon="6.82334">
        <ele>178.2</ele>
        <time>2025-10-24T06:59:01.000Z</time>
      </trkpt>
      <trkpt lat="43.55339" lon="6.8234">
        <ele>178.1</ele>
        <time>2025-10-24T06:59:02.000Z</time>
      </trkpt>
      <trkpt lat="43.55337" lon="6.82345">
        <ele>178.1</ele>
        <time>2025-10-24T06:59:03.000Z</time>
      </trkpt>
      <trkpt lat="43.55334" lon="6.82351">
        <ele>178</ele>
        <time>2025-10-24T06:59:04.000Z</time>
      </trkpt>
      <trkpt lat="43.55331" lon="6.82357">
        <ele>178</ele>
        <time>2025-10-24T06:59:05.000Z</time>
      </trkpt>
      <trkpt lat="43.55328" lon="6.82362">
        <ele>178</ele>
        <time>2025-10-24T06:59:06.000Z</time>
      </trkpt>
      <trkpt lat="43.55325" lon="6.82368">
        <ele>178</ele>
        <time>2025-10-24T06:59:07.000Z</time>
      </trkpt>
      <trkpt lat="43.55322" lon="6.82373">
        <ele>178</ele>
        <time>2025-10-24T06:59:08.000Z</time>
      </trkpt>
      <trkpt lat="43.55319" lon="6.82378">
        <ele>178</ele>
        <time>2025-10-24T06:59:09.000Z</time>
      </trkpt>
      <trkpt lat="43.55315" lon="6.82384">
        <ele>178</ele>
        <time>2025-10-24T06:59:10.000Z</time>
      </trkpt>
      <trkpt lat="43.55312" lon="6.82389">
        <ele>178</ele>
        <time>2025-10-24T06:59:11.000Z</time>
      </trkpt>
      <trkpt lat="43.55308" lon="6.82394">
        <ele>178.1</ele>
        <time>2025-10-24T06:59:12.000Z</time>
      </trkpt>
      <trkpt lat="43.55305" lon="6.82399">
        <ele>178.1</ele>
        <time>2025-10-24T06:59:13.000Z</time>
      </trkpt>
      <trkpt lat="43.55301" lon="6.82403">
        <ele>178.1</ele>
        <time>2025-10-24T06:59:14.000Z</time>
      </trkpt>
      <trkpt lat="43.55298" lon="6.82407">
        <ele>178.1</ele>
        <time>2025-10-24T06:59:15.000Z</time>
      </trkpt>
      <trkpt lat="43.55295" lon="6.8241">
        <ele>178.2</ele>
        <time>2025-10-24T06:59:16.000Z</time>
      </trkpt>
      <trkpt lat="43.55292" lon="6.82413">
        <ele>178.2</ele>
        <time>2025-10-24T06:59:17.000Z</time>
      </trkpt>
      <trkpt lat="43.55289" lon="6.82417">
        <ele>178.3</ele>
        <time>2025-10-24T06:59:18.000Z</time>
      </trkpt>
      <trkpt lat="43.55286" lon="6.82421">
        <ele>178.3</ele>
        <time>2025-10-24T06:59:19.000Z</time>
      </trkpt>
      <trkpt lat="43.55284" lon="6.82426">
        <ele>178.6</ele>
        <time>2025-10-24T06:59:20.000Z</time>
      </trkpt>
      <trkpt lat="43.55282" lon="6.82431">
        <ele>178.8</ele>
        <time>2025-10-24T06:59:21.000Z</time>
      </trkpt>
      <trkpt lat="43.55281" lon="6.82436">
        <ele>179</ele>
        <time>2025-10-24T06:59:22.000Z</time>
      </trkpt>
      <trkpt lat="43.5528" lon="6.82442">
        <ele>179.2</ele>
        <time>2025-10-24T06:59:23.000Z</time>
      </trkpt>
      <trkpt lat="43.5528" lon="6.82447">
        <ele>179.4</ele>
        <time>2025-10-24T06:59:24.000Z</time>
      </trkpt>
      <trkpt lat="43.5528" lon="6.82452">
        <ele>179.7</ele>
        <time>2025-10-24T06:59:25.000Z</time>
      </trkpt>
      <trkpt lat="43.55281" lon="6.82457">
        <ele>180.1</ele>
        <time>2025-10-24T06:59:26.000Z</time>
      </trkpt>
      <trkpt lat="43.55282" lon="6.82463">
        <ele>180.6</ele>
        <time>2025-10-24T06:59:27.000Z</time>
      </trkpt>
      <trkpt lat="43.55283" lon="6.82468">
        <ele>181</ele>
        <time>2025-10-24T06:59:28.000Z</time>
      </trkpt>
      <trkpt lat="43.55284" lon="6.82472">
        <ele>181.4</ele>
        <time>2025-10-24T06:59:29.000Z</time>
      </trkpt>
      <trkpt lat="43.55285" lon="6.82475">
        <ele>181.7</ele>
        <time>2025-10-24T06:59:30.000Z</time>
      </trkpt>
      <trkpt lat="43.55287" lon="6.8248">
        <ele>182.1</ele>
        <time>2025-10-24T06:59:31.000Z</time>
      </trkpt>
      <trkpt lat="43.55288" lon="6.82484">
        <ele>182.5</ele>
        <time>2025-10-24T06:59:32.000Z</time>
      </trkpt>
      <trkpt lat="43.55289" lon="6.82487">
        <ele>182.7</ele>
        <time>2025-10-24T06:59:33.000Z</time>
      </trkpt>
      <trkpt lat="43.55291" lon="6.82491">
        <ele>183</ele>
        <time>2025-10-24T06:59:34.000Z</time>
      </trkpt>
      <trkpt lat="43.55292" lon="6.82495">
        <ele>183.4</ele>
        <time>2025-10-24T06:59:35.000Z</time>
      </trkpt>
      <trkpt lat="43.55294" lon="6.82499">
        <ele>183.7</ele>
        <time>2025-10-24T06:59:36.000Z</time>
      </trkpt>
      <trkpt lat="43.55296" lon="6.82504">
        <ele>184</ele>
        <time>2025-10-24T06:59:37.000Z</time>
      </trkpt>
      <trkpt lat="43.55298" lon="6.82508">
        <ele>184.3</ele>
        <time>2025-10-24T06:59:38.000Z</time>
      </trkpt>
      <trkpt lat="43.55299" lon="6.82512">
        <ele>184.6</ele>
        <time>2025-10-24T06:59:39.000Z</time>
      </trkpt>
      <trkpt lat="43.55301" lon="6.82516">
        <ele>184.9</ele>
        <time>2025-10-24T06:59:40.000Z</time>
      </trkpt>
      <trkpt lat="43.55304" lon="6.82521">
        <ele>185.2</ele>
        <time>2025-10-24T06:59:41.000Z</time>
      </trkpt>
      <trkpt lat="43.55306" lon="6.82525">
        <ele>185.5</ele>
        <time>2025-10-24T06:59:42.000Z</time>
      </trkpt>
      <trkpt lat="43.55309" lon="6.82528">
        <ele>185.8</ele>
        <time>2025-10-24T06:59:43.000Z</time>
      </trkpt>
      <trkpt lat="43.55311" lon="6.82531">
        <ele>186</ele>
        <time>2025-10-24T06:59:44.000Z</time>
      </trkpt>
      <trkpt lat="43.55314" lon="6.82535">
        <ele>186.3</ele>
        <time>2025-10-24T06:59:45.000Z</time>
      </trkpt>
      <trkpt lat="43.55317" lon="6.82538">
        <ele>186.6</ele>
        <time>2025-10-24T06:59:46.000Z</time>
      </trkpt>
      <trkpt lat="43.5532" lon="6.82543">
        <ele>187</ele>
        <time>2025-10-24T06:59:47.000Z</time>
      </trkpt>
      <trkpt lat="43.55322" lon="6.82546">
        <ele>187.2</ele>
        <time>2025-10-24T06:59:48.000Z</time>
      </trkpt>
      <trkpt lat="43.55325" lon="6.82549">
        <ele>187.6</ele>
        <time>2025-10-24T06:59:49.000Z</time>
      </trkpt>
      <trkpt lat="43.55329" lon="6.82552">
        <ele>187.9</ele>
        <time>2025-10-24T06:59:50.000Z</time>
      </trkpt>
      <trkpt lat="43.55332" lon="6.82555">
        <ele>188.3</ele>
        <time>2025-10-24T06:59:51.000Z</time>
      </trkpt>
      <trkpt lat="43.55335" lon="6.82558">
        <ele>188.6</ele>
        <time>2025-10-24T06:59:52.000Z</time>
      </trkpt>
      <trkpt lat="43.55339" lon="6.82561">
        <ele>189</ele>
        <time>2025-10-24T06:59:53.000Z</time>
      </trkpt>
      <trkpt lat="43.55342" lon="6.82562">
        <ele>189.3</ele>
        <time>2025-10-24T06:59:54.000Z</time>
      </trkpt>
      <trkpt lat="43.55346" lon="6.82564">
        <ele>189.7</ele>
        <time>2025-10-24T06:59:55.000Z</time>
      </trkpt>
      <trkpt lat="43.5535" lon="6.82565">
        <ele>190.1</ele>
        <time>2025-10-24T06:59:56.000Z</time>
      </trkpt>
      <trkpt lat="43.55354" lon="6.82567">
        <ele>190.5</ele>
        <time>2025-10-24T06:59:57.000Z</time>
      </trkpt>
      <trkpt lat="43.55358" lon="6.82568">
        <ele>191</ele>
        <time>2025-10-24T06:59:58.000Z</time>
      </trkpt>
      <trkpt lat="43.55361" lon="6.82569">
        <ele>191.3</ele>
        <time>2025-10-24T06:59:59.000Z</time>
      </trkpt>
      <trkpt lat="43.55365" lon="6.8257">
        <ele>191.7</ele>
        <time>2025-10-24T07:00:00.000Z</time>
      </trkpt>
      <trkpt lat="43.55368" lon="6.82571">
        <ele>192</ele>
        <time>2025-10-24T07:00:01.000Z</time>
      </trkpt>
      <trkpt lat="43.55372" lon="6.82573">
        <ele>192.5</ele>
        <time>2025-10-24T07:00:02.000Z</time>
      </trkpt>
      <trkpt lat="43.55376" lon="6.82574">
        <ele>192.9</ele>
        <time>2025-10-24T07:00:03.000Z</time>
      </trkpt>
      <trkpt lat="43.55379" lon="6.82574">
        <ele>193.2</ele>
        <time>2025-10-24T07:00:04.000Z</time>
      </trkpt>
      <trkpt lat="43.55383" lon="6.82575">
        <ele>193.5</ele>
        <time>2025-10-24T07:00:05.000Z</time>
      </trkpt>
      <trkpt lat="43.55386" lon="6.82575">
        <ele>193.9</ele>
        <time>2025-10-24T07:00:06.000Z</time>
      </trkpt>
      <trkpt lat="43.5539" lon="6.82576">
        <ele>194.2</ele>
        <time>2025-10-24T07:00:07.000Z</time>
      </trkpt>
      <trkpt lat="43.55394" lon="6.82576">
        <ele>194.6</ele>
        <time>2025-10-24T07:00:08.000Z</time>
      </trkpt>
      <trkpt lat="43.55398" lon="6.82576">
        <ele>195</ele>
        <time>2025-10-24T07:00:09.000Z</time>
      </trkpt>
      <trkpt lat="43.55401" lon="6.82576">
        <ele>195.3</ele>
        <time>2025-10-24T07:00:10.000Z</time>
      </trkpt>
      <trkpt lat="43.55405" lon="6.82576">
        <ele>195.7</ele>
        <time>2025-10-24T07:00:11.000Z</time>
      </trkpt>
      <trkpt lat="43.55408" lon="6.82576">
        <ele>196</ele>
        <time>2025-10-24T07:00:12.000Z</time>
      </trkpt>
      <trkpt lat="43.55413" lon="6.82576">
        <ele>196.4</ele>
        <time>2025-10-24T07:00:13.000Z</time>
      </trkpt>
      <trkpt lat="43.55415" lon="6.82576">
        <ele>196.7</ele>
        <time>2025-10-24T07:00:14.000Z</time>
      </trkpt>
      <trkpt lat="43.5542" lon="6.82576">
        <ele>197</ele>
        <time>2025-10-24T07:00:15.000Z</time>
      </trkpt>
      <trkpt lat="43.55423" lon="6.82576">
        <ele>197.2</ele>
        <time>2025-10-24T07:00:16.000Z</time>
      </trkpt>
      <trkpt lat="43.55427" lon="6.82576">
        <ele>197.5</ele>
        <time>2025-10-24T07:00:17.000Z</time>
      </trkpt>
      <trkpt lat="43.55432" lon="6.82575">
        <ele>197.7</ele>
        <time>2025-10-24T07:00:18.000Z</time>
      </trkpt>
      <trkpt lat="43.55435" lon="6.82575">
        <ele>197.9</ele>
        <time>2025-10-24T07:00:19.000Z</time>
      </trkpt>
      <trkpt lat="43.55439" lon="6.82574">
        <ele>198.1</ele>
        <time>2025-10-24T07:00:20.000Z</time>
      </trkpt>
      <trkpt lat="43.55442" lon="6.82573">
        <ele>198.2</ele>
        <time>2025-10-24T07:00:21.000Z</time>
      </trkpt>
      <trkpt lat="43.55445" lon="6.82572">
        <ele>198.3</ele>
        <time>2025-10-24T07:00:22.000Z</time>
      </trkpt>
      <trkpt lat="43.5545" lon="6.82571">
        <ele>198.4</ele>
        <time>2025-10-24T07:00:23.000Z</time>
      </trkpt>
      <trkpt lat="43.55453" lon="6.8257">
        <ele>198.5</ele>
        <time>2025-10-24T07:00:24.000Z</time>
      </trkpt>
      <trkpt lat="43.55456" lon="6.8257">
        <ele>198.5</ele>
        <time>2025-10-24T07:00:25.000Z</time>
      </trkpt>
      <trkpt lat="43.5546" lon="6.8257">
        <ele>198.6</ele>
        <time>2025-10-24T07:00:26.000Z</time>
      </trkpt>
      <trkpt lat="43.55464" lon="6.82571">
        <ele>198.6</ele>
        <time>2025-10-24T07:00:27.000Z</time>
      </trkpt>
      <trkpt lat="43.55468" lon="6.82572">
        <ele>198.6</ele>
        <time>2025-10-24T07:00:28.000Z</time>
      </trkpt>
      <trkpt lat="43.55472" lon="6.82574">
        <ele>198.5</ele>
        <time>2025-10-24T07:00:29.000Z</time>
      </trkpt>
      <trkpt lat="43.55475" lon="6.82575">
        <ele>198.5</ele>
        <time>2025-10-24T07:00:30.000Z</time>
      </trkpt>
      <trkpt lat="43.55479" lon="6.82577">
        <ele>198.5</ele>
        <time>2025-10-24T07:00:31.000Z</time>
      </trkpt>
      <trkpt lat="43.55483" lon="6.82578">
        <ele>198.4</ele>
        <time>2025-10-24T07:00:32.000Z</time>
      </trkpt>
      <trkpt lat="43.55487" lon="6.82579">
        <ele>198.4</ele>
        <time>2025-10-24T07:00:33.000Z</time>
      </trkpt>
      <trkpt lat="43.55492" lon="6.82579">
        <ele>198.4</ele>
        <time>2025-10-24T07:00:34.000Z</time>
      </trkpt>
      <trkpt lat="43.55496" lon="6.82578">
        <ele>198.3</ele>
        <time>2025-10-24T07:00:35.000Z</time>
      </trkpt>
      <trkpt lat="43.555" lon="6.82576">
        <ele>198.3</ele>
        <time>2025-10-24T07:00:36.000Z</time>
      </trkpt>
      <trkpt lat="43.55503" lon="6.82574">
        <ele>198.3</ele>
        <time>2025-10-24T07:00:37.000Z</time>
      </trkpt>
      <trkpt lat="43.55506" lon="6.82572">
        <ele>198.3</ele>
        <time>2025-10-24T07:00:38.000Z</time>
      </trkpt>
      <trkpt lat="43.55511" lon="6.82571">
        <ele>198.3</ele>
        <time>2025-10-24T07:00:39.000Z</time>
      </trkpt>
      <trkpt lat="43.55515" lon="6.8257">
        <ele>198.3</ele>
        <time>2025-10-24T07:00:40.000Z</time>
      </trkpt>
      <trkpt lat="43.55518" lon="6.82571">
        <ele>198.3</ele>
        <time>2025-10-24T07:00:41.000Z</time>
      </trkpt>
      <trkpt lat="43.55522" lon="6.82573">
        <ele>198.3</ele>
        <time>2025-10-24T07:00:42.000Z</time>
      </trkpt>
      <trkpt lat="43.55524" lon="6.82576">
        <ele>198.3</ele>
        <time>2025-10-24T07:00:43.000Z</time>
      </trkpt>
      <trkpt lat="43.55527" lon="6.82581">
        <ele>198.4</ele>
        <time>2025-10-24T07:00:44.000Z</time>
      </trkpt>
      <trkpt lat="43.5553" lon="6.82585">
        <ele>198.4</ele>
        <time>2025-10-24T07:00:45.000Z</time>
      </trkpt>
      <trkpt lat="43.55532" lon="6.8259">
        <ele>198.5</ele>
        <time>2025-10-24T07:00:46.000Z</time>
      </trkpt>
      <trkpt lat="43.55534" lon="6.82594">
        <ele>198.5</ele>
        <time>2025-10-24T07:00:47.000Z</time>
      </trkpt>
      <trkpt lat="43.55537" lon="6.82597">
        <ele>198.6</ele>
        <time>2025-10-24T07:00:48.000Z</time>
      </trkpt>
      <trkpt lat="43.5554" lon="6.82602">
        <ele>198.7</ele>
        <time>2025-10-24T07:00:49.000Z</time>
      </trkpt>
      <trkpt lat="43.55544" lon="6.82605">
        <ele>198.8</ele>
        <time>2025-10-24T07:00:50.000Z</time>
      </trkpt>
      <trkpt lat="43.55546" lon="6.82607">
        <ele>198.9</ele>
        <time>2025-10-24T07:00:51.000Z</time>
      </trkpt>
      <trkpt lat="43.5555" lon="6.82609">
        <ele>199</ele>
        <time>2025-10-24T07:00:52.000Z</time>
      </trkpt>
      <trkpt lat="43.55554" lon="6.82611">
        <ele>199.1</ele>
        <time>2025-10-24T07:00:53.000Z</time>
      </trkpt>
      <trkpt lat="43.55558" lon="6.82612">
        <ele>199.3</ele>
        <time>2025-10-24T07:00:54.000Z</time>
      </trkpt>
      <trkpt lat="43.55562" lon="6.82613">
        <ele>199.4</ele>
        <time>2025-10-24T07:00:55.000Z</time>
      </trkpt>
      <trkpt lat="43.55566" lon="6.82614">
        <ele>199.6</ele>
        <time>2025-10-24T07:00:56.000Z</time>
      </trkpt>
      <trkpt lat="43.5557" lon="6.82614">
        <ele>199.8</ele>
        <time>2025-10-24T07:00:57.000Z</time>
      </trkpt>
      <trkpt lat="43.55573" lon="6.82615">
        <ele>199.9</ele>
        <time>2025-10-24T07:00:58.000Z</time>
      </trkpt>
      <trkpt lat="43.55578" lon="6.82615">
        <ele>200.2</ele>
        <time>2025-10-24T07:00:59.000Z</time>
      </trkpt>
      <trkpt lat="43.55582" lon="6.82614">
        <ele>200.3</ele>
        <time>2025-10-24T07:01:00.000Z</time>
      </trkpt>
      <trkpt lat="43.55586" lon="6.82613">
        <ele>200.5</ele>
        <time>2025-10-24T07:01:01.000Z</time>
      </trkpt>
      <trkpt lat="43.55589" lon="6.82613">
        <ele>200.7</ele>
        <time>2025-10-24T07:01:02.000Z</time>
      </trkpt>
      <trkpt lat="43.55593" lon="6.82612">
        <ele>200.9</ele>
        <time>2025-10-24T07:01:03.000Z</time>
      </trkpt>
      <trkpt lat="43.55596" lon="6.82611">
        <ele>201</ele>
        <time>2025-10-24T07:01:04.000Z</time>
      </trkpt>
      <trkpt lat="43.556" lon="6.82609">
        <ele>201.2</ele>
        <time>2025-10-24T07:01:05.000Z</time>
      </trkpt>
      <trkpt lat="43.55602" lon="6.82608">
        <ele>201.3</ele>
        <time>2025-10-24T07:01:06.000Z</time>
      </trkpt>
      <trkpt lat="43.55605" lon="6.82605">
        <ele>201.5</ele>
        <time>2025-10-24T07:01:07.000Z</time>
      </trkpt>
      <trkpt lat="43.55608" lon="6.82602">
        <ele>201.6</ele>
        <time>2025-10-24T07:01:08.000Z</time>
      </trkpt>
      <trkpt lat="43.55611" lon="6.82599">
        <ele>201.8</ele>
        <time>2025-10-24T07:01:09.000Z</time>
      </trkpt>
      <trkpt lat="43.55614" lon="6.82595">
        <ele>202</ele>
        <time>2025-10-24T07:01:10.000Z</time>
      </trkpt>
      <trkpt lat="43.55617" lon="6.82593">
        <ele>202.1</ele>
        <time>2025-10-24T07:01:11.000Z</time>
      </trkpt>
      <trkpt lat="43.5562" lon="6.8259">
        <ele>202.3</ele>
        <time>2025-10-24T07:01:12.000Z</time>
      </trkpt>
      <trkpt lat="43.55623" lon="6.82588">
        <ele>202.5</ele>
        <time>2025-10-24T07:01:13.000Z</time>
      </trkpt>
      <trkpt lat="43.55627" lon="6.82586">
        <ele>202.7</ele>
        <time>2025-10-24T07:01:14.000Z</time>
      </trkpt>
      <trkpt lat="43.55631" lon="6.82585">
        <ele>202.9</ele>
        <time>2025-10-24T07:01:15.000Z</time>
      </trkpt>
      <trkpt lat="43.55635" lon="6.82586">
        <ele>203.1</ele>
        <time>2025-10-24T07:01:16.000Z</time>
      </trkpt>
      <trkpt lat="43.55637" lon="6.82588">
        <ele>203.3</ele>
        <time>2025-10-24T07:01:17.000Z</time>
      </trkpt>
      <trkpt lat="43.5564" lon="6.82591">
        <ele>203.5</ele>
        <time>2025-10-24T07:01:18.000Z</time>
      </trkpt>
      <trkpt lat="43.55643" lon="6.82594">
        <ele>203.7</ele>
        <time>2025-10-24T07:01:19.000Z</time>
      </trkpt>
      <trkpt lat="43.55646" lon="6.82598">
        <ele>203.9</ele>
        <time>2025-10-24T07:01:20.000Z</time>
      </trkpt>
      <trkpt lat="43.55648" lon="6.82602">
        <ele>204.1</ele>
        <time>2025-10-24T07:01:21.000Z</time>
      </trkpt>
      <trkpt lat="43.55651" lon="6.82606">
        <ele>204.3</ele>
        <time>2025-10-24T07:01:22.000Z</time>
      </trkpt>
      <trkpt lat="43.55653" lon="6.82609">
        <ele>204.5</ele>
        <time>2025-10-24T07:01:23.000Z</time>
      </trkpt>
      <trkpt lat="43.55655" lon="6.82613">
        <ele>204.6</ele>
        <time>2025-10-24T07:01:24.000Z</time>
      </trkpt>
      <trkpt lat="43.55657" lon="6.82619">
        <ele>204.9</ele>
        <time>2025-10-24T07:01:25.000Z</time>
      </trkpt>
      <trkpt lat="43.55657" lon="6.82624">
        <ele>205.1</ele>
        <time>2025-10-24T07:01:26.000Z</time>
      </trkpt>
      <trkpt lat="43.55656" lon="6.82629">
        <ele>205.3</ele>
        <time>2025-10-24T07:01:27.000Z</time>
      </trkpt>
      <trkpt lat="43.55655" lon="6.82632">
        <ele>205.4</ele>
        <time>2025-10-24T07:01:28.000Z</time>
      </trkpt>
      <trkpt lat="43.55654" lon="6.82637">
        <ele>205.6</ele>
        <time>2025-10-24T07:01:29.000Z</time>
      </trkpt>
      <trkpt lat="43.55653" lon="6.82641">
        <ele>205.8</ele>
        <time>2025-10-24T07:01:30.000Z</time>
      </trkpt>
      <trkpt lat="43.55653" lon="6.82647">
        <ele>206.1</ele>
        <time>2025-10-24T07:01:31.000Z</time>
      </trkpt>
      <trkpt lat="43.55654" lon="6.82651">
        <ele>206.3</ele>
        <time>2025-10-24T07:01:32.000Z</time>
      </trkpt>
      <trkpt lat="43.55655" lon="6.82655">
        <ele>206.5</ele>
        <time>2025-10-24T07:01:33.000Z</time>
      </trkpt>
      <trkpt lat="43.55657" lon="6.82659">
        <ele>206.7</ele>
        <time>2025-10-24T07:01:34.000Z</time>
      </trkpt>
      <trkpt lat="43.55659" lon="6.82662">
        <ele>206.9</ele>
        <time>2025-10-24T07:01:35.000Z</time>
      </trkpt>
      <trkpt lat="43.55662" lon="6.82666">
        <ele>207.2</ele>
        <time>2025-10-24T07:01:36.000Z</time>
      </trkpt>
      <trkpt lat="43.55665" lon="6.82668">
        <ele>207.5</ele>
        <time>2025-10-24T07:01:37.000Z</time>
      </trkpt>
      <trkpt lat="43.55668" lon="6.82669">
        <ele>207.7</ele>
        <time>2025-10-24T07:01:38.000Z</time>
      </trkpt>
      <trkpt lat="43.55671" lon="6.8267">
        <ele>208</ele>
        <time>2025-10-24T07:01:39.000Z</time>
      </trkpt>
      <trkpt lat="43.55675" lon="6.82671">
        <ele>208.3</ele>
        <time>2025-10-24T07:01:40.000Z</time>
      </trkpt>
      <trkpt lat="43.55679" lon="6.82671">
        <ele>208.6</ele>
        <time>2025-10-24T07:01:41.000Z</time>
      </trkpt>
      <trkpt lat="43.55682" lon="6.82671">
        <ele>208.9</ele>
        <time>2025-10-24T07:01:42.000Z</time>
      </trkpt>
      <trkpt lat="43.55685" lon="6.82671">
        <ele>209.2</ele>
        <time>2025-10-24T07:01:43.000Z</time>
      </trkpt>
      <trkpt lat="43.55688" lon="6.8267">
        <ele>209.5</ele>
        <time>2025-10-24T07:01:44.000Z</time>
      </trkpt>
      <trkpt lat="43.55691" lon="6.82669">
        <ele>209.8</ele>
        <time>2025-10-24T07:01:45.000Z</time>
      </trkpt>
      <trkpt lat="43.55694" lon="6.82668">
        <ele>210</ele>
        <time>2025-10-24T07:01:46.000Z</time>
      </trkpt>
      <trkpt lat="43.55698" lon="6.82667">
        <ele>210.4</ele>
        <time>2025-10-24T07:01:47.000Z</time>
      </trkpt>
      <trkpt lat="43.55701" lon="6.82666">
        <ele>210.6</ele>
        <time>2025-10-24T07:01:48.000Z</time>
      </trkpt>
      <trkpt lat="43.55704" lon="6.82665">
        <ele>210.9</ele>
        <time>2025-10-24T07:01:49.000Z</time>
      </trkpt>
      <trkpt lat="43.55707" lon="6.82663">
        <ele>211.1</ele>
        <time>2025-10-24T07:01:50.000Z</time>
      </trkpt>
      <trkpt lat="43.5571" lon="6.82661">
        <ele>211.4</ele>
        <time>2025-10-24T07:01:51.000Z</time>
      </trkpt>
      <trkpt lat="43.55712" lon="6.8266">
        <ele>211.6</ele>
        <time>2025-10-24T07:01:52.000Z</time>
      </trkpt>
      <trkpt lat="43.55716" lon="6.82658">
        <ele>211.8</ele>
        <time>2025-10-24T07:01:53.000Z</time>
      </trkpt>
      <trkpt lat="43.55718" lon="6.82655">
        <ele>212.1</ele>
        <time>2025-10-24T07:01:54.000Z</time>
      </trkpt>
      <trkpt lat="43.5572" lon="6.82653">
        <ele>212.3</ele>
        <time>2025-10-24T07:01:55.000Z</time>
      </trkpt>
      <trkpt lat="43.55723" lon="6.82651">
        <ele>212.5</ele>
        <time>2025-10-24T07:01:56.000Z</time>
      </trkpt>
      <trkpt lat="43.55725" lon="6.82648">
        <ele>212.7</ele>
        <time>2025-10-24T07:01:57.000Z</time>
      </trkpt>
      <trkpt lat="43.55727" lon="6.82645">
        <ele>212.9</ele>
        <time>2025-10-24T07:01:58.000Z</time>
      </trkpt>
      <trkpt lat="43.55729" lon="6.82642">
        <ele>213.1</ele>
        <time>2025-10-24T07:01:59.000Z</time>
      </trkpt>
      <trkpt lat="43.55731" lon="6.82637">
        <ele>213.4</ele>
        <time>2025-10-24T07:02:00.000Z</time>
      </trkpt>
      <trkpt lat="43.55732" lon="6.82633">
        <ele>213.6</ele>
        <time>2025-10-24T07:02:01.000Z</time>
      </trkpt>
      <trkpt lat="43.55734" lon="6.82629">
        <ele>213.9</ele>
        <time>2025-10-24T07:02:02.000Z</time>
      </trkpt>
      <trkpt lat="43.55736" lon="6.82624">
        <ele>214.2</ele>
        <time>2025-10-24T07:02:03.000Z</time>
      </trkpt>
      <trkpt lat="43.55738" lon="6.8262">
        <ele>214.5</ele>
        <time>2025-10-24T07:02:04.000Z</time>
      </trkpt>
      <trkpt lat="43.5574" lon="6.82615">
        <ele>214.8</ele>
        <time>2025-10-24T07:02:05.000Z</time>
      </trkpt>
      <trkpt lat="43.55741" lon="6.8261">
        <ele>215.1</ele>
        <time>2025-10-24T07:02:06.000Z</time>
      </trkpt>
      <trkpt lat="43.55743" lon="6.82605">
        <ele>215.4</ele>
        <time>2025-10-24T07:02:07.000Z</time>
      </trkpt>
      <trkpt lat="43.55744" lon="6.826">
        <ele>215.7</ele>
        <time>2025-10-24T07:02:08.000Z</time>
      </trkpt>
      <trkpt lat="43.55745" lon="6.82596">
        <ele>216</ele>
        <time>2025-10-24T07:02:09.000Z</time>
      </trkpt>
      <trkpt lat="43.55746" lon="6.82591">
        <ele>216.3</ele>
        <time>2025-10-24T07:02:10.000Z</time>
      </trkpt>
      <trkpt lat="43.55747" lon="6.82586">
        <ele>216.5</ele>
        <time>2025-10-24T07:02:11.000Z</time>
      </trkpt>
      <trkpt lat="43.55748" lon="6.82582">
        <ele>216.8</ele>
        <time>2025-10-24T07:02:12.000Z</time>
      </trkpt>
      <trkpt lat="43.5575" lon="6.82577">
        <ele>217.1</ele>
        <time>2025-10-24T07:02:13.000Z</time>
      </trkpt>
      <trkpt lat="43.55752" lon="6.82575">
        <ele>217.2</ele>
        <time>2025-10-24T07:02:14.000Z</time>
      </trkpt>
      <trkpt lat="43.55755" lon="6.82572">
        <ele>217.5</ele>
        <time>2025-10-24T07:02:15.000Z</time>
      </trkpt>
      <trkpt lat="43.55758" lon="6.82571">
        <ele>217.7</ele>
        <time>2025-10-24T07:02:16.000Z</time>
      </trkpt>
      <trkpt lat="43.55762" lon="6.8257">
        <ele>217.9</ele>
        <time>2025-10-24T07:02:17.000Z</time>
      </trkpt>
      <trkpt lat="43.55765" lon="6.8257">
        <ele>218</ele>
        <time>2025-10-24T07:02:18.000Z</time>
      </trkpt>
      <trkpt lat="43.55769" lon="6.82572">
        <ele>218.2</ele>
        <time>2025-10-24T07:02:19.000Z</time>
      </trkpt>
      <trkpt lat="43.55771" lon="6.82573">
        <ele>218.4</ele>
        <time>2025-10-24T07:02:20.000Z</time>
      </trkpt>
      <trkpt lat="43.55774" lon="6.82574">
        <ele>218.6</ele>
        <time>2025-10-24T07:02:21.000Z</time>
      </trkpt>
      <trkpt lat="43.55778" lon="6.82575">
        <ele>218.8</ele>
        <time>2025-10-24T07:02:22.000Z</time>
      </trkpt>
      <trkpt lat="43.55781" lon="6.82575">
        <ele>218.9</ele>
        <time>2025-10-24T07:02:23.000Z</time>
      </trkpt>
      <trkpt lat="43.55784" lon="6.82576">
        <ele>219.1</ele>
        <time>2025-10-24T07:02:24.000Z</time>
      </trkpt>
      <trkpt lat="43.55787" lon="6.82576">
        <ele>219.3</ele>
        <time>2025-10-24T07:02:25.000Z</time>
      </trkpt>
      <trkpt lat="43.5579" lon="6.82576">
        <ele>219.5</ele>
        <time>2025-10-24T07:02:26.000Z</time>
      </trkpt>
      <trkpt lat="43.55793" lon="6.82575">
        <ele>219.7</ele>
        <time>2025-10-24T07:02:27.000Z</time>
      </trkpt>
      <trkpt lat="43.55797" lon="6.82575">
        <ele>220</ele>
        <time>2025-10-24T07:02:28.000Z</time>
      </trkpt>
      <trkpt lat="43.55801" lon="6.82574">
        <ele>220.3</ele>
        <time>2025-10-24T07:02:29.000Z</time>
      </trkpt>
      <trkpt lat="43.55803" lon="6.82573">
        <ele>220.5</ele>
        <time>2025-10-24T07:02:30.000Z</time>
      </trkpt>
      <trkpt lat="43.55806" lon="6.82571">
        <ele>220.7</ele>
        <time>2025-10-24T07:02:31.000Z</time>
      </trkpt>
      <trkpt lat="43.55809" lon="6.82569">
        <ele>220.9</ele>
        <time>2025-10-24T07:02:32.000Z</time>
      </trkpt>
      <trkpt lat="43.55811" lon="6.82566">
        <ele>221.2</ele>
        <time>2025-10-24T07:02:33.000Z</time>
      </trkpt>
      <trkpt lat="43.55814" lon="6.82563">
        <ele>221.4</ele>
        <time>2025-10-24T07:02:34.000Z</time>
      </trkpt>
      <trkpt lat="43.55816" lon="6.8256">
        <ele>221.7</ele>
        <time>2025-10-24T07:02:35.000Z</time>
      </trkpt>
      <trkpt lat="43.55818" lon="6.82556">
        <ele>222</ele>
        <time>2025-10-24T07:02:36.000Z</time>
      </trkpt>
      <trkpt lat="43.5582" lon="6.82552">
        <ele>222.2</ele>
        <time>2025-10-24T07:02:37.000Z</time>
      </trkpt>
      <trkpt lat="43.55821" lon="6.82548">
        <ele>222.4</ele>
        <time>2025-10-24T07:02:38.000Z</time>
      </trkpt>
      <trkpt lat="43.55823" lon="6.82544">
        <ele>222.7</ele>
        <time>2025-10-24T07:02:39.000Z</time>
      </trkpt>
      <trkpt lat="43.55826" lon="6.82541">
        <ele>222.9</ele>
        <time>2025-10-24T07:02:40.000Z</time>
      </trkpt>
      <trkpt lat="43.55829" lon="6.82539">
        <ele>223.1</ele>
        <time>2025-10-24T07:02:41.000Z</time>
      </trkpt>
      <trkpt lat="43.55832" lon="6.82537">
        <ele>223.4</ele>
        <time>2025-10-24T07:02:42.000Z</time>
      </trkpt>
      <trkpt lat="43.55836" lon="6.82535">
        <ele>223.7</ele>
        <time>2025-10-24T07:02:43.000Z</time>
      </trkpt>
      <trkpt lat="43.55839" lon="6.82532">
        <ele>223.9</ele>
        <time>2025-10-24T07:02:44.000Z</time>
      </trkpt>
      <trkpt lat="43.55841" lon="6.8253">
        <ele>224.1</ele>
        <time>2025-10-24T07:02:45.000Z</time>
      </trkpt>
      <trkpt lat="43.55843" lon="6.82527">
        <ele>224.3</ele>
        <time>2025-10-24T07:02:46.000Z</time>
      </trkpt>
      <trkpt lat="43.55846" lon="6.82524">
        <ele>224.6</ele>
        <time>2025-10-24T07:02:47.000Z</time>
      </trkpt>
      <trkpt lat="43.55848" lon="6.8252">
        <ele>224.8</ele>
        <time>2025-10-24T07:02:48.000Z</time>
      </trkpt>
      <trkpt lat="43.5585" lon="6.82517">
        <ele>225</ele>
        <time>2025-10-24T07:02:49.000Z</time>
      </trkpt>
      <trkpt lat="43.55852" lon="6.82514">
        <ele>225.3</ele>
        <time>2025-10-24T07:02:50.000Z</time>
      </trkpt>
      <trkpt lat="43.55855" lon="6.82511">
        <ele>225.5</ele>
        <time>2025-10-24T07:02:51.000Z</time>
      </trkpt>
      <trkpt lat="43.55858" lon="6.82509">
        <ele>225.7</ele>
        <time>2025-10-24T07:02:52.000Z</time>
      </trkpt>
      <trkpt lat="43.55861" lon="6.82508">
        <ele>225.9</ele>
        <time>2025-10-24T07:02:53.000Z</time>
      </trkpt>
      <trkpt lat="43.55864" lon="6.82507">
        <ele>226.1</ele>
        <time>2025-10-24T07:02:54.000Z</time>
      </trkpt>
      <trkpt lat="43.55867" lon="6.82507">
        <ele>226.3</ele>
        <time>2025-10-24T07:02:55.000Z</time>
      </trkpt>
      <trkpt lat="43.5587" lon="6.82506">
        <ele>226.5</ele>
        <time>2025-10-24T07:02:56.000Z</time>
      </trkpt>
      <trkpt lat="43.55873" lon="6.82505">
        <ele>226.7</ele>
        <time>2025-10-24T07:02:57.000Z</time>
      </trkpt>
      <trkpt lat="43.55877" lon="6.82505">
        <ele>226.9</ele>
        <time>2025-10-24T07:02:58.000Z</time>
      </trkpt>
      <trkpt lat="43.5588" lon="6.82504">
        <ele>227.1</ele>
        <time>2025-10-24T07:02:59.000Z</time>
      </trkpt>
      <trkpt lat="43.55883" lon="6.82503">
        <ele>227.3</ele>
        <time>2025-10-24T07:03:00.000Z</time>
      </trkpt>
      <trkpt lat="43.55887" lon="6.82503">
        <ele>227.5</ele>
        <time>2025-10-24T07:03:01.000Z</time>
      </trkpt>
      <trkpt lat="43.5589" lon="6.82502">
        <ele>227.7</ele>
        <time>2025-10-24T07:03:02.000Z</time>
      </trkpt>
      <trkpt lat="43.55893" lon="6.82501">
        <ele>227.9</ele>
        <time>2025-10-24T07:03:03.000Z</time>
      </trkpt>
      <trkpt lat="43.55896" lon="6.82501">
        <ele>228.1</ele>
        <time>2025-10-24T07:03:04.000Z</time>
      </trkpt>
      <trkpt lat="43.55899" lon="6.825">
        <ele>228.3</ele>
        <time>2025-10-24T07:03:05.000Z</time>
      </trkpt>
      <trkpt lat="43.55903" lon="6.825">
        <ele>228.6</ele>
        <time>2025-10-24T07:03:06.000Z</time>
      </trkpt>
      <trkpt lat="43.55905" lon="6.82499">
        <ele>228.8</ele>
        <time>2025-10-24T07:03:07.000Z</time>
      </trkpt>
      <trkpt lat="43.55908" lon="6.82498">
        <ele>229</ele>
        <time>2025-10-24T07:03:08.000Z</time>
      </trkpt>
      <trkpt lat="43.55912" lon="6.82497">
        <ele>229.3</ele>
        <time>2025-10-24T07:03:09.000Z</time>
      </trkpt>
      <trkpt lat="43.55915" lon="6.82496">
        <ele>229.5</ele>
        <time>2025-10-24T07:03:10.000Z</time>
      </trkpt>
      <trkpt lat="43.55917" lon="6.82495">
        <ele>229.8</ele>
        <time>2025-10-24T07:03:11.000Z</time>
      </trkpt>
      <trkpt lat="43.5592" lon="6.82494">
        <ele>230</ele>
        <time>2025-10-24T07:03:12.000Z</time>
      </trkpt>
      <trkpt lat="43.55923" lon="6.82493">
        <ele>230.2</ele>
        <time>2025-10-24T07:03:13.000Z</time>
      </trkpt>
      <trkpt lat="43.55926" lon="6.82493">
        <ele>230.5</ele>
        <time>2025-10-24T07:03:14.000Z</time>
      </trkpt>
      <trkpt lat="43.55928" lon="6.82493">
        <ele>230.6</ele>
        <time>2025-10-24T07:03:15.000Z</time>
      </trkpt>
      <trkpt lat="43.55931" lon="6.82492">
        <ele>230.8</ele>
        <time>2025-10-24T07:03:16.000Z</time>
      </trkpt>
      <trkpt lat="43.55933" lon="6.82492">
        <ele>230.9</ele>
        <time>2025-10-24T07:03:17.000Z</time>
      </trkpt>
      <trkpt lat="43.55935" lon="6.82492">
        <ele>231.1</ele>
        <time>2025-10-24T07:03:18.000Z</time>
      </trkpt>
      <trkpt lat="43.55937" lon="6.82492">
        <ele>231.2</ele>
        <time>2025-10-24T07:03:19.000Z</time>
      </trkpt>
      <trkpt lat="43.55938" lon="6.82492">
        <ele>231.3</ele>
        <time>2025-10-24T07:03:20.000Z</time>
      </trkpt>
      <trkpt lat="43.55939" lon="6.82493">
        <ele>231.3</ele>
        <time>2025-10-24T07:03:21.000Z</time>
      </trkpt>
      <trkpt lat="43.55939" lon="6.82492">
        <ele>231.3</ele>
        <time>2025-10-24T07:03:22.000Z</time>
      </trkpt>
      <trkpt lat="43.55939" lon="6.82492">
        <ele>231.3</ele>
        <time>2025-10-24T07:03:23.000Z</time>
      </trkpt>
      <trkpt lat="43.55939" lon="6.82492">
        <ele>231.3</ele>
        <time>2025-10-24T07:03:24.000Z</time>
      </trkpt>
      <trkpt lat="43.55939" lon="6.82492">
        <ele>231.4</ele>
        <time>2025-10-24T07:03:25.000Z</time>
      </trkpt>
      <trkpt lat="43.55939" lon="6.82492">
        <ele>231.4</ele>
        <time>2025-10-24T07:03:26.000Z</time>
      </trkpt>
      <trkpt lat="43.55939" lon="6.82493">
        <ele>231.4</ele>
        <time>2025-10-24T07:03:27.000Z</time>
      </trkpt>
      <trkpt lat="43.5594" lon="6.82492">
        <ele>231.4</ele>
        <time>2025-10-24T07:03:28.000Z</time>
      </trkpt>
      <trkpt lat="43.5594" lon="6.82492">
        <ele>231.4</ele>
        <time>2025-10-24T07:03:29.000Z</time>
      </trkpt>
      <trkpt lat="43.5594" lon="6.82492">
        <ele>231.5</ele>
        <time>2025-10-24T07:03:30.000Z</time>
      </trkpt>
      <trkpt lat="43.55941" lon="6.82492">
        <ele>231.6</ele>
        <time>2025-10-24T07:03:31.000Z</time>
      </trkpt>
      <trkpt lat="43.55943" lon="6.82491">
        <ele>231.7</ele>
        <time>2025-10-24T07:03:32.000Z</time>
      </trkpt>
      <trkpt lat="43.55945" lon="6.82491">
        <ele>231.8</ele>
        <time>2025-10-24T07:03:33.000Z</time>
      </trkpt>
      <trkpt lat="43.55947" lon="6.8249">
        <ele>232</ele>
        <time>2025-10-24T07:03:34.000Z</time>
      </trkpt>
      <trkpt lat="43.55949" lon="6.8249">
        <ele>232.1</ele>
        <time>2025-10-24T07:03:35.000Z</time>
      </trkpt>
      <trkpt lat="43.55951" lon="6.8249">
        <ele>232.3</ele>
        <time>2025-10-24T07:03:36.000Z</time>
      </trkpt>
      <trkpt lat="43.55952" lon="6.82491">
        <ele>232.3</ele>
        <time>2025-10-24T07:03:37.000Z</time>
      </trkpt>
      <trkpt lat="43.55952" lon="6.82491">
        <ele>232.4</ele>
        <time>2025-10-24T07:03:38.000Z</time>
      </trkpt>
      <trkpt lat="43.55953" lon="6.82491">
        <ele>232.4</ele>
        <time>2025-10-24T07:03:39.000Z</time>
      </trkpt>
      <trkpt lat="43.55952" lon="6.82491">
        <ele>232.4</ele>
        <time>2025-10-24T07:03:40.000Z</time>
      </trkpt>
      <trkpt lat="43.55952" lon="6.82492">
        <ele>232.4</ele>
        <time>2025-10-24T07:03:41.000Z</time>
      </trkpt>
      <trkpt lat="43.55952" lon="6.82492">
        <ele>232.5</ele>
        <time>2025-10-24T07:03:42.000Z</time>
      </trkpt>
      <trkpt lat="43.55952" lon="6.82492">
        <ele>232.5</ele>
        <time>2025-10-24T07:03:43.000Z</time>
      </trkpt>
      <trkpt lat="43.55953" lon="6.82492">
        <ele>232.5</ele>
        <time>2025-10-24T07:03:44.000Z</time>
      </trkpt>
      <trkpt lat="43.55953" lon="6.82493">
        <ele>232.6</ele>
        <time>2025-10-24T07:03:45.000Z</time>
      </trkpt>
      <trkpt lat="43.55953" lon="6.82493">
        <ele>232.6</ele>
        <time>2025-10-24T07:03:46.000Z</time>
      </trkpt>
      <trkpt lat="43.55952" lon="6.82493">
        <ele>232.7</ele>
        <time>2025-10-24T07:03:47.000Z</time>
      </trkpt>
      <trkpt lat="43.55952" lon="6.82494">
        <ele>232.7</ele>
        <time>2025-10-24T07:03:48.000Z</time>
      </trkpt>
      <trkpt lat="43.55952" lon="6.82494">
        <ele>232.7</ele>
        <time>2025-10-24T07:03:49.000Z</time>
      </trkpt>
      <trkpt lat="43.55952" lon="6.82494">
        <ele>232.7</ele>
        <time>2025-10-24T07:03:50.000Z</time>
      </trkpt>
      <trkpt lat="43.55952" lon="6.82494">
        <ele>232.7</ele>
        <time>2025-10-24T07:03:51.000Z</time>
      </trkpt>
      <trkpt lat="43.55952" lon="6.82494">
        <ele>232.7</ele>
        <time>2025-10-24T07:03:52.000Z</time>
      </trkpt>
      <trkpt lat="43.55952" lon="6.82494">
        <ele>232.7</ele>
        <time>2025-10-24T07:03:53.000Z</time>
      </trkpt>
      <trkpt lat="43.55952" lon="6.82494">
        <ele>232.7</ele>
        <time>2025-10-24T07:03:54.000Z</time>
      </trkpt>
      <trkpt lat="43.55952" lon="6.82494">
        <ele>232.7</ele>
        <time>2025-10-24T07:03:55.000Z</time>
      </trkpt>
      <trkpt lat="43.55952" lon="6.82494">
        <ele>232.7</ele>
        <time>2025-10-24T07:03:56.000Z</time>
      </trkpt>
      <trkpt lat="43.55952" lon="6.82494">
        <ele>232.7</ele>
        <time>2025-10-24T07:03:57.000Z</time>
      </trkpt>
      <trkpt lat="43.55953" lon="6.82494">
        <ele>232.8</ele>
        <time>2025-10-24T07:03:58.000Z</time>
      </trkpt>
      <trkpt lat="43.55954" lon="6.82496">
        <ele>232.9</ele>
        <time>2025-10-24T07:03:59.000Z</time>
      </trkpt>
      <trkpt lat="43.55956" lon="6.82498">
        <ele>233.1</ele>
        <time>2025-10-24T07:04:00.000Z</time>
      </trkpt>
      <trkpt lat="43.55958" lon="6.82501">
        <ele>233.3</ele>
        <time>2025-10-24T07:04:01.000Z</time>
      </trkpt>
      <trkpt lat="43.55961" lon="6.82503">
        <ele>233.5</ele>
        <time>2025-10-24T07:04:02.000Z</time>
      </trkpt>
      <trkpt lat="43.55963" lon="6.82507">
        <ele>233.7</ele>
        <time>2025-10-24T07:04:03.000Z</time>
      </trkpt>
      <trkpt lat="43.55966" lon="6.8251">
        <ele>233.9</ele>
        <time>2025-10-24T07:04:04.000Z</time>
      </trkpt>
      <trkpt lat="43.55969" lon="6.82513">
        <ele>234</ele>
        <time>2025-10-24T07:04:05.000Z</time>
      </trkpt>
      <trkpt lat="43.55971" lon="6.82516">
        <ele>234.2</ele>
        <time>2025-10-24T07:04:06.000Z</time>
      </trkpt>
      <trkpt lat="43.55974" lon="6.82518">
        <ele>234.3</ele>
        <time>2025-10-24T07:04:07.000Z</time>
      </trkpt>
      <trkpt lat="43.55977" lon="6.82521">
        <ele>234.4</ele>
        <time>2025-10-24T07:04:08.000Z</time>
      </trkpt>
      <trkpt lat="43.55979" lon="6.82523">
        <ele>234.5</ele>
        <time>2025-10-24T07:04:09.000Z</time>
      </trkpt>
      <trkpt lat="43.55981" lon="6.82525">
        <ele>234.7</ele>
        <time>2025-10-24T07:04:10.000Z</time>
      </trkpt>
      <trkpt lat="43.55984" lon="6.82527">
        <ele>234.8</ele>
        <time>2025-10-24T07:04:11.000Z</time>
      </trkpt>
      <trkpt lat="43.55987" lon="6.82529">
        <ele>234.9</ele>
        <time>2025-10-24T07:04:12.000Z</time>
      </trkpt>
      <trkpt lat="43.5599" lon="6.82531">
        <ele>235</ele>
        <time>2025-10-24T07:04:13.000Z</time>
      </trkpt>
      <trkpt lat="43.55993" lon="6.82533">
        <ele>235.1</ele>
        <time>2025-10-24T07:04:14.000Z</time>
      </trkpt>
      <trkpt lat="43.55996" lon="6.82535">
        <ele>235.2</ele>
        <time>2025-10-24T07:04:15.000Z</time>
      </trkpt>
      <trkpt lat="43.55999" lon="6.82537">
        <ele>235.3</ele>
        <time>2025-10-24T07:04:16.000Z</time>
      </trkpt>
      <trkpt lat="43.56002" lon="6.82538">
        <ele>235.3</ele>
        <time>2025-10-24T07:04:17.000Z</time>
      </trkpt>
      <trkpt lat="43.56005" lon="6.82539">
        <ele>235.4</ele>
        <time>2025-10-24T07:04:18.000Z</time>
      </trkpt>
      <trkpt lat="43.56008" lon="6.8254">
        <ele>235.5</ele>
        <time>2025-10-24T07:04:19.000Z</time>
      </trkpt>
      <trkpt lat="43.56011" lon="6.82541">
        <ele>235.5</ele>
        <time>2025-10-24T07:04:20.000Z</time>
      </trkpt>
      <trkpt lat="43.56014" lon="6.82541">
        <ele>235.6</ele>
        <time>2025-10-24T07:04:21.000Z</time>
      </trkpt>
      <trkpt lat="43.56016" lon="6.82541">
        <ele>235.7</ele>
        <time>2025-10-24T07:04:22.000Z</time>
      </trkpt>
      <trkpt lat="43.56019" lon="6.82541">
        <ele>235.7</ele>
        <time>2025-10-24T07:04:23.000Z</time>
      </trkpt>
      <trkpt lat="43.56022" lon="6.82541">
        <ele>235.8</ele>
        <time>2025-10-24T07:04:24.000Z</time>
      </trkpt>
      <trkpt lat="43.56025" lon="6.82541">
        <ele>235.8</ele>
        <time>2025-10-24T07:04:25.000Z</time>
      </trkpt>
      <trkpt lat="43.56028" lon="6.82541">
        <ele>235.9</ele>
        <time>2025-10-24T07:04:26.000Z</time>
      </trkpt>
      <trkpt lat="43.56031" lon="6.82541">
        <ele>236</ele>
        <time>2025-10-24T07:04:27.000Z</time>
      </trkpt>
      <trkpt lat="43.56033" lon="6.82541">
        <ele>236</ele>
        <time>2025-10-24T07:04:28.000Z</time>
      </trkpt>
      <trkpt lat="43.56037" lon="6.82541">
        <ele>236.1</ele>
        <time>2025-10-24T07:04:29.000Z</time>
      </trkpt>
      <trkpt lat="43.56039" lon="6.82541">
        <ele>236.1</ele>
        <time>2025-10-24T07:04:30.000Z</time>
      </trkpt>
      <trkpt lat="43.56042" lon="6.82542">
        <ele>236.2</ele>
        <time>2025-10-24T07:04:31.000Z</time>
      </trkpt>
      <trkpt lat="43.56044" lon="6.82542">
        <ele>236.2</ele>
        <time>2025-10-24T07:04:32.000Z</time>
      </trkpt>
      <trkpt lat="43.56047" lon="6.82542">
        <ele>236.3</ele>
        <time>2025-10-24T07:04:33.000Z</time>
      </trkpt>
      <trkpt lat="43.56049" lon="6.82541">
        <ele>236.3</ele>
        <time>2025-10-24T07:04:34.000Z</time>
      </trkpt>
      <trkpt lat="43.56052" lon="6.82539">
        <ele>236.4</ele>
        <time>2025-10-24T07:04:35.000Z</time>
      </trkpt>
      <trkpt lat="43.56054" lon="6.82538">
        <ele>236.4</ele>
        <time>2025-10-24T07:04:36.000Z</time>
      </trkpt>
      <trkpt lat="43.56057" lon="6.82535">
        <ele>236.4</ele>
        <time>2025-10-24T07:04:37.000Z</time>
      </trkpt>
      <trkpt lat="43.56058" lon="6.82533">
        <ele>236.5</ele>
        <time>2025-10-24T07:04:38.000Z</time>
      </trkpt>
      <trkpt lat="43.5606" lon="6.8253">
        <ele>236.5</ele>
        <time>2025-10-24T07:04:39.000Z</time>
      </trkpt>
      <trkpt lat="43.56061" lon="6.82528">
        <ele>236.5</ele>
        <time>2025-10-24T07:04:40.000Z</time>
      </trkpt>
      <trkpt lat="43.56063" lon="6.82525">
        <ele>236.5</ele>
        <time>2025-10-24T07:04:41.000Z</time>
      </trkpt>
      <trkpt lat="43.56064" lon="6.82522">
        <ele>236.6</ele>
        <time>2025-10-24T07:04:42.000Z</time>
      </trkpt>
      <trkpt lat="43.56066" lon="6.82518">
        <ele>236.6</ele>
        <time>2025-10-24T07:04:43.000Z</time>
      </trkpt>
      <trkpt lat="43.56068" lon="6.82514">
        <ele>236.7</ele>
        <time>2025-10-24T07:04:44.000Z</time>
      </trkpt>
      <trkpt lat="43.56071" lon="6.82509">
        <ele>236.7</ele>
        <time>2025-10-24T07:04:45.000Z</time>
      </trkpt>
      <trkpt lat="43.56075" lon="6.82503">
        <ele>236.9</ele>
        <time>2025-10-24T07:04:46.000Z</time>
      </trkpt>
      <trkpt lat="43.56078" lon="6.82498">
        <ele>237</ele>
        <time>2025-10-24T07:04:47.000Z</time>
      </trkpt>
      <trkpt lat="43.56082" lon="6.82492">
        <ele>237.2</ele>
        <time>2025-10-24T07:04:48.000Z</time>
      </trkpt>
      <trkpt lat="43.56084" lon="6.82488">
        <ele>237.3</ele>
        <time>2025-10-24T07:04:49.000Z</time>
      </trkpt>
      <trkpt lat="43.56087" lon="6.82483">
        <ele>237.4</ele>
        <time>2025-10-24T07:04:50.000Z</time>
      </trkpt>
      <trkpt lat="43.56088" lon="6.82479">
        <ele>237.5</ele>
        <time>2025-10-24T07:04:51.000Z</time>
      </trkpt>
      <trkpt lat="43.5609" lon="6.82476">
        <ele>237.6</ele>
        <time>2025-10-24T07:04:52.000Z</time>
      </trkpt>
      <trkpt lat="43.56092" lon="6.82472">
        <ele>237.7</ele>
        <time>2025-10-24T07:04:53.000Z</time>
      </trkpt>
      <trkpt lat="43.56094" lon="6.82469">
        <ele>237.8</ele>
        <time>2025-10-24T07:04:54.000Z</time>
      </trkpt>
      <trkpt lat="43.56096" lon="6.82466">
        <ele>237.9</ele>
        <time>2025-10-24T07:04:55.000Z</time>
      </trkpt>
      <trkpt lat="43.56099" lon="6.82463">
        <ele>238</ele>
        <time>2025-10-24T07:04:56.000Z</time>
      </trkpt>
      <trkpt lat="43.56102" lon="6.8246">
        <ele>238.1</ele>
        <time>2025-10-24T07:04:57.000Z</time>
      </trkpt>
      <trkpt lat="43.56105" lon="6.82456">
        <ele>238.2</ele>
        <time>2025-10-24T07:04:58.000Z</time>
      </trkpt>
      <trkpt lat="43.56108" lon="6.82454">
        <ele>238.3</ele>
        <time>2025-10-24T07:04:59.000Z</time>
      </trkpt>
      <trkpt lat="43.56111" lon="6.8245">
        <ele>238.5</ele>
        <time>2025-10-24T07:05:00.000Z</time>
      </trkpt>
      <trkpt lat="43.56115" lon="6.82447">
        <ele>238.6</ele>
        <time>2025-10-24T07:05:01.000Z</time>
      </trkpt>
      <trkpt lat="43.56118" lon="6.82443">
        <ele>238.7</ele>
        <time>2025-10-24T07:05:02.000Z</time>
      </trkpt>
      <trkpt lat="43.56121" lon="6.82441">
        <ele>238.9</ele>
        <time>2025-10-24T07:05:03.000Z</time>
      </trkpt>
      <trkpt lat="43.56125" lon="6.82438">
        <ele>239</ele>
        <time>2025-10-24T07:05:04.000Z</time>
      </trkpt>
      <trkpt lat="43.56129" lon="6.82437">
        <ele>239.2</ele>
        <time>2025-10-24T07:05:05.000Z</time>
      </trkpt>
      <trkpt lat="43.56132" lon="6.82437">
        <ele>239.2</ele>
        <time>2025-10-24T07:05:06.000Z</time>
      </trkpt>
      <trkpt lat="43.56136" lon="6.82437">
        <ele>239.4</ele>
        <time>2025-10-24T07:05:07.000Z</time>
      </trkpt>
      <trkpt lat="43.56141" lon="6.82437">
        <ele>239.5</ele>
        <time>2025-10-24T07:05:08.000Z</time>
      </trkpt>
      <trkpt lat="43.56144" lon="6.82436">
        <ele>239.6</ele>
        <time>2025-10-24T07:05:09.000Z</time>
      </trkpt>
      <trkpt lat="43.56149" lon="6.82436">
        <ele>239.8</ele>
        <time>2025-10-24T07:05:10.000Z</time>
      </trkpt>
      <trkpt lat="43.56152" lon="6.82435">
        <ele>239.9</ele>
        <time>2025-10-24T07:05:11.000Z</time>
      </trkpt>
      <trkpt lat="43.56156" lon="6.82433">
        <ele>240</ele>
        <time>2025-10-24T07:05:12.000Z</time>
      </trkpt>
      <trkpt lat="43.56159" lon="6.82431">
        <ele>240.1</ele>
        <time>2025-10-24T07:05:13.000Z</time>
      </trkpt>
      <trkpt lat="43.56163" lon="6.82428">
        <ele>240.2</ele>
        <time>2025-10-24T07:05:14.000Z</time>
      </trkpt>
      <trkpt lat="43.56166" lon="6.82426">
        <ele>240.3</ele>
        <time>2025-10-24T07:05:15.000Z</time>
      </trkpt>
      <trkpt lat="43.5617" lon="6.82423">
        <ele>240.4</ele>
        <time>2025-10-24T07:05:16.000Z</time>
      </trkpt>
      <trkpt lat="43.56173" lon="6.8242">
        <ele>240.4</ele>
        <time>2025-10-24T07:05:17.000Z</time>
      </trkpt>
      <trkpt lat="43.56177" lon="6.82418">
        <ele>240.5</ele>
        <time>2025-10-24T07:05:18.000Z</time>
      </trkpt>
      <trkpt lat="43.5618" lon="6.82415">
        <ele>240.6</ele>
        <time>2025-10-24T07:05:19.000Z</time>
      </trkpt>
      <trkpt lat="43.56184" lon="6.82411">
        <ele>240.6</ele>
        <time>2025-10-24T07:05:20.000Z</time>
      </trkpt>
      <trkpt lat="43.56187" lon="6.82409">
        <ele>240.7</ele>
        <time>2025-10-24T07:05:21.000Z</time>
      </trkpt>
      <trkpt lat="43.5619" lon="6.82405">
        <ele>240.7</ele>
        <time>2025-10-24T07:05:22.000Z</time>
      </trkpt>
      <trkpt lat="43.56193" lon="6.82402">
        <ele>240.7</ele>
        <time>2025-10-24T07:05:23.000Z</time>
      </trkpt>
      <trkpt lat="43.56195" lon="6.82398">
        <ele>240.8</ele>
        <time>2025-10-24T07:05:24.000Z</time>
      </trkpt>
      <trkpt lat="43.56199" lon="6.82394">
        <ele>240.8</ele>
        <time>2025-10-24T07:05:25.000Z</time>
      </trkpt>
      <trkpt lat="43.56201" lon="6.8239">
        <ele>240.8</ele>
        <time>2025-10-24T07:05:26.000Z</time>
      </trkpt>
      <trkpt lat="43.56204" lon="6.82387">
        <ele>240.8</ele>
        <time>2025-10-24T07:05:27.000Z</time>
      </trkpt>
      <trkpt lat="43.56207" lon="6.82383">
        <ele>240.8</ele>
        <time>2025-10-24T07:05:28.000Z</time>
      </trkpt>
      <trkpt lat="43.56211" lon="6.82379">
        <ele>240.8</ele>
        <time>2025-10-24T07:05:29.000Z</time>
      </trkpt>
      <trkpt lat="43.56214" lon="6.82377">
        <ele>240.8</ele>
        <time>2025-10-24T07:05:30.000Z</time>
      </trkpt>
      <trkpt lat="43.56217" lon="6.82375">
        <ele>240.8</ele>
        <time>2025-10-24T07:05:31.000Z</time>
      </trkpt>
      <trkpt lat="43.56221" lon="6.82372">
        <ele>240.8</ele>
        <time>2025-10-24T07:05:32.000Z</time>
      </trkpt>
      <trkpt lat="43.56225" lon="6.8237">
        <ele>240.9</ele>
        <time>2025-10-24T07:05:33.000Z</time>
      </trkpt>
      <trkpt lat="43.56229" lon="6.82369">
        <ele>240.9</ele>
        <time>2025-10-24T07:05:34.000Z</time>
      </trkpt>
      <trkpt lat="43.56233" lon="6.82368">
        <ele>241</ele>
        <time>2025-10-24T07:05:35.000Z</time>
      </trkpt>
      <trkpt lat="43.56237" lon="6.82368">
        <ele>241</ele>
        <time>2025-10-24T07:05:36.000Z</time>
      </trkpt>
      <trkpt lat="43.5624" lon="6.82368">
        <ele>241</ele>
        <time>2025-10-24T07:05:37.000Z</time>
      </trkpt>
      <trkpt lat="43.56245" lon="6.82368">
        <ele>241</ele>
        <time>2025-10-24T07:05:38.000Z</time>
      </trkpt>
      <trkpt lat="43.5625" lon="6.82368">
        <ele>241</ele>
        <time>2025-10-24T07:05:39.000Z</time>
      </trkpt>
      <trkpt lat="43.56254" lon="6.82367">
        <ele>241</ele>
        <time>2025-10-24T07:05:40.000Z</time>
      </trkpt>
      <trkpt lat="43.56257" lon="6.82367">
        <ele>241</ele>
        <time>2025-10-24T07:05:41.000Z</time>
      </trkpt>
      <trkpt lat="43.56261" lon="6.82366">
        <ele>241</ele>
        <time>2025-10-24T07:05:42.000Z</time>
      </trkpt>
      <trkpt lat="43.56265" lon="6.82366">
        <ele>240.9</ele>
        <time>2025-10-24T07:05:43.000Z</time>
      </trkpt>
      <trkpt lat="43.56269" lon="6.82365">
        <ele>240.9</ele>
        <time>2025-10-24T07:05:44.000Z</time>
      </trkpt>
      <trkpt lat="43.56273" lon="6.82364">
        <ele>240.8</ele>
        <time>2025-10-24T07:05:45.000Z</time>
      </trkpt>
      <trkpt lat="43.56279" lon="6.82363">
        <ele>240.7</ele>
        <time>2025-10-24T07:05:46.000Z</time>
      </trkpt>
      <trkpt lat="43.56282" lon="6.82362">
        <ele>240.6</ele>
        <time>2025-10-24T07:05:47.000Z</time>
      </trkpt>
      <trkpt lat="43.56287" lon="6.82361">
        <ele>240.5</ele>
        <time>2025-10-24T07:05:48.000Z</time>
      </trkpt>
      <trkpt lat="43.56293" lon="6.82359">
        <ele>240.3</ele>
        <time>2025-10-24T07:05:49.000Z</time>
      </trkpt>
      <trkpt lat="43.56298" lon="6.82358">
        <ele>240.1</ele>
        <time>2025-10-24T07:05:50.000Z</time>
      </trkpt>
      <trkpt lat="43.56302" lon="6.82356">
        <ele>239.9</ele>
        <time>2025-10-24T07:05:51.000Z</time>
      </trkpt>
      <trkpt lat="43.56307" lon="6.82355">
        <ele>239.7</ele>
        <time>2025-10-24T07:05:52.000Z</time>
      </trkpt>
      <trkpt lat="43.56313" lon="6.82353">
        <ele>239.5</ele>
        <time>2025-10-24T07:05:53.000Z</time>
      </trkpt>
      <trkpt lat="43.56319" lon="6.82352">
        <ele>239.2</ele>
        <time>2025-10-24T07:05:54.000Z</time>
      </trkpt>
      <trkpt lat="43.56324" lon="6.8235">
        <ele>239</ele>
        <time>2025-10-24T07:05:55.000Z</time>
      </trkpt>
      <trkpt lat="43.56328" lon="6.82348">
        <ele>238.9</ele>
        <time>2025-10-24T07:05:56.000Z</time>
      </trkpt>
      <trkpt lat="43.56334" lon="6.82347">
        <ele>238.6</ele>
        <time>2025-10-24T07:05:57.000Z</time>
      </trkpt>
      <trkpt lat="43.56339" lon="6.82345">
        <ele>238.4</ele>
        <time>2025-10-24T07:05:58.000Z</time>
      </trkpt>
      <trkpt lat="43.56345" lon="6.82343">
        <ele>238.1</ele>
        <time>2025-10-24T07:05:59.000Z</time>
      </trkpt>
      <trkpt lat="43.56351" lon="6.82341">
        <ele>237.8</ele>
        <time>2025-10-24T07:06:00.000Z</time>
      </trkpt>
      <trkpt lat="43.56355" lon="6.8234">
        <ele>237.6</ele>
        <time>2025-10-24T07:06:01.000Z</time>
      </trkpt>
      <trkpt lat="43.56361" lon="6.82339">
        <ele>237.3</ele>
        <time>2025-10-24T07:06:02.000Z</time>
      </trkpt>
      <trkpt lat="43.56367" lon="6.82338">
        <ele>237.1</ele>
        <time>2025-10-24T07:06:03.000Z</time>
      </trkpt>
      <trkpt lat="43.56374" lon="6.82338">
        <ele>236.8</ele>
        <time>2025-10-24T07:06:04.000Z</time>
      </trkpt>
      <trkpt lat="43.5638" lon="6.82337">
        <ele>236.6</ele>
        <time>2025-10-24T07:06:05.000Z</time>
      </trkpt>
      <trkpt lat="43.56386" lon="6.82338">
        <ele>236.4</ele>
        <time>2025-10-24T07:06:06.000Z</time>
      </trkpt>
      <trkpt lat="43.56391" lon="6.82338">
        <ele>236.3</ele>
        <time>2025-10-24T07:06:07.000Z</time>
      </trkpt>
      <trkpt lat="43.56397" lon="6.82338">
        <ele>236.1</ele>
        <time>2025-10-24T07:06:08.000Z</time>
      </trkpt>
      <trkpt lat="43.56404" lon="6.82339">
        <ele>235.8</ele>
        <time>2025-10-24T07:06:09.000Z</time>
      </trkpt>
      <trkpt lat="43.56409" lon="6.82339">
        <ele>235.7</ele>
        <time>2025-10-24T07:06:10.000Z</time>
      </trkpt>
      <trkpt lat="43.56416" lon="6.8234">
        <ele>235.5</ele>
        <time>2025-10-24T07:06:11.000Z</time>
      </trkpt>
      <trkpt lat="43.56421" lon="6.8234">
        <ele>235.3</ele>
        <time>2025-10-24T07:06:12.000Z</time>
      </trkpt>
      <trkpt lat="43.56427" lon="6.82341">
        <ele>235.1</ele>
        <time>2025-10-24T07:06:13.000Z</time>
      </trkpt>
      <trkpt lat="43.56432" lon="6.82341">
        <ele>235</ele>
        <time>2025-10-24T07:06:14.000Z</time>
      </trkpt>
      <trkpt lat="43.56438" lon="6.82342">
        <ele>234.8</ele>
        <time>2025-10-24T07:06:15.000Z</time>
      </trkpt>
      <trkpt lat="43.56444" lon="6.82342">
        <ele>234.7</ele>
        <time>2025-10-24T07:06:16.000Z</time>
      </trkpt>
      <trkpt lat="43.56449" lon="6.82342">
        <ele>234.6</ele>
        <time>2025-10-24T07:06:17.000Z</time>
      </trkpt>
      <trkpt lat="43.56455" lon="6.82341">
        <ele>234.5</ele>
        <time>2025-10-24T07:06:18.000Z</time>
      </trkpt>
      <trkpt lat="43.5646" lon="6.8234">
        <ele>234.4</ele>
        <time>2025-10-24T07:06:19.000Z</time>
      </trkpt>
      <trkpt lat="43.56465" lon="6.82339">
        <ele>234.3</ele>
        <time>2025-10-24T07:06:20.000Z</time>
      </trkpt>
      <trkpt lat="43.5647" lon="6.82338">
        <ele>234.2</ele>
        <time>2025-10-24T07:06:21.000Z</time>
      </trkpt>
      <trkpt lat="43.56475" lon="6.82337">
        <ele>234.2</ele>
        <time>2025-10-24T07:06:22.000Z</time>
      </trkpt>
      <trkpt lat="43.56479" lon="6.82336">
        <ele>234.1</ele>
        <time>2025-10-24T07:06:23.000Z</time>
      </trkpt>
      <trkpt lat="43.56484" lon="6.82335">
        <ele>234</ele>
        <time>2025-10-24T07:06:24.000Z</time>
      </trkpt>
      <trkpt lat="43.56489" lon="6.82333">
        <ele>234</ele>
        <time>2025-10-24T07:06:25.000Z</time>
      </trkpt>
      <trkpt lat="43.56493" lon="6.82332">
        <ele>234</ele>
        <time>2025-10-24T07:06:26.000Z</time>
      </trkpt>
      <trkpt lat="43.56497" lon="6.82331">
        <ele>233.9</ele>
        <time>2025-10-24T07:06:27.000Z</time>
      </trkpt>
      <trkpt lat="43.56501" lon="6.8233">
        <ele>233.9</ele>
        <time>2025-10-24T07:06:28.000Z</time>
      </trkpt>
      <trkpt lat="43.56506" lon="6.82331">
        <ele>233.8</ele>
        <time>2025-10-24T07:06:29.000Z</time>
      </trkpt>
      <trkpt lat="43.56509" lon="6.82333">
        <ele>233.8</ele>
        <time>2025-10-24T07:06:30.000Z</time>
      </trkpt>
      <trkpt lat="43.56513" lon="6.82336">
        <ele>233.6</ele>
        <time>2025-10-24T07:06:31.000Z</time>
      </trkpt>
      <trkpt lat="43.56515" lon="6.8234">
        <ele>233.4</ele>
        <time>2025-10-24T07:06:32.000Z</time>
      </trkpt>
      <trkpt lat="43.56517" lon="6.82346">
        <ele>233.2</ele>
        <time>2025-10-24T07:06:33.000Z</time>
      </trkpt>
      <trkpt lat="43.56519" lon="6.82352">
        <ele>233</ele>
        <time>2025-10-24T07:06:34.000Z</time>
      </trkpt>
      <trkpt lat="43.56521" lon="6.82358">
        <ele>232.8</ele>
        <time>2025-10-24T07:06:35.000Z</time>
      </trkpt>
      <trkpt lat="43.56524" lon="6.82365">
        <ele>232.7</ele>
        <time>2025-10-24T07:06:36.000Z</time>
      </trkpt>
      <trkpt lat="43.56526" lon="6.82372">
        <ele>232.5</ele>
        <time>2025-10-24T07:06:37.000Z</time>
      </trkpt>
      <trkpt lat="43.56529" lon="6.82379">
        <ele>232.3</ele>
        <time>2025-10-24T07:06:38.000Z</time>
      </trkpt>
      <trkpt lat="43.56532" lon="6.82385">
        <ele>232.2</ele>
        <time>2025-10-24T07:06:39.000Z</time>
      </trkpt>
      <trkpt lat="43.56535" lon="6.82392">
        <ele>232.1</ele>
        <time>2025-10-24T07:06:40.000Z</time>
      </trkpt>
      <trkpt lat="43.56539" lon="6.82397">
        <ele>231.9</ele>
        <time>2025-10-24T07:06:41.000Z</time>
      </trkpt>
      <trkpt lat="43.56542" lon="6.82403">
        <ele>231.8</ele>
        <time>2025-10-24T07:06:42.000Z</time>
      </trkpt>
      <trkpt lat="43.56545" lon="6.82409">
        <ele>231.6</ele>
        <time>2025-10-24T07:06:43.000Z</time>
      </trkpt>
      <trkpt lat="43.56548" lon="6.82415">
        <ele>231.5</ele>
        <time>2025-10-24T07:06:44.000Z</time>
      </trkpt>
      <trkpt lat="43.56551" lon="6.82421">
        <ele>231.3</ele>
        <time>2025-10-24T07:06:45.000Z</time>
      </trkpt>
      <trkpt lat="43.56554" lon="6.82426">
        <ele>231.1</ele>
        <time>2025-10-24T07:06:46.000Z</time>
      </trkpt>
      <trkpt lat="43.56558" lon="6.82433">
        <ele>230.9</ele>
        <time>2025-10-24T07:06:47.000Z</time>
      </trkpt>
      <trkpt lat="43.56561" lon="6.82438">
        <ele>230.7</ele>
        <time>2025-10-24T07:06:48.000Z</time>
      </trkpt>
      <trkpt lat="43.56565" lon="6.82443">
        <ele>230.5</ele>
        <time>2025-10-24T07:06:49.000Z</time>
      </trkpt>
      <trkpt lat="43.56568" lon="6.82449">
        <ele>230.3</ele>
        <time>2025-10-24T07:06:50.000Z</time>
      </trkpt>
      <trkpt lat="43.56572" lon="6.82456">
        <ele>230.1</ele>
        <time>2025-10-24T07:06:51.000Z</time>
      </trkpt>
      <trkpt lat="43.56575" lon="6.82463">
        <ele>229.8</ele>
        <time>2025-10-24T07:06:52.000Z</time>
      </trkpt>
      <trkpt lat="43.56578" lon="6.82468">
        <ele>229.6</ele>
        <time>2025-10-24T07:06:53.000Z</time>
      </trkpt>
      <trkpt lat="43.56581" lon="6.82475">
        <ele>229.4</ele>
        <time>2025-10-24T07:06:54.000Z</time>
      </trkpt>
      <trkpt lat="43.56585" lon="6.82482">
        <ele>229.1</ele>
        <time>2025-10-24T07:06:55.000Z</time>
      </trkpt>
      <trkpt lat="43.56588" lon="6.82488">
        <ele>228.9</ele>
        <time>2025-10-24T07:06:56.000Z</time>
      </trkpt>
      <trkpt lat="43.56592" lon="6.82495">
        <ele>228.8</ele>
        <time>2025-10-24T07:06:57.000Z</time>
      </trkpt>
      <trkpt lat="43.56596" lon="6.82501">
        <ele>228.6</ele>
        <time>2025-10-24T07:06:58.000Z</time>
      </trkpt>
      <trkpt lat="43.566" lon="6.82507">
        <ele>228.6</ele>
        <time>2025-10-24T07:06:59.000Z</time>
      </trkpt>
      <trkpt lat="43.56604" lon="6.82513">
        <ele>228.6</ele>
        <time>2025-10-24T07:07:00.000Z</time>
      </trkpt>
      <trkpt lat="43.56608" lon="6.82518">
        <ele>228.6</ele>
        <time>2025-10-24T07:07:01.000Z</time>
      </trkpt>
      <trkpt lat="43.56612" lon="6.82522">
        <ele>228.5</ele>
        <time>2025-10-24T07:07:02.000Z</time>
      </trkpt>
      <trkpt lat="43.56617" lon="6.82525">
        <ele>228.4</ele>
        <time>2025-10-24T07:07:03.000Z</time>
      </trkpt>
      <trkpt lat="43.56622" lon="6.82525">
        <ele>228.2</ele>
        <time>2025-10-24T07:07:04.000Z</time>
      </trkpt>
      <trkpt lat="43.56626" lon="6.82525">
        <ele>228.1</ele>
        <time>2025-10-24T07:07:05.000Z</time>
      </trkpt>
      <trkpt lat="43.56631" lon="6.82525">
        <ele>227.9</ele>
        <time>2025-10-24T07:07:06.000Z</time>
      </trkpt>
      <trkpt lat="43.56636" lon="6.82524">
        <ele>227.8</ele>
        <time>2025-10-24T07:07:07.000Z</time>
      </trkpt>
      <trkpt lat="43.5664" lon="6.82521">
        <ele>227.6</ele>
        <time>2025-10-24T07:07:08.000Z</time>
      </trkpt>
      <trkpt lat="43.56645" lon="6.82518">
        <ele>227.3</ele>
        <time>2025-10-24T07:07:09.000Z</time>
      </trkpt>
      <trkpt lat="43.5665" lon="6.82514">
        <ele>227.1</ele>
        <time>2025-10-24T07:07:10.000Z</time>
      </trkpt>
      <trkpt lat="43.56656" lon="6.8251">
        <ele>226.7</ele>
        <time>2025-10-24T07:07:11.000Z</time>
      </trkpt>
      <trkpt lat="43.56662" lon="6.82504">
        <ele>226.4</ele>
        <time>2025-10-24T07:07:12.000Z</time>
      </trkpt>
      <trkpt lat="43.56669" lon="6.82498">
        <ele>226.1</ele>
        <time>2025-10-24T07:07:13.000Z</time>
      </trkpt>
      <trkpt lat="43.56673" lon="6.82494">
        <ele>225.9</ele>
        <time>2025-10-24T07:07:14.000Z</time>
      </trkpt>
      <trkpt lat="43.56678" lon="6.82489">
        <ele>225.7</ele>
        <time>2025-10-24T07:07:15.000Z</time>
      </trkpt>
      <trkpt lat="43.56684" lon="6.82483">
        <ele>225.5</ele>
        <time>2025-10-24T07:07:16.000Z</time>
      </trkpt>
      <trkpt lat="43.5669" lon="6.82478">
        <ele>225.3</ele>
        <time>2025-10-24T07:07:17.000Z</time>
      </trkpt>
      <trkpt lat="43.56696" lon="6.82472">
        <ele>225.1</ele>
        <time>2025-10-24T07:07:18.000Z</time>
      </trkpt>
      <trkpt lat="43.56702" lon="6.82467">
        <ele>225</ele>
        <time>2025-10-24T07:07:19.000Z</time>
      </trkpt>
      <trkpt lat="43.56708" lon="6.82462">
        <ele>224.9</ele>
        <time>2025-10-24T07:07:20.000Z</time>
      </trkpt>
      <trkpt lat="43.56713" lon="6.82458">
        <ele>224.8</ele>
        <time>2025-10-24T07:07:21.000Z</time>
      </trkpt>
      <trkpt lat="43.56719" lon="6.82454">
        <ele>224.7</ele>
        <time>2025-10-24T07:07:22.000Z</time>
      </trkpt>
      <trkpt lat="43.56724" lon="6.82451">
        <ele>224.6</ele>
        <time>2025-10-24T07:07:23.000Z</time>
      </trkpt>
      <trkpt lat="43.56729" lon="6.82447">
        <ele>224.5</ele>
        <time>2025-10-24T07:07:24.000Z</time>
      </trkpt>
      <trkpt lat="43.56733" lon="6.82445">
        <ele>224.3</ele>
        <time>2025-10-24T07:07:25.000Z</time>
      </trkpt>
      <trkpt lat="43.56739" lon="6.82442">
        <ele>224.2</ele>
        <time>2025-10-24T07:07:26.000Z</time>
      </trkpt>
      <trkpt lat="43.56744" lon="6.82439">
        <ele>224</ele>
        <time>2025-10-24T07:07:27.000Z</time>
      </trkpt>
      <trkpt lat="43.56748" lon="6.82438">
        <ele>223.9</ele>
        <time>2025-10-24T07:07:28.000Z</time>
      </trkpt>
      <trkpt lat="43.56755" lon="6.82435">
        <ele>223.7</ele>
        <time>2025-10-24T07:07:29.000Z</time>
      </trkpt>
      <trkpt lat="43.56758" lon="6.82432">
        <ele>223.5</ele>
        <time>2025-10-24T07:07:30.000Z</time>
      </trkpt>
      <trkpt lat="43.56763" lon="6.82429">
        <ele>223.3</ele>
        <time>2025-10-24T07:07:31.000Z</time>
      </trkpt>
      <trkpt lat="43.56767" lon="6.82426">
        <ele>223.1</ele>
        <time>2025-10-24T07:07:32.000Z</time>
      </trkpt>
      <trkpt lat="43.56772" lon="6.82421">
        <ele>222.8</ele>
        <time>2025-10-24T07:07:33.000Z</time>
      </trkpt>
      <trkpt lat="43.56776" lon="6.82418">
        <ele>222.6</ele>
        <time>2025-10-24T07:07:34.000Z</time>
      </trkpt>
      <trkpt lat="43.5678" lon="6.82414">
        <ele>222.4</ele>
        <time>2025-10-24T07:07:35.000Z</time>
      </trkpt>
      <trkpt lat="43.56786" lon="6.82411">
        <ele>222.1</ele>
        <time>2025-10-24T07:07:36.000Z</time>
      </trkpt>
      <trkpt lat="43.5679" lon="6.82408">
        <ele>221.9</ele>
        <time>2025-10-24T07:07:37.000Z</time>
      </trkpt>
      <trkpt lat="43.56795" lon="6.82406">
        <ele>221.7</ele>
        <time>2025-10-24T07:07:38.000Z</time>
      </trkpt>
      <trkpt lat="43.568" lon="6.82403">
        <ele>221.5</ele>
        <time>2025-10-24T07:07:39.000Z</time>
      </trkpt>
      <trkpt lat="43.56805" lon="6.82401">
        <ele>221.5</ele>
        <time>2025-10-24T07:07:40.000Z</time>
      </trkpt>
      <trkpt lat="43.56811" lon="6.82399">
        <ele>221.4</ele>
        <time>2025-10-24T07:07:41.000Z</time>
      </trkpt>
      <trkpt lat="43.56816" lon="6.82397">
        <ele>221.4</ele>
        <time>2025-10-24T07:07:42.000Z</time>
      </trkpt>
      <trkpt lat="43.5682" lon="6.82397">
        <ele>221.5</ele>
        <time>2025-10-24T07:07:43.000Z</time>
      </trkpt>
      <trkpt lat="43.56826" lon="6.82396">
        <ele>221.5</ele>
        <time>2025-10-24T07:07:44.000Z</time>
      </trkpt>
      <trkpt lat="43.5683" lon="6.82396">
        <ele>221.6</ele>
        <time>2025-10-24T07:07:45.000Z</time>
      </trkpt>
      <trkpt lat="43.56836" lon="6.82396">
        <ele>221.6</ele>
        <time>2025-10-24T07:07:46.000Z</time>
      </trkpt>
      <trkpt lat="43.5684" lon="6.82397">
        <ele>221.7</ele>
        <time>2025-10-24T07:07:47.000Z</time>
      </trkpt>
      <trkpt lat="43.56845" lon="6.82398">
        <ele>221.8</ele>
        <time>2025-10-24T07:07:48.000Z</time>
      </trkpt>
      <trkpt lat="43.56849" lon="6.82399">
        <ele>221.9</ele>
        <time>2025-10-24T07:07:49.000Z</time>
      </trkpt>
      <trkpt lat="43.56853" lon="6.824">
        <ele>222</ele>
        <time>2025-10-24T07:07:50.000Z</time>
      </trkpt>
      <trkpt lat="43.56858" lon="6.82402">
        <ele>222.1</ele>
        <time>2025-10-24T07:07:51.000Z</time>
      </trkpt>
      <trkpt lat="43.56862" lon="6.82403">
        <ele>222.2</ele>
        <time>2025-10-24T07:07:52.000Z</time>
      </trkpt>
      <trkpt lat="43.56867" lon="6.82404">
        <ele>222.3</ele>
        <time>2025-10-24T07:07:53.000Z</time>
      </trkpt>
      <trkpt lat="43.5687" lon="6.82405">
        <ele>222.3</ele>
        <time>2025-10-24T07:07:54.000Z</time>
      </trkpt>
      <trkpt lat="43.56874" lon="6.82405">
        <ele>222.4</ele>
        <time>2025-10-24T07:07:55.000Z</time>
      </trkpt>
      <trkpt lat="43.56878" lon="6.82406">
        <ele>222.5</ele>
        <time>2025-10-24T07:07:56.000Z</time>
      </trkpt>
      <trkpt lat="43.56883" lon="6.82407">
        <ele>222.6</ele>
        <time>2025-10-24T07:07:57.000Z</time>
      </trkpt>
      <trkpt lat="43.56887" lon="6.82408">
        <ele>222.7</ele>
        <time>2025-10-24T07:07:58.000Z</time>
      </trkpt>
      <trkpt lat="43.56891" lon="6.8241">
        <ele>222.8</ele>
        <time>2025-10-24T07:07:59.000Z</time>
      </trkpt>
      <trkpt lat="43.56896" lon="6.82412">
        <ele>222.8</ele>
        <time>2025-10-24T07:08:00.000Z</time>
      </trkpt>
      <trkpt lat="43.569" lon="6.82415">
        <ele>222.9</ele>
        <time>2025-10-24T07:08:01.000Z</time>
      </trkpt>
      <trkpt lat="43.56905" lon="6.82419">
        <ele>223</ele>
        <time>2025-10-24T07:08:02.000Z</time>
      </trkpt>
      <trkpt lat="43.56908" lon="6.82422">
        <ele>223</ele>
        <time>2025-10-24T07:08:03.000Z</time>
      </trkpt>
      <trkpt lat="43.56912" lon="6.82426">
        <ele>223.1</ele>
        <time>2025-10-24T07:08:04.000Z</time>
      </trkpt>
      <trkpt lat="43.56916" lon="6.82431">
        <ele>223.2</ele>
        <time>2025-10-24T07:08:05.000Z</time>
      </trkpt>
      <trkpt lat="43.5692" lon="6.82436">
        <ele>223.2</ele>
        <time>2025-10-24T07:08:06.000Z</time>
      </trkpt>
      <trkpt lat="43.56923" lon="6.82441">
        <ele>223.3</ele>
        <time>2025-10-24T07:08:07.000Z</time>
      </trkpt>
      <trkpt lat="43.56925" lon="6.82447">
        <ele>223.4</ele>
        <time>2025-10-24T07:08:08.000Z</time>
      </trkpt>
      <trkpt lat="43.56928" lon="6.82453">
        <ele>223.6</ele>
        <time>2025-10-24T07:08:09.000Z</time>
      </trkpt>
      <trkpt lat="43.5693" lon="6.82458">
        <ele>223.7</ele>
        <time>2025-10-24T07:08:10.000Z</time>
      </trkpt>
      <trkpt lat="43.56933" lon="6.82464">
        <ele>223.9</ele>
        <time>2025-10-24T07:08:11.000Z</time>
      </trkpt>
      <trkpt lat="43.56935" lon="6.8247">
        <ele>224.1</ele>
        <time>2025-10-24T07:08:12.000Z</time>
      </trkpt>
      <trkpt lat="43.56937" lon="6.82476">
        <ele>224.3</ele>
        <time>2025-10-24T07:08:13.000Z</time>
      </trkpt>
      <trkpt lat="43.5694" lon="6.82481">
        <ele>224.5</ele>
        <time>2025-10-24T07:08:14.000Z</time>
      </trkpt>
      <trkpt lat="43.56942" lon="6.82486">
        <ele>224.7</ele>
        <time>2025-10-24T07:08:15.000Z</time>
      </trkpt>
      <trkpt lat="43.56945" lon="6.82492">
        <ele>224.9</ele>
        <time>2025-10-24T07:08:16.000Z</time>
      </trkpt>
      <trkpt lat="43.56948" lon="6.82496">
        <ele>225.2</ele>
        <time>2025-10-24T07:08:17.000Z</time>
      </trkpt>
      <trkpt lat="43.56952" lon="6.82501">
        <ele>225.4</ele>
        <time>2025-10-24T07:08:18.000Z</time>
      </trkpt>
      <trkpt lat="43.56956" lon="6.82506">
        <ele>225.7</ele>
        <time>2025-10-24T07:08:19.000Z</time>
      </trkpt>
      <trkpt lat="43.56959" lon="6.8251">
        <ele>225.9</ele>
        <time>2025-10-24T07:08:20.000Z</time>
      </trkpt>
      <trkpt lat="43.56964" lon="6.82514">
        <ele>226.3</ele>
        <time>2025-10-24T07:08:21.000Z</time>
      </trkpt>
      <trkpt lat="43.56968" lon="6.82518">
        <ele>226.6</ele>
        <time>2025-10-24T07:08:22.000Z</time>
      </trkpt>
      <trkpt lat="43.56971" lon="6.82521">
        <ele>226.8</ele>
        <time>2025-10-24T07:08:23.000Z</time>
      </trkpt>
      <trkpt lat="43.56975" lon="6.82525">
        <ele>227.1</ele>
        <time>2025-10-24T07:08:24.000Z</time>
      </trkpt>
      <trkpt lat="43.56979" lon="6.82528">
        <ele>227.4</ele>
        <time>2025-10-24T07:08:25.000Z</time>
      </trkpt>
      <trkpt lat="43.56983" lon="6.82532">
        <ele>227.7</ele>
        <time>2025-10-24T07:08:26.000Z</time>
      </trkpt>
      <trkpt lat="43.56987" lon="6.82536">
        <ele>228</ele>
        <time>2025-10-24T07:08:27.000Z</time>
      </trkpt>
      <trkpt lat="43.56991" lon="6.8254">
        <ele>228.3</ele>
        <time>2025-10-24T07:08:28.000Z</time>
      </trkpt>
      <trkpt lat="43.56995" lon="6.82543">
        <ele>228.6</ele>
        <time>2025-10-24T07:08:29.000Z</time>
      </trkpt>
      <trkpt lat="43.56999" lon="6.82547">
        <ele>228.9</ele>
        <time>2025-10-24T07:08:30.000Z</time>
      </trkpt>
      <trkpt lat="43.57003" lon="6.82551">
        <ele>229.1</ele>
        <time>2025-10-24T07:08:31.000Z</time>
      </trkpt>
      <trkpt lat="43.57006" lon="6.82554">
        <ele>229.4</ele>
        <time>2025-10-24T07:08:32.000Z</time>
      </trkpt>
      <trkpt lat="43.57009" lon="6.82556">
        <ele>229.6</ele>
        <time>2025-10-24T07:08:33.000Z</time>
      </trkpt>
      <trkpt lat="43.57012" lon="6.82559">
        <ele>229.8</ele>
        <time>2025-10-24T07:08:34.000Z</time>
      </trkpt>
      <trkpt lat="43.57016" lon="6.82563">
        <ele>230</ele>
        <time>2025-10-24T07:08:35.000Z</time>
      </trkpt>
      <trkpt lat="43.57019" lon="6.82566">
        <ele>230.3</ele>
        <time>2025-10-24T07:08:36.000Z</time>
      </trkpt>
      <trkpt lat="43.57023" lon="6.8257">
        <ele>230.5</ele>
        <time>2025-10-24T07:08:37.000Z</time>
      </trkpt>
      <trkpt lat="43.57026" lon="6.82573">
        <ele>230.7</ele>
        <time>2025-10-24T07:08:38.000Z</time>
      </trkpt>
      <trkpt lat="43.5703" lon="6.82576">
        <ele>231</ele>
        <time>2025-10-24T07:08:39.000Z</time>
      </trkpt>
      <trkpt lat="43.57034" lon="6.82579">
        <ele>231.2</ele>
        <time>2025-10-24T07:08:40.000Z</time>
      </trkpt>
      <trkpt lat="43.57038" lon="6.82581">
        <ele>231.4</ele>
        <time>2025-10-24T07:08:41.000Z</time>
      </trkpt>
      <trkpt lat="43.57042" lon="6.82583">
        <ele>231.5</ele>
        <time>2025-10-24T07:08:42.000Z</time>
      </trkpt>
      <trkpt lat="43.57046" lon="6.82585">
        <ele>231.6</ele>
        <time>2025-10-24T07:08:43.000Z</time>
      </trkpt>
      <trkpt lat="43.57051" lon="6.82587">
        <ele>231.7</ele>
        <time>2025-10-24T07:08:44.000Z</time>
      </trkpt>
      <trkpt lat="43.57055" lon="6.82589">
        <ele>231.7</ele>
        <time>2025-10-24T07:08:45.000Z</time>
      </trkpt>
      <trkpt lat="43.57058" lon="6.82593">
        <ele>231.7</ele>
        <time>2025-10-24T07:08:46.000Z</time>
      </trkpt>
      <trkpt lat="43.57061" lon="6.82597">
        <ele>231.7</ele>
        <time>2025-10-24T07:08:47.000Z</time>
      </trkpt>
      <trkpt lat="43.57064" lon="6.82602">
        <ele>231.7</ele>
        <time>2025-10-24T07:08:48.000Z</time>
      </trkpt>
      <trkpt lat="43.57066" lon="6.82607">
        <ele>231.6</ele>
        <time>2025-10-24T07:08:49.000Z</time>
      </trkpt>
      <trkpt lat="43.57068" lon="6.82612">
        <ele>231.5</ele>
        <time>2025-10-24T07:08:50.000Z</time>
      </trkpt>
      <trkpt lat="43.57071" lon="6.82618">
        <ele>231.4</ele>
        <time>2025-10-24T07:08:51.000Z</time>
      </trkpt>
      <trkpt lat="43.57074" lon="6.82624">
        <ele>231.3</ele>
        <time>2025-10-24T07:08:52.000Z</time>
      </trkpt>
      <trkpt lat="43.57076" lon="6.8263">
        <ele>231.2</ele>
        <time>2025-10-24T07:08:53.000Z</time>
      </trkpt>
      <trkpt lat="43.57079" lon="6.82636">
        <ele>231</ele>
        <time>2025-10-24T07:08:54.000Z</time>
      </trkpt>
      <trkpt lat="43.57082" lon="6.82643">
        <ele>230.9</ele>
        <time>2025-10-24T07:08:55.000Z</time>
      </trkpt>
      <trkpt lat="43.57083" lon="6.82648">
        <ele>230.8</ele>
        <time>2025-10-24T07:08:56.000Z</time>
      </trkpt>
      <trkpt lat="43.57086" lon="6.82654">
        <ele>230.7</ele>
        <time>2025-10-24T07:08:57.000Z</time>
      </trkpt>
      <trkpt lat="43.57088" lon="6.8266">
        <ele>230.6</ele>
        <time>2025-10-24T07:08:58.000Z</time>
      </trkpt>
      <trkpt lat="43.57091" lon="6.82666">
        <ele>230.5</ele>
        <time>2025-10-24T07:08:59.000Z</time>
      </trkpt>
      <trkpt lat="43.57094" lon="6.82673">
        <ele>230.5</ele>
        <time>2025-10-24T07:09:00.000Z</time>
      </trkpt>
      <trkpt lat="43.57096" lon="6.82678">
        <ele>230.5</ele>
        <time>2025-10-24T07:09:01.000Z</time>
      </trkpt>
      <trkpt lat="43.57099" lon="6.82684">
        <ele>230.5</ele>
        <time>2025-10-24T07:09:02.000Z</time>
      </trkpt>
      <trkpt lat="43.57101" lon="6.82688">
        <ele>230.5</ele>
        <time>2025-10-24T07:09:03.000Z</time>
      </trkpt>
      <trkpt lat="43.57104" lon="6.82693">
        <ele>230.5</ele>
        <time>2025-10-24T07:09:04.000Z</time>
      </trkpt>
      <trkpt lat="43.57107" lon="6.82698">
        <ele>230.5</ele>
        <time>2025-10-24T07:09:05.000Z</time>
      </trkpt>
      <trkpt lat="43.5711" lon="6.82702">
        <ele>230.5</ele>
        <time>2025-10-24T07:09:06.000Z</time>
      </trkpt>
      <trkpt lat="43.57113" lon="6.82708">
        <ele>230.6</ele>
        <time>2025-10-24T07:09:07.000Z</time>
      </trkpt>
      <trkpt lat="43.57116" lon="6.82711">
        <ele>230.6</ele>
        <time>2025-10-24T07:09:08.000Z</time>
      </trkpt>
      <trkpt lat="43.57119" lon="6.82716">
        <ele>230.7</ele>
        <time>2025-10-24T07:09:09.000Z</time>
      </trkpt>
      <trkpt lat="43.57123" lon="6.82723">
        <ele>230.7</ele>
        <time>2025-10-24T07:09:10.000Z</time>
      </trkpt>
      <trkpt lat="43.57126" lon="6.82727">
        <ele>230.8</ele>
        <time>2025-10-24T07:09:11.000Z</time>
      </trkpt>
      <trkpt lat="43.5713" lon="6.82732">
        <ele>230.9</ele>
        <time>2025-10-24T07:09:12.000Z</time>
      </trkpt>
      <trkpt lat="43.57133" lon="6.82735">
        <ele>231</ele>
        <time>2025-10-24T07:09:13.000Z</time>
      </trkpt>
      <trkpt lat="43.57137" lon="6.82738">
        <ele>231.1</ele>
        <time>2025-10-24T07:09:14.000Z</time>
      </trkpt>
      <trkpt lat="43.57142" lon="6.82742">
        <ele>231.2</ele>
        <time>2025-10-24T07:09:15.000Z</time>
      </trkpt>
      <trkpt lat="43.57146" lon="6.82744">
        <ele>231.3</ele>
        <time>2025-10-24T07:09:16.000Z</time>
      </trkpt>
      <trkpt lat="43.57149" lon="6.82746">
        <ele>231.4</ele>
        <time>2025-10-24T07:09:17.000Z</time>
      </trkpt>
      <trkpt lat="43.57152" lon="6.82748">
        <ele>231.5</ele>
        <time>2025-10-24T07:09:18.000Z</time>
      </trkpt>
      <trkpt lat="43.57154" lon="6.8275">
        <ele>231.6</ele>
        <time>2025-10-24T07:09:19.000Z</time>
      </trkpt>
      <trkpt lat="43.57158" lon="6.82752">
        <ele>231.7</ele>
        <time>2025-10-24T07:09:20.000Z</time>
      </trkpt>
      <trkpt lat="43.5716" lon="6.82754">
        <ele>231.8</ele>
        <time>2025-10-24T07:09:21.000Z</time>
      </trkpt>
      <trkpt lat="43.57161" lon="6.82755">
        <ele>231.8</ele>
        <time>2025-10-24T07:09:22.000Z</time>
      </trkpt>
      <trkpt lat="43.57161" lon="6.82755">
        <ele>231.8</ele>
        <time>2025-10-24T07:09:23.000Z</time>
      </trkpt>
      <trkpt lat="43.57162" lon="6.82755">
        <ele>231.8</ele>
        <time>2025-10-24T07:09:24.000Z</time>
      </trkpt>
      <trkpt lat="43.57162" lon="6.82755">
        <ele>231.8</ele>
        <time>2025-10-24T07:09:25.000Z</time>
      </trkpt>
      <trkpt lat="43.57163" lon="6.82755">
        <ele>231.8</ele>
        <time>2025-10-24T07:09:26.000Z</time>
      </trkpt>
      <trkpt lat="43.57164" lon="6.82756">
        <ele>231.8</ele>
        <time>2025-10-24T07:09:27.000Z</time>
      </trkpt>
      <trkpt lat="43.57165" lon="6.82756">
        <ele>231.8</ele>
        <time>2025-10-24T07:09:28.000Z</time>
      </trkpt>
      <trkpt lat="43.57165" lon="6.82756">
        <ele>231.8</ele>
        <time>2025-10-24T07:09:29.000Z</time>
      </trkpt>
      <trkpt lat="43.57166" lon="6.82757">
        <ele>231.7</ele>
        <time>2025-10-24T07:09:30.000Z</time>
      </trkpt>
      <trkpt lat="43.57167" lon="6.82757">
        <ele>231.7</ele>
        <time>2025-10-24T07:09:31.000Z</time>
      </trkpt>
      <trkpt lat="43.57167" lon="6.82757">
        <ele>231.7</ele>
        <time>2025-10-24T07:09:32.000Z</time>
      </trkpt>
      <trkpt lat="43.57168" lon="6.82757">
        <ele>231.7</ele>
        <time>2025-10-24T07:09:33.000Z</time>
      </trkpt>
      <trkpt lat="43.57169" lon="6.82758">
        <ele>231.7</ele>
        <time>2025-10-24T07:09:34.000Z</time>
      </trkpt>
      <trkpt lat="43.5717" lon="6.82758">
        <ele>231.7</ele>
        <time>2025-10-24T07:09:35.000Z</time>
      </trkpt>
      <trkpt lat="43.5717" lon="6.82758">
        <ele>231.7</ele>
        <time>2025-10-24T07:09:36.000Z</time>
      </trkpt>
      <trkpt lat="43.57171" lon="6.82759">
        <ele>231.7</ele>
        <time>2025-10-24T07:09:37.000Z</time>
      </trkpt>
      <trkpt lat="43.57172" lon="6.82759">
        <ele>231.7</ele>
        <time>2025-10-24T07:09:38.000Z</time>
      </trkpt>
      <trkpt lat="43.57172" lon="6.82759">
        <ele>231.7</ele>
        <time>2025-10-24T07:09:39.000Z</time>
      </trkpt>
      <trkpt lat="43.57173" lon="6.82759">
        <ele>231.7</ele>
        <time>2025-10-24T07:09:40.000Z</time>
      </trkpt>
      <trkpt lat="43.57174" lon="6.8276">
        <ele>231.7</ele>
        <time>2025-10-24T07:09:41.000Z</time>
      </trkpt>
      <trkpt lat="43.57175" lon="6.8276">
        <ele>231.7</ele>
        <time>2025-10-24T07:09:42.000Z</time>
      </trkpt>
      <trkpt lat="43.57175" lon="6.8276">
        <ele>231.7</ele>
        <time>2025-10-24T07:09:43.000Z</time>
      </trkpt>
      <trkpt lat="43.57176" lon="6.82761">
        <ele>231.7</ele>
        <time>2025-10-24T07:09:44.000Z</time>
      </trkpt>
      <trkpt lat="43.57177" lon="6.82761">
        <ele>231.7</ele>
        <time>2025-10-24T07:09:45.000Z</time>
      </trkpt>
      <trkpt lat="43.57177" lon="6.82761">
        <ele>231.7</ele>
        <time>2025-10-24T07:09:46.000Z</time>
      </trkpt>
      <trkpt lat="43.57178" lon="6.82762">
        <ele>231.6</ele>
        <time>2025-10-24T07:09:47.000Z</time>
      </trkpt>
      <trkpt lat="43.57179" lon="6.82762">
        <ele>231.6</ele>
        <time>2025-10-24T07:09:48.000Z</time>
      </trkpt>
      <trkpt lat="43.57179" lon="6.82762">
        <ele>231.6</ele>
        <time>2025-10-24T07:09:49.000Z</time>
      </trkpt>
      <trkpt lat="43.5718" lon="6.82762">
        <ele>231.6</ele>
        <time>2025-10-24T07:09:50.000Z</time>
      </trkpt>
      <trkpt lat="43.57181" lon="6.82763">
        <ele>231.6</ele>
        <time>2025-10-24T07:09:51.000Z</time>
      </trkpt>
      <trkpt lat="43.57182" lon="6.82763">
        <ele>231.6</ele>
        <time>2025-10-24T07:09:52.000Z</time>
      </trkpt>
      <trkpt lat="43.57182" lon="6.82763">
        <ele>231.6</ele>
        <time>2025-10-24T07:09:53.000Z</time>
      </trkpt>
      <trkpt lat="43.57183" lon="6.82764">
        <ele>231.6</ele>
        <time>2025-10-24T07:09:54.000Z</time>
      </trkpt>
      <trkpt lat="43.57184" lon="6.82764">
        <ele>231.6</ele>
        <time>2025-10-24T07:09:55.000Z</time>
      </trkpt>
      <trkpt lat="43.57184" lon="6.82764">
        <ele>231.5</ele>
        <time>2025-10-24T07:09:56.000Z</time>
      </trkpt>
      <trkpt lat="43.57185" lon="6.82764">
        <ele>231.5</ele>
        <time>2025-10-24T07:09:57.000Z</time>
      </trkpt>
      <trkpt lat="43.57186" lon="6.82765">
        <ele>231.5</ele>
        <time>2025-10-24T07:09:58.000Z</time>
      </trkpt>
      <trkpt lat="43.57187" lon="6.82765">
        <ele>231.5</ele>
        <time>2025-10-24T07:09:59.000Z</time>
      </trkpt>
      <trkpt lat="43.57191" lon="6.82767">
        <ele>231.4</ele>
        <time>2025-10-24T07:10:00.000Z</time>
      </trkpt>
      <trkpt lat="43.57195" lon="6.82769">
        <ele>231.3</ele>
        <time>2025-10-24T07:10:01.000Z</time>
      </trkpt>
      <trkpt lat="43.57198" lon="6.8277">
        <ele>231.2</ele>
        <time>2025-10-24T07:10:02.000Z</time>
      </trkpt>
      <trkpt lat="43.57201" lon="6.82772">
        <ele>231.1</ele>
        <time>2025-10-24T07:10:03.000Z</time>
      </trkpt>
      <trkpt lat="43.57203" lon="6.82773">
        <ele>231</ele>
        <time>2025-10-24T07:10:04.000Z</time>
      </trkpt>
      <trkpt lat="43.57204" lon="6.82773">
        <ele>231</ele>
        <time>2025-10-24T07:10:05.000Z</time>
      </trkpt>
      <trkpt lat="43.57204" lon="6.82774">
        <ele>230.9</ele>
        <time>2025-10-24T07:10:06.000Z</time>
      </trkpt>
      <trkpt lat="43.57204" lon="6.82774">
        <ele>230.9</ele>
        <time>2025-10-24T07:10:07.000Z</time>
      </trkpt>
      <trkpt lat="43.57204" lon="6.82774">
        <ele>230.9</ele>
        <time>2025-10-24T07:10:08.000Z</time>
      </trkpt>
      <trkpt lat="43.57204" lon="6.82774">
        <ele>230.9</ele>
        <time>2025-10-24T07:10:09.000Z</time>
      </trkpt>
      <trkpt lat="43.57204" lon="6.82773">
        <ele>230.9</ele>
        <time>2025-10-24T07:10:10.000Z</time>
      </trkpt>
      <trkpt lat="43.57204" lon="6.82773">
        <ele>230.9</ele>
        <time>2025-10-24T07:10:11.000Z</time>
      </trkpt>
      <trkpt lat="43.57204" lon="6.82773">
        <ele>230.9</ele>
        <time>2025-10-24T07:10:12.000Z</time>
      </trkpt>
      <trkpt lat="43.57204" lon="6.82773">
        <ele>230.9</ele>
        <time>2025-10-24T07:10:13.000Z</time>
      </trkpt>
      <trkpt lat="43.57204" lon="6.82773">
        <ele>230.9</ele>
        <time>2025-10-24T07:10:14.000Z</time>
      </trkpt>
      <trkpt lat="43.57204" lon="6.82773">
        <ele>230.9</ele>
        <time>2025-10-24T07:10:15.000Z</time>
      </trkpt>
      <trkpt lat="43.57204" lon="6.82773">
        <ele>230.9</ele>
        <time>2025-10-24T07:10:16.000Z</time>
      </trkpt>
      <trkpt lat="43.57205" lon="6.82773">
        <ele>230.9</ele>
        <time>2025-10-24T07:10:17.000Z</time>
      </trkpt>
      <trkpt lat="43.57205" lon="6.82773">
        <ele>230.9</ele>
        <time>2025-10-24T07:10:18.000Z</time>
      </trkpt>
      <trkpt lat="43.57205" lon="6.82773">
        <ele>230.9</ele>
        <time>2025-10-24T07:10:19.000Z</time>
      </trkpt>
      <trkpt lat="43.57205" lon="6.82773">
        <ele>230.9</ele>
        <time>2025-10-24T07:10:20.000Z</time>
      </trkpt>
      <trkpt lat="43.57205" lon="6.82773">
        <ele>230.9</ele>
        <time>2025-10-24T07:10:21.000Z</time>
      </trkpt>
      <trkpt lat="43.57205" lon="6.82773">
        <ele>230.9</ele>
        <time>2025-10-24T07:10:22.000Z</time>
      </trkpt>
      <trkpt lat="43.57205" lon="6.82773">
        <ele>230.9</ele>
        <time>2025-10-24T07:10:23.000Z</time>
      </trkpt>
      <trkpt lat="43.57205" lon="6.82773">
        <ele>230.9</ele>
        <time>2025-10-24T07:10:24.000Z</time>
      </trkpt>
      <trkpt lat="43.57205" lon="6.82773">
        <ele>230.9</ele>
        <time>2025-10-24T07:10:25.000Z</time>
      </trkpt>
      <trkpt lat="43.57205" lon="6.82773">
        <ele>230.9</ele>
        <time>2025-10-24T07:10:26.000Z</time>
      </trkpt>
      <trkpt lat="43.57205" lon="6.82773">
        <ele>230.9</ele>
        <time>2025-10-24T07:10:27.000Z</time>
      </trkpt>
      <trkpt lat="43.57205" lon="6.82773">
        <ele>230.8</ele>
        <time>2025-10-24T07:10:28.000Z</time>
      </trkpt>
      <trkpt lat="43.57208" lon="6.82775">
        <ele>230.7</ele>
        <time>2025-10-24T07:10:29.000Z</time>
      </trkpt>
      <trkpt lat="43.57211" lon="6.82778">
        <ele>230.5</ele>
        <time>2025-10-24T07:10:30.000Z</time>
      </trkpt>
      <trkpt lat="43.57215" lon="6.82781">
        <ele>230.2</ele>
        <time>2025-10-24T07:10:31.000Z</time>
      </trkpt>
      <trkpt lat="43.57219" lon="6.82786">
        <ele>229.9</ele>
        <time>2025-10-24T07:10:32.000Z</time>
      </trkpt>
      <trkpt lat="43.57222" lon="6.82791">
        <ele>229.6</ele>
        <time>2025-10-24T07:10:33.000Z</time>
      </trkpt>
      <trkpt lat="43.57226" lon="6.82797">
        <ele>229.2</ele>
        <time>2025-10-24T07:10:34.000Z</time>
      </trkpt>
      <trkpt lat="43.57231" lon="6.82802">
        <ele>228.8</ele>
        <time>2025-10-24T07:10:35.000Z</time>
      </trkpt>
      <trkpt lat="43.57236" lon="6.82808">
        <ele>228.4</ele>
        <time>2025-10-24T07:10:36.000Z</time>
      </trkpt>
      <trkpt lat="43.57241" lon="6.82813">
        <ele>228</ele>
        <time>2025-10-24T07:10:37.000Z</time>
      </trkpt>
      <trkpt lat="43.57247" lon="6.82817">
        <ele>227.6</ele>
        <time>2025-10-24T07:10:38.000Z</time>
      </trkpt>
      <trkpt lat="43.57252" lon="6.82822">
        <ele>227.1</ele>
        <time>2025-10-24T07:10:39.000Z</time>
      </trkpt>
      <trkpt lat="43.57257" lon="6.82828">
        <ele>226.6</ele>
        <time>2025-10-24T07:10:40.000Z</time>
      </trkpt>
      <trkpt lat="43.57262" lon="6.82835">
        <ele>226</ele>
        <time>2025-10-24T07:10:41.000Z</time>
      </trkpt>
      <trkpt lat="43.57266" lon="6.82843">
        <ele>225.5</ele>
        <time>2025-10-24T07:10:42.000Z</time>
      </trkpt>
      <trkpt lat="43.5727" lon="6.82852">
        <ele>224.9</ele>
        <time>2025-10-24T07:10:43.000Z</time>
      </trkpt>
      <trkpt lat="43.57274" lon="6.82861">
        <ele>224.3</ele>
        <time>2025-10-24T07:10:44.000Z</time>
      </trkpt>
      <trkpt lat="43.57278" lon="6.82871">
        <ele>223.7</ele>
        <time>2025-10-24T07:10:45.000Z</time>
      </trkpt>
      <trkpt lat="43.57282" lon="6.82881">
        <ele>223.1</ele>
        <time>2025-10-24T07:10:46.000Z</time>
      </trkpt>
      <trkpt lat="43.57286" lon="6.82891">
        <ele>222.6</ele>
        <time>2025-10-24T07:10:47.000Z</time>
      </trkpt>
      <trkpt lat="43.5729" lon="6.829">
        <ele>222.1</ele>
        <time>2025-10-24T07:10:48.000Z</time>
      </trkpt>
      <trkpt lat="43.57294" lon="6.82908">
        <ele>221.6</ele>
        <time>2025-10-24T07:10:49.000Z</time>
      </trkpt>
      <trkpt lat="43.57297" lon="6.82915">
        <ele>221.2</ele>
        <time>2025-10-24T07:10:50.000Z</time>
      </trkpt>
      <trkpt lat="43.573" lon="6.82922">
        <ele>220.8</ele>
        <time>2025-10-24T07:10:51.000Z</time>
      </trkpt>
      <trkpt lat="43.57303" lon="6.82928">
        <ele>220.4</ele>
        <time>2025-10-24T07:10:52.000Z</time>
      </trkpt>
      <trkpt lat="43.57304" lon="6.82933">
        <ele>220.1</ele>
        <time>2025-10-24T07:10:53.000Z</time>
      </trkpt>
      <trkpt lat="43.57306" lon="6.82937">
        <ele>219.9</ele>
        <time>2025-10-24T07:10:54.000Z</time>
      </trkpt>
      <trkpt lat="43.57306" lon="6.82939">
        <ele>219.8</ele>
        <time>2025-10-24T07:10:55.000Z</time>
      </trkpt>
      <trkpt lat="43.57307" lon="6.82939">
        <ele>219.7</ele>
        <time>2025-10-24T07:10:56.000Z</time>
      </trkpt>
      <trkpt lat="43.57307" lon="6.82938">
        <ele>219.7</ele>
        <time>2025-10-24T07:10:57.000Z</time>
      </trkpt>
      <trkpt lat="43.57307" lon="6.82938">
        <ele>219.7</ele>
        <time>2025-10-24T07:10:58.000Z</time>
      </trkpt>
      <trkpt lat="43.57307" lon="6.82938">
        <ele>219.7</ele>
        <time>2025-10-24T07:10:59.000Z</time>
      </trkpt>
      <trkpt lat="43.57307" lon="6.82938">
        <ele>219.6</ele>
        <time>2025-10-24T07:11:00.000Z</time>
      </trkpt>
      <trkpt lat="43.57307" lon="6.82938">
        <ele>219.6</ele>
        <time>2025-10-24T07:11:01.000Z</time>
      </trkpt>
      <trkpt lat="43.57307" lon="6.82937">
        <ele>219.6</ele>
        <time>2025-10-24T07:11:02.000Z</time>
      </trkpt>
      <trkpt lat="43.57306" lon="6.82937">
        <ele>219.6</ele>
        <time>2025-10-24T07:11:03.000Z</time>
      </trkpt>
      <trkpt lat="43.57306" lon="6.82937">
        <ele>219.5</ele>
        <time>2025-10-24T07:11:04.000Z</time>
      </trkpt>
      <trkpt lat="43.57306" lon="6.82937">
        <ele>219.5</ele>
        <time>2025-10-24T07:11:05.000Z</time>
      </trkpt>
      <trkpt lat="43.57306" lon="6.82937">
        <ele>219.5</ele>
        <time>2025-10-24T07:11:06.000Z</time>
      </trkpt>
      <trkpt lat="43.57306" lon="6.82936">
        <ele>219.5</ele>
        <time>2025-10-24T07:11:07.000Z</time>
      </trkpt>
      <trkpt lat="43.57306" lon="6.82936">
        <ele>219.5</ele>
        <time>2025-10-24T07:11:08.000Z</time>
      </trkpt>
      <trkpt lat="43.57306" lon="6.82935">
        <ele>219.4</ele>
        <time>2025-10-24T07:11:09.000Z</time>
      </trkpt>
      <trkpt lat="43.57306" lon="6.82935">
        <ele>219.4</ele>
        <time>2025-10-24T07:11:10.000Z</time>
      </trkpt>
      <trkpt lat="43.57306" lon="6.82935">
        <ele>219.4</ele>
        <time>2025-10-24T07:11:11.000Z</time>
      </trkpt>
      <trkpt lat="43.57306" lon="6.82935">
        <ele>219.4</ele>
        <time>2025-10-24T07:11:12.000Z</time>
      </trkpt>
      <trkpt lat="43.57306" lon="6.82935">
        <ele>219.4</ele>
        <time>2025-10-24T07:11:13.000Z</time>
      </trkpt>
      <trkpt lat="43.57306" lon="6.82935">
        <ele>219.4</ele>
        <time>2025-10-24T07:11:14.000Z</time>
      </trkpt>
      <trkpt lat="43.57306" lon="6.82935">
        <ele>219.4</ele>
        <time>2025-10-24T07:11:15.000Z</time>
      </trkpt>
      <trkpt lat="43.57306" lon="6.82935">
        <ele>219.4</ele>
        <time>2025-10-24T07:11:16.000Z</time>
      </trkpt>
      <trkpt lat="43.57306" lon="6.82935">
        <ele>219.4</ele>
        <time>2025-10-24T07:11:17.000Z</time>
      </trkpt>
      <trkpt lat="43.57306" lon="6.82935">
        <ele>219.4</ele>
        <time>2025-10-24T07:11:18.000Z</time>
      </trkpt>
      <trkpt lat="43.57306" lon="6.82935">
        <ele>219.4</ele>
        <time>2025-10-24T07:11:19.000Z</time>
      </trkpt>
      <trkpt lat="43.57306" lon="6.82935">
        <ele>219.4</ele>
        <time>2025-10-24T07:11:20.000Z</time>
      </trkpt>
      <trkpt lat="43.57306" lon="6.82935">
        <ele>219.4</ele>
        <time>2025-10-24T07:11:21.000Z</time>
      </trkpt>
      <trkpt lat="43.57306" lon="6.82935">
        <ele>219.4</ele>
        <time>2025-10-24T07:11:22.000Z</time>
      </trkpt>
      <trkpt lat="43.57306" lon="6.82935">
        <ele>219.4</ele>
        <time>2025-10-24T07:11:23.000Z</time>
      </trkpt>
      <trkpt lat="43.57306" lon="6.82935">
        <ele>219.3</ele>
        <time>2025-10-24T07:11:24.000Z</time>
      </trkpt>
      <trkpt lat="43.57306" lon="6.82935">
        <ele>219.3</ele>
        <time>2025-10-24T07:11:25.000Z</time>
      </trkpt>
      <trkpt lat="43.57306" lon="6.82935">
        <ele>219.3</ele>
        <time>2025-10-24T07:11:26.000Z</time>
      </trkpt>
      <trkpt lat="43.57306" lon="6.82936">
        <ele>219.3</ele>
        <time>2025-10-24T07:11:27.000Z</time>
      </trkpt>
      <trkpt lat="43.57306" lon="6.82936">
        <ele>219.3</ele>
        <time>2025-10-24T07:11:28.000Z</time>
      </trkpt>
      <trkpt lat="43.57307" lon="6.82936">
        <ele>219.3</ele>
        <time>2025-10-24T07:11:29.000Z</time>
      </trkpt>
      <trkpt lat="43.57308" lon="6.8294">
        <ele>219.1</ele>
        <time>2025-10-24T07:11:30.000Z</time>
      </trkpt>
      <trkpt lat="43.5731" lon="6.82944">
        <ele>218.7</ele>
        <time>2025-10-24T07:11:31.000Z</time>
      </trkpt>
      <trkpt lat="43.57312" lon="6.82949">
        <ele>218.4</ele>
        <time>2025-10-24T07:11:32.000Z</time>
      </trkpt>
      <trkpt lat="43.57315" lon="6.82955">
        <ele>218</ele>
        <time>2025-10-24T07:11:33.000Z</time>
      </trkpt>
      <trkpt lat="43.57318" lon="6.82961">
        <ele>217.5</ele>
        <time>2025-10-24T07:11:34.000Z</time>
      </trkpt>
      <trkpt lat="43.57321" lon="6.82967">
        <ele>217</ele>
        <time>2025-10-24T07:11:35.000Z</time>
      </trkpt>
      <trkpt lat="43.57325" lon="6.82973">
        <ele>216.5</ele>
        <time>2025-10-24T07:11:36.000Z</time>
      </trkpt>
      <trkpt lat="43.57328" lon="6.82978">
        <ele>216.1</ele>
        <time>2025-10-24T07:11:37.000Z</time>
      </trkpt>
      <trkpt lat="43.57331" lon="6.82984">
        <ele>215.6</ele>
        <time>2025-10-24T07:11:38.000Z</time>
      </trkpt>
      <trkpt lat="43.57337" lon="6.8299">
        <ele>214.8</ele>
        <time>2025-10-24T07:11:39.000Z</time>
      </trkpt>
      <trkpt lat="43.57342" lon="6.82992">
        <ele>214.5</ele>
        <time>2025-10-24T07:11:40.000Z</time>
      </trkpt>
      <trkpt lat="43.57347" lon="6.82993">
        <ele>214.1</ele>
        <time>2025-10-24T07:11:41.000Z</time>
      </trkpt>
      <trkpt lat="43.57353" lon="6.82991">
        <ele>213.8</ele>
        <time>2025-10-24T07:11:42.000Z</time>
      </trkpt>
      <trkpt lat="43.57359" lon="6.82986">
        <ele>213.4</ele>
        <time>2025-10-24T07:11:43.000Z</time>
      </trkpt>
      <trkpt lat="43.57364" lon="6.82981">
        <ele>213</ele>
        <time>2025-10-24T07:11:44.000Z</time>
      </trkpt>
      <trkpt lat="43.57369" lon="6.82977">
        <ele>212.7</ele>
        <time>2025-10-24T07:11:45.000Z</time>
      </trkpt>
      <trkpt lat="43.57376" lon="6.82973">
        <ele>212.4</ele>
        <time>2025-10-24T07:11:46.000Z</time>
      </trkpt>
      <trkpt lat="43.57381" lon="6.82972">
        <ele>212.2</ele>
        <time>2025-10-24T07:11:47.000Z</time>
      </trkpt>
      <trkpt lat="43.57385" lon="6.82971">
        <ele>212</ele>
        <time>2025-10-24T07:11:48.000Z</time>
      </trkpt>
      <trkpt lat="43.57387" lon="6.82971">
        <ele>212</ele>
        <time>2025-10-24T07:11:49.000Z</time>
      </trkpt>
      <trkpt lat="43.57388" lon="6.82971">
        <ele>211.9</ele>
        <time>2025-10-24T07:11:50.000Z</time>
      </trkpt>
      <trkpt lat="43.57388" lon="6.82971">
        <ele>211.9</ele>
        <time>2025-10-24T07:11:51.000Z</time>
      </trkpt>
      <trkpt lat="43.57388" lon="6.82971">
        <ele>211.9</ele>
        <time>2025-10-24T07:11:52.000Z</time>
      </trkpt>
      <trkpt lat="43.57389" lon="6.82972">
        <ele>211.9</ele>
        <time>2025-10-24T07:11:53.000Z</time>
      </trkpt>
      <trkpt lat="43.5739" lon="6.82972">
        <ele>211.9</ele>
        <time>2025-10-24T07:11:54.000Z</time>
      </trkpt>
      <trkpt lat="43.57391" lon="6.82973">
        <ele>211.8</ele>
        <time>2025-10-24T07:11:55.000Z</time>
      </trkpt>
      <trkpt lat="43.57393" lon="6.82972">
        <ele>211.8</ele>
        <time>2025-10-24T07:11:56.000Z</time>
      </trkpt>
      <trkpt lat="43.57393" lon="6.8297">
        <ele>211.7</ele>
        <time>2025-10-24T07:11:57.000Z</time>
      </trkpt>
      <trkpt lat="43.57392" lon="6.82969">
        <ele>211.7</ele>
        <time>2025-10-24T07:11:58.000Z</time>
      </trkpt>
      <trkpt lat="43.5739" lon="6.82968">
        <ele>211.7</ele>
        <time>2025-10-24T07:11:59.000Z</time>
      </trkpt>
      <trkpt lat="43.57387" lon="6.82969">
        <ele>211.6</ele>
        <time>2025-10-24T07:12:00.000Z</time>
      </trkpt>
      <trkpt lat="43.57384" lon="6.82969">
        <ele>211.5</ele>
        <time>2025-10-24T07:12:01.000Z</time>
      </trkpt>
      <trkpt lat="43.5738" lon="6.8297">
        <ele>211.5</ele>
        <time>2025-10-24T07:12:02.000Z</time>
      </trkpt>
      <trkpt lat="43.57376" lon="6.82971">
        <ele>211.4</ele>
        <time>2025-10-24T07:12:03.000Z</time>
      </trkpt>
      <trkpt lat="43.57371" lon="6.82972">
        <ele>211.5</ele>
        <time>2025-10-24T07:12:04.000Z</time>
      </trkpt>
      <trkpt lat="43.57367" lon="6.82975">
        <ele>211.7</ele>
        <time>2025-10-24T07:12:05.000Z</time>
      </trkpt>
      <trkpt lat="43.57363" lon="6.82979">
        <ele>211.9</ele>
        <time>2025-10-24T07:12:06.000Z</time>
      </trkpt>
      <trkpt lat="43.57359" lon="6.82982">
        <ele>212.2</ele>
        <time>2025-10-24T07:12:07.000Z</time>
      </trkpt>
      <trkpt lat="43.57355" lon="6.82986">
        <ele>212.6</ele>
        <time>2025-10-24T07:12:08.000Z</time>
      </trkpt>
      <trkpt lat="43.57351" lon="6.82989">
        <ele>213</ele>
        <time>2025-10-24T07:12:09.000Z</time>
      </trkpt>
      <trkpt lat="43.57347" lon="6.82991">
        <ele>213.4</ele>
        <time>2025-10-24T07:12:10.000Z</time>
      </trkpt>
      <trkpt lat="43.57343" lon="6.82993">
        <ele>213.9</ele>
        <time>2025-10-24T07:12:11.000Z</time>
      </trkpt>
      <trkpt lat="43.57338" lon="6.82994">
        <ele>214.4</ele>
        <time>2025-10-24T07:12:12.000Z</time>
      </trkpt>
      <trkpt lat="43.57334" lon="6.82995">
        <ele>214.8</ele>
        <time>2025-10-24T07:12:13.000Z</time>
      </trkpt>
      <trkpt lat="43.5733" lon="6.82996">
        <ele>215.2</ele>
        <time>2025-10-24T07:12:14.000Z</time>
      </trkpt>
      <trkpt lat="43.57327" lon="6.82997">
        <ele>215.5</ele>
        <time>2025-10-24T07:12:15.000Z</time>
      </trkpt>
      <trkpt lat="43.57324" lon="6.82998">
        <ele>215.2</ele>
        <time>2025-10-24T07:12:16.000Z</time>
      </trkpt>
      <trkpt lat="43.5732" lon="6.83001">
        <ele>214.8</ele>
        <time>2025-10-24T07:12:17.000Z</time>
      </trkpt>
      <trkpt lat="43.57318" lon="6.83004">
        <ele>214.4</ele>
        <time>2025-10-24T07:12:18.000Z</time>
      </trkpt>
      <trkpt lat="43.57315" lon="6.83007">
        <ele>214</ele>
        <time>2025-10-24T07:12:19.000Z</time>
      </trkpt>
      <trkpt lat="43.57313" lon="6.83011">
        <ele>213.6</ele>
        <time>2025-10-24T07:12:20.000Z</time>
      </trkpt>
      <trkpt lat="43.57311" lon="6.83015">
        <ele>213.2</ele>
        <time>2025-10-24T07:12:21.000Z</time>
      </trkpt>
      <trkpt lat="43.57309" lon="6.8302">
        <ele>212.8</ele>
        <time>2025-10-24T07:12:22.000Z</time>
      </trkpt>
      <trkpt lat="43.57307" lon="6.83025">
        <ele>212.5</ele>
        <time>2025-10-24T07:12:23.000Z</time>
      </trkpt>
      <trkpt lat="43.57306" lon="6.8303">
        <ele>212.3</ele>
        <time>2025-10-24T07:12:24.000Z</time>
      </trkpt>
      <trkpt lat="43.57306" lon="6.83036">
        <ele>212</ele>
        <time>2025-10-24T07:12:25.000Z</time>
      </trkpt>
      <trkpt lat="43.57306" lon="6.83042">
        <ele>211.9</ele>
        <time>2025-10-24T07:12:26.000Z</time>
      </trkpt>
      <trkpt lat="43.57306" lon="6.83048">
        <ele>211.8</ele>
        <time>2025-10-24T07:12:27.000Z</time>
      </trkpt>
      <trkpt lat="43.57305" lon="6.83053">
        <ele>211.8</ele>
        <time>2025-10-24T07:12:28.000Z</time>
      </trkpt>
      <trkpt lat="43.57304" lon="6.83058">
        <ele>211.8</ele>
        <time>2025-10-24T07:12:29.000Z</time>
      </trkpt>
      <trkpt lat="43.57302" lon="6.83064">
        <ele>212</ele>
        <time>2025-10-24T07:12:30.000Z</time>
      </trkpt>
      <trkpt lat="43.57301" lon="6.83068">
        <ele>212.3</ele>
        <time>2025-10-24T07:12:31.000Z</time>
      </trkpt>
      <trkpt lat="43.57299" lon="6.83072">
        <ele>212.6</ele>
        <time>2025-10-24T07:12:32.000Z</time>
      </trkpt>
      <trkpt lat="43.57297" lon="6.83077">
        <ele>212.9</ele>
        <time>2025-10-24T07:12:33.000Z</time>
      </trkpt>
      <trkpt lat="43.57296" lon="6.83081">
        <ele>213.2</ele>
        <time>2025-10-24T07:12:34.000Z</time>
      </trkpt>
      <trkpt lat="43.57295" lon="6.83086">
        <ele>213.6</ele>
        <time>2025-10-24T07:12:35.000Z</time>
      </trkpt>
      <trkpt lat="43.57294" lon="6.83091">
        <ele>214</ele>
        <time>2025-10-24T07:12:36.000Z</time>
      </trkpt>
      <trkpt lat="43.57292" lon="6.83096">
        <ele>214.4</ele>
        <time>2025-10-24T07:12:37.000Z</time>
      </trkpt>
      <trkpt lat="43.5729" lon="6.831">
        <ele>214.7</ele>
        <time>2025-10-24T07:12:38.000Z</time>
      </trkpt>
      <trkpt lat="43.57288" lon="6.83103">
        <ele>215.1</ele>
        <time>2025-10-24T07:12:39.000Z</time>
      </trkpt>
      <trkpt lat="43.57285" lon="6.83106">
        <ele>215.4</ele>
        <time>2025-10-24T07:12:40.000Z</time>
      </trkpt>
      <trkpt lat="43.57282" lon="6.83109">
        <ele>215.7</ele>
        <time>2025-10-24T07:12:41.000Z</time>
      </trkpt>
      <trkpt lat="43.5728" lon="6.83111">
        <ele>215.9</ele>
        <time>2025-10-24T07:12:42.000Z</time>
      </trkpt>
      <trkpt lat="43.57277" lon="6.83114">
        <ele>216.2</ele>
        <time>2025-10-24T07:12:43.000Z</time>
      </trkpt>
      <trkpt lat="43.57275" lon="6.83116">
        <ele>216.4</ele>
        <time>2025-10-24T07:12:44.000Z</time>
      </trkpt>
      <trkpt lat="43.57272" lon="6.83119">
        <ele>216.6</ele>
        <time>2025-10-24T07:12:45.000Z</time>
      </trkpt>
      <trkpt lat="43.57269" lon="6.83122">
        <ele>216.9</ele>
        <time>2025-10-24T07:12:46.000Z</time>
      </trkpt>
      <trkpt lat="43.57266" lon="6.83125">
        <ele>217.1</ele>
        <time>2025-10-24T07:12:47.000Z</time>
      </trkpt>
      <trkpt lat="43.57264" lon="6.83128">
        <ele>217.3</ele>
        <time>2025-10-24T07:12:48.000Z</time>
      </trkpt>
      <trkpt lat="43.57261" lon="6.83131">
        <ele>217.5</ele>
        <time>2025-10-24T07:12:49.000Z</time>
      </trkpt>
      <trkpt lat="43.57259" lon="6.83135">
        <ele>217.7</ele>
        <time>2025-10-24T07:12:50.000Z</time>
      </trkpt>
      <trkpt lat="43.57257" lon="6.83138">
        <ele>217.8</ele>
        <time>2025-10-24T07:12:51.000Z</time>
      </trkpt>
      <trkpt lat="43.57255" lon="6.83142">
        <ele>218</ele>
        <time>2025-10-24T07:12:52.000Z</time>
      </trkpt>
      <trkpt lat="43.57252" lon="6.83145">
        <ele>218.1</ele>
        <time>2025-10-24T07:12:53.000Z</time>
      </trkpt>
      <trkpt lat="43.5725" lon="6.83148">
        <ele>218.2</ele>
        <time>2025-10-24T07:12:54.000Z</time>
      </trkpt>
      <trkpt lat="43.57247" lon="6.8315">
        <ele>218.3</ele>
        <time>2025-10-24T07:12:55.000Z</time>
      </trkpt>
      <trkpt lat="43.57244" lon="6.83152">
        <ele>218.4</ele>
        <time>2025-10-24T07:12:56.000Z</time>
      </trkpt>
      <trkpt lat="43.57241" lon="6.83153">
        <ele>218.4</ele>
        <time>2025-10-24T07:12:57.000Z</time>
      </trkpt>
      <trkpt lat="43.57238" lon="6.83155">
        <ele>218.4</ele>
        <time>2025-10-24T07:12:58.000Z</time>
      </trkpt>
      <trkpt lat="43.57235" lon="6.83156">
        <ele>218.3</ele>
        <time>2025-10-24T07:12:59.000Z</time>
      </trkpt>
      <trkpt lat="43.57232" lon="6.83158">
        <ele>218.2</ele>
        <time>2025-10-24T07:13:00.000Z</time>
      </trkpt>
      <trkpt lat="43.57229" lon="6.8316">
        <ele>218.2</ele>
        <time>2025-10-24T07:13:01.000Z</time>
      </trkpt>
      <trkpt lat="43.57226" lon="6.83164">
        <ele>218</ele>
        <time>2025-10-24T07:13:02.000Z</time>
      </trkpt>
      <trkpt lat="43.57224" lon="6.83168">
        <ele>217.9</ele>
        <time>2025-10-24T07:13:03.000Z</time>
      </trkpt>
      <trkpt lat="43.57221" lon="6.83172">
        <ele>217.7</ele>
        <time>2025-10-24T07:13:04.000Z</time>
      </trkpt>
      <trkpt lat="43.57219" lon="6.83175">
        <ele>217.5</ele>
        <time>2025-10-24T07:13:05.000Z</time>
      </trkpt>
      <trkpt lat="43.57216" lon="6.83179">
        <ele>217.3</ele>
        <time>2025-10-24T07:13:06.000Z</time>
      </trkpt>
      <trkpt lat="43.57213" lon="6.83182">
        <ele>217.1</ele>
        <time>2025-10-24T07:13:07.000Z</time>
      </trkpt>
      <trkpt lat="43.5721" lon="6.83185">
        <ele>217</ele>
        <time>2025-10-24T07:13:08.000Z</time>
      </trkpt>
      <trkpt lat="43.57206" lon="6.83188">
        <ele>216.8</ele>
        <time>2025-10-24T07:13:09.000Z</time>
      </trkpt>
      <trkpt lat="43.57203" lon="6.8319">
        <ele>216.7</ele>
        <time>2025-10-24T07:13:10.000Z</time>
      </trkpt>
      <trkpt lat="43.57199" lon="6.83192">
        <ele>216.6</ele>
        <time>2025-10-24T07:13:11.000Z</time>
      </trkpt>
      <trkpt lat="43.57195" lon="6.83192">
        <ele>216.5</ele>
        <time>2025-10-24T07:13:12.000Z</time>
      </trkpt>
      <trkpt lat="43.57192" lon="6.83192">
        <ele>216.4</ele>
        <time>2025-10-24T07:13:13.000Z</time>
      </trkpt>
      <trkpt lat="43.57188" lon="6.83192">
        <ele>216.4</ele>
        <time>2025-10-24T07:13:14.000Z</time>
      </trkpt>
      <trkpt lat="43.57184" lon="6.83191">
        <ele>216.2</ele>
        <time>2025-10-24T07:13:15.000Z</time>
      </trkpt>
      <trkpt lat="43.5718" lon="6.83191">
        <ele>216.1</ele>
        <time>2025-10-24T07:13:16.000Z</time>
      </trkpt>
      <trkpt lat="43.57177" lon="6.83192">
        <ele>216</ele>
        <time>2025-10-24T07:13:17.000Z</time>
      </trkpt>
      <trkpt lat="43.57173" lon="6.83193">
        <ele>215.8</ele>
        <time>2025-10-24T07:13:18.000Z</time>
      </trkpt>
      <trkpt lat="43.5717" lon="6.83196">
        <ele>215.7</ele>
        <time>2025-10-24T07:13:19.000Z</time>
      </trkpt>
      <trkpt lat="43.57167" lon="6.832">
        <ele>215.6</ele>
        <time>2025-10-24T07:13:20.000Z</time>
      </trkpt>
      <trkpt lat="43.57164" lon="6.83205">
        <ele>215.5</ele>
        <time>2025-10-24T07:13:21.000Z</time>
      </trkpt>
      <trkpt lat="43.57161" lon="6.83209">
        <ele>215.6</ele>
        <time>2025-10-24T07:13:22.000Z</time>
      </trkpt>
      <trkpt lat="43.57158" lon="6.83214">
        <ele>215.6</ele>
        <time>2025-10-24T07:13:23.000Z</time>
      </trkpt>
      <trkpt lat="43.57156" lon="6.83218">
        <ele>215.7</ele>
        <time>2025-10-24T07:13:24.000Z</time>
      </trkpt>
      <trkpt lat="43.57154" lon="6.83222">
        <ele>215.8</ele>
        <time>2025-10-24T07:13:25.000Z</time>
      </trkpt>
      <trkpt lat="43.57152" lon="6.83226">
        <ele>215.9</ele>
        <time>2025-10-24T07:13:26.000Z</time>
      </trkpt>
      <trkpt lat="43.5715" lon="6.83229">
        <ele>216.1</ele>
        <time>2025-10-24T07:13:27.000Z</time>
      </trkpt>
      <trkpt lat="43.57148" lon="6.83232">
        <ele>216.2</ele>
        <time>2025-10-24T07:13:28.000Z</time>
      </trkpt>
      <trkpt lat="43.57146" lon="6.83234">
        <ele>216.3</ele>
        <time>2025-10-24T07:13:29.000Z</time>
      </trkpt>
      <trkpt lat="43.57144" lon="6.83237">
        <ele>216.4</ele>
        <time>2025-10-24T07:13:30.000Z</time>
      </trkpt>
      <trkpt lat="43.57142" lon="6.83239">
        <ele>216.5</ele>
        <time>2025-10-24T07:13:31.000Z</time>
      </trkpt>
      <trkpt lat="43.5714" lon="6.83241">
        <ele>216.7</ele>
        <time>2025-10-24T07:13:32.000Z</time>
      </trkpt>
      <trkpt lat="43.57138" lon="6.83244">
        <ele>216.8</ele>
        <time>2025-10-24T07:13:33.000Z</time>
      </trkpt>
      <trkpt lat="43.57135" lon="6.83246">
        <ele>217</ele>
        <time>2025-10-24T07:13:34.000Z</time>
      </trkpt>
      <trkpt lat="43.57132" lon="6.83249">
        <ele>217.2</ele>
        <time>2025-10-24T07:13:35.000Z</time>
      </trkpt>
      <trkpt lat="43.5713" lon="6.83252">
        <ele>217.3</ele>
        <time>2025-10-24T07:13:36.000Z</time>
      </trkpt>
      <trkpt lat="43.57128" lon="6.83255">
        <ele>217.4</ele>
        <time>2025-10-24T07:13:37.000Z</time>
      </trkpt>
      <trkpt lat="43.57125" lon="6.83257">
        <ele>217.6</ele>
        <time>2025-10-24T07:13:38.000Z</time>
      </trkpt>
      <trkpt lat="43.57122" lon="6.83258">
        <ele>217.7</ele>
        <time>2025-10-24T07:13:39.000Z</time>
      </trkpt>
      <trkpt lat="43.57119" lon="6.8326">
        <ele>217.8</ele>
        <time>2025-10-24T07:13:40.000Z</time>
      </trkpt>
      <trkpt lat="43.57116" lon="6.83261">
        <ele>217.9</ele>
        <time>2025-10-24T07:13:41.000Z</time>
      </trkpt>
      <trkpt lat="43.57113" lon="6.83262">
        <ele>218</ele>
        <time>2025-10-24T07:13:42.000Z</time>
      </trkpt>
      <trkpt lat="43.5711" lon="6.83263">
        <ele>218.1</ele>
        <time>2025-10-24T07:13:43.000Z</time>
      </trkpt>
      <trkpt lat="43.57107" lon="6.83263">
        <ele>218.2</ele>
        <time>2025-10-24T07:13:44.000Z</time>
      </trkpt>
      <trkpt lat="43.57103" lon="6.83264">
        <ele>218.4</ele>
        <time>2025-10-24T07:13:45.000Z</time>
      </trkpt>
      <trkpt lat="43.571" lon="6.83265">
        <ele>218.6</ele>
        <time>2025-10-24T07:13:46.000Z</time>
      </trkpt>
      <trkpt lat="43.57097" lon="6.83267">
        <ele>218.8</ele>
        <time>2025-10-24T07:13:47.000Z</time>
      </trkpt>
      <trkpt lat="43.57095" lon="6.83269">
        <ele>219.1</ele>
        <time>2025-10-24T07:13:48.000Z</time>
      </trkpt>
      <trkpt lat="43.57092" lon="6.83271">
        <ele>219.4</ele>
        <time>2025-10-24T07:13:49.000Z</time>
      </trkpt>
      <trkpt lat="43.57089" lon="6.83273">
        <ele>219.7</ele>
        <time>2025-10-24T07:13:50.000Z</time>
      </trkpt>
      <trkpt lat="43.57087" lon="6.83276">
        <ele>220.1</ele>
        <time>2025-10-24T07:13:51.000Z</time>
      </trkpt>
      <trkpt lat="43.57084" lon="6.83279">
        <ele>220.5</ele>
        <time>2025-10-24T07:13:52.000Z</time>
      </trkpt>
      <trkpt lat="43.57082" lon="6.83282">
        <ele>220.9</ele>
        <time>2025-10-24T07:13:53.000Z</time>
      </trkpt>
      <trkpt lat="43.57081" lon="6.83286">
        <ele>221.3</ele>
        <time>2025-10-24T07:13:54.000Z</time>
      </trkpt>
      <trkpt lat="43.5708" lon="6.83289">
        <ele>221.7</ele>
        <time>2025-10-24T07:13:55.000Z</time>
      </trkpt>
      <trkpt lat="43.5708" lon="6.83293">
        <ele>222.2</ele>
        <time>2025-10-24T07:13:56.000Z</time>
      </trkpt>
      <trkpt lat="43.57079" lon="6.83298">
        <ele>222.6</ele>
        <time>2025-10-24T07:13:57.000Z</time>
      </trkpt>
      <trkpt lat="43.57078" lon="6.83302">
        <ele>223.1</ele>
        <time>2025-10-24T07:13:58.000Z</time>
      </trkpt>
      <trkpt lat="43.57078" lon="6.83306">
        <ele>223.6</ele>
        <time>2025-10-24T07:13:59.000Z</time>
      </trkpt>
      <trkpt lat="43.57078" lon="6.8331">
        <ele>224.1</ele>
        <time>2025-10-24T07:14:00.000Z</time>
      </trkpt>
      <trkpt lat="43.57078" lon="6.83313">
        <ele>224.6</ele>
        <time>2025-10-24T07:14:01.000Z</time>
      </trkpt>
      <trkpt lat="43.57078" lon="6.83317">
        <ele>225.2</ele>
        <time>2025-10-24T07:14:02.000Z</time>
      </trkpt>
      <trkpt lat="43.57079" lon="6.8332">
        <ele>225.7</ele>
        <time>2025-10-24T07:14:03.000Z</time>
      </trkpt>
      <trkpt lat="43.57079" lon="6.83323">
        <ele>226.2</ele>
        <time>2025-10-24T07:14:04.000Z</time>
      </trkpt>
      <trkpt lat="43.5708" lon="6.83326">
        <ele>226.7</ele>
        <time>2025-10-24T07:14:05.000Z</time>
      </trkpt>
      <trkpt lat="43.57081" lon="6.8333">
        <ele>227.2</ele>
        <time>2025-10-24T07:14:06.000Z</time>
      </trkpt>
      <trkpt lat="43.57081" lon="6.83333">
        <ele>227.7</ele>
        <time>2025-10-24T07:14:07.000Z</time>
      </trkpt>
      <trkpt lat="43.57082" lon="6.83336">
        <ele>228.2</ele>
        <time>2025-10-24T07:14:08.000Z</time>
      </trkpt>
      <trkpt lat="43.57082" lon="6.83339">
        <ele>228.6</ele>
        <time>2025-10-24T07:14:09.000Z</time>
      </trkpt>
      <trkpt lat="43.57082" lon="6.83342">
        <ele>229</ele>
        <time>2025-10-24T07:14:10.000Z</time>
      </trkpt>
      <trkpt lat="43.57083" lon="6.83345">
        <ele>229.3</ele>
        <time>2025-10-24T07:14:11.000Z</time>
      </trkpt>
      <trkpt lat="43.57083" lon="6.83348">
        <ele>229.6</ele>
        <time>2025-10-24T07:14:12.000Z</time>
      </trkpt>
      <trkpt lat="43.57083" lon="6.83352">
        <ele>229.9</ele>
        <time>2025-10-24T07:14:13.000Z</time>
      </trkpt>
      <trkpt lat="43.57083" lon="6.83355">
        <ele>230.2</ele>
        <time>2025-10-24T07:14:14.000Z</time>
      </trkpt>
      <trkpt lat="43.57084" lon="6.83358">
        <ele>230.5</ele>
        <time>2025-10-24T07:14:15.000Z</time>
      </trkpt>
      <trkpt lat="43.57084" lon="6.83361">
        <ele>230.7</ele>
        <time>2025-10-24T07:14:16.000Z</time>
      </trkpt>
      <trkpt lat="43.57083" lon="6.83364">
        <ele>230.9</ele>
        <time>2025-10-24T07:14:17.000Z</time>
      </trkpt>
      <trkpt lat="43.57083" lon="6.83367">
        <ele>231.2</ele>
        <time>2025-10-24T07:14:18.000Z</time>
      </trkpt>
      <trkpt lat="43.57082" lon="6.83369">
        <ele>231.5</ele>
        <time>2025-10-24T07:14:19.000Z</time>
      </trkpt>
      <trkpt lat="43.57082" lon="6.83372">
        <ele>231.8</ele>
        <time>2025-10-24T07:14:20.000Z</time>
      </trkpt>
      <trkpt lat="43.57081" lon="6.83376">
        <ele>232.1</ele>
        <time>2025-10-24T07:14:21.000Z</time>
      </trkpt>
      <trkpt lat="43.57081" lon="6.83379">
        <ele>232.4</ele>
        <time>2025-10-24T07:14:22.000Z</time>
      </trkpt>
      <trkpt lat="43.57081" lon="6.83382">
        <ele>232.7</ele>
        <time>2025-10-24T07:14:23.000Z</time>
      </trkpt>
      <trkpt lat="43.57081" lon="6.83385">
        <ele>232.9</ele>
        <time>2025-10-24T07:14:24.000Z</time>
      </trkpt>
      <trkpt lat="43.57081" lon="6.83389">
        <ele>233.2</ele>
        <time>2025-10-24T07:14:25.000Z</time>
      </trkpt>
      <trkpt lat="43.57082" lon="6.83392">
        <ele>233.5</ele>
        <time>2025-10-24T07:14:26.000Z</time>
      </trkpt>
      <trkpt lat="43.57082" lon="6.83395">
        <ele>233.8</ele>
        <time>2025-10-24T07:14:27.000Z</time>
      </trkpt>
      <trkpt lat="43.57082" lon="6.83399">
        <ele>234</ele>
        <time>2025-10-24T07:14:28.000Z</time>
      </trkpt>
      <trkpt lat="43.57082" lon="6.83402">
        <ele>234.2</ele>
        <time>2025-10-24T07:14:29.000Z</time>
      </trkpt>
      <trkpt lat="43.57082" lon="6.83406">
        <ele>234.4</ele>
        <time>2025-10-24T07:14:30.000Z</time>
      </trkpt>
      <trkpt lat="43.57082" lon="6.83409">
        <ele>234.5</ele>
        <time>2025-10-24T07:14:31.000Z</time>
      </trkpt>
      <trkpt lat="43.57082" lon="6.83413">
        <ele>234.6</ele>
        <time>2025-10-24T07:14:32.000Z</time>
      </trkpt>
      <trkpt lat="43.57082" lon="6.83416">
        <ele>234.6</ele>
        <time>2025-10-24T07:14:33.000Z</time>
      </trkpt>
      <trkpt lat="43.57081" lon="6.83418">
        <ele>234.7</ele>
        <time>2025-10-24T07:14:34.000Z</time>
      </trkpt>
      <trkpt lat="43.57081" lon="6.8342">
        <ele>234.6</ele>
        <time>2025-10-24T07:14:35.000Z</time>
      </trkpt>
      <trkpt lat="43.5708" lon="6.83423">
        <ele>234.6</ele>
        <time>2025-10-24T07:14:36.000Z</time>
      </trkpt>
      <trkpt lat="43.57079" lon="6.83425">
        <ele>234.6</ele>
        <time>2025-10-24T07:14:37.000Z</time>
      </trkpt>
      <trkpt lat="43.57077" lon="6.83428">
        <ele>234.5</ele>
        <time>2025-10-24T07:14:38.000Z</time>
      </trkpt>
      <trkpt lat="43.57075" lon="6.83431">
        <ele>234.4</ele>
        <time>2025-10-24T07:14:39.000Z</time>
      </trkpt>
      <trkpt lat="43.57073" lon="6.83434">
        <ele>234.2</ele>
        <time>2025-10-24T07:14:40.000Z</time>
      </trkpt>
      <trkpt lat="43.57071" lon="6.83437">
        <ele>234.1</ele>
        <time>2025-10-24T07:14:41.000Z</time>
      </trkpt>
      <trkpt lat="43.5707" lon="6.83441">
        <ele>234</ele>
        <time>2025-10-24T07:14:42.000Z</time>
      </trkpt>
      <trkpt lat="43.57069" lon="6.83444">
        <ele>233.9</ele>
        <time>2025-10-24T07:14:43.000Z</time>
      </trkpt>
      <trkpt lat="43.57068" lon="6.83448">
        <ele>233.8</ele>
        <time>2025-10-24T07:14:44.000Z</time>
      </trkpt>
      <trkpt lat="43.57068" lon="6.83452">
        <ele>233.8</ele>
        <time>2025-10-24T07:14:45.000Z</time>
      </trkpt>
      <trkpt lat="43.57068" lon="6.83456">
        <ele>233.7</ele>
        <time>2025-10-24T07:14:46.000Z</time>
      </trkpt>
      <trkpt lat="43.57068" lon="6.8346">
        <ele>233.7</ele>
        <time>2025-10-24T07:14:47.000Z</time>
      </trkpt>
      <trkpt lat="43.57069" lon="6.83464">
        <ele>233.7</ele>
        <time>2025-10-24T07:14:48.000Z</time>
      </trkpt>
      <trkpt lat="43.57069" lon="6.83468">
        <ele>233.6</ele>
        <time>2025-10-24T07:14:49.000Z</time>
      </trkpt>
      <trkpt lat="43.57069" lon="6.83471">
        <ele>233.6</ele>
        <time>2025-10-24T07:14:50.000Z</time>
      </trkpt>
      <trkpt lat="43.57069" lon="6.83475">
        <ele>233.6</ele>
        <time>2025-10-24T07:14:51.000Z</time>
      </trkpt>
      <trkpt lat="43.57069" lon="6.83479">
        <ele>233.6</ele>
        <time>2025-10-24T07:14:52.000Z</time>
      </trkpt>
      <trkpt lat="43.57069" lon="6.83483">
        <ele>233.5</ele>
        <time>2025-10-24T07:14:53.000Z</time>
      </trkpt>
      <trkpt lat="43.5707" lon="6.83487">
        <ele>233.5</ele>
        <time>2025-10-24T07:14:54.000Z</time>
      </trkpt>
      <trkpt lat="43.5707" lon="6.83491">
        <ele>233.4</ele>
        <time>2025-10-24T07:14:55.000Z</time>
      </trkpt>
      <trkpt lat="43.57071" lon="6.83495">
        <ele>233.3</ele>
        <time>2025-10-24T07:14:56.000Z</time>
      </trkpt>
      <trkpt lat="43.57071" lon="6.835">
        <ele>233.1</ele>
        <time>2025-10-24T07:14:57.000Z</time>
      </trkpt>
      <trkpt lat="43.57072" lon="6.83504">
        <ele>232.9</ele>
        <time>2025-10-24T07:14:58.000Z</time>
      </trkpt>
      <trkpt lat="43.57071" lon="6.83508">
        <ele>232.7</ele>
        <time>2025-10-24T07:14:59.000Z</time>
      </trkpt>
      <trkpt lat="43.57071" lon="6.83512">
        <ele>232.7</ele>
        <time>2025-10-24T07:15:00.000Z</time>
      </trkpt>
      <trkpt lat="43.57071" lon="6.83517">
        <ele>232.8</ele>
        <time>2025-10-24T07:15:01.000Z</time>
      </trkpt>
      <trkpt lat="43.57071" lon="6.83521">
        <ele>232.8</ele>
        <time>2025-10-24T07:15:02.000Z</time>
      </trkpt>
      <trkpt lat="43.57072" lon="6.83525">
        <ele>232.9</ele>
        <time>2025-10-24T07:15:03.000Z</time>
      </trkpt>
      <trkpt lat="43.57073" lon="6.8353">
        <ele>233</ele>
        <time>2025-10-24T07:15:04.000Z</time>
      </trkpt>
      <trkpt lat="43.57074" lon="6.83534">
        <ele>233.1</ele>
        <time>2025-10-24T07:15:05.000Z</time>
      </trkpt>
      <trkpt lat="43.57075" lon="6.83537">
        <ele>233.2</ele>
        <time>2025-10-24T07:15:06.000Z</time>
      </trkpt>
      <trkpt lat="43.57075" lon="6.83541">
        <ele>233.3</ele>
        <time>2025-10-24T07:15:07.000Z</time>
      </trkpt>
      <trkpt lat="43.57076" lon="6.83545">
        <ele>233.4</ele>
        <time>2025-10-24T07:15:08.000Z</time>
      </trkpt>
      <trkpt lat="43.57076" lon="6.83549">
        <ele>233.5</ele>
        <time>2025-10-24T07:15:09.000Z</time>
      </trkpt>
      <trkpt lat="43.57076" lon="6.83552">
        <ele>233.6</ele>
        <time>2025-10-24T07:15:10.000Z</time>
      </trkpt>
      <trkpt lat="43.57076" lon="6.83556">
        <ele>233.6</ele>
        <time>2025-10-24T07:15:11.000Z</time>
      </trkpt>
      <trkpt lat="43.57076" lon="6.83559">
        <ele>233.7</ele>
        <time>2025-10-24T07:15:12.000Z</time>
      </trkpt>
      <trkpt lat="43.57076" lon="6.83561">
        <ele>233.7</ele>
        <time>2025-10-24T07:15:13.000Z</time>
      </trkpt>
      <trkpt lat="43.57076" lon="6.83562">
        <ele>233.7</ele>
        <time>2025-10-24T07:15:14.000Z</time>
      </trkpt>
      <trkpt lat="43.57076" lon="6.83562">
        <ele>233.7</ele>
        <time>2025-10-24T07:15:15.000Z</time>
      </trkpt>
      <trkpt lat="43.57076" lon="6.83562">
        <ele>233.7</ele>
        <time>2025-10-24T07:15:16.000Z</time>
      </trkpt>
      <trkpt lat="43.57077" lon="6.83563">
        <ele>233.7</ele>
        <time>2025-10-24T07:15:17.000Z</time>
      </trkpt>
      <trkpt lat="43.57076" lon="6.83563">
        <ele>233.7</ele>
        <time>2025-10-24T07:15:18.000Z</time>
      </trkpt>
      <trkpt lat="43.57076" lon="6.83562">
        <ele>233.7</ele>
        <time>2025-10-24T07:15:19.000Z</time>
      </trkpt>
      <trkpt lat="43.57076" lon="6.83562">
        <ele>233.7</ele>
        <time>2025-10-24T07:15:20.000Z</time>
      </trkpt>
      <trkpt lat="43.57076" lon="6.83562">
        <ele>233.7</ele>
        <time>2025-10-24T07:15:21.000Z</time>
      </trkpt>
      <trkpt lat="43.57076" lon="6.83562">
        <ele>233.7</ele>
        <time>2025-10-24T07:15:22.000Z</time>
      </trkpt>
      <trkpt lat="43.57076" lon="6.83563">
        <ele>233.7</ele>
        <time>2025-10-24T07:15:23.000Z</time>
      </trkpt>
      <trkpt lat="43.57078" lon="6.83564">
        <ele>233.8</ele>
        <time>2025-10-24T07:15:24.000Z</time>
      </trkpt>
      <trkpt lat="43.5708" lon="6.83567">
        <ele>233.9</ele>
        <time>2025-10-24T07:15:25.000Z</time>
      </trkpt>
      <trkpt lat="43.57082" lon="6.8357">
        <ele>234</ele>
        <time>2025-10-24T07:15:26.000Z</time>
      </trkpt>
      <trkpt lat="43.57084" lon="6.83573">
        <ele>234.1</ele>
        <time>2025-10-24T07:15:27.000Z</time>
      </trkpt>
      <trkpt lat="43.57087" lon="6.83574">
        <ele>234.2</ele>
        <time>2025-10-24T07:15:28.000Z</time>
      </trkpt>
      <trkpt lat="43.5709" lon="6.83576">
        <ele>234.2</ele>
        <time>2025-10-24T07:15:29.000Z</time>
      </trkpt>
      <trkpt lat="43.57092" lon="6.83578">
        <ele>234.2</ele>
        <time>2025-10-24T07:15:30.000Z</time>
      </trkpt>
      <trkpt lat="43.57095" lon="6.83579">
        <ele>234.2</ele>
        <time>2025-10-24T07:15:31.000Z</time>
      </trkpt>
      <trkpt lat="43.57098" lon="6.8358">
        <ele>234</ele>
        <time>2025-10-24T07:15:32.000Z</time>
      </trkpt>
      <trkpt lat="43.57101" lon="6.83581">
        <ele>233.8</ele>
        <time>2025-10-24T07:15:33.000Z</time>
      </trkpt>
      <trkpt lat="43.57104" lon="6.83581">
        <ele>233.5</ele>
        <time>2025-10-24T07:15:34.000Z</time>
      </trkpt>
      <trkpt lat="43.57106" lon="6.83581">
        <ele>233.1</ele>
        <time>2025-10-24T07:15:35.000Z</time>
      </trkpt>
      <trkpt lat="43.57109" lon="6.83582">
        <ele>232.7</ele>
        <time>2025-10-24T07:15:36.000Z</time>
      </trkpt>
      <trkpt lat="43.57112" lon="6.83583">
        <ele>232.2</ele>
        <time>2025-10-24T07:15:37.000Z</time>
      </trkpt>
      <trkpt lat="43.57117" lon="6.83584">
        <ele>231.5</ele>
        <time>2025-10-24T07:15:38.000Z</time>
      </trkpt>
      <trkpt lat="43.57121" lon="6.83586">
        <ele>230.8</ele>
        <time>2025-10-24T07:15:39.000Z</time>
      </trkpt>
      <trkpt lat="43.57125" lon="6.83588">
        <ele>230.4</ele>
        <time>2025-10-24T07:15:40.000Z</time>
      </trkpt>
      <trkpt lat="43.57128" lon="6.8359">
        <ele>230.2</ele>
        <time>2025-10-24T07:15:41.000Z</time>
      </trkpt>
      <trkpt lat="43.57129" lon="6.83592">
        <ele>230</ele>
        <time>2025-10-24T07:15:42.000Z</time>
      </trkpt>
      <trkpt lat="43.5713" lon="6.83594">
        <ele>230</ele>
        <time>2025-10-24T07:15:43.000Z</time>
      </trkpt>
      <trkpt lat="43.5713" lon="6.83595">
        <ele>230</ele>
        <time>2025-10-24T07:15:44.000Z</time>
      </trkpt>
      <trkpt lat="43.5713" lon="6.83595">
        <ele>230</ele>
        <time>2025-10-24T07:15:45.000Z</time>
      </trkpt>
      <trkpt lat="43.57129" lon="6.83595">
        <ele>230</ele>
        <time>2025-10-24T07:15:46.000Z</time>
      </trkpt>
      <trkpt lat="43.57129" lon="6.83596">
        <ele>229.9</ele>
        <time>2025-10-24T07:15:47.000Z</time>
      </trkpt>
      <trkpt lat="43.57129" lon="6.83596">
        <ele>229.9</ele>
        <time>2025-10-24T07:15:48.000Z</time>
      </trkpt>
      <trkpt lat="43.57129" lon="6.83597">
        <ele>229.9</ele>
        <time>2025-10-24T07:15:49.000Z</time>
      </trkpt>
      <trkpt lat="43.57129" lon="6.83598">
        <ele>229.9</ele>
        <time>2025-10-24T07:15:50.000Z</time>
      </trkpt>
      <trkpt lat="43.57128" lon="6.83598">
        <ele>229.9</ele>
        <time>2025-10-24T07:15:51.000Z</time>
      </trkpt>
      <trkpt lat="43.57129" lon="6.83598">
        <ele>229.9</ele>
        <time>2025-10-24T07:15:52.000Z</time>
      </trkpt>
      <trkpt lat="43.57129" lon="6.83598">
        <ele>229.9</ele>
        <time>2025-10-24T07:15:53.000Z</time>
      </trkpt>
      <trkpt lat="43.57129" lon="6.83598">
        <ele>229.9</ele>
        <time>2025-10-24T07:15:54.000Z</time>
      </trkpt>
      <trkpt lat="43.57128" lon="6.83598">
        <ele>229.9</ele>
        <time>2025-10-24T07:15:55.000Z</time>
      </trkpt>
      <trkpt lat="43.57128" lon="6.83598">
        <ele>229.9</ele>
        <time>2025-10-24T07:15:56.000Z</time>
      </trkpt>
      <trkpt lat="43.57128" lon="6.83598">
        <ele>230</ele>
        <time>2025-10-24T07:15:57.000Z</time>
      </trkpt>
      <trkpt lat="43.57128" lon="6.83598">
        <ele>230</ele>
        <time>2025-10-24T07:15:58.000Z</time>
      </trkpt>
      <trkpt lat="43.57128" lon="6.83598">
        <ele>230</ele>
        <time>2025-10-24T07:15:59.000Z</time>
      </trkpt>
      <trkpt lat="43.57128" lon="6.83598">
        <ele>230</ele>
        <time>2025-10-24T07:16:00.000Z</time>
      </trkpt>
      <trkpt lat="43.57129" lon="6.83603">
        <ele>230.1</ele>
        <time>2025-10-24T07:16:01.000Z</time>
      </trkpt>
      <trkpt lat="43.57131" lon="6.83607">
        <ele>230.6</ele>
        <time>2025-10-24T07:16:02.000Z</time>
      </trkpt>
      <trkpt lat="43.57132" lon="6.83611">
        <ele>231.3</ele>
        <time>2025-10-24T07:16:03.000Z</time>
      </trkpt>
      <trkpt lat="43.57132" lon="6.83615">
        <ele>231.9</ele>
        <time>2025-10-24T07:16:04.000Z</time>
      </trkpt>
      <trkpt lat="43.57133" lon="6.83617">
        <ele>232.5</ele>
        <time>2025-10-24T07:16:05.000Z</time>
      </trkpt>
      <trkpt lat="43.57134" lon="6.83619">
        <ele>232.8</ele>
        <time>2025-10-24T07:16:06.000Z</time>
      </trkpt>
      <trkpt lat="43.57134" lon="6.8362">
        <ele>233</ele>
        <time>2025-10-24T07:16:07.000Z</time>
      </trkpt>
      <trkpt lat="43.57134" lon="6.8362">
        <ele>233.1</ele>
        <time>2025-10-24T07:16:08.000Z</time>
      </trkpt>
      <trkpt lat="43.57134" lon="6.83621">
        <ele>233.3</ele>
        <time>2025-10-24T07:16:09.000Z</time>
      </trkpt>
      <trkpt lat="43.57134" lon="6.83621">
        <ele>233.3</ele>
        <time>2025-10-24T07:16:10.000Z</time>
      </trkpt>
      <trkpt lat="43.57134" lon="6.83621">
        <ele>233.4</ele>
        <time>2025-10-24T07:16:11.000Z</time>
      </trkpt>
      <trkpt lat="43.57134" lon="6.83621">
        <ele>233.4</ele>
        <time>2025-10-24T07:16:12.000Z</time>
      </trkpt>
      <trkpt lat="43.57134" lon="6.8362">
        <ele>233.5</ele>
        <time>2025-10-24T07:16:13.000Z</time>
      </trkpt>
      <trkpt lat="43.57134" lon="6.8362">
        <ele>233.5</ele>
        <time>2025-10-24T07:16:14.000Z</time>
      </trkpt>
      <trkpt lat="43.57134" lon="6.8362">
        <ele>233.5</ele>
        <time>2025-10-24T07:16:15.000Z</time>
      </trkpt>
      <trkpt lat="43.57134" lon="6.8362">
        <ele>233.5</ele>
        <time>2025-10-24T07:16:16.000Z</time>
      </trkpt>
      <trkpt lat="43.57134" lon="6.83621">
        <ele>233.6</ele>
        <time>2025-10-24T07:16:17.000Z</time>
      </trkpt>
      <trkpt lat="43.57134" lon="6.83621">
        <ele>233.6</ele>
        <time>2025-10-24T07:16:18.000Z</time>
      </trkpt>
      <trkpt lat="43.57134" lon="6.83622">
        <ele>233.7</ele>
        <time>2025-10-24T07:16:19.000Z</time>
      </trkpt>
      <trkpt lat="43.57134" lon="6.83622">
        <ele>233.8</ele>
        <time>2025-10-24T07:16:20.000Z</time>
      </trkpt>
      <trkpt lat="43.57134" lon="6.83623">
        <ele>234</ele>
        <time>2025-10-24T07:16:21.000Z</time>
      </trkpt>
      <trkpt lat="43.57134" lon="6.83623">
        <ele>234.2</ele>
        <time>2025-10-24T07:16:22.000Z</time>
      </trkpt>
      <trkpt lat="43.57135" lon="6.83624">
        <ele>234.3</ele>
        <time>2025-10-24T07:16:23.000Z</time>
      </trkpt>
      <trkpt lat="43.57135" lon="6.83624">
        <ele>234.4</ele>
        <time>2025-10-24T07:16:24.000Z</time>
      </trkpt>
      <trkpt lat="43.57135" lon="6.83625">
        <ele>234.6</ele>
        <time>2025-10-24T07:16:25.000Z</time>
      </trkpt>
      <trkpt lat="43.57135" lon="6.83626">
        <ele>234.7</ele>
        <time>2025-10-24T07:16:26.000Z</time>
      </trkpt>
      <trkpt lat="43.57135" lon="6.83627">
        <ele>234.9</ele>
        <time>2025-10-24T07:16:27.000Z</time>
      </trkpt>
      <trkpt lat="43.57135" lon="6.83628">
        <ele>235.1</ele>
        <time>2025-10-24T07:16:28.000Z</time>
      </trkpt>
      <trkpt lat="43.57135" lon="6.83629">
        <ele>235.4</ele>
        <time>2025-10-24T07:16:29.000Z</time>
      </trkpt>
      <trkpt lat="43.57136" lon="6.8363">
        <ele>235.6</ele>
        <time>2025-10-24T07:16:30.000Z</time>
      </trkpt>
      <trkpt lat="43.57136" lon="6.83631">
        <ele>235.7</ele>
        <time>2025-10-24T07:16:31.000Z</time>
      </trkpt>
      <trkpt lat="43.57137" lon="6.83632">
        <ele>235.9</ele>
        <time>2025-10-24T07:16:32.000Z</time>
      </trkpt>
      <trkpt lat="43.57137" lon="6.83633">
        <ele>236.1</ele>
        <time>2025-10-24T07:16:33.000Z</time>
      </trkpt>
      <trkpt lat="43.57137" lon="6.83634">
        <ele>236.3</ele>
        <time>2025-10-24T07:16:34.000Z</time>
      </trkpt>
      <trkpt lat="43.57138" lon="6.83635">
        <ele>236.4</ele>
        <time>2025-10-24T07:16:35.000Z</time>
      </trkpt>
      <trkpt lat="43.57138" lon="6.83636">
        <ele>236.6</ele>
        <time>2025-10-24T07:16:36.000Z</time>
      </trkpt>
      <trkpt lat="43.57138" lon="6.83637">
        <ele>236.8</ele>
        <time>2025-10-24T07:16:37.000Z</time>
      </trkpt>
      <trkpt lat="43.57139" lon="6.83638">
        <ele>236.9</ele>
        <time>2025-10-24T07:16:38.000Z</time>
      </trkpt>
      <trkpt lat="43.57139" lon="6.83639">
        <ele>237</ele>
        <time>2025-10-24T07:16:39.000Z</time>
      </trkpt>
      <trkpt lat="43.57139" lon="6.8364">
        <ele>237.1</ele>
        <time>2025-10-24T07:16:40.000Z</time>
      </trkpt>
      <trkpt lat="43.57139" lon="6.83641">
        <ele>237.2</ele>
        <time>2025-10-24T07:16:41.000Z</time>
      </trkpt>
      <trkpt lat="43.57139" lon="6.83642">
        <ele>237.3</ele>
        <time>2025-10-24T07:16:42.000Z</time>
      </trkpt>
      <trkpt lat="43.57139" lon="6.83643">
        <ele>237.4</ele>
        <time>2025-10-24T07:16:43.000Z</time>
      </trkpt>
      <trkpt lat="43.57139" lon="6.83643">
        <ele>237.4</ele>
        <time>2025-10-24T07:16:44.000Z</time>
      </trkpt>
      <trkpt lat="43.57139" lon="6.83643">
        <ele>237.4</ele>
        <time>2025-10-24T07:16:45.000Z</time>
      </trkpt>
      <trkpt lat="43.57139" lon="6.83643">
        <ele>237.4</ele>
        <time>2025-10-24T07:16:46.000Z</time>
      </trkpt>
      <trkpt lat="43.57139" lon="6.83643">
        <ele>237.4</ele>
        <time>2025-10-24T07:16:47.000Z</time>
      </trkpt>
      <trkpt lat="43.57139" lon="6.83643">
        <ele>237.4</ele>
        <time>2025-10-24T07:16:48.000Z</time>
      </trkpt>
      <trkpt lat="43.57139" lon="6.83643">
        <ele>237.4</ele>
        <time>2025-10-24T07:16:49.000Z</time>
      </trkpt>
      <trkpt lat="43.57139" lon="6.83643">
        <ele>237.5</ele>
        <time>2025-10-24T07:16:50.000Z</time>
      </trkpt>
      <trkpt lat="43.57139" lon="6.83643">
        <ele>237.5</ele>
        <time>2025-10-24T07:16:51.000Z</time>
      </trkpt>
      <trkpt lat="43.57139" lon="6.83643">
        <ele>237.5</ele>
        <time>2025-10-24T07:16:52.000Z</time>
      </trkpt>
      <trkpt lat="43.57139" lon="6.83644">
        <ele>237.5</ele>
        <time>2025-10-24T07:16:53.000Z</time>
      </trkpt>
      <trkpt lat="43.5714" lon="6.83644">
        <ele>237.5</ele>
        <time>2025-10-24T07:16:54.000Z</time>
      </trkpt>
      <trkpt lat="43.5714" lon="6.83644">
        <ele>237.5</ele>
        <time>2025-10-24T07:16:55.000Z</time>
      </trkpt>
      <trkpt lat="43.5714" lon="6.83644">
        <ele>237.6</ele>
        <time>2025-10-24T07:16:56.000Z</time>
      </trkpt>
      <trkpt lat="43.5714" lon="6.83644">
        <ele>237.6</ele>
        <time>2025-10-24T07:16:57.000Z</time>
      </trkpt>
      <trkpt lat="43.57141" lon="6.83644">
        <ele>237.7</ele>
        <time>2025-10-24T07:16:58.000Z</time>
      </trkpt>
      <trkpt lat="43.57142" lon="6.83643">
        <ele>237.7</ele>
        <time>2025-10-24T07:16:59.000Z</time>
      </trkpt>
      <trkpt lat="43.57144" lon="6.83643">
        <ele>237.8</ele>
        <time>2025-10-24T07:17:00.000Z</time>
      </trkpt>
      <trkpt lat="43.57146" lon="6.83642">
        <ele>237.8</ele>
        <time>2025-10-24T07:17:01.000Z</time>
      </trkpt>
      <trkpt lat="43.57148" lon="6.83642">
        <ele>237.8</ele>
        <time>2025-10-24T07:17:02.000Z</time>
      </trkpt>
      <trkpt lat="43.57151" lon="6.83641">
        <ele>237.7</ele>
        <time>2025-10-24T07:17:03.000Z</time>
      </trkpt>
      <trkpt lat="43.57153" lon="6.83639">
        <ele>237.5</ele>
        <time>2025-10-24T07:17:04.000Z</time>
      </trkpt>
      <trkpt lat="43.57156" lon="6.83638">
        <ele>237.4</ele>
        <time>2025-10-24T07:17:05.000Z</time>
      </trkpt>
      <trkpt lat="43.57158" lon="6.83636">
        <ele>237.2</ele>
        <time>2025-10-24T07:17:06.000Z</time>
      </trkpt>
      <trkpt lat="43.57161" lon="6.83635">
        <ele>237</ele>
        <time>2025-10-24T07:17:07.000Z</time>
      </trkpt>
      <trkpt lat="43.57163" lon="6.83634">
        <ele>236.9</ele>
        <time>2025-10-24T07:17:08.000Z</time>
      </trkpt>
      <trkpt lat="43.57165" lon="6.83633">
        <ele>236.8</ele>
        <time>2025-10-24T07:17:09.000Z</time>
      </trkpt>
      <trkpt lat="43.57166" lon="6.83632">
        <ele>236.8</ele>
        <time>2025-10-24T07:17:10.000Z</time>
      </trkpt>
      <trkpt lat="43.57166" lon="6.83631">
        <ele>236.7</ele>
        <time>2025-10-24T07:17:11.000Z</time>
      </trkpt>
      <trkpt lat="43.57167" lon="6.83631">
        <ele>236.7</ele>
        <time>2025-10-24T07:17:12.000Z</time>
      </trkpt>
      <trkpt lat="43.57167" lon="6.83631">
        <ele>236.7</ele>
        <time>2025-10-24T07:17:13.000Z</time>
      </trkpt>
      <trkpt lat="43.57167" lon="6.83631">
        <ele>236.7</ele>
        <time>2025-10-24T07:17:14.000Z</time>
      </trkpt>
      <trkpt lat="43.57167" lon="6.83631">
        <ele>236.7</ele>
        <time>2025-10-24T07:17:15.000Z</time>
      </trkpt>
      <trkpt lat="43.57167" lon="6.83631">
        <ele>236.7</ele>
        <time>2025-10-24T07:17:16.000Z</time>
      </trkpt>
      <trkpt lat="43.57167" lon="6.83631">
        <ele>236.7</ele>
        <time>2025-10-24T07:17:17.000Z</time>
      </trkpt>
      <trkpt lat="43.57167" lon="6.83631">
        <ele>236.7</ele>
        <time>2025-10-24T07:17:18.000Z</time>
      </trkpt>
      <trkpt lat="43.57167" lon="6.8363">
        <ele>236.7</ele>
        <time>2025-10-24T07:17:19.000Z</time>
      </trkpt>
      <trkpt lat="43.57167" lon="6.8363">
        <ele>236.7</ele>
        <time>2025-10-24T07:17:20.000Z</time>
      </trkpt>
      <trkpt lat="43.57167" lon="6.8363">
        <ele>236.7</ele>
        <time>2025-10-24T07:17:21.000Z</time>
      </trkpt>
      <trkpt lat="43.57167" lon="6.8363">
        <ele>236.6</ele>
        <time>2025-10-24T07:17:22.000Z</time>
      </trkpt>
      <trkpt lat="43.57167" lon="6.8363">
        <ele>236.6</ele>
        <time>2025-10-24T07:17:23.000Z</time>
      </trkpt>
      <trkpt lat="43.57168" lon="6.8363">
        <ele>236.6</ele>
        <time>2025-10-24T07:17:24.000Z</time>
      </trkpt>
      <trkpt lat="43.57168" lon="6.8363">
        <ele>236.6</ele>
        <time>2025-10-24T07:17:25.000Z</time>
      </trkpt>
      <trkpt lat="43.57168" lon="6.8363">
        <ele>236.6</ele>
        <time>2025-10-24T07:17:26.000Z</time>
      </trkpt>
      <trkpt lat="43.57168" lon="6.8363">
        <ele>236.6</ele>
        <time>2025-10-24T07:17:27.000Z</time>
      </trkpt>
      <trkpt lat="43.57168" lon="6.8363">
        <ele>236.6</ele>
        <time>2025-10-24T07:17:28.000Z</time>
      </trkpt>
      <trkpt lat="43.57168" lon="6.8363">
        <ele>236.6</ele>
        <time>2025-10-24T07:17:29.000Z</time>
      </trkpt>
      <trkpt lat="43.57168" lon="6.8363">
        <ele>236.6</ele>
        <time>2025-10-24T07:17:30.000Z</time>
      </trkpt>
      <trkpt lat="43.57168" lon="6.8363">
        <ele>236.6</ele>
        <time>2025-10-24T07:17:31.000Z</time>
      </trkpt>
      <trkpt lat="43.57168" lon="6.8363">
        <ele>236.6</ele>
        <time>2025-10-24T07:17:32.000Z</time>
      </trkpt>
      <trkpt lat="43.57168" lon="6.8363">
        <ele>236.6</ele>
        <time>2025-10-24T07:17:33.000Z</time>
      </trkpt>
      <trkpt lat="43.57168" lon="6.8363">
        <ele>236.6</ele>
        <time>2025-10-24T07:17:34.000Z</time>
      </trkpt>
      <trkpt lat="43.57168" lon="6.8363">
        <ele>236.6</ele>
        <time>2025-10-24T07:17:35.000Z</time>
      </trkpt>
      <trkpt lat="43.57168" lon="6.8363">
        <ele>236.6</ele>
        <time>2025-10-24T07:17:36.000Z</time>
      </trkpt>
      <trkpt lat="43.57168" lon="6.8363">
        <ele>236.6</ele>
        <time>2025-10-24T07:17:37.000Z</time>
      </trkpt>
      <trkpt lat="43.57167" lon="6.8363">
        <ele>236.6</ele>
        <time>2025-10-24T07:17:38.000Z</time>
      </trkpt>
      <trkpt lat="43.57167" lon="6.8363">
        <ele>236.6</ele>
        <time>2025-10-24T07:17:39.000Z</time>
      </trkpt>
      <trkpt lat="43.57167" lon="6.8363">
        <ele>236.6</ele>
        <time>2025-10-24T07:17:40.000Z</time>
      </trkpt>
      <trkpt lat="43.57167" lon="6.83631">
        <ele>236.6</ele>
        <time>2025-10-24T07:17:41.000Z</time>
      </trkpt>
      <trkpt lat="43.57167" lon="6.83631">
        <ele>236.6</ele>
        <time>2025-10-24T07:17:42.000Z</time>
      </trkpt>
      <trkpt lat="43.57167" lon="6.83631">
        <ele>236.6</ele>
        <time>2025-10-24T07:17:43.000Z</time>
      </trkpt>
      <trkpt lat="43.57167" lon="6.83631">
        <ele>236.6</ele>
        <time>2025-10-24T07:17:44.000Z</time>
      </trkpt>
      <trkpt lat="43.57167" lon="6.83631">
        <ele>236.6</ele>
        <time>2025-10-24T07:17:45.000Z</time>
      </trkpt>
      <trkpt lat="43.57167" lon="6.83631">
        <ele>236.6</ele>
        <time>2025-10-24T07:17:46.000Z</time>
      </trkpt>
      <trkpt lat="43.57167" lon="6.83631">
        <ele>236.6</ele>
        <time>2025-10-24T07:17:47.000Z</time>
      </trkpt>
      <trkpt lat="43.57167" lon="6.83631">
        <ele>236.6</ele>
        <time>2025-10-24T07:17:48.000Z</time>
      </trkpt>
      <trkpt lat="43.57167" lon="6.83631">
        <ele>236.6</ele>
        <time>2025-10-24T07:17:49.000Z</time>
      </trkpt>
      <trkpt lat="43.57167" lon="6.83631">
        <ele>236.6</ele>
        <time>2025-10-24T07:17:50.000Z</time>
      </trkpt>
      <trkpt lat="43.57168" lon="6.83631">
        <ele>236.5</ele>
        <time>2025-10-24T07:17:51.000Z</time>
      </trkpt>
      <trkpt lat="43.57169" lon="6.83631">
        <ele>236.5</ele>
        <time>2025-10-24T07:17:52.000Z</time>
      </trkpt>
      <trkpt lat="43.57171" lon="6.83631">
        <ele>236.4</ele>
        <time>2025-10-24T07:17:53.000Z</time>
      </trkpt>
      <trkpt lat="43.57172" lon="6.83631">
        <ele>236.3</ele>
        <time>2025-10-24T07:17:54.000Z</time>
      </trkpt>
      <trkpt lat="43.57174" lon="6.83631">
        <ele>236.2</ele>
        <time>2025-10-24T07:17:55.000Z</time>
      </trkpt>
      <trkpt lat="43.57175" lon="6.83631">
        <ele>236.1</ele>
        <time>2025-10-24T07:17:56.000Z</time>
      </trkpt>
      <trkpt lat="43.57177" lon="6.8363">
        <ele>235.9</ele>
        <time>2025-10-24T07:17:57.000Z</time>
      </trkpt>
      <trkpt lat="43.57179" lon="6.8363">
        <ele>235.6</ele>
        <time>2025-10-24T07:17:58.000Z</time>
      </trkpt>
      <trkpt lat="43.57182" lon="6.83629">
        <ele>235.3</ele>
        <time>2025-10-24T07:17:59.000Z</time>
      </trkpt>
      <trkpt lat="43.57184" lon="6.83629">
        <ele>235</ele>
        <time>2025-10-24T07:18:00.000Z</time>
      </trkpt>
      <trkpt lat="43.57186" lon="6.83628">
        <ele>234.7</ele>
        <time>2025-10-24T07:18:01.000Z</time>
      </trkpt>
      <trkpt lat="43.57188" lon="6.83628">
        <ele>234.4</ele>
        <time>2025-10-24T07:18:02.000Z</time>
      </trkpt>
      <trkpt lat="43.57189" lon="6.83628">
        <ele>234.1</ele>
        <time>2025-10-24T07:18:03.000Z</time>
      </trkpt>
      <trkpt lat="43.57192" lon="6.83628">
        <ele>233.7</ele>
        <time>2025-10-24T07:18:04.000Z</time>
      </trkpt>
      <trkpt lat="43.57194" lon="6.83628">
        <ele>233.4</ele>
        <time>2025-10-24T07:18:05.000Z</time>
      </trkpt>
      <trkpt lat="43.57197" lon="6.8363">
        <ele>233.1</ele>
        <time>2025-10-24T07:18:06.000Z</time>
      </trkpt>
      <trkpt lat="43.572" lon="6.83632">
        <ele>233</ele>
        <time>2025-10-24T07:18:07.000Z</time>
      </trkpt>
      <trkpt lat="43.57204" lon="6.83635">
        <ele>233</ele>
        <time>2025-10-24T07:18:08.000Z</time>
      </trkpt>
      <trkpt lat="43.57208" lon="6.83639">
        <ele>233.3</ele>
        <time>2025-10-24T07:18:09.000Z</time>
      </trkpt>
      <trkpt lat="43.57212" lon="6.83642">
        <ele>233.6</ele>
        <time>2025-10-24T07:18:10.000Z</time>
      </trkpt>
      <trkpt lat="43.57214" lon="6.83644">
        <ele>233.8</ele>
        <time>2025-10-24T07:18:11.000Z</time>
      </trkpt>
      <trkpt lat="43.57217" lon="6.83646">
        <ele>233.9</ele>
        <time>2025-10-24T07:18:12.000Z</time>
      </trkpt>
      <trkpt lat="43.5722" lon="6.83647">
        <ele>234</ele>
        <time>2025-10-24T07:18:13.000Z</time>
      </trkpt>
      <trkpt lat="43.57222" lon="6.83647">
        <ele>234</ele>
        <time>2025-10-24T07:18:14.000Z</time>
      </trkpt>
      <trkpt lat="43.57224" lon="6.83647">
        <ele>233.9</ele>
        <time>2025-10-24T07:18:15.000Z</time>
      </trkpt>
      <trkpt lat="43.57227" lon="6.83648">
        <ele>233.7</ele>
        <time>2025-10-24T07:18:16.000Z</time>
      </trkpt>
      <trkpt lat="43.57229" lon="6.83648">
        <ele>233.4</ele>
        <time>2025-10-24T07:18:17.000Z</time>
      </trkpt>
      <trkpt lat="43.57232" lon="6.83649">
        <ele>233.2</ele>
        <time>2025-10-24T07:18:18.000Z</time>
      </trkpt>
      <trkpt lat="43.57234" lon="6.83649">
        <ele>232.7</ele>
        <time>2025-10-24T07:18:19.000Z</time>
      </trkpt>
      <trkpt lat="43.57237" lon="6.8365">
        <ele>232.2</ele>
        <time>2025-10-24T07:18:20.000Z</time>
      </trkpt>
      <trkpt lat="43.57238" lon="6.83649">
        <ele>231.8</ele>
        <time>2025-10-24T07:18:21.000Z</time>
      </trkpt>
      <trkpt lat="43.57241" lon="6.83649">
        <ele>231.3</ele>
        <time>2025-10-24T07:18:22.000Z</time>
      </trkpt>
      <trkpt lat="43.57243" lon="6.83648">
        <ele>230.7</ele>
        <time>2025-10-24T07:18:23.000Z</time>
      </trkpt>
      <trkpt lat="43.57246" lon="6.83647">
        <ele>230</ele>
        <time>2025-10-24T07:18:24.000Z</time>
      </trkpt>
      <trkpt lat="43.57249" lon="6.83645">
        <ele>229</ele>
        <time>2025-10-24T07:18:25.000Z</time>
      </trkpt>
      <trkpt lat="43.57252" lon="6.83644">
        <ele>228.2</ele>
        <time>2025-10-24T07:18:26.000Z</time>
      </trkpt>
      <trkpt lat="43.57257" lon="6.83641">
        <ele>227.1</ele>
        <time>2025-10-24T07:18:27.000Z</time>
      </trkpt>
      <trkpt lat="43.57263" lon="6.83638">
        <ele>226</ele>
        <time>2025-10-24T07:18:28.000Z</time>
      </trkpt>
      <trkpt lat="43.57268" lon="6.83637">
        <ele>225.4</ele>
        <time>2025-10-24T07:18:29.000Z</time>
      </trkpt>
      <trkpt lat="43.57272" lon="6.83635">
        <ele>224.9</ele>
        <time>2025-10-24T07:18:30.000Z</time>
      </trkpt>
      <trkpt lat="43.57275" lon="6.83634">
        <ele>224.5</ele>
        <time>2025-10-24T07:18:31.000Z</time>
      </trkpt>
      <trkpt lat="43.57277" lon="6.83634">
        <ele>224.3</ele>
        <time>2025-10-24T07:18:32.000Z</time>
      </trkpt>
      <trkpt lat="43.57279" lon="6.83633">
        <ele>224.3</ele>
        <time>2025-10-24T07:18:33.000Z</time>
      </trkpt>
      <trkpt lat="43.57279" lon="6.83634">
        <ele>224.3</ele>
        <time>2025-10-24T07:18:34.000Z</time>
      </trkpt>
      <trkpt lat="43.57279" lon="6.83634">
        <ele>224.3</ele>
        <time>2025-10-24T07:18:35.000Z</time>
      </trkpt>
      <trkpt lat="43.57279" lon="6.83634">
        <ele>224.3</ele>
        <time>2025-10-24T07:18:36.000Z</time>
      </trkpt>
      <trkpt lat="43.57279" lon="6.83634">
        <ele>224.3</ele>
        <time>2025-10-24T07:18:37.000Z</time>
      </trkpt>
      <trkpt lat="43.57279" lon="6.83634">
        <ele>224.3</ele>
        <time>2025-10-24T07:18:38.000Z</time>
      </trkpt>
      <trkpt lat="43.57279" lon="6.83634">
        <ele>224.3</ele>
        <time>2025-10-24T07:18:39.000Z</time>
      </trkpt>
      <trkpt lat="43.57279" lon="6.83634">
        <ele>224.3</ele>
        <time>2025-10-24T07:18:40.000Z</time>
      </trkpt>
      <trkpt lat="43.57279" lon="6.83634">
        <ele>224.3</ele>
        <time>2025-10-24T07:18:41.000Z</time>
      </trkpt>
      <trkpt lat="43.57279" lon="6.83634">
        <ele>224.3</ele>
        <time>2025-10-24T07:18:42.000Z</time>
      </trkpt>
      <trkpt lat="43.57279" lon="6.83635">
        <ele>224.3</ele>
        <time>2025-10-24T07:18:43.000Z</time>
      </trkpt>
      <trkpt lat="43.57279" lon="6.83635">
        <ele>224.3</ele>
        <time>2025-10-24T07:18:44.000Z</time>
      </trkpt>
      <trkpt lat="43.5728" lon="6.83636">
        <ele>224.3</ele>
        <time>2025-10-24T07:18:45.000Z</time>
      </trkpt>
      <trkpt lat="43.57281" lon="6.83638">
        <ele>224.4</ele>
        <time>2025-10-24T07:18:46.000Z</time>
      </trkpt>
      <trkpt lat="43.57283" lon="6.8364">
        <ele>224.6</ele>
        <time>2025-10-24T07:18:47.000Z</time>
      </trkpt>
      <trkpt lat="43.57284" lon="6.83643">
        <ele>224.8</ele>
        <time>2025-10-24T07:18:48.000Z</time>
      </trkpt>
      <trkpt lat="43.57285" lon="6.83646">
        <ele>224.9</ele>
        <time>2025-10-24T07:18:49.000Z</time>
      </trkpt>
      <trkpt lat="43.57285" lon="6.83649">
        <ele>225.1</ele>
        <time>2025-10-24T07:18:50.000Z</time>
      </trkpt>
      <trkpt lat="43.57286" lon="6.83653">
        <ele>225.3</ele>
        <time>2025-10-24T07:18:51.000Z</time>
      </trkpt>
      <trkpt lat="43.57287" lon="6.83657">
        <ele>225.6</ele>
        <time>2025-10-24T07:18:52.000Z</time>
      </trkpt>
      <trkpt lat="43.57287" lon="6.83661">
        <ele>225.8</ele>
        <time>2025-10-24T07:18:53.000Z</time>
      </trkpt>
      <trkpt lat="43.57286" lon="6.83664">
        <ele>226.1</ele>
        <time>2025-10-24T07:18:54.000Z</time>
      </trkpt>
      <trkpt lat="43.57286" lon="6.83668">
        <ele>226.4</ele>
        <time>2025-10-24T07:18:55.000Z</time>
      </trkpt>
      <trkpt lat="43.57285" lon="6.83673">
        <ele>226.7</ele>
        <time>2025-10-24T07:18:56.000Z</time>
      </trkpt>
      <trkpt lat="43.57285" lon="6.83676">
        <ele>227</ele>
        <time>2025-10-24T07:18:57.000Z</time>
      </trkpt>
      <trkpt lat="43.57284" lon="6.8368">
        <ele>227.3</ele>
        <time>2025-10-24T07:18:58.000Z</time>
      </trkpt>
      <trkpt lat="43.57283" lon="6.83684">
        <ele>227.6</ele>
        <time>2025-10-24T07:18:59.000Z</time>
      </trkpt>
      <trkpt lat="43.57282" lon="6.83688">
        <ele>227.9</ele>
        <time>2025-10-24T07:19:00.000Z</time>
      </trkpt>
      <trkpt lat="43.57282" lon="6.83691">
        <ele>228.2</ele>
        <time>2025-10-24T07:19:01.000Z</time>
      </trkpt>
      <trkpt lat="43.57281" lon="6.83695">
        <ele>228.5</ele>
        <time>2025-10-24T07:19:02.000Z</time>
      </trkpt>
      <trkpt lat="43.57281" lon="6.83698">
        <ele>228.8</ele>
        <time>2025-10-24T07:19:03.000Z</time>
      </trkpt>
      <trkpt lat="43.57281" lon="6.83701">
        <ele>229</ele>
        <time>2025-10-24T07:19:04.000Z</time>
      </trkpt>
      <trkpt lat="43.5728" lon="6.83705">
        <ele>229.3</ele>
        <time>2025-10-24T07:19:05.000Z</time>
      </trkpt>
      <trkpt lat="43.5728" lon="6.83709">
        <ele>229.6</ele>
        <time>2025-10-24T07:19:06.000Z</time>
      </trkpt>
      <trkpt lat="43.57281" lon="6.83712">
        <ele>229.9</ele>
        <time>2025-10-24T07:19:07.000Z</time>
      </trkpt>
      <trkpt lat="43.57281" lon="6.83716">
        <ele>230.1</ele>
        <time>2025-10-24T07:19:08.000Z</time>
      </trkpt>
      <trkpt lat="43.57281" lon="6.83719">
        <ele>230.4</ele>
        <time>2025-10-24T07:19:09.000Z</time>
      </trkpt>
      <trkpt lat="43.57281" lon="6.83724">
        <ele>230.7</ele>
        <time>2025-10-24T07:19:10.000Z</time>
      </trkpt>
      <trkpt lat="43.5728" lon="6.83729">
        <ele>230.9</ele>
        <time>2025-10-24T07:19:11.000Z</time>
      </trkpt>
      <trkpt lat="43.57279" lon="6.83733">
        <ele>231.1</ele>
        <time>2025-10-24T07:19:12.000Z</time>
      </trkpt>
      <trkpt lat="43.57278" lon="6.83736">
        <ele>231.3</ele>
        <time>2025-10-24T07:19:13.000Z</time>
      </trkpt>
      <trkpt lat="43.57276" lon="6.8374">
        <ele>231.4</ele>
        <time>2025-10-24T07:19:14.000Z</time>
      </trkpt>
      <trkpt lat="43.57274" lon="6.83745">
        <ele>231.7</ele>
        <time>2025-10-24T07:19:15.000Z</time>
      </trkpt>
      <trkpt lat="43.57273" lon="6.8375">
        <ele>231.8</ele>
        <time>2025-10-24T07:19:16.000Z</time>
      </trkpt>
      <trkpt lat="43.57272" lon="6.83754">
        <ele>232</ele>
        <time>2025-10-24T07:19:17.000Z</time>
      </trkpt>
      <trkpt lat="43.5727" lon="6.83757">
        <ele>232.2</ele>
        <time>2025-10-24T07:19:18.000Z</time>
      </trkpt>
      <trkpt lat="43.57268" lon="6.83762">
        <ele>232.4</ele>
        <time>2025-10-24T07:19:19.000Z</time>
      </trkpt>
      <trkpt lat="43.57266" lon="6.83767">
        <ele>232.7</ele>
        <time>2025-10-24T07:19:20.000Z</time>
      </trkpt>
      <trkpt lat="43.57264" lon="6.83772">
        <ele>232.9</ele>
        <time>2025-10-24T07:19:21.000Z</time>
      </trkpt>
      <trkpt lat="43.57262" lon="6.83775">
        <ele>233.1</ele>
        <time>2025-10-24T07:19:22.000Z</time>
      </trkpt>
      <trkpt lat="43.5726" lon="6.83779">
        <ele>233.3</ele>
        <time>2025-10-24T07:19:23.000Z</time>
      </trkpt>
      <trkpt lat="43.57256" lon="6.83785">
        <ele>233.6</ele>
        <time>2025-10-24T07:19:24.000Z</time>
      </trkpt>
      <trkpt lat="43.57254" lon="6.83789">
        <ele>233.8</ele>
        <time>2025-10-24T07:19:25.000Z</time>
      </trkpt>
      <trkpt lat="43.57252" lon="6.83794">
        <ele>234</ele>
        <time>2025-10-24T07:19:26.000Z</time>
      </trkpt>
      <trkpt lat="43.57249" lon="6.83799">
        <ele>234.3</ele>
        <time>2025-10-24T07:19:27.000Z</time>
      </trkpt>
      <trkpt lat="43.57248" lon="6.83803">
        <ele>234.5</ele>
        <time>2025-10-24T07:19:28.000Z</time>
      </trkpt>
      <trkpt lat="43.57246" lon="6.83809">
        <ele>234.9</ele>
        <time>2025-10-24T07:19:29.000Z</time>
      </trkpt>
      <trkpt lat="43.57244" lon="6.83814">
        <ele>235.3</ele>
        <time>2025-10-24T07:19:30.000Z</time>
      </trkpt>
      <trkpt lat="43.57242" lon="6.83819">
        <ele>235.7</ele>
        <time>2025-10-24T07:19:31.000Z</time>
      </trkpt>
      <trkpt lat="43.57241" lon="6.83824">
        <ele>236.2</ele>
        <time>2025-10-24T07:19:32.000Z</time>
      </trkpt>
      <trkpt lat="43.57239" lon="6.83828">
        <ele>236.5</ele>
        <time>2025-10-24T07:19:33.000Z</time>
      </trkpt>
      <trkpt lat="43.57237" lon="6.83833">
        <ele>237</ele>
        <time>2025-10-24T07:19:34.000Z</time>
      </trkpt>
      <trkpt lat="43.57235" lon="6.83837">
        <ele>237.4</ele>
        <time>2025-10-24T07:19:35.000Z</time>
      </trkpt>
      <trkpt lat="43.57234" lon="6.83841">
        <ele>237.8</ele>
        <time>2025-10-24T07:19:36.000Z</time>
      </trkpt>
      <trkpt lat="43.57232" lon="6.83846">
        <ele>238.2</ele>
        <time>2025-10-24T07:19:37.000Z</time>
      </trkpt>
      <trkpt lat="43.57231" lon="6.83849">
        <ele>238.5</ele>
        <time>2025-10-24T07:19:38.000Z</time>
      </trkpt>
      <trkpt lat="43.57229" lon="6.83854">
        <ele>238.9</ele>
        <time>2025-10-24T07:19:39.000Z</time>
      </trkpt>
      <trkpt lat="43.57227" lon="6.83858">
        <ele>239.1</ele>
        <time>2025-10-24T07:19:40.000Z</time>
      </trkpt>
      <trkpt lat="43.57226" lon="6.83861">
        <ele>239.3</ele>
        <time>2025-10-24T07:19:41.000Z</time>
      </trkpt>
      <trkpt lat="43.57225" lon="6.83865">
        <ele>239.6</ele>
        <time>2025-10-24T07:19:42.000Z</time>
      </trkpt>
      <trkpt lat="43.57223" lon="6.83869">
        <ele>239.8</ele>
        <time>2025-10-24T07:19:43.000Z</time>
      </trkpt>
      <trkpt lat="43.57222" lon="6.83873">
        <ele>240.1</ele>
        <time>2025-10-24T07:19:44.000Z</time>
      </trkpt>
      <trkpt lat="43.57221" lon="6.83877">
        <ele>240.3</ele>
        <time>2025-10-24T07:19:45.000Z</time>
      </trkpt>
      <trkpt lat="43.5722" lon="6.83881">
        <ele>240.4</ele>
        <time>2025-10-24T07:19:46.000Z</time>
      </trkpt>
      <trkpt lat="43.57218" lon="6.83886">
        <ele>240.6</ele>
        <time>2025-10-24T07:19:47.000Z</time>
      </trkpt>
      <trkpt lat="43.57216" lon="6.8389">
        <ele>240.8</ele>
        <time>2025-10-24T07:19:48.000Z</time>
      </trkpt>
      <trkpt lat="43.57215" lon="6.83894">
        <ele>240.9</ele>
        <time>2025-10-24T07:19:49.000Z</time>
      </trkpt>
      <trkpt lat="43.57213" lon="6.83898">
        <ele>240.9</ele>
        <time>2025-10-24T07:19:50.000Z</time>
      </trkpt>
      <trkpt lat="43.57211" lon="6.83901">
        <ele>240.9</ele>
        <time>2025-10-24T07:19:51.000Z</time>
      </trkpt>
      <trkpt lat="43.57209" lon="6.83906">
        <ele>240.9</ele>
        <time>2025-10-24T07:19:52.000Z</time>
      </trkpt>
      <trkpt lat="43.57207" lon="6.83911">
        <ele>240.7</ele>
        <time>2025-10-24T07:19:53.000Z</time>
      </trkpt>
      <trkpt lat="43.57206" lon="6.83915">
        <ele>240.6</ele>
        <time>2025-10-24T07:19:54.000Z</time>
      </trkpt>
      <trkpt lat="43.57205" lon="6.8392">
        <ele>240.4</ele>
        <time>2025-10-24T07:19:55.000Z</time>
      </trkpt>
      <trkpt lat="43.57203" lon="6.83925">
        <ele>240.2</ele>
        <time>2025-10-24T07:19:56.000Z</time>
      </trkpt>
      <trkpt lat="43.57202" lon="6.8393">
        <ele>240</ele>
        <time>2025-10-24T07:19:57.000Z</time>
      </trkpt>
      <trkpt lat="43.57202" lon="6.83935">
        <ele>239.9</ele>
        <time>2025-10-24T07:19:58.000Z</time>
      </trkpt>
      <trkpt lat="43.57201" lon="6.83941">
        <ele>239.8</ele>
        <time>2025-10-24T07:19:59.000Z</time>
      </trkpt>
      <trkpt lat="43.572" lon="6.83946">
        <ele>239.8</ele>
        <time>2025-10-24T07:20:00.000Z</time>
      </trkpt>
      <trkpt lat="43.57199" lon="6.83952">
        <ele>239.8</ele>
        <time>2025-10-24T07:20:01.000Z</time>
      </trkpt>
      <trkpt lat="43.57198" lon="6.83957">
        <ele>239.8</ele>
        <time>2025-10-24T07:20:02.000Z</time>
      </trkpt>
      <trkpt lat="43.57198" lon="6.83962">
        <ele>239.9</ele>
        <time>2025-10-24T07:20:03.000Z</time>
      </trkpt>
      <trkpt lat="43.57197" lon="6.83967">
        <ele>239.8</ele>
        <time>2025-10-24T07:20:04.000Z</time>
      </trkpt>
      <trkpt lat="43.57196" lon="6.83972">
        <ele>239.8</ele>
        <time>2025-10-24T07:20:05.000Z</time>
      </trkpt>
      <trkpt lat="43.57196" lon="6.83978">
        <ele>239.8</ele>
        <time>2025-10-24T07:20:06.000Z</time>
      </trkpt>
      <trkpt lat="43.57195" lon="6.83983">
        <ele>239.8</ele>
        <time>2025-10-24T07:20:07.000Z</time>
      </trkpt>
      <trkpt lat="43.57194" lon="6.83987">
        <ele>239.7</ele>
        <time>2025-10-24T07:20:08.000Z</time>
      </trkpt>
      <trkpt lat="43.57193" lon="6.83992">
        <ele>239.7</ele>
        <time>2025-10-24T07:20:09.000Z</time>
      </trkpt>
      <trkpt lat="43.57192" lon="6.83997">
        <ele>239.7</ele>
        <time>2025-10-24T07:20:10.000Z</time>
      </trkpt>
      <trkpt lat="43.57192" lon="6.84002">
        <ele>239.7</ele>
        <time>2025-10-24T07:20:11.000Z</time>
      </trkpt>
      <trkpt lat="43.57192" lon="6.84007">
        <ele>239.7</ele>
        <time>2025-10-24T07:20:12.000Z</time>
      </trkpt>
      <trkpt lat="43.57193" lon="6.84013">
        <ele>239.7</ele>
        <time>2025-10-24T07:20:13.000Z</time>
      </trkpt>
      <trkpt lat="43.57193" lon="6.84017">
        <ele>239.6</ele>
        <time>2025-10-24T07:20:14.000Z</time>
      </trkpt>
      <trkpt lat="43.57193" lon="6.84021">
        <ele>239.5</ele>
        <time>2025-10-24T07:20:15.000Z</time>
      </trkpt>
      <trkpt lat="43.57193" lon="6.84026">
        <ele>239.4</ele>
        <time>2025-10-24T07:20:16.000Z</time>
      </trkpt>
      <trkpt lat="43.57193" lon="6.8403">
        <ele>239.3</ele>
        <time>2025-10-24T07:20:17.000Z</time>
      </trkpt>
      <trkpt lat="43.57193" lon="6.84034">
        <ele>239.1</ele>
        <time>2025-10-24T07:20:18.000Z</time>
      </trkpt>
      <trkpt lat="43.57193" lon="6.84037">
        <ele>238.9</ele>
        <time>2025-10-24T07:20:19.000Z</time>
      </trkpt>
      <trkpt lat="43.57194" lon="6.8404">
        <ele>238.8</ele>
        <time>2025-10-24T07:20:20.000Z</time>
      </trkpt>
      <trkpt lat="43.57194" lon="6.84041">
        <ele>238.7</ele>
        <time>2025-10-24T07:20:21.000Z</time>
      </trkpt>
      <trkpt lat="43.57194" lon="6.84042">
        <ele>238.6</ele>
        <time>2025-10-24T07:20:22.000Z</time>
      </trkpt>
      <trkpt lat="43.57194" lon="6.84042">
        <ele>238.6</ele>
        <time>2025-10-24T07:20:23.000Z</time>
      </trkpt>
      <trkpt lat="43.57195" lon="6.84042">
        <ele>238.6</ele>
        <time>2025-10-24T07:20:24.000Z</time>
      </trkpt>
      <trkpt lat="43.57194" lon="6.84042">
        <ele>238.6</ele>
        <time>2025-10-24T07:20:25.000Z</time>
      </trkpt>
      <trkpt lat="43.57195" lon="6.84043">
        <ele>238.5</ele>
        <time>2025-10-24T07:20:26.000Z</time>
      </trkpt>
      <trkpt lat="43.57195" lon="6.84044">
        <ele>238.4</ele>
        <time>2025-10-24T07:20:27.000Z</time>
      </trkpt>
      <trkpt lat="43.57195" lon="6.84047">
        <ele>238.3</ele>
        <time>2025-10-24T07:20:28.000Z</time>
      </trkpt>
      <trkpt lat="43.57196" lon="6.84049">
        <ele>238.2</ele>
        <time>2025-10-24T07:20:29.000Z</time>
      </trkpt>
      <trkpt lat="43.57196" lon="6.84053">
        <ele>238.1</ele>
        <time>2025-10-24T07:20:30.000Z</time>
      </trkpt>
      <trkpt lat="43.57196" lon="6.84056">
        <ele>238.1</ele>
        <time>2025-10-24T07:20:31.000Z</time>
      </trkpt>
      <trkpt lat="43.57196" lon="6.84059">
        <ele>238.1</ele>
        <time>2025-10-24T07:20:32.000Z</time>
      </trkpt>
      <trkpt lat="43.57195" lon="6.84062">
        <ele>238.1</ele>
        <time>2025-10-24T07:20:33.000Z</time>
      </trkpt>
      <trkpt lat="43.57195" lon="6.84065">
        <ele>238.1</ele>
        <time>2025-10-24T07:20:34.000Z</time>
      </trkpt>
      <trkpt lat="43.57194" lon="6.84069">
        <ele>238.2</ele>
        <time>2025-10-24T07:20:35.000Z</time>
      </trkpt>
      <trkpt lat="43.57194" lon="6.84072">
        <ele>238.4</ele>
        <time>2025-10-24T07:20:36.000Z</time>
      </trkpt>
      <trkpt lat="43.57194" lon="6.84075">
        <ele>238.6</ele>
        <time>2025-10-24T07:20:37.000Z</time>
      </trkpt>
      <trkpt lat="43.57194" lon="6.84079">
        <ele>238.8</ele>
        <time>2025-10-24T07:20:38.000Z</time>
      </trkpt>
      <trkpt lat="43.57194" lon="6.84083">
        <ele>239</ele>
        <time>2025-10-24T07:20:39.000Z</time>
      </trkpt>
      <trkpt lat="43.57195" lon="6.84085">
        <ele>239.2</ele>
        <time>2025-10-24T07:20:40.000Z</time>
      </trkpt>
      <trkpt lat="43.57195" lon="6.8409">
        <ele>239.6</ele>
        <time>2025-10-24T07:20:41.000Z</time>
      </trkpt>
      <trkpt lat="43.57196" lon="6.84094">
        <ele>239.9</ele>
        <time>2025-10-24T07:20:42.000Z</time>
      </trkpt>
      <trkpt lat="43.57196" lon="6.84097">
        <ele>240.2</ele>
        <time>2025-10-24T07:20:43.000Z</time>
      </trkpt>
      <trkpt lat="43.57196" lon="6.84101">
        <ele>240.6</ele>
        <time>2025-10-24T07:20:44.000Z</time>
      </trkpt>
      <trkpt lat="43.57196" lon="6.84105">
        <ele>241</ele>
        <time>2025-10-24T07:20:45.000Z</time>
      </trkpt>
      <trkpt lat="43.57197" lon="6.84109">
        <ele>241.4</ele>
        <time>2025-10-24T07:20:46.000Z</time>
      </trkpt>
      <trkpt lat="43.57197" lon="6.84112">
        <ele>241.7</ele>
        <time>2025-10-24T07:20:47.000Z</time>
      </trkpt>
      <trkpt lat="43.57197" lon="6.84115">
        <ele>242</ele>
        <time>2025-10-24T07:20:48.000Z</time>
      </trkpt>
      <trkpt lat="43.57198" lon="6.84118">
        <ele>242.3</ele>
        <time>2025-10-24T07:20:49.000Z</time>
      </trkpt>
      <trkpt lat="43.57198" lon="6.84122">
        <ele>242.6</ele>
        <time>2025-10-24T07:20:50.000Z</time>
      </trkpt>
      <trkpt lat="43.572" lon="6.84125">
        <ele>242.9</ele>
        <time>2025-10-24T07:20:51.000Z</time>
      </trkpt>
      <trkpt lat="43.57201" lon="6.84129">
        <ele>243</ele>
        <time>2025-10-24T07:20:52.000Z</time>
      </trkpt>
      <trkpt lat="43.57203" lon="6.84131">
        <ele>243.2</ele>
        <time>2025-10-24T07:20:53.000Z</time>
      </trkpt>
      <trkpt lat="43.57205" lon="6.84135">
        <ele>243.3</ele>
        <time>2025-10-24T07:20:54.000Z</time>
      </trkpt>
      <trkpt lat="43.57209" lon="6.84138">
        <ele>243.4</ele>
        <time>2025-10-24T07:20:55.000Z</time>
      </trkpt>
      <trkpt lat="43.57212" lon="6.84141">
        <ele>243.4</ele>
        <time>2025-10-24T07:20:56.000Z</time>
      </trkpt>
      <trkpt lat="43.57215" lon="6.84145">
        <ele>243.4</ele>
        <time>2025-10-24T07:20:57.000Z</time>
      </trkpt>
      <trkpt lat="43.57218" lon="6.84148">
        <ele>243.4</ele>
        <time>2025-10-24T07:20:58.000Z</time>
      </trkpt>
      <trkpt lat="43.57221" lon="6.8415">
        <ele>243.4</ele>
        <time>2025-10-24T07:20:59.000Z</time>
      </trkpt>
      <trkpt lat="43.57224" lon="6.84154">
        <ele>243.4</ele>
        <time>2025-10-24T07:21:00.000Z</time>
      </trkpt>
      <trkpt lat="43.57227" lon="6.84157">
        <ele>243.4</ele>
        <time>2025-10-24T07:21:01.000Z</time>
      </trkpt>
      <trkpt lat="43.5723" lon="6.8416">
        <ele>243.5</ele>
        <time>2025-10-24T07:21:02.000Z</time>
      </trkpt>
      <trkpt lat="43.57233" lon="6.84164">
        <ele>243.5</ele>
        <time>2025-10-24T07:21:03.000Z</time>
      </trkpt>
      <trkpt lat="43.57236" lon="6.84167">
        <ele>243.5</ele>
        <time>2025-10-24T07:21:04.000Z</time>
      </trkpt>
      <trkpt lat="43.57241" lon="6.84171">
        <ele>243.6</ele>
        <time>2025-10-24T07:21:05.000Z</time>
      </trkpt>
      <trkpt lat="43.57244" lon="6.84175">
        <ele>243.6</ele>
        <time>2025-10-24T07:21:06.000Z</time>
      </trkpt>
      <trkpt lat="43.57248" lon="6.84178">
        <ele>243.8</ele>
        <time>2025-10-24T07:21:07.000Z</time>
      </trkpt>
      <trkpt lat="43.57251" lon="6.84182">
        <ele>243.9</ele>
        <time>2025-10-24T07:21:08.000Z</time>
      </trkpt>
      <trkpt lat="43.57255" lon="6.84186">
        <ele>244.1</ele>
        <time>2025-10-24T07:21:09.000Z</time>
      </trkpt>
      <trkpt lat="43.57259" lon="6.84192">
        <ele>244.4</ele>
        <time>2025-10-24T07:21:10.000Z</time>
      </trkpt>
      <trkpt lat="43.57261" lon="6.84197">
        <ele>244.8</ele>
        <time>2025-10-24T07:21:11.000Z</time>
      </trkpt>
      <trkpt lat="43.57264" lon="6.84201">
        <ele>245.2</ele>
        <time>2025-10-24T07:21:12.000Z</time>
      </trkpt>
      <trkpt lat="43.57266" lon="6.84206">
        <ele>245.6</ele>
        <time>2025-10-24T07:21:13.000Z</time>
      </trkpt>
      <trkpt lat="43.57269" lon="6.84209">
        <ele>245.9</ele>
        <time>2025-10-24T07:21:14.000Z</time>
      </trkpt>
      <trkpt lat="43.57271" lon="6.84213">
        <ele>246.4</ele>
        <time>2025-10-24T07:21:15.000Z</time>
      </trkpt>
      <trkpt lat="43.57273" lon="6.84217">
        <ele>246.8</ele>
        <time>2025-10-24T07:21:16.000Z</time>
      </trkpt>
      <trkpt lat="43.57275" lon="6.8422">
        <ele>247.1</ele>
        <time>2025-10-24T07:21:17.000Z</time>
      </trkpt>
      <trkpt lat="43.57278" lon="6.84224">
        <ele>247.6</ele>
        <time>2025-10-24T07:21:18.000Z</time>
      </trkpt>
      <trkpt lat="43.57281" lon="6.84228">
        <ele>248.1</ele>
        <time>2025-10-24T07:21:19.000Z</time>
      </trkpt>
      <trkpt lat="43.57284" lon="6.84232">
        <ele>248.6</ele>
        <time>2025-10-24T07:21:20.000Z</time>
      </trkpt>
      <trkpt lat="43.57287" lon="6.84235">
        <ele>249</ele>
        <time>2025-10-24T07:21:21.000Z</time>
      </trkpt>
      <trkpt lat="43.57289" lon="6.84238">
        <ele>249.4</ele>
        <time>2025-10-24T07:21:22.000Z</time>
      </trkpt>
      <trkpt lat="43.57292" lon="6.84241">
        <ele>249.7</ele>
        <time>2025-10-24T07:21:23.000Z</time>
      </trkpt>
      <trkpt lat="43.57295" lon="6.84245">
        <ele>250.1</ele>
        <time>2025-10-24T07:21:24.000Z</time>
      </trkpt>
      <trkpt lat="43.57297" lon="6.84249">
        <ele>250.2</ele>
        <time>2025-10-24T07:21:25.000Z</time>
      </trkpt>
      <trkpt lat="43.57299" lon="6.84252">
        <ele>250.3</ele>
        <time>2025-10-24T07:21:26.000Z</time>
      </trkpt>
      <trkpt lat="43.57301" lon="6.84255">
        <ele>250.3</ele>
        <time>2025-10-24T07:21:27.000Z</time>
      </trkpt>
      <trkpt lat="43.57303" lon="6.84256">
        <ele>250.3</ele>
        <time>2025-10-24T07:21:28.000Z</time>
      </trkpt>
      <trkpt lat="43.57306" lon="6.84259">
        <ele>250.2</ele>
        <time>2025-10-24T07:21:29.000Z</time>
      </trkpt>
      <trkpt lat="43.57308" lon="6.84261">
        <ele>250</ele>
        <time>2025-10-24T07:21:30.000Z</time>
      </trkpt>
      <trkpt lat="43.57312" lon="6.84263">
        <ele>249.9</ele>
        <time>2025-10-24T07:21:31.000Z</time>
      </trkpt>
      <trkpt lat="43.57316" lon="6.84264">
        <ele>249.7</ele>
        <time>2025-10-24T07:21:32.000Z</time>
      </trkpt>
      <trkpt lat="43.5732" lon="6.84264">
        <ele>249.6</ele>
        <time>2025-10-24T07:21:33.000Z</time>
      </trkpt>
      <trkpt lat="43.57325" lon="6.84265">
        <ele>249.5</ele>
        <time>2025-10-24T07:21:34.000Z</time>
      </trkpt>
      <trkpt lat="43.5733" lon="6.84266">
        <ele>249.5</ele>
        <time>2025-10-24T07:21:35.000Z</time>
      </trkpt>
      <trkpt lat="43.57334" lon="6.84267">
        <ele>249.6</ele>
        <time>2025-10-24T07:21:36.000Z</time>
      </trkpt>
      <trkpt lat="43.57338" lon="6.84269">
        <ele>249.7</ele>
        <time>2025-10-24T07:21:37.000Z</time>
      </trkpt>
      <trkpt lat="43.57341" lon="6.84271">
        <ele>249.8</ele>
        <time>2025-10-24T07:21:38.000Z</time>
      </trkpt>
      <trkpt lat="43.57345" lon="6.84275">
        <ele>249.9</ele>
        <time>2025-10-24T07:21:39.000Z</time>
      </trkpt>
      <trkpt lat="43.57349" lon="6.84278">
        <ele>250</ele>
        <time>2025-10-24T07:21:40.000Z</time>
      </trkpt>
      <trkpt lat="43.57353" lon="6.84281">
        <ele>250.1</ele>
        <time>2025-10-24T07:21:41.000Z</time>
      </trkpt>
      <trkpt lat="43.57356" lon="6.84284">
        <ele>250.3</ele>
        <time>2025-10-24T07:21:42.000Z</time>
      </trkpt>
      <trkpt lat="43.57359" lon="6.84286">
        <ele>250.5</ele>
        <time>2025-10-24T07:21:43.000Z</time>
      </trkpt>
      <trkpt lat="43.57364" lon="6.8429">
        <ele>250.7</ele>
        <time>2025-10-24T07:21:44.000Z</time>
      </trkpt>
      <trkpt lat="43.57367" lon="6.84292">
        <ele>250.9</ele>
        <time>2025-10-24T07:21:45.000Z</time>
      </trkpt>
      <trkpt lat="43.57371" lon="6.84295">
        <ele>251.2</ele>
        <time>2025-10-24T07:21:46.000Z</time>
      </trkpt>
      <trkpt lat="43.57375" lon="6.84297">
        <ele>251.5</ele>
        <time>2025-10-24T07:21:47.000Z</time>
      </trkpt>
      <trkpt lat="43.57379" lon="6.84299">
        <ele>251.8</ele>
        <time>2025-10-24T07:21:48.000Z</time>
      </trkpt>
      <trkpt lat="43.57383" lon="6.84301">
        <ele>252.2</ele>
        <time>2025-10-24T07:21:49.000Z</time>
      </trkpt>
      <trkpt lat="43.57386" lon="6.84303">
        <ele>252.5</ele>
        <time>2025-10-24T07:21:50.000Z</time>
      </trkpt>
      <trkpt lat="43.5739" lon="6.84306">
        <ele>252.9</ele>
        <time>2025-10-24T07:21:51.000Z</time>
      </trkpt>
      <trkpt lat="43.57393" lon="6.8431">
        <ele>253.3</ele>
        <time>2025-10-24T07:21:52.000Z</time>
      </trkpt>
      <trkpt lat="43.57396" lon="6.84314">
        <ele>253.8</ele>
        <time>2025-10-24T07:21:53.000Z</time>
      </trkpt>
      <trkpt lat="43.57398" lon="6.84318">
        <ele>254.2</ele>
        <time>2025-10-24T07:21:54.000Z</time>
      </trkpt>
      <trkpt lat="43.57401" lon="6.84322">
        <ele>254.6</ele>
        <time>2025-10-24T07:21:55.000Z</time>
      </trkpt>
      <trkpt lat="43.57402" lon="6.84327">
        <ele>255.1</ele>
        <time>2025-10-24T07:21:56.000Z</time>
      </trkpt>
      <trkpt lat="43.57404" lon="6.84332">
        <ele>255.5</ele>
        <time>2025-10-24T07:21:57.000Z</time>
      </trkpt>
      <trkpt lat="43.57405" lon="6.84337">
        <ele>256</ele>
        <time>2025-10-24T07:21:58.000Z</time>
      </trkpt>
      <trkpt lat="43.57406" lon="6.84342">
        <ele>256.4</ele>
        <time>2025-10-24T07:21:59.000Z</time>
      </trkpt>
      <trkpt lat="43.57407" lon="6.84347">
        <ele>256.8</ele>
        <time>2025-10-24T07:22:00.000Z</time>
      </trkpt>
      <trkpt lat="43.57407" lon="6.84351">
        <ele>257.2</ele>
        <time>2025-10-24T07:22:01.000Z</time>
      </trkpt>
      <trkpt lat="43.57408" lon="6.84356">
        <ele>257.5</ele>
        <time>2025-10-24T07:22:02.000Z</time>
      </trkpt>
      <trkpt lat="43.57409" lon="6.8436">
        <ele>257.8</ele>
        <time>2025-10-24T07:22:03.000Z</time>
      </trkpt>
      <trkpt lat="43.57411" lon="6.84364">
        <ele>257.9</ele>
        <time>2025-10-24T07:22:04.000Z</time>
      </trkpt>
      <trkpt lat="43.57413" lon="6.84367">
        <ele>258</ele>
        <time>2025-10-24T07:22:05.000Z</time>
      </trkpt>
      <trkpt lat="43.57416" lon="6.84369">
        <ele>258.1</ele>
        <time>2025-10-24T07:22:06.000Z</time>
      </trkpt>
      <trkpt lat="43.57419" lon="6.8437">
        <ele>258</ele>
        <time>2025-10-24T07:22:07.000Z</time>
      </trkpt>
      <trkpt lat="43.57422" lon="6.8437">
        <ele>258</ele>
        <time>2025-10-24T07:22:08.000Z</time>
      </trkpt>
      <trkpt lat="43.57425" lon="6.8437">
        <ele>257.9</ele>
        <time>2025-10-24T07:22:09.000Z</time>
      </trkpt>
      <trkpt lat="43.57428" lon="6.84369">
        <ele>257.8</ele>
        <time>2025-10-24T07:22:10.000Z</time>
      </trkpt>
      <trkpt lat="43.57432" lon="6.84368">
        <ele>257.8</ele>
        <time>2025-10-24T07:22:11.000Z</time>
      </trkpt>
      <trkpt lat="43.57437" lon="6.84367">
        <ele>257.7</ele>
        <time>2025-10-24T07:22:12.000Z</time>
      </trkpt>
      <trkpt lat="43.57441" lon="6.84366">
        <ele>257.8</ele>
        <time>2025-10-24T07:22:13.000Z</time>
      </trkpt>
      <trkpt lat="43.57445" lon="6.84365">
        <ele>257.9</ele>
        <time>2025-10-24T07:22:14.000Z</time>
      </trkpt>
      <trkpt lat="43.57449" lon="6.84365">
        <ele>258</ele>
        <time>2025-10-24T07:22:15.000Z</time>
      </trkpt>
      <trkpt lat="43.57452" lon="6.84366">
        <ele>258.1</ele>
        <time>2025-10-24T07:22:16.000Z</time>
      </trkpt>
      <trkpt lat="43.57455" lon="6.84367">
        <ele>258.2</ele>
        <time>2025-10-24T07:22:17.000Z</time>
      </trkpt>
      <trkpt lat="43.57458" lon="6.84369">
        <ele>258.4</ele>
        <time>2025-10-24T07:22:18.000Z</time>
      </trkpt>
      <trkpt lat="43.57461" lon="6.84371">
        <ele>258.5</ele>
        <time>2025-10-24T07:22:19.000Z</time>
      </trkpt>
      <trkpt lat="43.57463" lon="6.84374">
        <ele>258.6</ele>
        <time>2025-10-24T07:22:20.000Z</time>
      </trkpt>
      <trkpt lat="43.57466" lon="6.84378">
        <ele>258.7</ele>
        <time>2025-10-24T07:22:21.000Z</time>
      </trkpt>
      <trkpt lat="43.57468" lon="6.84381">
        <ele>258.8</ele>
        <time>2025-10-24T07:22:22.000Z</time>
      </trkpt>
      <trkpt lat="43.57471" lon="6.84384">
        <ele>258.9</ele>
        <time>2025-10-24T07:22:23.000Z</time>
      </trkpt>
      <trkpt lat="43.57473" lon="6.84387">
        <ele>259.1</ele>
        <time>2025-10-24T07:22:24.000Z</time>
      </trkpt>
      <trkpt lat="43.57476" lon="6.8439">
        <ele>259.3</ele>
        <time>2025-10-24T07:22:25.000Z</time>
      </trkpt>
      <trkpt lat="43.57479" lon="6.84392">
        <ele>259.5</ele>
        <time>2025-10-24T07:22:26.000Z</time>
      </trkpt>
      <trkpt lat="43.57482" lon="6.84393">
        <ele>259.7</ele>
        <time>2025-10-24T07:22:27.000Z</time>
      </trkpt>
      <trkpt lat="43.57485" lon="6.84394">
        <ele>260</ele>
        <time>2025-10-24T07:22:28.000Z</time>
      </trkpt>
      <trkpt lat="43.57488" lon="6.84395">
        <ele>260.3</ele>
        <time>2025-10-24T07:22:29.000Z</time>
      </trkpt>
      <trkpt lat="43.57491" lon="6.84397">
        <ele>260.7</ele>
        <time>2025-10-24T07:22:30.000Z</time>
      </trkpt>
      <trkpt lat="43.57494" lon="6.84399">
        <ele>261</ele>
        <time>2025-10-24T07:22:31.000Z</time>
      </trkpt>
      <trkpt lat="43.57496" lon="6.84401">
        <ele>261.4</ele>
        <time>2025-10-24T07:22:32.000Z</time>
      </trkpt>
      <trkpt lat="43.57499" lon="6.84403">
        <ele>261.7</ele>
        <time>2025-10-24T07:22:33.000Z</time>
      </trkpt>
      <trkpt lat="43.57501" lon="6.84406">
        <ele>262.1</ele>
        <time>2025-10-24T07:22:34.000Z</time>
      </trkpt>
      <trkpt lat="43.57503" lon="6.84409">
        <ele>262.4</ele>
        <time>2025-10-24T07:22:35.000Z</time>
      </trkpt>
      <trkpt lat="43.57505" lon="6.84411">
        <ele>262.7</ele>
        <time>2025-10-24T07:22:36.000Z</time>
      </trkpt>
      <trkpt lat="43.57507" lon="6.84414">
        <ele>262.9</ele>
        <time>2025-10-24T07:22:37.000Z</time>
      </trkpt>
      <trkpt lat="43.5751" lon="6.84416">
        <ele>263.2</ele>
        <time>2025-10-24T07:22:38.000Z</time>
      </trkpt>
      <trkpt lat="43.57512" lon="6.84418">
        <ele>263.4</ele>
        <time>2025-10-24T07:22:39.000Z</time>
      </trkpt>
      <trkpt lat="43.57515" lon="6.8442">
        <ele>263.7</ele>
        <time>2025-10-24T07:22:40.000Z</time>
      </trkpt>
      <trkpt lat="43.57517" lon="6.84421">
        <ele>263.9</ele>
        <time>2025-10-24T07:22:41.000Z</time>
      </trkpt>
      <trkpt lat="43.5752" lon="6.84423">
        <ele>264.1</ele>
        <time>2025-10-24T07:22:42.000Z</time>
      </trkpt>
      <trkpt lat="43.57523" lon="6.84424">
        <ele>264.4</ele>
        <time>2025-10-24T07:22:43.000Z</time>
      </trkpt>
      <trkpt lat="43.57526" lon="6.84425">
        <ele>264.6</ele>
        <time>2025-10-24T07:22:44.000Z</time>
      </trkpt>
      <trkpt lat="43.57529" lon="6.84425">
        <ele>264.9</ele>
        <time>2025-10-24T07:22:45.000Z</time>
      </trkpt>
      <trkpt lat="43.57533" lon="6.84426">
        <ele>265.2</ele>
        <time>2025-10-24T07:22:46.000Z</time>
      </trkpt>
      <trkpt lat="43.57536" lon="6.84427">
        <ele>265.5</ele>
        <time>2025-10-24T07:22:47.000Z</time>
      </trkpt>
      <trkpt lat="43.5754" lon="6.84427">
        <ele>265.8</ele>
        <time>2025-10-24T07:22:48.000Z</time>
      </trkpt>
      <trkpt lat="43.57544" lon="6.84428">
        <ele>266.1</ele>
        <time>2025-10-24T07:22:49.000Z</time>
      </trkpt>
      <trkpt lat="43.57547" lon="6.84428">
        <ele>266.4</ele>
        <time>2025-10-24T07:22:50.000Z</time>
      </trkpt>
      <trkpt lat="43.57551" lon="6.84429">
        <ele>266.7</ele>
        <time>2025-10-24T07:22:51.000Z</time>
      </trkpt>
      <trkpt lat="43.57554" lon="6.84429">
        <ele>267</ele>
        <time>2025-10-24T07:22:52.000Z</time>
      </trkpt>
      <trkpt lat="43.57558" lon="6.8443">
        <ele>267.2</ele>
        <time>2025-10-24T07:22:53.000Z</time>
      </trkpt>
      <trkpt lat="43.57561" lon="6.8443">
        <ele>267.3</ele>
        <time>2025-10-24T07:22:54.000Z</time>
      </trkpt>
      <trkpt lat="43.57563" lon="6.8443">
        <ele>267.3</ele>
        <time>2025-10-24T07:22:55.000Z</time>
      </trkpt>
      <trkpt lat="43.57566" lon="6.8443">
        <ele>267.3</ele>
        <time>2025-10-24T07:22:56.000Z</time>
      </trkpt>
      <trkpt lat="43.57568" lon="6.8443">
        <ele>267.2</ele>
        <time>2025-10-24T07:22:57.000Z</time>
      </trkpt>
      <trkpt lat="43.5757" lon="6.8443">
        <ele>267.2</ele>
        <time>2025-10-24T07:22:58.000Z</time>
      </trkpt>
      <trkpt lat="43.57573" lon="6.84432">
        <ele>267.1</ele>
        <time>2025-10-24T07:22:59.000Z</time>
      </trkpt>
      <trkpt lat="43.57576" lon="6.84434">
        <ele>266.9</ele>
        <time>2025-10-24T07:23:00.000Z</time>
      </trkpt>
      <trkpt lat="43.57581" lon="6.84438">
        <ele>266.7</ele>
        <time>2025-10-24T07:23:01.000Z</time>
      </trkpt>
      <trkpt lat="43.57585" lon="6.84441">
        <ele>266.5</ele>
        <time>2025-10-24T07:23:02.000Z</time>
      </trkpt>
      <trkpt lat="43.57588" lon="6.84443">
        <ele>266.5</ele>
        <time>2025-10-24T07:23:03.000Z</time>
      </trkpt>
      <trkpt lat="43.57592" lon="6.84444">
        <ele>266.5</ele>
        <time>2025-10-24T07:23:04.000Z</time>
      </trkpt>
      <trkpt lat="43.57595" lon="6.84444">
        <ele>266.5</ele>
        <time>2025-10-24T07:23:05.000Z</time>
      </trkpt>
      <trkpt lat="43.57598" lon="6.84443">
        <ele>266.6</ele>
        <time>2025-10-24T07:23:06.000Z</time>
      </trkpt>
      <trkpt lat="43.57603" lon="6.84442">
        <ele>266.9</ele>
        <time>2025-10-24T07:23:07.000Z</time>
      </trkpt>
      <trkpt lat="43.57607" lon="6.84441">
        <ele>267.2</ele>
        <time>2025-10-24T07:23:08.000Z</time>
      </trkpt>
      <trkpt lat="43.5761" lon="6.84442">
        <ele>267.4</ele>
        <time>2025-10-24T07:23:09.000Z</time>
      </trkpt>
      <trkpt lat="43.57613" lon="6.84444">
        <ele>267.7</ele>
        <time>2025-10-24T07:23:10.000Z</time>
      </trkpt>
      <trkpt lat="43.57615" lon="6.84447">
        <ele>268</ele>
        <time>2025-10-24T07:23:11.000Z</time>
      </trkpt>
      <trkpt lat="43.57617" lon="6.84449">
        <ele>268.3</ele>
        <time>2025-10-24T07:23:12.000Z</time>
      </trkpt>
      <trkpt lat="43.57619" lon="6.84452">
        <ele>268.5</ele>
        <time>2025-10-24T07:23:13.000Z</time>
      </trkpt>
      <trkpt lat="43.57621" lon="6.84456">
        <ele>268.9</ele>
        <time>2025-10-24T07:23:14.000Z</time>
      </trkpt>
      <trkpt lat="43.57623" lon="6.8446">
        <ele>269.2</ele>
        <time>2025-10-24T07:23:15.000Z</time>
      </trkpt>
      <trkpt lat="43.57624" lon="6.84463">
        <ele>269.5</ele>
        <time>2025-10-24T07:23:16.000Z</time>
      </trkpt>
      <trkpt lat="43.57626" lon="6.84467">
        <ele>269.8</ele>
        <time>2025-10-24T07:23:17.000Z</time>
      </trkpt>
      <trkpt lat="43.57628" lon="6.8447">
        <ele>270.1</ele>
        <time>2025-10-24T07:23:18.000Z</time>
      </trkpt>
      <trkpt lat="43.57629" lon="6.84472">
        <ele>270.3</ele>
        <time>2025-10-24T07:23:19.000Z</time>
      </trkpt>
      <trkpt lat="43.57632" lon="6.84476">
        <ele>270.7</ele>
        <time>2025-10-24T07:23:20.000Z</time>
      </trkpt>
      <trkpt lat="43.57634" lon="6.84478">
        <ele>271</ele>
        <time>2025-10-24T07:23:21.000Z</time>
      </trkpt>
      <trkpt lat="43.57637" lon="6.84481">
        <ele>271.3</ele>
        <time>2025-10-24T07:23:22.000Z</time>
      </trkpt>
      <trkpt lat="43.5764" lon="6.84482">
        <ele>271.5</ele>
        <time>2025-10-24T07:23:23.000Z</time>
      </trkpt>
      <trkpt lat="43.57643" lon="6.84483">
        <ele>271.7</ele>
        <time>2025-10-24T07:23:24.000Z</time>
      </trkpt>
      <trkpt lat="43.57647" lon="6.84485">
        <ele>272</ele>
        <time>2025-10-24T07:23:25.000Z</time>
      </trkpt>
      <trkpt lat="43.5765" lon="6.84487">
        <ele>272.2</ele>
        <time>2025-10-24T07:23:26.000Z</time>
      </trkpt>
      <trkpt lat="43.57653" lon="6.84488">
        <ele>272.4</ele>
        <time>2025-10-24T07:23:27.000Z</time>
      </trkpt>
      <trkpt lat="43.57656" lon="6.84489">
        <ele>272.5</ele>
        <time>2025-10-24T07:23:28.000Z</time>
      </trkpt>
      <trkpt lat="43.57658" lon="6.84489">
        <ele>272.6</ele>
        <time>2025-10-24T07:23:29.000Z</time>
      </trkpt>
      <trkpt lat="43.57662" lon="6.8449">
        <ele>272.8</ele>
        <time>2025-10-24T07:23:30.000Z</time>
      </trkpt>
      <trkpt lat="43.57665" lon="6.8449">
        <ele>273</ele>
        <time>2025-10-24T07:23:31.000Z</time>
      </trkpt>
      <trkpt lat="43.57668" lon="6.84489">
        <ele>273.2</ele>
        <time>2025-10-24T07:23:32.000Z</time>
      </trkpt>
      <trkpt lat="43.57671" lon="6.84489">
        <ele>273.3</ele>
        <time>2025-10-24T07:23:33.000Z</time>
      </trkpt>
      <trkpt lat="43.57675" lon="6.84488">
        <ele>273.6</ele>
        <time>2025-10-24T07:23:34.000Z</time>
      </trkpt>
      <trkpt lat="43.57679" lon="6.84487">
        <ele>273.9</ele>
        <time>2025-10-24T07:23:35.000Z</time>
      </trkpt>
      <trkpt lat="43.57683" lon="6.84487">
        <ele>274.2</ele>
        <time>2025-10-24T07:23:36.000Z</time>
      </trkpt>
      <trkpt lat="43.57687" lon="6.84488">
        <ele>274.6</ele>
        <time>2025-10-24T07:23:37.000Z</time>
      </trkpt>
      <trkpt lat="43.57689" lon="6.84489">
        <ele>274.9</ele>
        <time>2025-10-24T07:23:38.000Z</time>
      </trkpt>
      <trkpt lat="43.57693" lon="6.84489">
        <ele>275.3</ele>
        <time>2025-10-24T07:23:39.000Z</time>
      </trkpt>
      <trkpt lat="43.57697" lon="6.8449">
        <ele>275.6</ele>
        <time>2025-10-24T07:23:40.000Z</time>
      </trkpt>
      <trkpt lat="43.577" lon="6.8449">
        <ele>276</ele>
        <time>2025-10-24T07:23:41.000Z</time>
      </trkpt>
      <trkpt lat="43.57704" lon="6.84491">
        <ele>276.3</ele>
        <time>2025-10-24T07:23:42.000Z</time>
      </trkpt>
      <trkpt lat="43.57706" lon="6.84491">
        <ele>276.6</ele>
        <time>2025-10-24T07:23:43.000Z</time>
      </trkpt>
      <trkpt lat="43.5771" lon="6.84492">
        <ele>276.9</ele>
        <time>2025-10-24T07:23:44.000Z</time>
      </trkpt>
      <trkpt lat="43.57714" lon="6.84493">
        <ele>277.2</ele>
        <time>2025-10-24T07:23:45.000Z</time>
      </trkpt>
      <trkpt lat="43.57717" lon="6.84494">
        <ele>277.5</ele>
        <time>2025-10-24T07:23:46.000Z</time>
      </trkpt>
      <trkpt lat="43.57721" lon="6.84495">
        <ele>277.9</ele>
        <time>2025-10-24T07:23:47.000Z</time>
      </trkpt>
      <trkpt lat="43.57724" lon="6.84495">
        <ele>278.2</ele>
        <time>2025-10-24T07:23:48.000Z</time>
      </trkpt>
      <trkpt lat="43.57728" lon="6.84495">
        <ele>278.6</ele>
        <time>2025-10-24T07:23:49.000Z</time>
      </trkpt>
      <trkpt lat="43.57732" lon="6.84494">
        <ele>279.1</ele>
        <time>2025-10-24T07:23:50.000Z</time>
      </trkpt>
      <trkpt lat="43.57735" lon="6.84494">
        <ele>279.5</ele>
        <time>2025-10-24T07:23:51.000Z</time>
      </trkpt>
      <trkpt lat="43.57737" lon="6.84494">
        <ele>279.7</ele>
        <time>2025-10-24T07:23:52.000Z</time>
      </trkpt>
      <trkpt lat="43.57741" lon="6.84495">
        <ele>280.1</ele>
        <time>2025-10-24T07:23:53.000Z</time>
      </trkpt>
      <trkpt lat="43.57744" lon="6.84494">
        <ele>280.4</ele>
        <time>2025-10-24T07:23:54.000Z</time>
      </trkpt>
      <trkpt lat="43.57746" lon="6.84493">
        <ele>280.6</ele>
        <time>2025-10-24T07:23:55.000Z</time>
      </trkpt>
      <trkpt lat="43.57749" lon="6.84491">
        <ele>280.9</ele>
        <time>2025-10-24T07:23:56.000Z</time>
      </trkpt>
      <trkpt lat="43.57752" lon="6.8449">
        <ele>281.1</ele>
        <time>2025-10-24T07:23:57.000Z</time>
      </trkpt>
      <trkpt lat="43.57755" lon="6.84489">
        <ele>281.3</ele>
        <time>2025-10-24T07:23:58.000Z</time>
      </trkpt>
      <trkpt lat="43.57758" lon="6.84488">
        <ele>281.6</ele>
        <time>2025-10-24T07:23:59.000Z</time>
      </trkpt>
      <trkpt lat="43.57761" lon="6.84487">
        <ele>281.8</ele>
        <time>2025-10-24T07:24:00.000Z</time>
      </trkpt>
      <trkpt lat="43.57763" lon="6.84487">
        <ele>281.9</ele>
        <time>2025-10-24T07:24:01.000Z</time>
      </trkpt>
      <trkpt lat="43.57765" lon="6.84488">
        <ele>282.1</ele>
        <time>2025-10-24T07:24:02.000Z</time>
      </trkpt>
      <trkpt lat="43.57767" lon="6.84488">
        <ele>282.2</ele>
        <time>2025-10-24T07:24:03.000Z</time>
      </trkpt>
      <trkpt lat="43.5777" lon="6.84488">
        <ele>282.4</ele>
        <time>2025-10-24T07:24:04.000Z</time>
      </trkpt>
      <trkpt lat="43.57772" lon="6.84488">
        <ele>282.6</ele>
        <time>2025-10-24T07:24:05.000Z</time>
      </trkpt>
      <trkpt lat="43.57775" lon="6.84488">
        <ele>282.7</ele>
        <time>2025-10-24T07:24:06.000Z</time>
      </trkpt>
      <trkpt lat="43.57777" lon="6.84488">
        <ele>282.9</ele>
        <time>2025-10-24T07:24:07.000Z</time>
      </trkpt>
      <trkpt lat="43.57779" lon="6.84487">
        <ele>283</ele>
        <time>2025-10-24T07:24:08.000Z</time>
      </trkpt>
      <trkpt lat="43.57782" lon="6.84486">
        <ele>283.1</ele>
        <time>2025-10-24T07:24:09.000Z</time>
      </trkpt>
      <trkpt lat="43.57785" lon="6.84485">
        <ele>283.2</ele>
        <time>2025-10-24T07:24:10.000Z</time>
      </trkpt>
      <trkpt lat="43.57787" lon="6.84483">
        <ele>283.4</ele>
        <time>2025-10-24T07:24:11.000Z</time>
      </trkpt>
      <trkpt lat="43.57789" lon="6.84481">
        <ele>283.4</ele>
        <time>2025-10-24T07:24:12.000Z</time>
      </trkpt>
      <trkpt lat="43.57792" lon="6.84479">
        <ele>283.6</ele>
        <time>2025-10-24T07:24:13.000Z</time>
      </trkpt>
      <trkpt lat="43.57795" lon="6.84477">
        <ele>283.7</ele>
        <time>2025-10-24T07:24:14.000Z</time>
      </trkpt>
      <trkpt lat="43.57797" lon="6.84475">
        <ele>283.8</ele>
        <time>2025-10-24T07:24:15.000Z</time>
      </trkpt>
      <trkpt lat="43.578" lon="6.84473">
        <ele>283.9</ele>
        <time>2025-10-24T07:24:16.000Z</time>
      </trkpt>
      <trkpt lat="43.57802" lon="6.84472">
        <ele>283.9</ele>
        <time>2025-10-24T07:24:17.000Z</time>
      </trkpt>
      <trkpt lat="43.57806" lon="6.84471">
        <ele>283.8</ele>
        <time>2025-10-24T07:24:18.000Z</time>
      </trkpt>
      <trkpt lat="43.57809" lon="6.84472">
        <ele>283.8</ele>
        <time>2025-10-24T07:24:19.000Z</time>
      </trkpt>
      <trkpt lat="43.57812" lon="6.84473">
        <ele>283.8</ele>
        <time>2025-10-24T07:24:20.000Z</time>
      </trkpt>
      <trkpt lat="43.57814" lon="6.84475">
        <ele>283.9</ele>
        <time>2025-10-24T07:24:21.000Z</time>
      </trkpt>
      <trkpt lat="43.57817" lon="6.84476">
        <ele>284</ele>
        <time>2025-10-24T07:24:22.000Z</time>
      </trkpt>
      <trkpt lat="43.57821" lon="6.84478">
        <ele>284.1</ele>
        <time>2025-10-24T07:24:23.000Z</time>
      </trkpt>
      <trkpt lat="43.57824" lon="6.8448">
        <ele>284.1</ele>
        <time>2025-10-24T07:24:24.000Z</time>
      </trkpt>
      <trkpt lat="43.57826" lon="6.84481">
        <ele>284.2</ele>
        <time>2025-10-24T07:24:25.000Z</time>
      </trkpt>
      <trkpt lat="43.57829" lon="6.84482">
        <ele>284.3</ele>
        <time>2025-10-24T07:24:26.000Z</time>
      </trkpt>
      <trkpt lat="43.57832" lon="6.84483">
        <ele>284.3</ele>
        <time>2025-10-24T07:24:27.000Z</time>
      </trkpt>
      <trkpt lat="43.57835" lon="6.84483">
        <ele>284.3</ele>
        <time>2025-10-24T07:24:28.000Z</time>
      </trkpt>
      <trkpt lat="43.57838" lon="6.84482">
        <ele>284.3</ele>
        <time>2025-10-24T07:24:29.000Z</time>
      </trkpt>
      <trkpt lat="43.57842" lon="6.84482">
        <ele>284.3</ele>
        <time>2025-10-24T07:24:30.000Z</time>
      </trkpt>
      <trkpt lat="43.57844" lon="6.84481">
        <ele>284.3</ele>
        <time>2025-10-24T07:24:31.000Z</time>
      </trkpt>
      <trkpt lat="43.57847" lon="6.84481">
        <ele>284.3</ele>
        <time>2025-10-24T07:24:32.000Z</time>
      </trkpt>
      <trkpt lat="43.57851" lon="6.84481">
        <ele>284.3</ele>
        <time>2025-10-24T07:24:33.000Z</time>
      </trkpt>
      <trkpt lat="43.57854" lon="6.84482">
        <ele>284.3</ele>
        <time>2025-10-24T07:24:34.000Z</time>
      </trkpt>
      <trkpt lat="43.57857" lon="6.84482">
        <ele>284.3</ele>
        <time>2025-10-24T07:24:35.000Z</time>
      </trkpt>
      <trkpt lat="43.57859" lon="6.84483">
        <ele>284.3</ele>
        <time>2025-10-24T07:24:36.000Z</time>
      </trkpt>
      <trkpt lat="43.57862" lon="6.84484">
        <ele>284.3</ele>
        <time>2025-10-24T07:24:37.000Z</time>
      </trkpt>
      <trkpt lat="43.57865" lon="6.84485">
        <ele>284.4</ele>
        <time>2025-10-24T07:24:38.000Z</time>
      </trkpt>
      <trkpt lat="43.57868" lon="6.84486">
        <ele>284.5</ele>
        <time>2025-10-24T07:24:39.000Z</time>
      </trkpt>
      <trkpt lat="43.57871" lon="6.84486">
        <ele>284.5</ele>
        <time>2025-10-24T07:24:40.000Z</time>
      </trkpt>
      <trkpt lat="43.57874" lon="6.84487">
        <ele>284.6</ele>
        <time>2025-10-24T07:24:41.000Z</time>
      </trkpt>
      <trkpt lat="43.57877" lon="6.84487">
        <ele>284.8</ele>
        <time>2025-10-24T07:24:42.000Z</time>
      </trkpt>
      <trkpt lat="43.57879" lon="6.84488">
        <ele>284.9</ele>
        <time>2025-10-24T07:24:43.000Z</time>
      </trkpt>
      <trkpt lat="43.57882" lon="6.84489">
        <ele>285.1</ele>
        <time>2025-10-24T07:24:44.000Z</time>
      </trkpt>
      <trkpt lat="43.57885" lon="6.8449">
        <ele>285.2</ele>
        <time>2025-10-24T07:24:45.000Z</time>
      </trkpt>
      <trkpt lat="43.57887" lon="6.84491">
        <ele>285.4</ele>
        <time>2025-10-24T07:24:46.000Z</time>
      </trkpt>
      <trkpt lat="43.5789" lon="6.84492">
        <ele>285.6</ele>
        <time>2025-10-24T07:24:47.000Z</time>
      </trkpt>
      <trkpt lat="43.57893" lon="6.84493">
        <ele>285.8</ele>
        <time>2025-10-24T07:24:48.000Z</time>
      </trkpt>
      <trkpt lat="43.57895" lon="6.84494">
        <ele>286.1</ele>
        <time>2025-10-24T07:24:49.000Z</time>
      </trkpt>
      <trkpt lat="43.57898" lon="6.84495">
        <ele>286.3</ele>
        <time>2025-10-24T07:24:50.000Z</time>
      </trkpt>
      <trkpt lat="43.579" lon="6.84496">
        <ele>286.5</ele>
        <time>2025-10-24T07:24:51.000Z</time>
      </trkpt>
      <trkpt lat="43.57904" lon="6.84497">
        <ele>286.8</ele>
        <time>2025-10-24T07:24:52.000Z</time>
      </trkpt>
      <trkpt lat="43.57906" lon="6.84498">
        <ele>287</ele>
        <time>2025-10-24T07:24:53.000Z</time>
      </trkpt>
      <trkpt lat="43.57909" lon="6.84498">
        <ele>287.2</ele>
        <time>2025-10-24T07:24:54.000Z</time>
      </trkpt>
      <trkpt lat="43.57911" lon="6.845">
        <ele>287.4</ele>
        <time>2025-10-24T07:24:55.000Z</time>
      </trkpt>
      <trkpt lat="43.57913" lon="6.845">
        <ele>287.5</ele>
        <time>2025-10-24T07:24:56.000Z</time>
      </trkpt>
      <trkpt lat="43.57917" lon="6.84502">
        <ele>287.8</ele>
        <time>2025-10-24T07:24:57.000Z</time>
      </trkpt>
      <trkpt lat="43.57919" lon="6.84503">
        <ele>288</ele>
        <time>2025-10-24T07:24:58.000Z</time>
      </trkpt>
      <trkpt lat="43.57922" lon="6.84504">
        <ele>288.1</ele>
        <time>2025-10-24T07:24:59.000Z</time>
      </trkpt>
      <trkpt lat="43.57924" lon="6.84505">
        <ele>288.3</ele>
        <time>2025-10-24T07:25:00.000Z</time>
      </trkpt>
      <trkpt lat="43.57927" lon="6.84507">
        <ele>288.5</ele>
        <time>2025-10-24T07:25:01.000Z</time>
      </trkpt>
      <trkpt lat="43.5793" lon="6.84509">
        <ele>288.7</ele>
        <time>2025-10-24T07:25:02.000Z</time>
      </trkpt>
      <trkpt lat="43.57932" lon="6.84511">
        <ele>288.8</ele>
        <time>2025-10-24T07:25:03.000Z</time>
      </trkpt>
      <trkpt lat="43.57934" lon="6.84512">
        <ele>288.9</ele>
        <time>2025-10-24T07:25:04.000Z</time>
      </trkpt>
      <trkpt lat="43.57937" lon="6.84514">
        <ele>289</ele>
        <time>2025-10-24T07:25:05.000Z</time>
      </trkpt>
      <trkpt lat="43.57939" lon="6.84515">
        <ele>289.1</ele>
        <time>2025-10-24T07:25:06.000Z</time>
      </trkpt>
      <trkpt lat="43.57941" lon="6.84517">
        <ele>289.2</ele>
        <time>2025-10-24T07:25:07.000Z</time>
      </trkpt>
      <trkpt lat="43.57944" lon="6.84519">
        <ele>289.2</ele>
        <time>2025-10-24T07:25:08.000Z</time>
      </trkpt>
      <trkpt lat="43.57946" lon="6.84521">
        <ele>289.3</ele>
        <time>2025-10-24T07:25:09.000Z</time>
      </trkpt>
      <trkpt lat="43.57949" lon="6.84523">
        <ele>289.3</ele>
        <time>2025-10-24T07:25:10.000Z</time>
      </trkpt>
      <trkpt lat="43.5795" lon="6.84524">
        <ele>289.3</ele>
        <time>2025-10-24T07:25:11.000Z</time>
      </trkpt>
      <trkpt lat="43.57953" lon="6.84525">
        <ele>289.3</ele>
        <time>2025-10-24T07:25:12.000Z</time>
      </trkpt>
      <trkpt lat="43.57956" lon="6.84527">
        <ele>289.4</ele>
        <time>2025-10-24T07:25:13.000Z</time>
      </trkpt>
      <trkpt lat="43.57958" lon="6.84528">
        <ele>289.4</ele>
        <time>2025-10-24T07:25:14.000Z</time>
      </trkpt>
      <trkpt lat="43.5796" lon="6.84529">
        <ele>289.5</ele>
        <time>2025-10-24T07:25:15.000Z</time>
      </trkpt>
      <trkpt lat="43.57963" lon="6.84532">
        <ele>289.6</ele>
        <time>2025-10-24T07:25:16.000Z</time>
      </trkpt>
      <trkpt lat="43.57965" lon="6.84533">
        <ele>289.7</ele>
        <time>2025-10-24T07:25:17.000Z</time>
      </trkpt>
      <trkpt lat="43.57968" lon="6.84535">
        <ele>289.8</ele>
        <time>2025-10-24T07:25:18.000Z</time>
      </trkpt>
      <trkpt lat="43.5797" lon="6.84537">
        <ele>289.9</ele>
        <time>2025-10-24T07:25:19.000Z</time>
      </trkpt>
      <trkpt lat="43.57973" lon="6.84539">
        <ele>290</ele>
        <time>2025-10-24T07:25:20.000Z</time>
      </trkpt>
      <trkpt lat="43.57975" lon="6.8454">
        <ele>290.2</ele>
        <time>2025-10-24T07:25:21.000Z</time>
      </trkpt>
      <trkpt lat="43.57977" lon="6.84542">
        <ele>290.3</ele>
        <time>2025-10-24T07:25:22.000Z</time>
      </trkpt>
      <trkpt lat="43.5798" lon="6.84544">
        <ele>290.5</ele>
        <time>2025-10-24T07:25:23.000Z</time>
      </trkpt>
      <trkpt lat="43.57981" lon="6.84545">
        <ele>290.6</ele>
        <time>2025-10-24T07:25:24.000Z</time>
      </trkpt>
      <trkpt lat="43.57984" lon="6.84547">
        <ele>290.7</ele>
        <time>2025-10-24T07:25:25.000Z</time>
      </trkpt>
      <trkpt lat="43.57986" lon="6.84548">
        <ele>291</ele>
        <time>2025-10-24T07:25:26.000Z</time>
      </trkpt>
      <trkpt lat="43.57988" lon="6.84549">
        <ele>291.2</ele>
        <time>2025-10-24T07:25:27.000Z</time>
      </trkpt>
      <trkpt lat="43.5799" lon="6.84551">
        <ele>291.3</ele>
        <time>2025-10-24T07:25:28.000Z</time>
      </trkpt>
      <trkpt lat="43.57992" lon="6.84551">
        <ele>291.5</ele>
        <time>2025-10-24T07:25:29.000Z</time>
      </trkpt>
      <trkpt lat="43.57993" lon="6.84552">
        <ele>291.6</ele>
        <time>2025-10-24T07:25:30.000Z</time>
      </trkpt>
      <trkpt lat="43.57993" lon="6.84552">
        <ele>291.7</ele>
        <time>2025-10-24T07:25:31.000Z</time>
      </trkpt>
      <trkpt lat="43.57993" lon="6.84552">
        <ele>291.7</ele>
        <time>2025-10-24T07:25:32.000Z</time>
      </trkpt>
      <trkpt lat="43.57993" lon="6.84552">
        <ele>291.7</ele>
        <time>2025-10-24T07:25:33.000Z</time>
      </trkpt>
      <trkpt lat="43.57993" lon="6.84552">
        <ele>291.7</ele>
        <time>2025-10-24T07:25:34.000Z</time>
      </trkpt>
      <trkpt lat="43.57994" lon="6.84552">
        <ele>291.7</ele>
        <time>2025-10-24T07:25:35.000Z</time>
      </trkpt>
      <trkpt lat="43.57994" lon="6.84552">
        <ele>291.7</ele>
        <time>2025-10-24T07:25:36.000Z</time>
      </trkpt>
      <trkpt lat="43.57994" lon="6.84552">
        <ele>291.7</ele>
        <time>2025-10-24T07:25:37.000Z</time>
      </trkpt>
      <trkpt lat="43.57994" lon="6.84553">
        <ele>291.7</ele>
        <time>2025-10-24T07:25:38.000Z</time>
      </trkpt>
      <trkpt lat="43.57994" lon="6.84553">
        <ele>291.8</ele>
        <time>2025-10-24T07:25:39.000Z</time>
      </trkpt>
      <trkpt lat="43.57994" lon="6.84553">
        <ele>291.8</ele>
        <time>2025-10-24T07:25:40.000Z</time>
      </trkpt>
      <trkpt lat="43.57994" lon="6.84554">
        <ele>291.8</ele>
        <time>2025-10-24T07:25:41.000Z</time>
      </trkpt>
      <trkpt lat="43.57994" lon="6.84554">
        <ele>291.8</ele>
        <time>2025-10-24T07:25:42.000Z</time>
      </trkpt>
      <trkpt lat="43.57994" lon="6.84554">
        <ele>291.9</ele>
        <time>2025-10-24T07:25:43.000Z</time>
      </trkpt>
      <trkpt lat="43.57994" lon="6.84554">
        <ele>291.9</ele>
        <time>2025-10-24T07:25:44.000Z</time>
      </trkpt>
      <trkpt lat="43.57994" lon="6.84554">
        <ele>291.9</ele>
        <time>2025-10-24T07:25:45.000Z</time>
      </trkpt>
      <trkpt lat="43.57994" lon="6.84554">
        <ele>291.9</ele>
        <time>2025-10-24T07:25:46.000Z</time>
      </trkpt>
      <trkpt lat="43.57994" lon="6.84554">
        <ele>291.9</ele>
        <time>2025-10-24T07:25:47.000Z</time>
      </trkpt>
      <trkpt lat="43.57994" lon="6.84554">
        <ele>291.9</ele>
        <time>2025-10-24T07:25:48.000Z</time>
      </trkpt>
      <trkpt lat="43.57994" lon="6.84554">
        <ele>291.9</ele>
        <time>2025-10-24T07:25:49.000Z</time>
      </trkpt>
      <trkpt lat="43.57994" lon="6.84554">
        <ele>291.9</ele>
        <time>2025-10-24T07:25:50.000Z</time>
      </trkpt>
      <trkpt lat="43.57994" lon="6.84554">
        <ele>291.9</ele>
        <time>2025-10-24T07:25:51.000Z</time>
      </trkpt>
      <trkpt lat="43.57994" lon="6.84554">
        <ele>291.9</ele>
        <time>2025-10-24T07:25:52.000Z</time>
      </trkpt>
      <trkpt lat="43.57994" lon="6.84554">
        <ele>291.9</ele>
        <time>2025-10-24T07:25:53.000Z</time>
      </trkpt>
      <trkpt lat="43.57994" lon="6.84554">
        <ele>291.9</ele>
        <time>2025-10-24T07:25:54.000Z</time>
      </trkpt>
      <trkpt lat="43.57994" lon="6.84554">
        <ele>291.9</ele>
        <time>2025-10-24T07:25:55.000Z</time>
      </trkpt>
      <trkpt lat="43.57994" lon="6.84554">
        <ele>291.9</ele>
        <time>2025-10-24T07:25:56.000Z</time>
      </trkpt>
      <trkpt lat="43.57994" lon="6.84554">
        <ele>291.9</ele>
        <time>2025-10-24T07:25:57.000Z</time>
      </trkpt>
      <trkpt lat="43.57994" lon="6.84554">
        <ele>291.9</ele>
        <time>2025-10-24T07:25:58.000Z</time>
      </trkpt>
      <trkpt lat="43.57994" lon="6.84554">
        <ele>291.9</ele>
        <time>2025-10-24T07:25:59.000Z</time>
      </trkpt>
      <trkpt lat="43.57994" lon="6.84554">
        <ele>291.9</ele>
        <time>2025-10-24T07:26:00.000Z</time>
      </trkpt>
      <trkpt lat="43.57994" lon="6.84554">
        <ele>292</ele>
        <time>2025-10-24T07:26:01.000Z</time>
      </trkpt>
      <trkpt lat="43.57994" lon="6.84554">
        <ele>292</ele>
        <time>2025-10-24T07:26:02.000Z</time>
      </trkpt>
      <trkpt lat="43.57994" lon="6.84554">
        <ele>292</ele>
        <time>2025-10-24T07:26:03.000Z</time>
      </trkpt>
      <trkpt lat="43.57994" lon="6.84554">
        <ele>292</ele>
        <time>2025-10-24T07:26:04.000Z</time>
      </trkpt>
      <trkpt lat="43.57994" lon="6.84554">
        <ele>292</ele>
        <time>2025-10-24T07:26:05.000Z</time>
      </trkpt>
      <trkpt lat="43.57994" lon="6.84554">
        <ele>292</ele>
        <time>2025-10-24T07:26:06.000Z</time>
      </trkpt>
      <trkpt lat="43.57994" lon="6.84554">
        <ele>292</ele>
        <time>2025-10-24T07:26:07.000Z</time>
      </trkpt>
      <trkpt lat="43.57995" lon="6.84554">
        <ele>292.1</ele>
        <time>2025-10-24T07:26:08.000Z</time>
      </trkpt>
      <trkpt lat="43.57995" lon="6.84554">
        <ele>292.1</ele>
        <time>2025-10-24T07:26:09.000Z</time>
      </trkpt>
      <trkpt lat="43.57995" lon="6.84554">
        <ele>292.1</ele>
        <time>2025-10-24T07:26:10.000Z</time>
      </trkpt>
      <trkpt lat="43.57995" lon="6.84554">
        <ele>292.1</ele>
        <time>2025-10-24T07:26:11.000Z</time>
      </trkpt>
      <trkpt lat="43.57995" lon="6.84554">
        <ele>292.1</ele>
        <time>2025-10-24T07:26:12.000Z</time>
      </trkpt>
      <trkpt lat="43.57995" lon="6.84554">
        <ele>292.1</ele>
        <time>2025-10-24T07:26:13.000Z</time>
      </trkpt>
      <trkpt lat="43.57995" lon="6.84554">
        <ele>292.1</ele>
        <time>2025-10-24T07:26:14.000Z</time>
      </trkpt>
      <trkpt lat="43.57995" lon="6.84554">
        <ele>292.1</ele>
        <time>2025-10-24T07:26:15.000Z</time>
      </trkpt>
      <trkpt lat="43.57995" lon="6.84554">
        <ele>292.1</ele>
        <time>2025-10-24T07:26:16.000Z</time>
      </trkpt>
      <trkpt lat="43.57995" lon="6.84554">
        <ele>292.1</ele>
        <time>2025-10-24T07:26:17.000Z</time>
      </trkpt>
      <trkpt lat="43.57995" lon="6.84553">
        <ele>292.1</ele>
        <time>2025-10-24T07:26:18.000Z</time>
      </trkpt>
      <trkpt lat="43.57995" lon="6.84553">
        <ele>292.2</ele>
        <time>2025-10-24T07:26:19.000Z</time>
      </trkpt>
      <trkpt lat="43.57995" lon="6.84552">
        <ele>292.2</ele>
        <time>2025-10-24T07:26:20.000Z</time>
      </trkpt>
      <trkpt lat="43.57995" lon="6.8455">
        <ele>292.3</ele>
        <time>2025-10-24T07:26:21.000Z</time>
      </trkpt>
      <trkpt lat="43.57995" lon="6.8455">
        <ele>292.4</ele>
        <time>2025-10-24T07:26:22.000Z</time>
      </trkpt>
      <trkpt lat="43.57995" lon="6.84549">
        <ele>292.4</ele>
        <time>2025-10-24T07:26:23.000Z</time>
      </trkpt>
      <trkpt lat="43.57995" lon="6.84549">
        <ele>292.4</ele>
        <time>2025-10-24T07:26:24.000Z</time>
      </trkpt>
      <trkpt lat="43.57995" lon="6.84549">
        <ele>292.4</ele>
        <time>2025-10-24T07:26:25.000Z</time>
      </trkpt>
      <trkpt lat="43.57995" lon="6.84549">
        <ele>292.4</ele>
        <time>2025-10-24T07:26:26.000Z</time>
      </trkpt>
      <trkpt lat="43.57995" lon="6.84549">
        <ele>292.4</ele>
        <time>2025-10-24T07:26:27.000Z</time>
      </trkpt>
      <trkpt lat="43.57995" lon="6.84549">
        <ele>292.4</ele>
        <time>2025-10-24T07:26:28.000Z</time>
      </trkpt>
      <trkpt lat="43.57995" lon="6.84549">
        <ele>292.5</ele>
        <time>2025-10-24T07:26:29.000Z</time>
      </trkpt>
      <trkpt lat="43.57995" lon="6.84549">
        <ele>292.5</ele>
        <time>2025-10-24T07:26:30.000Z</time>
      </trkpt>
      <trkpt lat="43.57994" lon="6.84549">
        <ele>292.5</ele>
        <time>2025-10-24T07:26:31.000Z</time>
      </trkpt>
      <trkpt lat="43.57994" lon="6.84549">
        <ele>292.5</ele>
        <time>2025-10-24T07:26:32.000Z</time>
      </trkpt>
      <trkpt lat="43.57994" lon="6.84549">
        <ele>292.5</ele>
        <time>2025-10-24T07:26:33.000Z</time>
      </trkpt>
      <trkpt lat="43.57994" lon="6.84549">
        <ele>292.5</ele>
        <time>2025-10-24T07:26:34.000Z</time>
      </trkpt>
      <trkpt lat="43.57994" lon="6.84549">
        <ele>292.5</ele>
        <time>2025-10-24T07:26:35.000Z</time>
      </trkpt>
      <trkpt lat="43.57994" lon="6.84549">
        <ele>292.5</ele>
        <time>2025-10-24T07:26:36.000Z</time>
      </trkpt>
      <trkpt lat="43.57994" lon="6.84549">
        <ele>292.5</ele>
        <time>2025-10-24T07:26:37.000Z</time>
      </trkpt>
      <trkpt lat="43.57994" lon="6.84549">
        <ele>292.5</ele>
        <time>2025-10-24T07:26:38.000Z</time>
      </trkpt>
      <trkpt lat="43.57994" lon="6.84549">
        <ele>292.5</ele>
        <time>2025-10-24T07:26:39.000Z</time>
      </trkpt>
      <trkpt lat="43.57994" lon="6.8455">
        <ele>292.5</ele>
        <time>2025-10-24T07:26:40.000Z</time>
      </trkpt>
      <trkpt lat="43.57994" lon="6.8455">
        <ele>292.5</ele>
        <time>2025-10-24T07:26:41.000Z</time>
      </trkpt>
      <trkpt lat="43.57994" lon="6.8455">
        <ele>292.5</ele>
        <time>2025-10-24T07:26:42.000Z</time>
      </trkpt>
      <trkpt lat="43.57994" lon="6.8455">
        <ele>292.6</ele>
        <time>2025-10-24T07:26:43.000Z</time>
      </trkpt>
      <trkpt lat="43.57994" lon="6.8455">
        <ele>292.6</ele>
        <time>2025-10-24T07:26:44.000Z</time>
      </trkpt>
      <trkpt lat="43.57994" lon="6.8455">
        <ele>292.6</ele>
        <time>2025-10-24T07:26:45.000Z</time>
      </trkpt>
      <trkpt lat="43.57994" lon="6.8455">
        <ele>292.6</ele>
        <time>2025-10-24T07:26:46.000Z</time>
      </trkpt>
      <trkpt lat="43.57994" lon="6.8455">
        <ele>292.6</ele>
        <time>2025-10-24T07:26:47.000Z</time>
      </trkpt>
      <trkpt lat="43.57994" lon="6.8455">
        <ele>292.6</ele>
        <time>2025-10-24T07:26:48.000Z</time>
      </trkpt>
      <trkpt lat="43.57994" lon="6.8455">
        <ele>292.6</ele>
        <time>2025-10-24T07:26:49.000Z</time>
      </trkpt>
      <trkpt lat="43.57994" lon="6.8455">
        <ele>292.6</ele>
        <time>2025-10-24T07:26:50.000Z</time>
      </trkpt>
      <trkpt lat="43.57994" lon="6.8455">
        <ele>292.6</ele>
        <time>2025-10-24T07:26:51.000Z</time>
      </trkpt>
      <trkpt lat="43.57993" lon="6.8455">
        <ele>292.6</ele>
        <time>2025-10-24T07:26:52.000Z</time>
      </trkpt>
      <trkpt lat="43.57993" lon="6.8455">
        <ele>292.7</ele>
        <time>2025-10-24T07:26:53.000Z</time>
      </trkpt>
      <trkpt lat="43.57993" lon="6.8455">
        <ele>292.7</ele>
        <time>2025-10-24T07:26:54.000Z</time>
      </trkpt>
      <trkpt lat="43.57992" lon="6.8455">
        <ele>292.8</ele>
        <time>2025-10-24T07:26:55.000Z</time>
      </trkpt>
      <trkpt lat="43.57992" lon="6.8455">
        <ele>292.8</ele>
        <time>2025-10-24T07:26:56.000Z</time>
      </trkpt>
      <trkpt lat="43.57991" lon="6.8455">
        <ele>292.8</ele>
        <time>2025-10-24T07:26:57.000Z</time>
      </trkpt>
      <trkpt lat="43.57991" lon="6.8455">
        <ele>292.8</ele>
        <time>2025-10-24T07:26:58.000Z</time>
      </trkpt>
      <trkpt lat="43.57991" lon="6.8455">
        <ele>292.8</ele>
        <time>2025-10-24T07:26:59.000Z</time>
      </trkpt>
      <trkpt lat="43.57991" lon="6.8455">
        <ele>292.8</ele>
        <time>2025-10-24T07:27:00.000Z</time>
      </trkpt>
      <trkpt lat="43.57991" lon="6.8455">
        <ele>292.8</ele>
        <time>2025-10-24T07:27:01.000Z</time>
      </trkpt>
      <trkpt lat="43.57991" lon="6.8455">
        <ele>292.8</ele>
        <time>2025-10-24T07:27:02.000Z</time>
      </trkpt>
      <trkpt lat="43.57991" lon="6.8455">
        <ele>292.8</ele>
        <time>2025-10-24T07:27:03.000Z</time>
      </trkpt>
      <trkpt lat="43.57991" lon="6.8455">
        <ele>292.8</ele>
        <time>2025-10-24T07:27:04.000Z</time>
      </trkpt>
      <trkpt lat="43.57991" lon="6.8455">
        <ele>292.8</ele>
        <time>2025-10-24T07:27:05.000Z</time>
      </trkpt>
      <trkpt lat="43.57991" lon="6.8455">
        <ele>292.9</ele>
        <time>2025-10-24T07:27:06.000Z</time>
      </trkpt>
      <trkpt lat="43.57991" lon="6.8455">
        <ele>292.9</ele>
        <time>2025-10-24T07:27:07.000Z</time>
      </trkpt>
      <trkpt lat="43.57991" lon="6.8455">
        <ele>292.9</ele>
        <time>2025-10-24T07:27:08.000Z</time>
      </trkpt>
      <trkpt lat="43.57991" lon="6.84551">
        <ele>292.9</ele>
        <time>2025-10-24T07:27:09.000Z</time>
      </trkpt>
      <trkpt lat="43.57991" lon="6.84551">
        <ele>292.9</ele>
        <time>2025-10-24T07:27:10.000Z</time>
      </trkpt>
      <trkpt lat="43.57991" lon="6.84551">
        <ele>292.9</ele>
        <time>2025-10-24T07:27:11.000Z</time>
      </trkpt>
      <trkpt lat="43.57991" lon="6.84551">
        <ele>292.9</ele>
        <time>2025-10-24T07:27:12.000Z</time>
      </trkpt>
      <trkpt lat="43.57991" lon="6.84551">
        <ele>292.9</ele>
        <time>2025-10-24T07:27:13.000Z</time>
      </trkpt>
      <trkpt lat="43.57991" lon="6.84551">
        <ele>292.9</ele>
        <time>2025-10-24T07:27:14.000Z</time>
      </trkpt>
      <trkpt lat="43.57991" lon="6.84551">
        <ele>293</ele>
        <time>2025-10-24T07:27:15.000Z</time>
      </trkpt>
      <trkpt lat="43.57991" lon="6.84551">
        <ele>293</ele>
        <time>2025-10-24T07:27:16.000Z</time>
      </trkpt>
      <trkpt lat="43.57991" lon="6.84551">
        <ele>293</ele>
        <time>2025-10-24T07:27:17.000Z</time>
      </trkpt>
      <trkpt lat="43.57991" lon="6.84551">
        <ele>293</ele>
        <time>2025-10-24T07:27:18.000Z</time>
      </trkpt>
      <trkpt lat="43.57991" lon="6.84551">
        <ele>293</ele>
        <time>2025-10-24T07:27:19.000Z</time>
      </trkpt>
      <trkpt lat="43.57992" lon="6.84552">
        <ele>293</ele>
        <time>2025-10-24T07:27:20.000Z</time>
      </trkpt>
      <trkpt lat="43.57992" lon="6.84552">
        <ele>293</ele>
        <time>2025-10-24T07:27:21.000Z</time>
      </trkpt>
      <trkpt lat="43.57992" lon="6.84552">
        <ele>293</ele>
        <time>2025-10-24T07:27:22.000Z</time>
      </trkpt>
      <trkpt lat="43.57992" lon="6.84552">
        <ele>293</ele>
        <time>2025-10-24T07:27:23.000Z</time>
      </trkpt>
      <trkpt lat="43.57992" lon="6.84552">
        <ele>293</ele>
        <time>2025-10-24T07:27:24.000Z</time>
      </trkpt>
      <trkpt lat="43.57992" lon="6.84552">
        <ele>293.1</ele>
        <time>2025-10-24T07:27:25.000Z</time>
      </trkpt>
      <trkpt lat="43.57992" lon="6.84552">
        <ele>293.1</ele>
        <time>2025-10-24T07:27:26.000Z</time>
      </trkpt>
      <trkpt lat="43.57992" lon="6.84553">
        <ele>293.1</ele>
        <time>2025-10-24T07:27:27.000Z</time>
      </trkpt>
      <trkpt lat="43.57992" lon="6.84553">
        <ele>293.1</ele>
        <time>2025-10-24T07:27:28.000Z</time>
      </trkpt>
      <trkpt lat="43.57992" lon="6.84553">
        <ele>293.1</ele>
        <time>2025-10-24T07:27:29.000Z</time>
      </trkpt>
      <trkpt lat="43.57992" lon="6.84553">
        <ele>293.1</ele>
        <time>2025-10-24T07:27:30.000Z</time>
      </trkpt>
      <trkpt lat="43.57993" lon="6.84553">
        <ele>293.2</ele>
        <time>2025-10-24T07:27:31.000Z</time>
      </trkpt>
      <trkpt lat="43.57996" lon="6.84554">
        <ele>293.5</ele>
        <time>2025-10-24T07:27:32.000Z</time>
      </trkpt>
      <trkpt lat="43.57999" lon="6.84556">
        <ele>293.8</ele>
        <time>2025-10-24T07:27:33.000Z</time>
      </trkpt>
      <trkpt lat="43.58002" lon="6.84557">
        <ele>294.1</ele>
        <time>2025-10-24T07:27:34.000Z</time>
      </trkpt>
      <trkpt lat="43.58005" lon="6.84558">
        <ele>294.3</ele>
        <time>2025-10-24T07:27:35.000Z</time>
      </trkpt>
      <trkpt lat="43.58009" lon="6.84559">
        <ele>294.6</ele>
        <time>2025-10-24T07:27:36.000Z</time>
      </trkpt>
      <trkpt lat="43.58013" lon="6.84559">
        <ele>294.8</ele>
        <time>2025-10-24T07:27:37.000Z</time>
      </trkpt>
      <trkpt lat="43.58017" lon="6.8456">
        <ele>294.9</ele>
        <time>2025-10-24T07:27:38.000Z</time>
      </trkpt>
      <trkpt lat="43.58021" lon="6.8456">
        <ele>295.1</ele>
        <time>2025-10-24T07:27:39.000Z</time>
      </trkpt>
      <trkpt lat="43.58025" lon="6.84561">
        <ele>295.2</ele>
        <time>2025-10-24T07:27:40.000Z</time>
      </trkpt>
      <trkpt lat="43.58028" lon="6.84562">
        <ele>295.3</ele>
        <time>2025-10-24T07:27:41.000Z</time>
      </trkpt>
      <trkpt lat="43.58031" lon="6.84562">
        <ele>295.4</ele>
        <time>2025-10-24T07:27:42.000Z</time>
      </trkpt>
      <trkpt lat="43.58034" lon="6.84562">
        <ele>295.5</ele>
        <time>2025-10-24T07:27:43.000Z</time>
      </trkpt>
      <trkpt lat="43.58037" lon="6.84561">
        <ele>295.6</ele>
        <time>2025-10-24T07:27:44.000Z</time>
      </trkpt>
      <trkpt lat="43.5804" lon="6.84561">
        <ele>295.8</ele>
        <time>2025-10-24T07:27:45.000Z</time>
      </trkpt>
      <trkpt lat="43.58043" lon="6.8456">
        <ele>296</ele>
        <time>2025-10-24T07:27:46.000Z</time>
      </trkpt>
      <trkpt lat="43.58045" lon="6.84558">
        <ele>296.1</ele>
        <time>2025-10-24T07:27:47.000Z</time>
      </trkpt>
      <trkpt lat="43.58047" lon="6.84557">
        <ele>296.3</ele>
        <time>2025-10-24T07:27:48.000Z</time>
      </trkpt>
      <trkpt lat="43.58049" lon="6.84555">
        <ele>296.5</ele>
        <time>2025-10-24T07:27:49.000Z</time>
      </trkpt>
      <trkpt lat="43.58052" lon="6.84554">
        <ele>296.7</ele>
        <time>2025-10-24T07:27:50.000Z</time>
      </trkpt>
      <trkpt lat="43.58055" lon="6.84554">
        <ele>297</ele>
        <time>2025-10-24T07:27:51.000Z</time>
      </trkpt>
      <trkpt lat="43.58058" lon="6.84553">
        <ele>297.2</ele>
        <time>2025-10-24T07:27:52.000Z</time>
      </trkpt>
      <trkpt lat="43.5806" lon="6.84553">
        <ele>297.4</ele>
        <time>2025-10-24T07:27:53.000Z</time>
      </trkpt>
      <trkpt lat="43.58063" lon="6.84553">
        <ele>297.7</ele>
        <time>2025-10-24T07:27:54.000Z</time>
      </trkpt>
      <trkpt lat="43.58066" lon="6.84552">
        <ele>297.9</ele>
        <time>2025-10-24T07:27:55.000Z</time>
      </trkpt>
      <trkpt lat="43.58068" lon="6.84551">
        <ele>298</ele>
        <time>2025-10-24T07:27:56.000Z</time>
      </trkpt>
      <trkpt lat="43.58069" lon="6.84549">
        <ele>298.2</ele>
        <time>2025-10-24T07:27:57.000Z</time>
      </trkpt>
      <trkpt lat="43.5807" lon="6.84546">
        <ele>298.4</ele>
        <time>2025-10-24T07:27:58.000Z</time>
      </trkpt>
      <trkpt lat="43.58071" lon="6.84542">
        <ele>298.6</ele>
        <time>2025-10-24T07:27:59.000Z</time>
      </trkpt>
      <trkpt lat="43.58072" lon="6.84539">
        <ele>298.8</ele>
        <time>2025-10-24T07:28:00.000Z</time>
      </trkpt>
      <trkpt lat="43.58072" lon="6.84536">
        <ele>299</ele>
        <time>2025-10-24T07:28:01.000Z</time>
      </trkpt>
      <trkpt lat="43.58073" lon="6.84533">
        <ele>299.2</ele>
        <time>2025-10-24T07:28:02.000Z</time>
      </trkpt>
      <trkpt lat="43.58073" lon="6.8453">
        <ele>299.4</ele>
        <time>2025-10-24T07:28:03.000Z</time>
      </trkpt>
      <trkpt lat="43.58072" lon="6.84526">
        <ele>299.6</ele>
        <time>2025-10-24T07:28:04.000Z</time>
      </trkpt>
      <trkpt lat="43.58071" lon="6.84523">
        <ele>299.9</ele>
        <time>2025-10-24T07:28:05.000Z</time>
      </trkpt>
      <trkpt lat="43.5807" lon="6.84519">
        <ele>300.1</ele>
        <time>2025-10-24T07:28:06.000Z</time>
      </trkpt>
      <trkpt lat="43.58069" lon="6.84515">
        <ele>300.3</ele>
        <time>2025-10-24T07:28:07.000Z</time>
      </trkpt>
      <trkpt lat="43.58067" lon="6.84511">
        <ele>300.6</ele>
        <time>2025-10-24T07:28:08.000Z</time>
      </trkpt>
      <trkpt lat="43.58065" lon="6.84507">
        <ele>300.9</ele>
        <time>2025-10-24T07:28:09.000Z</time>
      </trkpt>
      <trkpt lat="43.58063" lon="6.84504">
        <ele>301.1</ele>
        <time>2025-10-24T07:28:10.000Z</time>
      </trkpt>
      <trkpt lat="43.58061" lon="6.84501">
        <ele>301.3</ele>
        <time>2025-10-24T07:28:11.000Z</time>
      </trkpt>
      <trkpt lat="43.58059" lon="6.84497">
        <ele>301.6</ele>
        <time>2025-10-24T07:28:12.000Z</time>
      </trkpt>
      <trkpt lat="43.58058" lon="6.84494">
        <ele>301.8</ele>
        <time>2025-10-24T07:28:13.000Z</time>
      </trkpt>
      <trkpt lat="43.58056" lon="6.84491">
        <ele>302.1</ele>
        <time>2025-10-24T07:28:14.000Z</time>
      </trkpt>
      <trkpt lat="43.58053" lon="6.84488">
        <ele>302.3</ele>
        <time>2025-10-24T07:28:15.000Z</time>
      </trkpt>
      <trkpt lat="43.58052" lon="6.84484">
        <ele>302.6</ele>
        <time>2025-10-24T07:28:16.000Z</time>
      </trkpt>
      <trkpt lat="43.5805" lon="6.84481">
        <ele>302.9</ele>
        <time>2025-10-24T07:28:17.000Z</time>
      </trkpt>
      <trkpt lat="43.58048" lon="6.84477">
        <ele>303.1</ele>
        <time>2025-10-24T07:28:18.000Z</time>
      </trkpt>
      <trkpt lat="43.58047" lon="6.84474">
        <ele>303.4</ele>
        <time>2025-10-24T07:28:19.000Z</time>
      </trkpt>
      <trkpt lat="43.58045" lon="6.8447">
        <ele>303.7</ele>
        <time>2025-10-24T07:28:20.000Z</time>
      </trkpt>
      <trkpt lat="43.58044" lon="6.84466">
        <ele>304</ele>
        <time>2025-10-24T07:28:21.000Z</time>
      </trkpt>
      <trkpt lat="43.58043" lon="6.84463">
        <ele>304.3</ele>
        <time>2025-10-24T07:28:22.000Z</time>
      </trkpt>
      <trkpt lat="43.58042" lon="6.84459">
        <ele>304.5</ele>
        <time>2025-10-24T07:28:23.000Z</time>
      </trkpt>
      <trkpt lat="43.58041" lon="6.84455">
        <ele>304.8</ele>
        <time>2025-10-24T07:28:24.000Z</time>
      </trkpt>
      <trkpt lat="43.5804" lon="6.84451">
        <ele>305.1</ele>
        <time>2025-10-24T07:28:25.000Z</time>
      </trkpt>
      <trkpt lat="43.5804" lon="6.84447">
        <ele>305.4</ele>
        <time>2025-10-24T07:28:26.000Z</time>
      </trkpt>
      <trkpt lat="43.58039" lon="6.84442">
        <ele>305.7</ele>
        <time>2025-10-24T07:28:27.000Z</time>
      </trkpt>
      <trkpt lat="43.58039" lon="6.84438">
        <ele>305.9</ele>
        <time>2025-10-24T07:28:28.000Z</time>
      </trkpt>
      <trkpt lat="43.58039" lon="6.84434">
        <ele>306.2</ele>
        <time>2025-10-24T07:28:29.000Z</time>
      </trkpt>
      <trkpt lat="43.58039" lon="6.8443">
        <ele>306.4</ele>
        <time>2025-10-24T07:28:30.000Z</time>
      </trkpt>
      <trkpt lat="43.5804" lon="6.84426">
        <ele>306.6</ele>
        <time>2025-10-24T07:28:31.000Z</time>
      </trkpt>
      <trkpt lat="43.58041" lon="6.84421">
        <ele>306.8</ele>
        <time>2025-10-24T07:28:32.000Z</time>
      </trkpt>
      <trkpt lat="43.58042" lon="6.84417">
        <ele>307</ele>
        <time>2025-10-24T07:28:33.000Z</time>
      </trkpt>
      <trkpt lat="43.58044" lon="6.84412">
        <ele>307.2</ele>
        <time>2025-10-24T07:28:34.000Z</time>
      </trkpt>
      <trkpt lat="43.58045" lon="6.84408">
        <ele>307.4</ele>
        <time>2025-10-24T07:28:35.000Z</time>
      </trkpt>
      <trkpt lat="43.58046" lon="6.84404">
        <ele>307.6</ele>
        <time>2025-10-24T07:28:36.000Z</time>
      </trkpt>
      <trkpt lat="43.58048" lon="6.84401">
        <ele>307.7</ele>
        <time>2025-10-24T07:28:37.000Z</time>
      </trkpt>
      <trkpt lat="43.58049" lon="6.84397">
        <ele>307.9</ele>
        <time>2025-10-24T07:28:38.000Z</time>
      </trkpt>
      <trkpt lat="43.58051" lon="6.84394">
        <ele>308.1</ele>
        <time>2025-10-24T07:28:39.000Z</time>
      </trkpt>
      <trkpt lat="43.58053" lon="6.8439">
        <ele>308.3</ele>
        <time>2025-10-24T07:28:40.000Z</time>
      </trkpt>
      <trkpt lat="43.58055" lon="6.84387">
        <ele>308.6</ele>
        <time>2025-10-24T07:28:41.000Z</time>
      </trkpt>
      <trkpt lat="43.58057" lon="6.84383">
        <ele>308.8</ele>
        <time>2025-10-24T07:28:42.000Z</time>
      </trkpt>
      <trkpt lat="43.58059" lon="6.8438">
        <ele>309.1</ele>
        <time>2025-10-24T07:28:43.000Z</time>
      </trkpt>
      <trkpt lat="43.58061" lon="6.84377">
        <ele>309.3</ele>
        <time>2025-10-24T07:28:44.000Z</time>
      </trkpt>
      <trkpt lat="43.58063" lon="6.84374">
        <ele>309.6</ele>
        <time>2025-10-24T07:28:45.000Z</time>
      </trkpt>
      <trkpt lat="43.58066" lon="6.84372">
        <ele>309.8</ele>
        <time>2025-10-24T07:28:46.000Z</time>
      </trkpt>
      <trkpt lat="43.58068" lon="6.8437">
        <ele>310.1</ele>
        <time>2025-10-24T07:28:47.000Z</time>
      </trkpt>
      <trkpt lat="43.58071" lon="6.84368">
        <ele>310.3</ele>
        <time>2025-10-24T07:28:48.000Z</time>
      </trkpt>
      <trkpt lat="43.58074" lon="6.84366">
        <ele>310.6</ele>
        <time>2025-10-24T07:28:49.000Z</time>
      </trkpt>
      <trkpt lat="43.58077" lon="6.84364">
        <ele>310.9</ele>
        <time>2025-10-24T07:28:50.000Z</time>
      </trkpt>
      <trkpt lat="43.5808" lon="6.84362">
        <ele>311.1</ele>
        <time>2025-10-24T07:28:51.000Z</time>
      </trkpt>
      <trkpt lat="43.58082" lon="6.84361">
        <ele>311.4</ele>
        <time>2025-10-24T07:28:52.000Z</time>
      </trkpt>
      <trkpt lat="43.58085" lon="6.8436">
        <ele>311.6</ele>
        <time>2025-10-24T07:28:53.000Z</time>
      </trkpt>
      <trkpt lat="43.58088" lon="6.84358">
        <ele>311.8</ele>
        <time>2025-10-24T07:28:54.000Z</time>
      </trkpt>
      <trkpt lat="43.58091" lon="6.84357">
        <ele>312.1</ele>
        <time>2025-10-24T07:28:55.000Z</time>
      </trkpt>
      <trkpt lat="43.58094" lon="6.84356">
        <ele>312.3</ele>
        <time>2025-10-24T07:28:56.000Z</time>
      </trkpt>
      <trkpt lat="43.58097" lon="6.84354">
        <ele>312.5</ele>
        <time>2025-10-24T07:28:57.000Z</time>
      </trkpt>
      <trkpt lat="43.581" lon="6.84353">
        <ele>312.6</ele>
        <time>2025-10-24T07:28:58.000Z</time>
      </trkpt>
      <trkpt lat="43.58104" lon="6.84351">
        <ele>312.8</ele>
        <time>2025-10-24T07:28:59.000Z</time>
      </trkpt>
      <trkpt lat="43.58107" lon="6.84348">
        <ele>312.9</ele>
        <time>2025-10-24T07:29:00.000Z</time>
      </trkpt>
      <trkpt lat="43.58109" lon="6.84344">
        <ele>313</ele>
        <time>2025-10-24T07:29:01.000Z</time>
      </trkpt>
      <trkpt lat="43.58111" lon="6.8434">
        <ele>313.1</ele>
        <time>2025-10-24T07:29:02.000Z</time>
      </trkpt>
      <trkpt lat="43.58112" lon="6.84334">
        <ele>313.2</ele>
        <time>2025-10-24T07:29:03.000Z</time>
      </trkpt>
      <trkpt lat="43.58112" lon="6.84329">
        <ele>313.4</ele>
        <time>2025-10-24T07:29:04.000Z</time>
      </trkpt>
      <trkpt lat="43.58112" lon="6.84323">
        <ele>313.6</ele>
        <time>2025-10-24T07:29:05.000Z</time>
      </trkpt>
      <trkpt lat="43.58112" lon="6.84317">
        <ele>313.8</ele>
        <time>2025-10-24T07:29:06.000Z</time>
      </trkpt>
      <trkpt lat="43.58111" lon="6.84312">
        <ele>314</ele>
        <time>2025-10-24T07:29:07.000Z</time>
      </trkpt>
      <trkpt lat="43.58111" lon="6.84307">
        <ele>314.2</ele>
        <time>2025-10-24T07:29:08.000Z</time>
      </trkpt>
      <trkpt lat="43.5811" lon="6.84302">
        <ele>314.4</ele>
        <time>2025-10-24T07:29:09.000Z</time>
      </trkpt>
      <trkpt lat="43.5811" lon="6.84298">
        <ele>314.6</ele>
        <time>2025-10-24T07:29:10.000Z</time>
      </trkpt>
      <trkpt lat="43.5811" lon="6.84294">
        <ele>314.7</ele>
        <time>2025-10-24T07:29:11.000Z</time>
      </trkpt>
      <trkpt lat="43.58111" lon="6.84289">
        <ele>314.9</ele>
        <time>2025-10-24T07:29:12.000Z</time>
      </trkpt>
      <trkpt lat="43.58112" lon="6.84285">
        <ele>315</ele>
        <time>2025-10-24T07:29:13.000Z</time>
      </trkpt>
      <trkpt lat="43.58113" lon="6.84282">
        <ele>315.1</ele>
        <time>2025-10-24T07:29:14.000Z</time>
      </trkpt>
      <trkpt lat="43.58115" lon="6.84278">
        <ele>315.2</ele>
        <time>2025-10-24T07:29:15.000Z</time>
      </trkpt>
      <trkpt lat="43.58117" lon="6.84275">
        <ele>315.3</ele>
        <time>2025-10-24T07:29:16.000Z</time>
      </trkpt>
      <trkpt lat="43.58119" lon="6.84272">
        <ele>315.3</ele>
        <time>2025-10-24T07:29:17.000Z</time>
      </trkpt>
      <trkpt lat="43.58121" lon="6.84271">
        <ele>315.4</ele>
        <time>2025-10-24T07:29:18.000Z</time>
      </trkpt>
      <trkpt lat="43.58123" lon="6.8427">
        <ele>315.4</ele>
        <time>2025-10-24T07:29:19.000Z</time>
      </trkpt>
      <trkpt lat="43.58124" lon="6.84269">
        <ele>315.5</ele>
        <time>2025-10-24T07:29:20.000Z</time>
      </trkpt>
      <trkpt lat="43.58125" lon="6.84269">
        <ele>315.5</ele>
        <time>2025-10-24T07:29:21.000Z</time>
      </trkpt>
      <trkpt lat="43.58126" lon="6.84269">
        <ele>315.5</ele>
        <time>2025-10-24T07:29:22.000Z</time>
      </trkpt>
      <trkpt lat="43.58127" lon="6.84269">
        <ele>315.5</ele>
        <time>2025-10-24T07:29:23.000Z</time>
      </trkpt>
      <trkpt lat="43.58127" lon="6.84269">
        <ele>315.5</ele>
        <time>2025-10-24T07:29:24.000Z</time>
      </trkpt>
      <trkpt lat="43.58127" lon="6.84269">
        <ele>315.5</ele>
        <time>2025-10-24T07:29:25.000Z</time>
      </trkpt>
      <trkpt lat="43.58128" lon="6.84269">
        <ele>315.5</ele>
        <time>2025-10-24T07:29:26.000Z</time>
      </trkpt>
      <trkpt lat="43.58128" lon="6.84269">
        <ele>315.5</ele>
        <time>2025-10-24T07:29:27.000Z</time>
      </trkpt>
      <trkpt lat="43.58128" lon="6.84269">
        <ele>315.5</ele>
        <time>2025-10-24T07:29:28.000Z</time>
      </trkpt>
      <trkpt lat="43.58128" lon="6.84269">
        <ele>315.5</ele>
        <time>2025-10-24T07:29:29.000Z</time>
      </trkpt>
      <trkpt lat="43.58128" lon="6.84269">
        <ele>315.5</ele>
        <time>2025-10-24T07:29:30.000Z</time>
      </trkpt>
      <trkpt lat="43.58128" lon="6.84269">
        <ele>315.5</ele>
        <time>2025-10-24T07:29:31.000Z</time>
      </trkpt>
      <trkpt lat="43.58128" lon="6.84269">
        <ele>315.5</ele>
        <time>2025-10-24T07:29:32.000Z</time>
      </trkpt>
      <trkpt lat="43.58128" lon="6.8427">
        <ele>315.5</ele>
        <time>2025-10-24T07:29:33.000Z</time>
      </trkpt>
      <trkpt lat="43.58129" lon="6.84271">
        <ele>315.5</ele>
        <time>2025-10-24T07:29:34.000Z</time>
      </trkpt>
      <trkpt lat="43.5813" lon="6.84272">
        <ele>315.5</ele>
        <time>2025-10-24T07:29:35.000Z</time>
      </trkpt>
      <trkpt lat="43.5813" lon="6.84272">
        <ele>315.5</ele>
        <time>2025-10-24T07:29:36.000Z</time>
      </trkpt>
      <trkpt lat="43.5813" lon="6.84272">
        <ele>315.5</ele>
        <time>2025-10-24T07:29:37.000Z</time>
      </trkpt>
      <trkpt lat="43.5813" lon="6.84272">
        <ele>315.5</ele>
        <time>2025-10-24T07:29:38.000Z</time>
      </trkpt>
      <trkpt lat="43.5813" lon="6.84272">
        <ele>315.5</ele>
        <time>2025-10-24T07:29:39.000Z</time>
      </trkpt>
      <trkpt lat="43.5813" lon="6.84272">
        <ele>315.5</ele>
        <time>2025-10-24T07:29:40.000Z</time>
      </trkpt>
      <trkpt lat="43.5813" lon="6.84272">
        <ele>315.5</ele>
        <time>2025-10-24T07:29:41.000Z</time>
      </trkpt>
      <trkpt lat="43.5813" lon="6.84272">
        <ele>315.5</ele>
        <time>2025-10-24T07:29:42.000Z</time>
      </trkpt>
      <trkpt lat="43.5813" lon="6.84272">
        <ele>315.5</ele>
        <time>2025-10-24T07:29:43.000Z</time>
      </trkpt>
      <trkpt lat="43.5813" lon="6.84272">
        <ele>315.5</ele>
        <time>2025-10-24T07:29:44.000Z</time>
      </trkpt>
      <trkpt lat="43.5813" lon="6.84272">
        <ele>315.5</ele>
        <time>2025-10-24T07:29:45.000Z</time>
      </trkpt>
      <trkpt lat="43.58129" lon="6.84272">
        <ele>315.5</ele>
        <time>2025-10-24T07:29:46.000Z</time>
      </trkpt>
      <trkpt lat="43.58129" lon="6.84272">
        <ele>315.5</ele>
        <time>2025-10-24T07:29:47.000Z</time>
      </trkpt>
      <trkpt lat="43.5813" lon="6.84271">
        <ele>315.5</ele>
        <time>2025-10-24T07:29:48.000Z</time>
      </trkpt>
      <trkpt lat="43.58132" lon="6.8427">
        <ele>315.6</ele>
        <time>2025-10-24T07:29:49.000Z</time>
      </trkpt>
      <trkpt lat="43.58135" lon="6.84268">
        <ele>315.6</ele>
        <time>2025-10-24T07:29:50.000Z</time>
      </trkpt>
      <trkpt lat="43.58138" lon="6.84266">
        <ele>315.6</ele>
        <time>2025-10-24T07:29:51.000Z</time>
      </trkpt>
      <trkpt lat="43.58141" lon="6.84265">
        <ele>315.6</ele>
        <time>2025-10-24T07:29:52.000Z</time>
      </trkpt>
      <trkpt lat="43.58144" lon="6.84263">
        <ele>315.6</ele>
        <time>2025-10-24T07:29:53.000Z</time>
      </trkpt>
      <trkpt lat="43.58148" lon="6.84261">
        <ele>315.6</ele>
        <time>2025-10-24T07:29:54.000Z</time>
      </trkpt>
      <trkpt lat="43.58152" lon="6.84259">
        <ele>315.6</ele>
        <time>2025-10-24T07:29:55.000Z</time>
      </trkpt>
      <trkpt lat="43.58156" lon="6.84257">
        <ele>315.6</ele>
        <time>2025-10-24T07:29:56.000Z</time>
      </trkpt>
      <trkpt lat="43.5816" lon="6.84255">
        <ele>315.6</ele>
        <time>2025-10-24T07:29:57.000Z</time>
      </trkpt>
      <trkpt lat="43.58165" lon="6.84253">
        <ele>315.5</ele>
        <time>2025-10-24T07:29:58.000Z</time>
      </trkpt>
      <trkpt lat="43.58169" lon="6.84251">
        <ele>315.5</ele>
        <time>2025-10-24T07:29:59.000Z</time>
      </trkpt>
      <trkpt lat="43.58174" lon="6.84248">
        <ele>315.4</ele>
        <time>2025-10-24T07:30:00.000Z</time>
      </trkpt>
      <trkpt lat="43.58178" lon="6.84246">
        <ele>315.4</ele>
        <time>2025-10-24T07:30:01.000Z</time>
      </trkpt>
      <trkpt lat="43.58183" lon="6.84243">
        <ele>315.3</ele>
        <time>2025-10-24T07:30:02.000Z</time>
      </trkpt>
      <trkpt lat="43.58187" lon="6.84241">
        <ele>315.2</ele>
        <time>2025-10-24T07:30:03.000Z</time>
      </trkpt>
      <trkpt lat="43.58192" lon="6.84238">
        <ele>315.1</ele>
        <time>2025-10-24T07:30:04.000Z</time>
      </trkpt>
      <trkpt lat="43.58196" lon="6.84235">
        <ele>315</ele>
        <time>2025-10-24T07:30:05.000Z</time>
      </trkpt>
      <trkpt lat="43.58201" lon="6.84233">
        <ele>315</ele>
        <time>2025-10-24T07:30:06.000Z</time>
      </trkpt>
      <trkpt lat="43.58205" lon="6.8423">
        <ele>314.9</ele>
        <time>2025-10-24T07:30:07.000Z</time>
      </trkpt>
      <trkpt lat="43.5821" lon="6.84227">
        <ele>314.8</ele>
        <time>2025-10-24T07:30:08.000Z</time>
      </trkpt>
      <trkpt lat="43.58214" lon="6.84225">
        <ele>314.8</ele>
        <time>2025-10-24T07:30:09.000Z</time>
      </trkpt>
      <trkpt lat="43.58219" lon="6.84223">
        <ele>314.7</ele>
        <time>2025-10-24T07:30:10.000Z</time>
      </trkpt>
      <trkpt lat="43.58223" lon="6.84221">
        <ele>314.8</ele>
        <time>2025-10-24T07:30:11.000Z</time>
      </trkpt>
      <trkpt lat="43.58227" lon="6.84218">
        <ele>314.8</ele>
        <time>2025-10-24T07:30:12.000Z</time>
      </trkpt>
      <trkpt lat="43.58232" lon="6.84216">
        <ele>314.8</ele>
        <time>2025-10-24T07:30:13.000Z</time>
      </trkpt>
      <trkpt lat="43.58236" lon="6.84214">
        <ele>314.9</ele>
        <time>2025-10-24T07:30:14.000Z</time>
      </trkpt>
      <trkpt lat="43.58241" lon="6.84212">
        <ele>315</ele>
        <time>2025-10-24T07:30:15.000Z</time>
      </trkpt>
      <trkpt lat="43.58245" lon="6.8421">
        <ele>315.1</ele>
        <time>2025-10-24T07:30:16.000Z</time>
      </trkpt>
      <trkpt lat="43.58249" lon="6.84208">
        <ele>315.2</ele>
        <time>2025-10-24T07:30:17.000Z</time>
      </trkpt>
      <trkpt lat="43.58253" lon="6.84205">
        <ele>315.3</ele>
        <time>2025-10-24T07:30:18.000Z</time>
      </trkpt>
      <trkpt lat="43.58258" lon="6.84203">
        <ele>315.4</ele>
        <time>2025-10-24T07:30:19.000Z</time>
      </trkpt>
      <trkpt lat="43.58262" lon="6.842">
        <ele>315.6</ele>
        <time>2025-10-24T07:30:20.000Z</time>
      </trkpt>
      <trkpt lat="43.58266" lon="6.84198">
        <ele>315.9</ele>
        <time>2025-10-24T07:30:21.000Z</time>
      </trkpt>
      <trkpt lat="43.5827" lon="6.84197">
        <ele>316.1</ele>
        <time>2025-10-24T07:30:22.000Z</time>
      </trkpt>
      <trkpt lat="43.58274" lon="6.84196">
        <ele>316.4</ele>
        <time>2025-10-24T07:30:23.000Z</time>
      </trkpt>
      <trkpt lat="43.58278" lon="6.84197">
        <ele>316.7</ele>
        <time>2025-10-24T07:30:24.000Z</time>
      </trkpt>
      <trkpt lat="43.58282" lon="6.84198">
        <ele>317</ele>
        <time>2025-10-24T07:30:25.000Z</time>
      </trkpt>
      <trkpt lat="43.58285" lon="6.84199">
        <ele>317.3</ele>
        <time>2025-10-24T07:30:26.000Z</time>
      </trkpt>
      <trkpt lat="43.58289" lon="6.84201">
        <ele>317.6</ele>
        <time>2025-10-24T07:30:27.000Z</time>
      </trkpt>
      <trkpt lat="43.58293" lon="6.84203">
        <ele>318</ele>
        <time>2025-10-24T07:30:28.000Z</time>
      </trkpt>
      <trkpt lat="43.58296" lon="6.84206">
        <ele>318.2</ele>
        <time>2025-10-24T07:30:29.000Z</time>
      </trkpt>
      <trkpt lat="43.58299" lon="6.8421">
        <ele>318.5</ele>
        <time>2025-10-24T07:30:30.000Z</time>
      </trkpt>
      <trkpt lat="43.58302" lon="6.84213">
        <ele>318.8</ele>
        <time>2025-10-24T07:30:31.000Z</time>
      </trkpt>
      <trkpt lat="43.58304" lon="6.84218">
        <ele>319</ele>
        <time>2025-10-24T07:30:32.000Z</time>
      </trkpt>
      <trkpt lat="43.58307" lon="6.84223">
        <ele>319.2</ele>
        <time>2025-10-24T07:30:33.000Z</time>
      </trkpt>
      <trkpt lat="43.58309" lon="6.84228">
        <ele>319.4</ele>
        <time>2025-10-24T07:30:34.000Z</time>
      </trkpt>
      <trkpt lat="43.58311" lon="6.84234">
        <ele>319.6</ele>
        <time>2025-10-24T07:30:35.000Z</time>
      </trkpt>
      <trkpt lat="43.58312" lon="6.84241">
        <ele>319.8</ele>
        <time>2025-10-24T07:30:36.000Z</time>
      </trkpt>
      <trkpt lat="43.58314" lon="6.84247">
        <ele>319.9</ele>
        <time>2025-10-24T07:30:37.000Z</time>
      </trkpt>
      <trkpt lat="43.58314" lon="6.84253">
        <ele>320</ele>
        <time>2025-10-24T07:30:38.000Z</time>
      </trkpt>
      <trkpt lat="43.58315" lon="6.8426">
        <ele>320.2</ele>
        <time>2025-10-24T07:30:39.000Z</time>
      </trkpt>
      <trkpt lat="43.58316" lon="6.84267">
        <ele>320.3</ele>
        <time>2025-10-24T07:30:40.000Z</time>
      </trkpt>
      <trkpt lat="43.58316" lon="6.84273">
        <ele>320.4</ele>
        <time>2025-10-24T07:30:41.000Z</time>
      </trkpt>
      <trkpt lat="43.58317" lon="6.8428">
        <ele>320.5</ele>
        <time>2025-10-24T07:30:42.000Z</time>
      </trkpt>
      <trkpt lat="43.58318" lon="6.84287">
        <ele>320.6</ele>
        <time>2025-10-24T07:30:43.000Z</time>
      </trkpt>
      <trkpt lat="43.58319" lon="6.84294">
        <ele>320.7</ele>
        <time>2025-10-24T07:30:44.000Z</time>
      </trkpt>
      <trkpt lat="43.5832" lon="6.843">
        <ele>320.9</ele>
        <time>2025-10-24T07:30:45.000Z</time>
      </trkpt>
      <trkpt lat="43.58321" lon="6.84307">
        <ele>321</ele>
        <time>2025-10-24T07:30:46.000Z</time>
      </trkpt>
      <trkpt lat="43.58323" lon="6.84313">
        <ele>321.1</ele>
        <time>2025-10-24T07:30:47.000Z</time>
      </trkpt>
      <trkpt lat="43.58324" lon="6.84318">
        <ele>321.3</ele>
        <time>2025-10-24T07:30:48.000Z</time>
      </trkpt>
      <trkpt lat="43.58326" lon="6.84324">
        <ele>321.4</ele>
        <time>2025-10-24T07:30:49.000Z</time>
      </trkpt>
      <trkpt lat="43.58327" lon="6.84329">
        <ele>321.5</ele>
        <time>2025-10-24T07:30:50.000Z</time>
      </trkpt>
      <trkpt lat="43.58329" lon="6.84334">
        <ele>321.6</ele>
        <time>2025-10-24T07:30:51.000Z</time>
      </trkpt>
      <trkpt lat="43.5833" lon="6.8434">
        <ele>321.8</ele>
        <time>2025-10-24T07:30:52.000Z</time>
      </trkpt>
      <trkpt lat="43.58331" lon="6.84346">
        <ele>321.9</ele>
        <time>2025-10-24T07:30:53.000Z</time>
      </trkpt>
      <trkpt lat="43.58333" lon="6.84352">
        <ele>322.1</ele>
        <time>2025-10-24T07:30:54.000Z</time>
      </trkpt>
      <trkpt lat="43.58336" lon="6.84357">
        <ele>322.3</ele>
        <time>2025-10-24T07:30:55.000Z</time>
      </trkpt>
      <trkpt lat="43.58339" lon="6.84362">
        <ele>322.4</ele>
        <time>2025-10-24T07:30:56.000Z</time>
      </trkpt>
      <trkpt lat="43.58342" lon="6.84366">
        <ele>322.6</ele>
        <time>2025-10-24T07:30:57.000Z</time>
      </trkpt>
      <trkpt lat="43.58345" lon="6.8437">
        <ele>322.7</ele>
        <time>2025-10-24T07:30:58.000Z</time>
      </trkpt>
      <trkpt lat="43.58349" lon="6.84373">
        <ele>322.8</ele>
        <time>2025-10-24T07:30:59.000Z</time>
      </trkpt>
      <trkpt lat="43.58353" lon="6.84375">
        <ele>323</ele>
        <time>2025-10-24T07:31:00.000Z</time>
      </trkpt>
      <trkpt lat="43.58358" lon="6.84376">
        <ele>323.1</ele>
        <time>2025-10-24T07:31:01.000Z</time>
      </trkpt>
      <trkpt lat="43.58362" lon="6.84377">
        <ele>323.3</ele>
        <time>2025-10-24T07:31:02.000Z</time>
      </trkpt>
      <trkpt lat="43.58367" lon="6.84377">
        <ele>323.5</ele>
        <time>2025-10-24T07:31:03.000Z</time>
      </trkpt>
      <trkpt lat="43.58372" lon="6.84377">
        <ele>323.7</ele>
        <time>2025-10-24T07:31:04.000Z</time>
      </trkpt>
      <trkpt lat="43.58377" lon="6.84377">
        <ele>323.9</ele>
        <time>2025-10-24T07:31:05.000Z</time>
      </trkpt>
      <trkpt lat="43.58381" lon="6.84377">
        <ele>324.1</ele>
        <time>2025-10-24T07:31:06.000Z</time>
      </trkpt>
      <trkpt lat="43.58386" lon="6.84377">
        <ele>324.4</ele>
        <time>2025-10-24T07:31:07.000Z</time>
      </trkpt>
      <trkpt lat="43.5839" lon="6.84377">
        <ele>324.6</ele>
        <time>2025-10-24T07:31:08.000Z</time>
      </trkpt>
      <trkpt lat="43.58395" lon="6.84377">
        <ele>324.9</ele>
        <time>2025-10-24T07:31:09.000Z</time>
      </trkpt>
      <trkpt lat="43.58399" lon="6.84378">
        <ele>325.1</ele>
        <time>2025-10-24T07:31:10.000Z</time>
      </trkpt>
      <trkpt lat="43.58404" lon="6.84378">
        <ele>325.3</ele>
        <time>2025-10-24T07:31:11.000Z</time>
      </trkpt>
      <trkpt lat="43.58408" lon="6.84379">
        <ele>325.6</ele>
        <time>2025-10-24T07:31:12.000Z</time>
      </trkpt>
      <trkpt lat="43.58412" lon="6.84381">
        <ele>325.8</ele>
        <time>2025-10-24T07:31:13.000Z</time>
      </trkpt>
      <trkpt lat="43.58416" lon="6.84383">
        <ele>326</ele>
        <time>2025-10-24T07:31:14.000Z</time>
      </trkpt>
      <trkpt lat="43.5842" lon="6.84386">
        <ele>326.2</ele>
        <time>2025-10-24T07:31:15.000Z</time>
      </trkpt>
      <trkpt lat="43.58424" lon="6.84389">
        <ele>326.4</ele>
        <time>2025-10-24T07:31:16.000Z</time>
      </trkpt>
      <trkpt lat="43.58427" lon="6.84392">
        <ele>326.6</ele>
        <time>2025-10-24T07:31:17.000Z</time>
      </trkpt>
      <trkpt lat="43.58431" lon="6.84395">
        <ele>326.7</ele>
        <time>2025-10-24T07:31:18.000Z</time>
      </trkpt>
      <trkpt lat="43.58434" lon="6.84398">
        <ele>326.9</ele>
        <time>2025-10-24T07:31:19.000Z</time>
      </trkpt>
      <trkpt lat="43.58437" lon="6.84402">
        <ele>327</ele>
        <time>2025-10-24T07:31:20.000Z</time>
      </trkpt>
      <trkpt lat="43.5844" lon="6.84406">
        <ele>327.1</ele>
        <time>2025-10-24T07:31:21.000Z</time>
      </trkpt>
      <trkpt lat="43.58444" lon="6.8441">
        <ele>327.3</ele>
        <time>2025-10-24T07:31:22.000Z</time>
      </trkpt>
      <trkpt lat="43.58447" lon="6.84413">
        <ele>327.3</ele>
        <time>2025-10-24T07:31:23.000Z</time>
      </trkpt>
      <trkpt lat="43.58451" lon="6.84417">
        <ele>327.4</ele>
        <time>2025-10-24T07:31:24.000Z</time>
      </trkpt>
      <trkpt lat="43.58455" lon="6.8442">
        <ele>327.5</ele>
        <time>2025-10-24T07:31:25.000Z</time>
      </trkpt>
      <trkpt lat="43.5846" lon="6.84422">
        <ele>327.6</ele>
        <time>2025-10-24T07:31:26.000Z</time>
      </trkpt>
      <trkpt lat="43.58464" lon="6.84425">
        <ele>327.7</ele>
        <time>2025-10-24T07:31:27.000Z</time>
      </trkpt>
      <trkpt lat="43.58469" lon="6.84427">
        <ele>327.8</ele>
        <time>2025-10-24T07:31:28.000Z</time>
      </trkpt>
      <trkpt lat="43.58473" lon="6.84429">
        <ele>327.8</ele>
        <time>2025-10-24T07:31:29.000Z</time>
      </trkpt>
      <trkpt lat="43.58477" lon="6.84431">
        <ele>327.9</ele>
        <time>2025-10-24T07:31:30.000Z</time>
      </trkpt>
      <trkpt lat="43.58481" lon="6.84433">
        <ele>328</ele>
        <time>2025-10-24T07:31:31.000Z</time>
      </trkpt>
      <trkpt lat="43.58485" lon="6.84433">
        <ele>328</ele>
        <time>2025-10-24T07:31:32.000Z</time>
      </trkpt>
      <trkpt lat="43.58489" lon="6.84433">
        <ele>328.1</ele>
        <time>2025-10-24T07:31:33.000Z</time>
      </trkpt>
      <trkpt lat="43.58494" lon="6.84432">
        <ele>328.1</ele>
        <time>2025-10-24T07:31:34.000Z</time>
      </trkpt>
      <trkpt lat="43.58498" lon="6.8443">
        <ele>328.1</ele>
        <time>2025-10-24T07:31:35.000Z</time>
      </trkpt>
      <trkpt lat="43.58503" lon="6.84428">
        <ele>328.1</ele>
        <time>2025-10-24T07:31:36.000Z</time>
      </trkpt>
      <trkpt lat="43.58507" lon="6.84425">
        <ele>328.1</ele>
        <time>2025-10-24T07:31:37.000Z</time>
      </trkpt>
      <trkpt lat="43.58512" lon="6.84423">
        <ele>328.1</ele>
        <time>2025-10-24T07:31:38.000Z</time>
      </trkpt>
      <trkpt lat="43.58517" lon="6.8442">
        <ele>328</ele>
        <time>2025-10-24T07:31:39.000Z</time>
      </trkpt>
      <trkpt lat="43.58521" lon="6.84418">
        <ele>328</ele>
        <time>2025-10-24T07:31:40.000Z</time>
      </trkpt>
      <trkpt lat="43.58526" lon="6.84416">
        <ele>328.1</ele>
        <time>2025-10-24T07:31:41.000Z</time>
      </trkpt>
      <trkpt lat="43.58531" lon="6.84413">
        <ele>328.1</ele>
        <time>2025-10-24T07:31:42.000Z</time>
      </trkpt>
      <trkpt lat="43.58535" lon="6.84411">
        <ele>328.1</ele>
        <time>2025-10-24T07:31:43.000Z</time>
      </trkpt>
      <trkpt lat="43.58539" lon="6.84408">
        <ele>328.1</ele>
        <time>2025-10-24T07:31:44.000Z</time>
      </trkpt>
      <trkpt lat="43.58543" lon="6.84405">
        <ele>328.1</ele>
        <time>2025-10-24T07:31:45.000Z</time>
      </trkpt>
      <trkpt lat="43.58546" lon="6.844">
        <ele>328.1</ele>
        <time>2025-10-24T07:31:46.000Z</time>
      </trkpt>
      <trkpt lat="43.58548" lon="6.84394">
        <ele>328.1</ele>
        <time>2025-10-24T07:31:47.000Z</time>
      </trkpt>
      <trkpt lat="43.58549" lon="6.84388">
        <ele>328.1</ele>
        <time>2025-10-24T07:31:48.000Z</time>
      </trkpt>
      <trkpt lat="43.58549" lon="6.84381">
        <ele>328.1</ele>
        <time>2025-10-24T07:31:49.000Z</time>
      </trkpt>
      <trkpt lat="43.58548" lon="6.84375">
        <ele>328.1</ele>
        <time>2025-10-24T07:31:50.000Z</time>
      </trkpt>
      <trkpt lat="43.58547" lon="6.84368">
        <ele>328.2</ele>
        <time>2025-10-24T07:31:51.000Z</time>
      </trkpt>
      <trkpt lat="43.58547" lon="6.84361">
        <ele>328.3</ele>
        <time>2025-10-24T07:31:52.000Z</time>
      </trkpt>
      <trkpt lat="43.58547" lon="6.84355">
        <ele>328.4</ele>
        <time>2025-10-24T07:31:53.000Z</time>
      </trkpt>
      <trkpt lat="43.58546" lon="6.84348">
        <ele>328.5</ele>
        <time>2025-10-24T07:31:54.000Z</time>
      </trkpt>
      <trkpt lat="43.58546" lon="6.84342">
        <ele>328.7</ele>
        <time>2025-10-24T07:31:55.000Z</time>
      </trkpt>
      <trkpt lat="43.58547" lon="6.84335">
        <ele>328.8</ele>
        <time>2025-10-24T07:31:56.000Z</time>
      </trkpt>
      <trkpt lat="43.58547" lon="6.84329">
        <ele>329</ele>
        <time>2025-10-24T07:31:57.000Z</time>
      </trkpt>
      <trkpt lat="43.58548" lon="6.84323">
        <ele>329.1</ele>
        <time>2025-10-24T07:31:58.000Z</time>
      </trkpt>
      <trkpt lat="43.5855" lon="6.84317">
        <ele>329.3</ele>
        <time>2025-10-24T07:31:59.000Z</time>
      </trkpt>
      <trkpt lat="43.58552" lon="6.84312">
        <ele>329.4</ele>
        <time>2025-10-24T07:32:00.000Z</time>
      </trkpt>
      <trkpt lat="43.58554" lon="6.84308">
        <ele>329.6</ele>
        <time>2025-10-24T07:32:01.000Z</time>
      </trkpt>
      <trkpt lat="43.58557" lon="6.84304">
        <ele>329.7</ele>
        <time>2025-10-24T07:32:02.000Z</time>
      </trkpt>
      <trkpt lat="43.58561" lon="6.84301">
        <ele>329.9</ele>
        <time>2025-10-24T07:32:03.000Z</time>
      </trkpt>
      <trkpt lat="43.58565" lon="6.84299">
        <ele>330</ele>
        <time>2025-10-24T07:32:04.000Z</time>
      </trkpt>
      <trkpt lat="43.58569" lon="6.84297">
        <ele>330.1</ele>
        <time>2025-10-24T07:32:05.000Z</time>
      </trkpt>
      <trkpt lat="43.58573" lon="6.84295">
        <ele>330.2</ele>
        <time>2025-10-24T07:32:06.000Z</time>
      </trkpt>
      <trkpt lat="43.58578" lon="6.84295">
        <ele>330.4</ele>
        <time>2025-10-24T07:32:07.000Z</time>
      </trkpt>
      <trkpt lat="43.58582" lon="6.84294">
        <ele>330.5</ele>
        <time>2025-10-24T07:32:08.000Z</time>
      </trkpt>
      <trkpt lat="43.58587" lon="6.84295">
        <ele>330.7</ele>
        <time>2025-10-24T07:32:09.000Z</time>
      </trkpt>
      <trkpt lat="43.58592" lon="6.84296">
        <ele>330.8</ele>
        <time>2025-10-24T07:32:10.000Z</time>
      </trkpt>
      <trkpt lat="43.58596" lon="6.84297">
        <ele>331</ele>
        <time>2025-10-24T07:32:11.000Z</time>
      </trkpt>
      <trkpt lat="43.58601" lon="6.84298">
        <ele>331.2</ele>
        <time>2025-10-24T07:32:12.000Z</time>
      </trkpt>
      <trkpt lat="43.58606" lon="6.843">
        <ele>331.4</ele>
        <time>2025-10-24T07:32:13.000Z</time>
      </trkpt>
      <trkpt lat="43.5861" lon="6.84302">
        <ele>331.7</ele>
        <time>2025-10-24T07:32:14.000Z</time>
      </trkpt>
      <trkpt lat="43.58614" lon="6.84305">
        <ele>331.9</ele>
        <time>2025-10-24T07:32:15.000Z</time>
      </trkpt>
      <trkpt lat="43.58618" lon="6.84308">
        <ele>332.2</ele>
        <time>2025-10-24T07:32:16.000Z</time>
      </trkpt>
      <trkpt lat="43.58621" lon="6.84311">
        <ele>332.5</ele>
        <time>2025-10-24T07:32:17.000Z</time>
      </trkpt>
      <trkpt lat="43.58624" lon="6.84314">
        <ele>332.8</ele>
        <time>2025-10-24T07:32:18.000Z</time>
      </trkpt>
      <trkpt lat="43.58627" lon="6.84318">
        <ele>333</ele>
        <time>2025-10-24T07:32:19.000Z</time>
      </trkpt>
      <trkpt lat="43.5863" lon="6.84321">
        <ele>333.3</ele>
        <time>2025-10-24T07:32:20.000Z</time>
      </trkpt>
      <trkpt lat="43.58633" lon="6.84325">
        <ele>333.6</ele>
        <time>2025-10-24T07:32:21.000Z</time>
      </trkpt>
      <trkpt lat="43.58636" lon="6.84328">
        <ele>333.8</ele>
        <time>2025-10-24T07:32:22.000Z</time>
      </trkpt>
      <trkpt lat="43.5864" lon="6.84332">
        <ele>334</ele>
        <time>2025-10-24T07:32:23.000Z</time>
      </trkpt>
      <trkpt lat="43.58643" lon="6.84335">
        <ele>334.2</ele>
        <time>2025-10-24T07:32:24.000Z</time>
      </trkpt>
      <trkpt lat="43.58645" lon="6.84339">
        <ele>334.3</ele>
        <time>2025-10-24T07:32:25.000Z</time>
      </trkpt>
      <trkpt lat="43.58648" lon="6.84343">
        <ele>334.4</ele>
        <time>2025-10-24T07:32:26.000Z</time>
      </trkpt>
      <trkpt lat="43.5865" lon="6.84347">
        <ele>334.5</ele>
        <time>2025-10-24T07:32:27.000Z</time>
      </trkpt>
      <trkpt lat="43.58653" lon="6.84351">
        <ele>334.5</ele>
        <time>2025-10-24T07:32:28.000Z</time>
      </trkpt>
      <trkpt lat="43.58656" lon="6.84355">
        <ele>334.6</ele>
        <time>2025-10-24T07:32:29.000Z</time>
      </trkpt>
      <trkpt lat="43.58659" lon="6.84358">
        <ele>334.6</ele>
        <time>2025-10-24T07:32:30.000Z</time>
      </trkpt>
      <trkpt lat="43.58662" lon="6.84361">
        <ele>334.6</ele>
        <time>2025-10-24T07:32:31.000Z</time>
      </trkpt>
      <trkpt lat="43.58666" lon="6.84364">
        <ele>334.7</ele>
        <time>2025-10-24T07:32:32.000Z</time>
      </trkpt>
      <trkpt lat="43.5867" lon="6.84365">
        <ele>334.7</ele>
        <time>2025-10-24T07:32:33.000Z</time>
      </trkpt>
      <trkpt lat="43.58673" lon="6.84365">
        <ele>334.7</ele>
        <time>2025-10-24T07:32:34.000Z</time>
      </trkpt>
      <trkpt lat="43.58677" lon="6.84365">
        <ele>334.7</ele>
        <time>2025-10-24T07:32:35.000Z</time>
      </trkpt>
      <trkpt lat="43.58681" lon="6.84364">
        <ele>334.7</ele>
        <time>2025-10-24T07:32:36.000Z</time>
      </trkpt>
      <trkpt lat="43.58685" lon="6.84362">
        <ele>334.6</ele>
        <time>2025-10-24T07:32:37.000Z</time>
      </trkpt>
      <trkpt lat="43.58689" lon="6.84361">
        <ele>334.5</ele>
        <time>2025-10-24T07:32:38.000Z</time>
      </trkpt>
      <trkpt lat="43.58694" lon="6.8436">
        <ele>334.4</ele>
        <time>2025-10-24T07:32:39.000Z</time>
      </trkpt>
      <trkpt lat="43.58698" lon="6.84359">
        <ele>334.2</ele>
        <time>2025-10-24T07:32:40.000Z</time>
      </trkpt>
      <trkpt lat="43.58703" lon="6.84358">
        <ele>333.9</ele>
        <time>2025-10-24T07:32:41.000Z</time>
      </trkpt>
      <trkpt lat="43.58708" lon="6.84357">
        <ele>333.7</ele>
        <time>2025-10-24T07:32:42.000Z</time>
      </trkpt>
      <trkpt lat="43.58714" lon="6.84356">
        <ele>333.4</ele>
        <time>2025-10-24T07:32:43.000Z</time>
      </trkpt>
      <trkpt lat="43.5872" lon="6.84357">
        <ele>333.1</ele>
        <time>2025-10-24T07:32:44.000Z</time>
      </trkpt>
      <trkpt lat="43.58726" lon="6.84357">
        <ele>332.8</ele>
        <time>2025-10-24T07:32:45.000Z</time>
      </trkpt>
      <trkpt lat="43.58731" lon="6.84358">
        <ele>332.5</ele>
        <time>2025-10-24T07:32:46.000Z</time>
      </trkpt>
      <trkpt lat="43.58737" lon="6.84357">
        <ele>332.1</ele>
        <time>2025-10-24T07:32:47.000Z</time>
      </trkpt>
      <trkpt lat="43.58742" lon="6.84357">
        <ele>331.8</ele>
        <time>2025-10-24T07:32:48.000Z</time>
      </trkpt>
      <trkpt lat="43.58747" lon="6.84356">
        <ele>331.4</ele>
        <time>2025-10-24T07:32:49.000Z</time>
      </trkpt>
      <trkpt lat="43.58751" lon="6.84356">
        <ele>330.9</ele>
        <time>2025-10-24T07:32:50.000Z</time>
      </trkpt>
      <trkpt lat="43.58756" lon="6.84355">
        <ele>330.4</ele>
        <time>2025-10-24T07:32:51.000Z</time>
      </trkpt>
      <trkpt lat="43.58761" lon="6.84352">
        <ele>329.8</ele>
        <time>2025-10-24T07:32:52.000Z</time>
      </trkpt>
      <trkpt lat="43.58767" lon="6.84349">
        <ele>329.2</ele>
        <time>2025-10-24T07:32:53.000Z</time>
      </trkpt>
      <trkpt lat="43.58772" lon="6.84344">
        <ele>328.5</ele>
        <time>2025-10-24T07:32:54.000Z</time>
      </trkpt>
      <trkpt lat="43.58778" lon="6.84339">
        <ele>327.9</ele>
        <time>2025-10-24T07:32:55.000Z</time>
      </trkpt>
      <trkpt lat="43.58784" lon="6.84333">
        <ele>327.3</ele>
        <time>2025-10-24T07:32:56.000Z</time>
      </trkpt>
      <trkpt lat="43.5879" lon="6.84327">
        <ele>326.7</ele>
        <time>2025-10-24T07:32:57.000Z</time>
      </trkpt>
      <trkpt lat="43.58795" lon="6.8432">
        <ele>326.1</ele>
        <time>2025-10-24T07:32:58.000Z</time>
      </trkpt>
      <trkpt lat="43.58799" lon="6.84313">
        <ele>325.7</ele>
        <time>2025-10-24T07:32:59.000Z</time>
      </trkpt>
      <trkpt lat="43.58802" lon="6.84306">
        <ele>325.2</ele>
        <time>2025-10-24T07:33:00.000Z</time>
      </trkpt>
      <trkpt lat="43.58805" lon="6.843">
        <ele>325</ele>
        <time>2025-10-24T07:33:01.000Z</time>
      </trkpt>
      <trkpt lat="43.58808" lon="6.84295">
        <ele>324.9</ele>
        <time>2025-10-24T07:33:02.000Z</time>
      </trkpt>
      <trkpt lat="43.5881" lon="6.8429">
        <ele>324.8</ele>
        <time>2025-10-24T07:33:03.000Z</time>
      </trkpt>
      <trkpt lat="43.58813" lon="6.84286">
        <ele>324.9</ele>
        <time>2025-10-24T07:33:04.000Z</time>
      </trkpt>
      <trkpt lat="43.58816" lon="6.84282">
        <ele>325.1</ele>
        <time>2025-10-24T07:33:05.000Z</time>
      </trkpt>
      <trkpt lat="43.58818" lon="6.84278">
        <ele>325.3</ele>
        <time>2025-10-24T07:33:06.000Z</time>
      </trkpt>
      <trkpt lat="43.5882" lon="6.84274">
        <ele>325.5</ele>
        <time>2025-10-24T07:33:07.000Z</time>
      </trkpt>
      <trkpt lat="43.58822" lon="6.84269">
        <ele>325.7</ele>
        <time>2025-10-24T07:33:08.000Z</time>
      </trkpt>
      <trkpt lat="43.58824" lon="6.84264">
        <ele>325.9</ele>
        <time>2025-10-24T07:33:09.000Z</time>
      </trkpt>
      <trkpt lat="43.58826" lon="6.8426">
        <ele>326.1</ele>
        <time>2025-10-24T07:33:10.000Z</time>
      </trkpt>
      <trkpt lat="43.58828" lon="6.84255">
        <ele>326.3</ele>
        <time>2025-10-24T07:33:11.000Z</time>
      </trkpt>
      <trkpt lat="43.5883" lon="6.8425">
        <ele>326.5</ele>
        <time>2025-10-24T07:33:12.000Z</time>
      </trkpt>
      <trkpt lat="43.58832" lon="6.84245">
        <ele>326.7</ele>
        <time>2025-10-24T07:33:13.000Z</time>
      </trkpt>
      <trkpt lat="43.58834" lon="6.8424">
        <ele>326.8</ele>
        <time>2025-10-24T07:33:14.000Z</time>
      </trkpt>
      <trkpt lat="43.58836" lon="6.84236">
        <ele>327</ele>
        <time>2025-10-24T07:33:15.000Z</time>
      </trkpt>
      <trkpt lat="43.58839" lon="6.84231">
        <ele>327.2</ele>
        <time>2025-10-24T07:33:16.000Z</time>
      </trkpt>
      <trkpt lat="43.58841" lon="6.84226">
        <ele>327.4</ele>
        <time>2025-10-24T07:33:17.000Z</time>
      </trkpt>
      <trkpt lat="43.58844" lon="6.84221">
        <ele>327.6</ele>
        <time>2025-10-24T07:33:18.000Z</time>
      </trkpt>
      <trkpt lat="43.58846" lon="6.84217">
        <ele>327.9</ele>
        <time>2025-10-24T07:33:19.000Z</time>
      </trkpt>
      <trkpt lat="43.58849" lon="6.84213">
        <ele>328</ele>
        <time>2025-10-24T07:33:20.000Z</time>
      </trkpt>
      <trkpt lat="43.58851" lon="6.84209">
        <ele>328.2</ele>
        <time>2025-10-24T07:33:21.000Z</time>
      </trkpt>
      <trkpt lat="43.58853" lon="6.84205">
        <ele>328.3</ele>
        <time>2025-10-24T07:33:22.000Z</time>
      </trkpt>
      <trkpt lat="43.58855" lon="6.84201">
        <ele>328.4</ele>
        <time>2025-10-24T07:33:23.000Z</time>
      </trkpt>
      <trkpt lat="43.58858" lon="6.84197">
        <ele>328.6</ele>
        <time>2025-10-24T07:33:24.000Z</time>
      </trkpt>
      <trkpt lat="43.5886" lon="6.84193">
        <ele>328.7</ele>
        <time>2025-10-24T07:33:25.000Z</time>
      </trkpt>
      <trkpt lat="43.58863" lon="6.84189">
        <ele>328.8</ele>
        <time>2025-10-24T07:33:26.000Z</time>
      </trkpt>
      <trkpt lat="43.58865" lon="6.84185">
        <ele>329</ele>
        <time>2025-10-24T07:33:27.000Z</time>
      </trkpt>
      <trkpt lat="43.58868" lon="6.84181">
        <ele>329.1</ele>
        <time>2025-10-24T07:33:28.000Z</time>
      </trkpt>
      <trkpt lat="43.5887" lon="6.84177">
        <ele>329.2</ele>
        <time>2025-10-24T07:33:29.000Z</time>
      </trkpt>
      <trkpt lat="43.58873" lon="6.84173">
        <ele>329.3</ele>
        <time>2025-10-24T07:33:30.000Z</time>
      </trkpt>
      <trkpt lat="43.58875" lon="6.84169">
        <ele>329.5</ele>
        <time>2025-10-24T07:33:31.000Z</time>
      </trkpt>
      <trkpt lat="43.58878" lon="6.84165">
        <ele>329.6</ele>
        <time>2025-10-24T07:33:32.000Z</time>
      </trkpt>
      <trkpt lat="43.5888" lon="6.84161">
        <ele>329.8</ele>
        <time>2025-10-24T07:33:33.000Z</time>
      </trkpt>
      <trkpt lat="43.58882" lon="6.84157">
        <ele>330</ele>
        <time>2025-10-24T07:33:34.000Z</time>
      </trkpt>
      <trkpt lat="43.58885" lon="6.84154">
        <ele>330.2</ele>
        <time>2025-10-24T07:33:35.000Z</time>
      </trkpt>
      <trkpt lat="43.58888" lon="6.8415">
        <ele>330.4</ele>
        <time>2025-10-24T07:33:36.000Z</time>
      </trkpt>
      <trkpt lat="43.5889" lon="6.84147">
        <ele>330.6</ele>
        <time>2025-10-24T07:33:37.000Z</time>
      </trkpt>
      <trkpt lat="43.58892" lon="6.84144">
        <ele>330.8</ele>
        <time>2025-10-24T07:33:38.000Z</time>
      </trkpt>
      <trkpt lat="43.58894" lon="6.8414">
        <ele>330.9</ele>
        <time>2025-10-24T07:33:39.000Z</time>
      </trkpt>
      <trkpt lat="43.58895" lon="6.84137">
        <ele>331</ele>
        <time>2025-10-24T07:33:40.000Z</time>
      </trkpt>
      <trkpt lat="43.58894" lon="6.84135">
        <ele>331</ele>
        <time>2025-10-24T07:33:41.000Z</time>
      </trkpt>
      <trkpt lat="43.58893" lon="6.84134">
        <ele>330.9</ele>
        <time>2025-10-24T07:33:42.000Z</time>
      </trkpt>
      <trkpt lat="43.58891" lon="6.84133">
        <ele>330.9</ele>
        <time>2025-10-24T07:33:43.000Z</time>
      </trkpt>
      <trkpt lat="43.58889" lon="6.84133">
        <ele>330.9</ele>
        <time>2025-10-24T07:33:44.000Z</time>
      </trkpt>
      <trkpt lat="43.58887" lon="6.84133">
        <ele>330.8</ele>
        <time>2025-10-24T07:33:45.000Z</time>
      </trkpt>
      <trkpt lat="43.58884" lon="6.84133">
        <ele>330.7</ele>
        <time>2025-10-24T07:33:46.000Z</time>
      </trkpt>
      <trkpt lat="43.58881" lon="6.84132">
        <ele>330.6</ele>
        <time>2025-10-24T07:33:47.000Z</time>
      </trkpt>
      <trkpt lat="43.58879" lon="6.84131">
        <ele>330.5</ele>
        <time>2025-10-24T07:33:48.000Z</time>
      </trkpt>
      <trkpt lat="43.58876" lon="6.84131">
        <ele>330.4</ele>
        <time>2025-10-24T07:33:49.000Z</time>
      </trkpt>
      <trkpt lat="43.58875" lon="6.8413">
        <ele>330.4</ele>
        <time>2025-10-24T07:33:50.000Z</time>
      </trkpt>
      <trkpt lat="43.58874" lon="6.8413">
        <ele>330.3</ele>
        <time>2025-10-24T07:33:51.000Z</time>
      </trkpt>
      <trkpt lat="43.58874" lon="6.84131">
        <ele>330.3</ele>
        <time>2025-10-24T07:33:52.000Z</time>
      </trkpt>
      <trkpt lat="43.58873" lon="6.84131">
        <ele>330.3</ele>
        <time>2025-10-24T07:33:53.000Z</time>
      </trkpt>
      <trkpt lat="43.58873" lon="6.84131">
        <ele>330.3</ele>
        <time>2025-10-24T07:33:54.000Z</time>
      </trkpt>
      <trkpt lat="43.58873" lon="6.84131">
        <ele>330.3</ele>
        <time>2025-10-24T07:33:55.000Z</time>
      </trkpt>
      <trkpt lat="43.58873" lon="6.8413">
        <ele>330.2</ele>
        <time>2025-10-24T07:33:56.000Z</time>
      </trkpt>
      <trkpt lat="43.58873" lon="6.8413">
        <ele>330.2</ele>
        <time>2025-10-24T07:33:57.000Z</time>
      </trkpt>
      <trkpt lat="43.58872" lon="6.8413">
        <ele>330.2</ele>
        <time>2025-10-24T07:33:58.000Z</time>
      </trkpt>
      <trkpt lat="43.58872" lon="6.8413">
        <ele>330.2</ele>
        <time>2025-10-24T07:33:59.000Z</time>
      </trkpt>
      <trkpt lat="43.58872" lon="6.8413">
        <ele>330.2</ele>
        <time>2025-10-24T07:34:00.000Z</time>
      </trkpt>
      <trkpt lat="43.58871" lon="6.84129">
        <ele>330.1</ele>
        <time>2025-10-24T07:34:01.000Z</time>
      </trkpt>
      <trkpt lat="43.58869" lon="6.84128">
        <ele>330</ele>
        <time>2025-10-24T07:34:02.000Z</time>
      </trkpt>
      <trkpt lat="43.58867" lon="6.84126">
        <ele>329.8</ele>
        <time>2025-10-24T07:34:03.000Z</time>
      </trkpt>
      <trkpt lat="43.58864" lon="6.84123">
        <ele>329.6</ele>
        <time>2025-10-24T07:34:04.000Z</time>
      </trkpt>
      <trkpt lat="43.58861" lon="6.8412">
        <ele>329.4</ele>
        <time>2025-10-24T07:34:05.000Z</time>
      </trkpt>
      <trkpt lat="43.58858" lon="6.84117">
        <ele>329.1</ele>
        <time>2025-10-24T07:34:06.000Z</time>
      </trkpt>
      <trkpt lat="43.58856" lon="6.84112">
        <ele>328.9</ele>
        <time>2025-10-24T07:34:07.000Z</time>
      </trkpt>
      <trkpt lat="43.58853" lon="6.84107">
        <ele>328.6</ele>
        <time>2025-10-24T07:34:08.000Z</time>
      </trkpt>
      <trkpt lat="43.58852" lon="6.84102">
        <ele>328.4</ele>
        <time>2025-10-24T07:34:09.000Z</time>
      </trkpt>
      <trkpt lat="43.58851" lon="6.84098">
        <ele>328.2</ele>
        <time>2025-10-24T07:34:10.000Z</time>
      </trkpt>
      <trkpt lat="43.58851" lon="6.84094">
        <ele>328.1</ele>
        <time>2025-10-24T07:34:11.000Z</time>
      </trkpt>
      <trkpt lat="43.5885" lon="6.8409">
        <ele>327.9</ele>
        <time>2025-10-24T07:34:12.000Z</time>
      </trkpt>
      <trkpt lat="43.5885" lon="6.84086">
        <ele>327.7</ele>
        <time>2025-10-24T07:34:13.000Z</time>
      </trkpt>
      <trkpt lat="43.5885" lon="6.84081">
        <ele>327.5</ele>
        <time>2025-10-24T07:34:14.000Z</time>
      </trkpt>
      <trkpt lat="43.5885" lon="6.84076">
        <ele>327.3</ele>
        <time>2025-10-24T07:34:15.000Z</time>
      </trkpt>
      <trkpt lat="43.5885" lon="6.8407">
        <ele>327</ele>
        <time>2025-10-24T07:34:16.000Z</time>
      </trkpt>
      <trkpt lat="43.5885" lon="6.84065">
        <ele>326.8</ele>
        <time>2025-10-24T07:34:17.000Z</time>
      </trkpt>
      <trkpt lat="43.58849" lon="6.8406">
        <ele>326.7</ele>
        <time>2025-10-24T07:34:18.000Z</time>
      </trkpt>
      <trkpt lat="43.58849" lon="6.84055">
        <ele>326.7</ele>
        <time>2025-10-24T07:34:19.000Z</time>
      </trkpt>
      <trkpt lat="43.58849" lon="6.8405">
        <ele>326.6</ele>
        <time>2025-10-24T07:34:20.000Z</time>
      </trkpt>
      <trkpt lat="43.5885" lon="6.84045">
        <ele>326.6</ele>
        <time>2025-10-24T07:34:21.000Z</time>
      </trkpt>
      <trkpt lat="43.5885" lon="6.8404">
        <ele>326.5</ele>
        <time>2025-10-24T07:34:22.000Z</time>
      </trkpt>
      <trkpt lat="43.58851" lon="6.84035">
        <ele>326.4</ele>
        <time>2025-10-24T07:34:23.000Z</time>
      </trkpt>
      <trkpt lat="43.58853" lon="6.8403">
        <ele>326.3</ele>
        <time>2025-10-24T07:34:24.000Z</time>
      </trkpt>
      <trkpt lat="43.58854" lon="6.84024">
        <ele>326.2</ele>
        <time>2025-10-24T07:34:25.000Z</time>
      </trkpt>
      <trkpt lat="43.58856" lon="6.84019">
        <ele>326</ele>
        <time>2025-10-24T07:34:26.000Z</time>
      </trkpt>
      <trkpt lat="43.58858" lon="6.84014">
        <ele>325.9</ele>
        <time>2025-10-24T07:34:27.000Z</time>
      </trkpt>
      <trkpt lat="43.5886" lon="6.84008">
        <ele>325.7</ele>
        <time>2025-10-24T07:34:28.000Z</time>
      </trkpt>
      <trkpt lat="43.58862" lon="6.84002">
        <ele>325.5</ele>
        <time>2025-10-24T07:34:29.000Z</time>
      </trkpt>
      <trkpt lat="43.58863" lon="6.83996">
        <ele>325.3</ele>
        <time>2025-10-24T07:34:30.000Z</time>
      </trkpt>
      <trkpt lat="43.58864" lon="6.83989">
        <ele>325.1</ele>
        <time>2025-10-24T07:34:31.000Z</time>
      </trkpt>
      <trkpt lat="43.58865" lon="6.83982">
        <ele>325</ele>
        <time>2025-10-24T07:34:32.000Z</time>
      </trkpt>
      <trkpt lat="43.58865" lon="6.83975">
        <ele>324.8</ele>
        <time>2025-10-24T07:34:33.000Z</time>
      </trkpt>
      <trkpt lat="43.58865" lon="6.83968">
        <ele>324.9</ele>
        <time>2025-10-24T07:34:34.000Z</time>
      </trkpt>
      <trkpt lat="43.58866" lon="6.83961">
        <ele>325</ele>
        <time>2025-10-24T07:34:35.000Z</time>
      </trkpt>
      <trkpt lat="43.58865" lon="6.83955">
        <ele>325.1</ele>
        <time>2025-10-24T07:34:36.000Z</time>
      </trkpt>
      <trkpt lat="43.58864" lon="6.8395">
        <ele>325.2</ele>
        <time>2025-10-24T07:34:37.000Z</time>
      </trkpt>
      <trkpt lat="43.58862" lon="6.83945">
        <ele>325.3</ele>
        <time>2025-10-24T07:34:38.000Z</time>
      </trkpt>
      <trkpt lat="43.5886" lon="6.83941">
        <ele>325.5</ele>
        <time>2025-10-24T07:34:39.000Z</time>
      </trkpt>
      <trkpt lat="43.58857" lon="6.83937">
        <ele>325.6</ele>
        <time>2025-10-24T07:34:40.000Z</time>
      </trkpt>
      <trkpt lat="43.58855" lon="6.83933">
        <ele>325.8</ele>
        <time>2025-10-24T07:34:41.000Z</time>
      </trkpt>
      <trkpt lat="43.58852" lon="6.8393">
        <ele>326</ele>
        <time>2025-10-24T07:34:42.000Z</time>
      </trkpt>
      <trkpt lat="43.58849" lon="6.83926">
        <ele>326.2</ele>
        <time>2025-10-24T07:34:43.000Z</time>
      </trkpt>
      <trkpt lat="43.58846" lon="6.83922">
        <ele>326.4</ele>
        <time>2025-10-24T07:34:44.000Z</time>
      </trkpt>
      <trkpt lat="43.58843" lon="6.83918">
        <ele>326.6</ele>
        <time>2025-10-24T07:34:45.000Z</time>
      </trkpt>
      <trkpt lat="43.5884" lon="6.83915">
        <ele>326.8</ele>
        <time>2025-10-24T07:34:46.000Z</time>
      </trkpt>
      <trkpt lat="43.58837" lon="6.83912">
        <ele>327</ele>
        <time>2025-10-24T07:34:47.000Z</time>
      </trkpt>
      <trkpt lat="43.58834" lon="6.83908">
        <ele>327.2</ele>
        <time>2025-10-24T07:34:48.000Z</time>
      </trkpt>
      <trkpt lat="43.58831" lon="6.83904">
        <ele>327.4</ele>
        <time>2025-10-24T07:34:49.000Z</time>
      </trkpt>
      <trkpt lat="43.58828" lon="6.839">
        <ele>327.6</ele>
        <time>2025-10-24T07:34:50.000Z</time>
      </trkpt>
      <trkpt lat="43.58825" lon="6.83896">
        <ele>327.8</ele>
        <time>2025-10-24T07:34:51.000Z</time>
      </trkpt>
      <trkpt lat="43.58821" lon="6.83892">
        <ele>328</ele>
        <time>2025-10-24T07:34:52.000Z</time>
      </trkpt>
      <trkpt lat="43.58818" lon="6.83889">
        <ele>328.2</ele>
        <time>2025-10-24T07:34:53.000Z</time>
      </trkpt>
      <trkpt lat="43.58815" lon="6.83886">
        <ele>328.4</ele>
        <time>2025-10-24T07:34:54.000Z</time>
      </trkpt>
      <trkpt lat="43.58812" lon="6.83883">
        <ele>328.6</ele>
        <time>2025-10-24T07:34:55.000Z</time>
      </trkpt>
      <trkpt lat="43.58809" lon="6.83879">
        <ele>328.8</ele>
        <time>2025-10-24T07:34:56.000Z</time>
      </trkpt>
      <trkpt lat="43.58807" lon="6.83875">
        <ele>329</ele>
        <time>2025-10-24T07:34:57.000Z</time>
      </trkpt>
      <trkpt lat="43.58804" lon="6.83871">
        <ele>329.2</ele>
        <time>2025-10-24T07:34:58.000Z</time>
      </trkpt>
      <trkpt lat="43.58801" lon="6.83867">
        <ele>329.4</ele>
        <time>2025-10-24T07:34:59.000Z</time>
      </trkpt>
      <trkpt lat="43.58799" lon="6.83863">
        <ele>329.5</ele>
        <time>2025-10-24T07:35:00.000Z</time>
      </trkpt>
      <trkpt lat="43.58797" lon="6.83859">
        <ele>329.6</ele>
        <time>2025-10-24T07:35:01.000Z</time>
      </trkpt>
      <trkpt lat="43.58795" lon="6.83854">
        <ele>329.6</ele>
        <time>2025-10-24T07:35:02.000Z</time>
      </trkpt>
      <trkpt lat="43.58794" lon="6.8385">
        <ele>329.5</ele>
        <time>2025-10-24T07:35:03.000Z</time>
      </trkpt>
      <trkpt lat="43.58792" lon="6.83846">
        <ele>329.4</ele>
        <time>2025-10-24T07:35:04.000Z</time>
      </trkpt>
      <trkpt lat="43.58791" lon="6.83841">
        <ele>329.2</ele>
        <time>2025-10-24T07:35:05.000Z</time>
      </trkpt>
      <trkpt lat="43.5879" lon="6.83837">
        <ele>329</ele>
        <time>2025-10-24T07:35:06.000Z</time>
      </trkpt>
      <trkpt lat="43.58789" lon="6.83833">
        <ele>328.8</ele>
        <time>2025-10-24T07:35:07.000Z</time>
      </trkpt>
      <trkpt lat="43.58789" lon="6.83828">
        <ele>328.5</ele>
        <time>2025-10-24T07:35:08.000Z</time>
      </trkpt>
      <trkpt lat="43.58789" lon="6.83823">
        <ele>328.2</ele>
        <time>2025-10-24T07:35:09.000Z</time>
      </trkpt>
      <trkpt lat="43.5879" lon="6.83817">
        <ele>328</ele>
        <time>2025-10-24T07:35:10.000Z</time>
      </trkpt>
      <trkpt lat="43.58791" lon="6.83811">
        <ele>327.7</ele>
        <time>2025-10-24T07:35:11.000Z</time>
      </trkpt>
      <trkpt lat="43.58792" lon="6.83806">
        <ele>327.4</ele>
        <time>2025-10-24T07:35:12.000Z</time>
      </trkpt>
      <trkpt lat="43.58793" lon="6.838">
        <ele>327.2</ele>
        <time>2025-10-24T07:35:13.000Z</time>
      </trkpt>
      <trkpt lat="43.58794" lon="6.83794">
        <ele>326.9</ele>
        <time>2025-10-24T07:35:14.000Z</time>
      </trkpt>
      <trkpt lat="43.58796" lon="6.83788">
        <ele>326.7</ele>
        <time>2025-10-24T07:35:15.000Z</time>
      </trkpt>
      <trkpt lat="43.58797" lon="6.83783">
        <ele>326.5</ele>
        <time>2025-10-24T07:35:16.000Z</time>
      </trkpt>
      <trkpt lat="43.58799" lon="6.83779">
        <ele>326.3</ele>
        <time>2025-10-24T07:35:17.000Z</time>
      </trkpt>
      <trkpt lat="43.588" lon="6.83774">
        <ele>326.3</ele>
        <time>2025-10-24T07:35:18.000Z</time>
      </trkpt>
      <trkpt lat="43.58802" lon="6.8377">
        <ele>326.3</ele>
        <time>2025-10-24T07:35:19.000Z</time>
      </trkpt>
      <trkpt lat="43.58804" lon="6.83765">
        <ele>326.2</ele>
        <time>2025-10-24T07:35:20.000Z</time>
      </trkpt>
      <trkpt lat="43.58807" lon="6.83759">
        <ele>326.2</ele>
        <time>2025-10-24T07:35:21.000Z</time>
      </trkpt>
      <trkpt lat="43.58809" lon="6.83752">
        <ele>325.8</ele>
        <time>2025-10-24T07:35:22.000Z</time>
      </trkpt>
      <trkpt lat="43.5881" lon="6.83745">
        <ele>325.4</ele>
        <time>2025-10-24T07:35:23.000Z</time>
      </trkpt>
      <trkpt lat="43.58812" lon="6.83738">
        <ele>325</ele>
        <time>2025-10-24T07:35:24.000Z</time>
      </trkpt>
      <trkpt lat="43.58813" lon="6.8373">
        <ele>324.5</ele>
        <time>2025-10-24T07:35:25.000Z</time>
      </trkpt>
      <trkpt lat="43.58815" lon="6.83721">
        <ele>324.1</ele>
        <time>2025-10-24T07:35:26.000Z</time>
      </trkpt>
      <trkpt lat="43.58816" lon="6.83712">
        <ele>323.7</ele>
        <time>2025-10-24T07:35:27.000Z</time>
      </trkpt>
      <trkpt lat="43.58817" lon="6.83702">
        <ele>323.3</ele>
        <time>2025-10-24T07:35:28.000Z</time>
      </trkpt>
      <trkpt lat="43.58818" lon="6.83692">
        <ele>322.8</ele>
        <time>2025-10-24T07:35:29.000Z</time>
      </trkpt>
      <trkpt lat="43.58818" lon="6.83682">
        <ele>322.4</ele>
        <time>2025-10-24T07:35:30.000Z</time>
      </trkpt>
      <trkpt lat="43.58817" lon="6.83672">
        <ele>322</ele>
        <time>2025-10-24T07:35:31.000Z</time>
      </trkpt>
      <trkpt lat="43.58816" lon="6.83662">
        <ele>321.6</ele>
        <time>2025-10-24T07:35:32.000Z</time>
      </trkpt>
      <trkpt lat="43.58814" lon="6.83653">
        <ele>321.2</ele>
        <time>2025-10-24T07:35:33.000Z</time>
      </trkpt>
      <trkpt lat="43.58812" lon="6.83643">
        <ele>320.8</ele>
        <time>2025-10-24T07:35:34.000Z</time>
      </trkpt>
      <trkpt lat="43.58808" lon="6.83634">
        <ele>320.3</ele>
        <time>2025-10-24T07:35:35.000Z</time>
      </trkpt>
      <trkpt lat="43.58805" lon="6.83624">
        <ele>319.9</ele>
        <time>2025-10-24T07:35:36.000Z</time>
      </trkpt>
      <trkpt lat="43.58802" lon="6.83615">
        <ele>319.5</ele>
        <time>2025-10-24T07:35:37.000Z</time>
      </trkpt>
      <trkpt lat="43.58797" lon="6.83607">
        <ele>319.3</ele>
        <time>2025-10-24T07:35:38.000Z</time>
      </trkpt>
      <trkpt lat="43.58791" lon="6.83599">
        <ele>319</ele>
        <time>2025-10-24T07:35:39.000Z</time>
      </trkpt>
      <trkpt lat="43.58784" lon="6.83594">
        <ele>318.9</ele>
        <time>2025-10-24T07:35:40.000Z</time>
      </trkpt>
      <trkpt lat="43.58778" lon="6.8359">
        <ele>318.8</ele>
        <time>2025-10-24T07:35:41.000Z</time>
      </trkpt>
      <trkpt lat="43.58774" lon="6.83586">
        <ele>318.8</ele>
        <time>2025-10-24T07:35:42.000Z</time>
      </trkpt>
      <trkpt lat="43.58769" lon="6.83581">
        <ele>318.7</ele>
        <time>2025-10-24T07:35:43.000Z</time>
      </trkpt>
      <trkpt lat="43.58765" lon="6.83575">
        <ele>318.7</ele>
        <time>2025-10-24T07:35:44.000Z</time>
      </trkpt>
      <trkpt lat="43.58762" lon="6.83569">
        <ele>318.7</ele>
        <time>2025-10-24T07:35:45.000Z</time>
      </trkpt>
      <trkpt lat="43.5876" lon="6.83562">
        <ele>318.7</ele>
        <time>2025-10-24T07:35:46.000Z</time>
      </trkpt>
      <trkpt lat="43.58758" lon="6.83555">
        <ele>318.7</ele>
        <time>2025-10-24T07:35:47.000Z</time>
      </trkpt>
      <trkpt lat="43.58757" lon="6.83548">
        <ele>318.7</ele>
        <time>2025-10-24T07:35:48.000Z</time>
      </trkpt>
      <trkpt lat="43.58755" lon="6.83542">
        <ele>318.8</ele>
        <time>2025-10-24T07:35:49.000Z</time>
      </trkpt>
      <trkpt lat="43.58753" lon="6.83535">
        <ele>318.8</ele>
        <time>2025-10-24T07:35:50.000Z</time>
      </trkpt>
      <trkpt lat="43.58751" lon="6.8353">
        <ele>319</ele>
        <time>2025-10-24T07:35:51.000Z</time>
      </trkpt>
      <trkpt lat="43.58749" lon="6.83524">
        <ele>319.1</ele>
        <time>2025-10-24T07:35:52.000Z</time>
      </trkpt>
      <trkpt lat="43.58746" lon="6.8352">
        <ele>319.3</ele>
        <time>2025-10-24T07:35:53.000Z</time>
      </trkpt>
      <trkpt lat="43.58743" lon="6.83515">
        <ele>319.5</ele>
        <time>2025-10-24T07:35:54.000Z</time>
      </trkpt>
      <trkpt lat="43.5874" lon="6.8351">
        <ele>319.7</ele>
        <time>2025-10-24T07:35:55.000Z</time>
      </trkpt>
      <trkpt lat="43.58738" lon="6.83506">
        <ele>319.9</ele>
        <time>2025-10-24T07:35:56.000Z</time>
      </trkpt>
      <trkpt lat="43.58735" lon="6.83501">
        <ele>320.2</ele>
        <time>2025-10-24T07:35:57.000Z</time>
      </trkpt>
      <trkpt lat="43.58732" lon="6.83496">
        <ele>320.4</ele>
        <time>2025-10-24T07:35:58.000Z</time>
      </trkpt>
      <trkpt lat="43.5873" lon="6.83491">
        <ele>320.6</ele>
        <time>2025-10-24T07:35:59.000Z</time>
      </trkpt>
      <trkpt lat="43.58728" lon="6.83486">
        <ele>320.8</ele>
        <time>2025-10-24T07:36:00.000Z</time>
      </trkpt>
      <trkpt lat="43.58727" lon="6.83481">
        <ele>321</ele>
        <time>2025-10-24T07:36:01.000Z</time>
      </trkpt>
      <trkpt lat="43.58726" lon="6.83476">
        <ele>321.1</ele>
        <time>2025-10-24T07:36:02.000Z</time>
      </trkpt>
      <trkpt lat="43.58725" lon="6.8347">
        <ele>321.2</ele>
        <time>2025-10-24T07:36:03.000Z</time>
      </trkpt>
      <trkpt lat="43.58724" lon="6.83464">
        <ele>321.2</ele>
        <time>2025-10-24T07:36:04.000Z</time>
      </trkpt>
      <trkpt lat="43.58724" lon="6.83458">
        <ele>321.1</ele>
        <time>2025-10-24T07:36:05.000Z</time>
      </trkpt>
      <trkpt lat="43.58723" lon="6.83452">
        <ele>321.1</ele>
        <time>2025-10-24T07:36:06.000Z</time>
      </trkpt>
      <trkpt lat="43.58723" lon="6.83446">
        <ele>320.9</ele>
        <time>2025-10-24T07:36:07.000Z</time>
      </trkpt>
      <trkpt lat="43.58722" lon="6.8344">
        <ele>320.7</ele>
        <time>2025-10-24T07:36:08.000Z</time>
      </trkpt>
      <trkpt lat="43.58721" lon="6.83435">
        <ele>320.5</ele>
        <time>2025-10-24T07:36:09.000Z</time>
      </trkpt>
      <trkpt lat="43.58721" lon="6.83429">
        <ele>320.3</ele>
        <time>2025-10-24T07:36:10.000Z</time>
      </trkpt>
      <trkpt lat="43.5872" lon="6.83424">
        <ele>320</ele>
        <time>2025-10-24T07:36:11.000Z</time>
      </trkpt>
      <trkpt lat="43.5872" lon="6.83418">
        <ele>319.6</ele>
        <time>2025-10-24T07:36:12.000Z</time>
      </trkpt>
      <trkpt lat="43.58719" lon="6.83412">
        <ele>319.2</ele>
        <time>2025-10-24T07:36:13.000Z</time>
      </trkpt>
      <trkpt lat="43.58718" lon="6.83405">
        <ele>318.7</ele>
        <time>2025-10-24T07:36:14.000Z</time>
      </trkpt>
      <trkpt lat="43.58717" lon="6.83399">
        <ele>318.2</ele>
        <time>2025-10-24T07:36:15.000Z</time>
      </trkpt>
      <trkpt lat="43.58716" lon="6.83392">
        <ele>317.6</ele>
        <time>2025-10-24T07:36:16.000Z</time>
      </trkpt>
      <trkpt lat="43.58715" lon="6.83385">
        <ele>317</ele>
        <time>2025-10-24T07:36:17.000Z</time>
      </trkpt>
      <trkpt lat="43.58715" lon="6.83378">
        <ele>316.4</ele>
        <time>2025-10-24T07:36:18.000Z</time>
      </trkpt>
      <trkpt lat="43.58715" lon="6.83369">
        <ele>315.6</ele>
        <time>2025-10-24T07:36:19.000Z</time>
      </trkpt>
      <trkpt lat="43.58714" lon="6.8336">
        <ele>314.8</ele>
        <time>2025-10-24T07:36:20.000Z</time>
      </trkpt>
      <trkpt lat="43.58712" lon="6.83352">
        <ele>314.1</ele>
        <time>2025-10-24T07:36:21.000Z</time>
      </trkpt>
      <trkpt lat="43.58709" lon="6.83343">
        <ele>313.3</ele>
        <time>2025-10-24T07:36:22.000Z</time>
      </trkpt>
      <trkpt lat="43.58706" lon="6.83334">
        <ele>312.6</ele>
        <time>2025-10-24T07:36:23.000Z</time>
      </trkpt>
      <trkpt lat="43.58702" lon="6.83325">
        <ele>311.9</ele>
        <time>2025-10-24T07:36:24.000Z</time>
      </trkpt>
      <trkpt lat="43.587" lon="6.83315">
        <ele>311.3</ele>
        <time>2025-10-24T07:36:25.000Z</time>
      </trkpt>
      <trkpt lat="43.58698" lon="6.83305">
        <ele>310.8</ele>
        <time>2025-10-24T07:36:26.000Z</time>
      </trkpt>
      <trkpt lat="43.58697" lon="6.83296">
        <ele>310.2</ele>
        <time>2025-10-24T07:36:27.000Z</time>
      </trkpt>
      <trkpt lat="43.58696" lon="6.83287">
        <ele>309.7</ele>
        <time>2025-10-24T07:36:28.000Z</time>
      </trkpt>
      <trkpt lat="43.58695" lon="6.83279">
        <ele>309.1</ele>
        <time>2025-10-24T07:36:29.000Z</time>
      </trkpt>
      <trkpt lat="43.58695" lon="6.83272">
        <ele>308.5</ele>
        <time>2025-10-24T07:36:30.000Z</time>
      </trkpt>
      <trkpt lat="43.58694" lon="6.83265">
        <ele>307.8</ele>
        <time>2025-10-24T07:36:31.000Z</time>
      </trkpt>
      <trkpt lat="43.58693" lon="6.83258">
        <ele>307.1</ele>
        <time>2025-10-24T07:36:32.000Z</time>
      </trkpt>
      <trkpt lat="43.58691" lon="6.83251">
        <ele>306.2</ele>
        <time>2025-10-24T07:36:33.000Z</time>
      </trkpt>
      <trkpt lat="43.58689" lon="6.83243">
        <ele>305.2</ele>
        <time>2025-10-24T07:36:34.000Z</time>
      </trkpt>
      <trkpt lat="43.58687" lon="6.83235">
        <ele>304.1</ele>
        <time>2025-10-24T07:36:35.000Z</time>
      </trkpt>
      <trkpt lat="43.58685" lon="6.83227">
        <ele>303</ele>
        <time>2025-10-24T07:36:36.000Z</time>
      </trkpt>
      <trkpt lat="43.58683" lon="6.83218">
        <ele>302</ele>
        <time>2025-10-24T07:36:37.000Z</time>
      </trkpt>
      <trkpt lat="43.58682" lon="6.83211">
        <ele>301</ele>
        <time>2025-10-24T07:36:38.000Z</time>
      </trkpt>
      <trkpt lat="43.58681" lon="6.83204">
        <ele>300.1</ele>
        <time>2025-10-24T07:36:39.000Z</time>
      </trkpt>
      <trkpt lat="43.5868" lon="6.83197">
        <ele>299.1</ele>
        <time>2025-10-24T07:36:40.000Z</time>
      </trkpt>
      <trkpt lat="43.5868" lon="6.83191">
        <ele>298.4</ele>
        <time>2025-10-24T07:36:41.000Z</time>
      </trkpt>
      <trkpt lat="43.58681" lon="6.83184">
        <ele>297.5</ele>
        <time>2025-10-24T07:36:42.000Z</time>
      </trkpt>
      <trkpt lat="43.58681" lon="6.83176">
        <ele>296.6</ele>
        <time>2025-10-24T07:36:43.000Z</time>
      </trkpt>
      <trkpt lat="43.58682" lon="6.83169">
        <ele>295.8</ele>
        <time>2025-10-24T07:36:44.000Z</time>
      </trkpt>
      <trkpt lat="43.58683" lon="6.83159">
        <ele>294.9</ele>
        <time>2025-10-24T07:36:45.000Z</time>
      </trkpt>
      <trkpt lat="43.58684" lon="6.83151">
        <ele>294.2</ele>
        <time>2025-10-24T07:36:46.000Z</time>
      </trkpt>
      <trkpt lat="43.58684" lon="6.83142">
        <ele>293.4</ele>
        <time>2025-10-24T07:36:47.000Z</time>
      </trkpt>
      <trkpt lat="43.58683" lon="6.83136">
        <ele>292.7</ele>
        <time>2025-10-24T07:36:48.000Z</time>
      </trkpt>
      <trkpt lat="43.58681" lon="6.83127">
        <ele>291.7</ele>
        <time>2025-10-24T07:36:49.000Z</time>
      </trkpt>
      <trkpt lat="43.58678" lon="6.8312">
        <ele>290.6</ele>
        <time>2025-10-24T07:36:50.000Z</time>
      </trkpt>
      <trkpt lat="43.58675" lon="6.83111">
        <ele>289.1</ele>
        <time>2025-10-24T07:36:51.000Z</time>
      </trkpt>
      <trkpt lat="43.58672" lon="6.83104">
        <ele>287.9</ele>
        <time>2025-10-24T07:36:52.000Z</time>
      </trkpt>
      <trkpt lat="43.5867" lon="6.83098">
        <ele>287</ele>
        <time>2025-10-24T07:36:53.000Z</time>
      </trkpt>
      <trkpt lat="43.58668" lon="6.83092">
        <ele>285.9</ele>
        <time>2025-10-24T07:36:54.000Z</time>
      </trkpt>
      <trkpt lat="43.58666" lon="6.83085">
        <ele>284.9</ele>
        <time>2025-10-24T07:36:55.000Z</time>
      </trkpt>
      <trkpt lat="43.58663" lon="6.83077">
        <ele>283.7</ele>
        <time>2025-10-24T07:36:56.000Z</time>
      </trkpt>
      <trkpt lat="43.58661" lon="6.83069">
        <ele>282.8</ele>
        <time>2025-10-24T07:36:57.000Z</time>
      </trkpt>
      <trkpt lat="43.5866" lon="6.83064">
        <ele>282.1</ele>
        <time>2025-10-24T07:36:58.000Z</time>
      </trkpt>
      <trkpt lat="43.58659" lon="6.83057">
        <ele>281.2</ele>
        <time>2025-10-24T07:36:59.000Z</time>
      </trkpt>
      <trkpt lat="43.58659" lon="6.83052">
        <ele>280.4</ele>
        <time>2025-10-24T07:37:00.000Z</time>
      </trkpt>
      <trkpt lat="43.5866" lon="6.83045">
        <ele>279.5</ele>
        <time>2025-10-24T07:37:01.000Z</time>
      </trkpt>
      <trkpt lat="43.58662" lon="6.8304">
        <ele>278.7</ele>
        <time>2025-10-24T07:37:02.000Z</time>
      </trkpt>
      <trkpt lat="43.58662" lon="6.83036">
        <ele>278.1</ele>
        <time>2025-10-24T07:37:03.000Z</time>
      </trkpt>
      <trkpt lat="43.58662" lon="6.83031">
        <ele>277.3</ele>
        <time>2025-10-24T07:37:04.000Z</time>
      </trkpt>
      <trkpt lat="43.58661" lon="6.83027">
        <ele>276.6</ele>
        <time>2025-10-24T07:37:05.000Z</time>
      </trkpt>
      <trkpt lat="43.58658" lon="6.83022">
        <ele>275.8</ele>
        <time>2025-10-24T07:37:06.000Z</time>
      </trkpt>
      <trkpt lat="43.58656" lon="6.83021">
        <ele>275.1</ele>
        <time>2025-10-24T07:37:07.000Z</time>
      </trkpt>
      <trkpt lat="43.58651" lon="6.83019">
        <ele>274.2</ele>
        <time>2025-10-24T07:37:08.000Z</time>
      </trkpt>
      <trkpt lat="43.58647" lon="6.83017">
        <ele>273.2</ele>
        <time>2025-10-24T07:37:09.000Z</time>
      </trkpt>
      <trkpt lat="43.58642" lon="6.83017">
        <ele>272.2</ele>
        <time>2025-10-24T07:37:10.000Z</time>
      </trkpt>
      <trkpt lat="43.58636" lon="6.83017">
        <ele>271.1</ele>
        <time>2025-10-24T07:37:11.000Z</time>
      </trkpt>
      <trkpt lat="43.58631" lon="6.83018">
        <ele>270.3</ele>
        <time>2025-10-24T07:37:12.000Z</time>
      </trkpt>
      <trkpt lat="43.58627" lon="6.83018">
        <ele>269.6</ele>
        <time>2025-10-24T07:37:13.000Z</time>
      </trkpt>
      <trkpt lat="43.58625" lon="6.83017">
        <ele>269.1</ele>
        <time>2025-10-24T07:37:14.000Z</time>
      </trkpt>
      <trkpt lat="43.58622" lon="6.83016">
        <ele>268.7</ele>
        <time>2025-10-24T07:37:15.000Z</time>
      </trkpt>
      <trkpt lat="43.5862" lon="6.83016">
        <ele>268.4</ele>
        <time>2025-10-24T07:37:16.000Z</time>
      </trkpt>
      <trkpt lat="43.5862" lon="6.83015">
        <ele>268.3</ele>
        <time>2025-10-24T07:37:17.000Z</time>
      </trkpt>
      <trkpt lat="43.58619" lon="6.83015">
        <ele>268.2</ele>
        <time>2025-10-24T07:37:18.000Z</time>
      </trkpt>
      <trkpt lat="43.58617" lon="6.83016">
        <ele>267.9</ele>
        <time>2025-10-24T07:37:19.000Z</time>
      </trkpt>
      <trkpt lat="43.58615" lon="6.83017">
        <ele>267.6</ele>
        <time>2025-10-24T07:37:20.000Z</time>
      </trkpt>
      <trkpt lat="43.58612" lon="6.83017">
        <ele>267.3</ele>
        <time>2025-10-24T07:37:21.000Z</time>
      </trkpt>
      <trkpt lat="43.5861" lon="6.83018">
        <ele>267</ele>
        <time>2025-10-24T07:37:22.000Z</time>
      </trkpt>
      <trkpt lat="43.58608" lon="6.83018">
        <ele>266.8</ele>
        <time>2025-10-24T07:37:23.000Z</time>
      </trkpt>
      <trkpt lat="43.58605" lon="6.83019">
        <ele>266.5</ele>
        <time>2025-10-24T07:37:24.000Z</time>
      </trkpt>
      <trkpt lat="43.58603" lon="6.8302">
        <ele>266.3</ele>
        <time>2025-10-24T07:37:25.000Z</time>
      </trkpt>
      <trkpt lat="43.586" lon="6.8302">
        <ele>266.1</ele>
        <time>2025-10-24T07:37:26.000Z</time>
      </trkpt>
      <trkpt lat="43.58598" lon="6.83021">
        <ele>265.9</ele>
        <time>2025-10-24T07:37:27.000Z</time>
      </trkpt>
      <trkpt lat="43.58596" lon="6.83022">
        <ele>265.7</ele>
        <time>2025-10-24T07:37:28.000Z</time>
      </trkpt>
      <trkpt lat="43.58593" lon="6.83022">
        <ele>265.5</ele>
        <time>2025-10-24T07:37:29.000Z</time>
      </trkpt>
      <trkpt lat="43.58591" lon="6.83023">
        <ele>265.3</ele>
        <time>2025-10-24T07:37:30.000Z</time>
      </trkpt>
      <trkpt lat="43.58586" lon="6.83025">
        <ele>264.9</ele>
        <time>2025-10-24T07:37:31.000Z</time>
      </trkpt>
      <trkpt lat="43.58582" lon="6.83025">
        <ele>264.6</ele>
        <time>2025-10-24T07:37:32.000Z</time>
      </trkpt>
      <trkpt lat="43.58577" lon="6.83025">
        <ele>264.3</ele>
        <time>2025-10-24T07:37:33.000Z</time>
      </trkpt>
      <trkpt lat="43.58573" lon="6.83025">
        <ele>264.1</ele>
        <time>2025-10-24T07:37:34.000Z</time>
      </trkpt>
      <trkpt lat="43.58567" lon="6.83024">
        <ele>263.8</ele>
        <time>2025-10-24T07:37:35.000Z</time>
      </trkpt>
      <trkpt lat="43.58561" lon="6.83023">
        <ele>263.4</ele>
        <time>2025-10-24T07:37:36.000Z</time>
      </trkpt>
      <trkpt lat="43.58555" lon="6.83021">
        <ele>263</ele>
        <time>2025-10-24T07:37:37.000Z</time>
      </trkpt>
      <trkpt lat="43.5855" lon="6.83019">
        <ele>262.6</ele>
        <time>2025-10-24T07:37:38.000Z</time>
      </trkpt>
      <trkpt lat="43.58544" lon="6.83018">
        <ele>262.1</ele>
        <time>2025-10-24T07:37:39.000Z</time>
      </trkpt>
      <trkpt lat="43.58539" lon="6.83016">
        <ele>261.5</ele>
        <time>2025-10-24T07:37:40.000Z</time>
      </trkpt>
      <trkpt lat="43.58534" lon="6.83014">
        <ele>260.9</ele>
        <time>2025-10-24T07:37:41.000Z</time>
      </trkpt>
      <trkpt lat="43.58528" lon="6.83013">
        <ele>260.2</ele>
        <time>2025-10-24T07:37:42.000Z</time>
      </trkpt>
      <trkpt lat="43.58523" lon="6.83013">
        <ele>259.5</ele>
        <time>2025-10-24T07:37:43.000Z</time>
      </trkpt>
      <trkpt lat="43.58518" lon="6.83014">
        <ele>258.8</ele>
        <time>2025-10-24T07:37:44.000Z</time>
      </trkpt>
      <trkpt lat="43.58513" lon="6.83016">
        <ele>258.2</ele>
        <time>2025-10-24T07:37:45.000Z</time>
      </trkpt>
      <trkpt lat="43.5851" lon="6.83017">
        <ele>257.6</ele>
        <time>2025-10-24T07:37:46.000Z</time>
      </trkpt>
      <trkpt lat="43.58506" lon="6.83018">
        <ele>257.1</ele>
        <time>2025-10-24T07:37:47.000Z</time>
      </trkpt>
      <trkpt lat="43.58503" lon="6.83018">
        <ele>256.5</ele>
        <time>2025-10-24T07:37:48.000Z</time>
      </trkpt>
      <trkpt lat="43.585" lon="6.83018">
        <ele>256</ele>
        <time>2025-10-24T07:37:49.000Z</time>
      </trkpt>
      <trkpt lat="43.58498" lon="6.83017">
        <ele>255.7</ele>
        <time>2025-10-24T07:37:50.000Z</time>
      </trkpt>
      <trkpt lat="43.58497" lon="6.83017">
        <ele>255.6</ele>
        <time>2025-10-24T07:37:51.000Z</time>
      </trkpt>
      <trkpt lat="43.58496" lon="6.83017">
        <ele>255.4</ele>
        <time>2025-10-24T07:37:52.000Z</time>
      </trkpt>
      <trkpt lat="43.58495" lon="6.83017">
        <ele>255.3</ele>
        <time>2025-10-24T07:37:53.000Z</time>
      </trkpt>
      <trkpt lat="43.58495" lon="6.83017">
        <ele>255.2</ele>
        <time>2025-10-24T07:37:54.000Z</time>
      </trkpt>
      <trkpt lat="43.58495" lon="6.83017">
        <ele>255.2</ele>
        <time>2025-10-24T07:37:55.000Z</time>
      </trkpt>
      <trkpt lat="43.58495" lon="6.83017">
        <ele>255.2</ele>
        <time>2025-10-24T07:37:56.000Z</time>
      </trkpt>
      <trkpt lat="43.58494" lon="6.83016">
        <ele>255.1</ele>
        <time>2025-10-24T07:37:57.000Z</time>
      </trkpt>
      <trkpt lat="43.58494" lon="6.83016">
        <ele>255</ele>
        <time>2025-10-24T07:37:58.000Z</time>
      </trkpt>
      <trkpt lat="43.58495" lon="6.83016">
        <ele>254.9</ele>
        <time>2025-10-24T07:37:59.000Z</time>
      </trkpt>
      <trkpt lat="43.58495" lon="6.83015">
        <ele>254.8</ele>
        <time>2025-10-24T07:38:00.000Z</time>
      </trkpt>
      <trkpt lat="43.58495" lon="6.83014">
        <ele>254.6</ele>
        <time>2025-10-24T07:38:01.000Z</time>
      </trkpt>
      <trkpt lat="43.58494" lon="6.83012">
        <ele>254.4</ele>
        <time>2025-10-24T07:38:02.000Z</time>
      </trkpt>
      <trkpt lat="43.58493" lon="6.83009">
        <ele>254</ele>
        <time>2025-10-24T07:38:03.000Z</time>
      </trkpt>
      <trkpt lat="43.58492" lon="6.83005">
        <ele>253.7</ele>
        <time>2025-10-24T07:38:04.000Z</time>
      </trkpt>
      <trkpt lat="43.58491" lon="6.83001">
        <ele>253.2</ele>
        <time>2025-10-24T07:38:05.000Z</time>
      </trkpt>
      <trkpt lat="43.58491" lon="6.82995">
        <ele>252.8</ele>
        <time>2025-10-24T07:38:06.000Z</time>
      </trkpt>
      <trkpt lat="43.58492" lon="6.82988">
        <ele>252.4</ele>
        <time>2025-10-24T07:38:07.000Z</time>
      </trkpt>
      <trkpt lat="43.58495" lon="6.82981">
        <ele>251.9</ele>
        <time>2025-10-24T07:38:08.000Z</time>
      </trkpt>
      <trkpt lat="43.58499" lon="6.82974">
        <ele>251.6</ele>
        <time>2025-10-24T07:38:09.000Z</time>
      </trkpt>
      <trkpt lat="43.58503" lon="6.82968">
        <ele>251.2</ele>
        <time>2025-10-24T07:38:10.000Z</time>
      </trkpt>
      <trkpt lat="43.58508" lon="6.82962">
        <ele>250.9</ele>
        <time>2025-10-24T07:38:11.000Z</time>
      </trkpt>
      <trkpt lat="43.58514" lon="6.82958">
        <ele>250.7</ele>
        <time>2025-10-24T07:38:12.000Z</time>
      </trkpt>
      <trkpt lat="43.58519" lon="6.82954">
        <ele>250.5</ele>
        <time>2025-10-24T07:38:13.000Z</time>
      </trkpt>
      <trkpt lat="43.58525" lon="6.82951">
        <ele>250.4</ele>
        <time>2025-10-24T07:38:14.000Z</time>
      </trkpt>
      <trkpt lat="43.58531" lon="6.82949">
        <ele>250.3</ele>
        <time>2025-10-24T07:38:15.000Z</time>
      </trkpt>
      <trkpt lat="43.58537" lon="6.82947">
        <ele>250.2</ele>
        <time>2025-10-24T07:38:16.000Z</time>
      </trkpt>
      <trkpt lat="43.58543" lon="6.82945">
        <ele>250.1</ele>
        <time>2025-10-24T07:38:17.000Z</time>
      </trkpt>
      <trkpt lat="43.58549" lon="6.82944">
        <ele>250.1</ele>
        <time>2025-10-24T07:38:18.000Z</time>
      </trkpt>
      <trkpt lat="43.58555" lon="6.82942">
        <ele>250</ele>
        <time>2025-10-24T07:38:19.000Z</time>
      </trkpt>
      <trkpt lat="43.58561" lon="6.82941">
        <ele>249.9</ele>
        <time>2025-10-24T07:38:20.000Z</time>
      </trkpt>
      <trkpt lat="43.58566" lon="6.82939">
        <ele>249.9</ele>
        <time>2025-10-24T07:38:21.000Z</time>
      </trkpt>
      <trkpt lat="43.58572" lon="6.82937">
        <ele>249.8</ele>
        <time>2025-10-24T07:38:22.000Z</time>
      </trkpt>
      <trkpt lat="43.58578" lon="6.82936">
        <ele>249.8</ele>
        <time>2025-10-24T07:38:23.000Z</time>
      </trkpt>
      <trkpt lat="43.58583" lon="6.82935">
        <ele>249.9</ele>
        <time>2025-10-24T07:38:24.000Z</time>
      </trkpt>
      <trkpt lat="43.58588" lon="6.82934">
        <ele>249.9</ele>
        <time>2025-10-24T07:38:25.000Z</time>
      </trkpt>
      <trkpt lat="43.58594" lon="6.82933">
        <ele>249.9</ele>
        <time>2025-10-24T07:38:26.000Z</time>
      </trkpt>
      <trkpt lat="43.58599" lon="6.82932">
        <ele>250</ele>
        <time>2025-10-24T07:38:27.000Z</time>
      </trkpt>
      <trkpt lat="43.58605" lon="6.82931">
        <ele>250</ele>
        <time>2025-10-24T07:38:28.000Z</time>
      </trkpt>
      <trkpt lat="43.5861" lon="6.82929">
        <ele>250.1</ele>
        <time>2025-10-24T07:38:29.000Z</time>
      </trkpt>
      <trkpt lat="43.58614" lon="6.82927">
        <ele>249.8</ele>
        <time>2025-10-24T07:38:30.000Z</time>
      </trkpt>
      <trkpt lat="43.58619" lon="6.82925">
        <ele>249.5</ele>
        <time>2025-10-24T07:38:31.000Z</time>
      </trkpt>
      <trkpt lat="43.58623" lon="6.82922">
        <ele>249.2</ele>
        <time>2025-10-24T07:38:32.000Z</time>
      </trkpt>
      <trkpt lat="43.58627" lon="6.8292">
        <ele>248.8</ele>
        <time>2025-10-24T07:38:33.000Z</time>
      </trkpt>
      <trkpt lat="43.5863" lon="6.82917">
        <ele>248.5</ele>
        <time>2025-10-24T07:38:34.000Z</time>
      </trkpt>
      <trkpt lat="43.58634" lon="6.82913">
        <ele>248</ele>
        <time>2025-10-24T07:38:35.000Z</time>
      </trkpt>
      <trkpt lat="43.58638" lon="6.82909">
        <ele>247.6</ele>
        <time>2025-10-24T07:38:36.000Z</time>
      </trkpt>
      <trkpt lat="43.58642" lon="6.82904">
        <ele>247.1</ele>
        <time>2025-10-24T07:38:37.000Z</time>
      </trkpt>
      <trkpt lat="43.58646" lon="6.829">
        <ele>246.6</ele>
        <time>2025-10-24T07:38:38.000Z</time>
      </trkpt>
      <trkpt lat="43.58649" lon="6.82895">
        <ele>246.2</ele>
        <time>2025-10-24T07:38:39.000Z</time>
      </trkpt>
      <trkpt lat="43.58653" lon="6.82891">
        <ele>245.7</ele>
        <time>2025-10-24T07:38:40.000Z</time>
      </trkpt>
      <trkpt lat="43.58657" lon="6.82887">
        <ele>245.3</ele>
        <time>2025-10-24T07:38:41.000Z</time>
      </trkpt>
      <trkpt lat="43.58661" lon="6.82883">
        <ele>245</ele>
        <time>2025-10-24T07:38:42.000Z</time>
      </trkpt>
      <trkpt lat="43.58664" lon="6.82879">
        <ele>244.7</ele>
        <time>2025-10-24T07:38:43.000Z</time>
      </trkpt>
      <trkpt lat="43.58667" lon="6.82875">
        <ele>244.4</ele>
        <time>2025-10-24T07:38:44.000Z</time>
      </trkpt>
      <trkpt lat="43.58671" lon="6.82872">
        <ele>244.1</ele>
        <time>2025-10-24T07:38:45.000Z</time>
      </trkpt>
      <trkpt lat="43.58675" lon="6.82869">
        <ele>243.8</ele>
        <time>2025-10-24T07:38:46.000Z</time>
      </trkpt>
      <trkpt lat="43.5868" lon="6.82867">
        <ele>243.5</ele>
        <time>2025-10-24T07:38:47.000Z</time>
      </trkpt>
      <trkpt lat="43.58684" lon="6.82864">
        <ele>243.2</ele>
        <time>2025-10-24T07:38:48.000Z</time>
      </trkpt>
      <trkpt lat="43.58689" lon="6.82862">
        <ele>242.9</ele>
        <time>2025-10-24T07:38:49.000Z</time>
      </trkpt>
      <trkpt lat="43.58693" lon="6.8286">
        <ele>242.5</ele>
        <time>2025-10-24T07:38:50.000Z</time>
      </trkpt>
      <trkpt lat="43.58698" lon="6.82857">
        <ele>242.1</ele>
        <time>2025-10-24T07:38:51.000Z</time>
      </trkpt>
      <trkpt lat="43.58702" lon="6.82856">
        <ele>241.7</ele>
        <time>2025-10-24T07:38:52.000Z</time>
      </trkpt>
      <trkpt lat="43.58707" lon="6.82854">
        <ele>241.1</ele>
        <time>2025-10-24T07:38:53.000Z</time>
      </trkpt>
      <trkpt lat="43.58712" lon="6.82854">
        <ele>240.5</ele>
        <time>2025-10-24T07:38:54.000Z</time>
      </trkpt>
      <trkpt lat="43.58717" lon="6.82853">
        <ele>239.9</ele>
        <time>2025-10-24T07:38:55.000Z</time>
      </trkpt>
      <trkpt lat="43.58722" lon="6.82853">
        <ele>239.3</ele>
        <time>2025-10-24T07:38:56.000Z</time>
      </trkpt>
      <trkpt lat="43.58726" lon="6.82853">
        <ele>238.7</ele>
        <time>2025-10-24T07:38:57.000Z</time>
      </trkpt>
      <trkpt lat="43.58732" lon="6.82854">
        <ele>237.9</ele>
        <time>2025-10-24T07:38:58.000Z</time>
      </trkpt>
      <trkpt lat="43.58737" lon="6.82855">
        <ele>237.3</ele>
        <time>2025-10-24T07:38:59.000Z</time>
      </trkpt>
      <trkpt lat="43.58742" lon="6.82856">
        <ele>236.5</ele>
        <time>2025-10-24T07:39:00.000Z</time>
      </trkpt>
      <trkpt lat="43.58749" lon="6.82859">
        <ele>235.6</ele>
        <time>2025-10-24T07:39:01.000Z</time>
      </trkpt>
      <trkpt lat="43.58754" lon="6.82863">
        <ele>235</ele>
        <time>2025-10-24T07:39:02.000Z</time>
      </trkpt>
      <trkpt lat="43.58757" lon="6.82867">
        <ele>234.5</ele>
        <time>2025-10-24T07:39:03.000Z</time>
      </trkpt>
      <trkpt lat="43.58761" lon="6.82872">
        <ele>233.9</ele>
        <time>2025-10-24T07:39:04.000Z</time>
      </trkpt>
      <trkpt lat="43.58764" lon="6.82878">
        <ele>233.5</ele>
        <time>2025-10-24T07:39:05.000Z</time>
      </trkpt>
      <trkpt lat="43.58765" lon="6.82884">
        <ele>233.2</ele>
        <time>2025-10-24T07:39:06.000Z</time>
      </trkpt>
      <trkpt lat="43.58766" lon="6.82891">
        <ele>233</ele>
        <time>2025-10-24T07:39:07.000Z</time>
      </trkpt>
      <trkpt lat="43.58766" lon="6.829">
        <ele>232.7</ele>
        <time>2025-10-24T07:39:08.000Z</time>
      </trkpt>
      <trkpt lat="43.58767" lon="6.82908">
        <ele>232.6</ele>
        <time>2025-10-24T07:39:09.000Z</time>
      </trkpt>
      <trkpt lat="43.58768" lon="6.82914">
        <ele>232.5</ele>
        <time>2025-10-24T07:39:10.000Z</time>
      </trkpt>
      <trkpt lat="43.5877" lon="6.8292">
        <ele>232.5</ele>
        <time>2025-10-24T07:39:11.000Z</time>
      </trkpt>
      <trkpt lat="43.58772" lon="6.82923">
        <ele>232.5</ele>
        <time>2025-10-24T07:39:12.000Z</time>
      </trkpt>
      <trkpt lat="43.58775" lon="6.82926">
        <ele>232.6</ele>
        <time>2025-10-24T07:39:13.000Z</time>
      </trkpt>
      <trkpt lat="43.58779" lon="6.82928">
        <ele>232.7</ele>
        <time>2025-10-24T07:39:14.000Z</time>
      </trkpt>
      <trkpt lat="43.58782" lon="6.82931">
        <ele>232.7</ele>
        <time>2025-10-24T07:39:15.000Z</time>
      </trkpt>
      <trkpt lat="43.58784" lon="6.82934">
        <ele>232.8</ele>
        <time>2025-10-24T07:39:16.000Z</time>
      </trkpt>
      <trkpt lat="43.58787" lon="6.82936">
        <ele>232.8</ele>
        <time>2025-10-24T07:39:17.000Z</time>
      </trkpt>
      <trkpt lat="43.58791" lon="6.82938">
        <ele>232.8</ele>
        <time>2025-10-24T07:39:18.000Z</time>
      </trkpt>
      <trkpt lat="43.58795" lon="6.8294">
        <ele>232.7</ele>
        <time>2025-10-24T07:39:19.000Z</time>
      </trkpt>
      <trkpt lat="43.58799" lon="6.82941">
        <ele>232.5</ele>
        <time>2025-10-24T07:39:20.000Z</time>
      </trkpt>
      <trkpt lat="43.58802" lon="6.82942">
        <ele>232.3</ele>
        <time>2025-10-24T07:39:21.000Z</time>
      </trkpt>
      <trkpt lat="43.58807" lon="6.82943">
        <ele>232</ele>
        <time>2025-10-24T07:39:22.000Z</time>
      </trkpt>
      <trkpt lat="43.58812" lon="6.82944">
        <ele>231.5</ele>
        <time>2025-10-24T07:39:23.000Z</time>
      </trkpt>
      <trkpt lat="43.58817" lon="6.82945">
        <ele>231</ele>
        <time>2025-10-24T07:39:24.000Z</time>
      </trkpt>
      <trkpt lat="43.58821" lon="6.82945">
        <ele>230.5</ele>
        <time>2025-10-24T07:39:25.000Z</time>
      </trkpt>
      <trkpt lat="43.58826" lon="6.82946">
        <ele>229.7</ele>
        <time>2025-10-24T07:39:26.000Z</time>
      </trkpt>
      <trkpt lat="43.58832" lon="6.82947">
        <ele>229</ele>
        <time>2025-10-24T07:39:27.000Z</time>
      </trkpt>
      <trkpt lat="43.58837" lon="6.82947">
        <ele>228.3</ele>
        <time>2025-10-24T07:39:28.000Z</time>
      </trkpt>
      <trkpt lat="43.58844" lon="6.82948">
        <ele>227.4</ele>
        <time>2025-10-24T07:39:29.000Z</time>
      </trkpt>
      <trkpt lat="43.58849" lon="6.82949">
        <ele>226.9</ele>
        <time>2025-10-24T07:39:30.000Z</time>
      </trkpt>
      <trkpt lat="43.58854" lon="6.82949">
        <ele>226.3</ele>
        <time>2025-10-24T07:39:31.000Z</time>
      </trkpt>
      <trkpt lat="43.58859" lon="6.8295">
        <ele>225.8</ele>
        <time>2025-10-24T07:39:32.000Z</time>
      </trkpt>
      <trkpt lat="43.58865" lon="6.82951">
        <ele>225.3</ele>
        <time>2025-10-24T07:39:33.000Z</time>
      </trkpt>
      <trkpt lat="43.58868" lon="6.82951">
        <ele>225</ele>
        <time>2025-10-24T07:39:34.000Z</time>
      </trkpt>
      <trkpt lat="43.58871" lon="6.82952">
        <ele>224.7</ele>
        <time>2025-10-24T07:39:35.000Z</time>
      </trkpt>
      <trkpt lat="43.58874" lon="6.82953">
        <ele>224.4</ele>
        <time>2025-10-24T07:39:36.000Z</time>
      </trkpt>
      <trkpt lat="43.58877" lon="6.82954">
        <ele>224.1</ele>
        <time>2025-10-24T07:39:37.000Z</time>
      </trkpt>
      <trkpt lat="43.5888" lon="6.82955">
        <ele>223.8</ele>
        <time>2025-10-24T07:39:38.000Z</time>
      </trkpt>
      <trkpt lat="43.58882" lon="6.82956">
        <ele>223.6</ele>
        <time>2025-10-24T07:39:39.000Z</time>
      </trkpt>
      <trkpt lat="43.58885" lon="6.82957">
        <ele>223.4</ele>
        <time>2025-10-24T07:39:40.000Z</time>
      </trkpt>
      <trkpt lat="43.58887" lon="6.82959">
        <ele>223.2</ele>
        <time>2025-10-24T07:39:41.000Z</time>
      </trkpt>
      <trkpt lat="43.58889" lon="6.8296">
        <ele>223</ele>
        <time>2025-10-24T07:39:42.000Z</time>
      </trkpt>
      <trkpt lat="43.5889" lon="6.8296">
        <ele>223</ele>
        <time>2025-10-24T07:39:43.000Z</time>
      </trkpt>
      <trkpt lat="43.5889" lon="6.82961">
        <ele>223</ele>
        <time>2025-10-24T07:39:44.000Z</time>
      </trkpt>
      <trkpt lat="43.58889" lon="6.8296">
        <ele>223</ele>
        <time>2025-10-24T07:39:45.000Z</time>
      </trkpt>
      <trkpt lat="43.58889" lon="6.8296">
        <ele>223.1</ele>
        <time>2025-10-24T07:39:46.000Z</time>
      </trkpt>
      <trkpt lat="43.58889" lon="6.82961">
        <ele>223.1</ele>
        <time>2025-10-24T07:39:47.000Z</time>
      </trkpt>
      <trkpt lat="43.58888" lon="6.82961">
        <ele>223.2</ele>
        <time>2025-10-24T07:39:48.000Z</time>
      </trkpt>
      <trkpt lat="43.58887" lon="6.82962">
        <ele>223.2</ele>
        <time>2025-10-24T07:39:49.000Z</time>
      </trkpt>
      <trkpt lat="43.58887" lon="6.82963">
        <ele>223.3</ele>
        <time>2025-10-24T07:39:50.000Z</time>
      </trkpt>
      <trkpt lat="43.58886" lon="6.82964">
        <ele>223.3</ele>
        <time>2025-10-24T07:39:51.000Z</time>
      </trkpt>
      <trkpt lat="43.58886" lon="6.82964">
        <ele>223.4</ele>
        <time>2025-10-24T07:39:52.000Z</time>
      </trkpt>
      <trkpt lat="43.58884" lon="6.82963">
        <ele>223.5</ele>
        <time>2025-10-24T07:39:53.000Z</time>
      </trkpt>
      <trkpt lat="43.58885" lon="6.82962">
        <ele>223.5</ele>
        <time>2025-10-24T07:39:54.000Z</time>
      </trkpt>
      <trkpt lat="43.58885" lon="6.82964">
        <ele>223.5</ele>
        <time>2025-10-24T07:39:55.000Z</time>
      </trkpt>
      <trkpt lat="43.58886" lon="6.82965">
        <ele>223.6</ele>
        <time>2025-10-24T07:39:56.000Z</time>
      </trkpt>
      <trkpt lat="43.58887" lon="6.82967">
        <ele>223.6</ele>
        <time>2025-10-24T07:39:57.000Z</time>
      </trkpt>
      <trkpt lat="43.58888" lon="6.8297">
        <ele>223.6</ele>
        <time>2025-10-24T07:39:58.000Z</time>
      </trkpt>
      <trkpt lat="43.58888" lon="6.82974">
        <ele>223.7</ele>
        <time>2025-10-24T07:39:59.000Z</time>
      </trkpt>
      <trkpt lat="43.58888" lon="6.82979">
        <ele>223.6</ele>
        <time>2025-10-24T07:40:00.000Z</time>
      </trkpt>
      <trkpt lat="43.58888" lon="6.82984">
        <ele>223.5</ele>
        <time>2025-10-24T07:40:01.000Z</time>
      </trkpt>
      <trkpt lat="43.58888" lon="6.82989">
        <ele>223.4</ele>
        <time>2025-10-24T07:40:02.000Z</time>
      </trkpt>
      <trkpt lat="43.58888" lon="6.82993">
        <ele>223.3</ele>
        <time>2025-10-24T07:40:03.000Z</time>
      </trkpt>
      <trkpt lat="43.58888" lon="6.82998">
        <ele>223.1</ele>
        <time>2025-10-24T07:40:04.000Z</time>
      </trkpt>
      <trkpt lat="43.58888" lon="6.83003">
        <ele>222.9</ele>
        <time>2025-10-24T07:40:05.000Z</time>
      </trkpt>
      <trkpt lat="43.58888" lon="6.83009">
        <ele>222.7</ele>
        <time>2025-10-24T07:40:06.000Z</time>
      </trkpt>
      <trkpt lat="43.58887" lon="6.83015">
        <ele>222.4</ele>
        <time>2025-10-24T07:40:07.000Z</time>
      </trkpt>
      <trkpt lat="43.58887" lon="6.83022">
        <ele>222.1</ele>
        <time>2025-10-24T07:40:08.000Z</time>
      </trkpt>
      <trkpt lat="43.58888" lon="6.83028">
        <ele>221.9</ele>
        <time>2025-10-24T07:40:09.000Z</time>
      </trkpt>
      <trkpt lat="43.58888" lon="6.83035">
        <ele>221.6</ele>
        <time>2025-10-24T07:40:10.000Z</time>
      </trkpt>
      <trkpt lat="43.58888" lon="6.83042">
        <ele>221.3</ele>
        <time>2025-10-24T07:40:11.000Z</time>
      </trkpt>
      <trkpt lat="43.58889" lon="6.83049">
        <ele>221</ele>
        <time>2025-10-24T07:40:12.000Z</time>
      </trkpt>
      <trkpt lat="43.58891" lon="6.83056">
        <ele>220.7</ele>
        <time>2025-10-24T07:40:13.000Z</time>
      </trkpt>
      <trkpt lat="43.58893" lon="6.83064">
        <ele>220.4</ele>
        <time>2025-10-24T07:40:14.000Z</time>
      </trkpt>
      <trkpt lat="43.58896" lon="6.83071">
        <ele>220.2</ele>
        <time>2025-10-24T07:40:15.000Z</time>
      </trkpt>
      <trkpt lat="43.58898" lon="6.83077">
        <ele>220</ele>
        <time>2025-10-24T07:40:16.000Z</time>
      </trkpt>
      <trkpt lat="43.589" lon="6.83084">
        <ele>219.8</ele>
        <time>2025-10-24T07:40:17.000Z</time>
      </trkpt>
      <trkpt lat="43.58901" lon="6.83091">
        <ele>219.7</ele>
        <time>2025-10-24T07:40:18.000Z</time>
      </trkpt>
      <trkpt lat="43.58901" lon="6.831">
        <ele>219.6</ele>
        <time>2025-10-24T07:40:19.000Z</time>
      </trkpt>
      <trkpt lat="43.58902" lon="6.83107">
        <ele>219.5</ele>
        <time>2025-10-24T07:40:20.000Z</time>
      </trkpt>
      <trkpt lat="43.58904" lon="6.83112">
        <ele>219.5</ele>
        <time>2025-10-24T07:40:21.000Z</time>
      </trkpt>
      <trkpt lat="43.58906" lon="6.83118">
        <ele>219.5</ele>
        <time>2025-10-24T07:40:22.000Z</time>
      </trkpt>
      <trkpt lat="43.58909" lon="6.83119">
        <ele>219.5</ele>
        <time>2025-10-24T07:40:23.000Z</time>
      </trkpt>
      <trkpt lat="43.58912" lon="6.83119">
        <ele>219.5</ele>
        <time>2025-10-24T07:40:24.000Z</time>
      </trkpt>
      <trkpt lat="43.58916" lon="6.83118">
        <ele>219.5</ele>
        <time>2025-10-24T07:40:25.000Z</time>
      </trkpt>
      <trkpt lat="43.5892" lon="6.83116">
        <ele>219.5</ele>
        <time>2025-10-24T07:40:26.000Z</time>
      </trkpt>
      <trkpt lat="43.58925" lon="6.83114">
        <ele>219.5</ele>
        <time>2025-10-24T07:40:27.000Z</time>
      </trkpt>
      <trkpt lat="43.58929" lon="6.83112">
        <ele>219.4</ele>
        <time>2025-10-24T07:40:28.000Z</time>
      </trkpt>
      <trkpt lat="43.58934" lon="6.8311">
        <ele>219.3</ele>
        <time>2025-10-24T07:40:29.000Z</time>
      </trkpt>
      <trkpt lat="43.58939" lon="6.83108">
        <ele>219.3</ele>
        <time>2025-10-24T07:40:30.000Z</time>
      </trkpt>
      <trkpt lat="43.58944" lon="6.83107">
        <ele>219.2</ele>
        <time>2025-10-24T07:40:31.000Z</time>
      </trkpt>
      <trkpt lat="43.5895" lon="6.83106">
        <ele>219.2</ele>
        <time>2025-10-24T07:40:32.000Z</time>
      </trkpt>
      <trkpt lat="43.58954" lon="6.83105">
        <ele>219.3</ele>
        <time>2025-10-24T07:40:33.000Z</time>
      </trkpt>
      <trkpt lat="43.5896" lon="6.83105">
        <ele>219.3</ele>
        <time>2025-10-24T07:40:34.000Z</time>
      </trkpt>
      <trkpt lat="43.58965" lon="6.83106">
        <ele>219.3</ele>
        <time>2025-10-24T07:40:35.000Z</time>
      </trkpt>
      <trkpt lat="43.5897" lon="6.83107">
        <ele>219.3</ele>
        <time>2025-10-24T07:40:36.000Z</time>
      </trkpt>
      <trkpt lat="43.58973" lon="6.83109">
        <ele>219.3</ele>
        <time>2025-10-24T07:40:37.000Z</time>
      </trkpt>
      <trkpt lat="43.58975" lon="6.83113">
        <ele>219.2</ele>
        <time>2025-10-24T07:40:38.000Z</time>
      </trkpt>
      <trkpt lat="43.58978" lon="6.83119">
        <ele>219.1</ele>
        <time>2025-10-24T07:40:39.000Z</time>
      </trkpt>
      <trkpt lat="43.58979" lon="6.83124">
        <ele>219</ele>
        <time>2025-10-24T07:40:40.000Z</time>
      </trkpt>
      <trkpt lat="43.58979" lon="6.8313">
        <ele>218.9</ele>
        <time>2025-10-24T07:40:41.000Z</time>
      </trkpt>
      <trkpt lat="43.5898" lon="6.83136">
        <ele>218.8</ele>
        <time>2025-10-24T07:40:42.000Z</time>
      </trkpt>
      <trkpt lat="43.58981" lon="6.83143">
        <ele>218.6</ele>
        <time>2025-10-24T07:40:43.000Z</time>
      </trkpt>
      <trkpt lat="43.58983" lon="6.83148">
        <ele>218.4</ele>
        <time>2025-10-24T07:40:44.000Z</time>
      </trkpt>
      <trkpt lat="43.58985" lon="6.83153">
        <ele>218.3</ele>
        <time>2025-10-24T07:40:45.000Z</time>
      </trkpt>
      <trkpt lat="43.58988" lon="6.83154">
        <ele>218.2</ele>
        <time>2025-10-24T07:40:46.000Z</time>
      </trkpt>
      <trkpt lat="43.58992" lon="6.83154">
        <ele>218</ele>
        <time>2025-10-24T07:40:47.000Z</time>
      </trkpt>
      <trkpt lat="43.58996" lon="6.83152">
        <ele>217.8</ele>
        <time>2025-10-24T07:40:48.000Z</time>
      </trkpt>
      <trkpt lat="43.59002" lon="6.8315">
        <ele>217.6</ele>
        <time>2025-10-24T07:40:49.000Z</time>
      </trkpt>
      <trkpt lat="43.59009" lon="6.8315">
        <ele>217.3</ele>
        <time>2025-10-24T07:40:50.000Z</time>
      </trkpt>
      <trkpt lat="43.59014" lon="6.83152">
        <ele>217.1</ele>
        <time>2025-10-24T07:40:51.000Z</time>
      </trkpt>
      <trkpt lat="43.59018" lon="6.83153">
        <ele>217</ele>
        <time>2025-10-24T07:40:52.000Z</time>
      </trkpt>
      <trkpt lat="43.59023" lon="6.83157">
        <ele>216.9</ele>
        <time>2025-10-24T07:40:53.000Z</time>
      </trkpt>
      <trkpt lat="43.59028" lon="6.83161">
        <ele>216.8</ele>
        <time>2025-10-24T07:40:54.000Z</time>
      </trkpt>
      <trkpt lat="43.59033" lon="6.83163">
        <ele>216.7</ele>
        <time>2025-10-24T07:40:55.000Z</time>
      </trkpt>
      <trkpt lat="43.59036" lon="6.83164">
        <ele>216.7</ele>
        <time>2025-10-24T07:40:56.000Z</time>
      </trkpt>
      <trkpt lat="43.59041" lon="6.83167">
        <ele>216.6</ele>
        <time>2025-10-24T07:40:57.000Z</time>
      </trkpt>
      <trkpt lat="43.59045" lon="6.8317">
        <ele>216.6</ele>
        <time>2025-10-24T07:40:58.000Z</time>
      </trkpt>
      <trkpt lat="43.5905" lon="6.83173">
        <ele>216.6</ele>
        <time>2025-10-24T07:40:59.000Z</time>
      </trkpt>
      <trkpt lat="43.59056" lon="6.83176">
        <ele>216.6</ele>
        <time>2025-10-24T07:41:00.000Z</time>
      </trkpt>
      <trkpt lat="43.59061" lon="6.83179">
        <ele>216.8</ele>
        <time>2025-10-24T07:41:01.000Z</time>
      </trkpt>
      <trkpt lat="43.59064" lon="6.8318">
        <ele>217</ele>
        <time>2025-10-24T07:41:02.000Z</time>
      </trkpt>
      <trkpt lat="43.59069" lon="6.83181">
        <ele>217.3</ele>
        <time>2025-10-24T07:41:03.000Z</time>
      </trkpt>
      <trkpt lat="43.59073" lon="6.83181">
        <ele>217.6</ele>
        <time>2025-10-24T07:41:04.000Z</time>
      </trkpt>
      <trkpt lat="43.59077" lon="6.83183">
        <ele>217.9</ele>
        <time>2025-10-24T07:41:05.000Z</time>
      </trkpt>
      <trkpt lat="43.59082" lon="6.83184">
        <ele>218.3</ele>
        <time>2025-10-24T07:41:06.000Z</time>
      </trkpt>
      <trkpt lat="43.59085" lon="6.83186">
        <ele>218.5</ele>
        <time>2025-10-24T07:41:07.000Z</time>
      </trkpt>
      <trkpt lat="43.59088" lon="6.83189">
        <ele>218.8</ele>
        <time>2025-10-24T07:41:08.000Z</time>
      </trkpt>
      <trkpt lat="43.59092" lon="6.83192">
        <ele>219</ele>
        <time>2025-10-24T07:41:09.000Z</time>
      </trkpt>
      <trkpt lat="43.59097" lon="6.83196">
        <ele>219.2</ele>
        <time>2025-10-24T07:41:10.000Z</time>
      </trkpt>
      <trkpt lat="43.59102" lon="6.832">
        <ele>219.3</ele>
        <time>2025-10-24T07:41:11.000Z</time>
      </trkpt>
      <trkpt lat="43.59105" lon="6.83203">
        <ele>219.3</ele>
        <time>2025-10-24T07:41:12.000Z</time>
      </trkpt>
      <trkpt lat="43.5911" lon="6.83208">
        <ele>219.4</ele>
        <time>2025-10-24T07:41:13.000Z</time>
      </trkpt>
      <trkpt lat="43.59114" lon="6.83212">
        <ele>219.5</ele>
        <time>2025-10-24T07:41:14.000Z</time>
      </trkpt>
      <trkpt lat="43.5912" lon="6.83217">
        <ele>219.7</ele>
        <time>2025-10-24T07:41:15.000Z</time>
      </trkpt>
      <trkpt lat="43.59125" lon="6.8322">
        <ele>219.9</ele>
        <time>2025-10-24T07:41:16.000Z</time>
      </trkpt>
      <trkpt lat="43.59129" lon="6.83223">
        <ele>220</ele>
        <time>2025-10-24T07:41:17.000Z</time>
      </trkpt>
      <trkpt lat="43.59133" lon="6.83226">
        <ele>220.2</ele>
        <time>2025-10-24T07:41:18.000Z</time>
      </trkpt>
      <trkpt lat="43.59139" lon="6.8323">
        <ele>220.4</ele>
        <time>2025-10-24T07:41:19.000Z</time>
      </trkpt>
      <trkpt lat="43.59143" lon="6.83234">
        <ele>220.5</ele>
        <time>2025-10-24T07:41:20.000Z</time>
      </trkpt>
      <trkpt lat="43.59147" lon="6.83238">
        <ele>220.6</ele>
        <time>2025-10-24T07:41:21.000Z</time>
      </trkpt>
      <trkpt lat="43.59151" lon="6.83242">
        <ele>220.8</ele>
        <time>2025-10-24T07:41:22.000Z</time>
      </trkpt>
      <trkpt lat="43.59155" lon="6.83245">
        <ele>220.9</ele>
        <time>2025-10-24T07:41:23.000Z</time>
      </trkpt>
      <trkpt lat="43.59159" lon="6.83248">
        <ele>221</ele>
        <time>2025-10-24T07:41:24.000Z</time>
      </trkpt>
      <trkpt lat="43.59164" lon="6.83252">
        <ele>221.2</ele>
        <time>2025-10-24T07:41:25.000Z</time>
      </trkpt>
      <trkpt lat="43.59168" lon="6.83255">
        <ele>221.4</ele>
        <time>2025-10-24T07:41:26.000Z</time>
      </trkpt>
      <trkpt lat="43.59171" lon="6.83259">
        <ele>221.6</ele>
        <time>2025-10-24T07:41:27.000Z</time>
      </trkpt>
      <trkpt lat="43.59175" lon="6.83262">
        <ele>221.7</ele>
        <time>2025-10-24T07:41:28.000Z</time>
      </trkpt>
      <trkpt lat="43.59179" lon="6.83265">
        <ele>221.9</ele>
        <time>2025-10-24T07:41:29.000Z</time>
      </trkpt>
      <trkpt lat="43.59184" lon="6.8327">
        <ele>222.1</ele>
        <time>2025-10-24T07:41:30.000Z</time>
      </trkpt>
      <trkpt lat="43.59187" lon="6.83273">
        <ele>222.3</ele>
        <time>2025-10-24T07:41:31.000Z</time>
      </trkpt>
      <trkpt lat="43.59191" lon="6.83277">
        <ele>222.4</ele>
        <time>2025-10-24T07:41:32.000Z</time>
      </trkpt>
      <trkpt lat="43.59194" lon="6.83279">
        <ele>222.5</ele>
        <time>2025-10-24T07:41:33.000Z</time>
      </trkpt>
      <trkpt lat="43.59198" lon="6.83282">
        <ele>222.7</ele>
        <time>2025-10-24T07:41:34.000Z</time>
      </trkpt>
      <trkpt lat="43.59203" lon="6.83285">
        <ele>222.8</ele>
        <time>2025-10-24T07:41:35.000Z</time>
      </trkpt>
      <trkpt lat="43.59208" lon="6.83288">
        <ele>222.9</ele>
        <time>2025-10-24T07:41:36.000Z</time>
      </trkpt>
      <trkpt lat="43.59212" lon="6.8329">
        <ele>223</ele>
        <time>2025-10-24T07:41:37.000Z</time>
      </trkpt>
      <trkpt lat="43.59214" lon="6.83292">
        <ele>223.1</ele>
        <time>2025-10-24T07:41:38.000Z</time>
      </trkpt>
      <trkpt lat="43.59218" lon="6.83294">
        <ele>223.2</ele>
        <time>2025-10-24T07:41:39.000Z</time>
      </trkpt>
      <trkpt lat="43.59222" lon="6.83296">
        <ele>223.2</ele>
        <time>2025-10-24T07:41:40.000Z</time>
      </trkpt>
      <trkpt lat="43.59226" lon="6.83298">
        <ele>223.3</ele>
        <time>2025-10-24T07:41:41.000Z</time>
      </trkpt>
      <trkpt lat="43.59229" lon="6.83299">
        <ele>223.4</ele>
        <time>2025-10-24T07:41:42.000Z</time>
      </trkpt>
      <trkpt lat="43.59231" lon="6.83302">
        <ele>223.5</ele>
        <time>2025-10-24T07:41:43.000Z</time>
      </trkpt>
      <trkpt lat="43.59234" lon="6.83305">
        <ele>223.5</ele>
        <time>2025-10-24T07:41:44.000Z</time>
      </trkpt>
      <trkpt lat="43.59237" lon="6.83308">
        <ele>223.7</ele>
        <time>2025-10-24T07:41:45.000Z</time>
      </trkpt>
      <trkpt lat="43.59238" lon="6.83313">
        <ele>223.8</ele>
        <time>2025-10-24T07:41:46.000Z</time>
      </trkpt>
      <trkpt lat="43.5924" lon="6.83318">
        <ele>223.9</ele>
        <time>2025-10-24T07:41:47.000Z</time>
      </trkpt>
      <trkpt lat="43.59241" lon="6.83322">
        <ele>224.1</ele>
        <time>2025-10-24T07:41:48.000Z</time>
      </trkpt>
      <trkpt lat="43.59242" lon="6.83327">
        <ele>224.3</ele>
        <time>2025-10-24T07:41:49.000Z</time>
      </trkpt>
      <trkpt lat="43.59242" lon="6.83332">
        <ele>224.5</ele>
        <time>2025-10-24T07:41:50.000Z</time>
      </trkpt>
      <trkpt lat="43.59243" lon="6.83336">
        <ele>224.7</ele>
        <time>2025-10-24T07:41:51.000Z</time>
      </trkpt>
      <trkpt lat="43.59242" lon="6.83341">
        <ele>224.9</ele>
        <time>2025-10-24T07:41:52.000Z</time>
      </trkpt>
      <trkpt lat="43.59243" lon="6.83343">
        <ele>225.1</ele>
        <time>2025-10-24T07:41:53.000Z</time>
      </trkpt>
      <trkpt lat="43.59242" lon="6.83346">
        <ele>225.2</ele>
        <time>2025-10-24T07:41:54.000Z</time>
      </trkpt>
      <trkpt lat="43.59242" lon="6.83347">
        <ele>225.3</ele>
        <time>2025-10-24T07:41:55.000Z</time>
      </trkpt>
      <trkpt lat="43.59242" lon="6.83348">
        <ele>225.3</ele>
        <time>2025-10-24T07:41:56.000Z</time>
      </trkpt>
      <trkpt lat="43.59242" lon="6.83348">
        <ele>225.3</ele>
        <time>2025-10-24T07:41:57.000Z</time>
      </trkpt>
      <trkpt lat="43.59242" lon="6.83347">
        <ele>225.3</ele>
        <time>2025-10-24T07:41:58.000Z</time>
      </trkpt>
      <trkpt lat="43.59242" lon="6.83347">
        <ele>225.4</ele>
        <time>2025-10-24T07:41:59.000Z</time>
      </trkpt>
      <trkpt lat="43.59242" lon="6.83347">
        <ele>225.4</ele>
        <time>2025-10-24T07:42:00.000Z</time>
      </trkpt>
      <trkpt lat="43.59241" lon="6.83347">
        <ele>225.4</ele>
        <time>2025-10-24T07:42:01.000Z</time>
      </trkpt>
      <trkpt lat="43.59241" lon="6.83347">
        <ele>225.4</ele>
        <time>2025-10-24T07:42:02.000Z</time>
      </trkpt>
      <trkpt lat="43.59241" lon="6.83347">
        <ele>225.4</ele>
        <time>2025-10-24T07:42:03.000Z</time>
      </trkpt>
      <trkpt lat="43.59241" lon="6.83347">
        <ele>225.4</ele>
        <time>2025-10-24T07:42:04.000Z</time>
      </trkpt>
      <trkpt lat="43.59242" lon="6.83346">
        <ele>225.1</ele>
        <time>2025-10-24T07:42:05.000Z</time>
      </trkpt>
      <trkpt lat="43.59243" lon="6.83346">
        <ele>224.8</ele>
        <time>2025-10-24T07:42:06.000Z</time>
      </trkpt>
      <trkpt lat="43.59243" lon="6.83345">
        <ele>224.6</ele>
        <time>2025-10-24T07:42:07.000Z</time>
      </trkpt>
      <trkpt lat="43.59243" lon="6.83345">
        <ele>224.6</ele>
        <time>2025-10-24T07:42:08.000Z</time>
      </trkpt>
      <trkpt lat="43.59243" lon="6.83345">
        <ele>224.6</ele>
        <time>2025-10-24T07:42:09.000Z</time>
      </trkpt>
      <trkpt lat="43.59243" lon="6.83345">
        <ele>224.6</ele>
        <time>2025-10-24T07:42:10.000Z</time>
      </trkpt>
      <trkpt lat="43.59243" lon="6.83345">
        <ele>224.6</ele>
        <time>2025-10-24T07:42:11.000Z</time>
      </trkpt>
      <trkpt lat="43.59243" lon="6.83345">
        <ele>224.6</ele>
        <time>2025-10-24T07:42:12.000Z</time>
      </trkpt>
      <trkpt lat="43.59243" lon="6.83345">
        <ele>224.6</ele>
        <time>2025-10-24T07:42:13.000Z</time>
      </trkpt>
      <trkpt lat="43.59243" lon="6.83345">
        <ele>224.6</ele>
        <time>2025-10-24T07:42:14.000Z</time>
      </trkpt>
      <trkpt lat="43.59243" lon="6.83345">
        <ele>224.6</ele>
        <time>2025-10-24T07:42:15.000Z</time>
      </trkpt>
      <trkpt lat="43.59243" lon="6.83345">
        <ele>224.6</ele>
        <time>2025-10-24T07:42:16.000Z</time>
      </trkpt>
      <trkpt lat="43.59243" lon="6.83345">
        <ele>224.6</ele>
        <time>2025-10-24T07:42:17.000Z</time>
      </trkpt>
      <trkpt lat="43.59243" lon="6.83345">
        <ele>224.6</ele>
        <time>2025-10-24T07:42:18.000Z</time>
      </trkpt>
      <trkpt lat="43.59243" lon="6.83345">
        <ele>224.6</ele>
        <time>2025-10-24T07:42:19.000Z</time>
      </trkpt>
      <trkpt lat="43.59243" lon="6.83345">
        <ele>224.6</ele>
        <time>2025-10-24T07:42:20.000Z</time>
      </trkpt>
      <trkpt lat="43.59243" lon="6.83345">
        <ele>224.6</ele>
        <time>2025-10-24T07:42:21.000Z</time>
      </trkpt>
      <trkpt lat="43.59243" lon="6.83345">
        <ele>224.6</ele>
        <time>2025-10-24T07:42:22.000Z</time>
      </trkpt>
      <trkpt lat="43.59244" lon="6.83345">
        <ele>224.4</ele>
        <time>2025-10-24T07:42:23.000Z</time>
      </trkpt>
      <trkpt lat="43.59244" lon="6.83345">
        <ele>224.3</ele>
        <time>2025-10-24T07:42:24.000Z</time>
      </trkpt>
      <trkpt lat="43.59244" lon="6.83345">
        <ele>224.2</ele>
        <time>2025-10-24T07:42:25.000Z</time>
      </trkpt>
      <trkpt lat="43.59244" lon="6.83345">
        <ele>224.2</ele>
        <time>2025-10-24T07:42:26.000Z</time>
      </trkpt>
      <trkpt lat="43.59245" lon="6.83345">
        <ele>224.1</ele>
        <time>2025-10-24T07:42:27.000Z</time>
      </trkpt>
      <trkpt lat="43.59246" lon="6.83345">
        <ele>223.9</ele>
        <time>2025-10-24T07:42:28.000Z</time>
      </trkpt>
      <trkpt lat="43.59246" lon="6.83345">
        <ele>223.8</ele>
        <time>2025-10-24T07:42:29.000Z</time>
      </trkpt>
      <trkpt lat="43.59246" lon="6.83345">
        <ele>223.8</ele>
        <time>2025-10-24T07:42:30.000Z</time>
      </trkpt>
      <trkpt lat="43.59246" lon="6.83345">
        <ele>223.8</ele>
        <time>2025-10-24T07:42:31.000Z</time>
      </trkpt>
      <trkpt lat="43.59246" lon="6.83345">
        <ele>223.7</ele>
        <time>2025-10-24T07:42:32.000Z</time>
      </trkpt>
      <trkpt lat="43.59246" lon="6.83345">
        <ele>223.7</ele>
        <time>2025-10-24T07:42:33.000Z</time>
      </trkpt>
      <trkpt lat="43.59246" lon="6.83345">
        <ele>223.7</ele>
        <time>2025-10-24T07:42:34.000Z</time>
      </trkpt>
      <trkpt lat="43.59246" lon="6.83345">
        <ele>223.7</ele>
        <time>2025-10-24T07:42:35.000Z</time>
      </trkpt>
      <trkpt lat="43.59246" lon="6.83345">
        <ele>223.6</ele>
        <time>2025-10-24T07:42:36.000Z</time>
      </trkpt>
      <trkpt lat="43.59246" lon="6.83345">
        <ele>223.6</ele>
        <time>2025-10-24T07:42:37.000Z</time>
      </trkpt>
      <trkpt lat="43.59246" lon="6.83345">
        <ele>223.6</ele>
        <time>2025-10-24T07:42:38.000Z</time>
      </trkpt>
      <trkpt lat="43.59247" lon="6.83345">
        <ele>223.6</ele>
        <time>2025-10-24T07:42:39.000Z</time>
      </trkpt>
      <trkpt lat="43.59247" lon="6.83345">
        <ele>223.5</ele>
        <time>2025-10-24T07:42:40.000Z</time>
      </trkpt>
      <trkpt lat="43.59247" lon="6.83346">
        <ele>223.4</ele>
        <time>2025-10-24T07:42:41.000Z</time>
      </trkpt>
      <trkpt lat="43.59247" lon="6.83346">
        <ele>223.2</ele>
        <time>2025-10-24T07:42:42.000Z</time>
      </trkpt>
      <trkpt lat="43.59247" lon="6.83347">
        <ele>223.1</ele>
        <time>2025-10-24T07:42:43.000Z</time>
      </trkpt>
      <trkpt lat="43.59247" lon="6.83347">
        <ele>223</ele>
        <time>2025-10-24T07:42:44.000Z</time>
      </trkpt>
      <trkpt lat="43.59247" lon="6.83348">
        <ele>223</ele>
        <time>2025-10-24T07:42:45.000Z</time>
      </trkpt>
      <trkpt lat="43.59247" lon="6.83348">
        <ele>222.9</ele>
        <time>2025-10-24T07:42:46.000Z</time>
      </trkpt>
      <trkpt lat="43.59247" lon="6.83348">
        <ele>222.9</ele>
        <time>2025-10-24T07:42:47.000Z</time>
      </trkpt>
      <trkpt lat="43.59247" lon="6.83348">
        <ele>222.9</ele>
        <time>2025-10-24T07:42:48.000Z</time>
      </trkpt>
      <trkpt lat="43.59247" lon="6.83348">
        <ele>222.9</ele>
        <time>2025-10-24T07:42:49.000Z</time>
      </trkpt>
      <trkpt lat="43.59247" lon="6.83348">
        <ele>222.8</ele>
        <time>2025-10-24T07:42:50.000Z</time>
      </trkpt>
      <trkpt lat="43.59247" lon="6.83348">
        <ele>222.8</ele>
        <time>2025-10-24T07:42:51.000Z</time>
      </trkpt>
      <trkpt lat="43.59247" lon="6.83349">
        <ele>222.7</ele>
        <time>2025-10-24T07:42:52.000Z</time>
      </trkpt>
      <trkpt lat="43.59247" lon="6.83349">
        <ele>222.7</ele>
        <time>2025-10-24T07:42:53.000Z</time>
      </trkpt>
      <trkpt lat="43.59247" lon="6.83349">
        <ele>222.6</ele>
        <time>2025-10-24T07:42:54.000Z</time>
      </trkpt>
      <trkpt lat="43.59247" lon="6.83349">
        <ele>222.6</ele>
        <time>2025-10-24T07:42:55.000Z</time>
      </trkpt>
      <trkpt lat="43.59247" lon="6.8335">
        <ele>222.4</ele>
        <time>2025-10-24T07:42:56.000Z</time>
      </trkpt>
      <trkpt lat="43.59247" lon="6.8335">
        <ele>222.3</ele>
        <time>2025-10-24T07:42:57.000Z</time>
      </trkpt>
      <trkpt lat="43.59247" lon="6.83351">
        <ele>222.2</ele>
        <time>2025-10-24T07:42:58.000Z</time>
      </trkpt>
      <trkpt lat="43.59247" lon="6.83351">
        <ele>222.1</ele>
        <time>2025-10-24T07:42:59.000Z</time>
      </trkpt>
      <trkpt lat="43.59247" lon="6.83352">
        <ele>222</ele>
        <time>2025-10-24T07:43:00.000Z</time>
      </trkpt>
      <trkpt lat="43.59247" lon="6.83352">
        <ele>222</ele>
        <time>2025-10-24T07:43:01.000Z</time>
      </trkpt>
      <trkpt lat="43.59247" lon="6.83352">
        <ele>222</ele>
        <time>2025-10-24T07:43:02.000Z</time>
      </trkpt>
      <trkpt lat="43.59247" lon="6.83352">
        <ele>221.9</ele>
        <time>2025-10-24T07:43:03.000Z</time>
      </trkpt>
      <trkpt lat="43.59247" lon="6.83352">
        <ele>221.9</ele>
        <time>2025-10-24T07:43:04.000Z</time>
      </trkpt>
      <trkpt lat="43.59247" lon="6.83352">
        <ele>221.9</ele>
        <time>2025-10-24T07:43:05.000Z</time>
      </trkpt>
      <trkpt lat="43.59247" lon="6.83352">
        <ele>221.9</ele>
        <time>2025-10-24T07:43:06.000Z</time>
      </trkpt>
      <trkpt lat="43.59248" lon="6.83352">
        <ele>221.8</ele>
        <time>2025-10-24T07:43:07.000Z</time>
      </trkpt>
      <trkpt lat="43.59248" lon="6.83352">
        <ele>221.8</ele>
        <time>2025-10-24T07:43:08.000Z</time>
      </trkpt>
      <trkpt lat="43.59248" lon="6.83352">
        <ele>221.8</ele>
        <time>2025-10-24T07:43:09.000Z</time>
      </trkpt>
      <trkpt lat="43.59248" lon="6.83352">
        <ele>221.8</ele>
        <time>2025-10-24T07:43:10.000Z</time>
      </trkpt>
      <trkpt lat="43.59248" lon="6.83352">
        <ele>221.8</ele>
        <time>2025-10-24T07:43:11.000Z</time>
      </trkpt>
      <trkpt lat="43.59248" lon="6.83353">
        <ele>221.7</ele>
        <time>2025-10-24T07:43:12.000Z</time>
      </trkpt>
      <trkpt lat="43.59248" lon="6.83353">
        <ele>221.7</ele>
        <time>2025-10-24T07:43:13.000Z</time>
      </trkpt>
      <trkpt lat="43.59248" lon="6.83353">
        <ele>221.7</ele>
        <time>2025-10-24T07:43:14.000Z</time>
      </trkpt>
      <trkpt lat="43.59248" lon="6.83353">
        <ele>221.7</ele>
        <time>2025-10-24T07:43:15.000Z</time>
      </trkpt>
      <trkpt lat="43.59248" lon="6.83353">
        <ele>221.7</ele>
        <time>2025-10-24T07:43:16.000Z</time>
      </trkpt>
      <trkpt lat="43.59248" lon="6.83353">
        <ele>221.7</ele>
        <time>2025-10-24T07:43:17.000Z</time>
      </trkpt>
      <trkpt lat="43.59248" lon="6.83353">
        <ele>221.6</ele>
        <time>2025-10-24T07:43:18.000Z</time>
      </trkpt>
      <trkpt lat="43.59247" lon="6.83353">
        <ele>221.6</ele>
        <time>2025-10-24T07:43:19.000Z</time>
      </trkpt>
      <trkpt lat="43.59247" lon="6.83353">
        <ele>221.6</ele>
        <time>2025-10-24T07:43:20.000Z</time>
      </trkpt>
      <trkpt lat="43.59247" lon="6.83353">
        <ele>221.5</ele>
        <time>2025-10-24T07:43:21.000Z</time>
      </trkpt>
      <trkpt lat="43.59247" lon="6.83354">
        <ele>221.3</ele>
        <time>2025-10-24T07:43:22.000Z</time>
      </trkpt>
      <trkpt lat="43.59247" lon="6.83355">
        <ele>221.2</ele>
        <time>2025-10-24T07:43:23.000Z</time>
      </trkpt>
      <trkpt lat="43.59246" lon="6.83355">
        <ele>221.1</ele>
        <time>2025-10-24T07:43:24.000Z</time>
      </trkpt>
      <trkpt lat="43.59246" lon="6.83355">
        <ele>221.1</ele>
        <time>2025-10-24T07:43:25.000Z</time>
      </trkpt>
      <trkpt lat="43.59246" lon="6.83355">
        <ele>221</ele>
        <time>2025-10-24T07:43:26.000Z</time>
      </trkpt>
      <trkpt lat="43.59246" lon="6.83356">
        <ele>220.9</ele>
        <time>2025-10-24T07:43:27.000Z</time>
      </trkpt>
      <trkpt lat="43.59246" lon="6.83356">
        <ele>220.8</ele>
        <time>2025-10-24T07:43:28.000Z</time>
      </trkpt>
      <trkpt lat="43.59246" lon="6.83356">
        <ele>220.7</ele>
        <time>2025-10-24T07:43:29.000Z</time>
      </trkpt>
      <trkpt lat="43.59246" lon="6.83356">
        <ele>220.7</ele>
        <time>2025-10-24T07:43:30.000Z</time>
      </trkpt>
      <trkpt lat="43.59246" lon="6.83356">
        <ele>220.7</ele>
        <time>2025-10-24T07:43:31.000Z</time>
      </trkpt>
      <trkpt lat="43.59246" lon="6.83356">
        <ele>220.7</ele>
        <time>2025-10-24T07:43:32.000Z</time>
      </trkpt>
      <trkpt lat="43.59246" lon="6.83356">
        <ele>220.7</ele>
        <time>2025-10-24T07:43:33.000Z</time>
      </trkpt>
      <trkpt lat="43.59246" lon="6.83356">
        <ele>220.7</ele>
        <time>2025-10-24T07:43:34.000Z</time>
      </trkpt>
      <trkpt lat="43.59246" lon="6.83356">
        <ele>220.7</ele>
        <time>2025-10-24T07:43:35.000Z</time>
      </trkpt>
      <trkpt lat="43.59246" lon="6.83356">
        <ele>220.7</ele>
        <time>2025-10-24T07:43:36.000Z</time>
      </trkpt>
      <trkpt lat="43.59246" lon="6.83356">
        <ele>220.7</ele>
        <time>2025-10-24T07:43:37.000Z</time>
      </trkpt>
      <trkpt lat="43.59246" lon="6.83356">
        <ele>220.7</ele>
        <time>2025-10-24T07:43:38.000Z</time>
      </trkpt>
      <trkpt lat="43.59246" lon="6.83356">
        <ele>220.7</ele>
        <time>2025-10-24T07:43:39.000Z</time>
      </trkpt>
      <trkpt lat="43.59246" lon="6.83356">
        <ele>220.7</ele>
        <time>2025-10-24T07:43:40.000Z</time>
      </trkpt>
      <trkpt lat="43.59246" lon="6.83356">
        <ele>220.7</ele>
        <time>2025-10-24T07:43:41.000Z</time>
      </trkpt>
      <trkpt lat="43.59246" lon="6.83356">
        <ele>220.7</ele>
        <time>2025-10-24T07:43:42.000Z</time>
      </trkpt>
      <trkpt lat="43.59246" lon="6.83356">
        <ele>220.6</ele>
        <time>2025-10-24T07:43:43.000Z</time>
      </trkpt>
      <trkpt lat="43.59246" lon="6.83356">
        <ele>220.6</ele>
        <time>2025-10-24T07:43:44.000Z</time>
      </trkpt>
      <trkpt lat="43.59246" lon="6.83355">
        <ele>220.5</ele>
        <time>2025-10-24T07:43:45.000Z</time>
      </trkpt>
      <trkpt lat="43.59246" lon="6.83355">
        <ele>220.4</ele>
        <time>2025-10-24T07:43:46.000Z</time>
      </trkpt>
      <trkpt lat="43.59246" lon="6.83355">
        <ele>220.4</ele>
        <time>2025-10-24T07:43:47.000Z</time>
      </trkpt>
      <trkpt lat="43.59246" lon="6.83355">
        <ele>220.4</ele>
        <time>2025-10-24T07:43:48.000Z</time>
      </trkpt>
      <trkpt lat="43.59246" lon="6.83355">
        <ele>220.4</ele>
        <time>2025-10-24T07:43:49.000Z</time>
      </trkpt>
      <trkpt lat="43.59246" lon="6.83354">
        <ele>220.3</ele>
        <time>2025-10-24T07:43:50.000Z</time>
      </trkpt>
      <trkpt lat="43.59246" lon="6.83354">
        <ele>220.2</ele>
        <time>2025-10-24T07:43:51.000Z</time>
      </trkpt>
      <trkpt lat="43.59246" lon="6.83353">
        <ele>220.1</ele>
        <time>2025-10-24T07:43:52.000Z</time>
      </trkpt>
      <trkpt lat="43.59246" lon="6.83353">
        <ele>220</ele>
        <time>2025-10-24T07:43:53.000Z</time>
      </trkpt>
      <trkpt lat="43.59246" lon="6.83353">
        <ele>220</ele>
        <time>2025-10-24T07:43:54.000Z</time>
      </trkpt>
      <trkpt lat="43.59246" lon="6.83353">
        <ele>220</ele>
        <time>2025-10-24T07:43:55.000Z</time>
      </trkpt>
      <trkpt lat="43.59246" lon="6.83353">
        <ele>219.9</ele>
        <time>2025-10-24T07:43:56.000Z</time>
      </trkpt>
      <trkpt lat="43.59246" lon="6.83352">
        <ele>219.9</ele>
        <time>2025-10-24T07:43:57.000Z</time>
      </trkpt>
      <trkpt lat="43.59246" lon="6.83352">
        <ele>219.9</ele>
        <time>2025-10-24T07:43:58.000Z</time>
      </trkpt>
      <trkpt lat="43.59246" lon="6.83352">
        <ele>219.8</ele>
        <time>2025-10-24T07:43:59.000Z</time>
      </trkpt>
      <trkpt lat="43.59246" lon="6.83352">
        <ele>219.7</ele>
        <time>2025-10-24T07:44:00.000Z</time>
      </trkpt>
      <trkpt lat="43.59246" lon="6.83351">
        <ele>219.6</ele>
        <time>2025-10-24T07:44:01.000Z</time>
      </trkpt>
      <trkpt lat="43.59246" lon="6.83351">
        <ele>219.6</ele>
        <time>2025-10-24T07:44:02.000Z</time>
      </trkpt>
      <trkpt lat="43.59246" lon="6.8335">
        <ele>219.5</ele>
        <time>2025-10-24T07:44:03.000Z</time>
      </trkpt>
      <trkpt lat="43.59245" lon="6.8335">
        <ele>219.4</ele>
        <time>2025-10-24T07:44:04.000Z</time>
      </trkpt>
      <trkpt lat="43.59245" lon="6.8335">
        <ele>219.3</ele>
        <time>2025-10-24T07:44:05.000Z</time>
      </trkpt>
      <trkpt lat="43.59245" lon="6.8335">
        <ele>219.3</ele>
        <time>2025-10-24T07:44:06.000Z</time>
      </trkpt>
      <trkpt lat="43.59245" lon="6.8335">
        <ele>219.3</ele>
        <time>2025-10-24T07:44:07.000Z</time>
      </trkpt>
      <trkpt lat="43.59245" lon="6.83349">
        <ele>219.2</ele>
        <time>2025-10-24T07:44:08.000Z</time>
      </trkpt>
      <trkpt lat="43.59245" lon="6.83349">
        <ele>219.2</ele>
        <time>2025-10-24T07:44:09.000Z</time>
      </trkpt>
      <trkpt lat="43.59245" lon="6.83349">
        <ele>219.1</ele>
        <time>2025-10-24T07:44:10.000Z</time>
      </trkpt>
      <trkpt lat="43.59245" lon="6.83349">
        <ele>219</ele>
        <time>2025-10-24T07:44:11.000Z</time>
      </trkpt>
      <trkpt lat="43.59245" lon="6.83349">
        <ele>219</ele>
        <time>2025-10-24T07:44:12.000Z</time>
      </trkpt>
      <trkpt lat="43.59244" lon="6.83349">
        <ele>219</ele>
        <time>2025-10-24T07:44:13.000Z</time>
      </trkpt>
      <trkpt lat="43.59244" lon="6.83349">
        <ele>218.9</ele>
        <time>2025-10-24T07:44:14.000Z</time>
      </trkpt>
      <trkpt lat="43.59244" lon="6.83349">
        <ele>218.9</ele>
        <time>2025-10-24T07:44:15.000Z</time>
      </trkpt>
      <trkpt lat="43.59244" lon="6.83349">
        <ele>218.9</ele>
        <time>2025-10-24T07:44:16.000Z</time>
      </trkpt>
      <trkpt lat="43.59244" lon="6.83348">
        <ele>218.8</ele>
        <time>2025-10-24T07:44:17.000Z</time>
      </trkpt>
      <trkpt lat="43.59244" lon="6.83348">
        <ele>218.8</ele>
        <time>2025-10-24T07:44:18.000Z</time>
      </trkpt>
      <trkpt lat="43.59244" lon="6.83348">
        <ele>218.7</ele>
        <time>2025-10-24T07:44:19.000Z</time>
      </trkpt>
      <trkpt lat="43.59244" lon="6.83348">
        <ele>218.7</ele>
        <time>2025-10-24T07:44:20.000Z</time>
      </trkpt>
      <trkpt lat="43.59244" lon="6.83348">
        <ele>218.7</ele>
        <time>2025-10-24T07:44:21.000Z</time>
      </trkpt>
      <trkpt lat="43.59244" lon="6.83348">
        <ele>218.7</ele>
        <time>2025-10-24T07:44:22.000Z</time>
      </trkpt>
      <trkpt lat="43.59244" lon="6.83347">
        <ele>218.6</ele>
        <time>2025-10-24T07:44:23.000Z</time>
      </trkpt>
      <trkpt lat="43.59244" lon="6.83347">
        <ele>218.6</ele>
        <time>2025-10-24T07:44:24.000Z</time>
      </trkpt>
      <trkpt lat="43.59244" lon="6.83347">
        <ele>218.6</ele>
        <time>2025-10-24T07:44:25.000Z</time>
      </trkpt>
      <trkpt lat="43.59244" lon="6.83347">
        <ele>218.6</ele>
        <time>2025-10-24T07:44:26.000Z</time>
      </trkpt>
      <trkpt lat="43.59244" lon="6.83347">
        <ele>218.5</ele>
        <time>2025-10-24T07:44:27.000Z</time>
      </trkpt>
      <trkpt lat="43.59244" lon="6.83347">
        <ele>218.5</ele>
        <time>2025-10-24T07:44:28.000Z</time>
      </trkpt>
      <trkpt lat="43.59244" lon="6.83347">
        <ele>218.5</ele>
        <time>2025-10-24T07:44:29.000Z</time>
      </trkpt>
      <trkpt lat="43.59244" lon="6.83347">
        <ele>218.4</ele>
        <time>2025-10-24T07:44:30.000Z</time>
      </trkpt>
      <trkpt lat="43.59244" lon="6.83346">
        <ele>218.4</ele>
        <time>2025-10-24T07:44:31.000Z</time>
      </trkpt>
      <trkpt lat="43.59244" lon="6.83346">
        <ele>218.4</ele>
        <time>2025-10-24T07:44:32.000Z</time>
      </trkpt>
      <trkpt lat="43.59244" lon="6.83346">
        <ele>218.4</ele>
        <time>2025-10-24T07:44:33.000Z</time>
      </trkpt>
      <trkpt lat="43.59244" lon="6.83346">
        <ele>218.4</ele>
        <time>2025-10-24T07:44:34.000Z</time>
      </trkpt>
      <trkpt lat="43.59244" lon="6.83346">
        <ele>218.3</ele>
        <time>2025-10-24T07:44:35.000Z</time>
      </trkpt>
      <trkpt lat="43.59244" lon="6.83346">
        <ele>218.3</ele>
        <time>2025-10-24T07:44:36.000Z</time>
      </trkpt>
      <trkpt lat="43.59244" lon="6.83346">
        <ele>218.3</ele>
        <time>2025-10-24T07:44:37.000Z</time>
      </trkpt>
      <trkpt lat="43.59244" lon="6.83346">
        <ele>218.3</ele>
        <time>2025-10-24T07:44:38.000Z</time>
      </trkpt>
      <trkpt lat="43.59245" lon="6.83346">
        <ele>218.2</ele>
        <time>2025-10-24T07:44:39.000Z</time>
      </trkpt>
      <trkpt lat="43.59245" lon="6.83346">
        <ele>218.2</ele>
        <time>2025-10-24T07:44:40.000Z</time>
      </trkpt>
      <trkpt lat="43.59245" lon="6.83346">
        <ele>218.1</ele>
        <time>2025-10-24T07:44:41.000Z</time>
      </trkpt>
      <trkpt lat="43.59245" lon="6.83345">
        <ele>218.1</ele>
        <time>2025-10-24T07:44:42.000Z</time>
      </trkpt>
      <trkpt lat="43.59245" lon="6.83345">
        <ele>218.1</ele>
        <time>2025-10-24T07:44:43.000Z</time>
      </trkpt>
      <trkpt lat="43.59245" lon="6.83345">
        <ele>218</ele>
        <time>2025-10-24T07:44:44.000Z</time>
      </trkpt>
      <trkpt lat="43.59245" lon="6.83345">
        <ele>218</ele>
        <time>2025-10-24T07:44:45.000Z</time>
      </trkpt>
      <trkpt lat="43.59245" lon="6.83345">
        <ele>218</ele>
        <time>2025-10-24T07:44:46.000Z</time>
      </trkpt>
      <trkpt lat="43.59245" lon="6.83345">
        <ele>217.9</ele>
        <time>2025-10-24T07:44:47.000Z</time>
      </trkpt>
      <trkpt lat="43.59245" lon="6.83345">
        <ele>217.9</ele>
        <time>2025-10-24T07:44:48.000Z</time>
      </trkpt>
      <trkpt lat="43.59245" lon="6.83345">
        <ele>217.9</ele>
        <time>2025-10-24T07:44:49.000Z</time>
      </trkpt>
      <trkpt lat="43.59245" lon="6.83345">
        <ele>217.9</ele>
        <time>2025-10-24T07:44:50.000Z</time>
      </trkpt>
      <trkpt lat="43.59245" lon="6.83345">
        <ele>217.8</ele>
        <time>2025-10-24T07:44:51.000Z</time>
      </trkpt>
      <trkpt lat="43.59245" lon="6.83344">
        <ele>217.8</ele>
        <time>2025-10-24T07:44:52.000Z</time>
      </trkpt>
      <trkpt lat="43.59245" lon="6.83344">
        <ele>217.7</ele>
        <time>2025-10-24T07:44:53.000Z</time>
      </trkpt>
      <trkpt lat="43.59246" lon="6.8334">
        <ele>216.9</ele>
        <time>2025-10-24T07:44:54.000Z</time>
      </trkpt>
      <trkpt lat="43.59247" lon="6.83335">
        <ele>215.9</ele>
        <time>2025-10-24T07:44:55.000Z</time>
      </trkpt>
      <trkpt lat="43.59248" lon="6.8333">
        <ele>214.8</ele>
        <time>2025-10-24T07:44:56.000Z</time>
      </trkpt>
      <trkpt lat="43.59249" lon="6.83324">
        <ele>213.5</ele>
        <time>2025-10-24T07:44:57.000Z</time>
      </trkpt>
      <trkpt lat="43.5925" lon="6.83319">
        <ele>212.2</ele>
        <time>2025-10-24T07:44:58.000Z</time>
      </trkpt>
      <trkpt lat="43.5925" lon="6.83313">
        <ele>210.9</ele>
        <time>2025-10-24T07:44:59.000Z</time>
      </trkpt>
      <trkpt lat="43.59251" lon="6.83307">
        <ele>209.6</ele>
        <time>2025-10-24T07:45:00.000Z</time>
      </trkpt>
      <trkpt lat="43.59252" lon="6.83301">
        <ele>208.2</ele>
        <time>2025-10-24T07:45:01.000Z</time>
      </trkpt>
      <trkpt lat="43.59253" lon="6.83294">
        <ele>206.6</ele>
        <time>2025-10-24T07:45:02.000Z</time>
      </trkpt>
      <trkpt lat="43.59255" lon="6.83289">
        <ele>205.4</ele>
        <time>2025-10-24T07:45:03.000Z</time>
      </trkpt>
      <trkpt lat="43.59256" lon="6.83285">
        <ele>204.4</ele>
        <time>2025-10-24T07:45:04.000Z</time>
      </trkpt>
      <trkpt lat="43.59257" lon="6.83279">
        <ele>203.2</ele>
        <time>2025-10-24T07:45:05.000Z</time>
      </trkpt>
      <trkpt lat="43.59259" lon="6.83272">
        <ele>201.6</ele>
        <time>2025-10-24T07:45:06.000Z</time>
      </trkpt>
      <trkpt lat="43.59262" lon="6.83266">
        <ele>200.2</ele>
        <time>2025-10-24T07:45:07.000Z</time>
      </trkpt>
      <trkpt lat="43.59265" lon="6.83261">
        <ele>198.9</ele>
        <time>2025-10-24T07:45:08.000Z</time>
        <extensions>
          <visugpx:TrkExtension xmlns:visugpx="https://www.visugpx.com/editgpx/">
            <visugpx:node>1</visugpx:node>
            </visugpx:TrkExtension>
        </extensions>
      </trkpt>
    </trkseg>
  </trk>
  <trk>
    <name><![CDATA[Bagnols -Pennafort -Fille d'Isnard_17]]></name>
    <trkseg>
      <trkpt lat="43.55666" lon="6.79457">
        <ele>149</ele>
        <time>2025-10-24T06:33:10.000Z</time>
        <extensions>
          <visugpx:TrkExtension xmlns:visugpx="https://www.visugpx.com/editgpx/">
            <visugpx:node>1</visugpx:node>
            </visugpx:TrkExtension>
        </extensions>
      </trkpt>
      <trkpt lat="43.55662" lon="6.79458">
        <ele>149</ele>
        <time>2025-10-24T06:33:11.000Z</time>
      </trkpt>
      <trkpt lat="43.55659" lon="6.79459">
        <ele>149</ele>
        <time>2025-10-24T06:33:12.000Z</time>
      </trkpt>
      <trkpt lat="43.55656" lon="6.7946">
        <ele>149</ele>
        <time>2025-10-24T06:33:13.000Z</time>
      </trkpt>
      <trkpt lat="43.55652" lon="6.79461">
        <ele>149</ele>
        <time>2025-10-24T06:33:14.000Z</time>
      </trkpt>
      <trkpt lat="43.55648" lon="6.79462">
        <ele>149</ele>
        <time>2025-10-24T06:33:15.000Z</time>
      </trkpt>
      <trkpt lat="43.55644" lon="6.79463">
        <ele>149</ele>
        <time>2025-10-24T06:33:16.000Z</time>
      </trkpt>
      <trkpt lat="43.5564" lon="6.79464">
        <ele>149.1</ele>
        <time>2025-10-24T06:33:17.000Z</time>
      </trkpt>
      <trkpt lat="43.55636" lon="6.79464">
        <ele>149.1</ele>
        <time>2025-10-24T06:33:18.000Z</time>
      </trkpt>
      <trkpt lat="43.55632" lon="6.79464">
        <ele>149.1</ele>
        <time>2025-10-24T06:33:19.000Z</time>
      </trkpt>
      <trkpt lat="43.55628" lon="6.79464">
        <ele>149.2</ele>
        <time>2025-10-24T06:33:20.000Z</time>
      </trkpt>
      <trkpt lat="43.55624" lon="6.79464">
        <ele>149.2</ele>
        <time>2025-10-24T06:33:21.000Z</time>
      </trkpt>
      <trkpt lat="43.55619" lon="6.79464">
        <ele>149.3</ele>
        <time>2025-10-24T06:33:22.000Z</time>
      </trkpt>
      <trkpt lat="43.55615" lon="6.79464">
        <ele>149.4</ele>
        <time>2025-10-24T06:33:23.000Z</time>
      </trkpt>
      <trkpt lat="43.55611" lon="6.79463">
        <ele>149.4</ele>
        <time>2025-10-24T06:33:24.000Z</time>
      </trkpt>
      <trkpt lat="43.55607" lon="6.79463">
        <ele>149.5</ele>
        <time>2025-10-24T06:33:25.000Z</time>
      </trkpt>
      <trkpt lat="43.55603" lon="6.79462">
        <ele>149.5</ele>
        <time>2025-10-24T06:33:26.000Z</time>
      </trkpt>
      <trkpt lat="43.556" lon="6.79461">
        <ele>149.6</ele>
        <time>2025-10-24T06:33:27.000Z</time>
      </trkpt>
      <trkpt lat="43.55596" lon="6.79459">
        <ele>149.6</ele>
        <time>2025-10-24T06:33:28.000Z</time>
      </trkpt>
      <trkpt lat="43.55592" lon="6.79457">
        <ele>149.6</ele>
        <time>2025-10-24T06:33:29.000Z</time>
      </trkpt>
      <trkpt lat="43.55588" lon="6.79456">
        <ele>149.6</ele>
        <time>2025-10-24T06:33:30.000Z</time>
      </trkpt>
      <trkpt lat="43.55584" lon="6.79454">
        <ele>149.6</ele>
        <time>2025-10-24T06:33:31.000Z</time>
      </trkpt>
      <trkpt lat="43.5558" lon="6.79452">
        <ele>149.6</ele>
        <time>2025-10-24T06:33:32.000Z</time>
      </trkpt>
      <trkpt lat="43.55576" lon="6.7945">
        <ele>149.7</ele>
        <time>2025-10-24T06:33:33.000Z</time>
      </trkpt>
      <trkpt lat="43.55572" lon="6.79448">
        <ele>149.7</ele>
        <time>2025-10-24T06:33:34.000Z</time>
      </trkpt>
      <trkpt lat="43.55568" lon="6.79446">
        <ele>149.8</ele>
        <time>2025-10-24T06:33:35.000Z</time>
      </trkpt>
      <trkpt lat="43.55565" lon="6.79445">
        <ele>149.8</ele>
        <time>2025-10-24T06:33:36.000Z</time>
      </trkpt>
      <trkpt lat="43.55561" lon="6.79444">
        <ele>149.9</ele>
        <time>2025-10-24T06:33:37.000Z</time>
      </trkpt>
      <trkpt lat="43.55556" lon="6.79442">
        <ele>149.9</ele>
        <time>2025-10-24T06:33:38.000Z</time>
      </trkpt>
      <trkpt lat="43.55553" lon="6.79441">
        <ele>150</ele>
        <time>2025-10-24T06:33:39.000Z</time>
      </trkpt>
      <trkpt lat="43.55549" lon="6.7944">
        <ele>150</ele>
        <time>2025-10-24T06:33:40.000Z</time>
      </trkpt>
      <trkpt lat="43.55546" lon="6.79439">
        <ele>150</ele>
        <time>2025-10-24T06:33:41.000Z</time>
      </trkpt>
      <trkpt lat="43.55543" lon="6.79438">
        <ele>150</ele>
        <time>2025-10-24T06:33:42.000Z</time>
      </trkpt>
      <trkpt lat="43.55539" lon="6.79438">
        <ele>150</ele>
        <time>2025-10-24T06:33:43.000Z</time>
      </trkpt>
      <trkpt lat="43.55536" lon="6.79438">
        <ele>150</ele>
        <time>2025-10-24T06:33:44.000Z</time>
      </trkpt>
      <trkpt lat="43.55533" lon="6.79437">
        <ele>150</ele>
        <time>2025-10-24T06:33:45.000Z</time>
      </trkpt>
      <trkpt lat="43.5553" lon="6.79437">
        <ele>150</ele>
        <time>2025-10-24T06:33:46.000Z</time>
      </trkpt>
      <trkpt lat="43.55527" lon="6.79436">
        <ele>150</ele>
        <time>2025-10-24T06:33:47.000Z</time>
      </trkpt>
      <trkpt lat="43.55524" lon="6.79435">
        <ele>150</ele>
        <time>2025-10-24T06:33:48.000Z</time>
      </trkpt>
      <trkpt lat="43.55521" lon="6.79434">
        <ele>150</ele>
        <time>2025-10-24T06:33:49.000Z</time>
      </trkpt>
      <trkpt lat="43.55519" lon="6.79434">
        <ele>149.9</ele>
        <time>2025-10-24T06:33:50.000Z</time>
      </trkpt>
      <trkpt lat="43.55517" lon="6.79434">
        <ele>149.9</ele>
        <time>2025-10-24T06:33:51.000Z</time>
      </trkpt>
      <trkpt lat="43.55516" lon="6.79435">
        <ele>149.9</ele>
        <time>2025-10-24T06:33:52.000Z</time>
      </trkpt>
      <trkpt lat="43.55516" lon="6.79437">
        <ele>149.9</ele>
        <time>2025-10-24T06:33:53.000Z</time>
      </trkpt>
      <trkpt lat="43.55517" lon="6.79438">
        <ele>149.9</ele>
        <time>2025-10-24T06:33:54.000Z</time>
      </trkpt>
      <trkpt lat="43.55519" lon="6.79438">
        <ele>149.9</ele>
        <time>2025-10-24T06:33:55.000Z</time>
      </trkpt>
      <trkpt lat="43.55521" lon="6.79438">
        <ele>150</ele>
        <time>2025-10-24T06:33:56.000Z</time>
      </trkpt>
      <trkpt lat="43.55524" lon="6.79439">
        <ele>150</ele>
        <time>2025-10-24T06:33:57.000Z</time>
      </trkpt>
      <trkpt lat="43.55527" lon="6.79439">
        <ele>150</ele>
        <time>2025-10-24T06:33:58.000Z</time>
      </trkpt>
      <trkpt lat="43.55531" lon="6.79438">
        <ele>150</ele>
        <time>2025-10-24T06:33:59.000Z</time>
      </trkpt>
      <trkpt lat="43.55534" lon="6.79439">
        <ele>150</ele>
        <time>2025-10-24T06:34:00.000Z</time>
      </trkpt>
      <trkpt lat="43.55537" lon="6.79439">
        <ele>150</ele>
        <time>2025-10-24T06:34:01.000Z</time>
      </trkpt>
      <trkpt lat="43.55542" lon="6.79439">
        <ele>150</ele>
        <time>2025-10-24T06:34:02.000Z</time>
      </trkpt>
      <trkpt lat="43.55545" lon="6.7944">
        <ele>150</ele>
        <time>2025-10-24T06:34:03.000Z</time>
      </trkpt>
      <trkpt lat="43.55549" lon="6.79441">
        <ele>150</ele>
        <time>2025-10-24T06:34:04.000Z</time>
      </trkpt>
      <trkpt lat="43.55552" lon="6.79442">
        <ele>150</ele>
        <time>2025-10-24T06:34:05.000Z</time>
      </trkpt>
      <trkpt lat="43.55556" lon="6.79443">
        <ele>149.9</ele>
        <time>2025-10-24T06:34:06.000Z</time>
      </trkpt>
      <trkpt lat="43.55559" lon="6.79444">
        <ele>149.9</ele>
        <time>2025-10-24T06:34:07.000Z</time>
      </trkpt>
      <trkpt lat="43.55563" lon="6.79445">
        <ele>149.9</ele>
        <time>2025-10-24T06:34:08.000Z</time>
      </trkpt>
      <trkpt lat="43.55567" lon="6.79446">
        <ele>149.8</ele>
        <time>2025-10-24T06:34:09.000Z</time>
      </trkpt>
      <trkpt lat="43.5557" lon="6.79447">
        <ele>149.8</ele>
        <time>2025-10-24T06:34:10.000Z</time>
      </trkpt>
      <trkpt lat="43.55573" lon="6.79448">
        <ele>149.7</ele>
        <time>2025-10-24T06:34:11.000Z</time>
      </trkpt>
      <trkpt lat="43.55577" lon="6.7945">
        <ele>149.7</ele>
        <time>2025-10-24T06:34:12.000Z</time>
      </trkpt>
      <trkpt lat="43.55581" lon="6.79452">
        <ele>149.6</ele>
        <time>2025-10-24T06:34:13.000Z</time>
      </trkpt>
      <trkpt lat="43.55583" lon="6.79454">
        <ele>149.6</ele>
        <time>2025-10-24T06:34:14.000Z</time>
      </trkpt>
      <trkpt lat="43.55587" lon="6.79456">
        <ele>149.6</ele>
        <time>2025-10-24T06:34:15.000Z</time>
      </trkpt>
      <trkpt lat="43.55592" lon="6.79458">
        <ele>149.6</ele>
        <time>2025-10-24T06:34:16.000Z</time>
      </trkpt>
      <trkpt lat="43.55596" lon="6.79459">
        <ele>149.6</ele>
        <time>2025-10-24T06:34:17.000Z</time>
      </trkpt>
      <trkpt lat="43.556" lon="6.7946">
        <ele>149.6</ele>
        <time>2025-10-24T06:34:18.000Z</time>
      </trkpt>
      <trkpt lat="43.55603" lon="6.79461">
        <ele>149.5</ele>
        <time>2025-10-24T06:34:19.000Z</time>
      </trkpt>
      <trkpt lat="43.55607" lon="6.79462">
        <ele>149.5</ele>
        <time>2025-10-24T06:34:20.000Z</time>
      </trkpt>
      <trkpt lat="43.55612" lon="6.79463">
        <ele>149.4</ele>
        <time>2025-10-24T06:34:21.000Z</time>
      </trkpt>
      <trkpt lat="43.55617" lon="6.79463">
        <ele>149.3</ele>
        <time>2025-10-24T06:34:22.000Z</time>
      </trkpt>
      <trkpt lat="43.55621" lon="6.79464">
        <ele>149.3</ele>
        <time>2025-10-24T06:34:23.000Z</time>
      </trkpt>
      <trkpt lat="43.55625" lon="6.79464">
        <ele>149.2</ele>
        <time>2025-10-24T06:34:24.000Z</time>
      </trkpt>
      <trkpt lat="43.5563" lon="6.79464">
        <ele>149.1</ele>
        <time>2025-10-24T06:34:25.000Z</time>
      </trkpt>
      <trkpt lat="43.55635" lon="6.79464">
        <ele>149.1</ele>
        <time>2025-10-24T06:34:26.000Z</time>
      </trkpt>
      <trkpt lat="43.5564" lon="6.79464">
        <ele>149.1</ele>
        <time>2025-10-24T06:34:27.000Z</time>
      </trkpt>
      <trkpt lat="43.55644" lon="6.79463">
        <ele>149</ele>
        <time>2025-10-24T06:34:28.000Z</time>
      </trkpt>
      <trkpt lat="43.55649" lon="6.79462">
        <ele>149</ele>
        <time>2025-10-24T06:34:29.000Z</time>
      </trkpt>
      <trkpt lat="43.55655" lon="6.79461">
        <ele>149</ele>
        <time>2025-10-24T06:34:30.000Z</time>
      </trkpt>
      <trkpt lat="43.55659" lon="6.79461">
        <ele>149</ele>
        <time>2025-10-24T06:34:31.000Z</time>
      </trkpt>
      <trkpt lat="43.55664" lon="6.7946">
        <ele>149</ele>
        <time>2025-10-24T06:34:32.000Z</time>
      </trkpt>
      <trkpt lat="43.55667" lon="6.7946">
        <ele>149</ele>
        <time>2025-10-24T06:34:33.000Z</time>
      </trkpt>
      <trkpt lat="43.55672" lon="6.79459">
        <ele>148.9</ele>
        <time>2025-10-24T06:34:34.000Z</time>
      </trkpt>
      <trkpt lat="43.55677" lon="6.79457">
        <ele>148.9</ele>
        <time>2025-10-24T06:34:35.000Z</time>
      </trkpt>
      <trkpt lat="43.55681" lon="6.79456">
        <ele>148.9</ele>
        <time>2025-10-24T06:34:36.000Z</time>
      </trkpt>
      <trkpt lat="43.55686" lon="6.79455">
        <ele>148.8</ele>
        <time>2025-10-24T06:34:37.000Z</time>
      </trkpt>
      <trkpt lat="43.55689" lon="6.79454">
        <ele>148.8</ele>
        <time>2025-10-24T06:34:38.000Z</time>
      </trkpt>
      <trkpt lat="43.55693" lon="6.79453">
        <ele>148.8</ele>
        <time>2025-10-24T06:34:39.000Z</time>
      </trkpt>
      <trkpt lat="43.55699" lon="6.79452">
        <ele>148.8</ele>
        <time>2025-10-24T06:34:40.000Z</time>
      </trkpt>
      <trkpt lat="43.55703" lon="6.79452">
        <ele>148.7</ele>
        <time>2025-10-24T06:34:41.000Z</time>
      </trkpt>
      <trkpt lat="43.55706" lon="6.79451">
        <ele>148.7</ele>
        <time>2025-10-24T06:34:42.000Z</time>
      </trkpt>
      <trkpt lat="43.5571" lon="6.79451">
        <ele>148.7</ele>
        <time>2025-10-24T06:34:43.000Z</time>
      </trkpt>
      <trkpt lat="43.55715" lon="6.7945">
        <ele>148.7</ele>
        <time>2025-10-24T06:34:44.000Z</time>
      </trkpt>
      <trkpt lat="43.5572" lon="6.79448">
        <ele>148.6</ele>
        <time>2025-10-24T06:34:45.000Z</time>
      </trkpt>
      <trkpt lat="43.55725" lon="6.79447">
        <ele>148.6</ele>
        <time>2025-10-24T06:34:46.000Z</time>
      </trkpt>
      <trkpt lat="43.55728" lon="6.79446">
        <ele>148.6</ele>
        <time>2025-10-24T06:34:47.000Z</time>
      </trkpt>
      <trkpt lat="43.55733" lon="6.79445">
        <ele>148.5</ele>
        <time>2025-10-24T06:34:48.000Z</time>
      </trkpt>
      <trkpt lat="43.55737" lon="6.79444">
        <ele>148.5</ele>
        <time>2025-10-24T06:34:49.000Z</time>
      </trkpt>
    </trkseg>
  </trk>
</gpx>